<?xml version="1.0" encoding="UTF-8" standalone="no" ?>
<gpx xmlns="http://www.topografix.com/GPX/1/1" xmlns:xsi="http://www.w3.org/2001/XMLSchema-instance" xsi:schemaLocation="http://www.topografix.com/GPX/1/1 http://www.topografix.com/GPX/1/1/gpx.xsd" version="1.1" creator="VisuGPX - https://www.visugpx.com">
  <metadata>
    <name>Itinéraire prévu Norvège</name>
  </metadata>
  <trk>
    <name><![CDATA[1_Bergen-Bremsnes: 756km]]></name>
    <trkseg>
      <trkpt lat="60.39437" lon="5.32594">
        <ele>6.307334</ele>
        <time>2020-07-15T11:55:01.640Z</time>
      </trkpt>
      <trkpt lat="60.39457" lon="5.32552">
        <ele>6.307334</ele>
        <time>2020-07-15T11:55:07.338Z</time>
      </trkpt>
      <trkpt lat="60.39473" lon="5.32563">
        <ele>6.307334</ele>
        <time>2020-07-15T11:55:10.447Z</time>
      </trkpt>
      <trkpt lat="60.39508" lon="5.32587">
        <ele>6.307334</ele>
        <time>2020-07-15T11:55:17.023Z</time>
      </trkpt>
      <trkpt lat="60.39515" lon="5.32592">
        <ele>6.307334</ele>
        <time>2020-07-15T11:55:18.339Z</time>
      </trkpt>
      <trkpt lat="60.39526" lon="5.32598">
        <ele>6.263373</ele>
        <time>2020-07-15T11:55:20.301Z</time>
      </trkpt>
      <trkpt lat="60.39535" lon="5.32603">
        <ele>6.227227</ele>
        <time>2020-07-15T11:55:21.883Z</time>
      </trkpt>
      <trkpt lat="60.39542" lon="5.32603">
        <ele>6.198473</ele>
        <time>2020-07-15T11:55:23.095Z</time>
      </trkpt>
      <trkpt lat="60.39555" lon="5.32592">
        <ele>6.140513</ele>
        <time>2020-07-15T11:55:25.496Z</time>
      </trkpt>
      <trkpt lat="60.3956" lon="5.32587">
        <ele>6.119189</ele>
        <time>2020-07-15T11:55:26.304Z</time>
      </trkpt>
      <trkpt lat="60.39567" lon="5.32576">
        <ele>6.081889</ele>
        <time>2020-07-15T11:55:27.874Z</time>
      </trkpt>
      <trkpt lat="60.39584" lon="5.32555">
        <ele>6.003625</ele>
        <time>2020-07-15T11:55:31.252Z</time>
      </trkpt>
      <trkpt lat="60.39586" lon="5.32551">
        <ele>5.993629</ele>
        <time>2020-07-15T11:55:31.620Z</time>
      </trkpt>
      <trkpt lat="60.39621" lon="5.3249">
        <ele>5.808749</ele>
        <time>2020-07-15T11:55:39.421Z</time>
      </trkpt>
      <trkpt lat="60.39655" lon="5.32419">
        <ele>5.613436</ele>
        <time>2020-07-15T11:55:47.641Z</time>
      </trkpt>
      <trkpt lat="60.39659" lon="5.32409">
        <ele>5.58813</ele>
        <time>2020-07-15T11:55:48.717Z</time>
      </trkpt>
      <trkpt lat="60.39661" lon="5.32398">
        <ele>5.543879</ele>
        <time>2020-07-15T11:55:49.579Z</time>
      </trkpt>
      <trkpt lat="60.39664" lon="5.32384">
        <ele>5.486851</ele>
        <time>2020-07-15T11:55:50.787Z</time>
      </trkpt>
      <trkpt lat="60.39671" lon="5.32361">
        <ele>5.389322</ele>
        <time>2020-07-15T11:55:52.918Z</time>
      </trkpt>
      <trkpt lat="60.39673" lon="5.32354">
        <ele>5.359214</ele>
        <time>2020-07-15T11:55:53.629Z</time>
      </trkpt>
      <trkpt lat="60.39694" lon="5.32306">
        <ele>5.123053</ele>
        <time>2020-07-15T11:55:58.449Z</time>
      </trkpt>
      <trkpt lat="60.39699" lon="5.32294">
        <ele>5.06492</ele>
        <time>2020-07-15T11:55:59.728Z</time>
      </trkpt>
      <trkpt lat="60.39757" lon="5.32173">
        <ele>4.445854</ele>
        <time>2020-07-15T11:56:12.832Z</time>
      </trkpt>
      <trkpt lat="60.39771" lon="5.32159">
        <ele>4.333968</ele>
        <time>2020-07-15T11:56:15.365Z</time>
      </trkpt>
      <trkpt lat="60.39772" lon="5.32158">
        <ele>4.324994</ele>
        <time>2020-07-15T11:56:15.554Z</time>
      </trkpt>
      <trkpt lat="60.39779" lon="5.32145">
        <ele>4.255096</ele>
        <time>2020-07-15T11:56:17.096Z</time>
      </trkpt>
      <trkpt lat="60.39789" lon="5.32125">
        <ele>4.340548</ele>
        <time>2020-07-15T11:56:19.474Z</time>
      </trkpt>
      <trkpt lat="60.39809" lon="5.32085">
        <ele>4.5267</ele>
        <time>2020-07-15T11:56:24.040Z</time>
      </trkpt>
      <trkpt lat="60.39812" lon="5.32079">
        <ele>4.553457</ele>
        <time>2020-07-15T11:56:24.720Z</time>
      </trkpt>
      <trkpt lat="60.39817" lon="5.32069">
        <ele>4.598897</ele>
        <time>2020-07-15T11:56:25.865Z</time>
      </trkpt>
      <trkpt lat="60.39826" lon="5.3205">
        <ele>4.686084</ele>
        <time>2020-07-15T11:56:28.221Z</time>
      </trkpt>
      <trkpt lat="60.39829" lon="5.32043">
        <ele>4.71561</ele>
        <time>2020-07-15T11:56:28.956Z</time>
      </trkpt>
      <trkpt lat="60.39834" lon="5.32034">
        <ele>4.760129</ele>
        <time>2020-07-15T11:56:30.176Z</time>
      </trkpt>
      <trkpt lat="60.39842" lon="5.32018">
        <ele>4.829558</ele>
        <time>2020-07-15T11:56:32.170Z</time>
      </trkpt>
      <trkpt lat="60.39867" lon="5.31966">
        <ele>5.070125</ele>
        <time>2020-07-15T11:56:39.685Z</time>
      </trkpt>
      <trkpt lat="60.39874" lon="5.31932">
        <ele>5.185914</ele>
        <time>2020-07-15T11:56:43.748Z</time>
      </trkpt>
      <trkpt lat="60.39876" lon="5.31897">
        <ele>5.30301</ele>
        <time>2020-07-15T11:56:47.597Z</time>
      </trkpt>
      <trkpt lat="60.39877" lon="5.31855">
        <ele>5.455754</ele>
        <time>2020-07-15T11:56:52.876Z</time>
      </trkpt>
      <trkpt lat="60.39881" lon="5.31822">
        <ele>5.786571</ele>
        <time>2020-07-15T11:56:56.884Z</time>
      </trkpt>
      <trkpt lat="60.39888" lon="5.31831">
        <ele>5.939821</ele>
        <time>2020-07-15T11:56:59.312Z</time>
      </trkpt>
      <trkpt lat="60.39901" lon="5.31851">
        <ele>6.272469</ele>
        <time>2020-07-15T11:57:04.227Z</time>
      </trkpt>
      <trkpt lat="60.39907" lon="5.31858">
        <ele>6.416802</ele>
        <time>2020-07-15T11:57:06.155Z</time>
      </trkpt>
      <trkpt lat="60.39913" lon="5.31868">
        <ele>6.571733</ele>
        <time>2020-07-15T11:57:08.712Z</time>
      </trkpt>
      <trkpt lat="60.3993" lon="5.31865">
        <ele>6.898267</ele>
        <time>2020-07-15T11:57:13.604Z</time>
      </trkpt>
      <trkpt lat="60.39943" lon="5.31868">
        <ele>7.179503</ele>
        <time>2020-07-15T11:57:17.129Z</time>
      </trkpt>
      <trkpt lat="60.39947" lon="5.31869">
        <ele>7.25596</ele>
        <time>2020-07-15T11:57:18.550Z</time>
      </trkpt>
      <trkpt lat="60.39954" lon="5.31869">
        <ele>7.390717</ele>
        <time>2020-07-15T11:57:20.544Z</time>
      </trkpt>
      <trkpt lat="60.39955" lon="5.3187">
        <ele>7.420981</ele>
        <time>2020-07-15T11:57:21.024Z</time>
      </trkpt>
      <trkpt lat="60.39969" lon="5.31859">
        <ele>7.716289</ele>
        <time>2020-07-15T11:57:24.798Z</time>
      </trkpt>
      <trkpt lat="60.39981" lon="5.31838">
        <ele>8.036931</ele>
        <time>2020-07-15T11:57:29.201Z</time>
      </trkpt>
      <trkpt lat="60.39982" lon="5.31838">
        <ele>8.044144</ele>
        <time>2020-07-15T11:57:29.558Z</time>
      </trkpt>
      <trkpt lat="60.39989" lon="5.31821">
        <ele>8.263126</ele>
        <time>2020-07-15T11:57:32.492Z</time>
      </trkpt>
      <trkpt lat="60.39993" lon="5.31822">
        <ele>8.347826</ele>
        <time>2020-07-15T11:57:33.653Z</time>
      </trkpt>
      <trkpt lat="60.40007" lon="5.3182">
        <ele>8.625303</ele>
        <time>2020-07-15T11:57:36.627Z</time>
      </trkpt>
      <trkpt lat="60.40009" lon="5.3182">
        <ele>8.67955</ele>
        <time>2020-07-15T11:57:37.665Z</time>
      </trkpt>
      <trkpt lat="60.40049" lon="5.31813">
        <ele>8.935343</ele>
        <time>2020-07-15T11:57:45.486Z</time>
      </trkpt>
      <trkpt lat="60.40088" lon="5.31805">
        <ele>8.736567</ele>
        <time>2020-07-15T11:57:53.134Z</time>
      </trkpt>
      <trkpt lat="60.40098" lon="5.31802">
        <ele>8.68337</ele>
        <time>2020-07-15T11:57:55.198Z</time>
      </trkpt>
      <trkpt lat="60.401" lon="5.31799">
        <ele>8.671515</ele>
        <time>2020-07-15T11:57:55.527Z</time>
      </trkpt>
      <trkpt lat="60.40107" lon="5.31811">
        <ele>8.626199</ele>
        <time>2020-07-15T11:57:57.368Z</time>
      </trkpt>
      <trkpt lat="60.40112" lon="5.31821">
        <ele>8.592176</ele>
        <time>2020-07-15T11:57:58.879Z</time>
      </trkpt>
      <trkpt lat="60.40114" lon="5.31822">
        <ele>8.580808</ele>
        <time>2020-07-15T11:57:59.173Z</time>
      </trkpt>
      <trkpt lat="60.40132" lon="5.31812">
        <ele>8.484619</ele>
        <time>2020-07-15T11:58:02.502Z</time>
      </trkpt>
      <trkpt lat="60.40136" lon="5.3181">
        <ele>8.46303</ele>
        <time>2020-07-15T11:58:03.158Z</time>
      </trkpt>
      <trkpt lat="60.40147" lon="5.3179">
        <ele>8.390918</ele>
        <time>2020-07-15T11:58:05.721Z</time>
      </trkpt>
      <trkpt lat="60.40153" lon="5.3178">
        <ele>8.351152</ele>
        <time>2020-07-15T11:58:06.983Z</time>
      </trkpt>
      <trkpt lat="60.40159" lon="5.31771">
        <ele>8.31549</ele>
        <time>2020-07-15T11:58:08.413Z</time>
      </trkpt>
      <trkpt lat="60.40171" lon="5.31759">
        <ele>8.247446</ele>
        <time>2020-07-15T11:58:11.264Z</time>
      </trkpt>
      <trkpt lat="60.40173" lon="5.31765">
        <ele>8.229075</ele>
        <time>2020-07-15T11:58:11.982Z</time>
      </trkpt>
      <trkpt lat="60.40181" lon="5.31783">
        <ele>8.170399</ele>
        <time>2020-07-15T11:58:13.742Z</time>
      </trkpt>
      <trkpt lat="60.40196" lon="5.31823">
        <ele>8.425715</ele>
        <time>2020-07-15T11:58:17.540Z</time>
      </trkpt>
      <trkpt lat="60.40205" lon="5.31892">
        <ele>8.957509</ele>
        <time>2020-07-15T11:58:23.631Z</time>
      </trkpt>
      <trkpt lat="60.402" lon="5.31965">
        <ele>9.514852</ele>
        <time>2020-07-15T11:58:30.735Z</time>
      </trkpt>
      <trkpt lat="60.40206" lon="5.32022">
        <ele>9.948345</ele>
        <time>2020-07-15T11:58:37.157Z</time>
      </trkpt>
      <trkpt lat="60.40219" lon="5.32047">
        <ele>10.223041</ele>
        <time>2020-07-15T11:58:42.346Z</time>
      </trkpt>
      <trkpt lat="60.40224" lon="5.32054">
        <ele>10.311394</ele>
        <time>2020-07-15T11:58:44.066Z</time>
      </trkpt>
      <trkpt lat="60.40226" lon="5.32057">
        <ele>10.352784</ele>
        <time>2020-07-15T11:58:45.349Z</time>
      </trkpt>
      <trkpt lat="60.40243" lon="5.32078">
        <ele>10.645563</ele>
        <time>2020-07-15T11:58:51.467Z</time>
      </trkpt>
      <trkpt lat="60.40246" lon="5.32081">
        <ele>10.70525</ele>
        <time>2020-07-15T11:58:52.733Z</time>
      </trkpt>
      <trkpt lat="60.4025" lon="5.32085">
        <ele>10.770342</ele>
        <time>2020-07-15T11:58:53.946Z</time>
      </trkpt>
      <trkpt lat="60.40251" lon="5.32087">
        <ele>10.794287</ele>
        <time>2020-07-15T11:58:54.379Z</time>
      </trkpt>
      <trkpt lat="60.40258" lon="5.32095">
        <ele>10.987843</ele>
        <time>2020-07-15T11:58:57.221Z</time>
      </trkpt>
      <trkpt lat="60.40264" lon="5.32101">
        <ele>11.245487</ele>
        <time>2020-07-15T11:58:59.197Z</time>
      </trkpt>
      <trkpt lat="60.40268" lon="5.32106">
        <ele>11.424609</ele>
        <time>2020-07-15T11:59:00.489Z</time>
      </trkpt>
      <trkpt lat="60.40274" lon="5.32111">
        <ele>11.685707</ele>
        <time>2020-07-15T11:59:02.548Z</time>
      </trkpt>
      <trkpt lat="60.40279" lon="5.32117">
        <ele>11.92414</ele>
        <time>2020-07-15T11:59:04.472Z</time>
      </trkpt>
      <trkpt lat="60.40287" lon="5.32123">
        <ele>12.238405</ele>
        <time>2020-07-15T11:59:06.726Z</time>
      </trkpt>
      <trkpt lat="60.40293" lon="5.32127">
        <ele>12.51989</ele>
        <time>2020-07-15T11:59:09.699Z</time>
      </trkpt>
      <trkpt lat="60.40304" lon="5.32132">
        <ele>12.937864</ele>
        <time>2020-07-15T11:59:12.673Z</time>
      </trkpt>
      <trkpt lat="60.4031" lon="5.32133">
        <ele>13.177962</ele>
        <time>2020-07-15T11:59:14.666Z</time>
      </trkpt>
      <trkpt lat="60.40311" lon="5.32138">
        <ele>13.2769</ele>
        <time>2020-07-15T11:59:15.491Z</time>
      </trkpt>
      <trkpt lat="60.40349" lon="5.32137">
        <ele>14.768331</ele>
        <time>2020-07-15T11:59:27.909Z</time>
      </trkpt>
      <trkpt lat="60.40356" lon="5.32137">
        <ele>15.026746</ele>
        <time>2020-07-15T11:59:29.737Z</time>
      </trkpt>
      <trkpt lat="60.40362" lon="5.32138">
        <ele>15.274269</ele>
        <time>2020-07-15T11:59:32.720Z</time>
      </trkpt>
      <trkpt lat="60.4048" lon="5.32277">
        <ele>18.707228</ele>
        <time>2020-07-15T12:00:11.613Z</time>
      </trkpt>
      <trkpt lat="60.40505" lon="5.32307">
        <ele>19.043624</ele>
        <time>2020-07-15T12:00:19.149Z</time>
      </trkpt>
      <trkpt lat="60.40514" lon="5.32319">
        <ele>19.167163</ele>
        <time>2020-07-15T12:00:21.328Z</time>
      </trkpt>
      <trkpt lat="60.40527" lon="5.32328">
        <ele>19.324635</ele>
        <time>2020-07-15T12:00:23.407Z</time>
      </trkpt>
      <trkpt lat="60.40538" lon="5.32343">
        <ele>19.473158</ele>
        <time>2020-07-15T12:00:26.013Z</time>
      </trkpt>
      <trkpt lat="60.40547" lon="5.32354">
        <ele>19.595168</ele>
        <time>2020-07-15T12:00:27.702Z</time>
      </trkpt>
      <trkpt lat="60.40554" lon="5.32359">
        <ele>19.680827</ele>
        <time>2020-07-15T12:00:28.678Z</time>
      </trkpt>
      <trkpt lat="60.4056" lon="5.32362">
        <ele>19.755902</ele>
        <time>2020-07-15T12:00:29.578Z</time>
      </trkpt>
      <trkpt lat="60.40567" lon="5.32364">
        <ele>19.84251</ele>
        <time>2020-07-15T12:00:31.109Z</time>
      </trkpt>
      <trkpt lat="60.40569" lon="5.32365">
        <ele>19.865922</ele>
        <time>2020-07-15T12:00:31.378Z</time>
      </trkpt>
      <trkpt lat="60.40606" lon="5.32348">
        <ele>19.53078</ele>
        <time>2020-07-15T12:00:36.876Z</time>
      </trkpt>
      <trkpt lat="60.40615" lon="5.32336">
        <ele>19.346621</ele>
        <time>2020-07-15T12:00:38.649Z</time>
      </trkpt>
      <trkpt lat="60.40626" lon="5.32322">
        <ele>19.138307</ele>
        <time>2020-07-15T12:00:40.295Z</time>
      </trkpt>
      <trkpt lat="60.40644" lon="5.32299">
        <ele>18.783574</ele>
        <time>2020-07-15T12:00:44.174Z</time>
      </trkpt>
      <trkpt lat="60.4065" lon="5.32291">
        <ele>18.656008</ele>
        <time>2020-07-15T12:00:45.164Z</time>
      </trkpt>
      <trkpt lat="60.40653" lon="5.32287">
        <ele>18.600948</ele>
        <time>2020-07-15T12:00:45.579Z</time>
      </trkpt>
      <trkpt lat="60.40661" lon="5.32278">
        <ele>18.45765</ele>
        <time>2020-07-15T12:00:46.879Z</time>
      </trkpt>
      <trkpt lat="60.40676" lon="5.3226">
        <ele>18.158364</ele>
        <time>2020-07-15T12:00:49.802Z</time>
      </trkpt>
      <trkpt lat="60.40687" lon="5.32248">
        <ele>17.952888</ele>
        <time>2020-07-15T12:00:51.414Z</time>
      </trkpt>
      <trkpt lat="60.40688" lon="5.32245">
        <ele>17.922615</ele>
        <time>2020-07-15T12:00:51.688Z</time>
      </trkpt>
      <trkpt lat="60.40691" lon="5.32242">
        <ele>17.874457</ele>
        <time>2020-07-15T12:00:52.135Z</time>
      </trkpt>
      <trkpt lat="60.40698" lon="5.32235">
        <ele>17.741066</ele>
        <time>2020-07-15T12:00:53.391Z</time>
      </trkpt>
      <trkpt lat="60.407" lon="5.32234">
        <ele>17.709946</ele>
        <time>2020-07-15T12:00:53.633Z</time>
      </trkpt>
      <trkpt lat="60.40708" lon="5.32226">
        <ele>17.558489</ele>
        <time>2020-07-15T12:00:55.093Z</time>
      </trkpt>
      <trkpt lat="60.40733" lon="5.32218">
        <ele>17.131639</ele>
        <time>2020-07-15T12:00:58.513Z</time>
      </trkpt>
      <trkpt lat="60.40741" lon="5.32218">
        <ele>17.010444</ele>
        <time>2020-07-15T12:00:59.583Z</time>
      </trkpt>
      <trkpt lat="60.40741" lon="5.32218">
        <ele>17.003804</ele>
        <time>2020-07-15T12:00:59.841Z</time>
      </trkpt>
      <trkpt lat="60.40751" lon="5.32219">
        <ele>16.95966</ele>
        <time>2020-07-15T12:01:01.110Z</time>
      </trkpt>
      <trkpt lat="60.4076" lon="5.32222">
        <ele>16.928643</ele>
        <time>2020-07-15T12:01:02.234Z</time>
      </trkpt>
      <trkpt lat="60.40774" lon="5.32224">
        <ele>16.874703</ele>
        <time>2020-07-15T12:01:04.452Z</time>
      </trkpt>
      <trkpt lat="60.40786" lon="5.32227">
        <ele>16.829984</ele>
        <time>2020-07-15T12:01:05.992Z</time>
      </trkpt>
      <trkpt lat="60.40789" lon="5.32227">
        <ele>16.821061</ele>
        <time>2020-07-15T12:01:06.289Z</time>
      </trkpt>
      <trkpt lat="60.40812" lon="5.32232">
        <ele>16.735734</ele>
        <time>2020-07-15T12:01:09.899Z</time>
      </trkpt>
      <trkpt lat="60.40824" lon="5.32235">
        <ele>16.689112</ele>
        <time>2020-07-15T12:01:11.846Z</time>
      </trkpt>
      <trkpt lat="60.40834" lon="5.32238">
        <ele>16.651653</ele>
        <time>2020-07-15T12:01:13.409Z</time>
      </trkpt>
      <trkpt lat="60.40849" lon="5.32241">
        <ele>16.595046</ele>
        <time>2020-07-15T12:01:16.769Z</time>
      </trkpt>
      <trkpt lat="60.40892" lon="5.32252">
        <ele>16.43605</ele>
        <time>2020-07-15T12:01:25.425Z</time>
      </trkpt>
      <trkpt lat="60.40918" lon="5.32258">
        <ele>16.339757</ele>
        <time>2020-07-15T12:01:31.060Z</time>
      </trkpt>
      <trkpt lat="60.40923" lon="5.32259">
        <ele>16.403044</ele>
        <time>2020-07-15T12:01:31.917Z</time>
      </trkpt>
      <trkpt lat="60.40929" lon="5.32261">
        <ele>16.577951</ele>
        <time>2020-07-15T12:01:33.148Z</time>
      </trkpt>
      <trkpt lat="60.40937" lon="5.32262">
        <ele>16.814878</ele>
        <time>2020-07-15T12:01:34.823Z</time>
      </trkpt>
      <trkpt lat="60.40946" lon="5.32265">
        <ele>17.090463</ele>
        <time>2020-07-15T12:01:36.998Z</time>
      </trkpt>
      <trkpt lat="60.40959" lon="5.32269">
        <ele>17.481294</ele>
        <time>2020-07-15T12:01:40.564Z</time>
      </trkpt>
      <trkpt lat="60.41072" lon="5.3232">
        <ele>20.895944</ele>
        <time>2020-07-15T12:02:11.054Z</time>
      </trkpt>
      <trkpt lat="60.411" lon="5.32329">
        <ele>21.892262</ele>
        <time>2020-07-15T12:02:21.766Z</time>
      </trkpt>
      <trkpt lat="60.4111" lon="5.3233">
        <ele>22.662129</ele>
        <time>2020-07-15T12:02:24.600Z</time>
      </trkpt>
      <trkpt lat="60.4116" lon="5.32324">
        <ele>26.490467</ele>
        <time>2020-07-15T12:02:42.603Z</time>
      </trkpt>
      <trkpt lat="60.41167" lon="5.32322">
        <ele>27.020622</ele>
        <time>2020-07-15T12:02:47.171Z</time>
      </trkpt>
      <trkpt lat="60.4118" lon="5.32319">
        <ele>27.959809</ele>
        <time>2020-07-15T12:02:51.493Z</time>
      </trkpt>
      <trkpt lat="60.41186" lon="5.32316">
        <ele>28.435186</ele>
        <time>2020-07-15T12:02:54.183Z</time>
      </trkpt>
      <trkpt lat="60.41194" lon="5.32313">
        <ele>29.050864</ele>
        <time>2020-07-15T12:02:57.401Z</time>
      </trkpt>
      <trkpt lat="60.41196" lon="5.32312">
        <ele>29.222525</ele>
        <time>2020-07-15T12:02:58.316Z</time>
      </trkpt>
      <trkpt lat="60.41202" lon="5.32309">
        <ele>29.688894</ele>
        <time>2020-07-15T12:03:02.795Z</time>
      </trkpt>
      <trkpt lat="60.41283" lon="5.3226">
        <ele>36.224003</ele>
        <time>2020-07-15T12:03:41.745Z</time>
      </trkpt>
      <trkpt lat="60.41323" lon="5.32235">
        <ele>39.544739</ele>
        <time>2020-07-15T12:04:02.045Z</time>
      </trkpt>
      <trkpt lat="60.41351" lon="5.3222">
        <ele>41.886812</ele>
        <time>2020-07-15T12:04:17.196Z</time>
      </trkpt>
      <trkpt lat="60.41351" lon="5.32213">
        <ele>42.170372</ele>
        <time>2020-07-15T12:04:18.537Z</time>
      </trkpt>
      <trkpt lat="60.41352" lon="5.32206">
        <ele>42.47892</ele>
        <time>2020-07-15T12:04:21.443Z</time>
      </trkpt>
      <trkpt lat="60.41367" lon="5.32189">
        <ele>43.824967</ele>
        <time>2020-07-15T12:04:29.586Z</time>
      </trkpt>
      <trkpt lat="60.41434" lon="5.32112">
        <ele>49.836046</ele>
        <time>2020-07-15T12:05:00.371Z</time>
      </trkpt>
      <trkpt lat="60.41448" lon="5.32096">
        <ele>49.811673</ele>
        <time>2020-07-15T12:05:05.668Z</time>
      </trkpt>
      <trkpt lat="60.41455" lon="5.32086">
        <ele>49.798815</ele>
        <time>2020-07-15T12:05:08.391Z</time>
      </trkpt>
      <trkpt lat="60.41462" lon="5.32078">
        <ele>49.786993</ele>
        <time>2020-07-15T12:05:10.351Z</time>
      </trkpt>
      <trkpt lat="60.4149" lon="5.32047">
        <ele>49.739428</ele>
        <time>2020-07-15T12:05:17.862Z</time>
      </trkpt>
      <trkpt lat="60.41507" lon="5.32028">
        <ele>49.710689</ele>
        <time>2020-07-15T12:05:20.758Z</time>
      </trkpt>
      <trkpt lat="60.41534" lon="5.31986">
        <ele>49.659019</ele>
        <time>2020-07-15T12:05:26.164Z</time>
      </trkpt>
      <trkpt lat="60.41547" lon="5.31955">
        <ele>49.629922</ele>
        <time>2020-07-15T12:05:29.216Z</time>
      </trkpt>
      <trkpt lat="60.41694" lon="5.31474">
        <ele>41.194266</ele>
        <time>2020-07-15T12:06:05.585Z</time>
      </trkpt>
      <trkpt lat="60.41724" lon="5.31407">
        <ele>40.586058</ele>
        <time>2020-07-15T12:06:12.747Z</time>
      </trkpt>
      <trkpt lat="60.41767" lon="5.31342">
        <ele>39.871636</ele>
        <time>2020-07-15T12:06:23.015Z</time>
      </trkpt>
      <trkpt lat="60.41782" lon="5.3129">
        <ele>39.899778</ele>
        <time>2020-07-15T12:06:29.550Z</time>
      </trkpt>
      <trkpt lat="60.41788" lon="5.31279">
        <ele>40.209482</ele>
        <time>2020-07-15T12:06:31.971Z</time>
      </trkpt>
      <trkpt lat="60.41818" lon="5.31228">
        <ele>41.687717</ele>
        <time>2020-07-15T12:06:43.036Z</time>
      </trkpt>
      <trkpt lat="60.4184" lon="5.31182">
        <ele>42.868385</ele>
        <time>2020-07-15T12:06:53.214Z</time>
      </trkpt>
      <trkpt lat="60.41841" lon="5.31156">
        <ele>43.354247</ele>
        <time>2020-07-15T12:06:56.989Z</time>
      </trkpt>
      <trkpt lat="60.41847" lon="5.31145">
        <ele>43.652114</ele>
        <time>2020-07-15T12:06:59.115Z</time>
      </trkpt>
      <trkpt lat="60.41856" lon="5.31136">
        <ele>44.043706</ele>
        <time>2020-07-15T12:07:03.583Z</time>
      </trkpt>
      <trkpt lat="60.41904" lon="5.31079">
        <ele>46.123767</ele>
        <time>2020-07-15T12:07:22.190Z</time>
      </trkpt>
      <trkpt lat="60.4196" lon="5.31028">
        <ele>48.636022</ele>
        <time>2020-07-15T12:07:43.484Z</time>
      </trkpt>
      <trkpt lat="60.41993" lon="5.30988">
        <ele>50.259354</ele>
        <time>2020-07-15T12:07:56.984Z</time>
      </trkpt>
      <trkpt lat="60.42022" lon="5.30947">
        <ele>51.719512</ele>
        <time>2020-07-15T12:08:08.314Z</time>
      </trkpt>
      <trkpt lat="60.42103" lon="5.30818">
        <ele>54.336891</ele>
        <time>2020-07-15T12:08:36.864Z</time>
      </trkpt>
      <trkpt lat="60.42163" lon="5.30722">
        <ele>55.093892</ele>
        <time>2020-07-15T12:08:52.268Z</time>
      </trkpt>
      <trkpt lat="60.4223" lon="5.30618">
        <ele>55.353939</ele>
        <time>2020-07-15T12:09:07.008Z</time>
      </trkpt>
      <trkpt lat="60.42268" lon="5.30568">
        <ele>55.020662</ele>
        <time>2020-07-15T12:09:14.678Z</time>
      </trkpt>
      <trkpt lat="60.4234" lon="5.3048">
        <ele>54.4067</ele>
        <time>2020-07-15T12:09:28.096Z</time>
      </trkpt>
      <trkpt lat="60.4234" lon="5.30474">
        <ele>54.382381</ele>
        <time>2020-07-15T12:09:28.716Z</time>
      </trkpt>
      <trkpt lat="60.42346" lon="5.30466">
        <ele>54.329679</ele>
        <time>2020-07-15T12:09:30.105Z</time>
      </trkpt>
      <trkpt lat="60.42396" lon="5.30406">
        <ele>54.637591</ele>
        <time>2020-07-15T12:09:39.508Z</time>
      </trkpt>
      <trkpt lat="60.42406" lon="5.3039">
        <ele>54.724771</ele>
        <time>2020-07-15T12:09:43.061Z</time>
      </trkpt>
      <trkpt lat="60.42413" lon="5.30361">
        <ele>54.836679</ele>
        <time>2020-07-15T12:09:45.472Z</time>
      </trkpt>
      <trkpt lat="60.42416" lon="5.30319">
        <ele>54.980221</ele>
        <time>2020-07-15T12:09:50.862Z</time>
      </trkpt>
      <trkpt lat="60.42414" lon="5.30302">
        <ele>55.042459</ele>
        <time>2020-07-15T12:09:52.136Z</time>
      </trkpt>
      <trkpt lat="60.42422" lon="5.30281">
        <ele>55.135412</ele>
        <time>2020-07-15T12:09:54.854Z</time>
      </trkpt>
      <trkpt lat="60.42426" lon="5.30279">
        <ele>55.163045</ele>
        <time>2020-07-15T12:09:55.963Z</time>
      </trkpt>
      <trkpt lat="60.42434" lon="5.30282">
        <ele>55.213588</ele>
        <time>2020-07-15T12:09:58.357Z</time>
      </trkpt>
      <trkpt lat="60.42436" lon="5.30249">
        <ele>55.326045</ele>
        <time>2020-07-15T12:10:00.764Z</time>
      </trkpt>
      <trkpt lat="60.42441" lon="5.30224">
        <ele>55.417304</ele>
        <time>2020-07-15T12:10:04.487Z</time>
      </trkpt>
      <trkpt lat="60.42448" lon="5.30202">
        <ele>55.50822</ele>
        <time>2020-07-15T12:10:08.129Z</time>
      </trkpt>
      <trkpt lat="60.42456" lon="5.30178">
        <ele>55.931185</ele>
        <time>2020-07-15T12:10:11.122Z</time>
      </trkpt>
      <trkpt lat="60.42461" lon="5.30169">
        <ele>56.172791</ele>
        <time>2020-07-15T12:10:13.126Z</time>
      </trkpt>
      <trkpt lat="60.42464" lon="5.30162">
        <ele>56.3379</ele>
        <time>2020-07-15T12:10:15.247Z</time>
      </trkpt>
      <trkpt lat="60.42539" lon="5.30043">
        <ele>59.683623</ele>
        <time>2020-07-15T12:10:42.736Z</time>
      </trkpt>
      <trkpt lat="60.42552" lon="5.30014">
        <ele>60.345654</ele>
        <time>2020-07-15T12:10:48.466Z</time>
      </trkpt>
      <trkpt lat="60.4256" lon="5.30005">
        <ele>60.683509</ele>
        <time>2020-07-15T12:10:52.562Z</time>
      </trkpt>
      <trkpt lat="60.42584" lon="5.29965">
        <ele>61.762705</ele>
        <time>2020-07-15T12:11:01.783Z</time>
      </trkpt>
      <trkpt lat="60.42591" lon="5.29948">
        <ele>61.949454</ele>
        <time>2020-07-15T12:11:06.115Z</time>
      </trkpt>
      <trkpt lat="60.42637" lon="5.29875">
        <ele>62.681914</ele>
        <time>2020-07-15T12:11:22.036Z</time>
      </trkpt>
      <trkpt lat="60.42666" lon="5.29823">
        <ele>63.180141</ele>
        <time>2020-07-15T12:11:32.498Z</time>
      </trkpt>
      <trkpt lat="60.4267" lon="5.29817">
        <ele>63.237804</ele>
        <time>2020-07-15T12:11:34.604Z</time>
      </trkpt>
      <trkpt lat="60.4273" lon="5.29707">
        <ele>63.437403</ele>
        <time>2020-07-15T12:11:46.280Z</time>
      </trkpt>
      <trkpt lat="60.42752" lon="5.2965">
        <ele>61.369324</ele>
        <time>2020-07-15T12:11:50.801Z</time>
      </trkpt>
      <trkpt lat="60.42771" lon="5.29587">
        <ele>59.250233</ele>
        <time>2020-07-15T12:11:55.211Z</time>
      </trkpt>
      <trkpt lat="60.42785" lon="5.29533">
        <ele>57.510402</ele>
        <time>2020-07-15T12:11:58.666Z</time>
      </trkpt>
      <trkpt lat="60.42803" lon="5.29428">
        <ele>54.317883</ele>
        <time>2020-07-15T12:12:04.869Z</time>
      </trkpt>
      <trkpt lat="60.4281" lon="5.29385">
        <ele>52.990589</ele>
        <time>2020-07-15T12:12:07.349Z</time>
      </trkpt>
      <trkpt lat="60.42814" lon="5.29359">
        <ele>52.135232</ele>
        <time>2020-07-15T12:12:08.879Z</time>
      </trkpt>
      <trkpt lat="60.42833" lon="5.29269">
        <ele>49.165628</ele>
        <time>2020-07-15T12:12:14.288Z</time>
      </trkpt>
      <trkpt lat="60.42852" lon="5.29213">
        <ele>47.085468</ele>
        <time>2020-07-15T12:12:18.182Z</time>
      </trkpt>
      <trkpt lat="60.42862" lon="5.29189">
        <ele>46.118776</ele>
        <time>2020-07-15T12:12:19.987Z</time>
      </trkpt>
      <trkpt lat="60.42905" lon="5.29115">
        <ele>42.627816</ele>
        <time>2020-07-15T12:12:26.960Z</time>
      </trkpt>
      <trkpt lat="60.42991" lon="5.29">
        <ele>42.072564</ele>
        <time>2020-07-15T12:12:41.828Z</time>
      </trkpt>
      <trkpt lat="60.43047" lon="5.28892">
        <ele>41.696864</ele>
        <time>2020-07-15T12:12:59.598Z</time>
      </trkpt>
      <trkpt lat="60.43113" lon="5.2874">
        <ele>44.602723</ele>
        <time>2020-07-15T12:13:25.918Z</time>
      </trkpt>
      <trkpt lat="60.43121" lon="5.28718">
        <ele>45.013221</ele>
        <time>2020-07-15T12:13:30.021Z</time>
      </trkpt>
      <trkpt lat="60.43148" lon="5.28655">
        <ele>46.220119</ele>
        <time>2020-07-15T12:13:43.234Z</time>
      </trkpt>
      <trkpt lat="60.43191" lon="5.28589">
        <ele>47.213822</ele>
        <time>2020-07-15T12:13:58.600Z</time>
      </trkpt>
      <trkpt lat="60.43202" lon="5.2858">
        <ele>47.309277</ele>
        <time>2020-07-15T12:14:01.813Z</time>
      </trkpt>
      <trkpt lat="60.43213" lon="5.2857">
        <ele>47.405307</ele>
        <time>2020-07-15T12:14:04.431Z</time>
      </trkpt>
      <trkpt lat="60.4325" lon="5.28551">
        <ele>47.709697</ele>
        <time>2020-07-15T12:14:12.119Z</time>
      </trkpt>
      <trkpt lat="60.43258" lon="5.2855">
        <ele>47.770354</ele>
        <time>2020-07-15T12:14:13.725Z</time>
      </trkpt>
      <trkpt lat="60.43271" lon="5.28547">
        <ele>47.88018</ele>
        <time>2020-07-15T12:14:16.097Z</time>
      </trkpt>
      <trkpt lat="60.43344" lon="5.2852">
        <ele>48.407619</ele>
        <time>2020-07-15T12:14:27.581Z</time>
      </trkpt>
      <trkpt lat="60.43416" lon="5.28469">
        <ele>48.126877</ele>
        <time>2020-07-15T12:14:40.022Z</time>
      </trkpt>
      <trkpt lat="60.43462" lon="5.28469">
        <ele>47.954763</ele>
        <time>2020-07-15T12:14:47.554Z</time>
      </trkpt>
      <trkpt lat="60.43482" lon="5.28479">
        <ele>47.878293</ele>
        <time>2020-07-15T12:14:50.675Z</time>
      </trkpt>
      <trkpt lat="60.43526" lon="5.28526">
        <ele>48.01817</ele>
        <time>2020-07-15T12:15:00.426Z</time>
      </trkpt>
      <trkpt lat="60.43571" lon="5.28573">
        <ele>48.740741</ele>
        <time>2020-07-15T12:15:10.864Z</time>
      </trkpt>
      <trkpt lat="60.43581" lon="5.28577">
        <ele>48.880758</ele>
        <time>2020-07-15T12:15:12.837Z</time>
      </trkpt>
      <trkpt lat="60.43585" lon="5.28578">
        <ele>48.937256</ele>
        <time>2020-07-15T12:15:14.379Z</time>
      </trkpt>
      <trkpt lat="60.43733" lon="5.2861">
        <ele>50.729475</ele>
        <time>2020-07-15T12:15:50.501Z</time>
      </trkpt>
      <trkpt lat="60.43766" lon="5.28619">
        <ele>51.00494</ele>
        <time>2020-07-15T12:15:57.290Z</time>
      </trkpt>
      <trkpt lat="60.4383" lon="5.28634">
        <ele>51.524682</ele>
        <time>2020-07-15T12:16:10.197Z</time>
      </trkpt>
      <trkpt lat="60.43842" lon="5.28637">
        <ele>51.61672</ele>
        <time>2020-07-15T12:16:12.516Z</time>
      </trkpt>
      <trkpt lat="60.43862" lon="5.28636">
        <ele>51.679875</ele>
        <time>2020-07-15T12:16:16.226Z</time>
      </trkpt>
      <trkpt lat="60.43898" lon="5.28607">
        <ele>49.937241</ele>
        <time>2020-07-15T12:16:22.176Z</time>
      </trkpt>
      <trkpt lat="60.43932" lon="5.28555">
        <ele>47.975509</ele>
        <time>2020-07-15T12:16:27.975Z</time>
      </trkpt>
      <trkpt lat="60.43968" lon="5.28502">
        <ele>45.962958</ele>
        <time>2020-07-15T12:16:33.280Z</time>
      </trkpt>
      <trkpt lat="60.43988" lon="5.28472">
        <ele>44.798791</ele>
        <time>2020-07-15T12:16:36.168Z</time>
      </trkpt>
      <trkpt lat="60.44094" lon="5.28333">
        <ele>35.125417</ele>
        <time>2020-07-15T12:16:50.020Z</time>
      </trkpt>
      <trkpt lat="60.44123" lon="5.28316">
        <ele>32.539778</ele>
        <time>2020-07-15T12:16:53.357Z</time>
      </trkpt>
      <trkpt lat="60.44201" lon="5.28287">
        <ele>27.09947</ele>
        <time>2020-07-15T12:17:02.311Z</time>
      </trkpt>
      <trkpt lat="60.44207" lon="5.28285">
        <ele>26.840727</ele>
        <time>2020-07-15T12:17:03.139Z</time>
      </trkpt>
      <trkpt lat="60.44275" lon="5.28246">
        <ele>24.055992</ele>
        <time>2020-07-15T12:17:11.827Z</time>
      </trkpt>
      <trkpt lat="60.44365" lon="5.28194">
        <ele>21.036112</ele>
        <time>2020-07-15T12:17:25.156Z</time>
      </trkpt>
      <trkpt lat="60.44441" lon="5.28129">
        <ele>20.846399</ele>
        <time>2020-07-15T12:17:38.644Z</time>
      </trkpt>
      <trkpt lat="60.44448" lon="5.28129">
        <ele>20.830213</ele>
        <time>2020-07-15T12:17:39.568Z</time>
      </trkpt>
      <trkpt lat="60.44478" lon="5.28157">
        <ele>20.754333</ele>
        <time>2020-07-15T12:17:46.443Z</time>
      </trkpt>
      <trkpt lat="60.44486" lon="5.28165">
        <ele>20.734467</ele>
        <time>2020-07-15T12:17:47.881Z</time>
      </trkpt>
      <trkpt lat="60.44494" lon="5.28175">
        <ele>20.711475</ele>
        <time>2020-07-15T12:17:49.746Z</time>
      </trkpt>
      <trkpt lat="60.44509" lon="5.28195">
        <ele>20.669712</ele>
        <time>2020-07-15T12:17:54.379Z</time>
      </trkpt>
      <trkpt lat="60.44515" lon="5.28204">
        <ele>20.709581</ele>
        <time>2020-07-15T12:17:55.545Z</time>
      </trkpt>
      <trkpt lat="60.44517" lon="5.28208">
        <ele>20.736831</ele>
        <time>2020-07-15T12:17:56.260Z</time>
      </trkpt>
      <trkpt lat="60.44525" lon="5.28236">
        <ele>20.885806</ele>
        <time>2020-07-15T12:17:59.938Z</time>
      </trkpt>
      <trkpt lat="60.44525" lon="5.28239">
        <ele>20.899502</ele>
        <time>2020-07-15T12:18:00.439Z</time>
      </trkpt>
      <trkpt lat="60.44526" lon="5.28245">
        <ele>20.929335</ele>
        <time>2020-07-15T12:18:01.775Z</time>
      </trkpt>
      <trkpt lat="60.4453" lon="5.28312">
        <ele>21.23508</ele>
        <time>2020-07-15T12:18:08.249Z</time>
      </trkpt>
      <trkpt lat="60.44527" lon="5.28364">
        <ele>21.473357</ele>
        <time>2020-07-15T12:18:12.875Z</time>
      </trkpt>
      <trkpt lat="60.44526" lon="5.28371">
        <ele>21.50738</ele>
        <time>2020-07-15T12:18:14.195Z</time>
      </trkpt>
      <trkpt lat="60.44526" lon="5.28381">
        <ele>21.550943</ele>
        <time>2020-07-15T12:18:15.266Z</time>
      </trkpt>
      <trkpt lat="60.44525" lon="5.28395">
        <ele>21.614947</ele>
        <time>2020-07-15T12:18:17.493Z</time>
      </trkpt>
      <trkpt lat="60.44523" lon="5.28421">
        <ele>21.73839</ele>
        <time>2020-07-15T12:18:20.152Z</time>
      </trkpt>
      <trkpt lat="60.44519" lon="5.28448">
        <ele>21.865167</ele>
        <time>2020-07-15T12:18:22.492Z</time>
      </trkpt>
      <trkpt lat="60.44518" lon="5.28456">
        <ele>21.901602</ele>
        <time>2020-07-15T12:18:23.666Z</time>
      </trkpt>
      <trkpt lat="60.44517" lon="5.2848">
        <ele>22.009054</ele>
        <time>2020-07-15T12:18:26.191Z</time>
      </trkpt>
      <trkpt lat="60.44512" lon="5.28552">
        <ele>22.31964</ele>
        <time>2020-07-15T12:18:33.553Z</time>
      </trkpt>
      <trkpt lat="60.44512" lon="5.2856">
        <ele>22.312313</ele>
        <time>2020-07-15T12:18:34.366Z</time>
      </trkpt>
      <trkpt lat="60.44513" lon="5.28574">
        <ele>22.298125</ele>
        <time>2020-07-15T12:18:35.310Z</time>
      </trkpt>
      <trkpt lat="60.44499" lon="5.2872">
        <ele>22.150851</ele>
        <time>2020-07-15T12:18:48.661Z</time>
      </trkpt>
      <trkpt lat="60.44495" lon="5.28754">
        <ele>22.117175</ele>
        <time>2020-07-15T12:18:51.374Z</time>
      </trkpt>
      <trkpt lat="60.4449" lon="5.2882">
        <ele>22.050416</ele>
        <time>2020-07-15T12:18:56.477Z</time>
      </trkpt>
      <trkpt lat="60.44467" lon="5.28906">
        <ele>21.971416</ele>
        <time>2020-07-15T12:19:03.900Z</time>
      </trkpt>
      <trkpt lat="60.44451" lon="5.28946">
        <ele>22.019955</ele>
        <time>2020-07-15T12:19:09.051Z</time>
      </trkpt>
      <trkpt lat="60.44435" lon="5.28995">
        <ele>22.075936</ele>
        <time>2020-07-15T12:19:15.094Z</time>
      </trkpt>
      <trkpt lat="60.44384" lon="5.29136">
        <ele>22.239239</ele>
        <time>2020-07-15T12:19:32.658Z</time>
      </trkpt>
      <trkpt lat="60.44366" lon="5.29169">
        <ele>22.286389</ele>
        <time>2020-07-15T12:19:36.145Z</time>
      </trkpt>
      <trkpt lat="60.44361" lon="5.29162">
        <ele>22.297214</ele>
        <time>2020-07-15T12:19:38.115Z</time>
      </trkpt>
      <trkpt lat="60.44335" lon="5.29225">
        <ele>21.963347</ele>
        <time>2020-07-15T12:19:44.729Z</time>
      </trkpt>
      <trkpt lat="60.44334" lon="5.29237">
        <ele>21.911311</ele>
        <time>2020-07-15T12:19:46.725Z</time>
      </trkpt>
      <trkpt lat="60.44344" lon="5.29237">
        <ele>21.822852</ele>
        <time>2020-07-15T12:19:48.277Z</time>
      </trkpt>
      <trkpt lat="60.44344" lon="5.29253">
        <ele>21.745786</ele>
        <time>2020-07-15T12:19:49.300Z</time>
      </trkpt>
      <trkpt lat="60.44344" lon="5.29305">
        <ele>21.509211</ele>
        <time>2020-07-15T12:19:54.845Z</time>
      </trkpt>
      <trkpt lat="60.44344" lon="5.2932">
        <ele>21.441233</ele>
        <time>2020-07-15T12:19:55.788Z</time>
      </trkpt>
      <trkpt lat="60.44348" lon="5.29323">
        <ele>21.401704</ele>
        <time>2020-07-15T12:19:56.305Z</time>
      </trkpt>
      <trkpt lat="60.44345" lon="5.29378">
        <ele>21.148018</ele>
        <time>2020-07-15T12:20:01.967Z</time>
      </trkpt>
      <trkpt lat="60.44337" lon="5.29401">
        <ele>21.021733</ele>
        <time>2020-07-15T12:20:04.205Z</time>
      </trkpt>
      <trkpt lat="60.44332" lon="5.29416">
        <ele>20.938961</ele>
        <time>2020-07-15T12:20:05.577Z</time>
      </trkpt>
      <trkpt lat="60.44322" lon="5.29433">
        <ele>20.816299</ele>
        <time>2020-07-15T12:20:07.643Z</time>
      </trkpt>
      <trkpt lat="60.44291" lon="5.29468">
        <ele>20.287642</ele>
        <time>2020-07-15T12:20:12.672Z</time>
      </trkpt>
      <trkpt lat="60.44282" lon="5.29474">
        <ele>20.059434</ele>
        <time>2020-07-15T12:20:13.948Z</time>
      </trkpt>
      <trkpt lat="60.44278" lon="5.29471">
        <ele>19.971359</ele>
        <time>2020-07-15T12:20:14.989Z</time>
      </trkpt>
      <trkpt lat="60.44274" lon="5.29465">
        <ele>19.863548</ele>
        <time>2020-07-15T12:20:15.964Z</time>
      </trkpt>
      <trkpt lat="60.44267" lon="5.29475">
        <ele>19.68065</ele>
        <time>2020-07-15T12:20:17.001Z</time>
      </trkpt>
      <trkpt lat="60.44213" lon="5.29619">
        <ele>17.683896</ele>
        <time>2020-07-15T12:20:30.742Z</time>
      </trkpt>
      <trkpt lat="60.44166" lon="5.2971">
        <ele>16.363022</ele>
        <time>2020-07-15T12:20:39.741Z</time>
      </trkpt>
      <trkpt lat="60.44161" lon="5.29724">
        <ele>16.234216</ele>
        <time>2020-07-15T12:20:40.923Z</time>
      </trkpt>
      <trkpt lat="60.44157" lon="5.29721">
        <ele>16.175085</ele>
        <time>2020-07-15T12:20:41.654Z</time>
      </trkpt>
      <trkpt lat="60.44154" lon="5.29725">
        <ele>16.113447</ele>
        <time>2020-07-15T12:20:42.225Z</time>
      </trkpt>
      <trkpt lat="60.44138" lon="5.29773">
        <ele>15.687409</ele>
        <time>2020-07-15T12:20:46.116Z</time>
      </trkpt>
      <trkpt lat="60.44135" lon="5.29789">
        <ele>15.562554</ele>
        <time>2020-07-15T12:20:47.459Z</time>
      </trkpt>
      <trkpt lat="60.44135" lon="5.29799">
        <ele>15.485406</ele>
        <time>2020-07-15T12:20:48.170Z</time>
      </trkpt>
      <trkpt lat="60.44133" lon="5.29822">
        <ele>15.318514</ele>
        <time>2020-07-15T12:20:49.817Z</time>
      </trkpt>
      <trkpt lat="60.44134" lon="5.29823">
        <ele>15.300325</ele>
        <time>2020-07-15T12:20:49.964Z</time>
      </trkpt>
      <trkpt lat="60.44125" lon="5.29865">
        <ele>14.958338</ele>
        <time>2020-07-15T12:20:53.560Z</time>
      </trkpt>
      <trkpt lat="60.44121" lon="5.29882">
        <ele>14.82061</ele>
        <time>2020-07-15T12:20:55.027Z</time>
      </trkpt>
      <trkpt lat="60.44117" lon="5.29894">
        <ele>14.718954</ele>
        <time>2020-07-15T12:20:55.934Z</time>
      </trkpt>
      <trkpt lat="60.4411" lon="5.2992">
        <ele>14.493651</ele>
        <time>2020-07-15T12:20:58.909Z</time>
      </trkpt>
      <trkpt lat="60.44097" lon="5.29956">
        <ele>14.173361</ele>
        <time>2020-07-15T12:21:02.238Z</time>
      </trkpt>
      <trkpt lat="60.44093" lon="5.29968">
        <ele>14.061453</ele>
        <time>2020-07-15T12:21:03.950Z</time>
      </trkpt>
      <trkpt lat="60.44066" lon="5.30036">
        <ele>14.637519</ele>
        <time>2020-07-15T12:21:13.089Z</time>
      </trkpt>
      <trkpt lat="60.43982" lon="5.30144">
        <ele>16.705427</ele>
        <time>2020-07-15T12:21:40.380Z</time>
      </trkpt>
      <trkpt lat="60.43916" lon="5.30264">
        <ele>17.718091</ele>
        <time>2020-07-15T12:22:04.438Z</time>
      </trkpt>
      <trkpt lat="60.43911" lon="5.30275">
        <ele>17.728788</ele>
        <time>2020-07-15T12:22:07.793Z</time>
      </trkpt>
      <trkpt lat="60.43913" lon="5.30273">
        <ele>17.732223</ele>
        <time>2020-07-15T12:22:08.049Z</time>
      </trkpt>
      <trkpt lat="60.43926" lon="5.30271">
        <ele>17.751329</ele>
        <time>2020-07-15T12:22:09.912Z</time>
      </trkpt>
      <trkpt lat="60.43917" lon="5.30296">
        <ele>17.774297</ele>
        <time>2020-07-15T12:22:13.637Z</time>
      </trkpt>
      <trkpt lat="60.43902" lon="5.30335">
        <ele>17.811727</ele>
        <time>2020-07-15T12:22:17.578Z</time>
      </trkpt>
      <trkpt lat="60.43878" lon="5.30429">
        <ele>17.89047</ele>
        <time>2020-07-15T12:22:27.171Z</time>
      </trkpt>
      <trkpt lat="60.43851" lon="5.30577">
        <ele>16.580354</ele>
        <time>2020-07-15T12:22:37.113Z</time>
      </trkpt>
      <trkpt lat="60.43803" lon="5.30777">
        <ele>13.901476</ele>
        <time>2020-07-15T12:22:52.064Z</time>
      </trkpt>
      <trkpt lat="60.43786" lon="5.30817">
        <ele>13.371014</ele>
        <time>2020-07-15T12:22:55.818Z</time>
      </trkpt>
      <trkpt lat="60.43775" lon="5.30835">
        <ele>13.165436</ele>
        <time>2020-07-15T12:22:57.860Z</time>
      </trkpt>
      <trkpt lat="60.43764" lon="5.30855">
        <ele>12.946251</ele>
        <time>2020-07-15T12:23:00.118Z</time>
      </trkpt>
      <trkpt lat="60.43703" lon="5.30953">
        <ele>11.820855</ele>
        <time>2020-07-15T12:23:11.633Z</time>
      </trkpt>
      <trkpt lat="60.43695" lon="5.30969">
        <ele>11.658181</ele>
        <time>2020-07-15T12:23:13.461Z</time>
      </trkpt>
      <trkpt lat="60.43686" lon="5.30992">
        <ele>11.452331</ele>
        <time>2020-07-15T12:23:15.569Z</time>
      </trkpt>
      <trkpt lat="60.43675" lon="5.31037">
        <ele>11.092387</ele>
        <time>2020-07-15T12:23:19.387Z</time>
      </trkpt>
      <trkpt lat="60.43668" lon="5.3108">
        <ele>10.771479</ele>
        <time>2020-07-15T12:23:22.866Z</time>
      </trkpt>
      <trkpt lat="60.43665" lon="5.31142">
        <ele>10.342837</ele>
        <time>2020-07-15T12:23:27.458Z</time>
      </trkpt>
      <trkpt lat="60.43673" lon="5.31264">
        <ele>9.490921</ele>
        <time>2020-07-15T12:23:36.141Z</time>
      </trkpt>
      <trkpt lat="60.43642" lon="5.31358">
        <ele>8.711941</ele>
        <time>2020-07-15T12:23:43.927Z</time>
      </trkpt>
      <trkpt lat="60.43623" lon="5.3144">
        <ele>8.750923</ele>
        <time>2020-07-15T12:23:51.161Z</time>
      </trkpt>
      <trkpt lat="60.43619" lon="5.31461">
        <ele>8.925929</ele>
        <time>2020-07-15T12:23:52.897Z</time>
      </trkpt>
      <trkpt lat="60.43617" lon="5.31482">
        <ele>9.100556</ele>
        <time>2020-07-15T12:23:55.354Z</time>
      </trkpt>
      <trkpt lat="60.43616" lon="5.31491">
        <ele>9.172311</ele>
        <time>2020-07-15T12:23:56.267Z</time>
      </trkpt>
      <trkpt lat="60.43617" lon="5.31497">
        <ele>9.216646</ele>
        <time>2020-07-15T12:23:56.830Z</time>
      </trkpt>
      <trkpt lat="60.43625" lon="5.3153">
        <ele>9.512881</ele>
        <time>2020-07-15T12:24:00.827Z</time>
      </trkpt>
      <trkpt lat="60.43647" lon="5.31569">
        <ele>9.980852</ele>
        <time>2020-07-15T12:24:08.205Z</time>
      </trkpt>
      <trkpt lat="60.43654" lon="5.31593">
        <ele>10.197178</ele>
        <time>2020-07-15T12:24:11.583Z</time>
      </trkpt>
      <trkpt lat="60.43654" lon="5.3162">
        <ele>10.416337</ele>
        <time>2020-07-15T12:24:15.067Z</time>
      </trkpt>
      <trkpt lat="60.43647" lon="5.31654">
        <ele>10.706578</ele>
        <time>2020-07-15T12:24:19.639Z</time>
      </trkpt>
      <trkpt lat="60.4364" lon="5.3167">
        <ele>10.877901</ele>
        <time>2020-07-15T12:24:22.893Z</time>
      </trkpt>
      <trkpt lat="60.43628" lon="5.31697">
        <ele>11.158139</ele>
        <time>2020-07-15T12:24:27.336Z</time>
      </trkpt>
      <trkpt lat="60.43621" lon="5.31713">
        <ele>11.389213</ele>
        <time>2020-07-15T12:24:30.543Z</time>
      </trkpt>
      <trkpt lat="60.43611" lon="5.31743">
        <ele>12.051647</ele>
        <time>2020-07-15T12:24:35.469Z</time>
      </trkpt>
      <trkpt lat="60.43609" lon="5.31752">
        <ele>12.231987</ele>
        <time>2020-07-15T12:24:37.160Z</time>
      </trkpt>
      <trkpt lat="60.43606" lon="5.3177">
        <ele>12.558111</ele>
        <time>2020-07-15T12:24:39.819Z</time>
      </trkpt>
      <trkpt lat="60.43604" lon="5.31785">
        <ele>12.827382</ele>
        <time>2020-07-15T12:24:42.343Z</time>
      </trkpt>
      <trkpt lat="60.43604" lon="5.31804">
        <ele>13.177347</ele>
        <time>2020-07-15T12:24:45.133Z</time>
      </trkpt>
      <trkpt lat="60.43608" lon="5.31836">
        <ele>13.763552</ele>
        <time>2020-07-15T12:24:49.747Z</time>
      </trkpt>
      <trkpt lat="60.43624" lon="5.31895">
        <ele>14.987901</ele>
        <time>2020-07-15T12:24:59.832Z</time>
      </trkpt>
      <trkpt lat="60.4363" lon="5.31919">
        <ele>15.470809</ele>
        <time>2020-07-15T12:25:04.298Z</time>
      </trkpt>
      <trkpt lat="60.43656" lon="5.32023">
        <ele>17.558842</ele>
        <time>2020-07-15T12:25:21.993Z</time>
      </trkpt>
      <trkpt lat="60.43666" lon="5.32061">
        <ele>18.173581</ele>
        <time>2020-07-15T12:25:28.411Z</time>
      </trkpt>
      <trkpt lat="60.43686" lon="5.32109">
        <ele>18.950412</ele>
        <time>2020-07-15T12:25:36.142Z</time>
      </trkpt>
      <trkpt lat="60.43713" lon="5.32146">
        <ele>19.791624</ele>
        <time>2020-07-15T12:25:44.349Z</time>
      </trkpt>
      <trkpt lat="60.43723" lon="5.32153">
        <ele>20.045438</ele>
        <time>2020-07-15T12:25:46.934Z</time>
      </trkpt>
      <trkpt lat="60.4373" lon="5.32157">
        <ele>20.237859</ele>
        <time>2020-07-15T12:25:48.620Z</time>
      </trkpt>
      <trkpt lat="60.43739" lon="5.32162">
        <ele>20.47771</ele>
        <time>2020-07-15T12:25:50.723Z</time>
      </trkpt>
      <trkpt lat="60.43749" lon="5.32166">
        <ele>20.735238</ele>
        <time>2020-07-15T12:25:53.458Z</time>
      </trkpt>
      <trkpt lat="60.43811" lon="5.32192">
        <ele>22.335841</ele>
        <time>2020-07-15T12:26:08.170Z</time>
      </trkpt>
      <trkpt lat="60.43893" lon="5.32309">
        <ele>26.066806</ele>
        <time>2020-07-15T12:26:37.350Z</time>
      </trkpt>
      <trkpt lat="60.43907" lon="5.32321">
        <ele>26.620635</ele>
        <time>2020-07-15T12:26:41.836Z</time>
      </trkpt>
      <trkpt lat="60.43917" lon="5.32328">
        <ele>27.043655</ele>
        <time>2020-07-15T12:26:45.973Z</time>
      </trkpt>
      <trkpt lat="60.43932" lon="5.32336">
        <ele>27.601201</ele>
        <time>2020-07-15T12:26:50.400Z</time>
      </trkpt>
      <trkpt lat="60.43943" lon="5.32338">
        <ele>28.008292</ele>
        <time>2020-07-15T12:26:53.844Z</time>
      </trkpt>
      <trkpt lat="60.43958" lon="5.32337">
        <ele>28.570696</ele>
        <time>2020-07-15T12:26:59.152Z</time>
      </trkpt>
      <trkpt lat="60.43995" lon="5.32324">
        <ele>30.234104</ele>
        <time>2020-07-15T12:27:11.159Z</time>
      </trkpt>
      <trkpt lat="60.44014" lon="5.3232">
        <ele>31.147336</ele>
        <time>2020-07-15T12:27:17.093Z</time>
      </trkpt>
      <trkpt lat="60.44025" lon="5.32319">
        <ele>31.64881</ele>
        <time>2020-07-15T12:27:20.933Z</time>
      </trkpt>
      <trkpt lat="60.44035" lon="5.32319">
        <ele>32.145207</ele>
        <time>2020-07-15T12:27:23.802Z</time>
      </trkpt>
      <trkpt lat="60.44052" lon="5.32323">
        <ele>32.95251</ele>
        <time>2020-07-15T12:27:29.247Z</time>
      </trkpt>
      <trkpt lat="60.44075" lon="5.3233">
        <ele>34.057436</ele>
        <time>2020-07-15T12:27:36.456Z</time>
      </trkpt>
      <trkpt lat="60.44088" lon="5.32334">
        <ele>34.679229</ele>
        <time>2020-07-15T12:27:41.219Z</time>
      </trkpt>
      <trkpt lat="60.44122" lon="5.32325">
        <ele>36.329279</ele>
        <time>2020-07-15T12:27:53.607Z</time>
      </trkpt>
      <trkpt lat="60.44186" lon="5.32278">
        <ele>40.196767</ele>
        <time>2020-07-15T12:28:16.932Z</time>
      </trkpt>
      <trkpt lat="60.44211" lon="5.32265">
        <ele>41.841451</ele>
        <time>2020-07-15T12:28:25.011Z</time>
      </trkpt>
      <trkpt lat="60.44299" lon="5.32199">
        <ele>47.721345</ele>
        <time>2020-07-15T12:29:00.329Z</time>
      </trkpt>
      <trkpt lat="60.44318" lon="5.32198">
        <ele>48.938568</ele>
        <time>2020-07-15T12:29:09.678Z</time>
      </trkpt>
      <trkpt lat="60.44333" lon="5.32221">
        <ele>50.943087</ele>
        <time>2020-07-15T12:29:17.260Z</time>
      </trkpt>
      <trkpt lat="60.44342" lon="5.32255">
        <ele>53.019479</ele>
        <time>2020-07-15T12:29:26.709Z</time>
      </trkpt>
      <trkpt lat="60.44342" lon="5.32301">
        <ele>55.554593</ele>
        <time>2020-07-15T12:29:36.797Z</time>
      </trkpt>
      <trkpt lat="60.4434" lon="5.32324">
        <ele>56.87426</ele>
        <time>2020-07-15T12:29:45.200Z</time>
      </trkpt>
      <trkpt lat="60.44335" lon="5.32358">
        <ele>58.818095</ele>
        <time>2020-07-15T12:29:53.899Z</time>
      </trkpt>
      <trkpt lat="60.44328" lon="5.32383">
        <ele>60.418027</ele>
        <time>2020-07-15T12:30:03.464Z</time>
      </trkpt>
      <trkpt lat="60.44319" lon="5.32403">
        <ele>61.857063</ele>
        <time>2020-07-15T12:30:09.989Z</time>
      </trkpt>
      <trkpt lat="60.44299" lon="5.32443">
        <ele>65.019392</ele>
        <time>2020-07-15T12:30:26.974Z</time>
      </trkpt>
      <trkpt lat="60.44277" lon="5.32498">
        <ele>68.883723</ele>
        <time>2020-07-15T12:30:46.840Z</time>
      </trkpt>
      <trkpt lat="60.44273" lon="5.32538">
        <ele>70.991768</ele>
        <time>2020-07-15T12:30:57.541Z</time>
      </trkpt>
      <trkpt lat="60.44273" lon="5.32561">
        <ele>72.148977</ele>
        <time>2020-07-15T12:31:06.198Z</time>
      </trkpt>
      <trkpt lat="60.44275" lon="5.32575">
        <ele>72.858532</ele>
        <time>2020-07-15T12:31:10.681Z</time>
      </trkpt>
      <trkpt lat="60.44279" lon="5.32588">
        <ele>73.654388</ele>
        <time>2020-07-15T12:31:13.754Z</time>
      </trkpt>
      <trkpt lat="60.44289" lon="5.32605">
        <ele>74.920735</ele>
        <time>2020-07-15T12:31:21.602Z</time>
      </trkpt>
      <trkpt lat="60.44311" lon="5.32628">
        <ele>77.459188</ele>
        <time>2020-07-15T12:31:35.365Z</time>
      </trkpt>
      <trkpt lat="60.44358" lon="5.32627">
        <ele>82.268783</ele>
        <time>2020-07-15T12:32:01.096Z</time>
      </trkpt>
      <trkpt lat="60.44388" lon="5.32618">
        <ele>85.284658</ele>
        <time>2020-07-15T12:32:13.504Z</time>
      </trkpt>
      <trkpt lat="60.44411" lon="5.32608">
        <ele>87.373983</ele>
        <time>2020-07-15T12:32:24.319Z</time>
      </trkpt>
      <trkpt lat="60.4441" lon="5.32598">
        <ele>87.354615</ele>
        <time>2020-07-15T12:32:25.366Z</time>
      </trkpt>
      <trkpt lat="60.44415" lon="5.32594">
        <ele>87.334812</ele>
        <time>2020-07-15T12:32:27.777Z</time>
      </trkpt>
      <trkpt lat="60.44449" lon="5.32571">
        <ele>87.206572</ele>
        <time>2020-07-15T12:32:37.485Z</time>
      </trkpt>
      <trkpt lat="60.44456" lon="5.32566">
        <ele>87.179752</ele>
        <time>2020-07-15T12:32:39.462Z</time>
      </trkpt>
      <trkpt lat="60.44482" lon="5.32546">
        <ele>87.08134</ele>
        <time>2020-07-15T12:32:44.493Z</time>
      </trkpt>
      <trkpt lat="60.44569" lon="5.32451">
        <ele>86.485777</ele>
        <time>2020-07-15T12:32:58.115Z</time>
      </trkpt>
      <trkpt lat="60.44732" lon="5.32239">
        <ele>74.721079</ele>
        <time>2020-07-15T12:33:21.431Z</time>
      </trkpt>
      <trkpt lat="60.44821" lon="5.32153">
        <ele>70.743155</ele>
        <time>2020-07-15T12:33:34.025Z</time>
      </trkpt>
      <trkpt lat="60.44895" lon="5.32029">
        <ele>68.447315</ele>
        <time>2020-07-15T12:33:48.746Z</time>
      </trkpt>
      <trkpt lat="60.44914" lon="5.32003">
        <ele>68.60358</ele>
        <time>2020-07-15T12:33:52.633Z</time>
      </trkpt>
      <trkpt lat="60.44916" lon="5.3201">
        <ele>68.631521</ele>
        <time>2020-07-15T12:33:53.353Z</time>
      </trkpt>
      <trkpt lat="60.44919" lon="5.32016">
        <ele>68.663491</ele>
        <time>2020-07-15T12:33:54.777Z</time>
      </trkpt>
      <trkpt lat="60.44949" lon="5.31981">
        <ele>68.902883</ele>
        <time>2020-07-15T12:34:01.890Z</time>
      </trkpt>
      <trkpt lat="60.4501" lon="5.31937">
        <ele>69.351527</ele>
        <time>2020-07-15T12:34:17.614Z</time>
      </trkpt>
      <trkpt lat="60.4534" lon="5.31775">
        <ele>77.435534</ele>
        <time>2020-07-15T12:35:49.793Z</time>
      </trkpt>
      <trkpt lat="60.45374" lon="5.31777">
        <ele>78.20076</ele>
        <time>2020-07-15T12:35:57.533Z</time>
      </trkpt>
      <trkpt lat="60.45441" lon="5.318">
        <ele>78.737155</ele>
        <time>2020-07-15T12:36:12.406Z</time>
      </trkpt>
      <trkpt lat="60.45556" lon="5.31833">
        <ele>79.630515</ele>
        <time>2020-07-15T12:36:35.059Z</time>
      </trkpt>
      <trkpt lat="60.45569" lon="5.3184">
        <ele>79.978401</ele>
        <time>2020-07-15T12:36:37.827Z</time>
      </trkpt>
      <trkpt lat="60.45578" lon="5.31854">
        <ele>80.277347</ele>
        <time>2020-07-15T12:36:40.231Z</time>
      </trkpt>
      <trkpt lat="60.45579" lon="5.31833">
        <ele>80.551794</ele>
        <time>2020-07-15T12:36:42.358Z</time>
      </trkpt>
      <trkpt lat="60.45579" lon="5.31802">
        <ele>80.945081</ele>
        <time>2020-07-15T12:36:45.457Z</time>
      </trkpt>
      <trkpt lat="60.4557" lon="5.31775">
        <ele>81.379075</ele>
        <time>2020-07-15T12:36:49.206Z</time>
      </trkpt>
      <trkpt lat="60.45549" lon="5.31757">
        <ele>81.992079</ele>
        <time>2020-07-15T12:36:54.877Z</time>
      </trkpt>
      <trkpt lat="60.45539" lon="5.31745">
        <ele>82.297923</ele>
        <time>2020-07-15T12:36:57.984Z</time>
      </trkpt>
      <trkpt lat="60.45535" lon="5.3174">
        <ele>82.424512</ele>
        <time>2020-07-15T12:36:59.259Z</time>
      </trkpt>
      <trkpt lat="60.45523" lon="5.31715">
        <ele>82.868786</ele>
        <time>2020-07-15T12:37:04.600Z</time>
      </trkpt>
      <trkpt lat="60.45519" lon="5.317">
        <ele>83.092552</ele>
        <time>2020-07-15T12:37:07.160Z</time>
      </trkpt>
      <trkpt lat="60.45511" lon="5.3167">
        <ele>83.544654</ele>
        <time>2020-07-15T12:37:11.983Z</time>
      </trkpt>
      <trkpt lat="60.45508" lon="5.3162">
        <ele>84.20061</ele>
        <time>2020-07-15T12:37:20.538Z</time>
      </trkpt>
      <trkpt lat="60.45509" lon="5.31559">
        <ele>85.344031</ele>
        <time>2020-07-15T12:37:30.730Z</time>
      </trkpt>
      <trkpt lat="60.45515" lon="5.31501">
        <ele>86.506572</ele>
        <time>2020-07-15T12:37:40.705Z</time>
      </trkpt>
      <trkpt lat="60.45528" lon="5.31443">
        <ele>87.78308</ele>
        <time>2020-07-15T12:37:50.277Z</time>
      </trkpt>
      <trkpt lat="60.4553" lon="5.31436">
        <ele>87.939735</ele>
        <time>2020-07-15T12:37:52.393Z</time>
      </trkpt>
      <trkpt lat="60.45547" lon="5.3138">
        <ele>89.239477</ele>
        <time>2020-07-15T12:38:02.253Z</time>
      </trkpt>
      <trkpt lat="60.45569" lon="5.31324">
        <ele>90.647483</ele>
        <time>2020-07-15T12:38:13.190Z</time>
      </trkpt>
      <trkpt lat="60.45619" lon="5.31179">
        <ele>90.932033</ele>
        <time>2020-07-15T12:38:34.906Z</time>
      </trkpt>
      <trkpt lat="60.45635" lon="5.31114">
        <ele>90.57784</ele>
        <time>2020-07-15T12:38:40.145Z</time>
      </trkpt>
      <trkpt lat="60.45649" lon="5.31051">
        <ele>90.239965</ele>
        <time>2020-07-15T12:38:44.704Z</time>
      </trkpt>
      <trkpt lat="60.4567" lon="5.30896">
        <ele>88.571329</ele>
        <time>2020-07-15T12:38:54.624Z</time>
      </trkpt>
      <trkpt lat="60.4569" lon="5.30736">
        <ele>85.620561</ele>
        <time>2020-07-15T12:39:04.833Z</time>
      </trkpt>
      <trkpt lat="60.45698" lon="5.30643">
        <ele>83.93941</ele>
        <time>2020-07-15T12:39:10.829Z</time>
      </trkpt>
      <trkpt lat="60.45693" lon="5.30563">
        <ele>82.874812</ele>
        <time>2020-07-15T12:39:16.227Z</time>
      </trkpt>
      <trkpt lat="60.45684" lon="5.30529">
        <ele>82.509821</ele>
        <time>2020-07-15T12:39:18.959Z</time>
      </trkpt>
      <trkpt lat="60.45681" lon="5.30518">
        <ele>82.396489</ele>
        <time>2020-07-15T12:39:19.726Z</time>
      </trkpt>
      <trkpt lat="60.45674" lon="5.30494">
        <ele>82.130092</ele>
        <time>2020-07-15T12:39:21.870Z</time>
      </trkpt>
      <trkpt lat="60.45659" lon="5.30412">
        <ele>81.305243</ele>
        <time>2020-07-15T12:39:28.552Z</time>
      </trkpt>
      <trkpt lat="60.45656" lon="5.30372">
        <ele>80.921439</ele>
        <time>2020-07-15T12:39:31.687Z</time>
      </trkpt>
      <trkpt lat="60.45655" lon="5.30331">
        <ele>80.533159</ele>
        <time>2020-07-15T12:39:35.050Z</time>
      </trkpt>
      <trkpt lat="60.45656" lon="5.30285">
        <ele>80.104415</ele>
        <time>2020-07-15T12:39:38.579Z</time>
      </trkpt>
      <trkpt lat="60.4566" lon="5.30167">
        <ele>77.119224</ele>
        <time>2020-07-15T12:39:46.172Z</time>
      </trkpt>
      <trkpt lat="60.45654" lon="5.30094">
        <ele>74.918333</ele>
        <time>2020-07-15T12:39:50.475Z</time>
      </trkpt>
      <trkpt lat="60.45646" lon="5.30064">
        <ele>73.938228</ele>
        <time>2020-07-15T12:39:52.388Z</time>
      </trkpt>
      <trkpt lat="60.45633" lon="5.30039">
        <ele>72.841005</ele>
        <time>2020-07-15T12:39:54.406Z</time>
      </trkpt>
      <trkpt lat="60.45616" lon="5.30016">
        <ele>71.647344</ele>
        <time>2020-07-15T12:39:56.695Z</time>
      </trkpt>
      <trkpt lat="60.45605" lon="5.30005">
        <ele>70.878188</ele>
        <time>2020-07-15T12:39:58.092Z</time>
      </trkpt>
      <trkpt lat="60.45582" lon="5.29979">
        <ele>69.316008</ele>
        <time>2020-07-15T12:40:00.974Z</time>
      </trkpt>
      <trkpt lat="60.4554" lon="5.29934">
        <ele>66.410259</ele>
        <time>2020-07-15T12:40:06.427Z</time>
      </trkpt>
      <trkpt lat="60.45508" lon="5.29895">
        <ele>64.130154</ele>
        <time>2020-07-15T12:40:10.760Z</time>
      </trkpt>
      <trkpt lat="60.45492" lon="5.29864">
        <ele>62.808928</ele>
        <time>2020-07-15T12:40:13.332Z</time>
      </trkpt>
      <trkpt lat="60.45483" lon="5.29831">
        <ele>61.680653</ele>
        <time>2020-07-15T12:40:15.550Z</time>
      </trkpt>
      <trkpt lat="60.45479" lon="5.29792">
        <ele>60.504651</ele>
        <time>2020-07-15T12:40:17.872Z</time>
      </trkpt>
      <trkpt lat="60.45481" lon="5.29743">
        <ele>59.034633</ele>
        <time>2020-07-15T12:40:20.861Z</time>
      </trkpt>
      <trkpt lat="60.45485" lon="5.29726">
        <ele>58.453077</ele>
        <time>2020-07-15T12:40:22.090Z</time>
      </trkpt>
      <trkpt lat="60.45489" lon="5.29707">
        <ele>57.924712</ele>
        <time>2020-07-15T12:40:23.413Z</time>
      </trkpt>
      <trkpt lat="60.45531" lon="5.29581">
        <ele>54.905416</ele>
        <time>2020-07-15T12:40:32.986Z</time>
      </trkpt>
      <trkpt lat="60.45543" lon="5.29547">
        <ele>54.069478</ele>
        <time>2020-07-15T12:40:35.738Z</time>
      </trkpt>
      <trkpt lat="60.45585" lon="5.29423">
        <ele>51.080493</ele>
        <time>2020-07-15T12:40:45.200Z</time>
      </trkpt>
      <trkpt lat="60.45596" lon="5.2939">
        <ele>50.184595</ele>
        <time>2020-07-15T12:40:47.448Z</time>
      </trkpt>
      <trkpt lat="60.45665" lon="5.29145">
        <ele>43.567486</ele>
        <time>2020-07-15T12:41:03.979Z</time>
      </trkpt>
      <trkpt lat="60.45671" lon="5.29112">
        <ele>42.728808</ele>
        <time>2020-07-15T12:41:06.260Z</time>
      </trkpt>
      <trkpt lat="60.45686" lon="5.29037">
        <ele>41.872775</ele>
        <time>2020-07-15T12:41:11.943Z</time>
      </trkpt>
      <trkpt lat="60.45714" lon="5.28936">
        <ele>41.098449</ele>
        <time>2020-07-15T12:41:20.461Z</time>
      </trkpt>
      <trkpt lat="60.45751" lon="5.28866">
        <ele>40.410129</ele>
        <time>2020-07-15T12:41:28.446Z</time>
      </trkpt>
      <trkpt lat="60.45775" lon="5.28847">
        <ele>40.056499</ele>
        <time>2020-07-15T12:41:32.866Z</time>
      </trkpt>
      <trkpt lat="60.45801" lon="5.28834">
        <ele>39.823334</ele>
        <time>2020-07-15T12:41:37.331Z</time>
      </trkpt>
      <trkpt lat="60.45852" lon="5.28814">
        <ele>39.712895</ele>
        <time>2020-07-15T12:41:46.155Z</time>
      </trkpt>
      <trkpt lat="60.45876" lon="5.28795">
        <ele>39.659273</ele>
        <time>2020-07-15T12:41:50.528Z</time>
      </trkpt>
      <trkpt lat="60.4589" lon="5.28778">
        <ele>39.624891</ele>
        <time>2020-07-15T12:41:53.266Z</time>
      </trkpt>
      <trkpt lat="60.459" lon="5.28766">
        <ele>39.600446</ele>
        <time>2020-07-15T12:41:55.266Z</time>
      </trkpt>
      <trkpt lat="60.4591" lon="5.28749">
        <ele>39.571837</ele>
        <time>2020-07-15T12:41:57.606Z</time>
      </trkpt>
      <trkpt lat="60.45917" lon="5.28737">
        <ele>39.552194</ele>
        <time>2020-07-15T12:41:59.183Z</time>
      </trkpt>
      <trkpt lat="60.4595" lon="5.28657">
        <ele>39.462268</ele>
        <time>2020-07-15T12:42:08.427Z</time>
      </trkpt>
      <trkpt lat="60.45986" lon="5.28448">
        <ele>39.418426</ele>
        <time>2020-07-15T12:42:28.719Z</time>
      </trkpt>
      <trkpt lat="60.4599" lon="5.28438">
        <ele>39.416172</ele>
        <time>2020-07-15T12:42:30.038Z</time>
      </trkpt>
      <trkpt lat="60.46003" lon="5.28399">
        <ele>39.406731</ele>
        <time>2020-07-15T12:42:34.161Z</time>
      </trkpt>
      <trkpt lat="60.46022" lon="5.28357">
        <ele>39.395589</ele>
        <time>2020-07-15T12:42:38.975Z</time>
      </trkpt>
      <trkpt lat="60.46051" lon="5.28309">
        <ele>38.551427</ele>
        <time>2020-07-15T12:42:44.812Z</time>
      </trkpt>
      <trkpt lat="60.46056" lon="5.28299">
        <ele>38.372228</ele>
        <time>2020-07-15T12:42:45.870Z</time>
      </trkpt>
      <trkpt lat="60.46088" lon="5.28253">
        <ele>37.412803</ele>
        <time>2020-07-15T12:42:51.489Z</time>
      </trkpt>
      <trkpt lat="60.46104" lon="5.28234">
        <ele>36.97143</ele>
        <time>2020-07-15T12:42:54.051Z</time>
      </trkpt>
      <trkpt lat="60.4616" lon="5.28161">
        <ele>35.349012</ele>
        <time>2020-07-15T12:43:02.590Z</time>
      </trkpt>
      <trkpt lat="60.46234" lon="5.28074">
        <ele>31.94359</ele>
        <time>2020-07-15T12:43:13.267Z</time>
      </trkpt>
      <trkpt lat="60.46247" lon="5.28057">
        <ele>31.28846</ele>
        <time>2020-07-15T12:43:15.107Z</time>
      </trkpt>
      <trkpt lat="60.46319" lon="5.27914">
        <ele>27.047037</ele>
        <time>2020-07-15T12:43:27.661Z</time>
      </trkpt>
      <trkpt lat="60.46345" lon="5.27876">
        <ele>25.979978</ele>
        <time>2020-07-15T12:43:31.589Z</time>
      </trkpt>
      <trkpt lat="60.46371" lon="5.27848">
        <ele>24.974553</ele>
        <time>2020-07-15T12:43:35.360Z</time>
      </trkpt>
      <trkpt lat="60.46428" lon="5.27806">
        <ele>22.913475</ele>
        <time>2020-07-15T12:43:43.583Z</time>
      </trkpt>
      <trkpt lat="60.46455" lon="5.27782">
        <ele>21.914978</ele>
        <time>2020-07-15T12:43:47.479Z</time>
      </trkpt>
      <trkpt lat="60.46434" lon="5.27764">
        <ele>21.15705</ele>
        <time>2020-07-15T12:43:50.591Z</time>
      </trkpt>
      <trkpt lat="60.46435" lon="5.27729">
        <ele>20.681697</ele>
        <time>2020-07-15T12:43:53.016Z</time>
      </trkpt>
      <trkpt lat="60.46441" lon="5.27707">
        <ele>20.342248</ele>
        <time>2020-07-15T12:43:54.671Z</time>
      </trkpt>
      <trkpt lat="60.46435" lon="5.27729">
        <ele>20.002799</ele>
        <time>2020-07-15T12:43:56.468Z</time>
      </trkpt>
      <trkpt lat="60.46434" lon="5.27764">
        <ele>19.527446</ele>
        <time>2020-07-15T12:43:58.815Z</time>
      </trkpt>
      <trkpt lat="60.46455" lon="5.27782">
        <ele>18.896592</ele>
        <time>2020-07-15T12:44:02.077Z</time>
      </trkpt>
      <trkpt lat="60.46491" lon="5.27734">
        <ele>17.731017</ele>
        <time>2020-07-15T12:44:07.658Z</time>
      </trkpt>
      <trkpt lat="60.46546" lon="5.2766">
        <ele>16.229418</ele>
        <time>2020-07-15T12:44:16.967Z</time>
      </trkpt>
      <trkpt lat="60.46575" lon="5.27643">
        <ele>16.051179</ele>
        <time>2020-07-15T12:44:21.098Z</time>
      </trkpt>
      <trkpt lat="60.46605" lon="5.27644">
        <ele>15.868206</ele>
        <time>2020-07-15T12:44:25.595Z</time>
      </trkpt>
      <trkpt lat="60.46634" lon="5.27661">
        <ele>15.688312</ele>
        <time>2020-07-15T12:44:30.374Z</time>
      </trkpt>
      <trkpt lat="60.46713" lon="5.27732">
        <ele>15.664423</ele>
        <time>2020-07-15T12:44:46.803Z</time>
      </trkpt>
      <trkpt lat="60.46728" lon="5.2775">
        <ele>16.30972</ele>
        <time>2020-07-15T12:44:51.167Z</time>
      </trkpt>
      <trkpt lat="60.46746" lon="5.27765">
        <ele>16.997997</ele>
        <time>2020-07-15T12:44:55.765Z</time>
      </trkpt>
      <trkpt lat="60.46767" lon="5.27776">
        <ele>17.808061</ele>
        <time>2020-07-15T12:45:02.012Z</time>
      </trkpt>
      <trkpt lat="60.46811" lon="5.27774">
        <ele>19.396455</ele>
        <time>2020-07-15T12:45:15.133Z</time>
      </trkpt>
      <trkpt lat="60.46847" lon="5.27739">
        <ele>20.868591</ele>
        <time>2020-07-15T12:45:28.559Z</time>
      </trkpt>
      <trkpt lat="60.46855" lon="5.27725">
        <ele>21.237784</ele>
        <time>2020-07-15T12:45:32.316Z</time>
      </trkpt>
      <trkpt lat="60.4689" lon="5.27664">
        <ele>24.802962</ele>
        <time>2020-07-15T12:45:49.376Z</time>
      </trkpt>
      <trkpt lat="60.46924" lon="5.27606">
        <ele>29.084492</ele>
        <time>2020-07-15T12:46:06.866Z</time>
      </trkpt>
      <trkpt lat="60.46933" lon="5.27591">
        <ele>30.178018</ele>
        <time>2020-07-15T12:46:12.023Z</time>
      </trkpt>
      <trkpt lat="60.46982" lon="5.27514">
        <ele>36.194358</ele>
        <time>2020-07-15T12:46:45.422Z</time>
      </trkpt>
      <trkpt lat="60.47004" lon="5.27489">
        <ele>38.553714</ele>
        <time>2020-07-15T12:47:00.729Z</time>
      </trkpt>
      <trkpt lat="60.47035" lon="5.27486">
        <ele>42.649865</ele>
        <time>2020-07-15T12:47:21.259Z</time>
      </trkpt>
      <trkpt lat="60.47045" lon="5.27501">
        <ele>44.257297</ele>
        <time>2020-07-15T12:47:29.678Z</time>
      </trkpt>
      <trkpt lat="60.47054" lon="5.27484">
        <ele>45.923631</ele>
        <time>2020-07-15T12:47:37.790Z</time>
      </trkpt>
      <trkpt lat="60.47096" lon="5.27404">
        <ele>53.784773</ele>
        <time>2020-07-15T12:48:17.813Z</time>
      </trkpt>
      <trkpt lat="60.47117" lon="5.27364">
        <ele>57.794383</ele>
        <time>2020-07-15T12:48:37.396Z</time>
      </trkpt>
      <trkpt lat="60.47148" lon="5.27311">
        <ele>63.316765</ele>
        <time>2020-07-15T12:49:02.052Z</time>
      </trkpt>
      <trkpt lat="60.47198" lon="5.27225">
        <ele>63.949762</ele>
        <time>2020-07-15T12:49:27.257Z</time>
      </trkpt>
      <trkpt lat="60.47254" lon="5.27111">
        <ele>64.245241</ele>
        <time>2020-07-15T12:49:38.134Z</time>
      </trkpt>
      <trkpt lat="60.47278" lon="5.27061">
        <ele>64.373937</ele>
        <time>2020-07-15T12:49:42.112Z</time>
      </trkpt>
      <trkpt lat="60.47307" lon="5.26981">
        <ele>61.591993</ele>
        <time>2020-07-15T12:49:47.594Z</time>
      </trkpt>
      <trkpt lat="60.47329" lon="5.26918">
        <ele>59.220649</ele>
        <time>2020-07-15T12:49:51.913Z</time>
      </trkpt>
      <trkpt lat="60.47343" lon="5.26881">
        <ele>57.817734</ele>
        <time>2020-07-15T12:49:54.521Z</time>
      </trkpt>
      <trkpt lat="60.47402" lon="5.2673">
        <ele>52.96977</ele>
        <time>2020-07-15T12:50:05.979Z</time>
      </trkpt>
      <trkpt lat="60.47423" lon="5.26675">
        <ele>52.485525</ele>
        <time>2020-07-15T12:50:11.283Z</time>
      </trkpt>
      <trkpt lat="60.47463" lon="5.26576">
        <ele>51.588827</ele>
        <time>2020-07-15T12:50:22.032Z</time>
      </trkpt>
      <trkpt lat="60.47511" lon="5.26448">
        <ele>50.544222</ele>
        <time>2020-07-15T12:50:34.959Z</time>
      </trkpt>
      <trkpt lat="60.47568" lon="5.26337">
        <ele>49.772922</ele>
        <time>2020-07-15T12:50:48.084Z</time>
      </trkpt>
      <trkpt lat="60.47629" lon="5.26264">
        <ele>49.081664</ele>
        <time>2020-07-15T12:50:59.268Z</time>
      </trkpt>
      <trkpt lat="60.47655" lon="5.26227">
        <ele>48.263672</ele>
        <time>2020-07-15T12:51:03.684Z</time>
      </trkpt>
      <trkpt lat="60.47659" lon="5.2622">
        <ele>48.07765</ele>
        <time>2020-07-15T12:51:04.400Z</time>
      </trkpt>
      <trkpt lat="60.47682" lon="5.26186">
        <ele>47.069459</ele>
        <time>2020-07-15T12:51:08.028Z</time>
      </trkpt>
      <trkpt lat="60.47726" lon="5.26093">
        <ele>44.843383</ele>
        <time>2020-07-15T12:51:16.037Z</time>
      </trkpt>
      <trkpt lat="60.47763" lon="5.26018">
        <ele>42.996589</ele>
        <time>2020-07-15T12:51:22.688Z</time>
      </trkpt>
      <trkpt lat="60.47773" lon="5.25989">
        <ele>42.469609</ele>
        <time>2020-07-15T12:51:24.759Z</time>
      </trkpt>
      <trkpt lat="60.47821" lon="5.25866">
        <ele>40.797954</ele>
        <time>2020-07-15T12:51:34.422Z</time>
      </trkpt>
      <trkpt lat="60.47873" lon="5.25835">
        <ele>39.640923</ele>
        <time>2020-07-15T12:51:42.214Z</time>
      </trkpt>
      <trkpt lat="60.47936" lon="5.25852">
        <ele>39.114786</ele>
        <time>2020-07-15T12:51:55.241Z</time>
      </trkpt>
      <trkpt lat="60.47969" lon="5.25841">
        <ele>39.657912</ele>
        <time>2020-07-15T12:52:03.293Z</time>
      </trkpt>
      <trkpt lat="60.47994" lon="5.25838">
        <ele>40.073913</ele>
        <time>2020-07-15T12:52:10.177Z</time>
      </trkpt>
      <trkpt lat="60.48097" lon="5.25739">
        <ele>41.319941</ele>
        <time>2020-07-15T12:52:39.676Z</time>
      </trkpt>
      <trkpt lat="60.48132" lon="5.2573">
        <ele>40.416683</ele>
        <time>2020-07-15T12:52:44.706Z</time>
      </trkpt>
      <trkpt lat="60.48193" lon="5.2573">
        <ele>38.873328</ele>
        <time>2020-07-15T12:52:52.704Z</time>
      </trkpt>
      <trkpt lat="60.48234" lon="5.25729">
        <ele>37.837638</ele>
        <time>2020-07-15T12:52:57.808Z</time>
      </trkpt>
      <trkpt lat="60.48239" lon="5.25711">
        <ele>37.561563</ele>
        <time>2020-07-15T12:52:59.068Z</time>
      </trkpt>
      <trkpt lat="60.48246" lon="5.2569">
        <ele>37.252457</ele>
        <time>2020-07-15T12:53:00.986Z</time>
      </trkpt>
      <trkpt lat="60.48254" lon="5.2567">
        <ele>36.837225</ele>
        <time>2020-07-15T12:53:02.474Z</time>
      </trkpt>
      <trkpt lat="60.48273" lon="5.2567">
        <ele>36.111283</ele>
        <time>2020-07-15T12:53:04.888Z</time>
      </trkpt>
      <trkpt lat="60.48294" lon="5.25675">
        <ele>35.310391</ele>
        <time>2020-07-15T12:53:07.527Z</time>
      </trkpt>
      <trkpt lat="60.48319" lon="5.25696">
        <ele>34.294785</ele>
        <time>2020-07-15T12:53:10.951Z</time>
      </trkpt>
      <trkpt lat="60.48357" lon="5.2575">
        <ele>32.555654</ele>
        <time>2020-07-15T12:53:16.767Z</time>
      </trkpt>
      <trkpt lat="60.48378" lon="5.25797">
        <ele>31.385683</ele>
        <time>2020-07-15T12:53:21.393Z</time>
      </trkpt>
      <trkpt lat="60.48392" lon="5.25838">
        <ele>30.446565</ele>
        <time>2020-07-15T12:53:26.009Z</time>
      </trkpt>
      <trkpt lat="60.48402" lon="5.25875">
        <ele>30.032108</ele>
        <time>2020-07-15T12:53:29.385Z</time>
      </trkpt>
      <trkpt lat="60.48419" lon="5.25896">
        <ele>29.662069</ele>
        <time>2020-07-15T12:53:33.046Z</time>
      </trkpt>
      <trkpt lat="60.48432" lon="5.25912">
        <ele>29.390977</ele>
        <time>2020-07-15T12:53:35.199Z</time>
      </trkpt>
      <trkpt lat="60.48465" lon="5.25928">
        <ele>28.762356</ele>
        <time>2020-07-15T12:53:40.494Z</time>
      </trkpt>
      <trkpt lat="60.48472" lon="5.25943">
        <ele>28.580644</ele>
        <time>2020-07-15T12:53:42.207Z</time>
      </trkpt>
      <trkpt lat="60.48476" lon="5.25971">
        <ele>28.322177</ele>
        <time>2020-07-15T12:53:44.474Z</time>
      </trkpt>
      <trkpt lat="60.48548" lon="5.25924">
        <ele>26.825799</ele>
        <time>2020-07-15T12:53:54.816Z</time>
      </trkpt>
      <trkpt lat="60.4859" lon="5.2591">
        <ele>25.498382</ele>
        <time>2020-07-15T12:54:00.286Z</time>
      </trkpt>
      <trkpt lat="60.48632" lon="5.25916">
        <ele>24.198269</ele>
        <time>2020-07-15T12:54:05.533Z</time>
      </trkpt>
      <trkpt lat="60.48677" lon="5.25942">
        <ele>22.722598</ele>
        <time>2020-07-15T12:54:11.338Z</time>
      </trkpt>
      <trkpt lat="60.487" lon="5.25955">
        <ele>21.985439</ele>
        <time>2020-07-15T12:54:14.489Z</time>
      </trkpt>
      <trkpt lat="60.48731" lon="5.25971">
        <ele>21.556734</ele>
        <time>2020-07-15T12:54:19.144Z</time>
      </trkpt>
      <trkpt lat="60.48754" lon="5.25985">
        <ele>21.719375</ele>
        <time>2020-07-15T12:54:23.329Z</time>
      </trkpt>
      <trkpt lat="60.48803" lon="5.26015">
        <ele>22.0553</ele>
        <time>2020-07-15T12:54:33.738Z</time>
      </trkpt>
      <trkpt lat="60.48887" lon="5.26062">
        <ele>22.631174</ele>
        <time>2020-07-15T12:54:53.612Z</time>
      </trkpt>
      <trkpt lat="60.48907" lon="5.26071">
        <ele>23.327214</ele>
        <time>2020-07-15T12:54:58.893Z</time>
      </trkpt>
      <trkpt lat="60.48938" lon="5.26071">
        <ele>24.438407</ele>
        <time>2020-07-15T12:55:06.518Z</time>
      </trkpt>
      <trkpt lat="60.48999" lon="5.26042">
        <ele>26.758596</ele>
        <time>2020-07-15T12:55:25.809Z</time>
      </trkpt>
      <trkpt lat="60.49015" lon="5.26036">
        <ele>27.371705</ele>
        <time>2020-07-15T12:55:30.296Z</time>
      </trkpt>
      <trkpt lat="60.49033" lon="5.26046">
        <ele>28.052415</ele>
        <time>2020-07-15T12:55:36.951Z</time>
      </trkpt>
      <trkpt lat="60.49059" lon="5.26059">
        <ele>29.034897</ele>
        <time>2020-07-15T12:55:44.930Z</time>
      </trkpt>
      <trkpt lat="60.49068" lon="5.26075">
        <ele>29.617647</ele>
        <time>2020-07-15T12:55:49.898Z</time>
      </trkpt>
      <trkpt lat="60.49074" lon="5.26089">
        <ele>30.238484</ele>
        <time>2020-07-15T12:55:52.529Z</time>
      </trkpt>
      <trkpt lat="60.4908" lon="5.26101">
        <ele>30.777717</ele>
        <time>2020-07-15T12:55:54.736Z</time>
      </trkpt>
      <trkpt lat="60.49081" lon="5.26113">
        <ele>31.189137</ele>
        <time>2020-07-15T12:55:56.846Z</time>
      </trkpt>
      <trkpt lat="60.49082" lon="5.26134">
        <ele>31.853267</ele>
        <time>2020-07-15T12:56:01.689Z</time>
      </trkpt>
      <trkpt lat="60.49085" lon="5.26203">
        <ele>34.087192</ele>
        <time>2020-07-15T12:56:13.825Z</time>
      </trkpt>
      <trkpt lat="60.49063" lon="5.26301">
        <ele>37.582499</ele>
        <time>2020-07-15T12:56:34.276Z</time>
      </trkpt>
      <trkpt lat="60.4906" lon="5.26354">
        <ele>39.297057</ele>
        <time>2020-07-15T12:56:46.698Z</time>
      </trkpt>
      <trkpt lat="60.49028" lon="5.26505">
        <ele>44.158292</ele>
        <time>2020-07-15T12:57:22.096Z</time>
      </trkpt>
      <trkpt lat="60.49001" lon="5.26603">
        <ele>47.344839</ele>
        <time>2020-07-15T12:57:42.541Z</time>
      </trkpt>
      <trkpt lat="60.48998" lon="5.26625">
        <ele>47.980858</ele>
        <time>2020-07-15T12:57:47.036Z</time>
      </trkpt>
      <trkpt lat="60.4899" lon="5.26677">
        <ele>49.52334</ele>
        <time>2020-07-15T12:57:54.638Z</time>
      </trkpt>
      <trkpt lat="60.48994" lon="5.26772">
        <ele>51.528194</ele>
        <time>2020-07-15T12:58:08.550Z</time>
      </trkpt>
      <trkpt lat="60.49006" lon="5.2678">
        <ele>51.656565</ele>
        <time>2020-07-15T12:58:11.445Z</time>
      </trkpt>
      <trkpt lat="60.49026" lon="5.26755">
        <ele>51.895832</ele>
        <time>2020-07-15T12:58:18.006Z</time>
      </trkpt>
      <trkpt lat="60.49041" lon="5.26765">
        <ele>52.051664</ele>
        <time>2020-07-15T12:58:21.217Z</time>
      </trkpt>
      <trkpt lat="60.49044" lon="5.26771">
        <ele>52.095652</ele>
        <time>2020-07-15T12:58:22.427Z</time>
      </trkpt>
      <trkpt lat="60.4905" lon="5.26757">
        <ele>52.188767</ele>
        <time>2020-07-15T12:58:24.720Z</time>
      </trkpt>
      <trkpt lat="60.49143" lon="5.26513">
        <ele>52.57664</ele>
        <time>2020-07-15T12:58:50.364Z</time>
      </trkpt>
      <trkpt lat="60.49198" lon="5.26415">
        <ele>51.668667</ele>
        <time>2020-07-15T12:59:00.918Z</time>
      </trkpt>
      <trkpt lat="60.49254" lon="5.26347">
        <ele>50.949176</ele>
        <time>2020-07-15T12:59:10.445Z</time>
      </trkpt>
      <trkpt lat="60.49283" lon="5.26321">
        <ele>50.807949</ele>
        <time>2020-07-15T12:59:15.309Z</time>
      </trkpt>
      <trkpt lat="60.49278" lon="5.26283">
        <ele>50.722614</ele>
        <time>2020-07-15T12:59:18.121Z</time>
      </trkpt>
      <trkpt lat="60.49286" lon="5.26274">
        <ele>50.680815</ele>
        <time>2020-07-15T12:59:19.893Z</time>
      </trkpt>
      <trkpt lat="60.49294" lon="5.26267">
        <ele>50.644396</ele>
        <time>2020-07-15T12:59:21.341Z</time>
      </trkpt>
      <trkpt lat="60.49306" lon="5.26263">
        <ele>50.591765</ele>
        <time>2020-07-15T12:59:23.051Z</time>
      </trkpt>
      <trkpt lat="60.49326" lon="5.26264">
        <ele>50.500935</ele>
        <time>2020-07-15T12:59:26.543Z</time>
      </trkpt>
      <trkpt lat="60.4934" lon="5.26257">
        <ele>50.439215</ele>
        <time>2020-07-15T12:59:28.586Z</time>
      </trkpt>
      <trkpt lat="60.49369" lon="5.26246">
        <ele>50.308605</ele>
        <time>2020-07-15T12:59:32.941Z</time>
      </trkpt>
      <trkpt lat="60.49388" lon="5.2624">
        <ele>50.224218</ele>
        <time>2020-07-15T12:59:37.418Z</time>
      </trkpt>
      <trkpt lat="60.49415" lon="5.26249">
        <ele>51.477581</ele>
        <time>2020-07-15T12:59:43.846Z</time>
      </trkpt>
      <trkpt lat="60.49454" lon="5.26263">
        <ele>53.714928</ele>
        <time>2020-07-15T13:00:01.699Z</time>
      </trkpt>
      <trkpt lat="60.49497" lon="5.2621">
        <ele>56.582529</ele>
        <time>2020-07-15T13:00:22.868Z</time>
      </trkpt>
      <trkpt lat="60.49508" lon="5.26204">
        <ele>57.273899</ele>
        <time>2020-07-15T13:00:26.858Z</time>
      </trkpt>
      <trkpt lat="60.49519" lon="5.26211">
        <ele>57.901761</ele>
        <time>2020-07-15T13:00:33.072Z</time>
      </trkpt>
      <trkpt lat="60.49528" lon="5.26224">
        <ele>58.55197</ele>
        <time>2020-07-15T13:00:36.835Z</time>
      </trkpt>
      <trkpt lat="60.4954" lon="5.2626">
        <ele>59.760468</ele>
        <time>2020-07-15T13:00:45.547Z</time>
      </trkpt>
      <trkpt lat="60.49555" lon="5.26301">
        <ele>61.078047</ele>
        <time>2020-07-15T13:00:54.326Z</time>
      </trkpt>
      <trkpt lat="60.49564" lon="5.26312">
        <ele>61.583359</ele>
        <time>2020-07-15T13:00:58.333Z</time>
      </trkpt>
      <trkpt lat="60.49635" lon="5.2633">
        <ele>65.069611</ele>
        <time>2020-07-15T13:01:23.548Z</time>
      </trkpt>
      <trkpt lat="60.497" lon="5.2631">
        <ele>68.281447</ele>
        <time>2020-07-15T13:01:48.030Z</time>
      </trkpt>
      <trkpt lat="60.49728" lon="5.26297">
        <ele>69.398377</ele>
        <time>2020-07-15T13:01:53.206Z</time>
      </trkpt>
      <trkpt lat="60.49745" lon="5.26304">
        <ele>69.706399</ele>
        <time>2020-07-15T13:01:57.567Z</time>
      </trkpt>
      <trkpt lat="60.49778" lon="5.26299">
        <ele>70.316414</ele>
        <time>2020-07-15T13:02:06.363Z</time>
      </trkpt>
      <trkpt lat="60.49812" lon="5.26306">
        <ele>70.93342</ele>
        <time>2020-07-15T13:02:17.393Z</time>
      </trkpt>
      <trkpt lat="60.49883" lon="5.26347">
        <ele>72.26558</ele>
        <time>2020-07-15T13:02:36.323Z</time>
      </trkpt>
      <trkpt lat="60.49947" lon="5.26405">
        <ele>66.471293</ele>
        <time>2020-07-15T13:02:45.444Z</time>
      </trkpt>
      <trkpt lat="60.50002" lon="5.26428">
        <ele>60.751712</ele>
        <time>2020-07-15T13:02:51.419Z</time>
      </trkpt>
      <trkpt lat="60.50032" lon="5.26428">
        <ele>57.719375</ele>
        <time>2020-07-15T13:02:54.508Z</time>
      </trkpt>
      <trkpt lat="60.50045" lon="5.26423">
        <ele>56.327202</ele>
        <time>2020-07-15T13:02:55.913Z</time>
      </trkpt>
      <trkpt lat="60.50064" lon="5.26413">
        <ele>54.328476</ele>
        <time>2020-07-15T13:02:57.915Z</time>
      </trkpt>
      <trkpt lat="60.50087" lon="5.26399">
        <ele>51.077086</ele>
        <time>2020-07-15T13:03:00.375Z</time>
      </trkpt>
      <trkpt lat="60.50117" lon="5.26386">
        <ele>46.849566</ele>
        <time>2020-07-15T13:03:03.459Z</time>
      </trkpt>
      <trkpt lat="60.50234" lon="5.26374">
        <ele>30.460521</ele>
        <time>2020-07-15T13:03:15.765Z</time>
      </trkpt>
      <trkpt lat="60.50284" lon="5.26391">
        <ele>28.443441</ele>
        <time>2020-07-15T13:03:22.057Z</time>
      </trkpt>
      <trkpt lat="60.50326" lon="5.26425">
        <ele>27.784618</ele>
        <time>2020-07-15T13:03:29.566Z</time>
      </trkpt>
      <trkpt lat="60.50396" lon="5.2652">
        <ele>26.569348</ele>
        <time>2020-07-15T13:03:49.206Z</time>
      </trkpt>
      <trkpt lat="60.50433" lon="5.26549">
        <ele>26.73459</ele>
        <time>2020-07-15T13:03:57.319Z</time>
      </trkpt>
      <trkpt lat="60.50475" lon="5.26574">
        <ele>27.211792</ele>
        <time>2020-07-15T13:04:04.744Z</time>
      </trkpt>
      <trkpt lat="60.50484" lon="5.26585">
        <ele>27.330933</ele>
        <time>2020-07-15T13:04:07.296Z</time>
      </trkpt>
      <trkpt lat="60.50492" lon="5.266">
        <ele>27.451092</ele>
        <time>2020-07-15T13:04:10.419Z</time>
      </trkpt>
      <trkpt lat="60.50498" lon="5.26609">
        <ele>27.526857</ele>
        <time>2020-07-15T13:04:12.079Z</time>
      </trkpt>
      <trkpt lat="60.50523" lon="5.26651">
        <ele>27.883973</ele>
        <time>2020-07-15T13:04:19.868Z</time>
      </trkpt>
      <trkpt lat="60.50547" lon="5.26691">
        <ele>28.230349</ele>
        <time>2020-07-15T13:04:26.740Z</time>
      </trkpt>
      <trkpt lat="60.50568" lon="5.26719">
        <ele>28.595696</ele>
        <time>2020-07-15T13:04:31.224Z</time>
      </trkpt>
      <trkpt lat="60.50581" lon="5.26733">
        <ele>28.884005</ele>
        <time>2020-07-15T13:04:34.269Z</time>
      </trkpt>
      <trkpt lat="60.50594" lon="5.26738">
        <ele>29.133758</ele>
        <time>2020-07-15T13:04:36.405Z</time>
      </trkpt>
      <trkpt lat="60.5059" lon="5.26761">
        <ele>29.363828</ele>
        <time>2020-07-15T13:04:39.182Z</time>
      </trkpt>
      <trkpt lat="60.5059" lon="5.26775">
        <ele>29.493047</ele>
        <time>2020-07-15T13:04:40.934Z</time>
      </trkpt>
      <trkpt lat="60.50592" lon="5.26804">
        <ele>29.77498</ele>
        <time>2020-07-15T13:04:43.881Z</time>
      </trkpt>
      <trkpt lat="60.50597" lon="5.26822">
        <ele>29.972585</ele>
        <time>2020-07-15T13:04:46.072Z</time>
      </trkpt>
      <trkpt lat="60.50632" lon="5.26901">
        <ele>30.993634</ele>
        <time>2020-07-15T13:04:56.541Z</time>
      </trkpt>
      <trkpt lat="60.50673" lon="5.26954">
        <ele>32.183762</ele>
        <time>2020-07-15T13:05:10.051Z</time>
      </trkpt>
      <trkpt lat="60.507" lon="5.27027">
        <ele>37.224788</ele>
        <time>2020-07-15T13:05:27.213Z</time>
      </trkpt>
      <trkpt lat="60.50707" lon="5.27041">
        <ele>38.252994</ele>
        <time>2020-07-15T13:05:29.716Z</time>
      </trkpt>
      <trkpt lat="60.50713" lon="5.27055">
        <ele>39.317318</ele>
        <time>2020-07-15T13:05:34.891Z</time>
      </trkpt>
      <trkpt lat="60.5072" lon="5.27079">
        <ele>40.812787</ele>
        <time>2020-07-15T13:05:44.940Z</time>
      </trkpt>
      <trkpt lat="60.50725" lon="5.27137">
        <ele>44.07952</ele>
        <time>2020-07-15T13:06:02.326Z</time>
      </trkpt>
      <trkpt lat="60.50727" lon="5.27175">
        <ele>46.16845</ele>
        <time>2020-07-15T13:06:14.475Z</time>
      </trkpt>
      <trkpt lat="60.50727" lon="5.27191">
        <ele>47.041896</ele>
        <time>2020-07-15T13:06:20.015Z</time>
      </trkpt>
      <trkpt lat="60.50728" lon="5.27246">
        <ele>50.066464</ele>
        <time>2020-07-15T13:06:36.936Z</time>
      </trkpt>
      <trkpt lat="60.50732" lon="5.27349">
        <ele>55.724683</ele>
        <time>2020-07-15T13:07:09.296Z</time>
      </trkpt>
      <trkpt lat="60.50734" lon="5.27366">
        <ele>56.69431</ele>
        <time>2020-07-15T13:07:17.265Z</time>
      </trkpt>
      <trkpt lat="60.50735" lon="5.27372">
        <ele>57.014071</ele>
        <time>2020-07-15T13:07:19.210Z</time>
      </trkpt>
      <trkpt lat="60.50738" lon="5.27382">
        <ele>57.623387</ele>
        <time>2020-07-15T13:07:23.059Z</time>
      </trkpt>
      <trkpt lat="60.50741" lon="5.27392">
        <ele>58.292428</ele>
        <time>2020-07-15T13:07:27.261Z</time>
      </trkpt>
      <trkpt lat="60.50743" lon="5.27399">
        <ele>58.756094</ele>
        <time>2020-07-15T13:07:30.722Z</time>
      </trkpt>
      <trkpt lat="60.50747" lon="5.27405">
        <ele>59.254679</ele>
        <time>2020-07-15T13:07:32.793Z</time>
      </trkpt>
      <trkpt lat="60.50766" lon="5.27411">
        <ele>61.380747</ele>
        <time>2020-07-15T13:07:46.604Z</time>
      </trkpt>
      <trkpt lat="60.50808" lon="5.27403">
        <ele>66.067163</ele>
        <time>2020-07-15T13:08:14.306Z</time>
      </trkpt>
      <trkpt lat="60.50821" lon="5.27411">
        <ele>67.611931</ele>
        <time>2020-07-15T13:08:19.943Z</time>
      </trkpt>
      <trkpt lat="60.50842" lon="5.27429">
        <ele>70.091908</ele>
        <time>2020-07-15T13:08:29.277Z</time>
      </trkpt>
      <trkpt lat="60.50879" lon="5.27448">
        <ele>69.668021</ele>
        <time>2020-07-15T13:08:37.945Z</time>
      </trkpt>
      <trkpt lat="60.50891" lon="5.27452">
        <ele>68.433252</ele>
        <time>2020-07-15T13:08:39.346Z</time>
      </trkpt>
      <trkpt lat="60.50902" lon="5.27457">
        <ele>67.234731</ele>
        <time>2020-07-15T13:08:40.574Z</time>
      </trkpt>
      <trkpt lat="60.50927" lon="5.27477">
        <ele>64.496654</ele>
        <time>2020-07-15T13:08:43.529Z</time>
      </trkpt>
      <trkpt lat="60.50942" lon="5.27488">
        <ele>62.879289</ele>
        <time>2020-07-15T13:08:45.194Z</time>
      </trkpt>
      <trkpt lat="60.50954" lon="5.27498">
        <ele>61.579776</ele>
        <time>2020-07-15T13:08:46.626Z</time>
      </trkpt>
      <trkpt lat="60.50973" lon="5.27509">
        <ele>59.582927</ele>
        <time>2020-07-15T13:08:48.645Z</time>
      </trkpt>
      <trkpt lat="60.51101" lon="5.27535">
        <ele>44.758011</ele>
        <time>2020-07-15T13:09:01.941Z</time>
      </trkpt>
      <trkpt lat="60.51124" lon="5.27561">
        <ele>41.385671</ele>
        <time>2020-07-15T13:09:04.685Z</time>
      </trkpt>
      <trkpt lat="60.51189" lon="5.27671">
        <ele>30.866798</ele>
        <time>2020-07-15T13:09:13.934Z</time>
      </trkpt>
      <trkpt lat="60.51239" lon="5.27716">
        <ele>31.017835</ele>
        <time>2020-07-15T13:09:21.108Z</time>
      </trkpt>
      <trkpt lat="60.51274" lon="5.27815">
        <ele>31.182959</ele>
        <time>2020-07-15T13:09:39.840Z</time>
      </trkpt>
      <trkpt lat="60.51309" lon="5.27853">
        <ele>31.293689</ele>
        <time>2020-07-15T13:09:50.652Z</time>
      </trkpt>
      <trkpt lat="60.51324" lon="5.27871">
        <ele>31.340709</ele>
        <time>2020-07-15T13:09:53.575Z</time>
      </trkpt>
      <trkpt lat="60.51334" lon="5.27884">
        <ele>31.405357</ele>
        <time>2020-07-15T13:10:02.019Z</time>
      </trkpt>
      <trkpt lat="60.51348" lon="5.27912">
        <ele>31.568642</ele>
        <time>2020-07-15T13:10:04.216Z</time>
      </trkpt>
      <trkpt lat="60.51361" lon="5.27991">
        <ele>31.917321</ele>
        <time>2020-07-15T13:10:14.938Z</time>
      </trkpt>
      <trkpt lat="60.51369" lon="5.28007">
        <ele>32.008918</ele>
        <time>2020-07-15T13:10:23.053Z</time>
      </trkpt>
      <trkpt lat="60.51377" lon="5.28017">
        <ele>32.096811</ele>
        <time>2020-07-15T13:10:24.155Z</time>
      </trkpt>
      <trkpt lat="60.51434" lon="5.28036">
        <ele>32.580545</ele>
        <time>2020-07-15T13:10:39.897Z</time>
      </trkpt>
      <trkpt lat="60.51456" lon="5.28049">
        <ele>32.775381</ele>
        <time>2020-07-15T13:10:42.659Z</time>
      </trkpt>
      <trkpt lat="60.51468" lon="5.28056">
        <ele>32.881933</ele>
        <time>2020-07-15T13:10:47.315Z</time>
      </trkpt>
      <trkpt lat="60.51491" lon="5.28074">
        <ele>31.778571</ele>
        <time>2020-07-15T13:10:50.037Z</time>
      </trkpt>
      <trkpt lat="60.51499" lon="5.28085">
        <ele>31.339125</ele>
        <time>2020-07-15T13:10:53.121Z</time>
      </trkpt>
      <trkpt lat="60.51504" lon="5.28095">
        <ele>30.999873</ele>
        <time>2020-07-15T13:10:54.833Z</time>
      </trkpt>
      <trkpt lat="60.51523" lon="5.28186">
        <ele>28.790287</ele>
        <time>2020-07-15T13:11:00.185Z</time>
      </trkpt>
      <trkpt lat="60.51536" lon="5.28222">
        <ele>27.788563</ele>
        <time>2020-07-15T13:11:02.938Z</time>
      </trkpt>
      <trkpt lat="60.51552" lon="5.28242">
        <ele>26.912019</ele>
        <time>2020-07-15T13:11:05.075Z</time>
      </trkpt>
      <trkpt lat="60.51571" lon="5.28245">
        <ele>26.074243</ele>
        <time>2020-07-15T13:11:07.817Z</time>
      </trkpt>
      <trkpt lat="60.51579" lon="5.28242">
        <ele>25.670476</ele>
        <time>2020-07-15T13:11:08.872Z</time>
      </trkpt>
      <trkpt lat="60.5158" lon="5.28252">
        <ele>25.439226</ele>
        <time>2020-07-15T13:11:09.623Z</time>
      </trkpt>
      <trkpt lat="60.51591" lon="5.28246">
        <ele>24.937817</ele>
        <time>2020-07-15T13:11:12.410Z</time>
      </trkpt>
      <trkpt lat="60.51605" lon="5.28255">
        <ele>24.444802</ele>
        <time>2020-07-15T13:11:16.061Z</time>
      </trkpt>
      <trkpt lat="60.51607" lon="5.28282">
        <ele>24.127516</ele>
        <time>2020-07-15T13:11:19.157Z</time>
      </trkpt>
      <trkpt lat="60.51599" lon="5.28322">
        <ele>23.617014</ele>
        <time>2020-07-15T13:11:24.337Z</time>
      </trkpt>
      <trkpt lat="60.51608" lon="5.2833">
        <ele>23.393941</ele>
        <time>2020-07-15T13:11:25.918Z</time>
      </trkpt>
      <trkpt lat="60.51612" lon="5.28334">
        <ele>23.277873</ele>
        <time>2020-07-15T13:11:26.859Z</time>
      </trkpt>
      <trkpt lat="60.51625" lon="5.28306">
        <ele>22.822175</ele>
        <time>2020-07-15T13:11:31.643Z</time>
      </trkpt>
      <trkpt lat="60.51637" lon="5.28274">
        <ele>22.339928</ele>
        <time>2020-07-15T13:11:36.368Z</time>
      </trkpt>
      <trkpt lat="60.51643" lon="5.28273">
        <ele>22.191878</ele>
        <time>2020-07-15T13:11:37.870Z</time>
      </trkpt>
      <trkpt lat="60.51644" lon="5.28286">
        <ele>22.034539</ele>
        <time>2020-07-15T13:11:39.615Z</time>
      </trkpt>
      <trkpt lat="60.51635" lon="5.28329">
        <ele>21.475649</ele>
        <time>2020-07-15T13:11:45.181Z</time>
      </trkpt>
      <trkpt lat="60.51638" lon="5.28335">
        <ele>21.38628</ele>
        <time>2020-07-15T13:11:46.068Z</time>
      </trkpt>
      <trkpt lat="60.51653" lon="5.28368">
        <ele>20.850984</ele>
        <time>2020-07-15T13:11:49.556Z</time>
      </trkpt>
      <trkpt lat="60.51656" lon="5.28375">
        <ele>20.742186</ele>
        <time>2020-07-15T13:11:50.780Z</time>
      </trkpt>
      <trkpt lat="60.51658" lon="5.28383">
        <ele>20.630847</ele>
        <time>2020-07-15T13:11:52.005Z</time>
      </trkpt>
      <trkpt lat="60.51659" lon="5.28392">
        <ele>20.519209</ele>
        <time>2020-07-15T13:11:53.174Z</time>
      </trkpt>
      <trkpt lat="60.51659" lon="5.2843">
        <ele>20.147129</ele>
        <time>2020-07-15T13:11:58.023Z</time>
      </trkpt>
      <trkpt lat="60.51665" lon="5.28431">
        <ele>20.04529</ele>
        <time>2020-07-15T13:11:59.634Z</time>
      </trkpt>
      <trkpt lat="60.51677" lon="5.28379">
        <ele>19.566169</ele>
        <time>2020-07-15T13:12:07.141Z</time>
      </trkpt>
      <trkpt lat="60.51712" lon="5.28322">
        <ele>18.807109</ele>
        <time>2020-07-15T13:12:19.066Z</time>
      </trkpt>
      <trkpt lat="60.51715" lon="5.28319">
        <ele>18.758483</ele>
        <time>2020-07-15T13:12:19.805Z</time>
      </trkpt>
      <trkpt lat="60.51752" lon="5.28229">
        <ele>17.782054</ele>
        <time>2020-07-15T13:12:28.313Z</time>
      </trkpt>
      <trkpt lat="60.51799" lon="5.28116">
        <ele>16.545952</ele>
        <time>2020-07-15T13:12:39.174Z</time>
      </trkpt>
      <trkpt lat="60.51817" lon="5.2805">
        <ele>15.919968</ele>
        <time>2020-07-15T13:12:44.895Z</time>
      </trkpt>
      <trkpt lat="60.5184" lon="5.27955">
        <ele>15.032847</ele>
        <time>2020-07-15T13:12:52.657Z</time>
      </trkpt>
      <trkpt lat="60.51847" lon="5.27925">
        <ele>14.762935</ele>
        <time>2020-07-15T13:12:55.316Z</time>
      </trkpt>
      <trkpt lat="60.51867" lon="5.27836">
        <ele>14.1037</ele>
        <time>2020-07-15T13:13:02.209Z</time>
      </trkpt>
      <trkpt lat="60.51872" lon="5.27813">
        <ele>14.004793</ele>
        <time>2020-07-15T13:13:04.632Z</time>
      </trkpt>
      <trkpt lat="60.51894" lon="5.27739">
        <ele>13.662863</ele>
        <time>2020-07-15T13:13:13.216Z</time>
      </trkpt>
      <trkpt lat="60.51909" lon="5.27696">
        <ele>13.454916</ele>
        <time>2020-07-15T13:13:18.554Z</time>
      </trkpt>
      <trkpt lat="60.51933" lon="5.27637">
        <ele>13.150028</ele>
        <time>2020-07-15T13:13:25.740Z</time>
      </trkpt>
      <trkpt lat="60.5194" lon="5.27608">
        <ele>13.024</ele>
        <time>2020-07-15T13:13:28.187Z</time>
      </trkpt>
      <trkpt lat="60.51916" lon="5.27565">
        <ele>12.696691</ele>
        <time>2020-07-15T13:13:32.766Z</time>
      </trkpt>
      <trkpt lat="60.51907" lon="5.27573">
        <ele>12.416917</ele>
        <time>2020-07-15T13:13:34.298Z</time>
      </trkpt>
      <trkpt lat="60.51897" lon="5.27589">
        <ele>12.063294</ele>
        <time>2020-07-15T13:13:36.223Z</time>
      </trkpt>
      <trkpt lat="60.51892" lon="5.27612">
        <ele>11.723856</ele>
        <time>2020-07-15T13:13:37.800Z</time>
      </trkpt>
      <trkpt lat="60.51893" lon="5.27622">
        <ele>11.583742</ele>
        <time>2020-07-15T13:13:38.767Z</time>
      </trkpt>
      <trkpt lat="60.51898" lon="5.27625">
        <ele>11.443367</ele>
        <time>2020-07-15T13:13:39.417Z</time>
      </trkpt>
      <trkpt lat="60.51909" lon="5.27613">
        <ele>11.095948</ele>
        <time>2020-07-15T13:13:41.213Z</time>
      </trkpt>
      <trkpt lat="60.51914" lon="5.27598">
        <ele>10.84942</ele>
        <time>2020-07-15T13:13:42.332Z</time>
      </trkpt>
      <trkpt lat="60.51996" lon="5.27363">
        <ele>7.032604</ele>
        <time>2020-07-15T13:14:02.077Z</time>
      </trkpt>
      <trkpt lat="60.52153" lon="5.26923">
        <ele>1.410989</ele>
        <time>2020-07-15T13:14:40.934Z</time>
      </trkpt>
      <trkpt lat="60.52212" lon="5.26781">
        <ele>0.338296</ele>
        <time>2020-07-15T13:14:56.358Z</time>
      </trkpt>
      <trkpt lat="60.52327" lon="5.26547">
        <ele>0.01714</ele>
        <time>2020-07-15T13:15:26.132Z</time>
      </trkpt>
      <trkpt lat="60.52428" lon="5.26377">
        <ele>0.003544</ele>
        <time>2020-07-15T13:15:50.524Z</time>
      </trkpt>
      <trkpt lat="60.5255" lon="5.26206">
        <ele>1.0E-5</ele>
        <time>2020-07-15T13:16:18.114Z</time>
      </trkpt>
      <trkpt lat="60.52684" lon="5.26056">
        <ele>0.030593</ele>
        <time>2020-07-15T13:16:46.466Z</time>
      </trkpt>
      <trkpt lat="60.52826" lon="5.25934">
        <ele>0.16107</ele>
        <time>2020-07-15T13:17:15.269Z</time>
      </trkpt>
      <trkpt lat="60.52973" lon="5.25841">
        <ele>0.478722</ele>
        <time>2020-07-15T13:17:44.997Z</time>
      </trkpt>
      <trkpt lat="60.53018" lon="5.25819">
        <ele>0.643597</ele>
        <time>2020-07-15T13:17:54.001Z</time>
      </trkpt>
      <trkpt lat="60.53045" lon="5.25804">
        <ele>0.744676</ele>
        <time>2020-07-15T13:17:59.553Z</time>
      </trkpt>
      <trkpt lat="60.53086" lon="5.25772">
        <ele>0.904568</ele>
        <time>2020-07-15T13:18:08.498Z</time>
      </trkpt>
      <trkpt lat="60.53163" lon="5.25735">
        <ele>1.809418</ele>
        <time>2020-07-15T13:18:24.033Z</time>
      </trkpt>
      <trkpt lat="60.53172" lon="5.25722">
        <ele>1.977022</ele>
        <time>2020-07-15T13:18:26.453Z</time>
      </trkpt>
      <trkpt lat="60.53177" lon="5.257">
        <ele>2.159185</ele>
        <time>2020-07-15T13:18:28.779Z</time>
      </trkpt>
      <trkpt lat="60.53181" lon="5.25668">
        <ele>2.406756</ele>
        <time>2020-07-15T13:18:32.027Z</time>
      </trkpt>
      <trkpt lat="60.53186" lon="5.25642">
        <ele>2.620586</ele>
        <time>2020-07-15T13:18:35.052Z</time>
      </trkpt>
      <trkpt lat="60.5319" lon="5.256">
        <ele>2.939131</ele>
        <time>2020-07-15T13:18:39.328Z</time>
      </trkpt>
      <trkpt lat="60.53192" lon="5.2558">
        <ele>3.095516</ele>
        <time>2020-07-15T13:18:42.174Z</time>
      </trkpt>
      <trkpt lat="60.53196" lon="5.25557">
        <ele>3.27567</ele>
        <time>2020-07-15T13:18:45.747Z</time>
      </trkpt>
      <trkpt lat="60.53198" lon="5.25547">
        <ele>3.353689</ele>
        <time>2020-07-15T13:18:47.105Z</time>
      </trkpt>
      <trkpt lat="60.53229" lon="5.25563">
        <ele>4.080342</ele>
        <time>2020-07-15T13:18:56.633Z</time>
      </trkpt>
      <trkpt lat="60.53242" lon="5.25571">
        <ele>4.842822</ele>
        <time>2020-07-15T13:19:00.602Z</time>
      </trkpt>
      <trkpt lat="60.53253" lon="5.2557">
        <ele>5.450028</ele>
        <time>2020-07-15T13:19:04.524Z</time>
      </trkpt>
      <trkpt lat="60.53268" lon="5.25577">
        <ele>6.249181</ele>
        <time>2020-07-15T13:19:11.375Z</time>
      </trkpt>
      <trkpt lat="60.53298" lon="5.25635">
        <ele>8.535607</ele>
        <time>2020-07-15T13:19:27.413Z</time>
      </trkpt>
      <trkpt lat="60.53296" lon="5.25648">
        <ele>8.923397</ele>
        <time>2020-07-15T13:19:29.938Z</time>
      </trkpt>
      <trkpt lat="60.53288" lon="5.25673">
        <ele>9.693995</ele>
        <time>2020-07-15T13:19:34.931Z</time>
      </trkpt>
      <trkpt lat="60.53287" lon="5.25682">
        <ele>9.949455</ele>
        <time>2020-07-15T13:19:38.173Z</time>
      </trkpt>
      <trkpt lat="60.533" lon="5.25716">
        <ele>11.128277</ele>
        <time>2020-07-15T13:19:46.833Z</time>
      </trkpt>
      <trkpt lat="60.53314" lon="5.25722">
        <ele>11.878718</ele>
        <time>2020-07-15T13:19:53.982Z</time>
      </trkpt>
      <trkpt lat="60.53318" lon="5.25719">
        <ele>12.109052</ele>
        <time>2020-07-15T13:19:57.140Z</time>
      </trkpt>
      <trkpt lat="60.53322" lon="5.2571">
        <ele>12.431488</ele>
        <time>2020-07-15T13:19:58.898Z</time>
      </trkpt>
      <trkpt lat="60.53326" lon="5.25699">
        <ele>12.814379</ele>
        <time>2020-07-15T13:20:01.407Z</time>
      </trkpt>
      <trkpt lat="60.53363" lon="5.25769">
        <ele>15.66238</ele>
        <time>2020-07-15T13:20:22.012Z</time>
      </trkpt>
      <trkpt lat="60.53391" lon="5.25803">
        <ele>17.526402</ele>
        <time>2020-07-15T13:20:35.416Z</time>
      </trkpt>
      <trkpt lat="60.53401" lon="5.25811">
        <ele>18.12485</ele>
        <time>2020-07-15T13:20:42.091Z</time>
      </trkpt>
      <trkpt lat="60.53414" lon="5.25817">
        <ele>18.885917</ele>
        <time>2020-07-15T13:20:45.696Z</time>
      </trkpt>
      <trkpt lat="60.53422" lon="5.25818">
        <ele>19.346408</ele>
        <time>2020-07-15T13:20:48.176Z</time>
      </trkpt>
      <trkpt lat="60.53432" lon="5.25846">
        <ele>20.311851</ele>
        <time>2020-07-15T13:20:55.653Z</time>
      </trkpt>
      <trkpt lat="60.53445" lon="5.25867">
        <ele>21.263333</ele>
        <time>2020-07-15T13:21:00.111Z</time>
      </trkpt>
      <trkpt lat="60.53465" lon="5.25881">
        <ele>22.447064</ele>
        <time>2020-07-15T13:21:07.514Z</time>
      </trkpt>
      <trkpt lat="60.53515" lon="5.25895">
        <ele>24.491472</ele>
        <time>2020-07-15T13:21:22.012Z</time>
      </trkpt>
      <trkpt lat="60.53577" lon="5.25882">
        <ele>26.135654</ele>
        <time>2020-07-15T13:21:39.278Z</time>
      </trkpt>
      <trkpt lat="60.5365" lon="5.25831">
        <ele>28.131946</ele>
        <time>2020-07-15T13:21:58.047Z</time>
      </trkpt>
      <trkpt lat="60.53759" lon="5.25851">
        <ele>30.934068</ele>
        <time>2020-07-15T13:22:26.829Z</time>
      </trkpt>
      <trkpt lat="60.53829" lon="5.25903">
        <ele>32.8469</ele>
        <time>2020-07-15T13:22:47.709Z</time>
      </trkpt>
      <trkpt lat="60.5395" lon="5.26054">
        <ele>36.185261</ele>
        <time>2020-07-15T13:23:26.097Z</time>
      </trkpt>
      <trkpt lat="60.54096" lon="5.26147">
        <ele>39.721361</ele>
        <time>2020-07-15T13:24:02.186Z</time>
      </trkpt>
      <trkpt lat="60.54108" lon="5.26161">
        <ele>40.040487</ele>
        <time>2020-07-15T13:24:05.956Z</time>
      </trkpt>
      <trkpt lat="60.54127" lon="5.26188">
        <ele>40.568811</ele>
        <time>2020-07-15T13:24:11.875Z</time>
      </trkpt>
      <trkpt lat="60.54181" lon="5.26282">
        <ele>42.436341</ele>
        <time>2020-07-15T13:24:33.145Z</time>
      </trkpt>
      <trkpt lat="60.54196" lon="5.26323">
        <ele>43.202191</ele>
        <time>2020-07-15T13:24:41.722Z</time>
      </trkpt>
      <trkpt lat="60.54199" lon="5.26332">
        <ele>43.357648</ele>
        <time>2020-07-15T13:24:43.336Z</time>
      </trkpt>
      <trkpt lat="60.54211" lon="5.26367">
        <ele>43.989386</ele>
        <time>2020-07-15T13:24:50.329Z</time>
      </trkpt>
      <trkpt lat="60.54239" lon="5.26494">
        <ele>46.04678</ele>
        <time>2020-07-15T13:25:12.536Z</time>
      </trkpt>
      <trkpt lat="60.54242" lon="5.26517">
        <ele>46.412753</ele>
        <time>2020-07-15T13:25:16.625Z</time>
      </trkpt>
      <trkpt lat="60.54243" lon="5.26527">
        <ele>46.553333</ele>
        <time>2020-07-15T13:25:17.395Z</time>
      </trkpt>
      <trkpt lat="60.54245" lon="5.26545">
        <ele>46.83047</ele>
        <time>2020-07-15T13:25:20.274Z</time>
      </trkpt>
      <trkpt lat="60.5424" lon="5.26594">
        <ele>44.867548</ele>
        <time>2020-07-15T13:25:25.372Z</time>
      </trkpt>
      <trkpt lat="60.5424" lon="5.26608">
        <ele>44.284527</ele>
        <time>2020-07-15T13:25:26.611Z</time>
      </trkpt>
      <trkpt lat="60.54244" lon="5.26666">
        <ele>41.958109</ele>
        <time>2020-07-15T13:25:31.424Z</time>
      </trkpt>
      <trkpt lat="60.54246" lon="5.26738">
        <ele>39.092797</ele>
        <time>2020-07-15T13:25:36.737Z</time>
      </trkpt>
      <trkpt lat="60.54244" lon="5.26746">
        <ele>38.704984</ele>
        <time>2020-07-15T13:25:37.429Z</time>
      </trkpt>
      <trkpt lat="60.54222" lon="5.26788">
        <ele>36.265339</ele>
        <time>2020-07-15T13:25:40.844Z</time>
      </trkpt>
      <trkpt lat="60.54219" lon="5.26796">
        <ele>35.877073</ele>
        <time>2020-07-15T13:25:41.519Z</time>
      </trkpt>
      <trkpt lat="60.54217" lon="5.26821">
        <ele>34.827828</ele>
        <time>2020-07-15T13:25:43.454Z</time>
      </trkpt>
      <trkpt lat="60.54218" lon="5.26839">
        <ele>34.125785</ele>
        <time>2020-07-15T13:25:44.676Z</time>
      </trkpt>
      <trkpt lat="60.54237" lon="5.26904">
        <ele>30.711392</ele>
        <time>2020-07-15T13:25:48.751Z</time>
      </trkpt>
      <trkpt lat="60.54254" lon="5.26982">
        <ele>26.113326</ele>
        <time>2020-07-15T13:25:53.304Z</time>
      </trkpt>
      <trkpt lat="60.54328" lon="5.27325">
        <ele>12.900869</ele>
        <time>2020-07-15T13:26:14.551Z</time>
      </trkpt>
      <trkpt lat="60.54482" lon="5.28038">
        <ele>29.307253</ele>
        <time>2020-07-15T13:28:40.582Z</time>
      </trkpt>
      <trkpt lat="60.54495" lon="5.28104">
        <ele>31.248386</ele>
        <time>2020-07-15T13:28:53.344Z</time>
      </trkpt>
      <trkpt lat="60.54499" lon="5.28134">
        <ele>32.088962</ele>
        <time>2020-07-15T13:28:59.349Z</time>
      </trkpt>
      <trkpt lat="60.5448" lon="5.28038">
        <ele>34.919813</ele>
        <time>2020-07-15T13:29:15.298Z</time>
      </trkpt>
      <trkpt lat="60.5449" lon="5.28028">
        <ele>35.570078</ele>
        <time>2020-07-15T13:29:18.880Z</time>
      </trkpt>
      <trkpt lat="60.54496" lon="5.28034">
        <ele>35.951496</ele>
        <time>2020-07-15T13:29:21.668Z</time>
      </trkpt>
      <trkpt lat="60.54497" lon="5.28024">
        <ele>36.247561</ele>
        <time>2020-07-15T13:29:24.280Z</time>
      </trkpt>
      <trkpt lat="60.54501" lon="5.27992">
        <ele>37.165049</ele>
        <time>2020-07-15T13:29:28.204Z</time>
      </trkpt>
      <trkpt lat="60.54518" lon="5.27999">
        <ele>38.184712</ele>
        <time>2020-07-15T13:29:34.864Z</time>
      </trkpt>
      <trkpt lat="60.54533" lon="5.28016">
        <ele>39.146703</ele>
        <time>2020-07-15T13:29:40.320Z</time>
      </trkpt>
      <trkpt lat="60.54578" lon="5.28038">
        <ele>41.820661</ele>
        <time>2020-07-15T13:29:57.071Z</time>
      </trkpt>
      <trkpt lat="60.54614" lon="5.28036">
        <ele>43.947627</ele>
        <time>2020-07-15T13:30:11.914Z</time>
      </trkpt>
      <trkpt lat="60.54616" lon="5.28048">
        <ele>44.304138</ele>
        <time>2020-07-15T13:30:14.741Z</time>
      </trkpt>
      <trkpt lat="60.54617" lon="5.28055">
        <ele>44.508304</ele>
        <time>2020-07-15T13:30:16.971Z</time>
      </trkpt>
      <trkpt lat="60.54659" lon="5.28063">
        <ele>47.031304</ele>
        <time>2020-07-15T13:30:34.312Z</time>
      </trkpt>
      <trkpt lat="60.54663" lon="5.28065">
        <ele>47.265507</ele>
        <time>2020-07-15T13:30:36.676Z</time>
      </trkpt>
      <trkpt lat="60.54671" lon="5.28069">
        <ele>47.78832</ele>
        <time>2020-07-15T13:30:40.015Z</time>
      </trkpt>
      <trkpt lat="60.54689" lon="5.28079">
        <ele>48.894624</ele>
        <time>2020-07-15T13:30:47.729Z</time>
      </trkpt>
      <trkpt lat="60.54728" lon="5.28096">
        <ele>51.322992</ele>
        <time>2020-07-15T13:31:03.445Z</time>
      </trkpt>
      <trkpt lat="60.54744" lon="5.28095">
        <ele>52.289897</ele>
        <time>2020-07-15T13:31:09.990Z</time>
      </trkpt>
      <trkpt lat="60.54767" lon="5.2809">
        <ele>53.706986</ele>
        <time>2020-07-15T13:31:19.062Z</time>
      </trkpt>
      <trkpt lat="60.548" lon="5.28107">
        <ele>55.805394</ele>
        <time>2020-07-15T13:31:30.161Z</time>
      </trkpt>
      <trkpt lat="60.54856" lon="5.28085">
        <ele>56.247267</ele>
        <time>2020-07-15T13:31:46.215Z</time>
      </trkpt>
      <trkpt lat="60.54878" lon="5.2807">
        <ele>56.368846</ele>
        <time>2020-07-15T13:31:51.529Z</time>
      </trkpt>
      <trkpt lat="60.54905" lon="5.28059">
        <ele>56.509341</ele>
        <time>2020-07-15T13:31:56.199Z</time>
      </trkpt>
      <trkpt lat="60.55019" lon="5.28003">
        <ele>55.851082</ele>
        <time>2020-07-15T13:32:13.935Z</time>
      </trkpt>
      <trkpt lat="60.55068" lon="5.27992">
        <ele>54.646622</ele>
        <time>2020-07-15T13:32:20.807Z</time>
      </trkpt>
      <trkpt lat="60.55083" lon="5.27989">
        <ele>54.288038</ele>
        <time>2020-07-15T13:32:22.989Z</time>
      </trkpt>
      <trkpt lat="60.55108" lon="5.27993">
        <ele>53.654625</ele>
        <time>2020-07-15T13:32:26.621Z</time>
      </trkpt>
      <trkpt lat="60.55113" lon="5.27994">
        <ele>53.54818</ele>
        <time>2020-07-15T13:32:27.301Z</time>
      </trkpt>
      <trkpt lat="60.55125" lon="5.27997">
        <ele>53.246224</ele>
        <time>2020-07-15T13:32:29.109Z</time>
      </trkpt>
      <trkpt lat="60.55154" lon="5.2799">
        <ele>52.51835</ele>
        <time>2020-07-15T13:32:33.332Z</time>
      </trkpt>
      <trkpt lat="60.55178" lon="5.27954">
        <ele>51.145726</ele>
        <time>2020-07-15T13:32:37.306Z</time>
      </trkpt>
      <trkpt lat="60.55189" lon="5.27917">
        <ele>50.140618</ele>
        <time>2020-07-15T13:32:40.160Z</time>
      </trkpt>
      <trkpt lat="60.55221" lon="5.27715">
        <ele>45.131239</ele>
        <time>2020-07-15T13:32:53.499Z</time>
      </trkpt>
      <trkpt lat="60.55233" lon="5.27675">
        <ele>44.026468</ele>
        <time>2020-07-15T13:32:56.226Z</time>
      </trkpt>
      <trkpt lat="60.55283" lon="5.27503">
        <ele>39.133628</ele>
        <time>2020-07-15T13:33:08.246Z</time>
      </trkpt>
      <trkpt lat="60.55287" lon="5.27486">
        <ele>38.671818</ele>
        <time>2020-07-15T13:33:09.308Z</time>
      </trkpt>
      <trkpt lat="60.55302" lon="5.27435">
        <ele>37.18534</ele>
        <time>2020-07-15T13:33:13.033Z</time>
      </trkpt>
      <trkpt lat="60.55393" lon="5.27212">
        <ele>34.612421</ele>
        <time>2020-07-15T13:33:34.461Z</time>
      </trkpt>
      <trkpt lat="60.55411" lon="5.27189">
        <ele>34.559016</ele>
        <time>2020-07-15T13:33:39.601Z</time>
      </trkpt>
      <trkpt lat="60.55413" lon="5.27196">
        <ele>34.549191</ele>
        <time>2020-07-15T13:33:40.925Z</time>
      </trkpt>
      <trkpt lat="60.55445" lon="5.2715">
        <ele>34.448242</ele>
        <time>2020-07-15T13:33:51.071Z</time>
      </trkpt>
      <trkpt lat="60.55472" lon="5.27108">
        <ele>34.835192</ele>
        <time>2020-07-15T13:33:58.175Z</time>
      </trkpt>
      <trkpt lat="60.55489" lon="5.27074">
        <ele>35.634885</ele>
        <time>2020-07-15T13:34:02.692Z</time>
      </trkpt>
      <trkpt lat="60.55508" lon="5.2703">
        <ele>36.572908</ele>
        <time>2020-07-15T13:34:08.702Z</time>
      </trkpt>
      <trkpt lat="60.55515" lon="5.27011">
        <ele>36.965438</ele>
        <time>2020-07-15T13:34:11.858Z</time>
      </trkpt>
      <trkpt lat="60.55529" lon="5.26968">
        <ele>37.792891</ele>
        <time>2020-07-15T13:34:18.923Z</time>
      </trkpt>
      <trkpt lat="60.55537" lon="5.26946">
        <ele>38.235452</ele>
        <time>2020-07-15T13:34:23.607Z</time>
      </trkpt>
      <trkpt lat="60.55543" lon="5.26933">
        <ele>38.515788</ele>
        <time>2020-07-15T13:34:26.956Z</time>
      </trkpt>
      <trkpt lat="60.55536" lon="5.26928">
        <ele>38.733568</ele>
        <time>2020-07-15T13:34:28.718Z</time>
      </trkpt>
      <trkpt lat="60.55525" lon="5.26921">
        <ele>39.119865</ele>
        <time>2020-07-15T13:34:32.587Z</time>
      </trkpt>
      <trkpt lat="60.55522" lon="5.26908">
        <ele>39.346142</ele>
        <time>2020-07-15T13:34:34.895Z</time>
      </trkpt>
      <trkpt lat="60.55519" lon="5.26884">
        <ele>39.75622</ele>
        <time>2020-07-15T13:34:39.302Z</time>
      </trkpt>
      <trkpt lat="60.55514" lon="5.26844">
        <ele>40.55302</ele>
        <time>2020-07-15T13:34:45.202Z</time>
      </trkpt>
      <trkpt lat="60.55509" lon="5.26808">
        <ele>42.028761</ele>
        <time>2020-07-15T13:34:51.780Z</time>
      </trkpt>
      <trkpt lat="60.55507" lon="5.26797">
        <ele>42.497349</ele>
        <time>2020-07-15T13:34:54.635Z</time>
      </trkpt>
      <trkpt lat="60.55505" lon="5.26778">
        <ele>43.29348</ele>
        <time>2020-07-15T13:34:58.117Z</time>
      </trkpt>
      <trkpt lat="60.55497" lon="5.26729">
        <ele>45.316528</ele>
        <time>2020-07-15T13:35:08.585Z</time>
      </trkpt>
      <trkpt lat="60.55493" lon="5.26693">
        <ele>46.76353</ele>
        <time>2020-07-15T13:35:15.749Z</time>
      </trkpt>
      <trkpt lat="60.55492" lon="5.2665">
        <ele>48.473546</ele>
        <time>2020-07-15T13:35:25.908Z</time>
      </trkpt>
      <trkpt lat="60.55502" lon="5.26593">
        <ele>50.872008</ele>
        <time>2020-07-15T13:35:38.957Z</time>
      </trkpt>
      <trkpt lat="60.55523" lon="5.26545">
        <ele>53.354924</ele>
        <time>2020-07-15T13:35:53.761Z</time>
      </trkpt>
      <trkpt lat="60.55529" lon="5.26535">
        <ele>54.031232</ele>
        <time>2020-07-15T13:35:59.601Z</time>
      </trkpt>
      <trkpt lat="60.55588" lon="5.26443">
        <ele>59.41216</ele>
        <time>2020-07-15T13:36:37.819Z</time>
      </trkpt>
      <trkpt lat="60.55604" lon="5.26418">
        <ele>60.871833</ele>
        <time>2020-07-15T13:36:44.915Z</time>
      </trkpt>
      <trkpt lat="60.55636" lon="5.2637">
        <ele>63.692416</ele>
        <time>2020-07-15T13:37:00.452Z</time>
      </trkpt>
      <trkpt lat="60.5565" lon="5.26351">
        <ele>64.892114</ele>
        <time>2020-07-15T13:37:08.136Z</time>
      </trkpt>
      <trkpt lat="60.55659" lon="5.26339">
        <ele>65.66833</ele>
        <time>2020-07-15T13:37:11.566Z</time>
      </trkpt>
      <trkpt lat="60.55679" lon="5.26317">
        <ele>67.288155</ele>
        <time>2020-07-15T13:37:18.718Z</time>
      </trkpt>
      <trkpt lat="60.55732" lon="5.26267">
        <ele>67.864675</ele>
        <time>2020-07-15T13:37:33.450Z</time>
      </trkpt>
      <trkpt lat="60.55758" lon="5.26239">
        <ele>68.021382</ele>
        <time>2020-07-15T13:37:39.847Z</time>
      </trkpt>
      <trkpt lat="60.55773" lon="5.26222">
        <ele>68.109982</ele>
        <time>2020-07-15T13:37:43.254Z</time>
      </trkpt>
      <trkpt lat="60.55779" lon="5.26213">
        <ele>68.149128</ele>
        <time>2020-07-15T13:37:44.695Z</time>
      </trkpt>
      <trkpt lat="60.55783" lon="5.26205">
        <ele>68.180777</ele>
        <time>2020-07-15T13:37:45.504Z</time>
      </trkpt>
      <trkpt lat="60.55792" lon="5.26189">
        <ele>68.243948</ele>
        <time>2020-07-15T13:37:47.644Z</time>
      </trkpt>
      <trkpt lat="60.55799" lon="5.26176">
        <ele>68.294621</ele>
        <time>2020-07-15T13:37:49.236Z</time>
      </trkpt>
      <trkpt lat="60.55804" lon="5.26165">
        <ele>68.33106</ele>
        <time>2020-07-15T13:37:50.508Z</time>
      </trkpt>
      <trkpt lat="60.55821" lon="5.26114">
        <ele>68.491801</ele>
        <time>2020-07-15T13:37:55.029Z</time>
      </trkpt>
      <trkpt lat="60.55837" lon="5.2607">
        <ele>68.010652</ele>
        <time>2020-07-15T13:37:58.962Z</time>
      </trkpt>
      <trkpt lat="60.55857" lon="5.2602">
        <ele>67.209576</ele>
        <time>2020-07-15T13:38:03.357Z</time>
      </trkpt>
      <trkpt lat="60.55861" lon="5.25984">
        <ele>66.735885</ele>
        <time>2020-07-15T13:38:06.044Z</time>
      </trkpt>
      <trkpt lat="60.55865" lon="5.25975">
        <ele>66.581228</ele>
        <time>2020-07-15T13:38:06.820Z</time>
      </trkpt>
      <trkpt lat="60.55867" lon="5.25972">
        <ele>66.524634</ele>
        <time>2020-07-15T13:38:07.082Z</time>
      </trkpt>
      <trkpt lat="60.55879" lon="5.25955">
        <ele>66.140655</ele>
        <time>2020-07-15T13:38:09.201Z</time>
      </trkpt>
      <trkpt lat="60.55943" lon="5.25766">
        <ele>63.516846</ele>
        <time>2020-07-15T13:38:25.046Z</time>
      </trkpt>
      <trkpt lat="60.5597" lon="5.25667">
        <ele>62.707129</ele>
        <time>2020-07-15T13:38:33.305Z</time>
      </trkpt>
      <trkpt lat="60.55973" lon="5.25645">
        <ele>62.541061</ele>
        <time>2020-07-15T13:38:34.998Z</time>
      </trkpt>
      <trkpt lat="60.55997" lon="5.25608">
        <ele>62.098041</ele>
        <time>2020-07-15T13:38:39.840Z</time>
      </trkpt>
      <trkpt lat="60.56154" lon="5.25165">
        <ele>61.049592</ele>
        <time>2020-07-15T13:39:26.535Z</time>
      </trkpt>
      <trkpt lat="60.56159" lon="5.25169">
        <ele>61.129539</ele>
        <time>2020-07-15T13:39:27.646Z</time>
      </trkpt>
      <trkpt lat="60.5618" lon="5.25119">
        <ele>61.616377</ele>
        <time>2020-07-15T13:39:34.439Z</time>
      </trkpt>
      <trkpt lat="60.56193" lon="5.25088">
        <ele>61.912191</ele>
        <time>2020-07-15T13:39:38.815Z</time>
      </trkpt>
      <trkpt lat="60.56204" lon="5.25066">
        <ele>62.143289</ele>
        <time>2020-07-15T13:39:42.266Z</time>
      </trkpt>
      <trkpt lat="60.56222" lon="5.2503">
        <ele>62.518872</ele>
        <time>2020-07-15T13:39:48.179Z</time>
      </trkpt>
      <trkpt lat="60.56231" lon="5.25012">
        <ele>62.708466</ele>
        <time>2020-07-15T13:39:51.217Z</time>
      </trkpt>
      <trkpt lat="60.56349" lon="5.24773">
        <ele>68.262963</ele>
        <time>2020-07-15T13:40:39.761Z</time>
      </trkpt>
      <trkpt lat="60.56514" lon="5.24442">
        <ele>78.57995</ele>
        <time>2020-07-15T13:41:57.159Z</time>
      </trkpt>
      <trkpt lat="60.5652" lon="5.24446">
        <ele>78.741005</ele>
        <time>2020-07-15T13:41:59.319Z</time>
      </trkpt>
      <trkpt lat="60.56533" lon="5.24449">
        <ele>79.03539</ele>
        <time>2020-07-15T13:42:02.900Z</time>
      </trkpt>
      <trkpt lat="60.56545" lon="5.24435">
        <ele>79.34116</ele>
        <time>2020-07-15T13:42:06.980Z</time>
      </trkpt>
      <trkpt lat="60.56555" lon="5.24409">
        <ele>79.711372</ele>
        <time>2020-07-15T13:42:11.445Z</time>
      </trkpt>
      <trkpt lat="60.56558" lon="5.24385">
        <ele>79.990655</ele>
        <time>2020-07-15T13:42:14.627Z</time>
      </trkpt>
      <trkpt lat="60.56557" lon="5.24381">
        <ele>80.046153</ele>
        <time>2020-07-15T13:42:15.513Z</time>
      </trkpt>
      <trkpt lat="60.56568" lon="5.24374">
        <ele>80.30007</ele>
        <time>2020-07-15T13:42:18.524Z</time>
      </trkpt>
      <trkpt lat="60.56617" lon="5.24317">
        <ele>81.582738</ele>
        <time>2020-07-15T13:42:32.085Z</time>
      </trkpt>
      <trkpt lat="60.5663" lon="5.24309">
        <ele>81.90787</ele>
        <time>2020-07-15T13:42:35.668Z</time>
      </trkpt>
      <trkpt lat="60.56648" lon="5.2431">
        <ele>82.315291</ele>
        <time>2020-07-15T13:42:39.272Z</time>
      </trkpt>
      <trkpt lat="60.56653" lon="5.24317">
        <ele>82.446566</ele>
        <time>2020-07-15T13:42:40.402Z</time>
      </trkpt>
      <trkpt lat="60.56653" lon="5.24309">
        <ele>82.531282</ele>
        <time>2020-07-15T13:42:41.471Z</time>
      </trkpt>
      <trkpt lat="60.56692" lon="5.24184">
        <ele>82.660203</ele>
        <time>2020-07-15T13:42:56.294Z</time>
      </trkpt>
      <trkpt lat="60.56711" lon="5.24136">
        <ele>82.653775</ele>
        <time>2020-07-15T13:43:02.161Z</time>
      </trkpt>
      <trkpt lat="60.56723" lon="5.24113">
        <ele>82.650461</ele>
        <time>2020-07-15T13:43:05.199Z</time>
      </trkpt>
      <trkpt lat="60.56731" lon="5.2409">
        <ele>82.647523</ele>
        <time>2020-07-15T13:43:07.477Z</time>
      </trkpt>
      <trkpt lat="60.56782" lon="5.23958">
        <ele>81.999895</ele>
        <time>2020-07-15T13:43:21.179Z</time>
      </trkpt>
      <trkpt lat="60.56811" lon="5.23911">
        <ele>81.215621</ele>
        <time>2020-07-15T13:43:26.918Z</time>
      </trkpt>
      <trkpt lat="60.56817" lon="5.239">
        <ele>81.045778</ele>
        <time>2020-07-15T13:43:28.158Z</time>
      </trkpt>
      <trkpt lat="60.56829" lon="5.23884">
        <ele>80.741556</ele>
        <time>2020-07-15T13:43:30.234Z</time>
      </trkpt>
      <trkpt lat="60.56998" lon="5.23658">
        <ele>74.749872</ele>
        <time>2020-07-15T13:43:58.330Z</time>
      </trkpt>
      <trkpt lat="60.57029" lon="5.23616">
        <ele>73.380792</ele>
        <time>2020-07-15T13:44:03.249Z</time>
      </trkpt>
      <trkpt lat="60.57039" lon="5.23605">
        <ele>72.983388</ele>
        <time>2020-07-15T13:44:04.624Z</time>
      </trkpt>
      <trkpt lat="60.57077" lon="5.23534">
        <ele>69.322504</ele>
        <time>2020-07-15T13:44:11.239Z</time>
      </trkpt>
      <trkpt lat="60.57092" lon="5.2352">
        <ele>67.834551</ele>
        <time>2020-07-15T13:44:13.371Z</time>
      </trkpt>
      <trkpt lat="60.57105" lon="5.23528">
        <ele>66.622449</ele>
        <time>2020-07-15T13:44:14.984Z</time>
      </trkpt>
      <trkpt lat="60.57107" lon="5.23521">
        <ele>66.243699</ele>
        <time>2020-07-15T13:44:15.504Z</time>
      </trkpt>
      <trkpt lat="60.57109" lon="5.23513">
        <ele>65.823488</ele>
        <time>2020-07-15T13:44:16.108Z</time>
      </trkpt>
      <trkpt lat="60.57101" lon="5.23496">
        <ele>64.777475</ele>
        <time>2020-07-15T13:44:17.424Z</time>
      </trkpt>
      <trkpt lat="60.57096" lon="5.23487">
        <ele>64.158475</ele>
        <time>2020-07-15T13:44:18.168Z</time>
      </trkpt>
      <trkpt lat="60.57103" lon="5.23468">
        <ele>63.066966</ele>
        <time>2020-07-15T13:44:19.490Z</time>
      </trkpt>
      <trkpt lat="60.5711" lon="5.23447">
        <ele>61.94095</ele>
        <time>2020-07-15T13:44:20.872Z</time>
      </trkpt>
      <trkpt lat="60.57118" lon="5.23422">
        <ele>60.621048</ele>
        <time>2020-07-15T13:44:22.387Z</time>
      </trkpt>
      <trkpt lat="60.57124" lon="5.23397">
        <ele>59.332829</ele>
        <time>2020-07-15T13:44:23.925Z</time>
      </trkpt>
      <trkpt lat="60.57131" lon="5.23369">
        <ele>57.951168</ele>
        <time>2020-07-15T13:44:25.506Z</time>
      </trkpt>
      <trkpt lat="60.57134" lon="5.23338">
        <ele>56.529257</ele>
        <time>2020-07-15T13:44:27.086Z</time>
      </trkpt>
      <trkpt lat="60.57135" lon="5.23316">
        <ele>55.352951</ele>
        <time>2020-07-15T13:44:28.360Z</time>
      </trkpt>
      <trkpt lat="60.57134" lon="5.23294">
        <ele>53.85962</ele>
        <time>2020-07-15T13:44:29.439Z</time>
      </trkpt>
      <trkpt lat="60.57131" lon="5.23255">
        <ele>51.126316</ele>
        <time>2020-07-15T13:44:31.438Z</time>
      </trkpt>
      <trkpt lat="60.57123" lon="5.23147">
        <ele>43.471043</ele>
        <time>2020-07-15T13:44:37.049Z</time>
      </trkpt>
      <trkpt lat="60.57119" lon="5.2314">
        <ele>42.685374</ele>
        <time>2020-07-15T13:44:37.645Z</time>
      </trkpt>
      <trkpt lat="60.57115" lon="5.23097">
        <ele>39.598022</ele>
        <time>2020-07-15T13:44:40.133Z</time>
      </trkpt>
      <trkpt lat="60.57117" lon="5.23087">
        <ele>38.92081</ele>
        <time>2020-07-15T13:44:40.643Z</time>
      </trkpt>
      <trkpt lat="60.57115" lon="5.23062">
        <ele>37.120278</ele>
        <time>2020-07-15T13:44:41.988Z</time>
      </trkpt>
      <trkpt lat="60.57092" lon="5.22739">
        <ele>23.149654</ele>
        <time>2020-07-15T13:45:00.237Z</time>
      </trkpt>
      <trkpt lat="60.57092" lon="5.2272">
        <ele>22.543834</ele>
        <time>2020-07-15T13:45:01.517Z</time>
      </trkpt>
      <trkpt lat="60.57094" lon="5.22705">
        <ele>22.068479</ele>
        <time>2020-07-15T13:45:03.837Z</time>
      </trkpt>
      <trkpt lat="60.57097" lon="5.22677">
        <ele>21.181337</ele>
        <time>2020-07-15T13:45:05.999Z</time>
      </trkpt>
      <trkpt lat="60.571" lon="5.22663">
        <ele>20.692113</ele>
        <time>2020-07-15T13:45:07.804Z</time>
      </trkpt>
      <trkpt lat="60.57106" lon="5.2266">
        <ele>20.292617</ele>
        <time>2020-07-15T13:45:08.883Z</time>
      </trkpt>
      <trkpt lat="60.57113" lon="5.22642">
        <ele>19.582576</ele>
        <time>2020-07-15T13:45:12.009Z</time>
      </trkpt>
      <trkpt lat="60.57137" lon="5.22602">
        <ele>19.203225</ele>
        <time>2020-07-15T13:45:18.211Z</time>
      </trkpt>
      <trkpt lat="60.57176" lon="5.22571">
        <ele>20.088592</ele>
        <time>2020-07-15T13:45:28.868Z</time>
      </trkpt>
      <trkpt lat="60.57196" lon="5.22555">
        <ele>20.540809</ele>
        <time>2020-07-15T13:45:34.106Z</time>
      </trkpt>
      <trkpt lat="60.57235" lon="5.22522">
        <ele>21.442514</ele>
        <time>2020-07-15T13:45:47.021Z</time>
      </trkpt>
      <trkpt lat="60.57252" lon="5.22507">
        <ele>21.823565</ele>
        <time>2020-07-15T13:45:52.144Z</time>
      </trkpt>
      <trkpt lat="60.57285" lon="5.22474">
        <ele>22.593612</ele>
        <time>2020-07-15T13:46:00.986Z</time>
      </trkpt>
      <trkpt lat="60.5736" lon="5.22387">
        <ele>23.228283</ele>
        <time>2020-07-15T13:46:19.669Z</time>
      </trkpt>
      <trkpt lat="60.57369" lon="5.22379">
        <ele>23.294826</ele>
        <time>2020-07-15T13:46:21.959Z</time>
      </trkpt>
      <trkpt lat="60.57379" lon="5.22368">
        <ele>23.377955</ele>
        <time>2020-07-15T13:46:24.076Z</time>
      </trkpt>
      <trkpt lat="60.57423" lon="5.22319">
        <ele>23.740864</ele>
        <time>2020-07-15T13:46:33.484Z</time>
      </trkpt>
      <trkpt lat="60.57444" lon="5.22297">
        <ele>23.885525</ele>
        <time>2020-07-15T13:46:37.660Z</time>
      </trkpt>
      <trkpt lat="60.57633" lon="5.22088">
        <ele>21.863153</ele>
        <time>2020-07-15T13:47:10.087Z</time>
      </trkpt>
      <trkpt lat="60.57662" lon="5.22058">
        <ele>21.75202</ele>
        <time>2020-07-15T13:47:15.117Z</time>
      </trkpt>
      <trkpt lat="60.5769" lon="5.22023">
        <ele>21.637286</ele>
        <time>2020-07-15T13:47:20.552Z</time>
      </trkpt>
      <trkpt lat="60.57707" lon="5.22002">
        <ele>21.569977</ele>
        <time>2020-07-15T13:47:23.915Z</time>
      </trkpt>
      <trkpt lat="60.57771" lon="5.21905">
        <ele>21.784137</ele>
        <time>2020-07-15T13:47:39.015Z</time>
      </trkpt>
      <trkpt lat="60.57783" lon="5.21887">
        <ele>22.078993</ele>
        <time>2020-07-15T13:47:42.264Z</time>
      </trkpt>
      <trkpt lat="60.57804" lon="5.21861">
        <ele>22.559386</ele>
        <time>2020-07-15T13:47:47.918Z</time>
      </trkpt>
      <trkpt lat="60.57813" lon="5.21852">
        <ele>22.750012</ele>
        <time>2020-07-15T13:47:50.221Z</time>
      </trkpt>
      <trkpt lat="60.57923" lon="5.21756">
        <ele>25.190297</ele>
        <time>2020-07-15T13:48:21.147Z</time>
      </trkpt>
      <trkpt lat="60.57946" lon="5.21718">
        <ele>26.114353</ele>
        <time>2020-07-15T13:48:29.652Z</time>
      </trkpt>
      <trkpt lat="60.57976" lon="5.21647">
        <ele>27.536304</ele>
        <time>2020-07-15T13:48:42.189Z</time>
      </trkpt>
      <trkpt lat="60.58013" lon="5.21593">
        <ele>28.944385</ele>
        <time>2020-07-15T13:48:55.188Z</time>
      </trkpt>
      <trkpt lat="60.58023" lon="5.21576">
        <ele>29.359094</ele>
        <time>2020-07-15T13:48:59.589Z</time>
      </trkpt>
      <trkpt lat="60.58063" lon="5.21507">
        <ele>30.783812</ele>
        <time>2020-07-15T13:49:13.695Z</time>
      </trkpt>
      <trkpt lat="60.58071" lon="5.21495">
        <ele>30.986892</ele>
        <time>2020-07-15T13:49:16.466Z</time>
      </trkpt>
      <trkpt lat="60.58087" lon="5.21467">
        <ele>31.423884</ele>
        <time>2020-07-15T13:49:22.119Z</time>
      </trkpt>
      <trkpt lat="60.58101" lon="5.21441">
        <ele>31.826552</ele>
        <time>2020-07-15T13:49:27.580Z</time>
      </trkpt>
      <trkpt lat="60.58109" lon="5.21431">
        <ele>32.00874</ele>
        <time>2020-07-15T13:49:29.727Z</time>
      </trkpt>
      <trkpt lat="60.58131" lon="5.21395">
        <ele>32.600731</ele>
        <time>2020-07-15T13:49:37.133Z</time>
      </trkpt>
      <trkpt lat="60.58137" lon="5.21386">
        <ele>32.746479</ele>
        <time>2020-07-15T13:49:38.700Z</time>
      </trkpt>
      <trkpt lat="60.58206" lon="5.21274">
        <ele>34.118421</ele>
        <time>2020-07-15T13:49:57.824Z</time>
      </trkpt>
      <trkpt lat="60.58375" lon="5.21041">
        <ele>33.486551</ele>
        <time>2020-07-15T13:50:32.508Z</time>
      </trkpt>
      <trkpt lat="60.58398" lon="5.21011">
        <ele>33.130138</ele>
        <time>2020-07-15T13:50:36.703Z</time>
      </trkpt>
      <trkpt lat="60.58407" lon="5.21001">
        <ele>32.996662</ele>
        <time>2020-07-15T13:50:38.206Z</time>
      </trkpt>
      <trkpt lat="60.58485" lon="5.20893">
        <ele>31.751404</ele>
        <time>2020-07-15T13:50:52.105Z</time>
      </trkpt>
      <trkpt lat="60.58528" lon="5.20844">
        <ele>29.856338</ele>
        <time>2020-07-15T13:50:58.592Z</time>
      </trkpt>
      <trkpt lat="60.58598" lon="5.20785">
        <ele>26.796455</ele>
        <time>2020-07-15T13:51:08.031Z</time>
      </trkpt>
      <trkpt lat="60.58649" lon="5.20755">
        <ele>24.656799</ele>
        <time>2020-07-15T13:51:14.582Z</time>
      </trkpt>
      <trkpt lat="60.58659" lon="5.2075">
        <ele>24.245733</ele>
        <time>2020-07-15T13:51:15.757Z</time>
      </trkpt>
      <trkpt lat="60.58667" lon="5.20747">
        <ele>23.906966</ele>
        <time>2020-07-15T13:51:16.708Z</time>
      </trkpt>
      <trkpt lat="60.587" lon="5.20734">
        <ele>22.552664</ele>
        <time>2020-07-15T13:51:20.725Z</time>
      </trkpt>
      <trkpt lat="60.5873" lon="5.20728">
        <ele>21.316406</ele>
        <time>2020-07-15T13:51:24.414Z</time>
      </trkpt>
      <trkpt lat="60.58762" lon="5.20718">
        <ele>20.023385</ele>
        <time>2020-07-15T13:51:28.265Z</time>
      </trkpt>
      <trkpt lat="60.58795" lon="5.20711">
        <ele>18.665969</ele>
        <time>2020-07-15T13:51:32.401Z</time>
      </trkpt>
      <trkpt lat="60.58881" lon="5.20676">
        <ele>18.346839</ele>
        <time>2020-07-15T13:51:45.513Z</time>
      </trkpt>
      <trkpt lat="60.58894" lon="5.20673">
        <ele>18.620494</ele>
        <time>2020-07-15T13:51:47.960Z</time>
      </trkpt>
      <trkpt lat="60.58909" lon="5.20667">
        <ele>18.973118</ele>
        <time>2020-07-15T13:51:53.016Z</time>
      </trkpt>
      <trkpt lat="60.5899" lon="5.20626">
        <ele>20.82646</ele>
        <time>2020-07-15T13:52:17.761Z</time>
      </trkpt>
      <trkpt lat="60.59018" lon="5.20615">
        <ele>21.799273</ele>
        <time>2020-07-15T13:52:27.915Z</time>
      </trkpt>
      <trkpt lat="60.59038" lon="5.20608">
        <ele>22.877046</ele>
        <time>2020-07-15T13:52:35.144Z</time>
      </trkpt>
      <trkpt lat="60.591" lon="5.20585">
        <ele>26.160936</ele>
        <time>2020-07-15T13:52:59.620Z</time>
      </trkpt>
      <trkpt lat="60.592" lon="5.20574">
        <ele>30.549789</ele>
        <time>2020-07-15T13:53:33.838Z</time>
      </trkpt>
      <trkpt lat="60.59236" lon="5.20556">
        <ele>30.539168</ele>
        <time>2020-07-15T13:53:42.696Z</time>
      </trkpt>
      <trkpt lat="60.59253" lon="5.20549">
        <ele>30.534059</ele>
        <time>2020-07-15T13:53:46.355Z</time>
      </trkpt>
      <trkpt lat="60.59303" lon="5.20525">
        <ele>30.519325</ele>
        <time>2020-07-15T13:53:55.603Z</time>
      </trkpt>
      <trkpt lat="60.59313" lon="5.20523">
        <ele>30.516469</ele>
        <time>2020-07-15T13:53:57.169Z</time>
      </trkpt>
      <trkpt lat="60.59352" lon="5.2051">
        <ele>30.504886</ele>
        <time>2020-07-15T13:54:02.982Z</time>
      </trkpt>
      <trkpt lat="60.59535" lon="5.20416">
        <ele>19.757708</ele>
        <time>2020-07-15T13:54:24.860Z</time>
      </trkpt>
      <trkpt lat="60.59546" lon="5.20408">
        <ele>19.348644</ele>
        <time>2020-07-15T13:54:26.087Z</time>
      </trkpt>
      <trkpt lat="60.59565" lon="5.20395">
        <ele>18.626932</ele>
        <time>2020-07-15T13:54:28.490Z</time>
      </trkpt>
      <trkpt lat="60.59595" lon="5.20381">
        <ele>17.52119</ele>
        <time>2020-07-15T13:54:32.122Z</time>
      </trkpt>
      <trkpt lat="60.59636" lon="5.20363">
        <ele>16.039112</ele>
        <time>2020-07-15T13:54:37.252Z</time>
      </trkpt>
      <trkpt lat="60.59699" lon="5.20307">
        <ele>13.570284</ele>
        <time>2020-07-15T13:54:46.762Z</time>
      </trkpt>
      <trkpt lat="60.59709" lon="5.20301">
        <ele>13.4236</ele>
        <time>2020-07-15T13:54:49.362Z</time>
      </trkpt>
      <trkpt lat="60.59738" lon="5.20298">
        <ele>14.257289</ele>
        <time>2020-07-15T13:54:56.377Z</time>
      </trkpt>
      <trkpt lat="60.59775" lon="5.20288">
        <ele>15.337141</ele>
        <time>2020-07-15T13:55:07.225Z</time>
      </trkpt>
      <trkpt lat="60.59812" lon="5.20276">
        <ele>16.410754</ele>
        <time>2020-07-15T13:55:18.750Z</time>
      </trkpt>
      <trkpt lat="60.59889" lon="5.20209">
        <ele>18.705925</ele>
        <time>2020-07-15T13:55:44.953Z</time>
      </trkpt>
      <trkpt lat="60.59952" lon="5.20128">
        <ele>20.024622</ele>
        <time>2020-07-15T13:56:03.516Z</time>
      </trkpt>
      <trkpt lat="60.59975" lon="5.201">
        <ele>20.500242</ele>
        <time>2020-07-15T13:56:09.308Z</time>
      </trkpt>
      <trkpt lat="60.5998" lon="5.20096">
        <ele>20.587797</ele>
        <time>2020-07-15T13:56:10.178Z</time>
      </trkpt>
      <trkpt lat="60.59996" lon="5.20085">
        <ele>20.888392</ele>
        <time>2020-07-15T13:56:13.142Z</time>
      </trkpt>
      <trkpt lat="60.60034" lon="5.20061">
        <ele>21.593565</ele>
        <time>2020-07-15T13:56:21.232Z</time>
      </trkpt>
      <trkpt lat="60.60049" lon="5.20039">
        <ele>21.901768</ele>
        <time>2020-07-15T13:56:25.115Z</time>
      </trkpt>
      <trkpt lat="60.60073" lon="5.19999">
        <ele>22.39463</ele>
        <time>2020-07-15T13:56:31.411Z</time>
      </trkpt>
      <trkpt lat="60.60114" lon="5.19929">
        <ele>23.250039</ele>
        <time>2020-07-15T13:56:42.416Z</time>
      </trkpt>
      <trkpt lat="60.60178" lon="5.1982">
        <ele>24.580639</ele>
        <time>2020-07-15T13:57:04.042Z</time>
      </trkpt>
      <trkpt lat="60.60201" lon="5.19783">
        <ele>25.011701</ele>
        <time>2020-07-15T13:57:11.813Z</time>
      </trkpt>
      <trkpt lat="60.60214" lon="5.1976">
        <ele>25.271145</ele>
        <time>2020-07-15T13:57:16.515Z</time>
      </trkpt>
      <trkpt lat="60.60265" lon="5.19681">
        <ele>26.214363</ele>
        <time>2020-07-15T13:57:31.063Z</time>
      </trkpt>
      <trkpt lat="60.60284" lon="5.19657">
        <ele>26.546021</ele>
        <time>2020-07-15T13:57:35.606Z</time>
      </trkpt>
      <trkpt lat="60.60312" lon="5.19629">
        <ele>26.995204</ele>
        <time>2020-07-15T13:57:41.369Z</time>
      </trkpt>
      <trkpt lat="60.60356" lon="5.19593">
        <ele>27.778804</ele>
        <time>2020-07-15T13:57:50.856Z</time>
      </trkpt>
      <trkpt lat="60.60382" lon="5.1957">
        <ele>28.267612</ele>
        <time>2020-07-15T13:57:56.522Z</time>
      </trkpt>
      <trkpt lat="60.60437" lon="5.19513">
        <ele>29.319723</ele>
        <time>2020-07-15T13:58:09.464Z</time>
      </trkpt>
      <trkpt lat="60.60555" lon="5.19387">
        <ele>33.777704</ele>
        <time>2020-07-15T13:58:48.241Z</time>
      </trkpt>
      <trkpt lat="60.60583" lon="5.19356">
        <ele>35.238666</ele>
        <time>2020-07-15T13:58:59.035Z</time>
      </trkpt>
      <trkpt lat="60.60622" lon="5.19309">
        <ele>37.300826</ele>
        <time>2020-07-15T13:59:15.555Z</time>
      </trkpt>
      <trkpt lat="60.60637" lon="5.19291">
        <ele>38.098952</ele>
        <time>2020-07-15T13:59:21.853Z</time>
      </trkpt>
      <trkpt lat="60.60709" lon="5.19204">
        <ele>41.478395</ele>
        <time>2020-07-15T13:59:51.253Z</time>
      </trkpt>
      <trkpt lat="60.60722" lon="5.19186">
        <ele>42.073284</ele>
        <time>2020-07-15T13:59:55.830Z</time>
      </trkpt>
      <trkpt lat="60.60734" lon="5.19162">
        <ele>42.740127</ele>
        <time>2020-07-15T14:00:02.849Z</time>
      </trkpt>
      <trkpt lat="60.60746" lon="5.19126">
        <ele>43.605167</ele>
        <time>2020-07-15T14:00:09.773Z</time>
      </trkpt>
      <trkpt lat="60.60754" lon="5.19082">
        <ele>44.510955</ele>
        <time>2020-07-15T14:00:15.137Z</time>
      </trkpt>
      <trkpt lat="60.60756" lon="5.19035">
        <ele>45.42942</ele>
        <time>2020-07-15T14:00:21.866Z</time>
      </trkpt>
      <trkpt lat="60.60745" lon="5.18907">
        <ele>43.110185</ele>
        <time>2020-07-15T14:00:31.881Z</time>
      </trkpt>
      <trkpt lat="60.60741" lon="5.18859">
        <ele>42.108385</ele>
        <time>2020-07-15T14:00:34.765Z</time>
      </trkpt>
      <trkpt lat="60.6074" lon="5.18845">
        <ele>41.810233</ele>
        <time>2020-07-15T14:00:35.699Z</time>
      </trkpt>
      <trkpt lat="60.60743" lon="5.18818">
        <ele>41.223908</ele>
        <time>2020-07-15T14:00:37.202Z</time>
      </trkpt>
      <trkpt lat="60.60744" lon="5.18808">
        <ele>41.012113</ele>
        <time>2020-07-15T14:00:37.718Z</time>
      </trkpt>
      <trkpt lat="60.60755" lon="5.18757">
        <ele>39.847826</ele>
        <time>2020-07-15T14:00:41.181Z</time>
      </trkpt>
      <trkpt lat="60.60784" lon="5.18694">
        <ele>38.023416</ele>
        <time>2020-07-15T14:00:45.938Z</time>
      </trkpt>
      <trkpt lat="60.60799" lon="5.18676">
        <ele>37.127432</ele>
        <time>2020-07-15T14:00:48.253Z</time>
      </trkpt>
      <trkpt lat="60.60811" lon="5.18668">
        <ele>36.499516</ele>
        <time>2020-07-15T14:00:49.579Z</time>
      </trkpt>
      <trkpt lat="60.60814" lon="5.18667">
        <ele>36.361278</ele>
        <time>2020-07-15T14:00:49.852Z</time>
      </trkpt>
      <trkpt lat="60.60846" lon="5.18656">
        <ele>34.680331</ele>
        <time>2020-07-15T14:00:53.548Z</time>
      </trkpt>
      <trkpt lat="60.60982" lon="5.18644">
        <ele>29.318099</ele>
        <time>2020-07-15T14:01:10.137Z</time>
      </trkpt>
      <trkpt lat="60.6122" lon="5.18638">
        <ele>39.334856</ele>
        <time>2020-07-15T14:02:30.352Z</time>
      </trkpt>
      <trkpt lat="60.61284" lon="5.186">
        <ele>43.543202</ele>
        <time>2020-07-15T14:02:59.046Z</time>
      </trkpt>
      <trkpt lat="60.61326" lon="5.18551">
        <ele>46.375539</ele>
        <time>2020-07-15T14:03:19.237Z</time>
      </trkpt>
      <trkpt lat="60.61364" lon="5.18482">
        <ele>48.668094</ele>
        <time>2020-07-15T14:03:37.786Z</time>
      </trkpt>
      <trkpt lat="60.61382" lon="5.18446">
        <ele>49.799599</ele>
        <time>2020-07-15T14:03:47.153Z</time>
      </trkpt>
      <trkpt lat="60.61449" lon="5.18308">
        <ele>53.845555</ele>
        <time>2020-07-15T14:04:13.752Z</time>
      </trkpt>
      <trkpt lat="60.61505" lon="5.18198">
        <ele>53.894613</ele>
        <time>2020-07-15T14:04:29.193Z</time>
      </trkpt>
      <trkpt lat="60.61527" lon="5.1815">
        <ele>53.915152</ele>
        <time>2020-07-15T14:04:34.119Z</time>
      </trkpt>
      <trkpt lat="60.6153" lon="5.18145">
        <ele>53.917434</ele>
        <time>2020-07-15T14:04:34.652Z</time>
      </trkpt>
      <trkpt lat="60.61586" lon="5.1803">
        <ele>53.852779</ele>
        <time>2020-07-15T14:04:46.933Z</time>
      </trkpt>
      <trkpt lat="60.61596" lon="5.1801">
        <ele>53.775237</ele>
        <time>2020-07-15T14:04:49.045Z</time>
      </trkpt>
      <trkpt lat="60.61653" lon="5.17896">
        <ele>53.321655</ele>
        <time>2020-07-15T14:05:01.688Z</time>
      </trkpt>
      <trkpt lat="60.61704" lon="5.1779">
        <ele>52.97756</ele>
        <time>2020-07-15T14:05:14.079Z</time>
      </trkpt>
      <trkpt lat="60.61742" lon="5.17715">
        <ele>53.467809</ele>
        <time>2020-07-15T14:05:24.113Z</time>
      </trkpt>
      <trkpt lat="60.61746" lon="5.17704">
        <ele>53.531964</ele>
        <time>2020-07-15T14:05:25.477Z</time>
      </trkpt>
      <trkpt lat="60.61758" lon="5.17679">
        <ele>53.688123</ele>
        <time>2020-07-15T14:05:28.883Z</time>
      </trkpt>
      <trkpt lat="60.61823" lon="5.17547">
        <ele>54.532526</ele>
        <time>2020-07-15T14:05:49.582Z</time>
      </trkpt>
      <trkpt lat="60.61855" lon="5.17482">
        <ele>55.109981</ele>
        <time>2020-07-15T14:06:00.269Z</time>
      </trkpt>
      <trkpt lat="60.61861" lon="5.17471">
        <ele>55.218889</ele>
        <time>2020-07-15T14:06:01.994Z</time>
      </trkpt>
      <trkpt lat="60.61897" lon="5.17395">
        <ele>55.923131</ele>
        <time>2020-07-15T14:06:13.655Z</time>
      </trkpt>
      <trkpt lat="60.61901" lon="5.17388">
        <ele>55.993465</ele>
        <time>2020-07-15T14:06:15.221Z</time>
      </trkpt>
      <trkpt lat="60.62025" lon="5.17129">
        <ele>58.455664</ele>
        <time>2020-07-15T14:06:52.449Z</time>
      </trkpt>
      <trkpt lat="60.62223" lon="5.16589">
        <ele>65.38359</ele>
        <time>2020-07-15T14:08:12.591Z</time>
      </trkpt>
      <trkpt lat="60.62291" lon="5.1645">
        <ele>68.303236</ele>
        <time>2020-07-15T14:08:41.135Z</time>
      </trkpt>
      <trkpt lat="60.62367" lon="5.16329">
        <ele>70.909289</ele>
        <time>2020-07-15T14:09:10.248Z</time>
      </trkpt>
      <trkpt lat="60.62406" lon="5.16276">
        <ele>72.16343</ele>
        <time>2020-07-15T14:09:22.592Z</time>
      </trkpt>
      <trkpt lat="60.62443" lon="5.16233">
        <ele>73.291335</ele>
        <time>2020-07-15T14:09:32.477Z</time>
      </trkpt>
      <trkpt lat="60.62885" lon="5.15782">
        <ele>72.019192</ele>
        <time>2020-07-15T14:10:57.569Z</time>
      </trkpt>
      <trkpt lat="60.6295" lon="5.15681">
        <ele>70.377573</ele>
        <time>2020-07-15T14:11:09.367Z</time>
      </trkpt>
      <trkpt lat="60.63262" lon="5.15128">
        <ele>52.86925</ele>
        <time>2020-07-15T14:12:00.247Z</time>
      </trkpt>
      <trkpt lat="60.63272" lon="5.15104">
        <ele>52.248636</ele>
        <time>2020-07-15T14:12:01.977Z</time>
      </trkpt>
      <trkpt lat="60.63281" lon="5.1508">
        <ele>51.612627</ele>
        <time>2020-07-15T14:12:03.715Z</time>
      </trkpt>
      <trkpt lat="60.63299" lon="5.15009">
        <ele>49.985211</ele>
        <time>2020-07-15T14:12:08.392Z</time>
      </trkpt>
      <trkpt lat="60.63405" lon="5.14476">
        <ele>51.706719</ele>
        <time>2020-07-15T14:13:02.590Z</time>
      </trkpt>
      <trkpt lat="60.63415" lon="5.14408">
        <ele>52.932378</ele>
        <time>2020-07-15T14:13:16.749Z</time>
      </trkpt>
      <trkpt lat="60.63417" lon="5.14364">
        <ele>53.69674</ele>
        <time>2020-07-15T14:13:25.301Z</time>
      </trkpt>
      <trkpt lat="60.63408" lon="5.14295">
        <ele>54.934782</ele>
        <time>2020-07-15T14:13:37.969Z</time>
      </trkpt>
      <trkpt lat="60.63387" lon="5.14227">
        <ele>55.22267</ele>
        <time>2020-07-15T14:13:50.564Z</time>
      </trkpt>
      <trkpt lat="60.63366" lon="5.14184">
        <ele>55.109911</ele>
        <time>2020-07-15T14:13:59.196Z</time>
      </trkpt>
      <trkpt lat="60.63343" lon="5.14148">
        <ele>54.998346</ele>
        <time>2020-07-15T14:14:06.801Z</time>
      </trkpt>
      <trkpt lat="60.63327" lon="5.14129">
        <ele>54.925392</ele>
        <time>2020-07-15T14:14:09.578Z</time>
      </trkpt>
      <trkpt lat="60.63268" lon="5.14066">
        <ele>54.670849</ele>
        <time>2020-07-15T14:14:17.764Z</time>
      </trkpt>
      <trkpt lat="60.63252" lon="5.1404">
        <ele>54.114372</ele>
        <time>2020-07-15T14:14:20.190Z</time>
      </trkpt>
      <trkpt lat="60.63242" lon="5.13992">
        <ele>52.968549</ele>
        <time>2020-07-15T14:14:23.168Z</time>
      </trkpt>
      <trkpt lat="60.63243" lon="5.13941">
        <ele>51.867397</ele>
        <time>2020-07-15T14:14:26.038Z</time>
      </trkpt>
      <trkpt lat="60.63248" lon="5.13873">
        <ele>50.364606</ele>
        <time>2020-07-15T14:14:30.000Z</time>
      </trkpt>
      <trkpt lat="60.63256" lon="5.13772">
        <ele>48.163352</ele>
        <time>2020-07-15T14:14:36.308Z</time>
      </trkpt>
      <trkpt lat="60.63257" lon="5.13754">
        <ele>47.772143</ele>
        <time>2020-07-15T14:14:37.527Z</time>
      </trkpt>
      <trkpt lat="60.6326" lon="5.13723">
        <ele>47.101469</ele>
        <time>2020-07-15T14:14:39.626Z</time>
      </trkpt>
      <trkpt lat="60.63261" lon="5.13698">
        <ele>46.811148</ele>
        <time>2020-07-15T14:14:41.438Z</time>
      </trkpt>
      <trkpt lat="60.63262" lon="5.13694">
        <ele>46.869215</ele>
        <time>2020-07-15T14:14:41.777Z</time>
      </trkpt>
      <trkpt lat="60.63262" lon="5.13685">
        <ele>47.003782</ele>
        <time>2020-07-15T14:14:42.520Z</time>
      </trkpt>
      <trkpt lat="60.63264" lon="5.13665">
        <ele>47.284425</ele>
        <time>2020-07-15T14:14:43.962Z</time>
      </trkpt>
      <trkpt lat="60.63273" lon="5.13539">
        <ele>49.065979</ele>
        <time>2020-07-15T14:14:58.607Z</time>
      </trkpt>
      <trkpt lat="60.63287" lon="5.13367">
        <ele>51.50185</ele>
        <time>2020-07-15T14:15:28.460Z</time>
      </trkpt>
      <trkpt lat="60.63287" lon="5.13282">
        <ele>52.958996</ele>
        <time>2020-07-15T14:15:43.633Z</time>
      </trkpt>
      <trkpt lat="60.63266" lon="5.12978">
        <ele>58.563374</ele>
        <time>2020-07-15T14:16:27.333Z</time>
      </trkpt>
      <trkpt lat="60.63241" lon="5.12821">
        <ele>59.570726</ele>
        <time>2020-07-15T14:16:46.217Z</time>
      </trkpt>
      <trkpt lat="60.63241" lon="5.12804">
        <ele>59.670777</ele>
        <time>2020-07-15T14:16:48.066Z</time>
      </trkpt>
      <trkpt lat="60.63242" lon="5.12793">
        <ele>59.738237</ele>
        <time>2020-07-15T14:16:49.267Z</time>
      </trkpt>
      <trkpt lat="60.63257" lon="5.12767">
        <ele>59.984098</ele>
        <time>2020-07-15T14:16:53.382Z</time>
      </trkpt>
      <trkpt lat="60.63268" lon="5.12753">
        <ele>60.141244</ele>
        <time>2020-07-15T14:16:56.101Z</time>
      </trkpt>
      <trkpt lat="60.63275" lon="5.1274">
        <ele>60.258523</ele>
        <time>2020-07-15T14:16:57.970Z</time>
      </trkpt>
      <trkpt lat="60.63349" lon="5.12629">
        <ele>59.221387</ele>
        <time>2020-07-15T14:17:14.235Z</time>
      </trkpt>
      <trkpt lat="60.63354" lon="5.1262">
        <ele>59.006471</ele>
        <time>2020-07-15T14:17:15.351Z</time>
      </trkpt>
      <trkpt lat="60.63383" lon="5.12578">
        <ele>57.897101</ele>
        <time>2020-07-15T14:17:20.547Z</time>
      </trkpt>
      <trkpt lat="60.6342" lon="5.1252">
        <ele>56.427724</ele>
        <time>2020-07-15T14:17:26.590Z</time>
      </trkpt>
      <trkpt lat="60.63443" lon="5.12488">
        <ele>55.54327</ele>
        <time>2020-07-15T14:17:29.835Z</time>
      </trkpt>
      <trkpt lat="60.63449" lon="5.12478">
        <ele>55.305177</ele>
        <time>2020-07-15T14:17:30.666Z</time>
      </trkpt>
      <trkpt lat="60.6347" lon="5.12447">
        <ele>53.141153</ele>
        <time>2020-07-15T14:17:33.620Z</time>
      </trkpt>
      <trkpt lat="60.63477" lon="5.12435">
        <ele>52.265535</ele>
        <time>2020-07-15T14:17:34.615Z</time>
      </trkpt>
      <trkpt lat="60.63516" lon="5.12374">
        <ele>47.475919</ele>
        <time>2020-07-15T14:17:40.080Z</time>
      </trkpt>
      <trkpt lat="60.63524" lon="5.1235">
        <ele>46.099423</ele>
        <time>2020-07-15T14:17:41.595Z</time>
      </trkpt>
      <trkpt lat="60.63529" lon="5.12316">
        <ele>44.385119</ele>
        <time>2020-07-15T14:17:43.533Z</time>
      </trkpt>
      <trkpt lat="60.63533" lon="5.12277">
        <ele>42.497055</ele>
        <time>2020-07-15T14:17:45.623Z</time>
      </trkpt>
      <trkpt lat="60.63534" lon="5.12253">
        <ele>41.344126</ele>
        <time>2020-07-15T14:17:46.891Z</time>
      </trkpt>
      <trkpt lat="60.63545" lon="5.12184">
        <ele>37.89458</ele>
        <time>2020-07-15T14:17:50.701Z</time>
      </trkpt>
      <trkpt lat="60.63595" lon="5.12125">
        <ele>33.553894</ele>
        <time>2020-07-15T14:17:56.978Z</time>
      </trkpt>
      <trkpt lat="60.63599" lon="5.12105">
        <ele>32.764918</ele>
        <time>2020-07-15T14:17:58.129Z</time>
      </trkpt>
      <trkpt lat="60.63594" lon="5.12083">
        <ele>31.868396</ele>
        <time>2020-07-15T14:17:59.497Z</time>
      </trkpt>
      <trkpt lat="60.63585" lon="5.12077">
        <ele>31.107831</ele>
        <time>2020-07-15T14:18:00.687Z</time>
      </trkpt>
      <trkpt lat="60.63548" lon="5.12102">
        <ele>28.238285</ele>
        <time>2020-07-15T14:18:05.168Z</time>
      </trkpt>
      <trkpt lat="60.63528" lon="5.12115">
        <ele>26.719743</ele>
        <time>2020-07-15T14:18:07.696Z</time>
      </trkpt>
      <trkpt lat="60.63527" lon="5.12116">
        <ele>26.641779</ele>
        <time>2020-07-15T14:18:07.841Z</time>
      </trkpt>
      <trkpt lat="60.63503" lon="5.12119">
        <ele>24.831883</ele>
        <time>2020-07-15T14:18:11.032Z</time>
      </trkpt>
      <trkpt lat="60.63488" lon="5.12093">
        <ele>24.242447</ele>
        <time>2020-07-15T14:18:13.615Z</time>
      </trkpt>
      <trkpt lat="60.63484" lon="5.12007">
        <ele>23.868083</ele>
        <time>2020-07-15T14:18:19.375Z</time>
      </trkpt>
      <trkpt lat="60.63491" lon="5.11943">
        <ele>23.581078</ele>
        <time>2020-07-15T14:18:24.026Z</time>
      </trkpt>
      <trkpt lat="60.63509" lon="5.11902">
        <ele>23.339964</ele>
        <time>2020-07-15T14:18:28.082Z</time>
      </trkpt>
      <trkpt lat="60.63561" lon="5.11836">
        <ele>22.797636</ele>
        <time>2020-07-15T14:18:41.093Z</time>
      </trkpt>
      <trkpt lat="60.63609" lon="5.11755">
        <ele>24.93303</ele>
        <time>2020-07-15T14:18:57.029Z</time>
      </trkpt>
      <trkpt lat="60.6364" lon="5.11676">
        <ele>26.802196</ele>
        <time>2020-07-15T14:19:12.475Z</time>
      </trkpt>
      <trkpt lat="60.63651" lon="5.11639">
        <ele>27.604985</ele>
        <time>2020-07-15T14:19:18.430Z</time>
      </trkpt>
      <trkpt lat="60.63647" lon="5.11635">
        <ele>27.762115</ele>
        <time>2020-07-15T14:19:21.241Z</time>
      </trkpt>
      <trkpt lat="60.63605" lon="5.11601">
        <ele>29.465489</ele>
        <time>2020-07-15T14:19:35.830Z</time>
      </trkpt>
      <trkpt lat="60.63511" lon="5.11552">
        <ele>33.895871</ele>
        <time>2020-07-15T14:20:11.104Z</time>
      </trkpt>
      <trkpt lat="60.63482" lon="5.11514">
        <ele>35.48106</ele>
        <time>2020-07-15T14:20:22.186Z</time>
      </trkpt>
      <trkpt lat="60.63472" lon="5.11482">
        <ele>36.339159</ele>
        <time>2020-07-15T14:20:27.336Z</time>
      </trkpt>
      <trkpt lat="60.63471" lon="5.11479">
        <ele>36.418305</ele>
        <time>2020-07-15T14:20:28.439Z</time>
      </trkpt>
      <trkpt lat="60.63472" lon="5.11446">
        <ele>37.15505</ele>
        <time>2020-07-15T14:20:32.815Z</time>
      </trkpt>
      <trkpt lat="60.63487" lon="5.11395">
        <ele>37.998323</ele>
        <time>2020-07-15T14:20:41.116Z</time>
      </trkpt>
      <trkpt lat="60.63558" lon="5.11249">
        <ele>39.462934</ele>
        <time>2020-07-15T14:21:04.988Z</time>
      </trkpt>
      <trkpt lat="60.63588" lon="5.1119">
        <ele>40.064888</ele>
        <time>2020-07-15T14:21:12.788Z</time>
      </trkpt>
      <trkpt lat="60.63594" lon="5.11173">
        <ele>40.216132</ele>
        <time>2020-07-15T14:21:14.470Z</time>
      </trkpt>
      <trkpt lat="60.63626" lon="5.11009">
        <ele>39.705508</ele>
        <time>2020-07-15T14:21:29.410Z</time>
      </trkpt>
      <trkpt lat="60.63632" lon="5.1093">
        <ele>39.363833</ele>
        <time>2020-07-15T14:21:35.814Z</time>
      </trkpt>
      <trkpt lat="60.63621" lon="5.10907">
        <ele>39.229512</ele>
        <time>2020-07-15T14:21:38.189Z</time>
      </trkpt>
      <trkpt lat="60.63532" lon="5.10838">
        <ele>37.17235</ele>
        <time>2020-07-15T14:21:51.665Z</time>
      </trkpt>
      <trkpt lat="60.63524" lon="5.10807">
        <ele>36.569314</ele>
        <time>2020-07-15T14:21:53.898Z</time>
      </trkpt>
      <trkpt lat="60.63529" lon="5.10706">
        <ele>34.802788</ele>
        <time>2020-07-15T14:22:00.219Z</time>
      </trkpt>
      <trkpt lat="60.63525" lon="5.10666">
        <ele>34.079343</ele>
        <time>2020-07-15T14:22:02.755Z</time>
      </trkpt>
      <trkpt lat="60.63519" lon="5.10647">
        <ele>33.693388</ele>
        <time>2020-07-15T14:22:04.107Z</time>
      </trkpt>
      <trkpt lat="60.63507" lon="5.10614">
        <ele>32.972556</ele>
        <time>2020-07-15T14:22:06.551Z</time>
      </trkpt>
      <trkpt lat="60.63475" lon="5.10505">
        <ele>30.229789</ele>
        <time>2020-07-15T14:22:14.106Z</time>
      </trkpt>
      <trkpt lat="60.63463" lon="5.10403">
        <ele>27.799816</ele>
        <time>2020-07-15T14:22:20.274Z</time>
      </trkpt>
      <trkpt lat="60.63472" lon="5.1032">
        <ele>25.844895</ele>
        <time>2020-07-15T14:22:25.235Z</time>
      </trkpt>
      <trkpt lat="60.63514" lon="5.10136">
        <ele>22.315842</ele>
        <time>2020-07-15T14:22:38.157Z</time>
      </trkpt>
      <trkpt lat="60.63528" lon="5.10007">
        <ele>20.571181</ele>
        <time>2020-07-15T14:22:46.868Z</time>
      </trkpt>
      <trkpt lat="60.63529" lon="5.09964">
        <ele>20.00184</ele>
        <time>2020-07-15T14:22:49.773Z</time>
      </trkpt>
      <trkpt lat="60.6352" lon="5.09928">
        <ele>19.470655</ele>
        <time>2020-07-15T14:22:52.528Z</time>
      </trkpt>
      <trkpt lat="60.63505" lon="5.09906">
        <ele>19.048976</ele>
        <time>2020-07-15T14:22:55.223Z</time>
      </trkpt>
      <trkpt lat="60.6346" lon="5.09903">
        <ele>19.069088</ele>
        <time>2020-07-15T14:23:02.028Z</time>
      </trkpt>
      <trkpt lat="60.6342" lon="5.09914">
        <ele>19.087197</ele>
        <time>2020-07-15T14:23:08.675Z</time>
      </trkpt>
      <trkpt lat="60.63403" lon="5.09916">
        <ele>19.094535</ele>
        <time>2020-07-15T14:23:11.628Z</time>
      </trkpt>
      <trkpt lat="60.63374" lon="5.09924">
        <ele>19.107654</ele>
        <time>2020-07-15T14:23:17.281Z</time>
      </trkpt>
      <trkpt lat="60.6332" lon="5.09964">
        <ele>19.66443</ele>
        <time>2020-07-15T14:23:30.343Z</time>
      </trkpt>
      <trkpt lat="60.63282" lon="5.09981">
        <ele>21.31138</ele>
        <time>2020-07-15T14:23:40.540Z</time>
      </trkpt>
      <trkpt lat="60.6324" lon="5.09968">
        <ele>23.127757</ele>
        <time>2020-07-15T14:23:53.539Z</time>
      </trkpt>
      <trkpt lat="60.63202" lon="5.09972">
        <ele>24.713383</ele>
        <time>2020-07-15T14:24:06.069Z</time>
      </trkpt>
      <trkpt lat="60.63149" lon="5.09999">
        <ele>27.134826</ele>
        <time>2020-07-15T14:24:27.796Z</time>
      </trkpt>
      <trkpt lat="60.63108" lon="5.10008">
        <ele>29.281811</ele>
        <time>2020-07-15T14:24:43.512Z</time>
      </trkpt>
      <trkpt lat="60.63066" lon="5.10034">
        <ele>31.568765</ele>
        <time>2020-07-15T14:24:59.466Z</time>
      </trkpt>
      <trkpt lat="60.63033" lon="5.10041">
        <ele>33.350091</ele>
        <time>2020-07-15T14:25:11.402Z</time>
      </trkpt>
      <trkpt lat="60.63026" lon="5.10043">
        <ele>33.7249</ele>
        <time>2020-07-15T14:25:13.693Z</time>
      </trkpt>
      <trkpt lat="60.63024" lon="5.10043">
        <ele>33.794026</ele>
        <time>2020-07-15T14:25:14.561Z</time>
      </trkpt>
      <trkpt lat="60.62956" lon="5.10057">
        <ele>36.705644</ele>
        <time>2020-07-15T14:25:34.961Z</time>
      </trkpt>
      <trkpt lat="60.6288" lon="5.10095">
        <ele>38.322251</ele>
        <time>2020-07-15T14:25:55.326Z</time>
      </trkpt>
      <trkpt lat="60.62859" lon="5.10105">
        <ele>38.768935</ele>
        <time>2020-07-15T14:25:59.095Z</time>
      </trkpt>
      <trkpt lat="60.62839" lon="5.10117">
        <ele>39.205837</ele>
        <time>2020-07-15T14:26:03.848Z</time>
      </trkpt>
      <trkpt lat="60.6271" lon="5.10127">
        <ele>41.066538</ele>
        <time>2020-07-15T14:26:31.047Z</time>
      </trkpt>
      <trkpt lat="60.627" lon="5.10117">
        <ele>41.196806</ele>
        <time>2020-07-15T14:26:33.968Z</time>
      </trkpt>
      <trkpt lat="60.62693" lon="5.10087">
        <ele>41.388928</ele>
        <time>2020-07-15T14:26:37.399Z</time>
      </trkpt>
      <trkpt lat="60.62695" lon="5.09996">
        <ele>41.921378</ele>
        <time>2020-07-15T14:26:46.566Z</time>
      </trkpt>
      <trkpt lat="60.6269" lon="5.09917">
        <ele>42.400325</ele>
        <time>2020-07-15T14:26:55.298Z</time>
      </trkpt>
      <trkpt lat="60.62689" lon="5.09875">
        <ele>42.654641</ele>
        <time>2020-07-15T14:27:00.565Z</time>
      </trkpt>
      <trkpt lat="60.6269" lon="5.09858">
        <ele>42.763027</ele>
        <time>2020-07-15T14:27:02.079Z</time>
      </trkpt>
      <trkpt lat="60.62699" lon="5.09785">
        <ele>43.226239</ele>
        <time>2020-07-15T14:27:10.651Z</time>
      </trkpt>
      <trkpt lat="60.62702" lon="5.09767">
        <ele>43.34419</ele>
        <time>2020-07-15T14:27:12.326Z</time>
      </trkpt>
      <trkpt lat="60.62713" lon="5.09692">
        <ele>43.818679</ele>
        <time>2020-07-15T14:27:20.428Z</time>
      </trkpt>
      <trkpt lat="60.62723" lon="5.09638">
        <ele>44.177571</ele>
        <time>2020-07-15T14:27:26.610Z</time>
      </trkpt>
      <trkpt lat="60.62747" lon="5.09552">
        <ele>43.844415</ele>
        <time>2020-07-15T14:27:37.614Z</time>
      </trkpt>
      <trkpt lat="60.62763" lon="5.09425">
        <ele>42.873129</ele>
        <time>2020-07-15T14:27:49.753Z</time>
      </trkpt>
      <trkpt lat="60.62791" lon="5.09311">
        <ele>41.921005</ele>
        <time>2020-07-15T14:27:57.995Z</time>
      </trkpt>
      <trkpt lat="60.62798" lon="5.09278">
        <ele>41.651858</ele>
        <time>2020-07-15T14:28:00.114Z</time>
      </trkpt>
      <trkpt lat="60.62803" lon="5.09222">
        <ele>39.880147</ele>
        <time>2020-07-15T14:28:03.358Z</time>
      </trkpt>
      <trkpt lat="60.62804" lon="5.09194">
        <ele>38.978913</ele>
        <time>2020-07-15T14:28:05.105Z</time>
      </trkpt>
      <trkpt lat="60.62804" lon="5.09174">
        <ele>38.325109</ele>
        <time>2020-07-15T14:28:06.219Z</time>
      </trkpt>
      <trkpt lat="60.62802" lon="5.09127">
        <ele>36.776022</ele>
        <time>2020-07-15T14:28:08.901Z</time>
      </trkpt>
      <trkpt lat="60.62797" lon="5.0904">
        <ele>33.938127</ele>
        <time>2020-07-15T14:28:13.865Z</time>
      </trkpt>
      <trkpt lat="60.62794" lon="5.09018">
        <ele>33.198915</ele>
        <time>2020-07-15T14:28:15.054Z</time>
      </trkpt>
      <trkpt lat="60.62792" lon="5.09">
        <ele>32.581279</ele>
        <time>2020-07-15T14:28:16.100Z</time>
      </trkpt>
      <trkpt lat="60.62781" lon="5.08948">
        <ele>30.773669</ele>
        <time>2020-07-15T14:28:19.202Z</time>
      </trkpt>
      <trkpt lat="60.62779" lon="5.08899">
        <ele>29.364885</ele>
        <time>2020-07-15T14:28:22.084Z</time>
      </trkpt>
      <trkpt lat="60.62781" lon="5.08864">
        <ele>28.651122</ele>
        <time>2020-07-15T14:28:23.962Z</time>
      </trkpt>
      <trkpt lat="60.62783" lon="5.08823">
        <ele>27.827342</ele>
        <time>2020-07-15T14:28:26.442Z</time>
      </trkpt>
      <trkpt lat="60.62785" lon="5.08772">
        <ele>26.77793</ele>
        <time>2020-07-15T14:28:29.468Z</time>
      </trkpt>
      <trkpt lat="60.62782" lon="5.08648">
        <ele>24.281356</ele>
        <time>2020-07-15T14:28:37.327Z</time>
      </trkpt>
      <trkpt lat="60.62782" lon="5.08623">
        <ele>23.768285</ele>
        <time>2020-07-15T14:28:39.216Z</time>
      </trkpt>
      <trkpt lat="60.62784" lon="5.08566">
        <ele>22.609922</ele>
        <time>2020-07-15T14:28:43.265Z</time>
      </trkpt>
      <trkpt lat="60.62792" lon="5.0848">
        <ele>21.985739</ele>
        <time>2020-07-15T14:28:49.820Z</time>
      </trkpt>
      <trkpt lat="60.62798" lon="5.08441">
        <ele>21.804035</ele>
        <time>2020-07-15T14:28:52.916Z</time>
      </trkpt>
      <trkpt lat="60.62801" lon="5.08429">
        <ele>21.743996</ele>
        <time>2020-07-15T14:28:54.079Z</time>
      </trkpt>
      <trkpt lat="60.62811" lon="5.08397">
        <ele>21.576055</ele>
        <time>2020-07-15T14:28:56.940Z</time>
      </trkpt>
      <trkpt lat="60.6282" lon="5.0838">
        <ele>21.468039</ele>
        <time>2020-07-15T14:28:58.856Z</time>
      </trkpt>
      <trkpt lat="60.62832" lon="5.08351">
        <ele>21.30293</ele>
        <time>2020-07-15T14:29:01.805Z</time>
      </trkpt>
      <trkpt lat="60.62842" lon="5.08334">
        <ele>21.183246</ele>
        <time>2020-07-15T14:29:03.846Z</time>
      </trkpt>
      <trkpt lat="60.62851" lon="5.08312">
        <ele>21.056871</ele>
        <time>2020-07-15T14:29:06.269Z</time>
      </trkpt>
      <trkpt lat="60.62862" lon="5.08287">
        <ele>20.906612</ele>
        <time>2020-07-15T14:29:08.891Z</time>
      </trkpt>
      <trkpt lat="60.62875" lon="5.0826">
        <ele>20.740618</ele>
        <time>2020-07-15T14:29:12.088Z</time>
      </trkpt>
      <trkpt lat="60.62913" lon="5.0818">
        <ele>20.528217</ele>
        <time>2020-07-15T14:29:21.037Z</time>
      </trkpt>
      <trkpt lat="60.62959" lon="5.0806">
        <ele>20.291485</ele>
        <time>2020-07-15T14:29:33.626Z</time>
      </trkpt>
      <trkpt lat="60.62965" lon="5.08047">
        <ele>20.26241</ele>
        <time>2020-07-15T14:29:35.241Z</time>
      </trkpt>
      <trkpt lat="60.62976" lon="5.08017">
        <ele>20.204341</ele>
        <time>2020-07-15T14:29:38.417Z</time>
      </trkpt>
      <trkpt lat="60.62996" lon="5.07937">
        <ele>20.19822</ele>
        <time>2020-07-15T14:29:45.937Z</time>
      </trkpt>
      <trkpt lat="60.63005" lon="5.07877">
        <ele>20.395444</ele>
        <time>2020-07-15T14:29:51.210Z</time>
      </trkpt>
      <trkpt lat="60.63009" lon="5.07834">
        <ele>20.531679</ele>
        <time>2020-07-15T14:29:54.967Z</time>
      </trkpt>
      <trkpt lat="60.63011" lon="5.07796">
        <ele>20.65058</ele>
        <time>2020-07-15T14:29:58.552Z</time>
      </trkpt>
      <trkpt lat="60.6301" lon="5.07647">
        <ele>21.114147</ele>
        <time>2020-07-15T14:30:14.013Z</time>
      </trkpt>
      <trkpt lat="60.63016" lon="5.07588">
        <ele>21.339072</ele>
        <time>2020-07-15T14:30:21.022Z</time>
      </trkpt>
      <trkpt lat="60.6302" lon="5.07562">
        <ele>21.483175</ele>
        <time>2020-07-15T14:30:23.904Z</time>
      </trkpt>
      <trkpt lat="60.63036" lon="5.07508">
        <ele>21.819847</ele>
        <time>2020-07-15T14:30:31.299Z</time>
      </trkpt>
      <trkpt lat="60.63056" lon="5.07457">
        <ele>22.165875</ele>
        <time>2020-07-15T14:30:38.830Z</time>
      </trkpt>
      <trkpt lat="60.63071" lon="5.07424">
        <ele>22.408844</ele>
        <time>2020-07-15T14:30:43.778Z</time>
      </trkpt>
      <trkpt lat="60.63079" lon="5.0741">
        <ele>22.523201</ele>
        <time>2020-07-15T14:30:46.002Z</time>
      </trkpt>
      <trkpt lat="60.63127" lon="5.0731">
        <ele>23.164438</ele>
        <time>2020-07-15T14:30:59.597Z</time>
      </trkpt>
      <trkpt lat="60.63145" lon="5.07265">
        <ele>22.910835</ele>
        <time>2020-07-15T14:31:04.368Z</time>
      </trkpt>
      <trkpt lat="60.63153" lon="5.07249">
        <ele>22.819849</ele>
        <time>2020-07-15T14:31:06.107Z</time>
      </trkpt>
      <trkpt lat="60.63174" lon="5.07187">
        <ele>22.48981</ele>
        <time>2020-07-15T14:31:11.970Z</time>
      </trkpt>
      <trkpt lat="60.63201" lon="5.07116">
        <ele>22.09978</ele>
        <time>2020-07-15T14:31:18.437Z</time>
      </trkpt>
      <trkpt lat="60.63209" lon="5.07099">
        <ele>21.995768</ele>
        <time>2020-07-15T14:31:20.020Z</time>
      </trkpt>
      <trkpt lat="60.63234" lon="5.07058">
        <ele>21.713571</ele>
        <time>2020-07-15T14:31:24.853Z</time>
      </trkpt>
      <trkpt lat="60.63241" lon="5.0704">
        <ele>21.640286</ele>
        <time>2020-07-15T14:31:26.441Z</time>
      </trkpt>
      <trkpt lat="60.63256" lon="5.06982">
        <ele>22.024177</ele>
        <time>2020-07-15T14:31:31.272Z</time>
      </trkpt>
      <trkpt lat="60.63281" lon="5.06914">
        <ele>22.511433</ele>
        <time>2020-07-15T14:31:39.625Z</time>
      </trkpt>
      <trkpt lat="60.63294" lon="5.06886">
        <ele>22.734308</ele>
        <time>2020-07-15T14:31:44.059Z</time>
      </trkpt>
      <trkpt lat="60.63361" lon="5.06778">
        <ele>23.748742</ele>
        <time>2020-07-15T14:32:05.697Z</time>
      </trkpt>
      <trkpt lat="60.63373" lon="5.0676">
        <ele>24.108599</ele>
        <time>2020-07-15T14:32:10.210Z</time>
      </trkpt>
      <trkpt lat="60.63385" lon="5.06745">
        <ele>24.447776</ele>
        <time>2020-07-15T14:32:14.010Z</time>
      </trkpt>
      <trkpt lat="60.63393" lon="5.06732">
        <ele>24.684185</ele>
        <time>2020-07-15T14:32:17.098Z</time>
      </trkpt>
      <trkpt lat="60.63492" lon="5.06607">
        <ele>27.482743</ele>
        <time>2020-07-15T14:32:47.791Z</time>
      </trkpt>
      <trkpt lat="60.6351" lon="5.06571">
        <ele>28.076998</ele>
        <time>2020-07-15T14:32:54.021Z</time>
      </trkpt>
      <trkpt lat="60.63542" lon="5.06498">
        <ele>28.034903</ele>
        <time>2020-07-15T14:33:03.177Z</time>
      </trkpt>
      <trkpt lat="60.63553" lon="5.06468">
        <ele>28.018673</ele>
        <time>2020-07-15T14:33:06.629Z</time>
      </trkpt>
      <trkpt lat="60.63585" lon="5.06412">
        <ele>27.981776</ele>
        <time>2020-07-15T14:33:13.950Z</time>
      </trkpt>
      <trkpt lat="60.63609" lon="5.06382">
        <ele>27.956949</ele>
        <time>2020-07-15T14:33:18.418Z</time>
      </trkpt>
      <trkpt lat="60.63617" lon="5.06374">
        <ele>27.949206</ele>
        <time>2020-07-15T14:33:19.882Z</time>
      </trkpt>
      <trkpt lat="60.63635" lon="5.0635">
        <ele>27.930327</ele>
        <time>2020-07-15T14:33:23.035Z</time>
      </trkpt>
      <trkpt lat="60.63661" lon="5.06316">
        <ele>27.699247</ele>
        <time>2020-07-15T14:33:27.679Z</time>
      </trkpt>
      <trkpt lat="60.63679" lon="5.06278">
        <ele>27.396447</ele>
        <time>2020-07-15T14:33:31.531Z</time>
      </trkpt>
      <trkpt lat="60.63697" lon="5.06229">
        <ele>27.039131</ele>
        <time>2020-07-15T14:33:36.061Z</time>
      </trkpt>
      <trkpt lat="60.63721" lon="5.06179">
        <ele>26.632087</ele>
        <time>2020-07-15T14:33:41.239Z</time>
      </trkpt>
      <trkpt lat="60.63729" lon="5.06166">
        <ele>26.513711</ele>
        <time>2020-07-15T14:33:42.807Z</time>
      </trkpt>
      <trkpt lat="60.63745" lon="5.06147">
        <ele>26.293481</ele>
        <time>2020-07-15T14:33:45.569Z</time>
      </trkpt>
      <trkpt lat="60.63788" lon="5.06098">
        <ele>25.765085</ele>
        <time>2020-07-15T14:33:53.170Z</time>
      </trkpt>
      <trkpt lat="60.63817" lon="5.06053">
        <ele>25.621878</ele>
        <time>2020-07-15T14:33:58.831Z</time>
      </trkpt>
      <trkpt lat="60.63881" lon="5.05907">
        <ele>25.241496</ele>
        <time>2020-07-15T14:34:15.091Z</time>
      </trkpt>
      <trkpt lat="60.63891" lon="5.05893">
        <ele>25.195131</ele>
        <time>2020-07-15T14:34:17.136Z</time>
      </trkpt>
      <trkpt lat="60.63903" lon="5.0587">
        <ele>25.128922</ele>
        <time>2020-07-15T14:34:20.273Z</time>
      </trkpt>
      <trkpt lat="60.6393" lon="5.05799">
        <ele>25.064892</ele>
        <time>2020-07-15T14:34:28.349Z</time>
      </trkpt>
      <trkpt lat="60.63954" lon="5.05699">
        <ele>25.035023</ele>
        <time>2020-07-15T14:34:38.289Z</time>
      </trkpt>
      <trkpt lat="60.6396" lon="5.05659">
        <ele>25.023446</ele>
        <time>2020-07-15T14:34:42.101Z</time>
      </trkpt>
      <trkpt lat="60.63971" lon="5.05578">
        <ele>25.000961</ele>
        <time>2020-07-15T14:34:49.300Z</time>
      </trkpt>
      <trkpt lat="60.63981" lon="5.05481">
        <ele>24.822332</ele>
        <time>2020-07-15T14:34:57.422Z</time>
      </trkpt>
      <trkpt lat="60.63983" lon="5.05462">
        <ele>24.73748</ele>
        <time>2020-07-15T14:34:58.942Z</time>
      </trkpt>
      <trkpt lat="60.63985" lon="5.05454">
        <ele>24.697967</ele>
        <time>2020-07-15T14:34:59.613Z</time>
      </trkpt>
      <trkpt lat="60.63988" lon="5.05424">
        <ele>24.557338</ele>
        <time>2020-07-15T14:35:02.068Z</time>
      </trkpt>
      <trkpt lat="60.63995" lon="5.05347">
        <ele>24.203546</ele>
        <time>2020-07-15T14:35:08.171Z</time>
      </trkpt>
      <trkpt lat="60.63997" lon="5.05299">
        <ele>23.98343</ele>
        <time>2020-07-15T14:35:11.821Z</time>
      </trkpt>
      <trkpt lat="60.63999" lon="5.0523">
        <ele>23.671294</ele>
        <time>2020-07-15T14:35:16.977Z</time>
      </trkpt>
      <trkpt lat="60.64" lon="5.05163">
        <ele>23.364807</ele>
        <time>2020-07-15T14:35:21.967Z</time>
      </trkpt>
      <trkpt lat="60.64" lon="5.05039">
        <ele>22.907377</ele>
        <time>2020-07-15T14:35:31.120Z</time>
      </trkpt>
      <trkpt lat="60.63999" lon="5.05028">
        <ele>22.867746</ele>
        <time>2020-07-15T14:35:31.895Z</time>
      </trkpt>
      <trkpt lat="60.63999" lon="5.05">
        <ele>22.767897</ele>
        <time>2020-07-15T14:35:33.988Z</time>
      </trkpt>
      <trkpt lat="60.63998" lon="5.04959">
        <ele>22.618491</ele>
        <time>2020-07-15T14:35:37.136Z</time>
      </trkpt>
      <trkpt lat="60.63997" lon="5.0492">
        <ele>22.477693</ele>
        <time>2020-07-15T14:35:40.231Z</time>
      </trkpt>
      <trkpt lat="60.63996" lon="5.04885">
        <ele>22.349052</ele>
        <time>2020-07-15T14:35:43.033Z</time>
      </trkpt>
      <trkpt lat="60.63996" lon="5.04871">
        <ele>22.301569</ele>
        <time>2020-07-15T14:35:44.136Z</time>
      </trkpt>
      <trkpt lat="60.63996" lon="5.04851">
        <ele>22.228126</ele>
        <time>2020-07-15T14:35:45.874Z</time>
      </trkpt>
      <trkpt lat="60.63997" lon="5.04776">
        <ele>22.017643</ele>
        <time>2020-07-15T14:35:52.377Z</time>
      </trkpt>
      <trkpt lat="60.63998" lon="5.04739">
        <ele>22.099096</ele>
        <time>2020-07-15T14:35:55.549Z</time>
      </trkpt>
      <trkpt lat="60.64004" lon="5.04662">
        <ele>22.270114</ele>
        <time>2020-07-15T14:36:02.767Z</time>
      </trkpt>
      <trkpt lat="60.64007" lon="5.04633">
        <ele>22.336479</ele>
        <time>2020-07-15T14:36:05.747Z</time>
      </trkpt>
      <trkpt lat="60.64012" lon="5.04602">
        <ele>22.406931</ele>
        <time>2020-07-15T14:36:08.724Z</time>
      </trkpt>
      <trkpt lat="60.64019" lon="5.04567">
        <ele>22.489729</ele>
        <time>2020-07-15T14:36:12.530Z</time>
      </trkpt>
      <trkpt lat="60.64025" lon="5.04539">
        <ele>22.557524</ele>
        <time>2020-07-15T14:36:15.480Z</time>
      </trkpt>
      <trkpt lat="60.64031" lon="5.0451">
        <ele>22.626975</ele>
        <time>2020-07-15T14:36:18.747Z</time>
      </trkpt>
      <trkpt lat="60.64047" lon="5.04452">
        <ele>22.775166</ele>
        <time>2020-07-15T14:36:25.470Z</time>
      </trkpt>
      <trkpt lat="60.64072" lon="5.04376">
        <ele>22.864927</ele>
        <time>2020-07-15T14:36:34.198Z</time>
      </trkpt>
      <trkpt lat="60.64086" lon="5.0433">
        <ele>22.908392</ele>
        <time>2020-07-15T14:36:39.287Z</time>
      </trkpt>
      <trkpt lat="60.64122" lon="5.04209">
        <ele>23.022829</ele>
        <time>2020-07-15T14:36:52.031Z</time>
      </trkpt>
      <trkpt lat="60.64128" lon="5.04191">
        <ele>23.04041</ele>
        <time>2020-07-15T14:36:53.858Z</time>
      </trkpt>
      <trkpt lat="60.64143" lon="5.04141">
        <ele>23.087298</ele>
        <time>2020-07-15T14:36:58.781Z</time>
      </trkpt>
      <trkpt lat="60.64167" lon="5.04162">
        <ele>22.961762</ele>
        <time>2020-07-15T14:37:03.018Z</time>
      </trkpt>
      <trkpt lat="60.64186" lon="5.04178">
        <ele>22.814357</ele>
        <time>2020-07-15T14:37:06.456Z</time>
      </trkpt>
      <trkpt lat="60.64232" lon="5.0422">
        <ele>22.468856</ele>
        <time>2020-07-15T14:37:14.433Z</time>
      </trkpt>
      <trkpt lat="60.64236" lon="5.04221">
        <ele>22.441003</ele>
        <time>2020-07-15T14:37:15.027Z</time>
      </trkpt>
      <trkpt lat="60.64294" lon="5.0422">
        <ele>22.038214</ele>
        <time>2020-07-15T14:37:24.168Z</time>
      </trkpt>
      <trkpt lat="60.64301" lon="5.04222">
        <ele>21.988392</ele>
        <time>2020-07-15T14:37:25.274Z</time>
      </trkpt>
      <trkpt lat="60.64308" lon="5.04224">
        <ele>21.937882</ele>
        <time>2020-07-15T14:37:26.401Z</time>
      </trkpt>
      <trkpt lat="60.64341" lon="5.04232">
        <ele>21.711847</ele>
        <time>2020-07-15T14:37:31.715Z</time>
      </trkpt>
      <trkpt lat="60.64361" lon="5.04239">
        <ele>21.57692</ele>
        <time>2020-07-15T14:37:34.929Z</time>
      </trkpt>
      <trkpt lat="60.64378" lon="5.04243">
        <ele>21.459421</ele>
        <time>2020-07-15T14:37:37.659Z</time>
      </trkpt>
      <trkpt lat="60.64391" lon="5.04246">
        <ele>21.369501</ele>
        <time>2020-07-15T14:37:39.792Z</time>
      </trkpt>
      <trkpt lat="60.64479" lon="5.04229">
        <ele>20.776051</ele>
        <time>2020-07-15T14:37:53.978Z</time>
      </trkpt>
      <trkpt lat="60.64537" lon="5.04255">
        <ele>20.584316</ele>
        <time>2020-07-15T14:38:03.827Z</time>
      </trkpt>
      <trkpt lat="60.64578" lon="5.0426">
        <ele>20.526332</ele>
        <time>2020-07-15T14:38:10.869Z</time>
      </trkpt>
      <trkpt lat="60.64614" lon="5.04274">
        <ele>20.473006</ele>
        <time>2020-07-15T14:38:17.428Z</time>
      </trkpt>
      <trkpt lat="60.6463" lon="5.04283">
        <ele>20.449105</ele>
        <time>2020-07-15T14:38:20.392Z</time>
      </trkpt>
      <trkpt lat="60.64644" lon="5.04288">
        <ele>20.428588</ele>
        <time>2020-07-15T14:38:22.960Z</time>
      </trkpt>
      <trkpt lat="60.64652" lon="5.0429">
        <ele>20.416615</ele>
        <time>2020-07-15T14:38:24.495Z</time>
      </trkpt>
      <trkpt lat="60.64666" lon="5.04287">
        <ele>20.396698</ele>
        <time>2020-07-15T14:38:26.972Z</time>
      </trkpt>
      <trkpt lat="60.64704" lon="5.04267">
        <ele>20.38843</ele>
        <time>2020-07-15T14:38:34.187Z</time>
      </trkpt>
      <trkpt lat="60.64741" lon="5.04231">
        <ele>20.397139</ele>
        <time>2020-07-15T14:38:41.532Z</time>
      </trkpt>
      <trkpt lat="60.64765" lon="5.04189">
        <ele>20.404149</ele>
        <time>2020-07-15T14:38:47.439Z</time>
      </trkpt>
      <trkpt lat="60.64795" lon="5.04117">
        <ele>20.414132</ele>
        <time>2020-07-15T14:38:55.728Z</time>
      </trkpt>
      <trkpt lat="60.64802" lon="5.04104">
        <ele>20.416139</ele>
        <time>2020-07-15T14:38:57.525Z</time>
      </trkpt>
      <trkpt lat="60.64803" lon="5.04101">
        <ele>20.416564</ele>
        <time>2020-07-15T14:38:57.801Z</time>
      </trkpt>
      <trkpt lat="60.65101" lon="5.03638">
        <ele>19.604272</ele>
        <time>2020-07-15T14:40:01.925Z</time>
      </trkpt>
      <trkpt lat="60.65109" lon="5.03611">
        <ele>19.562791</ele>
        <time>2020-07-15T14:40:04.631Z</time>
      </trkpt>
      <trkpt lat="60.65118" lon="5.03552">
        <ele>19.475989</ele>
        <time>2020-07-15T14:40:09.770Z</time>
      </trkpt>
      <trkpt lat="60.65231" lon="5.0261">
        <ele>18.154749</ele>
        <time>2020-07-15T14:41:30.748Z</time>
      </trkpt>
      <trkpt lat="60.65253" lon="5.02438">
        <ele>17.981793</ele>
        <time>2020-07-15T14:41:45.901Z</time>
      </trkpt>
      <trkpt lat="60.65284" lon="5.02246">
        <ele>17.807942</ele>
        <time>2020-07-15T14:42:03.080Z</time>
      </trkpt>
      <trkpt lat="60.65299" lon="5.02181">
        <ele>17.733661</ele>
        <time>2020-07-15T14:42:09.187Z</time>
      </trkpt>
      <trkpt lat="60.65302" lon="5.02169">
        <ele>17.718129</ele>
        <time>2020-07-15T14:42:10.255Z</time>
      </trkpt>
      <trkpt lat="60.65313" lon="5.02124">
        <ele>17.658123</ele>
        <time>2020-07-15T14:42:14.511Z</time>
      </trkpt>
      <trkpt lat="60.65317" lon="5.02105">
        <ele>17.633206</ele>
        <time>2020-07-15T14:42:16.225Z</time>
      </trkpt>
      <trkpt lat="60.65322" lon="5.02083">
        <ele>17.603472</ele>
        <time>2020-07-15T14:42:18.309Z</time>
      </trkpt>
      <trkpt lat="60.65333" lon="5.0203">
        <ele>17.535042</ele>
        <time>2020-07-15T14:42:23.143Z</time>
      </trkpt>
      <trkpt lat="60.6534" lon="5.01987">
        <ele>17.480269</ele>
        <time>2020-07-15T14:42:27.054Z</time>
      </trkpt>
      <trkpt lat="60.65356" lon="5.01848">
        <ele>17.288774</ele>
        <time>2020-07-15T14:42:38.850Z</time>
      </trkpt>
      <trkpt lat="60.65364" lon="5.01805">
        <ele>17.19139</ele>
        <time>2020-07-15T14:42:42.624Z</time>
      </trkpt>
      <trkpt lat="60.65376" lon="5.01762">
        <ele>17.085168</ele>
        <time>2020-07-15T14:42:46.681Z</time>
      </trkpt>
      <trkpt lat="60.65399" lon="5.01676">
        <ele>16.878691</ele>
        <time>2020-07-15T14:42:54.675Z</time>
      </trkpt>
      <trkpt lat="60.65407" lon="5.01646">
        <ele>16.806965</ele>
        <time>2020-07-15T14:42:57.380Z</time>
      </trkpt>
      <trkpt lat="60.65419" lon="5.01612">
        <ele>16.720401</ele>
        <time>2020-07-15T14:43:00.745Z</time>
      </trkpt>
      <trkpt lat="60.65444" lon="5.01548">
        <ele>16.542874</ele>
        <time>2020-07-15T14:43:07.521Z</time>
      </trkpt>
      <trkpt lat="60.65449" lon="5.01535">
        <ele>16.505437</ele>
        <time>2020-07-15T14:43:08.819Z</time>
      </trkpt>
      <trkpt lat="60.65504" lon="5.01387">
        <ele>16.075331</ele>
        <time>2020-07-15T14:43:23.833Z</time>
      </trkpt>
      <trkpt lat="60.65507" lon="5.01381">
        <ele>16.05626</ele>
        <time>2020-07-15T14:43:24.495Z</time>
      </trkpt>
      <trkpt lat="60.65528" lon="5.01325">
        <ele>15.891544</ele>
        <time>2020-07-15T14:43:30.245Z</time>
      </trkpt>
      <trkpt lat="60.65539" lon="5.01296">
        <ele>15.80421</ele>
        <time>2020-07-15T14:43:33.358Z</time>
      </trkpt>
      <trkpt lat="60.65547" lon="5.01271">
        <ele>15.737087</ele>
        <time>2020-07-15T14:43:35.684Z</time>
      </trkpt>
      <trkpt lat="60.65557" lon="5.01229">
        <ele>15.565672</ele>
        <time>2020-07-15T14:43:39.537Z</time>
      </trkpt>
      <trkpt lat="60.65569" lon="5.01159">
        <ele>15.261592</ele>
        <time>2020-07-15T14:43:45.420Z</time>
      </trkpt>
      <trkpt lat="60.65591" lon="5.01021">
        <ele>14.662497</ele>
        <time>2020-07-15T14:43:56.772Z</time>
      </trkpt>
      <trkpt lat="60.65604" lon="5.00949">
        <ele>14.345395</ele>
        <time>2020-07-15T14:44:02.566Z</time>
      </trkpt>
      <trkpt lat="60.65606" lon="5.00939">
        <ele>14.301941</ele>
        <time>2020-07-15T14:44:03.317Z</time>
      </trkpt>
      <trkpt lat="60.65604" lon="5.00871">
        <ele>13.842799</ele>
        <time>2020-07-15T14:44:08.353Z</time>
      </trkpt>
      <trkpt lat="60.65559" lon="5.00766">
        <ele>12.683355</ele>
        <time>2020-07-15T14:44:18.335Z</time>
      </trkpt>
      <trkpt lat="60.65547" lon="5.00692">
        <ele>12.033981</ele>
        <time>2020-07-15T14:44:23.707Z</time>
      </trkpt>
      <trkpt lat="60.65551" lon="5.0062">
        <ele>11.420142</ele>
        <time>2020-07-15T14:44:28.773Z</time>
      </trkpt>
      <trkpt lat="60.65575" lon="5.00524">
        <ele>10.445506</ele>
        <time>2020-07-15T14:44:36.212Z</time>
      </trkpt>
      <trkpt lat="60.65606" lon="5.00448">
        <ele>9.527497</ele>
        <time>2020-07-15T14:44:42.943Z</time>
      </trkpt>
      <trkpt lat="60.65659" lon="5.00316">
        <ele>7.921135</ele>
        <time>2020-07-15T14:44:54.884Z</time>
      </trkpt>
      <trkpt lat="60.65712" lon="5.00197">
        <ele>6.904912</ele>
        <time>2020-07-15T14:45:06.453Z</time>
      </trkpt>
      <trkpt lat="60.65761" lon="5.00108">
        <ele>6.139257</ele>
        <time>2020-07-15T14:45:16.512Z</time>
      </trkpt>
      <trkpt lat="60.65823" lon="4.9993">
        <ele>5.469074</ele>
        <time>2020-07-15T14:45:33.560Z</time>
      </trkpt>
      <trkpt lat="60.65861" lon="4.99833">
        <ele>5.359353</ele>
        <time>2020-07-15T14:45:44.230Z</time>
      </trkpt>
      <trkpt lat="60.65862" lon="4.9983">
        <ele>5.355282</ele>
        <time>2020-07-15T14:45:44.608Z</time>
      </trkpt>
      <trkpt lat="60.65879" lon="4.9979">
        <ele>5.307721</ele>
        <time>2020-07-15T14:45:49.468Z</time>
      </trkpt>
      <trkpt lat="60.65894" lon="4.99763">
        <ele>5.272209</ele>
        <time>2020-07-15T14:45:53.037Z</time>
      </trkpt>
      <trkpt lat="60.65919" lon="4.99727">
        <ele>5.500646</ele>
        <time>2020-07-15T14:45:58.786Z</time>
      </trkpt>
      <trkpt lat="60.6593" lon="4.99713">
        <ele>5.673819</ele>
        <time>2020-07-15T14:46:01.394Z</time>
      </trkpt>
      <trkpt lat="60.6597" lon="4.99643">
        <ele>6.374776</ele>
        <time>2020-07-15T14:46:12.139Z</time>
      </trkpt>
      <trkpt lat="60.66015" lon="4.99498">
        <ele>7.508716</ele>
        <time>2020-07-15T14:46:31.850Z</time>
      </trkpt>
      <trkpt lat="60.66025" lon="4.9946">
        <ele>7.998861</ele>
        <time>2020-07-15T14:46:37.007Z</time>
      </trkpt>
      <trkpt lat="60.66032" lon="4.99429">
        <ele>8.632696</ele>
        <time>2020-07-15T14:46:41.715Z</time>
      </trkpt>
      <trkpt lat="60.66051" lon="4.99351">
        <ele>10.181042</ele>
        <time>2020-07-15T14:46:53.101Z</time>
      </trkpt>
      <trkpt lat="60.66092" lon="4.99287">
        <ele>12.075615</ele>
        <time>2020-07-15T14:47:07.810Z</time>
      </trkpt>
      <trkpt lat="60.66098" lon="4.99276">
        <ele>12.375561</ele>
        <time>2020-07-15T14:47:10.782Z</time>
      </trkpt>
      <trkpt lat="60.66103" lon="4.99267">
        <ele>12.606502</ele>
        <time>2020-07-15T14:47:12.748Z</time>
      </trkpt>
      <trkpt lat="60.6611" lon="4.99249">
        <ele>13.038358</ele>
        <time>2020-07-15T14:47:16.628Z</time>
      </trkpt>
      <trkpt lat="60.6613" lon="4.99171">
        <ele>14.812681</ele>
        <time>2020-07-15T14:47:31.131Z</time>
      </trkpt>
      <trkpt lat="60.66141" lon="4.99118">
        <ele>16.452777</ele>
        <time>2020-07-15T14:47:41.298Z</time>
      </trkpt>
      <trkpt lat="60.66141" lon="4.99118">
        <ele>16.452777</ele>
        <time>2020-07-15T14:47:41.310Z</time>
      </trkpt>
      <trkpt lat="60.66141" lon="4.99118">
        <ele>16.452777</ele>
        <time>2020-07-15T14:47:41.400Z</time>
      </trkpt>
      <trkpt lat="60.66158" lon="4.99015">
        <ele>19.503707</ele>
        <time>2020-07-15T14:48:01.634Z</time>
      </trkpt>
      <trkpt lat="60.6618" lon="4.9889">
        <ele>23.251491</ele>
        <time>2020-07-15T14:48:26.225Z</time>
      </trkpt>
      <trkpt lat="60.66186" lon="4.98807">
        <ele>25.331111</ele>
        <time>2020-07-15T14:48:40.598Z</time>
      </trkpt>
      <trkpt lat="60.66186" lon="4.98763">
        <ele>26.207559</ele>
        <time>2020-07-15T14:48:48.446Z</time>
      </trkpt>
      <trkpt lat="60.66187" lon="4.98747">
        <ele>26.516915</ele>
        <time>2020-07-15T14:48:50.874Z</time>
      </trkpt>
      <trkpt lat="60.662" lon="4.98698">
        <ele>27.602331</ele>
        <time>2020-07-15T14:48:59.790Z</time>
      </trkpt>
      <trkpt lat="60.66211" lon="4.98661">
        <ele>28.459919</ele>
        <time>2020-07-15T14:49:06.206Z</time>
      </trkpt>
      <trkpt lat="60.66225" lon="4.98611">
        <ele>29.590246</ele>
        <time>2020-07-15T14:49:14.639Z</time>
      </trkpt>
      <trkpt lat="60.66235" lon="4.98576">
        <ele>30.379576</ele>
        <time>2020-07-15T14:49:20.407Z</time>
      </trkpt>
      <trkpt lat="60.66255" lon="4.98501">
        <ele>31.9468</ele>
        <time>2020-07-15T14:49:31.854Z</time>
      </trkpt>
      <trkpt lat="60.66271" lon="4.98443">
        <ele>32.534087</ele>
        <time>2020-07-15T14:49:39.154Z</time>
      </trkpt>
      <trkpt lat="60.6629" lon="4.9838">
        <ele>33.179779</ele>
        <time>2020-07-15T14:49:47.564Z</time>
      </trkpt>
      <trkpt lat="60.66299" lon="4.98345">
        <ele>33.529369</ele>
        <time>2020-07-15T14:49:52.358Z</time>
      </trkpt>
      <trkpt lat="60.66335" lon="4.98187">
        <ele>35.057637</ele>
        <time>2020-07-15T14:50:11.793Z</time>
      </trkpt>
      <trkpt lat="60.66343" lon="4.98159">
        <ele>35.132746</ele>
        <time>2020-07-15T14:50:15.573Z</time>
      </trkpt>
      <trkpt lat="60.6635" lon="4.98135">
        <ele>35.181883</ele>
        <time>2020-07-15T14:50:18.450Z</time>
      </trkpt>
      <trkpt lat="60.66367" lon="4.98095">
        <ele>35.27288</ele>
        <time>2020-07-15T14:50:23.923Z</time>
      </trkpt>
      <trkpt lat="60.66383" lon="4.98058">
        <ele>35.356658</ele>
        <time>2020-07-15T14:50:28.511Z</time>
      </trkpt>
      <trkpt lat="60.66388" lon="4.98048">
        <ele>35.381751</ele>
        <time>2020-07-15T14:50:29.903Z</time>
      </trkpt>
      <trkpt lat="60.66398" lon="4.98018">
        <ele>35.445521</ele>
        <time>2020-07-15T14:50:33.192Z</time>
      </trkpt>
      <trkpt lat="60.66422" lon="4.97962">
        <ele>35.573614</ele>
        <time>2020-07-15T14:50:39.671Z</time>
      </trkpt>
      <trkpt lat="60.66441" lon="4.97918">
        <ele>35.674854</ele>
        <time>2020-07-15T14:50:44.627Z</time>
      </trkpt>
      <trkpt lat="60.66463" lon="4.97873">
        <ele>35.547881</ele>
        <time>2020-07-15T14:50:49.575Z</time>
      </trkpt>
      <trkpt lat="60.66471" lon="4.97859">
        <ele>35.457415</ele>
        <time>2020-07-15T14:50:51.279Z</time>
      </trkpt>
      <trkpt lat="60.6651" lon="4.97809">
        <ele>35.060285</ele>
        <time>2020-07-15T14:50:58.395Z</time>
      </trkpt>
      <trkpt lat="60.66522" lon="4.97794">
        <ele>34.936265</ele>
        <time>2020-07-15T14:51:00.571Z</time>
      </trkpt>
      <trkpt lat="60.66545" lon="4.9777">
        <ele>34.713624</ele>
        <time>2020-07-15T14:51:04.573Z</time>
      </trkpt>
      <trkpt lat="60.6657" lon="4.97735">
        <ele>34.459599</ele>
        <time>2020-07-15T14:51:09.116Z</time>
      </trkpt>
      <trkpt lat="60.66592" lon="4.97705">
        <ele>34.233698</ele>
        <time>2020-07-15T14:51:13.242Z</time>
      </trkpt>
      <trkpt lat="60.66604" lon="4.97689">
        <ele>34.129652</ele>
        <time>2020-07-15T14:51:15.609Z</time>
      </trkpt>
      <trkpt lat="60.66625" lon="4.97652">
        <ele>33.974889</ele>
        <time>2020-07-15T14:51:20.063Z</time>
      </trkpt>
      <trkpt lat="60.66638" lon="4.97631">
        <ele>33.880846</ele>
        <time>2020-07-15T14:51:22.782Z</time>
      </trkpt>
      <trkpt lat="60.66695" lon="4.97542">
        <ele>33.479776</ele>
        <time>2020-07-15T14:51:34.666Z</time>
      </trkpt>
      <trkpt lat="60.66732" lon="4.97483">
        <ele>33.212429</ele>
        <time>2020-07-15T14:51:42.626Z</time>
      </trkpt>
      <trkpt lat="60.66744" lon="4.97465">
        <ele>33.108543</ele>
        <time>2020-07-15T14:51:44.998Z</time>
      </trkpt>
      <trkpt lat="60.66773" lon="4.97418">
        <ele>32.735561</ele>
        <time>2020-07-15T14:51:51.017Z</time>
      </trkpt>
      <trkpt lat="60.66813" lon="4.97356">
        <ele>32.22508</ele>
        <time>2020-07-15T14:51:58.983Z</time>
      </trkpt>
      <trkpt lat="60.66842" lon="4.9732">
        <ele>31.887472</ele>
        <time>2020-07-15T14:52:04.149Z</time>
      </trkpt>
      <trkpt lat="60.66861" lon="4.97295">
        <ele>31.658811</ele>
        <time>2020-07-15T14:52:07.548Z</time>
      </trkpt>
      <trkpt lat="60.66894" lon="4.97249">
        <ele>31.14703</ele>
        <time>2020-07-15T14:52:13.475Z</time>
      </trkpt>
      <trkpt lat="60.66897" lon="4.97244">
        <ele>31.047289</ele>
        <time>2020-07-15T14:52:14.140Z</time>
      </trkpt>
      <trkpt lat="60.66902" lon="4.97239">
        <ele>30.928989</ele>
        <time>2020-07-15T14:52:14.942Z</time>
      </trkpt>
      <trkpt lat="60.66916" lon="4.97223">
        <ele>30.580501</ele>
        <time>2020-07-15T14:52:17.189Z</time>
      </trkpt>
      <trkpt lat="60.67008" lon="4.97092">
        <ele>28.088232</ele>
        <time>2020-07-15T14:52:32.823Z</time>
      </trkpt>
      <trkpt lat="60.67073" lon="4.9696">
        <ele>25.67262</ele>
        <time>2020-07-15T14:52:44.873Z</time>
      </trkpt>
      <trkpt lat="60.67085" lon="4.9694">
        <ele>25.240058</ele>
        <time>2020-07-15T14:52:46.791Z</time>
      </trkpt>
      <trkpt lat="60.67119" lon="4.96871">
        <ele>23.85983</ele>
        <time>2020-07-15T14:52:53.312Z</time>
      </trkpt>
      <trkpt lat="60.67132" lon="4.96841">
        <ele>23.302266</ele>
        <time>2020-07-15T14:52:55.855Z</time>
      </trkpt>
      <trkpt lat="60.67156" lon="4.96791">
        <ele>22.3288</ele>
        <time>2020-07-15T14:53:00.495Z</time>
      </trkpt>
      <trkpt lat="60.67192" lon="4.96712">
        <ele>21.557905</ele>
        <time>2020-07-15T14:53:07.867Z</time>
      </trkpt>
      <trkpt lat="60.67201" lon="4.96688">
        <ele>21.354248</ele>
        <time>2020-07-15T14:53:09.960Z</time>
      </trkpt>
      <trkpt lat="60.67213" lon="4.96648">
        <ele>21.044931</ele>
        <time>2020-07-15T14:53:13.447Z</time>
      </trkpt>
      <trkpt lat="60.67235" lon="4.96565">
        <ele>20.417826</ele>
        <time>2020-07-15T14:53:20.586Z</time>
      </trkpt>
      <trkpt lat="60.67269" lon="4.9651">
        <ele>19.829628</ele>
        <time>2020-07-15T14:53:27.770Z</time>
      </trkpt>
      <trkpt lat="60.6732" lon="4.9645">
        <ele>19.39887</ele>
        <time>2020-07-15T14:53:37.562Z</time>
      </trkpt>
      <trkpt lat="60.67325" lon="4.96444">
        <ele>19.359538</ele>
        <time>2020-07-15T14:53:38.433Z</time>
      </trkpt>
      <trkpt lat="60.6735" lon="4.96418">
        <ele>19.166921</ele>
        <time>2020-07-15T14:53:42.966Z</time>
      </trkpt>
      <trkpt lat="60.67373" lon="4.96378">
        <ele>18.958769</ele>
        <time>2020-07-15T14:53:47.766Z</time>
      </trkpt>
      <trkpt lat="60.67393" lon="4.96346">
        <ele>18.781315</ele>
        <time>2020-07-15T14:53:51.812Z</time>
      </trkpt>
      <trkpt lat="60.67489" lon="4.96166">
        <ele>17.923614</ele>
        <time>2020-07-15T14:54:12.627Z</time>
      </trkpt>
      <trkpt lat="60.67518" lon="4.96103">
        <ele>17.655891</ele>
        <time>2020-07-15T14:54:19.356Z</time>
      </trkpt>
      <trkpt lat="60.67694" lon="4.95671">
        <ele>15.962689</ele>
        <time>2020-07-15T14:55:04.867Z</time>
      </trkpt>
      <trkpt lat="60.67706" lon="4.95648">
        <ele>15.806812</ele>
        <time>2020-07-15T14:55:07.543Z</time>
      </trkpt>
      <trkpt lat="60.6772" lon="4.95614">
        <ele>15.599033</ele>
        <time>2020-07-15T14:55:11.091Z</time>
      </trkpt>
      <trkpt lat="60.6779" lon="4.95455">
        <ele>14.283083</ele>
        <time>2020-07-15T14:55:27.021Z</time>
      </trkpt>
      <trkpt lat="60.67841" lon="4.95339">
        <ele>11.987008</ele>
        <time>2020-07-15T14:55:37.395Z</time>
      </trkpt>
      <trkpt lat="60.67877" lon="4.95257">
        <ele>10.371236</ele>
        <time>2020-07-15T14:55:44.352Z</time>
      </trkpt>
      <trkpt lat="60.6789" lon="4.95227">
        <ele>9.784516</ele>
        <time>2020-07-15T14:55:46.789Z</time>
      </trkpt>
      <trkpt lat="60.67908" lon="4.95166">
        <ele>8.632863</ele>
        <time>2020-07-15T14:55:51.079Z</time>
      </trkpt>
      <trkpt lat="60.67915" lon="4.95145">
        <ele>8.179618</ele>
        <time>2020-07-15T14:55:52.688Z</time>
      </trkpt>
      <trkpt lat="60.67918" lon="4.95132">
        <ele>7.932771</ele>
        <time>2020-07-15T14:55:53.564Z</time>
      </trkpt>
      <trkpt lat="60.67921" lon="4.95119">
        <ele>7.696953</ele>
        <time>2020-07-15T14:55:54.325Z</time>
      </trkpt>
      <trkpt lat="60.67934" lon="4.95075">
        <ele>6.808335</ele>
        <time>2020-07-15T14:55:57.587Z</time>
      </trkpt>
      <trkpt lat="60.67975" lon="4.94995">
        <ele>4.808116</ele>
        <time>2020-07-15T14:56:04.755Z</time>
      </trkpt>
      <trkpt lat="60.68011" lon="4.94932">
        <ele>3.124018</ele>
        <time>2020-07-15T14:56:11.093Z</time>
      </trkpt>
      <trkpt lat="60.68028" lon="4.94896">
        <ele>3.074343</ele>
        <time>2020-07-15T14:56:14.351Z</time>
      </trkpt>
      <trkpt lat="60.68033" lon="4.94886">
        <ele>3.086557</ele>
        <time>2020-07-15T14:56:15.571Z</time>
      </trkpt>
      <trkpt lat="60.68048" lon="4.94871">
        <ele>3.113576</ele>
        <time>2020-07-15T14:56:18.262Z</time>
      </trkpt>
      <trkpt lat="60.68102" lon="4.94857">
        <ele>3.200887</ele>
        <time>2020-07-15T14:56:27.719Z</time>
      </trkpt>
      <trkpt lat="60.68121" lon="4.94831">
        <ele>3.237231</ele>
        <time>2020-07-15T14:56:32.636Z</time>
      </trkpt>
      <trkpt lat="60.68132" lon="4.94807">
        <ele>3.262863</ele>
        <time>2020-07-15T14:56:36.012Z</time>
      </trkpt>
      <trkpt lat="60.68139" lon="4.94792">
        <ele>3.279284</ele>
        <time>2020-07-15T14:56:38.314Z</time>
      </trkpt>
      <trkpt lat="60.68142" lon="4.94782">
        <ele>3.288511</ele>
        <time>2020-07-15T14:56:40.054Z</time>
      </trkpt>
      <trkpt lat="60.68177" lon="4.94706">
        <ele>3.922391</ele>
        <time>2020-07-15T14:56:52.646Z</time>
      </trkpt>
      <trkpt lat="60.68204" lon="4.94653">
        <ele>4.783394</ele>
        <time>2020-07-15T14:57:02.222Z</time>
      </trkpt>
      <trkpt lat="60.68225" lon="4.94624">
        <ele>5.365436</ele>
        <time>2020-07-15T14:57:09.056Z</time>
      </trkpt>
      <trkpt lat="60.68284" lon="4.94573">
        <ele>6.820107</ele>
        <time>2020-07-15T14:57:25.519Z</time>
      </trkpt>
      <trkpt lat="60.68318" lon="4.94571">
        <ele>7.522965</ele>
        <time>2020-07-15T14:57:34.404Z</time>
      </trkpt>
      <trkpt lat="60.68426" lon="4.94396">
        <ele>8.963562</ele>
        <time>2020-07-15T14:58:04.352Z</time>
      </trkpt>
      <trkpt lat="60.6844" lon="4.94364">
        <ele>9.178834</ele>
        <time>2020-07-15T14:58:08.127Z</time>
      </trkpt>
      <trkpt lat="60.68445" lon="4.94332">
        <ele>9.314759</ele>
        <time>2020-07-15T14:58:11.049Z</time>
      </trkpt>
      <trkpt lat="60.68449" lon="4.94297">
        <ele>9.208105</ele>
        <time>2020-07-15T14:58:14.092Z</time>
      </trkpt>
      <trkpt lat="60.68454" lon="4.94234">
        <ele>9.014472</ele>
        <time>2020-07-15T14:58:19.279Z</time>
      </trkpt>
      <trkpt lat="60.68468" lon="4.94132">
        <ele>8.696714</ele>
        <time>2020-07-15T14:58:27.721Z</time>
      </trkpt>
      <trkpt lat="60.68515" lon="4.94021">
        <ele>8.259136</ele>
        <time>2020-07-15T14:58:38.768Z</time>
      </trkpt>
      <trkpt lat="60.68525" lon="4.94002">
        <ele>8.175169</ele>
        <time>2020-07-15T14:58:40.752Z</time>
      </trkpt>
      <trkpt lat="60.68548" lon="4.93958">
        <ele>7.971961</ele>
        <time>2020-07-15T14:58:45.720Z</time>
      </trkpt>
      <trkpt lat="60.68568" lon="4.93929">
        <ele>7.816516</ele>
        <time>2020-07-15T14:58:49.569Z</time>
      </trkpt>
      <trkpt lat="60.68586" lon="4.93909">
        <ele>7.687253</ele>
        <time>2020-07-15T14:58:52.773Z</time>
      </trkpt>
      <trkpt lat="60.68601" lon="4.93892">
        <ele>7.578326</ele>
        <time>2020-07-15T14:58:55.520Z</time>
      </trkpt>
      <trkpt lat="60.68617" lon="4.93858">
        <ele>7.431437</ele>
        <time>2020-07-15T14:58:59.258Z</time>
      </trkpt>
      <trkpt lat="60.68634" lon="4.93822">
        <ele>7.276895</ele>
        <time>2020-07-15T14:59:03.220Z</time>
      </trkpt>
      <trkpt lat="60.6866" lon="4.93761">
        <ele>7.117711</ele>
        <time>2020-07-15T14:59:10.406Z</time>
      </trkpt>
      <trkpt lat="60.6867" lon="4.93741">
        <ele>7.159727</ele>
        <time>2020-07-15T14:59:12.920Z</time>
      </trkpt>
      <trkpt lat="60.6868" lon="4.93725">
        <ele>7.199457</ele>
        <time>2020-07-15T14:59:15.153Z</time>
      </trkpt>
      <trkpt lat="60.68699" lon="4.93701">
        <ele>7.267969</ele>
        <time>2020-07-15T14:59:19.312Z</time>
      </trkpt>
      <trkpt lat="60.68733" lon="4.93665">
        <ele>7.388207</ele>
        <time>2020-07-15T14:59:26.489Z</time>
      </trkpt>
      <trkpt lat="60.68752" lon="4.93648">
        <ele>7.451983</ele>
        <time>2020-07-15T14:59:30.309Z</time>
      </trkpt>
      <trkpt lat="60.68773" lon="4.9363">
        <ele>7.523523</ele>
        <time>2020-07-15T14:59:34.884Z</time>
      </trkpt>
      <trkpt lat="60.68841" lon="4.93567">
        <ele>7.804686</ele>
        <time>2020-07-15T14:59:49.879Z</time>
      </trkpt>
      <trkpt lat="60.68895" lon="4.93541">
        <ele>8.058357</ele>
        <time>2020-07-15T15:00:01.008Z</time>
      </trkpt>
      <trkpt lat="60.68919" lon="4.93529">
        <ele>8.171018</ele>
        <time>2020-07-15T15:00:05.847Z</time>
      </trkpt>
      <trkpt lat="60.68935" lon="4.93525">
        <ele>8.244213</ele>
        <time>2020-07-15T15:00:08.778Z</time>
      </trkpt>
      <trkpt lat="60.68973" lon="4.93511">
        <ele>8.423796</ele>
        <time>2020-07-15T15:00:16.034Z</time>
      </trkpt>
      <trkpt lat="60.68986" lon="4.93506">
        <ele>8.460784</ele>
        <time>2020-07-15T15:00:18.311Z</time>
      </trkpt>
      <trkpt lat="60.68993" lon="4.93503">
        <ele>8.44973</ele>
        <time>2020-07-15T15:00:19.698Z</time>
      </trkpt>
      <trkpt lat="60.69009" lon="4.935">
        <ele>8.425819</ele>
        <time>2020-07-15T15:00:22.633Z</time>
      </trkpt>
      <trkpt lat="60.69058" lon="4.93482">
        <ele>8.354054</ele>
        <time>2020-07-15T15:00:31.432Z</time>
      </trkpt>
      <trkpt lat="60.69078" lon="4.93479">
        <ele>8.324664</ele>
        <time>2020-07-15T15:00:34.918Z</time>
      </trkpt>
      <trkpt lat="60.69114" lon="4.93477">
        <ele>8.272398</ele>
        <time>2020-07-15T15:00:40.967Z</time>
      </trkpt>
      <trkpt lat="60.69118" lon="4.93477">
        <ele>8.267316</ele>
        <time>2020-07-15T15:00:41.566Z</time>
      </trkpt>
      <trkpt lat="60.69129" lon="4.93473">
        <ele>8.250892</ele>
        <time>2020-07-15T15:00:43.460Z</time>
      </trkpt>
      <trkpt lat="60.69142" lon="4.93472">
        <ele>8.231406</ele>
        <time>2020-07-15T15:00:45.701Z</time>
      </trkpt>
      <trkpt lat="60.69163" lon="4.93471">
        <ele>8.202101</ele>
        <time>2020-07-15T15:00:49.096Z</time>
      </trkpt>
      <trkpt lat="60.69185" lon="4.93469">
        <ele>8.171273</ele>
        <time>2020-07-15T15:00:52.905Z</time>
      </trkpt>
      <trkpt lat="60.69192" lon="4.93469">
        <ele>8.162454</ele>
        <time>2020-07-15T15:00:53.974Z</time>
      </trkpt>
      <trkpt lat="60.69217" lon="4.93464">
        <ele>8.127926</ele>
        <time>2020-07-15T15:00:58.287Z</time>
      </trkpt>
      <trkpt lat="60.69229" lon="4.93459">
        <ele>8.112064</ele>
        <time>2020-07-15T15:01:00.260Z</time>
      </trkpt>
      <trkpt lat="60.69236" lon="4.93455">
        <ele>8.101085</ele>
        <time>2020-07-15T15:01:01.636Z</time>
      </trkpt>
      <trkpt lat="60.6925" lon="4.93447">
        <ele>8.081824</ele>
        <time>2020-07-15T15:01:04.102Z</time>
      </trkpt>
      <trkpt lat="60.69334" lon="4.9339">
        <ele>7.961753</ele>
        <time>2020-07-15T15:01:19.735Z</time>
      </trkpt>
      <trkpt lat="60.69346" lon="4.93382">
        <ele>8.018177</ele>
        <time>2020-07-15T15:01:22.031Z</time>
      </trkpt>
      <trkpt lat="60.69386" lon="4.93355">
        <ele>8.225746</ele>
        <time>2020-07-15T15:01:30.038Z</time>
      </trkpt>
      <trkpt lat="60.69422" lon="4.93329">
        <ele>8.413233</ele>
        <time>2020-07-15T15:01:37.598Z</time>
      </trkpt>
      <trkpt lat="60.69449" lon="4.93312">
        <ele>8.553072</ele>
        <time>2020-07-15T15:01:43.360Z</time>
      </trkpt>
      <trkpt lat="60.69465" lon="4.93298">
        <ele>8.638019</ele>
        <time>2020-07-15T15:01:46.893Z</time>
      </trkpt>
      <trkpt lat="60.69494" lon="4.93275">
        <ele>8.793898</ele>
        <time>2020-07-15T15:01:53.309Z</time>
      </trkpt>
      <trkpt lat="60.69503" lon="4.93266">
        <ele>8.843623</ele>
        <time>2020-07-15T15:01:55.466Z</time>
      </trkpt>
      <trkpt lat="60.6954" lon="4.9323">
        <ele>8.764843</ele>
        <time>2020-07-15T15:02:03.078Z</time>
      </trkpt>
      <trkpt lat="60.69591" lon="4.93175">
        <ele>8.644953</ele>
        <time>2020-07-15T15:02:13.230Z</time>
      </trkpt>
      <trkpt lat="60.69597" lon="4.93168">
        <ele>8.630019</ele>
        <time>2020-07-15T15:02:14.625Z</time>
      </trkpt>
      <trkpt lat="60.69622" lon="4.93143">
        <ele>8.572968</ele>
        <time>2020-07-15T15:02:19.113Z</time>
      </trkpt>
      <trkpt lat="60.69638" lon="4.93128">
        <ele>8.5362</ele>
        <time>2020-07-15T15:02:22.174Z</time>
      </trkpt>
      <trkpt lat="60.69653" lon="4.93112">
        <ele>8.499906</ele>
        <time>2020-07-15T15:02:24.788Z</time>
      </trkpt>
      <trkpt lat="60.69701" lon="4.93053">
        <ele>8.027503</ele>
        <time>2020-07-15T15:02:33.301Z</time>
      </trkpt>
      <trkpt lat="60.69747" lon="4.92978">
        <ele>7.403367</ele>
        <time>2020-07-15T15:02:42.183Z</time>
      </trkpt>
      <trkpt lat="60.69778" lon="4.92933">
        <ele>7.010811</ele>
        <time>2020-07-15T15:02:47.773Z</time>
      </trkpt>
      <trkpt lat="60.69804" lon="4.92901">
        <ele>6.689213</ele>
        <time>2020-07-15T15:02:52.560Z</time>
      </trkpt>
      <trkpt lat="60.69864" lon="4.92851">
        <ele>6.730266</ele>
        <time>2020-07-15T15:03:03.116Z</time>
      </trkpt>
      <trkpt lat="60.69903" lon="4.92828">
        <ele>6.836415</ele>
        <time>2020-07-15T15:03:10.546Z</time>
      </trkpt>
      <trkpt lat="60.69914" lon="4.92823">
        <ele>6.866382</ele>
        <time>2020-07-15T15:03:13.153Z</time>
      </trkpt>
      <trkpt lat="60.69938" lon="4.92818">
        <ele>6.929086</ele>
        <time>2020-07-15T15:03:17.896Z</time>
      </trkpt>
      <trkpt lat="60.6995" lon="4.92815">
        <ele>6.958965</ele>
        <time>2020-07-15T15:03:20.565Z</time>
      </trkpt>
      <trkpt lat="60.69954" lon="4.92815">
        <ele>6.970991</ele>
        <time>2020-07-15T15:03:21.570Z</time>
      </trkpt>
      <trkpt lat="60.69975" lon="4.92817">
        <ele>7.026346</ele>
        <time>2020-07-15T15:03:25.704Z</time>
      </trkpt>
      <trkpt lat="60.6998" lon="4.92819">
        <ele>7.037765</ele>
        <time>2020-07-15T15:03:26.668Z</time>
      </trkpt>
      <trkpt lat="60.69986" lon="4.92821">
        <ele>7.053657</ele>
        <time>2020-07-15T15:03:28.213Z</time>
      </trkpt>
      <trkpt lat="60.70011" lon="4.92846">
        <ele>7.15179</ele>
        <time>2020-07-15T15:03:33.749Z</time>
      </trkpt>
      <trkpt lat="60.70015" lon="4.92851">
        <ele>7.166987</ele>
        <time>2020-07-15T15:03:34.874Z</time>
      </trkpt>
      <trkpt lat="60.70029" lon="4.92871">
        <ele>7.229508</ele>
        <time>2020-07-15T15:03:38.621Z</time>
      </trkpt>
      <trkpt lat="60.70037" lon="4.92882">
        <ele>7.26354</ele>
        <time>2020-07-15T15:03:40.432Z</time>
      </trkpt>
      <trkpt lat="60.70055" lon="4.92908">
        <ele>7.340004</ele>
        <time>2020-07-15T15:03:45.285Z</time>
      </trkpt>
      <trkpt lat="60.70106" lon="4.92987">
        <ele>7.567978</ele>
        <time>2020-07-15T15:03:57.524Z</time>
      </trkpt>
      <trkpt lat="60.70144" lon="4.9303">
        <ele>7.560112</ele>
        <time>2020-07-15T15:04:04.809Z</time>
      </trkpt>
      <trkpt lat="60.70176" lon="4.9305">
        <ele>7.062291</ele>
        <time>2020-07-15T15:04:09.744Z</time>
      </trkpt>
      <trkpt lat="60.70203" lon="4.93045">
        <ele>6.651836</ele>
        <time>2020-07-15T15:04:13.659Z</time>
      </trkpt>
      <trkpt lat="60.70219" lon="4.93031">
        <ele>6.383163</ele>
        <time>2020-07-15T15:04:16.106Z</time>
      </trkpt>
      <trkpt lat="60.70232" lon="4.93021">
        <ele>6.183834</ele>
        <time>2020-07-15T15:04:17.945Z</time>
      </trkpt>
      <trkpt lat="60.70284" lon="4.93005">
        <ele>5.391028</ele>
        <time>2020-07-15T15:04:25.329Z</time>
      </trkpt>
      <trkpt lat="60.70305" lon="4.93029">
        <ele>5.015428</ele>
        <time>2020-07-15T15:04:28.983Z</time>
      </trkpt>
      <trkpt lat="60.70312" lon="4.93045">
        <ele>5.004991</ele>
        <time>2020-07-15T15:04:30.378Z</time>
      </trkpt>
      <trkpt lat="60.70314" lon="4.93052">
        <ele>5.021988</ele>
        <time>2020-07-15T15:04:31.014Z</time>
      </trkpt>
      <trkpt lat="60.70317" lon="4.93059">
        <ele>5.038669</ele>
        <time>2020-07-15T15:04:31.625Z</time>
      </trkpt>
      <trkpt lat="60.70317" lon="4.9306">
        <ele>5.041681</ele>
        <time>2020-07-15T15:04:31.714Z</time>
      </trkpt>
      <trkpt lat="60.70351" lon="4.93178">
        <ele>5.309141</ele>
        <time>2020-07-15T15:04:42.435Z</time>
      </trkpt>
      <trkpt lat="60.70368" lon="4.93213">
        <ele>5.405588</ele>
        <time>2020-07-15T15:04:46.922Z</time>
      </trkpt>
      <trkpt lat="60.70383" lon="4.93235">
        <ele>5.480452</ele>
        <time>2020-07-15T15:04:51.047Z</time>
      </trkpt>
      <trkpt lat="60.70394" lon="4.93246">
        <ele>5.531049</ele>
        <time>2020-07-15T15:04:53.545Z</time>
      </trkpt>
      <trkpt lat="60.70427" lon="4.93282">
        <ele>5.679895</ele>
        <time>2020-07-15T15:05:02.235Z</time>
      </trkpt>
      <trkpt lat="60.70425" lon="4.93301">
        <ele>5.915693</ele>
        <time>2020-07-15T15:05:05.740Z</time>
      </trkpt>
      <trkpt lat="60.70396" lon="4.93403">
        <ele>8.161058</ele>
        <time>2020-07-15T15:05:22.136Z</time>
      </trkpt>
      <trkpt lat="60.70397" lon="4.93432">
        <ele>8.722267</ele>
        <time>2020-07-15T15:05:27.098Z</time>
      </trkpt>
      <trkpt lat="60.70398" lon="4.93435">
        <ele>8.805126</ele>
        <time>2020-07-15T15:05:28.154Z</time>
      </trkpt>
      <trkpt lat="60.70403" lon="4.93437">
        <ele>8.981571</ele>
        <time>2020-07-15T15:05:29.454Z</time>
      </trkpt>
      <trkpt lat="60.70424" lon="4.93439">
        <ele>9.799719</ele>
        <time>2020-07-15T15:05:35.448Z</time>
      </trkpt>
      <trkpt lat="60.70437" lon="4.93451">
        <ele>10.357179</ele>
        <time>2020-07-15T15:05:41.209Z</time>
      </trkpt>
      <trkpt lat="60.70453" lon="4.93468">
        <ele>11.069681</ele>
        <time>2020-07-15T15:05:46.123Z</time>
      </trkpt>
      <trkpt lat="60.7046" lon="4.93478">
        <ele>11.382455</ele>
        <time>2020-07-15T15:05:49.620Z</time>
      </trkpt>
      <trkpt lat="60.70487" lon="4.93553">
        <ele>13.030325</ele>
        <time>2020-07-15T15:06:04.232Z</time>
      </trkpt>
      <trkpt lat="60.70504" lon="4.93638">
        <ele>14.343255</ele>
        <time>2020-07-15T15:06:17.380Z</time>
      </trkpt>
      <trkpt lat="60.70514" lon="4.93691">
        <ele>15.143579</ele>
        <time>2020-07-15T15:06:25.531Z</time>
      </trkpt>
      <trkpt lat="60.70515" lon="4.93712">
        <ele>15.43969</ele>
        <time>2020-07-15T15:06:27.999Z</time>
      </trkpt>
      <trkpt lat="60.70515" lon="4.93723">
        <ele>15.602951</ele>
        <time>2020-07-15T15:06:29.530Z</time>
      </trkpt>
      <trkpt lat="60.70517" lon="4.93872">
        <ele>17.713075</ele>
        <time>2020-07-15T15:06:47.632Z</time>
      </trkpt>
      <trkpt lat="60.70517" lon="4.93892">
        <ele>17.935248</ele>
        <time>2020-07-15T15:06:49.949Z</time>
      </trkpt>
      <trkpt lat="60.70515" lon="4.93933">
        <ele>18.189171</ele>
        <time>2020-07-15T15:06:54.290Z</time>
      </trkpt>
      <trkpt lat="60.70512" lon="4.93986">
        <ele>18.519412</ele>
        <time>2020-07-15T15:07:00.109Z</time>
      </trkpt>
      <trkpt lat="60.70507" lon="4.9404">
        <ele>18.862518</ele>
        <time>2020-07-15T15:07:05.272Z</time>
      </trkpt>
      <trkpt lat="60.70501" lon="4.94094">
        <ele>19.201588</ele>
        <time>2020-07-15T15:07:10.382Z</time>
      </trkpt>
      <trkpt lat="60.70499" lon="4.94145">
        <ele>19.516475</ele>
        <time>2020-07-15T15:07:15.294Z</time>
      </trkpt>
      <trkpt lat="60.70499" lon="4.94158">
        <ele>19.599544</ele>
        <time>2020-07-15T15:07:16.602Z</time>
      </trkpt>
      <trkpt lat="60.705" lon="4.9419">
        <ele>19.797604</ele>
        <time>2020-07-15T15:07:19.791Z</time>
      </trkpt>
      <trkpt lat="60.70497" lon="4.94256">
        <ele>20.273085</ele>
        <time>2020-07-15T15:07:27.917Z</time>
      </trkpt>
      <trkpt lat="60.70485" lon="4.94347">
        <ele>21.685904</ele>
        <time>2020-07-15T15:07:39.619Z</time>
      </trkpt>
      <trkpt lat="60.70471" lon="4.9445">
        <ele>23.28672</ele>
        <time>2020-07-15T15:07:54.396Z</time>
      </trkpt>
      <trkpt lat="60.70469" lon="4.94471">
        <ele>23.610273</ele>
        <time>2020-07-15T15:07:56.907Z</time>
      </trkpt>
      <trkpt lat="60.70468" lon="4.94493">
        <ele>23.936524</ele>
        <time>2020-07-15T15:07:59.805Z</time>
      </trkpt>
      <trkpt lat="60.70469" lon="4.94511">
        <ele>24.212992</ele>
        <time>2020-07-15T15:08:03.326Z</time>
      </trkpt>
      <trkpt lat="60.7048" lon="4.94563">
        <ele>25.06094</ele>
        <time>2020-07-15T15:08:11.083Z</time>
      </trkpt>
      <trkpt lat="60.70552" lon="4.94729">
        <ele>28.45431</ele>
        <time>2020-07-15T15:08:44.660Z</time>
      </trkpt>
      <trkpt lat="60.70578" lon="4.94786">
        <ele>29.650104</ele>
        <time>2020-07-15T15:08:55.380Z</time>
      </trkpt>
      <trkpt lat="60.7058" lon="4.94789">
        <ele>29.723552</ele>
        <time>2020-07-15T15:08:56.106Z</time>
      </trkpt>
      <trkpt lat="60.70626" lon="4.94891">
        <ele>31.455629</ele>
        <time>2020-07-15T15:09:12.325Z</time>
      </trkpt>
      <trkpt lat="60.7069" lon="4.94965">
        <ele>32.07552</ele>
        <time>2020-07-15T15:09:28.334Z</time>
      </trkpt>
      <trkpt lat="60.7072" lon="4.95022">
        <ele>32.422674</ele>
        <time>2020-07-15T15:09:36.053Z</time>
      </trkpt>
      <trkpt lat="60.70735" lon="4.95087">
        <ele>32.721378</ele>
        <time>2020-07-15T15:09:42.526Z</time>
      </trkpt>
      <trkpt lat="60.70762" lon="4.95313">
        <ele>32.566226</ele>
        <time>2020-07-15T15:10:02.620Z</time>
      </trkpt>
      <trkpt lat="60.70789" lon="4.95394">
        <ele>32.442081</ele>
        <time>2020-07-15T15:10:10.547Z</time>
      </trkpt>
      <trkpt lat="60.70804" lon="4.95443">
        <ele>32.368656</ele>
        <time>2020-07-15T15:10:15.188Z</time>
      </trkpt>
      <trkpt lat="60.70807" lon="4.95451">
        <ele>32.332279</ele>
        <time>2020-07-15T15:10:15.916Z</time>
      </trkpt>
      <trkpt lat="60.70811" lon="4.95498">
        <ele>31.986529</ele>
        <time>2020-07-15T15:10:19.735Z</time>
      </trkpt>
      <trkpt lat="60.70788" lon="4.95602">
        <ele>31.174827</ele>
        <time>2020-07-15T15:10:28.418Z</time>
      </trkpt>
      <trkpt lat="60.70763" lon="4.95888">
        <ele>28.599321</ele>
        <time>2020-07-15T15:10:48.559Z</time>
      </trkpt>
      <trkpt lat="60.70756" lon="4.95924">
        <ele>28.095958</ele>
        <time>2020-07-15T15:10:51.043Z</time>
      </trkpt>
      <trkpt lat="60.70724" lon="4.96009">
        <ele>26.713171</ele>
        <time>2020-07-15T15:10:58.058Z</time>
      </trkpt>
      <trkpt lat="60.70722" lon="4.9603">
        <ele>26.445085</ele>
        <time>2020-07-15T15:10:59.414Z</time>
      </trkpt>
      <trkpt lat="60.7072" lon="4.9606">
        <ele>26.059668</ele>
        <time>2020-07-15T15:11:01.265Z</time>
      </trkpt>
      <trkpt lat="60.70718" lon="4.96122">
        <ele>25.263514</ele>
        <time>2020-07-15T15:11:05.356Z</time>
      </trkpt>
      <trkpt lat="60.70685" lon="4.96216">
        <ele>24.393689</ele>
        <time>2020-07-15T15:11:13.162Z</time>
      </trkpt>
      <trkpt lat="60.70676" lon="4.96302">
        <ele>23.827106</ele>
        <time>2020-07-15T15:11:19.250Z</time>
      </trkpt>
      <trkpt lat="60.70656" lon="4.96406">
        <ele>23.111155</ele>
        <time>2020-07-15T15:11:27.834Z</time>
      </trkpt>
      <trkpt lat="60.70653" lon="4.96443">
        <ele>22.872075</ele>
        <time>2020-07-15T15:11:31.082Z</time>
      </trkpt>
      <trkpt lat="60.70663" lon="4.96466">
        <ele>22.675241</ele>
        <time>2020-07-15T15:11:33.891Z</time>
      </trkpt>
      <trkpt lat="60.70723" lon="4.96493">
        <ele>22.985268</ele>
        <time>2020-07-15T15:11:45.838Z</time>
      </trkpt>
      <trkpt lat="60.70748" lon="4.96516">
        <ele>23.139957</ele>
        <time>2020-07-15T15:11:51.489Z</time>
      </trkpt>
      <trkpt lat="60.70768" lon="4.96554">
        <ele>23.292554</ele>
        <time>2020-07-15T15:11:57.048Z</time>
      </trkpt>
      <trkpt lat="60.7078" lon="4.966">
        <ele>23.432604</ele>
        <time>2020-07-15T15:12:02.170Z</time>
      </trkpt>
      <trkpt lat="60.70789" lon="4.96719">
        <ele>23.847198</ele>
        <time>2020-07-15T15:12:13.792Z</time>
      </trkpt>
      <trkpt lat="60.70788" lon="4.9677">
        <ele>24.10168</ele>
        <time>2020-07-15T15:12:18.731Z</time>
      </trkpt>
      <trkpt lat="60.70758" lon="4.96983">
        <ele>25.197766</ele>
        <time>2020-07-15T15:12:41.384Z</time>
      </trkpt>
      <trkpt lat="60.70755" lon="4.97039">
        <ele>25.475982</ele>
        <time>2020-07-15T15:12:47.549Z</time>
      </trkpt>
      <trkpt lat="60.70785" lon="4.97415">
        <ele>28.777936</ele>
        <time>2020-07-15T15:13:32.657Z</time>
      </trkpt>
      <trkpt lat="60.70788" lon="4.97576">
        <ele>29.092072</ele>
        <time>2020-07-15T15:13:50.064Z</time>
      </trkpt>
      <trkpt lat="60.70784" lon="4.9762">
        <ele>29.179998</ele>
        <time>2020-07-15T15:13:54.310Z</time>
      </trkpt>
      <trkpt lat="60.70782" lon="4.97631">
        <ele>29.203486</ele>
        <time>2020-07-15T15:13:55.382Z</time>
      </trkpt>
      <trkpt lat="60.7076" lon="4.97812">
        <ele>28.960474</ele>
        <time>2020-07-15T15:14:09.872Z</time>
      </trkpt>
      <trkpt lat="60.70759" lon="4.97845">
        <ele>28.623457</ele>
        <time>2020-07-15T15:14:12.222Z</time>
      </trkpt>
      <trkpt lat="60.70759" lon="4.97982">
        <ele>27.244696</ele>
        <time>2020-07-15T15:14:21.331Z</time>
      </trkpt>
      <trkpt lat="60.70744" lon="4.98072">
        <ele>26.277793</ele>
        <time>2020-07-15T15:14:27.636Z</time>
      </trkpt>
      <trkpt lat="60.70739" lon="4.98104">
        <ele>25.938505</ele>
        <time>2020-07-15T15:14:29.834Z</time>
      </trkpt>
      <trkpt lat="60.7073" lon="4.98161">
        <ele>25.653219</ele>
        <time>2020-07-15T15:14:33.809Z</time>
      </trkpt>
      <trkpt lat="60.70726" lon="4.98193">
        <ele>25.57386</ele>
        <time>2020-07-15T15:14:36.153Z</time>
      </trkpt>
      <trkpt lat="60.70726" lon="4.98226">
        <ele>25.492673</ele>
        <time>2020-07-15T15:14:38.481Z</time>
      </trkpt>
      <trkpt lat="60.70728" lon="4.98403">
        <ele>25.063655</ele>
        <time>2020-07-15T15:14:53.513Z</time>
      </trkpt>
      <trkpt lat="60.70735" lon="4.98448">
        <ele>24.949821</ele>
        <time>2020-07-15T15:14:57.574Z</time>
      </trkpt>
      <trkpt lat="60.70748" lon="4.98478">
        <ele>24.895442</ele>
        <time>2020-07-15T15:15:01.910Z</time>
      </trkpt>
      <trkpt lat="60.70797" lon="4.98578">
        <ele>26.1486</ele>
        <time>2020-07-15T15:15:18.347Z</time>
      </trkpt>
      <trkpt lat="60.70799" lon="4.98571">
        <ele>26.212631</ele>
        <time>2020-07-15T15:15:19.133Z</time>
      </trkpt>
      <trkpt lat="60.70804" lon="4.98557">
        <ele>26.371213</ele>
        <time>2020-07-15T15:15:21.659Z</time>
      </trkpt>
      <trkpt lat="60.70812" lon="4.98539">
        <ele>26.577675</ele>
        <time>2020-07-15T15:15:24.638Z</time>
      </trkpt>
      <trkpt lat="60.70812" lon="4.98537">
        <ele>26.596841</ele>
        <time>2020-07-15T15:15:24.857Z</time>
      </trkpt>
      <trkpt lat="60.70814" lon="4.98532">
        <ele>26.653954</ele>
        <time>2020-07-15T15:15:25.635Z</time>
      </trkpt>
      <trkpt lat="60.70842" lon="4.98477">
        <ele>27.354954</ele>
        <time>2020-07-15T15:15:35.731Z</time>
      </trkpt>
      <trkpt lat="60.70859" lon="4.9845">
        <ele>27.740129</ele>
        <time>2020-07-15T15:15:41.435Z</time>
      </trkpt>
      <trkpt lat="60.70904" lon="4.98367">
        <ele>28.465742</ele>
        <time>2020-07-15T15:15:55.781Z</time>
      </trkpt>
      <trkpt lat="60.70914" lon="4.98347">
        <ele>28.590372</ele>
        <time>2020-07-15T15:15:58.922Z</time>
      </trkpt>
      <trkpt lat="60.70918" lon="4.98336">
        <ele>28.654594</ele>
        <time>2020-07-15T15:16:00.316Z</time>
      </trkpt>
      <trkpt lat="60.70936" lon="4.98269">
        <ele>28.996808</ele>
        <time>2020-07-15T15:16:08.718Z</time>
      </trkpt>
      <trkpt lat="60.7096" lon="4.98235">
        <ele>29.258286</ele>
        <time>2020-07-15T15:16:15.105Z</time>
      </trkpt>
      <trkpt lat="60.70966" lon="4.98233">
        <ele>29.312369</ele>
        <time>2020-07-15T15:16:16.369Z</time>
      </trkpt>
      <trkpt lat="60.70981" lon="4.98225">
        <ele>29.455524</ele>
        <time>2020-07-15T15:16:19.361Z</time>
      </trkpt>
      <trkpt lat="60.71046" lon="4.98168">
        <ele>28.721951</ele>
        <time>2020-07-15T15:16:32.594Z</time>
      </trkpt>
      <trkpt lat="60.71062" lon="4.98162">
        <ele>28.320526</ele>
        <time>2020-07-15T15:16:35.281Z</time>
      </trkpt>
      <trkpt lat="60.71086" lon="4.98152">
        <ele>27.721071</ele>
        <time>2020-07-15T15:16:38.592Z</time>
      </trkpt>
      <trkpt lat="60.71151" lon="4.98128">
        <ele>26.05824</ele>
        <time>2020-07-15T15:16:47.867Z</time>
      </trkpt>
      <trkpt lat="60.7117" lon="4.98144">
        <ele>25.550635</ele>
        <time>2020-07-15T15:16:50.398Z</time>
      </trkpt>
      <trkpt lat="60.71178" lon="4.9816">
        <ele>25.273499</ele>
        <time>2020-07-15T15:16:51.799Z</time>
      </trkpt>
      <trkpt lat="60.7118" lon="4.9817">
        <ele>25.045476</ele>
        <time>2020-07-15T15:16:52.506Z</time>
      </trkpt>
      <trkpt lat="60.71187" lon="4.982">
        <ele>24.300262</ele>
        <time>2020-07-15T15:16:54.571Z</time>
      </trkpt>
      <trkpt lat="60.71192" lon="4.9821">
        <ele>23.965249</ele>
        <time>2020-07-15T15:16:55.410Z</time>
      </trkpt>
      <trkpt lat="60.71211" lon="4.98216">
        <ele>23.055898</ele>
        <time>2020-07-15T15:16:57.912Z</time>
      </trkpt>
      <trkpt lat="60.71274" lon="4.98184">
        <ele>20.024627</ele>
        <time>2020-07-15T15:17:06.257Z</time>
      </trkpt>
      <trkpt lat="60.71276" lon="4.98186">
        <ele>19.904219</ele>
        <time>2020-07-15T15:17:06.548Z</time>
      </trkpt>
      <trkpt lat="60.71278" lon="4.98195">
        <ele>19.691785</ele>
        <time>2020-07-15T15:17:07.172Z</time>
      </trkpt>
      <trkpt lat="60.71278" lon="4.98203">
        <ele>19.505615</ele>
        <time>2020-07-15T15:17:07.707Z</time>
      </trkpt>
      <trkpt lat="60.71276" lon="4.98228">
        <ele>18.928503</ele>
        <time>2020-07-15T15:17:09.259Z</time>
      </trkpt>
      <trkpt lat="60.71275" lon="4.98253">
        <ele>18.346844</ele>
        <time>2020-07-15T15:17:10.942Z</time>
      </trkpt>
      <trkpt lat="60.71274" lon="4.98255">
        <ele>18.292203</ele>
        <time>2020-07-15T15:17:11.135Z</time>
      </trkpt>
      <trkpt lat="60.71269" lon="4.98275">
        <ele>17.771837</ele>
        <time>2020-07-15T15:17:12.540Z</time>
      </trkpt>
      <trkpt lat="60.71237" lon="4.98314">
        <ele>16.088198</ele>
        <time>2020-07-15T15:17:17.167Z</time>
      </trkpt>
      <trkpt lat="60.71229" lon="4.98355">
        <ele>15.145542</ele>
        <time>2020-07-15T15:17:20.204Z</time>
      </trkpt>
      <trkpt lat="60.71232" lon="4.98386">
        <ele>14.464723</ele>
        <time>2020-07-15T15:17:22.084Z</time>
      </trkpt>
      <trkpt lat="60.7124" lon="4.98416">
        <ele>13.721633</ele>
        <time>2020-07-15T15:17:24.535Z</time>
      </trkpt>
      <trkpt lat="60.71256" lon="4.9843">
        <ele>12.980321</ele>
        <time>2020-07-15T15:17:26.569Z</time>
      </trkpt>
      <trkpt lat="60.71277" lon="4.98433">
        <ele>12.055595</ele>
        <time>2020-07-15T15:17:29.355Z</time>
      </trkpt>
      <trkpt lat="60.71311" lon="4.98433">
        <ele>10.585713</ele>
        <time>2020-07-15T15:17:33.895Z</time>
      </trkpt>
      <trkpt lat="60.71328" lon="4.98434">
        <ele>9.841716</ele>
        <time>2020-07-15T15:17:36.006Z</time>
      </trkpt>
      <trkpt lat="60.71407" lon="4.98432">
        <ele>7.654028</ele>
        <time>2020-07-15T15:17:46.695Z</time>
      </trkpt>
      <trkpt lat="60.71426" lon="4.9844">
        <ele>7.223818</ele>
        <time>2020-07-15T15:17:49.264Z</time>
      </trkpt>
      <trkpt lat="60.71444" lon="4.98437">
        <ele>6.83359</ele>
        <time>2020-07-15T15:17:51.832Z</time>
      </trkpt>
      <trkpt lat="60.71464" lon="4.98444">
        <ele>6.371033</ele>
        <time>2020-07-15T15:17:54.672Z</time>
      </trkpt>
      <trkpt lat="60.71482" lon="4.98459">
        <ele>5.951317</ele>
        <time>2020-07-15T15:17:57.592Z</time>
      </trkpt>
      <trkpt lat="60.71492" lon="4.98454">
        <ele>5.739001</ele>
        <time>2020-07-15T15:17:58.965Z</time>
      </trkpt>
      <trkpt lat="60.71501" lon="4.98449">
        <ele>5.528039</ele>
        <time>2020-07-15T15:18:00.918Z</time>
      </trkpt>
      <trkpt lat="60.71563" lon="4.98434">
        <ele>6.000201</ele>
        <time>2020-07-15T15:18:13.386Z</time>
      </trkpt>
      <trkpt lat="60.717" lon="4.98424">
        <ele>9.602775</ele>
        <time>2020-07-15T15:18:52.794Z</time>
      </trkpt>
      <trkpt lat="60.71707" lon="4.98424">
        <ele>9.78844</ele>
        <time>2020-07-15T15:18:55.371Z</time>
      </trkpt>
      <trkpt lat="60.71832" lon="4.98438">
        <ele>13.509241</ele>
        <time>2020-07-15T15:19:31.151Z</time>
      </trkpt>
      <trkpt lat="60.71885" lon="4.98424">
        <ele>15.073931</ele>
        <time>2020-07-15T15:19:44.992Z</time>
      </trkpt>
      <trkpt lat="60.72067" lon="4.98266">
        <ele>17.379771</ele>
        <time>2020-07-15T15:20:27.299Z</time>
      </trkpt>
      <trkpt lat="60.72112" lon="4.98217">
        <ele>17.480722</ele>
        <time>2020-07-15T15:20:36.926Z</time>
      </trkpt>
      <trkpt lat="60.72116" lon="4.98211">
        <ele>17.489574</ele>
        <time>2020-07-15T15:20:37.748Z</time>
      </trkpt>
      <trkpt lat="60.72124" lon="4.98196">
        <ele>17.512578</ele>
        <time>2020-07-15T15:20:39.867Z</time>
      </trkpt>
      <trkpt lat="60.7225" lon="4.97924">
        <ele>17.924727</ele>
        <time>2020-07-15T15:21:11.909Z</time>
      </trkpt>
      <trkpt lat="60.72289" lon="4.9785">
        <ele>18.060952</ele>
        <time>2020-07-15T15:21:21.794Z</time>
      </trkpt>
      <trkpt lat="60.72342" lon="4.97757">
        <ele>18.763195</ele>
        <time>2020-07-15T15:21:35.960Z</time>
      </trkpt>
      <trkpt lat="60.72346" lon="4.97749">
        <ele>18.867841</ele>
        <time>2020-07-15T15:21:37.141Z</time>
      </trkpt>
      <trkpt lat="60.72378" lon="4.97698">
        <ele>19.626975</ele>
        <time>2020-07-15T15:21:46.123Z</time>
      </trkpt>
      <trkpt lat="60.72424" lon="4.97636">
        <ele>20.665345</ele>
        <time>2020-07-15T15:21:59.811Z</time>
      </trkpt>
      <trkpt lat="60.72512" lon="4.97561">
        <ele>22.201284</ele>
        <time>2020-07-15T15:22:26.369Z</time>
      </trkpt>
      <trkpt lat="60.72595" lon="4.97513">
        <ele>23.355025</ele>
        <time>2020-07-15T15:22:46.339Z</time>
      </trkpt>
      <trkpt lat="60.72612" lon="4.97501">
        <ele>23.599603</ele>
        <time>2020-07-15T15:22:50.009Z</time>
      </trkpt>
      <trkpt lat="60.72612" lon="4.97484">
        <ele>23.715224</ele>
        <time>2020-07-15T15:22:51.860Z</time>
      </trkpt>
      <trkpt lat="60.72624" lon="4.97476">
        <ele>23.884778</ele>
        <time>2020-07-15T15:22:54.102Z</time>
      </trkpt>
      <trkpt lat="60.72674" lon="4.97442">
        <ele>21.886826</ele>
        <time>2020-07-15T15:23:02.576Z</time>
      </trkpt>
      <trkpt lat="60.72858" lon="4.97259">
        <ele>12.055114</ele>
        <time>2020-07-15T15:23:27.831Z</time>
      </trkpt>
      <trkpt lat="60.7286" lon="4.97266">
        <ele>11.823956</ele>
        <time>2020-07-15T15:23:28.270Z</time>
      </trkpt>
      <trkpt lat="60.72885" lon="4.97247">
        <ele>10.298151</ele>
        <time>2020-07-15T15:23:31.491Z</time>
      </trkpt>
      <trkpt lat="60.72912" lon="4.9723">
        <ele>8.719899</ele>
        <time>2020-07-15T15:23:34.719Z</time>
      </trkpt>
      <trkpt lat="60.73063" lon="4.97165">
        <ele>3.368314</ele>
        <time>2020-07-15T15:23:53.883Z</time>
      </trkpt>
      <trkpt lat="60.73194" lon="4.97108">
        <ele>3.284434</ele>
        <time>2020-07-15T15:24:18.269Z</time>
      </trkpt>
      <trkpt lat="60.73214" lon="4.97095">
        <ele>3.917367</ele>
        <time>2020-07-15T15:24:22.964Z</time>
      </trkpt>
      <trkpt lat="60.73214" lon="4.97087">
        <ele>4.040555</ele>
        <time>2020-07-15T15:24:24.334Z</time>
      </trkpt>
      <trkpt lat="60.7337" lon="4.96908">
        <ele>11.282819</ele>
        <time>2020-07-15T15:25:26.473Z</time>
      </trkpt>
      <trkpt lat="60.73374" lon="4.96914">
        <ele>11.573494</ele>
        <time>2020-07-15T15:25:29.674Z</time>
      </trkpt>
      <trkpt lat="60.73411" lon="4.9687">
        <ele>13.844534</ele>
        <time>2020-07-15T15:25:45.767Z</time>
      </trkpt>
      <trkpt lat="60.73453" lon="4.96829">
        <ele>16.304469</ele>
        <time>2020-07-15T15:26:01.478Z</time>
      </trkpt>
      <trkpt lat="60.73521" lon="4.96782">
        <ele>17.684171</ele>
        <time>2020-07-15T15:26:22.948Z</time>
      </trkpt>
      <trkpt lat="60.7357" lon="4.96752">
        <ele>18.594156</ele>
        <time>2020-07-15T15:26:33.451Z</time>
      </trkpt>
      <trkpt lat="60.73601" lon="4.96734">
        <ele>19.171503</ele>
        <time>2020-07-15T15:26:38.999Z</time>
      </trkpt>
      <trkpt lat="60.73656" lon="4.9669">
        <ele>19.946098</ele>
        <time>2020-07-15T15:26:49.138Z</time>
      </trkpt>
      <trkpt lat="60.73701" lon="4.96642">
        <ele>20.389246</ele>
        <time>2020-07-15T15:26:57.503Z</time>
      </trkpt>
      <trkpt lat="60.73896" lon="4.96364">
        <ele>24.147304</ele>
        <time>2020-07-15T15:27:54.215Z</time>
      </trkpt>
      <trkpt lat="60.74052" lon="4.96217">
        <ele>27.82233</ele>
        <time>2020-07-15T15:28:39.092Z</time>
      </trkpt>
      <trkpt lat="60.74135" lon="4.96125">
        <ele>29.114762</ele>
        <time>2020-07-15T15:29:00.193Z</time>
      </trkpt>
      <trkpt lat="60.74184" lon="4.96057">
        <ele>29.428935</ele>
        <time>2020-07-15T15:29:11.743Z</time>
      </trkpt>
      <trkpt lat="60.74238" lon="4.95961">
        <ele>29.811489</ele>
        <time>2020-07-15T15:29:24.765Z</time>
      </trkpt>
      <trkpt lat="60.74245" lon="4.95948">
        <ele>29.747443</ele>
        <time>2020-07-15T15:29:26.387Z</time>
      </trkpt>
      <trkpt lat="60.74255" lon="4.95927">
        <ele>29.572887</ele>
        <time>2020-07-15T15:29:28.779Z</time>
      </trkpt>
      <trkpt lat="60.74319" lon="4.95791">
        <ele>28.47652</ele>
        <time>2020-07-15T15:29:42.999Z</time>
      </trkpt>
      <trkpt lat="60.74353" lon="4.95724">
        <ele>27.918255</ele>
        <time>2020-07-15T15:29:49.890Z</time>
      </trkpt>
      <trkpt lat="60.74359" lon="4.95711">
        <ele>27.809319</ele>
        <time>2020-07-15T15:29:51.082Z</time>
      </trkpt>
      <trkpt lat="60.74421" lon="4.95608">
        <ele>26.160949</ele>
        <time>2020-07-15T15:30:02.112Z</time>
      </trkpt>
      <trkpt lat="60.7447" lon="4.95548">
        <ele>24.909052</ele>
        <time>2020-07-15T15:30:09.848Z</time>
      </trkpt>
      <trkpt lat="60.74531" lon="4.95496">
        <ele>23.579741</ele>
        <time>2020-07-15T15:30:19.120Z</time>
      </trkpt>
      <trkpt lat="60.74609" lon="4.95463">
        <ele>22.660991</ele>
        <time>2020-07-15T15:30:31.046Z</time>
      </trkpt>
      <trkpt lat="60.74676" lon="4.95461">
        <ele>21.87626</ele>
        <time>2020-07-15T15:30:41.699Z</time>
      </trkpt>
      <trkpt lat="60.74737" lon="4.95475">
        <ele>21.205602</ele>
        <time>2020-07-15T15:30:51.538Z</time>
      </trkpt>
      <trkpt lat="60.75003" lon="4.95587">
        <ele>18.327076</ele>
        <time>2020-07-15T15:31:32.691Z</time>
      </trkpt>
      <trkpt lat="60.75016" lon="4.95594">
        <ele>18.19394</ele>
        <time>2020-07-15T15:31:34.575Z</time>
      </trkpt>
      <trkpt lat="60.75047" lon="4.95606">
        <ele>17.864804</ele>
        <time>2020-07-15T15:31:39.627Z</time>
      </trkpt>
      <trkpt lat="60.75131" lon="4.95642">
        <ele>18.107635</ele>
        <time>2020-07-15T15:31:54.735Z</time>
      </trkpt>
      <trkpt lat="60.75191" lon="4.95655">
        <ele>18.304048</ele>
        <time>2020-07-15T15:32:06.483Z</time>
      </trkpt>
      <trkpt lat="60.75208" lon="4.95655">
        <ele>18.359973</ele>
        <time>2020-07-15T15:32:10.228Z</time>
      </trkpt>
      <trkpt lat="60.7522" lon="4.95655">
        <ele>18.40151</ele>
        <time>2020-07-15T15:32:12.879Z</time>
      </trkpt>
      <trkpt lat="60.75259" lon="4.95648">
        <ele>19.050892</ele>
        <time>2020-07-15T15:32:21.398Z</time>
      </trkpt>
      <trkpt lat="60.7527" lon="4.95644">
        <ele>19.258286</ele>
        <time>2020-07-15T15:32:23.857Z</time>
      </trkpt>
      <trkpt lat="60.75294" lon="4.95636">
        <ele>19.732862</ele>
        <time>2020-07-15T15:32:29.335Z</time>
      </trkpt>
      <trkpt lat="60.7533" lon="4.95621">
        <ele>20.454273</ele>
        <time>2020-07-15T15:32:37.949Z</time>
      </trkpt>
      <trkpt lat="60.75487" lon="4.95555">
        <ele>23.578725</ele>
        <time>2020-07-15T15:33:20.282Z</time>
      </trkpt>
      <trkpt lat="60.75517" lon="4.95532">
        <ele>24.200655</ele>
        <time>2020-07-15T15:33:27.397Z</time>
      </trkpt>
      <trkpt lat="60.75521" lon="4.95528">
        <ele>24.287126</ele>
        <time>2020-07-15T15:33:29.540Z</time>
      </trkpt>
      <trkpt lat="60.75531" lon="4.95516">
        <ele>24.511805</ele>
        <time>2020-07-15T15:33:31.992Z</time>
      </trkpt>
      <trkpt lat="60.75566" lon="4.95461">
        <ele>25.365902</ele>
        <time>2020-07-15T15:33:41.922Z</time>
      </trkpt>
      <trkpt lat="60.75667" lon="4.95228">
        <ele>24.932047</ele>
        <time>2020-07-15T15:34:08.718Z</time>
      </trkpt>
      <trkpt lat="60.75813" lon="4.94937">
        <ele>21.448002</ele>
        <time>2020-07-15T15:34:37.177Z</time>
      </trkpt>
      <trkpt lat="60.75834" lon="4.94888">
        <ele>21.089349</ele>
        <time>2020-07-15T15:34:41.788Z</time>
      </trkpt>
      <trkpt lat="60.7586" lon="4.94825">
        <ele>20.730143</ele>
        <time>2020-07-15T15:34:47.799Z</time>
      </trkpt>
      <trkpt lat="60.76015" lon="4.94401">
        <ele>19.197252</ele>
        <time>2020-07-15T15:35:30.957Z</time>
      </trkpt>
      <trkpt lat="60.76028" lon="4.94365">
        <ele>19.118063</ele>
        <time>2020-07-15T15:35:34.732Z</time>
      </trkpt>
      <trkpt lat="60.76037" lon="4.94338">
        <ele>19.06573</ele>
        <time>2020-07-15T15:35:37.489Z</time>
      </trkpt>
      <trkpt lat="60.76048" lon="4.94309">
        <ele>19.045261</ele>
        <time>2020-07-15T15:35:40.560Z</time>
      </trkpt>
      <trkpt lat="60.76089" lon="4.94223">
        <ele>18.977495</ele>
        <time>2020-07-15T15:35:50.777Z</time>
      </trkpt>
      <trkpt lat="60.76102" lon="4.94204">
        <ele>18.959885</ele>
        <time>2020-07-15T15:35:53.437Z</time>
      </trkpt>
      <trkpt lat="60.76116" lon="4.94183">
        <ele>18.939125</ele>
        <time>2020-07-15T15:35:56.579Z</time>
      </trkpt>
      <trkpt lat="60.76143" lon="4.94144">
        <ele>18.901967</ele>
        <time>2020-07-15T15:36:02.229Z</time>
      </trkpt>
      <trkpt lat="60.76274" lon="4.9396">
        <ele>19.112441</ele>
        <time>2020-07-15T15:36:31.244Z</time>
      </trkpt>
      <trkpt lat="60.76327" lon="4.93875">
        <ele>19.271694</ele>
        <time>2020-07-15T15:36:44.117Z</time>
      </trkpt>
      <trkpt lat="60.76332" lon="4.93864">
        <ele>19.298116</ele>
        <time>2020-07-15T15:36:45.538Z</time>
      </trkpt>
      <trkpt lat="60.7634" lon="4.93845">
        <ele>19.345728</ele>
        <time>2020-07-15T15:36:47.906Z</time>
      </trkpt>
      <trkpt lat="60.76364" lon="4.93768">
        <ele>19.514862</ele>
        <time>2020-07-15T15:36:56.339Z</time>
      </trkpt>
      <trkpt lat="60.76386" lon="4.93655">
        <ele>19.741516</ele>
        <time>2020-07-15T15:37:07.805Z</time>
      </trkpt>
      <trkpt lat="60.76391" lon="4.9362">
        <ele>19.808427</ele>
        <time>2020-07-15T15:37:11.116Z</time>
      </trkpt>
      <trkpt lat="60.76419" lon="4.93406">
        <ele>20.145376</ele>
        <time>2020-07-15T15:37:31.740Z</time>
      </trkpt>
      <trkpt lat="60.7649" lon="4.92899">
        <ele>20.516025</ele>
        <time>2020-07-15T15:38:19.589Z</time>
      </trkpt>
      <trkpt lat="60.76495" lon="4.92865">
        <ele>20.525319</ele>
        <time>2020-07-15T15:38:22.406Z</time>
      </trkpt>
      <trkpt lat="60.76509" lon="4.92761">
        <ele>20.017025</ele>
        <time>2020-07-15T15:38:30.784Z</time>
      </trkpt>
      <trkpt lat="60.76515" lon="4.92701">
        <ele>19.706533</ele>
        <time>2020-07-15T15:38:35.505Z</time>
      </trkpt>
      <trkpt lat="60.76516" lon="4.92682">
        <ele>19.608644</ele>
        <time>2020-07-15T15:38:36.879Z</time>
      </trkpt>
      <trkpt lat="60.76517" lon="4.92667">
        <ele>19.530828</ele>
        <time>2020-07-15T15:38:37.981Z</time>
      </trkpt>
      <trkpt lat="60.76516" lon="4.9262">
        <ele>19.293993</ele>
        <time>2020-07-15T15:38:41.538Z</time>
      </trkpt>
      <trkpt lat="60.76515" lon="4.92602">
        <ele>19.20215</ele>
        <time>2020-07-15T15:38:42.843Z</time>
      </trkpt>
      <trkpt lat="60.76515" lon="4.92593">
        <ele>19.15482</ele>
        <time>2020-07-15T15:38:43.464Z</time>
      </trkpt>
      <trkpt lat="60.76509" lon="4.9254">
        <ele>18.882883</ele>
        <time>2020-07-15T15:38:47.417Z</time>
      </trkpt>
      <trkpt lat="60.7649" lon="4.9244">
        <ele>18.257883</ele>
        <time>2020-07-15T15:38:55.097Z</time>
      </trkpt>
      <trkpt lat="60.7646" lon="4.92289">
        <ele>17.218824</ele>
        <time>2020-07-15T15:39:07.074Z</time>
      </trkpt>
      <trkpt lat="60.76429" lon="4.92139">
        <ele>16.196956</ele>
        <time>2020-07-15T15:39:19.117Z</time>
      </trkpt>
      <trkpt lat="60.76413" lon="4.92055">
        <ele>15.669865</ele>
        <time>2020-07-15T15:39:25.859Z</time>
      </trkpt>
      <trkpt lat="60.76409" lon="4.92028">
        <ele>15.507658</ele>
        <time>2020-07-15T15:39:27.986Z</time>
      </trkpt>
      <trkpt lat="60.76408" lon="4.92013">
        <ele>15.417497</ele>
        <time>2020-07-15T15:39:29.115Z</time>
      </trkpt>
      <trkpt lat="60.76406" lon="4.91998">
        <ele>15.327581</ele>
        <time>2020-07-15T15:39:30.209Z</time>
      </trkpt>
      <trkpt lat="60.76405" lon="4.9193">
        <ele>14.931492</ele>
        <time>2020-07-15T15:39:35.249Z</time>
      </trkpt>
      <trkpt lat="60.76411" lon="4.91791">
        <ele>14.168923</ele>
        <time>2020-07-15T15:39:45.511Z</time>
      </trkpt>
      <trkpt lat="60.76414" lon="4.91755">
        <ele>14.159526</ele>
        <time>2020-07-15T15:39:48.198Z</time>
      </trkpt>
      <trkpt lat="60.7642" lon="4.91657">
        <ele>14.134245</ele>
        <time>2020-07-15T15:39:56.063Z</time>
      </trkpt>
      <trkpt lat="60.76425" lon="4.91572">
        <ele>14.111974</ele>
        <time>2020-07-15T15:40:03.651Z</time>
      </trkpt>
      <trkpt lat="60.76433" lon="4.91532">
        <ele>14.100762</ele>
        <time>2020-07-15T15:40:07.826Z</time>
      </trkpt>
      <trkpt lat="60.76435" lon="4.91528">
        <ele>14.099398</ele>
        <time>2020-07-15T15:40:08.173Z</time>
      </trkpt>
      <trkpt lat="60.76433" lon="4.91523">
        <ele>14.097886</ele>
        <time>2020-07-15T15:40:08.809Z</time>
      </trkpt>
      <trkpt lat="60.7642" lon="4.91496">
        <ele>14.088012</ele>
        <time>2020-07-15T15:40:12.753Z</time>
      </trkpt>
      <trkpt lat="60.76407" lon="4.91481">
        <ele>14.079833</ele>
        <time>2020-07-15T15:40:15.394Z</time>
      </trkpt>
      <trkpt lat="60.76394" lon="4.91471">
        <ele>14.159915</ele>
        <time>2020-07-15T15:40:18.229Z</time>
      </trkpt>
      <trkpt lat="60.76388" lon="4.91468">
        <ele>14.216804</ele>
        <time>2020-07-15T15:40:20.156Z</time>
      </trkpt>
      <trkpt lat="60.76357" lon="4.91477">
        <ele>14.551244</ele>
        <time>2020-07-15T15:40:26.346Z</time>
      </trkpt>
      <trkpt lat="60.76319" lon="4.91502">
        <ele>14.970278</ele>
        <time>2020-07-15T15:40:35.562Z</time>
      </trkpt>
      <trkpt lat="60.76277" lon="4.91606">
        <ele>15.664431</ele>
        <time>2020-07-15T15:40:49.299Z</time>
      </trkpt>
      <trkpt lat="60.76273" lon="4.91611">
        <ele>15.715709</ele>
        <time>2020-07-15T15:40:51.180Z</time>
      </trkpt>
      <trkpt lat="60.76273" lon="4.91619">
        <ele>15.759393</ele>
        <time>2020-07-15T15:40:52.187Z</time>
      </trkpt>
      <trkpt lat="60.76284" lon="4.91683">
        <ele>15.95298</ele>
        <time>2020-07-15T15:41:00.984Z</time>
      </trkpt>
      <trkpt lat="60.7631" lon="4.9174">
        <ele>15.906697</ele>
        <time>2020-07-15T15:41:10.404Z</time>
      </trkpt>
      <trkpt lat="60.76325" lon="4.91754">
        <ele>15.886247</ele>
        <time>2020-07-15T15:41:14.405Z</time>
      </trkpt>
      <trkpt lat="60.7633" lon="4.91736">
        <ele>15.874377</ele>
        <time>2020-07-15T15:41:21.217Z</time>
      </trkpt>
      <trkpt lat="60.7633" lon="4.91733">
        <ele>15.872363</ele>
        <time>2020-07-15T15:41:22.358Z</time>
      </trkpt>
      <trkpt lat="60.7633" lon="4.91733">
        <ele>15.872363</ele>
        <time>2020-07-15T15:41:22.370Z</time>
      </trkpt>
      <trkpt lat="60.7633" lon="4.91733">
        <ele>15.872363</ele>
        <time>2020-07-15T15:41:22.381Z</time>
      </trkpt>
      <trkpt lat="60.7633" lon="4.91736">
        <ele>15.870349</ele>
        <time>2020-07-15T15:41:23.522Z</time>
      </trkpt>
      <trkpt lat="60.76325" lon="4.91754">
        <ele>15.85848</ele>
        <time>2020-07-15T15:41:30.334Z</time>
      </trkpt>
      <trkpt lat="60.7631" lon="4.9174">
        <ele>15.838029</ele>
        <time>2020-07-15T15:41:34.276Z</time>
      </trkpt>
      <trkpt lat="60.76284" lon="4.91683">
        <ele>15.791746</ele>
        <time>2020-07-15T15:41:42.802Z</time>
      </trkpt>
      <trkpt lat="60.76273" lon="4.91619">
        <ele>15.751868</ele>
        <time>2020-07-15T15:41:49.695Z</time>
      </trkpt>
      <trkpt lat="60.76273" lon="4.91611">
        <ele>15.691463</ele>
        <time>2020-07-15T15:41:50.635Z</time>
      </trkpt>
      <trkpt lat="60.76277" lon="4.91606">
        <ele>15.598692</ele>
        <time>2020-07-15T15:41:51.201Z</time>
      </trkpt>
      <trkpt lat="60.76319" lon="4.91502">
        <ele>14.342813</ele>
        <time>2020-07-15T15:42:01.221Z</time>
      </trkpt>
      <trkpt lat="60.76357" lon="4.91477">
        <ele>13.584686</ele>
        <time>2020-07-15T15:42:06.671Z</time>
      </trkpt>
      <trkpt lat="60.76388" lon="4.91468">
        <ele>12.979609</ele>
        <time>2020-07-15T15:42:11.232Z</time>
      </trkpt>
      <trkpt lat="60.76394" lon="4.91471">
        <ele>12.876684</ele>
        <time>2020-07-15T15:42:11.859Z</time>
      </trkpt>
      <trkpt lat="60.76407" lon="4.91481">
        <ele>12.609671</ele>
        <time>2020-07-15T15:42:13.794Z</time>
      </trkpt>
      <trkpt lat="60.7642" lon="4.91496">
        <ele>12.313025</ele>
        <time>2020-07-15T15:42:16.005Z</time>
      </trkpt>
      <trkpt lat="60.76433" lon="4.91523">
        <ele>11.916971</ele>
        <time>2020-07-15T15:42:18.533Z</time>
      </trkpt>
      <trkpt lat="60.76435" lon="4.91528">
        <ele>11.856308</ele>
        <time>2020-07-15T15:42:18.905Z</time>
      </trkpt>
      <trkpt lat="60.76441" lon="4.91519">
        <ele>11.709322</ele>
        <time>2020-07-15T15:42:19.920Z</time>
      </trkpt>
      <trkpt lat="60.76445" lon="4.91515">
        <ele>11.609071</ele>
        <time>2020-07-15T15:42:20.602Z</time>
      </trkpt>
      <trkpt lat="60.76447" lon="4.91513">
        <ele>11.557357</ele>
        <time>2020-07-15T15:42:20.920Z</time>
      </trkpt>
      <trkpt lat="60.76459" lon="4.9151">
        <ele>11.305625</ele>
        <time>2020-07-15T15:42:22.497Z</time>
      </trkpt>
      <trkpt lat="60.76466" lon="4.91512">
        <ele>11.159515</ele>
        <time>2020-07-15T15:42:23.423Z</time>
      </trkpt>
      <trkpt lat="60.76485" lon="4.91524">
        <ele>10.738766</ele>
        <time>2020-07-15T15:42:26.166Z</time>
      </trkpt>
      <trkpt lat="60.76514" lon="4.91545">
        <ele>10.096549</ele>
        <time>2020-07-15T15:42:30.332Z</time>
      </trkpt>
      <trkpt lat="60.7653" lon="4.9155">
        <ele>9.734813</ele>
        <time>2020-07-15T15:42:32.647Z</time>
      </trkpt>
      <trkpt lat="60.76538" lon="4.91557">
        <ele>9.569044</ele>
        <time>2020-07-15T15:42:33.673Z</time>
      </trkpt>
      <trkpt lat="60.76576" lon="4.91557">
        <ele>8.756938</ele>
        <time>2020-07-15T15:42:39.208Z</time>
      </trkpt>
      <trkpt lat="60.766" lon="4.91558">
        <ele>8.562442</ele>
        <time>2020-07-15T15:42:42.882Z</time>
      </trkpt>
      <trkpt lat="60.76609" lon="4.91557">
        <ele>8.587075</ele>
        <time>2020-07-15T15:42:44.117Z</time>
      </trkpt>
      <trkpt lat="60.76659" lon="4.91528">
        <ele>8.738695</ele>
        <time>2020-07-15T15:42:53.024Z</time>
      </trkpt>
      <trkpt lat="60.76686" lon="4.91523">
        <ele>8.815352</ele>
        <time>2020-07-15T15:42:58.081Z</time>
      </trkpt>
      <trkpt lat="60.76688" lon="4.91524">
        <ele>8.821222</ele>
        <time>2020-07-15T15:42:58.338Z</time>
      </trkpt>
      <trkpt lat="60.76692" lon="4.91531">
        <ele>8.837473</ele>
        <time>2020-07-15T15:42:59.426Z</time>
      </trkpt>
      <trkpt lat="60.76707" lon="4.91546">
        <ele>8.88525</ele>
        <time>2020-07-15T15:43:02.946Z</time>
      </trkpt>
      <trkpt lat="60.76708" lon="4.91551">
        <ele>8.892968</ele>
        <time>2020-07-15T15:43:03.503Z</time>
      </trkpt>
      <trkpt lat="60.76719" lon="4.91567">
        <ele>8.932405</ele>
        <time>2020-07-15T15:43:05.944Z</time>
      </trkpt>
      <trkpt lat="60.76721" lon="4.91566">
        <ele>8.940398</ele>
        <time>2020-07-15T15:43:06.521Z</time>
      </trkpt>
      <trkpt lat="60.76735" lon="4.91591">
        <ele>8.994515</ele>
        <time>2020-07-15T15:43:11.214Z</time>
      </trkpt>
      <trkpt lat="60.76739" lon="4.91592">
        <ele>9.003812</ele>
        <time>2020-07-15T15:43:11.990Z</time>
      </trkpt>
      <trkpt lat="60.76742" lon="4.91602">
        <ele>9.021252</ele>
        <time>2020-07-15T15:43:13.260Z</time>
      </trkpt>
      <trkpt lat="60.76746" lon="4.91615">
        <ele>9.043201</ele>
        <time>2020-07-15T15:43:14.601Z</time>
      </trkpt>
      <trkpt lat="60.76751" lon="4.91627">
        <ele>9.213995</ele>
        <time>2020-07-15T15:43:16.343Z</time>
      </trkpt>
      <trkpt lat="60.76753" lon="4.91624">
        <ele>9.278718</ele>
        <time>2020-07-15T15:43:17.444Z</time>
      </trkpt>
      <trkpt lat="60.76822" lon="4.9173">
        <ele>11.384588</ele>
        <time>2020-07-15T15:43:40.767Z</time>
      </trkpt>
      <trkpt lat="60.76843" lon="4.9175">
        <ele>11.961373</ele>
        <time>2020-07-15T15:43:47.148Z</time>
      </trkpt>
      <trkpt lat="60.76847" lon="4.91752">
        <ele>12.048923</ele>
        <time>2020-07-15T15:43:48.542Z</time>
      </trkpt>
      <trkpt lat="60.76853" lon="4.91757">
        <ele>12.213875</ele>
        <time>2020-07-15T15:43:50.445Z</time>
      </trkpt>
      <trkpt lat="60.76866" lon="4.9177">
        <ele>12.557777</ele>
        <time>2020-07-15T15:43:53.674Z</time>
      </trkpt>
      <trkpt lat="60.76872" lon="4.91778">
        <ele>12.731191</ele>
        <time>2020-07-15T15:43:55.699Z</time>
      </trkpt>
      <trkpt lat="60.76877" lon="4.91795">
        <ele>12.978863</ele>
        <time>2020-07-15T15:43:59.161Z</time>
      </trkpt>
      <trkpt lat="60.76897" lon="4.91863">
        <ele>13.783178</ele>
        <time>2020-07-15T15:44:08.939Z</time>
      </trkpt>
      <trkpt lat="60.76921" lon="4.91903">
        <ele>14.333745</ele>
        <time>2020-07-15T15:44:16.749Z</time>
      </trkpt>
      <trkpt lat="60.76939" lon="4.91933">
        <ele>14.748477</ele>
        <time>2020-07-15T15:44:22.256Z</time>
      </trkpt>
      <trkpt lat="60.76946" lon="4.91945">
        <ele>14.91465</ele>
        <time>2020-07-15T15:44:24.647Z</time>
      </trkpt>
      <trkpt lat="60.76994" lon="4.92026">
        <ele>16.011969</ele>
        <time>2020-07-15T15:44:39.499Z</time>
      </trkpt>
      <trkpt lat="60.77031" lon="4.9206">
        <ele>16.692372</ele>
        <time>2020-07-15T15:44:48.693Z</time>
      </trkpt>
      <trkpt lat="60.77052" lon="4.92067">
        <ele>16.890254</ele>
        <time>2020-07-15T15:44:53.334Z</time>
      </trkpt>
      <trkpt lat="60.77131" lon="4.92054">
        <ele>17.643772</ele>
        <time>2020-07-15T15:45:10.472Z</time>
      </trkpt>
      <trkpt lat="60.77152" lon="4.92056">
        <ele>17.850032</ele>
        <time>2020-07-15T15:45:15.082Z</time>
      </trkpt>
      <trkpt lat="60.77174" lon="4.92071">
        <ele>18.072833</ele>
        <time>2020-07-15T15:45:20.053Z</time>
      </trkpt>
      <trkpt lat="60.77207" lon="4.92111">
        <ele>18.38075</ele>
        <time>2020-07-15T15:45:27.978Z</time>
      </trkpt>
      <trkpt lat="60.77328" lon="4.92296">
        <ele>18.970061</ele>
        <time>2020-07-15T15:45:58.044Z</time>
      </trkpt>
      <trkpt lat="60.7738" lon="4.92346">
        <ele>19.059068</ele>
        <time>2020-07-15T15:46:08.878Z</time>
      </trkpt>
      <trkpt lat="60.77389" lon="4.92359">
        <ele>19.063115</ele>
        <time>2020-07-15T15:46:10.879Z</time>
      </trkpt>
      <trkpt lat="60.77414" lon="4.92378">
        <ele>19.072905</ele>
        <time>2020-07-15T15:46:15.896Z</time>
      </trkpt>
      <trkpt lat="60.77497" lon="4.92485">
        <ele>19.108752</ele>
        <time>2020-07-15T15:46:33.993Z</time>
      </trkpt>
      <trkpt lat="60.77543" lon="4.92557">
        <ele>19.155721</ele>
        <time>2020-07-15T15:46:44.775Z</time>
      </trkpt>
      <trkpt lat="60.77548" lon="4.92574">
        <ele>19.164563</ele>
        <time>2020-07-15T15:46:46.716Z</time>
      </trkpt>
      <trkpt lat="60.77534" lon="4.92553">
        <ele>19.179744</ele>
        <time>2020-07-15T15:46:49.859Z</time>
      </trkpt>
      <trkpt lat="60.7753" lon="4.92559">
        <ele>19.183661</ele>
        <time>2020-07-15T15:46:50.938Z</time>
      </trkpt>
      <trkpt lat="60.7755" lon="4.92599">
        <ele>19.208109</ele>
        <time>2020-07-15T15:46:56.279Z</time>
      </trkpt>
      <trkpt lat="60.77568" lon="4.92627">
        <ele>19.227754</ele>
        <time>2020-07-15T15:47:00.561Z</time>
      </trkpt>
      <trkpt lat="60.77585" lon="4.92672">
        <ele>19.251843</ele>
        <time>2020-07-15T15:47:05.803Z</time>
      </trkpt>
      <trkpt lat="60.77696" lon="4.93224">
        <ele>19.270978</ele>
        <time>2020-07-15T15:48:00.076Z</time>
      </trkpt>
      <trkpt lat="60.77721" lon="4.93312">
        <ele>19.255375</ele>
        <time>2020-07-15T15:48:08.928Z</time>
      </trkpt>
      <trkpt lat="60.77725" lon="4.93316">
        <ele>19.25415</ele>
        <time>2020-07-15T15:48:09.562Z</time>
      </trkpt>
      <trkpt lat="60.77734" lon="4.93327">
        <ele>19.250966</ele>
        <time>2020-07-15T15:48:11.425Z</time>
      </trkpt>
      <trkpt lat="60.77777" lon="4.93282">
        <ele>19.602962</ele>
        <time>2020-07-15T15:48:20.560Z</time>
      </trkpt>
      <trkpt lat="60.77776" lon="4.93273">
        <ele>19.670062</ele>
        <time>2020-07-15T15:48:21.579Z</time>
      </trkpt>
      <trkpt lat="60.7778" lon="4.93268">
        <ele>19.741041</ele>
        <time>2020-07-15T15:48:22.904Z</time>
      </trkpt>
      <trkpt lat="60.77795" lon="4.93254">
        <ele>19.957875</ele>
        <time>2020-07-15T15:48:26.025Z</time>
      </trkpt>
      <trkpt lat="60.77806" lon="4.93245">
        <ele>20.123893</ele>
        <time>2020-07-15T15:48:28.483Z</time>
      </trkpt>
      <trkpt lat="60.77814" lon="4.9324">
        <ele>20.232067</ele>
        <time>2020-07-15T15:48:30.945Z</time>
      </trkpt>
      <trkpt lat="60.77832" lon="4.9324">
        <ele>20.469909</ele>
        <time>2020-07-15T15:48:34.496Z</time>
      </trkpt>
      <trkpt lat="60.77846" lon="4.93244">
        <ele>20.669271</ele>
        <time>2020-07-15T15:48:38.135Z</time>
      </trkpt>
      <trkpt lat="60.77878" lon="4.93252">
        <ele>21.10913</ele>
        <time>2020-07-15T15:48:45.338Z</time>
      </trkpt>
      <trkpt lat="60.77878" lon="4.93263">
        <ele>21.180983</ele>
        <time>2020-07-15T15:48:47.381Z</time>
      </trkpt>
      <trkpt lat="60.77907" lon="4.93267">
        <ele>21.579127</ele>
        <time>2020-07-15T15:48:53.994Z</time>
      </trkpt>
      <trkpt lat="60.77941" lon="4.93275">
        <ele>22.344357</ele>
        <time>2020-07-15T15:49:02.670Z</time>
      </trkpt>
      <trkpt lat="60.77949" lon="4.93275">
        <ele>22.5473</ele>
        <time>2020-07-15T15:49:05.758Z</time>
      </trkpt>
      <trkpt lat="60.78085" lon="4.93306">
        <ele>25.923875</ele>
        <time>2020-07-15T15:49:43.077Z</time>
      </trkpt>
      <trkpt lat="60.781" lon="4.93309">
        <ele>26.134387</ele>
        <time>2020-07-15T15:49:47.809Z</time>
      </trkpt>
      <trkpt lat="60.78102" lon="4.93298">
        <ele>26.142832</ele>
        <time>2020-07-15T15:49:48.722Z</time>
      </trkpt>
      <trkpt lat="60.78108" lon="4.93297">
        <ele>26.150708</ele>
        <time>2020-07-15T15:49:49.854Z</time>
      </trkpt>
      <trkpt lat="60.78162" lon="4.93284">
        <ele>26.227244</ele>
        <time>2020-07-15T15:50:01.044Z</time>
      </trkpt>
      <trkpt lat="60.78232" lon="4.93296">
        <ele>26.325658</ele>
        <time>2020-07-15T15:50:12.991Z</time>
      </trkpt>
      <trkpt lat="60.78239" lon="4.93297">
        <ele>26.335917</ele>
        <time>2020-07-15T15:50:14.697Z</time>
      </trkpt>
      <trkpt lat="60.78239" lon="4.93305">
        <ele>26.342027</ele>
        <time>2020-07-15T15:50:15.351Z</time>
      </trkpt>
      <trkpt lat="60.78242" lon="4.93305">
        <ele>26.34709</ele>
        <time>2020-07-15T15:50:15.797Z</time>
      </trkpt>
      <trkpt lat="60.78328" lon="4.93316">
        <ele>25.021118</ele>
        <time>2020-07-15T15:50:28.681Z</time>
      </trkpt>
      <trkpt lat="60.78378" lon="4.9334">
        <ele>23.915661</ele>
        <time>2020-07-15T15:50:36.172Z</time>
      </trkpt>
      <trkpt lat="60.78553" lon="4.93534">
        <ele>19.804682</ele>
        <time>2020-07-15T15:51:04.428Z</time>
      </trkpt>
      <trkpt lat="60.78583" lon="4.93568">
        <ele>19.099426</ele>
        <time>2020-07-15T15:51:09.939Z</time>
      </trkpt>
      <trkpt lat="60.78586" lon="4.93556">
        <ele>18.966072</ele>
        <time>2020-07-15T15:51:11.014Z</time>
      </trkpt>
      <trkpt lat="60.78583" lon="4.93549">
        <ele>18.881637</ele>
        <time>2020-07-15T15:51:11.689Z</time>
      </trkpt>
      <trkpt lat="60.78581" lon="4.93543">
        <ele>18.867637</ele>
        <time>2020-07-15T15:51:12.360Z</time>
      </trkpt>
      <trkpt lat="60.7858" lon="4.9354">
        <ele>18.867759</ele>
        <time>2020-07-15T15:51:12.606Z</time>
      </trkpt>
      <trkpt lat="60.78579" lon="4.93538">
        <ele>18.867877</ele>
        <time>2020-07-15T15:51:12.853Z</time>
      </trkpt>
      <trkpt lat="60.78586" lon="4.93536">
        <ele>18.868421</ele>
        <time>2020-07-15T15:51:13.834Z</time>
      </trkpt>
      <trkpt lat="60.78595" lon="4.93528">
        <ele>18.869293</ele>
        <time>2020-07-15T15:51:15.398Z</time>
      </trkpt>
      <trkpt lat="60.78607" lon="4.93509">
        <ele>18.870566</ele>
        <time>2020-07-15T15:51:17.844Z</time>
      </trkpt>
      <trkpt lat="60.78618" lon="4.93487">
        <ele>18.871955</ele>
        <time>2020-07-15T15:51:20.570Z</time>
      </trkpt>
      <trkpt lat="60.78736" lon="4.93253">
        <ele>18.750616</ele>
        <time>2020-07-15T15:51:52.123Z</time>
      </trkpt>
      <trkpt lat="60.78809" lon="4.93056">
        <ele>18.316572</ele>
        <time>2020-07-15T15:52:12.553Z</time>
      </trkpt>
      <trkpt lat="60.78819" lon="4.93031">
        <ele>18.260561</ele>
        <time>2020-07-15T15:52:15.071Z</time>
      </trkpt>
      <trkpt lat="60.78823" lon="4.93021">
        <ele>18.226969</ele>
        <time>2020-07-15T15:52:16.233Z</time>
      </trkpt>
      <trkpt lat="60.78842" lon="4.92983">
        <ele>17.685541</ele>
        <time>2020-07-15T15:52:19.871Z</time>
      </trkpt>
      <trkpt lat="60.78851" lon="4.92966">
        <ele>17.424316</ele>
        <time>2020-07-15T15:52:21.830Z</time>
      </trkpt>
      <trkpt lat="60.78867" lon="4.92937">
        <ele>16.98328</ele>
        <time>2020-07-15T15:52:24.668Z</time>
      </trkpt>
      <trkpt lat="60.78879" lon="4.92919">
        <ele>16.661192</ele>
        <time>2020-07-15T15:52:27.038Z</time>
      </trkpt>
      <trkpt lat="60.78887" lon="4.92908">
        <ele>16.454404</ele>
        <time>2020-07-15T15:52:28.294Z</time>
      </trkpt>
      <trkpt lat="60.78892" lon="4.92902">
        <ele>16.339779</ele>
        <time>2020-07-15T15:52:29.030Z</time>
      </trkpt>
      <trkpt lat="60.78938" lon="4.92851">
        <ele>15.242583</ele>
        <time>2020-07-15T15:52:36.314Z</time>
      </trkpt>
      <trkpt lat="60.78946" lon="4.92845">
        <ele>15.078399</ele>
        <time>2020-07-15T15:52:37.329Z</time>
      </trkpt>
      <trkpt lat="60.78982" lon="4.92814">
        <ele>14.356968</ele>
        <time>2020-07-15T15:52:42.546Z</time>
      </trkpt>
      <trkpt lat="60.79054" lon="4.92757">
        <ele>13.512048</ele>
        <time>2020-07-15T15:52:53.422Z</time>
      </trkpt>
      <trkpt lat="60.79065" lon="4.92749">
        <ele>13.386866</ele>
        <time>2020-07-15T15:52:55.222Z</time>
      </trkpt>
      <trkpt lat="60.79071" lon="4.92745">
        <ele>13.316645</ele>
        <time>2020-07-15T15:52:56.215Z</time>
      </trkpt>
      <trkpt lat="60.79116" lon="4.92708">
        <ele>12.775968</ele>
        <time>2020-07-15T15:53:04.436Z</time>
      </trkpt>
      <trkpt lat="60.79121" lon="4.92705">
        <ele>12.719445</ele>
        <time>2020-07-15T15:53:05.312Z</time>
      </trkpt>
      <trkpt lat="60.79132" lon="4.92697">
        <ele>12.590302</ele>
        <time>2020-07-15T15:53:07.443Z</time>
      </trkpt>
      <trkpt lat="60.79172" lon="4.92657">
        <ele>12.901025</ele>
        <time>2020-07-15T15:53:16.398Z</time>
      </trkpt>
      <trkpt lat="60.79222" lon="4.9255">
        <ele>13.725211</ele>
        <time>2020-07-15T15:53:32.701Z</time>
      </trkpt>
      <trkpt lat="60.79229" lon="4.92537">
        <ele>13.829772</ele>
        <time>2020-07-15T15:53:35.343Z</time>
      </trkpt>
      <trkpt lat="60.79236" lon="4.92525">
        <ele>13.929511</ele>
        <time>2020-07-15T15:53:37.250Z</time>
      </trkpt>
      <trkpt lat="60.79246" lon="4.9251">
        <ele>14.069798</ele>
        <time>2020-07-15T15:53:40.001Z</time>
      </trkpt>
      <trkpt lat="60.79253" lon="4.92504">
        <ele>14.156768</ele>
        <time>2020-07-15T15:53:41.793Z</time>
      </trkpt>
      <trkpt lat="60.79259" lon="4.92499">
        <ele>14.227603</ele>
        <time>2020-07-15T15:53:43.563Z</time>
      </trkpt>
      <trkpt lat="60.79343" lon="4.92468">
        <ele>14.269881</ele>
        <time>2020-07-15T15:54:00.872Z</time>
      </trkpt>
      <trkpt lat="60.79382" lon="4.92455">
        <ele>14.094217</ele>
        <time>2020-07-15T15:54:08.100Z</time>
      </trkpt>
      <trkpt lat="60.79411" lon="4.92445">
        <ele>13.958786</ele>
        <time>2020-07-15T15:54:12.738Z</time>
      </trkpt>
      <trkpt lat="60.79436" lon="4.92436">
        <ele>13.847979</ele>
        <time>2020-07-15T15:54:16.215Z</time>
      </trkpt>
      <trkpt lat="60.79529" lon="4.924">
        <ele>12.214072</ele>
        <time>2020-07-15T15:54:29.455Z</time>
      </trkpt>
      <trkpt lat="60.79542" lon="4.92394">
        <ele>11.908558</ele>
        <time>2020-07-15T15:54:31.241Z</time>
      </trkpt>
      <trkpt lat="60.79576" lon="4.92381">
        <ele>11.157248</ele>
        <time>2020-07-15T15:54:35.851Z</time>
      </trkpt>
      <trkpt lat="60.79616" lon="4.92363">
        <ele>10.232231</ele>
        <time>2020-07-15T15:54:41.676Z</time>
      </trkpt>
      <trkpt lat="60.79624" lon="4.92359">
        <ele>10.050023</ele>
        <time>2020-07-15T15:54:42.828Z</time>
      </trkpt>
      <trkpt lat="60.79652" lon="4.92337">
        <ele>9.432141</ele>
        <time>2020-07-15T15:54:47.098Z</time>
      </trkpt>
      <trkpt lat="60.79711" lon="4.92244">
        <ele>8.035044</ele>
        <time>2020-07-15T15:54:57.565Z</time>
      </trkpt>
      <trkpt lat="60.79724" lon="4.92228">
        <ele>7.739182</ele>
        <time>2020-07-15T15:54:59.914Z</time>
      </trkpt>
      <trkpt lat="60.79744" lon="4.92204">
        <ele>7.311984</ele>
        <time>2020-07-15T15:55:03.043Z</time>
      </trkpt>
      <trkpt lat="60.79777" lon="4.92158">
        <ele>6.559175</ele>
        <time>2020-07-15T15:55:08.812Z</time>
      </trkpt>
      <trkpt lat="60.79791" lon="4.9214">
        <ele>6.272292</ele>
        <time>2020-07-15T15:55:11.260Z</time>
      </trkpt>
      <trkpt lat="60.79804" lon="4.92125">
        <ele>6.04986</ele>
        <time>2020-07-15T15:55:13.367Z</time>
      </trkpt>
      <trkpt lat="60.79826" lon="4.92105">
        <ele>5.701123</ele>
        <time>2020-07-15T15:55:16.908Z</time>
      </trkpt>
      <trkpt lat="60.79856" lon="4.92112">
        <ele>5.257358</ele>
        <time>2020-07-15T15:55:21.352Z</time>
      </trkpt>
      <trkpt lat="60.79877" lon="4.92137">
        <ele>4.902661</ele>
        <time>2020-07-15T15:55:24.821Z</time>
      </trkpt>
      <trkpt lat="60.79893" lon="4.92154">
        <ele>4.646061</ele>
        <time>2020-07-15T15:55:27.470Z</time>
      </trkpt>
      <trkpt lat="60.79932" lon="4.92166">
        <ele>4.075697</ele>
        <time>2020-07-15T15:55:33.221Z</time>
      </trkpt>
      <trkpt lat="60.7996" lon="4.92156">
        <ele>3.690309</ele>
        <time>2020-07-15T15:55:37.583Z</time>
      </trkpt>
      <trkpt lat="60.8011" lon="4.92035">
        <ele>2.721543</ele>
        <time>2020-07-15T15:56:04.131Z</time>
      </trkpt>
      <trkpt lat="60.80164" lon="4.91972">
        <ele>2.367394</ele>
        <time>2020-07-15T15:56:14.498Z</time>
      </trkpt>
      <trkpt lat="60.80185" lon="4.91947">
        <ele>2.237632</ele>
        <time>2020-07-15T15:56:18.345Z</time>
      </trkpt>
      <trkpt lat="60.80252" lon="4.91863">
        <ele>1.800011</ele>
        <time>2020-07-15T15:56:31.181Z</time>
      </trkpt>
      <trkpt lat="60.80274" lon="4.91844">
        <ele>1.667403</ele>
        <time>2020-07-15T15:56:35.155Z</time>
      </trkpt>
      <trkpt lat="60.80284" lon="4.9184">
        <ele>1.614166</ele>
        <time>2020-07-15T15:56:36.708Z</time>
      </trkpt>
      <trkpt lat="60.80286" lon="4.91839">
        <ele>1.602414</ele>
        <time>2020-07-15T15:56:37.094Z</time>
      </trkpt>
      <trkpt lat="60.80298" lon="4.91839">
        <ele>1.546681</ele>
        <time>2020-07-15T15:56:38.950Z</time>
      </trkpt>
      <trkpt lat="60.80307" lon="4.91842">
        <ele>1.497571</ele>
        <time>2020-07-15T15:56:40.580Z</time>
      </trkpt>
      <trkpt lat="60.80318" lon="4.91846">
        <ele>1.441758</ele>
        <time>2020-07-15T15:56:42.323Z</time>
      </trkpt>
      <trkpt lat="60.80335" lon="4.91862">
        <ele>1.352803</ele>
        <time>2020-07-15T15:56:45.266Z</time>
      </trkpt>
      <trkpt lat="60.80356" lon="4.91905">
        <ele>1.20248</ele>
        <time>2020-07-15T15:56:50.190Z</time>
      </trkpt>
      <trkpt lat="60.80364" lon="4.91941">
        <ele>1.106665</ele>
        <time>2020-07-15T15:56:53.379Z</time>
      </trkpt>
      <trkpt lat="60.80367" lon="4.9201">
        <ele>0.939535</ele>
        <time>2020-07-15T15:56:58.986Z</time>
      </trkpt>
      <trkpt lat="60.80353" lon="4.9208">
        <ele>0.755266</ele>
        <time>2020-07-15T15:57:05.120Z</time>
      </trkpt>
      <trkpt lat="60.80287" lon="4.92298">
        <ele>0.452477</ele>
        <time>2020-07-15T15:57:26.583Z</time>
      </trkpt>
      <trkpt lat="60.80285" lon="4.92313">
        <ele>0.434392</ele>
        <time>2020-07-15T15:57:27.823Z</time>
      </trkpt>
      <trkpt lat="60.80281" lon="4.92338">
        <ele>0.403685</ele>
        <time>2020-07-15T15:57:30.166Z</time>
      </trkpt>
      <trkpt lat="60.80273" lon="4.92439">
        <ele>0.306213</ele>
        <time>2020-07-15T15:57:38.952Z</time>
      </trkpt>
      <trkpt lat="60.80271" lon="4.9247">
        <ele>0.294145</ele>
        <time>2020-07-15T15:57:41.490Z</time>
      </trkpt>
      <trkpt lat="60.80269" lon="4.92487">
        <ele>0.287285</ele>
        <time>2020-07-15T15:57:43.026Z</time>
      </trkpt>
      <trkpt lat="60.80258" lon="4.92639">
        <ele>0.226874</ele>
        <time>2020-07-15T15:57:56.232Z</time>
      </trkpt>
      <trkpt lat="60.80255" lon="4.92662">
        <ele>0.217811</ele>
        <time>2020-07-15T15:57:58.309Z</time>
      </trkpt>
      <trkpt lat="60.80252" lon="4.92678">
        <ele>0.210903</ele>
        <time>2020-07-15T15:57:59.829Z</time>
      </trkpt>
      <trkpt lat="60.80248" lon="4.92695">
        <ele>0.203473</ele>
        <time>2020-07-15T15:58:01.505Z</time>
      </trkpt>
      <trkpt lat="60.80246" lon="4.92703">
        <ele>0.199916</ele>
        <time>2020-07-15T15:58:02.260Z</time>
      </trkpt>
      <trkpt lat="60.80178" lon="4.92967">
        <ele>0.116862</ele>
        <time>2020-07-15T15:58:27.968Z</time>
      </trkpt>
      <trkpt lat="60.80161" lon="4.9302">
        <ele>0.101548</ele>
        <time>2020-07-15T15:58:33.389Z</time>
      </trkpt>
      <trkpt lat="60.80156" lon="4.93032">
        <ele>0.097657</ele>
        <time>2020-07-15T15:58:34.759Z</time>
      </trkpt>
      <trkpt lat="60.80144" lon="4.93059">
        <ele>0.088674</ele>
        <time>2020-07-15T15:58:37.940Z</time>
      </trkpt>
      <trkpt lat="60.80026" lon="4.93278">
        <ele>0.029849</ele>
        <time>2020-07-15T15:59:06.203Z</time>
      </trkpt>
      <trkpt lat="60.80013" lon="4.93301">
        <ele>0.023779</ele>
        <time>2020-07-15T15:59:09.230Z</time>
      </trkpt>
      <trkpt lat="60.80007" lon="4.93314">
        <ele>0.020625</ele>
        <time>2020-07-15T15:59:10.803Z</time>
      </trkpt>
      <trkpt lat="60.7983" lon="4.9356">
        <ele>0.075688</ele>
        <time>2020-07-15T15:59:49.135Z</time>
      </trkpt>
      <trkpt lat="60.79806" lon="4.93618">
        <ele>0.066759</ele>
        <time>2020-07-15T15:59:55.711Z</time>
      </trkpt>
      <trkpt lat="60.798" lon="4.93667">
        <ele>0.060791</ele>
        <time>2020-07-15T16:00:00.088Z</time>
      </trkpt>
      <trkpt lat="60.798" lon="4.93687">
        <ele>0.058384</ele>
        <time>2020-07-15T16:00:01.866Z</time>
      </trkpt>
      <trkpt lat="60.798" lon="4.93709">
        <ele>0.055787</ele>
        <time>2020-07-15T16:00:03.767Z</time>
      </trkpt>
      <trkpt lat="60.79801" lon="4.93774">
        <ele>0.048145</ele>
        <time>2020-07-15T16:00:09.399Z</time>
      </trkpt>
      <trkpt lat="60.79803" lon="4.9385">
        <ele>0.039127</ele>
        <time>2020-07-15T16:00:16.022Z</time>
      </trkpt>
      <trkpt lat="60.79803" lon="4.9392">
        <ele>0.037243</ele>
        <time>2020-07-15T16:00:22.114Z</time>
      </trkpt>
      <trkpt lat="60.79802" lon="4.9394">
        <ele>0.03679</ele>
        <time>2020-07-15T16:00:23.859Z</time>
      </trkpt>
      <trkpt lat="60.798" lon="4.93961">
        <ele>0.036317</ele>
        <time>2020-07-15T16:00:25.696Z</time>
      </trkpt>
      <trkpt lat="60.79778" lon="4.94035">
        <ele>0.034384</ele>
        <time>2020-07-15T16:00:33.189Z</time>
      </trkpt>
      <trkpt lat="60.79704" lon="4.9423">
        <ele>0.254339</ele>
        <time>2020-07-15T16:00:54.715Z</time>
      </trkpt>
      <trkpt lat="60.7969" lon="4.94289">
        <ele>0.454594</ele>
        <time>2020-07-15T16:01:00.862Z</time>
      </trkpt>
      <trkpt lat="60.79687" lon="4.94309">
        <ele>0.518325</ele>
        <time>2020-07-15T16:01:02.721Z</time>
      </trkpt>
      <trkpt lat="60.79685" lon="4.94335">
        <ele>0.597358</ele>
        <time>2020-07-15T16:01:05.069Z</time>
      </trkpt>
      <trkpt lat="60.79686" lon="4.94531">
        <ele>1.251335</ele>
        <time>2020-07-15T16:01:25.150Z</time>
      </trkpt>
      <trkpt lat="60.79684" lon="4.9456">
        <ele>1.461869</ele>
        <time>2020-07-15T16:01:28.231Z</time>
      </trkpt>
      <trkpt lat="60.79682" lon="4.94581">
        <ele>1.611564</ele>
        <time>2020-07-15T16:01:30.838Z</time>
      </trkpt>
      <trkpt lat="60.79675" lon="4.94626">
        <ele>1.956398</ele>
        <time>2020-07-15T16:01:35.915Z</time>
      </trkpt>
      <trkpt lat="60.7964" lon="4.94759">
        <ele>3.044812</ele>
        <time>2020-07-15T16:01:53.156Z</time>
      </trkpt>
      <trkpt lat="60.79619" lon="4.94846">
        <ele>3.743224</ele>
        <time>2020-07-15T16:02:04.381Z</time>
      </trkpt>
      <trkpt lat="60.79603" lon="4.94897">
        <ele>3.98131</ele>
        <time>2020-07-15T16:02:10.672Z</time>
      </trkpt>
      <trkpt lat="60.79569" lon="4.94955">
        <ele>4.278894</ele>
        <time>2020-07-15T16:02:19.324Z</time>
      </trkpt>
      <trkpt lat="60.79566" lon="4.94958">
        <ele>4.302996</ele>
        <time>2020-07-15T16:02:20.186Z</time>
      </trkpt>
      <trkpt lat="60.79555" lon="4.94969">
        <ele>4.386747</ele>
        <time>2020-07-15T16:02:22.397Z</time>
      </trkpt>
      <trkpt lat="60.79511" lon="4.94973">
        <ele>4.684168</ele>
        <time>2020-07-15T16:02:30.657Z</time>
      </trkpt>
      <trkpt lat="60.79468" lon="4.94973">
        <ele>4.971862</ele>
        <time>2020-07-15T16:02:38.824Z</time>
      </trkpt>
      <trkpt lat="60.79462" lon="4.94973">
        <ele>5.015873</ele>
        <time>2020-07-15T16:02:39.989Z</time>
      </trkpt>
      <trkpt lat="60.7943" lon="4.94983">
        <ele>5.671032</ele>
        <time>2020-07-15T16:02:46.582Z</time>
      </trkpt>
      <trkpt lat="60.79425" lon="4.94986">
        <ele>5.775479</ele>
        <time>2020-07-15T16:02:47.623Z</time>
      </trkpt>
      <trkpt lat="60.79413" lon="4.94994">
        <ele>6.035036</ele>
        <time>2020-07-15T16:02:50.021Z</time>
      </trkpt>
      <trkpt lat="60.7938" lon="4.9503">
        <ele>6.812212</ele>
        <time>2020-07-15T16:02:58.112Z</time>
      </trkpt>
      <trkpt lat="60.79378" lon="4.95034">
        <ele>6.873241</ele>
        <time>2020-07-15T16:02:58.838Z</time>
      </trkpt>
      <trkpt lat="60.79364" lon="4.95057">
        <ele>7.250649</ele>
        <time>2020-07-15T16:03:03.047Z</time>
      </trkpt>
      <trkpt lat="60.79296" lon="4.95167">
        <ele>9.498689</ele>
        <time>2020-07-15T16:03:26.701Z</time>
      </trkpt>
      <trkpt lat="60.79169" lon="4.95304">
        <ele>17.207298</ele>
        <time>2020-07-15T16:04:19.393Z</time>
      </trkpt>
      <trkpt lat="60.79148" lon="4.95333">
        <ele>18.563966</ele>
        <time>2020-07-15T16:04:28.970Z</time>
      </trkpt>
      <trkpt lat="60.79131" lon="4.9537">
        <ele>19.654937</ele>
        <time>2020-07-15T16:04:37.194Z</time>
      </trkpt>
      <trkpt lat="60.79127" lon="4.95384">
        <ele>20.023955</ele>
        <time>2020-07-15T16:04:40.991Z</time>
      </trkpt>
      <trkpt lat="60.79122" lon="4.95398">
        <ele>20.372113</ele>
        <time>2020-07-15T16:04:44.386Z</time>
      </trkpt>
      <trkpt lat="60.7909" lon="4.9551">
        <ele>23.145553</ele>
        <time>2020-07-15T16:05:05.598Z</time>
      </trkpt>
      <trkpt lat="60.7907" lon="4.95563">
        <ele>24.60046</ele>
        <time>2020-07-15T16:05:16.201Z</time>
      </trkpt>
      <trkpt lat="60.78816" lon="4.95924">
        <ele>31.20851</ele>
        <time>2020-07-15T16:06:29.932Z</time>
      </trkpt>
      <trkpt lat="60.78782" lon="4.95986">
        <ele>31.855735</ele>
        <time>2020-07-15T16:06:39.548Z</time>
      </trkpt>
      <trkpt lat="60.78749" lon="4.96086">
        <ele>32.619458</ele>
        <time>2020-07-15T16:06:51.797Z</time>
      </trkpt>
      <trkpt lat="60.78738" lon="4.96125">
        <ele>32.800892</ele>
        <time>2020-07-15T16:06:56.409Z</time>
      </trkpt>
      <trkpt lat="60.78713" lon="4.96212">
        <ele>33.210398</ele>
        <time>2020-07-15T16:07:06.759Z</time>
      </trkpt>
      <trkpt lat="60.78671" lon="4.96364">
        <ele>33.907487</ele>
        <time>2020-07-15T16:07:23.928Z</time>
      </trkpt>
      <trkpt lat="60.78663" lon="4.96397">
        <ele>34.018229</ele>
        <time>2020-07-15T16:07:27.707Z</time>
      </trkpt>
      <trkpt lat="60.7866" lon="4.96407">
        <ele>34.035189</ele>
        <time>2020-07-15T16:07:28.853Z</time>
      </trkpt>
      <trkpt lat="60.78573" lon="4.96736">
        <ele>34.397367</ele>
        <time>2020-07-15T16:08:03.068Z</time>
      </trkpt>
      <trkpt lat="60.78567" lon="4.96764">
        <ele>34.270833</ele>
        <time>2020-07-15T16:08:05.586Z</time>
      </trkpt>
      <trkpt lat="60.78556" lon="4.96813">
        <ele>34.05642</ele>
        <time>2020-07-15T16:08:09.921Z</time>
      </trkpt>
      <trkpt lat="60.78549" lon="4.96868">
        <ele>33.82792</ele>
        <time>2020-07-15T16:08:14.380Z</time>
      </trkpt>
      <trkpt lat="60.78548" lon="4.96881">
        <ele>33.77067</ele>
        <time>2020-07-15T16:08:15.511Z</time>
      </trkpt>
      <trkpt lat="60.78547" lon="4.96897">
        <ele>33.705817</ele>
        <time>2020-07-15T16:08:16.693Z</time>
      </trkpt>
      <trkpt lat="60.78553" lon="4.96968">
        <ele>33.417673</ele>
        <time>2020-07-15T16:08:22.126Z</time>
      </trkpt>
      <trkpt lat="60.78574" lon="4.97054">
        <ele>32.993622</ele>
        <time>2020-07-15T16:08:29.182Z</time>
      </trkpt>
      <trkpt lat="60.7862" lon="4.97132">
        <ele>31.353255</ele>
        <time>2020-07-15T16:08:37.546Z</time>
      </trkpt>
      <trkpt lat="60.78665" lon="4.97176">
        <ele>29.975691</ele>
        <time>2020-07-15T16:08:44.296Z</time>
      </trkpt>
      <trkpt lat="60.78726" lon="4.97206">
        <ele>28.238886</ele>
        <time>2020-07-15T16:08:52.535Z</time>
      </trkpt>
      <trkpt lat="60.78745" lon="4.97208">
        <ele>27.41206</ele>
        <time>2020-07-15T16:08:54.957Z</time>
      </trkpt>
      <trkpt lat="60.78922" lon="4.97181">
        <ele>18.585239</ele>
        <time>2020-07-15T16:09:16.147Z</time>
      </trkpt>
      <trkpt lat="60.78946" lon="4.97176">
        <ele>17.745107</ele>
        <time>2020-07-15T16:09:19.004Z</time>
      </trkpt>
      <trkpt lat="60.78957" lon="4.97174">
        <ele>17.348101</ele>
        <time>2020-07-15T16:09:20.303Z</time>
      </trkpt>
      <trkpt lat="60.79034" lon="4.97168">
        <ele>14.55989</ele>
        <time>2020-07-15T16:09:30.422Z</time>
      </trkpt>
      <trkpt lat="60.7904" lon="4.97169">
        <ele>14.347175</ele>
        <time>2020-07-15T16:09:31.095Z</time>
      </trkpt>
      <trkpt lat="60.7905" lon="4.97171">
        <ele>13.983166</ele>
        <time>2020-07-15T16:09:33.821Z</time>
      </trkpt>
      <trkpt lat="60.79114" lon="4.972">
        <ele>12.042673</ele>
        <time>2020-07-15T16:09:42.402Z</time>
      </trkpt>
      <trkpt lat="60.7915" lon="4.97229">
        <ele>11.30575</ele>
        <time>2020-07-15T16:09:48.091Z</time>
      </trkpt>
      <trkpt lat="60.79187" lon="4.97272">
        <ele>10.487673</ele>
        <time>2020-07-15T16:09:54.282Z</time>
      </trkpt>
      <trkpt lat="60.79199" lon="4.97288">
        <ele>10.208122</ele>
        <time>2020-07-15T16:09:56.076Z</time>
      </trkpt>
      <trkpt lat="60.79235" lon="4.97345">
        <ele>9.324686</ele>
        <time>2020-07-15T16:10:02.249Z</time>
      </trkpt>
      <trkpt lat="60.79329" lon="4.97488">
        <ele>10.797534</ele>
        <time>2020-07-15T16:10:24.317Z</time>
      </trkpt>
      <trkpt lat="60.79343" lon="4.97509">
        <ele>11.099906</ele>
        <time>2020-07-15T16:10:29.124Z</time>
      </trkpt>
      <trkpt lat="60.79351" lon="4.97519">
        <ele>11.254758</ele>
        <time>2020-07-15T16:10:30.794Z</time>
      </trkpt>
      <trkpt lat="60.7937" lon="4.97541">
        <ele>11.62722</ele>
        <time>2020-07-15T16:10:38.200Z</time>
      </trkpt>
      <trkpt lat="60.79395" lon="4.97564">
        <ele>12.088627</ele>
        <time>2020-07-15T16:10:46.567Z</time>
      </trkpt>
      <trkpt lat="60.79443" lon="4.97581">
        <ele>14.089249</ele>
        <time>2020-07-15T16:11:04.392Z</time>
      </trkpt>
      <trkpt lat="60.79484" lon="4.97574">
        <ele>15.809046</ele>
        <time>2020-07-15T16:11:19.060Z</time>
      </trkpt>
      <trkpt lat="60.79562" lon="4.97534">
        <ele>19.171464</ele>
        <time>2020-07-15T16:11:44.530Z</time>
      </trkpt>
      <trkpt lat="60.79577" lon="4.9753">
        <ele>19.55304</ele>
        <time>2020-07-15T16:11:48.374Z</time>
      </trkpt>
      <trkpt lat="60.7959" lon="4.97528">
        <ele>19.415905</ele>
        <time>2020-07-15T16:11:50.406Z</time>
      </trkpt>
      <trkpt lat="60.79635" lon="4.97532">
        <ele>18.937362</ele>
        <time>2020-07-15T16:11:58.893Z</time>
      </trkpt>
      <trkpt lat="60.7968" lon="4.97551">
        <ele>18.460415</ele>
        <time>2020-07-15T16:12:05.741Z</time>
      </trkpt>
      <trkpt lat="60.79865" lon="4.97695">
        <ele>13.847276</ele>
        <time>2020-07-15T16:12:31.708Z</time>
      </trkpt>
      <trkpt lat="60.79899" lon="4.97723">
        <ele>12.733022</ele>
        <time>2020-07-15T16:12:36.558Z</time>
      </trkpt>
      <trkpt lat="60.79988" lon="4.97794">
        <ele>10.399085</ele>
        <time>2020-07-15T16:12:49.415Z</time>
      </trkpt>
      <trkpt lat="60.80003" lon="4.97807">
        <ele>10.015644</ele>
        <time>2020-07-15T16:12:51.624Z</time>
      </trkpt>
      <trkpt lat="60.80073" lon="4.97854">
        <ele>8.304532</ele>
        <time>2020-07-15T16:13:01.892Z</time>
      </trkpt>
      <trkpt lat="60.80234" lon="4.97927">
        <ele>5.925488</ele>
        <time>2020-07-15T16:13:25.994Z</time>
      </trkpt>
      <trkpt lat="60.80239" lon="4.97931">
        <ele>5.848828</ele>
        <time>2020-07-15T16:13:26.766Z</time>
      </trkpt>
      <trkpt lat="60.80249" lon="4.97937">
        <ele>5.708966</ele>
        <time>2020-07-15T16:13:28.367Z</time>
      </trkpt>
      <trkpt lat="60.80289" lon="4.97974">
        <ele>5.655707</ele>
        <time>2020-07-15T16:13:35.798Z</time>
      </trkpt>
      <trkpt lat="60.80303" lon="4.9799">
        <ele>5.703063</ele>
        <time>2020-07-15T16:13:38.482Z</time>
      </trkpt>
      <trkpt lat="60.80305" lon="4.97981">
        <ele>5.716954</ele>
        <time>2020-07-15T16:13:39.292Z</time>
      </trkpt>
      <trkpt lat="60.8031" lon="4.9796">
        <ele>5.751352</ele>
        <time>2020-07-15T16:13:41.490Z</time>
      </trkpt>
      <trkpt lat="60.80312" lon="4.97964">
        <ele>5.759706</ele>
        <time>2020-07-15T16:13:42.230Z</time>
      </trkpt>
      <trkpt lat="60.80381" lon="4.98126">
        <ele>6.064974</ele>
        <time>2020-07-15T16:14:04.055Z</time>
      </trkpt>
      <trkpt lat="60.80436" lon="4.98313">
        <ele>7.037767</ele>
        <time>2020-07-15T16:14:27.755Z</time>
      </trkpt>
      <trkpt lat="60.80437" lon="4.98322">
        <ele>7.080568</ele>
        <time>2020-07-15T16:14:29.139Z</time>
      </trkpt>
      <trkpt lat="60.80438" lon="4.98331">
        <ele>7.124448</ele>
        <time>2020-07-15T16:14:30.033Z</time>
      </trkpt>
      <trkpt lat="60.80438" lon="4.98468">
        <ele>7.763571</ele>
        <time>2020-07-15T16:14:44.129Z</time>
      </trkpt>
      <trkpt lat="60.80426" lon="4.98638">
        <ele>8.216337</ele>
        <time>2020-07-15T16:15:00.810Z</time>
      </trkpt>
      <trkpt lat="60.80421" lon="4.98639">
        <ele>8.240349</ele>
        <time>2020-07-15T16:15:01.652Z</time>
      </trkpt>
      <trkpt lat="60.80415" lon="4.98635">
        <ele>8.272695</ele>
        <time>2020-07-15T16:15:02.659Z</time>
      </trkpt>
      <trkpt lat="60.80413" lon="4.98658">
        <ele>8.330098</ele>
        <time>2020-07-15T16:15:04.769Z</time>
      </trkpt>
      <trkpt lat="60.8038" lon="4.98979">
        <ele>10.283396</ele>
        <time>2020-07-15T16:15:37.126Z</time>
      </trkpt>
      <trkpt lat="60.80378" lon="4.99011">
        <ele>10.57951</ele>
        <time>2020-07-15T16:15:41.091Z</time>
      </trkpt>
      <trkpt lat="60.80357" lon="4.99268">
        <ele>13.531455</ele>
        <time>2020-07-15T16:16:15.579Z</time>
      </trkpt>
      <trkpt lat="60.80353" lon="4.99312">
        <ele>14.208295</ele>
        <time>2020-07-15T16:16:21.966Z</time>
      </trkpt>
      <trkpt lat="60.80339" lon="4.99477">
        <ele>16.757415</ele>
        <time>2020-07-15T16:16:45.084Z</time>
      </trkpt>
      <trkpt lat="60.80335" lon="4.99522">
        <ele>17.444697</ele>
        <time>2020-07-15T16:16:51.248Z</time>
      </trkpt>
      <trkpt lat="60.80318" lon="4.99727">
        <ele>20.239252</ele>
        <time>2020-07-15T16:17:18.962Z</time>
      </trkpt>
      <trkpt lat="60.80316" lon="4.99749">
        <ele>20.543933</ele>
        <time>2020-07-15T16:17:21.838Z</time>
      </trkpt>
      <trkpt lat="60.80314" lon="4.99766">
        <ele>20.768115</ele>
        <time>2020-07-15T16:17:24.203Z</time>
      </trkpt>
      <trkpt lat="60.80296" lon="4.9989">
        <ele>22.483513</ele>
        <time>2020-07-15T16:17:39.821Z</time>
      </trkpt>
      <trkpt lat="60.80268" lon="5.00012">
        <ele>24.156613</ele>
        <time>2020-07-15T16:17:56.947Z</time>
      </trkpt>
      <trkpt lat="60.8022" lon="5.00145">
        <ele>26.193992</ele>
        <time>2020-07-15T16:18:18.125Z</time>
      </trkpt>
      <trkpt lat="60.80176" lon="5.00248">
        <ele>27.654234</ele>
        <time>2020-07-15T16:18:35.676Z</time>
      </trkpt>
      <trkpt lat="60.80125" lon="5.00361">
        <ele>28.927227</ele>
        <time>2020-07-15T16:18:53.890Z</time>
      </trkpt>
      <trkpt lat="60.80128" lon="5.00379">
        <ele>29.082429</ele>
        <time>2020-07-15T16:18:55.963Z</time>
      </trkpt>
      <trkpt lat="60.80138" lon="5.0039">
        <ele>29.26631</ele>
        <time>2020-07-15T16:18:58.190Z</time>
      </trkpt>
      <trkpt lat="60.80143" lon="5.00392">
        <ele>29.35423</ele>
        <time>2020-07-15T16:18:59.304Z</time>
      </trkpt>
      <trkpt lat="60.80148" lon="5.00401">
        <ele>29.477743</ele>
        <time>2020-07-15T16:19:01.063Z</time>
      </trkpt>
      <trkpt lat="60.80198" lon="5.00476">
        <ele>30.25519</ele>
        <time>2020-07-15T16:19:13.698Z</time>
      </trkpt>
      <trkpt lat="60.8024" lon="5.00511">
        <ele>30.324921</ele>
        <time>2020-07-15T16:19:22.679Z</time>
      </trkpt>
      <trkpt lat="60.80257" lon="5.00521">
        <ele>30.351927</ele>
        <time>2020-07-15T16:19:25.966Z</time>
      </trkpt>
      <trkpt lat="60.8027" lon="5.00526">
        <ele>30.373311</ele>
        <time>2020-07-15T16:19:28.342Z</time>
      </trkpt>
      <trkpt lat="60.80305" lon="5.00532">
        <ele>30.425724</ele>
        <time>2020-07-15T16:19:34.286Z</time>
      </trkpt>
      <trkpt lat="60.80341" lon="5.00525">
        <ele>30.482487</ele>
        <time>2020-07-15T16:19:40.492Z</time>
      </trkpt>
      <trkpt lat="60.80454" lon="5.00451">
        <ele>30.058468</ele>
        <time>2020-07-15T16:20:00.167Z</time>
      </trkpt>
      <trkpt lat="60.80499" lon="5.00435">
        <ele>29.860623</ele>
        <time>2020-07-15T16:20:07.885Z</time>
      </trkpt>
      <trkpt lat="60.80544" lon="5.00439">
        <ele>29.610692</ele>
        <time>2020-07-15T16:20:15.325Z</time>
      </trkpt>
      <trkpt lat="60.80633" lon="5.00475">
        <ele>28.87132</ele>
        <time>2020-07-15T16:20:29.969Z</time>
      </trkpt>
      <trkpt lat="60.80677" lon="5.00482">
        <ele>28.517338</ele>
        <time>2020-07-15T16:20:36.732Z</time>
      </trkpt>
      <trkpt lat="60.80719" lon="5.00477">
        <ele>28.08855</ele>
        <time>2020-07-15T16:20:43.180Z</time>
      </trkpt>
      <trkpt lat="60.80808" lon="5.00444">
        <ele>26.733402</ele>
        <time>2020-07-15T16:20:56.522Z</time>
      </trkpt>
      <trkpt lat="60.80856" lon="5.0044">
        <ele>26.006414</ele>
        <time>2020-07-15T16:21:03.571Z</time>
      </trkpt>
      <trkpt lat="60.80901" lon="5.0045">
        <ele>25.189744</ele>
        <time>2020-07-15T16:21:10.146Z</time>
      </trkpt>
      <trkpt lat="60.80939" lon="5.00472">
        <ele>24.277751</ele>
        <time>2020-07-15T16:21:15.762Z</time>
      </trkpt>
      <trkpt lat="60.81128" lon="5.00616">
        <ele>18.221864</ele>
        <time>2020-07-15T16:21:42.966Z</time>
      </trkpt>
      <trkpt lat="60.81153" lon="5.00634">
        <ele>17.127323</ele>
        <time>2020-07-15T16:21:46.317Z</time>
      </trkpt>
      <trkpt lat="60.81162" lon="5.00642">
        <ele>16.743222</ele>
        <time>2020-07-15T16:21:47.495Z</time>
      </trkpt>
      <trkpt lat="60.81165" lon="5.00644">
        <ele>16.598704</ele>
        <time>2020-07-15T16:21:47.938Z</time>
      </trkpt>
      <trkpt lat="60.81197" lon="5.00667">
        <ele>15.23783</ele>
        <time>2020-07-15T16:21:52.036Z</time>
      </trkpt>
      <trkpt lat="60.81242" lon="5.0069">
        <ele>13.140035</ele>
        <time>2020-07-15T16:21:57.483Z</time>
      </trkpt>
      <trkpt lat="60.81276" lon="5.00694">
        <ele>11.373289</ele>
        <time>2020-07-15T16:22:01.439Z</time>
      </trkpt>
      <trkpt lat="60.81309" lon="5.00686">
        <ele>9.619526</ele>
        <time>2020-07-15T16:22:05.378Z</time>
      </trkpt>
      <trkpt lat="60.81342" lon="5.00667">
        <ele>7.829567</ele>
        <time>2020-07-15T16:22:09.433Z</time>
      </trkpt>
      <trkpt lat="60.81357" lon="5.00655">
        <ele>6.986314</ele>
        <time>2020-07-15T16:22:11.337Z</time>
      </trkpt>
      <trkpt lat="60.81365" lon="5.0065">
        <ele>6.553493</ele>
        <time>2020-07-15T16:22:12.406Z</time>
      </trkpt>
      <trkpt lat="60.81371" lon="5.00642">
        <ele>6.146326</ele>
        <time>2020-07-15T16:22:13.425Z</time>
      </trkpt>
      <trkpt lat="60.81378" lon="5.00625">
        <ele>5.583637</ele>
        <time>2020-07-15T16:22:14.748Z</time>
      </trkpt>
      <trkpt lat="60.8139" lon="5.006">
        <ele>4.699085</ele>
        <time>2020-07-15T16:22:16.852Z</time>
      </trkpt>
      <trkpt lat="60.81449" lon="5.005">
        <ele>2.993535</ele>
        <time>2020-07-15T16:22:26.834Z</time>
      </trkpt>
      <trkpt lat="60.81459" lon="5.00493">
        <ele>2.756394</ele>
        <time>2020-07-15T16:22:28.346Z</time>
      </trkpt>
      <trkpt lat="60.81472" lon="5.00487">
        <ele>2.479317</ele>
        <time>2020-07-15T16:22:29.976Z</time>
      </trkpt>
      <trkpt lat="60.81482" lon="5.0048">
        <ele>2.23411</ele>
        <time>2020-07-15T16:22:31.676Z</time>
      </trkpt>
      <trkpt lat="60.81513" lon="5.00463">
        <ele>1.539957</ele>
        <time>2020-07-15T16:22:36.152Z</time>
      </trkpt>
      <trkpt lat="60.8154" lon="5.00456">
        <ele>0.965953</ele>
        <time>2020-07-15T16:22:39.843Z</time>
      </trkpt>
      <trkpt lat="60.81593" lon="5.00461">
        <ele>0.594352</ele>
        <time>2020-07-15T16:22:47.229Z</time>
      </trkpt>
      <trkpt lat="60.81641" lon="5.00492">
        <ele>0.445862</ele>
        <time>2020-07-15T16:22:54.331Z</time>
      </trkpt>
      <trkpt lat="60.81693" lon="5.0055">
        <ele>0.275074</ele>
        <time>2020-07-15T16:23:02.485Z</time>
      </trkpt>
      <trkpt lat="60.81761" lon="5.0066">
        <ele>0.134204</ele>
        <time>2020-07-15T16:23:14.578Z</time>
      </trkpt>
      <trkpt lat="60.81829" lon="5.00833">
        <ele>0.02814</ele>
        <time>2020-07-15T16:23:29.715Z</time>
      </trkpt>
      <trkpt lat="60.81877" lon="5.0098">
        <ele>0.008902</ele>
        <time>2020-07-15T16:23:41.753Z</time>
      </trkpt>
      <trkpt lat="60.81935" lon="5.01108">
        <ele>0.001821</ele>
        <time>2020-07-15T16:23:53.619Z</time>
      </trkpt>
      <trkpt lat="60.81983" lon="5.01197">
        <time>2020-07-15T16:24:02.600Z</time>
      </trkpt>
      <trkpt lat="60.82048" lon="5.0126">
        <time>2020-07-15T16:24:12.608Z</time>
      </trkpt>
      <trkpt lat="60.82134" lon="5.01281">
        <time>2020-07-15T16:24:24.707Z</time>
      </trkpt>
      <trkpt lat="60.82224" lon="5.01265">
        <time>2020-07-15T16:24:37.209Z</time>
      </trkpt>
      <trkpt lat="60.8231" lon="5.01274">
        <time>2020-07-15T16:24:49.243Z</time>
      </trkpt>
      <trkpt lat="60.82386" lon="5.01332">
        <time>2020-07-15T16:25:00.518Z</time>
      </trkpt>
      <trkpt lat="60.82495" lon="5.01476">
        <time>2020-07-15T16:25:18.672Z</time>
      </trkpt>
      <trkpt lat="60.84929" lon="5.06058">
        <time>2020-07-15T16:32:59.054Z</time>
      </trkpt>
      <trkpt lat="60.85065" lon="5.06239">
        <time>2020-07-15T16:33:21.620Z</time>
      </trkpt>
      <trkpt lat="60.85212" lon="5.06377">
        <ele>0.014861</ele>
        <time>2020-07-15T16:33:44.177Z</time>
      </trkpt>
      <trkpt lat="60.85291" lon="5.06437">
        <ele>0.030753</ele>
        <time>2020-07-15T16:33:55.894Z</time>
      </trkpt>
      <trkpt lat="60.85385" lon="5.06475">
        <ele>0.211323</ele>
        <time>2020-07-15T16:34:09.182Z</time>
      </trkpt>
      <trkpt lat="60.85501" lon="5.06492">
        <ele>0.521335</ele>
        <time>2020-07-15T16:34:25.380Z</time>
      </trkpt>
      <trkpt lat="60.85566" lon="5.06471">
        <ele>0.879031</ele>
        <time>2020-07-15T16:34:34.553Z</time>
      </trkpt>
      <trkpt lat="60.85618" lon="5.06437">
        <ele>1.1745</ele>
        <time>2020-07-15T16:34:42.115Z</time>
      </trkpt>
      <trkpt lat="60.8567" lon="5.06396">
        <ele>1.398107</ele>
        <time>2020-07-15T16:34:49.929Z</time>
      </trkpt>
      <trkpt lat="60.85683" lon="5.06385">
        <ele>1.370715</ele>
        <time>2020-07-15T16:34:52.517Z</time>
      </trkpt>
      <trkpt lat="60.85708" lon="5.06366">
        <ele>1.319366</ele>
        <time>2020-07-15T16:34:57.356Z</time>
      </trkpt>
      <trkpt lat="60.85724" lon="5.06366">
        <ele>1.290218</ele>
        <time>2020-07-15T16:34:59.837Z</time>
      </trkpt>
      <trkpt lat="60.85736" lon="5.06393">
        <ele>1.254896</ele>
        <time>2020-07-15T16:35:03.224Z</time>
      </trkpt>
      <trkpt lat="60.85735" lon="5.06432">
        <ele>1.217662</ele>
        <time>2020-07-15T16:35:06.429Z</time>
      </trkpt>
      <trkpt lat="60.8572" lon="5.06458">
        <ele>1.180992</ele>
        <time>2020-07-15T16:35:09.948Z</time>
      </trkpt>
      <trkpt lat="60.85707" lon="5.06475">
        <ele>1.150624</ele>
        <time>2020-07-15T16:35:12.440Z</time>
      </trkpt>
      <trkpt lat="60.85678" lon="5.06513">
        <ele>1.084693</ele>
        <time>2020-07-15T16:35:18.101Z</time>
      </trkpt>
      <trkpt lat="60.85551" lon="5.0663">
        <ele>1.390193</ele>
        <time>2020-07-15T16:35:40.847Z</time>
      </trkpt>
      <trkpt lat="60.85527" lon="5.06657">
        <ele>1.455053</ele>
        <time>2020-07-15T16:35:46.716Z</time>
      </trkpt>
      <trkpt lat="60.85505" lon="5.0668">
        <ele>1.772829</ele>
        <time>2020-07-15T16:35:52.585Z</time>
      </trkpt>
      <trkpt lat="60.85495" lon="5.06692">
        <ele>2.391778</ele>
        <time>2020-07-15T16:35:55.687Z</time>
      </trkpt>
      <trkpt lat="60.85475" lon="5.06717">
        <ele>3.582783</ele>
        <time>2020-07-15T16:36:01.901Z</time>
      </trkpt>
      <trkpt lat="60.85465" lon="5.06732">
        <ele>4.257313</ele>
        <time>2020-07-15T16:36:05.634Z</time>
      </trkpt>
      <trkpt lat="60.85455" lon="5.06747">
        <ele>4.893543</ele>
        <time>2020-07-15T16:36:09.448Z</time>
      </trkpt>
      <trkpt lat="60.85441" lon="5.06769">
        <ele>5.785848</ele>
        <time>2020-07-15T16:36:14.411Z</time>
      </trkpt>
      <trkpt lat="60.8543" lon="5.06789">
        <ele>6.566287</ele>
        <time>2020-07-15T16:36:19.677Z</time>
      </trkpt>
      <trkpt lat="60.85359" lon="5.06929">
        <ele>11.995927</ele>
        <time>2020-07-15T16:37:01.123Z</time>
      </trkpt>
      <trkpt lat="60.85307" lon="5.07061">
        <ele>18.154476</ele>
        <time>2020-07-15T16:37:37.828Z</time>
      </trkpt>
      <trkpt lat="60.853" lon="5.07078">
        <ele>18.942104</ele>
        <time>2020-07-15T16:37:44.298Z</time>
      </trkpt>
      <trkpt lat="60.85294" lon="5.07094">
        <ele>19.654022</ele>
        <time>2020-07-15T16:37:47.887Z</time>
      </trkpt>
      <trkpt lat="60.85237" lon="5.0728">
        <ele>25.282499</ele>
        <time>2020-07-15T16:38:27.927Z</time>
      </trkpt>
      <trkpt lat="60.85175" lon="5.07549">
        <ele>28.500288</ele>
        <time>2020-07-15T16:38:59.068Z</time>
      </trkpt>
      <trkpt lat="60.85154" lon="5.07622">
        <ele>28.402686</ele>
        <time>2020-07-15T16:39:06.053Z</time>
      </trkpt>
      <trkpt lat="60.85108" lon="5.07734">
        <ele>28.231757</ele>
        <time>2020-07-15T16:39:17.921Z</time>
      </trkpt>
      <trkpt lat="60.84991" lon="5.07917">
        <ele>28.095076</ele>
        <time>2020-07-15T16:39:41.935Z</time>
      </trkpt>
      <trkpt lat="60.84953" lon="5.07988">
        <ele>28.091398</ele>
        <time>2020-07-15T16:39:50.890Z</time>
      </trkpt>
      <trkpt lat="60.849" lon="5.08131">
        <ele>29.592997</ele>
        <time>2020-07-15T16:40:09.011Z</time>
      </trkpt>
      <trkpt lat="60.84861" lon="5.08271">
        <ele>31.939301</ele>
        <time>2020-07-15T16:40:30.158Z</time>
      </trkpt>
      <trkpt lat="60.84854" lon="5.08304">
        <ele>32.455388</ele>
        <time>2020-07-15T16:40:35.483Z</time>
      </trkpt>
      <trkpt lat="60.84847" lon="5.08336">
        <ele>32.959512</ele>
        <time>2020-07-15T16:40:41.157Z</time>
      </trkpt>
      <trkpt lat="60.8482" lon="5.08504">
        <ele>38.369137</ele>
        <time>2020-07-15T16:41:13.572Z</time>
      </trkpt>
      <trkpt lat="60.84803" lon="5.08585">
        <ele>41.394957</ele>
        <time>2020-07-15T16:41:32.258Z</time>
      </trkpt>
      <trkpt lat="60.84774" lon="5.08676">
        <ele>45.114746</ele>
        <time>2020-07-15T16:41:56.044Z</time>
      </trkpt>
      <trkpt lat="60.84717" lon="5.08812">
        <ele>49.831049</ele>
        <time>2020-07-15T16:42:31.647Z</time>
      </trkpt>
      <trkpt lat="60.84698" lon="5.0887">
        <ele>51.581748</ele>
        <time>2020-07-15T16:42:43.565Z</time>
      </trkpt>
      <trkpt lat="60.84683" lon="5.0897">
        <ele>54.189433</ele>
        <time>2020-07-15T16:42:58.988Z</time>
      </trkpt>
      <trkpt lat="60.84683" lon="5.08989">
        <ele>54.642575</ele>
        <time>2020-07-15T16:43:01.813Z</time>
      </trkpt>
      <trkpt lat="60.84684" lon="5.09006">
        <ele>55.078553</ele>
        <time>2020-07-15T16:43:03.107Z</time>
      </trkpt>
      <trkpt lat="60.84697" lon="5.09071">
        <ele>55.3231</ele>
        <time>2020-07-15T16:43:10.987Z</time>
      </trkpt>
      <trkpt lat="60.84714" lon="5.09107">
        <ele>55.377053</ele>
        <time>2020-07-15T16:43:16.206Z</time>
      </trkpt>
      <trkpt lat="60.84802" lon="5.09215">
        <ele>55.601397</ele>
        <time>2020-07-15T16:43:32.447Z</time>
      </trkpt>
      <trkpt lat="60.84834" lon="5.09275">
        <ele>55.776565</ele>
        <time>2020-07-15T16:43:39.686Z</time>
      </trkpt>
      <trkpt lat="60.84885" lon="5.09346">
        <ele>56.140921</ele>
        <time>2020-07-15T16:43:50.785Z</time>
      </trkpt>
      <trkpt lat="60.84957" lon="5.09403">
        <ele>56.599208</ele>
        <time>2020-07-15T16:44:07.172Z</time>
      </trkpt>
      <trkpt lat="60.85076" lon="5.09439">
        <ele>58.692322</ele>
        <time>2020-07-15T16:44:35.061Z</time>
      </trkpt>
      <trkpt lat="60.85084" lon="5.09448">
        <ele>58.872608</ele>
        <time>2020-07-15T16:44:37.824Z</time>
      </trkpt>
      <trkpt lat="60.85091" lon="5.09457">
        <ele>59.044196</ele>
        <time>2020-07-15T16:44:40.395Z</time>
      </trkpt>
      <trkpt lat="60.8512" lon="5.09522">
        <ele>59.883203</ele>
        <time>2020-07-15T16:44:50.870Z</time>
      </trkpt>
      <trkpt lat="60.85132" lon="5.09605">
        <ele>60.48519</ele>
        <time>2020-07-15T16:45:01.155Z</time>
      </trkpt>
      <trkpt lat="60.85134" lon="5.09632">
        <ele>60.61248</ele>
        <time>2020-07-15T16:45:04.405Z</time>
      </trkpt>
      <trkpt lat="60.85133" lon="5.09644">
        <ele>60.671802</ele>
        <time>2020-07-15T16:45:06.741Z</time>
      </trkpt>
      <trkpt lat="60.8511" lon="5.09796">
        <ele>61.427283</ele>
        <time>2020-07-15T16:45:23.737Z</time>
      </trkpt>
      <trkpt lat="60.85063" lon="5.09965">
        <ele>61.025718</ele>
        <time>2020-07-15T16:45:39.810Z</time>
      </trkpt>
      <trkpt lat="60.85051" lon="5.1003">
        <ele>60.071956</ele>
        <time>2020-07-15T16:45:44.634Z</time>
      </trkpt>
      <trkpt lat="60.85046" lon="5.10061">
        <ele>59.620749</ele>
        <time>2020-07-15T16:45:46.719Z</time>
      </trkpt>
      <trkpt lat="60.85038" lon="5.10115">
        <ele>58.856534</ele>
        <time>2020-07-15T16:45:50.346Z</time>
      </trkpt>
      <trkpt lat="60.85021" lon="5.10304">
        <ele>55.503945</ele>
        <time>2020-07-15T16:46:01.989Z</time>
      </trkpt>
      <trkpt lat="60.85004" lon="5.10385">
        <ele>53.145445</ele>
        <time>2020-07-15T16:46:07.017Z</time>
      </trkpt>
      <trkpt lat="60.8495" lon="5.10567">
        <ele>47.381756</ele>
        <time>2020-07-15T16:46:19.321Z</time>
      </trkpt>
      <trkpt lat="60.84941" lon="5.10653">
        <ele>45.291959</ele>
        <time>2020-07-15T16:46:24.378Z</time>
      </trkpt>
      <trkpt lat="60.84941" lon="5.1076">
        <ele>42.8311</ele>
        <time>2020-07-15T16:46:30.608Z</time>
      </trkpt>
      <trkpt lat="60.84959" lon="5.10861">
        <ele>40.353508</ele>
        <time>2020-07-15T16:46:37.044Z</time>
      </trkpt>
      <trkpt lat="60.84982" lon="5.10935">
        <ele>38.411694</ele>
        <time>2020-07-15T16:46:42.463Z</time>
      </trkpt>
      <trkpt lat="60.85072" lon="5.11105">
        <ele>35.64647</ele>
        <time>2020-07-15T16:46:59.395Z</time>
      </trkpt>
      <trkpt lat="60.85076" lon="5.11109">
        <ele>35.547827</ele>
        <time>2020-07-15T16:47:00.104Z</time>
      </trkpt>
      <trkpt lat="60.85087" lon="5.11123">
        <ele>35.255554</ele>
        <time>2020-07-15T16:47:01.945Z</time>
      </trkpt>
      <trkpt lat="60.85162" lon="5.11217">
        <ele>33.842228</ele>
        <time>2020-07-15T16:47:14.875Z</time>
      </trkpt>
      <trkpt lat="60.85209" lon="5.11262">
        <ele>33.257147</ele>
        <time>2020-07-15T16:47:22.805Z</time>
      </trkpt>
      <trkpt lat="60.85221" lon="5.11269">
        <ele>33.108005</ele>
        <time>2020-07-15T16:47:24.652Z</time>
      </trkpt>
      <trkpt lat="60.85243" lon="5.11281">
        <ele>32.856585</ele>
        <time>2020-07-15T16:47:28.179Z</time>
      </trkpt>
      <trkpt lat="60.85373" lon="5.11301">
        <ele>32.621517</ele>
        <time>2020-07-15T16:47:49.500Z</time>
      </trkpt>
      <trkpt lat="60.85396" lon="5.11323">
        <ele>32.690136</ele>
        <time>2020-07-15T16:47:54.929Z</time>
      </trkpt>
      <trkpt lat="60.85412" lon="5.11356">
        <ele>32.750026</ele>
        <time>2020-07-15T16:47:59.420Z</time>
      </trkpt>
      <trkpt lat="60.85445" lon="5.1131">
        <ele>32.859469</ele>
        <time>2020-07-15T16:48:09.060Z</time>
      </trkpt>
      <trkpt lat="60.85506" lon="5.1127">
        <ele>32.261469</ele>
        <time>2020-07-15T16:48:21.842Z</time>
      </trkpt>
      <trkpt lat="60.85559" lon="5.11275">
        <ele>31.723031</ele>
        <time>2020-07-15T16:48:30.375Z</time>
      </trkpt>
      <trkpt lat="60.85574" lon="5.11282">
        <ele>31.563731</ele>
        <time>2020-07-15T16:48:32.810Z</time>
      </trkpt>
      <trkpt lat="60.856" lon="5.113">
        <ele>31.289455</ele>
        <time>2020-07-15T16:48:36.547Z</time>
      </trkpt>
      <trkpt lat="60.85627" lon="5.11323">
        <ele>30.800514</ele>
        <time>2020-07-15T16:48:40.243Z</time>
      </trkpt>
      <trkpt lat="60.8563" lon="5.11326">
        <ele>30.658318</ele>
        <time>2020-07-15T16:48:40.672Z</time>
      </trkpt>
      <trkpt lat="60.8565" lon="5.11343">
        <ele>29.683535</ele>
        <time>2020-07-15T16:48:43.340Z</time>
      </trkpt>
      <trkpt lat="60.85699" lon="5.11387">
        <ele>27.318378</ele>
        <time>2020-07-15T16:48:49.958Z</time>
      </trkpt>
      <trkpt lat="60.85773" lon="5.11449">
        <ele>23.808189</ele>
        <time>2020-07-15T16:48:59.451Z</time>
      </trkpt>
      <trkpt lat="60.8585" lon="5.11513">
        <ele>21.924635</ele>
        <time>2020-07-15T16:49:10.355Z</time>
      </trkpt>
      <trkpt lat="60.85989" lon="5.11625">
        <ele>19.760777</ele>
        <time>2020-07-15T16:49:34.597Z</time>
      </trkpt>
      <trkpt lat="60.8606" lon="5.11644">
        <ele>19.396502</ele>
        <time>2020-07-15T16:49:46.770Z</time>
      </trkpt>
      <trkpt lat="60.8611" lon="5.11645">
        <ele>19.144845</ele>
        <time>2020-07-15T16:49:54.849Z</time>
      </trkpt>
      <trkpt lat="60.86192" lon="5.11642">
        <ele>18.717788</ele>
        <time>2020-07-15T16:50:08.130Z</time>
      </trkpt>
      <trkpt lat="60.86204" lon="5.11642">
        <ele>18.659694</ele>
        <time>2020-07-15T16:50:09.936Z</time>
      </trkpt>
      <trkpt lat="60.86233" lon="5.11641">
        <ele>18.508748</ele>
        <time>2020-07-15T16:50:14.644Z</time>
      </trkpt>
      <trkpt lat="60.86312" lon="5.11654">
        <ele>18.095594</ele>
        <time>2020-07-15T16:50:27.928Z</time>
      </trkpt>
      <trkpt lat="60.86329" lon="5.1166">
        <ele>18.011138</ele>
        <time>2020-07-15T16:50:30.826Z</time>
      </trkpt>
      <trkpt lat="60.86356" lon="5.11674">
        <ele>17.876135</ele>
        <time>2020-07-15T16:50:35.615Z</time>
      </trkpt>
      <trkpt lat="60.86454" lon="5.11736">
        <ele>17.37941</ele>
        <time>2020-07-15T16:50:53.190Z</time>
      </trkpt>
      <trkpt lat="60.86476" lon="5.11748">
        <ele>17.268149</ele>
        <time>2020-07-15T16:50:57.047Z</time>
      </trkpt>
      <trkpt lat="60.86526" lon="5.11781">
        <ele>16.076932</ele>
        <time>2020-07-15T16:51:04.754Z</time>
      </trkpt>
      <trkpt lat="60.8658" lon="5.11813">
        <ele>14.591348</ele>
        <time>2020-07-15T16:51:12.437Z</time>
      </trkpt>
      <trkpt lat="60.86588" lon="5.11818">
        <ele>14.352789</ele>
        <time>2020-07-15T16:51:13.685Z</time>
      </trkpt>
      <trkpt lat="60.86627" lon="5.11827">
        <ele>13.334529</ele>
        <time>2020-07-15T16:51:18.733Z</time>
      </trkpt>
      <trkpt lat="60.86632" lon="5.11827">
        <ele>13.186602</ele>
        <time>2020-07-15T16:51:19.445Z</time>
      </trkpt>
      <trkpt lat="60.86641" lon="5.11828">
        <ele>12.964338</ele>
        <time>2020-07-15T16:51:20.450Z</time>
      </trkpt>
      <trkpt lat="60.86676" lon="5.11824">
        <ele>11.788774</ele>
        <time>2020-07-15T16:51:24.817Z</time>
      </trkpt>
      <trkpt lat="60.86743" lon="5.11794">
        <ele>8.920449</ele>
        <time>2020-07-15T16:51:33.245Z</time>
      </trkpt>
      <trkpt lat="60.86822" lon="5.11756">
        <ele>5.528129</ele>
        <time>2020-07-15T16:51:43.358Z</time>
      </trkpt>
      <trkpt lat="60.86843" lon="5.11747">
        <ele>4.814346</ele>
        <time>2020-07-15T16:51:46.124Z</time>
      </trkpt>
      <trkpt lat="60.86894" lon="5.11727">
        <ele>3.792184</ele>
        <time>2020-07-15T16:51:53.084Z</time>
      </trkpt>
      <trkpt lat="60.86935" lon="5.11735">
        <ele>2.984766</ele>
        <time>2020-07-15T16:51:58.783Z</time>
      </trkpt>
      <trkpt lat="60.86945" lon="5.11739">
        <ele>2.79975</ele>
        <time>2020-07-15T16:52:00.062Z</time>
      </trkpt>
      <trkpt lat="60.86993" lon="5.11758">
        <ele>1.835595</ele>
        <time>2020-07-15T16:52:07.706Z</time>
      </trkpt>
      <trkpt lat="60.87182" lon="5.1184">
        <ele>1.305431</ele>
        <time>2020-07-15T16:52:42.035Z</time>
      </trkpt>
      <trkpt lat="60.87196" lon="5.11847">
        <ele>1.299854</ele>
        <time>2020-07-15T16:52:44.736Z</time>
      </trkpt>
      <trkpt lat="60.87212" lon="5.11855">
        <ele>1.299577</ele>
        <time>2020-07-15T16:52:47.724Z</time>
      </trkpt>
      <trkpt lat="60.87392" lon="5.12082">
        <ele>1.352516</ele>
        <time>2020-07-15T16:53:25.298Z</time>
      </trkpt>
      <trkpt lat="60.87409" lon="5.12098">
        <ele>1.371</ele>
        <time>2020-07-15T16:53:28.533Z</time>
      </trkpt>
      <trkpt lat="60.87429" lon="5.12114">
        <ele>1.392247</ele>
        <time>2020-07-15T16:53:32.113Z</time>
      </trkpt>
      <trkpt lat="60.87522" lon="5.12151">
        <ele>1.627705</ele>
        <time>2020-07-15T16:53:49.667Z</time>
      </trkpt>
      <trkpt lat="60.87577" lon="5.1217">
        <ele>2.374465</ele>
        <time>2020-07-15T16:54:00.897Z</time>
      </trkpt>
      <trkpt lat="60.8759" lon="5.12176">
        <ele>2.549427</ele>
        <time>2020-07-15T16:54:03.860Z</time>
      </trkpt>
      <trkpt lat="60.87626" lon="5.12191">
        <ele>3.041878</ele>
        <time>2020-07-15T16:54:12.185Z</time>
      </trkpt>
      <trkpt lat="60.8765" lon="5.12214">
        <ele>3.402162</ele>
        <time>2020-07-15T16:54:18.500Z</time>
      </trkpt>
      <trkpt lat="60.8766" lon="5.12232">
        <ele>3.582302</ele>
        <time>2020-07-15T16:54:21.868Z</time>
      </trkpt>
      <trkpt lat="60.87674" lon="5.1228">
        <ele>3.950912</ele>
        <time>2020-07-15T16:54:29.315Z</time>
      </trkpt>
      <trkpt lat="60.87682" lon="5.1236">
        <ele>4.595228</ele>
        <time>2020-07-15T16:54:38.806Z</time>
      </trkpt>
      <trkpt lat="60.87681" lon="5.12555">
        <ele>6.116811</ele>
        <time>2020-07-15T16:55:00.708Z</time>
      </trkpt>
      <trkpt lat="60.87683" lon="5.12573">
        <ele>6.265851</ele>
        <time>2020-07-15T16:55:03.551Z</time>
      </trkpt>
      <trkpt lat="60.87684" lon="5.12582">
        <ele>6.334308</ele>
        <time>2020-07-15T16:55:04.084Z</time>
      </trkpt>
      <trkpt lat="60.87691" lon="5.12618">
        <ele>6.642236</ele>
        <time>2020-07-15T16:55:08.104Z</time>
      </trkpt>
      <trkpt lat="60.87708" lon="5.12662">
        <ele>6.891621</ele>
        <time>2020-07-15T16:55:13.677Z</time>
      </trkpt>
      <trkpt lat="60.8773" lon="5.12694">
        <ele>7.058358</ele>
        <time>2020-07-15T16:55:19.203Z</time>
      </trkpt>
      <trkpt lat="60.87774" lon="5.12735">
        <ele>7.362933</ele>
        <time>2020-07-15T16:55:28.799Z</time>
      </trkpt>
      <trkpt lat="60.87797" lon="5.1278">
        <ele>7.559004</ele>
        <time>2020-07-15T16:55:34.919Z</time>
      </trkpt>
      <trkpt lat="60.87819" lon="5.1285">
        <ele>7.811559</ele>
        <time>2020-07-15T16:55:42.861Z</time>
      </trkpt>
      <trkpt lat="60.87825" lon="5.12931">
        <ele>7.69389</ele>
        <time>2020-07-15T16:55:51.312Z</time>
      </trkpt>
      <trkpt lat="60.87819" lon="5.13236">
        <ele>6.569155</ele>
        <time>2020-07-15T16:56:14.429Z</time>
      </trkpt>
      <trkpt lat="60.87821" lon="5.13249">
        <ele>6.503534</ele>
        <time>2020-07-15T16:56:15.736Z</time>
      </trkpt>
      <trkpt lat="60.87823" lon="5.13262">
        <ele>6.378175</ele>
        <time>2020-07-15T16:56:16.483Z</time>
      </trkpt>
      <trkpt lat="60.87837" lon="5.13309">
        <ele>5.892133</ele>
        <time>2020-07-15T16:56:21.508Z</time>
      </trkpt>
      <trkpt lat="60.87872" lon="5.13349">
        <ele>5.16638</ele>
        <time>2020-07-15T16:56:27.078Z</time>
      </trkpt>
      <trkpt lat="60.87875" lon="5.1335">
        <ele>5.110078</ele>
        <time>2020-07-15T16:56:27.399Z</time>
      </trkpt>
      <trkpt lat="60.87886" lon="5.13352">
        <ele>4.921332</ele>
        <time>2020-07-15T16:56:28.998Z</time>
      </trkpt>
      <trkpt lat="60.87912" lon="5.13343">
        <ele>4.433009</ele>
        <time>2020-07-15T16:56:32.607Z</time>
      </trkpt>
      <trkpt lat="60.87986" lon="5.13277">
        <ele>3.51261</ele>
        <time>2020-07-15T16:56:44.607Z</time>
      </trkpt>
      <trkpt lat="60.88011" lon="5.13281">
        <ele>3.859842</ele>
        <time>2020-07-15T16:56:48.977Z</time>
      </trkpt>
      <trkpt lat="60.88038" lon="5.133">
        <ele>4.258051</ele>
        <time>2020-07-15T16:56:55.036Z</time>
      </trkpt>
      <trkpt lat="60.88067" lon="5.13356">
        <ele>4.815461</ele>
        <time>2020-07-15T16:57:04.724Z</time>
      </trkpt>
      <trkpt lat="60.88101" lon="5.13507">
        <ele>6.101983</ele>
        <time>2020-07-15T16:57:26.677Z</time>
      </trkpt>
      <trkpt lat="60.88116" lon="5.13553">
        <ele>6.860315</ele>
        <time>2020-07-15T16:57:33.240Z</time>
      </trkpt>
      <trkpt lat="60.88132" lon="5.13575">
        <ele>7.406711</ele>
        <time>2020-07-15T16:57:38.705Z</time>
      </trkpt>
      <trkpt lat="60.88152" lon="5.13585">
        <ele>8.003955</ele>
        <time>2020-07-15T16:57:43.982Z</time>
      </trkpt>
      <trkpt lat="60.88156" lon="5.13585">
        <ele>8.117468</ele>
        <time>2020-07-15T16:57:45.737Z</time>
      </trkpt>
      <trkpt lat="60.88161" lon="5.13586">
        <ele>8.247924</ele>
        <time>2020-07-15T16:57:46.741Z</time>
      </trkpt>
      <trkpt lat="60.88206" lon="5.13569">
        <ele>9.532275</ele>
        <time>2020-07-15T16:57:58.506Z</time>
      </trkpt>
      <trkpt lat="60.88442" lon="5.13436">
        <ele>17.192698</ele>
        <time>2020-07-15T16:59:06.322Z</time>
      </trkpt>
      <trkpt lat="60.88453" lon="5.13425">
        <ele>17.649385</ele>
        <time>2020-07-15T16:59:10.075Z</time>
      </trkpt>
      <trkpt lat="60.88532" lon="5.1334">
        <ele>21.013147</ele>
        <time>2020-07-15T16:59:38.732Z</time>
      </trkpt>
      <trkpt lat="60.88658" lon="5.13284">
        <ele>24.055936</ele>
        <time>2020-07-15T17:00:15.314Z</time>
      </trkpt>
      <trkpt lat="60.8868" lon="5.13253">
        <ele>24.372766</ele>
        <time>2020-07-15T17:00:20.877Z</time>
      </trkpt>
      <trkpt lat="60.88728" lon="5.13118">
        <ele>25.319766</ele>
        <time>2020-07-15T17:00:34.590Z</time>
      </trkpt>
      <trkpt lat="60.8875" lon="5.13088">
        <ele>25.04559</ele>
        <time>2020-07-15T17:00:38.715Z</time>
      </trkpt>
      <trkpt lat="60.88884" lon="5.13047">
        <ele>23.216891</ele>
        <time>2020-07-15T17:00:58.716Z</time>
      </trkpt>
      <trkpt lat="60.88924" lon="5.13053">
        <ele>22.449094</ele>
        <time>2020-07-15T17:01:04.624Z</time>
      </trkpt>
      <trkpt lat="60.88974" lon="5.13097">
        <ele>21.117892</ele>
        <time>2020-07-15T17:01:12.378Z</time>
      </trkpt>
      <trkpt lat="60.89061" lon="5.13271">
        <ele>17.862055</ele>
        <time>2020-07-15T17:01:28.632Z</time>
      </trkpt>
      <trkpt lat="60.89085" lon="5.13299">
        <ele>16.706414</ele>
        <time>2020-07-15T17:01:32.063Z</time>
      </trkpt>
      <trkpt lat="60.89111" lon="5.13311">
        <ele>15.564893</ele>
        <time>2020-07-15T17:01:35.402Z</time>
      </trkpt>
      <trkpt lat="60.89138" lon="5.13307">
        <ele>14.420133</ele>
        <time>2020-07-15T17:01:38.719Z</time>
      </trkpt>
      <trkpt lat="60.89152" lon="5.133">
        <ele>13.839314</ele>
        <time>2020-07-15T17:01:40.381Z</time>
      </trkpt>
      <trkpt lat="60.89175" lon="5.13273">
        <ele>12.704071</ele>
        <time>2020-07-15T17:01:43.566Z</time>
      </trkpt>
      <trkpt lat="60.89218" lon="5.13203">
        <ele>10.737336</ele>
        <time>2020-07-15T17:01:50.292Z</time>
      </trkpt>
      <trkpt lat="60.89272" lon="5.13079">
        <ele>9.607083</ele>
        <time>2020-07-15T17:02:01.246Z</time>
      </trkpt>
      <trkpt lat="60.89276" lon="5.13064">
        <ele>9.479951</ele>
        <time>2020-07-15T17:02:02.396Z</time>
      </trkpt>
      <trkpt lat="60.89285" lon="5.13032">
        <ele>9.227568</ele>
        <time>2020-07-15T17:02:05.651Z</time>
      </trkpt>
      <trkpt lat="60.89307" lon="5.12929">
        <ele>8.462155</ele>
        <time>2020-07-15T17:02:15.977Z</time>
      </trkpt>
      <trkpt lat="60.89314" lon="5.12895">
        <ele>8.840444</ele>
        <time>2020-07-15T17:02:20.681Z</time>
      </trkpt>
      <trkpt lat="60.89318" lon="5.12876">
        <ele>9.192101</ele>
        <time>2020-07-15T17:02:23.370Z</time>
      </trkpt>
      <trkpt lat="60.89333" lon="5.1283">
        <ele>10.170781</ele>
        <time>2020-07-15T17:02:30.355Z</time>
      </trkpt>
      <trkpt lat="60.89352" lon="5.12791">
        <ele>11.160947</ele>
        <time>2020-07-15T17:02:38.144Z</time>
      </trkpt>
      <trkpt lat="60.89375" lon="5.12761">
        <ele>12.161526</ele>
        <time>2020-07-15T17:02:47.223Z</time>
      </trkpt>
      <trkpt lat="60.89401" lon="5.12742">
        <ele>13.143077</ele>
        <time>2020-07-15T17:02:56.527Z</time>
      </trkpt>
      <trkpt lat="60.89639" lon="5.12626">
        <ele>23.628921</ele>
        <time>2020-07-15T17:04:14.745Z</time>
      </trkpt>
      <trkpt lat="60.89673" lon="5.12616">
        <ele>25.200762</ele>
        <time>2020-07-15T17:04:25.703Z</time>
      </trkpt>
      <trkpt lat="60.89706" lon="5.1263">
        <ele>26.743624</ele>
        <time>2020-07-15T17:04:36.698Z</time>
      </trkpt>
      <trkpt lat="60.89726" lon="5.12654">
        <ele>27.770706</ele>
        <time>2020-07-15T17:04:44.083Z</time>
      </trkpt>
      <trkpt lat="60.89748" lon="5.127">
        <ele>29.221823</ele>
        <time>2020-07-15T17:04:54.668Z</time>
      </trkpt>
      <trkpt lat="60.89797" lon="5.12899">
        <ele>32.889442</ele>
        <time>2020-07-15T17:05:30.397Z</time>
      </trkpt>
      <trkpt lat="60.89827" lon="5.12955">
        <ele>33.947168</ele>
        <time>2020-07-15T17:05:41.826Z</time>
      </trkpt>
      <trkpt lat="60.89861" lon="5.13002">
        <ele>35.022445</ele>
        <time>2020-07-15T17:05:51.718Z</time>
      </trkpt>
      <trkpt lat="60.89914" lon="5.13028">
        <ele>35.127083</ele>
        <time>2020-07-15T17:06:01.778Z</time>
      </trkpt>
      <trkpt lat="60.90104" lon="5.13055">
        <ele>28.661598</ele>
        <time>2020-07-15T17:06:25.799Z</time>
      </trkpt>
      <trkpt lat="60.90131" lon="5.13069">
        <ele>27.477573</ele>
        <time>2020-07-15T17:06:29.033Z</time>
      </trkpt>
      <trkpt lat="60.90155" lon="5.13093">
        <ele>26.305654</ele>
        <time>2020-07-15T17:06:32.260Z</time>
      </trkpt>
      <trkpt lat="60.90187" lon="5.13145">
        <ele>24.540692</ele>
        <time>2020-07-15T17:06:37.190Z</time>
      </trkpt>
      <trkpt lat="60.90203" lon="5.13191">
        <ele>23.358353</ele>
        <time>2020-07-15T17:06:40.572Z</time>
      </trkpt>
      <trkpt lat="60.90246" lon="5.13363">
        <ele>21.589591</ele>
        <time>2020-07-15T17:06:53.230Z</time>
      </trkpt>
      <trkpt lat="60.90265" lon="5.13403">
        <ele>21.314472</ele>
        <time>2020-07-15T17:06:57.342Z</time>
      </trkpt>
      <trkpt lat="60.90287" lon="5.13434">
        <ele>21.036736</ele>
        <time>2020-07-15T17:07:01.912Z</time>
      </trkpt>
      <trkpt lat="60.90313" lon="5.13455">
        <ele>20.755608</ele>
        <time>2020-07-15T17:07:07.181Z</time>
      </trkpt>
      <trkpt lat="60.90474" lon="5.13516">
        <ele>22.744633</ele>
        <time>2020-07-15T17:07:45.553Z</time>
      </trkpt>
      <trkpt lat="60.90513" lon="5.13539">
        <ele>23.436056</ele>
        <time>2020-07-15T17:07:55.950Z</time>
      </trkpt>
      <trkpt lat="60.90674" lon="5.13689">
        <ele>25.272053</ele>
        <time>2020-07-15T17:08:33.594Z</time>
      </trkpt>
      <trkpt lat="60.90696" lon="5.13704">
        <ele>25.508269</ele>
        <time>2020-07-15T17:08:37.683Z</time>
      </trkpt>
      <trkpt lat="60.907" lon="5.13706">
        <ele>25.542491</ele>
        <time>2020-07-15T17:08:38.285Z</time>
      </trkpt>
      <trkpt lat="60.90712" lon="5.13715">
        <ele>25.674556</ele>
        <time>2020-07-15T17:08:40.184Z</time>
      </trkpt>
      <trkpt lat="60.90778" lon="5.13752">
        <ele>26.350435</ele>
        <time>2020-07-15T17:08:53.532Z</time>
      </trkpt>
      <trkpt lat="60.90855" lon="5.13796">
        <ele>27.209981</ele>
        <time>2020-07-15T17:09:10.166Z</time>
      </trkpt>
      <trkpt lat="60.9087" lon="5.13806">
        <ele>27.930494</ele>
        <time>2020-07-15T17:09:15.113Z</time>
      </trkpt>
      <trkpt lat="60.90923" lon="5.13825">
        <ele>30.329826</ele>
        <time>2020-07-15T17:09:32.002Z</time>
      </trkpt>
      <trkpt lat="60.90977" lon="5.13807">
        <ele>32.75542</ele>
        <time>2020-07-15T17:09:50.591Z</time>
      </trkpt>
      <trkpt lat="60.91007" lon="5.13782">
        <ele>34.2066</ele>
        <time>2020-07-15T17:10:02.530Z</time>
      </trkpt>
      <trkpt lat="60.91015" lon="5.13775">
        <ele>34.587076</ele>
        <time>2020-07-15T17:10:05.737Z</time>
      </trkpt>
      <trkpt lat="60.91026" lon="5.1376">
        <ele>35.168997</ele>
        <time>2020-07-15T17:10:11.382Z</time>
      </trkpt>
      <trkpt lat="60.91131" lon="5.1363">
        <ele>39.436703</ele>
        <time>2020-07-15T17:10:50.902Z</time>
      </trkpt>
      <trkpt lat="60.9115" lon="5.13608">
        <ele>40.199226</ele>
        <time>2020-07-15T17:10:57.282Z</time>
      </trkpt>
      <trkpt lat="60.91154" lon="5.13603">
        <ele>40.361214</ele>
        <time>2020-07-15T17:10:58.270Z</time>
      </trkpt>
      <trkpt lat="60.91201" lon="5.13545">
        <ele>40.788855</ele>
        <time>2020-07-15T17:11:09.165Z</time>
      </trkpt>
      <trkpt lat="60.91331" lon="5.1339">
        <ele>37.080714</ele>
        <time>2020-07-15T17:11:28.835Z</time>
      </trkpt>
      <trkpt lat="60.91346" lon="5.13377">
        <ele>36.46505</ele>
        <time>2020-07-15T17:11:30.834Z</time>
      </trkpt>
      <trkpt lat="60.91356" lon="5.13369">
        <ele>36.008681</ele>
        <time>2020-07-15T17:11:32.063Z</time>
      </trkpt>
      <trkpt lat="60.91421" lon="5.1333">
        <ele>33.080995</ele>
        <time>2020-07-15T17:11:40.319Z</time>
      </trkpt>
      <trkpt lat="60.91442" lon="5.13321">
        <ele>32.165117</ele>
        <time>2020-07-15T17:11:42.938Z</time>
      </trkpt>
      <trkpt lat="60.91461" lon="5.13313">
        <ele>31.316976</ele>
        <time>2020-07-15T17:11:45.268Z</time>
      </trkpt>
      <trkpt lat="60.91528" lon="5.1328">
        <ele>28.758446</ele>
        <time>2020-07-15T17:11:54.178Z</time>
      </trkpt>
      <trkpt lat="60.91563" lon="5.13271">
        <ele>27.925222</ele>
        <time>2020-07-15T17:11:59.356Z</time>
      </trkpt>
      <trkpt lat="60.91589" lon="5.13283">
        <ele>27.299114</ele>
        <time>2020-07-15T17:12:02.725Z</time>
      </trkpt>
      <trkpt lat="60.91619" lon="5.13311">
        <ele>26.535969</ele>
        <time>2020-07-15T17:12:07.429Z</time>
      </trkpt>
      <trkpt lat="60.91642" lon="5.13336">
        <ele>25.930611</ele>
        <time>2020-07-15T17:12:11.564Z</time>
      </trkpt>
      <trkpt lat="60.91655" lon="5.13351">
        <ele>25.579354</ele>
        <time>2020-07-15T17:12:13.471Z</time>
      </trkpt>
      <trkpt lat="60.91663" lon="5.13357">
        <ele>25.384835</ele>
        <time>2020-07-15T17:12:15.224Z</time>
      </trkpt>
      <trkpt lat="60.91668" lon="5.13361">
        <ele>25.258614</ele>
        <time>2020-07-15T17:12:16.111Z</time>
      </trkpt>
      <trkpt lat="60.91708" lon="5.13368">
        <ele>24.264134</ele>
        <time>2020-07-15T17:12:21.934Z</time>
      </trkpt>
      <trkpt lat="60.91719" lon="5.13363">
        <ele>23.987695</ele>
        <time>2020-07-15T17:12:23.673Z</time>
      </trkpt>
      <trkpt lat="60.91721" lon="5.13362">
        <ele>23.915379</ele>
        <time>2020-07-15T17:12:23.966Z</time>
      </trkpt>
      <trkpt lat="60.91806" lon="5.1327">
        <ele>21.515688</ele>
        <time>2020-07-15T17:12:37.532Z</time>
      </trkpt>
      <trkpt lat="60.92006" lon="5.1319">
        <ele>14.038478</ele>
        <time>2020-07-15T17:13:03.379Z</time>
      </trkpt>
      <trkpt lat="60.92031" lon="5.13167">
        <ele>12.991987</ele>
        <time>2020-07-15T17:13:06.705Z</time>
      </trkpt>
      <trkpt lat="60.92087" lon="5.13087">
        <ele>10.472542</ele>
        <time>2020-07-15T17:13:15.011Z</time>
      </trkpt>
      <trkpt lat="60.92112" lon="5.13067">
        <ele>9.473568</ele>
        <time>2020-07-15T17:13:18.370Z</time>
      </trkpt>
      <trkpt lat="60.92138" lon="5.13058">
        <ele>8.469185</ele>
        <time>2020-07-15T17:13:21.789Z</time>
      </trkpt>
      <trkpt lat="60.92203" lon="5.13069">
        <ele>6.83843</ele>
        <time>2020-07-15T17:13:30.327Z</time>
      </trkpt>
      <trkpt lat="60.92342" lon="5.13032">
        <ele>7.833189</ele>
        <time>2020-07-15T17:13:57.668Z</time>
      </trkpt>
      <trkpt lat="60.92395" lon="5.13047">
        <ele>9.485522</ele>
        <time>2020-07-15T17:14:15.492Z</time>
      </trkpt>
      <trkpt lat="60.92472" lon="5.13104">
        <ele>13.350974</ele>
        <time>2020-07-15T17:14:44.625Z</time>
      </trkpt>
      <trkpt lat="60.92516" lon="5.1317">
        <ele>15.919975</ele>
        <time>2020-07-15T17:15:04.440Z</time>
      </trkpt>
      <trkpt lat="60.92594" lon="5.13325">
        <ele>17.161305</ele>
        <time>2020-07-15T17:15:34.484Z</time>
      </trkpt>
      <trkpt lat="60.92618" lon="5.13351">
        <ele>17.346507</ele>
        <time>2020-07-15T17:15:38.962Z</time>
      </trkpt>
      <trkpt lat="60.92631" lon="5.13357">
        <ele>17.440745</ele>
        <time>2020-07-15T17:15:41.027Z</time>
      </trkpt>
      <trkpt lat="60.92672" lon="5.13352">
        <ele>17.716785</ele>
        <time>2020-07-15T17:15:46.362Z</time>
      </trkpt>
      <trkpt lat="60.92732" lon="5.1329">
        <ele>14.918736</ele>
        <time>2020-07-15T17:15:54.527Z</time>
      </trkpt>
      <trkpt lat="60.92835" lon="5.13222">
        <ele>10.191869</ele>
        <time>2020-07-15T17:16:07.706Z</time>
      </trkpt>
      <trkpt lat="60.92846" lon="5.13217">
        <ele>9.827711</ele>
        <time>2020-07-15T17:16:09.011Z</time>
      </trkpt>
      <trkpt lat="60.92848" lon="5.13215">
        <ele>9.785708</ele>
        <time>2020-07-15T17:16:09.705Z</time>
      </trkpt>
      <trkpt lat="60.92889" lon="5.13212">
        <ele>9.097985</ele>
        <time>2020-07-15T17:16:15.153Z</time>
      </trkpt>
      <trkpt lat="60.9294" lon="5.13247">
        <ele>8.173217</ele>
        <time>2020-07-15T17:16:23.336Z</time>
      </trkpt>
      <trkpt lat="60.92962" lon="5.1328">
        <ele>7.713071</ele>
        <time>2020-07-15T17:16:27.869Z</time>
      </trkpt>
      <trkpt lat="60.93028" lon="5.1342">
        <ele>6.228786</ele>
        <time>2020-07-15T17:16:43.075Z</time>
      </trkpt>
      <trkpt lat="60.93039" lon="5.13431">
        <ele>6.061762</ele>
        <time>2020-07-15T17:16:45.372Z</time>
      </trkpt>
      <trkpt lat="60.93053" lon="5.13443">
        <ele>5.843025</ele>
        <time>2020-07-15T17:16:47.541Z</time>
      </trkpt>
      <trkpt lat="60.93066" lon="5.13452">
        <ele>5.654111</ele>
        <time>2020-07-15T17:16:49.602Z</time>
      </trkpt>
      <trkpt lat="60.93128" lon="5.13492">
        <ele>4.731984</ele>
        <time>2020-07-15T17:16:59.049Z</time>
      </trkpt>
      <trkpt lat="60.93131" lon="5.13495">
        <ele>4.68488</ele>
        <time>2020-07-15T17:16:59.470Z</time>
      </trkpt>
      <trkpt lat="60.93291" lon="5.13555">
        <ele>1.996263</ele>
        <time>2020-07-15T17:17:22.166Z</time>
      </trkpt>
      <trkpt lat="60.93313" lon="5.13558">
        <ele>1.623554</ele>
        <time>2020-07-15T17:17:25.604Z</time>
      </trkpt>
      <trkpt lat="60.93318" lon="5.13559">
        <ele>1.529704</ele>
        <time>2020-07-15T17:17:26.486Z</time>
      </trkpt>
      <trkpt lat="60.93323" lon="5.13558">
        <ele>1.4566</ele>
        <time>2020-07-15T17:17:27.185Z</time>
      </trkpt>
      <trkpt lat="60.93332" lon="5.13557">
        <ele>1.303427</ele>
        <time>2020-07-15T17:17:28.589Z</time>
      </trkpt>
      <trkpt lat="60.93488" lon="5.1339">
        <ele>0.615648</ele>
        <time>2020-07-15T17:17:58.230Z</time>
      </trkpt>
      <trkpt lat="60.93515" lon="5.13381">
        <ele>0.616239</ele>
        <time>2020-07-15T17:18:03.186Z</time>
      </trkpt>
      <trkpt lat="60.93528" lon="5.13386">
        <ele>0.634888</ele>
        <time>2020-07-15T17:18:05.664Z</time>
      </trkpt>
      <trkpt lat="60.93552" lon="5.13412">
        <ele>0.672241</ele>
        <time>2020-07-15T17:18:10.649Z</time>
      </trkpt>
      <trkpt lat="60.93569" lon="5.13455">
        <ele>0.709501</ele>
        <time>2020-07-15T17:18:15.643Z</time>
      </trkpt>
      <trkpt lat="60.93573" lon="5.13526">
        <ele>0.757085</ele>
        <time>2020-07-15T17:18:22.024Z</time>
      </trkpt>
      <trkpt lat="60.93568" lon="5.13564">
        <ele>0.783863</ele>
        <time>2020-07-15T17:18:25.609Z</time>
      </trkpt>
      <trkpt lat="60.93553" lon="5.13611">
        <ele>0.821339</ele>
        <time>2020-07-15T17:18:30.638Z</time>
      </trkpt>
      <trkpt lat="60.93537" lon="5.13648">
        <ele>0.912845</ele>
        <time>2020-07-15T17:18:35.143Z</time>
      </trkpt>
      <trkpt lat="60.93526" lon="5.13673">
        <ele>1.011729</ele>
        <time>2020-07-15T17:18:38.179Z</time>
      </trkpt>
      <trkpt lat="60.93509" lon="5.13717">
        <ele>1.174713</ele>
        <time>2020-07-15T17:18:43.293Z</time>
      </trkpt>
      <trkpt lat="60.93508" lon="5.13724">
        <ele>1.196736</ele>
        <time>2020-07-15T17:18:43.989Z</time>
      </trkpt>
      <trkpt lat="60.93503" lon="5.13742">
        <ele>1.25599</ele>
        <time>2020-07-15T17:18:45.840Z</time>
      </trkpt>
      <trkpt lat="60.93492" lon="5.13823">
        <ele>1.500302</ele>
        <time>2020-07-15T17:18:53.633Z</time>
      </trkpt>
      <trkpt lat="60.93484" lon="5.13934">
        <ele>1.827846</ele>
        <time>2020-07-15T17:19:04.815Z</time>
      </trkpt>
      <trkpt lat="60.93481" lon="5.13979">
        <ele>2.144353</ele>
        <time>2020-07-15T17:19:09.469Z</time>
      </trkpt>
      <trkpt lat="60.93478" lon="5.14017">
        <ele>2.696457</ele>
        <time>2020-07-15T17:19:13.685Z</time>
      </trkpt>
      <trkpt lat="60.93477" lon="5.14064">
        <ele>3.393148</ele>
        <time>2020-07-15T17:19:18.607Z</time>
      </trkpt>
      <trkpt lat="60.93479" lon="5.14085">
        <ele>3.699448</ele>
        <time>2020-07-15T17:19:21.025Z</time>
      </trkpt>
      <trkpt lat="60.93484" lon="5.14126">
        <ele>4.320714</ele>
        <time>2020-07-15T17:19:26.622Z</time>
      </trkpt>
      <trkpt lat="60.93488" lon="5.14147">
        <ele>4.648737</ele>
        <time>2020-07-15T17:19:29.583Z</time>
      </trkpt>
      <trkpt lat="60.93496" lon="5.14177">
        <ele>5.145406</ele>
        <time>2020-07-15T17:19:34.488Z</time>
      </trkpt>
      <trkpt lat="60.93499" lon="5.14185">
        <ele>5.294808</ele>
        <time>2020-07-15T17:19:35.765Z</time>
      </trkpt>
      <trkpt lat="60.93513" lon="5.14221">
        <ele>5.970241</ele>
        <time>2020-07-15T17:19:42.644Z</time>
      </trkpt>
      <trkpt lat="60.93556" lon="5.14329">
        <ele>8.244097</ele>
        <time>2020-07-15T17:20:04.991Z</time>
      </trkpt>
      <trkpt lat="60.93557" lon="5.14334">
        <ele>8.349829</ele>
        <time>2020-07-15T17:20:06.298Z</time>
      </trkpt>
      <trkpt lat="60.93582" lon="5.14394">
        <ele>9.876341</ele>
        <time>2020-07-15T17:20:19.018Z</time>
      </trkpt>
      <trkpt lat="60.93622" lon="5.14468">
        <ele>12.039968</ele>
        <time>2020-07-15T17:20:35.439Z</time>
      </trkpt>
      <trkpt lat="60.93625" lon="5.14472">
        <ele>12.181734</ele>
        <time>2020-07-15T17:20:37.424Z</time>
      </trkpt>
      <trkpt lat="60.9363" lon="5.14477">
        <ele>12.404587</ele>
        <time>2020-07-15T17:20:38.787Z</time>
      </trkpt>
      <trkpt lat="60.93634" lon="5.14481">
        <ele>12.574003</ele>
        <time>2020-07-15T17:20:40.130Z</time>
      </trkpt>
      <trkpt lat="60.93673" lon="5.14506">
        <ele>14.225418</ele>
        <time>2020-07-15T17:20:52.514Z</time>
      </trkpt>
      <trkpt lat="60.93682" lon="5.14507">
        <ele>14.543135</ele>
        <time>2020-07-15T17:20:54.775Z</time>
      </trkpt>
      <trkpt lat="60.93687" lon="5.14508">
        <ele>14.56108</ele>
        <time>2020-07-15T17:20:55.884Z</time>
      </trkpt>
      <trkpt lat="60.93727" lon="5.14498">
        <ele>14.714812</ele>
        <time>2020-07-15T17:21:06.046Z</time>
      </trkpt>
      <trkpt lat="60.93817" lon="5.14433">
        <ele>15.078504</ele>
        <time>2020-07-15T17:21:24.409Z</time>
      </trkpt>
      <trkpt lat="60.93878" lon="5.1437">
        <ele>14.470343</ele>
        <time>2020-07-15T17:21:33.700Z</time>
      </trkpt>
      <trkpt lat="60.93923" lon="5.14308">
        <ele>13.100688</ele>
        <time>2020-07-15T17:21:40.802Z</time>
      </trkpt>
      <trkpt lat="60.93941" lon="5.14277">
        <ele>12.503636</ele>
        <time>2020-07-15T17:21:43.967Z</time>
      </trkpt>
      <trkpt lat="60.93953" lon="5.14253">
        <ele>12.080464</ele>
        <time>2020-07-15T17:21:46.116Z</time>
      </trkpt>
      <trkpt lat="60.94014" lon="5.14138">
        <ele>11.264272</ele>
        <time>2020-07-15T17:21:57.273Z</time>
      </trkpt>
      <trkpt lat="60.94024" lon="5.1412">
        <ele>11.556155</ele>
        <time>2020-07-15T17:21:59.406Z</time>
      </trkpt>
      <trkpt lat="60.94035" lon="5.14105">
        <ele>11.827716</ele>
        <time>2020-07-15T17:22:01.599Z</time>
      </trkpt>
      <trkpt lat="60.94073" lon="5.14075">
        <ele>12.672939</ele>
        <time>2020-07-15T17:22:12.029Z</time>
      </trkpt>
      <trkpt lat="60.94155" lon="5.1407">
        <ele>14.383342</ele>
        <time>2020-07-15T17:22:38.228Z</time>
      </trkpt>
      <trkpt lat="60.9416" lon="5.14067">
        <ele>14.499036</ele>
        <time>2020-07-15T17:22:39.813Z</time>
      </trkpt>
      <trkpt lat="60.9417" lon="5.1406">
        <ele>14.863944</ele>
        <time>2020-07-15T17:22:45.582Z</time>
      </trkpt>
      <trkpt lat="60.94194" lon="5.14038">
        <ele>15.707438</ele>
        <time>2020-07-15T17:22:52.104Z</time>
      </trkpt>
      <trkpt lat="60.94198" lon="5.14033">
        <ele>15.865383</ele>
        <time>2020-07-15T17:22:54.032Z</time>
      </trkpt>
      <trkpt lat="60.94206" lon="5.14024">
        <ele>16.161479</ele>
        <time>2020-07-15T17:22:59.030Z</time>
      </trkpt>
      <trkpt lat="60.94227" lon="5.1399">
        <ele>17.054498</ele>
        <time>2020-07-15T17:23:04.663Z</time>
      </trkpt>
      <trkpt lat="60.94232" lon="5.1398">
        <ele>17.276281</ele>
        <time>2020-07-15T17:23:08.368Z</time>
      </trkpt>
      <trkpt lat="60.94243" lon="5.13958">
        <ele>17.780016</ele>
        <time>2020-07-15T17:23:10.714Z</time>
      </trkpt>
      <trkpt lat="60.94281" lon="5.13885">
        <ele>19.498495</ele>
        <time>2020-07-15T17:23:26.860Z</time>
      </trkpt>
      <trkpt lat="60.94331" lon="5.13791">
        <ele>21.237801</ele>
        <time>2020-07-15T17:23:42.333Z</time>
      </trkpt>
      <trkpt lat="60.9434" lon="5.13773">
        <ele>21.506244</ele>
        <time>2020-07-15T17:23:45.041Z</time>
      </trkpt>
      <trkpt lat="60.94409" lon="5.13652">
        <ele>23.442704</ele>
        <time>2020-07-15T17:24:02.430Z</time>
      </trkpt>
      <trkpt lat="60.94455" lon="5.13609">
        <ele>25.631555</ele>
        <time>2020-07-15T17:24:18.462Z</time>
      </trkpt>
      <trkpt lat="60.94504" lon="5.13585">
        <ele>30.268615</ele>
        <time>2020-07-15T17:24:40.656Z</time>
      </trkpt>
      <trkpt lat="60.94659" lon="5.13568">
        <ele>45.330304</ele>
        <time>2020-07-15T17:26:03.872Z</time>
      </trkpt>
      <trkpt lat="60.9471" lon="5.1357">
        <ele>50.918935</ele>
        <time>2020-07-15T17:26:33.303Z</time>
      </trkpt>
      <trkpt lat="60.94763" lon="5.13598">
        <ele>56.937344</ele>
        <time>2020-07-15T17:27:03.264Z</time>
      </trkpt>
      <trkpt lat="60.94817" lon="5.13659">
        <ele>61.772833</ele>
        <time>2020-07-15T17:27:32.315Z</time>
      </trkpt>
      <trkpt lat="60.94848" lon="5.13713">
        <ele>63.552394</ele>
        <time>2020-07-15T17:27:48.522Z</time>
      </trkpt>
      <trkpt lat="60.9488" lon="5.138">
        <ele>65.909441</ele>
        <time>2020-07-15T17:28:06.154Z</time>
      </trkpt>
      <trkpt lat="60.9497" lon="5.14108">
        <ele>66.461942</ele>
        <time>2020-07-15T17:28:34.120Z</time>
      </trkpt>
      <trkpt lat="60.94993" lon="5.14204">
        <ele>65.575337</ele>
        <time>2020-07-15T17:28:40.805Z</time>
      </trkpt>
      <trkpt lat="60.94997" lon="5.14259">
        <ele>64.873103</ele>
        <time>2020-07-15T17:28:44.263Z</time>
      </trkpt>
      <trkpt lat="60.94996" lon="5.14345">
        <ele>63.525272</ele>
        <time>2020-07-15T17:28:49.539Z</time>
      </trkpt>
      <trkpt lat="60.94971" lon="5.14622">
        <ele>59.572697</ele>
        <time>2020-07-15T17:29:07.418Z</time>
      </trkpt>
      <trkpt lat="60.94964" lon="5.14677">
        <ele>59.582188</ele>
        <time>2020-07-15T17:29:11.432Z</time>
      </trkpt>
      <trkpt lat="60.94961" lon="5.14715">
        <ele>59.588661</ele>
        <time>2020-07-15T17:29:14.256Z</time>
      </trkpt>
      <trkpt lat="60.9496" lon="5.14794">
        <ele>59.602123</ele>
        <time>2020-07-15T17:29:20.896Z</time>
      </trkpt>
      <trkpt lat="60.94973" lon="5.14913">
        <ele>59.622581</ele>
        <time>2020-07-15T17:29:33.618Z</time>
      </trkpt>
      <trkpt lat="60.94995" lon="5.14988">
        <ele>60.483698</ele>
        <time>2020-07-15T17:29:44.889Z</time>
      </trkpt>
      <trkpt lat="60.95045" lon="5.15107">
        <ele>63.532629</ele>
        <time>2020-07-15T17:30:08.291Z</time>
      </trkpt>
      <trkpt lat="60.95072" lon="5.15153">
        <ele>64.913147</ele>
        <time>2020-07-15T17:30:19.673Z</time>
      </trkpt>
      <trkpt lat="60.95348" lon="5.15518">
        <ele>80.21892</ele>
        <time>2020-07-15T17:32:09.035Z</time>
      </trkpt>
      <trkpt lat="60.95428" lon="5.15658">
        <ele>85.267362</ele>
        <time>2020-07-15T17:32:42.129Z</time>
      </trkpt>
      <trkpt lat="60.9553" lon="5.1578">
        <ele>91.59732</ele>
        <time>2020-07-15T17:33:22.913Z</time>
      </trkpt>
      <trkpt lat="60.95556" lon="5.1583">
        <ele>93.50283</ele>
        <time>2020-07-15T17:33:36.372Z</time>
      </trkpt>
      <trkpt lat="60.95599" lon="5.15998">
        <ele>100.72959</ele>
        <time>2020-07-15T17:34:13.903Z</time>
      </trkpt>
      <trkpt lat="60.95623" lon="5.16058">
        <ele>103.689965</ele>
        <time>2020-07-15T17:34:30.186Z</time>
      </trkpt>
      <trkpt lat="60.95661" lon="5.16127">
        <ele>107.629389</ele>
        <time>2020-07-15T17:34:54.263Z</time>
      </trkpt>
      <trkpt lat="60.9574" lon="5.16214">
        <ele>115.424171</ele>
        <time>2020-07-15T17:35:38.084Z</time>
      </trkpt>
      <trkpt lat="60.95802" lon="5.16283">
        <ele>121.466964</ele>
        <time>2020-07-15T17:36:09.319Z</time>
      </trkpt>
      <trkpt lat="60.95817" lon="5.16305">
        <ele>123.065361</ele>
        <time>2020-07-15T17:36:17.370Z</time>
      </trkpt>
      <trkpt lat="60.9583" lon="5.16329">
        <ele>123.972762</ele>
        <time>2020-07-15T17:36:24.244Z</time>
      </trkpt>
      <trkpt lat="60.95848" lon="5.16391">
        <ele>125.705473</ele>
        <time>2020-07-15T17:36:37.851Z</time>
      </trkpt>
      <trkpt lat="60.95866" lon="5.16522">
        <ele>128.961532</ele>
        <time>2020-07-15T17:37:00.377Z</time>
      </trkpt>
      <trkpt lat="60.95877" lon="5.16568">
        <ele>130.200156</ele>
        <time>2020-07-15T17:37:07.923Z</time>
      </trkpt>
      <trkpt lat="60.95906" lon="5.16612">
        <ele>131.988327</ele>
        <time>2020-07-15T17:37:16.957Z</time>
      </trkpt>
      <trkpt lat="60.95964" lon="5.16634">
        <ele>133.085868</ele>
        <time>2020-07-15T17:37:32.214Z</time>
      </trkpt>
      <trkpt lat="60.95994" lon="5.16649">
        <ele>133.648061</ele>
        <time>2020-07-15T17:37:40.015Z</time>
      </trkpt>
      <trkpt lat="60.96005" lon="5.16656">
        <ele>133.858289</ele>
        <time>2020-07-15T17:37:43.167Z</time>
      </trkpt>
      <trkpt lat="60.96051" lon="5.16702">
        <ele>134.795031</ele>
        <time>2020-07-15T17:37:55.727Z</time>
      </trkpt>
      <trkpt lat="60.96063" lon="5.16713">
        <ele>135.032547</ele>
        <time>2020-07-15T17:37:59.145Z</time>
      </trkpt>
      <trkpt lat="60.96306" lon="5.16931">
        <ele>126.943612</ele>
        <time>2020-07-15T17:38:41.384Z</time>
      </trkpt>
      <trkpt lat="60.96536" lon="5.1714">
        <ele>95.686967</ele>
        <time>2020-07-15T17:39:08.765Z</time>
      </trkpt>
      <trkpt lat="60.96548" lon="5.17151">
        <ele>93.70355</ele>
        <time>2020-07-15T17:39:10.254Z</time>
      </trkpt>
      <trkpt lat="60.96562" lon="5.17163">
        <ele>91.499632</ele>
        <time>2020-07-15T17:39:11.795Z</time>
      </trkpt>
      <trkpt lat="60.96608" lon="5.17223">
        <ele>86.498116</ele>
        <time>2020-07-15T17:39:17.557Z</time>
      </trkpt>
      <trkpt lat="60.96626" lon="5.17261">
        <ele>84.441257</ele>
        <time>2020-07-15T17:39:20.308Z</time>
      </trkpt>
      <trkpt lat="60.96645" lon="5.17319">
        <ele>81.725856</ele>
        <time>2020-07-15T17:39:24.065Z</time>
      </trkpt>
      <trkpt lat="60.96662" lon="5.17412">
        <ele>77.837965</ele>
        <time>2020-07-15T17:39:29.919Z</time>
      </trkpt>
      <trkpt lat="60.96668" lon="5.175">
        <ele>75.134849</ele>
        <time>2020-07-15T17:39:37.137Z</time>
      </trkpt>
      <trkpt lat="60.96659" lon="5.17796">
        <ele>70.508746</ele>
        <time>2020-07-15T17:39:57.449Z</time>
      </trkpt>
      <trkpt lat="60.96666" lon="5.18002">
        <ele>61.255023</ele>
        <time>2020-07-15T17:40:08.727Z</time>
      </trkpt>
      <trkpt lat="60.96683" lon="5.18094">
        <ele>56.060673</ele>
        <time>2020-07-15T17:40:13.825Z</time>
      </trkpt>
      <trkpt lat="60.96734" lon="5.1824">
        <ele>45.244958</ele>
        <time>2020-07-15T17:40:22.905Z</time>
      </trkpt>
      <trkpt lat="60.96744" lon="5.18295">
        <ele>40.959098</ele>
        <time>2020-07-15T17:40:25.902Z</time>
      </trkpt>
      <trkpt lat="60.96741" lon="5.18372">
        <ele>35.423745</ele>
        <time>2020-07-15T17:40:29.726Z</time>
      </trkpt>
      <trkpt lat="60.96697" lon="5.18568">
        <ele>21.45976</ele>
        <time>2020-07-15T17:40:40.670Z</time>
      </trkpt>
      <trkpt lat="60.96694" lon="5.18594">
        <ele>20.38541</ele>
        <time>2020-07-15T17:40:42.030Z</time>
      </trkpt>
      <trkpt lat="60.96691" lon="5.18616">
        <ele>19.465247</ele>
        <time>2020-07-15T17:40:43.231Z</time>
      </trkpt>
      <trkpt lat="60.9669" lon="5.18639">
        <ele>18.545028</ele>
        <time>2020-07-15T17:40:44.510Z</time>
      </trkpt>
      <trkpt lat="60.9669" lon="5.18646">
        <ele>18.268983</ele>
        <time>2020-07-15T17:40:44.851Z</time>
      </trkpt>
      <trkpt lat="60.96694" lon="5.18711">
        <ele>15.642729</ele>
        <time>2020-07-15T17:40:48.498Z</time>
      </trkpt>
      <trkpt lat="60.967" lon="5.18819">
        <ele>11.310683</ele>
        <time>2020-07-15T17:40:54.565Z</time>
      </trkpt>
      <trkpt lat="60.96706" lon="5.18912">
        <ele>8.859717</ele>
        <time>2020-07-15T17:41:00.379Z</time>
      </trkpt>
      <trkpt lat="60.96709" lon="5.1893">
        <ele>8.955483</ele>
        <time>2020-07-15T17:41:02.486Z</time>
      </trkpt>
      <trkpt lat="60.96713" lon="5.18948">
        <ele>9.054627</ele>
        <time>2020-07-15T17:41:03.864Z</time>
      </trkpt>
      <trkpt lat="60.96732" lon="5.18999">
        <ele>9.374769</ele>
        <time>2020-07-15T17:41:11.168Z</time>
      </trkpt>
      <trkpt lat="60.96792" lon="5.19147">
        <ele>10.327064</ele>
        <time>2020-07-15T17:41:37.729Z</time>
      </trkpt>
      <trkpt lat="60.96827" lon="5.19321">
        <ele>9.695837</ele>
        <time>2020-07-15T17:41:56.481Z</time>
      </trkpt>
      <trkpt lat="60.96854" lon="5.19381">
        <ele>9.203017</ele>
        <time>2020-07-15T17:42:02.310Z</time>
      </trkpt>
      <trkpt lat="60.9686" lon="5.19385">
        <ele>9.131253</ele>
        <time>2020-07-15T17:42:03.432Z</time>
      </trkpt>
      <trkpt lat="60.96867" lon="5.19391">
        <ele>9.037712</ele>
        <time>2020-07-15T17:42:04.358Z</time>
      </trkpt>
      <trkpt lat="60.969" lon="5.19381">
        <ele>8.624156</ele>
        <time>2020-07-15T17:42:08.852Z</time>
      </trkpt>
      <trkpt lat="60.96906" lon="5.19374">
        <ele>8.53766</ele>
        <time>2020-07-15T17:42:09.680Z</time>
      </trkpt>
      <trkpt lat="60.96912" lon="5.19368">
        <ele>8.4616</ele>
        <time>2020-07-15T17:42:10.369Z</time>
      </trkpt>
      <trkpt lat="60.96927" lon="5.1933">
        <ele>7.876278</ele>
        <time>2020-07-15T17:42:13.656Z</time>
      </trkpt>
      <trkpt lat="60.96933" lon="5.1929">
        <ele>7.196254</ele>
        <time>2020-07-15T17:42:16.122Z</time>
      </trkpt>
      <trkpt lat="60.96926" lon="5.19147">
        <ele>4.850005</ele>
        <time>2020-07-15T17:42:24.708Z</time>
      </trkpt>
      <trkpt lat="60.96933" lon="5.19072">
        <ele>3.610146</ele>
        <time>2020-07-15T17:42:29.422Z</time>
      </trkpt>
      <trkpt lat="60.96942" lon="5.19028">
        <ele>2.824752</ele>
        <time>2020-07-15T17:42:32.844Z</time>
      </trkpt>
      <trkpt lat="60.96991" lon="5.18874">
        <ele>3.078193</ele>
        <time>2020-07-15T17:42:46.719Z</time>
      </trkpt>
      <trkpt lat="60.97072" lon="5.18739">
        <ele>4.200585</ele>
        <time>2020-07-15T17:43:12.428Z</time>
      </trkpt>
      <trkpt lat="60.97116" lon="5.18602">
        <ele>8.770598</ele>
        <time>2020-07-15T17:43:39.655Z</time>
      </trkpt>
      <trkpt lat="60.97121" lon="5.18591">
        <ele>9.201215</ele>
        <time>2020-07-15T17:43:41.376Z</time>
      </trkpt>
      <trkpt lat="60.97126" lon="5.18581">
        <ele>9.564852</ele>
        <time>2020-07-15T17:43:46.322Z</time>
      </trkpt>
      <trkpt lat="60.97161" lon="5.18535">
        <ele>11.99982</ele>
        <time>2020-07-15T17:44:02.259Z</time>
      </trkpt>
      <trkpt lat="60.9719" lon="5.18519">
        <ele>13.748193</ele>
        <time>2020-07-15T17:44:14.819Z</time>
      </trkpt>
      <trkpt lat="60.97214" lon="5.18519">
        <ele>15.112226</ele>
        <time>2020-07-15T17:44:23.151Z</time>
      </trkpt>
      <trkpt lat="60.97243" lon="5.18532">
        <ele>16.677186</ele>
        <time>2020-07-15T17:44:36.260Z</time>
      </trkpt>
      <trkpt lat="60.97367" lon="5.18631">
        <ele>23.738124</ele>
        <time>2020-07-15T17:45:23.337Z</time>
      </trkpt>
      <trkpt lat="60.97379" lon="5.18638">
        <ele>24.246202</ele>
        <time>2020-07-15T17:45:26.197Z</time>
      </trkpt>
      <trkpt lat="60.97398" lon="5.18654">
        <ele>24.44297</ele>
        <time>2020-07-15T17:45:31.496Z</time>
      </trkpt>
      <trkpt lat="60.97404" lon="5.1866">
        <ele>24.511849</ele>
        <time>2020-07-15T17:45:33.404Z</time>
      </trkpt>
      <trkpt lat="60.97417" lon="5.1867">
        <ele>24.640445</ele>
        <time>2020-07-15T17:45:36.372Z</time>
      </trkpt>
      <trkpt lat="60.97439" lon="5.18686">
        <ele>24.867505</ele>
        <time>2020-07-15T17:45:41.706Z</time>
      </trkpt>
      <trkpt lat="60.97632" lon="5.18831">
        <ele>26.22191</ele>
        <time>2020-07-15T17:46:17.377Z</time>
      </trkpt>
      <trkpt lat="60.97763" lon="5.18846">
        <ele>26.77251</ele>
        <time>2020-07-15T17:46:43.882Z</time>
      </trkpt>
      <trkpt lat="60.97869" lon="5.18892">
        <ele>27.473966</ele>
        <time>2020-07-15T17:47:07.620Z</time>
      </trkpt>
      <trkpt lat="60.97977" lon="5.18856">
        <ele>26.413502</ele>
        <time>2020-07-15T17:47:24.845Z</time>
      </trkpt>
      <trkpt lat="60.97982" lon="5.18853">
        <ele>26.333314</ele>
        <time>2020-07-15T17:47:25.485Z</time>
      </trkpt>
      <trkpt lat="60.97996" lon="5.18844">
        <ele>26.114808</ele>
        <time>2020-07-15T17:47:27.595Z</time>
      </trkpt>
      <trkpt lat="60.98022" lon="5.18829">
        <ele>25.702311</ele>
        <time>2020-07-15T17:47:31.566Z</time>
      </trkpt>
      <trkpt lat="60.98064" lon="5.188">
        <ele>25.03818</ele>
        <time>2020-07-15T17:47:37.747Z</time>
      </trkpt>
      <trkpt lat="60.98123" lon="5.18763">
        <ele>23.720985</ele>
        <time>2020-07-15T17:47:45.910Z</time>
      </trkpt>
      <trkpt lat="60.98194" lon="5.18714">
        <ele>22.064233</ele>
        <time>2020-07-15T17:47:56.051Z</time>
      </trkpt>
      <trkpt lat="60.98252" lon="5.18674">
        <ele>21.050372</ele>
        <time>2020-07-15T17:48:04.792Z</time>
      </trkpt>
      <trkpt lat="60.98275" lon="5.1866">
        <ele>21.250903</ele>
        <time>2020-07-15T17:48:08.383Z</time>
      </trkpt>
      <trkpt lat="60.98345" lon="5.18612">
        <ele>21.878283</ele>
        <time>2020-07-15T17:48:22.829Z</time>
      </trkpt>
      <trkpt lat="60.9836" lon="5.18602">
        <ele>22.011646</ele>
        <time>2020-07-15T17:48:26.623Z</time>
      </trkpt>
      <trkpt lat="60.98412" lon="5.18569">
        <ele>22.47625</ele>
        <time>2020-07-15T17:48:40.054Z</time>
      </trkpt>
      <trkpt lat="60.98423" lon="5.1856">
        <ele>22.758046</ele>
        <time>2020-07-15T17:48:44.184Z</time>
      </trkpt>
      <trkpt lat="60.98476" lon="5.18535">
        <ele>24.119063</ele>
        <time>2020-07-15T17:48:59.850Z</time>
      </trkpt>
      <trkpt lat="60.98531" lon="5.1853">
        <ele>25.496673</ele>
        <time>2020-07-15T17:49:15.857Z</time>
      </trkpt>
      <trkpt lat="60.98563" lon="5.1852">
        <ele>26.312421</ele>
        <time>2020-07-15T17:49:23.958Z</time>
      </trkpt>
      <trkpt lat="60.98579" lon="5.18511">
        <ele>26.732375</ele>
        <time>2020-07-15T17:49:26.840Z</time>
      </trkpt>
      <trkpt lat="60.98596" lon="5.18499">
        <ele>26.961972</ele>
        <time>2020-07-15T17:49:31.130Z</time>
      </trkpt>
      <trkpt lat="60.98634" lon="5.18465">
        <ele>26.80609</ele>
        <time>2020-07-15T17:49:38.574Z</time>
      </trkpt>
      <trkpt lat="60.9864" lon="5.1846">
        <ele>26.781869</ele>
        <time>2020-07-15T17:49:39.364Z</time>
      </trkpt>
      <trkpt lat="60.98706" lon="5.18401">
        <ele>26.5084</ele>
        <time>2020-07-15T17:49:50.920Z</time>
      </trkpt>
      <trkpt lat="60.98777" lon="5.18304">
        <ele>26.698586</ele>
        <time>2020-07-15T17:50:04.042Z</time>
      </trkpt>
      <trkpt lat="60.98803" lon="5.18294">
        <ele>27.007869</ele>
        <time>2020-07-15T17:50:09.264Z</time>
      </trkpt>
      <trkpt lat="60.98828" lon="5.18301">
        <ele>27.302091</ele>
        <time>2020-07-15T17:50:14.698Z</time>
      </trkpt>
      <trkpt lat="60.98851" lon="5.18323">
        <ele>27.606866</ele>
        <time>2020-07-15T17:50:20.795Z</time>
      </trkpt>
      <trkpt lat="60.98936" lon="5.18477">
        <ele>29.022005</ele>
        <time>2020-07-15T17:50:49.362Z</time>
      </trkpt>
      <trkpt lat="60.98963" lon="5.18515">
        <ele>29.484682</ele>
        <time>2020-07-15T17:50:58.065Z</time>
      </trkpt>
      <trkpt lat="60.99236" lon="5.18845">
        <ele>30.509652</ele>
        <time>2020-07-15T17:52:00.796Z</time>
      </trkpt>
      <trkpt lat="60.9926" lon="5.18867">
        <ele>29.566184</ele>
        <time>2020-07-15T17:52:04.335Z</time>
      </trkpt>
      <trkpt lat="60.993" lon="5.18885">
        <ele>28.116047</ele>
        <time>2020-07-15T17:52:09.481Z</time>
      </trkpt>
      <trkpt lat="60.99332" lon="5.18887">
        <ele>26.95699</ele>
        <time>2020-07-15T17:52:13.397Z</time>
      </trkpt>
      <trkpt lat="60.9939" lon="5.18876">
        <ele>24.653494</ele>
        <time>2020-07-15T17:52:20.162Z</time>
      </trkpt>
      <trkpt lat="60.99483" lon="5.18889">
        <ele>19.063701</ele>
        <time>2020-07-15T17:52:30.979Z</time>
      </trkpt>
      <trkpt lat="60.99519" lon="5.18866">
        <ele>16.843173</ele>
        <time>2020-07-15T17:52:35.355Z</time>
      </trkpt>
      <trkpt lat="60.99537" lon="5.18829">
        <ele>15.303166</ele>
        <time>2020-07-15T17:52:38.429Z</time>
      </trkpt>
      <trkpt lat="60.99543" lon="5.18803">
        <ele>14.505734</ele>
        <time>2020-07-15T17:52:40.098Z</time>
      </trkpt>
      <trkpt lat="60.99559" lon="5.1865">
        <ele>13.696675</ele>
        <time>2020-07-15T17:52:49.913Z</time>
      </trkpt>
      <trkpt lat="60.99579" lon="5.18548">
        <ele>13.129349</ele>
        <time>2020-07-15T17:52:58.775Z</time>
      </trkpt>
      <trkpt lat="60.99608" lon="5.18492">
        <ele>12.703075</ele>
        <time>2020-07-15T17:53:08.221Z</time>
      </trkpt>
      <trkpt lat="60.99645" lon="5.1847">
        <ele>13.803028</ele>
        <time>2020-07-15T17:53:18.780Z</time>
      </trkpt>
      <trkpt lat="60.99673" lon="5.1847">
        <ele>15.028408</ele>
        <time>2020-07-15T17:53:27.530Z</time>
      </trkpt>
      <trkpt lat="60.99719" lon="5.18485">
        <ele>17.062429</ele>
        <time>2020-07-15T17:53:43.039Z</time>
      </trkpt>
      <trkpt lat="60.99767" lon="5.18528">
        <ele>19.326748</ele>
        <time>2020-07-15T17:54:01.507Z</time>
      </trkpt>
      <trkpt lat="60.99808" lon="5.18589">
        <ele>21.253002</ele>
        <time>2020-07-15T17:54:19.530Z</time>
      </trkpt>
      <trkpt lat="60.99923" lon="5.18796">
        <ele>26.342372</ele>
        <time>2020-07-15T17:55:02.318Z</time>
      </trkpt>
      <trkpt lat="60.99957" lon="5.18836">
        <ele>27.09872</ele>
        <time>2020-07-15T17:55:09.647Z</time>
      </trkpt>
      <trkpt lat="60.99989" lon="5.18848">
        <ele>27.71381</ele>
        <time>2020-07-15T17:55:16.561Z</time>
      </trkpt>
      <trkpt lat="61.00009" lon="5.18844">
        <ele>28.092919</ele>
        <time>2020-07-15T17:55:21.445Z</time>
      </trkpt>
      <trkpt lat="61.00039" lon="5.18823">
        <ele>28.703548</ele>
        <time>2020-07-15T17:55:30.033Z</time>
      </trkpt>
      <trkpt lat="61.00063" lon="5.18794">
        <ele>29.235323</ele>
        <time>2020-07-15T17:55:37.885Z</time>
      </trkpt>
      <trkpt lat="61.0007" lon="5.18782">
        <ele>29.419683</ele>
        <time>2020-07-15T17:55:39.147Z</time>
      </trkpt>
      <trkpt lat="61.00073" lon="5.18777">
        <ele>29.489935</ele>
        <time>2020-07-15T17:55:39.705Z</time>
      </trkpt>
      <trkpt lat="61.00094" lon="5.18825">
        <ele>29.957917</ele>
        <time>2020-07-15T17:55:47.616Z</time>
      </trkpt>
      <trkpt lat="61.00107" lon="5.18853">
        <ele>30.141816</ele>
        <time>2020-07-15T17:55:51.600Z</time>
      </trkpt>
      <trkpt lat="61.0011" lon="5.1886">
        <ele>30.189514</ele>
        <time>2020-07-15T17:55:54.510Z</time>
      </trkpt>
      <trkpt lat="61.00134" lon="5.18915">
        <ele>30.541937</ele>
        <time>2020-07-15T17:56:02.918Z</time>
      </trkpt>
      <trkpt lat="61.00147" lon="5.1894">
        <ele>30.717205</ele>
        <time>2020-07-15T17:56:05.709Z</time>
      </trkpt>
      <trkpt lat="61.00166" lon="5.18963">
        <ele>30.94033</ele>
        <time>2020-07-15T17:56:12.370Z</time>
      </trkpt>
      <trkpt lat="61.00256" lon="5.18954">
        <ele>30.992608</ele>
        <time>2020-07-15T17:56:29.555Z</time>
      </trkpt>
      <trkpt lat="61.00296" lon="5.18991">
        <ele>29.8291</ele>
        <time>2020-07-15T17:56:35.797Z</time>
      </trkpt>
      <trkpt lat="61.00305" lon="5.19001">
        <ele>29.539261</ele>
        <time>2020-07-15T17:56:37.246Z</time>
      </trkpt>
      <trkpt lat="61.00317" lon="5.1901">
        <ele>29.188019</ele>
        <time>2020-07-15T17:56:39.078Z</time>
      </trkpt>
      <trkpt lat="61.0033" lon="5.19021">
        <ele>28.828866</ele>
        <time>2020-07-15T17:56:41.144Z</time>
      </trkpt>
      <trkpt lat="61.0035" lon="5.19033">
        <ele>28.259473</ele>
        <time>2020-07-15T17:56:43.897Z</time>
      </trkpt>
      <trkpt lat="61.00372" lon="5.19062">
        <ele>27.57955</ele>
        <time>2020-07-15T17:56:47.480Z</time>
      </trkpt>
      <trkpt lat="61.00394" lon="5.19138">
        <ele>26.184691</ele>
        <time>2020-07-15T17:56:53.297Z</time>
      </trkpt>
      <trkpt lat="61.00394" lon="5.19144">
        <ele>26.06275</ele>
        <time>2020-07-15T17:56:53.604Z</time>
      </trkpt>
      <trkpt lat="61.00396" lon="5.19153">
        <ele>25.859865</ele>
        <time>2020-07-15T17:56:54.144Z</time>
      </trkpt>
      <trkpt lat="61.00408" lon="5.19204">
        <ele>24.63537</ele>
        <time>2020-07-15T17:56:57.693Z</time>
      </trkpt>
      <trkpt lat="61.00412" lon="5.19259">
        <ele>23.45957</ele>
        <time>2020-07-15T17:57:01.000Z</time>
      </trkpt>
      <trkpt lat="61.00418" lon="5.19271">
        <ele>23.105336</ele>
        <time>2020-07-15T17:57:02.068Z</time>
      </trkpt>
      <trkpt lat="61.00421" lon="5.19272">
        <ele>22.972912</ele>
        <time>2020-07-15T17:57:02.445Z</time>
      </trkpt>
      <trkpt lat="61.00422" lon="5.19271">
        <ele>22.89257</ele>
        <time>2020-07-15T17:57:02.647Z</time>
      </trkpt>
      <trkpt lat="61.00451" lon="5.19203">
        <ele>20.96678</ele>
        <time>2020-07-15T17:57:08.371Z</time>
      </trkpt>
      <trkpt lat="61.00477" lon="5.19175">
        <ele>19.688121</ele>
        <time>2020-07-15T17:57:12.245Z</time>
      </trkpt>
      <trkpt lat="61.00482" lon="5.19174">
        <ele>19.478826</ele>
        <time>2020-07-15T17:57:12.802Z</time>
      </trkpt>
      <trkpt lat="61.00493" lon="5.1917">
        <ele>18.967646</ele>
        <time>2020-07-15T17:57:15.347Z</time>
      </trkpt>
      <trkpt lat="61.00495" lon="5.19167">
        <ele>18.929486</ele>
        <time>2020-07-15T17:57:15.750Z</time>
      </trkpt>
      <trkpt lat="61.00499" lon="5.19157">
        <ele>19.065134</ele>
        <time>2020-07-15T17:57:16.628Z</time>
      </trkpt>
      <trkpt lat="61.00507" lon="5.19167">
        <ele>19.258636</ele>
        <time>2020-07-15T17:57:17.762Z</time>
      </trkpt>
      <trkpt lat="61.00536" lon="5.19198">
        <ele>19.944261</ele>
        <time>2020-07-15T17:57:22.585Z</time>
      </trkpt>
      <trkpt lat="61.00567" lon="5.19226">
        <ele>20.635061</ele>
        <time>2020-07-15T17:57:27.521Z</time>
      </trkpt>
      <trkpt lat="61.00572" lon="5.1923">
        <ele>20.764759</ele>
        <time>2020-07-15T17:57:29.280Z</time>
      </trkpt>
      <trkpt lat="61.00578" lon="5.19234">
        <ele>20.897398</ele>
        <time>2020-07-15T17:57:30.223Z</time>
      </trkpt>
      <trkpt lat="61.0058" lon="5.19234">
        <ele>20.927554</ele>
        <time>2020-07-15T17:57:31.543Z</time>
      </trkpt>
      <trkpt lat="61.007" lon="5.19292">
        <ele>26.039164</ele>
        <time>2020-07-15T17:58:15.568Z</time>
      </trkpt>
      <trkpt lat="61.0071" lon="5.19298">
        <ele>26.985853</ele>
        <time>2020-07-15T17:58:20.480Z</time>
      </trkpt>
      <trkpt lat="61.0073" lon="5.19309">
        <ele>28.671131</ele>
        <time>2020-07-15T17:58:31.390Z</time>
      </trkpt>
      <trkpt lat="61.00793" lon="5.19382">
        <ele>34.86843</ele>
        <time>2020-07-15T17:59:07.027Z</time>
      </trkpt>
      <trkpt lat="61.00842" lon="5.19452">
        <ele>38.585924</ele>
        <time>2020-07-15T17:59:35.559Z</time>
      </trkpt>
      <trkpt lat="61.00857" lon="5.19473">
        <ele>39.074562</ele>
        <time>2020-07-15T17:59:44.128Z</time>
      </trkpt>
      <trkpt lat="61.00864" lon="5.19483">
        <ele>39.307103</ele>
        <time>2020-07-15T17:59:46.991Z</time>
      </trkpt>
      <trkpt lat="61.00878" lon="5.195">
        <ele>39.762111</ele>
        <time>2020-07-15T17:59:52.907Z</time>
      </trkpt>
      <trkpt lat="61.00879" lon="5.19498">
        <ele>39.798325</ele>
        <time>2020-07-15T17:59:53.540Z</time>
      </trkpt>
      <trkpt lat="61.00885" lon="5.19475">
        <ele>40.147424</ele>
        <time>2020-07-15T17:59:58.129Z</time>
      </trkpt>
      <trkpt lat="61.00891" lon="5.19452">
        <ele>40.51331</ele>
        <time>2020-07-15T18:00:02.371Z</time>
      </trkpt>
      <trkpt lat="61.00898" lon="5.19428">
        <ele>40.878337</ele>
        <time>2020-07-15T18:00:04.212Z</time>
      </trkpt>
      <trkpt lat="61.00906" lon="5.19399">
        <ele>41.321628</ele>
        <time>2020-07-15T18:00:08.318Z</time>
      </trkpt>
      <trkpt lat="61.00917" lon="5.19349">
        <ele>42.061417</ele>
        <time>2020-07-15T18:00:12.276Z</time>
      </trkpt>
      <trkpt lat="61.00931" lon="5.19262">
        <ele>41.777609</ele>
        <time>2020-07-15T18:00:18.361Z</time>
      </trkpt>
      <trkpt lat="61.00931" lon="5.19178">
        <ele>38.409597</ele>
        <time>2020-07-15T18:00:23.126Z</time>
      </trkpt>
      <trkpt lat="61.00928" lon="5.19157">
        <ele>37.552246</ele>
        <time>2020-07-15T18:00:24.458Z</time>
      </trkpt>
      <trkpt lat="61.00927" lon="5.19146">
        <ele>37.113357</ele>
        <time>2020-07-15T18:00:25.000Z</time>
      </trkpt>
      <trkpt lat="61.00908" lon="5.19065">
        <ele>33.494209</ele>
        <time>2020-07-15T18:00:29.842Z</time>
      </trkpt>
      <trkpt lat="61.00779" lon="5.18738">
        <ele>15.739843</ele>
        <time>2020-07-15T18:00:51.961Z</time>
      </trkpt>
      <trkpt lat="61.00746" lon="5.18617">
        <ele>11.652272</ele>
        <time>2020-07-15T18:01:00.060Z</time>
      </trkpt>
      <trkpt lat="61.00633" lon="5.17894">
        <ele>9.214278</ele>
        <time>2020-07-15T18:02:02.088Z</time>
      </trkpt>
      <trkpt lat="61.00619" lon="5.17731">
        <ele>10.353215</ele>
        <time>2020-07-15T18:02:18.780Z</time>
      </trkpt>
      <trkpt lat="61.00618" lon="5.17709">
        <ele>10.504151</ele>
        <time>2020-07-15T18:02:21.793Z</time>
      </trkpt>
      <trkpt lat="61.00615" lon="5.17668">
        <ele>10.787552</ele>
        <time>2020-07-15T18:02:26.462Z</time>
      </trkpt>
      <trkpt lat="61.00606" lon="5.17605">
        <ele>11.23656</ele>
        <time>2020-07-15T18:02:35.067Z</time>
      </trkpt>
      <trkpt lat="61.0058" lon="5.17535">
        <ele>13.083616</ele>
        <time>2020-07-15T18:02:47.577Z</time>
      </trkpt>
      <trkpt lat="61.00502" lon="5.17468">
        <ele>16.89566</ele>
        <time>2020-07-15T18:03:15.993Z</time>
      </trkpt>
      <trkpt lat="61.00467" lon="5.17413">
        <ele>18.87131</ele>
        <time>2020-07-15T18:03:31.005Z</time>
      </trkpt>
      <trkpt lat="61.00426" lon="5.17328">
        <ele>21.298404</ele>
        <time>2020-07-15T18:03:51.234Z</time>
      </trkpt>
      <trkpt lat="61.00386" lon="5.17273">
        <ele>23.265279</ele>
        <time>2020-07-15T18:04:06.543Z</time>
      </trkpt>
      <trkpt lat="61.00363" lon="5.17255">
        <ele>24.264858</ele>
        <time>2020-07-15T18:04:13.600Z</time>
      </trkpt>
      <trkpt lat="61.00315" lon="5.17237">
        <ele>26.262451</ele>
        <time>2020-07-15T18:04:26.793Z</time>
      </trkpt>
      <trkpt lat="61.00194" lon="5.17226">
        <ele>31.388756</ele>
        <time>2020-07-15T18:05:02.468Z</time>
      </trkpt>
      <trkpt lat="61.00168" lon="5.17216">
        <ele>32.508948</ele>
        <time>2020-07-15T18:05:11.414Z</time>
      </trkpt>
      <trkpt lat="61.00133" lon="5.17183">
        <ele>34.139245</ele>
        <time>2020-07-15T18:05:24.757Z</time>
      </trkpt>
      <trkpt lat="61.0011" lon="5.17146">
        <ele>35.306841</ele>
        <time>2020-07-15T18:05:35.671Z</time>
      </trkpt>
      <trkpt lat="61.00062" lon="5.17022">
        <ele>38.284552</ele>
        <time>2020-07-15T18:06:02.571Z</time>
      </trkpt>
      <trkpt lat="61.00037" lon="5.16974">
        <ele>39.629658</ele>
        <time>2020-07-15T18:06:13.600Z</time>
      </trkpt>
      <trkpt lat="61.00003" lon="5.1695">
        <ele>40.995206</ele>
        <time>2020-07-15T18:06:23.422Z</time>
      </trkpt>
      <trkpt lat="60.99834" lon="5.16928">
        <ele>38.264241</ele>
        <time>2020-07-15T18:06:47.944Z</time>
      </trkpt>
      <trkpt lat="60.99794" lon="5.16914">
        <ele>36.575629</ele>
        <time>2020-07-15T18:06:52.824Z</time>
      </trkpt>
      <trkpt lat="60.99765" lon="5.16888">
        <ele>34.644382</ele>
        <time>2020-07-15T18:06:56.542Z</time>
      </trkpt>
      <trkpt lat="60.99741" lon="5.16855">
        <ele>32.855372</ele>
        <time>2020-07-15T18:06:59.960Z</time>
      </trkpt>
      <trkpt lat="60.99677" lon="5.16729">
        <ele>27.461357</ele>
        <time>2020-07-15T18:07:10.043Z</time>
      </trkpt>
      <trkpt lat="60.9964" lon="5.167">
        <ele>25.62805</ele>
        <time>2020-07-15T18:07:14.558Z</time>
      </trkpt>
      <trkpt lat="60.99584" lon="5.16691">
        <ele>23.352751</ele>
        <time>2020-07-15T18:07:21.106Z</time>
      </trkpt>
      <trkpt lat="60.99494" lon="5.16635">
        <ele>19.526323</ele>
        <time>2020-07-15T18:07:33.355Z</time>
      </trkpt>
      <trkpt lat="60.99222" lon="5.16529">
        <ele>28.797548</ele>
        <time>2020-07-15T18:08:56.693Z</time>
      </trkpt>
      <trkpt lat="60.99038" lon="5.16504">
        <ele>34.000344</ele>
        <time>2020-07-15T18:09:55.951Z</time>
      </trkpt>
      <trkpt lat="60.98964" lon="5.16514">
        <ele>35.295791</ele>
        <time>2020-07-15T18:10:07.839Z</time>
      </trkpt>
      <trkpt lat="60.98838" lon="5.16589">
        <ele>30.840575</ele>
        <time>2020-07-15T18:10:24.292Z</time>
      </trkpt>
      <trkpt lat="60.98677" lon="5.16643">
        <ele>25.628913</ele>
        <time>2020-07-15T18:10:45.091Z</time>
      </trkpt>
      <trkpt lat="60.98599" lon="5.16646">
        <ele>23.417916</ele>
        <time>2020-07-15T18:10:55.938Z</time>
      </trkpt>
      <trkpt lat="60.98537" lon="5.16635">
        <ele>22.68008</ele>
        <time>2020-07-15T18:11:05.002Z</time>
      </trkpt>
      <trkpt lat="60.98296" lon="5.16567">
        <ele>20.207577</ele>
        <time>2020-07-15T18:11:43.879Z</time>
      </trkpt>
      <trkpt lat="60.9816" lon="5.16466">
        <ele>18.18087</ele>
        <time>2020-07-15T18:12:05.688Z</time>
      </trkpt>
      <trkpt lat="60.98089" lon="5.16423">
        <ele>16.967692</ele>
        <time>2020-07-15T18:12:16.113Z</time>
      </trkpt>
      <trkpt lat="60.98" lon="5.16386">
        <ele>14.923378</ele>
        <time>2020-07-15T18:12:28.531Z</time>
      </trkpt>
      <trkpt lat="60.97906" lon="5.16362">
        <ele>12.738857</ele>
        <time>2020-07-15T18:12:41.550Z</time>
      </trkpt>
      <trkpt lat="60.97628" lon="5.16207">
        <ele>6.699875</ele>
        <time>2020-07-15T18:13:21.703Z</time>
      </trkpt>
      <trkpt lat="60.97605" lon="5.16189">
        <ele>6.217625</ele>
        <time>2020-07-15T18:13:25.190Z</time>
      </trkpt>
      <trkpt lat="60.97588" lon="5.16173">
        <ele>5.850811</ele>
        <time>2020-07-15T18:13:27.736Z</time>
      </trkpt>
      <trkpt lat="60.97544" lon="5.16103">
        <ele>5.223297</ele>
        <time>2020-07-15T18:13:36.032Z</time>
      </trkpt>
      <trkpt lat="60.97528" lon="5.16066">
        <ele>5.183189</ele>
        <time>2020-07-15T18:13:39.707Z</time>
      </trkpt>
      <trkpt lat="60.97503" lon="5.15988">
        <ele>5.10865</ele>
        <time>2020-07-15T18:13:47.073Z</time>
      </trkpt>
      <trkpt lat="60.97443" lon="5.15646">
        <ele>5.768296</ele>
        <time>2020-07-15T18:14:23.533Z</time>
      </trkpt>
      <trkpt lat="60.97438" lon="5.15628">
        <ele>5.855819</ele>
        <time>2020-07-15T18:14:26.526Z</time>
      </trkpt>
      <trkpt lat="60.97431" lon="5.15607">
        <ele>5.959405</ele>
        <time>2020-07-15T18:14:28.460Z</time>
      </trkpt>
      <trkpt lat="60.97383" lon="5.15461">
        <ele>6.568604</ele>
        <time>2020-07-15T18:14:45.996Z</time>
      </trkpt>
      <trkpt lat="60.97264" lon="5.14945">
        <ele>7.221136</ele>
        <time>2020-07-15T18:15:36.080Z</time>
      </trkpt>
      <trkpt lat="60.97245" lon="5.14819">
        <ele>7.439833</ele>
        <time>2020-07-15T18:15:48.293Z</time>
      </trkpt>
      <trkpt lat="60.97202" lon="5.14447">
        <ele>10.214607</ele>
        <time>2020-07-15T18:16:30.143Z</time>
      </trkpt>
      <trkpt lat="60.97189" lon="5.14399">
        <ele>10.894296</ele>
        <time>2020-07-15T18:16:37.336Z</time>
      </trkpt>
      <trkpt lat="60.97133" lon="5.1431">
        <ele>12.65372</ele>
        <time>2020-07-15T18:16:56.006Z</time>
      </trkpt>
      <trkpt lat="60.97116" lon="5.14258">
        <ele>13.433436</ele>
        <time>2020-07-15T18:17:04.304Z</time>
      </trkpt>
      <trkpt lat="60.97103" lon="5.14194">
        <ele>14.274182</ele>
        <time>2020-07-15T18:17:13.186Z</time>
      </trkpt>
      <trkpt lat="60.97084" lon="5.14051">
        <ele>15.671472</ele>
        <time>2020-07-15T18:17:31.731Z</time>
      </trkpt>
      <trkpt lat="60.9699" lon="5.13724">
        <ele>18.931878</ele>
        <time>2020-07-15T18:18:13.221Z</time>
      </trkpt>
      <trkpt lat="60.96963" lon="5.13593">
        <ele>20.079173</ele>
        <time>2020-07-15T18:18:29.588Z</time>
      </trkpt>
      <trkpt lat="60.96948" lon="5.13484">
        <ele>20.840705</ele>
        <time>2020-07-15T18:18:43.034Z</time>
      </trkpt>
      <trkpt lat="60.96932" lon="5.13253">
        <ele>20.91509</ele>
        <time>2020-07-15T18:19:06.713Z</time>
      </trkpt>
      <trkpt lat="60.96933" lon="5.13189">
        <ele>20.935423</ele>
        <time>2020-07-15T18:19:11.541Z</time>
      </trkpt>
      <trkpt lat="60.9695" lon="5.13108">
        <ele>20.371031</ele>
        <time>2020-07-15T18:19:17.665Z</time>
      </trkpt>
      <trkpt lat="60.97043" lon="5.12827">
        <ele>14.678397</ele>
        <time>2020-07-15T18:19:38.046Z</time>
      </trkpt>
      <trkpt lat="60.97076" lon="5.12517">
        <ele>14.456101</ele>
        <time>2020-07-15T18:20:03.752Z</time>
      </trkpt>
      <trkpt lat="60.97077" lon="5.12508">
        <ele>14.450048</ele>
        <time>2020-07-15T18:20:05.402Z</time>
      </trkpt>
      <trkpt lat="60.97077" lon="5.12486">
        <ele>14.434578</ele>
        <time>2020-07-15T18:20:08.846Z</time>
      </trkpt>
      <trkpt lat="60.97076" lon="5.12296">
        <ele>16.477063</ele>
        <time>2020-07-15T18:20:34.055Z</time>
      </trkpt>
      <trkpt lat="60.97075" lon="5.12088">
        <ele>18.785894</ele>
        <time>2020-07-15T18:21:03.137Z</time>
      </trkpt>
      <trkpt lat="60.97073" lon="5.11855">
        <ele>16.710383</ele>
        <time>2020-07-15T18:21:19.757Z</time>
      </trkpt>
      <trkpt lat="60.97073" lon="5.11708">
        <ele>15.186186</ele>
        <time>2020-07-15T18:21:28.736Z</time>
      </trkpt>
      <trkpt lat="60.97075" lon="5.11662">
        <ele>14.207432</ele>
        <time>2020-07-15T18:21:31.603Z</time>
      </trkpt>
      <trkpt lat="60.97075" lon="5.11651">
        <ele>13.974319</ele>
        <time>2020-07-15T18:21:32.190Z</time>
      </trkpt>
      <trkpt lat="60.97094" lon="5.11458">
        <ele>9.854348</ele>
        <time>2020-07-15T18:21:43.791Z</time>
      </trkpt>
      <trkpt lat="60.97126" lon="5.11292">
        <ele>7.742677</ele>
        <time>2020-07-15T18:21:54.966Z</time>
      </trkpt>
      <trkpt lat="60.9713" lon="5.11269">
        <ele>7.727174</ele>
        <time>2020-07-15T18:21:56.474Z</time>
      </trkpt>
      <trkpt lat="60.97137" lon="5.11218">
        <ele>7.694126</ele>
        <time>2020-07-15T18:22:00.539Z</time>
      </trkpt>
      <trkpt lat="60.97189" lon="5.1001">
        <ele>7.604365</ele>
        <time>2020-07-15T18:23:51.836Z</time>
      </trkpt>
      <trkpt lat="60.97213" lon="5.09892">
        <ele>7.938088</ele>
        <time>2020-07-15T18:24:03.696Z</time>
      </trkpt>
      <trkpt lat="60.97234" lon="5.09825">
        <ele>8.543632</ele>
        <time>2020-07-15T18:24:11.709Z</time>
      </trkpt>
      <trkpt lat="60.97274" lon="5.0973">
        <ele>9.470588</ele>
        <time>2020-07-15T18:24:24.275Z</time>
      </trkpt>
      <trkpt lat="60.97287" lon="5.09702">
        <ele>9.767088</ele>
        <time>2020-07-15T18:24:28.546Z</time>
      </trkpt>
      <trkpt lat="60.97301" lon="5.09677">
        <ele>10.052015</ele>
        <time>2020-07-15T18:24:33.250Z</time>
      </trkpt>
      <trkpt lat="60.97361" lon="5.09582">
        <ele>12.16977</ele>
        <time>2020-07-15T18:24:54.332Z</time>
      </trkpt>
      <trkpt lat="60.97393" lon="5.09544">
        <ele>13.626781</ele>
        <time>2020-07-15T18:25:05.762Z</time>
      </trkpt>
      <trkpt lat="60.97416" lon="5.09521">
        <ele>14.643294</ele>
        <time>2020-07-15T18:25:13.828Z</time>
      </trkpt>
      <trkpt lat="60.97429" lon="5.09507">
        <ele>15.219034</ele>
        <time>2020-07-15T18:25:18.848Z</time>
      </trkpt>
      <trkpt lat="60.97518" lon="5.09448">
        <ele>18.091144</ele>
        <time>2020-07-15T18:25:49.067Z</time>
      </trkpt>
      <trkpt lat="60.97606" lon="5.09429">
        <ele>19.347876</ele>
        <time>2020-07-15T18:26:11.988Z</time>
      </trkpt>
      <trkpt lat="60.97645" lon="5.09427">
        <ele>19.890251</ele>
        <time>2020-07-15T18:26:18.007Z</time>
      </trkpt>
      <trkpt lat="60.97756" lon="5.09421">
        <ele>16.968612</ele>
        <time>2020-07-15T18:26:32.711Z</time>
      </trkpt>
      <trkpt lat="60.97798" lon="5.09422">
        <ele>15.443043</ele>
        <time>2020-07-15T18:26:37.836Z</time>
      </trkpt>
      <trkpt lat="60.97996" lon="5.09461">
        <ele>8.122378</ele>
        <time>2020-07-15T18:27:02.553Z</time>
      </trkpt>
      <trkpt lat="60.98073" lon="5.09478">
        <ele>6.396711</ele>
        <time>2020-07-15T18:27:13.634Z</time>
      </trkpt>
      <trkpt lat="60.98096" lon="5.09484">
        <ele>6.084357</ele>
        <time>2020-07-15T18:27:17.184Z</time>
      </trkpt>
      <trkpt lat="60.98149" lon="5.09485">
        <ele>5.399621</ele>
        <time>2020-07-15T18:27:25.157Z</time>
      </trkpt>
      <trkpt lat="60.98201" lon="5.09452">
        <ele>4.680473</ele>
        <time>2020-07-15T18:27:34.020Z</time>
      </trkpt>
      <trkpt lat="60.98218" lon="5.09433">
        <ele>4.577335</ele>
        <time>2020-07-15T18:27:37.123Z</time>
      </trkpt>
      <trkpt lat="60.98229" lon="5.09416">
        <ele>4.50361</ele>
        <time>2020-07-15T18:27:39.619Z</time>
      </trkpt>
      <trkpt lat="60.98266" lon="5.09345">
        <ele>4.245297</ele>
        <time>2020-07-15T18:27:47.995Z</time>
      </trkpt>
      <trkpt lat="60.9832" lon="5.09182">
        <ele>3.758275</ele>
        <time>2020-07-15T18:28:03.999Z</time>
      </trkpt>
      <trkpt lat="60.98331" lon="5.09134">
        <ele>3.695668</ele>
        <time>2020-07-15T18:28:08.113Z</time>
      </trkpt>
      <trkpt lat="60.98335" lon="5.09115">
        <ele>3.67286</ele>
        <time>2020-07-15T18:28:09.693Z</time>
      </trkpt>
      <trkpt lat="60.98355" lon="5.08975">
        <ele>3.509814</ele>
        <time>2020-07-15T18:28:20.539Z</time>
      </trkpt>
      <trkpt lat="60.98361" lon="5.08904">
        <ele>3.429582</ele>
        <time>2020-07-15T18:28:26.048Z</time>
      </trkpt>
      <trkpt lat="60.98366" lon="5.08801">
        <ele>3.596606</ele>
        <time>2020-07-15T18:28:36.104Z</time>
      </trkpt>
      <trkpt lat="60.98373" lon="5.08702">
        <ele>4.762561</ele>
        <time>2020-07-15T18:28:49.725Z</time>
      </trkpt>
      <trkpt lat="60.98375" lon="5.08676">
        <ele>5.069752</ele>
        <time>2020-07-15T18:28:53.073Z</time>
      </trkpt>
      <trkpt lat="60.98378" lon="5.08641">
        <ele>5.478634</ele>
        <time>2020-07-15T18:28:58.940Z</time>
      </trkpt>
      <trkpt lat="60.98381" lon="5.08588">
        <ele>6.098246</ele>
        <time>2020-07-15T18:29:04.342Z</time>
      </trkpt>
      <trkpt lat="60.98389" lon="5.08468">
        <ele>7.50996</ele>
        <time>2020-07-15T18:29:20.550Z</time>
      </trkpt>
      <trkpt lat="60.98388" lon="5.08427">
        <ele>7.700932</ele>
        <time>2020-07-15T18:29:25.019Z</time>
      </trkpt>
      <trkpt lat="60.98387" lon="5.08424">
        <ele>7.706027</ele>
        <time>2020-07-15T18:29:26.457Z</time>
      </trkpt>
      <trkpt lat="60.98382" lon="5.08414">
        <ele>7.728422</ele>
        <time>2020-07-15T18:29:27.365Z</time>
      </trkpt>
      <trkpt lat="60.98365" lon="5.08401">
        <ele>7.792285</ele>
        <time>2020-07-15T18:29:31.612Z</time>
      </trkpt>
      <trkpt lat="60.98341" lon="5.08399">
        <ele>7.873254</ele>
        <time>2020-07-15T18:29:38.136Z</time>
      </trkpt>
      <trkpt lat="60.98229" lon="5.08417">
        <ele>8.255945</ele>
        <time>2020-07-15T18:29:56.839Z</time>
      </trkpt>
      <trkpt lat="60.98179" lon="5.08416">
        <ele>7.294474</ele>
        <time>2020-07-15T18:30:03.408Z</time>
      </trkpt>
      <trkpt lat="60.98174" lon="5.08415">
        <ele>7.199441</ele>
        <time>2020-07-15T18:30:03.939Z</time>
      </trkpt>
      <trkpt lat="60.98131" lon="5.08404">
        <ele>6.295746</ele>
        <time>2020-07-15T18:30:09.956Z</time>
      </trkpt>
      <trkpt lat="60.98059" lon="5.08385">
        <ele>4.816187</ele>
        <time>2020-07-15T18:30:20.138Z</time>
      </trkpt>
      <trkpt lat="60.98034" lon="5.08348">
        <ele>4.416255</ele>
        <time>2020-07-15T18:30:24.606Z</time>
      </trkpt>
      <trkpt lat="60.98015" lon="5.083">
        <ele>4.175174</ele>
        <time>2020-07-15T18:30:29.335Z</time>
      </trkpt>
      <trkpt lat="60.98001" lon="5.08255">
        <ele>3.962618</ele>
        <time>2020-07-15T18:30:33.567Z</time>
      </trkpt>
      <trkpt lat="60.97999" lon="5.08247">
        <ele>3.929452</ele>
        <time>2020-07-15T18:30:34.206Z</time>
      </trkpt>
      <trkpt lat="60.97991" lon="5.08208">
        <ele>3.760213</ele>
        <time>2020-07-15T18:30:37.658Z</time>
      </trkpt>
      <trkpt lat="60.97987" lon="5.08183">
        <ele>3.659056</ele>
        <time>2020-07-15T18:30:39.759Z</time>
      </trkpt>
      <trkpt lat="60.97981" lon="5.08101">
        <ele>3.332077</ele>
        <time>2020-07-15T18:30:46.528Z</time>
      </trkpt>
      <trkpt lat="60.9798" lon="5.08085">
        <ele>3.267074</ele>
        <time>2020-07-15T18:30:47.832Z</time>
      </trkpt>
      <trkpt lat="60.9798" lon="5.08018">
        <ele>3.095524</ele>
        <time>2020-07-15T18:30:53.093Z</time>
      </trkpt>
      <trkpt lat="60.97982" lon="5.07988">
        <ele>3.076943</ele>
        <time>2020-07-15T18:30:55.426Z</time>
      </trkpt>
      <trkpt lat="60.97983" lon="5.07976">
        <ele>3.069293</ele>
        <time>2020-07-15T18:30:56.339Z</time>
      </trkpt>
      <trkpt lat="60.97986" lon="5.07954">
        <ele>3.054483</ele>
        <time>2020-07-15T18:30:58.210Z</time>
      </trkpt>
      <trkpt lat="60.97994" lon="5.07897">
        <ele>3.016963</ele>
        <time>2020-07-15T18:31:02.807Z</time>
      </trkpt>
      <trkpt lat="60.97998" lon="5.07862">
        <ele>2.994817</ele>
        <time>2020-07-15T18:31:05.726Z</time>
      </trkpt>
      <trkpt lat="60.98001" lon="5.07835">
        <ele>2.977119</ele>
        <time>2020-07-15T18:31:07.915Z</time>
      </trkpt>
      <trkpt lat="60.98003" lon="5.07805">
        <ele>2.958312</ele>
        <time>2020-07-15T18:31:10.417Z</time>
      </trkpt>
      <trkpt lat="60.98006" lon="5.07777">
        <ele>2.940234</ele>
        <time>2020-07-15T18:31:12.736Z</time>
      </trkpt>
      <trkpt lat="60.9801" lon="5.07751">
        <ele>2.92284</ele>
        <time>2020-07-15T18:31:14.911Z</time>
      </trkpt>
      <trkpt lat="60.98034" lon="5.07632">
        <ele>3.463325</ele>
        <time>2020-07-15T18:31:28.730Z</time>
      </trkpt>
      <trkpt lat="60.98055" lon="5.07499">
        <ele>4.802733</ele>
        <time>2020-07-15T18:31:43.380Z</time>
      </trkpt>
      <trkpt lat="60.98073" lon="5.07482">
        <ele>5.18056</ele>
        <time>2020-07-15T18:31:48.095Z</time>
      </trkpt>
      <trkpt lat="60.98082" lon="5.07484">
        <ele>5.359348</ele>
        <time>2020-07-15T18:31:49.934Z</time>
      </trkpt>
      <trkpt lat="60.98085" lon="5.07486">
        <ele>5.428841</ele>
        <time>2020-07-15T18:31:50.949Z</time>
      </trkpt>
      <trkpt lat="60.98091" lon="5.07489">
        <ele>5.546575</ele>
        <time>2020-07-15T18:31:53.114Z</time>
      </trkpt>
      <trkpt lat="60.98121" lon="5.07507">
        <ele>6.156727</ele>
        <time>2020-07-15T18:32:00.905Z</time>
      </trkpt>
      <trkpt lat="60.9813" lon="5.07508">
        <ele>6.346226</ele>
        <time>2020-07-15T18:32:04.072Z</time>
      </trkpt>
      <trkpt lat="60.98132" lon="5.07503">
        <ele>6.401472</ele>
        <time>2020-07-15T18:32:04.707Z</time>
      </trkpt>
      <trkpt lat="60.98135" lon="5.07485">
        <ele>6.765637</ele>
        <time>2020-07-15T18:32:07.268Z</time>
      </trkpt>
      <trkpt lat="60.98138" lon="5.07402">
        <ele>8.495694</ele>
        <time>2020-07-15T18:32:19.996Z</time>
      </trkpt>
      <trkpt lat="60.98142" lon="5.07359">
        <ele>9.389838</ele>
        <time>2020-07-15T18:32:27.084Z</time>
      </trkpt>
      <trkpt lat="60.98144" lon="5.07334">
        <ele>9.913609</ele>
        <time>2020-07-15T18:32:31.514Z</time>
      </trkpt>
      <trkpt lat="60.9816" lon="5.07215">
        <ele>12.475082</ele>
        <time>2020-07-15T18:32:51.055Z</time>
      </trkpt>
      <trkpt lat="60.98161" lon="5.07155">
        <ele>13.714262</ele>
        <time>2020-07-15T18:32:59.950Z</time>
      </trkpt>
      <trkpt lat="60.98158" lon="5.07119">
        <ele>14.304496</ele>
        <time>2020-07-15T18:33:06.302Z</time>
      </trkpt>
      <trkpt lat="60.98158" lon="5.0711">
        <ele>14.406997</ele>
        <time>2020-07-15T18:33:07.526Z</time>
      </trkpt>
      <trkpt lat="60.98156" lon="5.07104">
        <ele>14.47928</ele>
        <time>2020-07-15T18:33:08.382Z</time>
      </trkpt>
      <trkpt lat="60.98151" lon="5.07083">
        <ele>14.737207</ele>
        <time>2020-07-15T18:33:11.285Z</time>
      </trkpt>
      <trkpt lat="60.98146" lon="5.07054">
        <ele>15.080581</ele>
        <time>2020-07-15T18:33:16.603Z</time>
      </trkpt>
      <trkpt lat="60.98137" lon="5.07016">
        <ele>15.557339</ele>
        <time>2020-07-15T18:33:22.370Z</time>
      </trkpt>
      <trkpt lat="60.98132" lon="5.06999">
        <ele>15.784849</ele>
        <time>2020-07-15T18:33:25.336Z</time>
      </trkpt>
      <trkpt lat="60.9812" lon="5.06947">
        <ele>16.420359</ele>
        <time>2020-07-15T18:33:32.752Z</time>
      </trkpt>
      <trkpt lat="60.98117" lon="5.06928">
        <ele>16.642705</ele>
        <time>2020-07-15T18:33:35.524Z</time>
      </trkpt>
      <trkpt lat="60.98115" lon="5.06919">
        <ele>16.75836</ele>
        <time>2020-07-15T18:33:37.101Z</time>
      </trkpt>
      <trkpt lat="60.98107" lon="5.06802">
        <ele>18.077147</ele>
        <time>2020-07-15T18:33:49.705Z</time>
      </trkpt>
      <trkpt lat="60.98106" lon="5.06792">
        <ele>18.188405</ele>
        <time>2020-07-15T18:33:50.386Z</time>
      </trkpt>
      <trkpt lat="60.98103" lon="5.06763">
        <ele>18.021736</ele>
        <time>2020-07-15T18:33:52.340Z</time>
      </trkpt>
      <trkpt lat="60.98094" lon="5.06635">
        <ele>16.892571</ele>
        <time>2020-07-15T18:34:01.015Z</time>
      </trkpt>
      <trkpt lat="60.98096" lon="5.06617">
        <ele>16.735479</ele>
        <time>2020-07-15T18:34:02.560Z</time>
      </trkpt>
      <trkpt lat="60.98108" lon="5.06592">
        <ele>16.441621</ele>
        <time>2020-07-15T18:34:05.147Z</time>
      </trkpt>
      <trkpt lat="60.98108" lon="5.06586">
        <ele>16.388493</ele>
        <time>2020-07-15T18:34:05.604Z</time>
      </trkpt>
      <trkpt lat="60.98105" lon="5.06574">
        <ele>16.277181</ele>
        <time>2020-07-15T18:34:06.296Z</time>
      </trkpt>
      <trkpt lat="60.9809" lon="5.06514">
        <ele>15.679348</ele>
        <time>2020-07-15T18:34:11.048Z</time>
      </trkpt>
      <trkpt lat="60.98082" lon="5.06454">
        <ele>15.144494</ele>
        <time>2020-07-15T18:34:15.366Z</time>
      </trkpt>
      <trkpt lat="60.98075" lon="5.06367">
        <ele>14.680406</ele>
        <time>2020-07-15T18:34:20.931Z</time>
      </trkpt>
      <trkpt lat="60.98072" lon="5.06328">
        <ele>14.498547</ele>
        <time>2020-07-15T18:34:23.917Z</time>
      </trkpt>
      <trkpt lat="60.98017" lon="5.05519">
        <ele>10.803706</ele>
        <time>2020-07-15T18:35:27.690Z</time>
      </trkpt>
      <trkpt lat="60.97991" lon="5.04802">
        <ele>7.102347</ele>
        <time>2020-07-15T18:36:21.120Z</time>
      </trkpt>
      <trkpt lat="60.97962" lon="5.04489">
        <ele>6.138431</ele>
        <time>2020-07-15T18:36:44.666Z</time>
      </trkpt>
      <trkpt lat="60.97966" lon="5.04386">
        <ele>6.268666</ele>
        <time>2020-07-15T18:36:54.299Z</time>
      </trkpt>
      <trkpt lat="60.97977" lon="5.04323">
        <ele>6.352925</ele>
        <time>2020-07-15T18:37:01.810Z</time>
      </trkpt>
      <trkpt lat="60.98003" lon="5.04272">
        <ele>6.446574</ele>
        <time>2020-07-15T18:37:09.392Z</time>
      </trkpt>
      <trkpt lat="60.98025" lon="5.04258">
        <ele>6.489849</ele>
        <time>2020-07-15T18:37:14.935Z</time>
      </trkpt>
      <trkpt lat="60.98049" lon="5.04259">
        <ele>6.530364</ele>
        <time>2020-07-15T18:37:18.937Z</time>
      </trkpt>
      <trkpt lat="60.98061" lon="5.04264">
        <ele>6.551167</ele>
        <time>2020-07-15T18:37:22.333Z</time>
      </trkpt>
      <trkpt lat="60.9808" lon="5.04275">
        <ele>6.584176</ele>
        <time>2020-07-15T18:37:25.380Z</time>
      </trkpt>
      <trkpt lat="60.98097" lon="5.04283">
        <ele>6.613943</ele>
        <time>2020-07-15T18:37:29.584Z</time>
      </trkpt>
      <trkpt lat="60.98125" lon="5.04291">
        <ele>6.660467</ele>
        <time>2020-07-15T18:37:34.273Z</time>
      </trkpt>
      <trkpt lat="60.98127" lon="5.0429">
        <ele>6.665128</ele>
        <time>2020-07-15T18:37:35.407Z</time>
      </trkpt>
      <trkpt lat="60.98142" lon="5.04285">
        <ele>6.689728</ele>
        <time>2020-07-15T18:37:37.443Z</time>
      </trkpt>
      <trkpt lat="60.98172" lon="5.04263">
        <ele>6.743828</ele>
        <time>2020-07-15T18:37:43.287Z</time>
      </trkpt>
      <trkpt lat="60.98251" lon="5.0416">
        <ele>5.725288</ele>
        <time>2020-07-15T18:37:57.327Z</time>
      </trkpt>
      <trkpt lat="60.98276" lon="5.04137">
        <ele>5.374513</ele>
        <time>2020-07-15T18:38:01.024Z</time>
      </trkpt>
      <trkpt lat="60.98299" lon="5.04125">
        <ele>5.071036</ele>
        <time>2020-07-15T18:38:04.490Z</time>
      </trkpt>
      <trkpt lat="60.98364" lon="5.04128">
        <ele>4.387856</ele>
        <time>2020-07-15T18:38:14.518Z</time>
      </trkpt>
      <trkpt lat="60.98394" lon="5.04116">
        <ele>4.256385</ele>
        <time>2020-07-15T18:38:19.532Z</time>
      </trkpt>
      <trkpt lat="60.98444" lon="5.04054">
        <ele>4.00882</ele>
        <time>2020-07-15T18:38:29.379Z</time>
      </trkpt>
      <trkpt lat="60.98505" lon="5.03904">
        <ele>3.778565</ele>
        <time>2020-07-15T18:38:45.695Z</time>
      </trkpt>
      <trkpt lat="60.98558" lon="5.0384">
        <ele>4.015685</ele>
        <time>2020-07-15T18:38:56.875Z</time>
      </trkpt>
      <trkpt lat="60.98571" lon="5.03828">
        <ele>4.071266</ele>
        <time>2020-07-15T18:38:59.996Z</time>
      </trkpt>
      <trkpt lat="60.98583" lon="5.03814">
        <ele>4.124452</ele>
        <time>2020-07-15T18:39:02.176Z</time>
      </trkpt>
      <trkpt lat="60.98624" lon="5.03738">
        <ele>4.336428</ele>
        <time>2020-07-15T18:39:13.888Z</time>
      </trkpt>
      <trkpt lat="60.98639" lon="5.03718">
        <ele>4.44785</ele>
        <time>2020-07-15T18:39:16.776Z</time>
      </trkpt>
      <trkpt lat="60.9864" lon="5.03716">
        <ele>4.474335</ele>
        <time>2020-07-15T18:39:17.610Z</time>
      </trkpt>
      <trkpt lat="60.98678" lon="5.03698">
        <ele>5.04635</ele>
        <time>2020-07-15T18:39:25.549Z</time>
      </trkpt>
      <trkpt lat="60.98692" lon="5.03698">
        <ele>5.259341</ele>
        <time>2020-07-15T18:39:28.853Z</time>
      </trkpt>
      <trkpt lat="60.98696" lon="5.03698">
        <ele>5.314449</ele>
        <time>2020-07-15T18:39:29.632Z</time>
      </trkpt>
      <trkpt lat="60.98731" lon="5.03689">
        <ele>5.846241</ele>
        <time>2020-07-15T18:39:37.540Z</time>
      </trkpt>
      <trkpt lat="60.98794" lon="5.03619">
        <ele>6.910489</ele>
        <time>2020-07-15T18:39:54.746Z</time>
      </trkpt>
      <trkpt lat="60.9883" lon="5.03613">
        <ele>7.422873</ele>
        <time>2020-07-15T18:40:03.420Z</time>
      </trkpt>
      <trkpt lat="60.98909" lon="5.03637">
        <ele>8.558032</ele>
        <time>2020-07-15T18:40:21.915Z</time>
      </trkpt>
      <trkpt lat="60.98975" lon="5.03733">
        <ele>9.642545</ele>
        <time>2020-07-15T18:40:39.310Z</time>
      </trkpt>
      <trkpt lat="60.98991" lon="5.03747">
        <ele>9.749696</ele>
        <time>2020-07-15T18:40:42.869Z</time>
      </trkpt>
      <trkpt lat="60.99011" lon="5.03745">
        <ele>9.866152</ele>
        <time>2020-07-15T18:40:46.765Z</time>
      </trkpt>
      <trkpt lat="60.99017" lon="5.03743">
        <ele>9.907797</ele>
        <time>2020-07-15T18:40:48.038Z</time>
      </trkpt>
      <trkpt lat="60.99028" lon="5.03739">
        <ele>9.971308</ele>
        <time>2020-07-15T18:40:50.071Z</time>
      </trkpt>
      <trkpt lat="60.99035" lon="5.03733">
        <ele>10.016349</ele>
        <time>2020-07-15T18:40:51.179Z</time>
      </trkpt>
      <trkpt lat="60.99074" lon="5.03711">
        <ele>10.259744</ele>
        <time>2020-07-15T18:40:58.973Z</time>
      </trkpt>
      <trkpt lat="60.99099" lon="5.03716">
        <ele>10.410868</ele>
        <time>2020-07-15T18:41:03.735Z</time>
      </trkpt>
      <trkpt lat="60.99118" lon="5.03734">
        <ele>10.536722</ele>
        <time>2020-07-15T18:41:07.659Z</time>
      </trkpt>
      <trkpt lat="60.99162" lon="5.03837">
        <ele>11.332587</ele>
        <time>2020-07-15T18:41:21.776Z</time>
      </trkpt>
      <trkpt lat="60.99177" lon="5.03851">
        <ele>11.589594</ele>
        <time>2020-07-15T18:41:25.293Z</time>
      </trkpt>
      <trkpt lat="60.9924" lon="5.03875">
        <ele>12.582553</ele>
        <time>2020-07-15T18:41:40.260Z</time>
      </trkpt>
      <trkpt lat="60.9925" lon="5.03879">
        <ele>12.744364</ele>
        <time>2020-07-15T18:41:42.822Z</time>
      </trkpt>
      <trkpt lat="60.99263" lon="5.03884">
        <ele>12.942316</ele>
        <time>2020-07-15T18:41:46.194Z</time>
      </trkpt>
      <trkpt lat="60.99274" lon="5.03886">
        <ele>13.108253</ele>
        <time>2020-07-15T18:41:48.265Z</time>
      </trkpt>
      <trkpt lat="60.99292" lon="5.03884">
        <ele>13.38509</ele>
        <time>2020-07-15T18:41:52.564Z</time>
      </trkpt>
      <trkpt lat="60.99303" lon="5.0388">
        <ele>13.616155</ele>
        <time>2020-07-15T18:41:55.418Z</time>
      </trkpt>
      <trkpt lat="60.99335" lon="5.03848">
        <ele>14.476464</ele>
        <time>2020-07-15T18:42:04.233Z</time>
      </trkpt>
      <trkpt lat="60.99418" lon="5.03703">
        <ele>17.079645</ele>
        <time>2020-07-15T18:42:31.614Z</time>
      </trkpt>
      <trkpt lat="60.99435" lon="5.03688">
        <ele>17.52718</ele>
        <time>2020-07-15T18:42:35.847Z</time>
      </trkpt>
      <trkpt lat="60.99454" lon="5.03685">
        <ele>18.386476</ele>
        <time>2020-07-15T18:42:40.429Z</time>
      </trkpt>
      <trkpt lat="60.99475" lon="5.03698">
        <ele>19.905404</ele>
        <time>2020-07-15T18:42:46.233Z</time>
      </trkpt>
      <trkpt lat="60.99488" lon="5.03721">
        <ele>21.102416</ele>
        <time>2020-07-15T18:42:52.426Z</time>
      </trkpt>
      <trkpt lat="60.99535" lon="5.03862">
        <ele>26.944917</ele>
        <time>2020-07-15T18:43:26.624Z</time>
      </trkpt>
      <trkpt lat="60.99559" lon="5.03889">
        <ele>28.844842</ele>
        <time>2020-07-15T18:43:41.861Z</time>
      </trkpt>
      <trkpt lat="60.99587" lon="5.0389">
        <ele>30.74861</ele>
        <time>2020-07-15T18:43:55.176Z</time>
      </trkpt>
      <trkpt lat="60.99594" lon="5.03886">
        <ele>31.239025</ele>
        <time>2020-07-15T18:44:00.755Z</time>
      </trkpt>
      <trkpt lat="60.99615" lon="5.03873">
        <ele>32.611919</ele>
        <time>2020-07-15T18:44:10.483Z</time>
      </trkpt>
      <trkpt lat="60.99655" lon="5.03853">
        <ele>35.251748</ele>
        <time>2020-07-15T18:44:29.974Z</time>
      </trkpt>
      <trkpt lat="60.99681" lon="5.03852">
        <ele>36.863377</ele>
        <time>2020-07-15T18:44:40.879Z</time>
      </trkpt>
      <trkpt lat="60.99699" lon="5.03856">
        <ele>38.061357</ele>
        <time>2020-07-15T18:44:49.752Z</time>
      </trkpt>
      <trkpt lat="60.99721" lon="5.03864">
        <ele>39.457385</ele>
        <time>2020-07-15T18:44:56.291Z</time>
      </trkpt>
      <trkpt lat="60.99783" lon="5.03887">
        <ele>40.141357</ele>
        <time>2020-07-15T18:45:09.941Z</time>
      </trkpt>
      <trkpt lat="60.99826" lon="5.03862">
        <ele>37.287471</ele>
        <time>2020-07-15T18:45:15.675Z</time>
      </trkpt>
      <trkpt lat="60.99929" lon="5.03743">
        <ele>29.455546</ele>
        <time>2020-07-15T18:45:28.516Z</time>
      </trkpt>
      <trkpt lat="61.00031" lon="5.03539">
        <ele>16.473796</ele>
        <time>2020-07-15T18:45:43.931Z</time>
      </trkpt>
      <trkpt lat="61.0006" lon="5.03483">
        <ele>13.618989</ele>
        <time>2020-07-15T18:45:48.556Z</time>
      </trkpt>
      <trkpt lat="61.00067" lon="5.03467">
        <ele>13.39474</ele>
        <time>2020-07-15T18:45:50.057Z</time>
      </trkpt>
      <trkpt lat="61.00103" lon="5.03422">
        <ele>12.53237</ele>
        <time>2020-07-15T18:45:55.601Z</time>
      </trkpt>
      <trkpt lat="61.00127" lon="5.03407">
        <ele>12.010874</ele>
        <time>2020-07-15T18:45:59.066Z</time>
      </trkpt>
      <trkpt lat="61.0013" lon="5.03405">
        <ele>11.935204</ele>
        <time>2020-07-15T18:46:00.215Z</time>
      </trkpt>
      <trkpt lat="61.00139" lon="5.03402">
        <ele>11.760736</ele>
        <time>2020-07-15T18:46:01.412Z</time>
      </trkpt>
      <trkpt lat="61.00176" lon="5.03402">
        <ele>10.984292</ele>
        <time>2020-07-15T18:46:07.554Z</time>
      </trkpt>
      <trkpt lat="61.00208" lon="5.03421">
        <ele>10.294282</ele>
        <time>2020-07-15T18:46:14.098Z</time>
      </trkpt>
      <trkpt lat="61.00219" lon="5.03432">
        <ele>10.055203</ele>
        <time>2020-07-15T18:46:16.387Z</time>
      </trkpt>
      <trkpt lat="61.00234" lon="5.03448">
        <ele>9.769438</ele>
        <time>2020-07-15T18:46:19.875Z</time>
      </trkpt>
      <trkpt lat="61.00269" lon="5.03471">
        <ele>9.145551</ele>
        <time>2020-07-15T18:46:26.230Z</time>
      </trkpt>
      <trkpt lat="61.00288" lon="5.0347">
        <ele>8.83421</ele>
        <time>2020-07-15T18:46:29.025Z</time>
      </trkpt>
      <trkpt lat="61.00308" lon="5.03452">
        <ele>8.468023</ele>
        <time>2020-07-15T18:46:32.081Z</time>
      </trkpt>
      <trkpt lat="61.00329" lon="5.03408">
        <ele>7.963371</ele>
        <time>2020-07-15T18:46:36.211Z</time>
      </trkpt>
      <trkpt lat="61.00376" lon="5.03247">
        <ele>6.071553</ele>
        <time>2020-07-15T18:46:48.024Z</time>
      </trkpt>
      <trkpt lat="61.00404" lon="5.03202">
        <ele>5.148311</ele>
        <time>2020-07-15T18:46:52.657Z</time>
      </trkpt>
      <trkpt lat="61.00422" lon="5.03195">
        <ele>4.680327</ele>
        <time>2020-07-15T18:46:55.026Z</time>
      </trkpt>
      <trkpt lat="61.00449" lon="5.03205">
        <ele>3.954345</ele>
        <time>2020-07-15T18:46:58.789Z</time>
      </trkpt>
      <trkpt lat="61.00483" lon="5.03235">
        <ele>3.008764</ele>
        <time>2020-07-15T18:47:03.859Z</time>
      </trkpt>
      <trkpt lat="61.00538" lon="5.03253">
        <ele>2.849476</ele>
        <time>2020-07-15T18:47:12.171Z</time>
      </trkpt>
      <trkpt lat="61.00556" lon="5.03275">
        <ele>3.134378</ele>
        <time>2020-07-15T18:47:15.558Z</time>
      </trkpt>
      <trkpt lat="61.00598" lon="5.03366">
        <ele>3.972339</ele>
        <time>2020-07-15T18:47:27.310Z</time>
      </trkpt>
      <trkpt lat="61.00617" lon="5.03383">
        <ele>4.25605</ele>
        <time>2020-07-15T18:47:31.653Z</time>
      </trkpt>
      <trkpt lat="61.00656" lon="5.0339">
        <ele>4.798389</ele>
        <time>2020-07-15T18:47:40.255Z</time>
      </trkpt>
      <trkpt lat="61.00691" lon="5.03384">
        <ele>8.440708</ele>
        <time>2020-07-15T18:47:56.231Z</time>
      </trkpt>
      <trkpt lat="61.00798" lon="5.03327">
        <ele>21.469043</ele>
        <time>2020-07-15T18:48:58.463Z</time>
      </trkpt>
      <trkpt lat="61.00815" lon="5.03319">
        <ele>23.605429</ele>
        <time>2020-07-15T18:49:08.500Z</time>
      </trkpt>
      <trkpt lat="61.00827" lon="5.03315">
        <ele>24.939245</ele>
        <time>2020-07-15T18:49:18.831Z</time>
      </trkpt>
      <trkpt lat="61.00899" lon="5.03312">
        <ele>34.06369</ele>
        <time>2020-07-15T18:50:13.921Z</time>
      </trkpt>
      <trkpt lat="61.0097" lon="5.0328">
        <ele>43.292644</ele>
        <time>2020-07-15T18:51:01.011Z</time>
      </trkpt>
      <trkpt lat="61.00993" lon="5.0327">
        <ele>46.290509</ele>
        <time>2020-07-15T18:51:11.803Z</time>
      </trkpt>
      <trkpt lat="61.01023" lon="5.0326">
        <ele>49.075278</ele>
        <time>2020-07-15T18:51:21.101Z</time>
      </trkpt>
      <trkpt lat="61.01053" lon="5.03237">
        <ele>48.861722</ele>
        <time>2020-07-15T18:51:29.011Z</time>
      </trkpt>
      <trkpt lat="61.01092" lon="5.03156">
        <ele>48.49968</ele>
        <time>2020-07-15T18:51:37.767Z</time>
      </trkpt>
      <trkpt lat="61.01121" lon="5.03118">
        <ele>48.272784</ele>
        <time>2020-07-15T18:51:42.489Z</time>
      </trkpt>
      <trkpt lat="61.01159" lon="5.03083">
        <ele>47.994476</ele>
        <time>2020-07-15T18:51:47.446Z</time>
      </trkpt>
      <trkpt lat="61.01188" lon="5.03092">
        <ele>47.584613</ele>
        <time>2020-07-15T18:51:51.021Z</time>
      </trkpt>
      <trkpt lat="61.01197" lon="5.03111">
        <ele>47.354383</ele>
        <time>2020-07-15T18:51:52.801Z</time>
      </trkpt>
      <trkpt lat="61.01204" lon="5.03151">
        <ele>47.01038</ele>
        <time>2020-07-15T18:51:55.528Z</time>
      </trkpt>
      <trkpt lat="61.01224" lon="5.03447">
        <ele>44.54891</ele>
        <time>2020-07-15T18:52:19.298Z</time>
      </trkpt>
      <trkpt lat="61.01266" lon="5.03771">
        <ele>41.888695</ele>
        <time>2020-07-15T18:52:43.057Z</time>
      </trkpt>
      <trkpt lat="61.01272" lon="5.03911">
        <ele>40.009229</ele>
        <time>2020-07-15T18:52:51.881Z</time>
      </trkpt>
      <trkpt lat="61.01283" lon="5.0395">
        <ele>39.398715</ele>
        <time>2020-07-15T18:52:54.734Z</time>
      </trkpt>
      <trkpt lat="61.01303" lon="5.03976">
        <ele>38.75201</ele>
        <time>2020-07-15T18:52:57.768Z</time>
      </trkpt>
      <trkpt lat="61.01325" lon="5.03983">
        <ele>38.146435</ele>
        <time>2020-07-15T18:53:00.602Z</time>
      </trkpt>
      <trkpt lat="61.01349" lon="5.0397">
        <ele>37.459044</ele>
        <time>2020-07-15T18:53:03.868Z</time>
      </trkpt>
      <trkpt lat="61.01433" lon="5.03885">
        <ele>38.318046</ele>
        <time>2020-07-15T18:53:17.906Z</time>
      </trkpt>
      <trkpt lat="61.01462" lon="5.03866">
        <ele>38.856408</ele>
        <time>2020-07-15T18:53:25.201Z</time>
      </trkpt>
      <trkpt lat="61.01489" lon="5.03868">
        <ele>39.329737</ele>
        <time>2020-07-15T18:53:32.920Z</time>
      </trkpt>
      <trkpt lat="61.01522" lon="5.03891">
        <ele>39.930117</ele>
        <time>2020-07-15T18:53:44.326Z</time>
      </trkpt>
      <trkpt lat="61.0154" lon="5.03921">
        <ele>41.066012</ele>
        <time>2020-07-15T18:53:53.061Z</time>
      </trkpt>
      <trkpt lat="61.01555" lon="5.03965">
        <ele>43.067925</ele>
        <time>2020-07-15T18:54:03.728Z</time>
      </trkpt>
      <trkpt lat="61.016" lon="5.04231">
        <ele>53.573077</ele>
        <time>2020-07-15T18:55:07.148Z</time>
      </trkpt>
      <trkpt lat="61.01614" lon="5.04263">
        <ele>54.306572</ele>
        <time>2020-07-15T18:55:16.034Z</time>
      </trkpt>
      <trkpt lat="61.01664" lon="5.04336">
        <ele>55.607521</ele>
        <time>2020-07-15T18:55:36.071Z</time>
      </trkpt>
      <trkpt lat="61.01694" lon="5.04439">
        <ele>56.841234</ele>
        <time>2020-07-15T18:55:47.914Z</time>
      </trkpt>
      <trkpt lat="61.01723" lon="5.04466">
        <ele>57.509943</ele>
        <time>2020-07-15T18:55:52.501Z</time>
      </trkpt>
      <trkpt lat="61.01787" lon="5.04478">
        <ele>57.087128</ele>
        <time>2020-07-15T18:56:00.881Z</time>
      </trkpt>
      <trkpt lat="61.01823" lon="5.04475">
        <ele>56.607766</ele>
        <time>2020-07-15T18:56:05.479Z</time>
      </trkpt>
      <trkpt lat="61.01843" lon="5.04451">
        <ele>56.302728</ele>
        <time>2020-07-15T18:56:08.566Z</time>
      </trkpt>
      <trkpt lat="61.01878" lon="5.04362">
        <ele>55.559556</ele>
        <time>2020-07-15T18:56:17.162Z</time>
      </trkpt>
      <trkpt lat="61.01909" lon="5.04311">
        <ele>57.08556</ele>
        <time>2020-07-15T18:56:27.993Z</time>
      </trkpt>
      <trkpt lat="61.01953" lon="5.04297">
        <ele>59.957971</ele>
        <time>2020-07-15T18:56:44.191Z</time>
      </trkpt>
      <trkpt lat="61.01988" lon="5.04312">
        <ele>62.257964</ele>
        <time>2020-07-15T18:56:59.169Z</time>
      </trkpt>
      <trkpt lat="61.02016" lon="5.04346">
        <ele>64.385178</ele>
        <time>2020-07-15T18:57:14.138Z</time>
      </trkpt>
      <trkpt lat="61.02043" lon="5.0441">
        <ele>67.00706</ele>
        <time>2020-07-15T18:57:33.869Z</time>
      </trkpt>
      <trkpt lat="61.02066" lon="5.04524">
        <ele>70.37763</ele>
        <time>2020-07-15T18:58:01.684Z</time>
      </trkpt>
      <trkpt lat="61.02088" lon="5.04692">
        <ele>75.099839</ele>
        <time>2020-07-15T18:58:32.015Z</time>
      </trkpt>
      <trkpt lat="61.02097" lon="5.04723">
        <ele>76.093244</ele>
        <time>2020-07-15T18:58:36.619Z</time>
      </trkpt>
      <trkpt lat="61.02121" lon="5.04784">
        <ele>76.693326</ele>
        <time>2020-07-15T18:58:44.541Z</time>
      </trkpt>
      <trkpt lat="61.02155" lon="5.04871">
        <ele>75.588601</ele>
        <time>2020-07-15T18:58:52.708Z</time>
      </trkpt>
      <trkpt lat="61.02232" lon="5.05094">
        <ele>72.244972</ele>
        <time>2020-07-15T18:59:09.685Z</time>
      </trkpt>
      <trkpt lat="61.02243" lon="5.05176">
        <ele>70.436675</ele>
        <time>2020-07-15T18:59:14.819Z</time>
      </trkpt>
      <trkpt lat="61.02218" lon="5.05325">
        <ele>67.088344</ele>
        <time>2020-07-15T18:59:24.428Z</time>
      </trkpt>
      <trkpt lat="61.02142" lon="5.0559">
        <ele>57.820338</ele>
        <time>2020-07-15T18:59:42.291Z</time>
      </trkpt>
      <trkpt lat="61.02145" lon="5.05614">
        <ele>56.995616</ele>
        <time>2020-07-15T18:59:43.669Z</time>
      </trkpt>
      <trkpt lat="61.02155" lon="5.05611">
        <ele>56.345373</ele>
        <time>2020-07-15T18:59:44.748Z</time>
      </trkpt>
      <trkpt lat="61.02162" lon="5.05597">
        <ele>55.661748</ele>
        <time>2020-07-15T18:59:45.890Z</time>
      </trkpt>
      <trkpt lat="61.0221" lon="5.05476">
        <ele>48.59775</ele>
        <time>2020-07-15T18:59:54.244Z</time>
      </trkpt>
      <trkpt lat="61.02285" lon="5.05321">
        <ele>36.61822</ele>
        <time>2020-07-15T19:00:05.473Z</time>
      </trkpt>
      <trkpt lat="61.02322" lon="5.05248">
        <ele>30.894317</ele>
        <time>2020-07-15T19:00:11.007Z</time>
      </trkpt>
      <trkpt lat="61.02354" lon="5.05206">
        <ele>26.962941</ele>
        <time>2020-07-15T19:00:15.034Z</time>
      </trkpt>
      <trkpt lat="61.02369" lon="5.05189">
        <ele>25.158921</ele>
        <time>2020-07-15T19:00:16.889Z</time>
      </trkpt>
      <trkpt lat="61.02384" lon="5.0517">
        <ele>23.337511</ele>
        <time>2020-07-15T19:00:18.784Z</time>
      </trkpt>
      <trkpt lat="61.02411" lon="5.05124">
        <ele>19.685202</ele>
        <time>2020-07-15T19:00:22.594Z</time>
      </trkpt>
      <trkpt lat="61.02427" lon="5.05076">
        <ele>16.747789</ele>
        <time>2020-07-15T19:00:25.664Z</time>
      </trkpt>
      <trkpt lat="61.02443" lon="5.04996">
        <ele>13.22057</ele>
        <time>2020-07-15T19:00:30.279Z</time>
      </trkpt>
      <trkpt lat="61.02452" lon="5.04898">
        <ele>10.59101</ele>
        <time>2020-07-15T19:00:35.825Z</time>
      </trkpt>
      <trkpt lat="61.02458" lon="5.04888">
        <ele>10.196999</ele>
        <time>2020-07-15T19:00:36.745Z</time>
      </trkpt>
      <trkpt lat="61.02464" lon="5.04895">
        <ele>9.791543</ele>
        <time>2020-07-15T19:00:37.661Z</time>
      </trkpt>
      <trkpt lat="61.02463" lon="5.04966">
        <ele>7.925052</ele>
        <time>2020-07-15T19:00:41.951Z</time>
      </trkpt>
      <trkpt lat="61.02464" lon="5.04986">
        <ele>7.387513</ele>
        <time>2020-07-15T19:00:43.092Z</time>
      </trkpt>
      <trkpt lat="61.02464" lon="5.05">
        <ele>7.031129</ele>
        <time>2020-07-15T19:00:43.964Z</time>
      </trkpt>
      <trkpt lat="61.02472" lon="5.05057">
        <ele>5.483668</ele>
        <time>2020-07-15T19:00:47.672Z</time>
      </trkpt>
      <trkpt lat="61.02472" lon="5.05059">
        <ele>5.427111</ele>
        <time>2020-07-15T19:00:47.793Z</time>
      </trkpt>
      <trkpt lat="61.02474" lon="5.05066">
        <ele>5.224426</ele>
        <time>2020-07-15T19:00:48.326Z</time>
      </trkpt>
      <trkpt lat="61.02479" lon="5.05078">
        <ele>4.807209</ele>
        <time>2020-07-15T19:00:49.494Z</time>
      </trkpt>
      <trkpt lat="61.02483" lon="5.05087">
        <ele>4.493462</ele>
        <time>2020-07-15T19:00:50.365Z</time>
      </trkpt>
      <trkpt lat="61.02488" lon="5.05097">
        <ele>4.543764</ele>
        <time>2020-07-15T19:00:51.471Z</time>
      </trkpt>
      <trkpt lat="61.02491" lon="5.05101">
        <ele>4.595673</ele>
        <time>2020-07-15T19:00:51.842Z</time>
      </trkpt>
      <trkpt lat="61.02499" lon="5.0511">
        <ele>4.746462</ele>
        <time>2020-07-15T19:00:52.937Z</time>
      </trkpt>
      <trkpt lat="61.02516" lon="5.05127">
        <ele>5.067489</ele>
        <time>2020-07-15T19:00:56.011Z</time>
      </trkpt>
      <trkpt lat="61.02523" lon="5.05134">
        <ele>5.200162</ele>
        <time>2020-07-15T19:00:57.117Z</time>
      </trkpt>
      <trkpt lat="61.02546" lon="5.05155">
        <ele>5.627483</ele>
        <time>2020-07-15T19:01:01.975Z</time>
      </trkpt>
      <trkpt lat="61.02662" lon="5.05258">
        <ele>7.801839</ele>
        <time>2020-07-15T19:01:40.146Z</time>
      </trkpt>
      <trkpt lat="61.02669" lon="5.05264">
        <ele>7.936727</ele>
        <time>2020-07-15T19:01:42.742Z</time>
      </trkpt>
      <trkpt lat="61.02673" lon="5.05268">
        <ele>8.031318</ele>
        <time>2020-07-15T19:01:44.082Z</time>
      </trkpt>
      <trkpt lat="61.02678" lon="5.05272">
        <ele>8.131018</ele>
        <time>2020-07-15T19:01:46.917Z</time>
      </trkpt>
      <trkpt lat="61.02683" lon="5.05276">
        <ele>8.225968</ele>
        <time>2020-07-15T19:01:48.749Z</time>
      </trkpt>
      <trkpt lat="61.02738" lon="5.05334">
        <ele>9.357215</ele>
        <time>2020-07-15T19:02:03.713Z</time>
      </trkpt>
      <trkpt lat="61.02744" lon="5.05336">
        <ele>9.48042</ele>
        <time>2020-07-15T19:02:06.351Z</time>
      </trkpt>
      <trkpt lat="61.02749" lon="5.05337">
        <ele>9.569188</ele>
        <time>2020-07-15T19:02:06.981Z</time>
      </trkpt>
      <trkpt lat="61.02771" lon="5.0532">
        <ele>10.000895</ele>
        <time>2020-07-15T19:02:11.735Z</time>
      </trkpt>
      <trkpt lat="61.02822" lon="5.05214">
        <ele>10.324</ele>
        <time>2020-07-15T19:02:24.230Z</time>
      </trkpt>
      <trkpt lat="61.02852" lon="5.05175">
        <ele>9.713157</ele>
        <time>2020-07-15T19:02:28.941Z</time>
      </trkpt>
      <trkpt lat="61.02856" lon="5.05169">
        <ele>9.622955</ele>
        <time>2020-07-15T19:02:29.671Z</time>
      </trkpt>
      <trkpt lat="61.02867" lon="5.05157">
        <ele>9.407483</ele>
        <time>2020-07-15T19:02:31.199Z</time>
      </trkpt>
      <trkpt lat="61.0289" lon="5.05122">
        <ele>8.920499</ele>
        <time>2020-07-15T19:02:34.782Z</time>
      </trkpt>
      <trkpt lat="61.02903" lon="5.05106">
        <ele>8.666005</ele>
        <time>2020-07-15T19:02:36.930Z</time>
      </trkpt>
      <trkpt lat="61.02914" lon="5.05087">
        <ele>8.413868</ele>
        <time>2020-07-15T19:02:38.728Z</time>
      </trkpt>
      <trkpt lat="61.02938" lon="5.05015">
        <ele>7.772552</ele>
        <time>2020-07-15T19:02:45.140Z</time>
      </trkpt>
      <trkpt lat="61.02989" lon="5.04811">
        <ele>10.216031</ele>
        <time>2020-07-15T19:03:12.976Z</time>
      </trkpt>
      <trkpt lat="61.02995" lon="5.04787">
        <ele>10.502306</ele>
        <time>2020-07-15T19:03:16.776Z</time>
      </trkpt>
      <trkpt lat="61.03001" lon="5.04764">
        <ele>10.771264</ele>
        <time>2020-07-15T19:03:20.617Z</time>
      </trkpt>
      <trkpt lat="61.03012" lon="5.04725">
        <ele>11.264415</ele>
        <time>2020-07-15T19:03:26.632Z</time>
      </trkpt>
      <trkpt lat="61.0303" lon="5.04638">
        <ele>13.096267</ele>
        <time>2020-07-15T19:03:38.741Z</time>
      </trkpt>
      <trkpt lat="61.0303" lon="5.04632">
        <ele>13.234128</ele>
        <time>2020-07-15T19:03:40.648Z</time>
      </trkpt>
      <trkpt lat="61.0303" lon="5.04614">
        <ele>13.714201</ele>
        <time>2020-07-15T19:03:43.102Z</time>
      </trkpt>
      <trkpt lat="61.03023" lon="5.04521">
        <ele>16.112845</ele>
        <time>2020-07-15T19:03:59.579Z</time>
      </trkpt>
      <trkpt lat="61.03022" lon="5.04508">
        <ele>16.425683</ele>
        <time>2020-07-15T19:04:01.247Z</time>
      </trkpt>
      <trkpt lat="61.03022" lon="5.04508">
        <ele>16.428234</ele>
        <time>2020-07-15T19:04:01.485Z</time>
      </trkpt>
      <trkpt lat="61.03022" lon="5.04508">
        <ele>16.430785</ele>
        <time>2020-07-15T19:04:01.519Z</time>
      </trkpt>
      <trkpt lat="61.0302" lon="5.04494">
        <ele>16.815681</ele>
        <time>2020-07-15T19:04:03.125Z</time>
      </trkpt>
      <trkpt lat="61.0301" lon="5.04408">
        <ele>19.075707</ele>
        <time>2020-07-15T19:04:21.014Z</time>
      </trkpt>
      <trkpt lat="61.03009" lon="5.04347">
        <ele>20.630071</ele>
        <time>2020-07-15T19:04:31.443Z</time>
      </trkpt>
      <trkpt lat="61.03013" lon="5.04326">
        <ele>21.196597</ele>
        <time>2020-07-15T19:04:37.365Z</time>
      </trkpt>
      <trkpt lat="61.03015" lon="5.04318">
        <ele>21.333569</ele>
        <time>2020-07-15T19:04:40.307Z</time>
      </trkpt>
      <trkpt lat="61.03053" lon="5.04219">
        <ele>23.436284</ele>
        <time>2020-07-15T19:04:58.535Z</time>
      </trkpt>
      <trkpt lat="61.03055" lon="5.04215">
        <ele>23.54197</ele>
        <time>2020-07-15T19:05:00.423Z</time>
      </trkpt>
      <trkpt lat="61.03064" lon="5.04189">
        <ele>24.066836</ele>
        <time>2020-07-15T19:05:05.402Z</time>
      </trkpt>
      <trkpt lat="61.03093" lon="5.04123">
        <ele>25.532481</ele>
        <time>2020-07-15T19:05:16.172Z</time>
      </trkpt>
      <trkpt lat="61.03118" lon="5.04057">
        <ele>26.914932</ele>
        <time>2020-07-15T19:05:26.226Z</time>
      </trkpt>
      <trkpt lat="61.03136" lon="5.04013">
        <ele>27.091854</ele>
        <time>2020-07-15T19:05:31.893Z</time>
      </trkpt>
      <trkpt lat="61.03151" lon="5.03973">
        <ele>26.799593</ele>
        <time>2020-07-15T19:05:36.273Z</time>
      </trkpt>
      <trkpt lat="61.03173" lon="5.03916">
        <ele>26.371118</ele>
        <time>2020-07-15T19:05:41.436Z</time>
      </trkpt>
      <trkpt lat="61.03216" lon="5.03861">
        <ele>25.773438</ele>
        <time>2020-07-15T19:05:48.238Z</time>
      </trkpt>
      <trkpt lat="61.03262" lon="5.03784">
        <ele>25.240343</ele>
        <time>2020-07-15T19:05:56.025Z</time>
      </trkpt>
      <trkpt lat="61.03306" lon="5.03736">
        <ele>26.02314</ele>
        <time>2020-07-15T19:06:06.374Z</time>
      </trkpt>
      <trkpt lat="61.03343" lon="5.03673">
        <ele>26.771105</ele>
        <time>2020-07-15T19:06:18.609Z</time>
      </trkpt>
      <trkpt lat="61.03369" lon="5.03653">
        <ele>27.208939</ele>
        <time>2020-07-15T19:06:26.085Z</time>
      </trkpt>
      <trkpt lat="61.034" lon="5.03652">
        <ele>27.702033</ele>
        <time>2020-07-15T19:06:34.802Z</time>
      </trkpt>
      <trkpt lat="61.03428" lon="5.03674">
        <ele>28.115809</ele>
        <time>2020-07-15T19:06:43.283Z</time>
      </trkpt>
      <trkpt lat="61.0347" lon="5.03756">
        <ele>28.791481</ele>
        <time>2020-07-15T19:06:58.485Z</time>
      </trkpt>
      <trkpt lat="61.0354" lon="5.03859">
        <ele>29.802349</ele>
        <time>2020-07-15T19:07:16.276Z</time>
      </trkpt>
      <trkpt lat="61.03598" lon="5.04001">
        <ele>28.505618</ele>
        <time>2020-07-15T19:07:29.314Z</time>
      </trkpt>
      <trkpt lat="61.03632" lon="5.04059">
        <ele>27.4668</ele>
        <time>2020-07-15T19:07:35.216Z</time>
      </trkpt>
      <trkpt lat="61.03719" lon="5.04189">
        <ele>24.697392</ele>
        <time>2020-07-15T19:07:49.309Z</time>
      </trkpt>
      <trkpt lat="61.03771" lon="5.04243">
        <ele>22.969342</ele>
        <time>2020-07-15T19:07:57.047Z</time>
      </trkpt>
      <trkpt lat="61.0383" lon="5.04262">
        <ele>21.200169</ele>
        <time>2020-07-15T19:08:04.990Z</time>
      </trkpt>
      <trkpt lat="61.03858" lon="5.04255">
        <ele>20.299034</ele>
        <time>2020-07-15T19:08:08.785Z</time>
      </trkpt>
      <trkpt lat="61.03883" lon="5.04239">
        <ele>19.254298</ele>
        <time>2020-07-15T19:08:12.263Z</time>
      </trkpt>
      <trkpt lat="61.03913" lon="5.04207">
        <ele>17.883051</ele>
        <time>2020-07-15T19:08:16.491Z</time>
      </trkpt>
      <trkpt lat="61.0395" lon="5.04123">
        <ele>15.667381</ele>
        <time>2020-07-15T19:08:23.256Z</time>
      </trkpt>
      <trkpt lat="61.03977" lon="5.04083">
        <ele>14.352679</ele>
        <time>2020-07-15T19:08:27.482Z</time>
      </trkpt>
      <trkpt lat="61.03995" lon="5.04066">
        <ele>13.551977</ele>
        <time>2020-07-15T19:08:29.865Z</time>
      </trkpt>
      <trkpt lat="61.0401" lon="5.04068">
        <ele>13.05946</ele>
        <time>2020-07-15T19:08:31.922Z</time>
      </trkpt>
      <trkpt lat="61.04013" lon="5.0407">
        <ele>13.002255</ele>
        <time>2020-07-15T19:08:32.157Z</time>
      </trkpt>
      <trkpt lat="61.04018" lon="5.04076">
        <ele>12.856441</ele>
        <time>2020-07-15T19:08:32.915Z</time>
      </trkpt>
      <trkpt lat="61.04059" lon="5.04215">
        <ele>10.964165</ele>
        <time>2020-07-15T19:08:43.140Z</time>
      </trkpt>
      <trkpt lat="61.04073" lon="5.04233">
        <ele>10.570384</ele>
        <time>2020-07-15T19:08:45.632Z</time>
      </trkpt>
      <trkpt lat="61.04087" lon="5.04234">
        <ele>10.215274</ele>
        <time>2020-07-15T19:08:47.481Z</time>
      </trkpt>
      <trkpt lat="61.04111" lon="5.04205">
        <ele>9.555026</ele>
        <time>2020-07-15T19:08:51.410Z</time>
      </trkpt>
      <trkpt lat="61.04163" lon="5.04091">
        <ele>9.926603</ele>
        <time>2020-07-15T19:09:07.323Z</time>
      </trkpt>
      <trkpt lat="61.04255" lon="5.03983">
        <ele>11.974227</ele>
        <time>2020-07-15T19:09:36.572Z</time>
      </trkpt>
      <trkpt lat="61.04284" lon="5.03966">
        <ele>12.41617</ele>
        <time>2020-07-15T19:09:44.224Z</time>
      </trkpt>
      <trkpt lat="61.04309" lon="5.03968">
        <ele>12.375552</ele>
        <time>2020-07-15T19:09:49.725Z</time>
      </trkpt>
      <trkpt lat="61.04343" lon="5.03965">
        <ele>12.319527</ele>
        <time>2020-07-15T19:09:56.372Z</time>
      </trkpt>
      <trkpt lat="61.04434" lon="5.03963">
        <ele>12.170212</ele>
        <time>2020-07-15T19:10:11.876Z</time>
      </trkpt>
      <trkpt lat="61.04441" lon="5.03962">
        <ele>12.157933</ele>
        <time>2020-07-15T19:10:12.824Z</time>
      </trkpt>
      <trkpt lat="61.04454" lon="5.03966">
        <ele>12.136439</ele>
        <time>2020-07-15T19:10:14.819Z</time>
      </trkpt>
      <trkpt lat="61.04507" lon="5.04008">
        <ele>10.707791</ele>
        <time>2020-07-15T19:10:22.063Z</time>
      </trkpt>
      <trkpt lat="61.04555" lon="5.04082">
        <ele>9.134739</ele>
        <time>2020-07-15T19:10:29.854Z</time>
      </trkpt>
      <trkpt lat="61.04569" lon="5.04106">
        <ele>8.654198</ele>
        <time>2020-07-15T19:10:32.158Z</time>
      </trkpt>
      <trkpt lat="61.04585" lon="5.04135">
        <ele>8.098064</ele>
        <time>2020-07-15T19:10:35.057Z</time>
      </trkpt>
      <trkpt lat="61.0465" lon="5.04256">
        <ele>6.802253</ele>
        <time>2020-07-15T19:10:48.384Z</time>
      </trkpt>
      <trkpt lat="61.04667" lon="5.04285">
        <ele>6.589758</ele>
        <time>2020-07-15T19:10:51.725Z</time>
      </trkpt>
      <trkpt lat="61.04691" lon="5.04331">
        <ele>6.274238</ele>
        <time>2020-07-15T19:10:56.710Z</time>
      </trkpt>
      <trkpt lat="61.04715" lon="5.04369">
        <ele>5.98618</ele>
        <time>2020-07-15T19:11:01.638Z</time>
      </trkpt>
      <trkpt lat="61.04733" lon="5.04401">
        <ele>5.757747</ele>
        <time>2020-07-15T19:11:05.766Z</time>
      </trkpt>
      <trkpt lat="61.0475" lon="5.04436">
        <ele>5.709303</ele>
        <time>2020-07-15T19:11:09.721Z</time>
      </trkpt>
      <trkpt lat="61.04766" lon="5.04465">
        <ele>5.790522</ele>
        <time>2020-07-15T19:11:13.281Z</time>
      </trkpt>
      <trkpt lat="61.04784" lon="5.04499">
        <ele>5.883543</ele>
        <time>2020-07-15T19:11:17.557Z</time>
      </trkpt>
      <trkpt lat="61.048" lon="5.04521">
        <ele>5.958808</ele>
        <time>2020-07-15T19:11:20.873Z</time>
      </trkpt>
      <trkpt lat="61.04862" lon="5.04615">
        <ele>6.258121</ele>
        <time>2020-07-15T19:11:36.864Z</time>
      </trkpt>
      <trkpt lat="61.04896" lon="5.04752">
        <ele>7.124594</ele>
        <time>2020-07-15T19:11:52.311Z</time>
      </trkpt>
      <trkpt lat="61.04906" lon="5.04779">
        <ele>7.377224</ele>
        <time>2020-07-15T19:11:55.938Z</time>
      </trkpt>
      <trkpt lat="61.04916" lon="5.04808">
        <ele>7.65111</ele>
        <time>2020-07-15T19:12:00.226Z</time>
      </trkpt>
      <trkpt lat="61.04944" lon="5.04862">
        <ele>8.239881</ele>
        <time>2020-07-15T19:12:09.174Z</time>
      </trkpt>
      <trkpt lat="61.04975" lon="5.04899">
        <ele>8.790488</ele>
        <time>2020-07-15T19:12:17.759Z</time>
      </trkpt>
      <trkpt lat="61.0502" lon="5.04906">
        <ele>9.404812</ele>
        <time>2020-07-15T19:12:28.589Z</time>
      </trkpt>
      <trkpt lat="61.05052" lon="5.04882">
        <ele>9.826072</ele>
        <time>2020-07-15T19:12:36.916Z</time>
      </trkpt>
      <trkpt lat="61.05141" lon="5.0473">
        <ele>11.237057</ele>
        <time>2020-07-15T19:13:01.599Z</time>
      </trkpt>
      <trkpt lat="61.0518" lon="5.0446">
        <ele>10.824501</ele>
        <time>2020-07-15T19:13:25.326Z</time>
      </trkpt>
      <trkpt lat="61.05201" lon="5.04401">
        <ele>10.687538</ele>
        <time>2020-07-15T19:13:30.692Z</time>
      </trkpt>
      <trkpt lat="61.05269" lon="5.04362">
        <ele>10.511188</ele>
        <time>2020-07-15T19:13:41.127Z</time>
      </trkpt>
      <trkpt lat="61.05353" lon="5.04233">
        <ele>10.290794</ele>
        <time>2020-07-15T19:13:58.115Z</time>
      </trkpt>
      <trkpt lat="61.05383" lon="5.04208">
        <ele>10.595822</ele>
        <time>2020-07-15T19:14:06.550Z</time>
      </trkpt>
      <trkpt lat="61.05407" lon="5.042">
        <ele>11.246175</ele>
        <time>2020-07-15T19:14:12.694Z</time>
      </trkpt>
      <trkpt lat="61.05434" lon="5.04201">
        <ele>11.996768</ele>
        <time>2020-07-15T19:14:19.526Z</time>
      </trkpt>
      <trkpt lat="61.05451" lon="5.04206">
        <ele>12.460594</ele>
        <time>2020-07-15T19:14:25.579Z</time>
      </trkpt>
      <trkpt lat="61.05468" lon="5.04217">
        <ele>12.960122</ele>
        <time>2020-07-15T19:14:29.673Z</time>
      </trkpt>
      <trkpt lat="61.05486" lon="5.04233">
        <ele>13.489527</ele>
        <time>2020-07-15T19:14:36.102Z</time>
      </trkpt>
      <trkpt lat="61.05511" lon="5.04252">
        <ele>14.234794</ele>
        <time>2020-07-15T19:14:43.369Z</time>
      </trkpt>
      <trkpt lat="61.05599" lon="5.0433">
        <ele>15.710146</ele>
        <time>2020-07-15T19:15:09.346Z</time>
      </trkpt>
      <trkpt lat="61.05607" lon="5.04333">
        <ele>15.779836</ele>
        <time>2020-07-15T19:15:11.699Z</time>
      </trkpt>
      <trkpt lat="61.05625" lon="5.04337">
        <ele>15.93319</ele>
        <time>2020-07-15T19:15:16.016Z</time>
      </trkpt>
      <trkpt lat="61.05639" lon="5.04341">
        <ele>16.053082</ele>
        <time>2020-07-15T19:15:18.655Z</time>
      </trkpt>
      <trkpt lat="61.05653" lon="5.04348">
        <ele>16.176085</ele>
        <time>2020-07-15T19:15:21.578Z</time>
      </trkpt>
      <trkpt lat="61.05758" lon="5.04434">
        <ele>16.03993</ele>
        <time>2020-07-15T19:15:37.960Z</time>
      </trkpt>
      <trkpt lat="61.05791" lon="5.04441">
        <ele>15.559424</ele>
        <time>2020-07-15T19:15:42.803Z</time>
      </trkpt>
      <trkpt lat="61.05833" lon="5.04421">
        <ele>14.950958</ele>
        <time>2020-07-15T19:15:49.053Z</time>
      </trkpt>
      <trkpt lat="61.0588" lon="5.04474">
        <ele>14.198248</ele>
        <time>2020-07-15T19:15:57.170Z</time>
      </trkpt>
      <trkpt lat="61.05908" lon="5.04531">
        <ele>14.05212</ele>
        <time>2020-07-15T19:16:03.555Z</time>
      </trkpt>
      <trkpt lat="61.05931" lon="5.04555">
        <ele>13.969637</ele>
        <time>2020-07-15T19:16:07.839Z</time>
      </trkpt>
      <trkpt lat="61.05949" lon="5.04589">
        <ele>13.887855</ele>
        <time>2020-07-15T19:16:12.616Z</time>
      </trkpt>
      <trkpt lat="61.05976" lon="5.04694">
        <ele>13.699625</ele>
        <time>2020-07-15T19:16:21.968Z</time>
      </trkpt>
      <trkpt lat="61.05978" lon="5.04799">
        <ele>13.5756</ele>
        <time>2020-07-15T19:16:31.520Z</time>
      </trkpt>
      <trkpt lat="61.0598" lon="5.04816">
        <ele>13.569442</ele>
        <time>2020-07-15T19:16:33.042Z</time>
      </trkpt>
      <trkpt lat="61.05991" lon="5.0483">
        <ele>13.560748</ele>
        <time>2020-07-15T19:16:34.961Z</time>
      </trkpt>
      <trkpt lat="61.06009" lon="5.04833">
        <ele>13.548406</ele>
        <time>2020-07-15T19:16:38.904Z</time>
      </trkpt>
      <trkpt lat="61.06026" lon="5.04838">
        <ele>13.536642</ele>
        <time>2020-07-15T19:16:41.458Z</time>
      </trkpt>
      <trkpt lat="61.06056" lon="5.0487">
        <ele>13.513143</ele>
        <time>2020-07-15T19:16:47.577Z</time>
      </trkpt>
      <trkpt lat="61.06097" lon="5.04983">
        <ele>13.466564</ele>
        <time>2020-07-15T19:16:59.390Z</time>
      </trkpt>
      <trkpt lat="61.06191" lon="5.05385">
        <ele>13.852483</ele>
        <time>2020-07-15T19:17:38.972Z</time>
      </trkpt>
      <trkpt lat="61.06268" lon="5.0561">
        <ele>14.498892</ele>
        <time>2020-07-15T19:18:05.301Z</time>
      </trkpt>
      <trkpt lat="61.0627" lon="5.05618">
        <ele>14.519554</ele>
        <time>2020-07-15T19:18:05.927Z</time>
      </trkpt>
      <trkpt lat="61.06275" lon="5.05652">
        <ele>14.581678</ele>
        <time>2020-07-15T19:18:09.668Z</time>
      </trkpt>
      <trkpt lat="61.06283" lon="5.05726">
        <ele>14.642592</ele>
        <time>2020-07-15T19:18:17.071Z</time>
      </trkpt>
      <trkpt lat="61.06333" lon="5.0605">
        <ele>14.244628</ele>
        <time>2020-07-15T19:18:47.489Z</time>
      </trkpt>
      <trkpt lat="61.06353" lon="5.06215">
        <ele>12.401879</ele>
        <time>2020-07-15T19:18:58.796Z</time>
      </trkpt>
      <trkpt lat="61.06375" lon="5.06287">
        <ele>11.478413</ele>
        <time>2020-07-15T19:19:04.182Z</time>
      </trkpt>
      <trkpt lat="61.06407" lon="5.06358">
        <ele>10.367222</ele>
        <time>2020-07-15T19:19:10.186Z</time>
      </trkpt>
      <trkpt lat="61.06447" lon="5.06446">
        <ele>8.849128</ele>
        <time>2020-07-15T19:19:17.778Z</time>
      </trkpt>
      <trkpt lat="61.06457" lon="5.06516">
        <ele>7.931583</ele>
        <time>2020-07-15T19:19:22.447Z</time>
      </trkpt>
      <trkpt lat="61.06452" lon="5.06737">
        <ele>6.927571</ele>
        <time>2020-07-15T19:19:37.989Z</time>
      </trkpt>
      <trkpt lat="61.06432" lon="5.06813">
        <ele>7.69095</ele>
        <time>2020-07-15T19:19:47.066Z</time>
      </trkpt>
      <trkpt lat="61.06427" lon="5.06859">
        <ele>8.119237</ele>
        <time>2020-07-15T19:19:51.945Z</time>
      </trkpt>
      <trkpt lat="61.06435" lon="5.07034">
        <ele>10.19746</ele>
        <time>2020-07-15T19:20:18.912Z</time>
      </trkpt>
      <trkpt lat="61.06435" lon="5.07094">
        <ele>12.319044</ele>
        <time>2020-07-15T19:20:27.894Z</time>
      </trkpt>
      <trkpt lat="61.06433" lon="5.07107">
        <ele>12.826937</ele>
        <time>2020-07-15T19:20:31.992Z</time>
      </trkpt>
      <trkpt lat="61.0642" lon="5.07155">
        <ele>14.757986</ele>
        <time>2020-07-15T19:20:40.898Z</time>
      </trkpt>
      <trkpt lat="61.06382" lon="5.07204">
        <ele>18.052319</ele>
        <time>2020-07-15T19:21:01.026Z</time>
      </trkpt>
      <trkpt lat="61.06365" lon="5.07238">
        <ele>19.788975</ele>
        <time>2020-07-15T19:21:10.284Z</time>
      </trkpt>
      <trkpt lat="61.06332" lon="5.0745">
        <ele>29.188904</ele>
        <time>2020-07-15T19:22:04.279Z</time>
      </trkpt>
      <trkpt lat="61.06319" lon="5.07443">
        <ele>30.476453</ele>
        <time>2020-07-15T19:22:11.811Z</time>
      </trkpt>
      <trkpt lat="61.06304" lon="5.0737">
        <ele>34.149827</ele>
        <time>2020-07-15T19:22:30.418Z</time>
      </trkpt>
      <trkpt lat="61.06288" lon="5.0735">
        <ele>35.938806</ele>
        <time>2020-07-15T19:22:38.144Z</time>
      </trkpt>
      <trkpt lat="61.06285" lon="5.07349">
        <ele>36.227095</ele>
        <time>2020-07-15T19:22:40.534Z</time>
      </trkpt>
      <trkpt lat="61.06274" lon="5.07336">
        <ele>37.479424</ele>
        <time>2020-07-15T19:22:47.117Z</time>
      </trkpt>
      <trkpt lat="61.06272" lon="5.07317">
        <ele>38.400051</ele>
        <time>2020-07-15T19:22:51.100Z</time>
      </trkpt>
      <trkpt lat="61.06276" lon="5.07281">
        <ele>40.078472</ele>
        <time>2020-07-15T19:22:59.783Z</time>
      </trkpt>
      <trkpt lat="61.06271" lon="5.07272">
        <ele>40.657357</ele>
        <time>2020-07-15T19:23:03.171Z</time>
      </trkpt>
      <trkpt lat="61.06264" lon="5.0728">
        <ele>41.381341</ele>
        <time>2020-07-15T19:23:06.791Z</time>
      </trkpt>
      <trkpt lat="61.06258" lon="5.07357">
        <ele>44.540384</ele>
        <time>2020-07-15T19:23:23.850Z</time>
      </trkpt>
      <trkpt lat="61.06231" lon="5.07429">
        <ele>48.254824</ele>
        <time>2020-07-15T19:23:43.619Z</time>
      </trkpt>
      <trkpt lat="61.06218" lon="5.07507">
        <ele>51.610718</ele>
        <time>2020-07-15T19:24:02.099Z</time>
      </trkpt>
      <trkpt lat="61.06203" lon="5.07517">
        <ele>52.93693</ele>
        <time>2020-07-15T19:24:08.401Z</time>
      </trkpt>
      <trkpt lat="61.0619" lon="5.075">
        <ele>54.183808</ele>
        <time>2020-07-15T19:24:14.693Z</time>
      </trkpt>
      <trkpt lat="61.06186" lon="5.07467">
        <ele>55.66268</ele>
        <time>2020-07-15T19:24:21.340Z</time>
      </trkpt>
      <trkpt lat="61.06188" lon="5.07345">
        <ele>61.323757</ele>
        <time>2020-07-15T19:24:47.401Z</time>
      </trkpt>
      <trkpt lat="61.06195" lon="5.07298">
        <ele>63.588573</ele>
        <time>2020-07-15T19:24:58.267Z</time>
      </trkpt>
      <trkpt lat="61.06193" lon="5.07286">
        <ele>64.197898</ele>
        <time>2020-07-15T19:25:01.479Z</time>
      </trkpt>
      <trkpt lat="61.06187" lon="5.07284">
        <ele>64.77036</ele>
        <time>2020-07-15T19:25:04.479Z</time>
      </trkpt>
      <trkpt lat="61.06166" lon="5.07397">
        <ele>70.378963</ele>
        <time>2020-07-15T19:25:34.275Z</time>
      </trkpt>
      <trkpt lat="61.06124" lon="5.07459">
        <ele>76.454625</ele>
        <time>2020-07-15T19:26:03.542Z</time>
      </trkpt>
      <trkpt lat="61.06126" lon="5.07533">
        <ele>81.082841</ele>
        <time>2020-07-15T19:26:24.501Z</time>
      </trkpt>
      <trkpt lat="61.06092" lon="5.07629">
        <ele>88.51245</ele>
        <time>2020-07-15T19:26:59.373Z</time>
      </trkpt>
      <trkpt lat="61.06061" lon="5.07693">
        <ele>94.203482</ele>
        <time>2020-07-15T19:27:27.231Z</time>
      </trkpt>
      <trkpt lat="61.06034" lon="5.07718">
        <ele>97.984687</ele>
        <time>2020-07-15T19:27:45.804Z</time>
      </trkpt>
      <trkpt lat="61.05835" lon="5.07841">
        <ele>123.469877</ele>
        <time>2020-07-15T19:29:46.886Z</time>
      </trkpt>
      <trkpt lat="61.05781" lon="5.07841">
        <ele>129.1053</ele>
        <time>2020-07-15T19:30:14.812Z</time>
      </trkpt>
      <trkpt lat="61.05761" lon="5.0786">
        <ele>131.378239</ele>
        <time>2020-07-15T19:30:25.702Z</time>
      </trkpt>
      <trkpt lat="61.05745" lon="5.07896">
        <ele>133.868721</ele>
        <time>2020-07-15T19:30:36.784Z</time>
      </trkpt>
      <trkpt lat="61.05736" lon="5.07929">
        <ele>135.772861</ele>
        <time>2020-07-15T19:30:45.574Z</time>
      </trkpt>
      <trkpt lat="61.05723" lon="5.07972">
        <ele>138.000224</ele>
        <time>2020-07-15T19:30:56.535Z</time>
      </trkpt>
      <trkpt lat="61.05689" lon="5.08118">
        <ele>143.80408</ele>
        <time>2020-07-15T19:31:29.876Z</time>
      </trkpt>
      <trkpt lat="61.05632" lon="5.08277">
        <ele>150.695128</ele>
        <time>2020-07-15T19:32:08.699Z</time>
      </trkpt>
      <trkpt lat="61.05614" lon="5.08375">
        <ele>152.873385</ele>
        <time>2020-07-15T19:32:26.058Z</time>
      </trkpt>
      <trkpt lat="61.05604" lon="5.08405">
        <ele>153.606594</ele>
        <time>2020-07-15T19:32:32.324Z</time>
      </trkpt>
      <trkpt lat="61.05593" lon="5.08448">
        <ele>154.611397</ele>
        <time>2020-07-15T19:32:39.529Z</time>
      </trkpt>
      <trkpt lat="61.05578" lon="5.08507">
        <ele>155.960104</ele>
        <time>2020-07-15T19:32:48.868Z</time>
      </trkpt>
      <trkpt lat="61.05575" lon="5.08524">
        <ele>156.332124</ele>
        <time>2020-07-15T19:32:51.842Z</time>
      </trkpt>
      <trkpt lat="61.05573" lon="5.08538">
        <ele>156.63354</ele>
        <time>2020-07-15T19:32:53.971Z</time>
      </trkpt>
      <trkpt lat="61.05571" lon="5.08581">
        <ele>157.530952</ele>
        <time>2020-07-15T19:32:59.329Z</time>
      </trkpt>
      <trkpt lat="61.05571" lon="5.08634">
        <ele>158.253734</ele>
        <time>2020-07-15T19:33:06.188Z</time>
      </trkpt>
      <trkpt lat="61.05591" lon="5.08868">
        <ele>159.519603</ele>
        <time>2020-07-15T19:33:31.082Z</time>
      </trkpt>
      <trkpt lat="61.05606" lon="5.09004">
        <ele>160.029368</ele>
        <time>2020-07-15T19:33:43.303Z</time>
      </trkpt>
      <trkpt lat="61.05643" lon="5.09245">
        <ele>159.373671</ele>
        <time>2020-07-15T19:34:04.821Z</time>
      </trkpt>
      <trkpt lat="61.05648" lon="5.09275">
        <ele>159.292574</ele>
        <time>2020-07-15T19:34:06.970Z</time>
      </trkpt>
      <trkpt lat="61.05653" lon="5.09299">
        <ele>159.223605</ele>
        <time>2020-07-15T19:34:08.996Z</time>
      </trkpt>
      <trkpt lat="61.05672" lon="5.09432">
        <ele>157.084162</ele>
        <time>2020-07-15T19:34:18.400Z</time>
      </trkpt>
      <trkpt lat="61.05667" lon="5.09501">
        <ele>155.742976</ele>
        <time>2020-07-15T19:34:22.805Z</time>
      </trkpt>
      <trkpt lat="61.0566" lon="5.09533">
        <ele>155.067026</ele>
        <time>2020-07-15T19:34:25.044Z</time>
      </trkpt>
      <trkpt lat="61.05656" lon="5.09553">
        <ele>154.648283</ele>
        <time>2020-07-15T19:34:26.293Z</time>
      </trkpt>
      <trkpt lat="61.05636" lon="5.09673">
        <ele>152.204475</ele>
        <time>2020-07-15T19:34:33.740Z</time>
      </trkpt>
      <trkpt lat="61.05643" lon="5.09884">
        <ele>143.322754</ele>
        <time>2020-07-15T19:34:45.247Z</time>
      </trkpt>
      <trkpt lat="61.05653" lon="5.09981">
        <ele>139.033624</ele>
        <time>2020-07-15T19:34:50.494Z</time>
      </trkpt>
      <trkpt lat="61.057" lon="5.10167">
        <ele>128.163893</ele>
        <time>2020-07-15T19:35:01.444Z</time>
      </trkpt>
      <trkpt lat="61.05756" lon="5.10296">
        <ele>118.439099</ele>
        <time>2020-07-15T19:35:10.389Z</time>
      </trkpt>
      <trkpt lat="61.05773" lon="5.10358">
        <ele>114.482364</ele>
        <time>2020-07-15T19:35:14.063Z</time>
      </trkpt>
      <trkpt lat="61.05764" lon="5.10426">
        <ele>110.742564</ele>
        <time>2020-07-15T19:35:17.698Z</time>
      </trkpt>
      <trkpt lat="61.05688" lon="5.10697">
        <ele>94.131968</ele>
        <time>2020-07-15T19:35:34.109Z</time>
      </trkpt>
      <trkpt lat="61.05685" lon="5.10753">
        <ele>91.493469</ele>
        <time>2020-07-15T19:35:37.115Z</time>
      </trkpt>
      <trkpt lat="61.05691" lon="5.10849">
        <ele>86.991402</ele>
        <time>2020-07-15T19:35:42.270Z</time>
      </trkpt>
      <trkpt lat="61.0571" lon="5.10893">
        <ele>84.217565</ele>
        <time>2020-07-15T19:35:45.465Z</time>
      </trkpt>
      <trkpt lat="61.05837" lon="5.11119">
        <ele>67.331392</ele>
        <time>2020-07-15T19:36:03.861Z</time>
      </trkpt>
      <trkpt lat="61.0584" lon="5.11126">
        <ele>66.917381</ele>
        <time>2020-07-15T19:36:04.274Z</time>
      </trkpt>
      <trkpt lat="61.05842" lon="5.11132">
        <ele>66.519161</ele>
        <time>2020-07-15T19:36:04.672Z</time>
      </trkpt>
      <trkpt lat="61.05854" lon="5.11197">
        <ele>63.057441</ele>
        <time>2020-07-15T19:36:08.370Z</time>
      </trkpt>
      <trkpt lat="61.05845" lon="5.11262">
        <ele>59.715836</ele>
        <time>2020-07-15T19:36:11.947Z</time>
      </trkpt>
      <trkpt lat="61.05828" lon="5.11298">
        <ele>57.644941</ele>
        <time>2020-07-15T19:36:14.582Z</time>
      </trkpt>
      <trkpt lat="61.05777" lon="5.11368">
        <ele>52.591053</ele>
        <time>2020-07-15T19:36:21.227Z</time>
      </trkpt>
      <trkpt lat="61.0576" lon="5.11408">
        <ele>50.443461</ele>
        <time>2020-07-15T19:36:24.210Z</time>
      </trkpt>
      <trkpt lat="61.0575" lon="5.11453">
        <ele>48.486357</ele>
        <time>2020-07-15T19:36:26.955Z</time>
      </trkpt>
      <trkpt lat="61.0575" lon="5.11541">
        <ele>44.972823</ele>
        <time>2020-07-15T19:36:31.969Z</time>
      </trkpt>
      <trkpt lat="61.0576" lon="5.11626">
        <ele>43.34325</ele>
        <time>2020-07-15T19:36:37.087Z</time>
      </trkpt>
      <trkpt lat="61.05792" lon="5.11749">
        <ele>41.133314</ele>
        <time>2020-07-15T19:36:45.794Z</time>
      </trkpt>
      <trkpt lat="61.05816" lon="5.11815">
        <ele>39.84234</ele>
        <time>2020-07-15T19:36:51.325Z</time>
      </trkpt>
      <trkpt lat="61.05865" lon="5.11909">
        <ele>38.324593</ele>
        <time>2020-07-15T19:37:01.405Z</time>
      </trkpt>
      <trkpt lat="61.05867" lon="5.12012">
        <ele>37.743876</ele>
        <time>2020-07-15T19:37:09.100Z</time>
      </trkpt>
      <trkpt lat="61.05871" lon="5.1203">
        <ele>37.629905</ele>
        <time>2020-07-15T19:37:10.627Z</time>
      </trkpt>
      <trkpt lat="61.0591" lon="5.12058">
        <ele>37.153356</ele>
        <time>2020-07-15T19:37:16.957Z</time>
      </trkpt>
      <trkpt lat="61.05924" lon="5.12088">
        <ele>36.919582</ele>
        <time>2020-07-15T19:37:20.037Z</time>
      </trkpt>
      <trkpt lat="61.05938" lon="5.12155">
        <ele>36.526677</ele>
        <time>2020-07-15T19:37:25.464Z</time>
      </trkpt>
      <trkpt lat="61.05961" lon="5.12327">
        <ele>35.756293</ele>
        <time>2020-07-15T19:37:38.612Z</time>
      </trkpt>
      <trkpt lat="61.05964" lon="5.12359">
        <ele>35.61599</ele>
        <time>2020-07-15T19:37:41.056Z</time>
      </trkpt>
      <trkpt lat="61.05961" lon="5.12396">
        <ele>35.456682</ele>
        <time>2020-07-15T19:37:43.834Z</time>
      </trkpt>
      <trkpt lat="61.05919" lon="5.12538">
        <ele>35.016307</ele>
        <time>2020-07-15T19:37:57.011Z</time>
      </trkpt>
      <trkpt lat="61.05908" lon="5.12608">
        <ele>35.047977</ele>
        <time>2020-07-15T19:38:03.260Z</time>
      </trkpt>
      <trkpt lat="61.05893" lon="5.12742">
        <ele>35.106302</ele>
        <time>2020-07-15T19:38:15.506Z</time>
      </trkpt>
      <trkpt lat="61.05894" lon="5.12806">
        <ele>35.133922</ele>
        <time>2020-07-15T19:38:21.563Z</time>
      </trkpt>
      <trkpt lat="61.05883" lon="5.12907">
        <ele>35.408619</ele>
        <time>2020-07-15T19:38:31.479Z</time>
      </trkpt>
      <trkpt lat="61.05883" lon="5.1298">
        <ele>35.698172</ele>
        <time>2020-07-15T19:38:38.722Z</time>
      </trkpt>
      <trkpt lat="61.05892" lon="5.13048">
        <ele>35.975822</ele>
        <time>2020-07-15T19:38:45.771Z</time>
      </trkpt>
      <trkpt lat="61.05907" lon="5.13103">
        <ele>36.22497</ele>
        <time>2020-07-15T19:38:52.111Z</time>
      </trkpt>
      <trkpt lat="61.05965" lon="5.13203">
        <ele>36.979964</ele>
        <time>2020-07-15T19:39:07.642Z</time>
      </trkpt>
      <trkpt lat="61.05974" lon="5.13228">
        <ele>37.175843</ele>
        <time>2020-07-15T19:39:10.919Z</time>
      </trkpt>
      <trkpt lat="61.05979" lon="5.13284">
        <ele>37.538016</ele>
        <time>2020-07-15T19:39:16.687Z</time>
      </trkpt>
      <trkpt lat="61.05982" lon="5.13437">
        <ele>38.519248</ele>
        <time>2020-07-15T19:39:32.822Z</time>
      </trkpt>
      <trkpt lat="61.05991" lon="5.13497">
        <ele>38.919662</ele>
        <time>2020-07-15T19:39:39.661Z</time>
      </trkpt>
      <trkpt lat="61.05996" lon="5.13508">
        <ele>39.03111</ele>
        <time>2020-07-15T19:39:41.387Z</time>
      </trkpt>
      <trkpt lat="61.06005" lon="5.13528">
        <ele>39.428763</ele>
        <time>2020-07-15T19:39:44.687Z</time>
      </trkpt>
      <trkpt lat="61.06032" lon="5.1362">
        <ele>40.982709</ele>
        <time>2020-07-15T19:39:58.182Z</time>
      </trkpt>
      <trkpt lat="61.06071" lon="5.13717">
        <ele>42.778417</ele>
        <time>2020-07-15T19:40:15.856Z</time>
      </trkpt>
      <trkpt lat="61.06081" lon="5.13828">
        <ele>44.38912</ele>
        <time>2020-07-15T19:40:32.009Z</time>
      </trkpt>
      <trkpt lat="61.06096" lon="5.1391">
        <ele>45.378527</ele>
        <time>2020-07-15T19:40:44.219Z</time>
      </trkpt>
      <trkpt lat="61.06111" lon="5.13967">
        <ele>46.117368</ele>
        <time>2020-07-15T19:40:53.063Z</time>
      </trkpt>
      <trkpt lat="61.0614" lon="5.14034">
        <ele>47.120125</ele>
        <time>2020-07-15T19:41:04.510Z</time>
      </trkpt>
      <trkpt lat="61.0615" lon="5.14108">
        <ele>47.989165</ele>
        <time>2020-07-15T19:41:13.295Z</time>
      </trkpt>
      <trkpt lat="61.06159" lon="5.1413">
        <ele>48.303291</ele>
        <time>2020-07-15T19:41:16.031Z</time>
      </trkpt>
      <trkpt lat="61.06178" lon="5.14149">
        <ele>48.579306</ele>
        <time>2020-07-15T19:41:20.076Z</time>
      </trkpt>
      <trkpt lat="61.06196" lon="5.14149">
        <ele>48.658439</ele>
        <time>2020-07-15T19:41:22.782Z</time>
      </trkpt>
      <trkpt lat="61.06262" lon="5.14087">
        <ele>48.989043</ele>
        <time>2020-07-15T19:41:34.890Z</time>
      </trkpt>
      <trkpt lat="61.06301" lon="5.14066">
        <ele>49.173033</ele>
        <time>2020-07-15T19:41:42.930Z</time>
      </trkpt>
      <trkpt lat="61.06336" lon="5.14061">
        <ele>49.334463</ele>
        <time>2020-07-15T19:41:50.239Z</time>
      </trkpt>
      <trkpt lat="61.06358" lon="5.14062">
        <ele>49.840085</ele>
        <time>2020-07-15T19:41:55.062Z</time>
      </trkpt>
      <trkpt lat="61.06374" lon="5.14066">
        <ele>50.214687</ele>
        <time>2020-07-15T19:41:59.492Z</time>
      </trkpt>
      <trkpt lat="61.06436" lon="5.14103">
        <ele>51.78042</ele>
        <time>2020-07-15T19:42:14.772Z</time>
      </trkpt>
      <trkpt lat="61.06453" lon="5.14126">
        <ele>52.289768</ele>
        <time>2020-07-15T19:42:20.551Z</time>
      </trkpt>
      <trkpt lat="61.06473" lon="5.14176">
        <ele>53.038989</ele>
        <time>2020-07-15T19:42:28.785Z</time>
      </trkpt>
      <trkpt lat="61.06475" lon="5.14188">
        <ele>53.194649</ele>
        <time>2020-07-15T19:42:31.438Z</time>
      </trkpt>
      <trkpt lat="61.06478" lon="5.14202">
        <ele>53.376283</ele>
        <time>2020-07-15T19:42:33.005Z</time>
      </trkpt>
      <trkpt lat="61.06474" lon="5.14277">
        <ele>54.194613</ele>
        <time>2020-07-15T19:42:44.872Z</time>
      </trkpt>
      <trkpt lat="61.06473" lon="5.14334">
        <ele>54.777897</ele>
        <time>2020-07-15T19:42:53.029Z</time>
      </trkpt>
      <trkpt lat="61.06476" lon="5.14388">
        <ele>55.331979</ele>
        <time>2020-07-15T19:42:58.971Z</time>
      </trkpt>
      <trkpt lat="61.06491" lon="5.1449">
        <ele>56.422583</ele>
        <time>2020-07-15T19:43:12.293Z</time>
      </trkpt>
      <trkpt lat="61.06495" lon="5.14572">
        <ele>57.263781</ele>
        <time>2020-07-15T19:43:20.345Z</time>
      </trkpt>
      <trkpt lat="61.06505" lon="5.14627">
        <ele>57.20489</ele>
        <time>2020-07-15T19:43:26.102Z</time>
      </trkpt>
      <trkpt lat="61.06484" lon="5.14751">
        <ele>55.956226</ele>
        <time>2020-07-15T19:43:36.595Z</time>
      </trkpt>
      <trkpt lat="61.06483" lon="5.14795">
        <ele>55.530527</ele>
        <time>2020-07-15T19:43:39.516Z</time>
      </trkpt>
      <trkpt lat="61.0649" lon="5.14815">
        <ele>55.286805</ele>
        <time>2020-07-15T19:43:41.204Z</time>
      </trkpt>
      <trkpt lat="61.06503" lon="5.14823">
        <ele>55.030794</ele>
        <time>2020-07-15T19:43:42.926Z</time>
      </trkpt>
      <trkpt lat="61.06566" lon="5.14806">
        <ele>53.403325</ele>
        <time>2020-07-15T19:43:50.999Z</time>
      </trkpt>
      <trkpt lat="61.06572" lon="5.14806">
        <ele>53.071058</ele>
        <time>2020-07-15T19:43:51.705Z</time>
      </trkpt>
      <trkpt lat="61.06597" lon="5.14811">
        <ele>51.686062</ele>
        <time>2020-07-15T19:43:54.744Z</time>
      </trkpt>
      <trkpt lat="61.06654" lon="5.14796">
        <ele>48.483006</ele>
        <time>2020-07-15T19:44:01.646Z</time>
      </trkpt>
      <trkpt lat="61.06695" lon="5.1476">
        <ele>46.030039</ele>
        <time>2020-07-15T19:44:06.759Z</time>
      </trkpt>
      <trkpt lat="61.06771" lon="5.14624">
        <ele>40.368917</ele>
        <time>2020-07-15T19:44:18.561Z</time>
      </trkpt>
      <trkpt lat="61.06791" lon="5.14603">
        <ele>39.066123</ele>
        <time>2020-07-15T19:44:21.417Z</time>
      </trkpt>
      <trkpt lat="61.06797" lon="5.14599">
        <ele>38.718453</ele>
        <time>2020-07-15T19:44:22.150Z</time>
      </trkpt>
      <trkpt lat="61.06806" lon="5.14595">
        <ele>38.178066</ele>
        <time>2020-07-15T19:44:23.239Z</time>
      </trkpt>
      <trkpt lat="61.06834" lon="5.14586">
        <ele>36.581776</ele>
        <time>2020-07-15T19:44:26.514Z</time>
      </trkpt>
      <trkpt lat="61.06865" lon="5.14544">
        <ele>34.454878</ele>
        <time>2020-07-15T19:44:30.915Z</time>
      </trkpt>
      <trkpt lat="61.06946" lon="5.14506">
        <ele>31.595457</ele>
        <time>2020-07-15T19:44:40.952Z</time>
      </trkpt>
      <trkpt lat="61.06947" lon="5.14505">
        <ele>31.545087</ele>
        <time>2020-07-15T19:44:41.115Z</time>
      </trkpt>
      <trkpt lat="61.06967" lon="5.14497">
        <ele>30.939695</ele>
        <time>2020-07-15T19:44:43.733Z</time>
      </trkpt>
      <trkpt lat="61.07018" lon="5.14473">
        <ele>29.326738</ele>
        <time>2020-07-15T19:44:50.956Z</time>
      </trkpt>
      <trkpt lat="61.0708" lon="5.14431">
        <ele>28.962568</ele>
        <time>2020-07-15T19:45:02.191Z</time>
      </trkpt>
      <trkpt lat="61.07093" lon="5.14438">
        <ele>29.282902</ele>
        <time>2020-07-15T19:45:04.416Z</time>
      </trkpt>
      <trkpt lat="61.07148" lon="5.14497">
        <ele>30.756806</ele>
        <time>2020-07-15T19:45:21.385Z</time>
      </trkpt>
      <trkpt lat="61.07197" lon="5.14621">
        <ele>32.549796</ele>
        <time>2020-07-15T19:45:45.186Z</time>
      </trkpt>
      <trkpt lat="61.07201" lon="5.14657">
        <ele>32.787467</ele>
        <time>2020-07-15T19:45:50.664Z</time>
      </trkpt>
      <trkpt lat="61.07202" lon="5.14788">
        <ele>33.613312</ele>
        <time>2020-07-15T19:46:08.243Z</time>
      </trkpt>
      <trkpt lat="61.07208" lon="5.14833">
        <ele>33.910329</ele>
        <time>2020-07-15T19:46:13.970Z</time>
      </trkpt>
      <trkpt lat="61.07277" lon="5.15077">
        <ele>32.846268</ele>
        <time>2020-07-15T19:46:34.437Z</time>
      </trkpt>
      <trkpt lat="61.07291" lon="5.15182">
        <ele>31.174021</ele>
        <time>2020-07-15T19:46:41.212Z</time>
      </trkpt>
      <trkpt lat="61.07297" lon="5.15203">
        <ele>30.811775</ele>
        <time>2020-07-15T19:46:42.528Z</time>
      </trkpt>
      <trkpt lat="61.07315" lon="5.1527">
        <ele>29.639779</ele>
        <time>2020-07-15T19:46:47.102Z</time>
      </trkpt>
      <trkpt lat="61.0732" lon="5.15306">
        <ele>29.041598</ele>
        <time>2020-07-15T19:46:49.464Z</time>
      </trkpt>
      <trkpt lat="61.07322" lon="5.1546">
        <ele>26.262622</ele>
        <time>2020-07-15T19:46:58.612Z</time>
      </trkpt>
      <trkpt lat="61.07325" lon="5.15502">
        <ele>25.500388</ele>
        <time>2020-07-15T19:47:01.075Z</time>
      </trkpt>
      <trkpt lat="61.07327" lon="5.15511">
        <ele>25.330226</ele>
        <time>2020-07-15T19:47:01.674Z</time>
      </trkpt>
      <trkpt lat="61.07332" lon="5.15551">
        <ele>24.587884</ele>
        <time>2020-07-15T19:47:04.329Z</time>
      </trkpt>
      <trkpt lat="61.07333" lon="5.15565">
        <ele>24.321573</ele>
        <time>2020-07-15T19:47:05.273Z</time>
      </trkpt>
      <trkpt lat="61.07335" lon="5.15598">
        <ele>23.725529</ele>
        <time>2020-07-15T19:47:07.546Z</time>
      </trkpt>
      <trkpt lat="61.07335" lon="5.15607">
        <ele>23.566584</ele>
        <time>2020-07-15T19:47:08.085Z</time>
      </trkpt>
      <trkpt lat="61.07332" lon="5.15674">
        <ele>22.413171</ele>
        <time>2020-07-15T19:47:12.655Z</time>
      </trkpt>
      <trkpt lat="61.07298" lon="5.15805">
        <ele>20.939592</ele>
        <time>2020-07-15T19:47:22.591Z</time>
      </trkpt>
      <trkpt lat="61.07281" lon="5.15904">
        <ele>19.891092</ele>
        <time>2020-07-15T19:47:29.838Z</time>
      </trkpt>
      <trkpt lat="61.07279" lon="5.15924">
        <ele>19.685569</ele>
        <time>2020-07-15T19:47:31.284Z</time>
      </trkpt>
      <trkpt lat="61.07277" lon="5.1594">
        <ele>19.526555</ele>
        <time>2020-07-15T19:47:32.447Z</time>
      </trkpt>
      <trkpt lat="61.07267" lon="5.16002">
        <ele>18.879486</ele>
        <time>2020-07-15T19:47:37.001Z</time>
      </trkpt>
      <trkpt lat="61.07236" lon="5.16234">
        <ele>16.339671</ele>
        <time>2020-07-15T19:47:53.296Z</time>
      </trkpt>
      <trkpt lat="61.07195" lon="5.16501">
        <ele>13.800629</ele>
        <time>2020-07-15T19:48:11.951Z</time>
      </trkpt>
      <trkpt lat="61.07169" lon="5.1675">
        <ele>12.027606</ele>
        <time>2020-07-15T19:48:30.593Z</time>
      </trkpt>
      <trkpt lat="61.07144" lon="5.16841">
        <ele>11.96618</ele>
        <time>2020-07-15T19:48:39.146Z</time>
      </trkpt>
      <trkpt lat="61.07089" lon="5.16955">
        <ele>11.869946</ele>
        <time>2020-07-15T19:48:53.356Z</time>
      </trkpt>
      <trkpt lat="61.07074" lon="5.16998">
        <ele>11.838237</ele>
        <time>2020-07-15T19:48:58.237Z</time>
      </trkpt>
      <trkpt lat="61.07063" lon="5.1705">
        <ele>11.887327</ele>
        <time>2020-07-15T19:49:03.431Z</time>
      </trkpt>
      <trkpt lat="61.07016" lon="5.1738">
        <ele>12.741609</ele>
        <time>2020-07-15T19:49:35.511Z</time>
      </trkpt>
      <trkpt lat="61.07009" lon="5.17489">
        <ele>13.633303</ele>
        <time>2020-07-15T19:49:46.717Z</time>
      </trkpt>
      <trkpt lat="61.07004" lon="5.17565">
        <ele>14.262032</ele>
        <time>2020-07-15T19:49:55.487Z</time>
      </trkpt>
      <trkpt lat="61.07003" lon="5.1758">
        <ele>14.383051</ele>
        <time>2020-07-15T19:49:57.160Z</time>
      </trkpt>
      <trkpt lat="61.07002" lon="5.17592">
        <ele>14.485747</ele>
        <time>2020-07-15T19:49:59.102Z</time>
      </trkpt>
      <trkpt lat="61.06984" lon="5.17685">
        <ele>15.305894</ele>
        <time>2020-07-15T19:50:11.364Z</time>
      </trkpt>
      <trkpt lat="61.06939" lon="5.17797">
        <ele>15.81644</ele>
        <time>2020-07-15T19:50:28.510Z</time>
      </trkpt>
      <trkpt lat="61.06927" lon="5.17824">
        <ele>15.827868</ele>
        <time>2020-07-15T19:50:32.288Z</time>
      </trkpt>
      <trkpt lat="61.06923" lon="5.17832">
        <ele>15.831455</ele>
        <time>2020-07-15T19:50:33.715Z</time>
      </trkpt>
      <trkpt lat="61.06917" lon="5.17845">
        <ele>15.837122</ele>
        <time>2020-07-15T19:50:35.635Z</time>
      </trkpt>
      <trkpt lat="61.06897" lon="5.17909">
        <ele>15.860995</ele>
        <time>2020-07-15T19:50:42.532Z</time>
      </trkpt>
      <trkpt lat="61.0689" lon="5.17958">
        <ele>15.876748</ele>
        <time>2020-07-15T19:50:46.644Z</time>
      </trkpt>
      <trkpt lat="61.06887" lon="5.18189">
        <ele>14.216879</ele>
        <time>2020-07-15T19:51:01.846Z</time>
      </trkpt>
      <trkpt lat="61.06898" lon="5.18299">
        <ele>12.863167</ele>
        <time>2020-07-15T19:51:08.871Z</time>
      </trkpt>
      <trkpt lat="61.06918" lon="5.18406">
        <ele>11.485454</ele>
        <time>2020-07-15T19:51:16.519Z</time>
      </trkpt>
      <trkpt lat="61.06928" lon="5.18465">
        <ele>11.428769</ele>
        <time>2020-07-15T19:51:21.099Z</time>
      </trkpt>
      <trkpt lat="61.06943" lon="5.18556">
        <ele>11.448337</ele>
        <time>2020-07-15T19:51:28.276Z</time>
      </trkpt>
      <trkpt lat="61.06945" lon="5.18569">
        <ele>11.450981</ele>
        <time>2020-07-15T19:51:29.494Z</time>
      </trkpt>
      <trkpt lat="61.06947" lon="5.18582">
        <ele>11.453837</ele>
        <time>2020-07-15T19:51:30.709Z</time>
      </trkpt>
      <trkpt lat="61.06949" lon="5.1859">
        <ele>11.455605</ele>
        <time>2020-07-15T19:51:31.405Z</time>
      </trkpt>
      <trkpt lat="61.06951" lon="5.18598">
        <ele>11.457446</ele>
        <time>2020-07-15T19:51:32.112Z</time>
      </trkpt>
      <trkpt lat="61.06953" lon="5.18605">
        <ele>11.458922</ele>
        <time>2020-07-15T19:51:33.020Z</time>
      </trkpt>
      <trkpt lat="61.06978" lon="5.18667">
        <ele>11.475469</ele>
        <time>2020-07-15T19:51:41.570Z</time>
      </trkpt>
      <trkpt lat="61.0706" lon="5.18788">
        <ele>10.935132</ele>
        <time>2020-07-15T19:52:05.289Z</time>
      </trkpt>
      <trkpt lat="61.07084" lon="5.18816">
        <ele>10.682554</ele>
        <time>2020-07-15T19:52:09.390Z</time>
      </trkpt>
      <trkpt lat="61.07093" lon="5.18827">
        <ele>10.579608</ele>
        <time>2020-07-15T19:52:11.665Z</time>
      </trkpt>
      <trkpt lat="61.07129" lon="5.1886">
        <ele>10.216416</ele>
        <time>2020-07-15T19:52:17.335Z</time>
      </trkpt>
      <trkpt lat="61.07159" lon="5.18877">
        <ele>9.92758</ele>
        <time>2020-07-15T19:52:21.347Z</time>
      </trkpt>
      <trkpt lat="61.07165" lon="5.18881">
        <ele>9.870808</ele>
        <time>2020-07-15T19:52:22.339Z</time>
      </trkpt>
      <trkpt lat="61.07168" lon="5.18877">
        <ele>9.832644</ele>
        <time>2020-07-15T19:52:22.759Z</time>
      </trkpt>
      <trkpt lat="61.07229" lon="5.18787">
        <ele>7.057008</ele>
        <time>2020-07-15T19:52:32.262Z</time>
      </trkpt>
      <trkpt lat="61.07251" lon="5.18774">
        <ele>6.192447</ele>
        <time>2020-07-15T19:52:35.403Z</time>
      </trkpt>
      <trkpt lat="61.07279" lon="5.18783">
        <ele>5.109531</ele>
        <time>2020-07-15T19:52:38.891Z</time>
      </trkpt>
      <trkpt lat="61.07298" lon="5.18803">
        <ele>4.308329</ele>
        <time>2020-07-15T19:52:41.365Z</time>
      </trkpt>
      <trkpt lat="61.07327" lon="5.18825">
        <ele>3.149222</ele>
        <time>2020-07-15T19:52:45.461Z</time>
      </trkpt>
      <trkpt lat="61.07342" lon="5.18839">
        <ele>2.858359</ele>
        <time>2020-07-15T19:52:47.665Z</time>
      </trkpt>
      <trkpt lat="61.07394" lon="5.18902">
        <ele>1.977534</ele>
        <time>2020-07-15T19:52:56.099Z</time>
      </trkpt>
      <trkpt lat="61.07415" lon="5.18923">
        <ele>1.64784</ele>
        <time>2020-07-15T19:52:59.592Z</time>
      </trkpt>
      <trkpt lat="61.07436" lon="5.18933">
        <ele>1.32917</ele>
        <time>2020-07-15T19:53:02.933Z</time>
      </trkpt>
      <trkpt lat="61.07768" lon="5.19011">
        <ele>0.120059</ele>
        <time>2020-07-15T19:53:49.513Z</time>
      </trkpt>
      <trkpt lat="61.07866" lon="5.19156">
        <ele>0.035184</ele>
        <time>2020-07-15T19:54:06.219Z</time>
      </trkpt>
      <trkpt lat="61.10083" lon="5.25803">
        <time>2020-07-15T20:03:10.599Z</time>
      </trkpt>
      <trkpt lat="61.10319" lon="5.26411">
        <time>2020-07-15T20:04:03.139Z</time>
      </trkpt>
      <trkpt lat="61.1133" lon="5.28121">
        <ele>0.133758</ele>
        <time>2020-07-15T20:07:05.065Z</time>
      </trkpt>
      <trkpt lat="61.11406" lon="5.28299">
        <ele>0.454095</ele>
        <time>2020-07-15T20:07:21.061Z</time>
      </trkpt>
      <trkpt lat="61.11415" lon="5.28321">
        <ele>0.493666</ele>
        <time>2020-07-15T20:07:23.850Z</time>
      </trkpt>
      <trkpt lat="61.11419" lon="5.2834">
        <ele>0.596296</ele>
        <time>2020-07-15T20:07:25.911Z</time>
      </trkpt>
      <trkpt lat="61.1142" lon="5.28346">
        <ele>0.674727</ele>
        <time>2020-07-15T20:07:26.541Z</time>
      </trkpt>
      <trkpt lat="61.11421" lon="5.28358">
        <ele>0.826339</ele>
        <time>2020-07-15T20:07:27.760Z</time>
      </trkpt>
      <trkpt lat="61.11414" lon="5.28359">
        <ele>1.009988</ele>
        <time>2020-07-15T20:07:29.222Z</time>
      </trkpt>
      <trkpt lat="61.1141" lon="5.28361">
        <ele>1.106794</ele>
        <time>2020-07-15T20:07:29.995Z</time>
      </trkpt>
      <trkpt lat="61.1141" lon="5.2838">
        <ele>1.346008</ele>
        <time>2020-07-15T20:07:32.010Z</time>
      </trkpt>
      <trkpt lat="61.11411" lon="5.28436">
        <ele>2.049677</ele>
        <time>2020-07-15T20:07:38.062Z</time>
      </trkpt>
      <trkpt lat="61.11409" lon="5.28462">
        <ele>2.376935</ele>
        <time>2020-07-15T20:07:41.037Z</time>
      </trkpt>
      <trkpt lat="61.11404" lon="5.28488">
        <ele>2.722517</ele>
        <time>2020-07-15T20:07:44.219Z</time>
      </trkpt>
      <trkpt lat="61.11396" lon="5.28527">
        <ele>3.263816</ele>
        <time>2020-07-15T20:07:49.305Z</time>
      </trkpt>
      <trkpt lat="61.1136" lon="5.28546">
        <ele>4.231872</ele>
        <time>2020-07-15T20:07:58.966Z</time>
      </trkpt>
      <trkpt lat="61.11278" lon="5.28586">
        <ele>7.960224</ele>
        <time>2020-07-15T20:08:28.354Z</time>
      </trkpt>
      <trkpt lat="61.11259" lon="5.28604">
        <ele>9.173525</ele>
        <time>2020-07-15T20:08:36.865Z</time>
      </trkpt>
      <trkpt lat="61.1125" lon="5.28643">
        <ele>10.445477</ele>
        <time>2020-07-15T20:08:45.765Z</time>
      </trkpt>
      <trkpt lat="61.11254" lon="5.28673">
        <ele>11.311241</ele>
        <time>2020-07-15T20:08:50.654Z</time>
      </trkpt>
      <trkpt lat="61.11263" lon="5.28694">
        <ele>12.13344</ele>
        <time>2020-07-15T20:08:54.902Z</time>
      </trkpt>
      <trkpt lat="61.11269" lon="5.28699">
        <ele>12.494471</ele>
        <time>2020-07-15T20:08:58.667Z</time>
      </trkpt>
      <trkpt lat="61.11271" lon="5.28701">
        <ele>12.636319</ele>
        <time>2020-07-15T20:09:00.306Z</time>
      </trkpt>
      <trkpt lat="61.11329" lon="5.28718">
        <ele>16.023842</ele>
        <time>2020-07-15T20:09:20.366Z</time>
      </trkpt>
      <trkpt lat="61.11349" lon="5.28742">
        <ele>17.012393</ele>
        <time>2020-07-15T20:09:29.832Z</time>
      </trkpt>
      <trkpt lat="61.11361" lon="5.2878">
        <ele>17.98757</ele>
        <time>2020-07-15T20:09:38.079Z</time>
      </trkpt>
      <trkpt lat="61.11383" lon="5.28924">
        <ele>21.189758</ele>
        <time>2020-07-15T20:10:02.830Z</time>
      </trkpt>
      <trkpt lat="61.11407" lon="5.28988">
        <ele>22.892178</ele>
        <time>2020-07-15T20:10:12.756Z</time>
      </trkpt>
      <trkpt lat="61.11418" lon="5.29019">
        <ele>23.684988</ele>
        <time>2020-07-15T20:10:17.542Z</time>
      </trkpt>
      <trkpt lat="61.1142" lon="5.29023">
        <ele>23.683997</ele>
        <time>2020-07-15T20:10:18.526Z</time>
      </trkpt>
      <trkpt lat="61.11439" lon="5.2908">
        <ele>23.672458</ele>
        <time>2020-07-15T20:10:25.999Z</time>
      </trkpt>
      <trkpt lat="61.11455" lon="5.29151">
        <ele>23.659322</ele>
        <time>2020-07-15T20:10:34.167Z</time>
      </trkpt>
      <trkpt lat="61.11481" lon="5.29391">
        <ele>23.18535</ele>
        <time>2020-07-15T20:10:52.688Z</time>
      </trkpt>
      <trkpt lat="61.11495" lon="5.29874">
        <ele>15.367629</ele>
        <time>2020-07-15T20:11:22.642Z</time>
      </trkpt>
      <trkpt lat="61.11508" lon="5.30032">
        <ele>12.431656</ele>
        <time>2020-07-15T20:11:32.461Z</time>
      </trkpt>
      <trkpt lat="61.11505" lon="5.30272">
        <ele>8.360358</ele>
        <time>2020-07-15T20:11:47.138Z</time>
      </trkpt>
      <trkpt lat="61.11513" lon="5.30394">
        <ele>6.345631</ele>
        <time>2020-07-15T20:11:54.907Z</time>
      </trkpt>
      <trkpt lat="61.1152" lon="5.30461">
        <ele>5.219221</ele>
        <time>2020-07-15T20:11:59.333Z</time>
      </trkpt>
      <trkpt lat="61.11524" lon="5.30504">
        <ele>4.759527</ele>
        <time>2020-07-15T20:12:02.173Z</time>
      </trkpt>
      <trkpt lat="61.11545" lon="5.30644">
        <ele>3.552847</ele>
        <time>2020-07-15T20:12:12.107Z</time>
      </trkpt>
      <trkpt lat="61.11599" lon="5.30802">
        <ele>1.978645</ele>
        <time>2020-07-15T20:12:26.198Z</time>
      </trkpt>
      <trkpt lat="61.11611" lon="5.30865">
        <ele>1.806707</ele>
        <time>2020-07-15T20:12:31.580Z</time>
      </trkpt>
      <trkpt lat="61.11627" lon="5.31001">
        <ele>1.471315</ele>
        <time>2020-07-15T20:12:42.677Z</time>
      </trkpt>
      <trkpt lat="61.117" lon="5.31332">
        <ele>0.966509</ele>
        <time>2020-07-15T20:13:12.786Z</time>
      </trkpt>
      <trkpt lat="61.11748" lon="5.31479">
        <ele>0.873546</ele>
        <time>2020-07-15T20:13:28.070Z</time>
      </trkpt>
      <trkpt lat="61.11838" lon="5.31695">
        <ele>0.899924</ele>
        <time>2020-07-15T20:13:52.960Z</time>
      </trkpt>
      <trkpt lat="61.11875" lon="5.31799">
        <ele>0.930425</ele>
        <time>2020-07-15T20:14:03.851Z</time>
      </trkpt>
      <trkpt lat="61.11937" lon="5.32123">
        <ele>1.209479</ele>
        <time>2020-07-15T20:14:34.211Z</time>
      </trkpt>
      <trkpt lat="61.11957" lon="5.32203">
        <ele>1.693314</ele>
        <time>2020-07-15T20:14:42.892Z</time>
      </trkpt>
      <trkpt lat="61.11964" lon="5.32226">
        <ele>1.839756</ele>
        <time>2020-07-15T20:14:45.609Z</time>
      </trkpt>
      <trkpt lat="61.11971" lon="5.32245">
        <ele>1.966133</ele>
        <time>2020-07-15T20:14:48.097Z</time>
      </trkpt>
      <trkpt lat="61.12011" lon="5.32345">
        <ele>2.663339</ele>
        <time>2020-07-15T20:15:01.904Z</time>
      </trkpt>
      <trkpt lat="61.12037" lon="5.32384">
        <ele>3.028793</ele>
        <time>2020-07-15T20:15:09.606Z</time>
      </trkpt>
      <trkpt lat="61.12069" lon="5.32414">
        <ele>3.589076</ele>
        <time>2020-07-15T20:15:18.118Z</time>
      </trkpt>
      <trkpt lat="61.12183" lon="5.32448">
        <ele>5.55705</ele>
        <time>2020-07-15T20:15:46.031Z</time>
      </trkpt>
      <trkpt lat="61.12281" lon="5.32443">
        <ele>6.642838</ele>
        <time>2020-07-15T20:16:06.616Z</time>
      </trkpt>
      <trkpt lat="61.12286" lon="5.32446">
        <ele>6.6791</ele>
        <time>2020-07-15T20:16:07.905Z</time>
      </trkpt>
      <trkpt lat="61.12293" lon="5.32448">
        <ele>6.732938</ele>
        <time>2020-07-15T20:16:08.898Z</time>
      </trkpt>
      <trkpt lat="61.12309" lon="5.32455">
        <ele>6.854644</ele>
        <time>2020-07-15T20:16:12.206Z</time>
      </trkpt>
      <trkpt lat="61.12372" lon="5.32513">
        <ele>7.375452</ele>
        <time>2020-07-15T20:16:25.911Z</time>
      </trkpt>
      <trkpt lat="61.12398" lon="5.32524">
        <ele>7.568678</ele>
        <time>2020-07-15T20:16:30.889Z</time>
      </trkpt>
      <trkpt lat="61.12437" lon="5.32534">
        <ele>7.848389</ele>
        <time>2020-07-15T20:16:38.717Z</time>
      </trkpt>
      <trkpt lat="61.12461" lon="5.3254">
        <ele>8.016892</ele>
        <time>2020-07-15T20:16:43.789Z</time>
      </trkpt>
      <trkpt lat="61.12498" lon="5.32547">
        <ele>8.283474</ele>
        <time>2020-07-15T20:16:51.463Z</time>
      </trkpt>
      <trkpt lat="61.12518" lon="5.32549">
        <ele>8.423608</ele>
        <time>2020-07-15T20:16:55.272Z</time>
      </trkpt>
      <trkpt lat="61.12558" lon="5.32527">
        <ele>8.71234</ele>
        <time>2020-07-15T20:17:03.716Z</time>
      </trkpt>
      <trkpt lat="61.1256" lon="5.32524">
        <ele>8.730295</ele>
        <time>2020-07-15T20:17:04.598Z</time>
      </trkpt>
      <trkpt lat="61.12563" lon="5.32521">
        <ele>8.755524</ele>
        <time>2020-07-15T20:17:05.306Z</time>
      </trkpt>
      <trkpt lat="61.12592" lon="5.32494">
        <ele>8.894645</ele>
        <time>2020-07-15T20:17:11.292Z</time>
      </trkpt>
      <trkpt lat="61.1263" lon="5.32476">
        <ele>9.043197</ele>
        <time>2020-07-15T20:17:18.975Z</time>
      </trkpt>
      <trkpt lat="61.12675" lon="5.32468">
        <ele>9.215503</ele>
        <time>2020-07-15T20:17:27.527Z</time>
      </trkpt>
      <trkpt lat="61.12712" lon="5.32474">
        <ele>9.355654</ele>
        <time>2020-07-15T20:17:34.432Z</time>
      </trkpt>
      <trkpt lat="61.12722" lon="5.3248">
        <ele>9.395967</ele>
        <time>2020-07-15T20:17:36.184Z</time>
      </trkpt>
      <trkpt lat="61.12733" lon="5.32488">
        <ele>9.438368</ele>
        <time>2020-07-15T20:17:38.083Z</time>
      </trkpt>
      <trkpt lat="61.12776" lon="5.32508">
        <ele>9.529422</ele>
        <time>2020-07-15T20:17:46.227Z</time>
      </trkpt>
      <trkpt lat="61.12807" lon="5.325">
        <ele>9.575596</ele>
        <time>2020-07-15T20:17:52.099Z</time>
      </trkpt>
      <trkpt lat="61.12833" lon="5.32468">
        <ele>9.620837</ele>
        <time>2020-07-15T20:17:58.051Z</time>
      </trkpt>
      <trkpt lat="61.12866" lon="5.3237">
        <ele>9.705299</ele>
        <time>2020-07-15T20:18:08.679Z</time>
      </trkpt>
      <trkpt lat="61.12886" lon="5.32339">
        <ele>9.742439</ele>
        <time>2020-07-15T20:18:13.504Z</time>
      </trkpt>
      <trkpt lat="61.12925" lon="5.3232">
        <ele>9.620075</ele>
        <time>2020-07-15T20:18:20.053Z</time>
      </trkpt>
      <trkpt lat="61.12981" lon="5.3233">
        <ele>9.434797</ele>
        <time>2020-07-15T20:18:29.532Z</time>
      </trkpt>
      <trkpt lat="61.12993" lon="5.32339">
        <ele>9.391971</ele>
        <time>2020-07-15T20:18:31.540Z</time>
      </trkpt>
      <trkpt lat="61.12998" lon="5.32344">
        <ele>9.37334</ele>
        <time>2020-07-15T20:18:32.282Z</time>
      </trkpt>
      <trkpt lat="61.13051" lon="5.32444">
        <ele>9.164839</ele>
        <time>2020-07-15T20:18:44.102Z</time>
      </trkpt>
      <trkpt lat="61.13129" lon="5.32633">
        <ele>9.581922</ele>
        <time>2020-07-15T20:19:07.928Z</time>
      </trkpt>
      <trkpt lat="61.13163" lon="5.32733">
        <ele>9.740218</ele>
        <time>2020-07-15T20:19:19.114Z</time>
      </trkpt>
      <trkpt lat="61.13165" lon="5.32738">
        <ele>9.70943</ele>
        <time>2020-07-15T20:19:20.423Z</time>
      </trkpt>
      <trkpt lat="61.1317" lon="5.32751">
        <ele>9.624383</ele>
        <time>2020-07-15T20:19:21.972Z</time>
      </trkpt>
      <trkpt lat="61.13186" lon="5.32837">
        <ele>9.163532</ele>
        <time>2020-07-15T20:19:29.452Z</time>
      </trkpt>
      <trkpt lat="61.13185" lon="5.32877">
        <ele>8.964923</ele>
        <time>2020-07-15T20:19:32.616Z</time>
      </trkpt>
      <trkpt lat="61.13171" lon="5.32978">
        <ele>8.43776</ele>
        <time>2020-07-15T20:19:40.138Z</time>
      </trkpt>
      <trkpt lat="61.1317" lon="5.32989">
        <ele>8.385264</ele>
        <time>2020-07-15T20:19:40.752Z</time>
      </trkpt>
      <trkpt lat="61.13165" lon="5.33025">
        <ele>8.194492</ele>
        <time>2020-07-15T20:19:43.772Z</time>
      </trkpt>
      <trkpt lat="61.13156" lon="5.33177">
        <ele>7.066554</ele>
        <time>2020-07-15T20:19:53.798Z</time>
      </trkpt>
      <trkpt lat="61.13154" lon="5.33198">
        <ele>6.878844</ele>
        <time>2020-07-15T20:19:55.226Z</time>
      </trkpt>
      <trkpt lat="61.13153" lon="5.33203">
        <ele>6.827536</ele>
        <time>2020-07-15T20:19:55.561Z</time>
      </trkpt>
      <trkpt lat="61.1315" lon="5.33247">
        <ele>6.444143</ele>
        <time>2020-07-15T20:19:58.471Z</time>
      </trkpt>
      <trkpt lat="61.1315" lon="5.33263">
        <ele>6.295487</ele>
        <time>2020-07-15T20:19:59.638Z</time>
      </trkpt>
      <trkpt lat="61.1315" lon="5.33279">
        <ele>6.158322</ele>
        <time>2020-07-15T20:20:00.602Z</time>
      </trkpt>
      <trkpt lat="61.13152" lon="5.33306">
        <ele>5.9206</ele>
        <time>2020-07-15T20:20:02.405Z</time>
      </trkpt>
      <trkpt lat="61.13153" lon="5.33324">
        <ele>5.756837</ele>
        <time>2020-07-15T20:20:03.734Z</time>
      </trkpt>
      <trkpt lat="61.13165" lon="5.33429">
        <ele>4.813548</ele>
        <time>2020-07-15T20:20:11.662Z</time>
      </trkpt>
      <trkpt lat="61.13182" lon="5.33512">
        <ele>4.650323</ele>
        <time>2020-07-15T20:20:18.782Z</time>
      </trkpt>
      <trkpt lat="61.13197" lon="5.33555">
        <ele>4.65816</ele>
        <time>2020-07-15T20:20:23.516Z</time>
      </trkpt>
      <trkpt lat="61.13237" lon="5.33625">
        <ele>4.67415</ele>
        <time>2020-07-15T20:20:33.336Z</time>
      </trkpt>
      <trkpt lat="61.1324" lon="5.33629">
        <ele>4.675185</ele>
        <time>2020-07-15T20:20:34.089Z</time>
      </trkpt>
      <trkpt lat="61.13316" lon="5.33747">
        <ele>5.1285</ele>
        <time>2020-07-15T20:20:51.762Z</time>
      </trkpt>
      <trkpt lat="61.13361" lon="5.33805">
        <ele>5.859481</ele>
        <time>2020-07-15T20:21:02.601Z</time>
      </trkpt>
      <trkpt lat="61.13399" lon="5.33873">
        <ele>6.566143</ele>
        <time>2020-07-15T20:21:13.561Z</time>
      </trkpt>
      <trkpt lat="61.13424" lon="5.33889">
        <ele>6.936119</ele>
        <time>2020-07-15T20:21:20.330Z</time>
      </trkpt>
      <trkpt lat="61.13448" lon="5.33891">
        <ele>7.355886</ele>
        <time>2020-07-15T20:21:26.521Z</time>
      </trkpt>
      <trkpt lat="61.13457" lon="5.33888">
        <ele>7.679707</ele>
        <time>2020-07-15T20:21:29.325Z</time>
      </trkpt>
      <trkpt lat="61.13515" lon="5.33876">
        <ele>9.614698</ele>
        <time>2020-07-15T20:21:45.957Z</time>
      </trkpt>
      <trkpt lat="61.1354" lon="5.33866">
        <ele>10.488636</ele>
        <time>2020-07-15T20:21:53.590Z</time>
      </trkpt>
      <trkpt lat="61.1356" lon="5.33855">
        <ele>11.180697</ele>
        <time>2020-07-15T20:22:00.456Z</time>
      </trkpt>
      <trkpt lat="61.13624" lon="5.33825">
        <ele>13.282596</ele>
        <time>2020-07-15T20:22:20.037Z</time>
      </trkpt>
      <trkpt lat="61.13646" lon="5.33818">
        <ele>13.342535</ele>
        <time>2020-07-15T20:22:25.371Z</time>
      </trkpt>
      <trkpt lat="61.13663" lon="5.33815">
        <ele>13.388098</ele>
        <time>2020-07-15T20:22:30.462Z</time>
      </trkpt>
      <trkpt lat="61.13696" lon="5.33804">
        <ele>13.481286</ele>
        <time>2020-07-15T20:22:37.808Z</time>
      </trkpt>
      <trkpt lat="61.13745" lon="5.33809">
        <ele>13.614754</ele>
        <time>2020-07-15T20:22:45.534Z</time>
      </trkpt>
      <trkpt lat="61.13803" lon="5.33867">
        <ele>13.466658</ele>
        <time>2020-07-15T20:22:55.273Z</time>
      </trkpt>
      <trkpt lat="61.13808" lon="5.33872">
        <ele>13.275333</ele>
        <time>2020-07-15T20:22:55.999Z</time>
      </trkpt>
      <trkpt lat="61.13812" lon="5.33876">
        <ele>13.157748</ele>
        <time>2020-07-15T20:22:56.484Z</time>
      </trkpt>
      <trkpt lat="61.13827" lon="5.33892">
        <ele>12.620029</ele>
        <time>2020-07-15T20:22:58.912Z</time>
      </trkpt>
      <trkpt lat="61.13848" lon="5.33915">
        <ele>11.895728</ele>
        <time>2020-07-15T20:23:01.835Z</time>
      </trkpt>
      <trkpt lat="61.13866" lon="5.33943">
        <ele>11.193667</ele>
        <time>2020-07-15T20:23:04.778Z</time>
      </trkpt>
      <trkpt lat="61.13888" lon="5.33999">
        <ele>10.13217</ele>
        <time>2020-07-15T20:23:09.124Z</time>
      </trkpt>
      <trkpt lat="61.13925" lon="5.34142">
        <ele>8.382976</ele>
        <time>2020-07-15T20:23:19.201Z</time>
      </trkpt>
      <trkpt lat="61.13933" lon="5.34186">
        <ele>8.620805</ele>
        <time>2020-07-15T20:23:22.358Z</time>
      </trkpt>
      <trkpt lat="61.13949" lon="5.34263">
        <ele>9.04834</ele>
        <time>2020-07-15T20:23:30.022Z</time>
      </trkpt>
      <trkpt lat="61.13963" lon="5.34334">
        <ele>9.431668</ele>
        <time>2020-07-15T20:23:37.681Z</time>
      </trkpt>
      <trkpt lat="61.14" lon="5.34427">
        <ele>10.048966</ele>
        <time>2020-07-15T20:23:51.648Z</time>
      </trkpt>
      <trkpt lat="61.14005" lon="5.34436">
        <ele>10.272651</ele>
        <time>2020-07-15T20:23:53.196Z</time>
      </trkpt>
      <trkpt lat="61.14017" lon="5.34463">
        <ele>12.505218</ele>
        <time>2020-07-15T20:23:59.216Z</time>
      </trkpt>
      <trkpt lat="61.14099" lon="5.34645">
        <ele>27.562577</ele>
        <time>2020-07-15T20:25:08.151Z</time>
      </trkpt>
      <trkpt lat="61.14109" lon="5.34684">
        <ele>30.282394</ele>
        <time>2020-07-15T20:25:27.627Z</time>
      </trkpt>
      <trkpt lat="61.14112" lon="5.34698">
        <ele>31.198651</ele>
        <time>2020-07-15T20:25:33.066Z</time>
      </trkpt>
      <trkpt lat="61.14116" lon="5.34723">
        <ele>32.750478</ele>
        <time>2020-07-15T20:25:44.153Z</time>
      </trkpt>
      <trkpt lat="61.14133" lon="5.34854">
        <ele>41.994505</ele>
        <time>2020-07-15T20:26:33.707Z</time>
      </trkpt>
      <trkpt lat="61.14133" lon="5.34883">
        <ele>44.013926</ele>
        <time>2020-07-15T20:26:42.775Z</time>
      </trkpt>
      <trkpt lat="61.14131" lon="5.34893">
        <ele>44.749859</ele>
        <time>2020-07-15T20:26:47.645Z</time>
      </trkpt>
      <trkpt lat="61.1412" lon="5.34932">
        <ele>47.784471</ele>
        <time>2020-07-15T20:27:01.844Z</time>
      </trkpt>
      <trkpt lat="61.14117" lon="5.34945">
        <ele>48.808415</ele>
        <time>2020-07-15T20:27:05.679Z</time>
      </trkpt>
      <trkpt lat="61.14122" lon="5.34956">
        <ele>49.878287</ele>
        <time>2020-07-15T20:27:12.424Z</time>
      </trkpt>
      <trkpt lat="61.14135" lon="5.34986">
        <ele>52.644734</ele>
        <time>2020-07-15T20:27:24.428Z</time>
      </trkpt>
      <trkpt lat="61.14146" lon="5.35017">
        <ele>55.246893</ele>
        <time>2020-07-15T20:27:36.214Z</time>
      </trkpt>
      <trkpt lat="61.1415" lon="5.3503">
        <ele>56.274401</ele>
        <time>2020-07-15T20:27:38.363Z</time>
      </trkpt>
      <trkpt lat="61.14188" lon="5.35266">
        <ele>54.280916</ele>
        <time>2020-07-15T20:28:05.514Z</time>
      </trkpt>
      <trkpt lat="61.14226" lon="5.35413">
        <ele>50.783714</ele>
        <time>2020-07-15T20:28:14.041Z</time>
      </trkpt>
      <trkpt lat="61.14247" lon="5.35471">
        <ele>46.750561</ele>
        <time>2020-07-15T20:28:17.710Z</time>
      </trkpt>
      <trkpt lat="61.14258" lon="5.35487">
        <ele>45.127074</ele>
        <time>2020-07-15T20:28:19.135Z</time>
      </trkpt>
      <trkpt lat="61.14267" lon="5.35496">
        <ele>44.043411</ele>
        <time>2020-07-15T20:28:20.160Z</time>
      </trkpt>
      <trkpt lat="61.14273" lon="5.35501">
        <ele>43.300294</ele>
        <time>2020-07-15T20:28:20.867Z</time>
      </trkpt>
      <trkpt lat="61.14278" lon="5.35506">
        <ele>42.615434</ele>
        <time>2020-07-15T20:28:21.506Z</time>
      </trkpt>
      <trkpt lat="61.1429" lon="5.35513">
        <ele>41.16306</ele>
        <time>2020-07-15T20:28:22.785Z</time>
      </trkpt>
      <trkpt lat="61.1431" lon="5.35517">
        <ele>38.77632</ele>
        <time>2020-07-15T20:28:25.050Z</time>
      </trkpt>
      <trkpt lat="61.14333" lon="5.35503">
        <ele>36.019837</ele>
        <time>2020-07-15T20:28:27.541Z</time>
      </trkpt>
      <trkpt lat="61.14381" lon="5.35423">
        <ele>30.100819</ele>
        <time>2020-07-15T20:28:34.171Z</time>
      </trkpt>
      <trkpt lat="61.14468" lon="5.35221">
        <ele>24.185633</ele>
        <time>2020-07-15T20:28:50.683Z</time>
      </trkpt>
      <trkpt lat="61.14537" lon="5.34963">
        <ele>22.342388</ele>
        <time>2020-07-15T20:29:13.438Z</time>
      </trkpt>
      <trkpt lat="61.14596" lon="5.34791">
        <ele>22.992151</ele>
        <time>2020-07-15T20:29:33.289Z</time>
      </trkpt>
      <trkpt lat="61.14625" lon="5.34734">
        <ele>24.072771</ele>
        <time>2020-07-15T20:29:42.255Z</time>
      </trkpt>
      <trkpt lat="61.14664" lon="5.34677">
        <ele>25.390947</ele>
        <time>2020-07-15T20:29:55.570Z</time>
      </trkpt>
      <trkpt lat="61.14715" lon="5.34632">
        <ele>26.931011</ele>
        <time>2020-07-15T20:30:14.182Z</time>
      </trkpt>
      <trkpt lat="61.14741" lon="5.3462">
        <ele>27.888869</ele>
        <time>2020-07-15T20:30:22.911Z</time>
      </trkpt>
      <trkpt lat="61.14807" lon="5.34603">
        <ele>30.347431</ele>
        <time>2020-07-15T20:30:42.404Z</time>
      </trkpt>
      <trkpt lat="61.1482" lon="5.34598">
        <ele>30.832799</ele>
        <time>2020-07-15T20:30:46.478Z</time>
      </trkpt>
      <trkpt lat="61.14854" lon="5.34578">
        <ele>32.159117</ele>
        <time>2020-07-15T20:30:57.032Z</time>
      </trkpt>
      <trkpt lat="61.14869" lon="5.34562">
        <ele>32.786476</ele>
        <time>2020-07-15T20:31:02.381Z</time>
      </trkpt>
      <trkpt lat="61.14891" lon="5.34537">
        <ele>33.719604</ele>
        <time>2020-07-15T20:31:09.522Z</time>
      </trkpt>
      <trkpt lat="61.14905" lon="5.34518">
        <ele>34.483227</ele>
        <time>2020-07-15T20:31:13.827Z</time>
      </trkpt>
      <trkpt lat="61.14972" lon="5.34379">
        <ele>38.954836</ele>
        <time>2020-07-15T20:31:37.902Z</time>
      </trkpt>
      <trkpt lat="61.15001" lon="5.34337">
        <ele>40.614723</ele>
        <time>2020-07-15T20:31:50.469Z</time>
      </trkpt>
      <trkpt lat="61.15046" lon="5.34317">
        <ele>43.550853</ele>
        <time>2020-07-15T20:32:12.527Z</time>
      </trkpt>
      <trkpt lat="61.15075" lon="5.34326">
        <ele>46.725659</ele>
        <time>2020-07-15T20:32:26.574Z</time>
      </trkpt>
      <trkpt lat="61.15098" lon="5.34344">
        <ele>49.257958</ele>
        <time>2020-07-15T20:32:37.854Z</time>
      </trkpt>
      <trkpt lat="61.15101" lon="5.34348">
        <ele>49.689441</ele>
        <time>2020-07-15T20:32:40.076Z</time>
      </trkpt>
      <trkpt lat="61.15113" lon="5.34365">
        <ele>51.271139</ele>
        <time>2020-07-15T20:32:50.535Z</time>
      </trkpt>
      <trkpt lat="61.15171" lon="5.34491">
        <ele>60.178611</ele>
        <time>2020-07-15T20:33:35.695Z</time>
      </trkpt>
      <trkpt lat="61.15219" lon="5.34573">
        <ele>63.81964</ele>
        <time>2020-07-15T20:34:11.669Z</time>
      </trkpt>
      <trkpt lat="61.15294" lon="5.34757">
        <ele>69.314394</ele>
        <time>2020-07-15T20:34:44.105Z</time>
      </trkpt>
      <trkpt lat="61.15367" lon="5.34848">
        <ele>67.133232</ele>
        <time>2020-07-15T20:34:54.827Z</time>
      </trkpt>
      <trkpt lat="61.15422" lon="5.34906">
        <ele>64.75747</ele>
        <time>2020-07-15T20:35:02.564Z</time>
      </trkpt>
      <trkpt lat="61.15433" lon="5.34916">
        <ele>64.328384</ele>
        <time>2020-07-15T20:35:03.815Z</time>
      </trkpt>
      <trkpt lat="61.15467" lon="5.34949">
        <ele>62.914005</ele>
        <time>2020-07-15T20:35:08.369Z</time>
      </trkpt>
      <trkpt lat="61.15554" lon="5.35019">
        <ele>59.654888</ele>
        <time>2020-07-15T20:35:19.928Z</time>
      </trkpt>
      <trkpt lat="61.15599" lon="5.35053">
        <ele>57.996385</ele>
        <time>2020-07-15T20:35:26.345Z</time>
      </trkpt>
      <trkpt lat="61.15606" lon="5.35022">
        <ele>57.429616</ele>
        <time>2020-07-15T20:35:28.495Z</time>
      </trkpt>
      <trkpt lat="61.15649" lon="5.34843">
        <ele>55.762461</ele>
        <time>2020-07-15T20:35:44.200Z</time>
      </trkpt>
      <trkpt lat="61.15659" lon="5.34746">
        <ele>55.127186</ele>
        <time>2020-07-15T20:35:50.761Z</time>
      </trkpt>
      <trkpt lat="61.1566" lon="5.34719">
        <ele>54.954092</ele>
        <time>2020-07-15T20:35:53.644Z</time>
      </trkpt>
      <trkpt lat="61.15659" lon="5.34704">
        <ele>54.855381</ele>
        <time>2020-07-15T20:35:54.608Z</time>
      </trkpt>
      <trkpt lat="61.15651" lon="5.34619">
        <ele>54.378356</ele>
        <time>2020-07-15T20:36:00.845Z</time>
      </trkpt>
      <trkpt lat="61.15611" lon="5.34451">
        <ele>53.972062</ele>
        <time>2020-07-15T20:36:14.952Z</time>
      </trkpt>
      <trkpt lat="61.15596" lon="5.34407">
        <ele>53.855524</ele>
        <time>2020-07-15T20:36:18.985Z</time>
      </trkpt>
      <trkpt lat="61.15577" lon="5.3438">
        <ele>53.749543</ele>
        <time>2020-07-15T20:36:22.825Z</time>
      </trkpt>
      <trkpt lat="61.15554" lon="5.34366">
        <ele>53.643364</ele>
        <time>2020-07-15T20:36:26.972Z</time>
      </trkpt>
      <trkpt lat="61.15503" lon="5.34376">
        <ele>55.534108</ele>
        <time>2020-07-15T20:36:38.568Z</time>
      </trkpt>
      <trkpt lat="61.15496" lon="5.34356">
        <ele>56.051656</ele>
        <time>2020-07-15T20:36:41.712Z</time>
      </trkpt>
      <trkpt lat="61.15506" lon="5.34322">
        <ele>56.906981</ele>
        <time>2020-07-15T20:36:47.644Z</time>
      </trkpt>
      <trkpt lat="61.15531" lon="5.34292">
        <ele>58.161295</ele>
        <time>2020-07-15T20:36:57.068Z</time>
      </trkpt>
      <trkpt lat="61.15549" lon="5.34282">
        <ele>59.00232</ele>
        <time>2020-07-15T20:37:04.056Z</time>
      </trkpt>
      <trkpt lat="61.15596" lon="5.34272">
        <ele>61.086437</ele>
        <time>2020-07-15T20:37:22.706Z</time>
      </trkpt>
      <trkpt lat="61.15634" lon="5.34278">
        <ele>63.857815</ele>
        <time>2020-07-15T20:37:38.619Z</time>
      </trkpt>
      <trkpt lat="61.15645" lon="5.34306">
        <ele>65.352689</ele>
        <time>2020-07-15T20:37:46.371Z</time>
      </trkpt>
      <trkpt lat="61.15669" lon="5.34404">
        <ele>69.779487</ele>
        <time>2020-07-15T20:38:09.791Z</time>
      </trkpt>
      <trkpt lat="61.15724" lon="5.34515">
        <ele>76.302192</ele>
        <time>2020-07-15T20:38:46.384Z</time>
      </trkpt>
      <trkpt lat="61.15739" lon="5.3453">
        <ele>77.750351</ele>
        <time>2020-07-15T20:38:54.282Z</time>
      </trkpt>
      <trkpt lat="61.15746" lon="5.34518">
        <ele>78.565665</ele>
        <time>2020-07-15T20:38:58.502Z</time>
      </trkpt>
      <trkpt lat="61.15743" lon="5.34498">
        <ele>79.479772</ele>
        <time>2020-07-15T20:39:03.066Z</time>
      </trkpt>
      <trkpt lat="61.15713" lon="5.34441">
        <ele>83.200438</ele>
        <time>2020-07-15T20:39:21.857Z</time>
      </trkpt>
      <trkpt lat="61.15699" lon="5.34384">
        <ele>85.971091</ele>
        <time>2020-07-15T20:39:35.913Z</time>
      </trkpt>
      <trkpt lat="61.15697" lon="5.34343">
        <ele>87.771653</ele>
        <time>2020-07-15T20:39:45.358Z</time>
      </trkpt>
      <trkpt lat="61.15708" lon="5.34305">
        <ele>89.688333</ele>
        <time>2020-07-15T20:39:55.310Z</time>
      </trkpt>
      <trkpt lat="61.15722" lon="5.3429">
        <ele>91.093678</ele>
        <time>2020-07-15T20:40:02.890Z</time>
      </trkpt>
      <trkpt lat="61.15734" lon="5.34288">
        <ele>92.240535</ele>
        <time>2020-07-15T20:40:08.917Z</time>
      </trkpt>
      <trkpt lat="61.15781" lon="5.34339">
        <ele>96.291614</ele>
        <time>2020-07-15T20:40:34.187Z</time>
      </trkpt>
      <trkpt lat="61.15815" lon="5.34352">
        <ele>98.790197</ele>
        <time>2020-07-15T20:40:49.583Z</time>
      </trkpt>
      <trkpt lat="61.15868" lon="5.34306">
        <ele>103.038922</ele>
        <time>2020-07-15T20:41:12.500Z</time>
      </trkpt>
      <trkpt lat="61.15894" lon="5.34262">
        <ele>105.518656</ele>
        <time>2020-07-15T20:41:24.764Z</time>
      </trkpt>
      <trkpt lat="61.15903" lon="5.34238">
        <ele>106.450122</ele>
        <time>2020-07-15T20:41:30.527Z</time>
      </trkpt>
      <trkpt lat="61.15904" lon="5.34232">
        <ele>106.585484</ele>
        <time>2020-07-15T20:41:31.109Z</time>
      </trkpt>
      <trkpt lat="61.15921" lon="5.34059">
        <ele>110.268373</ele>
        <time>2020-07-15T20:41:58.523Z</time>
      </trkpt>
      <trkpt lat="61.15927" lon="5.34017">
        <ele>111.203136</ele>
        <time>2020-07-15T20:42:05.320Z</time>
      </trkpt>
      <trkpt lat="61.15946" lon="5.33955">
        <ele>112.719156</ele>
        <time>2020-07-15T20:42:15.638Z</time>
      </trkpt>
      <trkpt lat="61.15983" lon="5.3389">
        <ele>114.768465</ele>
        <time>2020-07-15T20:42:29.027Z</time>
      </trkpt>
      <trkpt lat="61.16115" lon="5.33745">
        <ele>120.772215</ele>
        <time>2020-07-15T20:43:16.199Z</time>
      </trkpt>
      <trkpt lat="61.1614" lon="5.33708">
        <ele>121.629851</ele>
        <time>2020-07-15T20:43:26.014Z</time>
      </trkpt>
      <trkpt lat="61.16167" lon="5.33638">
        <ele>122.437457</ele>
        <time>2020-07-15T20:43:38.466Z</time>
      </trkpt>
      <trkpt lat="61.16185" lon="5.33567">
        <ele>123.167794</ele>
        <time>2020-07-15T20:43:47.972Z</time>
      </trkpt>
      <trkpt lat="61.1619" lon="5.33541">
        <ele>123.42072</ele>
        <time>2020-07-15T20:43:51.744Z</time>
      </trkpt>
      <trkpt lat="61.16196" lon="5.33517">
        <ele>123.659478</ele>
        <time>2020-07-15T20:43:53.966Z</time>
      </trkpt>
      <trkpt lat="61.16228" lon="5.33368">
        <ele>124.29291</ele>
        <time>2020-07-15T20:44:07.313Z</time>
      </trkpt>
      <trkpt lat="61.16233" lon="5.33326">
        <ele>123.998277</ele>
        <time>2020-07-15T20:44:11.148Z</time>
      </trkpt>
      <trkpt lat="61.16233" lon="5.33303">
        <ele>123.84256</ele>
        <time>2020-07-15T20:44:12.658Z</time>
      </trkpt>
      <trkpt lat="61.16233" lon="5.33281">
        <ele>123.689524</ele>
        <time>2020-07-15T20:44:14.286Z</time>
      </trkpt>
      <trkpt lat="61.16228" lon="5.33239">
        <ele>123.391302</ele>
        <time>2020-07-15T20:44:17.634Z</time>
      </trkpt>
      <trkpt lat="61.16216" lon="5.33166">
        <ele>122.863314</ele>
        <time>2020-07-15T20:44:23.134Z</time>
      </trkpt>
      <trkpt lat="61.16211" lon="5.33141">
        <ele>122.679374</ele>
        <time>2020-07-15T20:44:24.937Z</time>
      </trkpt>
      <trkpt lat="61.16192" lon="5.33015">
        <ele>120.887331</ele>
        <time>2020-07-15T20:44:33.476Z</time>
      </trkpt>
      <trkpt lat="61.16188" lon="5.32923">
        <ele>118.515312</ele>
        <time>2020-07-15T20:44:39.374Z</time>
      </trkpt>
      <trkpt lat="61.16189" lon="5.32879">
        <ele>117.401112</ele>
        <time>2020-07-15T20:44:42.109Z</time>
      </trkpt>
      <trkpt lat="61.1619" lon="5.3286">
        <ele>116.898484</ele>
        <time>2020-07-15T20:44:43.294Z</time>
      </trkpt>
      <trkpt lat="61.16193" lon="5.32832">
        <ele>116.167364</ele>
        <time>2020-07-15T20:44:45.001Z</time>
      </trkpt>
      <trkpt lat="61.1621" lon="5.32748">
        <ele>113.846531</ele>
        <time>2020-07-15T20:44:49.952Z</time>
      </trkpt>
      <trkpt lat="61.16235" lon="5.326">
        <ele>106.841694</ele>
        <time>2020-07-15T20:44:58.315Z</time>
      </trkpt>
      <trkpt lat="61.16239" lon="5.32547">
        <ele>104.007263</ele>
        <time>2020-07-15T20:45:01.087Z</time>
      </trkpt>
      <trkpt lat="61.16239" lon="5.32515">
        <ele>102.28048</ele>
        <time>2020-07-15T20:45:02.722Z</time>
      </trkpt>
      <trkpt lat="61.16224" lon="5.32351">
        <ele>93.32433</ele>
        <time>2020-07-15T20:45:11.334Z</time>
      </trkpt>
      <trkpt lat="61.16245" lon="5.32182">
        <ele>86.552175</ele>
        <time>2020-07-15T20:45:20.327Z</time>
      </trkpt>
      <trkpt lat="61.16246" lon="5.32117">
        <ele>84.077301</ele>
        <time>2020-07-15T20:45:24.039Z</time>
      </trkpt>
      <trkpt lat="61.16245" lon="5.32104">
        <ele>83.586998</ele>
        <time>2020-07-15T20:45:24.702Z</time>
      </trkpt>
      <trkpt lat="61.1624" lon="5.32062">
        <ele>81.966075</ele>
        <time>2020-07-15T20:45:27.267Z</time>
      </trkpt>
      <trkpt lat="61.16235" lon="5.3196">
        <ele>78.536594</ele>
        <time>2020-07-15T20:45:33.383Z</time>
      </trkpt>
      <trkpt lat="61.16243" lon="5.31882">
        <ele>78.614397</ele>
        <time>2020-07-15T20:45:38.577Z</time>
      </trkpt>
      <trkpt lat="61.16321" lon="5.31544">
        <ele>79.492772</ele>
        <time>2020-07-15T20:46:20.890Z</time>
      </trkpt>
      <trkpt lat="61.16344" lon="5.31289">
        <ele>81.163311</ele>
        <time>2020-07-15T20:46:49.919Z</time>
      </trkpt>
      <trkpt lat="61.16368" lon="5.31196">
        <ele>80.350463</ele>
        <time>2020-07-15T20:46:59.174Z</time>
      </trkpt>
      <trkpt lat="61.16432" lon="5.31075">
        <ele>78.394858</ele>
        <time>2020-07-15T20:47:10.957Z</time>
      </trkpt>
      <trkpt lat="61.16442" lon="5.31034">
        <ele>77.897586</ele>
        <time>2020-07-15T20:47:13.783Z</time>
      </trkpt>
      <trkpt lat="61.16444" lon="5.30985">
        <ele>77.366592</ele>
        <time>2020-07-15T20:47:16.721Z</time>
      </trkpt>
      <trkpt lat="61.16441" lon="5.30967">
        <ele>77.051606</ele>
        <time>2020-07-15T20:47:17.870Z</time>
      </trkpt>
      <trkpt lat="61.1643" lon="5.30919">
        <ele>75.578269</ele>
        <time>2020-07-15T20:47:20.995Z</time>
      </trkpt>
      <trkpt lat="61.16385" lon="5.30755">
        <ele>70.358684</ele>
        <time>2020-07-15T20:47:31.792Z</time>
      </trkpt>
      <trkpt lat="61.16368" lon="5.30638">
        <ele>66.955552</ele>
        <time>2020-07-15T20:47:38.694Z</time>
      </trkpt>
      <trkpt lat="61.16363" lon="5.30556">
        <ele>63.934751</ele>
        <time>2020-07-15T20:47:43.191Z</time>
      </trkpt>
      <trkpt lat="61.16368" lon="5.30507">
        <ele>62.055958</ele>
        <time>2020-07-15T20:47:45.973Z</time>
      </trkpt>
      <trkpt lat="61.16382" lon="5.30459">
        <ele>60.017925</ele>
        <time>2020-07-15T20:47:48.948Z</time>
      </trkpt>
      <trkpt lat="61.16433" lon="5.30362">
        <ele>54.694302</ele>
        <time>2020-07-15T20:47:56.729Z</time>
      </trkpt>
      <trkpt lat="61.16441" lon="5.30341">
        <ele>53.674002</ele>
        <time>2020-07-15T20:47:58.212Z</time>
      </trkpt>
      <trkpt lat="61.16449" lon="5.3032">
        <ele>52.748881</ele>
        <time>2020-07-15T20:47:59.612Z</time>
      </trkpt>
      <trkpt lat="61.16487" lon="5.30233">
        <ele>49.232421</ele>
        <time>2020-07-15T20:48:06.153Z</time>
      </trkpt>
      <trkpt lat="61.16553" lon="5.30169">
        <ele>44.719492</ele>
        <time>2020-07-15T20:48:14.578Z</time>
      </trkpt>
      <trkpt lat="61.16566" lon="5.3016">
        <ele>43.900574</ele>
        <time>2020-07-15T20:48:16.039Z</time>
      </trkpt>
      <trkpt lat="61.16576" lon="5.30153">
        <ele>43.241508</ele>
        <time>2020-07-15T20:48:17.479Z</time>
      </trkpt>
      <trkpt lat="61.166" lon="5.30127">
        <ele>41.791703</ele>
        <time>2020-07-15T20:48:21.175Z</time>
      </trkpt>
      <trkpt lat="61.16639" lon="5.3005">
        <ele>40.747715</ele>
        <time>2020-07-15T20:48:28.770Z</time>
      </trkpt>
      <trkpt lat="61.16652" lon="5.30011">
        <ele>40.296422</ele>
        <time>2020-07-15T20:48:31.972Z</time>
      </trkpt>
      <trkpt lat="61.16654" lon="5.30005">
        <ele>40.231992</ele>
        <time>2020-07-15T20:48:32.481Z</time>
      </trkpt>
      <trkpt lat="61.16675" lon="5.29962">
        <ele>39.650554</ele>
        <time>2020-07-15T20:48:36.829Z</time>
      </trkpt>
      <trkpt lat="61.16693" lon="5.29941">
        <ele>39.23826</ele>
        <time>2020-07-15T20:48:40.284Z</time>
      </trkpt>
      <trkpt lat="61.16714" lon="5.29924">
        <ele>38.798726</ele>
        <time>2020-07-15T20:48:43.851Z</time>
      </trkpt>
      <trkpt lat="61.16729" lon="5.29916">
        <ele>38.499753</ele>
        <time>2020-07-15T20:48:46.132Z</time>
      </trkpt>
      <trkpt lat="61.16754" lon="5.29903">
        <ele>37.856075</ele>
        <time>2020-07-15T20:48:50.041Z</time>
      </trkpt>
      <trkpt lat="61.16767" lon="5.29897">
        <ele>37.522657</ele>
        <time>2020-07-15T20:48:51.796Z</time>
      </trkpt>
      <trkpt lat="61.16816" lon="5.2986">
        <ele>36.154473</ele>
        <time>2020-07-15T20:48:59.347Z</time>
      </trkpt>
      <trkpt lat="61.16843" lon="5.29829">
        <ele>35.356774</ele>
        <time>2020-07-15T20:49:03.563Z</time>
      </trkpt>
      <trkpt lat="61.16852" lon="5.29819">
        <ele>35.083549</ele>
        <time>2020-07-15T20:49:05.034Z</time>
      </trkpt>
      <trkpt lat="61.16861" lon="5.29812">
        <ele>34.842805</ele>
        <time>2020-07-15T20:49:06.297Z</time>
      </trkpt>
      <trkpt lat="61.16868" lon="5.29804">
        <ele>34.630362</ele>
        <time>2020-07-15T20:49:07.216Z</time>
      </trkpt>
      <trkpt lat="61.1688" lon="5.29795">
        <ele>34.309113</ele>
        <time>2020-07-15T20:49:09.059Z</time>
      </trkpt>
      <trkpt lat="61.16897" lon="5.29784">
        <ele>33.846906</ele>
        <time>2020-07-15T20:49:11.412Z</time>
      </trkpt>
      <trkpt lat="61.16904" lon="5.2978">
        <ele>33.622285</ele>
        <time>2020-07-15T20:49:12.185Z</time>
      </trkpt>
      <trkpt lat="61.16952" lon="5.29771">
        <ele>31.264163</ele>
        <time>2020-07-15T20:49:18.121Z</time>
      </trkpt>
      <trkpt lat="61.16975" lon="5.29773">
        <ele>30.133046</ele>
        <time>2020-07-15T20:49:20.939Z</time>
      </trkpt>
      <trkpt lat="61.16993" lon="5.29777">
        <ele>29.274495</ele>
        <time>2020-07-15T20:49:23.118Z</time>
      </trkpt>
      <trkpt lat="61.17002" lon="5.29773">
        <ele>28.844969</ele>
        <time>2020-07-15T20:49:24.272Z</time>
      </trkpt>
      <trkpt lat="61.17004" lon="5.29768">
        <ele>28.686741</ele>
        <time>2020-07-15T20:49:24.660Z</time>
      </trkpt>
      <trkpt lat="61.17006" lon="5.29761">
        <ele>28.504858</ele>
        <time>2020-07-15T20:49:25.053Z</time>
      </trkpt>
      <trkpt lat="61.17023" lon="5.29698">
        <ele>26.800718</ele>
        <time>2020-07-15T20:49:29.333Z</time>
      </trkpt>
      <trkpt lat="61.1703" lon="5.29688">
        <ele>26.384378</ele>
        <time>2020-07-15T20:49:30.325Z</time>
      </trkpt>
      <trkpt lat="61.17034" lon="5.29682">
        <ele>26.136909</ele>
        <time>2020-07-15T20:49:30.938Z</time>
      </trkpt>
      <trkpt lat="61.17099" lon="5.29628">
        <ele>23.502865</ele>
        <time>2020-07-15T20:49:39.471Z</time>
      </trkpt>
      <trkpt lat="61.17116" lon="5.2961">
        <ele>22.878834</ele>
        <time>2020-07-15T20:49:42.068Z</time>
      </trkpt>
      <trkpt lat="61.17132" lon="5.29609">
        <ele>22.353613</ele>
        <time>2020-07-15T20:49:43.947Z</time>
      </trkpt>
      <trkpt lat="61.17275" lon="5.29624">
        <ele>19.140317</ele>
        <time>2020-07-15T20:50:03.981Z</time>
      </trkpt>
      <trkpt lat="61.17293" lon="5.29641">
        <ele>19.130675</ele>
        <time>2020-07-15T20:50:07.349Z</time>
      </trkpt>
      <trkpt lat="61.17311" lon="5.29693">
        <ele>19.115693</ele>
        <time>2020-07-15T20:50:14.500Z</time>
      </trkpt>
      <trkpt lat="61.17322" lon="5.29793">
        <ele>19.091985</ele>
        <time>2020-07-15T20:50:25.546Z</time>
      </trkpt>
      <trkpt lat="61.17367" lon="5.2991">
        <ele>18.012184</ele>
        <time>2020-07-15T20:50:38.989Z</time>
      </trkpt>
      <trkpt lat="61.17372" lon="5.29931">
        <ele>17.678491</ele>
        <time>2020-07-15T20:50:41.628Z</time>
      </trkpt>
      <trkpt lat="61.17377" lon="5.29952">
        <ele>17.358514</ele>
        <time>2020-07-15T20:50:43.006Z</time>
      </trkpt>
      <trkpt lat="61.17394" lon="5.29996">
        <ele>16.561457</ele>
        <time>2020-07-15T20:50:46.835Z</time>
      </trkpt>
      <trkpt lat="61.1742" lon="5.30014">
        <ele>15.764949</ele>
        <time>2020-07-15T20:50:50.135Z</time>
      </trkpt>
      <trkpt lat="61.17428" lon="5.30014">
        <ele>15.535895</ele>
        <time>2020-07-15T20:50:52.053Z</time>
      </trkpt>
      <trkpt lat="61.17435" lon="5.3001">
        <ele>15.319416</ele>
        <time>2020-07-15T20:50:52.900Z</time>
      </trkpt>
      <trkpt lat="61.17449" lon="5.29997">
        <ele>14.879389</ele>
        <time>2020-07-15T20:50:54.657Z</time>
      </trkpt>
      <trkpt lat="61.17462" lon="5.29964">
        <ele>14.282664</ele>
        <time>2020-07-15T20:50:57.394Z</time>
      </trkpt>
      <trkpt lat="61.17468" lon="5.29945">
        <ele>13.973779</ele>
        <time>2020-07-15T20:50:58.579Z</time>
      </trkpt>
      <trkpt lat="61.1748" lon="5.2988">
        <ele>12.891872</ele>
        <time>2020-07-15T20:51:02.626Z</time>
      </trkpt>
      <trkpt lat="61.175" lon="5.29806">
        <ele>11.576615</ele>
        <time>2020-07-15T20:51:07.450Z</time>
      </trkpt>
      <trkpt lat="61.17521" lon="5.29772">
        <ele>10.711304</ele>
        <time>2020-07-15T20:51:10.651Z</time>
      </trkpt>
      <trkpt lat="61.17548" lon="5.29753">
        <ele>9.810614</ele>
        <time>2020-07-15T20:51:14.186Z</time>
      </trkpt>
      <trkpt lat="61.17583" lon="5.2976">
        <ele>8.670389</ele>
        <time>2020-07-15T20:51:19.305Z</time>
      </trkpt>
      <trkpt lat="61.17597" lon="5.29768">
        <ele>8.191203</ele>
        <time>2020-07-15T20:51:21.528Z</time>
      </trkpt>
      <trkpt lat="61.17607" lon="5.29774">
        <ele>8.347414</ele>
        <time>2020-07-15T20:51:25.258Z</time>
      </trkpt>
      <trkpt lat="61.17683" lon="5.29831">
        <ele>12.278007</ele>
        <time>2020-07-15T20:51:49.480Z</time>
      </trkpt>
      <trkpt lat="61.17704" lon="5.29852">
        <ele>13.389193</ele>
        <time>2020-07-15T20:51:57.543Z</time>
      </trkpt>
      <trkpt lat="61.17717" lon="5.29866">
        <ele>14.132868</ele>
        <time>2020-07-15T20:52:04.051Z</time>
      </trkpt>
      <trkpt lat="61.17775" lon="5.29919">
        <ele>17.211625</ele>
        <time>2020-07-15T20:52:30.235Z</time>
      </trkpt>
      <trkpt lat="61.1783" lon="5.29948">
        <ele>20.105329</ele>
        <time>2020-07-15T20:52:53.827Z</time>
      </trkpt>
      <trkpt lat="61.17851" lon="5.29959">
        <ele>21.213337</ele>
        <time>2020-07-15T20:53:02.770Z</time>
      </trkpt>
      <trkpt lat="61.17861" lon="5.29963">
        <ele>21.718131</ele>
        <time>2020-07-15T20:53:05.795Z</time>
      </trkpt>
      <trkpt lat="61.17892" lon="5.29979">
        <ele>23.351398</ele>
        <time>2020-07-15T20:53:15.601Z</time>
      </trkpt>
      <trkpt lat="61.17946" lon="5.30006">
        <ele>25.981329</ele>
        <time>2020-07-15T20:53:31.522Z</time>
      </trkpt>
      <trkpt lat="61.17965" lon="5.30018">
        <ele>25.957086</ele>
        <time>2020-07-15T20:53:35.403Z</time>
      </trkpt>
      <trkpt lat="61.17978" lon="5.30027">
        <ele>25.941513</ele>
        <time>2020-07-15T20:53:38.880Z</time>
      </trkpt>
      <trkpt lat="61.17998" lon="5.30045">
        <ele>25.914509</ele>
        <time>2020-07-15T20:53:42.945Z</time>
      </trkpt>
      <trkpt lat="61.18062" lon="5.30133">
        <ele>25.821007</ele>
        <time>2020-07-15T20:53:55.305Z</time>
      </trkpt>
      <trkpt lat="61.1808" lon="5.30161">
        <ele>25.79434</ele>
        <time>2020-07-15T20:53:58.568Z</time>
      </trkpt>
      <trkpt lat="61.18088" lon="5.30176">
        <ele>25.780878</ele>
        <time>2020-07-15T20:54:00.043Z</time>
      </trkpt>
      <trkpt lat="61.18138" lon="5.30262">
        <ele>25.001975</ele>
        <time>2020-07-15T20:54:09.290Z</time>
      </trkpt>
      <trkpt lat="61.18177" lon="5.30359">
        <ele>24.152065</ele>
        <time>2020-07-15T20:54:18.341Z</time>
      </trkpt>
      <trkpt lat="61.18196" lon="5.3042">
        <ele>23.663892</ele>
        <time>2020-07-15T20:54:23.694Z</time>
      </trkpt>
      <trkpt lat="61.18204" lon="5.30471">
        <ele>23.306543</ele>
        <time>2020-07-15T20:54:27.994Z</time>
      </trkpt>
      <trkpt lat="61.18206" lon="5.30622">
        <ele>21.701839</ele>
        <time>2020-07-15T20:54:38.953Z</time>
      </trkpt>
      <trkpt lat="61.18205" lon="5.3068">
        <ele>21.069349</ele>
        <time>2020-07-15T20:54:43.042Z</time>
      </trkpt>
      <trkpt lat="61.18205" lon="5.30707">
        <ele>20.781786</ele>
        <time>2020-07-15T20:54:44.696Z</time>
      </trkpt>
      <trkpt lat="61.18216" lon="5.30772">
        <ele>20.035835</ele>
        <time>2020-07-15T20:54:49.178Z</time>
      </trkpt>
      <trkpt lat="61.18248" lon="5.30868">
        <ele>18.39374</ele>
        <time>2020-07-15T20:54:56.465Z</time>
      </trkpt>
      <trkpt lat="61.18361" lon="5.31059">
        <ele>12.509738</ele>
        <time>2020-07-15T20:55:14.357Z</time>
      </trkpt>
      <trkpt lat="61.18384" lon="5.31108">
        <ele>11.604705</ele>
        <time>2020-07-15T20:55:18.703Z</time>
      </trkpt>
      <trkpt lat="61.18417" lon="5.31207">
        <ele>10.615195</ele>
        <time>2020-07-15T20:55:26.625Z</time>
      </trkpt>
      <trkpt lat="61.18462" lon="5.3137">
        <ele>9.050853</ele>
        <time>2020-07-15T20:55:40.925Z</time>
      </trkpt>
      <trkpt lat="61.185" lon="5.31417">
        <ele>8.764733</ele>
        <time>2020-07-15T20:55:48.295Z</time>
      </trkpt>
      <trkpt lat="61.18538" lon="5.3143">
        <ele>8.66723</ele>
        <time>2020-07-15T20:55:54.964Z</time>
      </trkpt>
      <trkpt lat="61.18545" lon="5.3143">
        <ele>8.649709</ele>
        <time>2020-07-15T20:55:56.449Z</time>
      </trkpt>
      <trkpt lat="61.18616" lon="5.31415">
        <ele>8.467569</ele>
        <time>2020-07-15T20:56:08.717Z</time>
      </trkpt>
      <trkpt lat="61.18648" lon="5.31408">
        <ele>8.394697</ele>
        <time>2020-07-15T20:56:14.213Z</time>
      </trkpt>
      <trkpt lat="61.18685" lon="5.314">
        <ele>8.509235</ele>
        <time>2020-07-15T20:56:21.071Z</time>
      </trkpt>
      <trkpt lat="61.18727" lon="5.31391">
        <ele>8.638973</ele>
        <time>2020-07-15T20:56:28.388Z</time>
      </trkpt>
      <trkpt lat="61.18859" lon="5.31359">
        <ele>8.8385</ele>
        <time>2020-07-15T20:56:55.033Z</time>
      </trkpt>
      <trkpt lat="61.189" lon="5.31305">
        <ele>8.687109</ele>
        <time>2020-07-15T20:57:04.146Z</time>
      </trkpt>
      <trkpt lat="61.18916" lon="5.31238">
        <ele>8.572169</ele>
        <time>2020-07-15T20:57:10.348Z</time>
      </trkpt>
      <trkpt lat="61.18917" lon="5.31234">
        <ele>8.564825</ele>
        <time>2020-07-15T20:57:11.505Z</time>
      </trkpt>
      <trkpt lat="61.18918" lon="5.31226">
        <ele>8.553245</ele>
        <time>2020-07-15T20:57:11.912Z</time>
      </trkpt>
      <trkpt lat="61.18912" lon="5.31056">
        <ele>7.842189</ele>
        <time>2020-07-15T20:57:24.279Z</time>
      </trkpt>
      <trkpt lat="61.18917" lon="5.30963">
        <ele>6.921024</ele>
        <time>2020-07-15T20:57:30.596Z</time>
      </trkpt>
      <trkpt lat="61.18965" lon="5.30588">
        <ele>3.873577</ele>
        <time>2020-07-15T20:57:56.548Z</time>
      </trkpt>
      <trkpt lat="61.18974" lon="5.30511">
        <ele>3.456427</ele>
        <time>2020-07-15T20:58:02.482Z</time>
      </trkpt>
      <trkpt lat="61.18984" lon="5.30454">
        <ele>3.13405</ele>
        <time>2020-07-15T20:58:07.260Z</time>
      </trkpt>
      <trkpt lat="61.19047" lon="5.30196">
        <ele>3.984274</ele>
        <time>2020-07-15T20:58:35.207Z</time>
      </trkpt>
      <trkpt lat="61.19102" lon="5.30051">
        <ele>4.935124</ele>
        <time>2020-07-15T20:58:57.161Z</time>
      </trkpt>
      <trkpt lat="61.19175" lon="5.29884">
        <ele>5.711362</ele>
        <time>2020-07-15T20:59:20.370Z</time>
      </trkpt>
      <trkpt lat="61.19192" lon="5.2985">
        <ele>5.877558</ele>
        <time>2020-07-15T20:59:24.802Z</time>
      </trkpt>
      <trkpt lat="61.19245" lon="5.29738">
        <ele>5.478219</ele>
        <time>2020-07-15T20:59:36.696Z</time>
      </trkpt>
      <trkpt lat="61.19286" lon="5.29652">
        <ele>4.620494</ele>
        <time>2020-07-15T20:59:45.188Z</time>
      </trkpt>
      <trkpt lat="61.19335" lon="5.29548">
        <ele>3.579277</ele>
        <time>2020-07-15T20:59:54.767Z</time>
      </trkpt>
      <trkpt lat="61.19386" lon="5.2945">
        <ele>3.94971</ele>
        <time>2020-07-15T21:00:05.586Z</time>
      </trkpt>
      <trkpt lat="61.19449" lon="5.29378">
        <ele>4.541573</ele>
        <time>2020-07-15T21:00:21.485Z</time>
      </trkpt>
      <trkpt lat="61.19481" lon="5.29324">
        <ele>4.873623</ele>
        <time>2020-07-15T21:00:31.605Z</time>
      </trkpt>
      <trkpt lat="61.19694" lon="5.28718">
        <ele>16.541796</ele>
        <time>2020-07-15T21:02:17.574Z</time>
      </trkpt>
      <trkpt lat="61.19767" lon="5.28592">
        <ele>15.930107</ele>
        <time>2020-07-15T21:02:35.597Z</time>
      </trkpt>
      <trkpt lat="61.19812" lon="5.28526">
        <ele>15.475332</ele>
        <time>2020-07-15T21:02:43.432Z</time>
      </trkpt>
      <trkpt lat="61.19829" lon="5.28491">
        <ele>15.279758</ele>
        <time>2020-07-15T21:02:46.548Z</time>
      </trkpt>
      <trkpt lat="61.19895" lon="5.28254">
        <ele>10.427711</ele>
        <time>2020-07-15T21:03:03.187Z</time>
      </trkpt>
      <trkpt lat="61.19908" lon="5.28124">
        <ele>7.979629</ele>
        <time>2020-07-15T21:03:11.180Z</time>
      </trkpt>
      <trkpt lat="61.19928" lon="5.28042">
        <ele>6.689886</ele>
        <time>2020-07-15T21:03:16.794Z</time>
      </trkpt>
      <trkpt lat="61.19963" lon="5.27951">
        <ele>5.035296</ele>
        <time>2020-07-15T21:03:24.225Z</time>
      </trkpt>
      <trkpt lat="61.20017" lon="5.27848">
        <ele>2.889539</ele>
        <time>2020-07-15T21:03:34.343Z</time>
      </trkpt>
      <trkpt lat="61.20076" lon="5.27718">
        <ele>1.837162</ele>
        <time>2020-07-15T21:03:46.926Z</time>
      </trkpt>
      <trkpt lat="61.20101" lon="5.27631">
        <ele>1.240324</ele>
        <time>2020-07-15T21:03:54.564Z</time>
      </trkpt>
      <trkpt lat="61.20105" lon="5.27595">
        <ele>1.026223</ele>
        <time>2020-07-15T21:03:57.286Z</time>
      </trkpt>
      <trkpt lat="61.20108" lon="5.27559">
        <ele>0.808854</ele>
        <time>2020-07-15T21:04:00.273Z</time>
      </trkpt>
      <trkpt lat="61.20117" lon="5.27468">
        <ele>0.722024</ele>
        <time>2020-07-15T21:04:07.632Z</time>
      </trkpt>
      <trkpt lat="61.20132" lon="5.27406">
        <ele>0.752287</ele>
        <time>2020-07-15T21:04:13.385Z</time>
      </trkpt>
      <trkpt lat="61.20203" lon="5.27236">
        <ele>0.850287</ele>
        <time>2020-07-15T21:04:33.545Z</time>
      </trkpt>
      <trkpt lat="61.20279" lon="5.27056">
        <ele>1.98785</ele>
        <time>2020-07-15T21:04:58.620Z</time>
      </trkpt>
      <trkpt lat="61.20324" lon="5.26949">
        <ele>2.670255</ele>
        <time>2020-07-15T21:05:13.199Z</time>
      </trkpt>
      <trkpt lat="61.20337" lon="5.2692">
        <ele>2.650561</ele>
        <time>2020-07-15T21:05:17.184Z</time>
      </trkpt>
      <trkpt lat="61.20355" lon="5.26873">
        <ele>2.619414</ele>
        <time>2020-07-15T21:05:22.886Z</time>
      </trkpt>
      <trkpt lat="61.20361" lon="5.2686">
        <ele>2.610629</ele>
        <time>2020-07-15T21:05:24.678Z</time>
      </trkpt>
      <trkpt lat="61.20385" lon="5.26798">
        <ele>2.570444</ele>
        <time>2020-07-15T21:05:31.424Z</time>
      </trkpt>
      <trkpt lat="61.20388" lon="5.26788">
        <ele>2.564493</ele>
        <time>2020-07-15T21:05:32.515Z</time>
      </trkpt>
      <trkpt lat="61.20397" lon="5.26763">
        <ele>2.549066</ele>
        <time>2020-07-15T21:05:34.824Z</time>
      </trkpt>
      <trkpt lat="61.20449" lon="5.26591">
        <ele>2.133715</ele>
        <time>2020-07-15T21:05:50.330Z</time>
      </trkpt>
      <trkpt lat="61.20461" lon="5.26553">
        <ele>1.908864</ele>
        <time>2020-07-15T21:05:53.498Z</time>
      </trkpt>
      <trkpt lat="61.20476" lon="5.26495">
        <ele>1.589157</ele>
        <time>2020-07-15T21:05:58.165Z</time>
      </trkpt>
      <trkpt lat="61.20511" lon="5.26368">
        <ele>0.873672</ele>
        <time>2020-07-15T21:06:09.123Z</time>
      </trkpt>
      <trkpt lat="61.20527" lon="5.26296">
        <ele>0.623618</ele>
        <time>2020-07-15T21:06:15.185Z</time>
      </trkpt>
      <trkpt lat="61.20556" lon="5.26146">
        <ele>0.468756</ele>
        <time>2020-07-15T21:06:28.795Z</time>
      </trkpt>
      <trkpt lat="61.20571" lon="5.26066">
        <ele>0.387208</ele>
        <time>2020-07-15T21:06:36.081Z</time>
      </trkpt>
      <trkpt lat="61.20638" lon="5.25792">
        <ele>0.255636</ele>
        <time>2020-07-15T21:07:02.560Z</time>
      </trkpt>
      <trkpt lat="61.20649" lon="5.25751">
        <ele>0.24608</ele>
        <time>2020-07-15T21:07:06.540Z</time>
      </trkpt>
      <trkpt lat="61.20656" lon="5.25724">
        <ele>0.239751</ele>
        <time>2020-07-15T21:07:09.125Z</time>
      </trkpt>
      <trkpt lat="61.2071" lon="5.25505">
        <ele>0.168275</ele>
        <time>2020-07-15T21:07:29.937Z</time>
      </trkpt>
      <trkpt lat="61.20739" lon="5.25393">
        <ele>0.126448</ele>
        <time>2020-07-15T21:07:40.646Z</time>
      </trkpt>
      <trkpt lat="61.2077" lon="5.25265">
        <ele>0.111625</ele>
        <time>2020-07-15T21:07:52.890Z</time>
      </trkpt>
      <trkpt lat="61.20777" lon="5.25241">
        <ele>0.116742</ele>
        <time>2020-07-15T21:07:55.259Z</time>
      </trkpt>
      <trkpt lat="61.20815" lon="5.25081">
        <ele>0.149746</ele>
        <time>2020-07-15T21:08:10.858Z</time>
      </trkpt>
      <trkpt lat="61.20854" lon="5.24969">
        <ele>0.188487</ele>
        <time>2020-07-15T21:08:22.932Z</time>
      </trkpt>
      <trkpt lat="61.20859" lon="5.24953">
        <ele>0.199896</ele>
        <time>2020-07-15T21:08:24.632Z</time>
      </trkpt>
      <trkpt lat="61.20865" lon="5.24941">
        <ele>0.209687</ele>
        <time>2020-07-15T21:08:26.197Z</time>
      </trkpt>
      <trkpt lat="61.2092" lon="5.24791">
        <ele>0.319034</ele>
        <time>2020-07-15T21:08:42.762Z</time>
      </trkpt>
      <trkpt lat="61.20955" lon="5.2468">
        <ele>0.404372</ele>
        <time>2020-07-15T21:08:54.245Z</time>
      </trkpt>
      <trkpt lat="61.21011" lon="5.24408">
        <ele>0.722129</ele>
        <time>2020-07-15T21:09:20.313Z</time>
      </trkpt>
      <trkpt lat="61.2103" lon="5.24323">
        <ele>0.902351</ele>
        <time>2020-07-15T21:09:29.175Z</time>
      </trkpt>
      <trkpt lat="61.21066" lon="5.24176">
        <ele>1.453018</ele>
        <time>2020-07-15T21:09:44.873Z</time>
      </trkpt>
      <trkpt lat="61.21089" lon="5.24087">
        <ele>1.793287</ele>
        <time>2020-07-15T21:09:54.769Z</time>
      </trkpt>
      <trkpt lat="61.21148" lon="5.23874">
        <ele>3.088178</ele>
        <time>2020-07-15T21:10:19.504Z</time>
      </trkpt>
      <trkpt lat="61.21185" lon="5.23731">
        <ele>4.084513</ele>
        <time>2020-07-15T21:10:36.435Z</time>
      </trkpt>
      <trkpt lat="61.21244" lon="5.23521">
        <ele>6.4675</ele>
        <time>2020-07-15T21:11:06.299Z</time>
      </trkpt>
      <trkpt lat="61.2127" lon="5.23457">
        <ele>7.341012</ele>
        <time>2020-07-15T21:11:16.259Z</time>
      </trkpt>
      <trkpt lat="61.21273" lon="5.23451">
        <ele>7.443384</ele>
        <time>2020-07-15T21:11:17.951Z</time>
      </trkpt>
      <trkpt lat="61.21289" lon="5.23431">
        <ele>7.85281</ele>
        <time>2020-07-15T21:11:22.493Z</time>
      </trkpt>
      <trkpt lat="61.2132" lon="5.23377">
        <ele>8.563799</ele>
        <time>2020-07-15T21:11:31.953Z</time>
      </trkpt>
      <trkpt lat="61.21332" lon="5.23325">
        <ele>8.962703</ele>
        <time>2020-07-15T21:11:38.493Z</time>
      </trkpt>
      <trkpt lat="61.21387" lon="5.22924">
        <ele>12.379094</ele>
        <time>2020-07-15T21:12:22.011Z</time>
      </trkpt>
      <trkpt lat="61.21388" lon="5.22916">
        <ele>12.470682</ele>
        <time>2020-07-15T21:12:22.735Z</time>
      </trkpt>
      <trkpt lat="61.21404" lon="5.22803">
        <ele>13.719412</ele>
        <time>2020-07-15T21:12:37.438Z</time>
      </trkpt>
      <trkpt lat="61.21421" lon="5.22733">
        <ele>14.549223</ele>
        <time>2020-07-15T21:12:47.883Z</time>
      </trkpt>
      <trkpt lat="61.21442" lon="5.22688">
        <ele>15.525992</ele>
        <time>2020-07-15T21:12:56.615Z</time>
      </trkpt>
      <trkpt lat="61.21455" lon="5.22673">
        <ele>16.077731</ele>
        <time>2020-07-15T21:13:01.019Z</time>
      </trkpt>
      <trkpt lat="61.21472" lon="5.22662">
        <ele>16.767609</ele>
        <time>2020-07-15T21:13:06.614Z</time>
      </trkpt>
      <trkpt lat="61.2158" lon="5.22635">
        <ele>20.854038</ele>
        <time>2020-07-15T21:13:40.917Z</time>
      </trkpt>
      <trkpt lat="61.21707" lon="5.22539">
        <ele>23.813358</ele>
        <time>2020-07-15T21:14:16.703Z</time>
      </trkpt>
      <trkpt lat="61.21713" lon="5.22537">
        <ele>23.929239</ele>
        <time>2020-07-15T21:14:19.241Z</time>
      </trkpt>
      <trkpt lat="61.21742" lon="5.22521">
        <ele>24.516111</ele>
        <time>2020-07-15T21:14:24.370Z</time>
      </trkpt>
      <trkpt lat="61.21773" lon="5.22475">
        <ele>24.974929</ele>
        <time>2020-07-15T21:14:31.070Z</time>
      </trkpt>
      <trkpt lat="61.21809" lon="5.22325">
        <ele>24.468869</ele>
        <time>2020-07-15T21:14:43.788Z</time>
      </trkpt>
      <trkpt lat="61.21854" lon="5.22259">
        <ele>24.123922</ele>
        <time>2020-07-15T21:14:52.029Z</time>
      </trkpt>
      <trkpt lat="61.21866" lon="5.22246">
        <ele>24.038815</ele>
        <time>2020-07-15T21:14:53.928Z</time>
      </trkpt>
      <trkpt lat="61.21921" lon="5.22182">
        <ele>24.539033</ele>
        <time>2020-07-15T21:15:05.805Z</time>
      </trkpt>
      <trkpt lat="61.21931" lon="5.2217">
        <ele>24.697922</ele>
        <time>2020-07-15T21:15:07.870Z</time>
      </trkpt>
      <trkpt lat="61.21956" lon="5.2214">
        <ele>25.106916</ele>
        <time>2020-07-15T21:15:14.377Z</time>
      </trkpt>
      <trkpt lat="61.21982" lon="5.22102">
        <ele>25.562895</ele>
        <time>2020-07-15T21:15:22.226Z</time>
      </trkpt>
      <trkpt lat="61.21995" lon="5.22068">
        <ele>25.866612</ele>
        <time>2020-07-15T21:15:27.496Z</time>
      </trkpt>
      <trkpt lat="61.2201" lon="5.21976">
        <ele>26.523971</ele>
        <time>2020-07-15T21:15:40.128Z</time>
      </trkpt>
      <trkpt lat="61.22022" lon="5.219">
        <ele>26.945073</ele>
        <time>2020-07-15T21:15:50.065Z</time>
      </trkpt>
      <trkpt lat="61.22028" lon="5.2186">
        <ele>27.165107</ele>
        <time>2020-07-15T21:15:55.031Z</time>
      </trkpt>
      <trkpt lat="61.22082" lon="5.2154">
        <ele>28.179168</ele>
        <time>2020-07-15T21:16:26.070Z</time>
      </trkpt>
      <trkpt lat="61.22132" lon="5.2131">
        <ele>27.438799</ele>
        <time>2020-07-15T21:16:44.875Z</time>
      </trkpt>
      <trkpt lat="61.22135" lon="5.21274">
        <ele>27.354505</ele>
        <time>2020-07-15T21:16:47.534Z</time>
      </trkpt>
      <trkpt lat="61.22137" lon="5.21258">
        <ele>27.348819</ele>
        <time>2020-07-15T21:16:48.878Z</time>
      </trkpt>
      <trkpt lat="61.22162" lon="5.21049">
        <ele>27.278273</ele>
        <time>2020-07-15T21:17:05.790Z</time>
      </trkpt>
      <trkpt lat="61.22174" lon="5.21017">
        <ele>27.265218</ele>
        <time>2020-07-15T21:17:09.001Z</time>
      </trkpt>
      <trkpt lat="61.22203" lon="5.20982">
        <ele>27.24238</ele>
        <time>2020-07-15T21:17:15.579Z</time>
      </trkpt>
      <trkpt lat="61.2222" lon="5.20913">
        <ele>27.901552</ele>
        <time>2020-07-15T21:17:24.126Z</time>
      </trkpt>
      <trkpt lat="61.22218" lon="5.20773">
        <ele>29.607822</ele>
        <time>2020-07-15T21:17:42.352Z</time>
      </trkpt>
      <trkpt lat="61.2222" lon="5.20763">
        <ele>29.741842</ele>
        <time>2020-07-15T21:17:43.238Z</time>
      </trkpt>
      <trkpt lat="61.2222" lon="5.2076">
        <ele>29.780974</ele>
        <time>2020-07-15T21:17:43.947Z</time>
      </trkpt>
      <trkpt lat="61.22225" lon="5.20735">
        <ele>30.108805</ele>
        <time>2020-07-15T21:17:47.688Z</time>
      </trkpt>
      <trkpt lat="61.22238" lon="5.20689">
        <ele>30.762119</ele>
        <time>2020-07-15T21:17:54.902Z</time>
      </trkpt>
      <trkpt lat="61.22245" lon="5.20666">
        <ele>31.088856</ele>
        <time>2020-07-15T21:17:58.613Z</time>
      </trkpt>
      <trkpt lat="61.22247" lon="5.20656">
        <ele>31.225163</ele>
        <time>2020-07-15T21:18:00.543Z</time>
      </trkpt>
      <trkpt lat="61.22259" lon="5.20618">
        <ele>31.770021</ele>
        <time>2020-07-15T21:18:05.686Z</time>
      </trkpt>
      <trkpt lat="61.22261" lon="5.20609">
        <ele>31.90294</ele>
        <time>2020-07-15T21:18:07.188Z</time>
      </trkpt>
      <trkpt lat="61.2227" lon="5.20588">
        <ele>32.265968</ele>
        <time>2020-07-15T21:18:11.449Z</time>
      </trkpt>
      <trkpt lat="61.22303" lon="5.20517">
        <ele>33.550758</ele>
        <time>2020-07-15T21:18:23.549Z</time>
      </trkpt>
      <trkpt lat="61.22316" lon="5.2049">
        <ele>34.045773</ele>
        <time>2020-07-15T21:18:28.941Z</time>
      </trkpt>
      <trkpt lat="61.22331" lon="5.20461">
        <ele>34.613327</ele>
        <time>2020-07-15T21:18:34.214Z</time>
      </trkpt>
      <trkpt lat="61.22335" lon="5.20453">
        <ele>34.751479</ele>
        <time>2020-07-15T21:18:35.680Z</time>
      </trkpt>
      <trkpt lat="61.22369" lon="5.20312">
        <ele>36.77863</ele>
        <time>2020-07-15T21:18:56.073Z</time>
      </trkpt>
      <trkpt lat="61.22378" lon="5.20293">
        <ele>37.040052</ele>
        <time>2020-07-15T21:18:58.995Z</time>
      </trkpt>
      <trkpt lat="61.22382" lon="5.20289">
        <ele>37.141213</ele>
        <time>2020-07-15T21:18:59.736Z</time>
      </trkpt>
      <trkpt lat="61.22386" lon="5.20287">
        <ele>37.220399</ele>
        <time>2020-07-15T21:19:00.910Z</time>
      </trkpt>
      <trkpt lat="61.22399" lon="5.20294">
        <ele>37.486273</ele>
        <time>2020-07-15T21:19:04.248Z</time>
      </trkpt>
      <trkpt lat="61.22417" lon="5.20319">
        <ele>37.935942</ele>
        <time>2020-07-15T21:19:09.085Z</time>
      </trkpt>
      <trkpt lat="61.22424" lon="5.2033">
        <ele>38.119434</ele>
        <time>2020-07-15T21:19:11.006Z</time>
      </trkpt>
      <trkpt lat="61.22427" lon="5.20335">
        <ele>38.194206</ele>
        <time>2020-07-15T21:19:12.110Z</time>
      </trkpt>
      <trkpt lat="61.22443" lon="5.20371">
        <ele>38.67583</ele>
        <time>2020-07-15T21:19:17.093Z</time>
      </trkpt>
      <trkpt lat="61.22452" lon="5.2041">
        <ele>39.099259</ele>
        <time>2020-07-15T21:19:22.260Z</time>
      </trkpt>
      <trkpt lat="61.22475" lon="5.20605">
        <ele>41.147948</ele>
        <time>2020-07-15T21:19:47.018Z</time>
      </trkpt>
      <trkpt lat="61.22478" lon="5.20655">
        <ele>41.6847</ele>
        <time>2020-07-15T21:19:53.080Z</time>
      </trkpt>
      <trkpt lat="61.22478" lon="5.2081">
        <ele>43.348088</ele>
        <time>2020-07-15T21:20:11.352Z</time>
      </trkpt>
      <trkpt lat="61.2248" lon="5.20863">
        <ele>43.921997</ele>
        <time>2020-07-15T21:20:17.795Z</time>
      </trkpt>
      <trkpt lat="61.22488" lon="5.20944">
        <ele>44.836361</ele>
        <time>2020-07-15T21:20:27.663Z</time>
      </trkpt>
      <trkpt lat="61.22514" lon="5.21116">
        <ele>46.902445</ele>
        <time>2020-07-15T21:20:49.747Z</time>
      </trkpt>
      <trkpt lat="61.22518" lon="5.21249">
        <ele>48.424667</ele>
        <time>2020-07-15T21:21:06.146Z</time>
      </trkpt>
      <trkpt lat="61.22517" lon="5.21461">
        <ele>50.628472</ele>
        <time>2020-07-15T21:21:32.865Z</time>
      </trkpt>
      <trkpt lat="61.22547" lon="5.21601">
        <ele>52.209749</ele>
        <time>2020-07-15T21:21:50.856Z</time>
      </trkpt>
      <trkpt lat="61.22553" lon="5.21652">
        <ele>52.58341</ele>
        <time>2020-07-15T21:21:56.704Z</time>
      </trkpt>
      <trkpt lat="61.22565" lon="5.22076">
        <ele>54.502007</ele>
        <time>2020-07-15T21:22:37.621Z</time>
      </trkpt>
      <trkpt lat="61.22562" lon="5.2218">
        <ele>55.118092</ele>
        <time>2020-07-15T21:22:47.520Z</time>
      </trkpt>
      <trkpt lat="61.22565" lon="5.22205">
        <ele>55.266834</ele>
        <time>2020-07-15T21:22:50.048Z</time>
      </trkpt>
      <trkpt lat="61.22598" lon="5.22312">
        <ele>56.020243</ele>
        <time>2020-07-15T21:23:03.773Z</time>
      </trkpt>
      <trkpt lat="61.2263" lon="5.22446">
        <ele>58.334405</ele>
        <time>2020-07-15T21:23:22.532Z</time>
      </trkpt>
      <trkpt lat="61.22657" lon="5.22478">
        <ele>59.533765</ele>
        <time>2020-07-15T21:23:31.433Z</time>
      </trkpt>
      <trkpt lat="61.22866" lon="5.22534">
        <ele>69.073589</ele>
        <time>2020-07-15T21:24:42.691Z</time>
      </trkpt>
      <trkpt lat="61.23014" lon="5.226">
        <ele>75.933289</ele>
        <time>2020-07-15T21:25:35.006Z</time>
      </trkpt>
      <trkpt lat="61.23042" lon="5.2262">
        <ele>77.133124</ele>
        <time>2020-07-15T21:25:44.164Z</time>
      </trkpt>
      <trkpt lat="61.23085" lon="5.22685">
        <ele>79.338412</ele>
        <time>2020-07-15T21:25:58.147Z</time>
      </trkpt>
      <trkpt lat="61.23089" lon="5.22687">
        <ele>79.521892</ele>
        <time>2020-07-15T21:26:00.361Z</time>
      </trkpt>
      <trkpt lat="61.23094" lon="5.22687">
        <ele>79.717489</ele>
        <time>2020-07-15T21:26:01.402Z</time>
      </trkpt>
      <trkpt lat="61.23099" lon="5.22687">
        <ele>79.887343</ele>
        <time>2020-07-15T21:26:02.822Z</time>
      </trkpt>
      <trkpt lat="61.23104" lon="5.22686">
        <ele>80.033625</ele>
        <time>2020-07-15T21:26:04.051Z</time>
      </trkpt>
      <trkpt lat="61.23111" lon="5.22684">
        <ele>80.232178</ele>
        <time>2020-07-15T21:26:05.306Z</time>
      </trkpt>
      <trkpt lat="61.23132" lon="5.22662">
        <ele>80.882949</ele>
        <time>2020-07-15T21:26:11.936Z</time>
      </trkpt>
      <trkpt lat="61.23169" lon="5.2259">
        <ele>82.299066</ele>
        <time>2020-07-15T21:26:23.848Z</time>
      </trkpt>
      <trkpt lat="61.23179" lon="5.22559">
        <ele>82.800602</ele>
        <time>2020-07-15T21:26:29.271Z</time>
      </trkpt>
      <trkpt lat="61.23189" lon="5.22492">
        <ele>83.747092</ele>
        <time>2020-07-15T21:26:38.303Z</time>
      </trkpt>
      <trkpt lat="61.23187" lon="5.22363">
        <ele>86.058264</ele>
        <time>2020-07-15T21:26:55.077Z</time>
      </trkpt>
      <trkpt lat="61.23191" lon="5.22335">
        <ele>86.775784</ele>
        <time>2020-07-15T21:26:59.452Z</time>
      </trkpt>
      <trkpt lat="61.2321" lon="5.22316">
        <ele>87.855768</ele>
        <time>2020-07-15T21:27:06.281Z</time>
      </trkpt>
      <trkpt lat="61.23237" lon="5.22305">
        <ele>89.285591</ele>
        <time>2020-07-15T21:27:15.941Z</time>
      </trkpt>
      <trkpt lat="61.23308" lon="5.22309">
        <ele>92.884383</ele>
        <time>2020-07-15T21:27:42.159Z</time>
      </trkpt>
      <trkpt lat="61.23334" lon="5.22319">
        <ele>94.251863</ele>
        <time>2020-07-15T21:27:52.467Z</time>
      </trkpt>
      <trkpt lat="61.2342" lon="5.2238">
        <ele>99.238232</ele>
        <time>2020-07-15T21:28:26.965Z</time>
      </trkpt>
      <trkpt lat="61.23463" lon="5.22449">
        <ele>102.163626</ele>
        <time>2020-07-15T21:28:45.271Z</time>
      </trkpt>
      <trkpt lat="61.23484" lon="5.22468">
        <ele>103.428707</ele>
        <time>2020-07-15T21:28:52.836Z</time>
      </trkpt>
      <trkpt lat="61.23631" lon="5.22536">
        <ele>109.127076</ele>
        <time>2020-07-15T21:29:37.074Z</time>
      </trkpt>
      <trkpt lat="61.23657" lon="5.22524">
        <ele>110.11431</ele>
        <time>2020-07-15T21:29:44.253Z</time>
      </trkpt>
      <trkpt lat="61.23707" lon="5.22463">
        <ele>113.403966</ele>
        <time>2020-07-15T21:30:01.004Z</time>
      </trkpt>
      <trkpt lat="61.23742" lon="5.22468">
        <ele>115.512152</ele>
        <time>2020-07-15T21:30:13.589Z</time>
      </trkpt>
      <trkpt lat="61.23778" lon="5.22491">
        <ele>117.811185</ele>
        <time>2020-07-15T21:30:29.800Z</time>
      </trkpt>
      <trkpt lat="61.23831" lon="5.22573">
        <ele>121.921631</ele>
        <time>2020-07-15T21:30:56.676Z</time>
      </trkpt>
      <trkpt lat="61.23844" lon="5.22591">
        <ele>123.19873</ele>
        <time>2020-07-15T21:31:05.367Z</time>
      </trkpt>
      <trkpt lat="61.23854" lon="5.22601">
        <ele>124.021588</ele>
        <time>2020-07-15T21:31:08.899Z</time>
      </trkpt>
      <trkpt lat="61.23865" lon="5.2261">
        <ele>124.962429</ele>
        <time>2020-07-15T21:31:13.234Z</time>
      </trkpt>
      <trkpt lat="61.23872" lon="5.22614">
        <ele>125.545337</ele>
        <time>2020-07-15T21:31:18.147Z</time>
      </trkpt>
      <trkpt lat="61.23897" lon="5.22619">
        <ele>127.529723</ele>
        <time>2020-07-15T21:31:27.425Z</time>
      </trkpt>
      <trkpt lat="61.23966" lon="5.22593">
        <ele>133.059596</ele>
        <time>2020-07-15T21:31:59.028Z</time>
      </trkpt>
      <trkpt lat="61.23986" lon="5.22595">
        <ele>134.674269</ele>
        <time>2020-07-15T21:32:09.767Z</time>
      </trkpt>
      <trkpt lat="61.24044" lon="5.22638">
        <ele>138.492532</ele>
        <time>2020-07-15T21:32:33.163Z</time>
      </trkpt>
      <trkpt lat="61.24089" lon="5.2269">
        <ele>141.501516</ele>
        <time>2020-07-15T21:32:51.007Z</time>
      </trkpt>
      <trkpt lat="61.24104" lon="5.22692">
        <ele>142.344939</ele>
        <time>2020-07-15T21:32:56.020Z</time>
      </trkpt>
      <trkpt lat="61.24197" lon="5.22667">
        <ele>147.250018</ele>
        <time>2020-07-15T21:33:28.569Z</time>
      </trkpt>
      <trkpt lat="61.24243" lon="5.2263">
        <ele>149.221085</ele>
        <time>2020-07-15T21:33:44.520Z</time>
      </trkpt>
      <trkpt lat="61.24309" lon="5.22557">
        <ele>152.220871</ele>
        <time>2020-07-15T21:34:06.911Z</time>
      </trkpt>
      <trkpt lat="61.24324" lon="5.22547">
        <ele>152.834033</ele>
        <time>2020-07-15T21:34:11.559Z</time>
      </trkpt>
      <trkpt lat="61.24329" lon="5.22546">
        <ele>153.039775</ele>
        <time>2020-07-15T21:34:12.954Z</time>
      </trkpt>
      <trkpt lat="61.24393" lon="5.22522">
        <ele>153.746912</ele>
        <time>2020-07-15T21:34:28.726Z</time>
      </trkpt>
      <trkpt lat="61.24482" lon="5.22456">
        <ele>154.584032</ele>
        <time>2020-07-15T21:34:46.811Z</time>
      </trkpt>
      <trkpt lat="61.24515" lon="5.22432">
        <ele>154.730908</ele>
        <time>2020-07-15T21:34:52.339Z</time>
      </trkpt>
      <trkpt lat="61.24576" lon="5.22381">
        <ele>154.287325</ele>
        <time>2020-07-15T21:35:02.516Z</time>
      </trkpt>
      <trkpt lat="61.24612" lon="5.22338">
        <ele>154.006114</ele>
        <time>2020-07-15T21:35:09.024Z</time>
      </trkpt>
      <trkpt lat="61.24637" lon="5.22277">
        <ele>153.743884</ele>
        <time>2020-07-15T21:35:15.145Z</time>
      </trkpt>
      <trkpt lat="61.24652" lon="5.2222">
        <ele>153.54558</ele>
        <time>2020-07-15T21:35:20.395Z</time>
      </trkpt>
      <trkpt lat="61.24669" lon="5.22107">
        <ele>153.254058</ele>
        <time>2020-07-15T21:35:30.320Z</time>
      </trkpt>
      <trkpt lat="61.24677" lon="5.22013">
        <ele>153.018328</ele>
        <time>2020-07-15T21:35:38.469Z</time>
      </trkpt>
      <trkpt lat="61.2468" lon="5.21915">
        <ele>152.775096</ele>
        <time>2020-07-15T21:35:46.064Z</time>
      </trkpt>
      <trkpt lat="61.24676" lon="5.21835">
        <ele>152.436049</ele>
        <time>2020-07-15T21:35:52.063Z</time>
      </trkpt>
      <trkpt lat="61.24688" lon="5.21704">
        <ele>151.569606</ele>
        <time>2020-07-15T21:36:01.463Z</time>
      </trkpt>
      <trkpt lat="61.24692" lon="5.21687">
        <ele>151.446725</ele>
        <time>2020-07-15T21:36:02.853Z</time>
      </trkpt>
      <trkpt lat="61.24696" lon="5.21675">
        <ele>151.352347</ele>
        <time>2020-07-15T21:36:03.742Z</time>
      </trkpt>
      <trkpt lat="61.2471" lon="5.21649">
        <ele>151.094069</ele>
        <time>2020-07-15T21:36:06.722Z</time>
      </trkpt>
      <trkpt lat="61.24727" lon="5.21636">
        <ele>150.849472</ele>
        <time>2020-07-15T21:36:09.296Z</time>
      </trkpt>
      <trkpt lat="61.24775" lon="5.2162">
        <ele>150.232153</ele>
        <time>2020-07-15T21:36:16.626Z</time>
      </trkpt>
      <trkpt lat="61.24814" lon="5.21622">
        <ele>150.15757</ele>
        <time>2020-07-15T21:36:22.606Z</time>
      </trkpt>
      <trkpt lat="61.24826" lon="5.21623">
        <ele>150.135683</ele>
        <time>2020-07-15T21:36:24.535Z</time>
      </trkpt>
      <trkpt lat="61.24882" lon="5.21647">
        <ele>150.026246</ele>
        <time>2020-07-15T21:36:34.048Z</time>
      </trkpt>
      <trkpt lat="61.24934" lon="5.21635">
        <ele>149.92741</ele>
        <time>2020-07-15T21:36:44.111Z</time>
      </trkpt>
      <trkpt lat="61.25015" lon="5.21658">
        <ele>150.382248</ele>
        <time>2020-07-15T21:37:01.422Z</time>
      </trkpt>
      <trkpt lat="61.25052" lon="5.21708">
        <ele>150.709277</ele>
        <time>2020-07-15T21:37:10.682Z</time>
      </trkpt>
      <trkpt lat="61.2518" lon="5.2184">
        <ele>151.119617</ele>
        <time>2020-07-15T21:37:38.381Z</time>
      </trkpt>
      <trkpt lat="61.25218" lon="5.21892">
        <ele>151.0451</ele>
        <time>2020-07-15T21:37:46.333Z</time>
      </trkpt>
      <trkpt lat="61.25343" lon="5.2217">
        <ele>149.820984</ele>
        <time>2020-07-15T21:38:14.978Z</time>
      </trkpt>
      <trkpt lat="61.25386" lon="5.22363">
        <ele>149.193893</ele>
        <time>2020-07-15T21:38:30.722Z</time>
      </trkpt>
      <trkpt lat="61.25406" lon="5.22412">
        <ele>149.13445</ele>
        <time>2020-07-15T21:38:35.615Z</time>
      </trkpt>
      <trkpt lat="61.25553" lon="5.22474">
        <ele>149.605329</ele>
        <time>2020-07-15T21:39:03.696Z</time>
      </trkpt>
      <trkpt lat="61.25649" lon="5.22563">
        <ele>151.209853</ele>
        <time>2020-07-15T21:39:28.383Z</time>
      </trkpt>
      <trkpt lat="61.25796" lon="5.22574">
        <ele>154.415096</ele>
        <time>2020-07-15T21:40:06.848Z</time>
      </trkpt>
      <trkpt lat="61.25898" lon="5.22593">
        <ele>156.248716</ele>
        <time>2020-07-15T21:40:32.343Z</time>
      </trkpt>
      <trkpt lat="61.26021" lon="5.2264">
        <ele>157.356417</ele>
        <time>2020-07-15T21:40:57.470Z</time>
      </trkpt>
      <trkpt lat="61.26046" lon="5.22662">
        <ele>157.382332</ele>
        <time>2020-07-15T21:41:02.093Z</time>
      </trkpt>
      <trkpt lat="61.26069" lon="5.22694">
        <ele>157.133351</ele>
        <time>2020-07-15T21:41:06.464Z</time>
      </trkpt>
      <trkpt lat="61.26092" lon="5.22729">
        <ele>156.87114</ele>
        <time>2020-07-15T21:41:10.887Z</time>
      </trkpt>
      <trkpt lat="61.26123" lon="5.2278">
        <ele>156.50856</ele>
        <time>2020-07-15T21:41:17.084Z</time>
      </trkpt>
      <trkpt lat="61.26207" lon="5.22906">
        <ele>155.435603</ele>
        <time>2020-07-15T21:41:32.543Z</time>
      </trkpt>
      <trkpt lat="61.2626" lon="5.22943">
        <ele>154.707772</ele>
        <time>2020-07-15T21:41:41.092Z</time>
      </trkpt>
      <trkpt lat="61.26311" lon="5.23024">
        <ele>153.868876</ele>
        <time>2020-07-15T21:41:50.647Z</time>
      </trkpt>
      <trkpt lat="61.26319" lon="5.23032">
        <ele>153.751368</ele>
        <time>2020-07-15T21:41:52.032Z</time>
      </trkpt>
      <trkpt lat="61.26323" lon="5.23036">
        <ele>153.690368</ele>
        <time>2020-07-15T21:41:52.632Z</time>
      </trkpt>
      <trkpt lat="61.26394" lon="5.23075">
        <ele>152.771081</ele>
        <time>2020-07-15T21:42:03.458Z</time>
      </trkpt>
      <trkpt lat="61.26433" lon="5.2307">
        <ele>152.286519</ele>
        <time>2020-07-15T21:42:09.220Z</time>
      </trkpt>
      <trkpt lat="61.26454" lon="5.23048">
        <ele>151.991725</ele>
        <time>2020-07-15T21:42:12.870Z</time>
      </trkpt>
      <trkpt lat="61.26514" lon="5.2293">
        <ele>151.071563</ele>
        <time>2020-07-15T21:42:25.622Z</time>
      </trkpt>
      <trkpt lat="61.2656" lon="5.22896">
        <ele>150.677262</ele>
        <time>2020-07-15T21:42:33.569Z</time>
      </trkpt>
      <trkpt lat="61.26612" lon="5.22878">
        <ele>150.26013</ele>
        <time>2020-07-15T21:42:42.329Z</time>
      </trkpt>
      <trkpt lat="61.26637" lon="5.2286">
        <ele>150.046554</ele>
        <time>2020-07-15T21:42:46.560Z</time>
      </trkpt>
      <trkpt lat="61.26652" lon="5.22842">
        <ele>149.904412</ele>
        <time>2020-07-15T21:42:49.356Z</time>
      </trkpt>
      <trkpt lat="61.26659" lon="5.22831">
        <ele>149.836151</ele>
        <time>2020-07-15T21:42:50.583Z</time>
      </trkpt>
      <trkpt lat="61.26685" lon="5.22771">
        <ele>148.641129</ele>
        <time>2020-07-15T21:42:56.458Z</time>
      </trkpt>
      <trkpt lat="61.26708" lon="5.22693">
        <ele>147.243715</ele>
        <time>2020-07-15T21:43:02.653Z</time>
      </trkpt>
      <trkpt lat="61.26722" lon="5.22653">
        <ele>146.476288</ele>
        <time>2020-07-15T21:43:05.834Z</time>
      </trkpt>
      <trkpt lat="61.26746" lon="5.22603">
        <ele>145.38085</ele>
        <time>2020-07-15T21:43:10.200Z</time>
      </trkpt>
      <trkpt lat="61.26778" lon="5.22528">
        <ele>143.378685</ele>
        <time>2020-07-15T21:43:16.050Z</time>
      </trkpt>
      <trkpt lat="61.26813" lon="5.2248">
        <ele>139.089098</ele>
        <time>2020-07-15T21:43:20.943Z</time>
      </trkpt>
      <trkpt lat="61.2684" lon="5.22415">
        <ele>134.786229</ele>
        <time>2020-07-15T21:43:25.402Z</time>
      </trkpt>
      <trkpt lat="61.26891" lon="5.22327">
        <ele>127.952404</ele>
        <time>2020-07-15T21:43:32.454Z</time>
      </trkpt>
      <trkpt lat="61.26902" lon="5.22313">
        <ele>126.654785</ele>
        <time>2020-07-15T21:43:33.777Z</time>
      </trkpt>
      <trkpt lat="61.26927" lon="5.22309">
        <ele>123.877443</ele>
        <time>2020-07-15T21:43:36.481Z</time>
      </trkpt>
      <trkpt lat="61.2695" lon="5.22325">
        <ele>121.164251</ele>
        <time>2020-07-15T21:43:39.019Z</time>
      </trkpt>
      <trkpt lat="61.26964" lon="5.2233">
        <ele>119.503649</ele>
        <time>2020-07-15T21:43:40.553Z</time>
      </trkpt>
      <trkpt lat="61.26989" lon="5.22336">
        <ele>116.694964</ele>
        <time>2020-07-15T21:43:43.208Z</time>
      </trkpt>
      <trkpt lat="61.27015" lon="5.22321">
        <ele>113.636916</ele>
        <time>2020-07-15T21:43:46.084Z</time>
      </trkpt>
      <trkpt lat="61.27091" lon="5.22239">
        <ele>104.758227</ele>
        <time>2020-07-15T21:43:55.297Z</time>
      </trkpt>
      <trkpt lat="61.27105" lon="5.22216">
        <ele>104.071966</ele>
        <time>2020-07-15T21:43:57.316Z</time>
      </trkpt>
      <trkpt lat="61.27175" lon="5.22022">
        <ele>99.477025</ele>
        <time>2020-07-15T21:44:12.802Z</time>
      </trkpt>
      <trkpt lat="61.27205" lon="5.21906">
        <ele>97.880548</ele>
        <time>2020-07-15T21:44:22.584Z</time>
      </trkpt>
      <trkpt lat="61.27262" lon="5.21751">
        <ele>97.133249</ele>
        <time>2020-07-15T21:44:38.487Z</time>
      </trkpt>
      <trkpt lat="61.27307" lon="5.21593">
        <ele>95.878815</ele>
        <time>2020-07-15T21:44:52.366Z</time>
      </trkpt>
      <trkpt lat="61.27321" lon="5.2157">
        <ele>95.417865</ele>
        <time>2020-07-15T21:44:54.909Z</time>
      </trkpt>
      <trkpt lat="61.27347" lon="5.21554">
        <ele>94.709871</ele>
        <time>2020-07-15T21:44:58.758Z</time>
      </trkpt>
      <trkpt lat="61.2738" lon="5.21534">
        <ele>93.836972</ele>
        <time>2020-07-15T21:45:03.302Z</time>
      </trkpt>
      <trkpt lat="61.27398" lon="5.2152">
        <ele>93.331819</ele>
        <time>2020-07-15T21:45:05.792Z</time>
      </trkpt>
      <trkpt lat="61.27438" lon="5.21494">
        <ele>92.2514</ele>
        <time>2020-07-15T21:45:11.145Z</time>
      </trkpt>
      <trkpt lat="61.27483" lon="5.21525">
        <ele>90.060261</ele>
        <time>2020-07-15T21:45:17.085Z</time>
      </trkpt>
      <trkpt lat="61.2751" lon="5.21524">
        <ele>88.6798</ele>
        <time>2020-07-15T21:45:20.344Z</time>
      </trkpt>
      <trkpt lat="61.27527" lon="5.21511">
        <ele>87.727361</ele>
        <time>2020-07-15T21:45:22.587Z</time>
      </trkpt>
      <trkpt lat="61.27621" lon="5.21386">
        <ele>81.857843</ele>
        <time>2020-07-15T21:45:35.917Z</time>
      </trkpt>
      <trkpt lat="61.27637" lon="5.21344">
        <ele>80.302619</ele>
        <time>2020-07-15T21:45:38.931Z</time>
      </trkpt>
      <trkpt lat="61.27668" lon="5.21209">
        <ele>75.919119</ele>
        <time>2020-07-15T21:45:47.418Z</time>
      </trkpt>
      <trkpt lat="61.2769" lon="5.21158">
        <ele>73.927705</ele>
        <time>2020-07-15T21:45:51.259Z</time>
      </trkpt>
      <trkpt lat="61.27757" lon="5.21101">
        <ele>69.692473</ele>
        <time>2020-07-15T21:45:59.606Z</time>
      </trkpt>
      <trkpt lat="61.27835" lon="5.21055">
        <ele>65.16214</ele>
        <time>2020-07-15T21:46:09.241Z</time>
      </trkpt>
      <trkpt lat="61.27851" lon="5.21042">
        <ele>64.230417</ele>
        <time>2020-07-15T21:46:11.179Z</time>
      </trkpt>
      <trkpt lat="61.27873" lon="5.21021">
        <ele>62.85285</ele>
        <time>2020-07-15T21:46:14.300Z</time>
      </trkpt>
      <trkpt lat="61.2792" lon="5.20973">
        <ele>61.093517</ele>
        <time>2020-07-15T21:46:20.828Z</time>
      </trkpt>
      <trkpt lat="61.27967" lon="5.20967">
        <ele>60.074682</ele>
        <time>2020-07-15T21:46:27.101Z</time>
      </trkpt>
      <trkpt lat="61.27982" lon="5.20947">
        <ele>59.687363</ele>
        <time>2020-07-15T21:46:29.382Z</time>
      </trkpt>
      <trkpt lat="61.28063" lon="5.20739">
        <ele>57.983554</ele>
        <time>2020-07-15T21:46:50.842Z</time>
      </trkpt>
      <trkpt lat="61.28178" lon="5.20297">
        <ele>58.028647</ele>
        <time>2020-07-15T21:47:36.694Z</time>
      </trkpt>
      <trkpt lat="61.2826" lon="5.20151">
        <ele>57.036</ele>
        <time>2020-07-15T21:47:54.037Z</time>
      </trkpt>
      <trkpt lat="61.28266" lon="5.20138">
        <ele>56.836993</ele>
        <time>2020-07-15T21:47:55.214Z</time>
      </trkpt>
      <trkpt lat="61.2827" lon="5.20127">
        <ele>56.675751</ele>
        <time>2020-07-15T21:47:56.210Z</time>
      </trkpt>
      <trkpt lat="61.28274" lon="5.20112">
        <ele>56.466173</ele>
        <time>2020-07-15T21:47:57.627Z</time>
      </trkpt>
      <trkpt lat="61.28279" lon="5.20096">
        <ele>56.249055</ele>
        <time>2020-07-15T21:47:58.973Z</time>
      </trkpt>
      <trkpt lat="61.28281" lon="5.20086">
        <ele>56.110837</ele>
        <time>2020-07-15T21:47:59.693Z</time>
      </trkpt>
      <trkpt lat="61.28294" lon="5.20032">
        <ele>55.408023</ele>
        <time>2020-07-15T21:48:03.591Z</time>
      </trkpt>
      <trkpt lat="61.28309" lon="5.19967">
        <ele>54.557506</ele>
        <time>2020-07-15T21:48:08.111Z</time>
      </trkpt>
      <trkpt lat="61.28316" lon="5.19937">
        <ele>54.157656</ele>
        <time>2020-07-15T21:48:10.176Z</time>
      </trkpt>
      <trkpt lat="61.28349" lon="5.19829">
        <ele>51.64403</ele>
        <time>2020-07-15T21:48:17.881Z</time>
      </trkpt>
      <trkpt lat="61.28355" lon="5.19806">
        <ele>50.999911</ele>
        <time>2020-07-15T21:48:19.388Z</time>
      </trkpt>
      <trkpt lat="61.28358" lon="5.19789">
        <ele>50.535646</ele>
        <time>2020-07-15T21:48:20.447Z</time>
      </trkpt>
      <trkpt lat="61.28374" lon="5.19656">
        <ele>47.114622</ele>
        <time>2020-07-15T21:48:28.480Z</time>
      </trkpt>
      <trkpt lat="61.28414" lon="5.19405">
        <ele>39.603654</ele>
        <time>2020-07-15T21:48:43.233Z</time>
      </trkpt>
      <trkpt lat="61.28427" lon="5.1935">
        <ele>37.709574</ele>
        <time>2020-07-15T21:48:46.651Z</time>
      </trkpt>
      <trkpt lat="61.28435" lon="5.19317">
        <ele>36.550473</ele>
        <time>2020-07-15T21:48:48.692Z</time>
      </trkpt>
      <trkpt lat="61.28457" lon="5.19218">
        <ele>33.17055</ele>
        <time>2020-07-15T21:48:54.705Z</time>
      </trkpt>
      <trkpt lat="61.28507" lon="5.19096">
        <ele>31.516164</ele>
        <time>2020-07-15T21:49:04.139Z</time>
      </trkpt>
      <trkpt lat="61.28522" lon="5.19005">
        <ele>30.811186</ele>
        <time>2020-07-15T21:49:11.896Z</time>
      </trkpt>
      <trkpt lat="61.28526" lon="5.18966">
        <ele>30.51252</ele>
        <time>2020-07-15T21:49:14.465Z</time>
      </trkpt>
      <trkpt lat="61.2853" lon="5.18948">
        <ele>30.370615</ele>
        <time>2020-07-15T21:49:17.453Z</time>
      </trkpt>
      <trkpt lat="61.28554" lon="5.18892">
        <ele>29.810852</ele>
        <time>2020-07-15T21:49:26.484Z</time>
      </trkpt>
      <trkpt lat="61.28618" lon="5.18827">
        <ele>31.049515</ele>
        <time>2020-07-15T21:49:45.743Z</time>
      </trkpt>
      <trkpt lat="61.28621" lon="5.18825">
        <ele>31.119869</ele>
        <time>2020-07-15T21:49:48.571Z</time>
      </trkpt>
      <trkpt lat="61.28626" lon="5.18825">
        <ele>31.20527</ele>
        <time>2020-07-15T21:49:50.265Z</time>
      </trkpt>
      <trkpt lat="61.28689" lon="5.18862">
        <ele>32.38617</ele>
        <time>2020-07-15T21:50:04.813Z</time>
      </trkpt>
      <trkpt lat="61.28725" lon="5.18854">
        <ele>33.047841</ele>
        <time>2020-07-15T21:50:12.613Z</time>
      </trkpt>
      <trkpt lat="61.28758" lon="5.18835">
        <ele>31.593941</ele>
        <time>2020-07-15T21:50:17.820Z</time>
      </trkpt>
      <trkpt lat="61.28769" lon="5.18826">
        <ele>31.117827</ele>
        <time>2020-07-15T21:50:21.082Z</time>
      </trkpt>
      <trkpt lat="61.28776" lon="5.18817">
        <ele>30.76888</ele>
        <time>2020-07-15T21:50:22.005Z</time>
      </trkpt>
      <trkpt lat="61.28798" lon="5.18779">
        <ele>29.533494</ele>
        <time>2020-07-15T21:50:25.704Z</time>
      </trkpt>
      <trkpt lat="61.28814" lon="5.18731">
        <ele>28.351534</ele>
        <time>2020-07-15T21:50:28.999Z</time>
      </trkpt>
      <trkpt lat="61.28841" lon="5.18547">
        <ele>24.097018</ele>
        <time>2020-07-15T21:50:39.570Z</time>
      </trkpt>
      <trkpt lat="61.28852" lon="5.18455">
        <ele>21.481553</ele>
        <time>2020-07-15T21:50:44.864Z</time>
      </trkpt>
      <trkpt lat="61.28868" lon="5.1832">
        <ele>17.660618</ele>
        <time>2020-07-15T21:50:52.778Z</time>
      </trkpt>
      <trkpt lat="61.28886" lon="5.18225">
        <ele>15.060028</ele>
        <time>2020-07-15T21:50:58.812Z</time>
      </trkpt>
      <trkpt lat="61.28889" lon="5.18216">
        <ele>14.992071</ele>
        <time>2020-07-15T21:50:59.411Z</time>
      </trkpt>
      <trkpt lat="61.28894" lon="5.18207">
        <ele>14.9097</ele>
        <time>2020-07-15T21:51:00.260Z</time>
      </trkpt>
      <trkpt lat="61.289" lon="5.18196">
        <ele>14.809938</ele>
        <time>2020-07-15T21:51:01.298Z</time>
      </trkpt>
      <trkpt lat="61.28904" lon="5.18188">
        <ele>14.728356</ele>
        <time>2020-07-15T21:51:02.153Z</time>
      </trkpt>
      <trkpt lat="61.28912" lon="5.18178">
        <ele>14.612685</ele>
        <time>2020-07-15T21:51:03.428Z</time>
      </trkpt>
      <trkpt lat="61.28955" lon="5.18141">
        <ele>14.011127</ele>
        <time>2020-07-15T21:51:09.996Z</time>
      </trkpt>
      <trkpt lat="61.28975" lon="5.181">
        <ele>13.65584</ele>
        <time>2020-07-15T21:51:14.669Z</time>
      </trkpt>
      <trkpt lat="61.28993" lon="5.18039">
        <ele>13.210931</ele>
        <time>2020-07-15T21:51:20.942Z</time>
      </trkpt>
      <trkpt lat="61.29018" lon="5.17953">
        <ele>13.084212</ele>
        <time>2020-07-15T21:51:30.758Z</time>
      </trkpt>
      <trkpt lat="61.29087" lon="5.17726">
        <ele>15.202125</ele>
        <time>2020-07-15T21:52:01.731Z</time>
      </trkpt>
      <trkpt lat="61.29105" lon="5.17695">
        <ele>15.575384</ele>
        <time>2020-07-15T21:52:07.272Z</time>
      </trkpt>
      <trkpt lat="61.29132" lon="5.1767">
        <ele>15.996453</ele>
        <time>2020-07-15T21:52:14.406Z</time>
      </trkpt>
      <trkpt lat="61.29161" lon="5.17664">
        <ele>16.366044</ele>
        <time>2020-07-15T21:52:21.145Z</time>
      </trkpt>
      <trkpt lat="61.29259" lon="5.1768">
        <ele>17.608049</ele>
        <time>2020-07-15T21:52:42.608Z</time>
      </trkpt>
      <trkpt lat="61.29358" lon="5.17734">
        <ele>18.337346</ele>
        <time>2020-07-15T21:53:03.020Z</time>
      </trkpt>
      <trkpt lat="61.29432" lon="5.17763">
        <ele>18.676479</ele>
        <time>2020-07-15T21:53:17.181Z</time>
      </trkpt>
      <trkpt lat="61.29499" lon="5.17735">
        <ele>18.842452</ele>
        <time>2020-07-15T21:53:29.649Z</time>
      </trkpt>
      <trkpt lat="61.2955" lon="5.17731">
        <ele>18.853663</ele>
        <time>2020-07-15T21:53:39.041Z</time>
      </trkpt>
      <trkpt lat="61.29604" lon="5.17699">
        <ele>18.865929</ele>
        <time>2020-07-15T21:53:49.278Z</time>
      </trkpt>
      <trkpt lat="61.29625" lon="5.17667">
        <ele>18.871599</ele>
        <time>2020-07-15T21:53:53.944Z</time>
      </trkpt>
      <trkpt lat="61.29689" lon="5.1752">
        <ele>18.189827</ele>
        <time>2020-07-15T21:54:09.828Z</time>
      </trkpt>
      <trkpt lat="61.29707" lon="5.175">
        <ele>18.01655</ele>
        <time>2020-07-15T21:54:13.239Z</time>
      </trkpt>
      <trkpt lat="61.29726" lon="5.17493">
        <ele>17.853177</ele>
        <time>2020-07-15T21:54:16.088Z</time>
      </trkpt>
      <trkpt lat="61.29738" lon="5.17491">
        <ele>17.757209</ele>
        <time>2020-07-15T21:54:17.881Z</time>
      </trkpt>
      <trkpt lat="61.29759" lon="5.17487">
        <ele>17.575055</ele>
        <time>2020-07-15T21:54:21.055Z</time>
      </trkpt>
      <trkpt lat="61.29848" lon="5.17471">
        <ele>15.899697</ele>
        <time>2020-07-15T21:54:34.082Z</time>
      </trkpt>
      <trkpt lat="61.29862" lon="5.17467">
        <ele>15.587652</ele>
        <time>2020-07-15T21:54:35.925Z</time>
      </trkpt>
      <trkpt lat="61.29874" lon="5.17462">
        <ele>15.310478</ele>
        <time>2020-07-15T21:54:37.539Z</time>
      </trkpt>
      <trkpt lat="61.29978" lon="5.17412">
        <ele>12.876308</ele>
        <time>2020-07-15T21:54:51.889Z</time>
      </trkpt>
      <trkpt lat="61.29999" lon="5.17401">
        <ele>12.388659</ele>
        <time>2020-07-15T21:54:54.785Z</time>
      </trkpt>
      <trkpt lat="61.30004" lon="5.17399">
        <ele>12.284156</ele>
        <time>2020-07-15T21:54:55.442Z</time>
      </trkpt>
      <trkpt lat="61.30023" lon="5.17389">
        <ele>11.833938</ele>
        <time>2020-07-15T21:54:58.185Z</time>
      </trkpt>
      <trkpt lat="61.30094" lon="5.17327">
        <ele>10.142226</ele>
        <time>2020-07-15T21:55:08.851Z</time>
      </trkpt>
      <trkpt lat="61.30101" lon="5.17327">
        <ele>9.969084</ele>
        <time>2020-07-15T21:55:09.872Z</time>
      </trkpt>
      <trkpt lat="61.301" lon="5.17315">
        <ele>9.841879</ele>
        <time>2020-07-15T21:55:10.791Z</time>
      </trkpt>
      <trkpt lat="61.30092" lon="5.17086">
        <ele>8.240975</ele>
        <time>2020-07-15T21:55:26.966Z</time>
      </trkpt>
      <trkpt lat="61.30098" lon="5.1703">
        <ele>7.907342</ele>
        <time>2020-07-15T21:55:31.096Z</time>
      </trkpt>
      <trkpt lat="61.30192" lon="5.16809">
        <ele>6.929141</ele>
        <time>2020-07-15T21:55:54.049Z</time>
      </trkpt>
      <trkpt lat="61.30202" lon="5.16764">
        <ele>6.879408</ele>
        <time>2020-07-15T21:55:58.175Z</time>
      </trkpt>
      <trkpt lat="61.30207" lon="5.16693">
        <ele>6.808273</ele>
        <time>2020-07-15T21:56:04.208Z</time>
      </trkpt>
      <trkpt lat="61.30209" lon="5.16603">
        <ele>6.718318</ele>
        <time>2020-07-15T21:56:12.049Z</time>
      </trkpt>
      <trkpt lat="61.30209" lon="5.16551">
        <ele>6.818346</ele>
        <time>2020-07-15T21:56:16.718Z</time>
      </trkpt>
      <trkpt lat="61.30194" lon="5.16369">
        <ele>7.316889</ele>
        <time>2020-07-15T21:56:33.936Z</time>
      </trkpt>
      <trkpt lat="61.30189" lon="5.16225">
        <ele>7.707098</ele>
        <time>2020-07-15T21:56:48.226Z</time>
      </trkpt>
      <trkpt lat="61.30188" lon="5.16175">
        <ele>7.874444</ele>
        <time>2020-07-15T21:56:53.188Z</time>
      </trkpt>
      <trkpt lat="61.30185" lon="5.16102">
        <ele>8.122043</ele>
        <time>2020-07-15T21:57:00.450Z</time>
      </trkpt>
      <trkpt lat="61.30183" lon="5.16062">
        <ele>8.260745</ele>
        <time>2020-07-15T21:57:04.427Z</time>
      </trkpt>
      <trkpt lat="61.30182" lon="5.16048">
        <ele>8.30623</ele>
        <time>2020-07-15T21:57:05.736Z</time>
      </trkpt>
      <trkpt lat="61.30182" lon="5.16026">
        <ele>8.38175</ele>
        <time>2020-07-15T21:57:08.067Z</time>
      </trkpt>
      <trkpt lat="61.3017" lon="5.1594">
        <ele>8.68534</ele>
        <time>2020-07-15T21:57:16.711Z</time>
      </trkpt>
      <trkpt lat="61.30155" lon="5.15905">
        <ele>8.844389</ele>
        <time>2020-07-15T21:57:21.138Z</time>
      </trkpt>
      <trkpt lat="61.3013" lon="5.15861">
        <ele>8.976625</ele>
        <time>2020-07-15T21:57:27.564Z</time>
      </trkpt>
      <trkpt lat="61.30101" lon="5.15806">
        <ele>8.921571</ele>
        <time>2020-07-15T21:57:35.161Z</time>
      </trkpt>
      <trkpt lat="61.29976" lon="5.15577">
        <ele>8.580105</ele>
        <time>2020-07-15T21:58:02.805Z</time>
      </trkpt>
      <trkpt lat="61.29964" lon="5.15552">
        <ele>8.503105</ele>
        <time>2020-07-15T21:58:05.608Z</time>
      </trkpt>
      <trkpt lat="61.29954" lon="5.15535">
        <ele>8.450775</ele>
        <time>2020-07-15T21:58:07.530Z</time>
      </trkpt>
      <trkpt lat="61.29927" lon="5.15493">
        <ele>8.30346</ele>
        <time>2020-07-15T21:58:13.231Z</time>
      </trkpt>
      <trkpt lat="61.29882" lon="5.15441">
        <ele>8.079866</ele>
        <time>2020-07-15T21:58:21.928Z</time>
      </trkpt>
      <trkpt lat="61.29814" lon="5.154">
        <ele>7.803564</ele>
        <time>2020-07-15T21:58:33.846Z</time>
      </trkpt>
      <trkpt lat="61.29792" lon="5.15394">
        <ele>7.721984</ele>
        <time>2020-07-15T21:58:37.889Z</time>
      </trkpt>
      <trkpt lat="61.29772" lon="5.1539">
        <ele>7.648188</ele>
        <time>2020-07-15T21:58:41.370Z</time>
      </trkpt>
      <trkpt lat="61.29711" lon="5.15372">
        <ele>7.42041</ele>
        <time>2020-07-15T21:58:51.810Z</time>
      </trkpt>
      <trkpt lat="61.29688" lon="5.15351">
        <ele>7.325406</ele>
        <time>2020-07-15T21:58:56.081Z</time>
      </trkpt>
      <trkpt lat="61.29665" lon="5.15314">
        <ele>7.03222</ele>
        <time>2020-07-15T21:59:00.705Z</time>
      </trkpt>
      <trkpt lat="61.29432" lon="5.14758">
        <ele>2.666491</ele>
        <time>2020-07-15T21:59:53.369Z</time>
      </trkpt>
      <trkpt lat="61.29379" lon="5.1458">
        <ele>2.1757</ele>
        <time>2020-07-15T22:00:09.904Z</time>
      </trkpt>
      <trkpt lat="61.29365" lon="5.14522">
        <ele>2.023328</ele>
        <time>2020-07-15T22:00:15.342Z</time>
      </trkpt>
      <trkpt lat="61.29354" lon="5.14473">
        <ele>1.896142</ele>
        <time>2020-07-15T22:00:19.987Z</time>
      </trkpt>
      <trkpt lat="61.29348" lon="5.14451">
        <ele>1.887292</ele>
        <time>2020-07-15T22:00:22.282Z</time>
      </trkpt>
      <trkpt lat="61.29334" lon="5.14401">
        <ele>1.957787</ele>
        <time>2020-07-15T22:00:27.292Z</time>
      </trkpt>
      <trkpt lat="61.29326" lon="5.14382">
        <ele>1.98774</ele>
        <time>2020-07-15T22:00:29.560Z</time>
      </trkpt>
      <trkpt lat="61.29308" lon="5.14341">
        <ele>2.055861</ele>
        <time>2020-07-15T22:00:34.554Z</time>
      </trkpt>
      <trkpt lat="61.29257" lon="5.1428">
        <ele>2.204948</ele>
        <time>2020-07-15T22:00:45.814Z</time>
      </trkpt>
      <trkpt lat="61.29236" lon="5.14261">
        <ele>2.262439</ele>
        <time>2020-07-15T22:00:50.208Z</time>
      </trkpt>
      <trkpt lat="61.2923" lon="5.14253">
        <ele>2.280183</ele>
        <time>2020-07-15T22:00:51.474Z</time>
      </trkpt>
      <trkpt lat="61.29207" lon="5.14231">
        <ele>2.33538</ele>
        <time>2020-07-15T22:00:56.255Z</time>
      </trkpt>
      <trkpt lat="61.29183" lon="5.14205">
        <ele>2.370853</ele>
        <time>2020-07-15T22:01:01.207Z</time>
      </trkpt>
      <trkpt lat="61.29151" lon="5.14151">
        <ele>2.424518</ele>
        <time>2020-07-15T22:01:08.644Z</time>
      </trkpt>
      <trkpt lat="61.2912" lon="5.14052">
        <ele>2.499283</ele>
        <time>2020-07-15T22:01:18.990Z</time>
      </trkpt>
      <trkpt lat="61.29104" lon="5.13944">
        <ele>2.567218</ele>
        <time>2020-07-15T22:01:28.881Z</time>
      </trkpt>
      <trkpt lat="61.29085" lon="5.13733">
        <ele>2.656909</ele>
        <time>2020-07-15T22:01:47.399Z</time>
      </trkpt>
      <trkpt lat="61.29073" lon="5.13672">
        <ele>2.684253</ele>
        <time>2020-07-15T22:01:53.139Z</time>
      </trkpt>
      <trkpt lat="61.29045" lon="5.13613">
        <ele>2.725055</ele>
        <time>2020-07-15T22:02:00.564Z</time>
      </trkpt>
      <trkpt lat="61.2898" lon="5.13542">
        <ele>2.986209</ele>
        <time>2020-07-15T22:02:13.983Z</time>
      </trkpt>
      <trkpt lat="61.28971" lon="5.13531">
        <ele>3.024843</ele>
        <time>2020-07-15T22:02:15.994Z</time>
      </trkpt>
      <trkpt lat="61.28964" lon="5.13518">
        <ele>3.05954</ele>
        <time>2020-07-15T22:02:17.812Z</time>
      </trkpt>
      <trkpt lat="61.28943" lon="5.1347">
        <ele>3.172319</ele>
        <time>2020-07-15T22:02:23.695Z</time>
      </trkpt>
      <trkpt lat="61.28938" lon="5.13454">
        <ele>3.204844</ele>
        <time>2020-07-15T22:02:25.434Z</time>
      </trkpt>
      <trkpt lat="61.28934" lon="5.13443">
        <ele>3.227567</ele>
        <time>2020-07-15T22:02:26.651Z</time>
      </trkpt>
      <trkpt lat="61.28931" lon="5.1343">
        <ele>3.252043</ele>
        <time>2020-07-15T22:02:27.941Z</time>
      </trkpt>
      <trkpt lat="61.28929" lon="5.13417">
        <ele>3.27584</ele>
        <time>2020-07-15T22:02:29.250Z</time>
      </trkpt>
      <trkpt lat="61.28927" lon="5.13406">
        <ele>3.297036</ele>
        <time>2020-07-15T22:02:30.414Z</time>
      </trkpt>
      <trkpt lat="61.28926" lon="5.13392">
        <ele>3.321696</ele>
        <time>2020-07-15T22:02:31.744Z</time>
      </trkpt>
      <trkpt lat="61.28931" lon="5.13311">
        <ele>3.637757</ele>
        <time>2020-07-15T22:02:39.684Z</time>
      </trkpt>
      <trkpt lat="61.28962" lon="5.13185">
        <ele>4.315551</ele>
        <time>2020-07-15T22:02:53.784Z</time>
      </trkpt>
      <trkpt lat="61.29006" lon="5.13004">
        <ele>5.372517</ele>
        <time>2020-07-15T22:03:14.695Z</time>
      </trkpt>
      <trkpt lat="61.29144" lon="5.12448">
        <ele>10.95858</ele>
        <time>2020-07-15T22:04:25.229Z</time>
      </trkpt>
      <trkpt lat="61.29259" lon="5.11986">
        <ele>17.362291</ele>
        <time>2020-07-15T22:05:33.628Z</time>
      </trkpt>
      <trkpt lat="61.29287" lon="5.11873">
        <ele>18.155486</ele>
        <time>2020-07-15T22:05:48.066Z</time>
      </trkpt>
      <trkpt lat="61.29324" lon="5.11726">
        <ele>19.18828</ele>
        <time>2020-07-15T22:06:04.339Z</time>
      </trkpt>
      <trkpt lat="61.29346" lon="5.11634">
        <ele>19.01703</ele>
        <time>2020-07-15T22:06:12.680Z</time>
      </trkpt>
      <trkpt lat="61.29352" lon="5.11614">
        <ele>18.893215</ele>
        <time>2020-07-15T22:06:14.542Z</time>
      </trkpt>
      <trkpt lat="61.29377" lon="5.11512">
        <ele>18.293514</ele>
        <time>2020-07-15T22:06:22.937Z</time>
      </trkpt>
      <trkpt lat="61.29384" lon="5.11483">
        <ele>18.129536</ele>
        <time>2020-07-15T22:06:25.223Z</time>
      </trkpt>
      <trkpt lat="61.29388" lon="5.11462">
        <ele>18.010833</ele>
        <time>2020-07-15T22:06:26.759Z</time>
      </trkpt>
      <trkpt lat="61.29405" lon="5.11314">
        <ele>17.230405</ele>
        <time>2020-07-15T22:06:37.257Z</time>
      </trkpt>
      <trkpt lat="61.29406" lon="5.11204">
        <ele>16.68255</ele>
        <time>2020-07-15T22:06:44.929Z</time>
      </trkpt>
      <trkpt lat="61.29401" lon="5.11136">
        <ele>16.345866</ele>
        <time>2020-07-15T22:06:49.728Z</time>
      </trkpt>
      <trkpt lat="61.29376" lon="5.10977">
        <ele>15.652009</ele>
        <time>2020-07-15T22:07:02.859Z</time>
      </trkpt>
      <trkpt lat="61.29299" lon="5.10601">
        <ele>17.843938</ele>
        <time>2020-07-15T22:07:46.139Z</time>
      </trkpt>
      <trkpt lat="61.29296" lon="5.10558">
        <ele>18.143521</ele>
        <time>2020-07-15T22:07:51.311Z</time>
      </trkpt>
      <trkpt lat="61.29301" lon="5.10518">
        <ele>18.426929</ele>
        <time>2020-07-15T22:07:55.855Z</time>
      </trkpt>
      <trkpt lat="61.29304" lon="5.10501">
        <ele>18.550055</ele>
        <time>2020-07-15T22:07:58.730Z</time>
      </trkpt>
      <trkpt lat="61.29308" lon="5.10491">
        <ele>18.640765</ele>
        <time>2020-07-15T22:07:59.657Z</time>
      </trkpt>
      <trkpt lat="61.29327" lon="5.10461">
        <ele>18.982257</ele>
        <time>2020-07-15T22:08:05.240Z</time>
      </trkpt>
      <trkpt lat="61.2937" lon="5.1042">
        <ele>19.655926</ele>
        <time>2020-07-15T22:08:15.782Z</time>
      </trkpt>
      <trkpt lat="61.29382" lon="5.10397">
        <ele>19.892674</ele>
        <time>2020-07-15T22:08:19.098Z</time>
      </trkpt>
      <trkpt lat="61.29389" lon="5.1036">
        <ele>20.086523</ele>
        <time>2020-07-15T22:08:23.487Z</time>
      </trkpt>
      <trkpt lat="61.29391" lon="5.10278">
        <ele>20.001818</ele>
        <time>2020-07-15T22:08:31.400Z</time>
      </trkpt>
      <trkpt lat="61.29371" lon="5.09997">
        <ele>19.6886</ele>
        <time>2020-07-15T22:08:54.238Z</time>
      </trkpt>
      <trkpt lat="61.29393" lon="5.09729">
        <ele>16.781779</ele>
        <time>2020-07-15T22:09:12.397Z</time>
      </trkpt>
      <trkpt lat="61.29405" lon="5.09585">
        <ele>15.047322</ele>
        <time>2020-07-15T22:09:21.642Z</time>
      </trkpt>
      <trkpt lat="61.29414" lon="5.09477">
        <ele>13.468307</ele>
        <time>2020-07-15T22:09:28.507Z</time>
      </trkpt>
      <trkpt lat="61.29433" lon="5.09263">
        <ele>10.329836</ele>
        <time>2020-07-15T22:09:42.245Z</time>
      </trkpt>
      <trkpt lat="61.29455" lon="5.09011">
        <ele>8.452555</ele>
        <time>2020-07-15T22:10:00.093Z</time>
      </trkpt>
      <trkpt lat="61.29461" lon="5.0894">
        <ele>7.926903</ele>
        <time>2020-07-15T22:10:05.591Z</time>
      </trkpt>
      <trkpt lat="61.2948" lon="5.08714">
        <ele>6.813964</ele>
        <time>2020-07-15T22:10:23.490Z</time>
      </trkpt>
      <trkpt lat="61.29498" lon="5.08524">
        <ele>5.998739</ele>
        <time>2020-07-15T22:10:38.309Z</time>
      </trkpt>
      <trkpt lat="61.29504" lon="5.08526">
        <ele>5.882785</ele>
        <time>2020-07-15T22:10:39.124Z</time>
      </trkpt>
      <trkpt lat="61.29622" lon="5.08497">
        <ele>3.698267</ele>
        <time>2020-07-15T22:10:56.041Z</time>
      </trkpt>
      <trkpt lat="61.29687" lon="5.08465">
        <ele>2.55867</ele>
        <time>2020-07-15T22:11:05.286Z</time>
      </trkpt>
      <trkpt lat="61.29709" lon="5.08451">
        <ele>2.269008</ele>
        <time>2020-07-15T22:11:08.584Z</time>
      </trkpt>
      <trkpt lat="61.2973" lon="5.08439">
        <ele>1.998172</ele>
        <time>2020-07-15T22:11:11.788Z</time>
      </trkpt>
      <trkpt lat="61.29769" lon="5.08426">
        <ele>1.497681</ele>
        <time>2020-07-15T22:11:17.759Z</time>
      </trkpt>
      <trkpt lat="61.29789" lon="5.0844">
        <ele>1.231248</ele>
        <time>2020-07-15T22:11:21.014Z</time>
      </trkpt>
      <trkpt lat="61.29798" lon="5.0846">
        <ele>1.069666</ele>
        <time>2020-07-15T22:11:22.988Z</time>
      </trkpt>
      <trkpt lat="61.29807" lon="5.08534">
        <ele>0.608706</ele>
        <time>2020-07-15T22:11:28.791Z</time>
      </trkpt>
      <trkpt lat="61.2981" lon="5.08568">
        <ele>0.447916</ele>
        <time>2020-07-15T22:11:31.455Z</time>
      </trkpt>
      <trkpt lat="61.29844" lon="5.0877">
        <ele>0.243492</ele>
        <time>2020-07-15T22:11:45.749Z</time>
      </trkpt>
      <trkpt lat="61.29875" lon="5.08883">
        <ele>0.118999</ele>
        <time>2020-07-15T22:11:54.444Z</time>
      </trkpt>
      <trkpt lat="61.29919" lon="5.08991">
        <ele>0.069417</ele>
        <time>2020-07-15T22:12:03.915Z</time>
      </trkpt>
      <trkpt lat="61.29982" lon="5.09101">
        <ele>0.028336</ele>
        <time>2020-07-15T22:12:15.409Z</time>
      </trkpt>
      <trkpt lat="61.30033" lon="5.09129">
        <ele>0.0078</ele>
        <time>2020-07-15T22:12:22.756Z</time>
      </trkpt>
      <trkpt lat="61.30196" lon="5.09061">
        <ele>5.4E-5</ele>
        <time>2020-07-15T22:12:45.869Z</time>
      </trkpt>
      <trkpt lat="61.31122" lon="5.0819">
        <time>2020-07-15T22:15:07.457Z</time>
      </trkpt>
      <trkpt lat="61.32197" lon="5.0733">
        <time>2020-07-15T22:17:47.905Z</time>
      </trkpt>
      <trkpt lat="61.32561" lon="5.07073">
        <time>2020-07-15T22:18:41.457Z</time>
      </trkpt>
      <trkpt lat="61.33032" lon="5.06917">
        <time>2020-07-15T22:19:47.911Z</time>
      </trkpt>
      <trkpt lat="61.34124" lon="5.0682">
        <time>2020-07-15T22:22:20.102Z</time>
      </trkpt>
      <trkpt lat="61.34302" lon="5.06742">
        <time>2020-07-15T22:22:45.515Z</time>
      </trkpt>
      <trkpt lat="61.34379" lon="5.06671">
        <ele>0.162542</ele>
        <time>2020-07-15T22:22:57.264Z</time>
      </trkpt>
      <trkpt lat="61.34424" lon="5.06612">
        <ele>0.283183</ele>
        <time>2020-07-15T22:23:04.566Z</time>
      </trkpt>
      <trkpt lat="61.34474" lon="5.06529">
        <ele>0.687155</ele>
        <time>2020-07-15T22:23:13.533Z</time>
      </trkpt>
      <trkpt lat="61.34526" lon="5.0644">
        <ele>3.129984</ele>
        <time>2020-07-15T22:23:22.952Z</time>
      </trkpt>
      <trkpt lat="61.34542" lon="5.06433">
        <ele>3.723081</ele>
        <time>2020-07-15T22:23:28.319Z</time>
      </trkpt>
      <trkpt lat="61.34555" lon="5.06425">
        <ele>4.208576</ele>
        <time>2020-07-15T22:23:32.096Z</time>
      </trkpt>
      <trkpt lat="61.34578" lon="5.06386">
        <ele>5.268349</ele>
        <time>2020-07-15T22:23:42.864Z</time>
      </trkpt>
      <trkpt lat="61.3458" lon="5.06378">
        <ele>5.43585</ele>
        <time>2020-07-15T22:23:44.315Z</time>
      </trkpt>
      <trkpt lat="61.34583" lon="5.06352">
        <ele>5.895179</ele>
        <time>2020-07-15T22:23:49.030Z</time>
      </trkpt>
      <trkpt lat="61.34585" lon="5.06319">
        <ele>6.481256</ele>
        <time>2020-07-15T22:23:55.290Z</time>
      </trkpt>
      <trkpt lat="61.34587" lon="5.06304">
        <ele>6.745499</ele>
        <time>2020-07-15T22:23:57.667Z</time>
      </trkpt>
      <trkpt lat="61.34594" lon="5.06298">
        <ele>7.036987</ele>
        <time>2020-07-15T22:24:00.212Z</time>
      </trkpt>
      <trkpt lat="61.34606" lon="5.06287">
        <ele>7.598072</ele>
        <time>2020-07-15T22:24:05.919Z</time>
      </trkpt>
      <trkpt lat="61.34654" lon="5.06244">
        <ele>9.892495</ele>
        <time>2020-07-15T22:24:24.765Z</time>
      </trkpt>
      <trkpt lat="61.34674" lon="5.06227">
        <ele>10.844805</ele>
        <time>2020-07-15T22:24:32.820Z</time>
      </trkpt>
      <trkpt lat="61.3468" lon="5.06221">
        <ele>11.141796</ele>
        <time>2020-07-15T22:24:34.853Z</time>
      </trkpt>
      <trkpt lat="61.34697" lon="5.06308">
        <ele>13.108251</ele>
        <time>2020-07-15T22:24:48.662Z</time>
      </trkpt>
      <trkpt lat="61.34715" lon="5.064">
        <ele>14.628637</ele>
        <time>2020-07-15T22:25:01.652Z</time>
      </trkpt>
      <trkpt lat="61.3474" lon="5.06536">
        <ele>13.45646</ele>
        <time>2020-07-15T22:25:13.807Z</time>
      </trkpt>
      <trkpt lat="61.34763" lon="5.06653">
        <ele>12.446843</ele>
        <time>2020-07-15T22:25:21.582Z</time>
      </trkpt>
      <trkpt lat="61.34766" lon="5.06671">
        <ele>12.291592</ele>
        <time>2020-07-15T22:25:22.855Z</time>
      </trkpt>
      <trkpt lat="61.34767" lon="5.06681">
        <ele>12.208357</ele>
        <time>2020-07-15T22:25:23.448Z</time>
      </trkpt>
      <trkpt lat="61.34768" lon="5.06688">
        <ele>12.154349</ele>
        <time>2020-07-15T22:25:23.857Z</time>
      </trkpt>
      <trkpt lat="61.34782" lon="5.06764">
        <ele>11.32628</ele>
        <time>2020-07-15T22:25:28.713Z</time>
      </trkpt>
      <trkpt lat="61.34794" lon="5.06817">
        <ele>10.557063</ele>
        <time>2020-07-15T22:25:32.222Z</time>
      </trkpt>
      <trkpt lat="61.34796" lon="5.06836">
        <ele>10.301555</ele>
        <time>2020-07-15T22:25:33.448Z</time>
      </trkpt>
      <trkpt lat="61.34797" lon="5.06852">
        <ele>10.087215</ele>
        <time>2020-07-15T22:25:34.373Z</time>
      </trkpt>
      <trkpt lat="61.34788" lon="5.06983">
        <ele>8.351968</ele>
        <time>2020-07-15T22:25:42.990Z</time>
      </trkpt>
      <trkpt lat="61.34772" lon="5.07146">
        <ele>6.977725</ele>
        <time>2020-07-15T22:25:54.599Z</time>
      </trkpt>
      <trkpt lat="61.3477" lon="5.07172">
        <ele>7.039869</ele>
        <time>2020-07-15T22:25:56.806Z</time>
      </trkpt>
      <trkpt lat="61.34768" lon="5.07207">
        <ele>7.1216</ele>
        <time>2020-07-15T22:25:59.916Z</time>
      </trkpt>
      <trkpt lat="61.34762" lon="5.0725">
        <ele>7.226223</ele>
        <time>2020-07-15T22:26:03.978Z</time>
      </trkpt>
      <trkpt lat="61.34757" lon="5.07286">
        <ele>7.314173</ele>
        <time>2020-07-15T22:26:07.657Z</time>
      </trkpt>
      <trkpt lat="61.34746" lon="5.07339">
        <ele>7.449279</ele>
        <time>2020-07-15T22:26:13.645Z</time>
      </trkpt>
      <trkpt lat="61.34734" lon="5.0743">
        <ele>7.671075</ele>
        <time>2020-07-15T22:26:23.802Z</time>
      </trkpt>
      <trkpt lat="61.34723" lon="5.07553">
        <ele>8.454376</ele>
        <time>2020-07-15T22:26:37.953Z</time>
      </trkpt>
      <trkpt lat="61.34718" lon="5.076">
        <ele>8.808324</ele>
        <time>2020-07-15T22:26:43.612Z</time>
      </trkpt>
      <trkpt lat="61.34713" lon="5.07637">
        <ele>9.093322</ele>
        <time>2020-07-15T22:26:47.735Z</time>
      </trkpt>
      <trkpt lat="61.34707" lon="5.07659">
        <ele>9.276574</ele>
        <time>2020-07-15T22:26:50.794Z</time>
      </trkpt>
      <trkpt lat="61.34702" lon="5.07679">
        <ele>9.441764</ele>
        <time>2020-07-15T22:26:52.842Z</time>
      </trkpt>
      <trkpt lat="61.34691" lon="5.07712">
        <ele>9.735928</ele>
        <time>2020-07-15T22:26:57.266Z</time>
      </trkpt>
      <trkpt lat="61.34676" lon="5.07735">
        <ele>10.025374</ele>
        <time>2020-07-15T22:27:01.325Z</time>
      </trkpt>
      <trkpt lat="61.3464" lon="5.07755">
        <ele>10.560096</ele>
        <time>2020-07-15T22:27:09.446Z</time>
      </trkpt>
      <trkpt lat="61.34629" lon="5.0777">
        <ele>10.696018</ele>
        <time>2020-07-15T22:27:12.369Z</time>
      </trkpt>
      <trkpt lat="61.34612" lon="5.07856">
        <ele>11.156465</ele>
        <time>2020-07-15T22:27:21.909Z</time>
      </trkpt>
      <trkpt lat="61.34604" lon="5.07959">
        <ele>11.673654</ele>
        <time>2020-07-15T22:27:32.164Z</time>
      </trkpt>
      <trkpt lat="61.3461" lon="5.08208">
        <ele>12.590271</ele>
        <time>2020-07-15T22:27:57.561Z</time>
      </trkpt>
      <trkpt lat="61.34609" lon="5.0829">
        <ele>12.762523</ele>
        <time>2020-07-15T22:28:05.280Z</time>
      </trkpt>
      <trkpt lat="61.34601" lon="5.08442">
        <ele>13.084664</ele>
        <time>2020-07-15T22:28:18.523Z</time>
      </trkpt>
      <trkpt lat="61.3459" lon="5.08565">
        <ele>13.187477</ele>
        <time>2020-07-15T22:28:28.855Z</time>
      </trkpt>
      <trkpt lat="61.34583" lon="5.08628">
        <ele>13.217939</ele>
        <time>2020-07-15T22:28:34.119Z</time>
      </trkpt>
      <trkpt lat="61.3458" lon="5.08668">
        <ele>13.236757</ele>
        <time>2020-07-15T22:28:37.460Z</time>
      </trkpt>
      <trkpt lat="61.34584" lon="5.0882">
        <ele>13.308501</ele>
        <time>2020-07-15T22:28:51.512Z</time>
      </trkpt>
      <trkpt lat="61.34606" lon="5.08976">
        <ele>14.125035</ele>
        <time>2020-07-15T22:29:06.953Z</time>
      </trkpt>
      <trkpt lat="61.34609" lon="5.08995">
        <ele>14.238659</ele>
        <time>2020-07-15T22:29:09.245Z</time>
      </trkpt>
      <trkpt lat="61.34612" lon="5.09019">
        <ele>14.380542</ele>
        <time>2020-07-15T22:29:11.828Z</time>
      </trkpt>
      <trkpt lat="61.34622" lon="5.09079">
        <ele>14.737839</ele>
        <time>2020-07-15T22:29:18.337Z</time>
      </trkpt>
      <trkpt lat="61.34627" lon="5.09102">
        <ele>14.879161</ele>
        <time>2020-07-15T22:29:20.895Z</time>
      </trkpt>
      <trkpt lat="61.34632" lon="5.09131">
        <ele>15.051751</ele>
        <time>2020-07-15T22:29:24.099Z</time>
      </trkpt>
      <trkpt lat="61.34634" lon="5.09171">
        <ele>15.281033</ele>
        <time>2020-07-15T22:29:28.544Z</time>
      </trkpt>
      <trkpt lat="61.34632" lon="5.09174">
        <ele>15.314805</ele>
        <time>2020-07-15T22:29:29.100Z</time>
      </trkpt>
      <trkpt lat="61.34643" lon="5.09241">
        <ele>15.972786</ele>
        <time>2020-07-15T22:29:37.835Z</time>
      </trkpt>
      <trkpt lat="61.34673" lon="5.09434">
        <ele>18.167731</ele>
        <time>2020-07-15T22:30:02.418Z</time>
      </trkpt>
      <trkpt lat="61.34675" lon="5.09447">
        <ele>18.327526</ele>
        <time>2020-07-15T22:30:04.662Z</time>
      </trkpt>
      <trkpt lat="61.34684" lon="5.09498">
        <ele>18.903938</ele>
        <time>2020-07-15T22:30:11.195Z</time>
      </trkpt>
      <trkpt lat="61.34687" lon="5.09519">
        <ele>19.14476</ele>
        <time>2020-07-15T22:30:14.452Z</time>
      </trkpt>
      <trkpt lat="61.34711" lon="5.09663">
        <ele>19.59564</ele>
        <time>2020-07-15T22:30:31.802Z</time>
      </trkpt>
      <trkpt lat="61.34727" lon="5.09762">
        <ele>19.677446</ele>
        <time>2020-07-15T22:30:41.189Z</time>
      </trkpt>
      <trkpt lat="61.34735" lon="5.09824">
        <ele>19.726881</ele>
        <time>2020-07-15T22:30:46.263Z</time>
      </trkpt>
      <trkpt lat="61.34738" lon="5.09857">
        <ele>19.753137</ele>
        <time>2020-07-15T22:30:48.634Z</time>
      </trkpt>
      <trkpt lat="61.34745" lon="5.09927">
        <ele>19.46661</ele>
        <time>2020-07-15T22:30:53.600Z</time>
      </trkpt>
      <trkpt lat="61.34749" lon="5.09956">
        <ele>18.944284</ele>
        <time>2020-07-15T22:30:55.619Z</time>
      </trkpt>
      <trkpt lat="61.34759" lon="5.10044">
        <ele>17.3756</ele>
        <time>2020-07-15T22:31:01.351Z</time>
      </trkpt>
      <trkpt lat="61.34765" lon="5.10092">
        <ele>16.495902</ele>
        <time>2020-07-15T22:31:04.389Z</time>
      </trkpt>
      <trkpt lat="61.34781" lon="5.10155">
        <ele>15.249983</ele>
        <time>2020-07-15T22:31:08.616Z</time>
      </trkpt>
      <trkpt lat="61.34809" lon="5.10205">
        <ele>13.902484</ele>
        <time>2020-07-15T22:31:13.215Z</time>
      </trkpt>
      <trkpt lat="61.34837" lon="5.10239">
        <ele>12.616577</ele>
        <time>2020-07-15T22:31:17.029Z</time>
      </trkpt>
      <trkpt lat="61.34914" lon="5.10296">
        <ele>8.898465</ele>
        <time>2020-07-15T22:31:26.941Z</time>
      </trkpt>
      <trkpt lat="61.34932" lon="5.10323">
        <ele>7.88145</ele>
        <time>2020-07-15T22:31:29.698Z</time>
      </trkpt>
      <trkpt lat="61.34942" lon="5.10362">
        <ele>6.920087</ele>
        <time>2020-07-15T22:31:32.352Z</time>
      </trkpt>
      <trkpt lat="61.34948" lon="5.10407">
        <ele>5.907546</ele>
        <time>2020-07-15T22:31:35.028Z</time>
      </trkpt>
      <trkpt lat="61.3495" lon="5.10427">
        <ele>5.469371</ele>
        <time>2020-07-15T22:31:36.365Z</time>
      </trkpt>
      <trkpt lat="61.34954" lon="5.10471">
        <ele>4.815754</ele>
        <time>2020-07-15T22:31:39.097Z</time>
      </trkpt>
      <trkpt lat="61.34968" lon="5.10536">
        <ele>4.163718</ele>
        <time>2020-07-15T22:31:43.638Z</time>
      </trkpt>
      <trkpt lat="61.34973" lon="5.10547">
        <ele>4.034226</ele>
        <time>2020-07-15T22:31:44.489Z</time>
      </trkpt>
      <trkpt lat="61.34991" lon="5.10577">
        <ele>3.597045</ele>
        <time>2020-07-15T22:31:47.793Z</time>
      </trkpt>
      <trkpt lat="61.35035" lon="5.1064">
        <ele>2.591213</ele>
        <time>2020-07-15T22:31:55.181Z</time>
      </trkpt>
      <trkpt lat="61.35051" lon="5.10664">
        <ele>2.220793</ele>
        <time>2020-07-15T22:31:58.881Z</time>
      </trkpt>
      <trkpt lat="61.35115" lon="5.10759">
        <ele>2.075061</ele>
        <time>2020-07-15T22:32:13.922Z</time>
      </trkpt>
      <trkpt lat="61.35225" lon="5.10968">
        <ele>3.696673</ele>
        <time>2020-07-15T22:32:45.420Z</time>
      </trkpt>
      <trkpt lat="61.3526" lon="5.11019">
        <ele>4.833578</ele>
        <time>2020-07-15T22:32:55.937Z</time>
      </trkpt>
      <trkpt lat="61.35275" lon="5.11036">
        <ele>5.291034</ele>
        <time>2020-07-15T22:33:00.125Z</time>
      </trkpt>
      <trkpt lat="61.35296" lon="5.11063">
        <ele>5.954107</ele>
        <time>2020-07-15T22:33:07.051Z</time>
      </trkpt>
      <trkpt lat="61.35463" lon="5.11272">
        <ele>10.919745</ele>
        <time>2020-07-15T22:34:03.797Z</time>
      </trkpt>
      <trkpt lat="61.35509" lon="5.11305">
        <ele>12.099447</ele>
        <time>2020-07-15T22:34:13.997Z</time>
      </trkpt>
      <trkpt lat="61.35521" lon="5.11307">
        <ele>12.408276</ele>
        <time>2020-07-15T22:34:17.378Z</time>
      </trkpt>
      <trkpt lat="61.35526" lon="5.11308">
        <ele>12.433677</ele>
        <time>2020-07-15T22:34:18.255Z</time>
      </trkpt>
      <trkpt lat="61.3554" lon="5.11308">
        <ele>12.28871</ele>
        <time>2020-07-15T22:34:20.302Z</time>
      </trkpt>
      <trkpt lat="61.35609" lon="5.11306">
        <ele>11.597201</ele>
        <time>2020-07-15T22:34:31.312Z</time>
      </trkpt>
      <trkpt lat="61.3565" lon="5.1132">
        <ele>11.174414</ele>
        <time>2020-07-15T22:34:37.434Z</time>
      </trkpt>
      <trkpt lat="61.35681" lon="5.11366">
        <ele>10.792418</ele>
        <time>2020-07-15T22:34:42.764Z</time>
      </trkpt>
      <trkpt lat="61.35704" lon="5.11447">
        <ele>10.357557</ele>
        <time>2020-07-15T22:34:49.268Z</time>
      </trkpt>
      <trkpt lat="61.35707" lon="5.11467">
        <ele>10.261897</ele>
        <time>2020-07-15T22:34:50.681Z</time>
      </trkpt>
      <trkpt lat="61.35711" lon="5.1149">
        <ele>10.146884</ele>
        <time>2020-07-15T22:34:52.509Z</time>
      </trkpt>
      <trkpt lat="61.35717" lon="5.11526">
        <ele>9.976138</ele>
        <time>2020-07-15T22:34:55.226Z</time>
      </trkpt>
      <trkpt lat="61.35723" lon="5.11565">
        <ele>9.786394</ele>
        <time>2020-07-15T22:34:58.239Z</time>
      </trkpt>
      <trkpt lat="61.35749" lon="5.11661">
        <ele>9.281774</ele>
        <time>2020-07-15T22:35:06.494Z</time>
      </trkpt>
      <trkpt lat="61.35773" lon="5.11708">
        <ele>8.970225</ele>
        <time>2020-07-15T22:35:11.780Z</time>
      </trkpt>
      <trkpt lat="61.35803" lon="5.11745">
        <ele>9.733271</ele>
        <time>2020-07-15T22:35:18.398Z</time>
      </trkpt>
      <trkpt lat="61.35826" lon="5.11759">
        <ele>10.34267</ele>
        <time>2020-07-15T22:35:23.483Z</time>
      </trkpt>
      <trkpt lat="61.35917" lon="5.11789">
        <ele>12.692265</ele>
        <time>2020-07-15T22:35:47.419Z</time>
      </trkpt>
      <trkpt lat="61.3596" lon="5.11803">
        <ele>14.229755</ele>
        <time>2020-07-15T22:36:01.673Z</time>
      </trkpt>
      <trkpt lat="61.36084" lon="5.11842">
        <ele>22.372838</ele>
        <time>2020-07-15T22:36:54.977Z</time>
      </trkpt>
      <trkpt lat="61.36166" lon="5.11837">
        <ele>25.387079</ele>
        <time>2020-07-15T22:37:24.081Z</time>
      </trkpt>
      <trkpt lat="61.36183" lon="5.11836">
        <ele>25.477708</ele>
        <time>2020-07-15T22:37:31.255Z</time>
      </trkpt>
      <trkpt lat="61.36187" lon="5.11787">
        <ele>25.605699</ele>
        <time>2020-07-15T22:37:35.902Z</time>
      </trkpt>
      <trkpt lat="61.3619" lon="5.11746">
        <ele>25.712185</ele>
        <time>2020-07-15T22:37:41.270Z</time>
      </trkpt>
      <trkpt lat="61.36205" lon="5.11676">
        <ele>25.906277</ele>
        <time>2020-07-15T22:37:48.078Z</time>
      </trkpt>
      <trkpt lat="61.36305" lon="5.11416">
        <ele>18.419639</ele>
        <time>2020-07-15T22:38:06.554Z</time>
      </trkpt>
      <trkpt lat="61.3632" lon="5.11383">
        <ele>16.996489</ele>
        <time>2020-07-15T22:38:09.004Z</time>
      </trkpt>
      <trkpt lat="61.36331" lon="5.11363">
        <ele>16.022755</ele>
        <time>2020-07-15T22:38:10.622Z</time>
      </trkpt>
      <trkpt lat="61.36377" lon="5.11313">
        <ele>13.534897</ele>
        <time>2020-07-15T22:38:16.611Z</time>
      </trkpt>
      <trkpt lat="61.36404" lon="5.11307">
        <ele>12.812968</ele>
        <time>2020-07-15T22:38:19.813Z</time>
      </trkpt>
      <trkpt lat="61.36446" lon="5.11317">
        <ele>11.669496</ele>
        <time>2020-07-15T22:38:25.155Z</time>
      </trkpt>
      <trkpt lat="61.36475" lon="5.11342">
        <ele>10.838737</ele>
        <time>2020-07-15T22:38:29.409Z</time>
      </trkpt>
      <trkpt lat="61.3649" lon="5.11365">
        <ele>10.339948</ele>
        <time>2020-07-15T22:38:33.330Z</time>
      </trkpt>
      <trkpt lat="61.36546" lon="5.11509">
        <ele>10.485776</ele>
        <time>2020-07-15T22:38:55.588Z</time>
      </trkpt>
      <trkpt lat="61.36565" lon="5.11529">
        <ele>10.932323</ele>
        <time>2020-07-15T22:39:01.639Z</time>
      </trkpt>
      <trkpt lat="61.36596" lon="5.11529">
        <ele>11.58214</ele>
        <time>2020-07-15T22:39:10.725Z</time>
      </trkpt>
      <trkpt lat="61.36623" lon="5.11493">
        <ele>12.248308</ele>
        <time>2020-07-15T22:39:20.305Z</time>
      </trkpt>
      <trkpt lat="61.3672" lon="5.11193">
        <ele>12.024002</ele>
        <time>2020-07-15T22:39:52.049Z</time>
      </trkpt>
      <trkpt lat="61.36732" lon="5.11164">
        <ele>11.865445</ele>
        <time>2020-07-15T22:39:54.384Z</time>
      </trkpt>
      <trkpt lat="61.36774" lon="5.11079">
        <ele>10.941393</ele>
        <time>2020-07-15T22:40:01.896Z</time>
      </trkpt>
      <trkpt lat="61.36834" lon="5.10959">
        <ele>8.965599</ele>
        <time>2020-07-15T22:40:12.424Z</time>
      </trkpt>
      <trkpt lat="61.36878" lon="5.10892">
        <ele>7.67162</ele>
        <time>2020-07-15T22:40:20.131Z</time>
      </trkpt>
      <trkpt lat="61.36902" lon="5.10878">
        <ele>7.647976</ele>
        <time>2020-07-15T22:40:24.718Z</time>
      </trkpt>
      <trkpt lat="61.36927" lon="5.10879">
        <ele>8.495953</ele>
        <time>2020-07-15T22:40:30.229Z</time>
      </trkpt>
      <trkpt lat="61.37035" lon="5.10933">
        <ele>12.227928</ele>
        <time>2020-07-15T22:41:03.649Z</time>
      </trkpt>
      <trkpt lat="61.3706" lon="5.10936">
        <ele>13.060924</ele>
        <time>2020-07-15T22:41:12.725Z</time>
      </trkpt>
      <trkpt lat="61.37085" lon="5.10926">
        <ele>14.295241</ele>
        <time>2020-07-15T22:41:22.122Z</time>
      </trkpt>
      <trkpt lat="61.37128" lon="5.10874">
        <ele>17.176665</ele>
        <time>2020-07-15T22:41:41.026Z</time>
      </trkpt>
      <trkpt lat="61.37164" lon="5.10795">
        <ele>20.201029</ele>
        <time>2020-07-15T22:42:01.702Z</time>
      </trkpt>
      <trkpt lat="61.37203" lon="5.1073">
        <ele>23.085048</ele>
        <time>2020-07-15T22:42:20.100Z</time>
      </trkpt>
      <trkpt lat="61.3725" lon="5.10696">
        <ele>23.950461</ele>
        <time>2020-07-15T22:42:35.705Z</time>
      </trkpt>
      <trkpt lat="61.37288" lon="5.10684">
        <ele>24.184467</ele>
        <time>2020-07-15T22:42:45.315Z</time>
      </trkpt>
      <trkpt lat="61.37359" lon="5.1066">
        <ele>24.618817</ele>
        <time>2020-07-15T22:42:57.179Z</time>
      </trkpt>
      <trkpt lat="61.37427" lon="5.10638">
        <ele>22.63621</ele>
        <time>2020-07-15T22:43:06.110Z</time>
      </trkpt>
      <trkpt lat="61.37454" lon="5.10636">
        <ele>21.081829</ele>
        <time>2020-07-15T22:43:09.297Z</time>
      </trkpt>
      <trkpt lat="61.3748" lon="5.10647">
        <ele>19.551875</ele>
        <time>2020-07-15T22:43:12.387Z</time>
      </trkpt>
      <trkpt lat="61.37538" lon="5.10695">
        <ele>15.960537</ele>
        <time>2020-07-15T22:43:19.547Z</time>
      </trkpt>
      <trkpt lat="61.37622" lon="5.10689">
        <ele>12.052178</ele>
        <time>2020-07-15T22:43:29.254Z</time>
      </trkpt>
      <trkpt lat="61.37661" lon="5.10701">
        <ele>10.408043</ele>
        <time>2020-07-15T22:43:33.992Z</time>
      </trkpt>
      <trkpt lat="61.37693" lon="5.10733">
        <ele>8.879342</ele>
        <time>2020-07-15T22:43:38.641Z</time>
      </trkpt>
      <trkpt lat="61.37762" lon="5.10848">
        <ele>6.942328</ele>
        <time>2020-07-15T22:43:51.546Z</time>
      </trkpt>
      <trkpt lat="61.37899" lon="5.10945">
        <ele>7.106075</ele>
        <time>2020-07-15T22:44:21.006Z</time>
      </trkpt>
      <trkpt lat="61.37958" lon="5.10946">
        <ele>7.925847</ele>
        <time>2020-07-15T22:44:32.246Z</time>
      </trkpt>
      <trkpt lat="61.3806" lon="5.1091">
        <ele>9.365618</ele>
        <time>2020-07-15T22:44:55.322Z</time>
      </trkpt>
      <trkpt lat="61.3807" lon="5.10907">
        <ele>9.5031</ele>
        <time>2020-07-15T22:44:57.219Z</time>
      </trkpt>
      <trkpt lat="61.38087" lon="5.10903">
        <ele>10.08633</ele>
        <time>2020-07-15T22:45:02.472Z</time>
      </trkpt>
      <trkpt lat="61.38103" lon="5.10897">
        <ele>10.703244</ele>
        <time>2020-07-15T22:45:07.173Z</time>
      </trkpt>
      <trkpt lat="61.38112" lon="5.10895">
        <ele>11.032104</ele>
        <time>2020-07-15T22:45:09.838Z</time>
      </trkpt>
      <trkpt lat="61.38125" lon="5.10892">
        <ele>11.490695</ele>
        <time>2020-07-15T22:45:14.376Z</time>
      </trkpt>
      <trkpt lat="61.38171" lon="5.10895">
        <ele>13.165759</ele>
        <time>2020-07-15T22:45:28.534Z</time>
      </trkpt>
      <trkpt lat="61.38259" lon="5.10916">
        <ele>16.025435</ele>
        <time>2020-07-15T22:45:55.975Z</time>
      </trkpt>
      <trkpt lat="61.38308" lon="5.1091">
        <ele>15.953999</ele>
        <time>2020-07-15T22:46:10.194Z</time>
      </trkpt>
      <trkpt lat="61.38348" lon="5.10878">
        <ele>15.89276</ele>
        <time>2020-07-15T22:46:19.081Z</time>
      </trkpt>
      <trkpt lat="61.38367" lon="5.10852">
        <ele>15.85937</ele>
        <time>2020-07-15T22:46:22.560Z</time>
      </trkpt>
      <trkpt lat="61.38415" lon="5.10744">
        <ele>15.283325</ele>
        <time>2020-07-15T22:46:31.343Z</time>
      </trkpt>
      <trkpt lat="61.38442" lon="5.10703">
        <ele>14.140838</ele>
        <time>2020-07-15T22:46:35.342Z</time>
      </trkpt>
      <trkpt lat="61.38464" lon="5.10687">
        <ele>13.34896</ele>
        <time>2020-07-15T22:46:38.144Z</time>
      </trkpt>
      <trkpt lat="61.38502" lon="5.10677">
        <ele>12.062896</ele>
        <time>2020-07-15T22:46:42.820Z</time>
      </trkpt>
      <trkpt lat="61.38552" lon="5.10679">
        <ele>10.328762</ele>
        <time>2020-07-15T22:46:49.863Z</time>
      </trkpt>
      <trkpt lat="61.38594" lon="5.107">
        <ele>9.556655</ele>
        <time>2020-07-15T22:46:56.517Z</time>
      </trkpt>
      <trkpt lat="61.38664" lon="5.10836">
        <ele>9.209554</ele>
        <time>2020-07-15T22:47:11.904Z</time>
      </trkpt>
      <trkpt lat="61.38671" lon="5.10842">
        <ele>9.17907</ele>
        <time>2020-07-15T22:47:15.586Z</time>
      </trkpt>
      <trkpt lat="61.38678" lon="5.10847">
        <ele>9.152036</ele>
        <time>2020-07-15T22:47:17.022Z</time>
      </trkpt>
      <trkpt lat="61.38687" lon="5.10852">
        <ele>9.118165</ele>
        <time>2020-07-15T22:47:18.237Z</time>
      </trkpt>
      <trkpt lat="61.38719" lon="5.10856">
        <ele>9.003487</ele>
        <time>2020-07-15T22:47:25.277Z</time>
      </trkpt>
      <trkpt lat="61.38758" lon="5.10847">
        <ele>8.427461</ele>
        <time>2020-07-15T22:47:31.923Z</time>
      </trkpt>
      <trkpt lat="61.38962" lon="5.10738">
        <ele>5.432178</ele>
        <time>2020-07-15T22:48:01.113Z</time>
      </trkpt>
      <trkpt lat="61.38991" lon="5.10734">
        <ele>5.144994</ele>
        <time>2020-07-15T22:48:05.600Z</time>
      </trkpt>
      <trkpt lat="61.39031" lon="5.10762">
        <ele>4.730899</ele>
        <time>2020-07-15T22:48:12.579Z</time>
      </trkpt>
      <trkpt lat="61.39123" lon="5.1091">
        <ele>4.560655</ele>
        <time>2020-07-15T22:48:34.710Z</time>
      </trkpt>
      <trkpt lat="61.39157" lon="5.10937">
        <ele>4.692952</ele>
        <time>2020-07-15T22:48:41.797Z</time>
      </trkpt>
      <trkpt lat="61.39196" lon="5.10942">
        <ele>4.830761</ele>
        <time>2020-07-15T22:48:49.126Z</time>
      </trkpt>
      <trkpt lat="61.39242" lon="5.10933">
        <ele>4.988668</ele>
        <time>2020-07-15T22:48:58.089Z</time>
      </trkpt>
      <trkpt lat="61.39249" lon="5.10932">
        <ele>5.00778</ele>
        <time>2020-07-15T22:48:59.251Z</time>
      </trkpt>
      <trkpt lat="61.39266" lon="5.10931">
        <ele>5.05755</ele>
        <time>2020-07-15T22:49:02.520Z</time>
      </trkpt>
      <trkpt lat="61.39314" lon="5.10948">
        <ele>5.199975</ele>
        <time>2020-07-15T22:49:11.826Z</time>
      </trkpt>
      <trkpt lat="61.39388" lon="5.11">
        <ele>5.424393</ele>
        <time>2020-07-15T22:49:26.386Z</time>
      </trkpt>
      <trkpt lat="61.39418" lon="5.11012">
        <ele>5.351366</ele>
        <time>2020-07-15T22:49:32.537Z</time>
      </trkpt>
      <trkpt lat="61.39449" lon="5.11012">
        <ele>5.122238</ele>
        <time>2020-07-15T22:49:37.929Z</time>
      </trkpt>
      <trkpt lat="61.39553" lon="5.10976">
        <ele>4.350049</ele>
        <time>2020-07-15T22:49:53.875Z</time>
      </trkpt>
      <trkpt lat="61.39576" lon="5.10968">
        <ele>4.177965</ele>
        <time>2020-07-15T22:49:57.340Z</time>
      </trkpt>
      <trkpt lat="61.39615" lon="5.10957">
        <ele>4.02544</ele>
        <time>2020-07-15T22:50:03.631Z</time>
      </trkpt>
      <trkpt lat="61.39624" lon="5.10955">
        <ele>3.993292</ele>
        <time>2020-07-15T22:50:05.232Z</time>
      </trkpt>
      <trkpt lat="61.39809" lon="5.10951">
        <ele>3.78572</ele>
        <time>2020-07-15T22:50:37.687Z</time>
      </trkpt>
      <trkpt lat="61.39845" lon="5.10929">
        <ele>3.977014</ele>
        <time>2020-07-15T22:50:45.963Z</time>
      </trkpt>
      <trkpt lat="61.39908" lon="5.1085">
        <ele>4.352661</ele>
        <time>2020-07-15T22:51:00.854Z</time>
      </trkpt>
      <trkpt lat="61.3995" lon="5.10833">
        <ele>4.501895</ele>
        <time>2020-07-15T22:51:08.880Z</time>
      </trkpt>
      <trkpt lat="61.40015" lon="5.1082">
        <ele>4.627912</ele>
        <time>2020-07-15T22:51:20.219Z</time>
      </trkpt>
      <trkpt lat="61.40029" lon="5.10818">
        <ele>4.655089</ele>
        <time>2020-07-15T22:51:22.892Z</time>
      </trkpt>
      <trkpt lat="61.4004" lon="5.10816">
        <ele>4.677186</ele>
        <time>2020-07-15T22:51:24.632Z</time>
      </trkpt>
      <trkpt lat="61.40102" lon="5.10793">
        <ele>4.80022</ele>
        <time>2020-07-15T22:51:35.873Z</time>
      </trkpt>
      <trkpt lat="61.40177" lon="5.10722">
        <ele>5.784597</ele>
        <time>2020-07-15T22:51:53.745Z</time>
      </trkpt>
      <trkpt lat="61.40206" lon="5.10718">
        <ele>6.149383</ele>
        <time>2020-07-15T22:52:00.560Z</time>
      </trkpt>
      <trkpt lat="61.40236" lon="5.10733">
        <ele>6.530948</ele>
        <time>2020-07-15T22:52:07.600Z</time>
      </trkpt>
      <trkpt lat="61.40269" lon="5.1076">
        <ele>6.966829</ele>
        <time>2020-07-15T22:52:15.675Z</time>
      </trkpt>
      <trkpt lat="61.40277" lon="5.10767">
        <ele>7.060944</ele>
        <time>2020-07-15T22:52:17.993Z</time>
      </trkpt>
      <trkpt lat="61.40285" lon="5.10773">
        <ele>7.106405</ele>
        <time>2020-07-15T22:52:19.911Z</time>
      </trkpt>
      <trkpt lat="61.4031" lon="5.10779">
        <ele>7.245151</ele>
        <time>2020-07-15T22:52:25.272Z</time>
      </trkpt>
      <trkpt lat="61.40366" lon="5.10764">
        <ele>7.553803</ele>
        <time>2020-07-15T22:52:36.783Z</time>
      </trkpt>
      <trkpt lat="61.40414" lon="5.10792">
        <ele>7.823136</ele>
        <time>2020-07-15T22:52:46.322Z</time>
      </trkpt>
      <trkpt lat="61.40439" lon="5.10795">
        <ele>7.961169</ele>
        <time>2020-07-15T22:52:50.517Z</time>
      </trkpt>
      <trkpt lat="61.40457" lon="5.10788">
        <ele>8.062687</ele>
        <time>2020-07-15T22:52:53.358Z</time>
      </trkpt>
      <trkpt lat="61.40513" lon="5.10737">
        <ele>8.416539</ele>
        <time>2020-07-15T22:53:03.320Z</time>
      </trkpt>
      <trkpt lat="61.40645" lon="5.10716">
        <ele>9.638523</ele>
        <time>2020-07-15T22:53:31.330Z</time>
      </trkpt>
      <trkpt lat="61.40675" lon="5.10731">
        <ele>10.51762</ele>
        <time>2020-07-15T22:53:39.322Z</time>
      </trkpt>
      <trkpt lat="61.40829" lon="5.10898">
        <ele>15.538502</ele>
        <time>2020-07-15T22:54:29.252Z</time>
      </trkpt>
      <trkpt lat="61.40895" lon="5.10931">
        <ele>17.515174</ele>
        <time>2020-07-15T22:54:48.513Z</time>
      </trkpt>
      <trkpt lat="61.41023" lon="5.1094">
        <ele>19.331612</ele>
        <time>2020-07-15T22:55:20.806Z</time>
      </trkpt>
      <trkpt lat="61.41061" lon="5.10977">
        <ele>19.243805</ele>
        <time>2020-07-15T22:55:28.251Z</time>
      </trkpt>
      <trkpt lat="61.41083" lon="5.11028">
        <ele>19.174812</ele>
        <time>2020-07-15T22:55:33.478Z</time>
      </trkpt>
      <trkpt lat="61.41115" lon="5.11131">
        <ele>18.479262</ele>
        <time>2020-07-15T22:55:41.234Z</time>
      </trkpt>
      <trkpt lat="61.41126" lon="5.11164">
        <ele>17.680667</ele>
        <time>2020-07-15T22:55:43.856Z</time>
      </trkpt>
      <trkpt lat="61.41137" lon="5.11195">
        <ele>16.939101</ele>
        <time>2020-07-15T22:55:46.033Z</time>
      </trkpt>
      <trkpt lat="61.4117" lon="5.11268">
        <ele>14.935095</ele>
        <time>2020-07-15T22:55:52.151Z</time>
      </trkpt>
      <trkpt lat="61.41185" lon="5.11291">
        <ele>14.189359</ele>
        <time>2020-07-15T22:55:54.271Z</time>
      </trkpt>
      <trkpt lat="61.41249" lon="5.1139">
        <ele>11.22162</ele>
        <time>2020-07-15T22:56:03.879Z</time>
      </trkpt>
      <trkpt lat="61.41346" lon="5.11538">
        <ele>8.459286</ele>
        <time>2020-07-15T22:56:19.989Z</time>
      </trkpt>
      <trkpt lat="61.41358" lon="5.11557">
        <ele>8.108457</ele>
        <time>2020-07-15T22:56:22.581Z</time>
      </trkpt>
      <trkpt lat="61.4139" lon="5.11622">
        <ele>7.827623</ele>
        <time>2020-07-15T22:56:31.255Z</time>
      </trkpt>
      <trkpt lat="61.41397" lon="5.11639">
        <ele>8.018215</ele>
        <time>2020-07-15T22:56:33.251Z</time>
      </trkpt>
      <trkpt lat="61.41403" lon="5.11654">
        <ele>8.179248</ele>
        <time>2020-07-15T22:56:35.234Z</time>
      </trkpt>
      <trkpt lat="61.41408" lon="5.1167">
        <ele>8.338532</ele>
        <time>2020-07-15T22:56:37.357Z</time>
      </trkpt>
      <trkpt lat="61.41412" lon="5.11685">
        <ele>8.487373</ele>
        <time>2020-07-15T22:56:39.327Z</time>
      </trkpt>
      <trkpt lat="61.41417" lon="5.11704">
        <ele>8.681176</ele>
        <time>2020-07-15T22:56:41.650Z</time>
      </trkpt>
      <trkpt lat="61.41422" lon="5.11724">
        <ele>8.866892</ele>
        <time>2020-07-15T22:56:44.219Z</time>
      </trkpt>
      <trkpt lat="61.41426" lon="5.11743">
        <ele>9.045958</ele>
        <time>2020-07-15T22:56:46.927Z</time>
      </trkpt>
      <trkpt lat="61.41437" lon="5.11816">
        <ele>9.696479</ele>
        <time>2020-07-15T22:56:56.274Z</time>
      </trkpt>
      <trkpt lat="61.41457" lon="5.12058">
        <ele>11.635257</ele>
        <time>2020-07-15T22:57:27.409Z</time>
      </trkpt>
      <trkpt lat="61.41513" lon="5.12395">
        <ele>13.219206</ele>
        <time>2020-07-15T22:58:03.108Z</time>
      </trkpt>
      <trkpt lat="61.41691" lon="5.13184">
        <ele>11.131788</ele>
        <time>2020-07-15T22:59:10.173Z</time>
      </trkpt>
      <trkpt lat="61.41709" lon="5.1325">
        <ele>10.889884</ele>
        <time>2020-07-15T22:59:16.247Z</time>
      </trkpt>
      <trkpt lat="61.41761" lon="5.13368">
        <ele>10.172136</ele>
        <time>2020-07-15T22:59:28.495Z</time>
      </trkpt>
      <trkpt lat="61.4182" lon="5.13443">
        <ele>9.376404</ele>
        <time>2020-07-15T22:59:39.014Z</time>
      </trkpt>
      <trkpt lat="61.41858" lon="5.1346">
        <ele>8.928095</ele>
        <time>2020-07-15T22:59:44.718Z</time>
      </trkpt>
      <trkpt lat="61.41933" lon="5.13426">
        <ele>8.970895</ele>
        <time>2020-07-15T22:59:55.996Z</time>
      </trkpt>
      <trkpt lat="61.41965" lon="5.13433">
        <ele>9.217224</ele>
        <time>2020-07-15T23:00:02.389Z</time>
      </trkpt>
      <trkpt lat="61.42067" lon="5.13569">
        <ele>10.696742</ele>
        <time>2020-07-15T23:00:30.541Z</time>
      </trkpt>
      <trkpt lat="61.42074" lon="5.13583">
        <ele>11.017915</ele>
        <time>2020-07-15T23:00:33.815Z</time>
      </trkpt>
      <trkpt lat="61.42078" lon="5.13593">
        <ele>11.225525</ele>
        <time>2020-07-15T23:00:35.608Z</time>
      </trkpt>
      <trkpt lat="61.42097" lon="5.1366">
        <ele>12.4963</ele>
        <time>2020-07-15T23:00:46.249Z</time>
      </trkpt>
      <trkpt lat="61.42104" lon="5.13698">
        <ele>13.144103</ele>
        <time>2020-07-15T23:00:51.420Z</time>
      </trkpt>
      <trkpt lat="61.42107" lon="5.13715">
        <ele>13.44043</ele>
        <time>2020-07-15T23:00:54.595Z</time>
      </trkpt>
      <trkpt lat="61.42111" lon="5.13743">
        <ele>13.911672</ele>
        <time>2020-07-15T23:00:58.336Z</time>
      </trkpt>
      <trkpt lat="61.42142" lon="5.14156">
        <ele>22.21806</ele>
        <time>2020-07-15T23:02:00.443Z</time>
      </trkpt>
      <trkpt lat="61.42144" lon="5.1439">
        <ele>27.342019</ele>
        <time>2020-07-15T23:02:40.360Z</time>
      </trkpt>
      <trkpt lat="61.42144" lon="5.14546">
        <ele>30.767533</ele>
        <time>2020-07-15T23:03:05.754Z</time>
      </trkpt>
      <trkpt lat="61.42145" lon="5.1461">
        <ele>32.19399</ele>
        <time>2020-07-15T23:03:15.566Z</time>
      </trkpt>
      <trkpt lat="61.42184" lon="5.14982">
        <ele>34.733582</ele>
        <time>2020-07-15T23:03:56.618Z</time>
      </trkpt>
      <trkpt lat="61.42246" lon="5.15186">
        <ele>31.820812</ele>
        <time>2020-07-15T23:04:12.688Z</time>
      </trkpt>
      <trkpt lat="61.4228" lon="5.15217">
        <ele>30.862652</ele>
        <time>2020-07-15T23:04:17.309Z</time>
      </trkpt>
      <trkpt lat="61.42421" lon="5.15229">
        <ele>24.737116</ele>
        <time>2020-07-15T23:04:34.405Z</time>
      </trkpt>
      <trkpt lat="61.42434" lon="5.15236">
        <ele>24.070312</ele>
        <time>2020-07-15T23:04:36.044Z</time>
      </trkpt>
      <trkpt lat="61.42444" lon="5.15247">
        <ele>23.55448</ele>
        <time>2020-07-15T23:04:37.342Z</time>
      </trkpt>
      <trkpt lat="61.42463" lon="5.15276">
        <ele>22.428671</ele>
        <time>2020-07-15T23:04:40.223Z</time>
      </trkpt>
      <trkpt lat="61.42559" lon="5.15476">
        <ele>17.251875</ele>
        <time>2020-07-15T23:04:57.175Z</time>
      </trkpt>
      <trkpt lat="61.42601" lon="5.15637">
        <ele>14.511435</ele>
        <time>2020-07-15T23:05:09.091Z</time>
      </trkpt>
      <trkpt lat="61.42612" lon="5.15726">
        <ele>13.809967</ele>
        <time>2020-07-15T23:05:15.183Z</time>
      </trkpt>
      <trkpt lat="61.42626" lon="5.16017">
        <ele>11.619056</ele>
        <time>2020-07-15T23:05:36.677Z</time>
      </trkpt>
      <trkpt lat="61.42646" lon="5.16227">
        <ele>10.101159</ele>
        <time>2020-07-15T23:05:52.915Z</time>
      </trkpt>
      <trkpt lat="61.42654" lon="5.16297">
        <ele>9.593914</ele>
        <time>2020-07-15T23:05:57.560Z</time>
      </trkpt>
      <trkpt lat="61.42657" lon="5.16333">
        <ele>9.334169</ele>
        <time>2020-07-15T23:05:59.900Z</time>
      </trkpt>
      <trkpt lat="61.42659" lon="5.16357">
        <ele>8.968234</ele>
        <time>2020-07-15T23:06:01.527Z</time>
      </trkpt>
      <trkpt lat="61.42662" lon="5.16394">
        <ele>8.403488</ele>
        <time>2020-07-15T23:06:03.801Z</time>
      </trkpt>
      <trkpt lat="61.42667" lon="5.16433">
        <ele>7.784224</ele>
        <time>2020-07-15T23:06:06.436Z</time>
      </trkpt>
      <trkpt lat="61.42678" lon="5.165">
        <ele>6.703118</ele>
        <time>2020-07-15T23:06:10.956Z</time>
      </trkpt>
      <trkpt lat="61.4268" lon="5.16512">
        <ele>6.495177</ele>
        <time>2020-07-15T23:06:11.738Z</time>
      </trkpt>
      <trkpt lat="61.42687" lon="5.16541">
        <ele>6.014326</ele>
        <time>2020-07-15T23:06:13.723Z</time>
      </trkpt>
      <trkpt lat="61.42694" lon="5.16567">
        <ele>5.549963</ele>
        <time>2020-07-15T23:06:15.709Z</time>
      </trkpt>
      <trkpt lat="61.42703" lon="5.16594">
        <ele>5.053799</ele>
        <time>2020-07-15T23:06:17.617Z</time>
      </trkpt>
      <trkpt lat="61.42716" lon="5.16628">
        <ele>4.396102</ele>
        <time>2020-07-15T23:06:20.239Z</time>
      </trkpt>
      <trkpt lat="61.42764" lon="5.16727">
        <ele>3.159491</ele>
        <time>2020-07-15T23:06:28.959Z</time>
      </trkpt>
      <trkpt lat="61.42775" lon="5.16742">
        <ele>3.022357</ele>
        <time>2020-07-15T23:06:30.630Z</time>
      </trkpt>
      <trkpt lat="61.42785" lon="5.16754">
        <ele>2.906537</ele>
        <time>2020-07-15T23:06:32.184Z</time>
      </trkpt>
      <trkpt lat="61.42792" lon="5.16762">
        <ele>2.822361</ele>
        <time>2020-07-15T23:06:33.361Z</time>
      </trkpt>
      <trkpt lat="61.42806" lon="5.16774">
        <ele>2.655097</ele>
        <time>2020-07-15T23:06:35.742Z</time>
      </trkpt>
      <trkpt lat="61.42817" lon="5.1678">
        <ele>2.54306</ele>
        <time>2020-07-15T23:06:37.438Z</time>
      </trkpt>
      <trkpt lat="61.42828" lon="5.16786">
        <ele>2.425545</ele>
        <time>2020-07-15T23:06:39.331Z</time>
      </trkpt>
      <trkpt lat="61.42832" lon="5.16786">
        <ele>2.377076</ele>
        <time>2020-07-15T23:06:40.094Z</time>
      </trkpt>
      <trkpt lat="61.42844" lon="5.16788">
        <ele>2.251978</ele>
        <time>2020-07-15T23:06:42.316Z</time>
      </trkpt>
      <trkpt lat="61.4286" lon="5.16786">
        <ele>2.082779</ele>
        <time>2020-07-15T23:06:45.360Z</time>
      </trkpt>
      <trkpt lat="61.42872" lon="5.16782">
        <ele>1.961594</ele>
        <time>2020-07-15T23:06:47.413Z</time>
      </trkpt>
      <trkpt lat="61.42879" lon="5.16778">
        <ele>1.881753</ele>
        <time>2020-07-15T23:06:48.951Z</time>
      </trkpt>
      <trkpt lat="61.42893" lon="5.16767">
        <ele>1.726189</ele>
        <time>2020-07-15T23:06:51.768Z</time>
      </trkpt>
      <trkpt lat="61.42971" lon="5.16688">
        <ele>6.08954</ele>
        <time>2020-07-15T23:07:16.328Z</time>
      </trkpt>
      <trkpt lat="61.43001" lon="5.16658">
        <ele>7.790596</ele>
        <time>2020-07-15T23:07:28.274Z</time>
      </trkpt>
      <trkpt lat="61.43049" lon="5.16611">
        <ele>10.489027</ele>
        <time>2020-07-15T23:07:51.383Z</time>
      </trkpt>
      <trkpt lat="61.4306" lon="5.166">
        <ele>11.3397</ele>
        <time>2020-07-15T23:07:56.151Z</time>
      </trkpt>
      <trkpt lat="61.43075" lon="5.16585">
        <ele>12.850171</ele>
        <time>2020-07-15T23:08:03.632Z</time>
      </trkpt>
      <trkpt lat="61.43113" lon="5.16523">
        <ele>17.319093</ele>
        <time>2020-07-15T23:08:27.745Z</time>
      </trkpt>
      <trkpt lat="61.43133" lon="5.16437">
        <ele>21.51288</ele>
        <time>2020-07-15T23:08:49.658Z</time>
      </trkpt>
      <trkpt lat="61.43143" lon="5.16415">
        <ele>22.867484</ele>
        <time>2020-07-15T23:08:56.333Z</time>
      </trkpt>
      <trkpt lat="61.43146" lon="5.16415">
        <ele>23.126056</ele>
        <time>2020-07-15T23:08:58.934Z</time>
      </trkpt>
      <trkpt lat="61.43149" lon="5.16417">
        <ele>23.422291</ele>
        <time>2020-07-15T23:09:00.706Z</time>
      </trkpt>
      <trkpt lat="61.43153" lon="5.1644">
        <ele>24.467481</ele>
        <time>2020-07-15T23:09:05.770Z</time>
      </trkpt>
      <trkpt lat="61.43147" lon="5.16493">
        <ele>26.870371</ele>
        <time>2020-07-15T23:09:19.884Z</time>
      </trkpt>
      <trkpt lat="61.43143" lon="5.16518">
        <ele>28.041445</ele>
        <time>2020-07-15T23:09:24.707Z</time>
      </trkpt>
      <trkpt lat="61.43132" lon="5.16574">
        <ele>30.763153</ele>
        <time>2020-07-15T23:09:37.278Z</time>
      </trkpt>
      <trkpt lat="61.43107" lon="5.16728">
        <ele>37.978222</ele>
        <time>2020-07-15T23:10:11.120Z</time>
      </trkpt>
      <trkpt lat="61.431" lon="5.17025">
        <ele>51.890096</ele>
        <time>2020-07-15T23:11:25.810Z</time>
      </trkpt>
      <trkpt lat="61.43098" lon="5.17048">
        <ele>53.018448</ele>
        <time>2020-07-15T23:11:33.378Z</time>
      </trkpt>
      <trkpt lat="61.43096" lon="5.17086">
        <ele>54.9288</ele>
        <time>2020-07-15T23:11:42.595Z</time>
      </trkpt>
      <trkpt lat="61.43082" lon="5.17187">
        <ele>60.040743</ele>
        <time>2020-07-15T23:12:08.286Z</time>
      </trkpt>
      <trkpt lat="61.43035" lon="5.17387">
        <ele>66.217928</ele>
        <time>2020-07-15T23:12:52.685Z</time>
      </trkpt>
      <trkpt lat="61.43029" lon="5.17464">
        <ele>67.897919</ele>
        <time>2020-07-15T23:13:01.493Z</time>
      </trkpt>
      <trkpt lat="61.43023" lon="5.1774">
        <ele>72.298739</ele>
        <time>2020-07-15T23:13:31.596Z</time>
      </trkpt>
      <trkpt lat="61.42953" lon="5.18156">
        <ele>78.710246</ele>
        <time>2020-07-15T23:14:28.781Z</time>
      </trkpt>
      <trkpt lat="61.42943" lon="5.18288">
        <ele>81.12332</ele>
        <time>2020-07-15T23:14:49.288Z</time>
      </trkpt>
      <trkpt lat="61.42926" lon="5.18357">
        <ele>82.965683</ele>
        <time>2020-07-15T23:15:02.730Z</time>
      </trkpt>
      <trkpt lat="61.42894" lon="5.18444">
        <ele>85.983378</ele>
        <time>2020-07-15T23:15:22.042Z</time>
      </trkpt>
      <trkpt lat="61.42883" lon="5.18497">
        <ele>87.547355</ele>
        <time>2020-07-15T23:15:32.252Z</time>
      </trkpt>
      <trkpt lat="61.42879" lon="5.18541">
        <ele>88.770789</ele>
        <time>2020-07-15T23:15:39.529Z</time>
      </trkpt>
      <trkpt lat="61.42876" lon="5.18566">
        <ele>89.470287</ele>
        <time>2020-07-15T23:15:44.537Z</time>
      </trkpt>
      <trkpt lat="61.42872" lon="5.18607">
        <ele>90.616235</ele>
        <time>2020-07-15T23:15:51.411Z</time>
      </trkpt>
      <trkpt lat="61.42863" lon="5.18742">
        <ele>94.981885</ele>
        <time>2020-07-15T23:16:15.377Z</time>
      </trkpt>
      <trkpt lat="61.42874" lon="5.18842">
        <ele>98.545644</ele>
        <time>2020-07-15T23:16:34.590Z</time>
      </trkpt>
      <trkpt lat="61.429" lon="5.18906">
        <ele>101.409261</ele>
        <time>2020-07-15T23:16:51.355Z</time>
      </trkpt>
      <trkpt lat="61.4295" lon="5.18993">
        <ele>106.698779</ele>
        <time>2020-07-15T23:17:20.255Z</time>
      </trkpt>
      <trkpt lat="61.42956" lon="5.19019">
        <ele>108.176187</ele>
        <time>2020-07-15T23:17:27.039Z</time>
      </trkpt>
      <trkpt lat="61.42978" lon="5.19239">
        <ele>119.569178</ele>
        <time>2020-07-15T23:18:22.406Z</time>
      </trkpt>
      <trkpt lat="61.42996" lon="5.19309">
        <ele>123.623671</ele>
        <time>2020-07-15T23:18:43.696Z</time>
      </trkpt>
      <trkpt lat="61.43043" lon="5.19421">
        <ele>131.761373</ele>
        <time>2020-07-15T23:19:27.229Z</time>
      </trkpt>
      <trkpt lat="61.43058" lon="5.19504">
        <ele>136.649707</ele>
        <time>2020-07-15T23:19:51.829Z</time>
      </trkpt>
      <trkpt lat="61.43062" lon="5.19565">
        <ele>140.009254</ele>
        <time>2020-07-15T23:20:07.864Z</time>
      </trkpt>
      <trkpt lat="61.43058" lon="5.19714">
        <ele>145.675152</ele>
        <time>2020-07-15T23:20:41.621Z</time>
      </trkpt>
      <trkpt lat="61.43073" lon="5.19897">
        <ele>148.663265</ele>
        <time>2020-07-15T23:21:16.044Z</time>
      </trkpt>
      <trkpt lat="61.43071" lon="5.19954">
        <ele>149.592249</ele>
        <time>2020-07-15T23:21:20.645Z</time>
      </trkpt>
      <trkpt lat="61.43059" lon="5.20004">
        <ele>150.487564</ele>
        <time>2020-07-15T23:21:23.995Z</time>
      </trkpt>
      <trkpt lat="61.43021" lon="5.20067">
        <ele>146.016788</ele>
        <time>2020-07-15T23:21:29.508Z</time>
      </trkpt>
      <trkpt lat="61.4301" lon="5.20142">
        <ele>142.010038</ele>
        <time>2020-07-15T23:21:33.509Z</time>
      </trkpt>
      <trkpt lat="61.43005" lon="5.20222">
        <ele>137.814006</ele>
        <time>2020-07-15T23:21:37.590Z</time>
      </trkpt>
      <trkpt lat="61.42991" lon="5.20481">
        <ele>126.601904</ele>
        <time>2020-07-15T23:21:51.340Z</time>
      </trkpt>
      <trkpt lat="61.4299" lon="5.20549">
        <ele>124.237537</ele>
        <time>2020-07-15T23:21:54.914Z</time>
      </trkpt>
      <trkpt lat="61.43003" lon="5.20629">
        <ele>121.336413</ele>
        <time>2020-07-15T23:21:59.658Z</time>
      </trkpt>
      <trkpt lat="61.43115" lon="5.21131">
        <ele>122.614889</ele>
        <time>2020-07-15T23:23:06.790Z</time>
      </trkpt>
      <trkpt lat="61.43145" lon="5.21222">
        <ele>123.442439</ele>
        <time>2020-07-15T23:23:20.862Z</time>
      </trkpt>
      <trkpt lat="61.43177" lon="5.21301">
        <ele>124.225066</ele>
        <time>2020-07-15T23:23:32.123Z</time>
      </trkpt>
      <trkpt lat="61.43231" lon="5.21387">
        <ele>124.224454</ele>
        <time>2020-07-15T23:23:44.376Z</time>
      </trkpt>
      <trkpt lat="61.43401" lon="5.21495">
        <ele>121.90839</ele>
        <time>2020-07-15T23:24:08.494Z</time>
      </trkpt>
      <trkpt lat="61.4346" lon="5.2153">
        <ele>122.580225</ele>
        <time>2020-07-15T23:24:18.757Z</time>
      </trkpt>
      <trkpt lat="61.43476" lon="5.21538">
        <ele>122.752075</ele>
        <time>2020-07-15T23:24:22.381Z</time>
      </trkpt>
      <trkpt lat="61.43485" lon="5.21544">
        <ele>122.863491</ele>
        <time>2020-07-15T23:24:24.592Z</time>
      </trkpt>
      <trkpt lat="61.43667" lon="5.21649">
        <ele>128.651354</ele>
        <time>2020-07-15T23:25:25.149Z</time>
      </trkpt>
      <trkpt lat="61.44117" lon="5.21918">
        <ele>145.852741</ele>
        <time>2020-07-15T23:27:38.097Z</time>
      </trkpt>
      <trkpt lat="61.44164" lon="5.21919">
        <ele>148.44289</ele>
        <time>2020-07-15T23:27:55.951Z</time>
      </trkpt>
      <trkpt lat="61.44275" lon="5.21859">
        <ele>153.442658</ele>
        <time>2020-07-15T23:28:42.050Z</time>
      </trkpt>
      <trkpt lat="61.44332" lon="5.21861">
        <ele>154.438187</ele>
        <time>2020-07-15T23:29:00.956Z</time>
      </trkpt>
      <trkpt lat="61.44427" lon="5.21914">
        <ele>154.95803</ele>
        <time>2020-07-15T23:29:16.584Z</time>
      </trkpt>
      <trkpt lat="61.44614" lon="5.22079">
        <ele>135.68252</ele>
        <time>2020-07-15T23:29:38.707Z</time>
      </trkpt>
      <trkpt lat="61.44646" lon="5.22097">
        <ele>131.658151</ele>
        <time>2020-07-15T23:29:42.178Z</time>
      </trkpt>
      <trkpt lat="61.44727" lon="5.22124">
        <ele>121.60777</ele>
        <time>2020-07-15T23:29:50.877Z</time>
      </trkpt>
      <trkpt lat="61.44873" lon="5.22124">
        <ele>103.963918</ele>
        <time>2020-07-15T23:30:06.327Z</time>
      </trkpt>
      <trkpt lat="61.44933" lon="5.22097">
        <ele>96.540809</ele>
        <time>2020-07-15T23:30:12.900Z</time>
      </trkpt>
      <trkpt lat="61.44951" lon="5.22071">
        <ele>94.663747</ele>
        <time>2020-07-15T23:30:15.286Z</time>
      </trkpt>
      <trkpt lat="61.44972" lon="5.22023">
        <ele>92.154678</ele>
        <time>2020-07-15T23:30:18.685Z</time>
      </trkpt>
      <trkpt lat="61.45016" lon="5.21856">
        <ele>84.834592</ele>
        <time>2020-07-15T23:30:28.950Z</time>
      </trkpt>
      <trkpt lat="61.45024" lon="5.21767">
        <ele>81.45191</ele>
        <time>2020-07-15T23:30:34.176Z</time>
      </trkpt>
      <trkpt lat="61.45035" lon="5.21713">
        <ele>79.677409</ele>
        <time>2020-07-15T23:30:37.787Z</time>
      </trkpt>
      <trkpt lat="61.4512" lon="5.21452">
        <ele>69.943597</ele>
        <time>2020-07-15T23:30:55.614Z</time>
      </trkpt>
      <trkpt lat="61.45137" lon="5.21423">
        <ele>67.448643</ele>
        <time>2020-07-15T23:30:58.054Z</time>
      </trkpt>
      <trkpt lat="61.45141" lon="5.21423">
        <ele>67.036095</ele>
        <time>2020-07-15T23:30:58.450Z</time>
      </trkpt>
      <trkpt lat="61.45145" lon="5.21425">
        <ele>66.6063</ele>
        <time>2020-07-15T23:30:58.853Z</time>
      </trkpt>
      <trkpt lat="61.4515" lon="5.2145">
        <ele>65.173307</ele>
        <time>2020-07-15T23:31:00.376Z</time>
      </trkpt>
      <trkpt lat="61.45143" lon="5.21545">
        <ele>60.080873</ele>
        <time>2020-07-15T23:31:05.237Z</time>
      </trkpt>
      <trkpt lat="61.45145" lon="5.21593">
        <ele>57.510196</ele>
        <time>2020-07-15T23:31:07.720Z</time>
      </trkpt>
      <trkpt lat="61.45149" lon="5.2162">
        <ele>56.014291</ele>
        <time>2020-07-15T23:31:09.130Z</time>
      </trkpt>
      <trkpt lat="61.45154" lon="5.21646">
        <ele>54.540977</ele>
        <time>2020-07-15T23:31:10.494Z</time>
      </trkpt>
      <trkpt lat="61.45158" lon="5.21665">
        <ele>53.40468</ele>
        <time>2020-07-15T23:31:11.744Z</time>
      </trkpt>
      <trkpt lat="61.45163" lon="5.21689">
        <ele>52.049039</ele>
        <time>2020-07-15T23:31:13.017Z</time>
      </trkpt>
      <trkpt lat="61.45169" lon="5.21719">
        <ele>50.356608</ele>
        <time>2020-07-15T23:31:14.628Z</time>
      </trkpt>
      <trkpt lat="61.45194" lon="5.21849">
        <ele>45.861761</ele>
        <time>2020-07-15T23:31:22.008Z</time>
      </trkpt>
      <trkpt lat="61.45214" lon="5.21914">
        <ele>43.424545</ele>
        <time>2020-07-15T23:31:26.099Z</time>
      </trkpt>
      <trkpt lat="61.45234" lon="5.2195">
        <ele>41.674036</ele>
        <time>2020-07-15T23:31:29.379Z</time>
      </trkpt>
      <trkpt lat="61.45284" lon="5.22011">
        <ele>38.436151</ele>
        <time>2020-07-15T23:31:38.063Z</time>
      </trkpt>
      <trkpt lat="61.45314" lon="5.22047">
        <ele>38.514391</ele>
        <time>2020-07-15T23:31:43.985Z</time>
      </trkpt>
      <trkpt lat="61.45373" lon="5.22115">
        <ele>38.665002</ele>
        <time>2020-07-15T23:31:56.771Z</time>
      </trkpt>
      <trkpt lat="61.45404" lon="5.22169">
        <ele>38.754643</ele>
        <time>2020-07-15T23:32:05.141Z</time>
      </trkpt>
      <trkpt lat="61.45416" lon="5.22239">
        <ele>38.909142</ele>
        <time>2020-07-15T23:32:12.906Z</time>
      </trkpt>
      <trkpt lat="61.45411" lon="5.2236">
        <ele>39.667052</ele>
        <time>2020-07-15T23:32:26.134Z</time>
      </trkpt>
      <trkpt lat="61.45385" lon="5.22747">
        <ele>41.126979</ele>
        <time>2020-07-15T23:33:07.122Z</time>
      </trkpt>
      <trkpt lat="61.45382" lon="5.22902">
        <ele>41.094658</ele>
        <time>2020-07-15T23:33:19.407Z</time>
      </trkpt>
      <trkpt lat="61.45385" lon="5.22979">
        <ele>41.015311</ele>
        <time>2020-07-15T23:33:24.866Z</time>
      </trkpt>
      <trkpt lat="61.45388" lon="5.2309">
        <ele>39.970914</ele>
        <time>2020-07-15T23:33:32.415Z</time>
      </trkpt>
      <trkpt lat="61.4539" lon="5.23135">
        <ele>39.547321</ele>
        <time>2020-07-15T23:33:35.404Z</time>
      </trkpt>
      <trkpt lat="61.45391" lon="5.23173">
        <ele>39.190342</ele>
        <time>2020-07-15T23:33:37.922Z</time>
      </trkpt>
      <trkpt lat="61.45394" lon="5.23228">
        <ele>38.669792</ele>
        <time>2020-07-15T23:33:41.535Z</time>
      </trkpt>
      <trkpt lat="61.4541" lon="5.23538">
        <ele>36.235835</ele>
        <time>2020-07-15T23:34:02.751Z</time>
      </trkpt>
      <trkpt lat="61.4544" lon="5.23685">
        <ele>35.148076</ele>
        <time>2020-07-15T23:34:14.464Z</time>
      </trkpt>
      <trkpt lat="61.45446" lon="5.23705">
        <ele>34.989252</ele>
        <time>2020-07-15T23:34:16.263Z</time>
      </trkpt>
      <trkpt lat="61.45456" lon="5.23745">
        <ele>34.91087</ele>
        <time>2020-07-15T23:34:19.689Z</time>
      </trkpt>
      <trkpt lat="61.4549" lon="5.2387">
        <ele>34.688809</ele>
        <time>2020-07-15T23:34:31.058Z</time>
      </trkpt>
      <trkpt lat="61.45515" lon="5.23957">
        <ele>34.534076</ele>
        <time>2020-07-15T23:34:39.271Z</time>
      </trkpt>
      <trkpt lat="61.45521" lon="5.23977">
        <ele>34.496933</ele>
        <time>2020-07-15T23:34:41.452Z</time>
      </trkpt>
      <trkpt lat="61.45597" lon="5.24263">
        <ele>35.296326</ele>
        <time>2020-07-15T23:35:10.912Z</time>
      </trkpt>
      <trkpt lat="61.45631" lon="5.24351">
        <ele>35.682007</ele>
        <time>2020-07-15T23:35:23.419Z</time>
      </trkpt>
      <trkpt lat="61.45671" lon="5.2442">
        <ele>36.4167</ele>
        <time>2020-07-15T23:35:35.312Z</time>
      </trkpt>
      <trkpt lat="61.4568" lon="5.24432">
        <ele>36.563683</ele>
        <time>2020-07-15T23:35:38.147Z</time>
      </trkpt>
      <trkpt lat="61.45717" lon="5.24484">
        <ele>37.191855</ele>
        <time>2020-07-15T23:35:48.459Z</time>
      </trkpt>
      <trkpt lat="61.4573" lon="5.24499">
        <ele>37.400501</ele>
        <time>2020-07-15T23:35:51.582Z</time>
      </trkpt>
      <trkpt lat="61.45741" lon="5.24516">
        <ele>37.592283</ele>
        <time>2020-07-15T23:35:55.150Z</time>
      </trkpt>
      <trkpt lat="61.45757" lon="5.24535">
        <ele>37.851653</ele>
        <time>2020-07-15T23:35:59.120Z</time>
      </trkpt>
      <trkpt lat="61.4611" lon="5.25">
        <ele>39.893657</ele>
        <time>2020-07-15T23:37:20.237Z</time>
      </trkpt>
      <trkpt lat="61.46123" lon="5.25016">
        <ele>39.825951</ele>
        <time>2020-07-15T23:37:22.696Z</time>
      </trkpt>
      <trkpt lat="61.4614" lon="5.25037">
        <ele>39.735999</ele>
        <time>2020-07-15T23:37:25.932Z</time>
      </trkpt>
      <trkpt lat="61.46426" lon="5.25414">
        <ele>37.924875</ele>
        <time>2020-07-15T23:38:19.678Z</time>
      </trkpt>
      <trkpt lat="61.4647" lon="5.25451">
        <ele>37.938455</ele>
        <time>2020-07-15T23:38:28.848Z</time>
      </trkpt>
      <trkpt lat="61.46532" lon="5.25488">
        <ele>37.956627</ele>
        <time>2020-07-15T23:38:41.183Z</time>
      </trkpt>
      <trkpt lat="61.4658" lon="5.25517">
        <ele>37.336656</ele>
        <time>2020-07-15T23:38:50.605Z</time>
      </trkpt>
      <trkpt lat="61.46615" lon="5.25539">
        <ele>36.464686</ele>
        <time>2020-07-15T23:38:57.071Z</time>
      </trkpt>
      <trkpt lat="61.46692" lon="5.25584">
        <ele>34.576964</ele>
        <time>2020-07-15T23:39:07.813Z</time>
      </trkpt>
      <trkpt lat="61.46755" lon="5.25623">
        <ele>32.344171</ele>
        <time>2020-07-15T23:39:15.656Z</time>
      </trkpt>
      <trkpt lat="61.46796" lon="5.25648">
        <ele>30.342124</ele>
        <time>2020-07-15T23:39:20.647Z</time>
      </trkpt>
      <trkpt lat="61.46818" lon="5.25665">
        <ele>29.216974</ele>
        <time>2020-07-15T23:39:23.513Z</time>
      </trkpt>
      <trkpt lat="61.46835" lon="5.2568">
        <ele>28.37359</ele>
        <time>2020-07-15T23:39:25.577Z</time>
      </trkpt>
      <trkpt lat="61.4684" lon="5.25687">
        <ele>28.089104</ele>
        <time>2020-07-15T23:39:26.329Z</time>
      </trkpt>
      <trkpt lat="61.46849" lon="5.257">
        <ele>27.570228</ele>
        <time>2020-07-15T23:39:27.652Z</time>
      </trkpt>
      <trkpt lat="61.46879" lon="5.25747">
        <ele>25.807473</ele>
        <time>2020-07-15T23:39:32.319Z</time>
      </trkpt>
      <trkpt lat="61.46902" lon="5.25797">
        <ele>25.705391</ele>
        <time>2020-07-15T23:39:36.902Z</time>
      </trkpt>
      <trkpt lat="61.4694" lon="5.25919">
        <ele>27.121142</ele>
        <time>2020-07-15T23:39:50.166Z</time>
      </trkpt>
      <trkpt lat="61.46948" lon="5.25948">
        <ele>27.451543</ele>
        <time>2020-07-15T23:39:54.811Z</time>
      </trkpt>
      <trkpt lat="61.46975" lon="5.26052">
        <ele>28.610573</ele>
        <time>2020-07-15T23:40:14.215Z</time>
      </trkpt>
      <trkpt lat="61.47022" lon="5.26241">
        <ele>34.020498</ele>
        <time>2020-07-15T23:40:53.036Z</time>
      </trkpt>
      <trkpt lat="61.47052" lon="5.26517">
        <ele>41.843346</ele>
        <time>2020-07-15T23:41:42.292Z</time>
      </trkpt>
      <trkpt lat="61.47065" lon="5.26649">
        <ele>45.395322</ele>
        <time>2020-07-15T23:42:04.695Z</time>
      </trkpt>
      <trkpt lat="61.47076" lon="5.26766">
        <ele>48.511697</ele>
        <time>2020-07-15T23:42:24.678Z</time>
      </trkpt>
      <trkpt lat="61.47079" lon="5.26916">
        <ele>52.589539</ele>
        <time>2020-07-15T23:42:50.197Z</time>
      </trkpt>
      <trkpt lat="61.47045" lon="5.27312">
        <ele>63.03199</ele>
        <time>2020-07-15T23:44:00.986Z</time>
      </trkpt>
      <trkpt lat="61.47041" lon="5.27374">
        <ele>64.461747</ele>
        <time>2020-07-15T23:44:11.342Z</time>
      </trkpt>
      <trkpt lat="61.47035" lon="5.27414">
        <ele>65.407855</ele>
        <time>2020-07-15T23:44:17.793Z</time>
      </trkpt>
      <trkpt lat="61.47014" lon="5.27678">
        <ele>69.036611</ele>
        <time>2020-07-15T23:44:55.119Z</time>
      </trkpt>
      <trkpt lat="61.46915" lon="5.28652">
        <ele>72.010542</ele>
        <time>2020-07-15T23:46:24.499Z</time>
      </trkpt>
      <trkpt lat="61.46914" lon="5.28679">
        <ele>72.248503</ele>
        <time>2020-07-15T23:46:27.205Z</time>
      </trkpt>
      <trkpt lat="61.46914" lon="5.28679">
        <ele>72.248503</ele>
        <time>2020-07-15T23:46:27.234Z</time>
      </trkpt>
      <trkpt lat="61.46911" lon="5.28719">
        <ele>72.603891</ele>
        <time>2020-07-15T23:46:30.193Z</time>
      </trkpt>
      <trkpt lat="61.46904" lon="5.28891">
        <ele>74.11403</ele>
        <time>2020-07-15T23:46:45.791Z</time>
      </trkpt>
      <trkpt lat="61.46895" lon="5.28963">
        <ele>74.761548</ele>
        <time>2020-07-15T23:46:54.999Z</time>
      </trkpt>
      <trkpt lat="61.46871" lon="5.29052">
        <ele>77.217833</ele>
        <time>2020-07-15T23:47:11.666Z</time>
      </trkpt>
      <trkpt lat="61.46839" lon="5.29136">
        <ele>82.289186</ele>
        <time>2020-07-15T23:47:35.221Z</time>
      </trkpt>
      <trkpt lat="61.46789" lon="5.29342">
        <ele>93.260947</ele>
        <time>2020-07-15T23:48:38.359Z</time>
      </trkpt>
      <trkpt lat="61.46711" lon="5.29536">
        <ele>105.224882</ele>
        <time>2020-07-15T23:49:44.058Z</time>
      </trkpt>
      <trkpt lat="61.46686" lon="5.29582">
        <ele>108.549016</ele>
        <time>2020-07-15T23:49:58.575Z</time>
      </trkpt>
      <trkpt lat="61.46661" lon="5.29641">
        <ele>111.583063</ele>
        <time>2020-07-15T23:50:13.325Z</time>
      </trkpt>
      <trkpt lat="61.46615" lon="5.2982">
        <ele>116.351114</ele>
        <time>2020-07-15T23:50:45.347Z</time>
      </trkpt>
      <trkpt lat="61.46527" lon="5.30049">
        <ele>121.821344</ele>
        <time>2020-07-15T23:51:28.441Z</time>
      </trkpt>
      <trkpt lat="61.46446" lon="5.30343">
        <ele>123.178994</ele>
        <time>2020-07-15T23:52:09.733Z</time>
      </trkpt>
      <trkpt lat="61.46416" lon="5.30455">
        <ele>121.078234</ele>
        <time>2020-07-15T23:52:17.772Z</time>
      </trkpt>
      <trkpt lat="61.46378" lon="5.3059">
        <ele>117.652843</ele>
        <time>2020-07-15T23:52:26.350Z</time>
      </trkpt>
      <trkpt lat="61.4633" lon="5.30834">
        <ele>101.70048</ele>
        <time>2020-07-15T23:52:39.720Z</time>
      </trkpt>
      <trkpt lat="61.46296" lon="5.30956">
        <ele>92.818999</ele>
        <time>2020-07-15T23:52:46.775Z</time>
      </trkpt>
      <trkpt lat="61.46283" lon="5.31022">
        <ele>88.015442</ele>
        <time>2020-07-15T23:52:50.328Z</time>
      </trkpt>
      <trkpt lat="61.46225" lon="5.31399">
        <ele>65.073236</ele>
        <time>2020-07-15T23:53:10.226Z</time>
      </trkpt>
      <trkpt lat="61.46209" lon="5.31446">
        <ele>62.659156</ele>
        <time>2020-07-15T23:53:13.323Z</time>
      </trkpt>
      <trkpt lat="61.46162" lon="5.31545">
        <ele>56.915132</ele>
        <time>2020-07-15T23:53:21.127Z</time>
      </trkpt>
      <trkpt lat="61.46149" lon="5.31579">
        <ele>55.338566</ele>
        <time>2020-07-15T23:53:23.755Z</time>
      </trkpt>
      <trkpt lat="61.46146" lon="5.31588">
        <ele>55.56349</ele>
        <time>2020-07-15T23:53:24.480Z</time>
      </trkpt>
      <trkpt lat="61.46143" lon="5.31598">
        <ele>55.795592</ele>
        <time>2020-07-15T23:53:25.227Z</time>
      </trkpt>
      <trkpt lat="61.46137" lon="5.31616">
        <ele>56.236734</ele>
        <time>2020-07-15T23:53:26.733Z</time>
      </trkpt>
      <trkpt lat="61.46127" lon="5.31645">
        <ele>56.931003</ele>
        <time>2020-07-15T23:53:29.216Z</time>
      </trkpt>
      <trkpt lat="61.46119" lon="5.31677">
        <ele>57.652597</ele>
        <time>2020-07-15T23:53:32.029Z</time>
      </trkpt>
      <trkpt lat="61.46103" lon="5.31734">
        <ele>58.942856</ele>
        <time>2020-07-15T23:53:37.711Z</time>
      </trkpt>
      <trkpt lat="61.46096" lon="5.31761">
        <ele>59.54427</ele>
        <time>2020-07-15T23:53:41.357Z</time>
      </trkpt>
      <trkpt lat="61.46032" lon="5.31995">
        <ele>71.557794</ele>
        <time>2020-07-15T23:54:50.312Z</time>
      </trkpt>
      <trkpt lat="61.46026" lon="5.32025">
        <ele>74.22082</ele>
        <time>2020-07-15T23:55:02.368Z</time>
      </trkpt>
      <trkpt lat="61.46022" lon="5.32043">
        <ele>75.784621</ele>
        <time>2020-07-15T23:55:09.501Z</time>
      </trkpt>
      <trkpt lat="61.46018" lon="5.32079">
        <ele>78.801734</ele>
        <time>2020-07-15T23:55:22.648Z</time>
      </trkpt>
      <trkpt lat="61.46014" lon="5.3211">
        <ele>81.379931</ele>
        <time>2020-07-15T23:55:34.935Z</time>
      </trkpt>
      <trkpt lat="61.46009" lon="5.32167">
        <ele>86.037172</ele>
        <time>2020-07-15T23:55:58.399Z</time>
      </trkpt>
      <trkpt lat="61.46009" lon="5.32257">
        <ele>93.172918</ele>
        <time>2020-07-15T23:56:35.177Z</time>
      </trkpt>
      <trkpt lat="61.46017" lon="5.32354">
        <ele>98.337191</ele>
        <time>2020-07-15T23:57:15.118Z</time>
      </trkpt>
      <trkpt lat="61.46028" lon="5.32438">
        <ele>102.92275</ele>
        <time>2020-07-15T23:57:46.922Z</time>
      </trkpt>
      <trkpt lat="61.46043" lon="5.3252">
        <ele>107.512274</ele>
        <time>2020-07-15T23:58:09.670Z</time>
      </trkpt>
      <trkpt lat="61.46131" lon="5.32883">
        <ele>106.147041</ele>
        <time>2020-07-15T23:58:35.426Z</time>
      </trkpt>
      <trkpt lat="61.46145" lon="5.32977">
        <ele>104.306211</ele>
        <time>2020-07-15T23:58:40.913Z</time>
      </trkpt>
      <trkpt lat="61.46148" lon="5.32999">
        <ele>104.027802</ele>
        <time>2020-07-15T23:58:42.076Z</time>
      </trkpt>
      <trkpt lat="61.46158" lon="5.33099">
        <ele>102.762364</ele>
        <time>2020-07-15T23:58:47.912Z</time>
      </trkpt>
      <trkpt lat="61.4616" lon="5.33187">
        <ele>101.674068</ele>
        <time>2020-07-15T23:58:53.129Z</time>
      </trkpt>
      <trkpt lat="61.4616" lon="5.33397">
        <ele>102.088665</ele>
        <time>2020-07-15T23:59:19.127Z</time>
      </trkpt>
      <trkpt lat="61.46151" lon="5.33508">
        <ele>105.191191</ele>
        <time>2020-07-15T23:59:43.537Z</time>
      </trkpt>
      <trkpt lat="61.46089" lon="5.33826">
        <ele>109.925605</ele>
        <time>2020-07-16T00:00:44.887Z</time>
      </trkpt>
      <trkpt lat="61.46029" lon="5.34192">
        <ele>99.617916</ele>
        <time>2020-07-16T00:01:07.116Z</time>
      </trkpt>
      <trkpt lat="61.4602" lon="5.34288">
        <ele>93.918105</ele>
        <time>2020-07-16T00:01:11.973Z</time>
      </trkpt>
      <trkpt lat="61.46016" lon="5.34611">
        <ele>71.297634</ele>
        <time>2020-07-16T00:01:27.766Z</time>
      </trkpt>
      <trkpt lat="61.45993" lon="5.34812">
        <ele>58.414374</ele>
        <time>2020-07-16T00:01:38.184Z</time>
      </trkpt>
      <trkpt lat="61.4599" lon="5.34882">
        <ele>57.954005</ele>
        <time>2020-07-16T00:01:42.019Z</time>
      </trkpt>
      <trkpt lat="61.46002" lon="5.35202">
        <ele>57.109227</ele>
        <time>2020-07-16T00:02:21.948Z</time>
      </trkpt>
      <trkpt lat="61.46011" lon="5.3528">
        <ele>58.414543</ele>
        <time>2020-07-16T00:02:37.476Z</time>
      </trkpt>
      <trkpt lat="61.46027" lon="5.35356">
        <ele>59.772025</ele>
        <time>2020-07-16T00:02:51.428Z</time>
      </trkpt>
      <trkpt lat="61.46035" lon="5.35393">
        <ele>60.431552</ele>
        <time>2020-07-16T00:02:59.086Z</time>
      </trkpt>
      <trkpt lat="61.46038" lon="5.3541">
        <ele>60.737311</ele>
        <time>2020-07-16T00:03:00.372Z</time>
      </trkpt>
      <trkpt lat="61.46049" lon="5.35503">
        <ele>62.303357</ele>
        <time>2020-07-16T00:03:09.982Z</time>
      </trkpt>
      <trkpt lat="61.46052" lon="5.35621">
        <ele>60.797249</ele>
        <time>2020-07-16T00:03:19.755Z</time>
      </trkpt>
      <trkpt lat="61.46053" lon="5.35666">
        <ele>60.192091</ele>
        <time>2020-07-16T00:03:22.498Z</time>
      </trkpt>
      <trkpt lat="61.46054" lon="5.35801">
        <ele>58.373973</ele>
        <time>2020-07-16T00:03:30.329Z</time>
      </trkpt>
      <trkpt lat="61.46055" lon="5.35831">
        <ele>57.967732</ele>
        <time>2020-07-16T00:03:32.023Z</time>
      </trkpt>
      <trkpt lat="61.4606" lon="5.36068">
        <ele>56.294006</ele>
        <time>2020-07-16T00:03:46.659Z</time>
      </trkpt>
      <trkpt lat="61.46061" lon="5.36158">
        <ele>55.816228</ele>
        <time>2020-07-16T00:03:54.329Z</time>
      </trkpt>
      <trkpt lat="61.46062" lon="5.36207">
        <ele>55.555899</ele>
        <time>2020-07-16T00:04:00.030Z</time>
      </trkpt>
      <trkpt lat="61.46063" lon="5.36376">
        <ele>56.566383</ele>
        <time>2020-07-16T00:04:21.241Z</time>
      </trkpt>
      <trkpt lat="61.46057" lon="5.36504">
        <ele>57.965528</ele>
        <time>2020-07-16T00:04:38.496Z</time>
      </trkpt>
      <trkpt lat="61.46049" lon="5.3658">
        <ele>58.815454</ele>
        <time>2020-07-16T00:04:47.744Z</time>
      </trkpt>
      <trkpt lat="61.46044" lon="5.3663">
        <ele>59.375391</ele>
        <time>2020-07-16T00:04:53.418Z</time>
      </trkpt>
      <trkpt lat="61.4603" lon="5.36811">
        <ele>58.892352</ele>
        <time>2020-07-16T00:05:10.469Z</time>
      </trkpt>
      <trkpt lat="61.46025" lon="5.37037">
        <ele>58.044168</ele>
        <time>2020-07-16T00:05:25.958Z</time>
      </trkpt>
      <trkpt lat="61.46037" lon="5.37358">
        <ele>54.792302</ele>
        <time>2020-07-16T00:05:46.799Z</time>
      </trkpt>
      <trkpt lat="61.46039" lon="5.37414">
        <ele>54.83459</ele>
        <time>2020-07-16T00:05:50.841Z</time>
      </trkpt>
      <trkpt lat="61.46039" lon="5.37454">
        <ele>55.161328</ele>
        <time>2020-07-16T00:05:54.586Z</time>
      </trkpt>
      <trkpt lat="61.46037" lon="5.37548">
        <ele>55.925624</ele>
        <time>2020-07-16T00:06:03.609Z</time>
      </trkpt>
      <trkpt lat="61.4603" lon="5.37632">
        <ele>56.616286</ele>
        <time>2020-07-16T00:06:13.386Z</time>
      </trkpt>
      <trkpt lat="61.46022" lon="5.37692">
        <ele>57.116507</ele>
        <time>2020-07-16T00:06:21.499Z</time>
      </trkpt>
      <trkpt lat="61.46015" lon="5.37748">
        <ele>57.582212</ele>
        <time>2020-07-16T00:06:29.972Z</time>
      </trkpt>
      <trkpt lat="61.45977" lon="5.38038">
        <ele>66.43685</ele>
        <time>2020-07-16T00:07:22.099Z</time>
      </trkpt>
      <trkpt lat="61.4596" lon="5.38231">
        <ele>73.015963</ele>
        <time>2020-07-16T00:08:04.891Z</time>
      </trkpt>
      <trkpt lat="61.45955" lon="5.3827">
        <ele>74.462187</ele>
        <time>2020-07-16T00:08:14.237Z</time>
      </trkpt>
      <trkpt lat="61.4595" lon="5.383">
        <ele>75.620264</ele>
        <time>2020-07-16T00:08:20.766Z</time>
      </trkpt>
      <trkpt lat="61.45934" lon="5.38379">
        <ele>78.708183</ele>
        <time>2020-07-16T00:08:38.800Z</time>
      </trkpt>
      <trkpt lat="61.45925" lon="5.38418">
        <ele>80.24291</ele>
        <time>2020-07-16T00:08:48.652Z</time>
      </trkpt>
      <trkpt lat="61.45729" lon="5.39195">
        <ele>99.66705</ele>
        <time>2020-07-16T00:10:58.969Z</time>
      </trkpt>
      <trkpt lat="61.45697" lon="5.39283">
        <ele>102.901265</ele>
        <time>2020-07-16T00:11:15.382Z</time>
      </trkpt>
      <trkpt lat="61.4558" lon="5.39559">
        <ele>116.76305</ele>
        <time>2020-07-16T00:12:31.800Z</time>
      </trkpt>
      <trkpt lat="61.45568" lon="5.39587">
        <ele>118.547401</ele>
        <time>2020-07-16T00:12:41.567Z</time>
      </trkpt>
      <trkpt lat="61.45563" lon="5.396">
        <ele>119.308385</ele>
        <time>2020-07-16T00:12:44.739Z</time>
      </trkpt>
      <trkpt lat="61.45556" lon="5.39617">
        <ele>120.386175</ele>
        <time>2020-07-16T00:12:51.265Z</time>
      </trkpt>
      <trkpt lat="61.45518" lon="5.39729">
        <ele>126.896211</ele>
        <time>2020-07-16T00:13:26.917Z</time>
      </trkpt>
      <trkpt lat="61.45476" lon="5.39871">
        <ele>135.146109</ele>
        <time>2020-07-16T00:14:13.165Z</time>
      </trkpt>
      <trkpt lat="61.45386" lon="5.40218">
        <ele>150.245038</ele>
        <time>2020-07-16T00:15:39.811Z</time>
      </trkpt>
      <trkpt lat="61.45351" lon="5.40392">
        <ele>155.021418</ele>
        <time>2020-07-16T00:16:05.316Z</time>
      </trkpt>
      <trkpt lat="61.45331" lon="5.4056">
        <ele>153.192581</ele>
        <time>2020-07-16T00:16:18.036Z</time>
      </trkpt>
      <trkpt lat="61.45286" lon="5.41266">
        <ele>142.239974</ele>
        <time>2020-07-16T00:17:00.266Z</time>
      </trkpt>
      <trkpt lat="61.45283" lon="5.41309">
        <ele>141.894889</ele>
        <time>2020-07-16T00:17:03.352Z</time>
      </trkpt>
      <trkpt lat="61.45282" lon="5.41325">
        <ele>141.773951</ele>
        <time>2020-07-16T00:17:04.587Z</time>
      </trkpt>
      <trkpt lat="61.45272" lon="5.41416">
        <ele>141.043466</ele>
        <time>2020-07-16T00:17:12.655Z</time>
      </trkpt>
      <trkpt lat="61.45227" lon="5.41713">
        <ele>139.369311</ele>
        <time>2020-07-16T00:17:42.895Z</time>
      </trkpt>
      <trkpt lat="61.45221" lon="5.4176">
        <ele>139.150902</ele>
        <time>2020-07-16T00:17:47.146Z</time>
      </trkpt>
      <trkpt lat="61.45216" lon="5.41798">
        <ele>138.976588</ele>
        <time>2020-07-16T00:17:49.465Z</time>
      </trkpt>
      <trkpt lat="61.45216" lon="5.41937">
        <ele>136.159358</ele>
        <time>2020-07-16T00:17:57.824Z</time>
      </trkpt>
      <trkpt lat="61.45229" lon="5.42146">
        <ele>129.342972</ele>
        <time>2020-07-16T00:18:09.247Z</time>
      </trkpt>
      <trkpt lat="61.45172" lon="5.42674">
        <ele>109.985537</ele>
        <time>2020-07-16T00:18:38.341Z</time>
      </trkpt>
      <trkpt lat="61.45157" lon="5.4278">
        <ele>106.775679</ele>
        <time>2020-07-16T00:18:44.576Z</time>
      </trkpt>
      <trkpt lat="61.45112" lon="5.42964">
        <ele>100.979574</ele>
        <time>2020-07-16T00:18:56.479Z</time>
      </trkpt>
      <trkpt lat="61.45051" lon="5.4331">
        <ele>93.782315</ele>
        <time>2020-07-16T00:19:18.565Z</time>
      </trkpt>
      <trkpt lat="61.45003" lon="5.4375">
        <ele>88.410743</ele>
        <time>2020-07-16T00:19:47.854Z</time>
      </trkpt>
      <trkpt lat="61.44981" lon="5.43897">
        <ele>87.398723</ele>
        <time>2020-07-16T00:19:59.317Z</time>
      </trkpt>
      <trkpt lat="61.44969" lon="5.43952">
        <ele>87.000568</ele>
        <time>2020-07-16T00:20:03.948Z</time>
      </trkpt>
      <trkpt lat="61.44958" lon="5.44002">
        <ele>86.635848</ele>
        <time>2020-07-16T00:20:08.131Z</time>
      </trkpt>
      <trkpt lat="61.44925" lon="5.44152">
        <ele>85.031486</ele>
        <time>2020-07-16T00:20:20.100Z</time>
      </trkpt>
      <trkpt lat="61.44903" lon="5.44312">
        <ele>83.333729</ele>
        <time>2020-07-16T00:20:30.875Z</time>
      </trkpt>
      <trkpt lat="61.44855" lon="5.44594">
        <ele>79.116163</ele>
        <time>2020-07-16T00:20:49.662Z</time>
      </trkpt>
      <trkpt lat="61.448" lon="5.45036">
        <ele>70.348948</ele>
        <time>2020-07-16T00:21:18.130Z</time>
      </trkpt>
      <trkpt lat="61.44742" lon="5.45393">
        <ele>57.323848</ele>
        <time>2020-07-16T00:21:38.326Z</time>
      </trkpt>
      <trkpt lat="61.4474" lon="5.45416">
        <ele>56.438004</ele>
        <time>2020-07-16T00:21:39.521Z</time>
      </trkpt>
      <trkpt lat="61.44735" lon="5.4544">
        <ele>55.473967</ele>
        <time>2020-07-16T00:21:40.996Z</time>
      </trkpt>
      <trkpt lat="61.44705" lon="5.45579">
        <ele>52.293776</ele>
        <time>2020-07-16T00:21:49.553Z</time>
      </trkpt>
      <trkpt lat="61.4468" lon="5.45734">
        <ele>49.132307</ele>
        <time>2020-07-16T00:21:59.403Z</time>
      </trkpt>
      <trkpt lat="61.44653" lon="5.45863">
        <ele>47.633572</ele>
        <time>2020-07-16T00:22:12.094Z</time>
      </trkpt>
      <trkpt lat="61.44583" lon="5.46078">
        <ele>47.304243</ele>
        <time>2020-07-16T00:22:33.973Z</time>
      </trkpt>
      <trkpt lat="61.44528" lon="5.46203">
        <ele>46.555651</ele>
        <time>2020-07-16T00:22:47.480Z</time>
      </trkpt>
      <trkpt lat="61.44519" lon="5.46234">
        <ele>46.348989</ele>
        <time>2020-07-16T00:22:49.975Z</time>
      </trkpt>
      <trkpt lat="61.44505" lon="5.46285">
        <ele>46.013181</ele>
        <time>2020-07-16T00:22:54.182Z</time>
      </trkpt>
      <trkpt lat="61.44492" lon="5.4633">
        <ele>45.718521</ele>
        <time>2020-07-16T00:22:57.829Z</time>
      </trkpt>
      <trkpt lat="61.44476" lon="5.46386">
        <ele>45.353161</ele>
        <time>2020-07-16T00:23:02.193Z</time>
      </trkpt>
      <trkpt lat="61.4446" lon="5.46441">
        <ele>44.894297</ele>
        <time>2020-07-16T00:23:06.867Z</time>
      </trkpt>
      <trkpt lat="61.44449" lon="5.46475">
        <ele>44.520491</ele>
        <time>2020-07-16T00:23:09.807Z</time>
      </trkpt>
      <trkpt lat="61.4444" lon="5.46497">
        <ele>44.257857</ele>
        <time>2020-07-16T00:23:11.815Z</time>
      </trkpt>
      <trkpt lat="61.44402" lon="5.46602">
        <ele>43.044521</ele>
        <time>2020-07-16T00:23:20.723Z</time>
      </trkpt>
      <trkpt lat="61.44388" lon="5.46637">
        <ele>42.630449</ele>
        <time>2020-07-16T00:23:23.619Z</time>
      </trkpt>
      <trkpt lat="61.44381" lon="5.46657">
        <ele>42.401633</ele>
        <time>2020-07-16T00:23:25.266Z</time>
      </trkpt>
      <trkpt lat="61.44374" lon="5.46682">
        <ele>42.128045</ele>
        <time>2020-07-16T00:23:27.250Z</time>
      </trkpt>
      <trkpt lat="61.44364" lon="5.46728">
        <ele>41.666218</ele>
        <time>2020-07-16T00:23:30.524Z</time>
      </trkpt>
      <trkpt lat="61.44359" lon="5.46764">
        <ele>41.392235</ele>
        <time>2020-07-16T00:23:33.099Z</time>
      </trkpt>
      <trkpt lat="61.44357" lon="5.46789">
        <ele>41.207582</ele>
        <time>2020-07-16T00:23:34.894Z</time>
      </trkpt>
      <trkpt lat="61.44353" lon="5.46831">
        <ele>40.898459</ele>
        <time>2020-07-16T00:23:38.020Z</time>
      </trkpt>
      <trkpt lat="61.44351" lon="5.46853">
        <ele>40.741194</ele>
        <time>2020-07-16T00:23:39.536Z</time>
      </trkpt>
      <trkpt lat="61.44349" lon="5.46878">
        <ele>40.558806</ele>
        <time>2020-07-16T00:23:41.351Z</time>
      </trkpt>
      <trkpt lat="61.44324" lon="5.47193">
        <ele>38.327061</ele>
        <time>2020-07-16T00:24:04.099Z</time>
      </trkpt>
      <trkpt lat="61.44323" lon="5.47208">
        <ele>38.227188</ele>
        <time>2020-07-16T00:24:05.256Z</time>
      </trkpt>
      <trkpt lat="61.44318" lon="5.47272">
        <ele>37.809436</ele>
        <time>2020-07-16T00:24:10.099Z</time>
      </trkpt>
      <trkpt lat="61.44316" lon="5.47302">
        <ele>37.614732</ele>
        <time>2020-07-16T00:24:12.361Z</time>
      </trkpt>
      <trkpt lat="61.44312" lon="5.47364">
        <ele>37.209689</ele>
        <time>2020-07-16T00:24:16.961Z</time>
      </trkpt>
      <trkpt lat="61.44306" lon="5.47441">
        <ele>36.70542</ele>
        <time>2020-07-16T00:24:22.492Z</time>
      </trkpt>
      <trkpt lat="61.44289" lon="5.47625">
        <ele>34.239537</ele>
        <time>2020-07-16T00:24:35.083Z</time>
      </trkpt>
      <trkpt lat="61.44249" lon="5.47934">
        <ele>28.832471</ele>
        <time>2020-07-16T00:24:54.532Z</time>
      </trkpt>
      <trkpt lat="61.44238" lon="5.48181">
        <ele>23.281698</ele>
        <time>2020-07-16T00:25:09.061Z</time>
      </trkpt>
      <trkpt lat="61.44229" lon="5.48396">
        <ele>17.818587</ele>
        <time>2020-07-16T00:25:21.274Z</time>
      </trkpt>
      <trkpt lat="61.44226" lon="5.48474">
        <ele>15.813073</ele>
        <time>2020-07-16T00:25:25.717Z</time>
      </trkpt>
      <trkpt lat="61.44223" lon="5.48534">
        <ele>14.263703</ele>
        <time>2020-07-16T00:25:29.122Z</time>
      </trkpt>
      <trkpt lat="61.44207" lon="5.48946">
        <ele>5.810525</ele>
        <time>2020-07-16T00:25:53.573Z</time>
      </trkpt>
      <trkpt lat="61.44185" lon="5.49198">
        <ele>5.221963</ele>
        <time>2020-07-16T00:26:12.020Z</time>
      </trkpt>
      <trkpt lat="61.44178" lon="5.49278">
        <ele>5.103322</ele>
        <time>2020-07-16T00:26:20.230Z</time>
      </trkpt>
      <trkpt lat="61.44167" lon="5.4939">
        <ele>6.880529</ele>
        <time>2020-07-16T00:26:33.923Z</time>
      </trkpt>
      <trkpt lat="61.44143" lon="5.49647">
        <ele>14.56663</ele>
        <time>2020-07-16T00:27:23.087Z</time>
      </trkpt>
      <trkpt lat="61.44136" lon="5.49729">
        <ele>17.452012</ele>
        <time>2020-07-16T00:27:42.055Z</time>
      </trkpt>
      <trkpt lat="61.44133" lon="5.49771">
        <ele>19.30881</ele>
        <time>2020-07-16T00:27:51.755Z</time>
      </trkpt>
      <trkpt lat="61.44131" lon="5.49799">
        <ele>20.522063</ele>
        <time>2020-07-16T00:27:58.541Z</time>
      </trkpt>
      <trkpt lat="61.44131" lon="5.49835">
        <ele>22.072071</ele>
        <time>2020-07-16T00:28:07.326Z</time>
      </trkpt>
      <trkpt lat="61.4414" lon="5.49921">
        <ele>25.870016</ele>
        <time>2020-07-16T00:28:27.721Z</time>
      </trkpt>
      <trkpt lat="61.44192" lon="5.50088">
        <ele>33.694351</ele>
        <time>2020-07-16T00:29:12.740Z</time>
      </trkpt>
      <trkpt lat="61.44201" lon="5.50138">
        <ele>35.180771</ele>
        <time>2020-07-16T00:29:22.455Z</time>
      </trkpt>
      <trkpt lat="61.44204" lon="5.50187">
        <ele>36.545798</ele>
        <time>2020-07-16T00:29:30.570Z</time>
      </trkpt>
      <trkpt lat="61.44181" lon="5.50383">
        <ele>42.145423</ele>
        <time>2020-07-16T00:30:02.490Z</time>
      </trkpt>
      <trkpt lat="61.44177" lon="5.50732">
        <ele>50.506029</ele>
        <time>2020-07-16T00:30:56.994Z</time>
      </trkpt>
      <trkpt lat="61.44156" lon="5.50969">
        <ele>58.982301</ele>
        <time>2020-07-16T00:31:40.581Z</time>
      </trkpt>
      <trkpt lat="61.44142" lon="5.51233">
        <ele>69.327545</ele>
        <time>2020-07-16T00:32:43.825Z</time>
      </trkpt>
      <trkpt lat="61.44136" lon="5.51307">
        <ele>72.34829</ele>
        <time>2020-07-16T00:33:01.806Z</time>
      </trkpt>
      <trkpt lat="61.44133" lon="5.51349">
        <ele>74.115858</ele>
        <time>2020-07-16T00:33:12.286Z</time>
      </trkpt>
      <trkpt lat="61.44127" lon="5.51419">
        <ele>76.966364</ele>
        <time>2020-07-16T00:33:28.703Z</time>
      </trkpt>
      <trkpt lat="61.4411" lon="5.51861">
        <ele>87.478463</ele>
        <time>2020-07-16T00:34:41.298Z</time>
      </trkpt>
      <trkpt lat="61.44124" lon="5.52022">
        <ele>85.437942</ele>
        <time>2020-07-16T00:34:52.157Z</time>
      </trkpt>
      <trkpt lat="61.44124" lon="5.52079">
        <ele>84.199169</ele>
        <time>2020-07-16T00:34:55.568Z</time>
      </trkpt>
      <trkpt lat="61.441" lon="5.52564">
        <ele>69.016754</ele>
        <time>2020-07-16T00:35:22.172Z</time>
      </trkpt>
      <trkpt lat="61.44031" lon="5.53198">
        <ele>42.845849</ele>
        <time>2020-07-16T00:35:56.616Z</time>
      </trkpt>
      <trkpt lat="61.44022" lon="5.53307">
        <ele>38.732948</ele>
        <time>2020-07-16T00:36:02.660Z</time>
      </trkpt>
      <trkpt lat="61.44025" lon="5.53459">
        <ele>35.068749</ele>
        <time>2020-07-16T00:36:11.195Z</time>
      </trkpt>
      <trkpt lat="61.44072" lon="5.53971">
        <ele>34.606866</ele>
        <time>2020-07-16T00:36:48.949Z</time>
      </trkpt>
      <trkpt lat="61.44067" lon="5.54153">
        <ele>38.606574</ele>
        <time>2020-07-16T00:37:25.121Z</time>
      </trkpt>
      <trkpt lat="61.44059" lon="5.54354">
        <ele>51.897092</ele>
        <time>2020-07-16T00:38:25.005Z</time>
      </trkpt>
      <trkpt lat="61.44008" lon="5.54891">
        <ele>89.057434</ele>
        <time>2020-07-16T00:41:30.539Z</time>
      </trkpt>
      <trkpt lat="61.43981" lon="5.553">
        <ele>94.158546</ele>
        <time>2020-07-16T00:42:14.865Z</time>
      </trkpt>
      <trkpt lat="61.43973" lon="5.55473">
        <ele>92.010173</ele>
        <time>2020-07-16T00:42:24.925Z</time>
      </trkpt>
      <trkpt lat="61.43971" lon="5.55508">
        <ele>91.573038</ele>
        <time>2020-07-16T00:42:26.968Z</time>
      </trkpt>
      <trkpt lat="61.4397" lon="5.55518">
        <ele>91.450963</ele>
        <time>2020-07-16T00:42:27.543Z</time>
      </trkpt>
      <trkpt lat="61.43964" lon="5.55641">
        <ele>91.09211</ele>
        <time>2020-07-16T00:42:35.416Z</time>
      </trkpt>
      <trkpt lat="61.43969" lon="5.55775">
        <ele>94.858034</ele>
        <time>2020-07-16T00:42:51.063Z</time>
      </trkpt>
      <trkpt lat="61.43992" lon="5.55991">
        <ele>101.10445</ele>
        <time>2020-07-16T00:43:45.891Z</time>
      </trkpt>
      <trkpt lat="61.43999" lon="5.56072">
        <ele>103.851016</ele>
        <time>2020-07-16T00:44:05.942Z</time>
      </trkpt>
      <trkpt lat="61.44006" lon="5.56212">
        <ele>108.552736</ele>
        <time>2020-07-16T00:44:36.161Z</time>
      </trkpt>
      <trkpt lat="61.44014" lon="5.56352">
        <ele>113.266663</ele>
        <time>2020-07-16T00:45:00.656Z</time>
      </trkpt>
      <trkpt lat="61.44042" lon="5.5672">
        <ele>111.578654</ele>
        <time>2020-07-16T00:45:26.313Z</time>
      </trkpt>
      <trkpt lat="61.44055" lon="5.57102">
        <ele>106.805656</ele>
        <time>2020-07-16T00:45:50.510Z</time>
      </trkpt>
      <trkpt lat="61.44056" lon="5.57235">
        <ele>107.052267</ele>
        <time>2020-07-16T00:45:59.977Z</time>
      </trkpt>
      <trkpt lat="61.44048" lon="5.57454">
        <ele>107.481349</ele>
        <time>2020-07-16T00:46:21.774Z</time>
      </trkpt>
      <trkpt lat="61.44067" lon="5.57824">
        <ele>114.762957</ele>
        <time>2020-07-16T00:47:18.814Z</time>
      </trkpt>
      <trkpt lat="61.4405" lon="5.58163">
        <ele>123.971443</ele>
        <time>2020-07-16T00:48:18.887Z</time>
      </trkpt>
      <trkpt lat="61.43993" lon="5.58804">
        <ele>142.077993</ele>
        <time>2020-07-16T00:50:11.911Z</time>
      </trkpt>
      <trkpt lat="61.43919" lon="5.59211">
        <ele>153.605315</ele>
        <time>2020-07-16T00:51:30.312Z</time>
      </trkpt>
      <trkpt lat="61.43875" lon="5.59509">
        <ele>159.202334</ele>
        <time>2020-07-16T00:52:12.893Z</time>
      </trkpt>
      <trkpt lat="61.43868" lon="5.59568">
        <ele>160.070817</ele>
        <time>2020-07-16T00:52:19.737Z</time>
      </trkpt>
      <trkpt lat="61.43844" lon="5.59871">
        <ele>165.541558</ele>
        <time>2020-07-16T00:52:58.192Z</time>
      </trkpt>
      <trkpt lat="61.43839" lon="5.6003">
        <ele>168.680784</ele>
        <time>2020-07-16T00:53:23.695Z</time>
      </trkpt>
      <trkpt lat="61.43834" lon="5.60234">
        <ele>178.169265</ele>
        <time>2020-07-16T00:54:05.958Z</time>
      </trkpt>
      <trkpt lat="61.43829" lon="5.60348">
        <ele>183.779989</ele>
        <time>2020-07-16T00:54:38.288Z</time>
      </trkpt>
      <trkpt lat="61.43818" lon="5.60458">
        <ele>189.53814</ele>
        <time>2020-07-16T00:55:11.550Z</time>
      </trkpt>
      <trkpt lat="61.43806" lon="5.60528">
        <ele>193.598342</ele>
        <time>2020-07-16T00:55:32.951Z</time>
      </trkpt>
      <trkpt lat="61.43787" lon="5.60639">
        <ele>200.084483</ele>
        <time>2020-07-16T00:56:06.481Z</time>
      </trkpt>
      <trkpt lat="61.43777" lon="5.60713">
        <ele>204.321782</ele>
        <time>2020-07-16T00:56:27.569Z</time>
      </trkpt>
      <trkpt lat="61.4373" lon="5.61403">
        <ele>226.202388</ele>
        <time>2020-07-16T00:58:37.275Z</time>
      </trkpt>
      <trkpt lat="61.43729" lon="5.61513">
        <ele>228.683213</ele>
        <time>2020-07-16T00:58:49.890Z</time>
      </trkpt>
      <trkpt lat="61.43736" lon="5.61693">
        <ele>229.238879</ele>
        <time>2020-07-16T00:59:06.767Z</time>
      </trkpt>
      <trkpt lat="61.43732" lon="5.61785">
        <ele>229.349747</ele>
        <time>2020-07-16T00:59:13.770Z</time>
      </trkpt>
      <trkpt lat="61.43683" lon="5.62204">
        <ele>230.133479</ele>
        <time>2020-07-16T00:59:50.258Z</time>
      </trkpt>
      <trkpt lat="61.43683" lon="5.62339">
        <ele>231.027733</ele>
        <time>2020-07-16T01:00:05.995Z</time>
      </trkpt>
      <trkpt lat="61.43689" lon="5.6251">
        <ele>232.867682</ele>
        <time>2020-07-16T01:00:27.494Z</time>
      </trkpt>
      <trkpt lat="61.43686" lon="5.62614">
        <ele>233.988492</ele>
        <time>2020-07-16T01:00:41.168Z</time>
      </trkpt>
      <trkpt lat="61.43611" lon="5.63201">
        <ele>238.18278</ele>
        <time>2020-07-16T01:01:47.612Z</time>
      </trkpt>
      <trkpt lat="61.43603" lon="5.63292">
        <ele>238.55574</ele>
        <time>2020-07-16T01:01:55.971Z</time>
      </trkpt>
      <trkpt lat="61.43602" lon="5.63404">
        <ele>238.792704</ele>
        <time>2020-07-16T01:02:05.534Z</time>
      </trkpt>
      <trkpt lat="61.43627" lon="5.63735">
        <ele>237.78865</ele>
        <time>2020-07-16T01:02:31.418Z</time>
      </trkpt>
      <trkpt lat="61.43626" lon="5.63849">
        <ele>236.759569</ele>
        <time>2020-07-16T01:02:39.707Z</time>
      </trkpt>
      <trkpt lat="61.43615" lon="5.64126">
        <ele>234.032805</ele>
        <time>2020-07-16T01:02:58.126Z</time>
      </trkpt>
      <trkpt lat="61.43613" lon="5.64175">
        <ele>233.168331</ele>
        <time>2020-07-16T01:03:01.240Z</time>
      </trkpt>
      <trkpt lat="61.43613" lon="5.64229">
        <ele>232.227364</ele>
        <time>2020-07-16T01:03:04.558Z</time>
      </trkpt>
      <trkpt lat="61.43612" lon="5.64423">
        <ele>228.832481</ele>
        <time>2020-07-16T01:03:16.236Z</time>
      </trkpt>
      <trkpt lat="61.43612" lon="5.64506">
        <ele>227.364374</ele>
        <time>2020-07-16T01:03:21.242Z</time>
      </trkpt>
      <trkpt lat="61.43613" lon="5.64561">
        <ele>226.295353</ele>
        <time>2020-07-16T01:03:24.579Z</time>
      </trkpt>
      <trkpt lat="61.43615" lon="5.64594">
        <ele>225.644446</ele>
        <time>2020-07-16T01:03:26.603Z</time>
      </trkpt>
      <trkpt lat="61.43627" lon="5.64669">
        <ele>224.122264</ele>
        <time>2020-07-16T01:03:31.355Z</time>
      </trkpt>
      <trkpt lat="61.43665" lon="5.64836">
        <ele>220.525466</ele>
        <time>2020-07-16T01:03:42.486Z</time>
      </trkpt>
      <trkpt lat="61.43693" lon="5.64955">
        <ele>217.784269</ele>
        <time>2020-07-16T01:03:50.418Z</time>
      </trkpt>
      <trkpt lat="61.43716" lon="5.65064">
        <ele>215.291349</ele>
        <time>2020-07-16T01:03:57.425Z</time>
      </trkpt>
      <trkpt lat="61.43751" lon="5.65291">
        <ele>211.240343</ele>
        <time>2020-07-16T01:04:11.455Z</time>
      </trkpt>
      <trkpt lat="61.43756" lon="5.65366">
        <ele>210.370501</ele>
        <time>2020-07-16T01:04:16.191Z</time>
      </trkpt>
      <trkpt lat="61.43756" lon="5.65471">
        <ele>209.171203</ele>
        <time>2020-07-16T01:04:23.396Z</time>
      </trkpt>
      <trkpt lat="61.43757" lon="5.65498">
        <ele>208.869489</ele>
        <time>2020-07-16T01:04:25.220Z</time>
      </trkpt>
      <trkpt lat="61.43758" lon="5.6552">
        <ele>208.61254</ele>
        <time>2020-07-16T01:04:26.976Z</time>
      </trkpt>
      <trkpt lat="61.43769" lon="5.65593">
        <ele>208.149941</ele>
        <time>2020-07-16T01:04:33.549Z</time>
      </trkpt>
      <trkpt lat="61.43791" lon="5.65655">
        <ele>208.329958</ele>
        <time>2020-07-16T01:04:41.255Z</time>
      </trkpt>
      <trkpt lat="61.43797" lon="5.65665">
        <ele>208.369065</ele>
        <time>2020-07-16T01:04:43.407Z</time>
      </trkpt>
      <trkpt lat="61.4381" lon="5.65683">
        <ele>208.446755</ele>
        <time>2020-07-16T01:04:46.938Z</time>
      </trkpt>
      <trkpt lat="61.4382" lon="5.65691">
        <ele>208.497889</ele>
        <time>2020-07-16T01:04:49.187Z</time>
      </trkpt>
      <trkpt lat="61.43834" lon="5.65699">
        <ele>208.570129</ele>
        <time>2020-07-16T01:04:52.403Z</time>
      </trkpt>
      <trkpt lat="61.43874" lon="5.65694">
        <ele>208.769509</ele>
        <time>2020-07-16T01:05:01.106Z</time>
      </trkpt>
      <trkpt lat="61.43914" lon="5.65657">
        <ele>208.804098</ele>
        <time>2020-07-16T01:05:09.666Z</time>
      </trkpt>
      <trkpt lat="61.43949" lon="5.65617">
        <ele>207.063541</ele>
        <time>2020-07-16T01:05:15.735Z</time>
      </trkpt>
      <trkpt lat="61.43964" lon="5.65596">
        <ele>206.241647</ele>
        <time>2020-07-16T01:05:18.170Z</time>
      </trkpt>
      <trkpt lat="61.43985" lon="5.65543">
        <ele>204.80711</ele>
        <time>2020-07-16T01:05:22.240Z</time>
      </trkpt>
      <trkpt lat="61.43992" lon="5.65514">
        <ele>204.150481</ele>
        <time>2020-07-16T01:05:24.119Z</time>
      </trkpt>
      <trkpt lat="61.44004" lon="5.65401">
        <ele>201.721233</ele>
        <time>2020-07-16T01:05:30.622Z</time>
      </trkpt>
      <trkpt lat="61.44008" lon="5.65366">
        <ele>200.848217</ele>
        <time>2020-07-16T01:05:32.544Z</time>
      </trkpt>
      <trkpt lat="61.44015" lon="5.65342">
        <ele>199.73913</ele>
        <time>2020-07-16T01:05:33.955Z</time>
      </trkpt>
      <trkpt lat="61.44022" lon="5.65322">
        <ele>198.701078</ele>
        <time>2020-07-16T01:05:35.312Z</time>
      </trkpt>
      <trkpt lat="61.44045" lon="5.65288">
        <ele>196.33148</ele>
        <time>2020-07-16T01:05:38.383Z</time>
      </trkpt>
      <trkpt lat="61.44116" lon="5.65236">
        <ele>189.956513</ele>
        <time>2020-07-16T01:05:46.646Z</time>
      </trkpt>
      <trkpt lat="61.44136" lon="5.65225">
        <ele>188.185075</ele>
        <time>2020-07-16T01:05:48.892Z</time>
      </trkpt>
      <trkpt lat="61.44164" lon="5.65217">
        <ele>185.783786</ele>
        <time>2020-07-16T01:05:52.176Z</time>
      </trkpt>
      <trkpt lat="61.44183" lon="5.65214">
        <ele>185.220527</ele>
        <time>2020-07-16T01:05:54.407Z</time>
      </trkpt>
      <trkpt lat="61.44213" lon="5.65214">
        <ele>184.321897</ele>
        <time>2020-07-16T01:05:57.863Z</time>
      </trkpt>
      <trkpt lat="61.44386" lon="5.65226">
        <ele>181.879578</ele>
        <time>2020-07-16T01:06:23.567Z</time>
      </trkpt>
      <trkpt lat="61.44457" lon="5.65239">
        <ele>184.267676</ele>
        <time>2020-07-16T01:06:47.356Z</time>
      </trkpt>
      <trkpt lat="61.44592" lon="5.65335">
        <ele>188.379624</ele>
        <time>2020-07-16T01:07:37.675Z</time>
      </trkpt>
      <trkpt lat="61.44639" lon="5.65351">
        <ele>189.553203</ele>
        <time>2020-07-16T01:07:49.497Z</time>
      </trkpt>
      <trkpt lat="61.44827" lon="5.6532">
        <ele>192.338849</ele>
        <time>2020-07-16T01:08:17.995Z</time>
      </trkpt>
      <trkpt lat="61.44857" lon="5.65334">
        <ele>192.661572</ele>
        <time>2020-07-16T01:08:26.039Z</time>
      </trkpt>
      <trkpt lat="61.44877" lon="5.65364">
        <ele>194.258373</ele>
        <time>2020-07-16T01:08:35.037Z</time>
      </trkpt>
      <trkpt lat="61.44885" lon="5.6539">
        <ele>196.669033</ele>
        <time>2020-07-16T01:08:41.669Z</time>
      </trkpt>
      <trkpt lat="61.44891" lon="5.65424">
        <ele>199.555268</ele>
        <time>2020-07-16T01:08:50.306Z</time>
      </trkpt>
      <trkpt lat="61.44901" lon="5.65574">
        <ele>211.386199</ele>
        <time>2020-07-16T01:09:39.111Z</time>
      </trkpt>
      <trkpt lat="61.44905" lon="5.65601">
        <ele>213.640119</ele>
        <time>2020-07-16T01:09:50.878Z</time>
      </trkpt>
      <trkpt lat="61.44923" lon="5.65651">
        <ele>218.523091</ele>
        <time>2020-07-16T01:10:18.016Z</time>
      </trkpt>
      <trkpt lat="61.44946" lon="5.65673">
        <ele>222.678045</ele>
        <time>2020-07-16T01:10:40.544Z</time>
      </trkpt>
      <trkpt lat="61.4496" lon="5.65676">
        <ele>226.243658</ele>
        <time>2020-07-16T01:10:53.670Z</time>
      </trkpt>
      <trkpt lat="61.45024" lon="5.65659">
        <ele>242.418249</ele>
        <time>2020-07-16T01:11:53.170Z</time>
      </trkpt>
      <trkpt lat="61.45049" lon="5.65672">
        <ele>248.859649</ele>
        <time>2020-07-16T01:12:16.918Z</time>
      </trkpt>
      <trkpt lat="61.45065" lon="5.65716">
        <ele>255.488973</ele>
        <time>2020-07-16T01:12:41.255Z</time>
      </trkpt>
      <trkpt lat="61.4508" lon="5.65805">
        <ele>266.659672</ele>
        <time>2020-07-16T01:13:22.078Z</time>
      </trkpt>
      <trkpt lat="61.45093" lon="5.65853">
        <ele>269.686443</ele>
        <time>2020-07-16T01:13:44.709Z</time>
      </trkpt>
      <trkpt lat="61.45164" lon="5.65968">
        <ele>278.668538</ele>
        <time>2020-07-16T01:14:35.953Z</time>
      </trkpt>
      <trkpt lat="61.45173" lon="5.65993">
        <ele>280.190234</ele>
        <time>2020-07-16T01:14:42.372Z</time>
      </trkpt>
      <trkpt lat="61.45178" lon="5.66013">
        <ele>281.265721</ele>
        <time>2020-07-16T01:14:44.978Z</time>
      </trkpt>
      <trkpt lat="61.45183" lon="5.66042">
        <ele>282.721689</ele>
        <time>2020-07-16T01:14:49.074Z</time>
      </trkpt>
      <trkpt lat="61.45195" lon="5.66159">
        <ele>283.074033</ele>
        <time>2020-07-16T01:14:58.036Z</time>
      </trkpt>
      <trkpt lat="61.45223" lon="5.66455">
        <ele>273.214798</ele>
        <time>2020-07-16T01:15:14.136Z</time>
      </trkpt>
      <trkpt lat="61.45248" lon="5.66571">
        <ele>267.602539</ele>
        <time>2020-07-16T01:15:20.626Z</time>
      </trkpt>
      <trkpt lat="61.45323" lon="5.66765">
        <ele>256.420095</ele>
        <time>2020-07-16T01:15:33.688Z</time>
      </trkpt>
      <trkpt lat="61.45334" lon="5.66802">
        <ele>255.392434</ele>
        <time>2020-07-16T01:15:36.145Z</time>
      </trkpt>
      <trkpt lat="61.45345" lon="5.66876">
        <ele>253.900667</ele>
        <time>2020-07-16T01:15:40.664Z</time>
      </trkpt>
      <trkpt lat="61.45348" lon="5.66925">
        <ele>252.925599</ele>
        <time>2020-07-16T01:15:43.648Z</time>
      </trkpt>
      <trkpt lat="61.45352" lon="5.67026">
        <ele>250.966859</ele>
        <time>2020-07-16T01:15:50.143Z</time>
      </trkpt>
      <trkpt lat="61.45365" lon="5.67164">
        <ele>248.185716</ele>
        <time>2020-07-16T01:16:00.006Z</time>
      </trkpt>
      <trkpt lat="61.45428" lon="5.67482">
        <ele>241.131262</ele>
        <time>2020-07-16T01:16:20.212Z</time>
      </trkpt>
      <trkpt lat="61.45443" lon="5.67563">
        <ele>240.197094</ele>
        <time>2020-07-16T01:16:25.078Z</time>
      </trkpt>
      <trkpt lat="61.45462" lon="5.67648">
        <ele>239.222281</ele>
        <time>2020-07-16T01:16:30.535Z</time>
      </trkpt>
      <trkpt lat="61.45485" lon="5.67737">
        <ele>238.177078</ele>
        <time>2020-07-16T01:16:36.718Z</time>
      </trkpt>
      <trkpt lat="61.45564" lon="5.67986">
        <ele>245.36322</ele>
        <time>2020-07-16T01:17:20.647Z</time>
      </trkpt>
      <trkpt lat="61.4558" lon="5.68063">
        <ele>248.7988</ele>
        <time>2020-07-16T01:17:43.606Z</time>
      </trkpt>
      <trkpt lat="61.45582" lon="5.68101">
        <ele>250.371222</ele>
        <time>2020-07-16T01:17:55.146Z</time>
      </trkpt>
      <trkpt lat="61.45575" lon="5.68248">
        <ele>259.290752</ele>
        <time>2020-07-16T01:18:43.807Z</time>
      </trkpt>
      <trkpt lat="61.45564" lon="5.68335">
        <ele>265.670232</ele>
        <time>2020-07-16T01:19:15.507Z</time>
      </trkpt>
      <trkpt lat="61.45545" lon="5.68401">
        <ele>271.209453</ele>
        <time>2020-07-16T01:19:42.013Z</time>
      </trkpt>
      <trkpt lat="61.45509" lon="5.68486">
        <ele>279.279827</ele>
        <time>2020-07-16T01:20:15.977Z</time>
      </trkpt>
      <trkpt lat="61.45491" lon="5.68553">
        <ele>280.796455</ele>
        <time>2020-07-16T01:20:34.459Z</time>
      </trkpt>
      <trkpt lat="61.45483" lon="5.68637">
        <ele>282.387501</ele>
        <time>2020-07-16T01:20:50.072Z</time>
      </trkpt>
      <trkpt lat="61.45486" lon="5.68706">
        <ele>283.699157</ele>
        <time>2020-07-16T01:20:59.107Z</time>
      </trkpt>
      <trkpt lat="61.45502" lon="5.68781">
        <ele>285.235137</ele>
        <time>2020-07-16T01:21:05.638Z</time>
      </trkpt>
      <trkpt lat="61.45601" lon="5.69094">
        <ele>284.42047</ele>
        <time>2020-07-16T01:21:29.117Z</time>
      </trkpt>
      <trkpt lat="61.45623" lon="5.69138">
        <ele>284.016372</ele>
        <time>2020-07-16T01:21:36.917Z</time>
      </trkpt>
      <trkpt lat="61.45642" lon="5.69159">
        <ele>285.836621</ele>
        <time>2020-07-16T01:21:43.413Z</time>
      </trkpt>
      <trkpt lat="61.45652" lon="5.69162">
        <ele>286.74379</ele>
        <time>2020-07-16T01:21:47.333Z</time>
      </trkpt>
      <trkpt lat="61.45662" lon="5.69162">
        <ele>287.59626</ele>
        <time>2020-07-16T01:21:50.145Z</time>
      </trkpt>
      <trkpt lat="61.45668" lon="5.6916">
        <ele>288.114604</ele>
        <time>2020-07-16T01:21:51.933Z</time>
      </trkpt>
      <trkpt lat="61.45682" lon="5.69153">
        <ele>289.316303</ele>
        <time>2020-07-16T01:21:58.732Z</time>
      </trkpt>
      <trkpt lat="61.45888" lon="5.6898">
        <ele>310.704955</ele>
        <time>2020-07-16T01:23:59.546Z</time>
      </trkpt>
      <trkpt lat="61.45937" lon="5.68948">
        <ele>316.286322</ele>
        <time>2020-07-16T01:24:25.578Z</time>
      </trkpt>
      <trkpt lat="61.46109" lon="5.6893">
        <ele>333.933691</ele>
        <time>2020-07-16T01:25:49.320Z</time>
      </trkpt>
      <trkpt lat="61.46165" lon="5.68946">
        <ele>340.113022</ele>
        <time>2020-07-16T01:26:20.187Z</time>
      </trkpt>
      <trkpt lat="61.46214" lon="5.6898">
        <ele>346.339836</ele>
        <time>2020-07-16T01:26:50.001Z</time>
      </trkpt>
      <trkpt lat="61.46259" lon="5.69031">
        <ele>352.538296</ele>
        <time>2020-07-16T01:27:20.478Z</time>
      </trkpt>
      <trkpt lat="61.46275" lon="5.6906">
        <ele>355.166123</ele>
        <time>2020-07-16T01:27:33.408Z</time>
      </trkpt>
      <trkpt lat="61.46301" lon="5.69127">
        <ele>359.834244</ele>
        <time>2020-07-16T01:27:56.542Z</time>
      </trkpt>
      <trkpt lat="61.46311" lon="5.69207">
        <ele>363.449428</ele>
        <time>2020-07-16T01:28:17.386Z</time>
      </trkpt>
      <trkpt lat="61.46308" lon="5.6929">
        <ele>367.040207</ele>
        <time>2020-07-16T01:28:36.128Z</time>
      </trkpt>
      <trkpt lat="61.463" lon="5.69341">
        <ele>369.358327</ele>
        <time>2020-07-16T01:28:47.259Z</time>
      </trkpt>
      <trkpt lat="61.46214" lon="5.69677">
        <ele>384.864483</ele>
        <time>2020-07-16T01:30:03.065Z</time>
      </trkpt>
      <trkpt lat="61.46209" lon="5.69711">
        <ele>386.268617</ele>
        <time>2020-07-16T01:30:10.515Z</time>
      </trkpt>
      <trkpt lat="61.46206" lon="5.69756">
        <ele>388.036643</ele>
        <time>2020-07-16T01:30:20.620Z</time>
      </trkpt>
      <trkpt lat="61.46196" lon="5.70105">
        <ele>404.20198</ele>
        <time>2020-07-16T01:31:45.275Z</time>
      </trkpt>
      <trkpt lat="61.46197" lon="5.70159">
        <ele>406.778584</ele>
        <time>2020-07-16T01:31:57.975Z</time>
      </trkpt>
      <trkpt lat="61.46209" lon="5.70255">
        <ele>411.189933</ele>
        <time>2020-07-16T01:32:20.721Z</time>
      </trkpt>
      <trkpt lat="61.4622" lon="5.70296">
        <ele>413.232057</ele>
        <time>2020-07-16T01:32:31.422Z</time>
      </trkpt>
      <trkpt lat="61.46248" lon="5.70363">
        <ele>417.14485</ele>
        <time>2020-07-16T01:32:51.526Z</time>
      </trkpt>
      <trkpt lat="61.46349" lon="5.70502">
        <ele>428.763585</ele>
        <time>2020-07-16T01:33:47.613Z</time>
      </trkpt>
      <trkpt lat="61.46387" lon="5.70576">
        <ele>434.133482</ele>
        <time>2020-07-16T01:34:12.134Z</time>
      </trkpt>
      <trkpt lat="61.46412" lon="5.70659">
        <ele>438.986306</ele>
        <time>2020-07-16T01:34:35.873Z</time>
      </trkpt>
      <trkpt lat="61.46443" lon="5.70885">
        <ele>453.165248</ele>
        <time>2020-07-16T01:35:43.177Z</time>
      </trkpt>
      <trkpt lat="61.4646" lon="5.70992">
        <ele>460.581771</ele>
        <time>2020-07-16T01:36:20.515Z</time>
      </trkpt>
      <trkpt lat="61.46634" lon="5.71679">
        <ele>499.347379</ele>
        <time>2020-07-16T01:40:07.033Z</time>
      </trkpt>
      <trkpt lat="61.46672" lon="5.71821">
        <ele>493.991606</ele>
        <time>2020-07-16T01:40:15.117Z</time>
      </trkpt>
      <trkpt lat="61.46693" lon="5.7191">
        <ele>483.939048</ele>
        <time>2020-07-16T01:40:19.959Z</time>
      </trkpt>
      <trkpt lat="61.4671" lon="5.71974">
        <ele>476.661905</ele>
        <time>2020-07-16T01:40:23.483Z</time>
      </trkpt>
      <trkpt lat="61.46736" lon="5.72035">
        <ele>468.487648</ele>
        <time>2020-07-16T01:40:27.450Z</time>
      </trkpt>
      <trkpt lat="61.46773" lon="5.72089">
        <ele>459.436741</ele>
        <time>2020-07-16T01:40:32.039Z</time>
      </trkpt>
      <trkpt lat="61.46804" lon="5.72114">
        <ele>453.107706</ele>
        <time>2020-07-16T01:40:35.416Z</time>
      </trkpt>
      <trkpt lat="61.46904" lon="5.72146">
        <ele>433.852309</ele>
        <time>2020-07-16T01:40:45.884Z</time>
      </trkpt>
      <trkpt lat="61.46924" lon="5.72164">
        <ele>429.706837</ele>
        <time>2020-07-16T01:40:48.150Z</time>
      </trkpt>
      <trkpt lat="61.47042" lon="5.72323">
        <ele>408.580819</ele>
        <time>2020-07-16T01:41:02.632Z</time>
      </trkpt>
      <trkpt lat="61.47086" lon="5.72357">
        <ele>401.948002</ele>
        <time>2020-07-16T01:41:07.635Z</time>
      </trkpt>
      <trkpt lat="61.47096" lon="5.72365">
        <ele>401.09145</ele>
        <time>2020-07-16T01:41:08.756Z</time>
      </trkpt>
      <trkpt lat="61.47119" lon="5.72382">
        <ele>399.141138</ele>
        <time>2020-07-16T01:41:11.451Z</time>
      </trkpt>
      <trkpt lat="61.47167" lon="5.72438">
        <ele>394.832205</ele>
        <time>2020-07-16T01:41:17.424Z</time>
      </trkpt>
      <trkpt lat="61.47202" lon="5.72512">
        <ele>390.86445</ele>
        <time>2020-07-16T01:41:23.300Z</time>
      </trkpt>
      <trkpt lat="61.47217" lon="5.72566">
        <ele>388.525891</ele>
        <time>2020-07-16T01:41:26.844Z</time>
      </trkpt>
      <trkpt lat="61.47263" lon="5.72826">
        <ele>384.250284</ele>
        <time>2020-07-16T01:41:46.366Z</time>
      </trkpt>
      <trkpt lat="61.47432" lon="5.73401">
        <ele>368.722279</ele>
        <time>2020-07-16T01:42:25.439Z</time>
      </trkpt>
      <trkpt lat="61.47475" lon="5.73494">
        <ele>365.304036</ele>
        <time>2020-07-16T01:42:32.584Z</time>
      </trkpt>
      <trkpt lat="61.47586" lon="5.73675">
        <ele>359.067677</ele>
        <time>2020-07-16T01:42:49.437Z</time>
      </trkpt>
      <trkpt lat="61.47631" lon="5.73751">
        <ele>356.63848</ele>
        <time>2020-07-16T01:42:57.300Z</time>
      </trkpt>
      <trkpt lat="61.47647" lon="5.73778">
        <ele>356.324146</ele>
        <time>2020-07-16T01:43:00.273Z</time>
      </trkpt>
      <trkpt lat="61.47685" lon="5.73843">
        <ele>356.386291</ele>
        <time>2020-07-16T01:43:08.016Z</time>
      </trkpt>
      <trkpt lat="61.4774" lon="5.73981">
        <ele>356.496071</ele>
        <time>2020-07-16T01:43:25.550Z</time>
      </trkpt>
      <trkpt lat="61.47789" lon="5.74147">
        <ele>356.88516</ele>
        <time>2020-07-16T01:43:46.568Z</time>
      </trkpt>
      <trkpt lat="61.47816" lon="5.74276">
        <ele>357.272486</ele>
        <time>2020-07-16T01:44:00.631Z</time>
      </trkpt>
      <trkpt lat="61.47827" lon="5.74401">
        <ele>357.279461</ele>
        <time>2020-07-16T01:44:11.310Z</time>
      </trkpt>
      <trkpt lat="61.47825" lon="5.74598">
        <ele>354.180581</ele>
        <time>2020-07-16T01:44:24.743Z</time>
      </trkpt>
      <trkpt lat="61.47738" lon="5.75608">
        <ele>325.437003</ele>
        <time>2020-07-16T01:45:22.673Z</time>
      </trkpt>
      <trkpt lat="61.47729" lon="5.75667">
        <ele>322.768711</ele>
        <time>2020-07-16T01:45:25.878Z</time>
      </trkpt>
      <trkpt lat="61.4769" lon="5.75814">
        <ele>315.498185</ele>
        <time>2020-07-16T01:45:34.538Z</time>
      </trkpt>
      <trkpt lat="61.47687" lon="5.75849">
        <ele>313.92776</ele>
        <time>2020-07-16T01:45:36.410Z</time>
      </trkpt>
      <trkpt lat="61.47687" lon="5.75887">
        <ele>312.49867</ele>
        <time>2020-07-16T01:45:38.363Z</time>
      </trkpt>
      <trkpt lat="61.47699" lon="5.75941">
        <ele>310.283772</ele>
        <time>2020-07-16T01:45:41.390Z</time>
      </trkpt>
      <trkpt lat="61.47754" lon="5.76063">
        <ele>303.896942</ele>
        <time>2020-07-16T01:45:50.304Z</time>
      </trkpt>
      <trkpt lat="61.47809" lon="5.76334">
        <ele>298.758543</ele>
        <time>2020-07-16T01:46:08.180Z</time>
      </trkpt>
      <trkpt lat="61.47821" lon="5.76432">
        <ele>298.23213</ele>
        <time>2020-07-16T01:46:19.294Z</time>
      </trkpt>
      <trkpt lat="61.47822" lon="5.76501">
        <ele>297.873819</ele>
        <time>2020-07-16T01:46:26.413Z</time>
      </trkpt>
      <trkpt lat="61.47818" lon="5.76551">
        <ele>297.731795</ele>
        <time>2020-07-16T01:46:32.276Z</time>
      </trkpt>
      <trkpt lat="61.47815" lon="5.76572">
        <ele>297.714259</ele>
        <time>2020-07-16T01:46:34.405Z</time>
      </trkpt>
      <trkpt lat="61.47811" lon="5.7659">
        <ele>297.698344</ele>
        <time>2020-07-16T01:46:38.323Z</time>
      </trkpt>
      <trkpt lat="61.47776" lon="5.76716">
        <ele>297.582148</ele>
        <time>2020-07-16T01:46:53.148Z</time>
      </trkpt>
      <trkpt lat="61.47753" lon="5.76836">
        <ele>297.478713</ele>
        <time>2020-07-16T01:47:02.611Z</time>
      </trkpt>
      <trkpt lat="61.47749" lon="5.76887">
        <ele>296.693418</ele>
        <time>2020-07-16T01:47:06.279Z</time>
      </trkpt>
      <trkpt lat="61.47755" lon="5.77086">
        <ele>288.894376</ele>
        <time>2020-07-16T01:47:17.231Z</time>
      </trkpt>
      <trkpt lat="61.47737" lon="5.77329">
        <ele>275.332622</ele>
        <time>2020-07-16T01:47:29.841Z</time>
      </trkpt>
      <trkpt lat="61.47732" lon="5.77467">
        <ele>263.746822</ele>
        <time>2020-07-16T01:47:36.659Z</time>
      </trkpt>
      <trkpt lat="61.47732" lon="5.77625">
        <ele>250.131791</ele>
        <time>2020-07-16T01:47:44.348Z</time>
      </trkpt>
      <trkpt lat="61.47738" lon="5.77718">
        <ele>238.091219</ele>
        <time>2020-07-16T01:47:48.922Z</time>
      </trkpt>
      <trkpt lat="61.4777" lon="5.77837">
        <ele>220.785091</ele>
        <time>2020-07-16T01:47:55.551Z</time>
      </trkpt>
      <trkpt lat="61.47786" lon="5.77977">
        <ele>202.507398</ele>
        <time>2020-07-16T01:48:02.602Z</time>
      </trkpt>
      <trkpt lat="61.47797" lon="5.78039">
        <ele>195.743829</ele>
        <time>2020-07-16T01:48:05.846Z</time>
      </trkpt>
      <trkpt lat="61.47806" lon="5.78068">
        <ele>192.300642</ele>
        <time>2020-07-16T01:48:07.505Z</time>
      </trkpt>
      <trkpt lat="61.47836" lon="5.78135">
        <ele>182.958295</ele>
        <time>2020-07-16T01:48:11.945Z</time>
      </trkpt>
      <trkpt lat="61.47854" lon="5.78196">
        <ele>175.594959</ele>
        <time>2020-07-16T01:48:15.477Z</time>
      </trkpt>
      <trkpt lat="61.47861" lon="5.78257">
        <ele>169.298037</ele>
        <time>2020-07-16T01:48:18.520Z</time>
      </trkpt>
      <trkpt lat="61.4786" lon="5.78289">
        <ele>166.076486</ele>
        <time>2020-07-16T01:48:20.104Z</time>
      </trkpt>
      <trkpt lat="61.47858" lon="5.78362">
        <ele>162.823967</ele>
        <time>2020-07-16T01:48:23.756Z</time>
      </trkpt>
      <trkpt lat="61.47855" lon="5.7848">
        <ele>159.022337</ele>
        <time>2020-07-16T01:48:30.604Z</time>
      </trkpt>
      <trkpt lat="61.47852" lon="5.78582">
        <ele>155.747236</ele>
        <time>2020-07-16T01:48:36.591Z</time>
      </trkpt>
      <trkpt lat="61.47847" lon="5.78623">
        <ele>154.38333</ele>
        <time>2020-07-16T01:48:39.416Z</time>
      </trkpt>
      <trkpt lat="61.47841" lon="5.78658">
        <ele>153.177742</ele>
        <time>2020-07-16T01:48:41.802Z</time>
      </trkpt>
      <trkpt lat="61.4783" lon="5.78694">
        <ele>152.056462</ele>
        <time>2020-07-16T01:48:44.725Z</time>
      </trkpt>
      <trkpt lat="61.47807" lon="5.78739">
        <ele>150.580574</ele>
        <time>2020-07-16T01:48:48.721Z</time>
      </trkpt>
      <trkpt lat="61.47787" lon="5.78767">
        <ele>149.444573</ele>
        <time>2020-07-16T01:48:51.585Z</time>
      </trkpt>
      <trkpt lat="61.47755" lon="5.78805">
        <ele>147.69819</ele>
        <time>2020-07-16T01:48:56.046Z</time>
      </trkpt>
      <trkpt lat="61.4772" lon="5.78857">
        <ele>145.702312</ele>
        <time>2020-07-16T01:49:01.223Z</time>
      </trkpt>
      <trkpt lat="61.47708" lon="5.7888">
        <ele>144.925445</ele>
        <time>2020-07-16T01:49:03.179Z</time>
      </trkpt>
      <trkpt lat="61.47695" lon="5.78914">
        <ele>143.955842</ele>
        <time>2020-07-16T01:49:05.672Z</time>
      </trkpt>
      <trkpt lat="61.47681" lon="5.78965">
        <ele>142.619001</ele>
        <time>2020-07-16T01:49:08.985Z</time>
      </trkpt>
      <trkpt lat="61.47663" lon="5.79014">
        <ele>141.211344</ele>
        <time>2020-07-16T01:49:12.421Z</time>
      </trkpt>
      <trkpt lat="61.47614" lon="5.79062">
        <ele>138.67303</ele>
        <time>2020-07-16T01:49:18.789Z</time>
      </trkpt>
      <trkpt lat="61.47466" lon="5.79101">
        <ele>133.61564</ele>
        <time>2020-07-16T01:49:38.668Z</time>
      </trkpt>
      <trkpt lat="61.47405" lon="5.79089">
        <ele>132.127175</ele>
        <time>2020-07-16T01:49:47.680Z</time>
      </trkpt>
      <trkpt lat="61.47387" lon="5.79103">
        <ele>131.681485</ele>
        <time>2020-07-16T01:49:50.408Z</time>
      </trkpt>
      <trkpt lat="61.47364" lon="5.79141">
        <ele>130.234983</ele>
        <time>2020-07-16T01:49:54.612Z</time>
      </trkpt>
      <trkpt lat="61.4734" lon="5.79189">
        <ele>127.804899</ele>
        <time>2020-07-16T01:49:59.068Z</time>
      </trkpt>
      <trkpt lat="61.47306" lon="5.79221">
        <ele>125.050049</ele>
        <time>2020-07-16T01:50:03.571Z</time>
      </trkpt>
      <trkpt lat="61.47222" lon="5.79223">
        <ele>118.934135</ele>
        <time>2020-07-16T01:50:12.621Z</time>
      </trkpt>
      <trkpt lat="61.47214" lon="5.79232">
        <ele>118.233347</ele>
        <time>2020-07-16T01:50:13.618Z</time>
      </trkpt>
      <trkpt lat="61.47167" lon="5.79298">
        <ele>112.971885</ele>
        <time>2020-07-16T01:50:19.674Z</time>
      </trkpt>
      <trkpt lat="61.47162" lon="5.79307">
        <ele>112.300653</ele>
        <time>2020-07-16T01:50:20.477Z</time>
      </trkpt>
      <trkpt lat="61.47151" lon="5.79326">
        <ele>110.985771</ele>
        <time>2020-07-16T01:50:21.929Z</time>
      </trkpt>
      <trkpt lat="61.47128" lon="5.79425">
        <ele>106.058419</ele>
        <time>2020-07-16T01:50:27.686Z</time>
      </trkpt>
      <trkpt lat="61.47113" lon="5.79458">
        <ele>104.015898</ele>
        <time>2020-07-16T01:50:30.012Z</time>
      </trkpt>
      <trkpt lat="61.47095" lon="5.7946">
        <ele>102.291908</ele>
        <time>2020-07-16T01:50:32.160Z</time>
      </trkpt>
      <trkpt lat="61.47013" lon="5.7941">
        <ele>100.590821</ele>
        <time>2020-07-16T01:50:43.161Z</time>
      </trkpt>
      <trkpt lat="61.46934" lon="5.7943">
        <ele>99.846646</ele>
        <time>2020-07-16T01:51:02.984Z</time>
      </trkpt>
      <trkpt lat="61.46913" lon="5.79451">
        <ele>99.634841</ele>
        <time>2020-07-16T01:51:08.448Z</time>
      </trkpt>
      <trkpt lat="61.46887" lon="5.79496">
        <ele>98.837326</ele>
        <time>2020-07-16T01:51:15.853Z</time>
      </trkpt>
      <trkpt lat="61.46824" lon="5.79534">
        <ele>97.204897</ele>
        <time>2020-07-16T01:51:27.639Z</time>
      </trkpt>
      <trkpt lat="61.46791" lon="5.79574">
        <ele>96.266773</ele>
        <time>2020-07-16T01:51:32.307Z</time>
      </trkpt>
      <trkpt lat="61.46744" lon="5.79605">
        <ele>94.650593</ele>
        <time>2020-07-16T01:51:38.030Z</time>
      </trkpt>
      <trkpt lat="61.46695" lon="5.79664">
        <ele>87.711649</ele>
        <time>2020-07-16T01:51:44.489Z</time>
      </trkpt>
      <trkpt lat="61.46674" lon="5.79687">
        <ele>84.845677</ele>
        <time>2020-07-16T01:51:46.934Z</time>
      </trkpt>
      <trkpt lat="61.46662" lon="5.79696">
        <ele>83.30115</ele>
        <time>2020-07-16T01:51:48.305Z</time>
      </trkpt>
      <trkpt lat="61.46607" lon="5.79702">
        <ele>76.519504</ele>
        <time>2020-07-16T01:51:54.041Z</time>
      </trkpt>
      <trkpt lat="61.46593" lon="5.79711">
        <ele>74.806703</ele>
        <time>2020-07-16T01:51:55.515Z</time>
      </trkpt>
      <trkpt lat="61.46586" lon="5.79738">
        <ele>73.052399</ele>
        <time>2020-07-16T01:51:57.048Z</time>
      </trkpt>
      <trkpt lat="61.46588" lon="5.79781">
        <ele>70.897326</ele>
        <time>2020-07-16T01:51:59.194Z</time>
      </trkpt>
      <trkpt lat="61.46589" lon="5.7981">
        <ele>69.442705</ele>
        <time>2020-07-16T01:52:00.663Z</time>
      </trkpt>
      <trkpt lat="61.46589" lon="5.79851">
        <ele>67.34752</ele>
        <time>2020-07-16T01:52:02.744Z</time>
      </trkpt>
      <trkpt lat="61.46587" lon="5.79887">
        <ele>65.566312</ele>
        <time>2020-07-16T01:52:04.668Z</time>
      </trkpt>
      <trkpt lat="61.46583" lon="5.79918">
        <ele>63.940672</ele>
        <time>2020-07-16T01:52:06.303Z</time>
      </trkpt>
      <trkpt lat="61.46577" lon="5.79947">
        <ele>62.365399</ele>
        <time>2020-07-16T01:52:08.049Z</time>
      </trkpt>
      <trkpt lat="61.46561" lon="5.79996">
        <ele>59.392726</ele>
        <time>2020-07-16T01:52:11.169Z</time>
      </trkpt>
      <trkpt lat="61.46506" lon="5.80096">
        <ele>52.970904</ele>
        <time>2020-07-16T01:52:19.435Z</time>
      </trkpt>
      <trkpt lat="61.46474" lon="5.80267">
        <ele>47.925373</ele>
        <time>2020-07-16T01:52:30.659Z</time>
      </trkpt>
      <trkpt lat="61.46453" lon="5.80347">
        <ele>45.409095</ele>
        <time>2020-07-16T01:52:35.720Z</time>
      </trkpt>
      <trkpt lat="61.46449" lon="5.80369">
        <ele>44.782536</ele>
        <time>2020-07-16T01:52:36.906Z</time>
      </trkpt>
      <trkpt lat="61.46448" lon="5.80378">
        <ele>44.512885</ele>
        <time>2020-07-16T01:52:37.431Z</time>
      </trkpt>
      <trkpt lat="61.46448" lon="5.80392">
        <ele>44.132595</ele>
        <time>2020-07-16T01:52:38.259Z</time>
      </trkpt>
      <trkpt lat="61.46448" lon="5.8041">
        <ele>43.746837</ele>
        <time>2020-07-16T01:52:39.683Z</time>
      </trkpt>
      <trkpt lat="61.4645" lon="5.80428">
        <ele>43.334938</ele>
        <time>2020-07-16T01:52:40.688Z</time>
      </trkpt>
      <trkpt lat="61.46454" lon="5.80448">
        <ele>42.891418</ele>
        <time>2020-07-16T01:52:41.766Z</time>
      </trkpt>
      <trkpt lat="61.46468" lon="5.80505">
        <ele>41.531053</ele>
        <time>2020-07-16T01:52:45.374Z</time>
      </trkpt>
      <trkpt lat="61.46472" lon="5.80551">
        <ele>40.557957</ele>
        <time>2020-07-16T01:52:48.195Z</time>
      </trkpt>
      <trkpt lat="61.4647" lon="5.80572">
        <ele>40.11319</ele>
        <time>2020-07-16T01:52:49.278Z</time>
      </trkpt>
      <trkpt lat="61.46467" lon="5.80595">
        <ele>39.582573</ele>
        <time>2020-07-16T01:52:50.651Z</time>
      </trkpt>
      <trkpt lat="61.46461" lon="5.80618">
        <ele>39.039103</ele>
        <time>2020-07-16T01:52:52.690Z</time>
      </trkpt>
      <trkpt lat="61.46449" lon="5.80651">
        <ele>38.173311</ele>
        <time>2020-07-16T01:52:54.882Z</time>
      </trkpt>
      <trkpt lat="61.46413" lon="5.80748">
        <ele>36.854344</ele>
        <time>2020-07-16T01:53:03.002Z</time>
      </trkpt>
      <trkpt lat="61.46393" lon="5.80786">
        <ele>38.679927</ele>
        <time>2020-07-16T01:53:11.172Z</time>
      </trkpt>
      <trkpt lat="61.46325" lon="5.80864">
        <ele>43.745516</ele>
        <time>2020-07-16T01:53:45.442Z</time>
      </trkpt>
      <trkpt lat="61.46285" lon="5.80934">
        <ele>47.139467</ele>
        <time>2020-07-16T01:54:13.008Z</time>
      </trkpt>
      <trkpt lat="61.46229" lon="5.81014">
        <ele>50.601265</ele>
        <time>2020-07-16T01:54:43.388Z</time>
      </trkpt>
      <trkpt lat="61.46197" lon="5.81058">
        <ele>52.406503</ele>
        <time>2020-07-16T01:54:57.331Z</time>
      </trkpt>
      <trkpt lat="61.46189" lon="5.81072">
        <ele>52.930762</ele>
        <time>2020-07-16T01:54:58.948Z</time>
      </trkpt>
      <trkpt lat="61.4609" lon="5.8129">
        <ele>56.14524</ele>
        <time>2020-07-16T01:55:32.580Z</time>
      </trkpt>
      <trkpt lat="61.46031" lon="5.81393">
        <ele>55.752608</ele>
        <time>2020-07-16T01:55:48.504Z</time>
      </trkpt>
      <trkpt lat="61.46004" lon="5.81465">
        <ele>54.457251</ele>
        <time>2020-07-16T01:55:53.709Z</time>
      </trkpt>
      <trkpt lat="61.45983" lon="5.81542">
        <ele>49.513452</ele>
        <time>2020-07-16T01:55:58.457Z</time>
      </trkpt>
      <trkpt lat="61.45976" lon="5.81562">
        <ele>48.09201</ele>
        <time>2020-07-16T01:55:59.831Z</time>
      </trkpt>
      <trkpt lat="61.45974" lon="5.81588">
        <ele>46.633546</ele>
        <time>2020-07-16T01:56:01.260Z</time>
      </trkpt>
      <trkpt lat="61.45972" lon="5.81598">
        <ele>46.002984</ele>
        <time>2020-07-16T01:56:01.931Z</time>
      </trkpt>
      <trkpt lat="61.45943" lon="5.81654">
        <ele>41.406139</ele>
        <time>2020-07-16T01:56:06.350Z</time>
      </trkpt>
      <trkpt lat="61.4594" lon="5.8167">
        <ele>40.448887</ele>
        <time>2020-07-16T01:56:07.229Z</time>
      </trkpt>
      <trkpt lat="61.45944" lon="5.81847">
        <ele>29.483689</ele>
        <time>2020-07-16T01:56:16.368Z</time>
      </trkpt>
      <trkpt lat="61.45958" lon="5.81941">
        <ele>22.574232</ele>
        <time>2020-07-16T01:56:21.352Z</time>
      </trkpt>
      <trkpt lat="61.45973" lon="5.8201">
        <ele>17.119176</ele>
        <time>2020-07-16T01:56:25.300Z</time>
      </trkpt>
      <trkpt lat="61.4598" lon="5.82053">
        <ele>13.933323</ele>
        <time>2020-07-16T01:56:27.721Z</time>
      </trkpt>
      <trkpt lat="61.45983" lon="5.82161">
        <ele>7.608497</ele>
        <time>2020-07-16T01:56:33.666Z</time>
      </trkpt>
      <trkpt lat="61.4598" lon="5.822">
        <ele>7.107068</ele>
        <time>2020-07-16T01:56:35.915Z</time>
      </trkpt>
      <trkpt lat="61.45957" lon="5.82385">
        <ele>4.643708</ele>
        <time>2020-07-16T01:56:48.988Z</time>
      </trkpt>
      <trkpt lat="61.45931" lon="5.82487">
        <ele>3.153479</ele>
        <time>2020-07-16T01:57:01.096Z</time>
      </trkpt>
      <trkpt lat="61.45925" lon="5.82538">
        <ele>3.635669</ele>
        <time>2020-07-16T01:57:06.619Z</time>
      </trkpt>
      <trkpt lat="61.45906" lon="5.82628">
        <ele>4.912754</ele>
        <time>2020-07-16T01:57:18.728Z</time>
      </trkpt>
      <trkpt lat="61.45898" lon="5.82772">
        <ele>6.804321</ele>
        <time>2020-07-16T01:57:38.434Z</time>
      </trkpt>
      <trkpt lat="61.45893" lon="5.8279">
        <ele>7.077796</ele>
        <time>2020-07-16T01:57:41.069Z</time>
      </trkpt>
      <trkpt lat="61.45879" lon="5.82807">
        <ele>7.51781</ele>
        <time>2020-07-16T01:57:46.272Z</time>
      </trkpt>
      <trkpt lat="61.45862" lon="5.82816">
        <ele>8.023006</ele>
        <time>2020-07-16T01:57:51.394Z</time>
      </trkpt>
      <trkpt lat="61.45837" lon="5.82826">
        <ele>9.06577</ele>
        <time>2020-07-16T01:57:59.924Z</time>
      </trkpt>
      <trkpt lat="61.45749" lon="5.82918">
        <ele>13.160158</ele>
        <time>2020-07-16T01:58:33.403Z</time>
      </trkpt>
      <trkpt lat="61.45708" lon="5.82976">
        <ele>15.218466</ele>
        <time>2020-07-16T01:58:49.829Z</time>
      </trkpt>
      <trkpt lat="61.45696" lon="5.82985">
        <ele>15.377385</ele>
        <time>2020-07-16T01:58:53.860Z</time>
      </trkpt>
      <trkpt lat="61.45682" lon="5.82998">
        <ele>15.215086</ele>
        <time>2020-07-16T01:58:57.746Z</time>
      </trkpt>
      <trkpt lat="61.45655" lon="5.83032">
        <ele>14.892967</ele>
        <time>2020-07-16T01:59:05.241Z</time>
      </trkpt>
      <trkpt lat="61.45608" lon="5.83117">
        <ele>14.253459</ele>
        <time>2020-07-16T01:59:14.527Z</time>
      </trkpt>
      <trkpt lat="61.45589" lon="5.83158">
        <ele>13.972113</ele>
        <time>2020-07-16T01:59:18.184Z</time>
      </trkpt>
      <trkpt lat="61.45582" lon="5.83182">
        <ele>13.830355</ele>
        <time>2020-07-16T01:59:20.116Z</time>
      </trkpt>
      <trkpt lat="61.45574" lon="5.8324">
        <ele>13.395942</ele>
        <time>2020-07-16T01:59:23.896Z</time>
      </trkpt>
      <trkpt lat="61.45574" lon="5.83255">
        <ele>13.169152</ele>
        <time>2020-07-16T01:59:24.813Z</time>
      </trkpt>
      <trkpt lat="61.45575" lon="5.83263">
        <ele>13.048366</ele>
        <time>2020-07-16T01:59:25.289Z</time>
      </trkpt>
      <trkpt lat="61.45576" lon="5.83275">
        <ele>12.851887</ele>
        <time>2020-07-16T01:59:26.046Z</time>
      </trkpt>
      <trkpt lat="61.4558" lon="5.83289">
        <ele>12.599952</ele>
        <time>2020-07-16T01:59:27.220Z</time>
      </trkpt>
      <trkpt lat="61.45584" lon="5.83304">
        <ele>12.333676</ele>
        <time>2020-07-16T01:59:28.258Z</time>
      </trkpt>
      <trkpt lat="61.45591" lon="5.83315">
        <ele>12.047327</ele>
        <time>2020-07-16T01:59:29.427Z</time>
      </trkpt>
      <trkpt lat="61.45595" lon="5.83331">
        <ele>11.776724</ele>
        <time>2020-07-16T01:59:30.471Z</time>
      </trkpt>
      <trkpt lat="61.45601" lon="5.8334">
        <ele>11.547134</ele>
        <time>2020-07-16T01:59:31.537Z</time>
      </trkpt>
      <trkpt lat="61.45607" lon="5.83351">
        <ele>11.295996</ele>
        <time>2020-07-16T01:59:32.519Z</time>
      </trkpt>
      <trkpt lat="61.45591" lon="5.83438">
        <ele>9.86222</ele>
        <time>2020-07-16T01:59:38.189Z</time>
      </trkpt>
      <trkpt lat="61.45585" lon="5.83465">
        <ele>9.393149</ele>
        <time>2020-07-16T01:59:39.987Z</time>
      </trkpt>
      <trkpt lat="61.45539" lon="5.8361">
        <ele>8.292852</ele>
        <time>2020-07-16T01:59:51.637Z</time>
      </trkpt>
      <trkpt lat="61.45533" lon="5.83647">
        <ele>8.575366</ele>
        <time>2020-07-16T01:59:55.650Z</time>
      </trkpt>
      <trkpt lat="61.45525" lon="5.83683">
        <ele>8.861528</ele>
        <time>2020-07-16T02:00:00.293Z</time>
      </trkpt>
      <trkpt lat="61.45506" lon="5.8374">
        <ele>9.368994</ele>
        <time>2020-07-16T02:00:08.636Z</time>
      </trkpt>
      <trkpt lat="61.45476" lon="5.83805">
        <ele>10.010139</ele>
        <time>2020-07-16T02:00:20.485Z</time>
      </trkpt>
      <trkpt lat="61.45455" lon="5.83935">
        <ele>11.441483</ele>
        <time>2020-07-16T02:00:39.434Z</time>
      </trkpt>
      <trkpt lat="61.4545" lon="5.83953">
        <ele>11.727119</ele>
        <time>2020-07-16T02:00:42.567Z</time>
      </trkpt>
      <trkpt lat="61.45434" lon="5.83978">
        <ele>12.306774</ele>
        <time>2020-07-16T02:00:47.590Z</time>
      </trkpt>
      <trkpt lat="61.45426" lon="5.83986">
        <ele>12.562304</ele>
        <time>2020-07-16T02:00:50.469Z</time>
      </trkpt>
      <trkpt lat="61.45418" lon="5.83996">
        <ele>12.81871</ele>
        <time>2020-07-16T02:00:53.049Z</time>
      </trkpt>
      <trkpt lat="61.45392" lon="5.84057">
        <ele>13.926215</ele>
        <time>2020-07-16T02:01:03.399Z</time>
      </trkpt>
      <trkpt lat="61.45379" lon="5.84098">
        <ele>14.606312</ele>
        <time>2020-07-16T02:01:09.706Z</time>
      </trkpt>
      <trkpt lat="61.45345" lon="5.84191">
        <ele>15.680351</ele>
        <time>2020-07-16T02:01:24.264Z</time>
      </trkpt>
      <trkpt lat="61.45322" lon="5.84249">
        <ele>15.754264</ele>
        <time>2020-07-16T02:01:32.794Z</time>
      </trkpt>
      <trkpt lat="61.45308" lon="5.84287">
        <ele>15.801461</ele>
        <time>2020-07-16T02:01:37.107Z</time>
      </trkpt>
      <trkpt lat="61.45277" lon="5.8438">
        <ele>15.912187</ele>
        <time>2020-07-16T02:01:46.109Z</time>
      </trkpt>
      <trkpt lat="61.45271" lon="5.84387">
        <ele>15.926278</ele>
        <time>2020-07-16T02:01:47.113Z</time>
      </trkpt>
      <trkpt lat="61.45264" lon="5.84391">
        <ele>15.940578</ele>
        <time>2020-07-16T02:01:48.221Z</time>
      </trkpt>
      <trkpt lat="61.45255" lon="5.8439">
        <ele>15.959233</ele>
        <time>2020-07-16T02:01:49.595Z</time>
      </trkpt>
      <trkpt lat="61.45247" lon="5.84385">
        <ele>15.976624</ele>
        <time>2020-07-16T02:01:50.932Z</time>
      </trkpt>
      <trkpt lat="61.45245" lon="5.84402">
        <ele>15.993435</ele>
        <time>2020-07-16T02:01:52.137Z</time>
      </trkpt>
      <trkpt lat="61.45243" lon="5.84408">
        <ele>16.000621</ele>
        <time>2020-07-16T02:01:52.654Z</time>
      </trkpt>
      <trkpt lat="61.45234" lon="5.84429">
        <ele>15.7028</ele>
        <time>2020-07-16T02:01:54.825Z</time>
      </trkpt>
      <trkpt lat="61.45222" lon="5.84457">
        <ele>15.158477</ele>
        <time>2020-07-16T02:01:57.455Z</time>
      </trkpt>
      <trkpt lat="61.45205" lon="5.84505">
        <ele>14.263465</ele>
        <time>2020-07-16T02:02:01.850Z</time>
      </trkpt>
      <trkpt lat="61.45182" lon="5.84571">
        <ele>13.026536</ele>
        <time>2020-07-16T02:02:07.300Z</time>
      </trkpt>
      <trkpt lat="61.45173" lon="5.84594">
        <ele>12.579682</ele>
        <time>2020-07-16T02:02:09.152Z</time>
      </trkpt>
      <trkpt lat="61.45103" lon="5.84732">
        <ele>9.430423</ele>
        <time>2020-07-16T02:02:21.672Z</time>
      </trkpt>
      <trkpt lat="61.45066" lon="5.84797">
        <ele>7.629245</ele>
        <time>2020-07-16T02:02:27.940Z</time>
      </trkpt>
      <trkpt lat="61.45049" lon="5.8483">
        <ele>6.755986</ele>
        <time>2020-07-16T02:02:31.011Z</time>
      </trkpt>
      <trkpt lat="61.45024" lon="5.84903">
        <ele>5.153029</ele>
        <time>2020-07-16T02:02:36.760Z</time>
      </trkpt>
      <trkpt lat="61.4502" lon="5.84929">
        <ele>4.657372</ele>
        <time>2020-07-16T02:02:38.571Z</time>
      </trkpt>
      <trkpt lat="61.45022" lon="5.84947">
        <ele>4.324745</ele>
        <time>2020-07-16T02:02:39.824Z</time>
      </trkpt>
      <trkpt lat="61.45024" lon="5.84952">
        <ele>4.218615</ele>
        <time>2020-07-16T02:02:40.170Z</time>
      </trkpt>
      <trkpt lat="61.45026" lon="5.84955">
        <ele>4.103801</ele>
        <time>2020-07-16T02:02:40.589Z</time>
      </trkpt>
      <trkpt lat="61.45026" lon="5.84967">
        <ele>3.897679</ele>
        <time>2020-07-16T02:02:41.346Z</time>
      </trkpt>
      <trkpt lat="61.45026" lon="5.84983">
        <ele>3.637629</ele>
        <time>2020-07-16T02:02:42.423Z</time>
      </trkpt>
      <trkpt lat="61.45026" lon="5.84993">
        <ele>3.567397</ele>
        <time>2020-07-16T02:02:43.102Z</time>
      </trkpt>
      <trkpt lat="61.45027" lon="5.84992">
        <ele>3.550527</ele>
        <time>2020-07-16T02:02:43.240Z</time>
      </trkpt>
      <trkpt lat="61.45033" lon="5.8499">
        <ele>3.449881</ele>
        <time>2020-07-16T02:02:44.216Z</time>
      </trkpt>
      <trkpt lat="61.45076" lon="5.84994">
        <ele>2.821289</ele>
        <time>2020-07-16T02:02:50.318Z</time>
      </trkpt>
      <trkpt lat="61.45087" lon="5.84996">
        <ele>2.65321</ele>
        <time>2020-07-16T02:02:52.640Z</time>
      </trkpt>
      <trkpt lat="61.45212" lon="5.85015">
        <ele>0.935144</ele>
        <time>2020-07-16T02:03:19.226Z</time>
      </trkpt>
      <trkpt lat="61.45217" lon="5.85018">
        <ele>0.916888</ele>
        <time>2020-07-16T02:03:20.295Z</time>
      </trkpt>
      <trkpt lat="61.4522" lon="5.85024">
        <ele>0.900375</ele>
        <time>2020-07-16T02:03:21.253Z</time>
      </trkpt>
      <trkpt lat="61.45222" lon="5.85034">
        <ele>0.880266</ele>
        <time>2020-07-16T02:03:22.467Z</time>
      </trkpt>
      <trkpt lat="61.45228" lon="5.85035">
        <ele>0.857694</ele>
        <time>2020-07-16T02:03:23.793Z</time>
      </trkpt>
      <trkpt lat="61.45236" lon="5.85035">
        <ele>0.827853</ele>
        <time>2020-07-16T02:03:25.540Z</time>
      </trkpt>
      <trkpt lat="61.45241" lon="5.85036">
        <ele>0.810252</ele>
        <time>2020-07-16T02:03:26.593Z</time>
      </trkpt>
      <trkpt lat="61.45243" lon="5.85036">
        <ele>0.801074</ele>
        <time>2020-07-16T02:03:27.130Z</time>
      </trkpt>
      <trkpt lat="61.45248" lon="5.85025">
        <ele>0.772558</ele>
        <time>2020-07-16T02:03:28.846Z</time>
      </trkpt>
      <trkpt lat="61.45364" lon="5.85024">
        <ele>0.328151</ele>
        <time>2020-07-16T02:03:55.148Z</time>
      </trkpt>
      <trkpt lat="61.45368" lon="5.85027">
        <ele>0.313402</ele>
        <time>2020-07-16T02:03:56.007Z</time>
      </trkpt>
      <trkpt lat="61.45371" lon="5.85034">
        <ele>0.298109</ele>
        <time>2020-07-16T02:03:56.990Z</time>
      </trkpt>
      <trkpt lat="61.45375" lon="5.85034">
        <ele>0.293896</ele>
        <time>2020-07-16T02:03:57.912Z</time>
      </trkpt>
      <trkpt lat="61.45383" lon="5.85034">
        <ele>0.285985</ele>
        <time>2020-07-16T02:03:59.640Z</time>
      </trkpt>
      <trkpt lat="61.45388" lon="5.85033">
        <ele>0.280742</ele>
        <time>2020-07-16T02:04:00.826Z</time>
      </trkpt>
      <trkpt lat="61.4539" lon="5.85028">
        <ele>0.277081</ele>
        <time>2020-07-16T02:04:01.642Z</time>
      </trkpt>
      <trkpt lat="61.45394" lon="5.85025">
        <ele>0.273463</ele>
        <time>2020-07-16T02:04:02.469Z</time>
      </trkpt>
      <trkpt lat="61.45415" lon="5.85026">
        <ele>0.25137</ele>
        <time>2020-07-16T02:04:06.310Z</time>
      </trkpt>
      <trkpt lat="61.45533" lon="5.85027">
        <ele>0.129733</ele>
        <time>2020-07-16T02:04:27.964Z</time>
      </trkpt>
      <trkpt lat="61.45534" lon="5.85012">
        <ele>0.12271</ele>
        <time>2020-07-16T02:04:32.733Z</time>
      </trkpt>
      <trkpt lat="61.45542" lon="5.85016">
        <ele>0.114173</ele>
        <time>2020-07-16T02:04:34.303Z</time>
      </trkpt>
      <trkpt lat="61.4555" lon="5.8502">
        <ele>0.132575</ele>
        <time>2020-07-16T02:04:35.661Z</time>
      </trkpt>
      <trkpt lat="61.45552" lon="5.85026">
        <ele>0.141027</ele>
        <time>2020-07-16T02:04:36.291Z</time>
      </trkpt>
      <trkpt lat="61.45555" lon="5.85031">
        <ele>0.150596</ele>
        <time>2020-07-16T02:04:36.990Z</time>
      </trkpt>
      <trkpt lat="61.45566" lon="5.85031">
        <ele>0.178318</ele>
        <time>2020-07-16T02:04:39.027Z</time>
      </trkpt>
      <trkpt lat="61.45569" lon="5.85027">
        <ele>0.187561</ele>
        <time>2020-07-16T02:04:39.729Z</time>
      </trkpt>
      <trkpt lat="61.45572" lon="5.8502">
        <ele>0.198588</ele>
        <time>2020-07-16T02:04:40.533Z</time>
      </trkpt>
      <trkpt lat="61.45588" lon="5.85013">
        <ele>0.238319</ele>
        <time>2020-07-16T02:04:43.488Z</time>
      </trkpt>
      <trkpt lat="61.45588" lon="5.85027">
        <ele>0.254581</ele>
        <time>2020-07-16T02:04:48.150Z</time>
      </trkpt>
      <trkpt lat="61.45592" lon="5.85027">
        <ele>0.264063</ele>
        <time>2020-07-16T02:04:48.880Z</time>
      </trkpt>
      <trkpt lat="61.45595" lon="5.85027">
        <ele>0.271113</ele>
        <time>2020-07-16T02:04:49.429Z</time>
      </trkpt>
      <trkpt lat="61.45606" lon="5.85028">
        <ele>0.298829</ele>
        <time>2020-07-16T02:04:51.574Z</time>
      </trkpt>
      <trkpt lat="61.45609" lon="5.85028">
        <ele>0.304178</ele>
        <time>2020-07-16T02:04:52.025Z</time>
      </trkpt>
      <trkpt lat="61.457" lon="5.85029">
        <ele>0.527318</ele>
        <time>2020-07-16T02:05:09.703Z</time>
      </trkpt>
      <trkpt lat="61.45727" lon="5.8505">
        <ele>1.36833</ele>
        <time>2020-07-16T02:05:15.458Z</time>
      </trkpt>
      <trkpt lat="61.45745" lon="5.85034">
        <ele>2.240864</ele>
        <time>2020-07-16T02:05:19.625Z</time>
      </trkpt>
      <trkpt lat="61.45755" lon="5.85028">
        <ele>2.716656</ele>
        <time>2020-07-16T02:05:22.002Z</time>
      </trkpt>
      <trkpt lat="61.45767" lon="5.85022">
        <ele>3.234249</ele>
        <time>2020-07-16T02:05:24.596Z</time>
      </trkpt>
      <trkpt lat="61.45779" lon="5.85013">
        <ele>3.816136</ele>
        <time>2020-07-16T02:05:28.417Z</time>
      </trkpt>
      <trkpt lat="61.45822" lon="5.84973">
        <ele>5.900546</ele>
        <time>2020-07-16T02:05:45.257Z</time>
      </trkpt>
      <trkpt lat="61.45819" lon="5.84959">
        <ele>6.238586</ele>
        <time>2020-07-16T02:05:48.316Z</time>
      </trkpt>
      <trkpt lat="61.45848" lon="5.8493">
        <ele>7.673846</ele>
        <time>2020-07-16T02:06:01.438Z</time>
      </trkpt>
      <trkpt lat="61.45887" lon="5.8489">
        <ele>9.94784</ele>
        <time>2020-07-16T02:06:20.863Z</time>
      </trkpt>
      <trkpt lat="61.45907" lon="5.84865">
        <ele>11.359761</ele>
        <time>2020-07-16T02:06:32.528Z</time>
      </trkpt>
      <trkpt lat="61.45936" lon="5.84824">
        <ele>13.468439</ele>
        <time>2020-07-16T02:06:48.753Z</time>
      </trkpt>
      <trkpt lat="61.45997" lon="5.84725">
        <ele>18.081542</ele>
        <time>2020-07-16T02:07:18.201Z</time>
      </trkpt>
      <trkpt lat="61.4601" lon="5.84701">
        <ele>19.114697</ele>
        <time>2020-07-16T02:07:25.448Z</time>
      </trkpt>
      <trkpt lat="61.46204" lon="5.84355">
        <ele>11.80088</ele>
        <time>2020-07-16T02:07:58.540Z</time>
      </trkpt>
      <trkpt lat="61.46294" lon="5.84198">
        <ele>9.352183</ele>
        <time>2020-07-16T02:08:14.775Z</time>
      </trkpt>
      <trkpt lat="61.46328" lon="5.84124">
        <ele>11.040606</ele>
        <time>2020-07-16T02:08:27.863Z</time>
      </trkpt>
      <trkpt lat="61.46363" lon="5.83988">
        <ele>13.568391</ele>
        <time>2020-07-16T02:08:52.120Z</time>
      </trkpt>
      <trkpt lat="61.4639" lon="5.83874">
        <ele>15.594146</ele>
        <time>2020-07-16T02:09:13.209Z</time>
      </trkpt>
      <trkpt lat="61.46407" lon="5.83804">
        <ele>16.69547</ele>
        <time>2020-07-16T02:09:26.483Z</time>
      </trkpt>
      <trkpt lat="61.46415" lon="5.83757">
        <ele>17.388998</ele>
        <time>2020-07-16T02:09:33.661Z</time>
      </trkpt>
      <trkpt lat="61.46418" lon="5.83726">
        <ele>17.824822</ele>
        <time>2020-07-16T02:09:38.397Z</time>
      </trkpt>
      <trkpt lat="61.46425" lon="5.83664">
        <ele>18.725669</ele>
        <time>2020-07-16T02:09:47.102Z</time>
      </trkpt>
      <trkpt lat="61.4643" lon="5.83627">
        <ele>19.261473</ele>
        <time>2020-07-16T02:09:51.110Z</time>
      </trkpt>
      <trkpt lat="61.46434" lon="5.83609">
        <ele>19.535285</ele>
        <time>2020-07-16T02:09:53.442Z</time>
      </trkpt>
      <trkpt lat="61.46451" lon="5.83571">
        <ele>20.274417</ele>
        <time>2020-07-16T02:09:58.256Z</time>
      </trkpt>
      <trkpt lat="61.46456" lon="5.83572">
        <ele>20.406695</ele>
        <time>2020-07-16T02:09:59.121Z</time>
      </trkpt>
      <trkpt lat="61.4646" lon="5.83569">
        <ele>20.435936</ele>
        <time>2020-07-16T02:09:59.976Z</time>
      </trkpt>
      <trkpt lat="61.46463" lon="5.83563">
        <ele>20.298363</ele>
        <time>2020-07-16T02:10:00.812Z</time>
      </trkpt>
      <trkpt lat="61.46466" lon="5.83556">
        <ele>20.159952</ele>
        <time>2020-07-16T02:10:01.671Z</time>
      </trkpt>
      <trkpt lat="61.46466" lon="5.83551">
        <ele>20.085203</ele>
        <time>2020-07-16T02:10:02.145Z</time>
      </trkpt>
      <trkpt lat="61.46467" lon="5.83547">
        <ele>20.022077</ele>
        <time>2020-07-16T02:10:02.429Z</time>
      </trkpt>
      <trkpt lat="61.46466" lon="5.83537">
        <ele>19.883556</ele>
        <time>2020-07-16T02:10:03.042Z</time>
      </trkpt>
      <trkpt lat="61.46476" lon="5.8348">
        <ele>18.971321</ele>
        <time>2020-07-16T02:10:07.255Z</time>
      </trkpt>
      <trkpt lat="61.4651" lon="5.83336">
        <ele>16.575202</ele>
        <time>2020-07-16T02:10:17.103Z</time>
      </trkpt>
      <trkpt lat="61.46533" lon="5.83238">
        <ele>14.944944</ele>
        <time>2020-07-16T02:10:23.451Z</time>
      </trkpt>
      <trkpt lat="61.46543" lon="5.83184">
        <ele>13.678507</ele>
        <time>2020-07-16T02:10:26.715Z</time>
      </trkpt>
      <trkpt lat="61.4655" lon="5.83085">
        <ele>11.398166</ele>
        <time>2020-07-16T02:10:32.473Z</time>
      </trkpt>
      <trkpt lat="61.46549" lon="5.83027">
        <ele>10.061128</ele>
        <time>2020-07-16T02:10:35.852Z</time>
      </trkpt>
      <trkpt lat="61.46535" lon="5.82889">
        <ele>6.872435</ele>
        <time>2020-07-16T02:10:44.045Z</time>
      </trkpt>
      <trkpt lat="61.46535" lon="5.82798">
        <ele>5.538289</ele>
        <time>2020-07-16T02:10:49.619Z</time>
      </trkpt>
      <trkpt lat="61.46545" lon="5.82715">
        <ele>4.557299</ele>
        <time>2020-07-16T02:10:54.940Z</time>
      </trkpt>
      <trkpt lat="61.46566" lon="5.82639">
        <ele>3.544033</ele>
        <time>2020-07-16T02:11:00.696Z</time>
      </trkpt>
      <trkpt lat="61.46597" lon="5.82577">
        <ele>2.514809</ele>
        <time>2020-07-16T02:11:06.940Z</time>
      </trkpt>
      <trkpt lat="61.46634" lon="5.82535">
        <ele>2.267975</ele>
        <time>2020-07-16T02:11:13.680Z</time>
      </trkpt>
      <trkpt lat="61.46653" lon="5.82523">
        <ele>2.578187</ele>
        <time>2020-07-16T02:11:17.231Z</time>
      </trkpt>
      <trkpt lat="61.4675" lon="5.82501">
        <ele>4.071325</ele>
        <time>2020-07-16T02:11:39.059Z</time>
      </trkpt>
      <trkpt lat="61.46796" lon="5.82466">
        <ele>5.155104</ele>
        <time>2020-07-16T02:11:53.099Z</time>
      </trkpt>
      <trkpt lat="61.46854" lon="5.82382">
        <ele>9.853517</ele>
        <time>2020-07-16T02:12:16.102Z</time>
      </trkpt>
      <trkpt lat="61.46979" lon="5.82164">
        <ele>21.341312</ele>
        <time>2020-07-16T02:13:29.824Z</time>
      </trkpt>
      <trkpt lat="61.47006" lon="5.82109">
        <ele>24.27043</ele>
        <time>2020-07-16T02:13:48.210Z</time>
      </trkpt>
      <trkpt lat="61.47021" lon="5.82071">
        <ele>26.090726</ele>
        <time>2020-07-16T02:13:59.846Z</time>
      </trkpt>
      <trkpt lat="61.47032" lon="5.82033">
        <ele>27.767963</ele>
        <time>2020-07-16T02:14:08.423Z</time>
      </trkpt>
      <trkpt lat="61.47041" lon="5.81992">
        <ele>29.450642</ele>
        <time>2020-07-16T02:14:16.954Z</time>
      </trkpt>
      <trkpt lat="61.47045" lon="5.81969">
        <ele>30.375664</ele>
        <time>2020-07-16T02:14:20.898Z</time>
      </trkpt>
      <trkpt lat="61.47052" lon="5.81915">
        <ele>30.805548</ele>
        <time>2020-07-16T02:14:29.780Z</time>
      </trkpt>
      <trkpt lat="61.47062" lon="5.81809">
        <ele>30.993889</ele>
        <time>2020-07-16T02:14:42.728Z</time>
      </trkpt>
      <trkpt lat="61.47068" lon="5.81759">
        <ele>31.083737</ele>
        <time>2020-07-16T02:14:47.278Z</time>
      </trkpt>
      <trkpt lat="61.47075" lon="5.81718">
        <ele>31.159795</ele>
        <time>2020-07-16T02:14:49.942Z</time>
      </trkpt>
      <trkpt lat="61.47115" lon="5.81593">
        <ele>31.833106</ele>
        <time>2020-07-16T02:14:59.741Z</time>
      </trkpt>
      <trkpt lat="61.4715" lon="5.81537">
        <ele>33.65502</ele>
        <time>2020-07-16T02:15:07.715Z</time>
      </trkpt>
      <trkpt lat="61.47182" lon="5.81501">
        <ele>35.119234</ele>
        <time>2020-07-16T02:15:16.646Z</time>
      </trkpt>
      <trkpt lat="61.47189" lon="5.81492">
        <ele>35.447835</ele>
        <time>2020-07-16T02:15:18.930Z</time>
      </trkpt>
      <trkpt lat="61.47218" lon="5.81455">
        <ele>36.86659</ele>
        <time>2020-07-16T02:15:33.288Z</time>
      </trkpt>
      <trkpt lat="61.47255" lon="5.81397">
        <ele>38.734861</ele>
        <time>2020-07-16T02:15:56.412Z</time>
      </trkpt>
      <trkpt lat="61.47265" lon="5.81375">
        <ele>39.626114</ele>
        <time>2020-07-16T02:16:04.968Z</time>
      </trkpt>
      <trkpt lat="61.47279" lon="5.81335">
        <ele>41.062345</ele>
        <time>2020-07-16T02:16:16.695Z</time>
      </trkpt>
      <trkpt lat="61.47291" lon="5.81294">
        <ele>42.435347</ele>
        <time>2020-07-16T02:16:27.739Z</time>
      </trkpt>
      <trkpt lat="61.47309" lon="5.81225">
        <ele>44.698681</ele>
        <time>2020-07-16T02:16:47.377Z</time>
      </trkpt>
      <trkpt lat="61.47317" lon="5.8119">
        <ele>45.830048</ele>
        <time>2020-07-16T02:16:56.908Z</time>
      </trkpt>
      <trkpt lat="61.47362" lon="5.81061">
        <ele>47.99523</ele>
        <time>2020-07-16T02:17:15.859Z</time>
      </trkpt>
      <trkpt lat="61.47407" lon="5.80996">
        <ele>41.494521</ele>
        <time>2020-07-16T02:17:22.010Z</time>
      </trkpt>
      <trkpt lat="61.47458" lon="5.80952">
        <ele>34.957381</ele>
        <time>2020-07-16T02:17:27.985Z</time>
      </trkpt>
      <trkpt lat="61.47509" lon="5.80924">
        <ele>28.601717</ele>
        <time>2020-07-16T02:17:33.715Z</time>
      </trkpt>
      <trkpt lat="61.47556" lon="5.80897">
        <ele>22.893425</ele>
        <time>2020-07-16T02:17:38.779Z</time>
      </trkpt>
      <trkpt lat="61.4759" lon="5.80867">
        <ele>18.651987</ele>
        <time>2020-07-16T02:17:42.567Z</time>
      </trkpt>
      <trkpt lat="61.47698" lon="5.80728">
        <ele>6.478252</ele>
        <time>2020-07-16T02:17:56.724Z</time>
      </trkpt>
      <trkpt lat="61.47731" lon="5.8071">
        <ele>5.607436</ele>
        <time>2020-07-16T02:18:01.332Z</time>
      </trkpt>
      <trkpt lat="61.47769" lon="5.8071">
        <ele>4.646422</ele>
        <time>2020-07-16T02:18:06.705Z</time>
      </trkpt>
      <trkpt lat="61.47839" lon="5.80745">
        <ele>2.808874</ele>
        <time>2020-07-16T02:18:18.550Z</time>
      </trkpt>
      <trkpt lat="61.47889" lon="5.80797">
        <ele>3.547878</ele>
        <time>2020-07-16T02:18:30.797Z</time>
      </trkpt>
      <trkpt lat="61.47927" lon="5.80884">
        <ele>4.60509</ele>
        <time>2020-07-16T02:18:45.556Z</time>
      </trkpt>
      <trkpt lat="61.4795" lon="5.8097">
        <ele>5.476343</ele>
        <time>2020-07-16T02:18:58.944Z</time>
      </trkpt>
      <trkpt lat="61.48017" lon="5.81233">
        <ele>6.120215</ele>
        <time>2020-07-16T02:19:29.731Z</time>
      </trkpt>
      <trkpt lat="61.48019" lon="5.8124">
        <ele>6.12397</ele>
        <time>2020-07-16T02:19:30.118Z</time>
      </trkpt>
      <trkpt lat="61.48047" lon="5.8131">
        <ele>6.169121</ele>
        <time>2020-07-16T02:19:37.025Z</time>
      </trkpt>
      <trkpt lat="61.48083" lon="5.81361">
        <ele>5.566778</ele>
        <time>2020-07-16T02:19:43.228Z</time>
      </trkpt>
      <trkpt lat="61.48128" lon="5.81394">
        <ele>4.419152</ele>
        <time>2020-07-16T02:19:49.608Z</time>
      </trkpt>
      <trkpt lat="61.48174" lon="5.814">
        <ele>3.313276</ele>
        <time>2020-07-16T02:19:55.488Z</time>
      </trkpt>
      <trkpt lat="61.48226" lon="5.81391">
        <ele>2.055425</ele>
        <time>2020-07-16T02:20:02.716Z</time>
      </trkpt>
      <trkpt lat="61.48259" lon="5.81384">
        <ele>1.703108</ele>
        <time>2020-07-16T02:20:07.601Z</time>
      </trkpt>
      <trkpt lat="61.48322" lon="5.81397">
        <ele>1.330225</ele>
        <time>2020-07-16T02:20:17.185Z</time>
      </trkpt>
      <trkpt lat="61.48402" lon="5.81457">
        <ele>0.830398</ele>
        <time>2020-07-16T02:20:31.983Z</time>
      </trkpt>
      <trkpt lat="61.48475" lon="5.8152">
        <ele>1.973804</ele>
        <time>2020-07-16T02:20:49.565Z</time>
      </trkpt>
      <trkpt lat="61.4851" lon="5.81549">
        <ele>2.583162</ele>
        <time>2020-07-16T02:20:59.003Z</time>
      </trkpt>
      <trkpt lat="61.48636" lon="5.81654">
        <ele>4.261376</ele>
        <time>2020-07-16T02:21:32.018Z</time>
      </trkpt>
      <trkpt lat="61.48668" lon="5.8168">
        <ele>4.546234</ele>
        <time>2020-07-16T02:21:39.340Z</time>
      </trkpt>
      <trkpt lat="61.4869" lon="5.81692">
        <ele>4.727146</ele>
        <time>2020-07-16T02:21:43.623Z</time>
      </trkpt>
      <trkpt lat="61.48716" lon="5.817">
        <ele>4.948163</ele>
        <time>2020-07-16T02:21:48.685Z</time>
      </trkpt>
      <trkpt lat="61.48729" lon="5.81702">
        <ele>5.054867</ele>
        <time>2020-07-16T02:21:50.844Z</time>
      </trkpt>
      <trkpt lat="61.4875" lon="5.81703">
        <ele>5.16681</ele>
        <time>2020-07-16T02:21:54.261Z</time>
      </trkpt>
      <trkpt lat="61.48769" lon="5.817">
        <ele>4.956313</ele>
        <time>2020-07-16T02:21:57.289Z</time>
      </trkpt>
      <trkpt lat="61.48836" lon="5.8167">
        <ele>4.227271</ele>
        <time>2020-07-16T02:22:07.116Z</time>
      </trkpt>
      <trkpt lat="61.48906" lon="5.8159">
        <ele>3.374111</ele>
        <time>2020-07-16T02:22:18.986Z</time>
      </trkpt>
      <trkpt lat="61.48941" lon="5.81523">
        <ele>3.523126</ele>
        <time>2020-07-16T02:22:27.388Z</time>
      </trkpt>
      <trkpt lat="61.48966" lon="5.8146">
        <ele>3.784298</ele>
        <time>2020-07-16T02:22:34.915Z</time>
      </trkpt>
      <trkpt lat="61.49034" lon="5.81264">
        <ele>4.566996</ele>
        <time>2020-07-16T02:23:00.492Z</time>
      </trkpt>
      <trkpt lat="61.49095" lon="5.81084">
        <ele>5.405286</ele>
        <time>2020-07-16T02:23:22.862Z</time>
      </trkpt>
      <trkpt lat="61.4911" lon="5.81038">
        <ele>5.618151</ele>
        <time>2020-07-16T02:23:28.035Z</time>
      </trkpt>
      <trkpt lat="61.4912" lon="5.80999">
        <ele>5.786272</ele>
        <time>2020-07-16T02:23:32.125Z</time>
      </trkpt>
      <trkpt lat="61.49133" lon="5.809">
        <ele>5.722403</ele>
        <time>2020-07-16T02:23:40.918Z</time>
      </trkpt>
      <trkpt lat="61.49148" lon="5.80637">
        <ele>5.103349</ele>
        <time>2020-07-16T02:24:01.100Z</time>
      </trkpt>
      <trkpt lat="61.49162" lon="5.80569">
        <ele>4.956197</ele>
        <time>2020-07-16T02:24:06.799Z</time>
      </trkpt>
      <trkpt lat="61.49185" lon="5.80508">
        <ele>4.829915</ele>
        <time>2020-07-16T02:24:12.814Z</time>
      </trkpt>
      <trkpt lat="61.49199" lon="5.80483">
        <ele>4.76681</ele>
        <time>2020-07-16T02:24:16.048Z</time>
      </trkpt>
      <trkpt lat="61.49217" lon="5.8046">
        <ele>4.695498</ele>
        <time>2020-07-16T02:24:19.374Z</time>
      </trkpt>
      <trkpt lat="61.49287" lon="5.80403">
        <ele>4.440518</ele>
        <time>2020-07-16T02:24:32.309Z</time>
      </trkpt>
      <trkpt lat="61.49334" lon="5.80345">
        <ele>4.746044</ele>
        <time>2020-07-16T02:24:42.325Z</time>
      </trkpt>
      <trkpt lat="61.49407" lon="5.80175">
        <ele>5.605053</ele>
        <time>2020-07-16T02:25:04.090Z</time>
      </trkpt>
      <trkpt lat="61.49493" lon="5.80013">
        <ele>8.143776</ele>
        <time>2020-07-16T02:25:32.412Z</time>
      </trkpt>
      <trkpt lat="61.49574" lon="5.79776">
        <ele>12.318196</ele>
        <time>2020-07-16T02:26:11.574Z</time>
      </trkpt>
      <trkpt lat="61.49593" lon="5.79659">
        <ele>14.53853</ele>
        <time>2020-07-16T02:26:31.152Z</time>
      </trkpt>
      <trkpt lat="61.49599" lon="5.79559">
        <ele>16.342824</ele>
        <time>2020-07-16T02:26:46.278Z</time>
      </trkpt>
      <trkpt lat="61.496" lon="5.7953">
        <ele>16.870278</ele>
        <time>2020-07-16T02:26:50.989Z</time>
      </trkpt>
      <trkpt lat="61.49599" lon="5.795">
        <ele>17.260995</ele>
        <time>2020-07-16T02:26:55.404Z</time>
      </trkpt>
      <trkpt lat="61.49595" lon="5.79431">
        <ele>16.97916</ele>
        <time>2020-07-16T02:27:03.219Z</time>
      </trkpt>
      <trkpt lat="61.49588" lon="5.79354">
        <ele>16.661676</ele>
        <time>2020-07-16T02:27:10.228Z</time>
      </trkpt>
      <trkpt lat="61.49573" lon="5.79184">
        <ele>15.964824</ele>
        <time>2020-07-16T02:27:22.240Z</time>
      </trkpt>
      <trkpt lat="61.49566" lon="5.79116">
        <ele>15.295776</ele>
        <time>2020-07-16T02:27:26.289Z</time>
      </trkpt>
      <trkpt lat="61.49563" lon="5.78975">
        <ele>11.980164</ele>
        <time>2020-07-16T02:27:34.296Z</time>
      </trkpt>
      <trkpt lat="61.49576" lon="5.78902">
        <ele>10.165352</ele>
        <time>2020-07-16T02:27:38.586Z</time>
      </trkpt>
      <trkpt lat="61.49586" lon="5.78876">
        <ele>9.392196</ele>
        <time>2020-07-16T02:27:40.431Z</time>
      </trkpt>
      <trkpt lat="61.49611" lon="5.78829">
        <ele>7.72063</ele>
        <time>2020-07-16T02:27:44.494Z</time>
      </trkpt>
      <trkpt lat="61.49697" lon="5.78741">
        <ele>6.887354</ele>
        <time>2020-07-16T02:27:58.112Z</time>
      </trkpt>
      <trkpt lat="61.49777" lon="5.78599">
        <ele>6.932874</ele>
        <time>2020-07-16T02:28:22.023Z</time>
      </trkpt>
      <trkpt lat="61.49853" lon="5.78523">
        <ele>8.997945</ele>
        <time>2020-07-16T02:28:46.201Z</time>
      </trkpt>
      <trkpt lat="61.49875" lon="5.78474">
        <ele>9.792866</ele>
        <time>2020-07-16T02:28:55.183Z</time>
      </trkpt>
      <trkpt lat="61.49883" lon="5.78438">
        <ele>10.246432</ele>
        <time>2020-07-16T02:29:00.060Z</time>
      </trkpt>
      <trkpt lat="61.49893" lon="5.7835">
        <ele>11.20222</ele>
        <time>2020-07-16T02:29:10.505Z</time>
      </trkpt>
      <trkpt lat="61.49894" lon="5.78197">
        <ele>10.419373</ele>
        <time>2020-07-16T02:29:24.249Z</time>
      </trkpt>
      <trkpt lat="61.49887" lon="5.78098">
        <ele>9.909347</ele>
        <time>2020-07-16T02:29:31.261Z</time>
      </trkpt>
      <trkpt lat="61.49861" lon="5.77941">
        <ele>8.51703</ele>
        <time>2020-07-16T02:29:41.769Z</time>
      </trkpt>
      <trkpt lat="61.49851" lon="5.77834">
        <ele>6.762041</ele>
        <time>2020-07-16T02:29:48.226Z</time>
      </trkpt>
      <trkpt lat="61.49853" lon="5.77749">
        <ele>5.384518</ele>
        <time>2020-07-16T02:29:53.359Z</time>
      </trkpt>
      <trkpt lat="61.49863" lon="5.77656">
        <ele>3.833453</ele>
        <time>2020-07-16T02:29:59.354Z</time>
      </trkpt>
      <trkpt lat="61.49874" lon="5.77604">
        <ele>3.125539</ele>
        <time>2020-07-16T02:30:02.892Z</time>
      </trkpt>
      <trkpt lat="61.49937" lon="5.77334">
        <ele>1.492902</ele>
        <time>2020-07-16T02:30:24.323Z</time>
      </trkpt>
      <trkpt lat="61.49946" lon="5.773">
        <ele>1.280557</ele>
        <time>2020-07-16T02:30:28.095Z</time>
      </trkpt>
      <trkpt lat="61.49977" lon="5.77235">
        <ele>1.553008</ele>
        <time>2020-07-16T02:30:37.121Z</time>
      </trkpt>
      <trkpt lat="61.50053" lon="5.7714">
        <ele>2.492299</ele>
        <time>2020-07-16T02:30:56.236Z</time>
      </trkpt>
      <trkpt lat="61.50088" lon="5.77082">
        <ele>2.976564</ele>
        <time>2020-07-16T02:31:06.938Z</time>
      </trkpt>
      <trkpt lat="61.50127" lon="5.76988">
        <ele>3.325355</ele>
        <time>2020-07-16T02:31:19.565Z</time>
      </trkpt>
      <trkpt lat="61.50144" lon="5.76929">
        <ele>3.481726</ele>
        <time>2020-07-16T02:31:26.294Z</time>
      </trkpt>
      <trkpt lat="61.50155" lon="5.76884">
        <ele>3.597226</ele>
        <time>2020-07-16T02:31:31.370Z</time>
      </trkpt>
      <trkpt lat="61.50164" lon="5.76844">
        <ele>3.696489</ele>
        <time>2020-07-16T02:31:35.161Z</time>
      </trkpt>
      <trkpt lat="61.5018" lon="5.76737">
        <ele>3.949607</ele>
        <time>2020-07-16T02:31:44.579Z</time>
      </trkpt>
      <trkpt lat="61.50197" lon="5.76501">
        <ele>3.039533</ele>
        <time>2020-07-16T02:32:02.152Z</time>
      </trkpt>
      <trkpt lat="61.5022" lon="5.76372">
        <ele>2.506569</ele>
        <time>2020-07-16T02:32:12.208Z</time>
      </trkpt>
      <trkpt lat="61.5033" lon="5.7603">
        <ele>2.320268</ele>
        <time>2020-07-16T02:32:46.384Z</time>
      </trkpt>
      <trkpt lat="61.50359" lon="5.75909">
        <ele>3.041282</ele>
        <time>2020-07-16T02:32:59.470Z</time>
      </trkpt>
      <trkpt lat="61.50381" lon="5.75639">
        <ele>4.868014</ele>
        <time>2020-07-16T02:33:29.647Z</time>
      </trkpt>
      <trkpt lat="61.50423" lon="5.75294">
        <ele>8.761232</ele>
        <time>2020-07-16T02:34:13.400Z</time>
      </trkpt>
      <trkpt lat="61.50432" lon="5.75186">
        <ele>9.970534</ele>
        <time>2020-07-16T02:34:26.915Z</time>
      </trkpt>
      <trkpt lat="61.50433" lon="5.75104">
        <ele>10.864655</ele>
        <time>2020-07-16T02:34:36.701Z</time>
      </trkpt>
      <trkpt lat="61.50421" lon="5.74746">
        <ele>14.093421</ele>
        <time>2020-07-16T02:35:18.792Z</time>
      </trkpt>
      <trkpt lat="61.50428" lon="5.74528">
        <ele>15.088727</ele>
        <time>2020-07-16T02:35:41.338Z</time>
      </trkpt>
      <trkpt lat="61.50426" lon="5.74445">
        <ele>14.761418</ele>
        <time>2020-07-16T02:35:48.452Z</time>
      </trkpt>
      <trkpt lat="61.50404" lon="5.74175">
        <ele>13.391305</ele>
        <time>2020-07-16T02:36:07.586Z</time>
      </trkpt>
      <trkpt lat="61.50375" lon="5.73933">
        <ele>10.647622</ele>
        <time>2020-07-16T02:36:23.478Z</time>
      </trkpt>
      <trkpt lat="61.50377" lon="5.73713">
        <ele>9.254136</ele>
        <time>2020-07-16T02:36:38.524Z</time>
      </trkpt>
      <trkpt lat="61.50364" lon="5.73494">
        <ele>8.534443</ele>
        <time>2020-07-16T02:36:56.610Z</time>
      </trkpt>
      <trkpt lat="61.50358" lon="5.73177">
        <ele>8.808998</ele>
        <time>2020-07-16T02:37:27.187Z</time>
      </trkpt>
      <trkpt lat="61.50353" lon="5.73103">
        <ele>8.89809</ele>
        <time>2020-07-16T02:37:33.340Z</time>
      </trkpt>
      <trkpt lat="61.50348" lon="5.73028">
        <ele>8.390058</ele>
        <time>2020-07-16T02:37:39.262Z</time>
      </trkpt>
      <trkpt lat="61.50321" lon="5.72599">
        <ele>4.668993</ele>
        <time>2020-07-16T02:38:08.233Z</time>
      </trkpt>
      <trkpt lat="61.50328" lon="5.72489">
        <ele>3.488941</ele>
        <time>2020-07-16T02:38:15.353Z</time>
      </trkpt>
      <trkpt lat="61.5035" lon="5.72384">
        <ele>2.284954</ele>
        <time>2020-07-16T02:38:23.030Z</time>
      </trkpt>
      <trkpt lat="61.50356" lon="5.7236">
        <ele>1.999516</ele>
        <time>2020-07-16T02:38:24.747Z</time>
      </trkpt>
      <trkpt lat="61.50364" lon="5.72338">
        <ele>1.852543</ele>
        <time>2020-07-16T02:38:26.758Z</time>
      </trkpt>
      <trkpt lat="61.50418" lon="5.72229">
        <ele>1.118382</ele>
        <time>2020-07-16T02:38:37.850Z</time>
      </trkpt>
      <trkpt lat="61.50522" lon="5.72089">
        <ele>0.185652</ele>
        <time>2020-07-16T02:38:58.309Z</time>
      </trkpt>
      <trkpt lat="61.50526" lon="5.72083">
        <ele>0.183387</ele>
        <time>2020-07-16T02:38:59.202Z</time>
      </trkpt>
      <trkpt lat="61.50534" lon="5.72073">
        <ele>0.17915</ele>
        <time>2020-07-16T02:39:00.866Z</time>
      </trkpt>
      <trkpt lat="61.50639" lon="5.7193">
        <ele>0.121799</ele>
        <time>2020-07-16T02:39:23.497Z</time>
      </trkpt>
      <trkpt lat="61.50642" lon="5.71926">
        <ele>0.120225</ele>
        <time>2020-07-16T02:39:24.121Z</time>
      </trkpt>
      <trkpt lat="61.50652" lon="5.71914">
        <ele>0.131616</ele>
        <time>2020-07-16T02:39:26.263Z</time>
      </trkpt>
      <trkpt lat="61.50676" lon="5.7189">
        <ele>0.196856</ele>
        <time>2020-07-16T02:39:31.051Z</time>
      </trkpt>
      <trkpt lat="61.50702" lon="5.71878">
        <ele>0.263011</ele>
        <time>2020-07-16T02:39:35.971Z</time>
      </trkpt>
      <trkpt lat="61.50742" lon="5.71881">
        <ele>0.362156</ele>
        <time>2020-07-16T02:39:43.404Z</time>
      </trkpt>
      <trkpt lat="61.50782" lon="5.71899">
        <ele>0.464866</ele>
        <time>2020-07-16T02:39:51.233Z</time>
      </trkpt>
      <trkpt lat="61.50837" lon="5.71923">
        <ele>0.6201</ele>
        <time>2020-07-16T02:40:01.962Z</time>
      </trkpt>
      <trkpt lat="61.50853" lon="5.71931">
        <ele>0.676457</ele>
        <time>2020-07-16T02:40:05.092Z</time>
      </trkpt>
      <trkpt lat="61.50883" lon="5.71944">
        <ele>0.778697</ele>
        <time>2020-07-16T02:40:10.777Z</time>
      </trkpt>
      <trkpt lat="61.50908" lon="5.71954">
        <ele>0.865936</ele>
        <time>2020-07-16T02:40:15.669Z</time>
      </trkpt>
      <trkpt lat="61.50959" lon="5.71966">
        <ele>1.043397</ele>
        <time>2020-07-16T02:40:25.480Z</time>
      </trkpt>
      <trkpt lat="61.51062" lon="5.71961">
        <ele>1.897132</ele>
        <time>2020-07-16T02:40:44.608Z</time>
      </trkpt>
      <trkpt lat="61.51105" lon="5.71956">
        <ele>2.391097</ele>
        <time>2020-07-16T02:40:53.368Z</time>
      </trkpt>
      <trkpt lat="61.51112" lon="5.71955">
        <ele>2.4783</ele>
        <time>2020-07-16T02:40:55.015Z</time>
      </trkpt>
      <trkpt lat="61.51176" lon="5.71951">
        <ele>3.204585</ele>
        <time>2020-07-16T02:41:09.313Z</time>
      </trkpt>
      <trkpt lat="61.51193" lon="5.7195">
        <ele>3.795251</ele>
        <time>2020-07-16T02:41:13.491Z</time>
      </trkpt>
      <trkpt lat="61.51374" lon="5.71937">
        <ele>11.600666</ele>
        <time>2020-07-16T02:42:09.296Z</time>
      </trkpt>
      <trkpt lat="61.51438" lon="5.71909">
        <ele>16.575541</ele>
        <time>2020-07-16T02:42:37.985Z</time>
      </trkpt>
      <trkpt lat="61.51465" lon="5.71887">
        <ele>18.806561</ele>
        <time>2020-07-16T02:42:52.149Z</time>
      </trkpt>
      <trkpt lat="61.51471" lon="5.71882">
        <ele>19.314007</ele>
        <time>2020-07-16T02:42:54.651Z</time>
      </trkpt>
      <trkpt lat="61.51484" lon="5.71871">
        <ele>20.323096</ele>
        <time>2020-07-16T02:43:00.510Z</time>
      </trkpt>
      <trkpt lat="61.51488" lon="5.71868">
        <ele>20.676793</ele>
        <time>2020-07-16T02:43:02.690Z</time>
      </trkpt>
      <trkpt lat="61.51497" lon="5.7186">
        <ele>21.449051</ele>
        <time>2020-07-16T02:43:08.246Z</time>
      </trkpt>
      <trkpt lat="61.51535" lon="5.71832">
        <ele>24.297353</ele>
        <time>2020-07-16T02:43:25.801Z</time>
      </trkpt>
      <trkpt lat="61.51546" lon="5.71827">
        <ele>24.646415</ele>
        <time>2020-07-16T02:43:30.673Z</time>
      </trkpt>
      <trkpt lat="61.51554" lon="5.71824">
        <ele>24.895991</ele>
        <time>2020-07-16T02:43:33.886Z</time>
      </trkpt>
      <trkpt lat="61.51562" lon="5.71821">
        <ele>25.171796</ele>
        <time>2020-07-16T02:43:38.580Z</time>
      </trkpt>
      <trkpt lat="61.51586" lon="5.71817">
        <ele>25.938683</ele>
        <time>2020-07-16T02:43:47.306Z</time>
      </trkpt>
      <trkpt lat="61.51626" lon="5.71826">
        <ele>27.218789</ele>
        <time>2020-07-16T02:43:59.621Z</time>
      </trkpt>
      <trkpt lat="61.51664" lon="5.71852">
        <ele>28.471701</ele>
        <time>2020-07-16T02:44:08.782Z</time>
      </trkpt>
      <trkpt lat="61.51688" lon="5.71879">
        <ele>29.321599</ele>
        <time>2020-07-16T02:44:14.148Z</time>
      </trkpt>
      <trkpt lat="61.51695" lon="5.7189">
        <ele>29.617185</ele>
        <time>2020-07-16T02:44:15.475Z</time>
      </trkpt>
      <trkpt lat="61.51691" lon="5.7192">
        <ele>29.589267</ele>
        <time>2020-07-16T02:44:17.436Z</time>
      </trkpt>
      <trkpt lat="61.51701" lon="5.71929">
        <ele>29.195174</ele>
        <time>2020-07-16T02:44:19.052Z</time>
      </trkpt>
      <trkpt lat="61.51706" lon="5.71933">
        <ele>29.011897</ele>
        <time>2020-07-16T02:44:19.831Z</time>
      </trkpt>
      <trkpt lat="61.51711" lon="5.71939">
        <ele>28.776933</ele>
        <time>2020-07-16T02:44:20.517Z</time>
      </trkpt>
      <trkpt lat="61.51798" lon="5.7209">
        <ele>24.557668</ele>
        <time>2020-07-16T02:44:34.270Z</time>
      </trkpt>
      <trkpt lat="61.51859" lon="5.72226">
        <ele>22.235195</ele>
        <time>2020-07-16T02:44:45.780Z</time>
      </trkpt>
      <trkpt lat="61.51916" lon="5.72377">
        <ele>20.606466</ele>
        <time>2020-07-16T02:44:59.963Z</time>
      </trkpt>
      <trkpt lat="61.51921" lon="5.72394">
        <ele>20.436739</ele>
        <time>2020-07-16T02:45:02.077Z</time>
      </trkpt>
      <trkpt lat="61.51927" lon="5.72414">
        <ele>20.246175</ele>
        <time>2020-07-16T02:45:03.395Z</time>
      </trkpt>
      <trkpt lat="61.51935" lon="5.72439">
        <ele>19.983493</ele>
        <time>2020-07-16T02:45:06.174Z</time>
      </trkpt>
      <trkpt lat="61.51976" lon="5.72516">
        <ele>19.202329</ele>
        <time>2020-07-16T02:45:14.829Z</time>
      </trkpt>
      <trkpt lat="61.51987" lon="5.72554">
        <ele>18.910266</ele>
        <time>2020-07-16T02:45:18.447Z</time>
      </trkpt>
      <trkpt lat="61.51989" lon="5.72568">
        <ele>18.809647</ele>
        <time>2020-07-16T02:45:20.168Z</time>
      </trkpt>
      <trkpt lat="61.5198" lon="5.72576">
        <ele>18.670543</ele>
        <time>2020-07-16T02:45:21.807Z</time>
      </trkpt>
      <trkpt lat="61.52049" lon="5.73038">
        <ele>15.451604</ele>
        <time>2020-07-16T02:45:54.987Z</time>
      </trkpt>
      <trkpt lat="61.52067" lon="5.73153">
        <ele>15.05348</ele>
        <time>2020-07-16T02:46:04.768Z</time>
      </trkpt>
      <trkpt lat="61.52073" lon="5.73184">
        <ele>15.152265</ele>
        <time>2020-07-16T02:46:07.390Z</time>
      </trkpt>
      <trkpt lat="61.52081" lon="5.73217">
        <ele>15.261246</ele>
        <time>2020-07-16T02:46:10.945Z</time>
      </trkpt>
      <trkpt lat="61.52089" lon="5.73246">
        <ele>15.358355</ele>
        <time>2020-07-16T02:46:13.675Z</time>
      </trkpt>
      <trkpt lat="61.52103" lon="5.73294">
        <ele>15.528049</ele>
        <time>2020-07-16T02:46:19.326Z</time>
      </trkpt>
      <trkpt lat="61.52116" lon="5.73331">
        <ele>15.660087</ele>
        <time>2020-07-16T02:46:23.830Z</time>
      </trkpt>
      <trkpt lat="61.52155" lon="5.73422">
        <ele>16.024089</ele>
        <time>2020-07-16T02:46:36.580Z</time>
      </trkpt>
      <trkpt lat="61.52175" lon="5.7346">
        <ele>16.370635</ele>
        <time>2020-07-16T02:46:43.009Z</time>
      </trkpt>
      <trkpt lat="61.52304" lon="5.73704">
        <ele>18.561517</ele>
        <time>2020-07-16T02:47:21.522Z</time>
      </trkpt>
      <trkpt lat="61.5234" lon="5.73766">
        <ele>18.749668</ele>
        <time>2020-07-16T02:47:31.572Z</time>
      </trkpt>
      <trkpt lat="61.52449" lon="5.73946">
        <ele>19.128157</ele>
        <time>2020-07-16T02:47:56.544Z</time>
      </trkpt>
      <trkpt lat="61.52533" lon="5.74083">
        <ele>18.76656</ele>
        <time>2020-07-16T02:48:13.543Z</time>
      </trkpt>
      <trkpt lat="61.52559" lon="5.74136">
        <ele>18.644603</ele>
        <time>2020-07-16T02:48:19.724Z</time>
      </trkpt>
      <trkpt lat="61.52582" lon="5.74188">
        <ele>18.817914</ele>
        <time>2020-07-16T02:48:25.786Z</time>
      </trkpt>
      <trkpt lat="61.52616" lon="5.74268">
        <ele>19.3697</ele>
        <time>2020-07-16T02:48:35.740Z</time>
      </trkpt>
      <trkpt lat="61.52649" lon="5.74339">
        <ele>19.880357</ele>
        <time>2020-07-16T02:48:46.149Z</time>
      </trkpt>
      <trkpt lat="61.52685" lon="5.74398">
        <ele>20.377111</ele>
        <time>2020-07-16T02:48:56.900Z</time>
      </trkpt>
      <trkpt lat="61.52802" lon="5.74506">
        <ele>21.985386</ele>
        <time>2020-07-16T02:49:27.754Z</time>
      </trkpt>
      <trkpt lat="61.52857" lon="5.74579">
        <ele>22.827296</ele>
        <time>2020-07-16T02:49:41.353Z</time>
      </trkpt>
      <trkpt lat="61.52997" lon="5.74759">
        <ele>21.434087</ele>
        <time>2020-07-16T02:50:06.899Z</time>
      </trkpt>
      <trkpt lat="61.53047" lon="5.74823">
        <ele>20.779355</ele>
        <time>2020-07-16T02:50:15.295Z</time>
      </trkpt>
      <trkpt lat="61.53065" lon="5.74842">
        <ele>20.530758</ele>
        <time>2020-07-16T02:50:18.114Z</time>
      </trkpt>
      <trkpt lat="61.53121" lon="5.74897">
        <ele>19.762861</ele>
        <time>2020-07-16T02:50:27.239Z</time>
      </trkpt>
      <trkpt lat="61.53244" lon="5.75015">
        <ele>18.928478</ele>
        <time>2020-07-16T02:50:49.125Z</time>
      </trkpt>
      <trkpt lat="61.5328" lon="5.75063">
        <ele>18.866576</ele>
        <time>2020-07-16T02:50:57.016Z</time>
      </trkpt>
      <trkpt lat="61.53309" lon="5.75109">
        <ele>18.814232</ele>
        <time>2020-07-16T02:51:03.703Z</time>
      </trkpt>
      <trkpt lat="61.53312" lon="5.75114">
        <ele>18.80919</ele>
        <time>2020-07-16T02:51:04.316Z</time>
      </trkpt>
      <trkpt lat="61.53323" lon="5.75136">
        <ele>18.786831</ele>
        <time>2020-07-16T02:51:07.207Z</time>
      </trkpt>
      <trkpt lat="61.53335" lon="5.75167">
        <ele>18.894705</ele>
        <time>2020-07-16T02:51:10.722Z</time>
      </trkpt>
      <trkpt lat="61.53365" lon="5.75254">
        <ele>19.292357</ele>
        <time>2020-07-16T02:51:20.590Z</time>
      </trkpt>
      <trkpt lat="61.53371" lon="5.75279">
        <ele>19.395811</ele>
        <time>2020-07-16T02:51:23.233Z</time>
      </trkpt>
      <trkpt lat="61.53402" lon="5.75387">
        <ele>19.862295</ele>
        <time>2020-07-16T02:51:35.472Z</time>
      </trkpt>
      <trkpt lat="61.53414" lon="5.75426">
        <ele>20.034622</ele>
        <time>2020-07-16T02:51:40.161Z</time>
      </trkpt>
      <trkpt lat="61.53448" lon="5.75509">
        <ele>20.906348</ele>
        <time>2020-07-16T02:51:52.018Z</time>
      </trkpt>
      <trkpt lat="61.53479" lon="5.75555">
        <ele>21.718314</ele>
        <time>2020-07-16T02:52:01.400Z</time>
      </trkpt>
      <trkpt lat="61.53509" lon="5.75581">
        <ele>22.404541</ele>
        <time>2020-07-16T02:52:09.481Z</time>
      </trkpt>
      <trkpt lat="61.53545" lon="5.75598">
        <ele>23.194641</ele>
        <time>2020-07-16T02:52:18.983Z</time>
      </trkpt>
      <trkpt lat="61.53594" lon="5.75613">
        <ele>24.261683</ele>
        <time>2020-07-16T02:52:31.849Z</time>
      </trkpt>
      <trkpt lat="61.53601" lon="5.75616">
        <ele>24.424441</ele>
        <time>2020-07-16T02:52:33.874Z</time>
      </trkpt>
      <trkpt lat="61.53684" lon="5.75643">
        <ele>26.325219</ele>
        <time>2020-07-16T02:52:55.394Z</time>
      </trkpt>
      <trkpt lat="61.53699" lon="5.7565">
        <ele>26.688042</ele>
        <time>2020-07-16T02:52:59.377Z</time>
      </trkpt>
      <trkpt lat="61.53714" lon="5.75659">
        <ele>27.022287</ele>
        <time>2020-07-16T02:53:03.221Z</time>
      </trkpt>
      <trkpt lat="61.53731" lon="5.75672">
        <ele>27.438707</ele>
        <time>2020-07-16T02:53:07.560Z</time>
      </trkpt>
      <trkpt lat="61.53739" lon="5.75679">
        <ele>27.642683</ele>
        <time>2020-07-16T02:53:09.724Z</time>
      </trkpt>
      <trkpt lat="61.5376" lon="5.75699">
        <ele>28.1637</ele>
        <time>2020-07-16T02:53:14.875Z</time>
      </trkpt>
      <trkpt lat="61.53776" lon="5.75717">
        <ele>28.639656</ele>
        <time>2020-07-16T02:53:19.212Z</time>
      </trkpt>
      <trkpt lat="61.53791" lon="5.75737">
        <ele>29.082568</ele>
        <time>2020-07-16T02:53:23.234Z</time>
      </trkpt>
      <trkpt lat="61.53834" lon="5.75824">
        <ele>30.605244</ele>
        <time>2020-07-16T02:53:38.255Z</time>
      </trkpt>
      <trkpt lat="61.5386" lon="5.75906">
        <ele>31.79875</ele>
        <time>2020-07-16T02:53:50.569Z</time>
      </trkpt>
      <trkpt lat="61.53867" lon="5.75937">
        <ele>32.221692</ele>
        <time>2020-07-16T02:53:55.483Z</time>
      </trkpt>
      <trkpt lat="61.53872" lon="5.75964">
        <ele>32.574597</ele>
        <time>2020-07-16T02:53:59.142Z</time>
      </trkpt>
      <trkpt lat="61.53882" lon="5.76027">
        <ele>33.794737</ele>
        <time>2020-07-16T02:54:08.549Z</time>
      </trkpt>
      <trkpt lat="61.53886" lon="5.76059">
        <ele>34.433145</ele>
        <time>2020-07-16T02:54:13.039Z</time>
      </trkpt>
      <trkpt lat="61.53888" lon="5.76082">
        <ele>34.884232</ele>
        <time>2020-07-16T02:54:17.127Z</time>
      </trkpt>
      <trkpt lat="61.53892" lon="5.76168">
        <ele>36.546056</ele>
        <time>2020-07-16T02:54:29.935Z</time>
      </trkpt>
      <trkpt lat="61.53887" lon="5.76261">
        <ele>38.337304</ele>
        <time>2020-07-16T02:54:43.996Z</time>
      </trkpt>
      <trkpt lat="61.53874" lon="5.76386">
        <ele>40.55072</ele>
        <time>2020-07-16T02:55:03.869Z</time>
      </trkpt>
      <trkpt lat="61.53871" lon="5.76409">
        <ele>40.861129</ele>
        <time>2020-07-16T02:55:07.051Z</time>
      </trkpt>
      <trkpt lat="61.53846" lon="5.76651">
        <ele>44.159285</ele>
        <time>2020-07-16T02:55:39.023Z</time>
      </trkpt>
      <trkpt lat="61.53836" lon="5.76745">
        <ele>44.932946</ele>
        <time>2020-07-16T02:55:49.345Z</time>
      </trkpt>
      <trkpt lat="61.53832" lon="5.76783">
        <ele>44.867435</ele>
        <time>2020-07-16T02:55:53.114Z</time>
      </trkpt>
      <trkpt lat="61.53825" lon="5.76913">
        <ele>44.64524</ele>
        <time>2020-07-16T02:56:04.052Z</time>
      </trkpt>
      <trkpt lat="61.53826" lon="5.77004">
        <ele>44.490579</ele>
        <time>2020-07-16T02:56:10.976Z</time>
      </trkpt>
      <trkpt lat="61.53829" lon="5.7705">
        <ele>44.411666</ele>
        <time>2020-07-16T02:56:14.179Z</time>
      </trkpt>
      <trkpt lat="61.53832" lon="5.77087">
        <ele>44.323722</ele>
        <time>2020-07-16T02:56:16.812Z</time>
      </trkpt>
      <trkpt lat="61.53834" lon="5.77114">
        <ele>43.929256</ele>
        <time>2020-07-16T02:56:18.558Z</time>
      </trkpt>
      <trkpt lat="61.53843" lon="5.7718">
        <ele>42.9469</ele>
        <time>2020-07-16T02:56:23.065Z</time>
      </trkpt>
      <trkpt lat="61.53861" lon="5.77264">
        <ele>41.633299</ele>
        <time>2020-07-16T02:56:28.843Z</time>
      </trkpt>
      <trkpt lat="61.53901" lon="5.77445">
        <ele>38.74027</ele>
        <time>2020-07-16T02:56:41.061Z</time>
      </trkpt>
      <trkpt lat="61.53906" lon="5.77467">
        <ele>38.3346</ele>
        <time>2020-07-16T02:56:42.564Z</time>
      </trkpt>
      <trkpt lat="61.53979" lon="5.77786">
        <ele>32.727526</ele>
        <time>2020-07-16T02:57:04.196Z</time>
      </trkpt>
      <trkpt lat="61.53984" lon="5.77804">
        <ele>32.570054</ele>
        <time>2020-07-16T02:57:05.466Z</time>
      </trkpt>
      <trkpt lat="61.54071" lon="5.78189">
        <ele>29.85423</ele>
        <time>2020-07-16T02:57:35.770Z</time>
      </trkpt>
      <trkpt lat="61.54096" lon="5.78303">
        <ele>29.881016</ele>
        <time>2020-07-16T02:57:46.670Z</time>
      </trkpt>
      <trkpt lat="61.54097" lon="5.78307">
        <ele>29.882115</ele>
        <time>2020-07-16T02:57:47.133Z</time>
      </trkpt>
      <trkpt lat="61.54115" lon="5.78384">
        <ele>29.90036</ele>
        <time>2020-07-16T02:57:55.112Z</time>
      </trkpt>
      <trkpt lat="61.54151" lon="5.78478">
        <ele>30.238085</ele>
        <time>2020-07-16T02:58:07.053Z</time>
      </trkpt>
      <trkpt lat="61.54172" lon="5.7851">
        <ele>30.678082</ele>
        <time>2020-07-16T02:58:12.779Z</time>
      </trkpt>
      <trkpt lat="61.54227" lon="5.78569">
        <ele>31.700485</ele>
        <time>2020-07-16T02:58:27.012Z</time>
      </trkpt>
      <trkpt lat="61.54278" lon="5.78594">
        <ele>32.578013</ele>
        <time>2020-07-16T02:58:39.666Z</time>
      </trkpt>
      <trkpt lat="61.54324" lon="5.78587">
        <ele>33.512119</ele>
        <time>2020-07-16T02:58:51.193Z</time>
      </trkpt>
      <trkpt lat="61.54342" lon="5.78578">
        <ele>33.936417</ele>
        <time>2020-07-16T02:58:55.997Z</time>
      </trkpt>
      <trkpt lat="61.54354" lon="5.78569">
        <ele>34.242928</ele>
        <time>2020-07-16T02:58:59.281Z</time>
      </trkpt>
      <trkpt lat="61.54394" lon="5.78529">
        <ele>35.258557</ele>
        <time>2020-07-16T02:59:10.233Z</time>
      </trkpt>
      <trkpt lat="61.54403" lon="5.78517">
        <ele>35.513309</ele>
        <time>2020-07-16T02:59:13.221Z</time>
      </trkpt>
      <trkpt lat="61.5441" lon="5.7851">
        <ele>35.685887</ele>
        <time>2020-07-16T02:59:15.111Z</time>
      </trkpt>
      <trkpt lat="61.54442" lon="5.78473">
        <ele>36.539834</ele>
        <time>2020-07-16T02:59:24.543Z</time>
      </trkpt>
      <trkpt lat="61.54509" lon="5.78374">
        <ele>38.53613</ele>
        <time>2020-07-16T02:59:45.196Z</time>
      </trkpt>
      <trkpt lat="61.54568" lon="5.78277">
        <ele>40.389819</ele>
        <time>2020-07-16T03:00:04.040Z</time>
      </trkpt>
      <trkpt lat="61.54575" lon="5.78266">
        <ele>40.591971</ele>
        <time>2020-07-16T03:00:06.116Z</time>
      </trkpt>
      <trkpt lat="61.54582" lon="5.78254">
        <ele>40.828362</ele>
        <time>2020-07-16T03:00:08.564Z</time>
      </trkpt>
      <trkpt lat="61.54662" lon="5.78118">
        <ele>43.923701</ele>
        <time>2020-07-16T03:00:36.913Z</time>
      </trkpt>
      <trkpt lat="61.54721" lon="5.78017">
        <ele>46.360494</ele>
        <time>2020-07-16T03:00:58.766Z</time>
      </trkpt>
      <trkpt lat="61.54773" lon="5.7794">
        <ele>48.259196</ele>
        <time>2020-07-16T03:01:17.141Z</time>
      </trkpt>
      <trkpt lat="61.54823" lon="5.7789">
        <ele>49.803503</ele>
        <time>2020-07-16T03:01:32.749Z</time>
      </trkpt>
      <trkpt lat="61.54851" lon="5.77874">
        <ele>50.617296</ele>
        <time>2020-07-16T03:01:40.551Z</time>
      </trkpt>
      <trkpt lat="61.54896" lon="5.77856">
        <ele>51.894574</ele>
        <time>2020-07-16T03:01:52.154Z</time>
      </trkpt>
      <trkpt lat="61.54924" lon="5.77856">
        <ele>52.487147</ele>
        <time>2020-07-16T03:01:58.998Z</time>
      </trkpt>
      <trkpt lat="61.5498" lon="5.77872">
        <ele>53.150864</ele>
        <time>2020-07-16T03:02:11.904Z</time>
      </trkpt>
      <trkpt lat="61.55005" lon="5.77885">
        <ele>53.453051</ele>
        <time>2020-07-16T03:02:17.620Z</time>
      </trkpt>
      <trkpt lat="61.55111" lon="5.77936">
        <ele>54.46214</ele>
        <time>2020-07-16T03:02:39.521Z</time>
      </trkpt>
      <trkpt lat="61.55119" lon="5.7794">
        <ele>54.467896</ele>
        <time>2020-07-16T03:02:40.855Z</time>
      </trkpt>
      <trkpt lat="61.55225" lon="5.77992">
        <ele>54.552995</ele>
        <time>2020-07-16T03:03:00.507Z</time>
      </trkpt>
      <trkpt lat="61.55275" lon="5.78012">
        <ele>54.466039</ele>
        <time>2020-07-16T03:03:09.105Z</time>
      </trkpt>
      <trkpt lat="61.553" lon="5.78022">
        <ele>54.21415</ele>
        <time>2020-07-16T03:03:13.369Z</time>
      </trkpt>
      <trkpt lat="61.55319" lon="5.78028">
        <ele>54.027908</ele>
        <time>2020-07-16T03:03:16.369Z</time>
      </trkpt>
      <trkpt lat="61.55383" lon="5.78041">
        <ele>53.385912</ele>
        <time>2020-07-16T03:03:26.426Z</time>
      </trkpt>
      <trkpt lat="61.55435" lon="5.78039">
        <ele>52.875723</ele>
        <time>2020-07-16T03:03:34.007Z</time>
      </trkpt>
      <trkpt lat="61.55486" lon="5.78028">
        <ele>52.31248</ele>
        <time>2020-07-16T03:03:41.465Z</time>
      </trkpt>
      <trkpt lat="61.55499" lon="5.78022">
        <ele>52.167784</ele>
        <time>2020-07-16T03:03:43.284Z</time>
      </trkpt>
      <trkpt lat="61.55682" lon="5.77881">
        <ele>52.762194</ele>
        <time>2020-07-16T03:04:14.011Z</time>
      </trkpt>
      <trkpt lat="61.55704" lon="5.77857">
        <ele>53.444631</ele>
        <time>2020-07-16T03:04:19.725Z</time>
      </trkpt>
      <trkpt lat="61.55735" lon="5.77806">
        <ele>54.499693</ele>
        <time>2020-07-16T03:04:32.670Z</time>
      </trkpt>
      <trkpt lat="61.55751" lon="5.77772">
        <ele>55.111048</ele>
        <time>2020-07-16T03:04:41.676Z</time>
      </trkpt>
      <trkpt lat="61.55755" lon="5.77765">
        <ele>55.241293</ele>
        <time>2020-07-16T03:04:43.548Z</time>
      </trkpt>
      <trkpt lat="61.55762" lon="5.77746">
        <ele>55.563519</ele>
        <time>2020-07-16T03:04:48.272Z</time>
      </trkpt>
      <trkpt lat="61.55821" lon="5.77635">
        <ele>62.902883</ele>
        <time>2020-07-16T03:05:21.271Z</time>
      </trkpt>
      <trkpt lat="61.55826" lon="5.7763">
        <ele>63.423552</ele>
        <time>2020-07-16T03:05:24.837Z</time>
      </trkpt>
      <trkpt lat="61.55833" lon="5.77622">
        <ele>64.170441</ele>
        <time>2020-07-16T03:05:28.481Z</time>
      </trkpt>
      <trkpt lat="61.55858" lon="5.77603">
        <ele>66.769693</ele>
        <time>2020-07-16T03:05:41.565Z</time>
      </trkpt>
      <trkpt lat="61.5587" lon="5.77597">
        <ele>67.969258</ele>
        <time>2020-07-16T03:05:49.929Z</time>
      </trkpt>
      <trkpt lat="61.55909" lon="5.77591">
        <ele>71.721754</ele>
        <time>2020-07-16T03:06:10.506Z</time>
      </trkpt>
      <trkpt lat="61.55987" lon="5.77611">
        <ele>81.459062</ele>
        <time>2020-07-16T03:06:55.579Z</time>
      </trkpt>
      <trkpt lat="61.56009" lon="5.77619">
        <ele>84.355068</ele>
        <time>2020-07-16T03:07:07.412Z</time>
      </trkpt>
      <trkpt lat="61.56012" lon="5.77621">
        <ele>84.848942</ele>
        <time>2020-07-16T03:07:10.877Z</time>
      </trkpt>
      <trkpt lat="61.56065" lon="5.77637">
        <ele>91.677812</ele>
        <time>2020-07-16T03:07:42.645Z</time>
      </trkpt>
      <trkpt lat="61.56083" lon="5.77643">
        <ele>94.098716</ele>
        <time>2020-07-16T03:07:54.109Z</time>
      </trkpt>
      <trkpt lat="61.5609" lon="5.77644">
        <ele>95.037471</ele>
        <time>2020-07-16T03:07:59.794Z</time>
      </trkpt>
      <trkpt lat="61.56142" lon="5.77648">
        <ele>100.596424</ele>
        <time>2020-07-16T03:08:29.504Z</time>
      </trkpt>
      <trkpt lat="61.56158" lon="5.77647">
        <ele>102.277775</ele>
        <time>2020-07-16T03:08:41.064Z</time>
      </trkpt>
      <trkpt lat="61.56168" lon="5.77645">
        <ele>103.2848</ele>
        <time>2020-07-16T03:08:47.348Z</time>
      </trkpt>
      <trkpt lat="61.56245" lon="5.77619">
        <ele>111.276997</ele>
        <time>2020-07-16T03:09:26.887Z</time>
      </trkpt>
      <trkpt lat="61.56318" lon="5.77568">
        <ele>115.48517</ele>
        <time>2020-07-16T03:09:52.923Z</time>
      </trkpt>
      <trkpt lat="61.56347" lon="5.77538">
        <ele>116.0277</ele>
        <time>2020-07-16T03:09:59.207Z</time>
      </trkpt>
      <trkpt lat="61.56357" lon="5.77527">
        <ele>116.224524</ele>
        <time>2020-07-16T03:10:01.934Z</time>
      </trkpt>
      <trkpt lat="61.56363" lon="5.77521">
        <ele>116.336179</ele>
        <time>2020-07-16T03:10:03.528Z</time>
      </trkpt>
      <trkpt lat="61.5638" lon="5.77506">
        <ele>116.641288</ele>
        <time>2020-07-16T03:10:06.058Z</time>
      </trkpt>
      <trkpt lat="61.56628" lon="5.77256">
        <ele>120.442039</ele>
        <time>2020-07-16T03:10:55.809Z</time>
      </trkpt>
      <trkpt lat="61.56659" lon="5.7722">
        <ele>122.909126</ele>
        <time>2020-07-16T03:11:08.824Z</time>
      </trkpt>
      <trkpt lat="61.5669" lon="5.77168">
        <ele>125.635871</ele>
        <time>2020-07-16T03:11:25.153Z</time>
      </trkpt>
      <trkpt lat="61.56727" lon="5.77076">
        <ele>129.568918</ele>
        <time>2020-07-16T03:11:52.479Z</time>
      </trkpt>
      <trkpt lat="61.56756" lon="5.76964">
        <ele>135.970808</ele>
        <time>2020-07-16T03:12:25.476Z</time>
      </trkpt>
      <trkpt lat="61.56781" lon="5.76696">
        <ele>152.168888</ele>
        <time>2020-07-16T03:13:42.713Z</time>
      </trkpt>
      <trkpt lat="61.56853" lon="5.76332">
        <ele>175.890204</ele>
        <time>2020-07-16T03:15:36.806Z</time>
      </trkpt>
      <trkpt lat="61.56882" lon="5.76255">
        <ele>178.176588</ele>
        <time>2020-07-16T03:15:58.562Z</time>
      </trkpt>
      <trkpt lat="61.56922" lon="5.76186">
        <ele>180.505772</ele>
        <time>2020-07-16T03:16:17.254Z</time>
      </trkpt>
      <trkpt lat="61.5702" lon="5.76076">
        <ele>185.437362</ele>
        <time>2020-07-16T03:16:37.953Z</time>
      </trkpt>
      <trkpt lat="61.57055" lon="5.76058">
        <ele>186.914303</ele>
        <time>2020-07-16T03:16:43.026Z</time>
      </trkpt>
      <trkpt lat="61.57061" lon="5.76058">
        <ele>187.168008</ele>
        <time>2020-07-16T03:16:43.773Z</time>
      </trkpt>
      <trkpt lat="61.57068" lon="5.76059">
        <ele>187.45045</ele>
        <time>2020-07-16T03:16:48.805Z</time>
      </trkpt>
      <trkpt lat="61.571" lon="5.76075">
        <ele>188.792144</ele>
        <time>2020-07-16T03:16:58.363Z</time>
      </trkpt>
      <trkpt lat="61.57154" lon="5.76126">
        <ele>191.206299</ele>
        <time>2020-07-16T03:17:20.133Z</time>
      </trkpt>
      <trkpt lat="61.5719" lon="5.76135">
        <ele>195.297167</ele>
        <time>2020-07-16T03:17:37.873Z</time>
      </trkpt>
      <trkpt lat="61.57197" lon="5.76141">
        <ele>196.327639</ele>
        <time>2020-07-16T03:17:39.864Z</time>
      </trkpt>
      <trkpt lat="61.57201" lon="5.76133">
        <ele>197.061525</ele>
        <time>2020-07-16T03:17:44.723Z</time>
      </trkpt>
      <trkpt lat="61.57302" lon="5.76042">
        <ele>212.522168</ele>
        <time>2020-07-16T03:19:00.516Z</time>
      </trkpt>
      <trkpt lat="61.57325" lon="5.76001">
        <ele>216.754857</ele>
        <time>2020-07-16T03:19:21.376Z</time>
      </trkpt>
      <trkpt lat="61.57381" lon="5.75835">
        <ele>228.220373</ele>
        <time>2020-07-16T03:20:24.230Z</time>
      </trkpt>
      <trkpt lat="61.574" lon="5.75796">
        <ele>231.32924</ele>
        <time>2020-07-16T03:20:38.002Z</time>
      </trkpt>
      <trkpt lat="61.57429" lon="5.75767">
        <ele>235.144838</ele>
        <time>2020-07-16T03:20:53.370Z</time>
      </trkpt>
      <trkpt lat="61.57491" lon="5.75742">
        <ele>239.563352</ele>
        <time>2020-07-16T03:21:17.652Z</time>
      </trkpt>
      <trkpt lat="61.5751" lon="5.75723">
        <ele>240.365826</ele>
        <time>2020-07-16T03:21:24.181Z</time>
      </trkpt>
      <trkpt lat="61.57538" lon="5.7567">
        <ele>241.810954</ele>
        <time>2020-07-16T03:21:34.557Z</time>
      </trkpt>
      <trkpt lat="61.5756" lon="5.75589">
        <ele>243.503385</ele>
        <time>2020-07-16T03:21:45.483Z</time>
      </trkpt>
      <trkpt lat="61.57567" lon="5.75566">
        <ele>244.002957</ele>
        <time>2020-07-16T03:21:48.902Z</time>
      </trkpt>
      <trkpt lat="61.57574" lon="5.75546">
        <ele>244.452803</ele>
        <time>2020-07-16T03:21:51.026Z</time>
      </trkpt>
      <trkpt lat="61.57611" lon="5.7548">
        <ele>246.346314</ele>
        <time>2020-07-16T03:22:03.316Z</time>
      </trkpt>
      <trkpt lat="61.57647" lon="5.7545">
        <ele>247.886176</ele>
        <time>2020-07-16T03:22:15.085Z</time>
      </trkpt>
      <trkpt lat="61.57683" lon="5.75443">
        <ele>249.309883</ele>
        <time>2020-07-16T03:22:26.091Z</time>
      </trkpt>
      <trkpt lat="61.5773" lon="5.75462">
        <ele>251.174051</ele>
        <time>2020-07-16T03:22:40.787Z</time>
      </trkpt>
      <trkpt lat="61.57742" lon="5.75473">
        <ele>251.678967</ele>
        <time>2020-07-16T03:22:45.718Z</time>
      </trkpt>
      <trkpt lat="61.57747" lon="5.7548">
        <ele>251.942099</ele>
        <time>2020-07-16T03:22:47.740Z</time>
      </trkpt>
      <trkpt lat="61.57752" lon="5.75488">
        <ele>252.286592</ele>
        <time>2020-07-16T03:22:50.487Z</time>
      </trkpt>
      <trkpt lat="61.57779" lon="5.75531">
        <ele>254.825289</ele>
        <time>2020-07-16T03:23:02.528Z</time>
      </trkpt>
      <trkpt lat="61.57792" lon="5.75572">
        <ele>256.590757</ele>
        <time>2020-07-16T03:23:11.513Z</time>
      </trkpt>
      <trkpt lat="61.57804" lon="5.75636">
        <ele>259.087396</ele>
        <time>2020-07-16T03:23:24.845Z</time>
      </trkpt>
      <trkpt lat="61.57804" lon="5.75724">
        <ele>262.298256</ele>
        <time>2020-07-16T03:23:43.333Z</time>
      </trkpt>
      <trkpt lat="61.57807" lon="5.75734">
        <ele>262.690922</ele>
        <time>2020-07-16T03:23:45.379Z</time>
      </trkpt>
      <trkpt lat="61.57818" lon="5.75736">
        <ele>263.526544</ele>
        <time>2020-07-16T03:23:50.696Z</time>
      </trkpt>
      <trkpt lat="61.57829" lon="5.75692">
        <ele>265.345091</ele>
        <time>2020-07-16T03:24:00.234Z</time>
      </trkpt>
      <trkpt lat="61.57841" lon="5.75503">
        <ele>276.240732</ele>
        <time>2020-07-16T03:24:51.759Z</time>
      </trkpt>
      <trkpt lat="61.57852" lon="5.75407">
        <ele>281.970693</ele>
        <time>2020-07-16T03:25:18.828Z</time>
      </trkpt>
      <trkpt lat="61.57862" lon="5.75328">
        <ele>286.752173</ele>
        <time>2020-07-16T03:25:42.749Z</time>
      </trkpt>
      <trkpt lat="61.57863" lon="5.7531">
        <ele>287.831043</ele>
        <time>2020-07-16T03:25:47.548Z</time>
      </trkpt>
      <trkpt lat="61.57863" lon="5.75292">
        <ele>288.949143</ele>
        <time>2020-07-16T03:25:55.403Z</time>
      </trkpt>
      <trkpt lat="61.5786" lon="5.75226">
        <ele>293.075762</ele>
        <time>2020-07-16T03:26:13.634Z</time>
      </trkpt>
      <trkpt lat="61.57845" lon="5.75125">
        <ele>299.654825</ele>
        <time>2020-07-16T03:26:45.260Z</time>
      </trkpt>
      <trkpt lat="61.57772" lon="5.74823">
        <ele>319.365425</ele>
        <time>2020-07-16T03:28:16.779Z</time>
      </trkpt>
      <trkpt lat="61.57744" lon="5.74677">
        <ele>327.824766</ele>
        <time>2020-07-16T03:28:56.395Z</time>
      </trkpt>
      <trkpt lat="61.5774" lon="5.74636">
        <ele>330.041954</ele>
        <time>2020-07-16T03:29:08.006Z</time>
      </trkpt>
      <trkpt lat="61.5773" lon="5.74556">
        <ele>333.644196</ele>
        <time>2020-07-16T03:29:27.004Z</time>
      </trkpt>
      <trkpt lat="61.57707" lon="5.744">
        <ele>339.945198</ele>
        <time>2020-07-16T03:30:02.468Z</time>
      </trkpt>
      <trkpt lat="61.5766" lon="5.7423">
        <ele>347.703116</ele>
        <time>2020-07-16T03:30:39.133Z</time>
      </trkpt>
      <trkpt lat="61.57636" lon="5.74102">
        <ele>353.583426</ele>
        <time>2020-07-16T03:31:03.077Z</time>
      </trkpt>
      <trkpt lat="61.57624" lon="5.73923">
        <ele>361.375482</ele>
        <time>2020-07-16T03:31:47.390Z</time>
      </trkpt>
      <trkpt lat="61.57631" lon="5.73811">
        <ele>368.742117</ele>
        <time>2020-07-16T03:32:20.398Z</time>
      </trkpt>
      <trkpt lat="61.57643" lon="5.73738">
        <ele>374.258102</ele>
        <time>2020-07-16T03:32:44.111Z</time>
      </trkpt>
      <trkpt lat="61.5765" lon="5.73707">
        <ele>376.668963</ele>
        <time>2020-07-16T03:32:54.686Z</time>
      </trkpt>
      <trkpt lat="61.57654" lon="5.7369">
        <ele>378.061833</ele>
        <time>2020-07-16T03:33:02.765Z</time>
      </trkpt>
      <trkpt lat="61.57668" lon="5.73611">
        <ele>384.002758</ele>
        <time>2020-07-16T03:33:29.210Z</time>
      </trkpt>
      <trkpt lat="61.57671" lon="5.7353">
        <ele>389.882395</ele>
        <time>2020-07-16T03:33:56.410Z</time>
      </trkpt>
      <trkpt lat="61.57661" lon="5.73435">
        <ele>397.548445</ele>
        <time>2020-07-16T03:34:30.499Z</time>
      </trkpt>
      <trkpt lat="61.57643" lon="5.7334">
        <ele>405.541071</ele>
        <time>2020-07-16T03:35:05.438Z</time>
      </trkpt>
      <trkpt lat="61.57641" lon="5.73299">
        <ele>408.798878</ele>
        <time>2020-07-16T03:35:18.189Z</time>
      </trkpt>
      <trkpt lat="61.57647" lon="5.72815">
        <ele>446.738975</ele>
        <time>2020-07-16T03:38:02.359Z</time>
      </trkpt>
      <trkpt lat="61.57637" lon="5.72713">
        <ele>454.276887</ele>
        <time>2020-07-16T03:38:36.648Z</time>
      </trkpt>
      <trkpt lat="61.57611" lon="5.72634">
        <ele>461.042145</ele>
        <time>2020-07-16T03:39:06.101Z</time>
      </trkpt>
      <trkpt lat="61.57574" lon="5.72574">
        <ele>468.118009</ele>
        <time>2020-07-16T03:39:34.551Z</time>
      </trkpt>
      <trkpt lat="61.57539" lon="5.72558">
        <ele>473.4416</ele>
        <time>2020-07-16T03:39:57.530Z</time>
      </trkpt>
      <trkpt lat="61.57464" lon="5.72556">
        <ele>486.330086</ele>
        <time>2020-07-16T03:40:49.014Z</time>
      </trkpt>
      <trkpt lat="61.57428" lon="5.72523">
        <ele>493.093205</ele>
        <time>2020-07-16T03:41:17.431Z</time>
      </trkpt>
      <trkpt lat="61.57418" lon="5.72502">
        <ele>495.685303</ele>
        <time>2020-07-16T03:41:29.885Z</time>
      </trkpt>
      <trkpt lat="61.5735" lon="5.72312">
        <ele>511.651567</ele>
        <time>2020-07-16T03:43:03.579Z</time>
      </trkpt>
      <trkpt lat="61.57282" lon="5.72122">
        <ele>522.412325</ele>
        <time>2020-07-16T03:44:04.276Z</time>
      </trkpt>
      <trkpt lat="61.57177" lon="5.7183">
        <ele>502.555964</ele>
        <time>2020-07-16T03:44:22.810Z</time>
      </trkpt>
      <trkpt lat="61.57132" lon="5.71707">
        <ele>484.4978</ele>
        <time>2020-07-16T03:44:30.341Z</time>
      </trkpt>
      <trkpt lat="61.57116" lon="5.71645">
        <ele>474.493017</ele>
        <time>2020-07-16T03:44:33.816Z</time>
      </trkpt>
      <trkpt lat="61.5708" lon="5.71379">
        <ele>437.39462</ele>
        <time>2020-07-16T03:44:47.410Z</time>
      </trkpt>
      <trkpt lat="61.57023" lon="5.71116">
        <ele>403.896887</ele>
        <time>2020-07-16T03:45:01.422Z</time>
      </trkpt>
      <trkpt lat="61.57005" lon="5.70839">
        <ele>390.12365</ele>
        <time>2020-07-16T03:45:15.710Z</time>
      </trkpt>
      <trkpt lat="61.57004" lon="5.7078">
        <ele>387.397926</ele>
        <time>2020-07-16T03:45:19.253Z</time>
      </trkpt>
      <trkpt lat="61.57011" lon="5.70676">
        <ele>385.464187</ele>
        <time>2020-07-16T03:45:26.709Z</time>
      </trkpt>
      <trkpt lat="61.57034" lon="5.70569">
        <ele>386.555782</ele>
        <time>2020-07-16T03:45:38.664Z</time>
      </trkpt>
      <trkpt lat="61.57108" lon="5.70402">
        <ele>388.616136</ele>
        <time>2020-07-16T03:46:12.534Z</time>
      </trkpt>
      <trkpt lat="61.57132" lon="5.7036">
        <ele>388.981328</ele>
        <time>2020-07-16T03:46:22.839Z</time>
      </trkpt>
      <trkpt lat="61.57167" lon="5.7034">
        <ele>389.393024</ele>
        <time>2020-07-16T03:46:33.609Z</time>
      </trkpt>
      <trkpt lat="61.57239" lon="5.7037">
        <ele>390.230859</ele>
        <time>2020-07-16T03:46:48.659Z</time>
      </trkpt>
      <trkpt lat="61.57259" lon="5.70367">
        <ele>390.462048</ele>
        <time>2020-07-16T03:46:51.473Z</time>
      </trkpt>
      <trkpt lat="61.5728" lon="5.70346">
        <ele>389.50498</ele>
        <time>2020-07-16T03:46:54.469Z</time>
      </trkpt>
      <trkpt lat="61.57295" lon="5.70312">
        <ele>387.736067</ele>
        <time>2020-07-16T03:46:57.215Z</time>
      </trkpt>
      <trkpt lat="61.57308" lon="5.70258">
        <ele>385.537206</ele>
        <time>2020-07-16T03:47:00.499Z</time>
      </trkpt>
      <trkpt lat="61.57308" lon="5.70077">
        <ele>378.845701</ele>
        <time>2020-07-16T03:47:09.989Z</time>
      </trkpt>
      <trkpt lat="61.57318" lon="5.70023">
        <ele>376.703462</ele>
        <time>2020-07-16T03:47:12.955Z</time>
      </trkpt>
      <trkpt lat="61.57422" lon="5.69846">
        <ele>363.990705</ele>
        <time>2020-07-16T03:47:27.473Z</time>
      </trkpt>
      <trkpt lat="61.5744" lon="5.69807">
        <ele>361.532363</ele>
        <time>2020-07-16T03:47:30.379Z</time>
      </trkpt>
      <trkpt lat="61.57449" lon="5.6976">
        <ele>359.304001</ele>
        <time>2020-07-16T03:47:33.161Z</time>
      </trkpt>
      <trkpt lat="61.57453" lon="5.69678">
        <ele>356.781723</ele>
        <time>2020-07-16T03:47:37.715Z</time>
      </trkpt>
      <trkpt lat="61.5745" lon="5.69573">
        <ele>353.563851</ele>
        <time>2020-07-16T03:47:43.520Z</time>
      </trkpt>
      <trkpt lat="61.57424" lon="5.69351">
        <ele>346.678032</ele>
        <time>2020-07-16T03:47:56.450Z</time>
      </trkpt>
      <trkpt lat="61.57421" lon="5.69336">
        <ele>346.225506</ele>
        <time>2020-07-16T03:47:57.277Z</time>
      </trkpt>
      <trkpt lat="61.57415" lon="5.69328">
        <ele>345.822695</ele>
        <time>2020-07-16T03:47:58.092Z</time>
      </trkpt>
      <trkpt lat="61.57404" lon="5.69329">
        <ele>345.179909</ele>
        <time>2020-07-16T03:47:59.439Z</time>
      </trkpt>
      <trkpt lat="61.57398" lon="5.69349">
        <ele>344.512123</ele>
        <time>2020-07-16T03:48:00.838Z</time>
      </trkpt>
      <trkpt lat="61.57414" lon="5.69445">
        <ele>341.631927</ele>
        <time>2020-07-16T03:48:06.478Z</time>
      </trkpt>
      <trkpt lat="61.57412" lon="5.695">
        <ele>340.073028</ele>
        <time>2020-07-16T03:48:09.619Z</time>
      </trkpt>
      <trkpt lat="61.57406" lon="5.69535">
        <ele>339.036296</ele>
        <time>2020-07-16T03:48:11.638Z</time>
      </trkpt>
      <trkpt lat="61.57386" lon="5.69593">
        <ele>337.02419</ele>
        <time>2020-07-16T03:48:15.620Z</time>
      </trkpt>
      <trkpt lat="61.57364" lon="5.69618">
        <ele>335.671414</ele>
        <time>2020-07-16T03:48:18.705Z</time>
      </trkpt>
      <trkpt lat="61.57342" lon="5.69618">
        <ele>334.534618</ele>
        <time>2020-07-16T03:48:21.294Z</time>
      </trkpt>
      <trkpt lat="61.57261" lon="5.69566">
        <ele>330.039172</ele>
        <time>2020-07-16T03:48:31.471Z</time>
      </trkpt>
      <trkpt lat="61.57225" lon="5.6952">
        <ele>327.823687</ele>
        <time>2020-07-16T03:48:36.540Z</time>
      </trkpt>
      <trkpt lat="61.57175" lon="5.69399">
        <ele>325.456489</ele>
        <time>2020-07-16T03:48:46.031Z</time>
      </trkpt>
      <trkpt lat="61.57154" lon="5.69384">
        <ele>324.765182</ele>
        <time>2020-07-16T03:48:49.000Z</time>
      </trkpt>
      <trkpt lat="61.57131" lon="5.69391">
        <ele>324.042375</ele>
        <time>2020-07-16T03:48:52.188Z</time>
      </trkpt>
      <trkpt lat="61.57111" lon="5.69421">
        <ele>323.29468</ele>
        <time>2020-07-16T03:48:55.610Z</time>
      </trkpt>
      <trkpt lat="61.57102" lon="5.69449">
        <ele>322.806976</ele>
        <time>2020-07-16T03:48:57.979Z</time>
      </trkpt>
      <trkpt lat="61.5708" lon="5.69568">
        <ele>321.132318</ele>
        <time>2020-07-16T03:49:07.523Z</time>
      </trkpt>
      <trkpt lat="61.57058" lon="5.69656">
        <ele>319.89192</ele>
        <time>2020-07-16T03:49:14.108Z</time>
      </trkpt>
      <trkpt lat="61.57004" lon="5.69774">
        <ele>317.869508</ele>
        <time>2020-07-16T03:49:24.544Z</time>
      </trkpt>
      <trkpt lat="61.56989" lon="5.69791">
        <ele>317.172287</ele>
        <time>2020-07-16T03:49:26.798Z</time>
      </trkpt>
      <trkpt lat="61.56985" lon="5.69795">
        <ele>316.753653</ele>
        <time>2020-07-16T03:49:27.415Z</time>
      </trkpt>
      <trkpt lat="61.56974" lon="5.69805">
        <ele>315.751771</ele>
        <time>2020-07-16T03:49:28.745Z</time>
      </trkpt>
      <trkpt lat="61.56943" lon="5.69817">
        <ele>313.05569</ele>
        <time>2020-07-16T03:49:32.431Z</time>
      </trkpt>
      <trkpt lat="61.56916" lon="5.69796">
        <ele>310.525351</ele>
        <time>2020-07-16T03:49:35.751Z</time>
      </trkpt>
      <trkpt lat="61.56904" lon="5.69757">
        <ele>308.591027</ele>
        <time>2020-07-16T03:49:38.179Z</time>
      </trkpt>
      <trkpt lat="61.56897" lon="5.69687">
        <ele>305.66723</ele>
        <time>2020-07-16T03:49:41.816Z</time>
      </trkpt>
      <trkpt lat="61.56889" lon="5.69589">
        <ele>301.449359</ele>
        <time>2020-07-16T03:49:46.861Z</time>
      </trkpt>
      <trkpt lat="61.56876" lon="5.69421">
        <ele>292.068651</ele>
        <time>2020-07-16T03:49:55.519Z</time>
      </trkpt>
      <trkpt lat="61.56871" lon="5.69284">
        <ele>284.508391</ele>
        <time>2020-07-16T03:50:02.484Z</time>
      </trkpt>
      <trkpt lat="61.56899" lon="5.68934">
        <ele>267.689708</ele>
        <time>2020-07-16T03:50:21.059Z</time>
      </trkpt>
      <trkpt lat="61.56958" lon="5.68592">
        <ele>251.589591</ele>
        <time>2020-07-16T03:50:40.320Z</time>
      </trkpt>
      <trkpt lat="61.56955" lon="5.68529">
        <ele>248.827903</ele>
        <time>2020-07-16T03:50:43.600Z</time>
      </trkpt>
      <trkpt lat="61.56941" lon="5.68412">
        <ele>242.584841</ele>
        <time>2020-07-16T03:50:49.908Z</time>
      </trkpt>
      <trkpt lat="61.56931" lon="5.68328">
        <ele>237.836017</ele>
        <time>2020-07-16T03:50:54.307Z</time>
      </trkpt>
      <trkpt lat="61.56925" lon="5.68262">
        <ele>234.12089</ele>
        <time>2020-07-16T03:50:57.735Z</time>
      </trkpt>
      <trkpt lat="61.5691" lon="5.68131">
        <ele>226.747813</ele>
        <time>2020-07-16T03:51:04.576Z</time>
      </trkpt>
      <trkpt lat="61.56903" lon="5.6809">
        <ele>224.438904</ele>
        <time>2020-07-16T03:51:06.770Z</time>
      </trkpt>
      <trkpt lat="61.56894" lon="5.68048">
        <ele>221.972895</ele>
        <time>2020-07-16T03:51:09.114Z</time>
      </trkpt>
      <trkpt lat="61.5686" lon="5.67934">
        <ele>214.898082</ele>
        <time>2020-07-16T03:51:15.972Z</time>
      </trkpt>
      <trkpt lat="61.56793" lon="5.67775">
        <ele>204.234495</ele>
        <time>2020-07-16T03:51:26.929Z</time>
      </trkpt>
      <trkpt lat="61.56778" lon="5.677">
        <ele>200.834469</ele>
        <time>2020-07-16T03:51:31.254Z</time>
      </trkpt>
      <trkpt lat="61.56762" lon="5.6753">
        <ele>193.564951</ele>
        <time>2020-07-16T03:51:40.522Z</time>
      </trkpt>
      <trkpt lat="61.56717" lon="5.67367">
        <ele>186.189227</ele>
        <time>2020-07-16T03:51:50.564Z</time>
      </trkpt>
      <trkpt lat="61.56646" lon="5.66983">
        <ele>171.026454</ele>
        <time>2020-07-16T03:52:12.754Z</time>
      </trkpt>
      <trkpt lat="61.56632" lon="5.66825">
        <ele>165.423452</ele>
        <time>2020-07-16T03:52:21.510Z</time>
      </trkpt>
      <trkpt lat="61.56628" lon="5.66691">
        <ele>161.629087</ele>
        <time>2020-07-16T03:52:28.900Z</time>
      </trkpt>
      <trkpt lat="61.56634" lon="5.66635">
        <ele>160.317316</ele>
        <time>2020-07-16T03:52:32.162Z</time>
      </trkpt>
      <trkpt lat="61.56657" lon="5.66522">
        <ele>157.524826</ele>
        <time>2020-07-16T03:52:39.360Z</time>
      </trkpt>
      <trkpt lat="61.56663" lon="5.665">
        <ele>156.941642</ele>
        <time>2020-07-16T03:52:40.892Z</time>
      </trkpt>
      <trkpt lat="61.56672" lon="5.66479">
        <ele>156.319174</ele>
        <time>2020-07-16T03:52:42.520Z</time>
      </trkpt>
      <trkpt lat="61.56708" lon="5.66394">
        <ele>154.435881</ele>
        <time>2020-07-16T03:52:49.818Z</time>
      </trkpt>
      <trkpt lat="61.56717" lon="5.66367">
        <ele>154.235888</ele>
        <time>2020-07-16T03:52:51.883Z</time>
      </trkpt>
      <trkpt lat="61.56724" lon="5.6634">
        <ele>154.05198</ele>
        <time>2020-07-16T03:52:54.083Z</time>
      </trkpt>
      <trkpt lat="61.5673" lon="5.6631">
        <ele>153.857426</ele>
        <time>2020-07-16T03:52:56.187Z</time>
      </trkpt>
      <trkpt lat="61.56733" lon="5.66285">
        <ele>153.69946</ele>
        <time>2020-07-16T03:52:57.996Z</time>
      </trkpt>
      <trkpt lat="61.56735" lon="5.66261">
        <ele>153.551644</ele>
        <time>2020-07-16T03:52:59.823Z</time>
      </trkpt>
      <trkpt lat="61.56736" lon="5.66231">
        <ele>153.364991</ele>
        <time>2020-07-16T03:53:01.931Z</time>
      </trkpt>
      <trkpt lat="61.56737" lon="5.66211">
        <ele>153.246269</ele>
        <time>2020-07-16T03:53:03.397Z</time>
      </trkpt>
      <trkpt lat="61.5673" lon="5.66125">
        <ele>152.716422</ele>
        <time>2020-07-16T03:53:10.717Z</time>
      </trkpt>
      <trkpt lat="61.56726" lon="5.66094">
        <ele>152.517431</ele>
        <time>2020-07-16T03:53:13.441Z</time>
      </trkpt>
      <trkpt lat="61.56713" lon="5.66016">
        <ele>152.470776</ele>
        <time>2020-07-16T03:53:20.896Z</time>
      </trkpt>
      <trkpt lat="61.56707" lon="5.65965">
        <ele>152.530068</ele>
        <time>2020-07-16T03:53:25.647Z</time>
      </trkpt>
      <trkpt lat="61.56701" lon="5.65903">
        <ele>152.60024</ele>
        <time>2020-07-16T03:53:31.182Z</time>
      </trkpt>
      <trkpt lat="61.56706" lon="5.65806">
        <ele>152.709689</ele>
        <time>2020-07-16T03:53:39.793Z</time>
      </trkpt>
      <trkpt lat="61.56709" lon="5.65762">
        <ele>152.760491</ele>
        <time>2020-07-16T03:53:43.920Z</time>
      </trkpt>
      <trkpt lat="61.56713" lon="5.65732">
        <ele>152.795129</ele>
        <time>2020-07-16T03:53:46.693Z</time>
      </trkpt>
      <trkpt lat="61.56776" lon="5.65475">
        <ele>153.015967</ele>
        <time>2020-07-16T03:54:12.085Z</time>
      </trkpt>
      <trkpt lat="61.56808" lon="5.65353">
        <ele>153.114545</ele>
        <time>2020-07-16T03:54:23.986Z</time>
      </trkpt>
      <trkpt lat="61.56824" lon="5.65281">
        <ele>153.161316</ele>
        <time>2020-07-16T03:54:30.810Z</time>
      </trkpt>
      <trkpt lat="61.56845" lon="5.65159">
        <ele>153.238386</ele>
        <time>2020-07-16T03:54:42.282Z</time>
      </trkpt>
      <trkpt lat="61.56853" lon="5.65085">
        <ele>153.283693</ele>
        <time>2020-07-16T03:54:49.066Z</time>
      </trkpt>
      <trkpt lat="61.56858" lon="5.65024">
        <ele>153.320008</ele>
        <time>2020-07-16T03:54:54.446Z</time>
      </trkpt>
      <trkpt lat="61.56856" lon="5.64901">
        <ele>152.975372</ele>
        <time>2020-07-16T03:55:04.809Z</time>
      </trkpt>
      <trkpt lat="61.56854" lon="5.64841">
        <ele>152.791593</ele>
        <time>2020-07-16T03:55:09.699Z</time>
      </trkpt>
      <trkpt lat="61.5685" lon="5.6479">
        <ele>152.636304</ele>
        <time>2020-07-16T03:55:13.644Z</time>
      </trkpt>
      <trkpt lat="61.56834" lon="5.64661">
        <ele>152.237452</ele>
        <time>2020-07-16T03:55:23.400Z</time>
      </trkpt>
      <trkpt lat="61.56779" lon="5.64318">
        <ele>149.797764</ele>
        <time>2020-07-16T03:55:48.521Z</time>
      </trkpt>
      <trkpt lat="61.56757" lon="5.64181">
        <ele>149.285445</ele>
        <time>2020-07-16T03:55:58.959Z</time>
      </trkpt>
      <trkpt lat="61.56721" lon="5.63932">
        <ele>148.625096</ele>
        <time>2020-07-16T03:56:19.675Z</time>
      </trkpt>
      <trkpt lat="61.56716" lon="5.63712">
        <ele>149.694676</ele>
        <time>2020-07-16T03:56:41.500Z</time>
      </trkpt>
      <trkpt lat="61.56706" lon="5.63688">
        <ele>149.857365</ele>
        <time>2020-07-16T03:56:44.840Z</time>
      </trkpt>
      <trkpt lat="61.56721" lon="5.6365">
        <ele>150.104012</ele>
        <time>2020-07-16T03:56:50.281Z</time>
      </trkpt>
      <trkpt lat="61.56752" lon="5.63555">
        <ele>150.713475</ele>
        <time>2020-07-16T03:57:02.883Z</time>
      </trkpt>
      <trkpt lat="61.56804" lon="5.63368">
        <ele>152.029064</ele>
        <time>2020-07-16T03:57:26.833Z</time>
      </trkpt>
      <trkpt lat="61.56823" lon="5.63276">
        <ele>152.639945</ele>
        <time>2020-07-16T03:57:36.593Z</time>
      </trkpt>
      <trkpt lat="61.56832" lon="5.63184">
        <ele>152.819645</ele>
        <time>2020-07-16T03:57:45.175Z</time>
      </trkpt>
      <trkpt lat="61.56831" lon="5.63098">
        <ele>152.834906</ele>
        <time>2020-07-16T03:57:52.542Z</time>
      </trkpt>
      <trkpt lat="61.56805" lon="5.62865">
        <ele>152.909833</ele>
        <time>2020-07-16T03:58:12.036Z</time>
      </trkpt>
      <trkpt lat="61.56803" lon="5.62754">
        <ele>153.185795</ele>
        <time>2020-07-16T03:58:21.559Z</time>
      </trkpt>
      <trkpt lat="61.56809" lon="5.62675">
        <ele>153.383034</ele>
        <time>2020-07-16T03:58:28.780Z</time>
      </trkpt>
      <trkpt lat="61.56876" lon="5.62343">
        <ele>154.905556</ele>
        <time>2020-07-16T03:59:05.563Z</time>
      </trkpt>
      <trkpt lat="61.56882" lon="5.62273">
        <ele>155.31761</ele>
        <time>2020-07-16T03:59:13.114Z</time>
      </trkpt>
      <trkpt lat="61.56879" lon="5.62155">
        <ele>156.005557</ele>
        <time>2020-07-16T03:59:25.504Z</time>
      </trkpt>
      <trkpt lat="61.56866" lon="5.62082">
        <ele>156.319743</ele>
        <time>2020-07-16T03:59:33.474Z</time>
      </trkpt>
      <trkpt lat="61.56822" lon="5.61889">
        <ele>157.177487</ele>
        <time>2020-07-16T03:59:54.476Z</time>
      </trkpt>
      <trkpt lat="61.56812" lon="5.61792">
        <ele>157.549269</ele>
        <time>2020-07-16T04:00:03.688Z</time>
      </trkpt>
      <trkpt lat="61.56811" lon="5.61722">
        <ele>157.683565</ele>
        <time>2020-07-16T04:00:10.061Z</time>
      </trkpt>
      <trkpt lat="61.5681" lon="5.6155">
        <ele>158.013843</ele>
        <time>2020-07-16T04:00:25.678Z</time>
      </trkpt>
      <trkpt lat="61.56809" lon="5.61469">
        <ele>158.169485</ele>
        <time>2020-07-16T04:00:33.030Z</time>
      </trkpt>
      <trkpt lat="61.56811" lon="5.61339">
        <ele>158.399163</ele>
        <time>2020-07-16T04:00:44.812Z</time>
      </trkpt>
      <trkpt lat="61.56831" lon="5.61206">
        <ele>158.633008</ele>
        <time>2020-07-16T04:00:57.553Z</time>
      </trkpt>
      <trkpt lat="61.56851" lon="5.6114">
        <ele>158.766009</ele>
        <time>2020-07-16T04:01:04.767Z</time>
      </trkpt>
      <trkpt lat="61.56925" lon="5.60958">
        <ele>158.868792</ele>
        <time>2020-07-16T04:01:25.843Z</time>
      </trkpt>
      <trkpt lat="61.56947" lon="5.60851">
        <ele>158.856418</ele>
        <time>2020-07-16T04:01:35.618Z</time>
      </trkpt>
      <trkpt lat="61.5695" lon="5.60765">
        <ele>158.847233</ele>
        <time>2020-07-16T04:01:42.676Z</time>
      </trkpt>
      <trkpt lat="61.56945" lon="5.60686">
        <ele>158.648397</ele>
        <time>2020-07-16T04:01:49.035Z</time>
      </trkpt>
      <trkpt lat="61.56906" lon="5.60489">
        <ele>158.06659</ele>
        <time>2020-07-16T04:02:05.431Z</time>
      </trkpt>
      <trkpt lat="61.56896" lon="5.60415">
        <ele>157.854306</ele>
        <time>2020-07-16T04:02:11.288Z</time>
      </trkpt>
      <trkpt lat="61.56892" lon="5.60311">
        <ele>157.751028</ele>
        <time>2020-07-16T04:02:19.221Z</time>
      </trkpt>
      <trkpt lat="61.56896" lon="5.60215">
        <ele>157.683124</ele>
        <time>2020-07-16T04:02:27.096Z</time>
      </trkpt>
      <trkpt lat="61.56906" lon="5.60086">
        <ele>157.592049</ele>
        <time>2020-07-16T04:02:38.170Z</time>
      </trkpt>
      <trkpt lat="61.5691" lon="5.60042">
        <ele>157.56029</ele>
        <time>2020-07-16T04:02:42.210Z</time>
      </trkpt>
      <trkpt lat="61.56916" lon="5.5996">
        <ele>157.749279</ele>
        <time>2020-07-16T04:02:49.852Z</time>
      </trkpt>
      <trkpt lat="61.56918" lon="5.59887">
        <ele>157.973543</ele>
        <time>2020-07-16T04:02:56.805Z</time>
      </trkpt>
      <trkpt lat="61.56909" lon="5.59784">
        <ele>158.292603</ele>
        <time>2020-07-16T04:03:07.119Z</time>
      </trkpt>
      <trkpt lat="61.56895" lon="5.59712">
        <ele>158.530245</ele>
        <time>2020-07-16T04:03:15.010Z</time>
      </trkpt>
      <trkpt lat="61.56852" lon="5.59548">
        <ele>158.452774</ele>
        <time>2020-07-16T04:03:31.900Z</time>
      </trkpt>
      <trkpt lat="61.56846" lon="5.59511">
        <ele>158.37872</ele>
        <time>2020-07-16T04:03:35.288Z</time>
      </trkpt>
      <trkpt lat="61.56843" lon="5.5949">
        <ele>158.338605</ele>
        <time>2020-07-16T04:03:36.971Z</time>
      </trkpt>
      <trkpt lat="61.56841" lon="5.59469">
        <ele>158.298402</ele>
        <time>2020-07-16T04:03:38.721Z</time>
      </trkpt>
      <trkpt lat="61.5684" lon="5.5944">
        <ele>158.243092</ele>
        <time>2020-07-16T04:03:41.149Z</time>
      </trkpt>
      <trkpt lat="61.56839" lon="5.59407">
        <ele>158.180551</ele>
        <time>2020-07-16T04:03:43.687Z</time>
      </trkpt>
      <trkpt lat="61.5686" lon="5.59087">
        <ele>154.703821</ele>
        <time>2020-07-16T04:04:06.166Z</time>
      </trkpt>
      <trkpt lat="61.56859" lon="5.58957">
        <ele>152.766642</ele>
        <time>2020-07-16T04:04:13.900Z</time>
      </trkpt>
      <trkpt lat="61.56855" lon="5.58913">
        <ele>151.472865</ele>
        <time>2020-07-16T04:04:16.428Z</time>
      </trkpt>
      <trkpt lat="61.56848" lon="5.5885">
        <ele>148.226593</ele>
        <time>2020-07-16T04:04:19.950Z</time>
      </trkpt>
      <trkpt lat="61.56842" lon="5.58714">
        <ele>141.311391</ele>
        <time>2020-07-16T04:04:27.201Z</time>
      </trkpt>
      <trkpt lat="61.56866" lon="5.58404">
        <ele>121.735294</ele>
        <time>2020-07-16T04:04:42.812Z</time>
      </trkpt>
      <trkpt lat="61.5687" lon="5.58275">
        <ele>112.074813</ele>
        <time>2020-07-16T04:04:49.135Z</time>
      </trkpt>
      <trkpt lat="61.56871" lon="5.58212">
        <ele>107.369787</ele>
        <time>2020-07-16T04:04:52.236Z</time>
      </trkpt>
      <trkpt lat="61.56868" lon="5.58126">
        <ele>102.601883</ele>
        <time>2020-07-16T04:04:56.575Z</time>
      </trkpt>
      <trkpt lat="61.56863" lon="5.58">
        <ele>96.979334</ele>
        <time>2020-07-16T04:05:02.993Z</time>
      </trkpt>
      <trkpt lat="61.56862" lon="5.57952">
        <ele>94.851228</ele>
        <time>2020-07-16T04:05:05.501Z</time>
      </trkpt>
      <trkpt lat="61.5687" lon="5.57832">
        <ele>89.462922</ele>
        <time>2020-07-16T04:05:12.293Z</time>
      </trkpt>
      <trkpt lat="61.56912" lon="5.57568">
        <ele>85.299133</ele>
        <time>2020-07-16T04:05:31.702Z</time>
      </trkpt>
      <trkpt lat="61.56917" lon="5.57464">
        <ele>84.053925</ele>
        <time>2020-07-16T04:05:38.440Z</time>
      </trkpt>
      <trkpt lat="61.56916" lon="5.57431">
        <ele>83.587321</ele>
        <time>2020-07-16T04:05:40.551Z</time>
      </trkpt>
      <trkpt lat="61.56915" lon="5.5738">
        <ele>82.70623</ele>
        <time>2020-07-16T04:05:43.660Z</time>
      </trkpt>
      <trkpt lat="61.56913" lon="5.57328">
        <ele>81.795246</ele>
        <time>2020-07-16T04:05:46.738Z</time>
      </trkpt>
      <trkpt lat="61.56918" lon="5.57192">
        <ele>79.41865</ele>
        <time>2020-07-16T04:05:54.871Z</time>
      </trkpt>
      <trkpt lat="61.56928" lon="5.57092">
        <ele>77.646332</ele>
        <time>2020-07-16T04:06:00.968Z</time>
      </trkpt>
      <trkpt lat="61.56934" lon="5.5705">
        <ele>77.137571</ele>
        <time>2020-07-16T04:06:03.580Z</time>
      </trkpt>
      <trkpt lat="61.56943" lon="5.57001">
        <ele>76.885856</ele>
        <time>2020-07-16T04:06:07.065Z</time>
      </trkpt>
      <trkpt lat="61.56998" lon="5.56749">
        <ele>75.561201</ele>
        <time>2020-07-16T04:06:28.701Z</time>
      </trkpt>
      <trkpt lat="61.57013" lon="5.56647">
        <ele>75.672071</ele>
        <time>2020-07-16T04:06:38.972Z</time>
      </trkpt>
      <trkpt lat="61.57015" lon="5.56619">
        <ele>75.759921</ele>
        <time>2020-07-16T04:06:42.065Z</time>
      </trkpt>
      <trkpt lat="61.57015" lon="5.56586">
        <ele>75.86347</ele>
        <time>2020-07-16T04:06:44.996Z</time>
      </trkpt>
      <trkpt lat="61.57006" lon="5.56476">
        <ele>76.212653</ele>
        <time>2020-07-16T04:06:56.002Z</time>
      </trkpt>
      <trkpt lat="61.56972" lon="5.56324">
        <ele>76.750471</ele>
        <time>2020-07-16T04:07:12.200Z</time>
      </trkpt>
      <trkpt lat="61.56957" lon="5.56232">
        <ele>77.082923</ele>
        <time>2020-07-16T04:07:21.016Z</time>
      </trkpt>
      <trkpt lat="61.56941" lon="5.55909">
        <ele>78.259958</ele>
        <time>2020-07-16T04:07:52.537Z</time>
      </trkpt>
      <trkpt lat="61.56941" lon="5.5583">
        <ele>78.590354</ele>
        <time>2020-07-16T04:08:00.468Z</time>
      </trkpt>
      <trkpt lat="61.56943" lon="5.55801">
        <ele>78.712621</ele>
        <time>2020-07-16T04:08:03.302Z</time>
      </trkpt>
      <trkpt lat="61.56946" lon="5.55768">
        <ele>78.8496</ele>
        <time>2020-07-16T04:08:06.740Z</time>
      </trkpt>
      <trkpt lat="61.5696" lon="5.55683">
        <ele>79.227697</ele>
        <time>2020-07-16T04:08:15.706Z</time>
      </trkpt>
      <trkpt lat="61.57" lon="5.55507">
        <ele>79.468784</ele>
        <time>2020-07-16T04:08:34.452Z</time>
      </trkpt>
      <trkpt lat="61.57031" lon="5.55338">
        <ele>79.45845</ele>
        <time>2020-07-16T04:08:49.591Z</time>
      </trkpt>
      <trkpt lat="61.57064" lon="5.55075">
        <ele>77.352154</ele>
        <time>2020-07-16T04:09:09.321Z</time>
      </trkpt>
      <trkpt lat="61.57095" lon="5.54977">
        <ele>76.176287</ele>
        <time>2020-07-16T04:09:16.934Z</time>
      </trkpt>
      <trkpt lat="61.57191" lon="5.54812">
        <ele>70.363489</ele>
        <time>2020-07-16T04:09:32.216Z</time>
      </trkpt>
      <trkpt lat="61.57191" lon="5.54812">
        <ele>70.360964</ele>
        <time>2020-07-16T04:09:32.232Z</time>
      </trkpt>
      <trkpt lat="61.57225" lon="5.54756">
        <ele>68.051268</ele>
        <time>2020-07-16T04:09:37.387Z</time>
      </trkpt>
      <trkpt lat="61.57279" lon="5.54656">
        <ele>64.141782</ele>
        <time>2020-07-16T04:09:45.674Z</time>
      </trkpt>
      <trkpt lat="61.57324" lon="5.54551">
        <ele>60.430111</ele>
        <time>2020-07-16T04:09:53.453Z</time>
      </trkpt>
      <trkpt lat="61.57353" lon="5.54477">
        <ele>57.89408</ele>
        <time>2020-07-16T04:09:58.979Z</time>
      </trkpt>
      <trkpt lat="61.57378" lon="5.5441">
        <ele>56.084115</ele>
        <time>2020-07-16T04:10:04.057Z</time>
      </trkpt>
      <trkpt lat="61.57425" lon="5.54256">
        <ele>55.346839</ele>
        <time>2020-07-16T04:10:16.326Z</time>
      </trkpt>
      <trkpt lat="61.57435" lon="5.54214">
        <ele>55.16073</ele>
        <time>2020-07-16T04:10:20.237Z</time>
      </trkpt>
      <trkpt lat="61.57443" lon="5.54174">
        <ele>54.985376</ele>
        <time>2020-07-16T04:10:24.727Z</time>
      </trkpt>
      <trkpt lat="61.57451" lon="5.54121">
        <ele>54.761917</ele>
        <time>2020-07-16T04:10:30.685Z</time>
      </trkpt>
      <trkpt lat="61.57457" lon="5.54076">
        <ele>54.94341</ele>
        <time>2020-07-16T04:10:35.957Z</time>
      </trkpt>
      <trkpt lat="61.57459" lon="5.54057">
        <ele>55.285468</ele>
        <time>2020-07-16T04:10:38.207Z</time>
      </trkpt>
      <trkpt lat="61.57465" lon="5.53989">
        <ele>56.497267</ele>
        <time>2020-07-16T04:10:46.533Z</time>
      </trkpt>
      <trkpt lat="61.57475" lon="5.53745">
        <ele>60.750472</ele>
        <time>2020-07-16T04:11:21.409Z</time>
      </trkpt>
      <trkpt lat="61.57481" lon="5.53688">
        <ele>62.217594</ele>
        <time>2020-07-16T04:11:32.376Z</time>
      </trkpt>
      <trkpt lat="61.57496" lon="5.53599">
        <ele>65.276901</ele>
        <time>2020-07-16T04:11:49.970Z</time>
      </trkpt>
      <trkpt lat="61.57507" lon="5.53555">
        <ele>66.88407</ele>
        <time>2020-07-16T04:11:58.891Z</time>
      </trkpt>
      <trkpt lat="61.57523" lon="5.53496">
        <ele>69.058903</ele>
        <time>2020-07-16T04:12:11.838Z</time>
      </trkpt>
      <trkpt lat="61.57536" lon="5.53441">
        <ele>71.025828</ele>
        <time>2020-07-16T04:12:24.033Z</time>
      </trkpt>
      <trkpt lat="61.57544" lon="5.53399">
        <ele>72.491287</ele>
        <time>2020-07-16T04:12:33.107Z</time>
      </trkpt>
      <trkpt lat="61.57552" lon="5.53349">
        <ele>74.258742</ele>
        <time>2020-07-16T04:12:43.580Z</time>
      </trkpt>
      <trkpt lat="61.57559" lon="5.53241">
        <ele>78.036803</ele>
        <time>2020-07-16T04:13:07.007Z</time>
      </trkpt>
      <trkpt lat="61.5756" lon="5.52873">
        <ele>90.595069</ele>
        <time>2020-07-16T04:14:16.963Z</time>
      </trkpt>
      <trkpt lat="61.57582" lon="5.52602">
        <ele>99.424617</ele>
        <time>2020-07-16T04:15:09.652Z</time>
      </trkpt>
      <trkpt lat="61.57584" lon="5.52475">
        <ele>102.475929</ele>
        <time>2020-07-16T04:15:32.394Z</time>
      </trkpt>
      <trkpt lat="61.57572" lon="5.52373">
        <ele>104.999896</ele>
        <time>2020-07-16T04:15:49.872Z</time>
      </trkpt>
      <trkpt lat="61.57515" lon="5.52045">
        <ele>110.819404</ele>
        <time>2020-07-16T04:16:36.554Z</time>
      </trkpt>
      <trkpt lat="61.57469" lon="5.51723">
        <ele>114.658978</ele>
        <time>2020-07-16T04:17:14.242Z</time>
      </trkpt>
      <trkpt lat="61.57455" lon="5.51543">
        <ele>116.552608</ele>
        <time>2020-07-16T04:17:36.650Z</time>
      </trkpt>
      <trkpt lat="61.5746" lon="5.51405">
        <ele>118.124364</ele>
        <time>2020-07-16T04:17:53.934Z</time>
      </trkpt>
      <trkpt lat="61.57463" lon="5.51369">
        <ele>118.540701</ele>
        <time>2020-07-16T04:17:58.893Z</time>
      </trkpt>
      <trkpt lat="61.57469" lon="5.51329">
        <ele>119.028535</ele>
        <time>2020-07-16T04:18:04.162Z</time>
      </trkpt>
      <trkpt lat="61.57476" lon="5.51288">
        <ele>119.529341</ele>
        <time>2020-07-16T04:18:09.817Z</time>
      </trkpt>
      <trkpt lat="61.57483" lon="5.51254">
        <ele>119.958256</ele>
        <time>2020-07-16T04:18:14.244Z</time>
      </trkpt>
      <trkpt lat="61.57496" lon="5.51267">
        <ele>120.290113</ele>
        <time>2020-07-16T04:18:17.940Z</time>
      </trkpt>
      <trkpt lat="61.57499" lon="5.51267">
        <ele>120.367375</ele>
        <time>2020-07-16T04:18:18.826Z</time>
      </trkpt>
      <trkpt lat="61.57504" lon="5.5126">
        <ele>120.520754</ele>
        <time>2020-07-16T04:18:20.365Z</time>
      </trkpt>
      <trkpt lat="61.57514" lon="5.51224">
        <ele>120.991047</ele>
        <time>2020-07-16T04:18:25.224Z</time>
      </trkpt>
      <trkpt lat="61.57544" lon="5.51134">
        <ele>120.971545</ele>
        <time>2020-07-16T04:18:37.723Z</time>
      </trkpt>
      <trkpt lat="61.57688" lon="5.50814">
        <ele>118.39081</ele>
        <time>2020-07-16T04:19:11.754Z</time>
      </trkpt>
      <trkpt lat="61.57792" lon="5.50649">
        <ele>113.362613</ele>
        <time>2020-07-16T04:19:28.554Z</time>
      </trkpt>
      <trkpt lat="61.57818" lon="5.50592">
        <ele>110.949593</ele>
        <time>2020-07-16T04:19:33.170Z</time>
      </trkpt>
      <trkpt lat="61.57872" lon="5.5043">
        <ele>104.918398</ele>
        <time>2020-07-16T04:19:44.542Z</time>
      </trkpt>
      <trkpt lat="61.57971" lon="5.50065">
        <ele>90.96508</ele>
        <time>2020-07-16T04:20:08.461Z</time>
      </trkpt>
      <trkpt lat="61.57988" lon="5.49983">
        <ele>88.763795</ele>
        <time>2020-07-16T04:20:13.734Z</time>
      </trkpt>
      <trkpt lat="61.58003" lon="5.49859">
        <ele>85.629941</ele>
        <time>2020-07-16T04:20:21.485Z</time>
      </trkpt>
      <trkpt lat="61.58013" lon="5.49771">
        <ele>83.434932</ele>
        <time>2020-07-16T04:20:27.113Z</time>
      </trkpt>
      <trkpt lat="61.58024" lon="5.49677">
        <ele>81.442276</ele>
        <time>2020-07-16T04:20:33.221Z</time>
      </trkpt>
      <trkpt lat="61.58035" lon="5.49605">
        <ele>80.439666</ele>
        <time>2020-07-16T04:20:37.924Z</time>
      </trkpt>
      <trkpt lat="61.5805" lon="5.49533">
        <ele>79.385861</ele>
        <time>2020-07-16T04:20:42.925Z</time>
      </trkpt>
      <trkpt lat="61.58068" lon="5.49478">
        <ele>78.480251</ele>
        <time>2020-07-16T04:20:47.355Z</time>
      </trkpt>
      <trkpt lat="61.58096" lon="5.49407">
        <ele>77.234625</ele>
        <time>2020-07-16T04:20:53.794Z</time>
      </trkpt>
      <trkpt lat="61.58131" lon="5.4933">
        <ele>77.3987</ele>
        <time>2020-07-16T04:21:02.975Z</time>
      </trkpt>
      <trkpt lat="61.58168" lon="5.49267">
        <ele>78.134393</ele>
        <time>2020-07-16T04:21:12.934Z</time>
      </trkpt>
      <trkpt lat="61.58169" lon="5.49257">
        <ele>78.204866</ele>
        <time>2020-07-16T04:21:13.811Z</time>
      </trkpt>
      <trkpt lat="61.58162" lon="5.49236">
        <ele>78.387278</ele>
        <time>2020-07-16T04:21:15.838Z</time>
      </trkpt>
      <trkpt lat="61.58221" lon="5.49113">
        <ele>79.797483</ele>
        <time>2020-07-16T04:21:38.995Z</time>
      </trkpt>
      <trkpt lat="61.58279" lon="5.48979">
        <ele>84.541093</ele>
        <time>2020-07-16T04:22:08.679Z</time>
      </trkpt>
      <trkpt lat="61.58285" lon="5.48993">
        <ele>85.051959</ele>
        <time>2020-07-16T04:22:13.737Z</time>
      </trkpt>
      <trkpt lat="61.5829" lon="5.48986">
        <ele>85.402533</ele>
        <time>2020-07-16T04:22:16.245Z</time>
      </trkpt>
      <trkpt lat="61.58294" lon="5.48975">
        <ele>85.762172</ele>
        <time>2020-07-16T04:22:18.593Z</time>
      </trkpt>
      <trkpt lat="61.5831" lon="5.48952">
        <ele>86.822839</ele>
        <time>2020-07-16T04:22:26.573Z</time>
      </trkpt>
      <trkpt lat="61.58309" lon="5.48928">
        <ele>87.458485</ele>
        <time>2020-07-16T04:22:31.311Z</time>
      </trkpt>
      <trkpt lat="61.58307" lon="5.48923">
        <ele>87.664357</ele>
        <time>2020-07-16T04:22:32.748Z</time>
      </trkpt>
      <trkpt lat="61.58297" lon="5.48906">
        <ele>88.363216</ele>
        <time>2020-07-16T04:22:35.777Z</time>
      </trkpt>
      <trkpt lat="61.58294" lon="5.48899">
        <ele>88.62273</ele>
        <time>2020-07-16T04:22:39.036Z</time>
      </trkpt>
      <trkpt lat="61.58297" lon="5.48876">
        <ele>89.257525</ele>
        <time>2020-07-16T04:22:43.667Z</time>
      </trkpt>
      <trkpt lat="61.58334" lon="5.48807">
        <ele>90.787171</ele>
        <time>2020-07-16T04:23:00.336Z</time>
      </trkpt>
      <trkpt lat="61.5837" lon="5.4869">
        <ele>92.666048</ele>
        <time>2020-07-16T04:23:21.719Z</time>
      </trkpt>
      <trkpt lat="61.58395" lon="5.48605">
        <ele>94.011122</ele>
        <time>2020-07-16T04:23:34.424Z</time>
      </trkpt>
      <trkpt lat="61.58452" lon="5.48413">
        <ele>90.138157</ele>
        <time>2020-07-16T04:23:49.237Z</time>
      </trkpt>
      <trkpt lat="61.58482" lon="5.48331">
        <ele>87.571211</ele>
        <time>2020-07-16T04:23:55.229Z</time>
      </trkpt>
      <trkpt lat="61.58493" lon="5.48328">
        <ele>87.009564</ele>
        <time>2020-07-16T04:23:56.471Z</time>
      </trkpt>
      <trkpt lat="61.58495" lon="5.48299">
        <ele>86.279234</ele>
        <time>2020-07-16T04:23:58.006Z</time>
      </trkpt>
      <trkpt lat="61.58507" lon="5.48243">
        <ele>84.471458</ele>
        <time>2020-07-16T04:24:01.274Z</time>
      </trkpt>
      <trkpt lat="61.58531" lon="5.48188">
        <ele>81.535969</ele>
        <time>2020-07-16T04:24:05.214Z</time>
      </trkpt>
      <trkpt lat="61.58557" lon="5.4815">
        <ele>78.94563</ele>
        <time>2020-07-16T04:24:08.677Z</time>
      </trkpt>
      <trkpt lat="61.58651" lon="5.48052">
        <ele>70.294805</ele>
        <time>2020-07-16T04:24:20.485Z</time>
      </trkpt>
      <trkpt lat="61.58676" lon="5.48012">
        <ele>68.137459</ele>
        <time>2020-07-16T04:24:24.127Z</time>
      </trkpt>
      <trkpt lat="61.58695" lon="5.4796">
        <ele>66.007564</ele>
        <time>2020-07-16T04:24:27.735Z</time>
      </trkpt>
      <trkpt lat="61.58709" lon="5.47886">
        <ele>63.408883</ele>
        <time>2020-07-16T04:24:32.088Z</time>
      </trkpt>
      <trkpt lat="61.58743" lon="5.47692">
        <ele>56.595606</ele>
        <time>2020-07-16T04:24:43.581Z</time>
      </trkpt>
      <trkpt lat="61.5875" lon="5.4764">
        <ele>54.796246</ele>
        <time>2020-07-16T04:24:46.537Z</time>
      </trkpt>
      <trkpt lat="61.58754" lon="5.47605">
        <ele>53.579288</ele>
        <time>2020-07-16T04:24:48.469Z</time>
      </trkpt>
      <trkpt lat="61.58761" lon="5.47471">
        <ele>49.071528</ele>
        <time>2020-07-16T04:24:55.863Z</time>
      </trkpt>
      <trkpt lat="61.58762" lon="5.47307">
        <ele>43.630223</ele>
        <time>2020-07-16T04:25:04.765Z</time>
      </trkpt>
      <trkpt lat="61.58763" lon="5.47126">
        <ele>37.669759</ele>
        <time>2020-07-16T04:25:14.694Z</time>
      </trkpt>
      <trkpt lat="61.58763" lon="5.47028">
        <ele>34.467385</ele>
        <time>2020-07-16T04:25:20.092Z</time>
      </trkpt>
      <trkpt lat="61.58764" lon="5.46987">
        <ele>33.123941</ele>
        <time>2020-07-16T04:25:22.339Z</time>
      </trkpt>
      <trkpt lat="61.58793" lon="5.46762">
        <ele>25.197048</ele>
        <time>2020-07-16T04:25:35.116Z</time>
      </trkpt>
      <trkpt lat="61.58796" lon="5.46655">
        <ele>21.53916</ele>
        <time>2020-07-16T04:25:40.958Z</time>
      </trkpt>
      <trkpt lat="61.58794" lon="5.46553">
        <ele>18.029198</ele>
        <time>2020-07-16T04:25:46.458Z</time>
      </trkpt>
      <trkpt lat="61.58791" lon="5.46474">
        <ele>15.307116</ele>
        <time>2020-07-16T04:25:50.659Z</time>
      </trkpt>
      <trkpt lat="61.58791" lon="5.4635">
        <ele>11.009724</ele>
        <time>2020-07-16T04:25:57.317Z</time>
      </trkpt>
      <trkpt lat="61.58795" lon="5.463">
        <ele>9.253848</ele>
        <time>2020-07-16T04:26:00.171Z</time>
      </trkpt>
      <trkpt lat="61.58797" lon="5.46282">
        <ele>8.619342</ele>
        <time>2020-07-16T04:26:01.116Z</time>
      </trkpt>
      <trkpt lat="61.588" lon="5.46266">
        <ele>8.039964</ele>
        <time>2020-07-16T04:26:02.068Z</time>
      </trkpt>
      <trkpt lat="61.58806" lon="5.46233">
        <ele>6.94717</ele>
        <time>2020-07-16T04:26:04.178Z</time>
      </trkpt>
      <trkpt lat="61.58811" lon="5.46211">
        <ele>6.582526</ele>
        <time>2020-07-16T04:26:05.479Z</time>
      </trkpt>
      <trkpt lat="61.58814" lon="5.46212">
        <ele>6.482194</ele>
        <time>2020-07-16T04:26:05.895Z</time>
      </trkpt>
      <trkpt lat="61.58827" lon="5.46208">
        <ele>6.059685</ele>
        <time>2020-07-16T04:26:07.640Z</time>
      </trkpt>
      <trkpt lat="61.58831" lon="5.46203">
        <ele>5.901726</ele>
        <time>2020-07-16T04:26:08.302Z</time>
      </trkpt>
      <trkpt lat="61.58845" lon="5.46187">
        <ele>5.411846</ele>
        <time>2020-07-16T04:26:10.149Z</time>
      </trkpt>
      <trkpt lat="61.58882" lon="5.46163">
        <ele>4.201649</ele>
        <time>2020-07-16T04:26:15.113Z</time>
      </trkpt>
      <trkpt lat="61.58904" lon="5.46158">
        <ele>3.494657</ele>
        <time>2020-07-16T04:26:18.163Z</time>
      </trkpt>
      <trkpt lat="61.5893" lon="5.46154">
        <ele>2.671665</ele>
        <time>2020-07-16T04:26:21.612Z</time>
      </trkpt>
      <trkpt lat="61.58942" lon="5.46149">
        <ele>2.284906</ele>
        <time>2020-07-16T04:26:23.370Z</time>
      </trkpt>
      <trkpt lat="61.58949" lon="5.46145">
        <ele>2.059529</ele>
        <time>2020-07-16T04:26:24.483Z</time>
      </trkpt>
      <trkpt lat="61.58954" lon="5.46143">
        <ele>1.922326</ele>
        <time>2020-07-16T04:26:25.462Z</time>
      </trkpt>
      <trkpt lat="61.58979" lon="5.46117">
        <ele>1.505189</ele>
        <time>2020-07-16T04:26:30.217Z</time>
      </trkpt>
      <trkpt lat="61.58986" lon="5.46105">
        <ele>1.586603</ele>
        <time>2020-07-16T04:26:32.419Z</time>
      </trkpt>
      <trkpt lat="61.58996" lon="5.46086">
        <ele>1.700485</ele>
        <time>2020-07-16T04:26:34.701Z</time>
      </trkpt>
      <trkpt lat="61.59006" lon="5.46057">
        <ele>1.84148</ele>
        <time>2020-07-16T04:26:38.213Z</time>
      </trkpt>
      <trkpt lat="61.59016" lon="5.46014">
        <ele>2.034879</ele>
        <time>2020-07-16T04:26:42.687Z</time>
      </trkpt>
      <trkpt lat="61.59024" lon="5.45971">
        <ele>2.217012</ele>
        <time>2020-07-16T04:26:47.650Z</time>
      </trkpt>
      <trkpt lat="61.59093" lon="5.45641">
        <ele>5.540242</ele>
        <time>2020-07-16T04:27:26.433Z</time>
      </trkpt>
      <trkpt lat="61.5911" lon="5.45557">
        <ele>6.830544</ele>
        <time>2020-07-16T04:27:39.184Z</time>
      </trkpt>
      <trkpt lat="61.59126" lon="5.45484">
        <ele>7.975878</ele>
        <time>2020-07-16T04:27:51.521Z</time>
      </trkpt>
      <trkpt lat="61.59169" lon="5.4528">
        <ele>13.713139</ele>
        <time>2020-07-16T04:28:28.839Z</time>
      </trkpt>
      <trkpt lat="61.59198" lon="5.45144">
        <ele>17.754886</ele>
        <time>2020-07-16T04:28:57.431Z</time>
      </trkpt>
      <trkpt lat="61.5921" lon="5.45097">
        <ele>18.882804</ele>
        <time>2020-07-16T04:29:06.276Z</time>
      </trkpt>
      <trkpt lat="61.59231" lon="5.45023">
        <ele>20.184668</ele>
        <time>2020-07-16T04:29:19.631Z</time>
      </trkpt>
      <trkpt lat="61.59251" lon="5.44953">
        <ele>21.416017</ele>
        <time>2020-07-16T04:29:30.454Z</time>
      </trkpt>
      <trkpt lat="61.5926" lon="5.44911">
        <ele>22.111753</ele>
        <time>2020-07-16T04:29:35.710Z</time>
      </trkpt>
      <trkpt lat="61.59268" lon="5.44862">
        <ele>22.907167</ele>
        <time>2020-07-16T04:29:42.207Z</time>
      </trkpt>
      <trkpt lat="61.593" lon="5.44599">
        <ele>25.543898</ele>
        <time>2020-07-16T04:30:10.882Z</time>
      </trkpt>
      <trkpt lat="61.59307" lon="5.44555">
        <ele>25.876253</ele>
        <time>2020-07-16T04:30:15.720Z</time>
      </trkpt>
      <trkpt lat="61.59325" lon="5.44485">
        <ele>26.451107</ele>
        <time>2020-07-16T04:30:23.539Z</time>
      </trkpt>
      <trkpt lat="61.59365" lon="5.44361">
        <ele>28.382746</ele>
        <time>2020-07-16T04:30:40.743Z</time>
      </trkpt>
      <trkpt lat="61.59371" lon="5.44345">
        <ele>28.731933</ele>
        <time>2020-07-16T04:30:43.272Z</time>
      </trkpt>
      <trkpt lat="61.5938" lon="5.44319">
        <ele>29.304765</ele>
        <time>2020-07-16T04:30:47.751Z</time>
      </trkpt>
      <trkpt lat="61.59392" lon="5.44283">
        <ele>30.08334</ele>
        <time>2020-07-16T04:30:54.134Z</time>
      </trkpt>
      <trkpt lat="61.59422" lon="5.44186">
        <ele>32.12881</ele>
        <time>2020-07-16T04:31:10.922Z</time>
      </trkpt>
      <trkpt lat="61.59453" lon="5.44092">
        <ele>34.33416</ele>
        <time>2020-07-16T04:31:29.236Z</time>
      </trkpt>
      <trkpt lat="61.59507" lon="5.43927">
        <ele>39.263964</ele>
        <time>2020-07-16T04:32:05.948Z</time>
      </trkpt>
      <trkpt lat="61.59532" lon="5.43853">
        <ele>41.525551</ele>
        <time>2020-07-16T04:32:20.712Z</time>
      </trkpt>
      <trkpt lat="61.59544" lon="5.43819">
        <ele>42.546073</ele>
        <time>2020-07-16T04:32:26.963Z</time>
      </trkpt>
      <trkpt lat="61.59555" lon="5.43802">
        <ele>42.827301</ele>
        <time>2020-07-16T04:32:30.601Z</time>
      </trkpt>
      <trkpt lat="61.5956" lon="5.438">
        <ele>42.775732</ele>
        <time>2020-07-16T04:32:32.447Z</time>
      </trkpt>
      <trkpt lat="61.59576" lon="5.43814">
        <ele>42.603659</ele>
        <time>2020-07-16T04:32:36.707Z</time>
      </trkpt>
      <trkpt lat="61.59581" lon="5.43824">
        <ele>42.530731</ele>
        <time>2020-07-16T04:32:38.503Z</time>
      </trkpt>
      <trkpt lat="61.59584" lon="5.43787">
        <ele>42.345588</ele>
        <time>2020-07-16T04:32:42.828Z</time>
      </trkpt>
      <trkpt lat="61.59591" lon="5.43722">
        <ele>42.01833</ele>
        <time>2020-07-16T04:32:49.093Z</time>
      </trkpt>
      <trkpt lat="61.59602" lon="5.43637">
        <ele>41.5855</ele>
        <time>2020-07-16T04:32:55.592Z</time>
      </trkpt>
      <trkpt lat="61.59642" lon="5.43451">
        <ele>37.410564</ele>
        <time>2020-07-16T04:33:07.037Z</time>
      </trkpt>
      <trkpt lat="61.59685" lon="5.43283">
        <ele>30.048993</ele>
        <time>2020-07-16T04:33:17.021Z</time>
      </trkpt>
      <trkpt lat="61.59724" lon="5.43133">
        <ele>24.112742</ele>
        <time>2020-07-16T04:33:25.981Z</time>
      </trkpt>
      <trkpt lat="61.59788" lon="5.42874">
        <ele>15.311963</ele>
        <time>2020-07-16T04:33:42.259Z</time>
      </trkpt>
      <trkpt lat="61.59822" lon="5.42715">
        <ele>13.860661</ele>
        <time>2020-07-16T04:33:54.674Z</time>
      </trkpt>
      <trkpt lat="61.59829" lon="5.4268">
        <ele>13.586656</ele>
        <time>2020-07-16T04:33:57.628Z</time>
      </trkpt>
      <trkpt lat="61.59846" lon="5.42575">
        <ele>12.776759</ele>
        <time>2020-07-16T04:34:06.022Z</time>
      </trkpt>
      <trkpt lat="61.59901" lon="5.42199">
        <ele>12.030543</ele>
        <time>2020-07-16T04:34:36.366Z</time>
      </trkpt>
      <trkpt lat="61.59971" lon="5.41875">
        <ele>14.548565</ele>
        <time>2020-07-16T04:35:15.799Z</time>
      </trkpt>
      <trkpt lat="61.60014" lon="5.41771">
        <ele>15.228376</ele>
        <time>2020-07-16T04:35:33.979Z</time>
      </trkpt>
      <trkpt lat="61.60065" lon="5.41695">
        <ele>15.419215</ele>
        <time>2020-07-16T04:35:46.645Z</time>
      </trkpt>
      <trkpt lat="61.60079" lon="5.41676">
        <ele>15.471349</ele>
        <time>2020-07-16T04:35:50.621Z</time>
      </trkpt>
      <trkpt lat="61.60099" lon="5.41651">
        <ele>15.542816</ele>
        <time>2020-07-16T04:35:54.218Z</time>
      </trkpt>
      <trkpt lat="61.6013" lon="5.41604">
        <ele>15.661381</ele>
        <time>2020-07-16T04:36:00.311Z</time>
      </trkpt>
      <trkpt lat="61.60132" lon="5.416">
        <ele>15.668473</ele>
        <time>2020-07-16T04:36:00.584Z</time>
      </trkpt>
      <trkpt lat="61.60154" lon="5.41553">
        <ele>14.793293</ele>
        <time>2020-07-16T04:36:04.868Z</time>
      </trkpt>
      <trkpt lat="61.60205" lon="5.41374">
        <ele>11.483741</ele>
        <time>2020-07-16T04:36:17.251Z</time>
      </trkpt>
      <trkpt lat="61.6024" lon="5.41245">
        <ele>9.384901</ele>
        <time>2020-07-16T04:36:26.360Z</time>
      </trkpt>
      <trkpt lat="61.6025" lon="5.41207">
        <ele>9.005823</ele>
        <time>2020-07-16T04:36:29.479Z</time>
      </trkpt>
      <trkpt lat="61.60275" lon="5.41116">
        <ele>8.107561</ele>
        <time>2020-07-16T04:36:36.511Z</time>
      </trkpt>
      <trkpt lat="61.60329" lon="5.40917">
        <ele>6.466466</ele>
        <time>2020-07-16T04:36:52.562Z</time>
      </trkpt>
      <trkpt lat="61.60369" lon="5.4077">
        <ele>6.608052</ele>
        <time>2020-07-16T04:37:08.132Z</time>
      </trkpt>
      <trkpt lat="61.60409" lon="5.40623">
        <ele>6.74984</ele>
        <time>2020-07-16T04:37:23.378Z</time>
      </trkpt>
      <trkpt lat="61.60428" lon="5.40553">
        <ele>7.286775</ele>
        <time>2020-07-16T04:37:31.115Z</time>
      </trkpt>
      <trkpt lat="61.60444" lon="5.40485">
        <ele>7.819376</ele>
        <time>2020-07-16T04:37:40.035Z</time>
      </trkpt>
      <trkpt lat="61.60454" lon="5.40423">
        <ele>8.280011</ele>
        <time>2020-07-16T04:37:48.401Z</time>
      </trkpt>
      <trkpt lat="61.60461" lon="5.40332">
        <ele>8.929484</ele>
        <time>2020-07-16T04:37:58.594Z</time>
      </trkpt>
      <trkpt lat="61.60475" lon="5.40146">
        <ele>9.749401</ele>
        <time>2020-07-16T04:38:16.888Z</time>
      </trkpt>
      <trkpt lat="61.605" lon="5.40021">
        <ele>10.131592</ele>
        <time>2020-07-16T04:38:29.852Z</time>
      </trkpt>
      <trkpt lat="61.60532" lon="5.39911">
        <ele>10.473565</ele>
        <time>2020-07-16T04:38:41.380Z</time>
      </trkpt>
      <trkpt lat="61.60651" lon="5.39509">
        <ele>10.796038</ele>
        <time>2020-07-16T04:39:20.363Z</time>
      </trkpt>
      <trkpt lat="61.60682" lon="5.39391">
        <ele>11.456067</ele>
        <time>2020-07-16T04:39:31.897Z</time>
      </trkpt>
      <trkpt lat="61.60752" lon="5.39067">
        <ele>15.905363</ele>
        <time>2020-07-16T04:40:17.336Z</time>
      </trkpt>
      <trkpt lat="61.60763" lon="5.39024">
        <ele>16.769095</ele>
        <time>2020-07-16T04:40:25.345Z</time>
      </trkpt>
      <trkpt lat="61.6078" lon="5.38968">
        <ele>17.928902</ele>
        <time>2020-07-16T04:40:36.129Z</time>
      </trkpt>
      <trkpt lat="61.60799" lon="5.3891">
        <ele>19.035607</ele>
        <time>2020-07-16T04:40:47.128Z</time>
      </trkpt>
      <trkpt lat="61.60825" lon="5.38831">
        <ele>20.17477</ele>
        <time>2020-07-16T04:41:02.047Z</time>
      </trkpt>
      <trkpt lat="61.60832" lon="5.38808">
        <ele>20.509378</ele>
        <time>2020-07-16T04:41:06.135Z</time>
      </trkpt>
      <trkpt lat="61.60854" lon="5.38716">
        <ele>21.72934</ele>
        <time>2020-07-16T04:41:20.470Z</time>
      </trkpt>
      <trkpt lat="61.60868" lon="5.38569">
        <ele>23.001801</ele>
        <time>2020-07-16T04:41:34.758Z</time>
      </trkpt>
      <trkpt lat="61.60865" lon="5.37973">
        <ele>13.620725</ele>
        <time>2020-07-16T04:42:10.996Z</time>
      </trkpt>
      <trkpt lat="61.60867" lon="5.37845">
        <ele>11.336025</ele>
        <time>2020-07-16T04:42:18.530Z</time>
      </trkpt>
      <trkpt lat="61.60873" lon="5.3777">
        <ele>10.449485</ele>
        <time>2020-07-16T04:42:23.236Z</time>
      </trkpt>
      <trkpt lat="61.60879" lon="5.37734">
        <ele>10.062987</ele>
        <time>2020-07-16T04:42:25.602Z</time>
      </trkpt>
      <trkpt lat="61.60874" lon="5.37731">
        <ele>9.951133</ele>
        <time>2020-07-16T04:42:26.330Z</time>
      </trkpt>
      <trkpt lat="61.60868" lon="5.37725">
        <ele>9.808573</ele>
        <time>2020-07-16T04:42:27.369Z</time>
      </trkpt>
      <trkpt lat="61.60865" lon="5.37718">
        <ele>9.713987</ele>
        <time>2020-07-16T04:42:27.967Z</time>
      </trkpt>
      <trkpt lat="61.60864" lon="5.37709">
        <ele>9.609838</ele>
        <time>2020-07-16T04:42:28.636Z</time>
      </trkpt>
      <trkpt lat="61.60869" lon="5.37681">
        <ele>9.302273</ele>
        <time>2020-07-16T04:42:30.742Z</time>
      </trkpt>
      <trkpt lat="61.60904" lon="5.37582">
        <ele>8.039514</ele>
        <time>2020-07-16T04:42:39.753Z</time>
      </trkpt>
      <trkpt lat="61.60942" lon="5.37443">
        <ele>7.013557</ele>
        <time>2020-07-16T04:42:51.789Z</time>
      </trkpt>
      <trkpt lat="61.60954" lon="5.37348">
        <ele>6.767287</ele>
        <time>2020-07-16T04:43:00.357Z</time>
      </trkpt>
      <trkpt lat="61.60953" lon="5.37319">
        <ele>6.694758</ele>
        <time>2020-07-16T04:43:03.145Z</time>
      </trkpt>
      <trkpt lat="61.60953" lon="5.37262">
        <ele>6.549938</ele>
        <time>2020-07-16T04:43:08.111Z</time>
      </trkpt>
      <trkpt lat="61.60953" lon="5.37236">
        <ele>6.48496</ele>
        <time>2020-07-16T04:43:10.423Z</time>
      </trkpt>
      <trkpt lat="61.60953" lon="5.37209">
        <ele>6.417953</ele>
        <time>2020-07-16T04:43:12.480Z</time>
      </trkpt>
      <trkpt lat="61.60956" lon="5.37156">
        <ele>6.283856</ele>
        <time>2020-07-16T04:43:17.031Z</time>
      </trkpt>
      <trkpt lat="61.60999" lon="5.36894">
        <ele>5.265072</ele>
        <time>2020-07-16T04:43:38.148Z</time>
      </trkpt>
      <trkpt lat="61.61" lon="5.36832">
        <ele>5.035748</ele>
        <time>2020-07-16T04:43:43.276Z</time>
      </trkpt>
      <trkpt lat="61.60997" lon="5.36737">
        <ele>4.779252</ele>
        <time>2020-07-16T04:43:51.351Z</time>
      </trkpt>
      <trkpt lat="61.60996" lon="5.36714">
        <ele>4.740522</ele>
        <time>2020-07-16T04:43:53.251Z</time>
      </trkpt>
      <trkpt lat="61.60995" lon="5.36655">
        <ele>4.63904</ele>
        <time>2020-07-16T04:43:58.664Z</time>
      </trkpt>
      <trkpt lat="61.60998" lon="5.36596">
        <ele>4.537986</ele>
        <time>2020-07-16T04:44:04.191Z</time>
      </trkpt>
      <trkpt lat="61.61032" lon="5.36388">
        <ele>4.098925</ele>
        <time>2020-07-16T04:44:21.965Z</time>
      </trkpt>
      <trkpt lat="61.61035" lon="5.36374">
        <ele>4.044189</ele>
        <time>2020-07-16T04:44:23.117Z</time>
      </trkpt>
      <trkpt lat="61.61044" lon="5.36332">
        <ele>3.87371</ele>
        <time>2020-07-16T04:44:26.728Z</time>
      </trkpt>
      <trkpt lat="61.61045" lon="5.3632">
        <ele>3.830537</ele>
        <time>2020-07-16T04:44:27.879Z</time>
      </trkpt>
      <trkpt lat="61.61047" lon="5.36276">
        <ele>3.669208</ele>
        <time>2020-07-16T04:44:31.089Z</time>
      </trkpt>
      <trkpt lat="61.61044" lon="5.36164">
        <ele>3.260888</ele>
        <time>2020-07-16T04:44:39.935Z</time>
      </trkpt>
      <trkpt lat="61.61034" lon="5.36106">
        <ele>3.035503</ele>
        <time>2020-07-16T04:44:44.912Z</time>
      </trkpt>
      <trkpt lat="61.61031" lon="5.36049">
        <ele>2.836796</ele>
        <time>2020-07-16T04:44:49.553Z</time>
      </trkpt>
      <trkpt lat="61.6103" lon="5.35994">
        <ele>2.847605</ele>
        <time>2020-07-16T04:44:54.003Z</time>
      </trkpt>
      <trkpt lat="61.61041" lon="5.35922">
        <ele>2.862261</ele>
        <time>2020-07-16T04:45:00.190Z</time>
      </trkpt>
      <trkpt lat="61.61046" lon="5.35902">
        <ele>2.866704</ele>
        <time>2020-07-16T04:45:02.231Z</time>
      </trkpt>
      <trkpt lat="61.61053" lon="5.35878">
        <ele>2.871939</ele>
        <time>2020-07-16T04:45:04.674Z</time>
      </trkpt>
      <trkpt lat="61.61067" lon="5.35846">
        <ele>2.880546</ele>
        <time>2020-07-16T04:45:08.666Z</time>
      </trkpt>
      <trkpt lat="61.61075" lon="5.35827">
        <ele>2.88558</ele>
        <time>2020-07-16T04:45:11.096Z</time>
      </trkpt>
      <trkpt lat="61.61092" lon="5.3579">
        <ele>2.895325</ele>
        <time>2020-07-16T04:45:15.763Z</time>
      </trkpt>
      <trkpt lat="61.61103" lon="5.35764">
        <ele>2.902159</ele>
        <time>2020-07-16T04:45:19.125Z</time>
      </trkpt>
      <trkpt lat="61.61105" lon="5.3576">
        <ele>2.903396</ele>
        <time>2020-07-16T04:45:19.701Z</time>
      </trkpt>
      <trkpt lat="61.61132" lon="5.35704">
        <ele>3.252982</ele>
        <time>2020-07-16T04:45:27.447Z</time>
      </trkpt>
      <trkpt lat="61.61144" lon="5.35659">
        <ele>3.644305</ele>
        <time>2020-07-16T04:45:32.895Z</time>
      </trkpt>
      <trkpt lat="61.61149" lon="5.35607">
        <ele>4.04208</ele>
        <time>2020-07-16T04:45:38.744Z</time>
      </trkpt>
      <trkpt lat="61.61149" lon="5.3555">
        <ele>4.465544</ele>
        <time>2020-07-16T04:45:44.916Z</time>
      </trkpt>
      <trkpt lat="61.6114" lon="5.35483">
        <ele>4.992203</ele>
        <time>2020-07-16T04:45:52.761Z</time>
      </trkpt>
      <trkpt lat="61.61137" lon="5.35427">
        <ele>5.417655</ele>
        <time>2020-07-16T04:45:59.717Z</time>
      </trkpt>
      <trkpt lat="61.61141" lon="5.3538">
        <ele>5.784588</ele>
        <time>2020-07-16T04:46:05.782Z</time>
      </trkpt>
      <trkpt lat="61.61148" lon="5.3534">
        <ele>6.351824</ele>
        <time>2020-07-16T04:46:11.320Z</time>
      </trkpt>
      <trkpt lat="61.61167" lon="5.35267">
        <ele>7.439744</ele>
        <time>2020-07-16T04:46:22.357Z</time>
      </trkpt>
      <trkpt lat="61.61206" lon="5.35118">
        <ele>9.675251</ele>
        <time>2020-07-16T04:46:45.965Z</time>
      </trkpt>
      <trkpt lat="61.61213" lon="5.35091">
        <ele>10.067125</ele>
        <time>2020-07-16T04:46:49.981Z</time>
      </trkpt>
      <trkpt lat="61.61236" lon="5.35006">
        <ele>10.789746</ele>
        <time>2020-07-16T04:47:02.238Z</time>
      </trkpt>
      <trkpt lat="61.61251" lon="5.34941">
        <ele>10.920639</ele>
        <time>2020-07-16T04:47:09.625Z</time>
      </trkpt>
      <trkpt lat="61.61253" lon="5.34924">
        <ele>10.952098</ele>
        <time>2020-07-16T04:47:11.472Z</time>
      </trkpt>
      <trkpt lat="61.61261" lon="5.3487">
        <ele>11.053782</ele>
        <time>2020-07-16T04:47:16.334Z</time>
      </trkpt>
      <trkpt lat="61.61265" lon="5.34781">
        <ele>11.215789</ele>
        <time>2020-07-16T04:47:23.628Z</time>
      </trkpt>
      <trkpt lat="61.61269" lon="5.34695">
        <ele>11.371674</ele>
        <time>2020-07-16T04:47:30.396Z</time>
      </trkpt>
      <trkpt lat="61.61275" lon="5.34621">
        <ele>11.303422</ele>
        <time>2020-07-16T04:47:36.535Z</time>
      </trkpt>
      <trkpt lat="61.61303" lon="5.34494">
        <ele>11.136441</ele>
        <time>2020-07-16T04:47:47.737Z</time>
      </trkpt>
      <trkpt lat="61.61314" lon="5.34442">
        <ele>11.068172</ele>
        <time>2020-07-16T04:47:52.286Z</time>
      </trkpt>
      <trkpt lat="61.61327" lon="5.34348">
        <ele>10.952703</ele>
        <time>2020-07-16T04:48:01.184Z</time>
      </trkpt>
      <trkpt lat="61.61347" lon="5.3415">
        <ele>11.381259</ele>
        <time>2020-07-16T04:48:21.632Z</time>
      </trkpt>
      <trkpt lat="61.6135" lon="5.34004">
        <ele>11.729341</ele>
        <time>2020-07-16T04:48:35.386Z</time>
      </trkpt>
      <trkpt lat="61.61326" lon="5.33659">
        <ele>11.084462</ele>
        <time>2020-07-16T04:49:02.493Z</time>
      </trkpt>
      <trkpt lat="61.61326" lon="5.33567">
        <ele>11.007519</ele>
        <time>2020-07-16T04:49:09.371Z</time>
      </trkpt>
      <trkpt lat="61.61336" lon="5.33402">
        <ele>12.052469</ele>
        <time>2020-07-16T04:49:22.104Z</time>
      </trkpt>
      <trkpt lat="61.61359" lon="5.33207">
        <ele>13.490797</ele>
        <time>2020-07-16T04:49:46.309Z</time>
      </trkpt>
      <trkpt lat="61.61363" lon="5.33098">
        <ele>17.190422</ele>
        <time>2020-07-16T04:50:05.762Z</time>
      </trkpt>
      <trkpt lat="61.61362" lon="5.33059">
        <ele>18.529603</ele>
        <time>2020-07-16T04:50:13.012Z</time>
      </trkpt>
      <trkpt lat="61.61359" lon="5.33016">
        <ele>20.008583</ele>
        <time>2020-07-16T04:50:22.837Z</time>
      </trkpt>
      <trkpt lat="61.61354" lon="5.32974">
        <ele>21.482482</ele>
        <time>2020-07-16T04:50:31.598Z</time>
      </trkpt>
      <trkpt lat="61.61352" lon="5.32965">
        <ele>21.803589</ele>
        <time>2020-07-16T04:50:34.743Z</time>
      </trkpt>
      <trkpt lat="61.61337" lon="5.32892">
        <ele>24.535234</ele>
        <time>2020-07-16T04:50:51.756Z</time>
      </trkpt>
      <trkpt lat="61.61327" lon="5.32854">
        <ele>25.994406</ele>
        <time>2020-07-16T04:50:59.916Z</time>
      </trkpt>
      <trkpt lat="61.61333" lon="5.32845">
        <ele>26.476679</ele>
        <time>2020-07-16T04:51:03.836Z</time>
      </trkpt>
      <trkpt lat="61.6134" lon="5.32825">
        <ele>27.198786</ele>
        <time>2020-07-16T04:51:09.993Z</time>
      </trkpt>
      <trkpt lat="61.61338" lon="5.32779">
        <ele>28.505765</ele>
        <time>2020-07-16T04:51:19.109Z</time>
      </trkpt>
      <trkpt lat="61.61338" lon="5.32763">
        <ele>28.977449</ele>
        <time>2020-07-16T04:51:24.175Z</time>
      </trkpt>
      <trkpt lat="61.61337" lon="5.32753">
        <ele>29.265043</ele>
        <time>2020-07-16T04:51:26.090Z</time>
      </trkpt>
      <trkpt lat="61.61344" lon="5.32649">
        <ele>32.288448</ele>
        <time>2020-07-16T04:51:45.472Z</time>
      </trkpt>
      <trkpt lat="61.61356" lon="5.32576">
        <ele>34.499271</ele>
        <time>2020-07-16T04:51:58.246Z</time>
      </trkpt>
      <trkpt lat="61.61356" lon="5.32573">
        <ele>34.587812</ele>
        <time>2020-07-16T04:51:58.851Z</time>
      </trkpt>
      <trkpt lat="61.614" lon="5.32323">
        <ele>38.936302</ele>
        <time>2020-07-16T04:52:31.783Z</time>
      </trkpt>
      <trkpt lat="61.61409" lon="5.32249">
        <ele>39.753079</ele>
        <time>2020-07-16T04:52:40.028Z</time>
      </trkpt>
      <trkpt lat="61.6141" lon="5.3222">
        <ele>40.060071</ele>
        <time>2020-07-16T04:52:43.188Z</time>
      </trkpt>
      <trkpt lat="61.6141" lon="5.32193">
        <ele>40.352201</ele>
        <time>2020-07-16T04:52:46.073Z</time>
      </trkpt>
      <trkpt lat="61.61402" lon="5.32079">
        <ele>41.730208</ele>
        <time>2020-07-16T04:52:58.878Z</time>
      </trkpt>
      <trkpt lat="61.61371" lon="5.31853">
        <ele>44.951845</ele>
        <time>2020-07-16T04:53:28.410Z</time>
      </trkpt>
      <trkpt lat="61.61367" lon="5.31727">
        <ele>47.129455</ele>
        <time>2020-07-16T04:53:46.254Z</time>
      </trkpt>
      <trkpt lat="61.61375" lon="5.31649">
        <ele>49.22233</ele>
        <time>2020-07-16T04:53:59.162Z</time>
      </trkpt>
      <trkpt lat="61.61389" lon="5.3158">
        <ele>51.215183</ele>
        <time>2020-07-16T04:54:11.833Z</time>
      </trkpt>
      <trkpt lat="61.61412" lon="5.3151">
        <ele>53.481943</ele>
        <time>2020-07-16T04:54:26.514Z</time>
      </trkpt>
      <trkpt lat="61.61438" lon="5.31463">
        <ele>55.392017</ele>
        <time>2020-07-16T04:54:39.178Z</time>
      </trkpt>
      <trkpt lat="61.61446" lon="5.3145">
        <ele>55.981409</ele>
        <time>2020-07-16T04:54:43.399Z</time>
      </trkpt>
      <trkpt lat="61.61455" lon="5.31439">
        <ele>56.685889</ele>
        <time>2020-07-16T04:54:47.788Z</time>
      </trkpt>
      <trkpt lat="61.6157" lon="5.31342">
        <ele>66.843017</ele>
        <time>2020-07-16T04:55:41.459Z</time>
      </trkpt>
      <trkpt lat="61.61665" lon="5.31214">
        <ele>75.692529</ele>
        <time>2020-07-16T04:56:35.803Z</time>
      </trkpt>
      <trkpt lat="61.61697" lon="5.31191">
        <ele>78.234419</ele>
        <time>2020-07-16T04:56:51.490Z</time>
      </trkpt>
      <trkpt lat="61.61727" lon="5.31184">
        <ele>80.467929</ele>
        <time>2020-07-16T04:57:04.478Z</time>
      </trkpt>
      <trkpt lat="61.61759" lon="5.31192">
        <ele>82.938526</ele>
        <time>2020-07-16T04:57:17.212Z</time>
      </trkpt>
      <trkpt lat="61.61806" lon="5.31236">
        <ele>83.981468</ele>
        <time>2020-07-16T04:57:33.226Z</time>
      </trkpt>
      <trkpt lat="61.61835" lon="5.31297">
        <ele>83.274252</ele>
        <time>2020-07-16T04:57:41.744Z</time>
      </trkpt>
      <trkpt lat="61.61888" lon="5.31449">
        <ele>81.736707</ele>
        <time>2020-07-16T04:57:53.107Z</time>
      </trkpt>
      <trkpt lat="61.61924" lon="5.31507">
        <ele>79.45503</ele>
        <time>2020-07-16T04:57:58.300Z</time>
      </trkpt>
      <trkpt lat="61.61973" lon="5.31535">
        <ele>75.785291</ele>
        <time>2020-07-16T04:58:03.912Z</time>
      </trkpt>
      <trkpt lat="61.62024" lon="5.31523">
        <ele>72.020671</ele>
        <time>2020-07-16T04:58:09.662Z</time>
      </trkpt>
      <trkpt lat="61.62066" lon="5.31477">
        <ele>68.535748</ele>
        <time>2020-07-16T04:58:15.088Z</time>
      </trkpt>
      <trkpt lat="61.6214" lon="5.31349">
        <ele>65.574548</ele>
        <time>2020-07-16T04:58:26.824Z</time>
      </trkpt>
      <trkpt lat="61.62173" lon="5.31303">
        <ele>64.404044</ele>
        <time>2020-07-16T04:58:32.475Z</time>
      </trkpt>
      <trkpt lat="61.62282" lon="5.31196">
        <ele>65.15782</ele>
        <time>2020-07-16T04:58:55.820Z</time>
      </trkpt>
      <trkpt lat="61.62316" lon="5.31128">
        <ele>66.607335</ele>
        <time>2020-07-16T04:59:09.093Z</time>
      </trkpt>
      <trkpt lat="61.62353" lon="5.31005">
        <ele>69.24055</ele>
        <time>2020-07-16T04:59:32.905Z</time>
      </trkpt>
      <trkpt lat="61.62385" lon="5.30929">
        <ele>74.0188</ele>
        <time>2020-07-16T04:59:53.467Z</time>
      </trkpt>
      <trkpt lat="61.62417" lon="5.30889">
        <ele>77.711887</ele>
        <time>2020-07-16T05:00:11.713Z</time>
      </trkpt>
      <trkpt lat="61.62452" lon="5.30872">
        <ele>81.196362</ele>
        <time>2020-07-16T05:00:30.599Z</time>
      </trkpt>
      <trkpt lat="61.62497" lon="5.30881">
        <ele>85.74936</ele>
        <time>2020-07-16T05:00:57.158Z</time>
      </trkpt>
      <trkpt lat="61.62544" lon="5.3093">
        <ele>91.604682</ele>
        <time>2020-07-16T05:01:28.818Z</time>
      </trkpt>
      <trkpt lat="61.62577" lon="5.31018">
        <ele>97.75339</ele>
        <time>2020-07-16T05:02:01.743Z</time>
      </trkpt>
      <trkpt lat="61.62601" lon="5.31155">
        <ele>105.697319</ele>
        <time>2020-07-16T05:02:38.041Z</time>
      </trkpt>
      <trkpt lat="61.62612" lon="5.31251">
        <ele>108.044286</ele>
        <time>2020-07-16T05:02:58.331Z</time>
      </trkpt>
      <trkpt lat="61.62648" lon="5.31571">
        <ele>111.889854</ele>
        <time>2020-07-16T05:03:37.122Z</time>
      </trkpt>
      <trkpt lat="61.6266" lon="5.31661">
        <ele>108.730243</ele>
        <time>2020-07-16T05:03:43.088Z</time>
      </trkpt>
      <trkpt lat="61.6268" lon="5.31739">
        <ele>105.735145</ele>
        <time>2020-07-16T05:03:47.845Z</time>
      </trkpt>
      <trkpt lat="61.62718" lon="5.31834">
        <ele>101.509001</ele>
        <time>2020-07-16T05:03:54.244Z</time>
      </trkpt>
      <trkpt lat="61.62747" lon="5.31882">
        <ele>97.709957</ele>
        <time>2020-07-16T05:03:58.138Z</time>
      </trkpt>
      <trkpt lat="61.62764" lon="5.31903">
        <ele>94.897538</ele>
        <time>2020-07-16T05:04:00.235Z</time>
      </trkpt>
      <trkpt lat="61.6278" lon="5.31918">
        <ele>92.318536</ele>
        <time>2020-07-16T05:04:02.083Z</time>
      </trkpt>
      <trkpt lat="61.62878" lon="5.31975">
        <ele>77.815315</ele>
        <time>2020-07-16T05:04:12.617Z</time>
      </trkpt>
      <trkpt lat="61.62921" lon="5.3202">
        <ele>73.011762</ele>
        <time>2020-07-16T05:04:17.636Z</time>
      </trkpt>
      <trkpt lat="61.62954" lon="5.32095">
        <ele>70.369731</ele>
        <time>2020-07-16T05:04:23.031Z</time>
      </trkpt>
      <trkpt lat="61.62974" lon="5.32191">
        <ele>67.64008</ele>
        <time>2020-07-16T05:04:29.178Z</time>
      </trkpt>
      <trkpt lat="61.62976" lon="5.32259">
        <ele>65.876199</ele>
        <time>2020-07-16T05:04:34.025Z</time>
      </trkpt>
      <trkpt lat="61.62961" lon="5.3262">
        <ele>66.280946</ele>
        <time>2020-07-16T05:05:21.424Z</time>
      </trkpt>
      <trkpt lat="61.62946" lon="5.32723">
        <ele>65.119445</ele>
        <time>2020-07-16T05:05:28.921Z</time>
      </trkpt>
      <trkpt lat="61.62904" lon="5.32886">
        <ele>57.498455</ele>
        <time>2020-07-16T05:05:39.270Z</time>
      </trkpt>
      <trkpt lat="61.62901" lon="5.32912">
        <ele>56.386262</ele>
        <time>2020-07-16T05:05:40.752Z</time>
      </trkpt>
      <trkpt lat="61.629" lon="5.32932">
        <ele>55.56181</ele>
        <time>2020-07-16T05:05:41.724Z</time>
      </trkpt>
      <trkpt lat="61.62903" lon="5.33005">
        <ele>52.524833</ele>
        <time>2020-07-16T05:05:45.370Z</time>
      </trkpt>
      <trkpt lat="61.62915" lon="5.3305">
        <ele>49.825218</ele>
        <time>2020-07-16T05:05:47.918Z</time>
      </trkpt>
      <trkpt lat="61.6294" lon="5.331">
        <ele>44.316749</ele>
        <time>2020-07-16T05:05:51.426Z</time>
      </trkpt>
      <trkpt lat="61.62986" lon="5.33158">
        <ele>35.559244</ele>
        <time>2020-07-16T05:05:56.968Z</time>
      </trkpt>
      <trkpt lat="61.63018" lon="5.33198">
        <ele>29.535678</ele>
        <time>2020-07-16T05:06:00.817Z</time>
      </trkpt>
      <trkpt lat="61.6303" lon="5.33216">
        <ele>27.203094</ele>
        <time>2020-07-16T05:06:02.323Z</time>
      </trkpt>
      <trkpt lat="61.63085" lon="5.33316">
        <ele>19.317464</ele>
        <time>2020-07-16T05:06:10.029Z</time>
      </trkpt>
      <trkpt lat="61.63088" lon="5.33321">
        <ele>19.063226</ele>
        <time>2020-07-16T05:06:10.439Z</time>
      </trkpt>
      <trkpt lat="61.63098" lon="5.33333">
        <ele>18.340898</ele>
        <time>2020-07-16T05:06:11.612Z</time>
      </trkpt>
      <trkpt lat="61.63109" lon="5.33344">
        <ele>17.513222</ele>
        <time>2020-07-16T05:06:12.929Z</time>
      </trkpt>
      <trkpt lat="61.63432" lon="5.33527">
        <ele>8.403203</ele>
        <time>2020-07-16T05:06:59.092Z</time>
      </trkpt>
      <trkpt lat="61.63445" lon="5.33531">
        <ele>9.006741</ele>
        <time>2020-07-16T05:07:02.721Z</time>
      </trkpt>
      <trkpt lat="61.63455" lon="5.33532">
        <ele>9.465443</ele>
        <time>2020-07-16T05:07:06.768Z</time>
      </trkpt>
      <trkpt lat="61.63487" lon="5.3352">
        <ele>10.950054</ele>
        <time>2020-07-16T05:07:18.075Z</time>
      </trkpt>
      <trkpt lat="61.6352" lon="5.33477">
        <ele>12.703846</ele>
        <time>2020-07-16T05:07:33.784Z</time>
      </trkpt>
      <trkpt lat="61.63537" lon="5.33434">
        <ele>13.954735</ele>
        <time>2020-07-16T05:07:45.246Z</time>
      </trkpt>
      <trkpt lat="61.63567" lon="5.33325">
        <ele>18.682983</ele>
        <time>2020-07-16T05:08:15.461Z</time>
      </trkpt>
      <trkpt lat="61.63589" lon="5.33273">
        <ele>21.666779</ele>
        <time>2020-07-16T05:08:31.708Z</time>
      </trkpt>
      <trkpt lat="61.63675" lon="5.33162">
        <ele>30.813284</ele>
        <time>2020-07-16T05:09:18.662Z</time>
      </trkpt>
      <trkpt lat="61.63723" lon="5.33074">
        <ele>36.652138</ele>
        <time>2020-07-16T05:09:46.680Z</time>
      </trkpt>
      <trkpt lat="61.63746" lon="5.33013">
        <ele>39.99182</ele>
        <time>2020-07-16T05:10:03.469Z</time>
      </trkpt>
      <trkpt lat="61.63772" lon="5.3291">
        <ele>45.026276</ele>
        <time>2020-07-16T05:10:30.058Z</time>
      </trkpt>
      <trkpt lat="61.63777" lon="5.32874">
        <ele>46.653891</ele>
        <time>2020-07-16T05:10:38.085Z</time>
      </trkpt>
      <trkpt lat="61.63781" lon="5.32841">
        <ele>48.254452</ele>
        <time>2020-07-16T05:10:46.798Z</time>
      </trkpt>
      <trkpt lat="61.63806" lon="5.326">
        <ele>60.743613</ele>
        <time>2020-07-16T05:11:49.426Z</time>
      </trkpt>
      <trkpt lat="61.63821" lon="5.32537">
        <ele>64.289327</ele>
        <time>2020-07-16T05:12:08.379Z</time>
      </trkpt>
      <trkpt lat="61.63855" lon="5.32473">
        <ele>68.135337</ele>
        <time>2020-07-16T05:12:31.213Z</time>
      </trkpt>
      <trkpt lat="61.63887" lon="5.32451">
        <ele>70.220239</ele>
        <time>2020-07-16T05:12:45.707Z</time>
      </trkpt>
      <trkpt lat="61.63917" lon="5.32452">
        <ele>72.176428</ele>
        <time>2020-07-16T05:12:57.926Z</time>
      </trkpt>
      <trkpt lat="61.63948" lon="5.32471">
        <ele>74.178181</ele>
        <time>2020-07-16T05:13:09.123Z</time>
      </trkpt>
      <trkpt lat="61.63983" lon="5.32539">
        <ele>77.219568</ele>
        <time>2020-07-16T05:13:23.768Z</time>
      </trkpt>
      <trkpt lat="61.63998" lon="5.32599">
        <ele>78.530136</ele>
        <time>2020-07-16T05:13:32.353Z</time>
      </trkpt>
      <trkpt lat="61.6402" lon="5.32771">
        <ele>80.90051</ele>
        <time>2020-07-16T05:13:52.803Z</time>
      </trkpt>
      <trkpt lat="61.64053" lon="5.32869">
        <ele>82.4793</ele>
        <time>2020-07-16T05:14:08.006Z</time>
      </trkpt>
      <trkpt lat="61.64128" lon="5.32983">
        <ele>84.679599</ele>
        <time>2020-07-16T05:14:36.299Z</time>
      </trkpt>
      <trkpt lat="61.64179" lon="5.33014">
        <ele>85.889509</ele>
        <time>2020-07-16T05:14:49.393Z</time>
      </trkpt>
      <trkpt lat="61.64188" lon="5.33015">
        <ele>86.106265</ele>
        <time>2020-07-16T05:14:52.775Z</time>
      </trkpt>
      <trkpt lat="61.64197" lon="5.33014">
        <ele>86.302434</ele>
        <time>2020-07-16T05:14:53.950Z</time>
      </trkpt>
      <trkpt lat="61.64247" lon="5.32989">
        <ele>86.787912</ele>
        <time>2020-07-16T05:15:03.386Z</time>
      </trkpt>
      <trkpt lat="61.64283" lon="5.32943">
        <ele>86.06144</ele>
        <time>2020-07-16T05:15:10.513Z</time>
      </trkpt>
      <trkpt lat="61.64298" lon="5.32916">
        <ele>85.722005</ele>
        <time>2020-07-16T05:15:13.315Z</time>
      </trkpt>
      <trkpt lat="61.6431" lon="5.3289">
        <ele>85.418097</ele>
        <time>2020-07-16T05:15:15.922Z</time>
      </trkpt>
      <trkpt lat="61.64342" lon="5.328">
        <ele>84.498925</ele>
        <time>2020-07-16T05:15:22.781Z</time>
      </trkpt>
      <trkpt lat="61.64357" lon="5.32729">
        <ele>83.91739</ele>
        <time>2020-07-16T05:15:27.657Z</time>
      </trkpt>
      <trkpt lat="61.64366" lon="5.32658">
        <ele>83.629726</ele>
        <time>2020-07-16T05:15:32.298Z</time>
      </trkpt>
      <trkpt lat="61.6437" lon="5.32538">
        <ele>83.154444</ele>
        <time>2020-07-16T05:15:41.137Z</time>
      </trkpt>
      <trkpt lat="61.64356" lon="5.32382">
        <ele>82.531753</ele>
        <time>2020-07-16T05:15:55.253Z</time>
      </trkpt>
      <trkpt lat="61.64279" lon="5.31723">
        <ele>85.513813</ele>
        <time>2020-07-16T05:17:06.470Z</time>
      </trkpt>
      <trkpt lat="61.64273" lon="5.31564">
        <ele>84.912388</ele>
        <time>2020-07-16T05:17:18.423Z</time>
      </trkpt>
      <trkpt lat="61.64284" lon="5.31428">
        <ele>83.142801</ele>
        <time>2020-07-16T05:17:27.471Z</time>
      </trkpt>
      <trkpt lat="61.64335" lon="5.31113">
        <ele>77.93414</ele>
        <time>2020-07-16T05:17:47.358Z</time>
      </trkpt>
      <trkpt lat="61.64338" lon="5.30985">
        <ele>75.552071</ele>
        <time>2020-07-16T05:17:54.871Z</time>
      </trkpt>
      <trkpt lat="61.64323" lon="5.30867">
        <ele>73.727094</ele>
        <time>2020-07-16T05:18:02.292Z</time>
      </trkpt>
      <trkpt lat="61.64302" lon="5.30793">
        <ele>73.321892</ele>
        <time>2020-07-16T05:18:07.898Z</time>
      </trkpt>
      <trkpt lat="61.64275" lon="5.30735">
        <ele>72.94246</ele>
        <time>2020-07-16T05:18:13.541Z</time>
      </trkpt>
      <trkpt lat="61.64243" lon="5.30689">
        <ele>72.557568</ele>
        <time>2020-07-16T05:18:19.876Z</time>
      </trkpt>
      <trkpt lat="61.64212" lon="5.30662">
        <ele>72.229505</ele>
        <time>2020-07-16T05:18:26.357Z</time>
      </trkpt>
      <trkpt lat="61.64107" lon="5.30633">
        <ele>74.590875</ele>
        <time>2020-07-16T05:18:54.008Z</time>
      </trkpt>
      <trkpt lat="61.64056" lon="5.30594">
        <ele>76.015179</ele>
        <time>2020-07-16T05:19:09.866Z</time>
      </trkpt>
      <trkpt lat="61.64019" lon="5.30523">
        <ele>77.176455</ele>
        <time>2020-07-16T05:19:23.698Z</time>
      </trkpt>
      <trkpt lat="61.64008" lon="5.30488">
        <ele>77.509299</ele>
        <time>2020-07-16T05:19:28.784Z</time>
      </trkpt>
      <trkpt lat="61.63992" lon="5.30402">
        <ele>78.244217</ele>
        <time>2020-07-16T05:19:39.369Z</time>
      </trkpt>
      <trkpt lat="61.63981" lon="5.30279">
        <ele>79.233798</ele>
        <time>2020-07-16T05:19:52.230Z</time>
      </trkpt>
      <trkpt lat="61.63975" lon="5.30158">
        <ele>80.180378</ele>
        <time>2020-07-16T05:20:03.797Z</time>
      </trkpt>
      <trkpt lat="61.63978" lon="5.2995">
        <ele>81.755825</ele>
        <time>2020-07-16T05:20:24.813Z</time>
      </trkpt>
      <trkpt lat="61.63985" lon="5.29846">
        <ele>82.551445</ele>
        <time>2020-07-16T05:20:37.470Z</time>
      </trkpt>
      <trkpt lat="61.64009" lon="5.29702">
        <ele>83.759205</ele>
        <time>2020-07-16T05:20:57.986Z</time>
      </trkpt>
      <trkpt lat="61.64069" lon="5.29505">
        <ele>85.63042</ele>
        <time>2020-07-16T05:21:23.706Z</time>
      </trkpt>
      <trkpt lat="61.64091" lon="5.29412">
        <ele>84.865164</ele>
        <time>2020-07-16T05:21:31.416Z</time>
      </trkpt>
      <trkpt lat="61.64109" lon="5.29278">
        <ele>83.390045</ele>
        <time>2020-07-16T05:21:40.470Z</time>
      </trkpt>
      <trkpt lat="61.64113" lon="5.29177">
        <ele>82.311925</ele>
        <time>2020-07-16T05:21:46.615Z</time>
      </trkpt>
      <trkpt lat="61.6411" lon="5.29068">
        <ele>81.419205</ele>
        <time>2020-07-16T05:21:53.223Z</time>
      </trkpt>
      <trkpt lat="61.6409" lon="5.28882">
        <ele>80.279491</ele>
        <time>2020-07-16T05:22:05.674Z</time>
      </trkpt>
      <trkpt lat="61.64007" lon="5.28365">
        <ele>82.434878</ele>
        <time>2020-07-16T05:23:04.150Z</time>
      </trkpt>
      <trkpt lat="61.63983" lon="5.28241">
        <ele>83.294404</ele>
        <time>2020-07-16T05:23:20.755Z</time>
      </trkpt>
      <trkpt lat="61.63966" lon="5.28176">
        <ele>83.771013</ele>
        <time>2020-07-16T05:23:29.571Z</time>
      </trkpt>
      <trkpt lat="61.63863" lon="5.276">
        <ele>83.173011</ele>
        <time>2020-07-16T05:24:23.669Z</time>
      </trkpt>
      <trkpt lat="61.63856" lon="5.27521">
        <ele>82.149832</ele>
        <time>2020-07-16T05:24:28.712Z</time>
      </trkpt>
      <trkpt lat="61.63848" lon="5.27357">
        <ele>80.041213</ele>
        <time>2020-07-16T05:24:38.619Z</time>
      </trkpt>
      <trkpt lat="61.63874" lon="5.26993">
        <ele>72.847599</ele>
        <time>2020-07-16T05:25:00.196Z</time>
      </trkpt>
      <trkpt lat="61.63876" lon="5.26905">
        <ele>71.41513</ele>
        <time>2020-07-16T05:25:05.584Z</time>
      </trkpt>
      <trkpt lat="61.6387" lon="5.26823">
        <ele>70.351944</ele>
        <time>2020-07-16T05:25:10.819Z</time>
      </trkpt>
      <trkpt lat="61.63833" lon="5.26602">
        <ele>67.380324</ele>
        <time>2020-07-16T05:25:26.147Z</time>
      </trkpt>
      <trkpt lat="61.63823" lon="5.26507">
        <ele>66.774339</ele>
        <time>2020-07-16T05:25:32.798Z</time>
      </trkpt>
      <trkpt lat="61.63822" lon="5.26357">
        <ele>66.028644</ele>
        <time>2020-07-16T05:25:43.059Z</time>
      </trkpt>
      <trkpt lat="61.63834" lon="5.26027">
        <ele>65.783293</ele>
        <time>2020-07-16T05:26:12.373Z</time>
      </trkpt>
      <trkpt lat="61.63834" lon="5.25964">
        <ele>65.948519</ele>
        <time>2020-07-16T05:26:18.838Z</time>
      </trkpt>
      <trkpt lat="61.63833" lon="5.25909">
        <ele>66.092203</ele>
        <time>2020-07-16T05:26:24.338Z</time>
      </trkpt>
      <trkpt lat="61.63818" lon="5.25697">
        <ele>66.807402</ele>
        <time>2020-07-16T05:26:44.384Z</time>
      </trkpt>
      <trkpt lat="61.63788" lon="5.25362">
        <ele>67.838162</ele>
        <time>2020-07-16T05:27:17.694Z</time>
      </trkpt>
      <trkpt lat="61.63774" lon="5.25211">
        <ele>68.04433</ele>
        <time>2020-07-16T05:27:33.663Z</time>
      </trkpt>
      <trkpt lat="61.63723" lon="5.24815">
        <ele>63.470817</ele>
        <time>2020-07-16T05:28:03.237Z</time>
      </trkpt>
      <trkpt lat="61.63589" lon="5.23877">
        <ele>24.852433</ele>
        <time>2020-07-16T05:28:54.384Z</time>
      </trkpt>
      <trkpt lat="61.63583" lon="5.23829">
        <ele>23.545116</ele>
        <time>2020-07-16T05:28:57.142Z</time>
      </trkpt>
      <trkpt lat="61.63582" lon="5.23802">
        <ele>22.845427</ele>
        <time>2020-07-16T05:28:58.728Z</time>
      </trkpt>
      <trkpt lat="61.63581" lon="5.2373">
        <ele>20.959422</ele>
        <time>2020-07-16T05:29:02.965Z</time>
      </trkpt>
      <trkpt lat="61.63598" lon="5.23405">
        <ele>17.825622</ele>
        <time>2020-07-16T05:29:26.792Z</time>
      </trkpt>
      <trkpt lat="61.63597" lon="5.23324">
        <ele>17.638012</ele>
        <time>2020-07-16T05:29:34.340Z</time>
      </trkpt>
      <trkpt lat="61.63567" lon="5.22869">
        <ele>20.44693</ele>
        <time>2020-07-16T05:30:18.464Z</time>
      </trkpt>
      <trkpt lat="61.63546" lon="5.22696">
        <ele>27.594117</ele>
        <time>2020-07-16T05:30:52.534Z</time>
      </trkpt>
      <trkpt lat="61.63547" lon="5.22652">
        <ele>29.361581</ele>
        <time>2020-07-16T05:31:04.627Z</time>
      </trkpt>
      <trkpt lat="61.63548" lon="5.22627">
        <ele>30.365192</ele>
        <time>2020-07-16T05:31:09.822Z</time>
      </trkpt>
      <trkpt lat="61.63575" lon="5.22476">
        <ele>37.096944</ele>
        <time>2020-07-16T05:31:53.599Z</time>
      </trkpt>
      <trkpt lat="61.63578" lon="5.22412">
        <ele>40.088699</ele>
        <time>2020-07-16T05:32:10.149Z</time>
      </trkpt>
      <trkpt lat="61.63574" lon="5.22372">
        <ele>41.977493</ele>
        <time>2020-07-16T05:32:22.870Z</time>
      </trkpt>
      <trkpt lat="61.63569" lon="5.22334">
        <ele>43.844632</ele>
        <time>2020-07-16T05:32:31.929Z</time>
      </trkpt>
      <trkpt lat="61.63556" lon="5.22181">
        <ele>51.071795</ele>
        <time>2020-07-16T05:33:08.811Z</time>
      </trkpt>
      <trkpt lat="61.63571" lon="5.22046">
        <ele>54.690395</ele>
        <time>2020-07-16T05:33:30.715Z</time>
      </trkpt>
      <trkpt lat="61.63571" lon="5.2198">
        <ele>55.908743</ele>
        <time>2020-07-16T05:33:37.209Z</time>
      </trkpt>
      <trkpt lat="61.63563" lon="5.21928">
        <ele>56.908761</ele>
        <time>2020-07-16T05:33:42.602Z</time>
      </trkpt>
      <trkpt lat="61.63504" lon="5.21677">
        <ele>66.105592</ele>
        <time>2020-07-16T05:34:24.119Z</time>
      </trkpt>
      <trkpt lat="61.63497" lon="5.21624">
        <ele>68.855884</ele>
        <time>2020-07-16T05:34:36.151Z</time>
      </trkpt>
      <trkpt lat="61.63498" lon="5.21568">
        <ele>71.70529</ele>
        <time>2020-07-16T05:34:50.342Z</time>
      </trkpt>
      <trkpt lat="61.63512" lon="5.215">
        <ele>75.466701</ele>
        <time>2020-07-16T05:35:12.171Z</time>
      </trkpt>
      <trkpt lat="61.6353" lon="5.21459">
        <ele>78.253884</ele>
        <time>2020-07-16T05:35:30.671Z</time>
      </trkpt>
      <trkpt lat="61.63557" lon="5.21426">
        <ele>84.051494</ele>
        <time>2020-07-16T05:35:55.403Z</time>
      </trkpt>
      <trkpt lat="61.63584" lon="5.21423">
        <ele>89.820778</ele>
        <time>2020-07-16T05:36:19.357Z</time>
      </trkpt>
      <trkpt lat="61.6361" lon="5.21443">
        <ele>95.516566</ele>
        <time>2020-07-16T05:36:44.171Z</time>
      </trkpt>
      <trkpt lat="61.63624" lon="5.2147">
        <ele>99.512352</ele>
        <time>2020-07-16T05:37:01.517Z</time>
      </trkpt>
      <trkpt lat="61.63663" lon="5.21642">
        <ele>117.90634</ele>
        <time>2020-07-16T05:38:22.200Z</time>
      </trkpt>
      <trkpt lat="61.6368" lon="5.21681">
        <ele>121.558747</ele>
        <time>2020-07-16T05:38:43.033Z</time>
      </trkpt>
      <trkpt lat="61.63703" lon="5.21687">
        <ele>124.956565</ele>
        <time>2020-07-16T05:39:01.315Z</time>
      </trkpt>
      <trkpt lat="61.63719" lon="5.21672">
        <ele>127.4441</ele>
        <time>2020-07-16T05:39:13.732Z</time>
      </trkpt>
      <trkpt lat="61.6373" lon="5.21647">
        <ele>129.814223</ele>
        <time>2020-07-16T05:39:24.952Z</time>
      </trkpt>
      <trkpt lat="61.63755" lon="5.21491">
        <ele>141.066744</ele>
        <time>2020-07-16T05:40:07.712Z</time>
      </trkpt>
      <trkpt lat="61.63759" lon="5.21411">
        <ele>143.75804</ele>
        <time>2020-07-16T05:40:22.900Z</time>
      </trkpt>
      <trkpt lat="61.63732" lon="5.21224">
        <ele>147.432905</ele>
        <time>2020-07-16T05:40:50.178Z</time>
      </trkpt>
      <trkpt lat="61.63728" lon="5.21134">
        <ele>149.126833</ele>
        <time>2020-07-16T05:41:00.514Z</time>
      </trkpt>
      <trkpt lat="61.63734" lon="5.21078">
        <ele>149.806594</ele>
        <time>2020-07-16T05:41:06.393Z</time>
      </trkpt>
      <trkpt lat="61.63771" lon="5.20906">
        <ele>150.003343</ele>
        <time>2020-07-16T05:41:24.159Z</time>
      </trkpt>
      <trkpt lat="61.63777" lon="5.20843">
        <ele>150.07105</ele>
        <time>2020-07-16T05:41:29.779Z</time>
      </trkpt>
      <trkpt lat="61.63771" lon="5.20561">
        <ele>149.302951</ele>
        <time>2020-07-16T05:41:50.340Z</time>
      </trkpt>
      <trkpt lat="61.63784" lon="5.20286">
        <ele>150.519878</ele>
        <time>2020-07-16T05:42:10.078Z</time>
      </trkpt>
      <trkpt lat="61.63795" lon="5.20217">
        <ele>152.609874</ele>
        <time>2020-07-16T05:42:17.849Z</time>
      </trkpt>
      <trkpt lat="61.63815" lon="5.20158">
        <ele>154.713897</ele>
        <time>2020-07-16T05:42:28.577Z</time>
      </trkpt>
      <trkpt lat="61.63842" lon="5.20112">
        <ele>156.843791</ele>
        <time>2020-07-16T05:42:46.909Z</time>
      </trkpt>
      <trkpt lat="61.63868" lon="5.20087">
        <ele>158.578096</ele>
        <time>2020-07-16T05:43:03.824Z</time>
      </trkpt>
      <trkpt lat="61.63902" lon="5.20064">
        <ele>163.213226</ele>
        <time>2020-07-16T05:43:27.165Z</time>
      </trkpt>
      <trkpt lat="61.63909" lon="5.20058">
        <ele>164.436785</ele>
        <time>2020-07-16T05:43:32.641Z</time>
      </trkpt>
      <trkpt lat="61.63919" lon="5.20047">
        <ele>166.148524</ele>
        <time>2020-07-16T05:43:39.749Z</time>
      </trkpt>
      <trkpt lat="61.63928" lon="5.20033">
        <ele>168.025302</ele>
        <time>2020-07-16T05:43:47.788Z</time>
      </trkpt>
      <trkpt lat="61.63948" lon="5.19996">
        <ele>172.138233</ele>
        <time>2020-07-16T05:44:06.193Z</time>
      </trkpt>
      <trkpt lat="61.63954" lon="5.19983">
        <ele>173.536159</ele>
        <time>2020-07-16T05:44:12.672Z</time>
      </trkpt>
      <trkpt lat="61.63968" lon="5.19951">
        <ele>176.841732</ele>
        <time>2020-07-16T05:44:28.949Z</time>
      </trkpt>
      <trkpt lat="61.63988" lon="5.19905">
        <ele>181.59051</ele>
        <time>2020-07-16T05:44:50.618Z</time>
      </trkpt>
      <trkpt lat="61.64022" lon="5.19871">
        <ele>187.487618</ele>
        <time>2020-07-16T05:45:17.625Z</time>
      </trkpt>
      <trkpt lat="61.64093" lon="5.19875">
        <ele>194.455515</ele>
        <time>2020-07-16T05:46:03.641Z</time>
      </trkpt>
      <trkpt lat="61.64233" lon="5.19803">
        <ele>206.571128</ele>
        <time>2020-07-16T05:46:57.485Z</time>
      </trkpt>
      <trkpt lat="61.6436" lon="5.19769">
        <ele>212.209112</ele>
        <time>2020-07-16T05:47:35.754Z</time>
      </trkpt>
      <trkpt lat="61.64426" lon="5.19734">
        <ele>215.518349</ele>
        <time>2020-07-16T05:47:57.130Z</time>
      </trkpt>
      <trkpt lat="61.6449" lon="5.19684">
        <ele>218.989787</ele>
        <time>2020-07-16T05:48:19.608Z</time>
      </trkpt>
      <trkpt lat="61.64672" lon="5.19607">
        <ele>230.891434</ele>
        <time>2020-07-16T05:49:29.720Z</time>
      </trkpt>
      <trkpt lat="61.64813" lon="5.19527">
        <ele>244.862353</ele>
        <time>2020-07-16T05:50:37.440Z</time>
      </trkpt>
      <trkpt lat="61.64859" lon="5.19498">
        <ele>250.252298</ele>
        <time>2020-07-16T05:51:06.203Z</time>
      </trkpt>
      <trkpt lat="61.64888" lon="5.19467">
        <ele>253.839236</ele>
        <time>2020-07-16T05:51:25.408Z</time>
      </trkpt>
      <trkpt lat="61.64924" lon="5.19423">
        <ele>260.000079</ele>
        <time>2020-07-16T05:51:51.701Z</time>
      </trkpt>
      <trkpt lat="61.64932" lon="5.19415">
        <ele>261.421051</ele>
        <time>2020-07-16T05:51:56.918Z</time>
      </trkpt>
      <trkpt lat="61.64953" lon="5.19386">
        <ele>265.35666</ele>
        <time>2020-07-16T05:52:13.952Z</time>
      </trkpt>
      <trkpt lat="61.64981" lon="5.19353">
        <ele>270.532274</ele>
        <time>2020-07-16T05:52:36.147Z</time>
      </trkpt>
      <trkpt lat="61.65027" lon="5.19323">
        <ele>278.187411</ele>
        <time>2020-07-16T05:53:10.912Z</time>
      </trkpt>
      <trkpt lat="61.65141" lon="5.19304">
        <ele>298.051208</ele>
        <time>2020-07-16T05:54:36.541Z</time>
      </trkpt>
      <trkpt lat="61.6527" lon="5.19309">
        <ele>321.392002</ele>
        <time>2020-07-16T05:56:15.680Z</time>
      </trkpt>
      <trkpt lat="61.65384" lon="5.19298">
        <ele>341.751389</ele>
        <time>2020-07-16T05:57:45.001Z</time>
      </trkpt>
      <trkpt lat="61.65439" lon="5.1929">
        <ele>350.370439</ele>
        <time>2020-07-16T05:58:24.250Z</time>
      </trkpt>
      <trkpt lat="61.65553" lon="5.19273">
        <ele>363.434532</ele>
        <time>2020-07-16T05:59:30.351Z</time>
      </trkpt>
      <trkpt lat="61.65616" lon="5.19264">
        <ele>369.386775</ele>
        <time>2020-07-16T05:59:55.577Z</time>
      </trkpt>
      <trkpt lat="61.65662" lon="5.1927">
        <ele>370.923395</ele>
        <time>2020-07-16T06:00:10.028Z</time>
      </trkpt>
      <trkpt lat="61.65854" lon="5.1935">
        <ele>376.783653</ele>
        <time>2020-07-16T06:00:56.516Z</time>
      </trkpt>
      <trkpt lat="61.66074" lon="5.19401">
        <ele>383.627618</ele>
        <time>2020-07-16T06:01:57.086Z</time>
      </trkpt>
      <trkpt lat="61.66102" lon="5.19419">
        <ele>384.694779</ele>
        <time>2020-07-16T06:02:06.444Z</time>
      </trkpt>
      <trkpt lat="61.66134" lon="5.19455">
        <ele>386.153037</ele>
        <time>2020-07-16T06:02:18.098Z</time>
      </trkpt>
      <trkpt lat="61.66192" lon="5.19486">
        <ele>390.418913</ele>
        <time>2020-07-16T06:02:39.300Z</time>
      </trkpt>
      <trkpt lat="61.66307" lon="5.19497">
        <ele>398.542749</ele>
        <time>2020-07-16T06:03:27.758Z</time>
      </trkpt>
      <trkpt lat="61.66385" lon="5.19517">
        <ele>407.82377</ele>
        <time>2020-07-16T06:04:09.808Z</time>
      </trkpt>
      <trkpt lat="61.6647" lon="5.19539">
        <ele>417.875985</ele>
        <time>2020-07-16T06:04:59.896Z</time>
      </trkpt>
      <trkpt lat="61.66532" lon="5.19536">
        <ele>427.112969</ele>
        <time>2020-07-16T06:05:37.673Z</time>
      </trkpt>
      <trkpt lat="61.66711" lon="5.19494">
        <ele>460.944564</ele>
        <time>2020-07-16T06:07:45.152Z</time>
      </trkpt>
      <trkpt lat="61.66775" lon="5.19494">
        <ele>478.214746</ele>
        <time>2020-07-16T06:08:43.522Z</time>
      </trkpt>
      <trkpt lat="61.66858" lon="5.19503">
        <ele>502.641645</ele>
        <time>2020-07-16T06:10:02.395Z</time>
      </trkpt>
      <trkpt lat="61.66926" lon="5.19542">
        <ele>529.619466</ele>
        <time>2020-07-16T06:11:09.456Z</time>
      </trkpt>
      <trkpt lat="61.66998" lon="5.19607">
        <ele>559.500278</ele>
        <time>2020-07-16T06:12:23.981Z</time>
      </trkpt>
      <trkpt lat="61.67229" lon="5.19875">
        <ele>648.447528</ele>
        <time>2020-07-16T06:16:33.018Z</time>
      </trkpt>
      <trkpt lat="61.67297" lon="5.19937">
        <ele>669.668867</ele>
        <time>2020-07-16T06:17:41.303Z</time>
      </trkpt>
      <trkpt lat="61.67358" lon="5.19967">
        <ele>685.610855</ele>
        <time>2020-07-16T06:18:38.876Z</time>
      </trkpt>
      <trkpt lat="61.67427" lon="5.19987">
        <ele>699.62521</ele>
        <time>2020-07-16T06:19:37.227Z</time>
      </trkpt>
      <trkpt lat="61.67505" lon="5.19973">
        <ele>715.670899</ele>
        <time>2020-07-16T06:20:40.429Z</time>
      </trkpt>
      <trkpt lat="61.67657" lon="5.19967">
        <ele>741.006414</ele>
        <time>2020-07-16T06:22:32.800Z</time>
      </trkpt>
      <trkpt lat="61.67741" lon="5.19962">
        <ele>749.943993</ele>
        <time>2020-07-16T06:23:26.808Z</time>
      </trkpt>
      <trkpt lat="61.67833" lon="5.19944">
        <ele>755.710618</ele>
        <time>2020-07-16T06:24:04.541Z</time>
      </trkpt>
      <trkpt lat="61.67887" lon="5.19915">
        <ele>755.920067</ele>
        <time>2020-07-16T06:24:14.363Z</time>
      </trkpt>
      <trkpt lat="61.68336" lon="5.19576">
        <ele>690.512376</ele>
        <time>2020-07-16T06:25:06.604Z</time>
      </trkpt>
      <trkpt lat="61.68396" lon="5.19545">
        <ele>679.396526</ele>
        <time>2020-07-16T06:25:13.240Z</time>
      </trkpt>
      <trkpt lat="61.69186" lon="5.19557">
        <ele>508.833924</ele>
        <time>2020-07-16T06:26:36.724Z</time>
      </trkpt>
      <trkpt lat="61.69214" lon="5.1957">
        <ele>504.983262</ele>
        <time>2020-07-16T06:26:40.077Z</time>
      </trkpt>
      <trkpt lat="61.69254" lon="5.19614">
        <ele>498.908399</ele>
        <time>2020-07-16T06:26:45.719Z</time>
      </trkpt>
      <trkpt lat="61.69268" lon="5.19634">
        <ele>496.657943</ele>
        <time>2020-07-16T06:26:47.652Z</time>
      </trkpt>
      <trkpt lat="61.69275" lon="5.19644">
        <ele>495.907675</ele>
        <time>2020-07-16T06:26:53.888Z</time>
      </trkpt>
      <trkpt lat="61.69362" lon="5.19795">
        <ele>488.438812</ele>
        <time>2020-07-16T06:27:10.632Z</time>
      </trkpt>
      <trkpt lat="61.69409" lon="5.19854">
        <ele>484.824085</ele>
        <time>2020-07-16T06:27:16.956Z</time>
      </trkpt>
      <trkpt lat="61.69527" lon="5.1993">
        <ele>446.279412</ele>
        <time>2020-07-16T06:27:29.539Z</time>
      </trkpt>
      <trkpt lat="61.69583" lon="5.19957">
        <ele>427.522465</ele>
        <time>2020-07-16T06:27:35.683Z</time>
      </trkpt>
      <trkpt lat="61.69604" lon="5.19958">
        <ele>419.136143</ele>
        <time>2020-07-16T06:27:37.940Z</time>
      </trkpt>
      <trkpt lat="61.69661" lon="5.19932">
        <ele>393.809786</ele>
        <time>2020-07-16T06:27:44.336Z</time>
      </trkpt>
      <trkpt lat="61.69803" lon="5.19834">
        <ele>338.758389</ele>
        <time>2020-07-16T06:28:00.064Z</time>
      </trkpt>
      <trkpt lat="61.70044" lon="5.19623">
        <ele>292.693565</ele>
        <time>2020-07-16T06:28:27.302Z</time>
      </trkpt>
      <trkpt lat="61.70239" lon="5.19446">
        <ele>270.498037</ele>
        <time>2020-07-16T06:28:50.738Z</time>
      </trkpt>
      <trkpt lat="61.70291" lon="5.19384">
        <ele>264.159713</ele>
        <time>2020-07-16T06:28:57.164Z</time>
      </trkpt>
      <trkpt lat="61.70328" lon="5.19321">
        <ele>258.684071</ele>
        <time>2020-07-16T06:29:02.331Z</time>
      </trkpt>
      <trkpt lat="61.70403" lon="5.19218">
        <ele>248.434199</ele>
        <time>2020-07-16T06:29:11.899Z</time>
      </trkpt>
      <trkpt lat="61.70444" lon="5.1918">
        <ele>242.852349</ele>
        <time>2020-07-16T06:29:16.614Z</time>
      </trkpt>
      <trkpt lat="61.70494" lon="5.19148">
        <ele>236.247604</ele>
        <time>2020-07-16T06:29:22.100Z</time>
      </trkpt>
      <trkpt lat="61.70548" lon="5.19133">
        <ele>229.30216</ele>
        <time>2020-07-16T06:29:27.872Z</time>
      </trkpt>
      <trkpt lat="61.70631" lon="5.19146">
        <ele>220.270406</ele>
        <time>2020-07-16T06:29:36.717Z</time>
      </trkpt>
      <trkpt lat="61.70783" lon="5.19214">
        <ele>206.678773</ele>
        <time>2020-07-16T06:29:53.978Z</time>
      </trkpt>
      <trkpt lat="61.70901" lon="5.19302">
        <ele>200.839071</ele>
        <time>2020-07-16T06:30:09.967Z</time>
      </trkpt>
      <trkpt lat="61.70925" lon="5.19311">
        <ele>199.686022</ele>
        <time>2020-07-16T06:30:13.213Z</time>
      </trkpt>
      <trkpt lat="61.70983" lon="5.19312">
        <ele>195.133636</ele>
        <time>2020-07-16T06:30:20.633Z</time>
      </trkpt>
      <trkpt lat="61.7105" lon="5.19293">
        <ele>189.679184</ele>
        <time>2020-07-16T06:30:28.429Z</time>
      </trkpt>
      <trkpt lat="61.71515" lon="5.191">
        <ele>126.599695</ele>
        <time>2020-07-16T06:31:18.258Z</time>
      </trkpt>
      <trkpt lat="61.7156" lon="5.19082">
        <ele>119.619368</ele>
        <time>2020-07-16T06:31:22.854Z</time>
      </trkpt>
      <trkpt lat="61.71584" lon="5.19073">
        <ele>115.806928</ele>
        <time>2020-07-16T06:31:25.363Z</time>
      </trkpt>
      <trkpt lat="61.71855" lon="5.18957">
        <ele>85.035697</ele>
        <time>2020-07-16T06:31:54.615Z</time>
      </trkpt>
      <trkpt lat="61.719" lon="5.18962">
        <ele>85.799935</ele>
        <time>2020-07-16T06:32:04.064Z</time>
      </trkpt>
      <trkpt lat="61.71922" lon="5.18987">
        <ele>86.226202</ele>
        <time>2020-07-16T06:32:12.181Z</time>
      </trkpt>
      <trkpt lat="61.71939" lon="5.19023">
        <ele>86.626144</ele>
        <time>2020-07-16T06:32:22.107Z</time>
      </trkpt>
      <trkpt lat="61.71947" lon="5.19056">
        <ele>86.928357</ele>
        <time>2020-07-16T06:32:30.482Z</time>
      </trkpt>
      <trkpt lat="61.71953" lon="5.19133">
        <ele>88.673865</ele>
        <time>2020-07-16T06:32:51.372Z</time>
      </trkpt>
      <trkpt lat="61.71921" lon="5.19384">
        <ele>104.942668</ele>
        <time>2020-07-16T06:34:14.716Z</time>
      </trkpt>
      <trkpt lat="61.71918" lon="5.19472">
        <ele>110.503431</ele>
        <time>2020-07-16T06:34:40.668Z</time>
      </trkpt>
      <trkpt lat="61.71921" lon="5.19537">
        <ele>111.006376</ele>
        <time>2020-07-16T06:34:55.668Z</time>
      </trkpt>
      <trkpt lat="61.71933" lon="5.19666">
        <ele>110.533175</ele>
        <time>2020-07-16T06:35:12.867Z</time>
      </trkpt>
      <trkpt lat="61.71961" lon="5.19753">
        <ele>110.161569</ele>
        <time>2020-07-16T06:35:19.410Z</time>
      </trkpt>
      <trkpt lat="61.72" lon="5.19832">
        <ele>107.982974</ele>
        <time>2020-07-16T06:35:25.251Z</time>
      </trkpt>
      <trkpt lat="61.7202" lon="5.19879">
        <ele>103.215478</ele>
        <time>2020-07-16T06:35:28.364Z</time>
      </trkpt>
      <trkpt lat="61.72054" lon="5.19974">
        <ele>94.090502</ele>
        <time>2020-07-16T06:35:34.267Z</time>
      </trkpt>
      <trkpt lat="61.7206" lon="5.2001">
        <ele>91.242376</ele>
        <time>2020-07-16T06:35:36.077Z</time>
      </trkpt>
      <trkpt lat="61.72066" lon="5.20056">
        <ele>87.584167</ele>
        <time>2020-07-16T06:35:38.410Z</time>
      </trkpt>
      <trkpt lat="61.72076" lon="5.20148">
        <ele>80.333534</ele>
        <time>2020-07-16T06:35:42.998Z</time>
      </trkpt>
      <trkpt lat="61.72092" lon="5.20239">
        <ele>72.310114</ele>
        <time>2020-07-16T06:35:47.713Z</time>
      </trkpt>
      <trkpt lat="61.7213" lon="5.20348">
        <ele>61.089627</ele>
        <time>2020-07-16T06:35:54.283Z</time>
      </trkpt>
      <trkpt lat="61.72155" lon="5.20388">
        <ele>55.536677</ele>
        <time>2020-07-16T06:35:57.564Z</time>
      </trkpt>
      <trkpt lat="61.72188" lon="5.20423">
        <ele>49.210353</ele>
        <time>2020-07-16T06:36:01.339Z</time>
      </trkpt>
      <trkpt lat="61.72309" lon="5.20529">
        <ele>30.835125</ele>
        <time>2020-07-16T06:36:14.925Z</time>
      </trkpt>
      <trkpt lat="61.72325" lon="5.20553">
        <ele>28.040214</ele>
        <time>2020-07-16T06:36:17.037Z</time>
      </trkpt>
      <trkpt lat="61.72338" lon="5.20604">
        <ele>24.23496</ele>
        <time>2020-07-16T06:36:19.983Z</time>
      </trkpt>
      <trkpt lat="61.72333" lon="5.20685">
        <ele>22.96767</ele>
        <time>2020-07-16T06:36:24.293Z</time>
      </trkpt>
      <trkpt lat="61.72309" lon="5.20779">
        <ele>21.318019</ele>
        <time>2020-07-16T06:36:30.362Z</time>
      </trkpt>
      <trkpt lat="61.72264" lon="5.20891">
        <ele>19.041402</ele>
        <time>2020-07-16T06:36:41.627Z</time>
      </trkpt>
      <trkpt lat="61.72146" lon="5.21117">
        <ele>23.641008</ele>
        <time>2020-07-16T06:37:32.041Z</time>
      </trkpt>
      <trkpt lat="61.72124" lon="5.21184">
        <ele>25.128483</ele>
        <time>2020-07-16T06:37:44.690Z</time>
      </trkpt>
      <trkpt lat="61.72116" lon="5.21237">
        <ele>25.537938</ele>
        <time>2020-07-16T06:37:52.469Z</time>
      </trkpt>
      <trkpt lat="61.72113" lon="5.21282">
        <ele>25.827048</ele>
        <time>2020-07-16T06:37:58.564Z</time>
      </trkpt>
      <trkpt lat="61.7212" lon="5.21363">
        <ele>26.344306</ele>
        <time>2020-07-16T06:38:08.489Z</time>
      </trkpt>
      <trkpt lat="61.72135" lon="5.21407">
        <ele>26.684671</ele>
        <time>2020-07-16T06:38:14.376Z</time>
      </trkpt>
      <trkpt lat="61.72171" lon="5.21465">
        <ele>27.28546</ele>
        <time>2020-07-16T06:38:22.444Z</time>
      </trkpt>
      <trkpt lat="61.72197" lon="5.21521">
        <ele>27.178693</ele>
        <time>2020-07-16T06:38:27.905Z</time>
      </trkpt>
      <trkpt lat="61.72221" lon="5.21688">
        <ele>24.295748</ele>
        <time>2020-07-16T06:38:38.874Z</time>
      </trkpt>
      <trkpt lat="61.72222" lon="5.21695">
        <ele>24.176293</ele>
        <time>2020-07-16T06:38:39.529Z</time>
      </trkpt>
      <trkpt lat="61.72231" lon="5.2172">
        <ele>23.675059</ele>
        <time>2020-07-16T06:38:41.213Z</time>
      </trkpt>
      <trkpt lat="61.72251" lon="5.21758">
        <ele>22.717004</ele>
        <time>2020-07-16T06:38:44.683Z</time>
      </trkpt>
      <trkpt lat="61.72323" lon="5.21847">
        <ele>20.273009</ele>
        <time>2020-07-16T06:38:54.670Z</time>
      </trkpt>
      <trkpt lat="61.72354" lon="5.21868">
        <ele>19.483134</ele>
        <time>2020-07-16T06:38:58.630Z</time>
      </trkpt>
      <trkpt lat="61.72431" lon="5.21889">
        <ele>17.573858</ele>
        <time>2020-07-16T06:39:09.419Z</time>
      </trkpt>
      <trkpt lat="61.72461" lon="5.21918">
        <ele>17.592177</ele>
        <time>2020-07-16T06:39:15.599Z</time>
      </trkpt>
      <trkpt lat="61.72486" lon="5.21954">
        <ele>20.321242</ele>
        <time>2020-07-16T06:39:22.603Z</time>
      </trkpt>
      <trkpt lat="61.72504" lon="5.22013">
        <ele>23.342776</ele>
        <time>2020-07-16T06:39:36.688Z</time>
      </trkpt>
      <trkpt lat="61.72542" lon="5.22257">
        <ele>34.24145</ele>
        <time>2020-07-16T06:40:48.865Z</time>
      </trkpt>
      <trkpt lat="61.72548" lon="5.22283">
        <ele>35.39391</ele>
        <time>2020-07-16T06:40:59.458Z</time>
      </trkpt>
      <trkpt lat="61.72552" lon="5.22298">
        <ele>36.081498</ele>
        <time>2020-07-16T06:41:04.869Z</time>
      </trkpt>
      <trkpt lat="61.72558" lon="5.22314">
        <ele>36.850237</ele>
        <time>2020-07-16T06:41:08.447Z</time>
      </trkpt>
      <trkpt lat="61.72564" lon="5.22327">
        <ele>37.551635</ele>
        <time>2020-07-16T06:41:13.451Z</time>
      </trkpt>
      <trkpt lat="61.7257" lon="5.22341">
        <ele>38.295687</ele>
        <time>2020-07-16T06:41:19.909Z</time>
      </trkpt>
      <trkpt lat="61.72602" lon="5.22382">
        <ele>41.384037</ele>
        <time>2020-07-16T06:41:38.809Z</time>
      </trkpt>
      <trkpt lat="61.72612" lon="5.22388">
        <ele>42.26134</ele>
        <time>2020-07-16T06:41:43.975Z</time>
      </trkpt>
      <trkpt lat="61.72619" lon="5.22391">
        <ele>42.814305</ele>
        <time>2020-07-16T06:41:45.130Z</time>
      </trkpt>
      <trkpt lat="61.72627" lon="5.22395">
        <ele>43.496251</ele>
        <time>2020-07-16T06:41:48.786Z</time>
      </trkpt>
      <trkpt lat="61.72635" lon="5.22397">
        <ele>44.20248</ele>
        <time>2020-07-16T06:41:53.512Z</time>
      </trkpt>
      <trkpt lat="61.72649" lon="5.22395">
        <ele>45.368067</ele>
        <time>2020-07-16T06:41:58.755Z</time>
      </trkpt>
      <trkpt lat="61.72681" lon="5.22387">
        <ele>48.024082</ele>
        <time>2020-07-16T06:42:09.724Z</time>
      </trkpt>
      <trkpt lat="61.72716" lon="5.22355">
        <ele>44.970704</ele>
        <time>2020-07-16T06:42:15.102Z</time>
      </trkpt>
      <trkpt lat="61.72854" lon="5.22125">
        <ele>28.901251</ele>
        <time>2020-07-16T06:42:33.988Z</time>
      </trkpt>
      <trkpt lat="61.72909" lon="5.21999">
        <ele>19.0274</ele>
        <time>2020-07-16T06:42:42.504Z</time>
      </trkpt>
      <trkpt lat="61.72936" lon="5.21892">
        <ele>12.095503</ele>
        <time>2020-07-16T06:42:48.668Z</time>
      </trkpt>
      <trkpt lat="61.72943" lon="5.21855">
        <ele>10.480392</ele>
        <time>2020-07-16T06:42:50.729Z</time>
      </trkpt>
      <trkpt lat="61.72949" lon="5.21824">
        <ele>9.58921</ele>
        <time>2020-07-16T06:42:52.514Z</time>
      </trkpt>
      <trkpt lat="61.72953" lon="5.21801">
        <ele>8.910821</ele>
        <time>2020-07-16T06:42:53.812Z</time>
      </trkpt>
      <trkpt lat="61.72962" lon="5.21756">
        <ele>7.58802</ele>
        <time>2020-07-16T06:42:56.448Z</time>
      </trkpt>
      <trkpt lat="61.72969" lon="5.21722">
        <ele>6.575971</ele>
        <time>2020-07-16T06:42:58.445Z</time>
      </trkpt>
      <trkpt lat="61.72985" lon="5.21642">
        <ele>4.205301</ele>
        <time>2020-07-16T06:43:03.376Z</time>
      </trkpt>
      <trkpt lat="61.73007" lon="5.2152">
        <ele>0.769336</ele>
        <time>2020-07-16T06:43:11.708Z</time>
      </trkpt>
      <trkpt lat="61.73014" lon="5.2148">
        <ele>0.682238</ele>
        <time>2020-07-16T06:43:14.994Z</time>
      </trkpt>
      <trkpt lat="61.73027" lon="5.21413">
        <ele>0.532567</ele>
        <time>2020-07-16T06:43:21.101Z</time>
      </trkpt>
      <trkpt lat="61.73042" lon="5.21339">
        <ele>0.367824</ele>
        <time>2020-07-16T06:43:27.867Z</time>
      </trkpt>
      <trkpt lat="61.73045" lon="5.21331">
        <ele>0.348517</ele>
        <time>2020-07-16T06:43:28.663Z</time>
      </trkpt>
      <trkpt lat="61.73051" lon="5.21306">
        <ele>0.28958</ele>
        <time>2020-07-16T06:43:31.090Z</time>
      </trkpt>
      <trkpt lat="61.73056" lon="5.21288">
        <ele>0.247119</ele>
        <time>2020-07-16T06:43:32.836Z</time>
      </trkpt>
      <trkpt lat="61.7308" lon="5.21231">
        <ele>0.090041</ele>
        <time>2020-07-16T06:43:39.300Z</time>
      </trkpt>
      <trkpt lat="61.73087" lon="5.21221">
        <ele>0.05449</ele>
        <time>2020-07-16T06:43:40.764Z</time>
      </trkpt>
      <trkpt lat="61.73106" lon="5.21194">
        <ele>0.00723</ele>
        <time>2020-07-16T06:43:44.809Z</time>
      </trkpt>
      <trkpt lat="61.73115" lon="5.2118">
        <ele>0.015183</ele>
        <time>2020-07-16T06:43:46.782Z</time>
      </trkpt>
      <trkpt lat="61.7312" lon="5.2117">
        <ele>0.020128</ele>
        <time>2020-07-16T06:43:48.019Z</time>
      </trkpt>
      <trkpt lat="61.73137" lon="5.21134">
        <ele>0.037452</ele>
        <time>2020-07-16T06:43:52.316Z</time>
      </trkpt>
      <trkpt lat="61.73182" lon="5.20985">
        <ele>0.097342</ele>
        <time>2020-07-16T06:44:07.224Z</time>
      </trkpt>
      <trkpt lat="61.73225" lon="5.2081">
        <ele>0.74801</ele>
        <time>2020-07-16T06:44:24.582Z</time>
      </trkpt>
      <trkpt lat="61.73234" lon="5.20777">
        <ele>0.972507</ele>
        <time>2020-07-16T06:44:28.196Z</time>
      </trkpt>
      <trkpt lat="61.73245" lon="5.20744">
        <ele>1.205948</ele>
        <time>2020-07-16T06:44:32.199Z</time>
      </trkpt>
      <trkpt lat="61.73269" lon="5.20651">
        <ele>1.832066</ele>
        <time>2020-07-16T06:44:43.455Z</time>
      </trkpt>
      <trkpt lat="61.73294" lon="5.20581">
        <ele>2.349329</ele>
        <time>2020-07-16T06:44:53.568Z</time>
      </trkpt>
      <trkpt lat="61.73378" lon="5.20416">
        <ele>5.248165</ele>
        <time>2020-07-16T06:45:25.061Z</time>
      </trkpt>
      <trkpt lat="61.73449" lon="5.20294">
        <ele>6.760263</ele>
        <time>2020-07-16T06:45:49.660Z</time>
      </trkpt>
      <trkpt lat="61.73511" lon="5.20235">
        <ele>6.209253</ele>
        <time>2020-07-16T06:46:00.298Z</time>
      </trkpt>
      <trkpt lat="61.73518" lon="5.20228">
        <ele>6.146334</ele>
        <time>2020-07-16T06:46:02.333Z</time>
      </trkpt>
      <trkpt lat="61.73523" lon="5.20222">
        <ele>6.100524</ele>
        <time>2020-07-16T06:46:03.023Z</time>
      </trkpt>
      <trkpt lat="61.73578" lon="5.20129">
        <ele>5.535162</ele>
        <time>2020-07-16T06:46:12.868Z</time>
      </trkpt>
      <trkpt lat="61.73584" lon="5.20115">
        <ele>5.362012</ele>
        <time>2020-07-16T06:46:13.953Z</time>
      </trkpt>
      <trkpt lat="61.73591" lon="5.20098">
        <ele>5.084576</ele>
        <time>2020-07-16T06:46:15.328Z</time>
      </trkpt>
      <trkpt lat="61.73603" lon="5.20065">
        <ele>4.585942</ele>
        <time>2020-07-16T06:46:18.148Z</time>
      </trkpt>
      <trkpt lat="61.73613" lon="5.20035">
        <ele>4.149529</ele>
        <time>2020-07-16T06:46:20.253Z</time>
      </trkpt>
      <trkpt lat="61.73636" lon="5.19953">
        <ele>2.995624</ele>
        <time>2020-07-16T06:46:26.269Z</time>
      </trkpt>
      <trkpt lat="61.73686" lon="5.19774">
        <ele>0.845675</ele>
        <time>2020-07-16T06:46:39.785Z</time>
      </trkpt>
      <trkpt lat="61.73712" lon="5.19613">
        <ele>0.449788</ele>
        <time>2020-07-16T06:46:54.082Z</time>
      </trkpt>
      <trkpt lat="61.73716" lon="5.19569">
        <ele>0.345713</ele>
        <time>2020-07-16T06:46:57.791Z</time>
      </trkpt>
      <trkpt lat="61.73724" lon="5.19479">
        <ele>0.132987</ele>
        <time>2020-07-16T06:47:05.413Z</time>
      </trkpt>
      <trkpt lat="61.73726" lon="5.19421">
        <ele>0.045523</ele>
        <time>2020-07-16T06:47:10.195Z</time>
      </trkpt>
      <trkpt lat="61.73726" lon="5.19395">
        <ele>0.042159</ele>
        <time>2020-07-16T06:47:12.411Z</time>
      </trkpt>
      <trkpt lat="61.73727" lon="5.19364">
        <ele>0.038198</ele>
        <time>2020-07-16T06:47:15.018Z</time>
      </trkpt>
      <trkpt lat="61.73724" lon="5.19106">
        <ele>0.005499</ele>
        <time>2020-07-16T06:47:36.729Z</time>
      </trkpt>
      <trkpt lat="61.73723" lon="5.19043">
        <ele>30.2</ele>
        <time>2020-07-16T06:47:42.030Z</time>
      </trkpt>
      <trkpt lat="61.73724" lon="5.19006">
        <ele>29.5</ele>
        <time>2020-07-16T06:47:45.211Z</time>
      </trkpt>
      <trkpt lat="61.73724" lon="5.18913">
        <ele>29.4</ele>
        <time>2020-07-16T06:47:53.049Z</time>
      </trkpt>
      <trkpt lat="61.73725" lon="5.18868">
        <ele>29</ele>
        <time>2020-07-16T06:47:56.840Z</time>
      </trkpt>
      <trkpt lat="61.73726" lon="5.18858">
        <ele>29.1</ele>
        <time>2020-07-16T06:47:57.694Z</time>
      </trkpt>
      <trkpt lat="61.73736" lon="5.18776">
        <ele>29.8</ele>
        <time>2020-07-16T06:48:04.914Z</time>
      </trkpt>
      <trkpt lat="61.73774" lon="5.18574">
        <ele>0.000567</ele>
        <time>2020-07-16T06:48:23.319Z</time>
      </trkpt>
      <trkpt lat="61.73798" lon="5.18468">
        <ele>0.001083</ele>
        <time>2020-07-16T06:48:33.143Z</time>
      </trkpt>
      <trkpt lat="61.7383" lon="5.18361">
        <ele>0.001649</ele>
        <time>2020-07-16T06:48:43.938Z</time>
      </trkpt>
      <trkpt lat="61.73836" lon="5.18311">
        <ele>0.059424</ele>
        <time>2020-07-16T06:48:48.246Z</time>
      </trkpt>
      <trkpt lat="61.73837" lon="5.18251">
        <ele>0.140315</ele>
        <time>2020-07-16T06:48:53.331Z</time>
      </trkpt>
      <trkpt lat="61.73832" lon="5.1821">
        <ele>0.197347</ele>
        <time>2020-07-16T06:48:56.915Z</time>
      </trkpt>
      <trkpt lat="61.73795" lon="5.18077">
        <ele>0.405834</ele>
        <time>2020-07-16T06:49:10.371Z</time>
      </trkpt>
      <trkpt lat="61.73788" lon="5.18036">
        <ele>0.463854</ele>
        <time>2020-07-16T06:49:14.399Z</time>
      </trkpt>
      <trkpt lat="61.7379" lon="5.17928">
        <ele>1.152837</ele>
        <time>2020-07-16T06:49:25.046Z</time>
      </trkpt>
      <trkpt lat="61.73809" lon="5.1784">
        <ele>2.006286</ele>
        <time>2020-07-16T06:49:35.288Z</time>
      </trkpt>
      <trkpt lat="61.73811" lon="5.17834">
        <ele>2.081092</ele>
        <time>2020-07-16T06:49:36.175Z</time>
      </trkpt>
      <trkpt lat="61.73817" lon="5.17821">
        <ele>2.232018</ele>
        <time>2020-07-16T06:49:38.251Z</time>
      </trkpt>
      <trkpt lat="61.73862" lon="5.17722">
        <ele>3.452706</ele>
        <time>2020-07-16T06:49:54.548Z</time>
      </trkpt>
      <trkpt lat="61.73882" lon="5.17648">
        <ele>4.344574</ele>
        <time>2020-07-16T06:50:05.712Z</time>
      </trkpt>
      <trkpt lat="61.7392" lon="5.17382">
        <ele>7.77848</ele>
        <time>2020-07-16T06:50:42.255Z</time>
      </trkpt>
      <trkpt lat="61.73918" lon="5.17279">
        <ele>8.722031</ele>
        <time>2020-07-16T06:50:53.285Z</time>
      </trkpt>
      <trkpt lat="61.73918" lon="5.17251">
        <ele>8.824053</ele>
        <time>2020-07-16T06:50:56.366Z</time>
      </trkpt>
      <trkpt lat="61.73916" lon="5.1719">
        <ele>9.051222</ele>
        <time>2020-07-16T06:51:01.895Z</time>
      </trkpt>
      <trkpt lat="61.73912" lon="5.17101">
        <ele>9.384656</ele>
        <time>2020-07-16T06:51:09.815Z</time>
      </trkpt>
      <trkpt lat="61.73908" lon="5.16994">
        <ele>9.786302</ele>
        <time>2020-07-16T06:51:18.994Z</time>
      </trkpt>
      <trkpt lat="61.73906" lon="5.16943">
        <ele>9.977442</ele>
        <time>2020-07-16T06:51:23.926Z</time>
      </trkpt>
      <trkpt lat="61.739" lon="5.16817">
        <ele>11.583109</ele>
        <time>2020-07-16T06:51:36.547Z</time>
      </trkpt>
      <trkpt lat="61.73901" lon="5.16773">
        <ele>12.166237</ele>
        <time>2020-07-16T06:51:41.872Z</time>
      </trkpt>
      <trkpt lat="61.73902" lon="5.16734">
        <ele>12.67903</ele>
        <time>2020-07-16T06:51:47.362Z</time>
      </trkpt>
      <trkpt lat="61.73908" lon="5.16674">
        <ele>13.477404</ele>
        <time>2020-07-16T06:51:56.414Z</time>
      </trkpt>
      <trkpt lat="61.73927" lon="5.16586">
        <ele>14.744654</ele>
        <time>2020-07-16T06:52:11.163Z</time>
      </trkpt>
      <trkpt lat="61.73935" lon="5.16553">
        <ele>15.172651</ele>
        <time>2020-07-16T06:52:16.573Z</time>
      </trkpt>
      <trkpt lat="61.73955" lon="5.16472">
        <ele>16.06612</ele>
        <time>2020-07-16T06:52:29.491Z</time>
      </trkpt>
      <trkpt lat="61.73966" lon="5.16425">
        <ele>16.579718</ele>
        <time>2020-07-16T06:52:36.336Z</time>
      </trkpt>
      <trkpt lat="61.7398" lon="5.1637">
        <ele>17.184987</ele>
        <time>2020-07-16T06:52:43.637Z</time>
      </trkpt>
      <trkpt lat="61.74007" lon="5.16257">
        <ele>18.422597</ele>
        <time>2020-07-16T06:52:56.073Z</time>
      </trkpt>
      <trkpt lat="61.74113" lon="5.15817">
        <ele>21.847626</ele>
        <time>2020-07-16T06:53:33.118Z</time>
      </trkpt>
      <trkpt lat="61.74117" lon="5.158">
        <ele>22.709647</ele>
        <time>2020-07-16T06:53:36.116Z</time>
      </trkpt>
      <trkpt lat="61.74121" lon="5.15787">
        <ele>23.3401</ele>
        <time>2020-07-16T06:53:38.330Z</time>
      </trkpt>
      <trkpt lat="61.74134" lon="5.15738">
        <ele>25.841236</ele>
        <time>2020-07-16T06:53:50.917Z</time>
      </trkpt>
      <trkpt lat="61.74161" lon="5.15675">
        <ele>29.58514</ele>
        <time>2020-07-16T06:54:12.324Z</time>
      </trkpt>
      <trkpt lat="61.74192" lon="5.15652">
        <ele>32.617385</ele>
        <time>2020-07-16T06:54:33.766Z</time>
      </trkpt>
      <trkpt lat="61.7423" lon="5.15653">
        <ele>37.888924</ele>
        <time>2020-07-16T06:55:02.682Z</time>
      </trkpt>
      <trkpt lat="61.74325" lon="5.15709">
        <ele>57.46231</ele>
        <time>2020-07-16T06:56:28.573Z</time>
      </trkpt>
      <trkpt lat="61.74358" lon="5.15718">
        <ele>64.010312</ele>
        <time>2020-07-16T06:56:58.473Z</time>
      </trkpt>
      <trkpt lat="61.74538" lon="5.15632">
        <ele>92.603036</ele>
        <time>2020-07-16T06:59:15.848Z</time>
      </trkpt>
      <trkpt lat="61.74574" lon="5.15592">
        <ele>95.837406</ele>
        <time>2020-07-16T06:59:29.127Z</time>
      </trkpt>
      <trkpt lat="61.74591" lon="5.15552">
        <ele>94.282827</ele>
        <time>2020-07-16T06:59:34.388Z</time>
      </trkpt>
      <trkpt lat="61.74605" lon="5.15491">
        <ele>92.366569</ele>
        <time>2020-07-16T06:59:38.597Z</time>
      </trkpt>
      <trkpt lat="61.74616" lon="5.15409">
        <ele>89.925743</ele>
        <time>2020-07-16T06:59:43.014Z</time>
      </trkpt>
      <trkpt lat="61.74622" lon="5.15346">
        <ele>88.057725</ele>
        <time>2020-07-16T06:59:46.273Z</time>
      </trkpt>
      <trkpt lat="61.74627" lon="5.15294">
        <ele>86.541916</ele>
        <time>2020-07-16T06:59:48.901Z</time>
      </trkpt>
      <trkpt lat="61.7464" lon="5.15169">
        <ele>81.207481</ele>
        <time>2020-07-16T06:59:55.368Z</time>
      </trkpt>
      <trkpt lat="61.74644" lon="5.15137">
        <ele>79.738874</ele>
        <time>2020-07-16T06:59:56.947Z</time>
      </trkpt>
      <trkpt lat="61.74646" lon="5.15118">
        <ele>78.84853</ele>
        <time>2020-07-16T06:59:57.973Z</time>
      </trkpt>
      <trkpt lat="61.74659" lon="5.15065">
        <ele>76.157085</ele>
        <time>2020-07-16T07:00:00.941Z</time>
      </trkpt>
      <trkpt lat="61.74679" lon="5.15025">
        <ele>73.517938</ele>
        <time>2020-07-16T07:00:03.955Z</time>
      </trkpt>
      <trkpt lat="61.74702" lon="5.15001">
        <ele>71.038238</ele>
        <time>2020-07-16T07:00:07.135Z</time>
      </trkpt>
      <trkpt lat="61.74725" lon="5.14991">
        <ele>68.792861</ele>
        <time>2020-07-16T07:00:09.883Z</time>
      </trkpt>
      <trkpt lat="61.74747" lon="5.14994">
        <ele>68.501251</ele>
        <time>2020-07-16T07:00:13.001Z</time>
      </trkpt>
      <trkpt lat="61.7497" lon="5.151">
        <ele>66.958795</ele>
        <time>2020-07-16T07:01:01.465Z</time>
      </trkpt>
      <trkpt lat="61.75016" lon="5.15093">
        <ele>65.961447</ele>
        <time>2020-07-16T07:01:07.552Z</time>
      </trkpt>
      <trkpt lat="61.75051" lon="5.15072">
        <ele>65.176561</ele>
        <time>2020-07-16T07:01:12.074Z</time>
      </trkpt>
      <trkpt lat="61.75095" lon="5.15069">
        <ele>63.999013</ele>
        <time>2020-07-16T07:01:17.228Z</time>
      </trkpt>
      <trkpt lat="61.75227" lon="5.15104">
        <ele>58.819503</ele>
        <time>2020-07-16T07:01:33.589Z</time>
      </trkpt>
      <trkpt lat="61.75259" lon="5.1513">
        <ele>57.622805</ele>
        <time>2020-07-16T07:01:38.486Z</time>
      </trkpt>
      <trkpt lat="61.75295" lon="5.15182">
        <ele>58.204895</ele>
        <time>2020-07-16T07:01:45.974Z</time>
      </trkpt>
      <trkpt lat="61.75421" lon="5.15424">
        <ele>60.788233</ele>
        <time>2020-07-16T07:02:29.591Z</time>
      </trkpt>
      <trkpt lat="61.75444" lon="5.15488">
        <ele>61.645489</ele>
        <time>2020-07-16T07:02:40.060Z</time>
      </trkpt>
      <trkpt lat="61.75498" lon="5.15764">
        <ele>64.178334</ele>
        <time>2020-07-16T07:03:14.537Z</time>
      </trkpt>
      <trkpt lat="61.75524" lon="5.15849">
        <ele>64.398094</ele>
        <time>2020-07-16T07:03:24.393Z</time>
      </trkpt>
      <trkpt lat="61.75665" lon="5.16114">
        <ele>63.35257</ele>
        <time>2020-07-16T07:03:55.572Z</time>
      </trkpt>
      <trkpt lat="61.75805" lon="5.16357">
        <ele>58.57037</ele>
        <time>2020-07-16T07:04:19.931Z</time>
      </trkpt>
      <trkpt lat="61.75886" lon="5.16589">
        <ele>55.778774</ele>
        <time>2020-07-16T07:04:36.579Z</time>
      </trkpt>
      <trkpt lat="61.75937" lon="5.16774">
        <ele>56.349672</ele>
        <time>2020-07-16T07:04:56.632Z</time>
      </trkpt>
      <trkpt lat="61.75937" lon="5.16845">
        <ele>57.103198</ele>
        <time>2020-07-16T07:05:09.218Z</time>
      </trkpt>
      <trkpt lat="61.75922" lon="5.16912">
        <ele>60.99345</ele>
        <time>2020-07-16T07:05:25.492Z</time>
      </trkpt>
      <trkpt lat="61.75895" lon="5.16948">
        <ele>64.51235</ele>
        <time>2020-07-16T07:05:42.841Z</time>
      </trkpt>
      <trkpt lat="61.75823" lon="5.16982">
        <ele>72.54141</ele>
        <time>2020-07-16T07:06:28.585Z</time>
      </trkpt>
      <trkpt lat="61.75797" lon="5.17042">
        <ele>76.461174</ele>
        <time>2020-07-16T07:06:53.244Z</time>
      </trkpt>
      <trkpt lat="61.75786" lon="5.17115">
        <ele>77.910835</ele>
        <time>2020-07-16T07:07:12.589Z</time>
      </trkpt>
      <trkpt lat="61.75791" lon="5.17305">
        <ele>81.500046</ele>
        <time>2020-07-16T07:07:41.830Z</time>
      </trkpt>
      <trkpt lat="61.75819" lon="5.17574">
        <ele>77.605498</ele>
        <time>2020-07-16T07:07:57.966Z</time>
      </trkpt>
      <trkpt lat="61.75847" lon="5.17715">
        <ele>72.449659</ele>
        <time>2020-07-16T07:08:05.866Z</time>
      </trkpt>
      <trkpt lat="61.75891" lon="5.17863">
        <ele>66.359933</ele>
        <time>2020-07-16T07:08:14.884Z</time>
      </trkpt>
      <trkpt lat="61.75906" lon="5.1792">
        <ele>64.057735</ele>
        <time>2020-07-16T07:08:18.392Z</time>
      </trkpt>
      <trkpt lat="61.75911" lon="5.17941">
        <ele>63.223667</ele>
        <time>2020-07-16T07:08:19.566Z</time>
      </trkpt>
      <trkpt lat="61.7597" lon="5.18156">
        <ele>56.617182</ele>
        <time>2020-07-16T07:08:33.891Z</time>
      </trkpt>
      <trkpt lat="61.75971" lon="5.18224">
        <ele>56.133488</ele>
        <time>2020-07-16T07:08:38.021Z</time>
      </trkpt>
      <trkpt lat="61.75963" lon="5.18258">
        <ele>55.864512</ele>
        <time>2020-07-16T07:08:41.302Z</time>
      </trkpt>
      <trkpt lat="61.75949" lon="5.18284">
        <ele>55.589416</ele>
        <time>2020-07-16T07:08:44.719Z</time>
      </trkpt>
      <trkpt lat="61.75898" lon="5.18319">
        <ele>54.772962</ele>
        <time>2020-07-16T07:08:55.504Z</time>
      </trkpt>
      <trkpt lat="61.75881" lon="5.18342">
        <ele>54.472793</ele>
        <time>2020-07-16T07:08:59.475Z</time>
      </trkpt>
      <trkpt lat="61.75868" lon="5.18373">
        <ele>53.8809</ele>
        <time>2020-07-16T07:09:03.621Z</time>
      </trkpt>
      <trkpt lat="61.75862" lon="5.18429">
        <ele>53.043667</ele>
        <time>2020-07-16T07:09:08.722Z</time>
      </trkpt>
      <trkpt lat="61.75869" lon="5.18487">
        <ele>52.168748</ele>
        <time>2020-07-16T07:09:13.030Z</time>
      </trkpt>
      <trkpt lat="61.75943" lon="5.18651">
        <ele>48.818111</ele>
        <time>2020-07-16T07:09:26.081Z</time>
      </trkpt>
      <trkpt lat="61.75964" lon="5.18714">
        <ele>46.7842</ele>
        <time>2020-07-16T07:09:30.285Z</time>
      </trkpt>
      <trkpt lat="61.75974" lon="5.18761">
        <ele>45.404257</ele>
        <time>2020-07-16T07:09:33.093Z</time>
      </trkpt>
      <trkpt lat="61.75976" lon="5.1882">
        <ele>43.856237</ele>
        <time>2020-07-16T07:09:36.256Z</time>
      </trkpt>
      <trkpt lat="61.75916" lon="5.1918">
        <ele>38.002763</ele>
        <time>2020-07-16T07:09:58.512Z</time>
      </trkpt>
      <trkpt lat="61.75825" lon="5.19502">
        <ele>42.557725</ele>
        <time>2020-07-16T07:10:46.791Z</time>
      </trkpt>
      <trkpt lat="61.75816" lon="5.19529">
        <ele>43.473511</ele>
        <time>2020-07-16T07:10:53.560Z</time>
      </trkpt>
      <trkpt lat="61.75806" lon="5.19562">
        <ele>44.574809</ele>
        <time>2020-07-16T07:11:01.506Z</time>
      </trkpt>
      <trkpt lat="61.75785" lon="5.19639">
        <ele>47.121483</ele>
        <time>2020-07-16T07:11:20.600Z</time>
      </trkpt>
      <trkpt lat="61.75782" lon="5.19651">
        <ele>47.494648</ele>
        <time>2020-07-16T07:11:24.265Z</time>
      </trkpt>
      <trkpt lat="61.75774" lon="5.19686">
        <ele>48.994197</ele>
        <time>2020-07-16T07:11:33.729Z</time>
      </trkpt>
      <trkpt lat="61.75721" lon="5.20083">
        <ele>66.713003</ele>
        <time>2020-07-16T07:13:13.044Z</time>
      </trkpt>
      <trkpt lat="61.75721" lon="5.20149">
        <ele>67.902982</ele>
        <time>2020-07-16T07:13:25.157Z</time>
      </trkpt>
      <trkpt lat="61.75734" lon="5.20317">
        <ele>70.926708</ele>
        <time>2020-07-16T07:13:49.261Z</time>
      </trkpt>
      <trkpt lat="61.7578" lon="5.20534">
        <ele>68.663441</ele>
        <time>2020-07-16T07:14:04.727Z</time>
      </trkpt>
      <trkpt lat="61.75821" lon="5.20692">
        <ele>63.954406</ele>
        <time>2020-07-16T07:14:14.432Z</time>
      </trkpt>
      <trkpt lat="61.75849" lon="5.20763">
        <ele>61.535019</ele>
        <time>2020-07-16T07:14:19.283Z</time>
      </trkpt>
      <trkpt lat="61.7591" lon="5.20858">
        <ele>57.334906</ele>
        <time>2020-07-16T07:14:27.666Z</time>
      </trkpt>
      <trkpt lat="61.75926" lon="5.20904">
        <ele>55.818509</ele>
        <time>2020-07-16T07:14:31.053Z</time>
      </trkpt>
      <trkpt lat="61.75937" lon="5.20961">
        <ele>54.211204</ele>
        <time>2020-07-16T07:14:34.674Z</time>
      </trkpt>
      <trkpt lat="61.7594" lon="5.21025">
        <ele>52.66375</ele>
        <time>2020-07-16T07:14:39.114Z</time>
      </trkpt>
      <trkpt lat="61.7593" lon="5.21122">
        <ele>54.616261</ele>
        <time>2020-07-16T07:14:50.585Z</time>
      </trkpt>
      <trkpt lat="61.75922" lon="5.21174">
        <ele>55.701377</ele>
        <time>2020-07-16T07:14:56.515Z</time>
      </trkpt>
      <trkpt lat="61.75919" lon="5.21195">
        <ele>56.12557</ele>
        <time>2020-07-16T07:15:01.341Z</time>
      </trkpt>
      <trkpt lat="61.75907" lon="5.21302">
        <ele>58.282867</ele>
        <time>2020-07-16T07:15:19.529Z</time>
      </trkpt>
      <trkpt lat="61.75906" lon="5.21392">
        <ele>60.041065</ele>
        <time>2020-07-16T07:15:37.003Z</time>
      </trkpt>
      <trkpt lat="61.75909" lon="5.21452">
        <ele>61.418736</ele>
        <time>2020-07-16T07:15:50.545Z</time>
      </trkpt>
      <trkpt lat="61.75923" lon="5.2156">
        <ele>63.977899</ele>
        <time>2020-07-16T07:16:12.904Z</time>
      </trkpt>
      <trkpt lat="61.75969" lon="5.21731">
        <ele>68.445919</ele>
        <time>2020-07-16T07:16:40.905Z</time>
      </trkpt>
      <trkpt lat="61.76109" lon="5.2218">
        <ele>66.018473</ele>
        <time>2020-07-16T07:17:18.837Z</time>
      </trkpt>
      <trkpt lat="61.76126" lon="5.22231">
        <ele>65.457525</ele>
        <time>2020-07-16T07:17:22.877Z</time>
      </trkpt>
      <trkpt lat="61.76131" lon="5.22246">
        <ele>65.305326</ele>
        <time>2020-07-16T07:17:23.993Z</time>
      </trkpt>
      <trkpt lat="61.76143" lon="5.22291">
        <ele>64.846355</ele>
        <time>2020-07-16T07:17:27.287Z</time>
      </trkpt>
      <trkpt lat="61.7616" lon="5.22403">
        <ele>64.065561</ele>
        <time>2020-07-16T07:17:35.119Z</time>
      </trkpt>
      <trkpt lat="61.76161" lon="5.22483">
        <ele>64.64802</ele>
        <time>2020-07-16T07:17:40.880Z</time>
      </trkpt>
      <trkpt lat="61.76159" lon="5.22594">
        <ele>65.45526</ele>
        <time>2020-07-16T07:17:51.407Z</time>
      </trkpt>
      <trkpt lat="61.76154" lon="5.22771">
        <ele>66.830153</ele>
        <time>2020-07-16T07:18:14.485Z</time>
      </trkpt>
      <trkpt lat="61.76148" lon="5.2305">
        <ele>75.506303</ele>
        <time>2020-07-16T07:19:06.509Z</time>
      </trkpt>
      <trkpt lat="61.76145" lon="5.23139">
        <ele>78.271796</ele>
        <time>2020-07-16T07:19:24.883Z</time>
      </trkpt>
      <trkpt lat="61.76145" lon="5.23194">
        <ele>80.339443</ele>
        <time>2020-07-16T07:19:35.938Z</time>
      </trkpt>
      <trkpt lat="61.76145" lon="5.23219">
        <ele>81.323467</ele>
        <time>2020-07-16T07:19:41.131Z</time>
      </trkpt>
      <trkpt lat="61.76134" lon="5.23426">
        <ele>89.441804</ele>
        <time>2020-07-16T07:20:22.853Z</time>
      </trkpt>
      <trkpt lat="61.76112" lon="5.23648">
        <ele>99.542305</ele>
        <time>2020-07-16T07:21:14.774Z</time>
      </trkpt>
      <trkpt lat="61.76108" lon="5.23695">
        <ele>101.90042</ele>
        <time>2020-07-16T07:21:27.341Z</time>
      </trkpt>
      <trkpt lat="61.76106" lon="5.23723">
        <ele>103.264082</ele>
        <time>2020-07-16T07:21:34.430Z</time>
      </trkpt>
      <trkpt lat="61.76102" lon="5.2376">
        <ele>105.129883</ele>
        <time>2020-07-16T07:21:44.661Z</time>
      </trkpt>
      <trkpt lat="61.76086" lon="5.23946">
        <ele>113.345285</ele>
        <time>2020-07-16T07:22:31.693Z</time>
      </trkpt>
      <trkpt lat="61.76076" lon="5.24053">
        <ele>116.462537</ele>
        <time>2020-07-16T07:22:55.256Z</time>
      </trkpt>
      <trkpt lat="61.76071" lon="5.24146">
        <ele>119.149822</ele>
        <time>2020-07-16T07:23:12.435Z</time>
      </trkpt>
      <trkpt lat="61.7608" lon="5.24247">
        <ele>122.094084</ele>
        <time>2020-07-16T07:23:26.731Z</time>
      </trkpt>
      <trkpt lat="61.76167" lon="5.24675">
        <ele>120.848667</ele>
        <time>2020-07-16T07:24:00.219Z</time>
      </trkpt>
      <trkpt lat="61.76192" lon="5.2484">
        <ele>119.039161</ele>
        <time>2020-07-16T07:24:12.077Z</time>
      </trkpt>
      <trkpt lat="61.76238" lon="5.24992">
        <ele>116.136315</ele>
        <time>2020-07-16T07:24:23.307Z</time>
      </trkpt>
      <trkpt lat="61.76245" lon="5.25053">
        <ele>113.621971</ele>
        <time>2020-07-16T07:24:27.066Z</time>
      </trkpt>
      <trkpt lat="61.76243" lon="5.25145">
        <ele>109.972467</ele>
        <time>2020-07-16T07:24:32.440Z</time>
      </trkpt>
      <trkpt lat="61.76252" lon="5.2524">
        <ele>106.11478</ele>
        <time>2020-07-16T07:24:37.403Z</time>
      </trkpt>
      <trkpt lat="61.76258" lon="5.25275">
        <ele>104.593492</ele>
        <time>2020-07-16T07:24:39.334Z</time>
      </trkpt>
      <trkpt lat="61.7628" lon="5.25343">
        <ele>100.35694</ele>
        <time>2020-07-16T07:24:43.334Z</time>
      </trkpt>
      <trkpt lat="61.76322" lon="5.25412">
        <ele>91.669673</ele>
        <time>2020-07-16T07:24:48.960Z</time>
      </trkpt>
      <trkpt lat="61.76338" lon="5.25426">
        <ele>88.935926</ele>
        <time>2020-07-16T07:24:50.661Z</time>
      </trkpt>
      <trkpt lat="61.7634" lon="5.25428">
        <ele>88.638736</ele>
        <time>2020-07-16T07:24:50.882Z</time>
      </trkpt>
      <trkpt lat="61.76368" lon="5.25443">
        <ele>83.82299</ele>
        <time>2020-07-16T07:24:53.966Z</time>
      </trkpt>
      <trkpt lat="61.76469" lon="5.25447">
        <ele>70.136885</ele>
        <time>2020-07-16T07:25:04.396Z</time>
      </trkpt>
      <trkpt lat="61.76477" lon="5.25451">
        <ele>69.469538</ele>
        <time>2020-07-16T07:25:05.202Z</time>
      </trkpt>
      <trkpt lat="61.76484" lon="5.25458">
        <ele>68.770203</ele>
        <time>2020-07-16T07:25:06.047Z</time>
      </trkpt>
      <trkpt lat="61.76499" lon="5.25481">
        <ele>67.222049</ele>
        <time>2020-07-16T07:25:08.302Z</time>
      </trkpt>
      <trkpt lat="61.76505" lon="5.25493">
        <ele>66.550902</ele>
        <time>2020-07-16T07:25:09.119Z</time>
      </trkpt>
      <trkpt lat="61.76509" lon="5.25489">
        <ele>66.145946</ele>
        <time>2020-07-16T07:25:09.836Z</time>
      </trkpt>
      <trkpt lat="61.76513" lon="5.25488">
        <ele>65.855827</ele>
        <time>2020-07-16T07:25:10.377Z</time>
      </trkpt>
      <trkpt lat="61.76515" lon="5.25495">
        <ele>65.544797</ele>
        <time>2020-07-16T07:25:10.938Z</time>
      </trkpt>
      <trkpt lat="61.76533" lon="5.25586">
        <ele>61.580102</ele>
        <time>2020-07-16T07:25:17.002Z</time>
      </trkpt>
      <trkpt lat="61.76533" lon="5.25668">
        <ele>58.335047</ele>
        <time>2020-07-16T07:25:22.426Z</time>
      </trkpt>
      <trkpt lat="61.76532" lon="5.25685">
        <ele>58.204859</ele>
        <time>2020-07-16T07:25:23.407Z</time>
      </trkpt>
      <trkpt lat="61.7653" lon="5.25705">
        <ele>58.980604</ele>
        <time>2020-07-16T07:25:24.671Z</time>
      </trkpt>
      <trkpt lat="61.76513" lon="5.25774">
        <ele>61.886692</ele>
        <time>2020-07-16T07:25:36.875Z</time>
      </trkpt>
      <trkpt lat="61.76496" lon="5.25815">
        <ele>63.92696</ele>
        <time>2020-07-16T07:25:50.723Z</time>
      </trkpt>
      <trkpt lat="61.76492" lon="5.25825">
        <ele>64.455606</ele>
        <time>2020-07-16T07:25:53.319Z</time>
      </trkpt>
      <trkpt lat="61.76481" lon="5.25844">
        <ele>65.532696</ele>
        <time>2020-07-16T07:26:00.981Z</time>
      </trkpt>
      <trkpt lat="61.76454" lon="5.2587">
        <ele>67.873435</ele>
        <time>2020-07-16T07:26:16.501Z</time>
      </trkpt>
      <trkpt lat="61.76401" lon="5.25892">
        <ele>72.154123</ele>
        <time>2020-07-16T07:26:49.258Z</time>
      </trkpt>
      <trkpt lat="61.76381" lon="5.25892">
        <ele>73.974027</ele>
        <time>2020-07-16T07:27:01.531Z</time>
      </trkpt>
      <trkpt lat="61.76364" lon="5.25892">
        <ele>75.472204</ele>
        <time>2020-07-16T07:27:10.850Z</time>
      </trkpt>
      <trkpt lat="61.76346" lon="5.25897">
        <ele>77.036642</ele>
        <time>2020-07-16T07:27:20.913Z</time>
      </trkpt>
      <trkpt lat="61.76324" lon="5.2592">
        <ele>79.15927</ele>
        <time>2020-07-16T07:27:32.951Z</time>
      </trkpt>
      <trkpt lat="61.76308" lon="5.25961">
        <ele>81.400492</ele>
        <time>2020-07-16T07:27:46.659Z</time>
      </trkpt>
      <trkpt lat="61.76303" lon="5.25997">
        <ele>82.964603</ele>
        <time>2020-07-16T07:27:53.172Z</time>
      </trkpt>
      <trkpt lat="61.76302" lon="5.26015">
        <ele>83.694311</ele>
        <time>2020-07-16T07:28:00.250Z</time>
      </trkpt>
      <trkpt lat="61.76303" lon="5.26052">
        <ele>85.209725</ele>
        <time>2020-07-16T07:28:05.727Z</time>
      </trkpt>
      <trkpt lat="61.76315" lon="5.26263">
        <ele>87.249105</ele>
        <time>2020-07-16T07:28:34.037Z</time>
      </trkpt>
      <trkpt lat="61.76303" lon="5.26346">
        <ele>86.851022</ele>
        <time>2020-07-16T07:28:39.835Z</time>
      </trkpt>
      <trkpt lat="61.76282" lon="5.26397">
        <ele>86.533013</ele>
        <time>2020-07-16T07:28:44.190Z</time>
      </trkpt>
      <trkpt lat="61.76223" lon="5.26461">
        <ele>84.245739</ele>
        <time>2020-07-16T07:28:52.547Z</time>
      </trkpt>
      <trkpt lat="61.76207" lon="5.26502">
        <ele>82.547594</ele>
        <time>2020-07-16T07:28:55.772Z</time>
      </trkpt>
      <trkpt lat="61.762" lon="5.26536">
        <ele>81.364161</ele>
        <time>2020-07-16T07:28:57.774Z</time>
      </trkpt>
      <trkpt lat="61.76198" lon="5.26575">
        <ele>80.129107</ele>
        <time>2020-07-16T07:28:59.986Z</time>
      </trkpt>
      <trkpt lat="61.76201" lon="5.26608">
        <ele>79.051349</ele>
        <time>2020-07-16T07:29:01.825Z</time>
      </trkpt>
      <trkpt lat="61.7622" lon="5.26687">
        <ele>76.274053</ele>
        <time>2020-07-16T07:29:06.747Z</time>
      </trkpt>
      <trkpt lat="61.76232" lon="5.26717">
        <ele>75.02406</ele>
        <time>2020-07-16T07:29:09.294Z</time>
      </trkpt>
      <trkpt lat="61.76233" lon="5.2672">
        <ele>74.868666</ele>
        <time>2020-07-16T07:29:09.549Z</time>
      </trkpt>
      <trkpt lat="61.76232" lon="5.26724">
        <ele>74.718694</ele>
        <time>2020-07-16T07:29:10.099Z</time>
      </trkpt>
      <trkpt lat="61.76229" lon="5.26728">
        <ele>74.471479</ele>
        <time>2020-07-16T07:29:10.641Z</time>
      </trkpt>
      <trkpt lat="61.76226" lon="5.26733">
        <ele>74.195647</ele>
        <time>2020-07-16T07:29:11.180Z</time>
      </trkpt>
      <trkpt lat="61.76231" lon="5.26763">
        <ele>73.942495</ele>
        <time>2020-07-16T07:29:12.980Z</time>
      </trkpt>
      <trkpt lat="61.76235" lon="5.26793">
        <ele>73.741699</ele>
        <time>2020-07-16T07:29:14.731Z</time>
      </trkpt>
      <trkpt lat="61.76236" lon="5.26812">
        <ele>73.619309</ele>
        <time>2020-07-16T07:29:15.838Z</time>
      </trkpt>
      <trkpt lat="61.76236" lon="5.2683">
        <ele>73.504846</ele>
        <time>2020-07-16T07:29:16.904Z</time>
      </trkpt>
      <trkpt lat="61.76238" lon="5.26876">
        <ele>73.21545</ele>
        <time>2020-07-16T07:29:19.570Z</time>
      </trkpt>
      <trkpt lat="61.76242" lon="5.2719">
        <ele>71.765712</ele>
        <time>2020-07-16T07:29:51.380Z</time>
      </trkpt>
      <trkpt lat="61.76242" lon="5.27237">
        <ele>71.794202</ele>
        <time>2020-07-16T07:30:00.479Z</time>
      </trkpt>
      <trkpt lat="61.76241" lon="5.27372">
        <ele>71.87709</ele>
        <time>2020-07-16T07:30:14.104Z</time>
      </trkpt>
      <trkpt lat="61.76244" lon="5.27446">
        <ele>71.92277</ele>
        <time>2020-07-16T07:30:19.508Z</time>
      </trkpt>
      <trkpt lat="61.76251" lon="5.27489">
        <ele>71.950805</ele>
        <time>2020-07-16T07:30:22.416Z</time>
      </trkpt>
      <trkpt lat="61.76263" lon="5.27538">
        <ele>69.013982</ele>
        <time>2020-07-16T07:30:25.891Z</time>
      </trkpt>
      <trkpt lat="61.76276" lon="5.27583">
        <ele>66.21809</ele>
        <time>2020-07-16T07:30:28.643Z</time>
      </trkpt>
      <trkpt lat="61.7633" lon="5.27767">
        <ele>54.676344</ele>
        <time>2020-07-16T07:30:39.496Z</time>
      </trkpt>
      <trkpt lat="61.76378" lon="5.27928">
        <ele>42.983911</ele>
        <time>2020-07-16T07:30:48.756Z</time>
      </trkpt>
      <trkpt lat="61.76419" lon="5.28071">
        <ele>32.10291</ele>
        <time>2020-07-16T07:30:57.066Z</time>
      </trkpt>
      <trkpt lat="61.76466" lon="5.28218">
        <ele>25.414952</ele>
        <time>2020-07-16T07:31:06.292Z</time>
      </trkpt>
      <trkpt lat="61.7652" lon="5.28351">
        <ele>22.557992</ele>
        <time>2020-07-16T07:31:17.291Z</time>
      </trkpt>
      <trkpt lat="61.76526" lon="5.28363">
        <ele>22.270221</ele>
        <time>2020-07-16T07:31:18.758Z</time>
      </trkpt>
      <trkpt lat="61.76543" lon="5.28392">
        <ele>21.522316</ele>
        <time>2020-07-16T07:31:23.539Z</time>
      </trkpt>
      <trkpt lat="61.76646" lon="5.28517">
        <ele>22.954115</ele>
        <time>2020-07-16T07:31:56.146Z</time>
      </trkpt>
      <trkpt lat="61.76689" lon="5.286">
        <ele>24.211478</ele>
        <time>2020-07-16T07:32:12.158Z</time>
      </trkpt>
      <trkpt lat="61.76704" lon="5.28644">
        <ele>24.649517</ele>
        <time>2020-07-16T07:32:17.532Z</time>
      </trkpt>
      <trkpt lat="61.76708" lon="5.28657">
        <ele>24.488676</ele>
        <time>2020-07-16T07:32:19.063Z</time>
      </trkpt>
      <trkpt lat="61.76711" lon="5.28669">
        <ele>24.346074</ele>
        <time>2020-07-16T07:32:20.176Z</time>
      </trkpt>
      <trkpt lat="61.76744" lon="5.28786">
        <ele>22.93798</ele>
        <time>2020-07-16T07:32:30.167Z</time>
      </trkpt>
      <trkpt lat="61.76751" lon="5.28809">
        <ele>22.667872</ele>
        <time>2020-07-16T07:32:31.791Z</time>
      </trkpt>
      <trkpt lat="61.76763" lon="5.28855">
        <ele>22.119031</ele>
        <time>2020-07-16T07:32:35.164Z</time>
      </trkpt>
      <trkpt lat="61.7678" lon="5.28915">
        <ele>21.404804</ele>
        <time>2020-07-16T07:32:39.323Z</time>
      </trkpt>
      <trkpt lat="61.76822" lon="5.2906">
        <ele>19.456468</ele>
        <time>2020-07-16T07:32:49.094Z</time>
      </trkpt>
      <trkpt lat="61.76838" lon="5.29119">
        <ele>18.649529</ele>
        <time>2020-07-16T07:32:53.063Z</time>
      </trkpt>
      <trkpt lat="61.76843" lon="5.29137">
        <ele>18.390748</ele>
        <time>2020-07-16T07:32:54.303Z</time>
      </trkpt>
      <trkpt lat="61.7684" lon="5.29142">
        <ele>18.299109</ele>
        <time>2020-07-16T07:32:55.031Z</time>
      </trkpt>
      <trkpt lat="61.76826" lon="5.29209">
        <ele>17.410904</ele>
        <time>2020-07-16T07:33:01.750Z</time>
      </trkpt>
      <trkpt lat="61.76806" lon="5.29213">
        <ele>16.895011</ele>
        <time>2020-07-16T07:33:06.250Z</time>
      </trkpt>
      <trkpt lat="61.76804" lon="5.29215">
        <ele>16.838014</ele>
        <time>2020-07-16T07:33:06.929Z</time>
      </trkpt>
      <trkpt lat="61.76801" lon="5.29221">
        <ele>16.745187</ele>
        <time>2020-07-16T07:33:07.722Z</time>
      </trkpt>
      <trkpt lat="61.76793" lon="5.29237">
        <ele>16.47021</ele>
        <time>2020-07-16T07:33:10.085Z</time>
      </trkpt>
      <trkpt lat="61.76793" lon="5.29239">
        <ele>16.439261</ele>
        <time>2020-07-16T07:33:10.474Z</time>
      </trkpt>
      <trkpt lat="61.76789" lon="5.29252">
        <ele>16.253436</ele>
        <time>2020-07-16T07:33:12.260Z</time>
      </trkpt>
      <trkpt lat="61.76786" lon="5.29255">
        <ele>16.300031</ele>
        <time>2020-07-16T07:33:13.047Z</time>
      </trkpt>
      <trkpt lat="61.76781" lon="5.29246">
        <ele>16.757617</ele>
        <time>2020-07-16T07:33:14.754Z</time>
      </trkpt>
      <trkpt lat="61.76763" lon="5.29233">
        <ele>17.957485</ele>
        <time>2020-07-16T07:33:18.823Z</time>
      </trkpt>
      <trkpt lat="61.76749" lon="5.29238">
        <ele>18.901603</ele>
        <time>2020-07-16T07:33:22.375Z</time>
      </trkpt>
      <trkpt lat="61.76743" lon="5.29247">
        <ele>19.358803</ele>
        <time>2020-07-16T07:33:24.417Z</time>
      </trkpt>
      <trkpt lat="61.76721" lon="5.29287">
        <ele>21.222092</ele>
        <time>2020-07-16T07:33:31.813Z</time>
      </trkpt>
      <trkpt lat="61.76691" lon="5.29315">
        <ele>23.35253</ele>
        <time>2020-07-16T07:33:45.155Z</time>
      </trkpt>
      <trkpt lat="61.76655" lon="5.29328">
        <ele>25.676036</ele>
        <time>2020-07-16T07:34:02.644Z</time>
      </trkpt>
      <trkpt lat="61.76638" lon="5.29334">
        <ele>26.802301</ele>
        <time>2020-07-16T07:34:10.989Z</time>
      </trkpt>
      <trkpt lat="61.76579" lon="5.29346">
        <ele>35.848111</ele>
        <time>2020-07-16T07:34:48.732Z</time>
      </trkpt>
      <trkpt lat="61.76562" lon="5.29349">
        <ele>39.03338</ele>
        <time>2020-07-16T07:34:58.898Z</time>
      </trkpt>
      <trkpt lat="61.76546" lon="5.29355">
        <ele>42.173557</ele>
        <time>2020-07-16T07:35:13.088Z</time>
      </trkpt>
      <trkpt lat="61.76527" lon="5.29377">
        <ele>46.240354</ele>
        <time>2020-07-16T07:35:28.675Z</time>
      </trkpt>
      <trkpt lat="61.76525" lon="5.29397">
        <ele>48.041983</ele>
        <time>2020-07-16T07:35:37.521Z</time>
      </trkpt>
      <trkpt lat="61.76531" lon="5.29423">
        <ele>50.611215</ele>
        <time>2020-07-16T07:35:48.586Z</time>
      </trkpt>
      <trkpt lat="61.76666" lon="5.29546">
        <ele>80.849159</ele>
        <time>2020-07-16T07:38:02.809Z</time>
      </trkpt>
      <trkpt lat="61.76685" lon="5.29586">
        <ele>86.704781</ele>
        <time>2020-07-16T07:38:26.712Z</time>
      </trkpt>
      <trkpt lat="61.76711" lon="5.29709">
        <ele>100.482575</ele>
        <time>2020-07-16T07:39:18.519Z</time>
      </trkpt>
      <trkpt lat="61.76721" lon="5.29756">
        <ele>103.77851</ele>
        <time>2020-07-16T07:39:37.629Z</time>
      </trkpt>
      <trkpt lat="61.76732" lon="5.29797">
        <ele>106.760706</ele>
        <time>2020-07-16T07:39:52.780Z</time>
      </trkpt>
      <trkpt lat="61.76779" lon="5.29949">
        <ele>118.321021</ele>
        <time>2020-07-16T07:40:49.234Z</time>
      </trkpt>
      <trkpt lat="61.76817" lon="5.30098">
        <ele>125.171451</ele>
        <time>2020-07-16T07:41:21.535Z</time>
      </trkpt>
      <trkpt lat="61.76839" lon="5.30201">
        <ele>126.137677</ele>
        <time>2020-07-16T07:41:35.947Z</time>
      </trkpt>
      <trkpt lat="61.76842" lon="5.3021">
        <ele>126.221354</ele>
        <time>2020-07-16T07:41:36.455Z</time>
      </trkpt>
      <trkpt lat="61.76868" lon="5.3031">
        <ele>127.196218</ele>
        <time>2020-07-16T07:41:49.115Z</time>
      </trkpt>
      <trkpt lat="61.76878" lon="5.30335">
        <ele>127.475975</ele>
        <time>2020-07-16T07:41:51.043Z</time>
      </trkpt>
      <trkpt lat="61.76884" lon="5.30348">
        <ele>127.620285</ele>
        <time>2020-07-16T07:41:52.224Z</time>
      </trkpt>
      <trkpt lat="61.76917" lon="5.30397">
        <ele>127.710867</ele>
        <time>2020-07-16T07:41:57.881Z</time>
      </trkpt>
      <trkpt lat="61.76961" lon="5.30432">
        <ele>127.573218</ele>
        <time>2020-07-16T07:42:04.037Z</time>
      </trkpt>
      <trkpt lat="61.77037" lon="5.30476">
        <ele>127.342678</ele>
        <time>2020-07-16T07:42:18.569Z</time>
      </trkpt>
      <trkpt lat="61.77073" lon="5.30498">
        <ele>127.82812</ele>
        <time>2020-07-16T07:42:29.109Z</time>
      </trkpt>
      <trkpt lat="61.77117" lon="5.30525">
        <ele>129.625666</ele>
        <time>2020-07-16T07:42:43.046Z</time>
      </trkpt>
      <trkpt lat="61.7723" lon="5.30592">
        <ele>134.242244</ele>
        <time>2020-07-16T07:43:22.757Z</time>
      </trkpt>
      <trkpt lat="61.77342" lon="5.30659">
        <ele>137.549275</ele>
        <time>2020-07-16T07:43:51.499Z</time>
      </trkpt>
      <trkpt lat="61.77487" lon="5.30761">
        <ele>143.941443</ele>
        <time>2020-07-16T07:44:33.393Z</time>
      </trkpt>
      <trkpt lat="61.77684" lon="5.30908">
        <ele>159.425291</ele>
        <time>2020-07-16T07:45:59.949Z</time>
      </trkpt>
      <trkpt lat="61.77706" lon="5.30929">
        <ele>161.662158</ele>
        <time>2020-07-16T07:46:13.099Z</time>
      </trkpt>
      <trkpt lat="61.77721" lon="5.30956">
        <ele>163.471647</ele>
        <time>2020-07-16T07:46:24.208Z</time>
      </trkpt>
      <trkpt lat="61.77733" lon="5.30987">
        <ele>165.214148</ele>
        <time>2020-07-16T07:46:35.083Z</time>
      </trkpt>
      <trkpt lat="61.7774" lon="5.31038">
        <ele>168.827448</ele>
        <time>2020-07-16T07:46:49.907Z</time>
      </trkpt>
      <trkpt lat="61.77733" lon="5.31094">
        <ele>172.846286</ele>
        <time>2020-07-16T07:47:06.502Z</time>
      </trkpt>
      <trkpt lat="61.77722" lon="5.31131">
        <ele>175.848587</ele>
        <time>2020-07-16T07:47:19.150Z</time>
      </trkpt>
      <trkpt lat="61.77678" lon="5.31213">
        <ele>184.464478</ele>
        <time>2020-07-16T07:47:59.702Z</time>
      </trkpt>
      <trkpt lat="61.77623" lon="5.31297">
        <ele>194.348377</ele>
        <time>2020-07-16T07:48:48.329Z</time>
      </trkpt>
      <trkpt lat="61.77575" lon="5.31343">
        <ele>201.610973</ele>
        <time>2020-07-16T07:49:21.091Z</time>
      </trkpt>
      <trkpt lat="61.77563" lon="5.31349">
        <ele>203.279611</ele>
        <time>2020-07-16T07:49:30.491Z</time>
      </trkpt>
      <trkpt lat="61.77456" lon="5.31402">
        <ele>218.805656</ele>
        <time>2020-07-16T07:50:31.930Z</time>
      </trkpt>
      <trkpt lat="61.7743" lon="5.31414">
        <ele>223.00382</ele>
        <time>2020-07-16T07:50:52.613Z</time>
      </trkpt>
      <trkpt lat="61.77377" lon="5.31443">
        <ele>231.544684</ele>
        <time>2020-07-16T07:51:25.420Z</time>
      </trkpt>
      <trkpt lat="61.7736" lon="5.31458">
        <ele>234.497329</ele>
        <time>2020-07-16T07:51:42.488Z</time>
      </trkpt>
      <trkpt lat="61.77347" lon="5.31478">
        <ele>237.016227</ele>
        <time>2020-07-16T07:51:49.611Z</time>
      </trkpt>
      <trkpt lat="61.77342" lon="5.31486">
        <ele>237.922641</ele>
        <time>2020-07-16T07:51:53.201Z</time>
      </trkpt>
      <trkpt lat="61.77334" lon="5.31512">
        <ele>240.1993</ele>
        <time>2020-07-16T07:52:06.490Z</time>
      </trkpt>
      <trkpt lat="61.77327" lon="5.3155">
        <ele>243.298928</ele>
        <time>2020-07-16T07:52:15.992Z</time>
      </trkpt>
      <trkpt lat="61.77326" lon="5.31566">
        <ele>244.445938</ele>
        <time>2020-07-16T07:52:22.683Z</time>
      </trkpt>
      <trkpt lat="61.77327" lon="5.3158">
        <ele>245.773233</ele>
        <time>2020-07-16T07:52:29.139Z</time>
      </trkpt>
      <trkpt lat="61.77334" lon="5.31629">
        <ele>250.825294</ele>
        <time>2020-07-16T07:52:43.392Z</time>
      </trkpt>
      <trkpt lat="61.77418" lon="5.31944">
        <ele>285.293196</ele>
        <time>2020-07-16T07:55:19.446Z</time>
      </trkpt>
      <trkpt lat="61.77418" lon="5.32005">
        <ele>288.945121</ele>
        <time>2020-07-16T07:55:37.851Z</time>
      </trkpt>
      <trkpt lat="61.77405" lon="5.32091">
        <ele>294.398362</ele>
        <time>2020-07-16T07:56:10.414Z</time>
      </trkpt>
      <trkpt lat="61.77405" lon="5.32143">
        <ele>297.519304</ele>
        <time>2020-07-16T07:56:19.319Z</time>
      </trkpt>
      <trkpt lat="61.77407" lon="5.32165">
        <ele>298.903593</ele>
        <time>2020-07-16T07:56:29.359Z</time>
      </trkpt>
      <trkpt lat="61.77409" lon="5.3218">
        <ele>299.824163</ele>
        <time>2020-07-16T07:56:30.331Z</time>
      </trkpt>
      <trkpt lat="61.77418" lon="5.32215">
        <ele>302.197176</ele>
        <time>2020-07-16T07:56:37.555Z</time>
      </trkpt>
      <trkpt lat="61.77605" lon="5.32568">
        <ele>312.14347</ele>
        <time>2020-07-16T07:57:38.610Z</time>
      </trkpt>
      <trkpt lat="61.77703" lon="5.32676">
        <ele>317.024547</ele>
        <time>2020-07-16T07:58:11.536Z</time>
      </trkpt>
      <trkpt lat="61.77719" lon="5.32705">
        <ele>317.950883</ele>
        <time>2020-07-16T07:58:20.562Z</time>
      </trkpt>
      <trkpt lat="61.77741" lon="5.32768">
        <ele>321.19192</ele>
        <time>2020-07-16T07:58:38.543Z</time>
      </trkpt>
      <trkpt lat="61.77755" lon="5.32912">
        <ele>327.626554</ele>
        <time>2020-07-16T07:59:16.058Z</time>
      </trkpt>
      <trkpt lat="61.7778" lon="5.3299">
        <ele>331.781695</ele>
        <time>2020-07-16T07:59:40.054Z</time>
      </trkpt>
      <trkpt lat="61.77863" lon="5.33133">
        <ele>334.129698</ele>
        <time>2020-07-16T08:00:22.335Z</time>
      </trkpt>
      <trkpt lat="61.77907" lon="5.33292">
        <ele>333.239921</ele>
        <time>2020-07-16T08:00:34.996Z</time>
      </trkpt>
      <trkpt lat="61.77944" lon="5.3339">
        <ele>324.492427</ele>
        <time>2020-07-16T08:00:41.085Z</time>
      </trkpt>
      <trkpt lat="61.7797" lon="5.33426">
        <ele>317.864478</ele>
        <time>2020-07-16T08:00:44.252Z</time>
      </trkpt>
      <trkpt lat="61.78019" lon="5.33456">
        <ele>307.1443</ele>
        <time>2020-07-16T08:00:49.373Z</time>
      </trkpt>
      <trkpt lat="61.7804" lon="5.33465">
        <ele>302.547212</ele>
        <time>2020-07-16T08:00:51.588Z</time>
      </trkpt>
      <trkpt lat="61.78068" lon="5.33477">
        <ele>296.60092</ele>
        <time>2020-07-16T08:00:54.441Z</time>
      </trkpt>
      <trkpt lat="61.78102" lon="5.33511">
        <ele>288.768344</ele>
        <time>2020-07-16T08:00:58.264Z</time>
      </trkpt>
      <trkpt lat="61.78183" lon="5.33647">
        <ele>267.132041</ele>
        <time>2020-07-16T08:01:08.808Z</time>
      </trkpt>
      <trkpt lat="61.78217" lon="5.33671">
        <ele>259.729436</ele>
        <time>2020-07-16T08:01:12.526Z</time>
      </trkpt>
      <trkpt lat="61.78414" lon="5.33643">
        <ele>242.181142</ele>
        <time>2020-07-16T08:01:34.538Z</time>
      </trkpt>
      <trkpt lat="61.7849" lon="5.33647">
        <ele>244.206678</ele>
        <time>2020-07-16T08:01:46.929Z</time>
      </trkpt>
      <trkpt lat="61.78812" lon="5.33767">
        <ele>265.870637</ele>
        <time>2020-07-16T08:04:05.464Z</time>
      </trkpt>
      <trkpt lat="61.78848" lon="5.33788">
        <ele>269.62301</ele>
        <time>2020-07-16T08:04:25.808Z</time>
      </trkpt>
      <trkpt lat="61.78876" lon="5.3382">
        <ele>272.875557</ele>
        <time>2020-07-16T08:04:43.778Z</time>
      </trkpt>
      <trkpt lat="61.78902" lon="5.33878">
        <ele>276.718032</ele>
        <time>2020-07-16T08:05:05.278Z</time>
      </trkpt>
      <trkpt lat="61.79023" lon="5.34398">
        <ele>300.90307</ele>
        <time>2020-07-16T08:07:20.401Z</time>
      </trkpt>
      <trkpt lat="61.7908" lon="5.34585">
        <ele>306.740393</ele>
        <time>2020-07-16T08:07:49.515Z</time>
      </trkpt>
      <trkpt lat="61.79174" lon="5.35069">
        <ele>311.905196</ele>
        <time>2020-07-16T08:08:45.768Z</time>
      </trkpt>
      <trkpt lat="61.7918" lon="5.35152">
        <ele>313.03533</ele>
        <time>2020-07-16T08:08:58.816Z</time>
      </trkpt>
      <trkpt lat="61.79181" lon="5.35267">
        <ele>314.5891</ele>
        <time>2020-07-16T08:09:15.810Z</time>
      </trkpt>
      <trkpt lat="61.79183" lon="5.35363">
        <ele>314.374337</ele>
        <time>2020-07-16T08:09:28.051Z</time>
      </trkpt>
      <trkpt lat="61.79188" lon="5.35432">
        <ele>313.203457</ele>
        <time>2020-07-16T08:09:35.510Z</time>
      </trkpt>
      <trkpt lat="61.7922" lon="5.35674">
        <ele>309.036961</ele>
        <time>2020-07-16T08:09:50.000Z</time>
      </trkpt>
      <trkpt lat="61.79254" lon="5.35852">
        <ele>298.102139</ele>
        <time>2020-07-16T08:09:59.589Z</time>
      </trkpt>
      <trkpt lat="61.7926" lon="5.35909">
        <ele>294.656629</ele>
        <time>2020-07-16T08:10:02.497Z</time>
      </trkpt>
      <trkpt lat="61.79262" lon="5.36006">
        <ele>288.921311</ele>
        <time>2020-07-16T08:10:07.292Z</time>
      </trkpt>
      <trkpt lat="61.79271" lon="5.36064">
        <ele>285.713329</ele>
        <time>2020-07-16T08:10:10.367Z</time>
      </trkpt>
      <trkpt lat="61.79277" lon="5.36083">
        <ele>284.803172</ele>
        <time>2020-07-16T08:10:11.494Z</time>
      </trkpt>
      <trkpt lat="61.79282" lon="5.36099">
        <ele>284.047099</ele>
        <time>2020-07-16T08:10:12.491Z</time>
      </trkpt>
      <trkpt lat="61.79326" lon="5.36197">
        <ele>278.785012</ele>
        <time>2020-07-16T08:10:19.429Z</time>
      </trkpt>
      <trkpt lat="61.79335" lon="5.36218">
        <ele>277.64617</ele>
        <time>2020-07-16T08:10:21.038Z</time>
      </trkpt>
      <trkpt lat="61.79353" lon="5.3626">
        <ele>275.446032</ele>
        <time>2020-07-16T08:10:24.051Z</time>
      </trkpt>
      <trkpt lat="61.79399" lon="5.36364">
        <ele>271.447585</ele>
        <time>2020-07-16T08:10:32.636Z</time>
      </trkpt>
      <trkpt lat="61.79435" lon="5.36423">
        <ele>271.157857</ele>
        <time>2020-07-16T08:10:39.566Z</time>
      </trkpt>
      <trkpt lat="61.79667" lon="5.36751">
        <ele>272.063749</ele>
        <time>2020-07-16T08:11:35.128Z</time>
      </trkpt>
      <trkpt lat="61.79705" lon="5.36785">
        <ele>272.913433</ele>
        <time>2020-07-16T08:11:45.635Z</time>
      </trkpt>
      <trkpt lat="61.79735" lon="5.36779">
        <ele>273.74027</ele>
        <time>2020-07-16T08:11:53.990Z</time>
      </trkpt>
      <trkpt lat="61.79766" lon="5.36743">
        <ele>274.67112</ele>
        <time>2020-07-16T08:12:03.822Z</time>
      </trkpt>
      <trkpt lat="61.79779" lon="5.36682">
        <ele>275.519695</ele>
        <time>2020-07-16T08:12:13.214Z</time>
      </trkpt>
      <trkpt lat="61.79778" lon="5.36531">
        <ele>277.03859</ele>
        <time>2020-07-16T08:12:32.749Z</time>
      </trkpt>
      <trkpt lat="61.79783" lon="5.36481">
        <ele>277.071551</ele>
        <time>2020-07-16T08:12:37.884Z</time>
      </trkpt>
      <trkpt lat="61.79806" lon="5.3642">
        <ele>277.122664</ele>
        <time>2020-07-16T08:12:45.209Z</time>
      </trkpt>
      <trkpt lat="61.79846" lon="5.36383">
        <ele>277.181191</ele>
        <time>2020-07-16T08:12:52.860Z</time>
      </trkpt>
      <trkpt lat="61.79866" lon="5.36385">
        <ele>277.209834</ele>
        <time>2020-07-16T08:12:56.917Z</time>
      </trkpt>
      <trkpt lat="61.79874" lon="5.36388">
        <ele>277.220885</ele>
        <time>2020-07-16T08:12:57.874Z</time>
      </trkpt>
      <trkpt lat="61.79909" lon="5.36431">
        <ele>277.060984</ele>
        <time>2020-07-16T08:13:03.812Z</time>
      </trkpt>
      <trkpt lat="61.80039" lon="5.36925">
        <ele>271.783471</ele>
        <time>2020-07-16T08:13:40.583Z</time>
      </trkpt>
      <trkpt lat="61.8008" lon="5.37056">
        <ele>270.639121</ele>
        <time>2020-07-16T08:13:52.254Z</time>
      </trkpt>
      <trkpt lat="61.80123" lon="5.37247">
        <ele>270.345195</ele>
        <time>2020-07-16T08:14:09.560Z</time>
      </trkpt>
      <trkpt lat="61.80244" lon="5.37567">
        <ele>270.155834</ele>
        <time>2020-07-16T08:14:44.027Z</time>
      </trkpt>
      <trkpt lat="61.80279" lon="5.37665">
        <ele>270.131154</ele>
        <time>2020-07-16T08:14:54.285Z</time>
      </trkpt>
      <trkpt lat="61.8027" lon="5.37679">
        <ele>270.126364</ele>
        <time>2020-07-16T08:14:56.303Z</time>
      </trkpt>
      <trkpt lat="61.80267" lon="5.37697">
        <ele>270.123161</ele>
        <time>2020-07-16T08:14:57.827Z</time>
      </trkpt>
      <trkpt lat="61.80271" lon="5.37713">
        <ele>270.121041</ele>
        <time>2020-07-16T08:14:59.376Z</time>
      </trkpt>
      <trkpt lat="61.80311" lon="5.37839">
        <ele>270.103769</ele>
        <time>2020-07-16T08:15:12.017Z</time>
      </trkpt>
      <trkpt lat="61.80324" lon="5.37909">
        <ele>270.095164</ele>
        <time>2020-07-16T08:15:18.368Z</time>
      </trkpt>
      <trkpt lat="61.80329" lon="5.37985">
        <ele>270.086545</ele>
        <time>2020-07-16T08:15:24.798Z</time>
      </trkpt>
      <trkpt lat="61.80328" lon="5.38136">
        <ele>270.097013</ele>
        <time>2020-07-16T08:15:37.716Z</time>
      </trkpt>
      <trkpt lat="61.80337" lon="5.38209">
        <ele>270.109739</ele>
        <time>2020-07-16T08:15:44.162Z</time>
      </trkpt>
      <trkpt lat="61.8035" lon="5.38259">
        <ele>270.119301</ele>
        <time>2020-07-16T08:15:49.012Z</time>
      </trkpt>
      <trkpt lat="61.80451" lon="5.38525">
        <ele>270.445783</ele>
        <time>2020-07-16T08:16:18.131Z</time>
      </trkpt>
      <trkpt lat="61.80477" lon="5.38618">
        <ele>270.616301</ele>
        <time>2020-07-16T08:16:27.758Z</time>
      </trkpt>
      <trkpt lat="61.80501" lon="5.38769">
        <ele>271.416828</ele>
        <time>2020-07-16T08:16:42.883Z</time>
      </trkpt>
      <trkpt lat="61.80514" lon="5.3897">
        <ele>273.15027</ele>
        <time>2020-07-16T08:17:04.834Z</time>
      </trkpt>
      <trkpt lat="61.8053" lon="5.39056">
        <ele>273.939443</ele>
        <time>2020-07-16T08:17:15.894Z</time>
      </trkpt>
      <trkpt lat="61.80645" lon="5.39358">
        <ele>281.606252</ele>
        <time>2020-07-16T08:18:12.609Z</time>
      </trkpt>
      <trkpt lat="61.8089" lon="5.39835">
        <ele>305.076121</ele>
        <time>2020-07-16T08:20:28.510Z</time>
      </trkpt>
      <trkpt lat="61.81009" lon="5.40137">
        <ele>319.425251</ele>
        <time>2020-07-16T08:21:49.366Z</time>
      </trkpt>
      <trkpt lat="61.81172" lon="5.40427">
        <ele>334.508172</ele>
        <time>2020-07-16T08:23:15.887Z</time>
      </trkpt>
      <trkpt lat="61.81246" lon="5.40617">
        <ele>341.325272</ele>
        <time>2020-07-16T08:23:59.974Z</time>
      </trkpt>
      <trkpt lat="61.81274" lon="5.40676">
        <ele>343.635612</ele>
        <time>2020-07-16T08:24:13.947Z</time>
      </trkpt>
      <trkpt lat="61.8156" lon="5.41168">
        <ele>356.530556</ele>
        <time>2020-07-16T08:26:00.530Z</time>
      </trkpt>
      <trkpt lat="61.81615" lon="5.41252">
        <ele>357.776594</ele>
        <time>2020-07-16T08:26:15.693Z</time>
      </trkpt>
      <trkpt lat="61.81724" lon="5.41383">
        <ele>360.200981</ele>
        <time>2020-07-16T08:26:43.484Z</time>
      </trkpt>
      <trkpt lat="61.81759" lon="5.41436">
        <ele>361.803709</ele>
        <time>2020-07-16T08:26:54.335Z</time>
      </trkpt>
      <trkpt lat="61.81981" lon="5.41896">
        <ele>374.744608</ele>
        <time>2020-07-16T08:28:35.768Z</time>
      </trkpt>
      <trkpt lat="61.82035" lon="5.41956">
        <ele>376.044241</ele>
        <time>2020-07-16T08:28:54.195Z</time>
      </trkpt>
      <trkpt lat="61.82089" lon="5.41978">
        <ele>377.233409</ele>
        <time>2020-07-16T08:29:08.754Z</time>
      </trkpt>
      <trkpt lat="61.82128" lon="5.4197">
        <ele>378.073439</ele>
        <time>2020-07-16T08:29:16.363Z</time>
      </trkpt>
      <trkpt lat="61.82219" lon="5.41904">
        <ele>377.016549</ele>
        <time>2020-07-16T08:29:30.705Z</time>
      </trkpt>
      <trkpt lat="61.8223" lon="5.419">
        <ele>376.797221</ele>
        <time>2020-07-16T08:29:32.289Z</time>
      </trkpt>
      <trkpt lat="61.82246" lon="5.41897">
        <ele>376.476553</ele>
        <time>2020-07-16T08:29:34.334Z</time>
      </trkpt>
      <trkpt lat="61.82272" lon="5.41901">
        <ele>375.963675</ele>
        <time>2020-07-16T08:29:37.814Z</time>
      </trkpt>
      <trkpt lat="61.82504" lon="5.42091">
        <ele>370.198692</ele>
        <time>2020-07-16T08:30:11.431Z</time>
      </trkpt>
      <trkpt lat="61.8253" lon="5.42134">
        <ele>369.841955</ele>
        <time>2020-07-16T08:30:16.434Z</time>
      </trkpt>
      <trkpt lat="61.82555" lon="5.42203">
        <ele>369.396118</ele>
        <time>2020-07-16T08:30:22.808Z</time>
      </trkpt>
      <trkpt lat="61.82568" lon="5.42279">
        <ele>368.988081</ele>
        <time>2020-07-16T08:30:28.844Z</time>
      </trkpt>
      <trkpt lat="61.82581" lon="5.42429">
        <ele>368.420743</ele>
        <time>2020-07-16T08:30:41.046Z</time>
      </trkpt>
      <trkpt lat="61.82586" lon="5.42478">
        <ele>368.384898</ele>
        <time>2020-07-16T08:30:45.024Z</time>
      </trkpt>
      <trkpt lat="61.82601" lon="5.42621">
        <ele>368.278016</ele>
        <time>2020-07-16T08:30:57.104Z</time>
      </trkpt>
      <trkpt lat="61.82604" lon="5.42645">
        <ele>368.260496</ele>
        <time>2020-07-16T08:30:59.154Z</time>
      </trkpt>
      <trkpt lat="61.82779" lon="5.43582">
        <ele>368.067204</ele>
        <time>2020-07-16T08:32:23.752Z</time>
      </trkpt>
      <trkpt lat="61.82823" lon="5.4378">
        <ele>368.129327</ele>
        <time>2020-07-16T08:32:42.365Z</time>
      </trkpt>
      <trkpt lat="61.82933" lon="5.4419">
        <ele>368.961818</ele>
        <time>2020-07-16T08:33:23.568Z</time>
      </trkpt>
      <trkpt lat="61.8295" lon="5.44268">
        <ele>369.547977</ele>
        <time>2020-07-16T08:33:31.933Z</time>
      </trkpt>
      <trkpt lat="61.82962" lon="5.44346">
        <ele>370.112736</ele>
        <time>2020-07-16T08:33:40.442Z</time>
      </trkpt>
      <trkpt lat="61.82987" lon="5.44622">
        <ele>372.926134</ele>
        <time>2020-07-16T08:34:14.307Z</time>
      </trkpt>
      <trkpt lat="61.83053" lon="5.44954">
        <ele>377.377247</ele>
        <time>2020-07-16T08:35:02.357Z</time>
      </trkpt>
      <trkpt lat="61.83101" lon="5.45349">
        <ele>379.195002</ele>
        <time>2020-07-16T08:35:45.635Z</time>
      </trkpt>
      <trkpt lat="61.83137" lon="5.45508">
        <ele>378.26815</ele>
        <time>2020-07-16T08:35:57.758Z</time>
      </trkpt>
      <trkpt lat="61.83182" lon="5.45647">
        <ele>375.307735</ele>
        <time>2020-07-16T08:36:07.765Z</time>
      </trkpt>
      <trkpt lat="61.83204" lon="5.45709">
        <ele>373.312929</ele>
        <time>2020-07-16T08:36:12.126Z</time>
      </trkpt>
      <trkpt lat="61.83211" lon="5.45731">
        <ele>372.590225</ele>
        <time>2020-07-16T08:36:13.606Z</time>
      </trkpt>
      <trkpt lat="61.83246" lon="5.45832">
        <ele>369.374391</ele>
        <time>2020-07-16T08:36:20.506Z</time>
      </trkpt>
      <trkpt lat="61.83275" lon="5.45934">
        <ele>366.747569</ele>
        <time>2020-07-16T08:36:26.917Z</time>
      </trkpt>
      <trkpt lat="61.8329" lon="5.46057">
        <ele>364.314917</ele>
        <time>2020-07-16T08:36:34.235Z</time>
      </trkpt>
      <trkpt lat="61.83293" lon="5.4608">
        <ele>363.868657</ele>
        <time>2020-07-16T08:36:35.538Z</time>
      </trkpt>
      <trkpt lat="61.83299" lon="5.46121">
        <ele>363.048853</ele>
        <time>2020-07-16T08:36:38.270Z</time>
      </trkpt>
      <trkpt lat="61.8336" lon="5.46617">
        <ele>358.728491</ele>
        <time>2020-07-16T08:37:14.770Z</time>
      </trkpt>
      <trkpt lat="61.83349" lon="5.46823">
        <ele>358.623568</ele>
        <time>2020-07-16T08:37:32.690Z</time>
      </trkpt>
      <trkpt lat="61.83349" lon="5.4686">
        <ele>358.604962</ele>
        <time>2020-07-16T08:37:35.698Z</time>
      </trkpt>
      <trkpt lat="61.83349" lon="5.46875">
        <ele>358.59753</ele>
        <time>2020-07-16T08:37:37.144Z</time>
      </trkpt>
      <trkpt lat="61.83378" lon="5.47488">
        <ele>358.485995</ele>
        <time>2020-07-16T08:38:28.473Z</time>
      </trkpt>
      <trkpt lat="61.83378" lon="5.47544">
        <ele>358.505685</ele>
        <time>2020-07-16T08:38:33.438Z</time>
      </trkpt>
      <trkpt lat="61.8337" lon="5.47655">
        <ele>358.544723</ele>
        <time>2020-07-16T08:38:43.487Z</time>
      </trkpt>
      <trkpt lat="61.83204" lon="5.48545">
        <ele>356.355227</ele>
        <time>2020-07-16T08:40:04.141Z</time>
      </trkpt>
      <trkpt lat="61.82906" lon="5.50071">
        <ele>322.988926</ele>
        <time>2020-07-16T08:41:40.896Z</time>
      </trkpt>
      <trkpt lat="61.82898" lon="5.50122">
        <ele>321.56635</ele>
        <time>2020-07-16T08:41:43.782Z</time>
      </trkpt>
      <trkpt lat="61.82883" lon="5.50306">
        <ele>315.672983</ele>
        <time>2020-07-16T08:41:53.735Z</time>
      </trkpt>
      <trkpt lat="61.82881" lon="5.50375">
        <ele>313.123994</ele>
        <time>2020-07-16T08:41:57.400Z</time>
      </trkpt>
      <trkpt lat="61.82886" lon="5.5054">
        <ele>307.117964</ele>
        <time>2020-07-16T08:42:06.128Z</time>
      </trkpt>
      <trkpt lat="61.8289" lon="5.50624">
        <ele>304.510019</ele>
        <time>2020-07-16T08:42:10.719Z</time>
      </trkpt>
      <trkpt lat="61.82893" lon="5.50677">
        <ele>303.3548</ele>
        <time>2020-07-16T08:42:13.700Z</time>
      </trkpt>
      <trkpt lat="61.82922" lon="5.51333">
        <ele>291.661599</ele>
        <time>2020-07-16T08:42:53.567Z</time>
      </trkpt>
      <trkpt lat="61.82922" lon="5.51404">
        <ele>291.640054</ele>
        <time>2020-07-16T08:42:58.794Z</time>
      </trkpt>
      <trkpt lat="61.82914" lon="5.51518">
        <ele>292.137019</ele>
        <time>2020-07-16T08:43:09.266Z</time>
      </trkpt>
      <trkpt lat="61.82899" lon="5.51596">
        <ele>292.499838</ele>
        <time>2020-07-16T08:43:18.781Z</time>
      </trkpt>
      <trkpt lat="61.82852" lon="5.51774">
        <ele>293.784343</ele>
        <time>2020-07-16T08:43:43.381Z</time>
      </trkpt>
      <trkpt lat="61.82851" lon="5.51784">
        <ele>293.889314</ele>
        <time>2020-07-16T08:43:45.466Z</time>
      </trkpt>
      <trkpt lat="61.82848" lon="5.51803">
        <ele>294.077601</ele>
        <time>2020-07-16T08:43:47.664Z</time>
      </trkpt>
      <trkpt lat="61.82845" lon="5.51824">
        <ele>294.295846</ele>
        <time>2020-07-16T08:43:50.511Z</time>
      </trkpt>
      <trkpt lat="61.82844" lon="5.5188">
        <ele>294.837783</ele>
        <time>2020-07-16T08:43:57.372Z</time>
      </trkpt>
      <trkpt lat="61.82859" lon="5.51987">
        <ele>295.923893</ele>
        <time>2020-07-16T08:44:10.489Z</time>
      </trkpt>
      <trkpt lat="61.82965" lon="5.52355">
        <ele>298.457053</ele>
        <time>2020-07-16T08:44:52.299Z</time>
      </trkpt>
      <trkpt lat="61.83031" lon="5.52648">
        <ele>300.64073</ele>
        <time>2020-07-16T08:45:28.413Z</time>
      </trkpt>
      <trkpt lat="61.83034" lon="5.52669">
        <ele>300.795248</ele>
        <time>2020-07-16T08:45:31.038Z</time>
      </trkpt>
      <trkpt lat="61.83035" lon="5.52675">
        <ele>300.838641</ele>
        <time>2020-07-16T08:45:32.685Z</time>
      </trkpt>
      <trkpt lat="61.83085" lon="5.53296">
        <ele>299.95543</ele>
        <time>2020-07-16T08:46:27.137Z</time>
      </trkpt>
      <trkpt lat="61.83115" lon="5.53552">
        <ele>296.285585</ele>
        <time>2020-07-16T08:46:42.727Z</time>
      </trkpt>
      <trkpt lat="61.83146" lon="5.53761">
        <ele>290.980333</ele>
        <time>2020-07-16T08:46:55.043Z</time>
      </trkpt>
      <trkpt lat="61.83168" lon="5.54057">
        <ele>284.662492</ele>
        <time>2020-07-16T08:47:12.157Z</time>
      </trkpt>
      <trkpt lat="61.8317" lon="5.54093">
        <ele>283.938252</ele>
        <time>2020-07-16T08:47:14.302Z</time>
      </trkpt>
      <trkpt lat="61.83176" lon="5.54167">
        <ele>282.461562</ele>
        <time>2020-07-16T08:47:18.876Z</time>
      </trkpt>
      <trkpt lat="61.83185" lon="5.54358">
        <ele>280.38358</ele>
        <time>2020-07-16T08:47:31.263Z</time>
      </trkpt>
      <trkpt lat="61.83195" lon="5.54461">
        <ele>279.694791</ele>
        <time>2020-07-16T08:47:38.734Z</time>
      </trkpt>
      <trkpt lat="61.83213" lon="5.54533">
        <ele>279.172338</ele>
        <time>2020-07-16T08:47:45.096Z</time>
      </trkpt>
      <trkpt lat="61.83218" lon="5.54554">
        <ele>279.016126</ele>
        <time>2020-07-16T08:47:47.033Z</time>
      </trkpt>
      <trkpt lat="61.83229" lon="5.54589">
        <ele>278.744021</ele>
        <time>2020-07-16T08:47:50.458Z</time>
      </trkpt>
      <trkpt lat="61.83266" lon="5.54722">
        <ele>278.366425</ele>
        <time>2020-07-16T08:48:03.038Z</time>
      </trkpt>
      <trkpt lat="61.83282" lon="5.54819">
        <ele>278.114997</ele>
        <time>2020-07-16T08:48:11.336Z</time>
      </trkpt>
      <trkpt lat="61.83284" lon="5.54931">
        <ele>277.842725</ele>
        <time>2020-07-16T08:48:20.083Z</time>
      </trkpt>
      <trkpt lat="61.83275" lon="5.55209">
        <ele>274.991228</ele>
        <time>2020-07-16T08:48:39.084Z</time>
      </trkpt>
      <trkpt lat="61.83289" lon="5.55374">
        <ele>272.712092</ele>
        <time>2020-07-16T08:48:49.262Z</time>
      </trkpt>
      <trkpt lat="61.8332" lon="5.55545">
        <ele>269.015432</ele>
        <time>2020-07-16T08:48:59.972Z</time>
      </trkpt>
      <trkpt lat="61.83339" lon="5.55693">
        <ele>265.928927</ele>
        <time>2020-07-16T08:49:08.838Z</time>
      </trkpt>
      <trkpt lat="61.83346" lon="5.5594">
        <ele>261.321031</ele>
        <time>2020-07-16T08:49:23.417Z</time>
      </trkpt>
      <trkpt lat="61.83336" lon="5.56072">
        <ele>258.921826</ele>
        <time>2020-07-16T08:49:31.670Z</time>
      </trkpt>
      <trkpt lat="61.83327" lon="5.56115">
        <ele>258.476862</ele>
        <time>2020-07-16T08:49:34.581Z</time>
      </trkpt>
      <trkpt lat="61.83324" lon="5.56135">
        <ele>258.259864</ele>
        <time>2020-07-16T08:49:35.967Z</time>
      </trkpt>
      <trkpt lat="61.83265" lon="5.56372">
        <ele>255.643653</ele>
        <time>2020-07-16T08:49:53.893Z</time>
      </trkpt>
      <trkpt lat="61.83248" lon="5.56467">
        <ele>255.14441</ele>
        <time>2020-07-16T08:50:01.140Z</time>
      </trkpt>
      <trkpt lat="61.83243" lon="5.56552">
        <ele>254.942139</ele>
        <time>2020-07-16T08:50:07.598Z</time>
      </trkpt>
      <trkpt lat="61.83245" lon="5.56829">
        <ele>254.585296</ele>
        <time>2020-07-16T08:50:29.979Z</time>
      </trkpt>
      <trkpt lat="61.83229" lon="5.57065">
        <ele>255.501212</ele>
        <time>2020-07-16T08:50:53.657Z</time>
      </trkpt>
      <trkpt lat="61.83221" lon="5.57193">
        <ele>256.043838</ele>
        <time>2020-07-16T08:51:06.860Z</time>
      </trkpt>
      <trkpt lat="61.8322" lon="5.57211">
        <ele>256.140806</ele>
        <time>2020-07-16T08:51:09.025Z</time>
      </trkpt>
      <trkpt lat="61.83222" lon="5.57322">
        <ele>256.729304</ele>
        <time>2020-07-16T08:51:20.496Z</time>
      </trkpt>
      <trkpt lat="61.83242" lon="5.57473">
        <ele>257.558153</ele>
        <time>2020-07-16T08:51:36.616Z</time>
      </trkpt>
      <trkpt lat="61.83391" lon="5.57937">
        <ele>259.164264</ele>
        <time>2020-07-16T08:52:29.025Z</time>
      </trkpt>
      <trkpt lat="61.83407" lon="5.57982">
        <ele>259.251186</ele>
        <time>2020-07-16T08:52:33.962Z</time>
      </trkpt>
      <trkpt lat="61.83411" lon="5.57999">
        <ele>259.281294</ele>
        <time>2020-07-16T08:52:35.710Z</time>
      </trkpt>
      <trkpt lat="61.83434" lon="5.58119">
        <ele>259.48583</ele>
        <time>2020-07-16T08:52:47.070Z</time>
      </trkpt>
      <trkpt lat="61.83444" lon="5.58221">
        <ele>259.488087</ele>
        <time>2020-07-16T08:52:55.988Z</time>
      </trkpt>
      <trkpt lat="61.83444" lon="5.58232">
        <ele>259.467947</ele>
        <time>2020-07-16T08:52:57.023Z</time>
      </trkpt>
      <trkpt lat="61.83446" lon="5.58297">
        <ele>259.346666</ele>
        <time>2020-07-16T08:53:02.365Z</time>
      </trkpt>
      <trkpt lat="61.83443" lon="5.58665">
        <ele>258.03377</ele>
        <time>2020-07-16T08:53:30.772Z</time>
      </trkpt>
      <trkpt lat="61.83438" lon="5.58771">
        <ele>257.233668</ele>
        <time>2020-07-16T08:53:38.178Z</time>
      </trkpt>
      <trkpt lat="61.83436" lon="5.5879">
        <ele>257.0834</ele>
        <time>2020-07-16T08:53:39.560Z</time>
      </trkpt>
      <trkpt lat="61.83429" lon="5.5889">
        <ele>256.319462</ele>
        <time>2020-07-16T08:53:46.308Z</time>
      </trkpt>
      <trkpt lat="61.83373" lon="5.5928">
        <ele>250.516284</ele>
        <time>2020-07-16T08:54:11.555Z</time>
      </trkpt>
      <trkpt lat="61.83376" lon="5.59364">
        <ele>248.978533</ele>
        <time>2020-07-16T08:54:16.586Z</time>
      </trkpt>
      <trkpt lat="61.83394" lon="5.59529">
        <ele>245.748795</ele>
        <time>2020-07-16T08:54:26.604Z</time>
      </trkpt>
      <trkpt lat="61.83396" lon="5.59585">
        <ele>244.674048</ele>
        <time>2020-07-16T08:54:29.917Z</time>
      </trkpt>
      <trkpt lat="61.83395" lon="5.59641">
        <ele>243.610829</ele>
        <time>2020-07-16T08:54:33.181Z</time>
      </trkpt>
      <trkpt lat="61.83374" lon="5.59855">
        <ele>238.975887</ele>
        <time>2020-07-16T08:54:45.975Z</time>
      </trkpt>
      <trkpt lat="61.83381" lon="5.59964">
        <ele>236.59399</ele>
        <time>2020-07-16T08:54:52.408Z</time>
      </trkpt>
      <trkpt lat="61.83422" lon="5.60284">
        <ele>229.352745</ele>
        <time>2020-07-16T08:55:11.521Z</time>
      </trkpt>
      <trkpt lat="61.83437" lon="5.60579">
        <ele>223.472811</ele>
        <time>2020-07-16T08:55:28.842Z</time>
      </trkpt>
      <trkpt lat="61.83482" lon="5.60924">
        <ele>217.124584</ele>
        <time>2020-07-16T08:55:50.729Z</time>
      </trkpt>
      <trkpt lat="61.83492" lon="5.61146">
        <ele>213.285061</ele>
        <time>2020-07-16T08:56:04.404Z</time>
      </trkpt>
      <trkpt lat="61.83535" lon="5.6145">
        <ele>205.538025</ele>
        <time>2020-07-16T08:56:22.583Z</time>
      </trkpt>
      <trkpt lat="61.83555" lon="5.61887">
        <ele>193.028393</ele>
        <time>2020-07-16T08:56:46.611Z</time>
      </trkpt>
      <trkpt lat="61.8358" lon="5.62268">
        <ele>185.327111</ele>
        <time>2020-07-16T08:57:09.236Z</time>
      </trkpt>
      <trkpt lat="61.83601" lon="5.62487">
        <ele>183.686581</ele>
        <time>2020-07-16T08:57:24.531Z</time>
      </trkpt>
      <trkpt lat="61.83606" lon="5.62549">
        <ele>183.301803</ele>
        <time>2020-07-16T08:57:29.374Z</time>
      </trkpt>
      <trkpt lat="61.83607" lon="5.62569">
        <ele>183.1819</ele>
        <time>2020-07-16T08:57:30.897Z</time>
      </trkpt>
      <trkpt lat="61.83606" lon="5.62666">
        <ele>182.596447</ele>
        <time>2020-07-16T08:57:38.857Z</time>
      </trkpt>
      <trkpt lat="61.836" lon="5.62721">
        <ele>182.531984</ele>
        <time>2020-07-16T08:57:43.416Z</time>
      </trkpt>
      <trkpt lat="61.83595" lon="5.62746">
        <ele>182.500517</ele>
        <time>2020-07-16T08:57:45.838Z</time>
      </trkpt>
      <trkpt lat="61.8356" lon="5.62966">
        <ele>182.236098</ele>
        <time>2020-07-16T08:58:04.891Z</time>
      </trkpt>
      <trkpt lat="61.83556" lon="5.63076">
        <ele>182.038076</ele>
        <time>2020-07-16T08:58:13.534Z</time>
      </trkpt>
      <trkpt lat="61.8358" lon="5.63318">
        <ele>181.365704</ele>
        <time>2020-07-16T08:58:32.324Z</time>
      </trkpt>
      <trkpt lat="61.83584" lon="5.63784">
        <ele>180.074799</ele>
        <time>2020-07-16T08:59:08.788Z</time>
      </trkpt>
      <trkpt lat="61.83618" lon="5.64041">
        <ele>177.297724</ele>
        <time>2020-07-16T08:59:27.380Z</time>
      </trkpt>
      <trkpt lat="61.83639" lon="5.64283">
        <ele>172.144621</ele>
        <time>2020-07-16T08:59:41.939Z</time>
      </trkpt>
      <trkpt lat="61.83638" lon="5.64337">
        <ele>170.470665</ele>
        <time>2020-07-16T08:59:44.971Z</time>
      </trkpt>
      <trkpt lat="61.83629" lon="5.64413">
        <ele>168.092513</ele>
        <time>2020-07-16T08:59:49.162Z</time>
      </trkpt>
      <trkpt lat="61.8359" lon="5.64618">
        <ele>159.637117</ele>
        <time>2020-07-16T09:00:00.802Z</time>
      </trkpt>
      <trkpt lat="61.83578" lon="5.64724">
        <ele>154.536104</ele>
        <time>2020-07-16T09:00:06.409Z</time>
      </trkpt>
      <trkpt lat="61.83581" lon="5.64814">
        <ele>150.265827</ele>
        <time>2020-07-16T09:00:11.093Z</time>
      </trkpt>
      <trkpt lat="61.83616" lon="5.65164">
        <ele>130.815867</ele>
        <time>2020-07-16T09:00:29.155Z</time>
      </trkpt>
      <trkpt lat="61.8362" lon="5.65184">
        <ele>129.628002</ele>
        <time>2020-07-16T09:00:30.199Z</time>
      </trkpt>
      <trkpt lat="61.83619" lon="5.65204">
        <ele>128.504491</ele>
        <time>2020-07-16T09:00:31.224Z</time>
      </trkpt>
      <trkpt lat="61.83637" lon="5.65407">
        <ele>118.360873</ele>
        <time>2020-07-16T09:00:42.222Z</time>
      </trkpt>
      <trkpt lat="61.83676" lon="5.6565">
        <ele>106.873158</ele>
        <time>2020-07-16T09:00:56.260Z</time>
      </trkpt>
      <trkpt lat="61.83766" lon="5.6595">
        <ele>95.022242</ele>
        <time>2020-07-16T09:01:16.730Z</time>
      </trkpt>
      <trkpt lat="61.83801" lon="5.66024">
        <ele>90.854781</ele>
        <time>2020-07-16T09:01:22.705Z</time>
      </trkpt>
      <trkpt lat="61.83819" lon="5.66101">
        <ele>87.441981</ele>
        <time>2020-07-16T09:01:27.464Z</time>
      </trkpt>
      <trkpt lat="61.83844" lon="5.66289">
        <ele>79.630196</ele>
        <time>2020-07-16T09:01:38.138Z</time>
      </trkpt>
      <trkpt lat="61.83856" lon="5.6645">
        <ele>70.785326</ele>
        <time>2020-07-16T09:01:46.848Z</time>
      </trkpt>
      <trkpt lat="61.83882" lon="5.66666">
        <ele>58.551248</ele>
        <time>2020-07-16T09:01:58.603Z</time>
      </trkpt>
      <trkpt lat="61.83888" lon="5.66805">
        <ele>49.729469</ele>
        <time>2020-07-16T09:02:05.846Z</time>
      </trkpt>
      <trkpt lat="61.83885" lon="5.66826">
        <ele>48.372568</ele>
        <time>2020-07-16T09:02:07.042Z</time>
      </trkpt>
      <trkpt lat="61.83881" lon="5.66833">
        <ele>47.696403</ele>
        <time>2020-07-16T09:02:07.574Z</time>
      </trkpt>
      <trkpt lat="61.83874" lon="5.66842">
        <ele>46.537354</ele>
        <time>2020-07-16T09:02:08.494Z</time>
      </trkpt>
      <trkpt lat="61.83858" lon="5.66839">
        <ele>44.43792</ele>
        <time>2020-07-16T09:02:10.342Z</time>
      </trkpt>
      <trkpt lat="61.83849" lon="5.66825">
        <ele>42.889227</ele>
        <time>2020-07-16T09:02:11.623Z</time>
      </trkpt>
      <trkpt lat="61.83843" lon="5.66823">
        <ele>42.074837</ele>
        <time>2020-07-16T09:02:12.302Z</time>
      </trkpt>
      <trkpt lat="61.83841" lon="5.66822">
        <ele>41.815755</ele>
        <time>2020-07-16T09:02:12.519Z</time>
      </trkpt>
      <trkpt lat="61.8383" lon="5.6684">
        <ele>39.966238</ele>
        <time>2020-07-16T09:02:14.048Z</time>
      </trkpt>
      <trkpt lat="61.83822" lon="5.66907">
        <ele>35.656577</ele>
        <time>2020-07-16T09:02:17.580Z</time>
      </trkpt>
      <trkpt lat="61.83814" lon="5.66944">
        <ele>33.494291</ele>
        <time>2020-07-16T09:02:19.828Z</time>
      </trkpt>
      <trkpt lat="61.83753" lon="5.67067">
        <ele>25.366267</ele>
        <time>2020-07-16T09:02:29.256Z</time>
      </trkpt>
      <trkpt lat="61.83753" lon="5.67071">
        <ele>25.192773</ele>
        <time>2020-07-16T09:02:29.457Z</time>
      </trkpt>
      <trkpt lat="61.83754" lon="5.67077">
        <ele>24.887303</ele>
        <time>2020-07-16T09:02:29.830Z</time>
      </trkpt>
      <trkpt lat="61.83775" lon="5.67142">
        <ele>21.289361</ele>
        <time>2020-07-16T09:02:34.310Z</time>
      </trkpt>
      <trkpt lat="61.83809" lon="5.67222">
        <ele>16.860242</ele>
        <time>2020-07-16T09:02:40.594Z</time>
      </trkpt>
      <trkpt lat="61.83867" lon="5.67476">
        <ele>10.665517</ele>
        <time>2020-07-16T09:02:57.673Z</time>
      </trkpt>
      <trkpt lat="61.83897" lon="5.67557">
        <ele>8.53925</ele>
        <time>2020-07-16T09:03:04.306Z</time>
      </trkpt>
      <trkpt lat="61.8391" lon="5.67582">
        <ele>7.952257</ele>
        <time>2020-07-16T09:03:06.626Z</time>
      </trkpt>
      <trkpt lat="61.83918" lon="5.67597">
        <ele>7.61017</ele>
        <time>2020-07-16T09:03:08.054Z</time>
      </trkpt>
      <trkpt lat="61.83932" lon="5.67621">
        <ele>7.025663</ele>
        <time>2020-07-16T09:03:10.544Z</time>
      </trkpt>
      <trkpt lat="61.83935" lon="5.67629">
        <ele>6.863634</ele>
        <time>2020-07-16T09:03:11.142Z</time>
      </trkpt>
      <trkpt lat="61.83941" lon="5.67641">
        <ele>6.594556</ele>
        <time>2020-07-16T09:03:12.194Z</time>
      </trkpt>
      <trkpt lat="61.8396" lon="5.67677">
        <ele>5.760321</ele>
        <time>2020-07-16T09:03:15.764Z</time>
      </trkpt>
      <trkpt lat="61.83964" lon="5.67686">
        <ele>5.568255</ele>
        <time>2020-07-16T09:03:16.463Z</time>
      </trkpt>
      <trkpt lat="61.83966" lon="5.67746">
        <ele>4.64103</ele>
        <time>2020-07-16T09:03:20.551Z</time>
      </trkpt>
      <trkpt lat="61.83963" lon="5.67758">
        <ele>4.429456</ele>
        <time>2020-07-16T09:03:21.337Z</time>
      </trkpt>
      <trkpt lat="61.83954" lon="5.6778">
        <ele>3.970564</ele>
        <time>2020-07-16T09:03:23.330Z</time>
      </trkpt>
      <trkpt lat="61.83932" lon="5.67841">
        <ele>2.90768</ele>
        <time>2020-07-16T09:03:28.478Z</time>
      </trkpt>
      <trkpt lat="61.83912" lon="5.67896">
        <ele>2.412454</ele>
        <time>2020-07-16T09:03:33.326Z</time>
      </trkpt>
      <trkpt lat="61.83926" lon="5.67922">
        <ele>2.128438</ele>
        <time>2020-07-16T09:03:36.445Z</time>
      </trkpt>
      <trkpt lat="61.83971" lon="5.68053">
        <ele>0.968735</ele>
        <time>2020-07-16T09:03:47.853Z</time>
      </trkpt>
      <trkpt lat="61.83997" lon="5.68145">
        <ele>0.281759</ele>
        <time>2020-07-16T09:03:56.476Z</time>
      </trkpt>
      <trkpt lat="61.84026" lon="5.68359">
        <ele>0.146178</ele>
        <time>2020-07-16T09:04:16.004Z</time>
      </trkpt>
      <trkpt lat="61.84106" lon="5.68662">
        <ele>0.045327</ele>
        <time>2020-07-16T09:04:46.352Z</time>
      </trkpt>
      <trkpt lat="61.84113" lon="5.68685">
        <ele>0.043739</ele>
        <time>2020-07-16T09:04:48.719Z</time>
      </trkpt>
      <trkpt lat="61.84127" lon="5.68742">
        <ele>0.039938</ele>
        <time>2020-07-16T09:04:54.389Z</time>
      </trkpt>
      <trkpt lat="61.84137" lon="5.68771">
        <ele>0.037867</ele>
        <time>2020-07-16T09:04:57.485Z</time>
      </trkpt>
      <trkpt lat="61.84164" lon="5.68858">
        <ele>0.111823</ele>
        <time>2020-07-16T09:05:06.714Z</time>
      </trkpt>
      <trkpt lat="61.84214" lon="5.6905">
        <ele>0.438629</ele>
        <time>2020-07-16T09:05:26.784Z</time>
      </trkpt>
      <trkpt lat="61.84219" lon="5.69067">
        <ele>0.469649</ele>
        <time>2020-07-16T09:05:28.747Z</time>
      </trkpt>
      <trkpt lat="61.84233" lon="5.69122">
        <ele>0.562183</ele>
        <time>2020-07-16T09:05:34.811Z</time>
      </trkpt>
      <trkpt lat="61.84293" lon="5.69362">
        <ele>1.241519</ele>
        <time>2020-07-16T09:06:01.250Z</time>
      </trkpt>
      <trkpt lat="61.84314" lon="5.69452">
        <ele>1.502774</ele>
        <time>2020-07-16T09:06:10.808Z</time>
      </trkpt>
      <trkpt lat="61.84322" lon="5.69493">
        <ele>1.622308</ele>
        <time>2020-07-16T09:06:14.803Z</time>
      </trkpt>
      <trkpt lat="61.84344" lon="5.69628">
        <ele>2.038052</ele>
        <time>2020-07-16T09:06:28.313Z</time>
      </trkpt>
      <trkpt lat="61.84358" lon="5.69751">
        <ele>2.404275</ele>
        <time>2020-07-16T09:06:40.251Z</time>
      </trkpt>
      <trkpt lat="61.84386" lon="5.70112">
        <ele>3.920005</ele>
        <time>2020-07-16T09:07:17.801Z</time>
      </trkpt>
      <trkpt lat="61.84392" lon="5.70154">
        <ele>4.126121</ele>
        <time>2020-07-16T09:07:22.216Z</time>
      </trkpt>
      <trkpt lat="61.84395" lon="5.70157">
        <ele>4.157004</ele>
        <time>2020-07-16T09:07:23.754Z</time>
      </trkpt>
      <trkpt lat="61.84396" lon="5.70187">
        <ele>4.295237</ele>
        <time>2020-07-16T09:07:26.125Z</time>
      </trkpt>
      <trkpt lat="61.84473" lon="5.70988">
        <ele>8.734046</ele>
        <time>2020-07-16T09:08:47.020Z</time>
      </trkpt>
      <trkpt lat="61.84484" lon="5.71063">
        <ele>10.162693</ele>
        <time>2020-07-16T09:08:57.819Z</time>
      </trkpt>
      <trkpt lat="61.84514" lon="5.71188">
        <ele>12.717548</ele>
        <time>2020-07-16T09:09:17.130Z</time>
      </trkpt>
      <trkpt lat="61.84518" lon="5.71201">
        <ele>13.007204</ele>
        <time>2020-07-16T09:09:20.324Z</time>
      </trkpt>
      <trkpt lat="61.84551" lon="5.71323">
        <ele>15.678891</ele>
        <time>2020-07-16T09:09:41.292Z</time>
      </trkpt>
      <trkpt lat="61.84619" lon="5.71563">
        <ele>24.440835</ele>
        <time>2020-07-16T09:10:33.232Z</time>
      </trkpt>
      <trkpt lat="61.84631" lon="5.71593">
        <ele>25.669919</ele>
        <time>2020-07-16T09:10:41.141Z</time>
      </trkpt>
      <trkpt lat="61.84647" lon="5.71626">
        <ele>27.134826</ele>
        <time>2020-07-16T09:10:49.982Z</time>
      </trkpt>
      <trkpt lat="61.84669" lon="5.71668">
        <ele>29.479464</ele>
        <time>2020-07-16T09:11:02.279Z</time>
      </trkpt>
      <trkpt lat="61.8468" lon="5.71687">
        <ele>30.566708</ele>
        <time>2020-07-16T09:11:08.201Z</time>
      </trkpt>
      <trkpt lat="61.84689" lon="5.71705">
        <ele>31.545836</ele>
        <time>2020-07-16T09:11:14.133Z</time>
      </trkpt>
      <trkpt lat="61.84736" lon="5.71803">
        <ele>36.842881</ele>
        <time>2020-07-16T09:11:43.560Z</time>
      </trkpt>
      <trkpt lat="61.84758" lon="5.71873">
        <ele>40.024416</ele>
        <time>2020-07-16T09:12:01.046Z</time>
      </trkpt>
      <trkpt lat="61.84781" lon="5.71971">
        <ele>45.718613</ele>
        <time>2020-07-16T09:12:21.624Z</time>
      </trkpt>
      <trkpt lat="61.8479" lon="5.72053">
        <ele>50.941181</ele>
        <time>2020-07-16T09:12:41.456Z</time>
      </trkpt>
      <trkpt lat="61.84791" lon="5.72273">
        <ele>64.553762</ele>
        <time>2020-07-16T09:13:46.723Z</time>
      </trkpt>
      <trkpt lat="61.84793" lon="5.72298">
        <ele>67.608565</ele>
        <time>2020-07-16T09:13:55.108Z</time>
      </trkpt>
      <trkpt lat="61.84793" lon="5.72307">
        <ele>69.004246</ele>
        <time>2020-07-16T09:13:59.032Z</time>
      </trkpt>
      <trkpt lat="61.84802" lon="5.72371">
        <ele>80.059939</ele>
        <time>2020-07-16T09:14:25.111Z</time>
      </trkpt>
      <trkpt lat="61.84821" lon="5.72442">
        <ele>93.326804</ele>
        <time>2020-07-16T09:15:00.569Z</time>
      </trkpt>
      <trkpt lat="61.84842" lon="5.72494">
        <ele>104.548705</ele>
        <time>2020-07-16T09:15:30.768Z</time>
      </trkpt>
      <trkpt lat="61.84868" lon="5.72538">
        <ele>116.395661</ele>
        <time>2020-07-16T09:16:03.255Z</time>
      </trkpt>
      <trkpt lat="61.85283" lon="5.73046">
        <ele>380.783216</ele>
        <time>2020-07-16T09:24:05.985Z</time>
      </trkpt>
      <trkpt lat="61.8535" lon="5.73109">
        <ele>424.059755</ele>
        <time>2020-07-16T09:25:23.829Z</time>
      </trkpt>
      <trkpt lat="61.85406" lon="5.73144">
        <ele>437.268358</ele>
        <time>2020-07-16T09:26:22.179Z</time>
      </trkpt>
      <trkpt lat="61.85476" lon="5.73168">
        <ele>439.068131</ele>
        <time>2020-07-16T09:27:26.828Z</time>
      </trkpt>
      <trkpt lat="61.86165" lon="5.7333">
        <ele>123.653687</ele>
        <time>2020-07-16T09:28:46.006Z</time>
      </trkpt>
      <trkpt lat="61.862" lon="5.73332">
        <ele>106.627476</ele>
        <time>2020-07-16T09:28:50.009Z</time>
      </trkpt>
      <trkpt lat="61.86212" lon="5.73327">
        <ele>100.947837</ele>
        <time>2020-07-16T09:28:51.295Z</time>
      </trkpt>
      <trkpt lat="61.86236" lon="5.73311">
        <ele>88.602835</ele>
        <time>2020-07-16T09:28:54.003Z</time>
      </trkpt>
      <trkpt lat="61.86273" lon="5.7327">
        <ele>71.752992</ele>
        <time>2020-07-16T09:28:58.443Z</time>
      </trkpt>
      <trkpt lat="61.8629" lon="5.73249">
        <ele>66.371906</ele>
        <time>2020-07-16T09:29:00.455Z</time>
      </trkpt>
      <trkpt lat="61.86304" lon="5.7323">
        <ele>61.61077</ele>
        <time>2020-07-16T09:29:02.252Z</time>
      </trkpt>
      <trkpt lat="61.86355" lon="5.7317">
        <ele>45.318852</ele>
        <time>2020-07-16T09:29:08.222Z</time>
      </trkpt>
      <trkpt lat="61.86425" lon="5.73113">
        <ele>25.730729</ele>
        <time>2020-07-16T09:29:15.894Z</time>
      </trkpt>
      <trkpt lat="61.86458" lon="5.73083">
        <ele>22.712962</ele>
        <time>2020-07-16T09:29:19.651Z</time>
      </trkpt>
      <trkpt lat="61.86478" lon="5.73062">
        <ele>20.763684</ele>
        <time>2020-07-16T09:29:22.205Z</time>
      </trkpt>
      <trkpt lat="61.86537" lon="5.73018">
        <ele>15.443304</ele>
        <time>2020-07-16T09:29:29.257Z</time>
      </trkpt>
      <trkpt lat="61.86547" lon="5.73016">
        <ele>14.643079</ele>
        <time>2020-07-16T09:29:30.403Z</time>
      </trkpt>
      <trkpt lat="61.86563" lon="5.73012">
        <ele>13.229282</ele>
        <time>2020-07-16T09:29:32.320Z</time>
      </trkpt>
      <trkpt lat="61.86703" lon="5.72982">
        <ele>9.646779</ele>
        <time>2020-07-16T09:29:53.656Z</time>
      </trkpt>
      <trkpt lat="61.8676" lon="5.72952">
        <ele>8.961746</ele>
        <time>2020-07-16T09:30:03.454Z</time>
      </trkpt>
      <trkpt lat="61.86766" lon="5.72949">
        <ele>8.891623</ele>
        <time>2020-07-16T09:30:04.446Z</time>
      </trkpt>
      <trkpt lat="61.86806" lon="5.72927">
        <ele>9.259172</ele>
        <time>2020-07-16T09:30:12.005Z</time>
      </trkpt>
      <trkpt lat="61.86846" lon="5.72902">
        <ele>9.6477</ele>
        <time>2020-07-16T09:30:20.320Z</time>
      </trkpt>
      <trkpt lat="61.86869" lon="5.72891">
        <ele>9.857588</ele>
        <time>2020-07-16T09:30:25.054Z</time>
      </trkpt>
      <trkpt lat="61.8692" lon="5.72864">
        <ele>10.345035</ele>
        <time>2020-07-16T09:30:37.072Z</time>
      </trkpt>
      <trkpt lat="61.86956" lon="5.7283">
        <ele>10.863589</ele>
        <time>2020-07-16T09:30:46.587Z</time>
      </trkpt>
      <trkpt lat="61.86997" lon="5.72764">
        <ele>11.787871</ele>
        <time>2020-07-16T09:30:59.359Z</time>
      </trkpt>
      <trkpt lat="61.87135" lon="5.72494">
        <ele>13.771029</ele>
        <time>2020-07-16T09:31:43.216Z</time>
      </trkpt>
      <trkpt lat="61.87345" lon="5.72249">
        <ele>12.302092</ele>
        <time>2020-07-16T09:32:19.074Z</time>
      </trkpt>
      <trkpt lat="61.8743" lon="5.72104">
        <ele>12.313428</ele>
        <time>2020-07-16T09:32:36.913Z</time>
      </trkpt>
      <trkpt lat="61.8764" lon="5.71839">
        <ele>14.606296</ele>
        <time>2020-07-16T09:33:32.338Z</time>
      </trkpt>
      <trkpt lat="61.87654" lon="5.71822">
        <ele>14.789378</ele>
        <time>2020-07-16T09:33:35.923Z</time>
      </trkpt>
      <trkpt lat="61.87681" lon="5.71796">
        <ele>15.117012</ele>
        <time>2020-07-16T09:33:41.441Z</time>
      </trkpt>
      <trkpt lat="61.87713" lon="5.71765">
        <ele>14.708122</ele>
        <time>2020-07-16T09:33:47.657Z</time>
      </trkpt>
      <trkpt lat="61.8775" lon="5.71732">
        <ele>14.138674</ele>
        <time>2020-07-16T09:33:54.139Z</time>
      </trkpt>
      <trkpt lat="61.8779" lon="5.71697">
        <ele>13.533209</ele>
        <time>2020-07-16T09:34:00.605Z</time>
      </trkpt>
      <trkpt lat="61.87797" lon="5.71692">
        <ele>13.422901</ele>
        <time>2020-07-16T09:34:01.728Z</time>
      </trkpt>
      <trkpt lat="61.87806" lon="5.71684">
        <ele>13.288703</ele>
        <time>2020-07-16T09:34:03.146Z</time>
      </trkpt>
      <trkpt lat="61.8782" lon="5.7167">
        <ele>13.069509</ele>
        <time>2020-07-16T09:34:05.206Z</time>
      </trkpt>
      <trkpt lat="61.87922" lon="5.71571">
        <ele>10.145193</ele>
        <time>2020-07-16T09:34:19.675Z</time>
      </trkpt>
      <trkpt lat="61.87987" lon="5.71544">
        <ele>8.093446</ele>
        <time>2020-07-16T09:34:28.507Z</time>
      </trkpt>
      <trkpt lat="61.88004" lon="5.71538">
        <ele>7.564524</ele>
        <time>2020-07-16T09:34:30.718Z</time>
      </trkpt>
      <trkpt lat="61.88022" lon="5.71561">
        <ele>6.97566</ele>
        <time>2020-07-16T09:34:33.537Z</time>
      </trkpt>
      <trkpt lat="61.881" lon="5.71532">
        <ele>5.276513</ele>
        <time>2020-07-16T09:34:44.316Z</time>
      </trkpt>
      <trkpt lat="61.88106" lon="5.71526">
        <ele>5.140008</ele>
        <time>2020-07-16T09:34:45.128Z</time>
      </trkpt>
      <trkpt lat="61.88118" lon="5.71515">
        <ele>4.86849</ele>
        <time>2020-07-16T09:34:47.012Z</time>
      </trkpt>
      <trkpt lat="61.88145" lon="5.71495">
        <ele>4.251609</ele>
        <time>2020-07-16T09:34:51.049Z</time>
      </trkpt>
      <trkpt lat="61.88169" lon="5.71483">
        <ele>3.722978</ele>
        <time>2020-07-16T09:34:54.519Z</time>
      </trkpt>
      <trkpt lat="61.88218" lon="5.71477">
        <ele>3.147056</ele>
        <time>2020-07-16T09:35:01.362Z</time>
      </trkpt>
      <trkpt lat="61.891" lon="5.71601">
        <ele>0.180392</ele>
        <time>2020-07-16T09:37:04.460Z</time>
      </trkpt>
      <trkpt lat="61.89756" lon="5.71711">
        <ele>0.006008</ele>
        <time>2020-07-16T09:38:36.084Z</time>
      </trkpt>
      <trkpt lat="61.90105" lon="5.71769">
        <ele>0.005781</ele>
        <time>2020-07-16T09:39:24.858Z</time>
      </trkpt>
      <trkpt lat="61.90823" lon="5.71919">
        <ele>0.292714</ele>
        <time>2020-07-16T09:41:05.455Z</time>
      </trkpt>
      <trkpt lat="61.91165" lon="5.72102">
        <ele>2.498873</ele>
        <time>2020-07-16T09:41:54.597Z</time>
      </trkpt>
      <trkpt lat="61.91394" lon="5.72437">
        <ele>7.647706</ele>
        <time>2020-07-16T09:42:33.330Z</time>
      </trkpt>
      <trkpt lat="61.91407" lon="5.7246">
        <ele>7.974876</ele>
        <time>2020-07-16T09:42:37.789Z</time>
      </trkpt>
      <trkpt lat="61.91422" lon="5.72497">
        <ele>8.432348</ele>
        <time>2020-07-16T09:42:43.089Z</time>
      </trkpt>
      <trkpt lat="61.9147" lon="5.72684">
        <ele>10.426526</ele>
        <time>2020-07-16T09:43:06.772Z</time>
      </trkpt>
      <trkpt lat="61.91489" lon="5.72818">
        <ele>12.084539</ele>
        <time>2020-07-16T09:43:23.379Z</time>
      </trkpt>
      <trkpt lat="61.91499" lon="5.72928">
        <ele>13.454462</ele>
        <time>2020-07-16T09:43:37.310Z</time>
      </trkpt>
      <trkpt lat="61.9151" lon="5.72953">
        <ele>13.879293</ele>
        <time>2020-07-16T09:43:41.829Z</time>
      </trkpt>
      <trkpt lat="61.91522" lon="5.72962">
        <ele>14.199234</ele>
        <time>2020-07-16T09:43:45.159Z</time>
      </trkpt>
      <trkpt lat="61.91522" lon="5.72946">
        <ele>14.399151</ele>
        <time>2020-07-16T09:43:47.544Z</time>
      </trkpt>
      <trkpt lat="61.91517" lon="5.72815">
        <ele>15.748778</ele>
        <time>2020-07-16T09:44:03.991Z</time>
      </trkpt>
      <trkpt lat="61.91505" lon="5.72724">
        <ele>16.549337</ele>
        <time>2020-07-16T09:44:15.905Z</time>
      </trkpt>
      <trkpt lat="61.915" lon="5.72696">
        <ele>16.80032</ele>
        <time>2020-07-16T09:44:19.733Z</time>
      </trkpt>
      <trkpt lat="61.91493" lon="5.72664">
        <ele>17.092098</ele>
        <time>2020-07-16T09:44:23.716Z</time>
      </trkpt>
      <trkpt lat="61.91339" lon="5.72129">
        <ele>20.734887</ele>
        <time>2020-07-16T09:45:21.798Z</time>
      </trkpt>
      <trkpt lat="61.91312" lon="5.72012">
        <ele>22.464102</ele>
        <time>2020-07-16T09:45:37.219Z</time>
      </trkpt>
      <trkpt lat="61.913" lon="5.71913">
        <ele>23.80876</ele>
        <time>2020-07-16T09:45:52.447Z</time>
      </trkpt>
      <trkpt lat="61.91299" lon="5.71833">
        <ele>24.939629</ele>
        <time>2020-07-16T09:46:05.078Z</time>
      </trkpt>
      <trkpt lat="61.91304" lon="5.7175">
        <ele>26.376473</ele>
        <time>2020-07-16T09:46:18.106Z</time>
      </trkpt>
      <trkpt lat="61.91314" lon="5.7167">
        <ele>27.797764</ele>
        <time>2020-07-16T09:46:30.324Z</time>
      </trkpt>
      <trkpt lat="61.91322" lon="5.71631">
        <ele>28.529846</ele>
        <time>2020-07-16T09:46:37.147Z</time>
      </trkpt>
      <trkpt lat="61.9133" lon="5.71605">
        <ele>29.046901</ele>
        <time>2020-07-16T09:46:40.670Z</time>
      </trkpt>
      <trkpt lat="61.91363" lon="5.71512">
        <ele>31.058202</ele>
        <time>2020-07-16T09:46:56.178Z</time>
      </trkpt>
      <trkpt lat="61.91431" lon="5.71361">
        <ele>31.094863</ele>
        <time>2020-07-16T09:47:16.411Z</time>
      </trkpt>
      <trkpt lat="61.91456" lon="5.71281">
        <ele>31.051873</ele>
        <time>2020-07-16T09:47:22.947Z</time>
      </trkpt>
      <trkpt lat="61.91476" lon="5.71158">
        <ele>30.557775</ele>
        <time>2020-07-16T09:47:31.806Z</time>
      </trkpt>
      <trkpt lat="61.91477" lon="5.71018">
        <ele>29.155526</ele>
        <time>2020-07-16T09:47:41.196Z</time>
      </trkpt>
      <trkpt lat="61.91476" lon="5.70996">
        <ele>28.931773</ele>
        <time>2020-07-16T09:47:42.619Z</time>
      </trkpt>
      <trkpt lat="61.91474" lon="5.70973">
        <ele>28.698963</ele>
        <time>2020-07-16T09:47:44.105Z</time>
      </trkpt>
      <trkpt lat="61.91453" lon="5.70776">
        <ele>26.454227</ele>
        <time>2020-07-16T09:47:57.278Z</time>
      </trkpt>
      <trkpt lat="61.91452" lon="5.70769">
        <ele>26.35149</ele>
        <time>2020-07-16T09:47:57.698Z</time>
      </trkpt>
      <trkpt lat="61.91447" lon="5.70726">
        <ele>25.718362</ele>
        <time>2020-07-16T09:48:00.571Z</time>
      </trkpt>
      <trkpt lat="61.91408" lon="5.70376">
        <ele>20.377077</ele>
        <time>2020-07-16T09:48:22.692Z</time>
      </trkpt>
      <trkpt lat="61.91341" lon="5.70094">
        <ele>15.224359</ele>
        <time>2020-07-16T09:48:41.570Z</time>
      </trkpt>
      <trkpt lat="61.91313" lon="5.69834">
        <ele>12.473002</ele>
        <time>2020-07-16T09:48:58.568Z</time>
      </trkpt>
      <trkpt lat="61.91275" lon="5.69601">
        <ele>11.400141</ele>
        <time>2020-07-16T09:49:17.467Z</time>
      </trkpt>
      <trkpt lat="61.91257" lon="5.6927">
        <ele>11.340041</ele>
        <time>2020-07-16T09:49:47.672Z</time>
      </trkpt>
      <trkpt lat="61.91188" lon="5.6875">
        <ele>11.057445</ele>
        <time>2020-07-16T09:50:31.334Z</time>
      </trkpt>
      <trkpt lat="61.91178" lon="5.68641">
        <ele>10.958686</ele>
        <time>2020-07-16T09:50:40.302Z</time>
      </trkpt>
      <trkpt lat="61.91176" lon="5.68502">
        <ele>11.037756</ele>
        <time>2020-07-16T09:50:51.974Z</time>
      </trkpt>
      <trkpt lat="61.91183" lon="5.68419">
        <ele>11.101941</ele>
        <time>2020-07-16T09:50:59.400Z</time>
      </trkpt>
      <trkpt lat="61.91188" lon="5.68377">
        <ele>11.134847</ele>
        <time>2020-07-16T09:51:03.138Z</time>
      </trkpt>
      <trkpt lat="61.91193" lon="5.6834">
        <ele>11.164615</ele>
        <time>2020-07-16T09:51:06.754Z</time>
      </trkpt>
      <trkpt lat="61.9123" lon="5.68164">
        <ele>11.099825</ele>
        <time>2020-07-16T09:51:23.759Z</time>
      </trkpt>
      <trkpt lat="61.91234" lon="5.68151">
        <ele>11.080151</ele>
        <time>2020-07-16T09:51:25.174Z</time>
      </trkpt>
      <trkpt lat="61.91244" lon="5.68116">
        <ele>11.023351</ele>
        <time>2020-07-16T09:51:28.813Z</time>
      </trkpt>
      <trkpt lat="61.91334" lon="5.6786">
        <ele>10.50445</ele>
        <time>2020-07-16T09:51:53.069Z</time>
      </trkpt>
      <trkpt lat="61.91342" lon="5.67826">
        <ele>10.419409</ele>
        <time>2020-07-16T09:51:55.755Z</time>
      </trkpt>
      <trkpt lat="61.91345" lon="5.67813">
        <ele>10.386866</ele>
        <time>2020-07-16T09:51:56.850Z</time>
      </trkpt>
      <trkpt lat="61.91351" lon="5.67785">
        <ele>10.317159</ele>
        <time>2020-07-16T09:51:59.164Z</time>
      </trkpt>
      <trkpt lat="61.91381" lon="5.67661">
        <ele>10.002492</ele>
        <time>2020-07-16T09:52:10.290Z</time>
      </trkpt>
      <trkpt lat="61.91422" lon="5.67552">
        <ele>9.819524</ele>
        <time>2020-07-16T09:52:21.490Z</time>
      </trkpt>
      <trkpt lat="61.91437" lon="5.67515">
        <ele>9.795988</ele>
        <time>2020-07-16T09:52:25.813Z</time>
      </trkpt>
      <trkpt lat="61.9144" lon="5.67509">
        <ele>9.792135</ele>
        <time>2020-07-16T09:52:26.685Z</time>
      </trkpt>
      <trkpt lat="61.91445" lon="5.67494">
        <ele>9.783311</ele>
        <time>2020-07-16T09:52:28.190Z</time>
      </trkpt>
      <trkpt lat="61.91455" lon="5.67469">
        <ele>9.767997</ele>
        <time>2020-07-16T09:52:31.157Z</time>
      </trkpt>
      <trkpt lat="61.91461" lon="5.67449">
        <ele>9.756785</ele>
        <time>2020-07-16T09:52:33.095Z</time>
      </trkpt>
      <trkpt lat="61.91522" lon="5.6719">
        <ele>9.716447</ele>
        <time>2020-07-16T09:52:56.888Z</time>
      </trkpt>
      <trkpt lat="61.91527" lon="5.67168">
        <ele>9.725105</ele>
        <time>2020-07-16T09:52:58.435Z</time>
      </trkpt>
      <trkpt lat="61.91537" lon="5.67125">
        <ele>9.74326</ele>
        <time>2020-07-16T09:53:03.317Z</time>
      </trkpt>
      <trkpt lat="61.91542" lon="5.67101">
        <ele>9.7532</ele>
        <time>2020-07-16T09:53:05.136Z</time>
      </trkpt>
      <trkpt lat="61.91548" lon="5.67076">
        <ele>9.763574</ele>
        <time>2020-07-16T09:53:08.449Z</time>
      </trkpt>
      <trkpt lat="61.91598" lon="5.66831">
        <ele>9.343027</ele>
        <time>2020-07-16T09:53:31.176Z</time>
      </trkpt>
      <trkpt lat="61.91605" lon="5.66695">
        <ele>8.823667</ele>
        <time>2020-07-16T09:53:41.888Z</time>
      </trkpt>
      <trkpt lat="61.91601" lon="5.66617">
        <ele>8.527507</ele>
        <time>2020-07-16T09:53:47.300Z</time>
      </trkpt>
      <trkpt lat="61.91596" lon="5.66574">
        <ele>8.335438</ele>
        <time>2020-07-16T09:53:50.372Z</time>
      </trkpt>
      <trkpt lat="61.91595" lon="5.66564">
        <ele>8.198789</ele>
        <time>2020-07-16T09:53:50.956Z</time>
      </trkpt>
      <trkpt lat="61.91572" lon="5.66435">
        <ele>6.482942</ele>
        <time>2020-07-16T09:53:59.814Z</time>
      </trkpt>
      <trkpt lat="61.91523" lon="5.66221">
        <ele>3.541273</ele>
        <time>2020-07-16T09:54:14.394Z</time>
      </trkpt>
      <trkpt lat="61.91492" lon="5.66033">
        <ele>2.29919</ele>
        <time>2020-07-16T09:54:28.341Z</time>
      </trkpt>
      <trkpt lat="61.91484" lon="5.65946">
        <ele>1.751719</ele>
        <time>2020-07-16T09:54:34.881Z</time>
      </trkpt>
      <trkpt lat="61.91478" lon="5.65803">
        <ele>1.125115</ele>
        <time>2020-07-16T09:54:46.053Z</time>
      </trkpt>
      <trkpt lat="61.9148" lon="5.65593">
        <ele>0.807365</ele>
        <time>2020-07-16T09:55:02.987Z</time>
      </trkpt>
      <trkpt lat="61.91474" lon="5.65442">
        <ele>0.591512</ele>
        <time>2020-07-16T09:55:15.226Z</time>
      </trkpt>
      <trkpt lat="61.91461" lon="5.65334">
        <ele>0.467698</ele>
        <time>2020-07-16T09:55:24.118Z</time>
      </trkpt>
      <trkpt lat="61.91412" lon="5.65035">
        <ele>0.261673</ele>
        <time>2020-07-16T09:55:49.820Z</time>
      </trkpt>
      <trkpt lat="61.91403" lon="5.64927">
        <ele>0.335598</ele>
        <time>2020-07-16T09:55:59.100Z</time>
      </trkpt>
      <trkpt lat="61.91403" lon="5.64864">
        <ele>0.377819</ele>
        <time>2020-07-16T09:56:04.499Z</time>
      </trkpt>
      <trkpt lat="61.91418" lon="5.6486">
        <ele>0.399382</ele>
        <time>2020-07-16T09:56:07.381Z</time>
      </trkpt>
      <trkpt lat="61.91416" lon="5.64823">
        <ele>0.424436</ele>
        <time>2020-07-16T09:56:10.778Z</time>
      </trkpt>
      <trkpt lat="61.91415" lon="5.64766">
        <ele>0.462633</ele>
        <time>2020-07-16T09:56:16.320Z</time>
      </trkpt>
      <trkpt lat="61.91424" lon="5.64693">
        <ele>0.716372</ele>
        <time>2020-07-16T09:56:23.671Z</time>
      </trkpt>
      <trkpt lat="61.91467" lon="5.64523">
        <ele>1.370048</ele>
        <time>2020-07-16T09:56:42.325Z</time>
      </trkpt>
      <trkpt lat="61.91468" lon="5.64511">
        <ele>1.408432</ele>
        <time>2020-07-16T09:56:43.612Z</time>
      </trkpt>
      <trkpt lat="61.91472" lon="5.64501">
        <ele>1.45572</ele>
        <time>2020-07-16T09:56:45.033Z</time>
      </trkpt>
      <trkpt lat="61.91512" lon="5.64228">
        <ele>2.903542</ele>
        <time>2020-07-16T09:57:14.303Z</time>
      </trkpt>
      <trkpt lat="61.91527" lon="5.64165">
        <ele>3.31221</ele>
        <time>2020-07-16T09:57:21.866Z</time>
      </trkpt>
      <trkpt lat="61.9153" lon="5.64164">
        <ele>3.353422</ele>
        <time>2020-07-16T09:57:22.620Z</time>
      </trkpt>
      <trkpt lat="61.9153" lon="5.64158">
        <ele>3.389269</ele>
        <time>2020-07-16T09:57:23.415Z</time>
      </trkpt>
      <trkpt lat="61.91555" lon="5.64002">
        <ele>4.431432</ele>
        <time>2020-07-16T09:57:41.496Z</time>
      </trkpt>
      <trkpt lat="61.91577" lon="5.63786">
        <ele>6.017488</ele>
        <time>2020-07-16T09:58:06.910Z</time>
      </trkpt>
      <trkpt lat="61.9166" lon="5.63428">
        <ele>7.330495</ele>
        <time>2020-07-16T09:58:47.992Z</time>
      </trkpt>
      <trkpt lat="61.91669" lon="5.6325">
        <ele>6.476481</ele>
        <time>2020-07-16T09:59:01.359Z</time>
      </trkpt>
      <trkpt lat="61.91667" lon="5.63192">
        <ele>5.869134</ele>
        <time>2020-07-16T09:59:05.269Z</time>
      </trkpt>
      <trkpt lat="61.9167" lon="5.63">
        <ele>3.874563</ele>
        <time>2020-07-16T09:59:18.027Z</time>
      </trkpt>
      <trkpt lat="61.9167" lon="5.62985">
        <ele>3.724714</ele>
        <time>2020-07-16T09:59:18.898Z</time>
      </trkpt>
      <trkpt lat="61.91669" lon="5.62916">
        <ele>3.124197</ele>
        <time>2020-07-16T09:59:23.585Z</time>
      </trkpt>
      <trkpt lat="61.91669" lon="5.62899">
        <ele>2.979946</ele>
        <time>2020-07-16T09:59:24.694Z</time>
      </trkpt>
      <trkpt lat="61.9167" lon="5.62842">
        <ele>2.518285</ele>
        <time>2020-07-16T09:59:28.696Z</time>
      </trkpt>
      <trkpt lat="61.9167" lon="5.62838">
        <ele>2.486669</ele>
        <time>2020-07-16T09:59:28.934Z</time>
      </trkpt>
      <trkpt lat="61.91674" lon="5.62814">
        <ele>2.289981</ele>
        <time>2020-07-16T09:59:30.549Z</time>
      </trkpt>
      <trkpt lat="61.91674" lon="5.6281">
        <ele>2.248997</ele>
        <time>2020-07-16T09:59:30.929Z</time>
      </trkpt>
      <trkpt lat="61.91674" lon="5.62795">
        <ele>2.131573</ele>
        <time>2020-07-16T09:59:31.998Z</time>
      </trkpt>
      <trkpt lat="61.91683" lon="5.62677">
        <ele>1.162588</ele>
        <time>2020-07-16T09:59:40.499Z</time>
      </trkpt>
      <trkpt lat="61.917" lon="5.6258">
        <ele>0.43081</ele>
        <time>2020-07-16T09:59:48.727Z</time>
      </trkpt>
      <trkpt lat="61.91725" lon="5.62502">
        <ele>0.394006</ele>
        <time>2020-07-16T09:59:56.987Z</time>
      </trkpt>
      <trkpt lat="61.91796" lon="5.62322">
        <ele>0.30251</ele>
        <time>2020-07-16T10:00:17.877Z</time>
      </trkpt>
      <trkpt lat="61.91828" lon="5.62207">
        <ele>0.402115</ele>
        <time>2020-07-16T10:00:29.583Z</time>
      </trkpt>
      <trkpt lat="61.91851" lon="5.62069">
        <ele>0.580886</ele>
        <time>2020-07-16T10:00:42.232Z</time>
      </trkpt>
      <trkpt lat="61.91873" lon="5.61845">
        <ele>2.253692</ele>
        <time>2020-07-16T10:01:03.812Z</time>
      </trkpt>
      <trkpt lat="61.91898" lon="5.61731">
        <ele>4.42853</ele>
        <time>2020-07-16T10:01:19.978Z</time>
      </trkpt>
      <trkpt lat="61.91907" lon="5.61701">
        <ele>5.035824</ele>
        <time>2020-07-16T10:01:24.883Z</time>
      </trkpt>
      <trkpt lat="61.91909" lon="5.61695">
        <ele>5.155442</ele>
        <time>2020-07-16T10:01:26.236Z</time>
      </trkpt>
      <trkpt lat="61.91959" lon="5.61589">
        <ele>8.339033</ele>
        <time>2020-07-16T10:01:52.561Z</time>
      </trkpt>
      <trkpt lat="61.92104" lon="5.61393">
        <ele>23.334055</ele>
        <time>2020-07-16T10:03:17.889Z</time>
      </trkpt>
      <trkpt lat="61.92165" lon="5.61286">
        <ele>26.207156</ele>
        <time>2020-07-16T10:03:52.684Z</time>
      </trkpt>
      <trkpt lat="61.922" lon="5.61203">
        <ele>28.124072</ele>
        <time>2020-07-16T10:04:08.321Z</time>
      </trkpt>
      <trkpt lat="61.92231" lon="5.61113">
        <ele>29.139569</ele>
        <time>2020-07-16T10:04:16.440Z</time>
      </trkpt>
      <trkpt lat="61.92268" lon="5.60966">
        <ele>22.434868</ele>
        <time>2020-07-16T10:04:25.650Z</time>
      </trkpt>
      <trkpt lat="61.92287" lon="5.60862">
        <ele>17.96631</ele>
        <time>2020-07-16T10:04:31.594Z</time>
      </trkpt>
      <trkpt lat="61.923" lon="5.60769">
        <ele>14.113178</ele>
        <time>2020-07-16T10:04:36.752Z</time>
      </trkpt>
      <trkpt lat="61.92302" lon="5.60753">
        <ele>13.568715</ele>
        <time>2020-07-16T10:04:37.637Z</time>
      </trkpt>
      <trkpt lat="61.92316" lon="5.60651">
        <ele>10.055516</ele>
        <time>2020-07-16T10:04:43.343Z</time>
      </trkpt>
      <trkpt lat="61.92324" lon="5.60581">
        <ele>7.650442</ele>
        <time>2020-07-16T10:04:47.339Z</time>
      </trkpt>
      <trkpt lat="61.92325" lon="5.60575">
        <ele>7.47289</ele>
        <time>2020-07-16T10:04:47.705Z</time>
      </trkpt>
      <trkpt lat="61.92334" lon="5.60479">
        <ele>4.190815</ele>
        <time>2020-07-16T10:04:55.193Z</time>
      </trkpt>
      <trkpt lat="61.92336" lon="5.60458">
        <ele>3.507148</ele>
        <time>2020-07-16T10:04:56.953Z</time>
      </trkpt>
      <trkpt lat="61.92334" lon="5.60411">
        <ele>1.931703</ele>
        <time>2020-07-16T10:05:01.715Z</time>
      </trkpt>
      <trkpt lat="61.92336" lon="5.60336">
        <ele>1.540699</ele>
        <time>2020-07-16T10:05:09.143Z</time>
      </trkpt>
      <trkpt lat="61.92336" lon="5.60324">
        <ele>1.501438</ele>
        <time>2020-07-16T10:05:10.421Z</time>
      </trkpt>
      <trkpt lat="61.92337" lon="5.6032">
        <ele>1.489202</ele>
        <time>2020-07-16T10:05:10.708Z</time>
      </trkpt>
      <trkpt lat="61.92351" lon="5.60208">
        <ele>1.129236</ele>
        <time>2020-07-16T10:05:20.417Z</time>
      </trkpt>
      <trkpt lat="61.9236" lon="5.60161">
        <ele>0.968492</ele>
        <time>2020-07-16T10:05:24.472Z</time>
      </trkpt>
      <trkpt lat="61.92361" lon="5.60154">
        <ele>0.945914</ele>
        <time>2020-07-16T10:05:25.174Z</time>
      </trkpt>
      <trkpt lat="61.92363" lon="5.60145">
        <ele>0.914006</ele>
        <time>2020-07-16T10:05:26.415Z</time>
      </trkpt>
      <trkpt lat="61.92379" lon="5.60043">
        <ele>0.57918</ele>
        <time>2020-07-16T10:05:35.424Z</time>
      </trkpt>
      <trkpt lat="61.92385" lon="5.5996">
        <ele>0.531864</ele>
        <time>2020-07-16T10:05:42.799Z</time>
      </trkpt>
      <trkpt lat="61.92386" lon="5.59919">
        <ele>0.514564</ele>
        <time>2020-07-16T10:05:47.075Z</time>
      </trkpt>
      <trkpt lat="61.92379" lon="5.59917">
        <ele>0.50826</ele>
        <time>2020-07-16T10:05:48.105Z</time>
      </trkpt>
      <trkpt lat="61.92379" lon="5.59884">
        <ele>0.494317</ele>
        <time>2020-07-16T10:05:50.927Z</time>
      </trkpt>
      <trkpt lat="61.92377" lon="5.59846">
        <ele>0.478108</ele>
        <time>2020-07-16T10:05:54.347Z</time>
      </trkpt>
      <trkpt lat="61.92374" lon="5.59819">
        <ele>0.466377</ele>
        <time>2020-07-16T10:05:56.414Z</time>
      </trkpt>
      <trkpt lat="61.92373" lon="5.59809">
        <ele>0.461969</ele>
        <time>2020-07-16T10:05:57.461Z</time>
      </trkpt>
      <trkpt lat="61.92355" lon="5.59702">
        <ele>0.413563</ele>
        <time>2020-07-16T10:06:06.682Z</time>
      </trkpt>
      <trkpt lat="61.92324" lon="5.59597">
        <ele>0.337436</ele>
        <time>2020-07-16T10:06:16.391Z</time>
      </trkpt>
      <trkpt lat="61.92283" lon="5.5949">
        <ele>0.24608</ele>
        <time>2020-07-16T10:06:27.821Z</time>
      </trkpt>
      <trkpt lat="61.92261" lon="5.59431">
        <ele>0.19623</ele>
        <time>2020-07-16T10:06:34.085Z</time>
      </trkpt>
      <trkpt lat="61.92223" lon="5.59314">
        <ele>0.128308</ele>
        <time>2020-07-16T10:06:45.913Z</time>
      </trkpt>
      <trkpt lat="61.92208" lon="5.59227">
        <ele>0.100325</ele>
        <time>2020-07-16T10:06:53.665Z</time>
      </trkpt>
      <trkpt lat="61.92201" lon="5.58908">
        <ele>0.025917</ele>
        <time>2020-07-16T10:07:20.352Z</time>
      </trkpt>
      <trkpt lat="61.92191" lon="5.58688">
        <ele>0.005387</ele>
        <time>2020-07-16T10:07:38.802Z</time>
      </trkpt>
      <trkpt lat="61.9219" lon="5.5865">
        <ele>0.00186</ele>
        <time>2020-07-16T10:07:41.988Z</time>
      </trkpt>
      <trkpt lat="61.92191" lon="5.5862">
        <ele>0.001221</ele>
        <time>2020-07-16T10:07:44.550Z</time>
      </trkpt>
      <trkpt lat="61.92206" lon="5.58503">
        <ele>0.015136</ele>
        <time>2020-07-16T10:07:54.731Z</time>
      </trkpt>
      <trkpt lat="61.92255" lon="5.58336">
        <ele>0.037665</ele>
        <time>2020-07-16T10:08:11.196Z</time>
      </trkpt>
      <trkpt lat="61.92262" lon="5.58301">
        <ele>0.042157</ele>
        <time>2020-07-16T10:08:14.487Z</time>
      </trkpt>
      <trkpt lat="61.92264" lon="5.58294">
        <ele>0.042968</ele>
        <time>2020-07-16T10:08:15.078Z</time>
      </trkpt>
      <trkpt lat="61.92266" lon="5.58278">
        <ele>0.063286</ele>
        <time>2020-07-16T10:08:16.484Z</time>
      </trkpt>
      <trkpt lat="61.92269" lon="5.58251">
        <ele>0.127952</ele>
        <time>2020-07-16T10:08:18.881Z</time>
      </trkpt>
      <trkpt lat="61.92271" lon="5.58236">
        <ele>0.161251</ele>
        <time>2020-07-16T10:08:20.119Z</time>
      </trkpt>
      <trkpt lat="61.92272" lon="5.58221">
        <ele>0.196642</ele>
        <time>2020-07-16T10:08:21.427Z</time>
      </trkpt>
      <trkpt lat="61.92273" lon="5.58168">
        <ele>0.317581</ele>
        <time>2020-07-16T10:08:26.240Z</time>
      </trkpt>
      <trkpt lat="61.92269" lon="5.58098">
        <ele>0.476213</ele>
        <time>2020-07-16T10:08:32.600Z</time>
      </trkpt>
      <trkpt lat="61.92266" lon="5.58049">
        <ele>0.589143</ele>
        <time>2020-07-16T10:08:37.148Z</time>
      </trkpt>
      <trkpt lat="61.92255" lon="5.57901">
        <ele>0.931455</ele>
        <time>2020-07-16T10:08:51.437Z</time>
      </trkpt>
      <trkpt lat="61.92252" lon="5.57855">
        <ele>1.069825</ele>
        <time>2020-07-16T10:08:56.178Z</time>
      </trkpt>
      <trkpt lat="61.92253" lon="5.57752">
        <ele>1.369635</ele>
        <time>2020-07-16T10:09:05.611Z</time>
      </trkpt>
      <trkpt lat="61.92257" lon="5.57698">
        <ele>1.531392</ele>
        <time>2020-07-16T10:09:11.046Z</time>
      </trkpt>
      <trkpt lat="61.92265" lon="5.57622">
        <ele>1.759971</ele>
        <time>2020-07-16T10:09:18.334Z</time>
      </trkpt>
      <trkpt lat="61.92269" lon="5.57554">
        <ele>1.960166</ele>
        <time>2020-07-16T10:09:24.758Z</time>
      </trkpt>
      <trkpt lat="61.92267" lon="5.57493">
        <ele>2.029364</ele>
        <time>2020-07-16T10:09:30.073Z</time>
      </trkpt>
      <trkpt lat="61.92238" lon="5.57291">
        <ele>2.030385</ele>
        <time>2020-07-16T10:09:47.723Z</time>
      </trkpt>
      <trkpt lat="61.92234" lon="5.57208">
        <ele>2.030788</ele>
        <time>2020-07-16T10:09:54.593Z</time>
      </trkpt>
      <trkpt lat="61.92242" lon="5.57105">
        <ele>1.984339</ele>
        <time>2020-07-16T10:10:03.197Z</time>
      </trkpt>
      <trkpt lat="61.92301" lon="5.56666">
        <ele>1.459177</ele>
        <time>2020-07-16T10:10:40.237Z</time>
      </trkpt>
      <trkpt lat="61.92301" lon="5.56601">
        <ele>1.337538</ele>
        <time>2020-07-16T10:10:45.288Z</time>
      </trkpt>
      <trkpt lat="61.9229" lon="5.56434">
        <ele>1.018703</ele>
        <time>2020-07-16T10:10:58.416Z</time>
      </trkpt>
      <trkpt lat="61.92262" lon="5.56229">
        <ele>1.102107</ele>
        <time>2020-07-16T10:11:15.209Z</time>
      </trkpt>
      <trkpt lat="61.92259" lon="5.56166">
        <ele>1.141252</ele>
        <time>2020-07-16T10:11:20.306Z</time>
      </trkpt>
      <trkpt lat="61.92264" lon="5.56076">
        <ele>1.197978</ele>
        <time>2020-07-16T10:11:28.355Z</time>
      </trkpt>
      <trkpt lat="61.92299" lon="5.55844">
        <ele>4.181687</ele>
        <time>2020-07-16T10:11:55.211Z</time>
      </trkpt>
      <trkpt lat="61.923" lon="5.55827">
        <ele>4.424525</ele>
        <time>2020-07-16T10:11:58.026Z</time>
      </trkpt>
      <trkpt lat="61.92302" lon="5.55797">
        <ele>4.856434</ele>
        <time>2020-07-16T10:12:01.765Z</time>
      </trkpt>
      <trkpt lat="61.92307" lon="5.55695">
        <ele>6.31119</ele>
        <time>2020-07-16T10:12:15.932Z</time>
      </trkpt>
      <trkpt lat="61.92308" lon="5.5568">
        <ele>6.535258</ele>
        <time>2020-07-16T10:12:19.142Z</time>
      </trkpt>
      <trkpt lat="61.92319" lon="5.55458">
        <ele>15.62908</ele>
        <time>2020-07-16T10:13:02.189Z</time>
      </trkpt>
      <trkpt lat="61.9233" lon="5.55354">
        <ele>20.078834</ele>
        <time>2020-07-16T10:13:27.009Z</time>
      </trkpt>
      <trkpt lat="61.92357" lon="5.55205">
        <ele>27.869697</ele>
        <time>2020-07-16T10:14:15.944Z</time>
      </trkpt>
      <trkpt lat="61.92396" lon="5.55062">
        <ele>36.652342</ele>
        <time>2020-07-16T10:15:04.124Z</time>
      </trkpt>
      <trkpt lat="61.92409" lon="5.55024">
        <ele>39.145211</ele>
        <time>2020-07-16T10:15:18.429Z</time>
      </trkpt>
      <trkpt lat="61.92423" lon="5.54983">
        <ele>41.798417</ele>
        <time>2020-07-16T10:15:30.638Z</time>
      </trkpt>
      <trkpt lat="61.9264" lon="5.54355">
        <ele>43.384868</ele>
        <time>2020-07-16T10:16:41.897Z</time>
      </trkpt>
      <trkpt lat="61.9267" lon="5.54247">
        <ele>36.831565</ele>
        <time>2020-07-16T10:16:48.665Z</time>
      </trkpt>
      <trkpt lat="61.92695" lon="5.54133">
        <ele>29.97583</ele>
        <time>2020-07-16T10:16:55.160Z</time>
      </trkpt>
      <trkpt lat="61.92722" lon="5.53954">
        <ele>20.152099</ele>
        <time>2020-07-16T10:17:04.877Z</time>
      </trkpt>
      <trkpt lat="61.92729" lon="5.53891">
        <ele>17.206687</ele>
        <time>2020-07-16T10:17:08.224Z</time>
      </trkpt>
      <trkpt lat="61.92734" lon="5.53831">
        <ele>14.392029</ele>
        <time>2020-07-16T10:17:11.344Z</time>
      </trkpt>
      <trkpt lat="61.92738" lon="5.53769">
        <ele>11.504406</ele>
        <time>2020-07-16T10:17:14.609Z</time>
      </trkpt>
      <trkpt lat="61.92742" lon="5.53667">
        <ele>6.808809</ele>
        <time>2020-07-16T10:17:20.026Z</time>
      </trkpt>
      <trkpt lat="61.92748" lon="5.53511">
        <ele>3.681589</ele>
        <time>2020-07-16T10:17:29.263Z</time>
      </trkpt>
      <trkpt lat="61.92755" lon="5.53411">
        <ele>2.568537</ele>
        <time>2020-07-16T10:17:36.205Z</time>
      </trkpt>
      <trkpt lat="61.92785" lon="5.53159">
        <ele>0.594485</ele>
        <time>2020-07-16T10:17:55.767Z</time>
      </trkpt>
      <trkpt lat="61.92784" lon="5.52999">
        <ele>0.330989</ele>
        <time>2020-07-16T10:18:08.476Z</time>
      </trkpt>
      <trkpt lat="61.92767" lon="5.52864">
        <ele>0.12454</ele>
        <time>2020-07-16T10:18:20.109Z</time>
      </trkpt>
      <trkpt lat="61.92706" lon="5.52509">
        <ele>0.221351</ele>
        <time>2020-07-16T10:18:52.348Z</time>
      </trkpt>
      <trkpt lat="61.92685" lon="5.52408">
        <ele>0.245184</ele>
        <time>2020-07-16T10:19:01.764Z</time>
      </trkpt>
      <trkpt lat="61.92638" lon="5.52232">
        <ele>0.28874</ele>
        <time>2020-07-16T10:19:18.802Z</time>
      </trkpt>
      <trkpt lat="61.92624" lon="5.52154">
        <ele>0.311195</ele>
        <time>2020-07-16T10:19:25.810Z</time>
      </trkpt>
      <trkpt lat="61.92612" lon="5.52032">
        <ele>0.363315</ele>
        <time>2020-07-16T10:19:36.455Z</time>
      </trkpt>
      <trkpt lat="61.92613" lon="5.51906">
        <ele>0.415545</ele>
        <time>2020-07-16T10:19:47.356Z</time>
      </trkpt>
      <trkpt lat="61.92614" lon="5.51886">
        <ele>0.42395</ele>
        <time>2020-07-16T10:19:49.024Z</time>
      </trkpt>
      <trkpt lat="61.92617" lon="5.51848">
        <ele>0.439768</ele>
        <time>2020-07-16T10:19:52.359Z</time>
      </trkpt>
      <trkpt lat="61.9264" lon="5.51636">
        <ele>0.42314</ele>
        <time>2020-07-16T10:20:10.638Z</time>
      </trkpt>
      <trkpt lat="61.92663" lon="5.51431">
        <ele>0.37542</ele>
        <time>2020-07-16T10:20:28.127Z</time>
      </trkpt>
      <trkpt lat="61.92674" lon="5.51365">
        <ele>0.350455</ele>
        <time>2020-07-16T10:20:33.844Z</time>
      </trkpt>
      <trkpt lat="61.92689" lon="5.51311">
        <ele>0.327657</ele>
        <time>2020-07-16T10:20:38.903Z</time>
      </trkpt>
      <trkpt lat="61.92748" lon="5.51163">
        <ele>0.257084</ele>
        <time>2020-07-16T10:20:54.861Z</time>
      </trkpt>
      <trkpt lat="61.92777" lon="5.51109">
        <ele>0.275468</ele>
        <time>2020-07-16T10:21:01.835Z</time>
      </trkpt>
      <trkpt lat="61.92882" lon="5.50976">
        <ele>0.73165</ele>
        <time>2020-07-16T10:21:24.941Z</time>
      </trkpt>
      <trkpt lat="61.92972" lon="5.50838">
        <ele>1.16858</ele>
        <time>2020-07-16T10:21:46.840Z</time>
      </trkpt>
      <trkpt lat="61.93096" lon="5.50728">
        <ele>1.593627</ele>
        <time>2020-07-16T10:22:12.413Z</time>
      </trkpt>
      <trkpt lat="61.93129" lon="5.50682">
        <ele>1.486485</ele>
        <time>2020-07-16T10:22:19.339Z</time>
      </trkpt>
      <trkpt lat="61.93158" lon="5.50627">
        <ele>1.379559</ele>
        <time>2020-07-16T10:22:26.071Z</time>
      </trkpt>
      <trkpt lat="61.93168" lon="5.50605">
        <ele>1.341627</ele>
        <time>2020-07-16T10:22:28.503Z</time>
      </trkpt>
      <trkpt lat="61.93175" lon="5.50589">
        <ele>1.313921</ele>
        <time>2020-07-16T10:22:30.062Z</time>
      </trkpt>
      <trkpt lat="61.93275" lon="5.50341">
        <ele>1.069077</ele>
        <time>2020-07-16T10:22:55.179Z</time>
      </trkpt>
      <trkpt lat="61.93305" lon="5.50245">
        <ele>1.01963</ele>
        <time>2020-07-16T10:23:05.147Z</time>
      </trkpt>
      <trkpt lat="61.93311" lon="5.50214">
        <ele>1.005461</ele>
        <time>2020-07-16T10:23:08.082Z</time>
      </trkpt>
      <trkpt lat="61.93313" lon="5.50202">
        <ele>0.999596</ele>
        <time>2020-07-16T10:23:09.303Z</time>
      </trkpt>
      <trkpt lat="61.93315" lon="5.50188">
        <ele>0.993619</ele>
        <time>2020-07-16T10:23:10.715Z</time>
      </trkpt>
      <trkpt lat="61.93321" lon="5.50098">
        <ele>1.547066</ele>
        <time>2020-07-16T10:23:19.355Z</time>
      </trkpt>
      <trkpt lat="61.93315" lon="5.50006">
        <ele>2.137291</ele>
        <time>2020-07-16T10:23:28.761Z</time>
      </trkpt>
      <trkpt lat="61.93274" lon="5.49772">
        <ele>3.737216</ele>
        <time>2020-07-16T10:23:56.405Z</time>
      </trkpt>
      <trkpt lat="61.93251" lon="5.49677">
        <ele>4.444699</ele>
        <time>2020-07-16T10:24:08.724Z</time>
      </trkpt>
      <trkpt lat="61.93208" lon="5.49546">
        <ele>5.505244</ele>
        <time>2020-07-16T10:24:25.735Z</time>
      </trkpt>
      <trkpt lat="61.9317" lon="5.49459">
        <ele>5.821875</ele>
        <time>2020-07-16T10:24:37.046Z</time>
      </trkpt>
      <trkpt lat="61.9309" lon="5.49299">
        <ele>5.166883</ele>
        <time>2020-07-16T10:24:55.304Z</time>
      </trkpt>
      <trkpt lat="61.93039" lon="5.49216">
        <ele>4.605422</ele>
        <time>2020-07-16T10:25:04.400Z</time>
      </trkpt>
      <trkpt lat="61.92979" lon="5.49127">
        <ele>3.396386</ele>
        <time>2020-07-16T10:25:14.764Z</time>
      </trkpt>
      <trkpt lat="61.92953" lon="5.49089">
        <ele>2.881178</ele>
        <time>2020-07-16T10:25:19.214Z</time>
      </trkpt>
      <trkpt lat="61.92882" lon="5.48964">
        <ele>1.719885</ele>
        <time>2020-07-16T10:25:33.225Z</time>
      </trkpt>
      <trkpt lat="61.92875" lon="5.48948">
        <ele>1.655874</ele>
        <time>2020-07-16T10:25:34.666Z</time>
      </trkpt>
      <trkpt lat="61.92861" lon="5.48918">
        <ele>1.533159</ele>
        <time>2020-07-16T10:25:38.033Z</time>
      </trkpt>
      <trkpt lat="61.92843" lon="5.48877">
        <ele>1.373786</ele>
        <time>2020-07-16T10:25:42.052Z</time>
      </trkpt>
      <trkpt lat="61.92833" lon="5.48849">
        <ele>1.270249</ele>
        <time>2020-07-16T10:25:45.070Z</time>
      </trkpt>
      <trkpt lat="61.92831" lon="5.48844">
        <ele>1.253024</ele>
        <time>2020-07-16T10:25:45.448Z</time>
      </trkpt>
      <trkpt lat="61.92811" lon="5.48777">
        <ele>1.023278</ele>
        <time>2020-07-16T10:25:51.635Z</time>
      </trkpt>
      <trkpt lat="61.92796" lon="5.48704">
        <ele>0.883064</ele>
        <time>2020-07-16T10:25:58.364Z</time>
      </trkpt>
      <trkpt lat="61.92783" lon="5.48587">
        <ele>1.346579</ele>
        <time>2020-07-16T10:26:10.053Z</time>
      </trkpt>
      <trkpt lat="61.92782" lon="5.48545">
        <ele>1.507132</ele>
        <time>2020-07-16T10:26:14.190Z</time>
      </trkpt>
      <trkpt lat="61.92781" lon="5.48518">
        <ele>1.611584</ele>
        <time>2020-07-16T10:26:17.016Z</time>
      </trkpt>
      <trkpt lat="61.92782" lon="5.48479">
        <ele>1.765368</ele>
        <time>2020-07-16T10:26:20.876Z</time>
      </trkpt>
      <trkpt lat="61.92783" lon="5.48464">
        <ele>1.820687</ele>
        <time>2020-07-16T10:26:22.269Z</time>
      </trkpt>
      <trkpt lat="61.92785" lon="5.48439">
        <ele>1.920428</ele>
        <time>2020-07-16T10:26:24.991Z</time>
      </trkpt>
      <trkpt lat="61.92794" lon="5.48358">
        <ele>2.244258</ele>
        <time>2020-07-16T10:26:33.133Z</time>
      </trkpt>
      <trkpt lat="61.92806" lon="5.48283">
        <ele>2.379151</ele>
        <time>2020-07-16T10:26:40.805Z</time>
      </trkpt>
      <trkpt lat="61.92812" lon="5.48248">
        <ele>2.420246</ele>
        <time>2020-07-16T10:26:44.300Z</time>
      </trkpt>
      <trkpt lat="61.9282" lon="5.48151">
        <ele>2.529885</ele>
        <time>2020-07-16T10:26:53.796Z</time>
      </trkpt>
      <trkpt lat="61.92817" lon="5.48064">
        <ele>2.626925</ele>
        <time>2020-07-16T10:27:01.335Z</time>
      </trkpt>
      <trkpt lat="61.928" lon="5.47973">
        <ele>2.734646</ele>
        <time>2020-07-16T10:27:09.041Z</time>
      </trkpt>
      <trkpt lat="61.92763" lon="5.47836">
        <ele>2.005016</ele>
        <time>2020-07-16T10:27:20.206Z</time>
      </trkpt>
      <trkpt lat="61.92749" lon="5.47719">
        <ele>1.444502</ele>
        <time>2020-07-16T10:27:28.816Z</time>
      </trkpt>
      <trkpt lat="61.92752" lon="5.47624">
        <ele>1.006435</ele>
        <time>2020-07-16T10:27:35.675Z</time>
      </trkpt>
      <trkpt lat="61.92787" lon="5.47326">
        <ele>0.741067</ele>
        <time>2020-07-16T10:28:00.052Z</time>
      </trkpt>
      <trkpt lat="61.92788" lon="5.47303">
        <ele>0.722912</ele>
        <time>2020-07-16T10:28:02.202Z</time>
      </trkpt>
      <trkpt lat="61.92788" lon="5.47268">
        <ele>0.696396</ele>
        <time>2020-07-16T10:28:05.375Z</time>
      </trkpt>
      <trkpt lat="61.92783" lon="5.47188">
        <ele>0.8804</ele>
        <time>2020-07-16T10:28:12.753Z</time>
      </trkpt>
      <trkpt lat="61.92737" lon="5.46849">
        <ele>2.172598</ele>
        <time>2020-07-16T10:28:47.264Z</time>
      </trkpt>
      <trkpt lat="61.92722" lon="5.46704">
        <ele>2.552458</ele>
        <time>2020-07-16T10:29:01.912Z</time>
      </trkpt>
      <trkpt lat="61.9272" lon="5.46652">
        <ele>2.686412</ele>
        <time>2020-07-16T10:29:06.833Z</time>
      </trkpt>
      <trkpt lat="61.92719" lon="5.4663">
        <ele>2.741892</ele>
        <time>2020-07-16T10:29:09.106Z</time>
      </trkpt>
      <trkpt lat="61.92722" lon="5.46314">
        <ele>2.881079</ele>
        <time>2020-07-16T10:29:35.215Z</time>
      </trkpt>
      <trkpt lat="61.9272" lon="5.46275">
        <ele>2.837149</ele>
        <time>2020-07-16T10:29:38.061Z</time>
      </trkpt>
      <trkpt lat="61.92713" lon="5.4619">
        <ele>2.741323</ele>
        <time>2020-07-16T10:29:45.034Z</time>
      </trkpt>
      <trkpt lat="61.92705" lon="5.46091">
        <ele>2.967376</ele>
        <time>2020-07-16T10:29:53.241Z</time>
      </trkpt>
      <trkpt lat="61.92704" lon="5.46058">
        <ele>3.351424</ele>
        <time>2020-07-16T10:29:55.527Z</time>
      </trkpt>
      <trkpt lat="61.92705" lon="5.46032">
        <ele>3.651702</ele>
        <time>2020-07-16T10:29:58.433Z</time>
      </trkpt>
      <trkpt lat="61.9271" lon="5.45973">
        <ele>4.355133</ele>
        <time>2020-07-16T10:30:03.382Z</time>
      </trkpt>
      <trkpt lat="61.92722" lon="5.45911">
        <ele>5.131058</ele>
        <time>2020-07-16T10:30:09.363Z</time>
      </trkpt>
      <trkpt lat="61.92727" lon="5.45893">
        <ele>5.368865</ele>
        <time>2020-07-16T10:30:12.371Z</time>
      </trkpt>
      <trkpt lat="61.92741" lon="5.45846">
        <ele>6.030531</ele>
        <time>2020-07-16T10:30:19.282Z</time>
      </trkpt>
      <trkpt lat="61.92782" lon="5.45772">
        <ele>8.177878</ele>
        <time>2020-07-16T10:30:39.310Z</time>
      </trkpt>
      <trkpt lat="61.92838" lon="5.45731">
        <ele>14.470752</ele>
        <time>2020-07-16T10:31:06.176Z</time>
      </trkpt>
      <trkpt lat="61.92974" lon="5.45713">
        <ele>28.635378</ele>
        <time>2020-07-16T10:32:26.668Z</time>
      </trkpt>
      <trkpt lat="61.93061" lon="5.45753">
        <ele>37.114136</ele>
        <time>2020-07-16T10:33:16.945Z</time>
      </trkpt>
      <trkpt lat="61.93117" lon="5.45755">
        <ele>42.350221</ele>
        <time>2020-07-16T10:33:36.445Z</time>
      </trkpt>
      <trkpt lat="61.93134" lon="5.45746">
        <ele>43.305712</ele>
        <time>2020-07-16T10:33:44.306Z</time>
      </trkpt>
      <trkpt lat="61.9315" lon="5.45737">
        <ele>43.400652</ele>
        <time>2020-07-16T10:33:46.802Z</time>
      </trkpt>
      <trkpt lat="61.93193" lon="5.45708">
        <ele>43.670723</ele>
        <time>2020-07-16T10:33:59.105Z</time>
      </trkpt>
      <trkpt lat="61.93229" lon="5.45696">
        <ele>43.893757</ele>
        <time>2020-07-16T10:34:06.004Z</time>
      </trkpt>
      <trkpt lat="61.93263" lon="5.45701">
        <ele>44.094005</ele>
        <time>2020-07-16T10:34:10.745Z</time>
      </trkpt>
      <trkpt lat="61.93286" lon="5.45715">
        <ele>44.237032</ele>
        <time>2020-07-16T10:34:13.733Z</time>
      </trkpt>
      <trkpt lat="61.93295" lon="5.45721">
        <ele>44.293472</ele>
        <time>2020-07-16T10:34:14.975Z</time>
      </trkpt>
      <trkpt lat="61.93308" lon="5.45733">
        <ele>44.190598</ele>
        <time>2020-07-16T10:34:17.025Z</time>
      </trkpt>
      <trkpt lat="61.93332" lon="5.45765">
        <ele>43.692033</ele>
        <time>2020-07-16T10:34:21.312Z</time>
      </trkpt>
      <trkpt lat="61.93369" lon="5.45837">
        <ele>42.821861</ele>
        <time>2020-07-16T10:34:28.488Z</time>
      </trkpt>
      <trkpt lat="61.93405" lon="5.45904">
        <ele>41.996277</ele>
        <time>2020-07-16T10:34:35.620Z</time>
      </trkpt>
      <trkpt lat="61.93433" lon="5.45961">
        <ele>41.316992</ele>
        <time>2020-07-16T10:34:41.387Z</time>
      </trkpt>
      <trkpt lat="61.93454" lon="5.46001">
        <ele>40.499235</ele>
        <time>2020-07-16T10:34:45.388Z</time>
      </trkpt>
      <trkpt lat="61.9348" lon="5.4605">
        <ele>39.348044</ele>
        <time>2020-07-16T10:34:50.417Z</time>
      </trkpt>
      <trkpt lat="61.93501" lon="5.4609">
        <ele>38.425452</ele>
        <time>2020-07-16T10:34:54.239Z</time>
      </trkpt>
      <trkpt lat="61.9356" lon="5.46206">
        <ele>35.769696</ele>
        <time>2020-07-16T10:35:04.387Z</time>
      </trkpt>
      <trkpt lat="61.936" lon="5.46266">
        <ele>33.070461</ele>
        <time>2020-07-16T10:35:10.287Z</time>
      </trkpt>
      <trkpt lat="61.93605" lon="5.46271">
        <ele>32.688726</ele>
        <time>2020-07-16T10:35:10.935Z</time>
      </trkpt>
      <trkpt lat="61.93635" lon="5.463">
        <ele>30.604364</ele>
        <time>2020-07-16T10:35:14.701Z</time>
      </trkpt>
      <trkpt lat="61.93661" lon="5.46317">
        <ele>28.790541</ele>
        <time>2020-07-16T10:35:17.968Z</time>
      </trkpt>
      <trkpt lat="61.93677" lon="5.46325">
        <ele>27.770041</ele>
        <time>2020-07-16T10:35:19.672Z</time>
      </trkpt>
      <trkpt lat="61.93713" lon="5.46332">
        <ele>25.368046</ele>
        <time>2020-07-16T10:35:23.892Z</time>
      </trkpt>
      <trkpt lat="61.93767" lon="5.46323">
        <ele>22.412614</ele>
        <time>2020-07-16T10:35:30.116Z</time>
      </trkpt>
      <trkpt lat="61.93779" lon="5.46316">
        <ele>21.830937</ele>
        <time>2020-07-16T10:35:31.540Z</time>
      </trkpt>
      <trkpt lat="61.93797" lon="5.46306">
        <ele>21.022918</ele>
        <time>2020-07-16T10:35:33.774Z</time>
      </trkpt>
      <trkpt lat="61.93839" lon="5.46273">
        <ele>18.984279</ele>
        <time>2020-07-16T10:35:39.286Z</time>
      </trkpt>
      <trkpt lat="61.93873" lon="5.46241">
        <ele>17.321874</ele>
        <time>2020-07-16T10:35:44.250Z</time>
      </trkpt>
      <trkpt lat="61.93878" lon="5.46235">
        <ele>17.078607</ele>
        <time>2020-07-16T10:35:44.984Z</time>
      </trkpt>
      <trkpt lat="61.93915" lon="5.46201">
        <ele>15.382174</ele>
        <time>2020-07-16T10:35:50.321Z</time>
      </trkpt>
      <trkpt lat="61.93923" lon="5.46193">
        <ele>15.200167</ele>
        <time>2020-07-16T10:35:51.634Z</time>
      </trkpt>
      <trkpt lat="61.93939" lon="5.46176">
        <ele>14.806306</ele>
        <time>2020-07-16T10:35:54.031Z</time>
      </trkpt>
      <trkpt lat="61.93961" lon="5.46143">
        <ele>14.214222</ele>
        <time>2020-07-16T10:35:58.345Z</time>
      </trkpt>
      <trkpt lat="61.9397" lon="5.46127">
        <ele>13.968168</ele>
        <time>2020-07-16T10:35:59.882Z</time>
      </trkpt>
      <trkpt lat="61.93971" lon="5.46129">
        <ele>13.947779</ele>
        <time>2020-07-16T10:36:00.184Z</time>
      </trkpt>
      <trkpt lat="61.93973" lon="5.46143">
        <ele>13.792023</ele>
        <time>2020-07-16T10:36:01.403Z</time>
      </trkpt>
      <trkpt lat="61.93976" lon="5.46141">
        <ele>13.734277</ele>
        <time>2020-07-16T10:36:01.862Z</time>
      </trkpt>
      <trkpt lat="61.93992" lon="5.46108">
        <ele>13.252573</ele>
        <time>2020-07-16T10:36:04.997Z</time>
      </trkpt>
      <trkpt lat="61.94005" lon="5.46064">
        <ele>12.729887</ele>
        <time>2020-07-16T10:36:09.192Z</time>
      </trkpt>
      <trkpt lat="61.94009" lon="5.46048">
        <ele>12.53944</ele>
        <time>2020-07-16T10:36:10.297Z</time>
      </trkpt>
      <trkpt lat="61.94021" lon="5.45991">
        <ele>11.901648</ele>
        <time>2020-07-16T10:36:14.563Z</time>
      </trkpt>
      <trkpt lat="61.94042" lon="5.45802">
        <ele>10.839962</ele>
        <time>2020-07-16T10:36:27.573Z</time>
      </trkpt>
      <trkpt lat="61.94055" lon="5.45739">
        <ele>10.520837</ele>
        <time>2020-07-16T10:36:32.270Z</time>
      </trkpt>
      <trkpt lat="61.94063" lon="5.4571">
        <ele>10.364466</ele>
        <time>2020-07-16T10:36:34.671Z</time>
      </trkpt>
      <trkpt lat="61.94072" lon="5.45681">
        <ele>10.198661</ele>
        <time>2020-07-16T10:36:37.807Z</time>
      </trkpt>
      <trkpt lat="61.9408" lon="5.45659">
        <ele>10.071435</ele>
        <time>2020-07-16T10:36:40.010Z</time>
      </trkpt>
      <trkpt lat="61.94086" lon="5.45641">
        <ele>9.968097</ele>
        <time>2020-07-16T10:36:42.862Z</time>
      </trkpt>
      <trkpt lat="61.94158" lon="5.45418">
        <ele>14.092475</ele>
        <time>2020-07-16T10:37:19.628Z</time>
      </trkpt>
      <trkpt lat="61.94165" lon="5.45398">
        <ele>14.527711</ele>
        <time>2020-07-16T10:37:24.528Z</time>
      </trkpt>
      <trkpt lat="61.9416" lon="5.45388">
        <ele>14.802643</ele>
        <time>2020-07-16T10:37:26.734Z</time>
      </trkpt>
      <trkpt lat="61.94163" lon="5.45379">
        <ele>15.010416</ele>
        <time>2020-07-16T10:37:29.141Z</time>
      </trkpt>
      <trkpt lat="61.94177" lon="5.45333">
        <ele>15.971961</ele>
        <time>2020-07-16T10:37:38.039Z</time>
      </trkpt>
      <trkpt lat="61.94183" lon="5.45313">
        <ele>16.388793</ele>
        <time>2020-07-16T10:37:41.970Z</time>
      </trkpt>
      <trkpt lat="61.94195" lon="5.45259">
        <ele>17.520281</ele>
        <time>2020-07-16T10:37:50.838Z</time>
      </trkpt>
      <trkpt lat="61.94199" lon="5.45227">
        <ele>18.154636</ele>
        <time>2020-07-16T10:37:56.283Z</time>
      </trkpt>
      <trkpt lat="61.94204" lon="5.45224">
        <ele>18.363682</ele>
        <time>2020-07-16T10:37:58.388Z</time>
      </trkpt>
      <trkpt lat="61.9422" lon="5.4522">
        <ele>19.030973</ele>
        <time>2020-07-16T10:38:03.000Z</time>
      </trkpt>
      <trkpt lat="61.94232" lon="5.45226">
        <ele>19.500046</ele>
        <time>2020-07-16T10:38:07.251Z</time>
      </trkpt>
      <trkpt lat="61.9424" lon="5.45236">
        <ele>19.900252</ele>
        <time>2020-07-16T10:38:10.757Z</time>
      </trkpt>
      <trkpt lat="61.94261" lon="5.4528">
        <ele>21.074025</ele>
        <time>2020-07-16T10:38:19.703Z</time>
      </trkpt>
      <trkpt lat="61.9428" lon="5.45333">
        <ele>22.346967</ele>
        <time>2020-07-16T10:38:28.762Z</time>
      </trkpt>
      <trkpt lat="61.94294" lon="5.45371">
        <ele>23.280545</ele>
        <time>2020-07-16T10:38:34.677Z</time>
      </trkpt>
      <trkpt lat="61.9433" lon="5.45467">
        <ele>25.119911</ele>
        <time>2020-07-16T10:38:50.321Z</time>
      </trkpt>
      <trkpt lat="61.94401" lon="5.45625">
        <ele>28.133431</ele>
        <time>2020-07-16T10:39:16.236Z</time>
      </trkpt>
      <trkpt lat="61.94482" lon="5.45752">
        <ele>32.532394</ele>
        <time>2020-07-16T10:39:47.836Z</time>
      </trkpt>
      <trkpt lat="61.94515" lon="5.4582">
        <ele>34.833669</ele>
        <time>2020-07-16T10:40:02.696Z</time>
      </trkpt>
      <trkpt lat="61.94525" lon="5.45841">
        <ele>35.564008</ele>
        <time>2020-07-16T10:40:08.379Z</time>
      </trkpt>
      <trkpt lat="61.94587" lon="5.45908">
        <ele>39.405142</ele>
        <time>2020-07-16T10:40:34.516Z</time>
      </trkpt>
      <trkpt lat="61.94606" lon="5.45941">
        <ele>41.109863</ele>
        <time>2020-07-16T10:40:43.993Z</time>
      </trkpt>
      <trkpt lat="61.94632" lon="5.46">
        <ele>43.726815</ele>
        <time>2020-07-16T10:41:00.576Z</time>
      </trkpt>
      <trkpt lat="61.94638" lon="5.46013">
        <ele>44.318918</ele>
        <time>2020-07-16T10:41:04.831Z</time>
      </trkpt>
      <trkpt lat="61.9468" lon="5.4611">
        <ele>48.615097</ele>
        <time>2020-07-16T10:41:29.250Z</time>
      </trkpt>
      <trkpt lat="61.94698" lon="5.46163">
        <ele>50.735363</ele>
        <time>2020-07-16T10:41:40.947Z</time>
      </trkpt>
      <trkpt lat="61.94704" lon="5.46187">
        <ele>51.491496</ele>
        <time>2020-07-16T10:41:46.449Z</time>
      </trkpt>
      <trkpt lat="61.94708" lon="5.46212">
        <ele>52.247261</ele>
        <time>2020-07-16T10:41:51.015Z</time>
      </trkpt>
      <trkpt lat="61.94715" lon="5.463">
        <ele>54.784791</ele>
        <time>2020-07-16T10:42:06.714Z</time>
      </trkpt>
      <trkpt lat="61.94716" lon="5.46408">
        <ele>57.845295</ele>
        <time>2020-07-16T10:42:25.978Z</time>
      </trkpt>
      <trkpt lat="61.94715" lon="5.46444">
        <ele>58.871269</ele>
        <time>2020-07-16T10:42:32.166Z</time>
      </trkpt>
      <trkpt lat="61.94714" lon="5.46475">
        <ele>59.739139</ele>
        <time>2020-07-16T10:42:37.064Z</time>
      </trkpt>
      <trkpt lat="61.94707" lon="5.46547">
        <ele>61.813521</ele>
        <time>2020-07-16T10:42:49.554Z</time>
      </trkpt>
      <trkpt lat="61.94703" lon="5.46593">
        <ele>63.086441</ele>
        <time>2020-07-16T10:42:57.253Z</time>
      </trkpt>
      <trkpt lat="61.94704" lon="5.46679">
        <ele>65.381817</ele>
        <time>2020-07-16T10:43:11.237Z</time>
      </trkpt>
      <trkpt lat="61.94716" lon="5.46772">
        <ele>67.981216</ele>
        <time>2020-07-16T10:43:28.217Z</time>
      </trkpt>
      <trkpt lat="61.94773" lon="5.46978">
        <ele>73.775877</ele>
        <time>2020-07-16T10:44:09.345Z</time>
      </trkpt>
      <trkpt lat="61.94776" lon="5.46999">
        <ele>74.221293</ele>
        <time>2020-07-16T10:44:13.965Z</time>
      </trkpt>
      <trkpt lat="61.94778" lon="5.47022">
        <ele>74.701765</ele>
        <time>2020-07-16T10:44:16.640Z</time>
      </trkpt>
      <trkpt lat="61.94784" lon="5.47127">
        <ele>76.890897</ele>
        <time>2020-07-16T10:44:31.193Z</time>
      </trkpt>
      <trkpt lat="61.94806" lon="5.47206">
        <ele>78.793171</ele>
        <time>2020-07-16T10:44:45.023Z</time>
      </trkpt>
      <trkpt lat="61.94815" lon="5.47233">
        <ele>79.455446</ele>
        <time>2020-07-16T10:44:48.982Z</time>
      </trkpt>
      <trkpt lat="61.94819" lon="5.47247">
        <ele>79.795079</ele>
        <time>2020-07-16T10:44:50.878Z</time>
      </trkpt>
      <trkpt lat="61.94855" lon="5.47417">
        <ele>83.472524</ele>
        <time>2020-07-16T10:45:15.326Z</time>
      </trkpt>
      <trkpt lat="61.94859" lon="5.47433">
        <ele>83.829074</ele>
        <time>2020-07-16T10:45:18.440Z</time>
      </trkpt>
      <trkpt lat="61.94865" lon="5.47459">
        <ele>84.401832</ele>
        <time>2020-07-16T10:45:22.688Z</time>
      </trkpt>
      <trkpt lat="61.94868" lon="5.47478">
        <ele>84.796567</ele>
        <time>2020-07-16T10:45:25.405Z</time>
      </trkpt>
      <trkpt lat="61.94868" lon="5.47492">
        <ele>85.067085</ele>
        <time>2020-07-16T10:45:27.439Z</time>
      </trkpt>
      <trkpt lat="61.94869" lon="5.47572">
        <ele>86.665408</ele>
        <time>2020-07-16T10:45:40.422Z</time>
      </trkpt>
      <trkpt lat="61.94873" lon="5.47602">
        <ele>87.302981</ele>
        <time>2020-07-16T10:45:45.884Z</time>
      </trkpt>
      <trkpt lat="61.94875" lon="5.47612">
        <ele>87.635839</ele>
        <time>2020-07-16T10:45:47.626Z</time>
      </trkpt>
      <trkpt lat="61.9488" lon="5.47635">
        <ele>88.407538</ele>
        <time>2020-07-16T10:45:51.448Z</time>
      </trkpt>
      <trkpt lat="61.94886" lon="5.47663">
        <ele>89.352561</ele>
        <time>2020-07-16T10:45:57.653Z</time>
      </trkpt>
      <trkpt lat="61.94902" lon="5.47763">
        <ele>92.62903</ele>
        <time>2020-07-16T10:46:16.896Z</time>
      </trkpt>
      <trkpt lat="61.94952" lon="5.47852">
        <ele>96.893509</ele>
        <time>2020-07-16T10:46:43.224Z</time>
      </trkpt>
      <trkpt lat="61.94995" lon="5.47993">
        <ele>102.243295</ele>
        <time>2020-07-16T10:47:14.832Z</time>
      </trkpt>
      <trkpt lat="61.95022" lon="5.48058">
        <ele>105.066289</ele>
        <time>2020-07-16T10:47:30.851Z</time>
      </trkpt>
      <trkpt lat="61.95067" lon="5.48124">
        <ele>108.80804</ele>
        <time>2020-07-16T10:47:52.369Z</time>
      </trkpt>
      <trkpt lat="61.95187" lon="5.48168">
        <ele>117.967442</ele>
        <time>2020-07-16T10:48:42.085Z</time>
      </trkpt>
      <trkpt lat="61.95234" lon="5.48207">
        <ele>121.840277</ele>
        <time>2020-07-16T10:49:03.124Z</time>
      </trkpt>
      <trkpt lat="61.9531" lon="5.48331">
        <ele>130.506164</ele>
        <time>2020-07-16T10:49:47.521Z</time>
      </trkpt>
      <trkpt lat="61.9534" lon="5.48412">
        <ele>135.378181</ele>
        <time>2020-07-16T10:50:12.773Z</time>
      </trkpt>
      <trkpt lat="61.95401" lon="5.48517">
        <ele>143.352449</ele>
        <time>2020-07-16T10:50:54.178Z</time>
      </trkpt>
      <trkpt lat="61.95406" lon="5.48526">
        <ele>143.925162</ele>
        <time>2020-07-16T10:50:59.464Z</time>
      </trkpt>
      <trkpt lat="61.95409" lon="5.48534">
        <ele>144.251318</ele>
        <time>2020-07-16T10:51:01.435Z</time>
      </trkpt>
      <trkpt lat="61.9541" lon="5.48539">
        <ele>144.462562</ele>
        <time>2020-07-16T10:51:02.794Z</time>
      </trkpt>
      <trkpt lat="61.95418" lon="5.48564">
        <ele>145.499942</ele>
        <time>2020-07-16T10:51:08.710Z</time>
      </trkpt>
      <trkpt lat="61.95428" lon="5.48608">
        <ele>147.252597</ele>
        <time>2020-07-16T10:51:20.840Z</time>
      </trkpt>
      <trkpt lat="61.95444" lon="5.48677">
        <ele>149.935032</ele>
        <time>2020-07-16T10:51:37.246Z</time>
      </trkpt>
      <trkpt lat="61.95466" lon="5.48768">
        <ele>153.530138</ele>
        <time>2020-07-16T10:51:56.863Z</time>
      </trkpt>
      <trkpt lat="61.95505" lon="5.4894">
        <ele>157.729827</ele>
        <time>2020-07-16T10:52:25.067Z</time>
      </trkpt>
      <trkpt lat="61.95538" lon="5.49027">
        <ele>158.559072</ele>
        <time>2020-07-16T10:52:36.257Z</time>
      </trkpt>
      <trkpt lat="61.95718" lon="5.4929">
        <ele>160.137059</ele>
        <time>2020-07-16T10:53:15.865Z</time>
      </trkpt>
      <trkpt lat="61.95775" lon="5.49351">
        <ele>160.343676</ele>
        <time>2020-07-16T10:53:28.000Z</time>
      </trkpt>
      <trkpt lat="61.95926" lon="5.49407">
        <ele>161.393878</ele>
        <time>2020-07-16T10:53:59.084Z</time>
      </trkpt>
      <trkpt lat="61.9596" lon="5.49426">
        <ele>161.511274</ele>
        <time>2020-07-16T10:54:06.122Z</time>
      </trkpt>
      <trkpt lat="61.96007" lon="5.49477">
        <ele>161.620889</ele>
        <time>2020-07-16T10:54:16.534Z</time>
      </trkpt>
      <trkpt lat="61.96014" lon="5.49489">
        <ele>161.639651</ele>
        <time>2020-07-16T10:54:18.400Z</time>
      </trkpt>
      <trkpt lat="61.96028" lon="5.49507">
        <ele>161.673693</ele>
        <time>2020-07-16T10:54:21.088Z</time>
      </trkpt>
      <trkpt lat="61.96081" lon="5.49616">
        <ele>161.825393</ele>
        <time>2020-07-16T10:54:33.951Z</time>
      </trkpt>
      <trkpt lat="61.96092" lon="5.49653">
        <ele>161.800257</ele>
        <time>2020-07-16T10:54:37.859Z</time>
      </trkpt>
      <trkpt lat="61.96098" lon="5.49671">
        <ele>161.783787</ele>
        <time>2020-07-16T10:54:39.360Z</time>
      </trkpt>
      <trkpt lat="61.96121" lon="5.4978">
        <ele>161.693828</ele>
        <time>2020-07-16T10:54:49.047Z</time>
      </trkpt>
      <trkpt lat="61.96131" lon="5.49863">
        <ele>161.629369</ele>
        <time>2020-07-16T10:54:56.109Z</time>
      </trkpt>
      <trkpt lat="61.96143" lon="5.50081">
        <ele>161.494878</ele>
        <time>2020-07-16T10:55:14.104Z</time>
      </trkpt>
      <trkpt lat="61.9617" lon="5.50231">
        <ele>161.421522</ele>
        <time>2020-07-16T10:55:27.479Z</time>
      </trkpt>
      <trkpt lat="61.96175" lon="5.50253">
        <ele>161.410189</ele>
        <time>2020-07-16T10:55:30.014Z</time>
      </trkpt>
      <trkpt lat="61.96188" lon="5.50296">
        <ele>161.386694</ele>
        <time>2020-07-16T10:55:33.876Z</time>
      </trkpt>
      <trkpt lat="61.96217" lon="5.50369">
        <ele>161.247066</ele>
        <time>2020-07-16T10:55:41.959Z</time>
      </trkpt>
      <trkpt lat="61.96266" lon="5.50452">
        <ele>160.942686</ele>
        <time>2020-07-16T10:55:52.175Z</time>
      </trkpt>
      <trkpt lat="61.96434" lon="5.50607">
        <ele>159.915447</ele>
        <time>2020-07-16T10:56:21.685Z</time>
      </trkpt>
      <trkpt lat="61.96529" lon="5.5069">
        <ele>159.328377</ele>
        <time>2020-07-16T10:56:38.266Z</time>
      </trkpt>
      <trkpt lat="61.96569" lon="5.50725">
        <ele>159.293483</ele>
        <time>2020-07-16T10:56:45.586Z</time>
      </trkpt>
      <trkpt lat="61.96618" lon="5.50768">
        <ele>159.251206</ele>
        <time>2020-07-16T10:56:54.851Z</time>
      </trkpt>
      <trkpt lat="61.96627" lon="5.50775">
        <ele>159.243883</ele>
        <time>2020-07-16T10:56:56.370Z</time>
      </trkpt>
      <trkpt lat="61.9664" lon="5.50786">
        <ele>159.232084</ele>
        <time>2020-07-16T10:56:59.159Z</time>
      </trkpt>
      <trkpt lat="61.96647" lon="5.50794">
        <ele>159.22603</ele>
        <time>2020-07-16T10:57:00.542Z</time>
      </trkpt>
      <trkpt lat="61.96659" lon="5.50802">
        <ele>159.215786</ele>
        <time>2020-07-16T10:57:02.731Z</time>
      </trkpt>
      <trkpt lat="61.96691" lon="5.50822">
        <ele>159.33237</ele>
        <time>2020-07-16T10:57:08.993Z</time>
      </trkpt>
      <trkpt lat="61.96709" lon="5.50831">
        <ele>159.68076</ele>
        <time>2020-07-16T10:57:12.662Z</time>
      </trkpt>
      <trkpt lat="61.96801" lon="5.50867">
        <ele>161.469907</ele>
        <time>2020-07-16T10:57:31.912Z</time>
      </trkpt>
      <trkpt lat="61.96848" lon="5.50895">
        <ele>162.391471</ele>
        <time>2020-07-16T10:57:46.209Z</time>
      </trkpt>
      <trkpt lat="61.96928" lon="5.50985">
        <ele>167.375546</ele>
        <time>2020-07-16T10:58:16.324Z</time>
      </trkpt>
      <trkpt lat="61.96938" lon="5.50997">
        <ele>168.098736</ele>
        <time>2020-07-16T10:58:20.263Z</time>
      </trkpt>
      <trkpt lat="61.9695" lon="5.5101">
        <ele>168.887555</ele>
        <time>2020-07-16T10:58:26.243Z</time>
      </trkpt>
      <trkpt lat="61.96974" lon="5.51031">
        <ele>170.483058</ele>
        <time>2020-07-16T10:58:35.712Z</time>
      </trkpt>
      <trkpt lat="61.9715" lon="5.51111">
        <ele>184.059543</ele>
        <time>2020-07-16T10:59:55.005Z</time>
      </trkpt>
      <trkpt lat="61.97187" lon="5.51137">
        <ele>187.197476</ele>
        <time>2020-07-16T11:00:11.491Z</time>
      </trkpt>
      <trkpt lat="61.97252" lon="5.51213">
        <ele>193.551499</ele>
        <time>2020-07-16T11:00:44.752Z</time>
      </trkpt>
      <trkpt lat="61.97332" lon="5.51368">
        <ele>202.759751</ele>
        <time>2020-07-16T11:01:35.196Z</time>
      </trkpt>
      <trkpt lat="61.97354" lon="5.51416">
        <ele>205.030129</ele>
        <time>2020-07-16T11:01:49.073Z</time>
      </trkpt>
      <trkpt lat="61.97381" lon="5.51478">
        <ele>207.692992</ele>
        <time>2020-07-16T11:02:06.172Z</time>
      </trkpt>
      <trkpt lat="61.97412" lon="5.51529">
        <ele>210.244262</ele>
        <time>2020-07-16T11:02:21.963Z</time>
      </trkpt>
      <trkpt lat="61.97443" lon="5.51558">
        <ele>212.5139</ele>
        <time>2020-07-16T11:02:35.166Z</time>
      </trkpt>
      <trkpt lat="61.97477" lon="5.51572">
        <ele>214.817404</ele>
        <time>2020-07-16T11:02:47.825Z</time>
      </trkpt>
      <trkpt lat="61.97504" lon="5.51571">
        <ele>215.902207</ele>
        <time>2020-07-16T11:02:55.694Z</time>
      </trkpt>
      <trkpt lat="61.97516" lon="5.51566">
        <ele>216.194267</ele>
        <time>2020-07-16T11:02:59.381Z</time>
      </trkpt>
      <trkpt lat="61.9753" lon="5.51558">
        <ele>216.547537</ele>
        <time>2020-07-16T11:03:02.857Z</time>
      </trkpt>
      <trkpt lat="61.97561" lon="5.51529">
        <ele>217.397292</ele>
        <time>2020-07-16T11:03:11.490Z</time>
      </trkpt>
      <trkpt lat="61.97581" lon="5.51506">
        <ele>217.948894</ele>
        <time>2020-07-16T11:03:17.140Z</time>
      </trkpt>
      <trkpt lat="61.97591" lon="5.51495">
        <ele>218.221762</ele>
        <time>2020-07-16T11:03:19.658Z</time>
      </trkpt>
      <trkpt lat="61.97661" lon="5.5139">
        <ele>220.224408</ele>
        <time>2020-07-16T11:03:39.309Z</time>
      </trkpt>
      <trkpt lat="61.9768" lon="5.51339">
        <ele>220.776573</ele>
        <time>2020-07-16T11:03:45.805Z</time>
      </trkpt>
      <trkpt lat="61.97689" lon="5.51262">
        <ele>221.462079</ele>
        <time>2020-07-16T11:03:54.154Z</time>
      </trkpt>
      <trkpt lat="61.97686" lon="5.51138">
        <ele>222.533683</ele>
        <time>2020-07-16T11:04:07.769Z</time>
      </trkpt>
      <trkpt lat="61.97695" lon="5.51091">
        <ele>222.960774</ele>
        <time>2020-07-16T11:04:13.497Z</time>
      </trkpt>
      <trkpt lat="61.97752" lon="5.51013">
        <ele>225.438496</ele>
        <time>2020-07-16T11:04:32.417Z</time>
      </trkpt>
      <trkpt lat="61.97798" lon="5.50912">
        <ele>228.116953</ele>
        <time>2020-07-16T11:04:51.814Z</time>
      </trkpt>
      <trkpt lat="61.97833" lon="5.50838">
        <ele>230.090994</ele>
        <time>2020-07-16T11:05:07.758Z</time>
      </trkpt>
      <trkpt lat="61.9784" lon="5.50823">
        <ele>230.493293</ele>
        <time>2020-07-16T11:05:12.158Z</time>
      </trkpt>
      <trkpt lat="61.97904" lon="5.50638">
        <ele>236.684078</ele>
        <time>2020-07-16T11:05:55.711Z</time>
      </trkpt>
      <trkpt lat="61.97909" lon="5.50618">
        <ele>237.301926</ele>
        <time>2020-07-16T11:05:59.564Z</time>
      </trkpt>
      <trkpt lat="61.97925" lon="5.50554">
        <ele>239.247547</ele>
        <time>2020-07-16T11:06:11.998Z</time>
      </trkpt>
      <trkpt lat="61.97941" lon="5.50502">
        <ele>240.734335</ele>
        <time>2020-07-16T11:06:20.808Z</time>
      </trkpt>
      <trkpt lat="61.97961" lon="5.50468">
        <ele>240.520237</ele>
        <time>2020-07-16T11:06:27.773Z</time>
      </trkpt>
      <trkpt lat="61.97979" lon="5.50455">
        <ele>240.355988</ele>
        <time>2020-07-16T11:06:32.708Z</time>
      </trkpt>
      <trkpt lat="61.98008" lon="5.50458">
        <ele>240.114549</ele>
        <time>2020-07-16T11:06:39.031Z</time>
      </trkpt>
      <trkpt lat="61.98056" lon="5.50486">
        <ele>239.700937</ele>
        <time>2020-07-16T11:06:46.733Z</time>
      </trkpt>
      <trkpt lat="61.98081" lon="5.5051">
        <ele>239.46723</ele>
        <time>2020-07-16T11:06:50.115Z</time>
      </trkpt>
      <trkpt lat="61.98182" lon="5.50642">
        <ele>235.898593</ele>
        <time>2020-07-16T11:07:03.947Z</time>
      </trkpt>
      <trkpt lat="61.98248" lon="5.50713">
        <ele>233.186415</ele>
        <time>2020-07-16T11:07:13.823Z</time>
      </trkpt>
      <trkpt lat="61.98277" lon="5.50727">
        <ele>233.568417</ele>
        <time>2020-07-16T11:07:18.784Z</time>
      </trkpt>
      <trkpt lat="61.98282" lon="5.50726">
        <ele>233.882723</ele>
        <time>2020-07-16T11:07:19.569Z</time>
      </trkpt>
      <trkpt lat="61.9829" lon="5.50722">
        <ele>234.328425</ele>
        <time>2020-07-16T11:07:22.705Z</time>
      </trkpt>
      <trkpt lat="61.98307" lon="5.50695">
        <ele>235.526518</ele>
        <time>2020-07-16T11:07:28.053Z</time>
      </trkpt>
      <trkpt lat="61.98312" lon="5.50664">
        <ele>236.390607</ele>
        <time>2020-07-16T11:07:35.763Z</time>
      </trkpt>
      <trkpt lat="61.98306" lon="5.5042">
        <ele>242.780082</ele>
        <time>2020-07-16T11:08:25.201Z</time>
      </trkpt>
      <trkpt lat="61.98306" lon="5.50384">
        <ele>243.485294</ele>
        <time>2020-07-16T11:08:33.859Z</time>
      </trkpt>
      <trkpt lat="61.98306" lon="5.50374">
        <ele>243.684982</ele>
        <time>2020-07-16T11:08:36.947Z</time>
      </trkpt>
      <trkpt lat="61.9831" lon="5.50321">
        <ele>244.740851</ele>
        <time>2020-07-16T11:08:44.288Z</time>
      </trkpt>
      <trkpt lat="61.98321" lon="5.50261">
        <ele>246.016503</ele>
        <time>2020-07-16T11:08:54.043Z</time>
      </trkpt>
      <trkpt lat="61.98326" lon="5.5024">
        <ele>246.487681</ele>
        <time>2020-07-16T11:08:59.738Z</time>
      </trkpt>
      <trkpt lat="61.98336" lon="5.50214">
        <ele>247.157013</ele>
        <time>2020-07-16T11:09:03.363Z</time>
      </trkpt>
      <trkpt lat="61.9836" lon="5.50172">
        <ele>248.475296</ele>
        <time>2020-07-16T11:09:13.832Z</time>
      </trkpt>
      <trkpt lat="61.98401" lon="5.50141">
        <ele>250.264673</ele>
        <time>2020-07-16T11:09:23.743Z</time>
      </trkpt>
      <trkpt lat="61.98427" lon="5.5014">
        <ele>249.795482</ele>
        <time>2020-07-16T11:09:27.925Z</time>
      </trkpt>
      <trkpt lat="61.98488" lon="5.5016">
        <ele>248.520678</ele>
        <time>2020-07-16T11:09:36.067Z</time>
      </trkpt>
      <trkpt lat="61.98559" lon="5.5012">
        <ele>247.018788</ele>
        <time>2020-07-16T11:09:45.887Z</time>
      </trkpt>
      <trkpt lat="61.98616" lon="5.50111">
        <ele>245.734006</ele>
        <time>2020-07-16T11:09:53.601Z</time>
      </trkpt>
      <trkpt lat="61.98632" lon="5.50118">
        <ele>245.367844</ele>
        <time>2020-07-16T11:09:55.716Z</time>
      </trkpt>
      <trkpt lat="61.98785" lon="5.5035">
        <ele>241.365328</ele>
        <time>2020-07-16T11:10:21.779Z</time>
      </trkpt>
      <trkpt lat="61.98861" lon="5.50504">
        <ele>239.605561</ele>
        <time>2020-07-16T11:10:37.267Z</time>
      </trkpt>
      <trkpt lat="61.98961" lon="5.5062">
        <ele>238.580481</ele>
        <time>2020-07-16T11:10:55.230Z</time>
      </trkpt>
      <trkpt lat="61.99092" lon="5.50859">
        <ele>237.369066</ele>
        <time>2020-07-16T11:11:23.178Z</time>
      </trkpt>
      <trkpt lat="61.99132" lon="5.50945">
        <ele>237.016479</ele>
        <time>2020-07-16T11:11:32.418Z</time>
      </trkpt>
      <trkpt lat="61.99148" lon="5.50985">
        <ele>236.866782</ele>
        <time>2020-07-16T11:11:36.406Z</time>
      </trkpt>
      <trkpt lat="61.99162" lon="5.51023">
        <ele>236.782229</ele>
        <time>2020-07-16T11:11:40.035Z</time>
      </trkpt>
      <trkpt lat="61.9917" lon="5.51041">
        <ele>236.748302</ele>
        <time>2020-07-16T11:11:41.975Z</time>
      </trkpt>
      <trkpt lat="61.99187" lon="5.51077">
        <ele>236.675284</ele>
        <time>2020-07-16T11:11:45.822Z</time>
      </trkpt>
      <trkpt lat="61.99203" lon="5.51111">
        <ele>236.60661</ele>
        <time>2020-07-16T11:11:49.622Z</time>
      </trkpt>
      <trkpt lat="61.99324" lon="5.51348">
        <ele>236.462115</ele>
        <time>2020-07-16T11:12:18.381Z</time>
      </trkpt>
      <trkpt lat="61.99354" lon="5.51393">
        <ele>236.568057</ele>
        <time>2020-07-16T11:12:25.497Z</time>
      </trkpt>
      <trkpt lat="61.99394" lon="5.51429">
        <ele>236.692102</ele>
        <time>2020-07-16T11:12:33.903Z</time>
      </trkpt>
      <trkpt lat="61.99511" lon="5.51449">
        <ele>237.148711</ele>
        <time>2020-07-16T11:12:56.895Z</time>
      </trkpt>
      <trkpt lat="61.99585" lon="5.51391">
        <ele>237.498975</ele>
        <time>2020-07-16T11:13:12.119Z</time>
      </trkpt>
      <trkpt lat="61.99627" lon="5.51384">
        <ele>237.61997</ele>
        <time>2020-07-16T11:13:20.046Z</time>
      </trkpt>
      <trkpt lat="61.99742" lon="5.51411">
        <ele>237.740559</ele>
        <time>2020-07-16T11:13:40.853Z</time>
      </trkpt>
      <trkpt lat="61.99804" lon="5.5145">
        <ele>237.776982</ele>
        <time>2020-07-16T11:13:52.372Z</time>
      </trkpt>
      <trkpt lat="61.99989" lon="5.5153">
        <ele>237.601042</ele>
        <time>2020-07-16T11:14:25.916Z</time>
      </trkpt>
      <trkpt lat="62.00048" lon="5.51582">
        <ele>237.409863</ele>
        <time>2020-07-16T11:14:36.577Z</time>
      </trkpt>
      <trkpt lat="62.00079" lon="5.51622">
        <ele>237.300259</ele>
        <time>2020-07-16T11:14:42.626Z</time>
      </trkpt>
      <trkpt lat="62.00164" lon="5.51798">
        <ele>237.230672</ele>
        <time>2020-07-16T11:15:02.569Z</time>
      </trkpt>
      <trkpt lat="62.00293" lon="5.5196">
        <ele>237.504332</ele>
        <time>2020-07-16T11:15:31.320Z</time>
      </trkpt>
      <trkpt lat="62.00332" lon="5.52006">
        <ele>237.660461</ele>
        <time>2020-07-16T11:15:40.184Z</time>
      </trkpt>
      <trkpt lat="62.00344" lon="5.52022">
        <ele>237.710566</ele>
        <time>2020-07-16T11:15:42.946Z</time>
      </trkpt>
      <trkpt lat="62.00362" lon="5.52044">
        <ele>237.783261</ele>
        <time>2020-07-16T11:15:46.906Z</time>
      </trkpt>
      <trkpt lat="62.00383" lon="5.52068">
        <ele>237.868482</ele>
        <time>2020-07-16T11:15:51.419Z</time>
      </trkpt>
      <trkpt lat="62.00414" lon="5.52099">
        <ele>237.990374</ele>
        <time>2020-07-16T11:15:57.752Z</time>
      </trkpt>
      <trkpt lat="62.00467" lon="5.52164">
        <ele>237.687796</ele>
        <time>2020-07-16T11:16:08.381Z</time>
      </trkpt>
      <trkpt lat="62.00601" lon="5.52388">
        <ele>236.644076</ele>
        <time>2020-07-16T11:16:35.162Z</time>
      </trkpt>
      <trkpt lat="62.00712" lon="5.52543">
        <ele>235.673013</ele>
        <time>2020-07-16T11:16:56.230Z</time>
      </trkpt>
      <trkpt lat="62.00748" lon="5.52604">
        <ele>235.494969</ele>
        <time>2020-07-16T11:17:03.919Z</time>
      </trkpt>
      <trkpt lat="62.00792" lon="5.52706">
        <ele>235.250047</ele>
        <time>2020-07-16T11:17:14.932Z</time>
      </trkpt>
      <trkpt lat="62.00859" lon="5.52943">
        <ele>234.674229</ele>
        <time>2020-07-16T11:17:37.281Z</time>
      </trkpt>
      <trkpt lat="62.00884" lon="5.53012">
        <ele>234.463123</ele>
        <time>2020-07-16T11:17:44.109Z</time>
      </trkpt>
      <trkpt lat="62.00929" lon="5.53105">
        <ele>234.139567</ele>
        <time>2020-07-16T11:17:54.309Z</time>
      </trkpt>
      <trkpt lat="62.00973" lon="5.53172">
        <ele>233.388666</ele>
        <time>2020-07-16T11:18:02.734Z</time>
      </trkpt>
      <trkpt lat="62.01046" lon="5.53267">
        <ele>231.905563</ele>
        <time>2020-07-16T11:18:15.172Z</time>
      </trkpt>
      <trkpt lat="62.01141" lon="5.53305">
        <ele>229.460424</ele>
        <time>2020-07-16T11:18:28.424Z</time>
      </trkpt>
      <trkpt lat="62.01185" lon="5.5337">
        <ele>227.5315</ele>
        <time>2020-07-16T11:18:35.406Z</time>
      </trkpt>
      <trkpt lat="62.01236" lon="5.53413">
        <ele>225.597692</ele>
        <time>2020-07-16T11:18:42.224Z</time>
      </trkpt>
      <trkpt lat="62.01249" lon="5.53416">
        <ele>225.103358</ele>
        <time>2020-07-16T11:18:43.938Z</time>
      </trkpt>
      <trkpt lat="62.01267" lon="5.53407">
        <ele>224.399027</ele>
        <time>2020-07-16T11:18:46.219Z</time>
      </trkpt>
      <trkpt lat="62.01311" lon="5.53322">
        <ele>220.374795</ele>
        <time>2020-07-16T11:18:53.411Z</time>
      </trkpt>
      <trkpt lat="62.01337" lon="5.53318">
        <ele>218.628324</ele>
        <time>2020-07-16T11:18:56.486Z</time>
      </trkpt>
      <trkpt lat="62.01348" lon="5.53335">
        <ele>217.714065</ele>
        <time>2020-07-16T11:18:58.070Z</time>
      </trkpt>
      <trkpt lat="62.01357" lon="5.53369">
        <ele>216.485394</ele>
        <time>2020-07-16T11:19:00.194Z</time>
      </trkpt>
      <trkpt lat="62.01381" lon="5.5365">
        <ele>203.485441</ele>
        <time>2020-07-16T11:19:15.012Z</time>
      </trkpt>
      <trkpt lat="62.0139" lon="5.53694">
        <ele>200.772639</ele>
        <time>2020-07-16T11:19:17.385Z</time>
      </trkpt>
      <trkpt lat="62.0141" lon="5.53747">
        <ele>196.901825</ele>
        <time>2020-07-16T11:19:20.738Z</time>
      </trkpt>
      <trkpt lat="62.01437" lon="5.53786">
        <ele>192.965853</ele>
        <time>2020-07-16T11:19:24.119Z</time>
      </trkpt>
      <trkpt lat="62.01552" lon="5.53913">
        <ele>175.040042</ele>
        <time>2020-07-16T11:19:37.577Z</time>
      </trkpt>
      <trkpt lat="62.01573" lon="5.53906">
        <ele>172.073101</ele>
        <time>2020-07-16T11:19:39.759Z</time>
      </trkpt>
      <trkpt lat="62.0161" lon="5.53835">
        <ele>165.027177</ele>
        <time>2020-07-16T11:19:45.123Z</time>
      </trkpt>
      <trkpt lat="62.01628" lon="5.5381">
        <ele>163.058977</ele>
        <time>2020-07-16T11:19:47.458Z</time>
      </trkpt>
      <trkpt lat="62.01649" lon="5.53781">
        <ele>160.789567</ele>
        <time>2020-07-16T11:19:50.223Z</time>
      </trkpt>
      <trkpt lat="62.01673" lon="5.53737">
        <ele>158.013793</ele>
        <time>2020-07-16T11:19:53.615Z</time>
      </trkpt>
      <trkpt lat="62.01696" lon="5.53677">
        <ele>154.710632</ele>
        <time>2020-07-16T11:19:57.706Z</time>
      </trkpt>
      <trkpt lat="62.01701" lon="5.5366">
        <ele>153.84299</ele>
        <time>2020-07-16T11:19:58.786Z</time>
      </trkpt>
      <trkpt lat="62.0171" lon="5.53622">
        <ele>152.048703</ele>
        <time>2020-07-16T11:20:01.034Z</time>
      </trkpt>
      <trkpt lat="62.01732" lon="5.53514">
        <ele>147.118574</ele>
        <time>2020-07-16T11:20:07.393Z</time>
      </trkpt>
      <trkpt lat="62.01757" lon="5.53465">
        <ele>144.201156</ele>
        <time>2020-07-16T11:20:11.216Z</time>
      </trkpt>
      <trkpt lat="62.01804" lon="5.53423">
        <ele>139.776384</ele>
        <time>2020-07-16T11:20:16.871Z</time>
      </trkpt>
      <trkpt lat="62.01867" lon="5.53383">
        <ele>134.146872</ele>
        <time>2020-07-16T11:20:24.020Z</time>
      </trkpt>
      <trkpt lat="62.01891" lon="5.53376">
        <ele>132.141246</ele>
        <time>2020-07-16T11:20:26.695Z</time>
      </trkpt>
      <trkpt lat="62.0191" lon="5.53395">
        <ele>130.458076</ele>
        <time>2020-07-16T11:20:29.018Z</time>
      </trkpt>
      <trkpt lat="62.01914" lon="5.53424">
        <ele>129.324717</ele>
        <time>2020-07-16T11:20:30.586Z</time>
      </trkpt>
      <trkpt lat="62.0191" lon="5.53446">
        <ele>128.411918</ele>
        <time>2020-07-16T11:20:31.846Z</time>
      </trkpt>
      <trkpt lat="62.019" lon="5.53465">
        <ele>127.333142</ele>
        <time>2020-07-16T11:20:33.349Z</time>
      </trkpt>
      <trkpt lat="62.01859" lon="5.53501">
        <ele>123.798599</ele>
        <time>2020-07-16T11:20:38.286Z</time>
      </trkpt>
      <trkpt lat="62.01845" lon="5.53523">
        <ele>122.3863</ele>
        <time>2020-07-16T11:20:40.279Z</time>
      </trkpt>
      <trkpt lat="62.01819" lon="5.53586">
        <ele>119.293352</ele>
        <time>2020-07-16T11:20:44.723Z</time>
      </trkpt>
      <trkpt lat="62.01816" lon="5.53606">
        <ele>118.672972</ele>
        <time>2020-07-16T11:20:45.897Z</time>
      </trkpt>
      <trkpt lat="62.01819" lon="5.53626">
        <ele>118.289776</ele>
        <time>2020-07-16T11:20:47.039Z</time>
      </trkpt>
      <trkpt lat="62.01833" lon="5.53639">
        <ele>117.679537</ele>
        <time>2020-07-16T11:20:48.838Z</time>
      </trkpt>
      <trkpt lat="62.01867" lon="5.53608">
        <ele>116.207678</ele>
        <time>2020-07-16T11:20:53.332Z</time>
      </trkpt>
      <trkpt lat="62.01904" lon="5.53601">
        <ele>114.753079</ele>
        <time>2020-07-16T11:20:57.924Z</time>
      </trkpt>
      <trkpt lat="62.01927" lon="5.53608">
        <ele>113.815234</ele>
        <time>2020-07-16T11:21:01.004Z</time>
      </trkpt>
      <trkpt lat="62.01961" lon="5.53637">
        <ele>112.359618</ele>
        <time>2020-07-16T11:21:05.943Z</time>
      </trkpt>
      <trkpt lat="62.0198" lon="5.53635">
        <ele>111.61627</ele>
        <time>2020-07-16T11:21:08.693Z</time>
      </trkpt>
      <trkpt lat="62.01996" lon="5.53618">
        <ele>111.059356</ele>
        <time>2020-07-16T11:21:11.288Z</time>
      </trkpt>
      <trkpt lat="62.02025" lon="5.53563">
        <ele>109.804163</ele>
        <time>2020-07-16T11:21:17.636Z</time>
      </trkpt>
      <trkpt lat="62.02065" lon="5.53448">
        <ele>107.635544</ele>
        <time>2020-07-16T11:21:29.598Z</time>
      </trkpt>
      <trkpt lat="62.02096" lon="5.53392">
        <ele>106.294406</ele>
        <time>2020-07-16T11:21:34.442Z</time>
      </trkpt>
      <trkpt lat="62.0213" lon="5.5336">
        <ele>102.639827</ele>
        <time>2020-07-16T11:21:38.479Z</time>
      </trkpt>
      <trkpt lat="62.02172" lon="5.53366">
        <ele>96.879884</ele>
        <time>2020-07-16T11:21:42.982Z</time>
      </trkpt>
      <trkpt lat="62.02199" lon="5.5335">
        <ele>93.121023</ele>
        <time>2020-07-16T11:21:45.958Z</time>
      </trkpt>
      <trkpt lat="62.02206" lon="5.53347">
        <ele>92.180583</ele>
        <time>2020-07-16T11:21:46.675Z</time>
      </trkpt>
      <trkpt lat="62.0221" lon="5.53344">
        <ele>91.554746</ele>
        <time>2020-07-16T11:21:47.154Z</time>
      </trkpt>
      <trkpt lat="62.02253" lon="5.53339">
        <ele>85.835702</ele>
        <time>2020-07-16T11:21:51.571Z</time>
      </trkpt>
      <trkpt lat="62.0228" lon="5.53286">
        <ele>80.882318</ele>
        <time>2020-07-16T11:21:55.350Z</time>
      </trkpt>
      <trkpt lat="62.02307" lon="5.53261">
        <ele>76.747494</ele>
        <time>2020-07-16T11:21:58.385Z</time>
      </trkpt>
      <trkpt lat="62.0232" lon="5.53265">
        <ele>74.907408</ele>
        <time>2020-07-16T11:21:59.782Z</time>
      </trkpt>
      <trkpt lat="62.02376" lon="5.53316">
        <ele>66.407208</ele>
        <time>2020-07-16T11:22:06.088Z</time>
      </trkpt>
      <trkpt lat="62.02392" lon="5.53319">
        <ele>64.252632</ele>
        <time>2020-07-16T11:22:07.735Z</time>
      </trkpt>
      <trkpt lat="62.02409" lon="5.5331">
        <ele>61.70676</ele>
        <time>2020-07-16T11:22:09.683Z</time>
      </trkpt>
      <trkpt lat="62.02425" lon="5.53283">
        <ele>58.869275</ele>
        <time>2020-07-16T11:22:11.881Z</time>
      </trkpt>
      <trkpt lat="62.02461" lon="5.53133">
        <ele>52.587835</ele>
        <time>2020-07-16T11:22:20.740Z</time>
      </trkpt>
      <trkpt lat="62.02485" lon="5.53104">
        <ele>50.833014</ele>
        <time>2020-07-16T11:22:23.936Z</time>
      </trkpt>
      <trkpt lat="62.02521" lon="5.53102">
        <ele>48.585582</ele>
        <time>2020-07-16T11:22:28.071Z</time>
      </trkpt>
      <trkpt lat="62.02575" lon="5.53175">
        <ele>45.104357</ele>
        <time>2020-07-16T11:22:35.942Z</time>
      </trkpt>
      <trkpt lat="62.0259" lon="5.53183">
        <ele>45.009511</ele>
        <time>2020-07-16T11:22:39.558Z</time>
      </trkpt>
      <trkpt lat="62.02609" lon="5.53179">
        <ele>44.90144</ele>
        <time>2020-07-16T11:22:43.366Z</time>
      </trkpt>
      <trkpt lat="62.02628" lon="5.53141">
        <ele>44.745256</ele>
        <time>2020-07-16T11:22:49.518Z</time>
      </trkpt>
      <trkpt lat="62.02658" lon="5.52985">
        <ele>44.277461</ele>
        <time>2020-07-16T11:23:06.030Z</time>
      </trkpt>
      <trkpt lat="62.02662" lon="5.52974">
        <ele>44.238537</ele>
        <time>2020-07-16T11:23:09.622Z</time>
      </trkpt>
      <trkpt lat="62.02668" lon="5.52956">
        <ele>44.177308</ele>
        <time>2020-07-16T11:23:11.657Z</time>
      </trkpt>
      <trkpt lat="62.02679" lon="5.52928">
        <ele>43.855114</ele>
        <time>2020-07-16T11:23:13.668Z</time>
      </trkpt>
      <trkpt lat="62.02687" lon="5.52911">
        <ele>43.087405</ele>
        <time>2020-07-16T11:23:15.387Z</time>
      </trkpt>
      <trkpt lat="62.027" lon="5.52886">
        <ele>41.898236</ele>
        <time>2020-07-16T11:23:17.417Z</time>
      </trkpt>
      <trkpt lat="62.02731" lon="5.52847">
        <ele>39.389694</ele>
        <time>2020-07-16T11:23:21.790Z</time>
      </trkpt>
      <trkpt lat="62.02762" lon="5.5285">
        <ele>37.288136</ele>
        <time>2020-07-16T11:23:25.542Z</time>
      </trkpt>
      <trkpt lat="62.0277" lon="5.52855">
        <ele>36.706658</ele>
        <time>2020-07-16T11:23:26.454Z</time>
      </trkpt>
      <trkpt lat="62.02778" lon="5.5286">
        <ele>36.143784</ele>
        <time>2020-07-16T11:23:27.353Z</time>
      </trkpt>
      <trkpt lat="62.02808" lon="5.52887">
        <ele>33.921656</ele>
        <time>2020-07-16T11:23:31.150Z</time>
      </trkpt>
      <trkpt lat="62.02814" lon="5.52892">
        <ele>33.492306</ele>
        <time>2020-07-16T11:23:31.795Z</time>
      </trkpt>
      <trkpt lat="62.02836" lon="5.52911">
        <ele>31.830281</ele>
        <time>2020-07-16T11:23:34.408Z</time>
      </trkpt>
      <trkpt lat="62.02885" lon="5.52935">
        <ele>26.740369</ele>
        <time>2020-07-16T11:23:39.613Z</time>
      </trkpt>
      <trkpt lat="62.02992" lon="5.52829">
        <ele>14.51955</ele>
        <time>2020-07-16T11:23:52.485Z</time>
      </trkpt>
      <trkpt lat="62.03009" lon="5.52816">
        <ele>13.035878</ele>
        <time>2020-07-16T11:23:54.507Z</time>
      </trkpt>
      <trkpt lat="62.03027" lon="5.52807">
        <ele>12.303463</ele>
        <time>2020-07-16T11:23:56.836Z</time>
      </trkpt>
      <trkpt lat="62.03038" lon="5.52803">
        <ele>11.858587</ele>
        <time>2020-07-16T11:23:58.172Z</time>
      </trkpt>
      <trkpt lat="62.03053" lon="5.52796">
        <ele>11.2812</ele>
        <time>2020-07-16T11:23:59.978Z</time>
      </trkpt>
      <trkpt lat="62.03252" lon="5.52721">
        <ele>4.888973</ele>
        <time>2020-07-16T11:24:27.444Z</time>
      </trkpt>
      <trkpt lat="62.03315" lon="5.5272">
        <ele>3.72522</ele>
        <time>2020-07-16T11:24:36.863Z</time>
      </trkpt>
      <trkpt lat="62.03329" lon="5.52724">
        <ele>3.459764</ele>
        <time>2020-07-16T11:24:38.955Z</time>
      </trkpt>
      <trkpt lat="62.03332" lon="5.52726">
        <ele>3.397433</ele>
        <time>2020-07-16T11:24:39.459Z</time>
      </trkpt>
      <trkpt lat="62.03353" lon="5.52735">
        <ele>2.997544</ele>
        <time>2020-07-16T11:24:42.606Z</time>
      </trkpt>
      <trkpt lat="62.0336" lon="5.52739">
        <ele>2.881487</ele>
        <time>2020-07-16T11:24:43.543Z</time>
      </trkpt>
      <trkpt lat="62.03369" lon="5.52745">
        <ele>2.77381</ele>
        <time>2020-07-16T11:24:45.061Z</time>
      </trkpt>
      <trkpt lat="62.03384" lon="5.52757">
        <ele>2.595916</ele>
        <time>2020-07-16T11:24:47.554Z</time>
      </trkpt>
      <trkpt lat="62.0339" lon="5.52762">
        <ele>2.526445</ele>
        <time>2020-07-16T11:24:48.366Z</time>
      </trkpt>
      <trkpt lat="62.03427" lon="5.52803">
        <ele>2.074095</ele>
        <time>2020-07-16T11:24:54.587Z</time>
      </trkpt>
      <trkpt lat="62.03476" lon="5.52884">
        <ele>1.39534</ele>
        <time>2020-07-16T11:25:03.966Z</time>
      </trkpt>
      <trkpt lat="62.03478" lon="5.52886">
        <ele>1.37872</ele>
        <time>2020-07-16T11:25:04.137Z</time>
      </trkpt>
      <trkpt lat="62.03483" lon="5.52896">
        <ele>1.299343</ele>
        <time>2020-07-16T11:25:05.270Z</time>
      </trkpt>
      <trkpt lat="62.03509" lon="5.52947">
        <ele>0.944874</ele>
        <time>2020-07-16T11:25:10.666Z</time>
      </trkpt>
      <trkpt lat="62.03528" lon="5.52988">
        <ele>1.22429</ele>
        <time>2020-07-16T11:25:16.187Z</time>
      </trkpt>
      <trkpt lat="62.03546" lon="5.53024">
        <ele>1.475467</ele>
        <time>2020-07-16T11:25:21.188Z</time>
      </trkpt>
      <trkpt lat="62.0355" lon="5.53033">
        <ele>1.533806</ele>
        <time>2020-07-16T11:25:22.773Z</time>
      </trkpt>
      <trkpt lat="62.0356" lon="5.53052">
        <ele>1.675966</ele>
        <time>2020-07-16T11:25:25.235Z</time>
      </trkpt>
      <trkpt lat="62.03566" lon="5.53063">
        <ele>1.760284</ele>
        <time>2020-07-16T11:25:26.831Z</time>
      </trkpt>
      <trkpt lat="62.0358" lon="5.53082">
        <ele>1.923968</ele>
        <time>2020-07-16T11:25:31.177Z</time>
      </trkpt>
      <trkpt lat="62.03585" lon="5.5309">
        <ele>1.993225</ele>
        <time>2020-07-16T11:25:32.288Z</time>
      </trkpt>
      <trkpt lat="62.03591" lon="5.53096">
        <ele>2.059413</ele>
        <time>2020-07-16T11:25:33.508Z</time>
      </trkpt>
      <trkpt lat="62.03597" lon="5.53101">
        <ele>2.125193</ele>
        <time>2020-07-16T11:25:34.788Z</time>
      </trkpt>
      <trkpt lat="62.03602" lon="5.53105">
        <ele>2.177553</ele>
        <time>2020-07-16T11:25:36.091Z</time>
      </trkpt>
      <trkpt lat="62.03609" lon="5.5311">
        <ele>2.25115</ele>
        <time>2020-07-16T11:25:38.328Z</time>
      </trkpt>
      <trkpt lat="62.03615" lon="5.53113">
        <ele>2.315582</ele>
        <time>2020-07-16T11:25:39.772Z</time>
      </trkpt>
      <trkpt lat="62.03631" lon="5.53117">
        <ele>2.482422</ele>
        <time>2020-07-16T11:25:42.891Z</time>
      </trkpt>
      <trkpt lat="62.03644" lon="5.53119">
        <ele>2.621403</ele>
        <time>2020-07-16T11:25:46.617Z</time>
      </trkpt>
      <trkpt lat="62.03671" lon="5.53114">
        <ele>3.042688</ele>
        <time>2020-07-16T11:25:52.097Z</time>
      </trkpt>
      <trkpt lat="62.0368" lon="5.53109">
        <ele>3.247532</ele>
        <time>2020-07-16T11:25:54.800Z</time>
      </trkpt>
      <trkpt lat="62.03685" lon="5.53106">
        <ele>3.357361</ele>
        <time>2020-07-16T11:25:55.897Z</time>
      </trkpt>
      <trkpt lat="62.03712" lon="5.53079">
        <ele>4.026798</ele>
        <time>2020-07-16T11:26:02.872Z</time>
      </trkpt>
      <trkpt lat="62.03751" lon="5.53006">
        <ele>5.196959</ele>
        <time>2020-07-16T11:26:15.498Z</time>
      </trkpt>
      <trkpt lat="62.03752" lon="5.53005">
        <ele>5.212346</ele>
        <time>2020-07-16T11:26:15.680Z</time>
      </trkpt>
      <trkpt lat="62.03779" lon="5.52955">
        <ele>6.014415</ele>
        <time>2020-07-16T11:26:25.369Z</time>
      </trkpt>
      <trkpt lat="62.03797" lon="5.52922">
        <ele>6.551767</ele>
        <time>2020-07-16T11:26:32.263Z</time>
      </trkpt>
      <trkpt lat="62.03812" lon="5.529">
        <ele>7.078266</ele>
        <time>2020-07-16T11:26:36.649Z</time>
      </trkpt>
      <trkpt lat="62.03829" lon="5.52874">
        <ele>7.93178</ele>
        <time>2020-07-16T11:26:42.382Z</time>
      </trkpt>
      <trkpt lat="62.03883" lon="5.52808">
        <ele>10.469023</ele>
        <time>2020-07-16T11:26:58.473Z</time>
      </trkpt>
      <trkpt lat="62.03904" lon="5.52787">
        <ele>11.43252</ele>
        <time>2020-07-16T11:27:05.602Z</time>
      </trkpt>
      <trkpt lat="62.0393" lon="5.52765">
        <ele>12.582801</ele>
        <time>2020-07-16T11:27:15.818Z</time>
      </trkpt>
      <trkpt lat="62.0402" lon="5.52711">
        <ele>17.834583</ele>
        <time>2020-07-16T11:27:50.857Z</time>
      </trkpt>
      <trkpt lat="62.04029" lon="5.52708">
        <ele>18.401662</ele>
        <time>2020-07-16T11:27:54.851Z</time>
      </trkpt>
      <trkpt lat="62.04046" lon="5.52704">
        <ele>19.570738</ele>
        <time>2020-07-16T11:28:01.594Z</time>
      </trkpt>
      <trkpt lat="62.04079" lon="5.527">
        <ele>21.73474</ele>
        <time>2020-07-16T11:28:14.614Z</time>
      </trkpt>
      <trkpt lat="62.04125" lon="5.52701">
        <ele>24.803007</ele>
        <time>2020-07-16T11:28:32.571Z</time>
      </trkpt>
      <trkpt lat="62.04195" lon="5.5272">
        <ele>28.50536</ele>
        <time>2020-07-16T11:29:01.935Z</time>
      </trkpt>
      <trkpt lat="62.04256" lon="5.52754">
        <ele>31.444441</ele>
        <time>2020-07-16T11:29:24.059Z</time>
      </trkpt>
      <trkpt lat="62.04317" lon="5.52809">
        <ele>34.557295</ele>
        <time>2020-07-16T11:29:42.305Z</time>
      </trkpt>
      <trkpt lat="62.0433" lon="5.52823">
        <ele>34.330987</ele>
        <time>2020-07-16T11:29:45.782Z</time>
      </trkpt>
      <trkpt lat="62.04344" lon="5.52838">
        <ele>34.091527</ele>
        <time>2020-07-16T11:29:48.990Z</time>
      </trkpt>
      <trkpt lat="62.04437" lon="5.52935">
        <ele>32.471871</ele>
        <time>2020-07-16T11:30:03.967Z</time>
      </trkpt>
      <trkpt lat="62.04484" lon="5.52969">
        <ele>31.596444</ele>
        <time>2020-07-16T11:30:10.266Z</time>
      </trkpt>
      <trkpt lat="62.0453" lon="5.52989">
        <ele>29.815082</ele>
        <time>2020-07-16T11:30:16.007Z</time>
      </trkpt>
      <trkpt lat="62.04537" lon="5.52993">
        <ele>29.550795</ele>
        <time>2020-07-16T11:30:16.765Z</time>
      </trkpt>
      <trkpt lat="62.04545" lon="5.52995">
        <ele>29.230346</ele>
        <time>2020-07-16T11:30:17.826Z</time>
      </trkpt>
      <trkpt lat="62.04635" lon="5.53025">
        <ele>25.739715</ele>
        <time>2020-07-16T11:30:29.463Z</time>
      </trkpt>
      <trkpt lat="62.0469" lon="5.53034">
        <ele>24.338296</ele>
        <time>2020-07-16T11:30:36.508Z</time>
      </trkpt>
      <trkpt lat="62.04751" lon="5.53011">
        <ele>23.335701</ele>
        <time>2020-07-16T11:30:46.062Z</time>
      </trkpt>
      <trkpt lat="62.04912" lon="5.52888">
        <ele>21.073782</ele>
        <time>2020-07-16T11:31:12.593Z</time>
      </trkpt>
      <trkpt lat="62.05024" lon="5.52779">
        <ele>20.682684</ele>
        <time>2020-07-16T11:31:31.235Z</time>
      </trkpt>
      <trkpt lat="62.05038" lon="5.52765">
        <ele>20.991536</ele>
        <time>2020-07-16T11:31:33.586Z</time>
      </trkpt>
      <trkpt lat="62.05067" lon="5.52734">
        <ele>21.663904</ele>
        <time>2020-07-16T11:31:40.339Z</time>
      </trkpt>
      <trkpt lat="62.05109" lon="5.52703">
        <ele>22.571835</ele>
        <time>2020-07-16T11:31:51.498Z</time>
      </trkpt>
      <trkpt lat="62.0517" lon="5.52691">
        <ele>23.868879</ele>
        <time>2020-07-16T11:32:10.543Z</time>
      </trkpt>
      <trkpt lat="62.05209" lon="5.52701">
        <ele>26.143386</ele>
        <time>2020-07-16T11:32:25.699Z</time>
      </trkpt>
      <trkpt lat="62.05316" lon="5.52754">
        <ele>32.392231</ele>
        <time>2020-07-16T11:33:08.813Z</time>
      </trkpt>
      <trkpt lat="62.05382" lon="5.5275">
        <ele>34.285313</ele>
        <time>2020-07-16T11:33:29.884Z</time>
      </trkpt>
      <trkpt lat="62.05433" lon="5.52716">
        <ele>34.681079</ele>
        <time>2020-07-16T11:33:42.842Z</time>
      </trkpt>
      <trkpt lat="62.05656" lon="5.52521">
        <ele>32.09509</ele>
        <time>2020-07-16T11:34:16.813Z</time>
      </trkpt>
      <trkpt lat="62.05741" lon="5.52474">
        <ele>29.97684</ele>
        <time>2020-07-16T11:34:28.670Z</time>
      </trkpt>
      <trkpt lat="62.05807" lon="5.52454">
        <ele>28.306382</ele>
        <time>2020-07-16T11:34:37.555Z</time>
      </trkpt>
      <trkpt lat="62.05824" lon="5.52451">
        <ele>27.873942</ele>
        <time>2020-07-16T11:34:39.881Z</time>
      </trkpt>
      <trkpt lat="62.0584" lon="5.52448">
        <ele>27.461257</ele>
        <time>2020-07-16T11:34:42.077Z</time>
      </trkpt>
      <trkpt lat="62.05873" lon="5.52446">
        <ele>26.730039</ele>
        <time>2020-07-16T11:34:46.689Z</time>
      </trkpt>
      <trkpt lat="62.05905" lon="5.52447">
        <ele>26.224771</ele>
        <time>2020-07-16T11:34:50.989Z</time>
      </trkpt>
      <trkpt lat="62.05916" lon="5.52448">
        <ele>26.039571</ele>
        <time>2020-07-16T11:34:52.521Z</time>
      </trkpt>
      <trkpt lat="62.05984" lon="5.5245">
        <ele>24.92994</ele>
        <time>2020-07-16T11:35:02.095Z</time>
      </trkpt>
      <trkpt lat="62.06104" lon="5.52416">
        <ele>23.730053</ele>
        <time>2020-07-16T11:35:22.731Z</time>
      </trkpt>
      <trkpt lat="62.06142" lon="5.52424">
        <ele>23.5562</ele>
        <time>2020-07-16T11:35:29.405Z</time>
      </trkpt>
      <trkpt lat="62.06227" lon="5.52467">
        <ele>23.044711</ele>
        <time>2020-07-16T11:35:43.463Z</time>
      </trkpt>
      <trkpt lat="62.06242" lon="5.52471">
        <ele>22.824714</ele>
        <time>2020-07-16T11:35:47.063Z</time>
      </trkpt>
      <trkpt lat="62.06252" lon="5.52473">
        <ele>22.660096</ele>
        <time>2020-07-16T11:35:48.383Z</time>
      </trkpt>
      <trkpt lat="62.06283" lon="5.52471">
        <ele>22.190788</ele>
        <time>2020-07-16T11:35:53.342Z</time>
      </trkpt>
      <trkpt lat="62.06422" lon="5.52404">
        <ele>20.266684</ele>
        <time>2020-07-16T11:36:13.241Z</time>
      </trkpt>
      <trkpt lat="62.06494" lon="5.52384">
        <ele>19.734252</ele>
        <time>2020-07-16T11:36:24.309Z</time>
      </trkpt>
      <trkpt lat="62.06557" lon="5.52378">
        <ele>19.26976</ele>
        <time>2020-07-16T11:36:35.921Z</time>
      </trkpt>
      <trkpt lat="62.0669" lon="5.52391">
        <ele>19.844126</ele>
        <time>2020-07-16T11:37:02.008Z</time>
      </trkpt>
      <trkpt lat="62.06715" lon="5.52393">
        <ele>19.988776</ele>
        <time>2020-07-16T11:37:07.053Z</time>
      </trkpt>
      <trkpt lat="62.06769" lon="5.52401">
        <ele>20.49121</ele>
        <time>2020-07-16T11:37:17.408Z</time>
      </trkpt>
      <trkpt lat="62.06857" lon="5.52417">
        <ele>21.970262</ele>
        <time>2020-07-16T11:37:36.118Z</time>
      </trkpt>
      <trkpt lat="62.06922" lon="5.52462">
        <ele>23.109118</ele>
        <time>2020-07-16T11:37:52.738Z</time>
      </trkpt>
      <trkpt lat="62.06952" lon="5.52497">
        <ele>24.874795</ele>
        <time>2020-07-16T11:38:02.979Z</time>
      </trkpt>
      <trkpt lat="62.07048" lon="5.52646">
        <ele>31.678288</ele>
        <time>2020-07-16T11:38:45.454Z</time>
      </trkpt>
      <trkpt lat="62.0714" lon="5.52691">
        <ele>39.997278</ele>
        <time>2020-07-16T11:39:28.514Z</time>
      </trkpt>
      <trkpt lat="62.07163" lon="5.52712">
        <ele>42.602379</ele>
        <time>2020-07-16T11:39:40.894Z</time>
      </trkpt>
      <trkpt lat="62.07184" lon="5.52751">
        <ele>45.510555</ele>
        <time>2020-07-16T11:39:55.269Z</time>
      </trkpt>
      <trkpt lat="62.07199" lon="5.52799">
        <ele>48.367317</ele>
        <time>2020-07-16T11:40:09.837Z</time>
      </trkpt>
      <trkpt lat="62.0729" lon="5.53304">
        <ele>80.282397</ele>
        <time>2020-07-16T11:42:43.948Z</time>
      </trkpt>
      <trkpt lat="62.07349" lon="5.53634">
        <ele>97.344729</ele>
        <time>2020-07-16T11:44:16.579Z</time>
      </trkpt>
      <trkpt lat="62.07359" lon="5.5374">
        <ele>97.783308</ele>
        <time>2020-07-16T11:44:33.082Z</time>
      </trkpt>
      <trkpt lat="62.0737" lon="5.54021">
        <ele>97.06119</ele>
        <time>2020-07-16T11:44:50.217Z</time>
      </trkpt>
      <trkpt lat="62.07417" lon="5.54302">
        <ele>87.292212</ele>
        <time>2020-07-16T11:45:05.887Z</time>
      </trkpt>
      <trkpt lat="62.07418" lon="5.5438">
        <ele>85.132109</ele>
        <time>2020-07-16T11:45:10.074Z</time>
      </trkpt>
      <trkpt lat="62.07412" lon="5.54423">
        <ele>84.081756</ele>
        <time>2020-07-16T11:45:12.516Z</time>
      </trkpt>
      <trkpt lat="62.074" lon="5.54469">
        <ele>82.849047</ele>
        <time>2020-07-16T11:45:15.452Z</time>
      </trkpt>
      <trkpt lat="62.07372" lon="5.54531">
        <ele>80.816115</ele>
        <time>2020-07-16T11:45:20.436Z</time>
      </trkpt>
      <trkpt lat="62.07313" lon="5.54628">
        <ele>77.075485</ele>
        <time>2020-07-16T11:45:30.177Z</time>
      </trkpt>
      <trkpt lat="62.07279" lon="5.54684">
        <ele>74.695678</ele>
        <time>2020-07-16T11:45:35.527Z</time>
      </trkpt>
      <trkpt lat="62.07254" lon="5.54725">
        <ele>72.966364</ele>
        <time>2020-07-16T11:45:39.293Z</time>
      </trkpt>
      <trkpt lat="62.07206" lon="5.54818">
        <ele>69.412597</ele>
        <time>2020-07-16T11:45:46.936Z</time>
      </trkpt>
      <trkpt lat="62.07189" lon="5.54862">
        <ele>67.931136</ele>
        <time>2020-07-16T11:45:50.263Z</time>
      </trkpt>
      <trkpt lat="62.07186" lon="5.54872">
        <ele>67.629214</ele>
        <time>2020-07-16T11:45:50.924Z</time>
      </trkpt>
      <trkpt lat="62.07184" lon="5.54878">
        <ele>67.44855</ele>
        <time>2020-07-16T11:45:51.263Z</time>
      </trkpt>
      <trkpt lat="62.07129" lon="5.55062">
        <ele>61.171951</ele>
        <time>2020-07-16T11:46:02.847Z</time>
      </trkpt>
      <trkpt lat="62.07094" lon="5.55154">
        <ele>57.734661</ele>
        <time>2020-07-16T11:46:09.118Z</time>
      </trkpt>
      <trkpt lat="62.07058" lon="5.55228">
        <ele>56.897307</ele>
        <time>2020-07-16T11:46:16.252Z</time>
      </trkpt>
      <trkpt lat="62.07036" lon="5.5527">
        <ele>57.879083</ele>
        <time>2020-07-16T11:46:21.928Z</time>
      </trkpt>
      <trkpt lat="62.06987" lon="5.55363">
        <ele>60.08436</ele>
        <time>2020-07-16T11:46:40.474Z</time>
      </trkpt>
      <trkpt lat="62.06965" lon="5.55405">
        <ele>61.080597</ele>
        <time>2020-07-16T11:46:51.319Z</time>
      </trkpt>
      <trkpt lat="62.06943" lon="5.55448">
        <ele>62.0691</ele>
        <time>2020-07-16T11:47:03.566Z</time>
      </trkpt>
      <trkpt lat="62.06884" lon="5.55577">
        <ele>71.869539</ele>
        <time>2020-07-16T11:47:50.210Z</time>
      </trkpt>
      <trkpt lat="62.06869" lon="5.55636">
        <ele>75.588329</ele>
        <time>2020-07-16T11:48:10.454Z</time>
      </trkpt>
      <trkpt lat="62.06853" lon="5.55748">
        <ele>82.038852</ele>
        <time>2020-07-16T11:48:44.554Z</time>
      </trkpt>
      <trkpt lat="62.06847" lon="5.55799">
        <ele>84.613765</ele>
        <time>2020-07-16T11:48:57.626Z</time>
      </trkpt>
      <trkpt lat="62.06844" lon="5.55814">
        <ele>85.277633</ele>
        <time>2020-07-16T11:49:03.668Z</time>
      </trkpt>
      <trkpt lat="62.06759" lon="5.56253">
        <ele>99.550855</ele>
        <time>2020-07-16T11:50:42.596Z</time>
      </trkpt>
      <trkpt lat="62.06684" lon="5.56722">
        <ele>91.209871</ele>
        <time>2020-07-16T11:51:10.359Z</time>
      </trkpt>
      <trkpt lat="62.06675" lon="5.56776">
        <ele>89.374903</ele>
        <time>2020-07-16T11:51:13.317Z</time>
      </trkpt>
      <trkpt lat="62.06652" lon="5.56956">
        <ele>83.370937</ele>
        <time>2020-07-16T11:51:23.003Z</time>
      </trkpt>
      <trkpt lat="62.06634" lon="5.57206">
        <ele>75.056356</ele>
        <time>2020-07-16T11:51:36.764Z</time>
      </trkpt>
      <trkpt lat="62.06627" lon="5.57467">
        <ele>68.699053</ele>
        <time>2020-07-16T11:51:51.867Z</time>
      </trkpt>
      <trkpt lat="62.06632" lon="5.57758">
        <ele>62.568571</ele>
        <time>2020-07-16T11:52:08.278Z</time>
      </trkpt>
      <trkpt lat="62.06653" lon="5.58067">
        <ele>58.989046</ele>
        <time>2020-07-16T11:52:26.998Z</time>
      </trkpt>
      <trkpt lat="62.06694" lon="5.58401">
        <ele>63.835669</ele>
        <time>2020-07-16T11:53:14.882Z</time>
      </trkpt>
      <trkpt lat="62.06702" lon="5.58448">
        <ele>65.898529</ele>
        <time>2020-07-16T11:53:25.461Z</time>
      </trkpt>
      <trkpt lat="62.06719" lon="5.58549">
        <ele>70.305866</ele>
        <time>2020-07-16T11:53:49.785Z</time>
      </trkpt>
      <trkpt lat="62.06774" lon="5.5881">
        <ele>80.866459</ele>
        <time>2020-07-16T11:54:58.785Z</time>
      </trkpt>
      <trkpt lat="62.06835" lon="5.59026">
        <ele>88.083382</ele>
        <time>2020-07-16T11:55:41.875Z</time>
      </trkpt>
      <trkpt lat="62.06849" lon="5.59123">
        <ele>87.534811</ele>
        <time>2020-07-16T11:55:53.112Z</time>
      </trkpt>
      <trkpt lat="62.06848" lon="5.59168">
        <ele>86.410568</ele>
        <time>2020-07-16T11:55:56.140Z</time>
      </trkpt>
      <trkpt lat="62.0684" lon="5.59218">
        <ele>85.103378</ele>
        <time>2020-07-16T11:55:59.120Z</time>
      </trkpt>
      <trkpt lat="62.0682" lon="5.59273">
        <ele>83.388231</ele>
        <time>2020-07-16T11:56:02.864Z</time>
      </trkpt>
      <trkpt lat="62.06779" lon="5.59349">
        <ele>80.511785</ele>
        <time>2020-07-16T11:56:08.896Z</time>
      </trkpt>
      <trkpt lat="62.06764" lon="5.59384">
        <ele>78.975063</ele>
        <time>2020-07-16T11:56:11.331Z</time>
      </trkpt>
      <trkpt lat="62.0676" lon="5.59396">
        <ele>78.084737</ele>
        <time>2020-07-16T11:56:12.140Z</time>
      </trkpt>
      <trkpt lat="62.06753" lon="5.59413">
        <ele>76.781124</ele>
        <time>2020-07-16T11:56:13.230Z</time>
      </trkpt>
      <trkpt lat="62.06718" lon="5.59511">
        <ele>69.72989</ele>
        <time>2020-07-16T11:56:19.319Z</time>
      </trkpt>
      <trkpt lat="62.067" lon="5.59546">
        <ele>66.741581</ele>
        <time>2020-07-16T11:56:21.855Z</time>
      </trkpt>
      <trkpt lat="62.06674" lon="5.59572">
        <ele>63.176551</ele>
        <time>2020-07-16T11:56:24.901Z</time>
      </trkpt>
      <trkpt lat="62.06649" lon="5.59586">
        <ele>60.014976</ele>
        <time>2020-07-16T11:56:27.649Z</time>
      </trkpt>
      <trkpt lat="62.06621" lon="5.59595">
        <ele>56.82353</ele>
        <time>2020-07-16T11:56:30.678Z</time>
      </trkpt>
      <trkpt lat="62.06552" lon="5.59619">
        <ele>50.747634</ele>
        <time>2020-07-16T11:56:38.486Z</time>
      </trkpt>
      <trkpt lat="62.06434" lon="5.59679">
        <ele>40.203293</ele>
        <time>2020-07-16T11:56:52.189Z</time>
      </trkpt>
      <trkpt lat="62.06413" lon="5.59692">
        <ele>38.281032</ele>
        <time>2020-07-16T11:56:54.659Z</time>
      </trkpt>
      <trkpt lat="62.06323" lon="5.59743">
        <ele>30.155666</ele>
        <time>2020-07-16T11:57:04.963Z</time>
      </trkpt>
      <trkpt lat="62.06262" lon="5.59776">
        <ele>24.889511</ele>
        <time>2020-07-16T11:57:11.909Z</time>
      </trkpt>
      <trkpt lat="62.06253" lon="5.59781">
        <ele>24.222727</ele>
        <time>2020-07-16T11:57:12.915Z</time>
      </trkpt>
      <trkpt lat="62.06171" lon="5.59826">
        <ele>18.109938</ele>
        <time>2020-07-16T11:57:22.320Z</time>
      </trkpt>
      <trkpt lat="62.06081" lon="5.59873">
        <ele>12.34029</ele>
        <time>2020-07-16T11:57:33.463Z</time>
      </trkpt>
      <trkpt lat="62.06033" lon="5.59892">
        <ele>10.830945</ele>
        <time>2020-07-16T11:57:39.752Z</time>
      </trkpt>
      <trkpt lat="62.06016" lon="5.59898">
        <ele>10.31565</ele>
        <time>2020-07-16T11:57:41.979Z</time>
      </trkpt>
      <trkpt lat="62.05974" lon="5.59911">
        <ele>9.022513</ele>
        <time>2020-07-16T11:57:47.696Z</time>
      </trkpt>
      <trkpt lat="62.05847" lon="5.59945">
        <ele>6.886272</ele>
        <time>2020-07-16T11:58:06.653Z</time>
      </trkpt>
      <trkpt lat="62.05807" lon="5.59955">
        <ele>6.55387</ele>
        <time>2020-07-16T11:58:13.341Z</time>
      </trkpt>
      <trkpt lat="62.05789" lon="5.59959">
        <ele>6.404481</ele>
        <time>2020-07-16T11:58:16.365Z</time>
      </trkpt>
      <trkpt lat="62.05709" lon="5.59982">
        <ele>6.277033</ele>
        <time>2020-07-16T11:58:30.797Z</time>
      </trkpt>
      <trkpt lat="62.05674" lon="5.59994">
        <ele>6.45726</ele>
        <time>2020-07-16T11:58:37.583Z</time>
      </trkpt>
      <trkpt lat="62.0566" lon="5.59999">
        <ele>6.528673</ele>
        <time>2020-07-16T11:58:40.351Z</time>
      </trkpt>
      <trkpt lat="62.05586" lon="5.60026">
        <ele>6.910024</ele>
        <time>2020-07-16T11:58:55.190Z</time>
      </trkpt>
      <trkpt lat="62.05585" lon="5.60027">
        <ele>6.914696</ele>
        <time>2020-07-16T11:58:55.551Z</time>
      </trkpt>
      <trkpt lat="62.05546" lon="5.60041">
        <ele>7.490823</ele>
        <time>2020-07-16T11:59:03.691Z</time>
      </trkpt>
      <trkpt lat="62.05474" lon="5.60069">
        <ele>8.964874</ele>
        <time>2020-07-16T11:59:20.635Z</time>
      </trkpt>
      <trkpt lat="62.05448" lon="5.60079">
        <ele>9.500966</ele>
        <time>2020-07-16T11:59:26.957Z</time>
      </trkpt>
      <trkpt lat="62.05412" lon="5.60095">
        <ele>10.231493</ele>
        <time>2020-07-16T11:59:36.748Z</time>
      </trkpt>
      <trkpt lat="62.05407" lon="5.60097">
        <ele>10.353288</ele>
        <time>2020-07-16T11:59:38.602Z</time>
      </trkpt>
      <trkpt lat="62.05395" lon="5.60104">
        <ele>10.58605</ele>
        <time>2020-07-16T11:59:41.626Z</time>
      </trkpt>
      <trkpt lat="62.05371" lon="5.60119">
        <ele>11.465221</ele>
        <time>2020-07-16T11:59:48.997Z</time>
      </trkpt>
      <trkpt lat="62.05315" lon="5.60158">
        <ele>13.508239</ele>
        <time>2020-07-16T12:00:06.064Z</time>
      </trkpt>
      <trkpt lat="62.05297" lon="5.60174">
        <ele>14.184358</ele>
        <time>2020-07-16T12:00:12.118Z</time>
      </trkpt>
      <trkpt lat="62.05287" lon="5.60184">
        <ele>14.578301</ele>
        <time>2020-07-16T12:00:15.149Z</time>
      </trkpt>
      <trkpt lat="62.05282" lon="5.6019">
        <ele>14.778316</ele>
        <time>2020-07-16T12:00:16.824Z</time>
      </trkpt>
      <trkpt lat="62.05268" lon="5.60206">
        <ele>15.330633</ele>
        <time>2020-07-16T12:00:21.933Z</time>
      </trkpt>
      <trkpt lat="62.05241" lon="5.60228">
        <ele>16.327262</ele>
        <time>2020-07-16T12:00:30.251Z</time>
      </trkpt>
      <trkpt lat="62.05221" lon="5.60248">
        <ele>17.006742</ele>
        <time>2020-07-16T12:00:36.724Z</time>
      </trkpt>
      <trkpt lat="62.05217" lon="5.60251">
        <ele>17.071513</ele>
        <time>2020-07-16T12:00:37.673Z</time>
      </trkpt>
      <trkpt lat="62.05168" lon="5.60298">
        <ele>18.053781</ele>
        <time>2020-07-16T12:00:53.181Z</time>
      </trkpt>
      <trkpt lat="62.05157" lon="5.60309">
        <ele>18.27731</ele>
        <time>2020-07-16T12:00:56.417Z</time>
      </trkpt>
      <trkpt lat="62.05143" lon="5.60322">
        <ele>18.559961</ele>
        <time>2020-07-16T12:01:00.455Z</time>
      </trkpt>
      <trkpt lat="62.05103" lon="5.60361">
        <ele>19.367666</ele>
        <time>2020-07-16T12:01:09.905Z</time>
      </trkpt>
      <trkpt lat="62.0507" lon="5.60395">
        <ele>20.036174</ele>
        <time>2020-07-16T12:01:16.778Z</time>
      </trkpt>
      <trkpt lat="62.05059" lon="5.60409">
        <ele>20.13213</ele>
        <time>2020-07-16T12:01:18.855Z</time>
      </trkpt>
      <trkpt lat="62.05049" lon="5.60424">
        <ele>20.042696</ele>
        <time>2020-07-16T12:01:21.140Z</time>
      </trkpt>
      <trkpt lat="62.05032" lon="5.60458">
        <ele>19.871684</ele>
        <time>2020-07-16T12:01:24.773Z</time>
      </trkpt>
      <trkpt lat="62.0502" lon="5.60486">
        <ele>19.745041</ele>
        <time>2020-07-16T12:01:27.767Z</time>
      </trkpt>
      <trkpt lat="62.05012" lon="5.60511">
        <ele>19.640902</ele>
        <time>2020-07-16T12:01:29.789Z</time>
      </trkpt>
      <trkpt lat="62.04999" lon="5.60565">
        <ele>19.434677</ele>
        <time>2020-07-16T12:01:34.095Z</time>
      </trkpt>
      <trkpt lat="62.04951" lon="5.60869">
        <ele>20.453353</ele>
        <time>2020-07-16T12:01:57.663Z</time>
      </trkpt>
      <trkpt lat="62.04936" lon="5.60964">
        <ele>21.496542</ele>
        <time>2020-07-16T12:02:11.423Z</time>
      </trkpt>
      <trkpt lat="62.04929" lon="5.61004">
        <ele>21.941125</ele>
        <time>2020-07-16T12:02:17.842Z</time>
      </trkpt>
      <trkpt lat="62.04916" lon="5.61097">
        <ele>23.059382</ele>
        <time>2020-07-16T12:02:32.562Z</time>
      </trkpt>
      <trkpt lat="62.04906" lon="5.61163">
        <ele>24.534653</ele>
        <time>2020-07-16T12:02:43.879Z</time>
      </trkpt>
      <trkpt lat="62.04902" lon="5.61196">
        <ele>25.253733</ele>
        <time>2020-07-16T12:02:50.426Z</time>
      </trkpt>
      <trkpt lat="62.04894" lon="5.61347">
        <ele>28.481876</ele>
        <time>2020-07-16T12:03:17.158Z</time>
      </trkpt>
      <trkpt lat="62.04907" lon="5.61603">
        <ele>30.228706</ele>
        <time>2020-07-16T12:03:47.075Z</time>
      </trkpt>
      <trkpt lat="62.04918" lon="5.61698">
        <ele>29.674014</ele>
        <time>2020-07-16T12:03:53.755Z</time>
      </trkpt>
      <trkpt lat="62.04937" lon="5.61806">
        <ele>29.025029</ele>
        <time>2020-07-16T12:04:00.636Z</time>
      </trkpt>
      <trkpt lat="62.04951" lon="5.61857">
        <ele>28.146924</ele>
        <time>2020-07-16T12:04:04.007Z</time>
      </trkpt>
      <trkpt lat="62.04975" lon="5.61893">
        <ele>26.558992</ele>
        <time>2020-07-16T12:04:07.554Z</time>
      </trkpt>
      <trkpt lat="62.05043" lon="5.61917">
        <ele>22.774313</ele>
        <time>2020-07-16T12:04:15.714Z</time>
      </trkpt>
      <trkpt lat="62.05057" lon="5.61921">
        <ele>22.025005</ele>
        <time>2020-07-16T12:04:17.257Z</time>
      </trkpt>
      <trkpt lat="62.05072" lon="5.61928">
        <ele>21.176818</ele>
        <time>2020-07-16T12:04:19.169Z</time>
      </trkpt>
      <trkpt lat="62.05083" lon="5.61935">
        <ele>20.577909</ele>
        <time>2020-07-16T12:04:20.468Z</time>
      </trkpt>
      <trkpt lat="62.05114" lon="5.61963">
        <ele>18.786916</ele>
        <time>2020-07-16T12:04:24.577Z</time>
      </trkpt>
      <trkpt lat="62.05131" lon="5.61984">
        <ele>17.955168</ele>
        <time>2020-07-16T12:04:26.922Z</time>
      </trkpt>
      <trkpt lat="62.05133" lon="5.61975">
        <ele>17.765444</ele>
        <time>2020-07-16T12:04:27.705Z</time>
      </trkpt>
      <trkpt lat="62.05161" lon="5.62004">
        <ele>16.442624</ele>
        <time>2020-07-16T12:04:31.661Z</time>
      </trkpt>
      <trkpt lat="62.05282" lon="5.62155">
        <ele>11.151453</ele>
        <time>2020-07-16T12:04:50.347Z</time>
      </trkpt>
      <trkpt lat="62.0529" lon="5.62166">
        <ele>11.011931</ele>
        <time>2020-07-16T12:04:51.673Z</time>
      </trkpt>
      <trkpt lat="62.05295" lon="5.62172">
        <ele>10.930743</ele>
        <time>2020-07-16T12:04:52.551Z</time>
      </trkpt>
      <trkpt lat="62.05303" lon="5.62183">
        <ele>10.800379</ele>
        <time>2020-07-16T12:04:53.920Z</time>
      </trkpt>
      <trkpt lat="62.05328" lon="5.62214">
        <ele>10.398847</ele>
        <time>2020-07-16T12:04:58.187Z</time>
      </trkpt>
      <trkpt lat="62.0536" lon="5.62255">
        <ele>9.873899</ele>
        <time>2020-07-16T12:05:04.039Z</time>
      </trkpt>
      <trkpt lat="62.05374" lon="5.62271">
        <ele>9.655548</ele>
        <time>2020-07-16T12:05:06.833Z</time>
      </trkpt>
      <trkpt lat="62.05407" lon="5.62287">
        <ele>9.180589</ele>
        <time>2020-07-16T12:05:12.949Z</time>
      </trkpt>
      <trkpt lat="62.05441" lon="5.62277">
        <ele>9.343408</ele>
        <time>2020-07-16T12:05:19.494Z</time>
      </trkpt>
      <trkpt lat="62.05466" lon="5.62256">
        <ele>10.010232</ele>
        <time>2020-07-16T12:05:25.890Z</time>
      </trkpt>
      <trkpt lat="62.05479" lon="5.62245">
        <ele>10.349168</ele>
        <time>2020-07-16T12:05:28.985Z</time>
      </trkpt>
      <trkpt lat="62.05491" lon="5.62236">
        <ele>10.660366</ele>
        <time>2020-07-16T12:05:31.771Z</time>
      </trkpt>
      <trkpt lat="62.05493" lon="5.62242">
        <ele>10.737945</ele>
        <time>2020-07-16T12:05:33.256Z</time>
      </trkpt>
      <trkpt lat="62.05494" lon="5.62249">
        <ele>10.818663</ele>
        <time>2020-07-16T12:05:34.753Z</time>
      </trkpt>
      <trkpt lat="62.05501" lon="5.62241">
        <ele>11.021794</ele>
        <time>2020-07-16T12:05:36.720Z</time>
      </trkpt>
      <trkpt lat="62.0552" lon="5.62224">
        <ele>11.522128</ele>
        <time>2020-07-16T12:05:41.219Z</time>
      </trkpt>
      <trkpt lat="62.05522" lon="5.62228">
        <ele>11.57831</ele>
        <time>2020-07-16T12:05:42.449Z</time>
      </trkpt>
      <trkpt lat="62.0553" lon="5.6223">
        <ele>11.783497</ele>
        <time>2020-07-16T12:05:45.476Z</time>
      </trkpt>
      <trkpt lat="62.05621" lon="5.62148">
        <ele>14.804032</ele>
        <time>2020-07-16T12:06:14.805Z</time>
      </trkpt>
      <trkpt lat="62.05623" lon="5.62145">
        <ele>14.933033</ele>
        <time>2020-07-16T12:06:16.347Z</time>
      </trkpt>
      <trkpt lat="62.05625" lon="5.62149">
        <ele>15.052366</ele>
        <time>2020-07-16T12:06:17.660Z</time>
      </trkpt>
      <trkpt lat="62.05632" lon="5.62159">
        <ele>15.391643</ele>
        <time>2020-07-16T12:06:19.891Z</time>
      </trkpt>
      <trkpt lat="62.05642" lon="5.62157">
        <ele>15.810982</ele>
        <time>2020-07-16T12:06:23.037Z</time>
      </trkpt>
      <trkpt lat="62.0569" lon="5.62101">
        <ele>18.106188</ele>
        <time>2020-07-16T12:06:40.271Z</time>
      </trkpt>
      <trkpt lat="62.05701" lon="5.6209">
        <ele>18.609512</ele>
        <time>2020-07-16T12:06:43.705Z</time>
      </trkpt>
      <trkpt lat="62.05701" lon="5.62087">
        <ele>18.679152</ele>
        <time>2020-07-16T12:06:44.655Z</time>
      </trkpt>
      <trkpt lat="62.05722" lon="5.62054">
        <ele>19.763818</ele>
        <time>2020-07-16T12:06:53.211Z</time>
      </trkpt>
      <trkpt lat="62.05759" lon="5.62036">
        <ele>21.298998</ele>
        <time>2020-07-16T12:07:06.536Z</time>
      </trkpt>
      <trkpt lat="62.05802" lon="5.62037">
        <ele>22.793222</ele>
        <time>2020-07-16T12:07:20.536Z</time>
      </trkpt>
      <trkpt lat="62.05846" lon="5.62055">
        <ele>24.399549</ele>
        <time>2020-07-16T12:07:35.292Z</time>
      </trkpt>
      <trkpt lat="62.05856" lon="5.62058">
        <ele>24.748771</ele>
        <time>2020-07-16T12:07:38.964Z</time>
      </trkpt>
      <trkpt lat="62.05856" lon="5.62048">
        <ele>24.90806</ele>
        <time>2020-07-16T12:07:40.135Z</time>
      </trkpt>
      <trkpt lat="62.0588" lon="5.62059">
        <ele>25.781257</ele>
        <time>2020-07-16T12:07:47.080Z</time>
      </trkpt>
      <trkpt lat="62.05911" lon="5.62076">
        <ele>26.898617</ele>
        <time>2020-07-16T12:07:54.602Z</time>
      </trkpt>
      <trkpt lat="62.05935" lon="5.62088">
        <ele>26.975468</ele>
        <time>2020-07-16T12:08:00.125Z</time>
      </trkpt>
      <trkpt lat="62.05948" lon="5.62094">
        <ele>26.793547</ele>
        <time>2020-07-16T12:08:03.107Z</time>
      </trkpt>
      <trkpt lat="62.05975" lon="5.62106">
        <ele>26.409091</ele>
        <time>2020-07-16T12:08:08.494Z</time>
      </trkpt>
      <trkpt lat="62.06005" lon="5.62123">
        <ele>25.985208</ele>
        <time>2020-07-16T12:08:13.999Z</time>
      </trkpt>
      <trkpt lat="62.06017" lon="5.62127">
        <ele>25.819926</ele>
        <time>2020-07-16T12:08:16.066Z</time>
      </trkpt>
      <trkpt lat="62.06042" lon="5.62141">
        <ele>25.462295</ele>
        <time>2020-07-16T12:08:19.688Z</time>
      </trkpt>
      <trkpt lat="62.06195" lon="5.62218">
        <ele>19.715928</ele>
        <time>2020-07-16T12:08:38.809Z</time>
      </trkpt>
      <trkpt lat="62.0621" lon="5.62225">
        <ele>18.954663</ele>
        <time>2020-07-16T12:08:40.640Z</time>
      </trkpt>
      <trkpt lat="62.06251" lon="5.62246">
        <ele>16.953146</ele>
        <time>2020-07-16T12:08:45.667Z</time>
      </trkpt>
      <trkpt lat="62.06273" lon="5.62257">
        <ele>15.898403</ele>
        <time>2020-07-16T12:08:48.491Z</time>
      </trkpt>
      <trkpt lat="62.06277" lon="5.62259">
        <ele>15.771169</ele>
        <time>2020-07-16T12:08:48.956Z</time>
      </trkpt>
      <trkpt lat="62.06299" lon="5.6227">
        <ele>15.042351</ele>
        <time>2020-07-16T12:08:51.803Z</time>
      </trkpt>
      <trkpt lat="62.06465" lon="5.62352">
        <ele>10.015174</ele>
        <time>2020-07-16T12:09:14.351Z</time>
      </trkpt>
      <trkpt lat="62.06556" lon="5.62396">
        <ele>8.850671</ele>
        <time>2020-07-16T12:09:28.875Z</time>
      </trkpt>
      <trkpt lat="62.06619" lon="5.62411">
        <ele>8.052872</ele>
        <time>2020-07-16T12:09:39.000Z</time>
      </trkpt>
      <trkpt lat="62.06633" lon="5.62412">
        <ele>7.943669</ele>
        <time>2020-07-16T12:09:41.480Z</time>
      </trkpt>
      <trkpt lat="62.06651" lon="5.62413">
        <ele>7.822608</ele>
        <time>2020-07-16T12:09:44.145Z</time>
      </trkpt>
      <trkpt lat="62.06711" lon="5.62402">
        <ele>7.398835</ele>
        <time>2020-07-16T12:09:54.044Z</time>
      </trkpt>
      <trkpt lat="62.0683" lon="5.62349">
        <ele>6.684085</ele>
        <time>2020-07-16T12:10:13.355Z</time>
      </trkpt>
      <trkpt lat="62.06855" lon="5.62337">
        <ele>6.609215</ele>
        <time>2020-07-16T12:10:17.556Z</time>
      </trkpt>
      <trkpt lat="62.07004" lon="5.62266">
        <ele>6.212016</ele>
        <time>2020-07-16T12:10:44.189Z</time>
      </trkpt>
      <trkpt lat="62.07018" lon="5.62258">
        <ele>6.191854</ele>
        <time>2020-07-16T12:10:46.977Z</time>
      </trkpt>
      <trkpt lat="62.07063" lon="5.62237">
        <ele>6.130301</ele>
        <time>2020-07-16T12:10:55.041Z</time>
      </trkpt>
      <trkpt lat="62.07103" lon="5.62217">
        <ele>6.074805</ele>
        <time>2020-07-16T12:11:02.164Z</time>
      </trkpt>
      <trkpt lat="62.07116" lon="5.62211">
        <ele>6.056012</ele>
        <time>2020-07-16T12:11:04.605Z</time>
      </trkpt>
      <trkpt lat="62.07126" lon="5.62206">
        <ele>6.04329</ele>
        <time>2020-07-16T12:11:06.272Z</time>
      </trkpt>
      <trkpt lat="62.07134" lon="5.62203">
        <ele>6.031609</ele>
        <time>2020-07-16T12:11:07.720Z</time>
      </trkpt>
      <trkpt lat="62.07146" lon="5.62197">
        <ele>6.015561</ele>
        <time>2020-07-16T12:11:09.738Z</time>
      </trkpt>
      <trkpt lat="62.07248" lon="5.62148">
        <ele>5.27652</ele>
        <time>2020-07-16T12:11:27.170Z</time>
      </trkpt>
      <trkpt lat="62.07278" lon="5.62134">
        <ele>5.055719</ele>
        <time>2020-07-16T12:11:31.919Z</time>
      </trkpt>
      <trkpt lat="62.07328" lon="5.62111">
        <ele>4.672343</ele>
        <time>2020-07-16T12:11:39.652Z</time>
      </trkpt>
      <trkpt lat="62.07341" lon="5.62103">
        <ele>4.500873</ele>
        <time>2020-07-16T12:11:41.812Z</time>
      </trkpt>
      <trkpt lat="62.07354" lon="5.62093">
        <ele>4.340055</ele>
        <time>2020-07-16T12:11:43.747Z</time>
      </trkpt>
      <trkpt lat="62.07368" lon="5.62079">
        <ele>4.145202</ele>
        <time>2020-07-16T12:11:46.223Z</time>
      </trkpt>
      <trkpt lat="62.07395" lon="5.6205">
        <ele>3.780526</ele>
        <time>2020-07-16T12:11:50.698Z</time>
      </trkpt>
      <trkpt lat="62.07457" lon="5.61981">
        <ele>2.924645</ele>
        <time>2020-07-16T12:12:01.215Z</time>
      </trkpt>
      <trkpt lat="62.07576" lon="5.61839">
        <ele>1.593153</ele>
        <time>2020-07-16T12:12:21.967Z</time>
      </trkpt>
      <trkpt lat="62.07675" lon="5.61659">
        <ele>0.722272</ele>
        <time>2020-07-16T12:12:43.158Z</time>
      </trkpt>
      <trkpt lat="62.07726" lon="5.61562">
        <ele>0.498228</ele>
        <time>2020-07-16T12:12:54.793Z</time>
      </trkpt>
      <trkpt lat="62.07768" lon="5.61479">
        <ele>0.311975</ele>
        <time>2020-07-16T12:13:04.594Z</time>
      </trkpt>
      <trkpt lat="62.07864" lon="5.61293">
        <ele>0.190613</ele>
        <time>2020-07-16T12:13:27.326Z</time>
      </trkpt>
      <trkpt lat="62.07878" lon="5.61263">
        <ele>0.173165</ele>
        <time>2020-07-16T12:13:30.861Z</time>
      </trkpt>
      <trkpt lat="62.07892" lon="5.61236">
        <ele>0.157006</ele>
        <time>2020-07-16T12:13:34.136Z</time>
      </trkpt>
      <trkpt lat="62.07912" lon="5.61191">
        <ele>0.165898</ele>
        <time>2020-07-16T12:13:39.431Z</time>
      </trkpt>
      <trkpt lat="62.07927" lon="5.61155">
        <ele>0.19893</ele>
        <time>2020-07-16T12:13:43.553Z</time>
      </trkpt>
      <trkpt lat="62.07946" lon="5.61107">
        <ele>0.242604</ele>
        <time>2020-07-16T12:13:49.048Z</time>
      </trkpt>
      <trkpt lat="62.08042" lon="5.60851">
        <ele>0.45327</ele>
        <time>2020-07-16T12:14:17.244Z</time>
      </trkpt>
      <trkpt lat="62.08057" lon="5.60807">
        <ele>0.482024</ele>
        <time>2020-07-16T12:14:21.995Z</time>
      </trkpt>
      <trkpt lat="62.08071" lon="5.60768">
        <ele>0.507354</ele>
        <time>2020-07-16T12:14:25.961Z</time>
      </trkpt>
      <trkpt lat="62.08079" lon="5.60741">
        <ele>0.524945</ele>
        <time>2020-07-16T12:14:28.912Z</time>
      </trkpt>
      <trkpt lat="62.08109" lon="5.60637">
        <ele>0.589392</ele>
        <time>2020-07-16T12:14:39.115Z</time>
      </trkpt>
      <trkpt lat="62.08123" lon="5.60586">
        <ele>0.617245</ele>
        <time>2020-07-16T12:14:44.032Z</time>
      </trkpt>
      <trkpt lat="62.08181" lon="5.60338">
        <ele>0.715359</ele>
        <time>2020-07-16T12:15:07.562Z</time>
      </trkpt>
      <trkpt lat="62.08193" lon="5.60285">
        <ele>0.736485</ele>
        <time>2020-07-16T12:15:12.651Z</time>
      </trkpt>
      <trkpt lat="62.08202" lon="5.60245">
        <ele>0.751197</ele>
        <time>2020-07-16T12:15:16.590Z</time>
      </trkpt>
      <trkpt lat="62.0827" lon="5.59921">
        <ele>0.857544</ele>
        <time>2020-07-16T12:15:46.319Z</time>
      </trkpt>
      <trkpt lat="62.0828" lon="5.59849">
        <ele>0.942142</ele>
        <time>2020-07-16T12:15:52.789Z</time>
      </trkpt>
      <trkpt lat="62.08329" lon="5.59499">
        <ele>1.795251</ele>
        <time>2020-07-16T12:16:24.262Z</time>
      </trkpt>
      <trkpt lat="62.08341" lon="5.59418">
        <ele>2.647557</ele>
        <time>2020-07-16T12:16:33.210Z</time>
      </trkpt>
      <trkpt lat="62.08355" lon="5.59324">
        <ele>3.655661</ele>
        <time>2020-07-16T12:16:44.623Z</time>
      </trkpt>
      <trkpt lat="62.08398" lon="5.59051">
        <ele>7.576022</ele>
        <time>2020-07-16T12:17:23.271Z</time>
      </trkpt>
      <trkpt lat="62.08413" lon="5.58952">
        <ele>9.424514</ele>
        <time>2020-07-16T12:17:39.095Z</time>
      </trkpt>
      <trkpt lat="62.08443" lon="5.58759">
        <ele>12.778755</ele>
        <time>2020-07-16T12:18:07.972Z</time>
      </trkpt>
      <trkpt lat="62.0845" lon="5.58719">
        <ele>13.321932</ele>
        <time>2020-07-16T12:18:13.271Z</time>
      </trkpt>
      <trkpt lat="62.08476" lon="5.58548">
        <ele>15.61569</ele>
        <time>2020-07-16T12:18:35.294Z</time>
      </trkpt>
      <trkpt lat="62.0849" lon="5.58457">
        <ele>16.839797</ele>
        <time>2020-07-16T12:18:46.251Z</time>
      </trkpt>
      <trkpt lat="62.08501" lon="5.58394">
        <ele>17.528436</ele>
        <time>2020-07-16T12:18:53.639Z</time>
      </trkpt>
      <trkpt lat="62.08511" lon="5.58335">
        <ele>18.136498</ele>
        <time>2020-07-16T12:19:01.351Z</time>
      </trkpt>
      <trkpt lat="62.08534" lon="5.58232">
        <ele>19.249867</ele>
        <time>2020-07-16T12:19:14.696Z</time>
      </trkpt>
      <trkpt lat="62.08566" lon="5.58116">
        <ele>20.56152</ele>
        <time>2020-07-16T12:19:29.546Z</time>
      </trkpt>
      <trkpt lat="62.08567" lon="5.58114">
        <ele>20.580185</ele>
        <time>2020-07-16T12:19:30.367Z</time>
      </trkpt>
      <trkpt lat="62.08581" lon="5.5807">
        <ele>20.941908</ele>
        <time>2020-07-16T12:19:36.378Z</time>
      </trkpt>
      <trkpt lat="62.08619" lon="5.57949">
        <ele>21.785815</ele>
        <time>2020-07-16T12:19:51.884Z</time>
      </trkpt>
      <trkpt lat="62.08628" lon="5.57918">
        <ele>21.994987</ele>
        <time>2020-07-16T12:19:55.716Z</time>
      </trkpt>
      <trkpt lat="62.08642" lon="5.57872">
        <ele>22.31072</ele>
        <time>2020-07-16T12:20:00.820Z</time>
      </trkpt>
      <trkpt lat="62.08678" lon="5.57758">
        <ele>23.056183</ele>
        <time>2020-07-16T12:20:13.750Z</time>
      </trkpt>
      <trkpt lat="62.0868" lon="5.57752">
        <ele>23.087867</ele>
        <time>2020-07-16T12:20:14.298Z</time>
      </trkpt>
      <trkpt lat="62.08696" lon="5.57712">
        <ele>23.302869</ele>
        <time>2020-07-16T12:20:18.920Z</time>
      </trkpt>
      <trkpt lat="62.087" lon="5.577">
        <ele>23.369841</ele>
        <time>2020-07-16T12:20:20.514Z</time>
      </trkpt>
      <trkpt lat="62.08707" lon="5.57682">
        <ele>23.463866</ele>
        <time>2020-07-16T12:20:22.722Z</time>
      </trkpt>
      <trkpt lat="62.08725" lon="5.57642">
        <ele>23.694786</ele>
        <time>2020-07-16T12:20:28.067Z</time>
      </trkpt>
      <trkpt lat="62.08748" lon="5.57594">
        <ele>23.981608</ele>
        <time>2020-07-16T12:20:34.678Z</time>
      </trkpt>
      <trkpt lat="62.08761" lon="5.57569">
        <ele>24.133865</ele>
        <time>2020-07-16T12:20:38.238Z</time>
      </trkpt>
      <trkpt lat="62.08768" lon="5.57557">
        <ele>24.216358</ele>
        <time>2020-07-16T12:20:39.997Z</time>
      </trkpt>
      <trkpt lat="62.08783" lon="5.57534">
        <ele>24.376442</ele>
        <time>2020-07-16T12:20:43.638Z</time>
      </trkpt>
      <trkpt lat="62.08796" lon="5.57515">
        <ele>24.516762</ele>
        <time>2020-07-16T12:20:47.058Z</time>
      </trkpt>
      <trkpt lat="62.08809" lon="5.57498">
        <ele>24.666204</ele>
        <time>2020-07-16T12:20:50.597Z</time>
      </trkpt>
      <trkpt lat="62.08822" lon="5.57482">
        <ele>24.818601</ele>
        <time>2020-07-16T12:20:54.177Z</time>
      </trkpt>
      <trkpt lat="62.08869" lon="5.57438">
        <ele>25.329289</ele>
        <time>2020-07-16T12:21:06.315Z</time>
      </trkpt>
      <trkpt lat="62.08924" lon="5.57414">
        <ele>25.882964</ele>
        <time>2020-07-16T12:21:18.874Z</time>
      </trkpt>
      <trkpt lat="62.08933" lon="5.57413">
        <ele>25.977413</ele>
        <time>2020-07-16T12:21:21.039Z</time>
      </trkpt>
      <trkpt lat="62.0894" lon="5.57412">
        <ele>26.045079</ele>
        <time>2020-07-16T12:21:22.720Z</time>
      </trkpt>
      <trkpt lat="62.09064" lon="5.57428">
        <ele>23.898693</ele>
        <time>2020-07-16T12:21:41.819Z</time>
      </trkpt>
      <trkpt lat="62.09098" lon="5.57418">
        <ele>23.037283</ele>
        <time>2020-07-16T12:21:46.242Z</time>
      </trkpt>
      <trkpt lat="62.09107" lon="5.57413">
        <ele>22.795548</ele>
        <time>2020-07-16T12:21:47.354Z</time>
      </trkpt>
      <trkpt lat="62.09126" lon="5.57403">
        <ele>22.312172</ele>
        <time>2020-07-16T12:21:49.820Z</time>
      </trkpt>
      <trkpt lat="62.09149" lon="5.57386">
        <ele>21.608498</ele>
        <time>2020-07-16T12:21:52.746Z</time>
      </trkpt>
      <trkpt lat="62.09195" lon="5.57353">
        <ele>19.573624</ele>
        <time>2020-07-16T12:21:58.632Z</time>
      </trkpt>
      <trkpt lat="62.09204" lon="5.57347">
        <ele>19.153154</ele>
        <time>2020-07-16T12:21:59.857Z</time>
      </trkpt>
      <trkpt lat="62.09218" lon="5.5734">
        <ele>18.557827</ele>
        <time>2020-07-16T12:22:01.437Z</time>
      </trkpt>
      <trkpt lat="62.09228" lon="5.57336">
        <ele>18.138501</ele>
        <time>2020-07-16T12:22:02.732Z</time>
      </trkpt>
      <trkpt lat="62.09265" lon="5.57328">
        <ele>16.550602</ele>
        <time>2020-07-16T12:22:07.245Z</time>
      </trkpt>
      <trkpt lat="62.09275" lon="5.57327">
        <ele>16.09887</ele>
        <time>2020-07-16T12:22:08.604Z</time>
      </trkpt>
      <trkpt lat="62.09287" lon="5.57326">
        <ele>15.604957</ele>
        <time>2020-07-16T12:22:09.957Z</time>
      </trkpt>
      <trkpt lat="62.0942" lon="5.57341">
        <ele>13.684765</ele>
        <time>2020-07-16T12:22:28.943Z</time>
      </trkpt>
      <trkpt lat="62.09468" lon="5.57356">
        <ele>13.453762</ele>
        <time>2020-07-16T12:22:38.944Z</time>
      </trkpt>
      <trkpt lat="62.09526" lon="5.57401">
        <ele>14.122292</ele>
        <time>2020-07-16T12:22:54.427Z</time>
      </trkpt>
      <trkpt lat="62.09569" lon="5.57457">
        <ele>15.503353</ele>
        <time>2020-07-16T12:23:07.275Z</time>
      </trkpt>
      <trkpt lat="62.09577" lon="5.5747">
        <ele>15.773066</ele>
        <time>2020-07-16T12:23:10.380Z</time>
      </trkpt>
      <trkpt lat="62.0958" lon="5.57476">
        <ele>15.906441</ele>
        <time>2020-07-16T12:23:11.741Z</time>
      </trkpt>
      <trkpt lat="62.09591" lon="5.57497">
        <ele>16.300482</ele>
        <time>2020-07-16T12:23:15.118Z</time>
      </trkpt>
      <trkpt lat="62.09609" lon="5.57539">
        <ele>17.036086</ele>
        <time>2020-07-16T12:23:22.511Z</time>
      </trkpt>
      <trkpt lat="62.09616" lon="5.57557">
        <ele>17.347106</ele>
        <time>2020-07-16T12:23:25.382Z</time>
      </trkpt>
      <trkpt lat="62.09626" lon="5.57583">
        <ele>17.780095</ele>
        <time>2020-07-16T12:23:30.131Z</time>
      </trkpt>
      <trkpt lat="62.09636" lon="5.57615">
        <ele>18.274697</ele>
        <time>2020-07-16T12:23:34.941Z</time>
      </trkpt>
      <trkpt lat="62.09641" lon="5.57631">
        <ele>18.624756</ele>
        <time>2020-07-16T12:23:37.502Z</time>
      </trkpt>
      <trkpt lat="62.09661" lon="5.57724">
        <ele>20.468694</ele>
        <time>2020-07-16T12:23:52.293Z</time>
      </trkpt>
      <trkpt lat="62.09668" lon="5.5776">
        <ele>21.16546</ele>
        <time>2020-07-16T12:23:57.474Z</time>
      </trkpt>
      <trkpt lat="62.09674" lon="5.57794">
        <ele>21.815602</ele>
        <time>2020-07-16T12:24:02.196Z</time>
      </trkpt>
      <trkpt lat="62.09756" lon="5.58249">
        <ele>31.317189</ele>
        <time>2020-07-16T12:25:13.778Z</time>
      </trkpt>
      <trkpt lat="62.09776" lon="5.5837">
        <ele>33.904439</ele>
        <time>2020-07-16T12:25:33.819Z</time>
      </trkpt>
      <trkpt lat="62.09794" lon="5.58534">
        <ele>37.263836</ele>
        <time>2020-07-16T12:25:59.523Z</time>
      </trkpt>
      <trkpt lat="62.09807" lon="5.58716">
        <ele>40.873398</ele>
        <time>2020-07-16T12:26:25.973Z</time>
      </trkpt>
      <trkpt lat="62.09839" lon="5.59154">
        <ele>47.635496</ele>
        <time>2020-07-16T12:27:23.151Z</time>
      </trkpt>
      <trkpt lat="62.09858" lon="5.59401">
        <ele>51.845723</ele>
        <time>2020-07-16T12:27:57.070Z</time>
      </trkpt>
      <trkpt lat="62.09865" lon="5.59505">
        <ele>54.14473</ele>
        <time>2020-07-16T12:28:12.719Z</time>
      </trkpt>
      <trkpt lat="62.09877" lon="5.59667">
        <ele>58.865186</ele>
        <time>2020-07-16T12:28:38.294Z</time>
      </trkpt>
      <trkpt lat="62.09906" lon="5.59975">
        <ele>69.310479</ele>
        <time>2020-07-16T12:29:42.313Z</time>
      </trkpt>
      <trkpt lat="62.09917" lon="5.60066">
        <ele>72.994989</ele>
        <time>2020-07-16T12:30:02.731Z</time>
      </trkpt>
      <trkpt lat="62.09925" lon="5.60128">
        <ele>75.499616</ele>
        <time>2020-07-16T12:30:17.171Z</time>
      </trkpt>
      <trkpt lat="62.09987" lon="5.60532">
        <ele>90.189827</ele>
        <time>2020-07-16T12:31:42.626Z</time>
      </trkpt>
      <trkpt lat="62.10004" lon="5.60653">
        <ele>92.6299</ele>
        <time>2020-07-16T12:32:01.229Z</time>
      </trkpt>
      <trkpt lat="62.10018" lon="5.60757">
        <ele>93.768686</ele>
        <time>2020-07-16T12:32:14.952Z</time>
      </trkpt>
      <trkpt lat="62.10023" lon="5.60793">
        <ele>94.163562</ele>
        <time>2020-07-16T12:32:19.320Z</time>
      </trkpt>
      <trkpt lat="62.10058" lon="5.61173">
        <ele>95.300445</ele>
        <time>2020-07-16T12:32:52.535Z</time>
      </trkpt>
      <trkpt lat="62.10118" lon="5.61681">
        <ele>92.732963</ele>
        <time>2020-07-16T12:33:28.637Z</time>
      </trkpt>
      <trkpt lat="62.10142" lon="5.6192">
        <ele>92.328282</ele>
        <time>2020-07-16T12:33:48.394Z</time>
      </trkpt>
      <trkpt lat="62.10148" lon="5.61999">
        <ele>92.223999</ele>
        <time>2020-07-16T12:33:55.095Z</time>
      </trkpt>
      <trkpt lat="62.10154" lon="5.62088">
        <ele>92.089639</ele>
        <time>2020-07-16T12:34:02.638Z</time>
      </trkpt>
      <trkpt lat="62.10159" lon="5.62201">
        <ele>91.761521</ele>
        <time>2020-07-16T12:34:11.773Z</time>
      </trkpt>
      <trkpt lat="62.1016" lon="5.6224">
        <ele>91.64819</ele>
        <time>2020-07-16T12:34:14.754Z</time>
      </trkpt>
      <trkpt lat="62.10162" lon="5.62317">
        <ele>91.425975</ele>
        <time>2020-07-16T12:34:20.587Z</time>
      </trkpt>
      <trkpt lat="62.10163" lon="5.62415">
        <ele>91.145503</ele>
        <time>2020-07-16T12:34:27.728Z</time>
      </trkpt>
      <trkpt lat="62.10164" lon="5.62462">
        <ele>91.006495</ele>
        <time>2020-07-16T12:34:31.110Z</time>
      </trkpt>
      <trkpt lat="62.10164" lon="5.62647">
        <ele>90.319395</ele>
        <time>2020-07-16T12:34:44.440Z</time>
      </trkpt>
      <trkpt lat="62.10164" lon="5.63068">
        <ele>89.777876</ele>
        <time>2020-07-16T12:35:16.798Z</time>
      </trkpt>
      <trkpt lat="62.10165" lon="5.63441">
        <ele>91.520573</ele>
        <time>2020-07-16T12:35:54.362Z</time>
      </trkpt>
      <trkpt lat="62.10166" lon="5.6349">
        <ele>91.893092</ele>
        <time>2020-07-16T12:36:00.065Z</time>
      </trkpt>
      <trkpt lat="62.10168" lon="5.63546">
        <ele>92.318753</ele>
        <time>2020-07-16T12:36:06.811Z</time>
      </trkpt>
      <trkpt lat="62.10179" lon="5.63837">
        <ele>94.347751</ele>
        <time>2020-07-16T12:36:40.185Z</time>
      </trkpt>
      <trkpt lat="62.10181" lon="5.63878">
        <ele>94.626373</ele>
        <time>2020-07-16T12:36:44.506Z</time>
      </trkpt>
      <trkpt lat="62.10189" lon="5.64074">
        <ele>95.405357</ele>
        <time>2020-07-16T12:37:02.110Z</time>
      </trkpt>
      <trkpt lat="62.10192" lon="5.64134">
        <ele>95.387969</ele>
        <time>2020-07-16T12:37:07.223Z</time>
      </trkpt>
      <trkpt lat="62.10202" lon="5.64352">
        <ele>95.3247</ele>
        <time>2020-07-16T12:37:24.876Z</time>
      </trkpt>
      <trkpt lat="62.10216" lon="5.64499">
        <ele>94.642928</ele>
        <time>2020-07-16T12:37:36.433Z</time>
      </trkpt>
      <trkpt lat="62.1022" lon="5.64534">
        <ele>94.444745</ele>
        <time>2020-07-16T12:37:39.372Z</time>
      </trkpt>
      <trkpt lat="62.10228" lon="5.64593">
        <ele>94.110078</ele>
        <time>2020-07-16T12:37:43.829Z</time>
      </trkpt>
      <trkpt lat="62.10259" lon="5.64764">
        <ele>92.990541</ele>
        <time>2020-07-16T12:37:56.063Z</time>
      </trkpt>
      <trkpt lat="62.10294" lon="5.64908">
        <ele>91.043616</ele>
        <time>2020-07-16T12:38:06.426Z</time>
      </trkpt>
      <trkpt lat="62.10315" lon="5.64982">
        <ele>90.01112</ele>
        <time>2020-07-16T12:38:11.822Z</time>
      </trkpt>
      <trkpt lat="62.10335" lon="5.65053">
        <ele>89.030929</ele>
        <time>2020-07-16T12:38:16.986Z</time>
      </trkpt>
      <trkpt lat="62.10524" lon="5.65739">
        <ele>78.148751</ele>
        <time>2020-07-16T12:39:06.779Z</time>
      </trkpt>
      <trkpt lat="62.10533" lon="5.65776">
        <ele>77.394068</ele>
        <time>2020-07-16T12:39:09.162Z</time>
      </trkpt>
      <trkpt lat="62.10542" lon="5.65808">
        <ele>76.679165</ele>
        <time>2020-07-16T12:39:11.414Z</time>
      </trkpt>
      <trkpt lat="62.1056" lon="5.65872">
        <ele>75.299663</ele>
        <time>2020-07-16T12:39:15.663Z</time>
      </trkpt>
      <trkpt lat="62.10734" lon="5.66504">
        <ele>60.834702</ele>
        <time>2020-07-16T12:39:58.745Z</time>
      </trkpt>
      <trkpt lat="62.10749" lon="5.66557">
        <ele>59.378723</ele>
        <time>2020-07-16T12:40:02.413Z</time>
      </trkpt>
      <trkpt lat="62.10759" lon="5.66594">
        <ele>58.359575</ele>
        <time>2020-07-16T12:40:04.811Z</time>
      </trkpt>
      <trkpt lat="62.10789" lon="5.66682">
        <ele>55.849556</ele>
        <time>2020-07-16T12:40:10.866Z</time>
      </trkpt>
      <trkpt lat="62.10827" lon="5.66767">
        <ele>52.603494</ele>
        <time>2020-07-16T12:40:17.401Z</time>
      </trkpt>
      <trkpt lat="62.10838" lon="5.66786">
        <ele>51.645875</ele>
        <time>2020-07-16T12:40:19.120Z</time>
      </trkpt>
      <trkpt lat="62.10842" lon="5.66775">
        <ele>51.210677</ele>
        <time>2020-07-16T12:40:20.001Z</time>
      </trkpt>
      <trkpt lat="62.10843" lon="5.66773">
        <ele>51.146183</ele>
        <time>2020-07-16T12:40:20.126Z</time>
      </trkpt>
      <trkpt lat="62.1085" lon="5.66786">
        <ele>50.517672</ele>
        <time>2020-07-16T12:40:21.142Z</time>
      </trkpt>
      <trkpt lat="62.10902" lon="5.66862">
        <ele>46.241931</ele>
        <time>2020-07-16T12:40:29.088Z</time>
      </trkpt>
      <trkpt lat="62.10964" lon="5.66928">
        <ele>41.666903</ele>
        <time>2020-07-16T12:40:37.206Z</time>
      </trkpt>
      <trkpt lat="62.10963" lon="5.66938">
        <ele>41.381566</ele>
        <time>2020-07-16T12:40:37.737Z</time>
      </trkpt>
      <trkpt lat="62.10962" lon="5.66943">
        <ele>41.218279</ele>
        <time>2020-07-16T12:40:38.010Z</time>
      </trkpt>
      <trkpt lat="62.10961" lon="5.66952">
        <ele>40.915656</ele>
        <time>2020-07-16T12:40:38.535Z</time>
      </trkpt>
      <trkpt lat="62.11022" lon="5.67012">
        <ele>36.586582</ele>
        <time>2020-07-16T12:40:46.836Z</time>
      </trkpt>
      <trkpt lat="62.1103" lon="5.67004">
        <ele>36.037021</ele>
        <time>2020-07-16T12:40:47.906Z</time>
      </trkpt>
      <trkpt lat="62.11031" lon="5.66999">
        <ele>35.857409</ele>
        <time>2020-07-16T12:40:48.235Z</time>
      </trkpt>
      <trkpt lat="62.11034" lon="5.67001">
        <ele>35.653818</ele>
        <time>2020-07-16T12:40:48.629Z</time>
      </trkpt>
      <trkpt lat="62.11066" lon="5.67023">
        <ele>33.490863</ele>
        <time>2020-07-16T12:40:52.582Z</time>
      </trkpt>
      <trkpt lat="62.11137" lon="5.6706">
        <ele>29.243886</ele>
        <time>2020-07-16T12:41:01.375Z</time>
      </trkpt>
      <trkpt lat="62.11223" lon="5.6709">
        <ele>24.942145</ele>
        <time>2020-07-16T12:41:11.885Z</time>
      </trkpt>
      <trkpt lat="62.11263" lon="5.67099">
        <ele>22.978378</ele>
        <time>2020-07-16T12:41:16.823Z</time>
      </trkpt>
      <trkpt lat="62.11287" lon="5.67106">
        <ele>21.818282</ele>
        <time>2020-07-16T12:41:19.758Z</time>
      </trkpt>
      <trkpt lat="62.11314" lon="5.67112">
        <ele>20.658896</ele>
        <time>2020-07-16T12:41:23.130Z</time>
      </trkpt>
      <trkpt lat="62.11342" lon="5.67119">
        <ele>19.433471</ele>
        <time>2020-07-16T12:41:26.769Z</time>
      </trkpt>
      <trkpt lat="62.1135" lon="5.67121">
        <ele>19.113196</ele>
        <time>2020-07-16T12:41:27.647Z</time>
      </trkpt>
      <trkpt lat="62.11369" lon="5.67126">
        <ele>18.295913</ele>
        <time>2020-07-16T12:41:30.083Z</time>
      </trkpt>
      <trkpt lat="62.11406" lon="5.67141">
        <ele>16.708703</ele>
        <time>2020-07-16T12:41:34.704Z</time>
      </trkpt>
      <trkpt lat="62.11421" lon="5.67149">
        <ele>16.063952</ele>
        <time>2020-07-16T12:41:36.555Z</time>
      </trkpt>
      <trkpt lat="62.1144" lon="5.67159">
        <ele>15.212159</ele>
        <time>2020-07-16T12:41:39.175Z</time>
      </trkpt>
      <trkpt lat="62.1146" lon="5.6717">
        <ele>14.325051</ele>
        <time>2020-07-16T12:41:41.795Z</time>
      </trkpt>
      <trkpt lat="62.11482" lon="5.67183">
        <ele>13.507891</ele>
        <time>2020-07-16T12:41:44.756Z</time>
      </trkpt>
      <trkpt lat="62.11557" lon="5.67213">
        <ele>10.792792</ele>
        <time>2020-07-16T12:41:54.451Z</time>
      </trkpt>
      <trkpt lat="62.11613" lon="5.67225">
        <ele>8.800337</ele>
        <time>2020-07-16T12:42:01.648Z</time>
      </trkpt>
      <trkpt lat="62.11632" lon="5.67228">
        <ele>8.129032</ele>
        <time>2020-07-16T12:42:04.077Z</time>
      </trkpt>
      <trkpt lat="62.11666" lon="5.67236">
        <ele>7.375841</ele>
        <time>2020-07-16T12:42:08.612Z</time>
      </trkpt>
      <trkpt lat="62.11703" lon="5.67242">
        <ele>6.669148</ele>
        <time>2020-07-16T12:42:13.658Z</time>
      </trkpt>
      <trkpt lat="62.11711" lon="5.67243">
        <ele>6.525427</ele>
        <time>2020-07-16T12:42:14.698Z</time>
      </trkpt>
      <trkpt lat="62.11728" lon="5.67246">
        <ele>6.195448</ele>
        <time>2020-07-16T12:42:17.119Z</time>
      </trkpt>
      <trkpt lat="62.11973" lon="5.67274">
        <ele>3.404598</ele>
        <time>2020-07-16T12:42:55.022Z</time>
      </trkpt>
      <trkpt lat="62.12056" lon="5.67269">
        <ele>3.618901</ele>
        <time>2020-07-16T12:43:11.490Z</time>
      </trkpt>
      <trkpt lat="62.12071" lon="5.67269">
        <ele>3.713731</ele>
        <time>2020-07-16T12:43:14.138Z</time>
      </trkpt>
      <trkpt lat="62.12072" lon="5.67258">
        <ele>3.747506</ele>
        <time>2020-07-16T12:43:15.606Z</time>
      </trkpt>
      <trkpt lat="62.12075" lon="5.6723">
        <ele>3.834597</ele>
        <time>2020-07-16T12:43:18.391Z</time>
      </trkpt>
      <trkpt lat="62.12083" lon="5.67216">
        <ele>3.900716</ele>
        <time>2020-07-16T12:43:20.473Z</time>
      </trkpt>
      <trkpt lat="62.12139" lon="5.67184">
        <ele>4.269694</ele>
        <time>2020-07-16T12:43:32.741Z</time>
      </trkpt>
      <trkpt lat="62.12144" lon="5.6718">
        <ele>4.309087</ele>
        <time>2020-07-16T12:43:34.284Z</time>
      </trkpt>
      <trkpt lat="62.12149" lon="5.67177">
        <ele>4.337885</ele>
        <time>2020-07-16T12:43:35.128Z</time>
      </trkpt>
      <trkpt lat="62.12191" lon="5.67161">
        <ele>4.702444</ele>
        <time>2020-07-16T12:43:44.228Z</time>
      </trkpt>
      <trkpt lat="62.12197" lon="5.6716">
        <ele>4.759045</ele>
        <time>2020-07-16T12:43:45.740Z</time>
      </trkpt>
      <trkpt lat="62.12212" lon="5.67158">
        <ele>4.889349</ele>
        <time>2020-07-16T12:43:48.846Z</time>
      </trkpt>
      <trkpt lat="62.12285" lon="5.67166">
        <ele>5.541667</ele>
        <time>2020-07-16T12:44:04.525Z</time>
      </trkpt>
      <trkpt lat="62.12319" lon="5.67168">
        <ele>5.852623</ele>
        <time>2020-07-16T12:44:11.725Z</time>
      </trkpt>
      <trkpt lat="62.12336" lon="5.67167">
        <ele>5.999571</ele>
        <time>2020-07-16T12:44:15.220Z</time>
      </trkpt>
      <trkpt lat="62.12354" lon="5.67161">
        <ele>6.291553</ele>
        <time>2020-07-16T12:44:19.003Z</time>
      </trkpt>
      <trkpt lat="62.12364" lon="5.67155">
        <ele>6.467581</ele>
        <time>2020-07-16T12:44:21.449Z</time>
      </trkpt>
      <trkpt lat="62.12374" lon="5.6715">
        <ele>6.625517</ele>
        <time>2020-07-16T12:44:23.599Z</time>
      </trkpt>
      <trkpt lat="62.12379" lon="5.67148">
        <ele>6.699459</ele>
        <time>2020-07-16T12:44:24.662Z</time>
      </trkpt>
      <trkpt lat="62.12387" lon="5.67145">
        <ele>6.842177</ele>
        <time>2020-07-16T12:44:26.593Z</time>
      </trkpt>
      <trkpt lat="62.12401" lon="5.67144">
        <ele>7.054516</ele>
        <time>2020-07-16T12:44:29.645Z</time>
      </trkpt>
      <trkpt lat="62.12479" lon="5.67144">
        <ele>8.311531</ele>
        <time>2020-07-16T12:44:48.487Z</time>
      </trkpt>
      <trkpt lat="62.12548" lon="5.67179">
        <ele>9.367481</ele>
        <time>2020-07-16T12:45:07.502Z</time>
      </trkpt>
      <trkpt lat="62.12649" lon="5.67174">
        <ele>10.718249</ele>
        <time>2020-07-16T12:45:31.414Z</time>
      </trkpt>
      <trkpt lat="62.12678" lon="5.67158">
        <ele>11.128608</ele>
        <time>2020-07-16T12:45:36.732Z</time>
      </trkpt>
      <trkpt lat="62.12684" lon="5.67155">
        <ele>11.208025</ele>
        <time>2020-07-16T12:45:39.058Z</time>
      </trkpt>
      <trkpt lat="62.12696" lon="5.67153">
        <ele>11.315443</ele>
        <time>2020-07-16T12:45:40.802Z</time>
      </trkpt>
      <trkpt lat="62.12724" lon="5.67158">
        <ele>11.340187</ele>
        <time>2020-07-16T12:45:46.187Z</time>
      </trkpt>
      <trkpt lat="62.12826" lon="5.67223">
        <ele>11.432447</ele>
        <time>2020-07-16T12:46:05.990Z</time>
      </trkpt>
      <trkpt lat="62.12852" lon="5.67222">
        <ele>11.454594</ele>
        <time>2020-07-16T12:46:10.340Z</time>
      </trkpt>
      <trkpt lat="62.12868" lon="5.67221">
        <ele>11.474101</ele>
        <time>2020-07-16T12:46:12.817Z</time>
      </trkpt>
      <trkpt lat="62.12871" lon="5.67221">
        <ele>11.508821</ele>
        <time>2020-07-16T12:46:13.946Z</time>
      </trkpt>
      <trkpt lat="62.12941" lon="5.6727">
        <ele>12.369565</ele>
        <time>2020-07-16T12:46:29.529Z</time>
      </trkpt>
      <trkpt lat="62.13064" lon="5.67263">
        <ele>13.795307</ele>
        <time>2020-07-16T12:46:59.446Z</time>
      </trkpt>
      <trkpt lat="62.13195" lon="5.67297">
        <ele>15.35252</ele>
        <time>2020-07-16T12:47:28.964Z</time>
      </trkpt>
      <trkpt lat="62.13203" lon="5.67299">
        <ele>15.447706</ele>
        <time>2020-07-16T12:47:30.537Z</time>
      </trkpt>
      <trkpt lat="62.13223" lon="5.67307">
        <ele>15.672808</ele>
        <time>2020-07-16T12:47:34.597Z</time>
      </trkpt>
      <trkpt lat="62.13291" lon="5.67351">
        <ele>15.960487</ele>
        <time>2020-07-16T12:47:49.145Z</time>
      </trkpt>
      <trkpt lat="62.13391" lon="5.67342">
        <ele>16.362307</ele>
        <time>2020-07-16T12:48:08.980Z</time>
      </trkpt>
      <trkpt lat="62.13426" lon="5.67349">
        <ele>16.272529</ele>
        <time>2020-07-16T12:48:15.241Z</time>
      </trkpt>
      <trkpt lat="62.13534" lon="5.67415">
        <ele>15.777441</ele>
        <time>2020-07-16T12:48:34.392Z</time>
      </trkpt>
      <trkpt lat="62.13536" lon="5.67415">
        <ele>15.767209</ele>
        <time>2020-07-16T12:48:34.647Z</time>
      </trkpt>
      <trkpt lat="62.13543" lon="5.67415">
        <ele>15.738062</ele>
        <time>2020-07-16T12:48:35.932Z</time>
      </trkpt>
      <trkpt lat="62.13689" lon="5.67412">
        <ele>16.781967</ele>
        <time>2020-07-16T12:49:02.730Z</time>
      </trkpt>
      <trkpt lat="62.137" lon="5.67414">
        <ele>16.898581</ele>
        <time>2020-07-16T12:49:05.723Z</time>
      </trkpt>
      <trkpt lat="62.13719" lon="5.67418">
        <ele>17.090493</ele>
        <time>2020-07-16T12:49:10.231Z</time>
      </trkpt>
      <trkpt lat="62.13733" lon="5.6742">
        <ele>17.236176</ele>
        <time>2020-07-16T12:49:14.498Z</time>
      </trkpt>
      <trkpt lat="62.13754" lon="5.6742">
        <ele>17.48421</ele>
        <time>2020-07-16T12:49:20.276Z</time>
      </trkpt>
      <trkpt lat="62.13773" lon="5.67406">
        <ele>18.307806</ele>
        <time>2020-07-16T12:49:26.377Z</time>
      </trkpt>
      <trkpt lat="62.13802" lon="5.6736">
        <ele>19.84292</ele>
        <time>2020-07-16T12:49:37.862Z</time>
      </trkpt>
      <trkpt lat="62.13937" lon="5.67204">
        <ele>25.604313</ele>
        <time>2020-07-16T12:50:30.231Z</time>
      </trkpt>
      <trkpt lat="62.14034" lon="5.67098">
        <ele>27.594913</ele>
        <time>2020-07-16T12:50:57.675Z</time>
      </trkpt>
      <trkpt lat="62.14076" lon="5.67067">
        <ele>28.284363</ele>
        <time>2020-07-16T12:51:05.023Z</time>
      </trkpt>
      <trkpt lat="62.141" lon="5.67053">
        <ele>27.766429</ele>
        <time>2020-07-16T12:51:09.126Z</time>
      </trkpt>
      <trkpt lat="62.14113" lon="5.67045">
        <ele>27.482671</ele>
        <time>2020-07-16T12:51:10.991Z</time>
      </trkpt>
      <trkpt lat="62.14298" lon="5.66884">
        <ele>23.689337</ele>
        <time>2020-07-16T12:51:39.510Z</time>
      </trkpt>
      <trkpt lat="62.14331" lon="5.66869">
        <ele>23.190814</ele>
        <time>2020-07-16T12:51:44.931Z</time>
      </trkpt>
      <trkpt lat="62.14361" lon="5.66806">
        <ele>22.572188</ele>
        <time>2020-07-16T12:51:51.765Z</time>
      </trkpt>
      <trkpt lat="62.14365" lon="5.66795">
        <ele>22.466978</ele>
        <time>2020-07-16T12:51:52.913Z</time>
      </trkpt>
      <trkpt lat="62.14374" lon="5.66774">
        <ele>22.272318</ele>
        <time>2020-07-16T12:51:55.355Z</time>
      </trkpt>
      <trkpt lat="62.14404" lon="5.66709">
        <ele>21.573006</ele>
        <time>2020-07-16T12:52:02.482Z</time>
      </trkpt>
      <trkpt lat="62.14408" lon="5.66702">
        <ele>21.48829</ele>
        <time>2020-07-16T12:52:03.427Z</time>
      </trkpt>
      <trkpt lat="62.14419" lon="5.66688">
        <ele>21.253668</ele>
        <time>2020-07-16T12:52:05.421Z</time>
      </trkpt>
      <trkpt lat="62.14426" lon="5.66679">
        <ele>21.098673</ele>
        <time>2020-07-16T12:52:06.858Z</time>
      </trkpt>
      <trkpt lat="62.14436" lon="5.66668">
        <ele>20.902493</ele>
        <time>2020-07-16T12:52:08.524Z</time>
      </trkpt>
      <trkpt lat="62.14442" lon="5.66662">
        <ele>20.771554</ele>
        <time>2020-07-16T12:52:09.653Z</time>
      </trkpt>
      <trkpt lat="62.14508" lon="5.66556">
        <ele>19.273415</ele>
        <time>2020-07-16T12:52:21.796Z</time>
      </trkpt>
      <trkpt lat="62.14519" lon="5.66545">
        <ele>19.057205</ele>
        <time>2020-07-16T12:52:23.434Z</time>
      </trkpt>
      <trkpt lat="62.14556" lon="5.66518">
        <ele>18.293864</ele>
        <time>2020-07-16T12:52:28.944Z</time>
      </trkpt>
      <trkpt lat="62.1456" lon="5.66514">
        <ele>18.20617</ele>
        <time>2020-07-16T12:52:29.537Z</time>
      </trkpt>
      <trkpt lat="62.14568" lon="5.66508">
        <ele>18.030884</ele>
        <time>2020-07-16T12:52:30.733Z</time>
      </trkpt>
      <trkpt lat="62.14572" lon="5.66506">
        <ele>17.948821</ele>
        <time>2020-07-16T12:52:31.246Z</time>
      </trkpt>
      <trkpt lat="62.14587" lon="5.66499">
        <ele>17.623021</ele>
        <time>2020-07-16T12:52:33.399Z</time>
      </trkpt>
      <trkpt lat="62.14607" lon="5.66507">
        <ele>17.188299</ele>
        <time>2020-07-16T12:52:36.435Z</time>
      </trkpt>
      <trkpt lat="62.14614" lon="5.66506">
        <ele>17.058208</ele>
        <time>2020-07-16T12:52:37.318Z</time>
      </trkpt>
      <trkpt lat="62.14622" lon="5.66502">
        <ele>16.880304</ele>
        <time>2020-07-16T12:52:38.618Z</time>
      </trkpt>
      <trkpt lat="62.14652" lon="5.66471">
        <ele>16.176998</ele>
        <time>2020-07-16T12:52:43.625Z</time>
      </trkpt>
      <trkpt lat="62.14665" lon="5.66458">
        <ele>15.880737</ele>
        <time>2020-07-16T12:52:45.842Z</time>
      </trkpt>
      <trkpt lat="62.14685" lon="5.66439">
        <ele>15.431215</ele>
        <time>2020-07-16T12:52:48.909Z</time>
      </trkpt>
      <trkpt lat="62.14713" lon="5.66405">
        <ele>14.85463</ele>
        <time>2020-07-16T12:52:53.818Z</time>
      </trkpt>
      <trkpt lat="62.14735" lon="5.66375">
        <ele>14.64671</ele>
        <time>2020-07-16T12:52:58.160Z</time>
      </trkpt>
      <trkpt lat="62.14746" lon="5.66361">
        <ele>14.549153</ele>
        <time>2020-07-16T12:53:00.216Z</time>
      </trkpt>
      <trkpt lat="62.14781" lon="5.6632">
        <ele>14.23348</ele>
        <time>2020-07-16T12:53:07.050Z</time>
      </trkpt>
      <trkpt lat="62.14789" lon="5.66314">
        <ele>14.166564</ele>
        <time>2020-07-16T12:53:08.810Z</time>
      </trkpt>
      <trkpt lat="62.14797" lon="5.66313">
        <ele>14.099319</ele>
        <time>2020-07-16T12:53:09.971Z</time>
      </trkpt>
      <trkpt lat="62.14831" lon="5.66317">
        <ele>13.83284</ele>
        <time>2020-07-16T12:53:15.873Z</time>
      </trkpt>
      <trkpt lat="62.14969" lon="5.66219">
        <ele>13.415737</ele>
        <time>2020-07-16T12:53:41.021Z</time>
      </trkpt>
      <trkpt lat="62.14971" lon="5.66215">
        <ele>13.413464</ele>
        <time>2020-07-16T12:53:41.406Z</time>
      </trkpt>
      <trkpt lat="62.14974" lon="5.66211">
        <ele>13.410836</ele>
        <time>2020-07-16T12:53:42.671Z</time>
      </trkpt>
      <trkpt lat="62.15028" lon="5.66076">
        <ele>13.435111</ele>
        <time>2020-07-16T12:53:58.840Z</time>
      </trkpt>
      <trkpt lat="62.15051" lon="5.66057">
        <ele>13.592043</ele>
        <time>2020-07-16T12:54:03.835Z</time>
      </trkpt>
      <trkpt lat="62.15092" lon="5.6605">
        <ele>13.861231</ele>
        <time>2020-07-16T12:54:12.645Z</time>
      </trkpt>
      <trkpt lat="62.15135" lon="5.66007">
        <ele>14.175429</ele>
        <time>2020-07-16T12:54:22.728Z</time>
      </trkpt>
      <trkpt lat="62.15161" lon="5.65969">
        <ele>14.378164</ele>
        <time>2020-07-16T12:54:29.448Z</time>
      </trkpt>
      <trkpt lat="62.15185" lon="5.659">
        <ele>14.525403</ele>
        <time>2020-07-16T12:54:37.697Z</time>
      </trkpt>
      <trkpt lat="62.15246" lon="5.65819">
        <ele>14.50499</ele>
        <time>2020-07-16T12:54:51.489Z</time>
      </trkpt>
      <trkpt lat="62.15253" lon="5.65814">
        <ele>14.502839</ele>
        <time>2020-07-16T12:54:52.971Z</time>
      </trkpt>
      <trkpt lat="62.15253" lon="5.65807">
        <ele>14.501783</ele>
        <time>2020-07-16T12:54:53.797Z</time>
      </trkpt>
      <trkpt lat="62.15259" lon="5.65773">
        <ele>14.496972</ele>
        <time>2020-07-16T12:54:56.674Z</time>
      </trkpt>
      <trkpt lat="62.15273" lon="5.65749">
        <ele>14.491978</ele>
        <time>2020-07-16T12:54:59.886Z</time>
      </trkpt>
      <trkpt lat="62.1533" lon="5.65687">
        <ele>14.383361</ele>
        <time>2020-07-16T12:55:10.716Z</time>
      </trkpt>
      <trkpt lat="62.15413" lon="5.65675">
        <ele>13.958714</ele>
        <time>2020-07-16T12:55:24.536Z</time>
      </trkpt>
      <trkpt lat="62.15455" lon="5.6566">
        <ele>13.73979</ele>
        <time>2020-07-16T12:55:31.712Z</time>
      </trkpt>
      <trkpt lat="62.15566" lon="5.65567">
        <ele>14.069476</ele>
        <time>2020-07-16T12:55:54.060Z</time>
      </trkpt>
      <trkpt lat="62.15589" lon="5.6555">
        <ele>14.220056</ele>
        <time>2020-07-16T12:55:59.237Z</time>
      </trkpt>
      <trkpt lat="62.15674" lon="5.65483">
        <ele>14.936489</ele>
        <time>2020-07-16T12:56:19.303Z</time>
      </trkpt>
      <trkpt lat="62.15716" lon="5.6545">
        <ele>15.616436</ele>
        <time>2020-07-16T12:56:30.418Z</time>
      </trkpt>
      <trkpt lat="62.15745" lon="5.65421">
        <ele>16.098147</ele>
        <time>2020-07-16T12:56:38.357Z</time>
      </trkpt>
      <trkpt lat="62.15798" lon="5.65369">
        <ele>16.973236</ele>
        <time>2020-07-16T12:56:52.193Z</time>
      </trkpt>
      <trkpt lat="62.15815" lon="5.65344">
        <ele>17.28072</ele>
        <time>2020-07-16T12:56:56.615Z</time>
      </trkpt>
      <trkpt lat="62.15827" lon="5.65322">
        <ele>17.423818</ele>
        <time>2020-07-16T12:57:00.442Z</time>
      </trkpt>
      <trkpt lat="62.15846" lon="5.65292">
        <ele>17.557399</ele>
        <time>2020-07-16T12:57:05.451Z</time>
      </trkpt>
      <trkpt lat="62.15866" lon="5.65274">
        <ele>17.679264</ele>
        <time>2020-07-16T12:57:10.083Z</time>
      </trkpt>
      <trkpt lat="62.15931" lon="5.65242">
        <ele>18.060526</ele>
        <time>2020-07-16T12:57:23.610Z</time>
      </trkpt>
      <trkpt lat="62.15961" lon="5.65183">
        <ele>18.294328</ele>
        <time>2020-07-16T12:57:30.697Z</time>
      </trkpt>
      <trkpt lat="62.15982" lon="5.65158">
        <ele>18.445939</ele>
        <time>2020-07-16T12:57:35.352Z</time>
      </trkpt>
      <trkpt lat="62.16063" lon="5.65135">
        <ele>19.12648</ele>
        <time>2020-07-16T12:57:51.900Z</time>
      </trkpt>
      <trkpt lat="62.16078" lon="5.65134">
        <ele>19.248099</ele>
        <time>2020-07-16T12:57:54.545Z</time>
      </trkpt>
      <trkpt lat="62.16104" lon="5.6511">
        <ele>19.482083</ele>
        <time>2020-07-16T12:58:01.329Z</time>
      </trkpt>
      <trkpt lat="62.16107" lon="5.65106">
        <ele>19.515073</ele>
        <time>2020-07-16T12:58:02.050Z</time>
      </trkpt>
      <trkpt lat="62.16121" lon="5.65091">
        <ele>19.643022</ele>
        <time>2020-07-16T12:58:06.911Z</time>
      </trkpt>
      <trkpt lat="62.1615" lon="5.65037">
        <ele>20.024233</ele>
        <time>2020-07-16T12:58:15.443Z</time>
      </trkpt>
      <trkpt lat="62.16184" lon="5.64932">
        <ele>20.894147</ele>
        <time>2020-07-16T12:58:27.528Z</time>
      </trkpt>
      <trkpt lat="62.16187" lon="5.64925">
        <ele>20.961543</ele>
        <time>2020-07-16T12:58:30.097Z</time>
      </trkpt>
      <trkpt lat="62.16197" lon="5.64908">
        <ele>21.147865</ele>
        <time>2020-07-16T12:58:32.978Z</time>
      </trkpt>
      <trkpt lat="62.16258" lon="5.64877">
        <ele>22.061674</ele>
        <time>2020-07-16T12:58:49.009Z</time>
      </trkpt>
      <trkpt lat="62.16272" lon="5.64884">
        <ele>22.276222</ele>
        <time>2020-07-16T12:58:51.866Z</time>
      </trkpt>
      <trkpt lat="62.16275" lon="5.64888">
        <ele>22.329157</ele>
        <time>2020-07-16T12:58:52.321Z</time>
      </trkpt>
      <trkpt lat="62.16302" lon="5.64847">
        <ele>22.355887</ele>
        <time>2020-07-16T12:58:59.679Z</time>
      </trkpt>
      <trkpt lat="62.16327" lon="5.64809">
        <ele>22.139172</ele>
        <time>2020-07-16T12:59:05.854Z</time>
      </trkpt>
      <trkpt lat="62.16339" lon="5.64793">
        <ele>22.039646</ele>
        <time>2020-07-16T12:59:08.002Z</time>
      </trkpt>
      <trkpt lat="62.16464" lon="5.64642">
        <ele>20.415561</ele>
        <time>2020-07-16T12:59:29.409Z</time>
      </trkpt>
      <trkpt lat="62.1651" lon="5.64597">
        <ele>18.999257</ele>
        <time>2020-07-16T12:59:36.188Z</time>
      </trkpt>
      <trkpt lat="62.16522" lon="5.64586">
        <ele>18.634826</ele>
        <time>2020-07-16T12:59:37.811Z</time>
      </trkpt>
      <trkpt lat="62.1661" lon="5.64513">
        <ele>15.96335</ele>
        <time>2020-07-16T12:59:50.071Z</time>
      </trkpt>
      <trkpt lat="62.16721" lon="5.64436">
        <ele>12.304327</ele>
        <time>2020-07-16T13:00:05.511Z</time>
      </trkpt>
      <trkpt lat="62.16868" lon="5.64297">
        <ele>7.003222</ele>
        <time>2020-07-16T13:00:26.477Z</time>
      </trkpt>
      <trkpt lat="62.16878" lon="5.64291">
        <ele>6.673111</ele>
        <time>2020-07-16T13:00:27.708Z</time>
      </trkpt>
      <trkpt lat="62.16885" lon="5.64288">
        <ele>6.439437</ele>
        <time>2020-07-16T13:00:28.488Z</time>
      </trkpt>
      <trkpt lat="62.16907" lon="5.64288">
        <ele>5.697024</ele>
        <time>2020-07-16T13:00:31.693Z</time>
      </trkpt>
      <trkpt lat="62.16915" lon="5.64291">
        <ele>5.412707</ele>
        <time>2020-07-16T13:00:32.719Z</time>
      </trkpt>
      <trkpt lat="62.16922" lon="5.64295">
        <ele>5.177991</ele>
        <time>2020-07-16T13:00:33.508Z</time>
      </trkpt>
      <trkpt lat="62.16942" lon="5.64317">
        <ele>4.432768</ele>
        <time>2020-07-16T13:00:36.917Z</time>
      </trkpt>
      <trkpt lat="62.16954" lon="5.64335">
        <ele>4.124458</ele>
        <time>2020-07-16T13:00:38.548Z</time>
      </trkpt>
      <trkpt lat="62.16958" lon="5.64341">
        <ele>4.013879</ele>
        <time>2020-07-16T13:00:39.296Z</time>
      </trkpt>
      <trkpt lat="62.16974" lon="5.64368">
        <ele>3.556323</ele>
        <time>2020-07-16T13:00:42.228Z</time>
      </trkpt>
      <trkpt lat="62.16986" lon="5.64386">
        <ele>3.233622</ele>
        <time>2020-07-16T13:00:44.261Z</time>
      </trkpt>
      <trkpt lat="62.17064" lon="5.64517">
        <ele>1.037597</ele>
        <time>2020-07-16T13:00:58.090Z</time>
      </trkpt>
      <trkpt lat="62.17114" lon="5.64585">
        <ele>0.413995</ele>
        <time>2020-07-16T13:01:06.378Z</time>
      </trkpt>
      <trkpt lat="62.1714" lon="5.64603">
        <ele>0.336207</ele>
        <time>2020-07-16T13:01:10.174Z</time>
      </trkpt>
      <trkpt lat="62.17195" lon="5.64605">
        <ele>0.179507</ele>
        <time>2020-07-16T13:01:17.848Z</time>
      </trkpt>
      <trkpt lat="62.17238" lon="5.6459">
        <ele>0.055121</ele>
        <time>2020-07-16T13:01:23.929Z</time>
      </trkpt>
      <trkpt lat="62.17314" lon="5.64544">
        <ele>0.002689</ele>
        <time>2020-07-16T13:01:34.884Z</time>
      </trkpt>
      <trkpt lat="62.17523" lon="5.64468">
        <time>2020-07-16T13:02:04.416Z</time>
      </trkpt>
      <trkpt lat="62.17579" lon="5.64429">
        <time>2020-07-16T13:02:12.609Z</time>
      </trkpt>
      <trkpt lat="62.17889" lon="5.6427">
        <time>2020-07-16T13:02:57.079Z</time>
      </trkpt>
      <trkpt lat="62.19022" lon="5.63721">
        <time>2020-07-16T13:05:38.844Z</time>
      </trkpt>
      <trkpt lat="62.19095" lon="5.63665">
        <time>2020-07-16T13:05:49.652Z</time>
      </trkpt>
      <trkpt lat="62.19133" lon="5.63586">
        <time>2020-07-16T13:05:57.054Z</time>
      </trkpt>
      <trkpt lat="62.19141" lon="5.63438">
        <ele>0.04297</ele>
        <time>2020-07-16T13:06:06.689Z</time>
      </trkpt>
      <trkpt lat="62.19141" lon="5.63422">
        <ele>0.053169</ele>
        <time>2020-07-16T13:06:08.091Z</time>
      </trkpt>
      <trkpt lat="62.19145" lon="5.63382">
        <ele>0.077656</ele>
        <time>2020-07-16T13:06:11.456Z</time>
      </trkpt>
      <trkpt lat="62.19175" lon="5.6332">
        <ele>0.131468</ele>
        <time>2020-07-16T13:06:18.852Z</time>
      </trkpt>
      <trkpt lat="62.19177" lon="5.63312">
        <ele>0.13722</ele>
        <time>2020-07-16T13:06:19.635Z</time>
      </trkpt>
      <trkpt lat="62.19179" lon="5.63296">
        <ele>0.146941</ele>
        <time>2020-07-16T13:06:20.974Z</time>
      </trkpt>
      <trkpt lat="62.19179" lon="5.63283">
        <ele>0.155361</ele>
        <time>2020-07-16T13:06:22.126Z</time>
      </trkpt>
      <trkpt lat="62.1918" lon="5.6323">
        <ele>0.187269</ele>
        <time>2020-07-16T13:06:26.656Z</time>
      </trkpt>
      <trkpt lat="62.19179" lon="5.63188">
        <ele>0.212872</ele>
        <time>2020-07-16T13:06:30.348Z</time>
      </trkpt>
      <trkpt lat="62.19181" lon="5.63089">
        <ele>0.523612</ele>
        <time>2020-07-16T13:06:39.218Z</time>
      </trkpt>
      <trkpt lat="62.19183" lon="5.63037">
        <ele>0.76164</ele>
        <time>2020-07-16T13:06:44.048Z</time>
      </trkpt>
      <trkpt lat="62.19185" lon="5.62972">
        <ele>1.059928</ele>
        <time>2020-07-16T13:06:50.372Z</time>
      </trkpt>
      <trkpt lat="62.19191" lon="5.62832">
        <ele>1.695439</ele>
        <time>2020-07-16T13:07:05.098Z</time>
      </trkpt>
      <trkpt lat="62.19192" lon="5.62682">
        <ele>2.195092</ele>
        <time>2020-07-16T13:07:20.286Z</time>
      </trkpt>
      <trkpt lat="62.1919" lon="5.62608">
        <ele>2.377075</ele>
        <time>2020-07-16T13:07:27.492Z</time>
      </trkpt>
      <trkpt lat="62.19188" lon="5.62577">
        <ele>2.453495</ele>
        <time>2020-07-16T13:07:30.515Z</time>
      </trkpt>
      <trkpt lat="62.19182" lon="5.62534">
        <ele>2.56361</ele>
        <time>2020-07-16T13:07:34.543Z</time>
      </trkpt>
      <trkpt lat="62.19167" lon="5.62483">
        <ele>2.710595</ele>
        <time>2020-07-16T13:07:39.794Z</time>
      </trkpt>
      <trkpt lat="62.19147" lon="5.62435">
        <ele>2.866348</ele>
        <time>2020-07-16T13:07:45.298Z</time>
      </trkpt>
      <trkpt lat="62.19143" lon="5.62426">
        <ele>2.898713</ele>
        <time>2020-07-16T13:07:46.285Z</time>
      </trkpt>
      <trkpt lat="62.19102" lon="5.62282">
        <ele>2.310323</ele>
        <time>2020-07-16T13:07:59.057Z</time>
      </trkpt>
      <trkpt lat="62.19037" lon="5.62122">
        <ele>1.481782</ele>
        <time>2020-07-16T13:08:13.994Z</time>
      </trkpt>
      <trkpt lat="62.19022" lon="5.62068">
        <ele>1.328571</ele>
        <time>2020-07-16T13:08:18.601Z</time>
      </trkpt>
      <trkpt lat="62.19017" lon="5.62014">
        <ele>1.222653</ele>
        <time>2020-07-16T13:08:22.652Z</time>
      </trkpt>
      <trkpt lat="62.19019" lon="5.61971">
        <ele>1.138509</ele>
        <time>2020-07-16T13:08:25.891Z</time>
      </trkpt>
      <trkpt lat="62.19045" lon="5.61809">
        <ele>0.809875</ele>
        <time>2020-07-16T13:08:38.913Z</time>
      </trkpt>
      <trkpt lat="62.19046" lon="5.61794">
        <ele>0.779659</ele>
        <time>2020-07-16T13:08:40.150Z</time>
      </trkpt>
      <trkpt lat="62.19049" lon="5.61765">
        <ele>0.721358</ele>
        <time>2020-07-16T13:08:42.523Z</time>
      </trkpt>
      <trkpt lat="62.19048" lon="5.61587">
        <ele>2.379395</ele>
        <time>2020-07-16T13:09:00.333Z</time>
      </trkpt>
      <trkpt lat="62.19055" lon="5.61516">
        <ele>3.181672</ele>
        <time>2020-07-16T13:09:08.814Z</time>
      </trkpt>
      <trkpt lat="62.19057" lon="5.61498">
        <ele>3.386758</ele>
        <time>2020-07-16T13:09:10.918Z</time>
      </trkpt>
      <trkpt lat="62.19071" lon="5.61433">
        <ele>4.177387</ele>
        <time>2020-07-16T13:09:20.126Z</time>
      </trkpt>
      <trkpt lat="62.19075" lon="5.6141">
        <ele>4.446198</ele>
        <time>2020-07-16T13:09:22.878Z</time>
      </trkpt>
      <trkpt lat="62.19081" lon="5.61368">
        <ele>4.947643</ele>
        <time>2020-07-16T13:09:31.175Z</time>
      </trkpt>
      <trkpt lat="62.19091" lon="5.61185">
        <ele>9.039794</ele>
        <time>2020-07-16T13:10:00.249Z</time>
      </trkpt>
      <trkpt lat="62.19089" lon="5.61102">
        <ele>10.87686</ele>
        <time>2020-07-16T13:10:13.626Z</time>
      </trkpt>
      <trkpt lat="62.19087" lon="5.61081">
        <ele>11.348842</ele>
        <time>2020-07-16T13:10:18.425Z</time>
      </trkpt>
      <trkpt lat="62.19082" lon="5.61047">
        <ele>12.140436</ele>
        <time>2020-07-16T13:10:23.416Z</time>
      </trkpt>
      <trkpt lat="62.19065" lon="5.60975">
        <ele>13.721548</ele>
        <time>2020-07-16T13:10:34.685Z</time>
      </trkpt>
      <trkpt lat="62.19052" lon="5.60934">
        <ele>14.24596</ele>
        <time>2020-07-16T13:10:41.980Z</time>
      </trkpt>
      <trkpt lat="62.19047" lon="5.60919">
        <ele>14.442583</ele>
        <time>2020-07-16T13:10:43.552Z</time>
      </trkpt>
      <trkpt lat="62.19027" lon="5.60812">
        <ele>15.703557</ele>
        <time>2020-07-16T13:10:58.591Z</time>
      </trkpt>
      <trkpt lat="62.19025" lon="5.60716">
        <ele>16.746787</ele>
        <time>2020-07-16T13:11:08.640Z</time>
      </trkpt>
      <trkpt lat="62.19027" lon="5.607">
        <ele>16.922057</ele>
        <time>2020-07-16T13:11:09.687Z</time>
      </trkpt>
      <trkpt lat="62.19028" lon="5.60682">
        <ele>17.117765</ele>
        <time>2020-07-16T13:11:11.647Z</time>
      </trkpt>
      <trkpt lat="62.19053" lon="5.60439">
        <ele>19.003561</ele>
        <time>2020-07-16T13:11:36.174Z</time>
      </trkpt>
      <trkpt lat="62.19072" lon="5.60315">
        <ele>19.875819</ele>
        <time>2020-07-16T13:11:50.771Z</time>
      </trkpt>
      <trkpt lat="62.19103" lon="5.6017">
        <ele>20.457627</ele>
        <time>2020-07-16T13:12:08.606Z</time>
      </trkpt>
      <trkpt lat="62.19146" lon="5.60059">
        <ele>20.720363</ele>
        <time>2020-07-16T13:12:23.146Z</time>
      </trkpt>
      <trkpt lat="62.19166" lon="5.59972">
        <ele>20.898097</ele>
        <time>2020-07-16T13:12:31.588Z</time>
      </trkpt>
      <trkpt lat="62.1917" lon="5.59901">
        <ele>20.41578</ele>
        <time>2020-07-16T13:12:36.396Z</time>
      </trkpt>
      <trkpt lat="62.19165" lon="5.59656">
        <ele>15.42451</ele>
        <time>2020-07-16T13:12:50.454Z</time>
      </trkpt>
      <trkpt lat="62.19166" lon="5.59513">
        <ele>12.63153</ele>
        <time>2020-07-16T13:12:58.362Z</time>
      </trkpt>
      <trkpt lat="62.19169" lon="5.59447">
        <ele>11.56195</ele>
        <time>2020-07-16T13:13:02.000Z</time>
      </trkpt>
      <trkpt lat="62.19171" lon="5.59336">
        <ele>9.745535</ele>
        <time>2020-07-16T13:13:08.329Z</time>
      </trkpt>
      <trkpt lat="62.19153" lon="5.5921">
        <ele>7.597728</ele>
        <time>2020-07-16T13:13:16.711Z</time>
      </trkpt>
      <trkpt lat="62.19151" lon="5.59191">
        <ele>7.286914</ele>
        <time>2020-07-16T13:13:17.893Z</time>
      </trkpt>
      <trkpt lat="62.1915" lon="5.59174">
        <ele>7.013171</ele>
        <time>2020-07-16T13:13:19.732Z</time>
      </trkpt>
      <trkpt lat="62.19158" lon="5.59103">
        <ele>7.002633</ele>
        <time>2020-07-16T13:13:26.387Z</time>
      </trkpt>
      <trkpt lat="62.19169" lon="5.5908">
        <ele>7.079616</ele>
        <time>2020-07-16T13:13:31.237Z</time>
      </trkpt>
      <trkpt lat="62.19185" lon="5.59076">
        <ele>7.158305</ele>
        <time>2020-07-16T13:13:33.482Z</time>
      </trkpt>
      <trkpt lat="62.19218" lon="5.59103">
        <ele>7.33184</ele>
        <time>2020-07-16T13:13:41.003Z</time>
      </trkpt>
      <trkpt lat="62.1926" lon="5.59185">
        <ele>7.618248</ele>
        <time>2020-07-16T13:13:54.527Z</time>
      </trkpt>
      <trkpt lat="62.19274" lon="5.59196">
        <ele>7.689994</ele>
        <time>2020-07-16T13:13:56.688Z</time>
      </trkpt>
      <trkpt lat="62.19286" lon="5.59195">
        <ele>7.748267</ele>
        <time>2020-07-16T13:13:58.859Z</time>
      </trkpt>
      <trkpt lat="62.19292" lon="5.59187">
        <ele>7.658133</ele>
        <time>2020-07-16T13:14:01.619Z</time>
      </trkpt>
      <trkpt lat="62.19297" lon="5.59177">
        <ele>7.585058</ele>
        <time>2020-07-16T13:14:02.360Z</time>
      </trkpt>
      <trkpt lat="62.19321" lon="5.59088">
        <ele>7.026037</ele>
        <time>2020-07-16T13:14:09.574Z</time>
      </trkpt>
      <trkpt lat="62.19341" lon="5.58992">
        <ele>6.456935</ele>
        <time>2020-07-16T13:14:17.254Z</time>
      </trkpt>
      <trkpt lat="62.19343" lon="5.58937">
        <ele>6.159257</ele>
        <time>2020-07-16T13:14:20.798Z</time>
      </trkpt>
      <trkpt lat="62.19335" lon="5.58809">
        <ele>5.784388</ele>
        <time>2020-07-16T13:14:29.472Z</time>
      </trkpt>
      <trkpt lat="62.19335" lon="5.58803">
        <ele>5.805667</ele>
        <time>2020-07-16T13:14:29.776Z</time>
      </trkpt>
      <trkpt lat="62.19334" lon="5.58782">
        <ele>5.879242</ele>
        <time>2020-07-16T13:14:31.651Z</time>
      </trkpt>
      <trkpt lat="62.19336" lon="5.58677">
        <ele>6.244089</ele>
        <time>2020-07-16T13:14:38.931Z</time>
      </trkpt>
      <trkpt lat="62.19339" lon="5.58646">
        <ele>6.354057</ele>
        <time>2020-07-16T13:14:41.694Z</time>
      </trkpt>
      <trkpt lat="62.19342" lon="5.58627">
        <ele>6.42308</ele>
        <time>2020-07-16T13:14:44.100Z</time>
      </trkpt>
      <trkpt lat="62.19371" lon="5.58458">
        <ele>7.192404</ele>
        <time>2020-07-16T13:15:07.168Z</time>
      </trkpt>
      <trkpt lat="62.19388" lon="5.58422">
        <ele>7.818495</ele>
        <time>2020-07-16T13:15:13.802Z</time>
      </trkpt>
      <trkpt lat="62.19403" lon="5.58411">
        <ele>8.251956</ele>
        <time>2020-07-16T13:15:18.679Z</time>
      </trkpt>
      <trkpt lat="62.19407" lon="5.5841">
        <ele>8.357509</ele>
        <time>2020-07-16T13:15:20.066Z</time>
      </trkpt>
      <trkpt lat="62.19416" lon="5.58409">
        <ele>8.603108</ele>
        <time>2020-07-16T13:15:22.849Z</time>
      </trkpt>
      <trkpt lat="62.19431" lon="5.58409">
        <ele>9.006759</ele>
        <time>2020-07-16T13:15:26.393Z</time>
      </trkpt>
      <trkpt lat="62.19432" lon="5.58402">
        <ele>9.092357</ele>
        <time>2020-07-16T13:15:28.113Z</time>
      </trkpt>
      <trkpt lat="62.19497" lon="5.58385">
        <ele>10.855371</ele>
        <time>2020-07-16T13:15:45.937Z</time>
      </trkpt>
      <trkpt lat="62.19599" lon="5.58326">
        <ele>11.717213</ele>
        <time>2020-07-16T13:16:10.261Z</time>
      </trkpt>
      <trkpt lat="62.19629" lon="5.58287">
        <ele>11.6586</ele>
        <time>2020-07-16T13:16:15.654Z</time>
      </trkpt>
      <trkpt lat="62.1969" lon="5.58175">
        <ele>11.549864</ele>
        <time>2020-07-16T13:16:28.492Z</time>
      </trkpt>
      <trkpt lat="62.19699" lon="5.58162">
        <ele>11.586731</ele>
        <time>2020-07-16T13:16:29.971Z</time>
      </trkpt>
      <trkpt lat="62.19707" lon="5.58148">
        <ele>11.621877</ele>
        <time>2020-07-16T13:16:31.916Z</time>
      </trkpt>
      <trkpt lat="62.19725" lon="5.58116">
        <ele>11.698853</ele>
        <time>2020-07-16T13:16:35.595Z</time>
      </trkpt>
      <trkpt lat="62.19745" lon="5.58077">
        <ele>11.790483</ele>
        <time>2020-07-16T13:16:40.943Z</time>
      </trkpt>
      <trkpt lat="62.19771" lon="5.58011">
        <ele>11.923587</ele>
        <time>2020-07-16T13:16:47.822Z</time>
      </trkpt>
      <trkpt lat="62.19845" lon="5.57783">
        <ele>13.708857</ele>
        <time>2020-07-16T13:17:20.713Z</time>
      </trkpt>
      <trkpt lat="62.19867" lon="5.57735">
        <ele>14.457844</ele>
        <time>2020-07-16T13:17:29.931Z</time>
      </trkpt>
      <trkpt lat="62.1989" lon="5.57714">
        <ele>15.067938</ele>
        <time>2020-07-16T13:17:38.361Z</time>
      </trkpt>
      <trkpt lat="62.19984" lon="5.5767">
        <ele>15.491709</ele>
        <time>2020-07-16T13:18:02.472Z</time>
      </trkpt>
      <trkpt lat="62.20023" lon="5.5764">
        <ele>14.544825</ele>
        <time>2020-07-16T13:18:08.331Z</time>
      </trkpt>
      <trkpt lat="62.20041" lon="5.57623">
        <ele>14.103884</ele>
        <time>2020-07-16T13:18:11.006Z</time>
      </trkpt>
      <trkpt lat="62.20063" lon="5.57597">
        <ele>13.523998</ele>
        <time>2020-07-16T13:18:14.070Z</time>
      </trkpt>
      <trkpt lat="62.20111" lon="5.57525">
        <ele>12.169103</ele>
        <time>2020-07-16T13:18:22.112Z</time>
      </trkpt>
      <trkpt lat="62.20116" lon="5.57526">
        <ele>12.033726</ele>
        <time>2020-07-16T13:18:22.767Z</time>
      </trkpt>
      <trkpt lat="62.20118" lon="5.57529">
        <ele>11.971272</ele>
        <time>2020-07-16T13:18:23.028Z</time>
      </trkpt>
      <trkpt lat="62.2012" lon="5.57533">
        <ele>11.896976</ele>
        <time>2020-07-16T13:18:23.334Z</time>
      </trkpt>
      <trkpt lat="62.20125" lon="5.57533">
        <ele>11.756308</ele>
        <time>2020-07-16T13:18:24.352Z</time>
      </trkpt>
      <trkpt lat="62.20168" lon="5.5746">
        <ele>10.293237</ele>
        <time>2020-07-16T13:18:32.046Z</time>
      </trkpt>
      <trkpt lat="62.20195" lon="5.57432">
        <ele>9.499109</ele>
        <time>2020-07-16T13:18:35.917Z</time>
      </trkpt>
      <trkpt lat="62.20223" lon="5.57433">
        <ele>8.769173</ele>
        <time>2020-07-16T13:18:39.536Z</time>
      </trkpt>
      <trkpt lat="62.20241" lon="5.57453">
        <ele>8.23213</ele>
        <time>2020-07-16T13:18:44.812Z</time>
      </trkpt>
      <trkpt lat="62.2025" lon="5.57469">
        <ele>7.917751</ele>
        <time>2020-07-16T13:18:46.175Z</time>
      </trkpt>
      <trkpt lat="62.20255" lon="5.57477">
        <ele>7.756946</ele>
        <time>2020-07-16T13:18:48.591Z</time>
      </trkpt>
      <trkpt lat="62.20299" lon="5.57599">
        <ele>7.84758</ele>
        <time>2020-07-16T13:19:05.720Z</time>
      </trkpt>
      <trkpt lat="62.20302" lon="5.57605">
        <ele>7.871388</ele>
        <time>2020-07-16T13:19:07.861Z</time>
      </trkpt>
      <trkpt lat="62.20311" lon="5.57615">
        <ele>7.923666</ele>
        <time>2020-07-16T13:19:09.771Z</time>
      </trkpt>
      <trkpt lat="62.20331" lon="5.57627">
        <ele>8.03472</ele>
        <time>2020-07-16T13:19:13.767Z</time>
      </trkpt>
      <trkpt lat="62.20336" lon="5.57628">
        <ele>8.059234</ele>
        <time>2020-07-16T13:19:15.888Z</time>
      </trkpt>
      <trkpt lat="62.20343" lon="5.57629">
        <ele>8.099738</ele>
        <time>2020-07-16T13:19:17.479Z</time>
      </trkpt>
      <trkpt lat="62.20378" lon="5.57617">
        <ele>8.288128</ele>
        <time>2020-07-16T13:19:25.460Z</time>
      </trkpt>
      <trkpt lat="62.20391" lon="5.57606">
        <ele>8.360621</ele>
        <time>2020-07-16T13:19:27.777Z</time>
      </trkpt>
      <trkpt lat="62.204" lon="5.57596">
        <ele>8.41736</ele>
        <time>2020-07-16T13:19:29.257Z</time>
      </trkpt>
      <trkpt lat="62.20482" lon="5.57441">
        <ele>6.463969</ele>
        <time>2020-07-16T13:19:45.935Z</time>
      </trkpt>
      <trkpt lat="62.20514" lon="5.57397">
        <ele>5.685516</ele>
        <time>2020-07-16T13:19:51.287Z</time>
      </trkpt>
      <trkpt lat="62.20553" lon="5.57359">
        <ele>4.827582</ele>
        <time>2020-07-16T13:19:57.160Z</time>
      </trkpt>
      <trkpt lat="62.20558" lon="5.57354">
        <ele>4.826555</ele>
        <time>2020-07-16T13:19:57.825Z</time>
      </trkpt>
      <trkpt lat="62.20586" lon="5.57328">
        <ele>4.867452</ele>
        <time>2020-07-16T13:20:02.310Z</time>
      </trkpt>
      <trkpt lat="62.2061" lon="5.57306">
        <ele>4.902097</ele>
        <time>2020-07-16T13:20:05.925Z</time>
      </trkpt>
      <trkpt lat="62.20618" lon="5.57297">
        <ele>4.914647</ele>
        <time>2020-07-16T13:20:08.460Z</time>
      </trkpt>
      <trkpt lat="62.20624" lon="5.57289">
        <ele>4.924382</ele>
        <time>2020-07-16T13:20:09.410Z</time>
      </trkpt>
      <trkpt lat="62.20633" lon="5.57278">
        <ele>4.937676</ele>
        <time>2020-07-16T13:20:10.847Z</time>
      </trkpt>
      <trkpt lat="62.20642" lon="5.57256">
        <ele>4.955792</ele>
        <time>2020-07-16T13:20:13.970Z</time>
      </trkpt>
      <trkpt lat="62.20646" lon="5.57234">
        <ele>4.97062</ele>
        <time>2020-07-16T13:20:16.067Z</time>
      </trkpt>
      <trkpt lat="62.20649" lon="5.57221">
        <ele>4.979361</ele>
        <time>2020-07-16T13:20:17.257Z</time>
      </trkpt>
      <trkpt lat="62.20655" lon="5.57206">
        <ele>4.991855</ele>
        <time>2020-07-16T13:20:19.363Z</time>
      </trkpt>
      <trkpt lat="62.20668" lon="5.57167">
        <ele>5.022246</ele>
        <time>2020-07-16T13:20:26.050Z</time>
      </trkpt>
      <trkpt lat="62.20675" lon="5.5715">
        <ele>5.036224</ele>
        <time>2020-07-16T13:20:28.361Z</time>
      </trkpt>
      <trkpt lat="62.20689" lon="5.57136">
        <ele>5.056284</ele>
        <time>2020-07-16T13:20:34.310Z</time>
      </trkpt>
      <trkpt lat="62.20693" lon="5.57136">
        <ele>5.191143</ele>
        <time>2020-07-16T13:20:35.465Z</time>
      </trkpt>
      <trkpt lat="62.20692" lon="5.57124">
        <ele>5.578825</ele>
        <time>2020-07-16T13:20:36.773Z</time>
      </trkpt>
      <trkpt lat="62.20699" lon="5.57126">
        <ele>6.046698</ele>
        <time>2020-07-16T13:20:38.673Z</time>
      </trkpt>
      <trkpt lat="62.20705" lon="5.57134">
        <ele>6.519741</ele>
        <time>2020-07-16T13:20:40.662Z</time>
      </trkpt>
      <trkpt lat="62.20708" lon="5.57141">
        <ele>6.771816</ele>
        <time>2020-07-16T13:20:41.877Z</time>
      </trkpt>
      <trkpt lat="62.20711" lon="5.57152">
        <ele>7.16624</ele>
        <time>2020-07-16T13:20:45.072Z</time>
      </trkpt>
      <trkpt lat="62.2071" lon="5.57181">
        <ele>8.06933</ele>
        <time>2020-07-16T13:20:48.558Z</time>
      </trkpt>
      <trkpt lat="62.20708" lon="5.57218">
        <ele>9.211742</ele>
        <time>2020-07-16T13:20:54.139Z</time>
      </trkpt>
      <trkpt lat="62.20704" lon="5.57268">
        <ele>10.793399</ele>
        <time>2020-07-16T13:21:02.681Z</time>
      </trkpt>
      <trkpt lat="62.20703" lon="5.57308">
        <ele>12.035918</ele>
        <time>2020-07-16T13:21:10.577Z</time>
      </trkpt>
      <trkpt lat="62.20711" lon="5.57418">
        <ele>15.46107</ele>
        <time>2020-07-16T13:21:33.400Z</time>
      </trkpt>
      <trkpt lat="62.20711" lon="5.57418">
        <ele>15.46107</ele>
        <time>2020-07-16T13:21:33.530Z</time>
      </trkpt>
      <trkpt lat="62.20729" lon="5.57551">
        <ele>20.375778</ele>
        <time>2020-07-16T13:22:05.649Z</time>
      </trkpt>
      <trkpt lat="62.20739" lon="5.57582">
        <ele>21.822295</ele>
        <time>2020-07-16T13:22:14.539Z</time>
      </trkpt>
      <trkpt lat="62.20768" lon="5.57629">
        <ele>24.768119</ele>
        <time>2020-07-16T13:22:30.545Z</time>
      </trkpt>
      <trkpt lat="62.20773" lon="5.57639">
        <ele>25.310871</ele>
        <time>2020-07-16T13:22:33.969Z</time>
      </trkpt>
      <trkpt lat="62.20781" lon="5.5766">
        <ele>26.355981</ele>
        <time>2020-07-16T13:22:38.479Z</time>
      </trkpt>
      <trkpt lat="62.20786" lon="5.57673">
        <ele>26.992111</ele>
        <time>2020-07-16T13:22:42.939Z</time>
      </trkpt>
      <trkpt lat="62.2082" lon="5.57798">
        <ele>32.022626</ele>
        <time>2020-07-16T13:23:09.375Z</time>
      </trkpt>
      <trkpt lat="62.2086" lon="5.57856">
        <ele>33.797007</ele>
        <time>2020-07-16T13:23:26.998Z</time>
      </trkpt>
      <trkpt lat="62.209" lon="5.57871">
        <ele>35.273346</ele>
        <time>2020-07-16T13:23:40.455Z</time>
      </trkpt>
      <trkpt lat="62.2102" lon="5.57848">
        <ele>38.984661</ele>
        <time>2020-07-16T13:24:06.468Z</time>
      </trkpt>
      <trkpt lat="62.21022" lon="5.57848">
        <ele>39.022998</ele>
        <time>2020-07-16T13:24:06.964Z</time>
      </trkpt>
      <trkpt lat="62.21048" lon="5.57842">
        <ele>39.523083</ele>
        <time>2020-07-16T13:24:12.125Z</time>
      </trkpt>
      <trkpt lat="62.21133" lon="5.57829">
        <ele>41.143775</ele>
        <time>2020-07-16T13:24:32.038Z</time>
      </trkpt>
      <trkpt lat="62.21141" lon="5.57828">
        <ele>41.295421</ele>
        <time>2020-07-16T13:24:33.800Z</time>
      </trkpt>
      <trkpt lat="62.2117" lon="5.57823">
        <ele>42.341682</ele>
        <time>2020-07-16T13:24:42.389Z</time>
      </trkpt>
      <trkpt lat="62.21211" lon="5.57824">
        <ele>45.067325</ele>
        <time>2020-07-16T13:24:55.148Z</time>
      </trkpt>
      <trkpt lat="62.21254" lon="5.57838">
        <ele>48.015976</ele>
        <time>2020-07-16T13:25:11.593Z</time>
      </trkpt>
      <trkpt lat="62.21308" lon="5.57876">
        <ele>51.807897</ele>
        <time>2020-07-16T13:25:36.611Z</time>
      </trkpt>
      <trkpt lat="62.21374" lon="5.57948">
        <ele>58.594711</ele>
        <time>2020-07-16T13:26:13.176Z</time>
      </trkpt>
      <trkpt lat="62.21413" lon="5.57952">
        <ele>62.835656</ele>
        <time>2020-07-16T13:26:33.612Z</time>
      </trkpt>
      <trkpt lat="62.21451" lon="5.57915">
        <ele>67.41891</ele>
        <time>2020-07-16T13:26:56.133Z</time>
      </trkpt>
      <trkpt lat="62.21601" lon="5.57631">
        <ele>90.522372</ele>
        <time>2020-07-16T13:28:48.479Z</time>
      </trkpt>
      <trkpt lat="62.21626" lon="5.57624">
        <ele>93.50511</ele>
        <time>2020-07-16T13:29:02.940Z</time>
      </trkpt>
      <trkpt lat="62.21639" lon="5.57647">
        <ele>95.330224</ele>
        <time>2020-07-16T13:29:12.153Z</time>
      </trkpt>
      <trkpt lat="62.2164" lon="5.577">
        <ele>97.715845</ele>
        <time>2020-07-16T13:29:25.133Z</time>
      </trkpt>
      <trkpt lat="62.21632" lon="5.57754">
        <ele>100.232677</ele>
        <time>2020-07-16T13:29:39.437Z</time>
      </trkpt>
      <trkpt lat="62.21581" lon="5.58103">
        <ele>115.20731</ele>
        <time>2020-07-16T13:30:58.001Z</time>
      </trkpt>
      <trkpt lat="62.21565" lon="5.58185">
        <ele>117.998282</ele>
        <time>2020-07-16T13:31:13.283Z</time>
      </trkpt>
      <trkpt lat="62.21517" lon="5.58357">
        <ele>124.209956</ele>
        <time>2020-07-16T13:31:46.430Z</time>
      </trkpt>
      <trkpt lat="62.21497" lon="5.58452">
        <ele>127.401918</ele>
        <time>2020-07-16T13:32:04.555Z</time>
      </trkpt>
      <trkpt lat="62.21476" lon="5.58581">
        <ele>131.575458</ele>
        <time>2020-07-16T13:32:29.679Z</time>
      </trkpt>
      <trkpt lat="62.21466" lon="5.5868">
        <ele>134.657412</ele>
        <time>2020-07-16T13:32:48.288Z</time>
      </trkpt>
      <trkpt lat="62.21465" lon="5.58699">
        <ele>135.225911</ele>
        <time>2020-07-16T13:32:52.470Z</time>
      </trkpt>
      <trkpt lat="62.21465" lon="5.58744">
        <ele>136.833686</ele>
        <time>2020-07-16T13:33:00.623Z</time>
      </trkpt>
      <trkpt lat="62.21464" lon="5.58793">
        <ele>138.63777</ele>
        <time>2020-07-16T13:33:10.229Z</time>
      </trkpt>
      <trkpt lat="62.21463" lon="5.58987">
        <ele>145.75805</ele>
        <time>2020-07-16T13:33:48.677Z</time>
      </trkpt>
      <trkpt lat="62.21471" lon="5.59114">
        <ele>150.602385</ele>
        <time>2020-07-16T13:34:16.160Z</time>
      </trkpt>
      <trkpt lat="62.21501" lon="5.59284">
        <ele>158.470114</ele>
        <time>2020-07-16T13:34:54.932Z</time>
      </trkpt>
      <trkpt lat="62.21521" lon="5.59357">
        <ele>162.16264</ele>
        <time>2020-07-16T13:35:13.688Z</time>
      </trkpt>
      <trkpt lat="62.2157" lon="5.59471">
        <ele>169.17675</ele>
        <time>2020-07-16T13:35:50.351Z</time>
      </trkpt>
      <trkpt lat="62.21596" lon="5.59564">
        <ele>174.354895</ele>
        <time>2020-07-16T13:36:17.365Z</time>
      </trkpt>
      <trkpt lat="62.21637" lon="5.59746">
        <ele>184.036103</ele>
        <time>2020-07-16T13:37:05.218Z</time>
      </trkpt>
      <trkpt lat="62.2165" lon="5.59803">
        <ele>186.628554</ele>
        <time>2020-07-16T13:37:20.416Z</time>
      </trkpt>
      <trkpt lat="62.21702" lon="5.59996">
        <ele>194.808895</ele>
        <time>2020-07-16T13:38:07.762Z</time>
      </trkpt>
      <trkpt lat="62.21709" lon="5.6002">
        <ele>195.836102</ele>
        <time>2020-07-16T13:38:13.323Z</time>
      </trkpt>
      <trkpt lat="62.21714" lon="5.60047">
        <ele>196.900561</ele>
        <time>2020-07-16T13:38:18.623Z</time>
      </trkpt>
      <trkpt lat="62.21723" lon="5.60175">
        <ele>199.975349</ele>
        <time>2020-07-16T13:38:39.221Z</time>
      </trkpt>
      <trkpt lat="62.21722" lon="5.6044">
        <ele>203.07386</ele>
        <time>2020-07-16T13:39:11.244Z</time>
      </trkpt>
      <trkpt lat="62.21726" lon="5.60545">
        <ele>203.114482</ele>
        <time>2020-07-16T13:39:19.266Z</time>
      </trkpt>
      <trkpt lat="62.21743" lon="5.60724">
        <ele>201.034717</ele>
        <time>2020-07-16T13:39:31.230Z</time>
      </trkpt>
      <trkpt lat="62.2178" lon="5.61006">
        <ele>195.566578</ele>
        <time>2020-07-16T13:39:48.284Z</time>
      </trkpt>
      <trkpt lat="62.2179" lon="5.61127">
        <ele>192.318584</ele>
        <time>2020-07-16T13:39:55.171Z</time>
      </trkpt>
      <trkpt lat="62.21791" lon="5.61198">
        <ele>190.451184</ele>
        <time>2020-07-16T13:39:59.030Z</time>
      </trkpt>
      <trkpt lat="62.21783" lon="5.61452">
        <ele>179.231343</ele>
        <time>2020-07-16T13:40:12.250Z</time>
      </trkpt>
      <trkpt lat="62.21788" lon="5.61584">
        <ele>172.807817</ele>
        <time>2020-07-16T13:40:18.852Z</time>
      </trkpt>
      <trkpt lat="62.21807" lon="5.61737">
        <ele>163.678964</ele>
        <time>2020-07-16T13:40:26.619Z</time>
      </trkpt>
      <trkpt lat="62.21856" lon="5.61966">
        <ele>148.074311</ele>
        <time>2020-07-16T13:40:38.957Z</time>
      </trkpt>
      <trkpt lat="62.21864" lon="5.62063">
        <ele>143.644792</ele>
        <time>2020-07-16T13:40:43.888Z</time>
      </trkpt>
      <trkpt lat="62.21866" lon="5.62201">
        <ele>138.183872</ele>
        <time>2020-07-16T13:40:51.040Z</time>
      </trkpt>
      <trkpt lat="62.21866" lon="5.62259">
        <ele>135.936747</ele>
        <time>2020-07-16T13:40:54.075Z</time>
      </trkpt>
      <trkpt lat="62.21862" lon="5.62383">
        <ele>131.174044</ele>
        <time>2020-07-16T13:41:00.928Z</time>
      </trkpt>
      <trkpt lat="62.21827" lon="5.62872">
        <ele>120.03647</ele>
        <time>2020-07-16T13:41:29.750Z</time>
      </trkpt>
      <trkpt lat="62.21817" lon="5.62954">
        <ele>117.692677</ele>
        <time>2020-07-16T13:41:34.519Z</time>
      </trkpt>
      <trkpt lat="62.21791" lon="5.63077">
        <ele>113.998443</ele>
        <time>2020-07-16T13:41:41.825Z</time>
      </trkpt>
      <trkpt lat="62.21782" lon="5.63166">
        <ele>110.441313</ele>
        <time>2020-07-16T13:41:46.656Z</time>
      </trkpt>
      <trkpt lat="62.21773" lon="5.63342">
        <ele>101.227463</ele>
        <time>2020-07-16T13:41:55.712Z</time>
      </trkpt>
      <trkpt lat="62.21731" lon="5.63593">
        <ele>83.792774</ele>
        <time>2020-07-16T13:42:08.798Z</time>
      </trkpt>
      <trkpt lat="62.21723" lon="5.63694">
        <ele>74.885495</ele>
        <time>2020-07-16T13:42:13.646Z</time>
      </trkpt>
      <trkpt lat="62.21723" lon="5.63807">
        <ele>64.987917</ele>
        <time>2020-07-16T13:42:19.046Z</time>
      </trkpt>
      <trkpt lat="62.21724" lon="5.63818">
        <ele>64.082742</ele>
        <time>2020-07-16T13:42:19.562Z</time>
      </trkpt>
      <trkpt lat="62.21725" lon="5.6384">
        <ele>62.094634</ele>
        <time>2020-07-16T13:42:20.652Z</time>
      </trkpt>
      <trkpt lat="62.21728" lon="5.63895">
        <ele>57.419392</ele>
        <time>2020-07-16T13:42:23.261Z</time>
      </trkpt>
      <trkpt lat="62.21729" lon="5.63941">
        <ele>53.75971</ele>
        <time>2020-07-16T13:42:25.459Z</time>
      </trkpt>
      <trkpt lat="62.21738" lon="5.63939">
        <ele>52.242332</ele>
        <time>2020-07-16T13:42:26.413Z</time>
      </trkpt>
      <trkpt lat="62.21737" lon="5.63959">
        <ele>50.624986</ele>
        <time>2020-07-16T13:42:27.435Z</time>
      </trkpt>
      <trkpt lat="62.21727" lon="5.64055">
        <ele>42.735385</ele>
        <time>2020-07-16T13:42:32.351Z</time>
      </trkpt>
      <trkpt lat="62.2171" lon="5.64145">
        <ele>35.007297</ele>
        <time>2020-07-16T13:42:37.199Z</time>
      </trkpt>
      <trkpt lat="62.217" lon="5.64196">
        <ele>30.590581</ele>
        <time>2020-07-16T13:42:40.018Z</time>
      </trkpt>
      <trkpt lat="62.21685" lon="5.64279">
        <ele>26.195122</ele>
        <time>2020-07-16T13:42:44.811Z</time>
      </trkpt>
      <trkpt lat="62.2164" lon="5.64516">
        <ele>18.265062</ele>
        <time>2020-07-16T13:42:59.524Z</time>
      </trkpt>
      <trkpt lat="62.21627" lon="5.64605">
        <ele>15.785488</ele>
        <time>2020-07-16T13:43:05.446Z</time>
      </trkpt>
      <trkpt lat="62.21624" lon="5.64628">
        <ele>15.524867</ele>
        <time>2020-07-16T13:43:07.043Z</time>
      </trkpt>
      <trkpt lat="62.21613" lon="5.64706">
        <ele>14.664385</ele>
        <time>2020-07-16T13:43:12.304Z</time>
      </trkpt>
      <trkpt lat="62.21599" lon="5.64826">
        <ele>13.354946</ele>
        <time>2020-07-16T13:43:20.490Z</time>
      </trkpt>
      <trkpt lat="62.21593" lon="5.64881">
        <ele>12.753805</ele>
        <time>2020-07-16T13:43:24.554Z</time>
      </trkpt>
      <trkpt lat="62.21583" lon="5.64962">
        <ele>11.917643</ele>
        <time>2020-07-16T13:43:30.937Z</time>
      </trkpt>
      <trkpt lat="62.21582" lon="5.64972">
        <ele>11.941176</ele>
        <time>2020-07-16T13:43:31.731Z</time>
      </trkpt>
      <trkpt lat="62.21583" lon="5.64995">
        <ele>11.98925</ele>
        <time>2020-07-16T13:43:33.897Z</time>
      </trkpt>
      <trkpt lat="62.21582" lon="5.65012">
        <ele>12.027151</ele>
        <time>2020-07-16T13:43:35.277Z</time>
      </trkpt>
      <trkpt lat="62.21581" lon="5.6503">
        <ele>12.064864</ele>
        <time>2020-07-16T13:43:36.698Z</time>
      </trkpt>
      <trkpt lat="62.21576" lon="5.65044">
        <ele>12.103267</ele>
        <time>2020-07-16T13:43:38.041Z</time>
      </trkpt>
      <trkpt lat="62.21575" lon="5.65049">
        <ele>12.116348</ele>
        <time>2020-07-16T13:43:38.544Z</time>
      </trkpt>
      <trkpt lat="62.21574" lon="5.65066">
        <ele>12.152288</ele>
        <time>2020-07-16T13:43:40.206Z</time>
      </trkpt>
      <trkpt lat="62.21574" lon="5.65128">
        <ele>12.28502</ele>
        <time>2020-07-16T13:43:45.372Z</time>
      </trkpt>
      <trkpt lat="62.21593" lon="5.65272">
        <ele>12.607522</ele>
        <time>2020-07-16T13:43:59.635Z</time>
      </trkpt>
      <trkpt lat="62.21598" lon="5.65414">
        <ele>13.364573</ele>
        <time>2020-07-16T13:44:15.024Z</time>
      </trkpt>
      <trkpt lat="62.21597" lon="5.65445">
        <ele>13.607853</ele>
        <time>2020-07-16T13:44:18.795Z</time>
      </trkpt>
      <trkpt lat="62.21588" lon="5.65594">
        <ele>14.780463</ele>
        <time>2020-07-16T13:44:35.175Z</time>
      </trkpt>
      <trkpt lat="62.21574" lon="5.65856">
        <ele>16.989497</ele>
        <time>2020-07-16T13:45:03.468Z</time>
      </trkpt>
      <trkpt lat="62.21567" lon="5.65996">
        <ele>18.252262</ele>
        <time>2020-07-16T13:45:19.059Z</time>
      </trkpt>
      <trkpt lat="62.21561" lon="5.66046">
        <ele>18.715117</ele>
        <time>2020-07-16T13:45:25.016Z</time>
      </trkpt>
      <trkpt lat="62.2156" lon="5.66079">
        <ele>19.015405</ele>
        <time>2020-07-16T13:45:28.768Z</time>
      </trkpt>
      <trkpt lat="62.21558" lon="5.66103">
        <ele>19.249327</ele>
        <time>2020-07-16T13:45:31.857Z</time>
      </trkpt>
      <trkpt lat="62.21557" lon="5.66153">
        <ele>19.92783</ele>
        <time>2020-07-16T13:45:37.408Z</time>
      </trkpt>
      <trkpt lat="62.21521" lon="5.66802">
        <ele>29.819324</ele>
        <time>2020-07-16T13:47:02.349Z</time>
      </trkpt>
      <trkpt lat="62.21516" lon="5.6689">
        <ele>31.487194</ele>
        <time>2020-07-16T13:47:15.979Z</time>
      </trkpt>
      <trkpt lat="62.21498" lon="5.67178">
        <ele>38.694895</ele>
        <time>2020-07-16T13:48:04.273Z</time>
      </trkpt>
      <trkpt lat="62.21491" lon="5.67284">
        <ele>41.316411</ele>
        <time>2020-07-16T13:48:22.264Z</time>
      </trkpt>
      <trkpt lat="62.21479" lon="5.67484">
        <ele>46.095947</ele>
        <time>2020-07-16T13:48:54.850Z</time>
      </trkpt>
      <trkpt lat="62.21454" lon="5.67895">
        <ele>55.262872</ele>
        <time>2020-07-16T13:49:58.234Z</time>
      </trkpt>
      <trkpt lat="62.21451" lon="5.67978">
        <ele>57.034569</ele>
        <time>2020-07-16T13:50:10.599Z</time>
      </trkpt>
      <trkpt lat="62.21448" lon="5.6803">
        <ele>58.157149</ele>
        <time>2020-07-16T13:50:18.480Z</time>
      </trkpt>
      <trkpt lat="62.21448" lon="5.68044">
        <ele>58.448843</ele>
        <time>2020-07-16T13:50:20.277Z</time>
      </trkpt>
      <trkpt lat="62.21442" lon="5.68043">
        <ele>58.699933</ele>
        <time>2020-07-16T13:50:21.814Z</time>
      </trkpt>
      <trkpt lat="62.21442" lon="5.68054">
        <ele>58.926481</ele>
        <time>2020-07-16T13:50:23.318Z</time>
      </trkpt>
      <trkpt lat="62.21438" lon="5.68135">
        <ele>60.695631</ele>
        <time>2020-07-16T13:50:35.353Z</time>
      </trkpt>
      <trkpt lat="62.21438" lon="5.68136">
        <ele>60.717792</ele>
        <time>2020-07-16T13:50:35.798Z</time>
      </trkpt>
      <trkpt lat="62.21432" lon="5.68287">
        <ele>63.995136</ele>
        <time>2020-07-16T13:50:58.440Z</time>
      </trkpt>
      <trkpt lat="62.21431" lon="5.68362">
        <ele>65.633816</ele>
        <time>2020-07-16T13:51:09.841Z</time>
      </trkpt>
      <trkpt lat="62.21432" lon="5.68418">
        <ele>67.081444</ele>
        <time>2020-07-16T13:51:18.702Z</time>
      </trkpt>
      <trkpt lat="62.21433" lon="5.68462">
        <ele>68.40151</ele>
        <time>2020-07-16T13:51:26.352Z</time>
      </trkpt>
      <trkpt lat="62.2146" lon="5.68727">
        <ele>76.427003</ele>
        <time>2020-07-16T13:52:14.766Z</time>
      </trkpt>
      <trkpt lat="62.215" lon="5.6888">
        <ele>82.313313</ele>
        <time>2020-07-16T13:52:50.125Z</time>
      </trkpt>
      <trkpt lat="62.21554" lon="5.69151">
        <ele>91.924038</ele>
        <time>2020-07-16T13:53:48.435Z</time>
      </trkpt>
      <trkpt lat="62.21566" lon="5.69194">
        <ele>92.929324</ele>
        <time>2020-07-16T13:53:57.173Z</time>
      </trkpt>
      <trkpt lat="62.21617" lon="5.69291">
        <ele>95.844157</ele>
        <time>2020-07-16T13:54:19.556Z</time>
      </trkpt>
      <trkpt lat="62.2166" lon="5.69341">
        <ele>97.908521</ele>
        <time>2020-07-16T13:54:32.647Z</time>
      </trkpt>
      <trkpt lat="62.21779" lon="5.69357">
        <ele>99.084783</ele>
        <time>2020-07-16T13:54:56.719Z</time>
      </trkpt>
      <trkpt lat="62.21811" lon="5.69377">
        <ele>99.203653</ele>
        <time>2020-07-16T13:55:02.171Z</time>
      </trkpt>
      <trkpt lat="62.21829" lon="5.69398">
        <ele>99.279224</ele>
        <time>2020-07-16T13:55:05.533Z</time>
      </trkpt>
      <trkpt lat="62.21865" lon="5.69471">
        <ele>99.291028</ele>
        <time>2020-07-16T13:55:13.527Z</time>
      </trkpt>
      <trkpt lat="62.2195" lon="5.69744">
        <ele>98.76183</ele>
        <time>2020-07-16T13:55:39.049Z</time>
      </trkpt>
      <trkpt lat="62.21957" lon="5.69768">
        <ele>98.890554</ele>
        <time>2020-07-16T13:55:41.341Z</time>
      </trkpt>
      <trkpt lat="62.21959" lon="5.69776">
        <ele>98.950805</ele>
        <time>2020-07-16T13:55:42.196Z</time>
      </trkpt>
      <trkpt lat="62.21978" lon="5.69844">
        <ele>99.448769</ele>
        <time>2020-07-16T13:55:49.245Z</time>
      </trkpt>
      <trkpt lat="62.22007" lon="5.69952">
        <ele>100.232818</ele>
        <time>2020-07-16T13:56:01.471Z</time>
      </trkpt>
      <trkpt lat="62.22028" lon="5.70035">
        <ele>100.830897</ele>
        <time>2020-07-16T13:56:11.635Z</time>
      </trkpt>
      <trkpt lat="62.22143" lon="5.70474">
        <ele>109.189963</ele>
        <time>2020-07-16T13:57:20.795Z</time>
      </trkpt>
      <trkpt lat="62.22184" lon="5.7063">
        <ele>113.664795</ele>
        <time>2020-07-16T13:57:50.161Z</time>
      </trkpt>
      <trkpt lat="62.22208" lon="5.7072">
        <ele>116.282546</ele>
        <time>2020-07-16T13:58:07.865Z</time>
      </trkpt>
      <trkpt lat="62.22259" lon="5.70855">
        <ele>120.953176</ele>
        <time>2020-07-16T13:58:40.066Z</time>
      </trkpt>
      <trkpt lat="62.22312" lon="5.70944">
        <ele>124.890632</ele>
        <time>2020-07-16T13:59:05.011Z</time>
      </trkpt>
      <trkpt lat="62.22346" lon="5.70988">
        <ele>127.221598</ele>
        <time>2020-07-16T13:59:18.668Z</time>
      </trkpt>
      <trkpt lat="62.22391" lon="5.71044">
        <ele>129.316322</ele>
        <time>2020-07-16T13:59:35.792Z</time>
      </trkpt>
      <trkpt lat="62.22442" lon="5.71113">
        <ele>131.424608</ele>
        <time>2020-07-16T13:59:54.414Z</time>
      </trkpt>
      <trkpt lat="62.22494" lon="5.71198">
        <ele>133.675553</ele>
        <time>2020-07-16T14:00:11.323Z</time>
      </trkpt>
      <trkpt lat="62.22549" lon="5.71306">
        <ele>136.301544</ele>
        <time>2020-07-16T14:00:28.802Z</time>
      </trkpt>
      <trkpt lat="62.22594" lon="5.71412">
        <ele>138.652522</ele>
        <time>2020-07-16T14:00:47.292Z</time>
      </trkpt>
      <trkpt lat="62.22629" lon="5.71508">
        <ele>140.847761</ele>
        <time>2020-07-16T14:01:05.354Z</time>
      </trkpt>
      <trkpt lat="62.22815" lon="5.72036">
        <ele>165.563845</ele>
        <time>2020-07-16T14:03:20.787Z</time>
      </trkpt>
      <trkpt lat="62.22907" lon="5.72306">
        <ele>179.003287</ele>
        <time>2020-07-16T14:04:37.428Z</time>
      </trkpt>
      <trkpt lat="62.23019" lon="5.72704">
        <ele>193.51264</ele>
        <time>2020-07-16T14:06:05.004Z</time>
      </trkpt>
      <trkpt lat="62.23035" lon="5.72748">
        <ele>194.984671</ele>
        <time>2020-07-16T14:06:12.332Z</time>
      </trkpt>
      <trkpt lat="62.23057" lon="5.72806">
        <ele>194.943521</ele>
        <time>2020-07-16T14:06:21.243Z</time>
      </trkpt>
      <trkpt lat="62.23526" lon="5.73866">
        <ele>180.959402</ele>
        <time>2020-07-16T14:07:55.398Z</time>
      </trkpt>
      <trkpt lat="62.23593" lon="5.74015">
        <ele>176.547607</ele>
        <time>2020-07-16T14:08:07.243Z</time>
      </trkpt>
      <trkpt lat="62.23617" lon="5.74068">
        <ele>174.858664</ele>
        <time>2020-07-16T14:08:11.465Z</time>
      </trkpt>
      <trkpt lat="62.23637" lon="5.74107">
        <ele>173.556901</ele>
        <time>2020-07-16T14:08:14.711Z</time>
      </trkpt>
      <trkpt lat="62.23653" lon="5.74135">
        <ele>172.58928</ele>
        <time>2020-07-16T14:08:17.063Z</time>
      </trkpt>
      <trkpt lat="62.23804" lon="5.74378">
        <ele>162.067415</ele>
        <time>2020-07-16T14:08:39.557Z</time>
      </trkpt>
      <trkpt lat="62.23836" lon="5.74435">
        <ele>159.538925</ele>
        <time>2020-07-16T14:08:44.497Z</time>
      </trkpt>
      <trkpt lat="62.23869" lon="5.74497">
        <ele>156.852648</ele>
        <time>2020-07-16T14:08:49.659Z</time>
      </trkpt>
      <trkpt lat="62.23913" lon="5.74593">
        <ele>152.995614</ele>
        <time>2020-07-16T14:08:56.905Z</time>
      </trkpt>
      <trkpt lat="62.23931" lon="5.74638">
        <ele>151.295489</ele>
        <time>2020-07-16T14:09:00.153Z</time>
      </trkpt>
      <trkpt lat="62.23937" lon="5.74653">
        <ele>150.739717</ele>
        <time>2020-07-16T14:09:01.209Z</time>
      </trkpt>
      <trkpt lat="62.23947" lon="5.7468">
        <ele>150.071509</ele>
        <time>2020-07-16T14:09:03.234Z</time>
      </trkpt>
      <trkpt lat="62.23963" lon="5.74724">
        <ele>149.008799</ele>
        <time>2020-07-16T14:09:06.202Z</time>
      </trkpt>
      <trkpt lat="62.23992" lon="5.74804">
        <ele>147.042929</ele>
        <time>2020-07-16T14:09:11.970Z</time>
      </trkpt>
      <trkpt lat="62.23996" lon="5.74817">
        <ele>146.746146</ele>
        <time>2020-07-16T14:09:12.792Z</time>
      </trkpt>
      <trkpt lat="62.24002" lon="5.74834">
        <ele>146.333541</ele>
        <time>2020-07-16T14:09:13.929Z</time>
      </trkpt>
      <trkpt lat="62.24236" lon="5.75501">
        <ele>137.843992</ele>
        <time>2020-07-16T14:10:09.778Z</time>
      </trkpt>
      <trkpt lat="62.24323" lon="5.75749">
        <ele>135.208028</ele>
        <time>2020-07-16T14:10:32.400Z</time>
      </trkpt>
      <trkpt lat="62.2437" lon="5.75883">
        <ele>133.695028</ele>
        <time>2020-07-16T14:10:42.888Z</time>
      </trkpt>
      <trkpt lat="62.24428" lon="5.76049">
        <ele>127.909868</ele>
        <time>2020-07-16T14:10:54.908Z</time>
      </trkpt>
      <trkpt lat="62.24444" lon="5.76093">
        <ele>126.380563</ele>
        <time>2020-07-16T14:10:57.831Z</time>
      </trkpt>
      <trkpt lat="62.24448" lon="5.76087">
        <ele>126.084745</ele>
        <time>2020-07-16T14:10:58.431Z</time>
      </trkpt>
      <trkpt lat="62.24453" lon="5.76083">
        <ele>125.76035</ele>
        <time>2020-07-16T14:10:59.080Z</time>
      </trkpt>
      <trkpt lat="62.24455" lon="5.76084">
        <ele>125.614065</ele>
        <time>2020-07-16T14:10:59.338Z</time>
      </trkpt>
      <trkpt lat="62.24465" lon="5.76132">
        <ele>124.153464</ele>
        <time>2020-07-16T14:11:02.269Z</time>
      </trkpt>
      <trkpt lat="62.24501" lon="5.7625">
        <ele>118.371238</ele>
        <time>2020-07-16T14:11:09.886Z</time>
      </trkpt>
      <trkpt lat="62.2452" lon="5.76323">
        <ele>114.353248</ele>
        <time>2020-07-16T14:11:14.418Z</time>
      </trkpt>
      <trkpt lat="62.24533" lon="5.76371">
        <ele>111.776571</ele>
        <time>2020-07-16T14:11:17.249Z</time>
      </trkpt>
      <trkpt lat="62.24555" lon="5.76474">
        <ele>106.372694</ele>
        <time>2020-07-16T14:11:23.333Z</time>
      </trkpt>
      <trkpt lat="62.24565" lon="5.76552">
        <ele>102.299609</ele>
        <time>2020-07-16T14:11:27.571Z</time>
      </trkpt>
      <trkpt lat="62.24571" lon="5.766">
        <ele>99.661915</ele>
        <time>2020-07-16T14:11:30.156Z</time>
      </trkpt>
      <trkpt lat="62.24579" lon="5.76667">
        <ele>95.981761</ele>
        <time>2020-07-16T14:11:33.793Z</time>
      </trkpt>
      <trkpt lat="62.24608" lon="5.76941">
        <ele>80.776305</ele>
        <time>2020-07-16T14:11:48.493Z</time>
      </trkpt>
      <trkpt lat="62.24619" lon="5.77104">
        <ele>71.272426</ele>
        <time>2020-07-16T14:11:57.152Z</time>
      </trkpt>
      <trkpt lat="62.24621" lon="5.77153">
        <ele>68.44095</ele>
        <time>2020-07-16T14:11:59.634Z</time>
      </trkpt>
      <trkpt lat="62.24633" lon="5.7742">
        <ele>53.748524</ele>
        <time>2020-07-16T14:12:13.494Z</time>
      </trkpt>
      <trkpt lat="62.24634" lon="5.77433">
        <ele>53.046915</ele>
        <time>2020-07-16T14:12:14.155Z</time>
      </trkpt>
      <trkpt lat="62.24635" lon="5.77441">
        <ele>52.639723</ele>
        <time>2020-07-16T14:12:14.548Z</time>
      </trkpt>
      <trkpt lat="62.24643" lon="5.77478">
        <ele>50.481455</ele>
        <time>2020-07-16T14:12:16.837Z</time>
      </trkpt>
      <trkpt lat="62.24646" lon="5.77488">
        <ele>49.852403</ele>
        <time>2020-07-16T14:12:17.489Z</time>
      </trkpt>
      <trkpt lat="62.24643" lon="5.77495">
        <ele>49.388773</ele>
        <time>2020-07-16T14:12:17.922Z</time>
      </trkpt>
      <trkpt lat="62.2464" lon="5.77502">
        <ele>48.85257</ele>
        <time>2020-07-16T14:12:18.438Z</time>
      </trkpt>
      <trkpt lat="62.24636" lon="5.7751">
        <ele>48.220238</ele>
        <time>2020-07-16T14:12:19.090Z</time>
      </trkpt>
      <trkpt lat="62.24637" lon="5.77517">
        <ele>47.829486</ele>
        <time>2020-07-16T14:12:19.496Z</time>
      </trkpt>
      <trkpt lat="62.24643" lon="5.77539">
        <ele>46.440657</ele>
        <time>2020-07-16T14:12:20.993Z</time>
      </trkpt>
      <trkpt lat="62.24652" lon="5.77567">
        <ele>44.705099</ele>
        <time>2020-07-16T14:12:22.613Z</time>
      </trkpt>
      <trkpt lat="62.24701" lon="5.77691">
        <ele>38.505914</ele>
        <time>2020-07-16T14:12:31.118Z</time>
      </trkpt>
      <trkpt lat="62.2478" lon="5.77837">
        <ele>31.958813</ele>
        <time>2020-07-16T14:12:43.637Z</time>
      </trkpt>
      <trkpt lat="62.24819" lon="5.77909">
        <ele>29.05741</ele>
        <time>2020-07-16T14:12:49.823Z</time>
      </trkpt>
      <trkpt lat="62.24902" lon="5.78063">
        <ele>23.626676</ele>
        <time>2020-07-16T14:13:03.157Z</time>
      </trkpt>
      <trkpt lat="62.2492" lon="5.78096">
        <ele>22.481933</ele>
        <time>2020-07-16T14:13:05.966Z</time>
      </trkpt>
      <trkpt lat="62.24925" lon="5.78105">
        <ele>22.162959</ele>
        <time>2020-07-16T14:13:06.804Z</time>
      </trkpt>
      <trkpt lat="62.24946" lon="5.78147">
        <ele>20.736556</ele>
        <time>2020-07-16T14:13:10.355Z</time>
      </trkpt>
      <trkpt lat="62.24948" lon="5.78143">
        <ele>20.605072</ele>
        <time>2020-07-16T14:13:10.845Z</time>
      </trkpt>
      <trkpt lat="62.2495" lon="5.7814">
        <ele>20.482582</ele>
        <time>2020-07-16T14:13:11.314Z</time>
      </trkpt>
      <trkpt lat="62.25001" lon="5.78243">
        <ele>17.068337</ele>
        <time>2020-07-16T14:13:20.257Z</time>
      </trkpt>
      <trkpt lat="62.25039" lon="5.78321">
        <ele>14.496548</ele>
        <time>2020-07-16T14:13:26.887Z</time>
      </trkpt>
      <trkpt lat="62.25113" lon="5.78476">
        <ele>9.692982</ele>
        <time>2020-07-16T14:13:40.137Z</time>
      </trkpt>
      <trkpt lat="62.25123" lon="5.78497">
        <ele>9.071703</ele>
        <time>2020-07-16T14:13:41.858Z</time>
      </trkpt>
      <trkpt lat="62.25186" lon="5.78619">
        <ele>5.302656</ele>
        <time>2020-07-16T14:13:52.815Z</time>
      </trkpt>
      <trkpt lat="62.2522" lon="5.78691">
        <ele>3.957081</ele>
        <time>2020-07-16T14:13:59.294Z</time>
      </trkpt>
      <trkpt lat="62.25336" lon="5.78924">
        <ele>1.320095</ele>
        <time>2020-07-16T14:14:23.749Z</time>
      </trkpt>
      <trkpt lat="62.25372" lon="5.78994">
        <ele>1.861165</ele>
        <time>2020-07-16T14:14:33.371Z</time>
      </trkpt>
      <trkpt lat="62.25444" lon="5.79128">
        <ele>2.928303</ele>
        <time>2020-07-16T14:14:55.328Z</time>
      </trkpt>
      <trkpt lat="62.2547" lon="5.79175">
        <ele>3.518079</ele>
        <time>2020-07-16T14:15:03.959Z</time>
      </trkpt>
      <trkpt lat="62.25514" lon="5.79255">
        <ele>5.748339</ele>
        <time>2020-07-16T14:15:21.861Z</time>
      </trkpt>
      <trkpt lat="62.25528" lon="5.79282">
        <ele>6.513938</ele>
        <time>2020-07-16T14:15:29.176Z</time>
      </trkpt>
      <trkpt lat="62.25583" lon="5.79367">
        <ele>9.139289</ele>
        <time>2020-07-16T14:15:49.644Z</time>
      </trkpt>
      <trkpt lat="62.25585" lon="5.79369">
        <ele>9.253696</ele>
        <time>2020-07-16T14:15:51.761Z</time>
      </trkpt>
      <trkpt lat="62.25601" lon="5.79383">
        <ele>9.899802</ele>
        <time>2020-07-16T14:15:56.032Z</time>
      </trkpt>
      <trkpt lat="62.2561" lon="5.79395">
        <ele>10.375853</ele>
        <time>2020-07-16T14:15:59.177Z</time>
      </trkpt>
      <trkpt lat="62.25615" lon="5.79401">
        <ele>10.716837</ele>
        <time>2020-07-16T14:16:01.514Z</time>
      </trkpt>
      <trkpt lat="62.25633" lon="5.79425">
        <ele>11.959413</ele>
        <time>2020-07-16T14:16:08.026Z</time>
      </trkpt>
      <trkpt lat="62.25652" lon="5.79452">
        <ele>13.291559</ele>
        <time>2020-07-16T14:16:16.259Z</time>
      </trkpt>
      <trkpt lat="62.25808" lon="5.79639">
        <ele>26.483815</ele>
        <time>2020-07-16T14:17:25.694Z</time>
      </trkpt>
      <trkpt lat="62.25808" lon="5.79646">
        <ele>26.879227</ele>
        <time>2020-07-16T14:17:27.257Z</time>
      </trkpt>
      <trkpt lat="62.25813" lon="5.79652">
        <ele>27.555872</ele>
        <time>2020-07-16T14:17:29.456Z</time>
      </trkpt>
      <trkpt lat="62.25833" lon="5.79672">
        <ele>30.027093</ele>
        <time>2020-07-16T14:17:43.550Z</time>
      </trkpt>
      <trkpt lat="62.25892" lon="5.79696">
        <ele>36.785006</ele>
        <time>2020-07-16T14:18:18.827Z</time>
      </trkpt>
      <trkpt lat="62.25955" lon="5.79681">
        <ele>43.744438</ele>
        <time>2020-07-16T14:19:00.055Z</time>
      </trkpt>
      <trkpt lat="62.25969" lon="5.79671">
        <ele>45.312635</ele>
        <time>2020-07-16T14:19:11.966Z</time>
      </trkpt>
      <trkpt lat="62.25984" lon="5.79659">
        <ele>46.99823</ele>
        <time>2020-07-16T14:19:20.938Z</time>
      </trkpt>
      <trkpt lat="62.26013" lon="5.79628">
        <ele>50.495891</ele>
        <time>2020-07-16T14:19:38.957Z</time>
      </trkpt>
      <trkpt lat="62.26029" lon="5.79606">
        <ele>52.456302</ele>
        <time>2020-07-16T14:19:48.889Z</time>
      </trkpt>
      <trkpt lat="62.26039" lon="5.7959">
        <ele>53.772614</ele>
        <time>2020-07-16T14:19:55.199Z</time>
      </trkpt>
      <trkpt lat="62.26064" lon="5.79548">
        <ele>57.193125</ele>
        <time>2020-07-16T14:20:10.511Z</time>
      </trkpt>
      <trkpt lat="62.26106" lon="5.79508">
        <ele>59.337967</ele>
        <time>2020-07-16T14:20:28.863Z</time>
      </trkpt>
      <trkpt lat="62.26147" lon="5.79508">
        <ele>57.288776</ele>
        <time>2020-07-16T14:20:37.122Z</time>
      </trkpt>
      <trkpt lat="62.26176" lon="5.79529">
        <ele>55.744434</ele>
        <time>2020-07-16T14:20:41.117Z</time>
      </trkpt>
      <trkpt lat="62.26257" lon="5.7962">
        <ele>51.161311</ele>
        <time>2020-07-16T14:20:50.963Z</time>
      </trkpt>
      <trkpt lat="62.26259" lon="5.79623">
        <ele>50.774242</ele>
        <time>2020-07-16T14:20:51.256Z</time>
      </trkpt>
      <trkpt lat="62.26276" lon="5.79643">
        <ele>48.190973</ele>
        <time>2020-07-16T14:20:53.278Z</time>
      </trkpt>
      <trkpt lat="62.26292" lon="5.79669">
        <ele>45.512897</ele>
        <time>2020-07-16T14:20:55.379Z</time>
      </trkpt>
      <trkpt lat="62.263" lon="5.79682">
        <ele>44.228612</ele>
        <time>2020-07-16T14:20:56.362Z</time>
      </trkpt>
      <trkpt lat="62.26301" lon="5.79684">
        <ele>44.039229</ele>
        <time>2020-07-16T14:20:56.504Z</time>
      </trkpt>
      <trkpt lat="62.26311" lon="5.79701">
        <ele>42.296745</ele>
        <time>2020-07-16T14:20:57.885Z</time>
      </trkpt>
      <trkpt lat="62.2632" lon="5.79719">
        <ele>40.635517</ele>
        <time>2020-07-16T14:20:59.167Z</time>
      </trkpt>
      <trkpt lat="62.26321" lon="5.79721">
        <ele>40.456395</ele>
        <time>2020-07-16T14:20:59.324Z</time>
      </trkpt>
      <trkpt lat="62.26384" lon="5.79849">
        <ele>28.76575</ele>
        <time>2020-07-16T14:21:08.477Z</time>
      </trkpt>
      <trkpt lat="62.26412" lon="5.79906">
        <ele>25.735984</ele>
        <time>2020-07-16T14:21:12.558Z</time>
      </trkpt>
      <trkpt lat="62.26423" lon="5.79928">
        <ele>24.948425</ele>
        <time>2020-07-16T14:21:14.321Z</time>
      </trkpt>
      <trkpt lat="62.26439" lon="5.79957">
        <ele>23.857981</ele>
        <time>2020-07-16T14:21:16.630Z</time>
      </trkpt>
      <trkpt lat="62.26448" lon="5.79974">
        <ele>23.2278</ele>
        <time>2020-07-16T14:21:18.197Z</time>
      </trkpt>
      <trkpt lat="62.26464" lon="5.80002">
        <ele>22.138425</ele>
        <time>2020-07-16T14:21:20.765Z</time>
      </trkpt>
      <trkpt lat="62.26532" lon="5.80115">
        <ele>17.687848</ele>
        <time>2020-07-16T14:21:32.449Z</time>
      </trkpt>
      <trkpt lat="62.2656" lon="5.8016">
        <ele>18.438038</ele>
        <time>2020-07-16T14:21:39.594Z</time>
      </trkpt>
      <trkpt lat="62.26648" lon="5.80299">
        <ele>20.788953</ele>
        <time>2020-07-16T14:22:06.779Z</time>
      </trkpt>
      <trkpt lat="62.26718" lon="5.80397">
        <ele>24.174647</ele>
        <time>2020-07-16T14:22:35.011Z</time>
      </trkpt>
      <trkpt lat="62.26757" lon="5.80453">
        <ele>26.752207</ele>
        <time>2020-07-16T14:22:52.127Z</time>
      </trkpt>
      <trkpt lat="62.2678" lon="5.80481">
        <ele>28.167278</ele>
        <time>2020-07-16T14:23:02.016Z</time>
      </trkpt>
      <trkpt lat="62.26817" lon="5.80525">
        <ele>30.486369</ele>
        <time>2020-07-16T14:23:17.782Z</time>
      </trkpt>
      <trkpt lat="62.26963" lon="5.80689">
        <ele>38.581924</ele>
        <time>2020-07-16T14:24:15.773Z</time>
      </trkpt>
      <trkpt lat="62.26962" lon="5.80652">
        <ele>39.408845</ele>
        <time>2020-07-16T14:24:21.141Z</time>
      </trkpt>
      <trkpt lat="62.2696" lon="5.80417">
        <ele>41.760394</ele>
        <time>2020-07-16T14:24:49.424Z</time>
      </trkpt>
      <trkpt lat="62.26963" lon="5.80401">
        <ele>41.900646</ele>
        <time>2020-07-16T14:24:51.713Z</time>
      </trkpt>
      <trkpt lat="62.26976" lon="5.80406">
        <ele>42.124021</ele>
        <time>2020-07-16T14:24:53.794Z</time>
      </trkpt>
      <trkpt lat="62.26996" lon="5.80423">
        <ele>42.497929</ele>
        <time>2020-07-16T14:24:59.266Z</time>
      </trkpt>
      <trkpt lat="62.27024" lon="5.8043">
        <ele>42.984397</ele>
        <time>2020-07-16T14:25:04.296Z</time>
      </trkpt>
      <trkpt lat="62.27031" lon="5.80431">
        <ele>43.105442</ele>
        <time>2020-07-16T14:25:05.902Z</time>
      </trkpt>
      <trkpt lat="62.27071" lon="5.80438">
        <ele>43.765434</ele>
        <time>2020-07-16T14:25:13.765Z</time>
      </trkpt>
      <trkpt lat="62.27087" lon="5.80422">
        <ele>44.045557</ele>
        <time>2020-07-16T14:25:16.688Z</time>
      </trkpt>
      <trkpt lat="62.27089" lon="5.80381">
        <ele>44.355654</ele>
        <time>2020-07-16T14:25:20.990Z</time>
      </trkpt>
      <trkpt lat="62.27064" lon="5.80257">
        <ele>45.384195</ele>
        <time>2020-07-16T14:25:34.165Z</time>
      </trkpt>
      <trkpt lat="62.27045" lon="5.80191">
        <ele>45.963588</ele>
        <time>2020-07-16T14:25:44.014Z</time>
      </trkpt>
      <trkpt lat="62.27032" lon="5.80085">
        <ele>48.42065</ele>
        <time>2020-07-16T14:26:01.752Z</time>
      </trkpt>
      <trkpt lat="62.27001" lon="5.79946">
        <ele>52.58618</ele>
        <time>2020-07-16T14:26:30.013Z</time>
      </trkpt>
      <trkpt lat="62.26987" lon="5.79767">
        <ele>56.970604</ele>
        <time>2020-07-16T14:27:04.075Z</time>
      </trkpt>
      <trkpt lat="62.27" lon="5.79602">
        <ele>58.99315</ele>
        <time>2020-07-16T14:27:30.770Z</time>
      </trkpt>
      <trkpt lat="62.27011" lon="5.79532">
        <ele>59.886502</ele>
        <time>2020-07-16T14:27:39.596Z</time>
      </trkpt>
      <trkpt lat="62.27026" lon="5.79495">
        <ele>60.488168</ele>
        <time>2020-07-16T14:27:44.191Z</time>
      </trkpt>
      <trkpt lat="62.27062" lon="5.79453">
        <ele>60.54738</ele>
        <time>2020-07-16T14:27:50.420Z</time>
      </trkpt>
      <trkpt lat="62.27119" lon="5.79408">
        <ele>56.952183</ele>
        <time>2020-07-16T14:27:58.158Z</time>
      </trkpt>
      <trkpt lat="62.27176" lon="5.79385">
        <ele>53.523568</ele>
        <time>2020-07-16T14:28:05.124Z</time>
      </trkpt>
      <trkpt lat="62.27212" lon="5.79387">
        <ele>51.425473</ele>
        <time>2020-07-16T14:28:09.292Z</time>
      </trkpt>
      <trkpt lat="62.27239" lon="5.79397">
        <ele>49.642087</ele>
        <time>2020-07-16T14:28:12.495Z</time>
      </trkpt>
      <trkpt lat="62.27331" lon="5.79434">
        <ele>43.042135</ele>
        <time>2020-07-16T14:28:23.570Z</time>
      </trkpt>
      <trkpt lat="62.27361" lon="5.79471">
        <ele>40.661405</ele>
        <time>2020-07-16T14:28:27.672Z</time>
      </trkpt>
      <trkpt lat="62.27426" lon="5.79594">
        <ele>36.035715</ele>
        <time>2020-07-16T14:28:38.827Z</time>
      </trkpt>
      <trkpt lat="62.27476" lon="5.79716">
        <ele>33.045276</ele>
        <time>2020-07-16T14:28:49.018Z</time>
      </trkpt>
      <trkpt lat="62.27515" lon="5.79832">
        <ele>30.445438</ele>
        <time>2020-07-16T14:28:58.168Z</time>
      </trkpt>
      <trkpt lat="62.27582" lon="5.79899">
        <ele>27.722239</ele>
        <time>2020-07-16T14:29:07.984Z</time>
      </trkpt>
      <trkpt lat="62.27585" lon="5.79902">
        <ele>27.601378</ele>
        <time>2020-07-16T14:29:08.396Z</time>
      </trkpt>
      <trkpt lat="62.27595" lon="5.79915">
        <ele>27.148681</ele>
        <time>2020-07-16T14:29:10.052Z</time>
      </trkpt>
      <trkpt lat="62.27613" lon="5.79928">
        <ele>26.459661</ele>
        <time>2020-07-16T14:29:12.442Z</time>
      </trkpt>
      <trkpt lat="62.27623" lon="5.79918">
        <ele>26.063167</ele>
        <time>2020-07-16T14:29:13.917Z</time>
      </trkpt>
      <trkpt lat="62.27646" lon="5.79832">
        <ele>24.363039</ele>
        <time>2020-07-16T14:29:20.144Z</time>
      </trkpt>
      <trkpt lat="62.27651" lon="5.79821">
        <ele>24.125277</ele>
        <time>2020-07-16T14:29:21.124Z</time>
      </trkpt>
      <trkpt lat="62.27656" lon="5.79814">
        <ele>23.98437</ele>
        <time>2020-07-16T14:29:21.871Z</time>
      </trkpt>
      <trkpt lat="62.27689" lon="5.79799">
        <ele>23.202622</ele>
        <time>2020-07-16T14:29:26.379Z</time>
      </trkpt>
      <trkpt lat="62.27707" lon="5.79805">
        <ele>22.753471</ele>
        <time>2020-07-16T14:29:29.047Z</time>
      </trkpt>
      <trkpt lat="62.27722" lon="5.79816">
        <ele>22.392953</ele>
        <time>2020-07-16T14:29:31.089Z</time>
      </trkpt>
      <trkpt lat="62.27726" lon="5.79825">
        <ele>22.247909</ele>
        <time>2020-07-16T14:29:31.910Z</time>
      </trkpt>
      <trkpt lat="62.2773" lon="5.79831">
        <ele>22.137236</ele>
        <time>2020-07-16T14:29:32.669Z</time>
      </trkpt>
      <trkpt lat="62.27748" lon="5.79781">
        <ele>21.447327</ele>
        <time>2020-07-16T14:29:36.645Z</time>
      </trkpt>
      <trkpt lat="62.27753" lon="5.79791">
        <ele>21.2868</ele>
        <time>2020-07-16T14:29:37.760Z</time>
      </trkpt>
      <trkpt lat="62.2776" lon="5.79805">
        <ele>21.063337</ele>
        <time>2020-07-16T14:29:39.422Z</time>
      </trkpt>
      <trkpt lat="62.27767" lon="5.79822">
        <ele>20.80191</ele>
        <time>2020-07-16T14:29:40.989Z</time>
      </trkpt>
      <trkpt lat="62.27773" lon="5.79831">
        <ele>20.635401</ele>
        <time>2020-07-16T14:29:41.912Z</time>
      </trkpt>
      <trkpt lat="62.27778" lon="5.7984">
        <ele>20.480011</ele>
        <time>2020-07-16T14:29:42.940Z</time>
      </trkpt>
      <trkpt lat="62.27788" lon="5.79858">
        <ele>20.183774</ele>
        <time>2020-07-16T14:29:45.155Z</time>
      </trkpt>
      <trkpt lat="62.27789" lon="5.79875">
        <ele>19.991964</ele>
        <time>2020-07-16T14:29:46.433Z</time>
      </trkpt>
      <trkpt lat="62.278" lon="5.79945">
        <ele>20.303732</ele>
        <time>2020-07-16T14:29:52.488Z</time>
      </trkpt>
      <trkpt lat="62.27802" lon="5.79997">
        <ele>20.56097</ele>
        <time>2020-07-16T14:29:57.261Z</time>
      </trkpt>
      <trkpt lat="62.27802" lon="5.8001">
        <ele>20.627278</ele>
        <time>2020-07-16T14:29:58.701Z</time>
      </trkpt>
      <trkpt lat="62.278" lon="5.80058">
        <ele>20.864742</ele>
        <time>2020-07-16T14:30:03.853Z</time>
      </trkpt>
      <trkpt lat="62.27802" lon="5.80093">
        <ele>21.041796</ele>
        <time>2020-07-16T14:30:07.690Z</time>
      </trkpt>
      <trkpt lat="62.27817" lon="5.80159">
        <ele>21.405636</ele>
        <time>2020-07-16T14:30:15.758Z</time>
      </trkpt>
      <trkpt lat="62.27825" lon="5.80198">
        <ele>21.613667</ele>
        <time>2020-07-16T14:30:20.538Z</time>
      </trkpt>
      <trkpt lat="62.27837" lon="5.80271">
        <ele>22.258667</ele>
        <time>2020-07-16T14:30:29.863Z</time>
      </trkpt>
      <trkpt lat="62.27847" lon="5.8033">
        <ele>23.183143</ele>
        <time>2020-07-16T14:30:38.062Z</time>
      </trkpt>
      <trkpt lat="62.27881" lon="5.80414">
        <ele>24.841161</ele>
        <time>2020-07-16T14:30:53.879Z</time>
      </trkpt>
      <trkpt lat="62.27895" lon="5.80534">
        <ele>26.662725</ele>
        <time>2020-07-16T14:31:10.662Z</time>
      </trkpt>
      <trkpt lat="62.27895" lon="5.80569">
        <ele>27.175515</ele>
        <time>2020-07-16T14:31:16.145Z</time>
      </trkpt>
      <trkpt lat="62.27894" lon="5.80594">
        <ele>27.557563</ele>
        <time>2020-07-16T14:31:19.481Z</time>
      </trkpt>
      <trkpt lat="62.27895" lon="5.80625">
        <ele>27.840408</ele>
        <time>2020-07-16T14:31:23.590Z</time>
      </trkpt>
      <trkpt lat="62.27898" lon="5.8064">
        <ele>27.973655</ele>
        <time>2020-07-16T14:31:26.063Z</time>
      </trkpt>
      <trkpt lat="62.27912" lon="5.80731">
        <ele>28.819402</ele>
        <time>2020-07-16T14:31:37.981Z</time>
      </trkpt>
      <trkpt lat="62.27925" lon="5.80857">
        <ele>29.963632</ele>
        <time>2020-07-16T14:31:53.215Z</time>
      </trkpt>
      <trkpt lat="62.27939" lon="5.8095">
        <ele>30.817371</ele>
        <time>2020-07-16T14:32:02.721Z</time>
      </trkpt>
      <trkpt lat="62.27941" lon="5.80967">
        <ele>30.975674</ele>
        <time>2020-07-16T14:32:04.330Z</time>
      </trkpt>
      <trkpt lat="62.27944" lon="5.81003">
        <ele>30.864711</ele>
        <time>2020-07-16T14:32:07.597Z</time>
      </trkpt>
      <trkpt lat="62.27946" lon="5.8102">
        <ele>30.802013</ele>
        <time>2020-07-16T14:32:09.017Z</time>
      </trkpt>
      <trkpt lat="62.27948" lon="5.81071">
        <ele>30.625617</ele>
        <time>2020-07-16T14:32:13.264Z</time>
      </trkpt>
      <trkpt lat="62.27949" lon="5.8111">
        <ele>30.488703</ele>
        <time>2020-07-16T14:32:16.239Z</time>
      </trkpt>
      <trkpt lat="62.27949" lon="5.8115">
        <ele>30.346279</ele>
        <time>2020-07-16T14:32:19.483Z</time>
      </trkpt>
      <trkpt lat="62.2795" lon="5.81213">
        <ele>30.12512</ele>
        <time>2020-07-16T14:32:24.160Z</time>
      </trkpt>
      <trkpt lat="62.27951" lon="5.81255">
        <ele>29.978643</ele>
        <time>2020-07-16T14:32:27.185Z</time>
      </trkpt>
      <trkpt lat="62.27952" lon="5.81334">
        <ele>29.69988</ele>
        <time>2020-07-16T14:32:32.888Z</time>
      </trkpt>
      <trkpt lat="62.2795" lon="5.81363">
        <ele>29.572563</ele>
        <time>2020-07-16T14:32:34.986Z</time>
      </trkpt>
      <trkpt lat="62.27952" lon="5.81385">
        <ele>29.433734</ele>
        <time>2020-07-16T14:32:36.593Z</time>
      </trkpt>
      <trkpt lat="62.27954" lon="5.81412">
        <ele>29.25954</ele>
        <time>2020-07-16T14:32:38.518Z</time>
      </trkpt>
      <trkpt lat="62.27972" lon="5.81576">
        <ele>28.19389</ele>
        <time>2020-07-16T14:32:50.703Z</time>
      </trkpt>
      <trkpt lat="62.28014" lon="5.81774">
        <ele>26.788174</ele>
        <time>2020-07-16T14:33:06.723Z</time>
      </trkpt>
      <trkpt lat="62.28031" lon="5.8192">
        <ele>25.792311</ele>
        <time>2020-07-16T14:33:17.987Z</time>
      </trkpt>
      <trkpt lat="62.28029" lon="5.81924">
        <ele>25.753822</ele>
        <time>2020-07-16T14:33:18.321Z</time>
      </trkpt>
      <trkpt lat="62.28034" lon="5.8193">
        <ele>25.678571</ele>
        <time>2020-07-16T14:33:19.471Z</time>
      </trkpt>
      <trkpt lat="62.28074" lon="5.8205">
        <ele>24.695369</ele>
        <time>2020-07-16T14:33:30.211Z</time>
      </trkpt>
      <trkpt lat="62.28151" lon="5.82186">
        <ele>21.239713</ele>
        <time>2020-07-16T14:33:44.090Z</time>
      </trkpt>
      <trkpt lat="62.28163" lon="5.82222">
        <ele>20.51161</ele>
        <time>2020-07-16T14:33:46.903Z</time>
      </trkpt>
      <trkpt lat="62.28171" lon="5.82282">
        <ele>19.462879</ele>
        <time>2020-07-16T14:33:50.889Z</time>
      </trkpt>
      <trkpt lat="62.28172" lon="5.823">
        <ele>19.15087</ele>
        <time>2020-07-16T14:33:51.936Z</time>
      </trkpt>
      <trkpt lat="62.28172" lon="5.82312">
        <ele>18.956748</ele>
        <time>2020-07-16T14:33:52.607Z</time>
      </trkpt>
      <trkpt lat="62.28178" lon="5.82562">
        <ele>12.663444</ele>
        <time>2020-07-16T14:34:07.003Z</time>
      </trkpt>
      <trkpt lat="62.28174" lon="5.82601">
        <ele>11.566958</ele>
        <time>2020-07-16T14:34:09.234Z</time>
      </trkpt>
      <trkpt lat="62.28161" lon="5.82668">
        <ele>9.58625</ele>
        <time>2020-07-16T14:34:13.383Z</time>
      </trkpt>
      <trkpt lat="62.28148" lon="5.8272">
        <ele>7.972925</ele>
        <time>2020-07-16T14:34:16.871Z</time>
      </trkpt>
      <trkpt lat="62.28135" lon="5.82771">
        <ele>6.877297</ele>
        <time>2020-07-16T14:34:20.416Z</time>
      </trkpt>
      <trkpt lat="62.28122" lon="5.82801">
        <ele>6.209142</ele>
        <time>2020-07-16T14:34:22.770Z</time>
      </trkpt>
      <trkpt lat="62.28131" lon="5.82824">
        <ele>5.70352</ele>
        <time>2020-07-16T14:34:24.636Z</time>
      </trkpt>
      <trkpt lat="62.28152" lon="5.82891">
        <ele>4.388053</ele>
        <time>2020-07-16T14:34:29.248Z</time>
      </trkpt>
      <trkpt lat="62.28154" lon="5.82898">
        <ele>4.263156</ele>
        <time>2020-07-16T14:34:29.671Z</time>
      </trkpt>
      <trkpt lat="62.28212" lon="5.83105">
        <ele>1.141484</ele>
        <time>2020-07-16T14:34:45.356Z</time>
      </trkpt>
      <trkpt lat="62.28266" lon="5.83302">
        <ele>0.493793</ele>
        <time>2020-07-16T14:35:03.786Z</time>
      </trkpt>
      <trkpt lat="62.2827" lon="5.83316">
        <ele>0.449059</ele>
        <time>2020-07-16T14:35:05.050Z</time>
      </trkpt>
      <trkpt lat="62.28285" lon="5.83369">
        <ele>0.274052</ele>
        <time>2020-07-16T14:35:09.991Z</time>
      </trkpt>
      <trkpt lat="62.28338" lon="5.83561">
        <ele>0.445346</ele>
        <time>2020-07-16T14:35:28.022Z</time>
      </trkpt>
      <trkpt lat="62.28356" lon="5.83627">
        <ele>0.528949</ele>
        <time>2020-07-16T14:35:34.382Z</time>
      </trkpt>
      <trkpt lat="62.28373" lon="5.83688">
        <ele>0.607319</ele>
        <time>2020-07-16T14:35:40.830Z</time>
      </trkpt>
      <trkpt lat="62.28402" lon="5.83777">
        <ele>1.230825</ele>
        <time>2020-07-16T14:35:51.862Z</time>
      </trkpt>
      <trkpt lat="62.28433" lon="5.83839">
        <ele>1.962241</ele>
        <time>2020-07-16T14:36:02.090Z</time>
      </trkpt>
      <trkpt lat="62.28457" lon="5.83874">
        <ele>2.45183</ele>
        <time>2020-07-16T14:36:09.014Z</time>
      </trkpt>
      <trkpt lat="62.28478" lon="5.83903">
        <ele>2.890413</ele>
        <time>2020-07-16T14:36:15.346Z</time>
      </trkpt>
      <trkpt lat="62.28504" lon="5.83941">
        <ele>3.421711</ele>
        <time>2020-07-16T14:36:23.528Z</time>
      </trkpt>
      <trkpt lat="62.28519" lon="5.83964">
        <ele>3.732274</ele>
        <time>2020-07-16T14:36:27.983Z</time>
      </trkpt>
      <trkpt lat="62.28596" lon="5.84119">
        <ele>4.858389</ele>
        <time>2020-07-16T14:36:50.665Z</time>
      </trkpt>
      <trkpt lat="62.28605" lon="5.84141">
        <ele>5.000853</ele>
        <time>2020-07-16T14:36:53.449Z</time>
      </trkpt>
      <trkpt lat="62.28613" lon="5.8416">
        <ele>5.126272</ele>
        <time>2020-07-16T14:36:55.424Z</time>
      </trkpt>
      <trkpt lat="62.28637" lon="5.84225">
        <ele>5.53865</ele>
        <time>2020-07-16T14:37:02.834Z</time>
      </trkpt>
      <trkpt lat="62.28677" lon="5.84338">
        <ele>6.130024</ele>
        <time>2020-07-16T14:37:16.823Z</time>
      </trkpt>
      <trkpt lat="62.28684" lon="5.84358">
        <ele>6.233314</ele>
        <time>2020-07-16T14:37:19.423Z</time>
      </trkpt>
      <trkpt lat="62.28724" lon="5.84442">
        <ele>6.713535</ele>
        <time>2020-07-16T14:37:30.448Z</time>
      </trkpt>
      <trkpt lat="62.2874" lon="5.84467">
        <ele>6.883778</ele>
        <time>2020-07-16T14:37:35.040Z</time>
      </trkpt>
      <trkpt lat="62.28757" lon="5.84493">
        <ele>7.066746</ele>
        <time>2020-07-16T14:37:39.600Z</time>
      </trkpt>
      <trkpt lat="62.28859" lon="5.84652">
        <ele>6.610602</ele>
        <time>2020-07-16T14:38:04.608Z</time>
      </trkpt>
      <trkpt lat="62.28901" lon="5.84732">
        <ele>6.3112</ele>
        <time>2020-07-16T14:38:12.565Z</time>
      </trkpt>
      <trkpt lat="62.28949" lon="5.84822">
        <ele>5.188371</ele>
        <time>2020-07-16T14:38:20.945Z</time>
      </trkpt>
      <trkpt lat="62.28951" lon="5.84818">
        <ele>5.134732</ele>
        <time>2020-07-16T14:38:21.277Z</time>
      </trkpt>
      <trkpt lat="62.29003" lon="5.84899">
        <ele>3.809044</ele>
        <time>2020-07-16T14:38:30.258Z</time>
      </trkpt>
      <trkpt lat="62.29025" lon="5.84916">
        <ele>3.325424</ele>
        <time>2020-07-16T14:38:33.645Z</time>
      </trkpt>
      <trkpt lat="62.29027" lon="5.84917">
        <ele>3.274826</ele>
        <time>2020-07-16T14:38:33.948Z</time>
      </trkpt>
      <trkpt lat="62.29026" lon="5.84925">
        <ele>3.194575</ele>
        <time>2020-07-16T14:38:34.488Z</time>
      </trkpt>
      <trkpt lat="62.29025" lon="5.84931">
        <ele>3.133139</ele>
        <time>2020-07-16T14:38:34.921Z</time>
      </trkpt>
      <trkpt lat="62.29025" lon="5.84938">
        <ele>3.069437</ele>
        <time>2020-07-16T14:38:35.476Z</time>
      </trkpt>
      <trkpt lat="62.29044" lon="5.84978">
        <ele>2.546149</ele>
        <time>2020-07-16T14:38:39.576Z</time>
      </trkpt>
      <trkpt lat="62.29049" lon="5.84987">
        <ele>2.755564</ele>
        <time>2020-07-16T14:38:40.866Z</time>
      </trkpt>
      <trkpt lat="62.29066" lon="5.85018">
        <ele>3.452637</ele>
        <time>2020-07-16T14:38:45.862Z</time>
      </trkpt>
      <trkpt lat="62.29067" lon="5.85021">
        <ele>3.510965</ele>
        <time>2020-07-16T14:38:46.397Z</time>
      </trkpt>
      <trkpt lat="62.29078" lon="5.8504">
        <ele>3.932659</ele>
        <time>2020-07-16T14:38:49.665Z</time>
      </trkpt>
      <trkpt lat="62.2908" lon="5.85045">
        <ele>4.04742</ele>
        <time>2020-07-16T14:38:50.932Z</time>
      </trkpt>
      <trkpt lat="62.29113" lon="5.85096">
        <ele>5.317064</ele>
        <time>2020-07-16T14:39:03.181Z</time>
      </trkpt>
      <trkpt lat="62.29131" lon="5.85111">
        <ele>5.935658</ele>
        <time>2020-07-16T14:39:09.519Z</time>
      </trkpt>
      <trkpt lat="62.29132" lon="5.85123">
        <ele>6.108637</ele>
        <time>2020-07-16T14:39:10.852Z</time>
      </trkpt>
      <trkpt lat="62.29131" lon="5.85128">
        <ele>6.190831</ele>
        <time>2020-07-16T14:39:11.813Z</time>
      </trkpt>
      <trkpt lat="62.2913" lon="5.85136">
        <ele>6.301596</ele>
        <time>2020-07-16T14:39:13.068Z</time>
      </trkpt>
      <trkpt lat="62.29129" lon="5.85141">
        <ele>6.39367</ele>
        <time>2020-07-16T14:39:14.075Z</time>
      </trkpt>
      <trkpt lat="62.29138" lon="5.85152">
        <ele>6.705731</ele>
        <time>2020-07-16T14:39:17.267Z</time>
      </trkpt>
      <trkpt lat="62.29138" lon="5.85159">
        <ele>6.798585</ele>
        <time>2020-07-16T14:39:18.357Z</time>
      </trkpt>
      <trkpt lat="62.29141" lon="5.85172">
        <ele>7.016753</ele>
        <time>2020-07-16T14:39:20.864Z</time>
      </trkpt>
      <trkpt lat="62.29143" lon="5.85178">
        <ele>7.13164</ele>
        <time>2020-07-16T14:39:21.768Z</time>
      </trkpt>
      <trkpt lat="62.29147" lon="5.85183">
        <ele>7.274812</ele>
        <time>2020-07-16T14:39:23.082Z</time>
      </trkpt>
      <trkpt lat="62.29152" lon="5.85186">
        <ele>7.424423</ele>
        <time>2020-07-16T14:39:24.789Z</time>
      </trkpt>
      <trkpt lat="62.29153" lon="5.85186">
        <ele>7.478049</ele>
        <time>2020-07-16T14:39:25.607Z</time>
      </trkpt>
      <trkpt lat="62.29165" lon="5.85174">
        <ele>7.878919</ele>
        <time>2020-07-16T14:39:30.538Z</time>
      </trkpt>
      <trkpt lat="62.29167" lon="5.85165">
        <ele>8.023113</ele>
        <time>2020-07-16T14:39:32.305Z</time>
      </trkpt>
      <trkpt lat="62.29171" lon="5.85163">
        <ele>8.158759</ele>
        <time>2020-07-16T14:39:33.695Z</time>
      </trkpt>
      <trkpt lat="62.29181" lon="5.85157">
        <ele>8.434826</ele>
        <time>2020-07-16T14:39:36.440Z</time>
      </trkpt>
      <trkpt lat="62.29189" lon="5.85149">
        <ele>8.691603</ele>
        <time>2020-07-16T14:39:39.476Z</time>
      </trkpt>
      <trkpt lat="62.29202" lon="5.85142">
        <ele>9.045957</ele>
        <time>2020-07-16T14:39:44.794Z</time>
      </trkpt>
      <trkpt lat="62.29226" lon="5.8512">
        <ele>9.771174</ele>
        <time>2020-07-16T14:39:53.117Z</time>
      </trkpt>
      <trkpt lat="62.29284" lon="5.85041">
        <ele>11.645372</ele>
        <time>2020-07-16T14:40:12.153Z</time>
      </trkpt>
      <trkpt lat="62.29286" lon="5.85039">
        <ele>11.700387</ele>
        <time>2020-07-16T14:40:13.623Z</time>
      </trkpt>
      <trkpt lat="62.29368" lon="5.84927">
        <ele>11.94912</ele>
        <time>2020-07-16T14:40:30.190Z</time>
      </trkpt>
      <trkpt lat="62.29439" lon="5.84822">
        <ele>9.673299</ele>
        <time>2020-07-16T14:40:41.448Z</time>
      </trkpt>
      <trkpt lat="62.29521" lon="5.84659">
        <ele>6.54831</ele>
        <time>2020-07-16T14:40:55.401Z</time>
      </trkpt>
      <trkpt lat="62.29527" lon="5.84646">
        <ele>6.283949</ele>
        <time>2020-07-16T14:40:56.428Z</time>
      </trkpt>
      <trkpt lat="62.29535" lon="5.84631">
        <ele>5.967055</ele>
        <time>2020-07-16T14:40:58.027Z</time>
      </trkpt>
      <trkpt lat="62.29677" lon="5.84416">
        <ele>2.346237</ele>
        <time>2020-07-16T14:41:22.371Z</time>
      </trkpt>
      <trkpt lat="62.2973" lon="5.84316">
        <ele>1.658079</ele>
        <time>2020-07-16T14:41:33.616Z</time>
      </trkpt>
      <trkpt lat="62.29744" lon="5.84283">
        <ele>1.457033</ele>
        <time>2020-07-16T14:41:36.841Z</time>
      </trkpt>
      <trkpt lat="62.29752" lon="5.84265">
        <ele>1.345853</ele>
        <time>2020-07-16T14:41:38.735Z</time>
      </trkpt>
      <trkpt lat="62.29815" lon="5.84108">
        <ele>7.345536</ele>
        <time>2020-07-16T14:42:01.836Z</time>
      </trkpt>
      <trkpt lat="62.29863" lon="5.84023">
        <ele>11.259086</ele>
        <time>2020-07-16T14:42:30.152Z</time>
      </trkpt>
      <trkpt lat="62.29867" lon="5.84019">
        <ele>11.548113</ele>
        <time>2020-07-16T14:42:32.277Z</time>
      </trkpt>
      <trkpt lat="62.29876" lon="5.8401">
        <ele>12.126165</ele>
        <time>2020-07-16T14:42:40.034Z</time>
      </trkpt>
      <trkpt lat="62.2992" lon="5.8398">
        <ele>20.573105</ele>
        <time>2020-07-16T14:43:14.374Z</time>
      </trkpt>
      <trkpt lat="62.29969" lon="5.83976">
        <ele>30.493087</ele>
        <time>2020-07-16T14:43:47.917Z</time>
      </trkpt>
      <trkpt lat="62.2998" lon="5.83978">
        <ele>32.661715</ele>
        <time>2020-07-16T14:43:57.864Z</time>
      </trkpt>
      <trkpt lat="62.29992" lon="5.83984">
        <ele>35.248854</ele>
        <time>2020-07-16T14:44:09.587Z</time>
      </trkpt>
      <trkpt lat="62.30048" lon="5.84038">
        <ele>47.658645</ele>
        <time>2020-07-16T14:45:05.156Z</time>
      </trkpt>
      <trkpt lat="62.30091" lon="5.84124">
        <ele>57.006308</ele>
        <time>2020-07-16T14:45:55.460Z</time>
      </trkpt>
      <trkpt lat="62.301" lon="5.84142">
        <ele>58.794394</ele>
        <time>2020-07-16T14:46:06.465Z</time>
      </trkpt>
      <trkpt lat="62.30106" lon="5.84162">
        <ele>60.463148</ele>
        <time>2020-07-16T14:46:16.578Z</time>
      </trkpt>
      <trkpt lat="62.30112" lon="5.84183">
        <ele>62.161434</ele>
        <time>2020-07-16T14:46:21.671Z</time>
      </trkpt>
      <trkpt lat="62.30117" lon="5.84203">
        <ele>63.79864</ele>
        <time>2020-07-16T14:46:30.771Z</time>
      </trkpt>
      <trkpt lat="62.30118" lon="5.84211">
        <ele>64.390283</ele>
        <time>2020-07-16T14:46:33.895Z</time>
      </trkpt>
      <trkpt lat="62.3014" lon="5.84376">
        <ele>76.381902</ele>
        <time>2020-07-16T14:47:13.898Z</time>
      </trkpt>
      <trkpt lat="62.30168" lon="5.84721">
        <ele>74.293613</ele>
        <time>2020-07-16T14:47:38.024Z</time>
      </trkpt>
      <trkpt lat="62.30185" lon="5.84836">
        <ele>69.999916</ele>
        <time>2020-07-16T14:47:44.247Z</time>
      </trkpt>
      <trkpt lat="62.30218" lon="5.84951">
        <ele>63.395875</ele>
        <time>2020-07-16T14:47:51.091Z</time>
      </trkpt>
      <trkpt lat="62.30334" lon="5.85217">
        <ele>45.267884</ele>
        <time>2020-07-16T14:48:09.032Z</time>
      </trkpt>
      <trkpt lat="62.30338" lon="5.8523">
        <ele>44.501936</ele>
        <time>2020-07-16T14:48:09.759Z</time>
      </trkpt>
      <trkpt lat="62.30344" lon="5.85248">
        <ele>43.366044</ele>
        <time>2020-07-16T14:48:10.942Z</time>
      </trkpt>
      <trkpt lat="62.30369" lon="5.8536">
        <ele>37.037616</ele>
        <time>2020-07-16T14:48:17.308Z</time>
      </trkpt>
      <trkpt lat="62.30378" lon="5.85407">
        <ele>35.001228</ele>
        <time>2020-07-16T14:48:20.057Z</time>
      </trkpt>
      <trkpt lat="62.30381" lon="5.85404">
        <ele>34.826022</ele>
        <time>2020-07-16T14:48:20.366Z</time>
      </trkpt>
      <trkpt lat="62.30396" lon="5.85404">
        <ele>33.950209</ele>
        <time>2020-07-16T14:48:22.009Z</time>
      </trkpt>
      <trkpt lat="62.30412" lon="5.85444">
        <ele>32.511992</ele>
        <time>2020-07-16T14:48:24.915Z</time>
      </trkpt>
      <trkpt lat="62.30427" lon="5.85465">
        <ele>31.439719</ele>
        <time>2020-07-16T14:48:27.002Z</time>
      </trkpt>
      <trkpt lat="62.30471" lon="5.85492">
        <ele>28.760207</ele>
        <time>2020-07-16T14:48:32.766Z</time>
      </trkpt>
      <trkpt lat="62.30509" lon="5.85581">
        <ele>25.448801</ele>
        <time>2020-07-16T14:48:39.523Z</time>
      </trkpt>
      <trkpt lat="62.30556" lon="5.85621">
        <ele>22.669693</ele>
        <time>2020-07-16T14:48:45.735Z</time>
      </trkpt>
      <trkpt lat="62.30618" lon="5.85615">
        <ele>19.281417</ele>
        <time>2020-07-16T14:48:53.086Z</time>
      </trkpt>
      <trkpt lat="62.30639" lon="5.85601">
        <ele>18.073761</ele>
        <time>2020-07-16T14:48:55.657Z</time>
      </trkpt>
      <trkpt lat="62.30706" lon="5.8548">
        <ele>13.580854</ele>
        <time>2020-07-16T14:49:06.058Z</time>
      </trkpt>
      <trkpt lat="62.30717" lon="5.85457">
        <ele>12.880467</ele>
        <time>2020-07-16T14:49:07.831Z</time>
      </trkpt>
      <trkpt lat="62.30727" lon="5.85433">
        <ele>12.17754</ele>
        <time>2020-07-16T14:49:09.677Z</time>
      </trkpt>
      <trkpt lat="62.30755" lon="5.85347">
        <ele>9.921607</ele>
        <time>2020-07-16T14:49:15.616Z</time>
      </trkpt>
      <trkpt lat="62.30773" lon="5.85266">
        <ele>8.002114</ele>
        <time>2020-07-16T14:49:20.762Z</time>
      </trkpt>
      <trkpt lat="62.3079" lon="5.85134">
        <ele>7.284219</ele>
        <time>2020-07-16T14:49:29.159Z</time>
      </trkpt>
      <trkpt lat="62.30811" lon="5.85073">
        <ele>7.629654</ele>
        <time>2020-07-16T14:49:35.468Z</time>
      </trkpt>
      <trkpt lat="62.30835" lon="5.85046">
        <ele>7.898309</ele>
        <time>2020-07-16T14:49:40.917Z</time>
      </trkpt>
      <trkpt lat="62.30897" lon="5.85009">
        <ele>8.528396</ele>
        <time>2020-07-16T14:49:58.787Z</time>
      </trkpt>
      <trkpt lat="62.30938" lon="5.85002">
        <ele>10.251616</ele>
        <time>2020-07-16T14:50:12.564Z</time>
      </trkpt>
      <trkpt lat="62.30952" lon="5.84999">
        <ele>11.07059</ele>
        <time>2020-07-16T14:50:19.074Z</time>
      </trkpt>
      <trkpt lat="62.30964" lon="5.85">
        <ele>11.765617</ele>
        <time>2020-07-16T14:50:23.381Z</time>
      </trkpt>
      <trkpt lat="62.30978" lon="5.85006">
        <ele>12.569137</ele>
        <time>2020-07-16T14:50:27.411Z</time>
      </trkpt>
      <trkpt lat="62.30988" lon="5.85014">
        <ele>13.22524</ele>
        <time>2020-07-16T14:50:33.031Z</time>
      </trkpt>
      <trkpt lat="62.31001" lon="5.85028">
        <ele>14.049647</ele>
        <time>2020-07-16T14:50:37.999Z</time>
      </trkpt>
      <trkpt lat="62.31036" lon="5.85089">
        <ele>16.670056</ele>
        <time>2020-07-16T14:50:54.330Z</time>
      </trkpt>
      <trkpt lat="62.31038" lon="5.85097">
        <ele>16.914149</ele>
        <time>2020-07-16T14:50:56.773Z</time>
      </trkpt>
      <trkpt lat="62.31043" lon="5.85118">
        <ele>17.536615</ele>
        <time>2020-07-16T14:51:01.789Z</time>
      </trkpt>
      <trkpt lat="62.31049" lon="5.8519">
        <ele>19.35938</ele>
        <time>2020-07-16T14:51:14.894Z</time>
      </trkpt>
      <trkpt lat="62.31047" lon="5.85326">
        <ele>21.660905</ele>
        <time>2020-07-16T14:51:35.373Z</time>
      </trkpt>
      <trkpt lat="62.31058" lon="5.85408">
        <ele>23.109503</ele>
        <time>2020-07-16T14:51:46.769Z</time>
      </trkpt>
      <trkpt lat="62.31082" lon="5.85487">
        <ele>24.709031</ele>
        <time>2020-07-16T14:51:56.586Z</time>
      </trkpt>
      <trkpt lat="62.31143" lon="5.85604">
        <ele>27.929447</ele>
        <time>2020-07-16T14:52:17.193Z</time>
      </trkpt>
      <trkpt lat="62.31185" lon="5.85713">
        <ele>30.653606</ele>
        <time>2020-07-16T14:52:38.091Z</time>
      </trkpt>
      <trkpt lat="62.3119" lon="5.85725">
        <ele>30.937209</ele>
        <time>2020-07-16T14:52:39.984Z</time>
      </trkpt>
      <trkpt lat="62.31199" lon="5.85745">
        <ele>31.481697</ele>
        <time>2020-07-16T14:52:45.591Z</time>
      </trkpt>
      <trkpt lat="62.31236" lon="5.85827">
        <ele>33.500803</ele>
        <time>2020-07-16T14:53:04.725Z</time>
      </trkpt>
      <trkpt lat="62.31299" lon="5.8593">
        <ele>35.906349</ele>
        <time>2020-07-16T14:53:34.428Z</time>
      </trkpt>
      <trkpt lat="62.31351" lon="5.86008">
        <ele>37.842245</ele>
        <time>2020-07-16T14:53:49.798Z</time>
      </trkpt>
      <trkpt lat="62.3139" lon="5.86054">
        <ele>37.073514</ele>
        <time>2020-07-16T14:53:56.319Z</time>
      </trkpt>
      <trkpt lat="62.31399" lon="5.86062">
        <ele>36.477558</ele>
        <time>2020-07-16T14:53:58.811Z</time>
      </trkpt>
      <trkpt lat="62.31401" lon="5.8606">
        <ele>36.325846</ele>
        <time>2020-07-16T14:53:59.082Z</time>
      </trkpt>
      <trkpt lat="62.31508" lon="5.85974">
        <ele>29.11476</ele>
        <time>2020-07-16T14:54:12.692Z</time>
      </trkpt>
      <trkpt lat="62.31543" lon="5.85933">
        <ele>26.676288</ele>
        <time>2020-07-16T14:54:17.302Z</time>
      </trkpt>
      <trkpt lat="62.31575" lon="5.8586">
        <ele>24.430635</ele>
        <time>2020-07-16T14:54:22.709Z</time>
      </trkpt>
      <trkpt lat="62.3163" lon="5.85672">
        <ele>19.450301</ele>
        <time>2020-07-16T14:54:36.407Z</time>
      </trkpt>
      <trkpt lat="62.3165" lon="5.85641">
        <ele>18.387463</ele>
        <time>2020-07-16T14:54:40.825Z</time>
      </trkpt>
      <trkpt lat="62.31671" lon="5.85627">
        <ele>18.323791</ele>
        <time>2020-07-16T14:54:44.168Z</time>
      </trkpt>
      <trkpt lat="62.31677" lon="5.85622">
        <ele>18.305758</ele>
        <time>2020-07-16T14:54:46.926Z</time>
      </trkpt>
      <trkpt lat="62.31684" lon="5.85617">
        <ele>18.285428</ele>
        <time>2020-07-16T14:54:48.040Z</time>
      </trkpt>
      <trkpt lat="62.31686" lon="5.85616">
        <ele>18.279941</ele>
        <time>2020-07-16T14:54:48.350Z</time>
      </trkpt>
      <trkpt lat="62.31691" lon="5.85629">
        <ele>18.256908</ele>
        <time>2020-07-16T14:54:49.564Z</time>
      </trkpt>
      <trkpt lat="62.31693" lon="5.85626">
        <ele>18.249837</ele>
        <time>2020-07-16T14:54:49.985Z</time>
      </trkpt>
      <trkpt lat="62.31695" lon="5.85624">
        <ele>18.243116</ele>
        <time>2020-07-16T14:54:50.348Z</time>
      </trkpt>
      <trkpt lat="62.31701" lon="5.85637">
        <ele>18.219713</ele>
        <time>2020-07-16T14:54:51.857Z</time>
      </trkpt>
      <trkpt lat="62.31779" lon="5.85854">
        <ele>17.830432</ele>
        <time>2020-07-16T14:55:17.465Z</time>
      </trkpt>
      <trkpt lat="62.31782" lon="5.85861">
        <ele>17.803183</ele>
        <time>2020-07-16T14:55:18.250Z</time>
      </trkpt>
      <trkpt lat="62.31783" lon="5.85866">
        <ele>17.787367</ele>
        <time>2020-07-16T14:55:18.650Z</time>
      </trkpt>
      <trkpt lat="62.31801" lon="5.85922">
        <ele>17.604666</ele>
        <time>2020-07-16T14:55:23.388Z</time>
      </trkpt>
      <trkpt lat="62.31805" lon="5.85934">
        <ele>17.563004</ele>
        <time>2020-07-16T14:55:24.455Z</time>
      </trkpt>
      <trkpt lat="62.31809" lon="5.85942">
        <ele>17.532098</ele>
        <time>2020-07-16T14:55:25.157Z</time>
      </trkpt>
      <trkpt lat="62.31831" lon="5.85982">
        <ele>17.364258</ele>
        <time>2020-07-16T14:55:29.776Z</time>
      </trkpt>
      <trkpt lat="62.31841" lon="5.86001">
        <ele>17.282954</ele>
        <time>2020-07-16T14:55:31.759Z</time>
      </trkpt>
      <trkpt lat="62.31856" lon="5.86029">
        <ele>17.168101</ele>
        <time>2020-07-16T14:55:35.049Z</time>
      </trkpt>
      <trkpt lat="62.31869" lon="5.86051">
        <ele>17.069105</ele>
        <time>2020-07-16T14:55:37.485Z</time>
      </trkpt>
      <trkpt lat="62.31877" lon="5.86064">
        <ele>17.012927</ele>
        <time>2020-07-16T14:55:39.128Z</time>
      </trkpt>
      <trkpt lat="62.31928" lon="5.86159">
        <ele>18.507823</ele>
        <time>2020-07-16T14:55:53.623Z</time>
      </trkpt>
      <trkpt lat="62.31963" lon="5.86302">
        <ele>21.874456</ele>
        <time>2020-07-16T14:56:16.659Z</time>
      </trkpt>
      <trkpt lat="62.31965" lon="5.86312">
        <ele>22.104684</ele>
        <time>2020-07-16T14:56:18.678Z</time>
      </trkpt>
      <trkpt lat="62.31969" lon="5.86315">
        <ele>22.268584</ele>
        <time>2020-07-16T14:56:22.096Z</time>
      </trkpt>
      <trkpt lat="62.32013" lon="5.86409">
        <ele>25.070509</ele>
        <time>2020-07-16T14:56:45.085Z</time>
      </trkpt>
      <trkpt lat="62.32028" lon="5.86464">
        <ele>26.596136</ele>
        <time>2020-07-16T14:56:58.083Z</time>
      </trkpt>
      <trkpt lat="62.32028" lon="5.86489">
        <ele>27.184223</ele>
        <time>2020-07-16T14:57:01.504Z</time>
      </trkpt>
      <trkpt lat="62.32028" lon="5.86498">
        <ele>27.403411</ele>
        <time>2020-07-16T14:57:05.439Z</time>
      </trkpt>
      <trkpt lat="62.3205" lon="5.86546">
        <ele>29.016784</ele>
        <time>2020-07-16T14:57:15.176Z</time>
      </trkpt>
      <trkpt lat="62.32058" lon="5.8656">
        <ele>29.539073</ele>
        <time>2020-07-16T14:57:22.466Z</time>
      </trkpt>
      <trkpt lat="62.32077" lon="5.86571">
        <ele>30.58325</ele>
        <time>2020-07-16T14:57:28.453Z</time>
      </trkpt>
      <trkpt lat="62.3224" lon="5.86641">
        <ele>33.54022</ele>
        <time>2020-07-16T14:58:11.094Z</time>
      </trkpt>
      <trkpt lat="62.32287" lon="5.86627">
        <ele>33.25114</ele>
        <time>2020-07-16T14:58:17.766Z</time>
      </trkpt>
      <trkpt lat="62.32344" lon="5.86593">
        <ele>31.951556</ele>
        <time>2020-07-16T14:58:25.246Z</time>
      </trkpt>
      <trkpt lat="62.32442" lon="5.86562">
        <ele>27.367014</ele>
        <time>2020-07-16T14:58:37.752Z</time>
      </trkpt>
      <trkpt lat="62.32449" lon="5.8656">
        <ele>27.002653</ele>
        <time>2020-07-16T14:58:38.700Z</time>
      </trkpt>
      <trkpt lat="62.32467" lon="5.86556">
        <ele>26.204708</ele>
        <time>2020-07-16T14:58:40.922Z</time>
      </trkpt>
      <trkpt lat="62.32513" lon="5.86541">
        <ele>24.268512</ele>
        <time>2020-07-16T14:58:47.375Z</time>
      </trkpt>
      <trkpt lat="62.32538" lon="5.86536">
        <ele>23.547769</ele>
        <time>2020-07-16T14:58:50.623Z</time>
      </trkpt>
      <trkpt lat="62.32574" lon="5.86528">
        <ele>22.513008</ele>
        <time>2020-07-16T14:58:55.544Z</time>
      </trkpt>
      <trkpt lat="62.3262" lon="5.8652">
        <ele>21.155903</ele>
        <time>2020-07-16T14:59:02.393Z</time>
      </trkpt>
      <trkpt lat="62.32624" lon="5.86519">
        <ele>21.042647</ele>
        <time>2020-07-16T14:59:03.749Z</time>
      </trkpt>
      <trkpt lat="62.32646" lon="5.86512">
        <ele>20.413417</ele>
        <time>2020-07-16T14:59:06.651Z</time>
      </trkpt>
      <trkpt lat="62.3277" lon="5.86461">
        <ele>16.093965</ele>
        <time>2020-07-16T14:59:24.767Z</time>
      </trkpt>
      <trkpt lat="62.32776" lon="5.86462">
        <ele>15.90224</ele>
        <time>2020-07-16T14:59:25.399Z</time>
      </trkpt>
      <trkpt lat="62.32781" lon="5.86455">
        <ele>15.656091</ele>
        <time>2020-07-16T14:59:26.249Z</time>
      </trkpt>
      <trkpt lat="62.32787" lon="5.8645">
        <ele>15.426522</ele>
        <time>2020-07-16T14:59:27.118Z</time>
      </trkpt>
      <trkpt lat="62.32799" lon="5.86442">
        <ele>14.9926</ele>
        <time>2020-07-16T14:59:28.749Z</time>
      </trkpt>
      <trkpt lat="62.32808" lon="5.86437">
        <ele>14.643666</ele>
        <time>2020-07-16T14:59:29.958Z</time>
      </trkpt>
      <trkpt lat="62.32815" lon="5.8643">
        <ele>14.373543</ele>
        <time>2020-07-16T14:59:30.899Z</time>
      </trkpt>
      <trkpt lat="62.32839" lon="5.86398">
        <ele>13.350608</ele>
        <time>2020-07-16T14:59:34.638Z</time>
      </trkpt>
      <trkpt lat="62.32846" lon="5.86392">
        <ele>13.08949</ele>
        <time>2020-07-16T14:59:35.545Z</time>
      </trkpt>
      <trkpt lat="62.33003" lon="5.8626">
        <ele>5.979373</ele>
        <time>2020-07-16T14:59:57.210Z</time>
      </trkpt>
      <trkpt lat="62.33062" lon="5.86198">
        <ele>4.59993</ele>
        <time>2020-07-16T15:00:06.831Z</time>
      </trkpt>
      <trkpt lat="62.33068" lon="5.86192">
        <ele>4.491594</ele>
        <time>2020-07-16T15:00:07.700Z</time>
      </trkpt>
      <trkpt lat="62.33073" lon="5.8619">
        <ele>4.410371</ele>
        <time>2020-07-16T15:00:08.795Z</time>
      </trkpt>
      <trkpt lat="62.33085" lon="5.86181">
        <ele>4.208551</ele>
        <time>2020-07-16T15:00:10.787Z</time>
      </trkpt>
      <trkpt lat="62.33099" lon="5.86168">
        <ele>3.969998</ele>
        <time>2020-07-16T15:00:12.889Z</time>
      </trkpt>
      <trkpt lat="62.33102" lon="5.86165">
        <ele>3.921189</ele>
        <time>2020-07-16T15:00:13.350Z</time>
      </trkpt>
      <trkpt lat="62.33116" lon="5.86127">
        <ele>3.568429</ele>
        <time>2020-07-16T15:00:17.107Z</time>
      </trkpt>
      <trkpt lat="62.33117" lon="5.86127">
        <ele>3.549506</ele>
        <time>2020-07-16T15:00:17.305Z</time>
      </trkpt>
      <trkpt lat="62.33119" lon="5.8613">
        <ele>3.515019</ele>
        <time>2020-07-16T15:00:17.643Z</time>
      </trkpt>
      <trkpt lat="62.33122" lon="5.86133">
        <ele>3.459519</ele>
        <time>2020-07-16T15:00:18.156Z</time>
      </trkpt>
      <trkpt lat="62.33126" lon="5.86136">
        <ele>3.394251</ele>
        <time>2020-07-16T15:00:18.670Z</time>
      </trkpt>
      <trkpt lat="62.3313" lon="5.86139">
        <ele>3.324909</ele>
        <time>2020-07-16T15:00:19.689Z</time>
      </trkpt>
      <trkpt lat="62.33139" lon="5.86134">
        <ele>3.172683</ele>
        <time>2020-07-16T15:00:21.364Z</time>
      </trkpt>
      <trkpt lat="62.33165" lon="5.86089">
        <ele>2.655754</ele>
        <time>2020-07-16T15:00:26.626Z</time>
      </trkpt>
      <trkpt lat="62.33275" lon="5.85871">
        <ele>4.987888</ele>
        <time>2020-07-16T15:01:01.339Z</time>
      </trkpt>
      <trkpt lat="62.33286" lon="5.85845">
        <ele>5.25287</ele>
        <time>2020-07-16T15:01:05.255Z</time>
      </trkpt>
      <trkpt lat="62.33293" lon="5.85833">
        <ele>5.399912</ele>
        <time>2020-07-16T15:01:08.300Z</time>
      </trkpt>
      <trkpt lat="62.33321" lon="5.85768">
        <ele>7.040394</ele>
        <time>2020-07-16T15:01:20.677Z</time>
      </trkpt>
      <trkpt lat="62.33325" lon="5.85758">
        <ele>7.3411</ele>
        <time>2020-07-16T15:01:23.155Z</time>
      </trkpt>
      <trkpt lat="62.33332" lon="5.85748">
        <ele>7.711415</ele>
        <time>2020-07-16T15:01:25.647Z</time>
      </trkpt>
      <trkpt lat="62.33365" lon="5.85708">
        <ele>9.479757</ele>
        <time>2020-07-16T15:01:37.759Z</time>
      </trkpt>
      <trkpt lat="62.33398" lon="5.85682">
        <ele>11.082983</ele>
        <time>2020-07-16T15:01:49.985Z</time>
      </trkpt>
      <trkpt lat="62.33443" lon="5.8565">
        <ele>13.307244</ele>
        <time>2020-07-16T15:02:08.491Z</time>
      </trkpt>
      <trkpt lat="62.33528" lon="5.85581">
        <ele>16.973235</ele>
        <time>2020-07-16T15:02:39.881Z</time>
      </trkpt>
      <trkpt lat="62.33534" lon="5.85578">
        <ele>17.190765</ele>
        <time>2020-07-16T15:02:42.381Z</time>
      </trkpt>
      <trkpt lat="62.3354" lon="5.85576">
        <ele>17.434361</ele>
        <time>2020-07-16T15:02:44.734Z</time>
      </trkpt>
      <trkpt lat="62.33565" lon="5.85563">
        <ele>18.435415</ele>
        <time>2020-07-16T15:02:51.557Z</time>
      </trkpt>
      <trkpt lat="62.33571" lon="5.85561">
        <ele>18.703537</ele>
        <time>2020-07-16T15:02:54.307Z</time>
      </trkpt>
      <trkpt lat="62.33576" lon="5.85558">
        <ele>18.913116</ele>
        <time>2020-07-16T15:02:56.072Z</time>
      </trkpt>
      <trkpt lat="62.33588" lon="5.85538">
        <ele>19.510599</ele>
        <time>2020-07-16T15:02:59.488Z</time>
      </trkpt>
      <trkpt lat="62.33611" lon="5.85527">
        <ele>20.435041</ele>
        <time>2020-07-16T15:03:06.023Z</time>
      </trkpt>
      <trkpt lat="62.3363" lon="5.8552">
        <ele>20.983243</ele>
        <time>2020-07-16T15:03:09.826Z</time>
      </trkpt>
      <trkpt lat="62.33639" lon="5.85518">
        <ele>21.028049</ele>
        <time>2020-07-16T15:03:12.791Z</time>
      </trkpt>
      <trkpt lat="62.33647" lon="5.85515">
        <ele>21.069451</ele>
        <time>2020-07-16T15:03:14.783Z</time>
      </trkpt>
      <trkpt lat="62.33672" lon="5.85507">
        <ele>21.196021</ele>
        <time>2020-07-16T15:03:20.526Z</time>
      </trkpt>
      <trkpt lat="62.33724" lon="5.85493">
        <ele>21.455515</ele>
        <time>2020-07-16T15:03:30.492Z</time>
      </trkpt>
      <trkpt lat="62.33766" lon="5.8548">
        <ele>21.668636</ele>
        <time>2020-07-16T15:03:37.609Z</time>
      </trkpt>
      <trkpt lat="62.33849" lon="5.85456">
        <ele>23.114943</ele>
        <time>2020-07-16T15:03:52.817Z</time>
      </trkpt>
      <trkpt lat="62.33876" lon="5.85445">
        <ele>23.862641</ele>
        <time>2020-07-16T15:03:59.286Z</time>
      </trkpt>
      <trkpt lat="62.33877" lon="5.85458">
        <ele>24.028032</ele>
        <time>2020-07-16T15:04:01.218Z</time>
      </trkpt>
      <trkpt lat="62.33881" lon="5.85502">
        <ele>24.589181</ele>
        <time>2020-07-16T15:04:07.959Z</time>
      </trkpt>
      <trkpt lat="62.33883" lon="5.85515">
        <ele>24.765861</ele>
        <time>2020-07-16T15:04:09.598Z</time>
      </trkpt>
      <trkpt lat="62.33885" lon="5.8554">
        <ele>25.086005</ele>
        <time>2020-07-16T15:04:13.771Z</time>
      </trkpt>
      <trkpt lat="62.33886" lon="5.85557">
        <ele>25.308446</ele>
        <time>2020-07-16T15:04:17.372Z</time>
      </trkpt>
      <trkpt lat="62.33889" lon="5.85594">
        <ele>25.781577</ele>
        <time>2020-07-16T15:04:24.001Z</time>
      </trkpt>
      <trkpt lat="62.3389" lon="5.85601">
        <ele>25.870323</ele>
        <time>2020-07-16T15:04:25.215Z</time>
      </trkpt>
      <trkpt lat="62.33893" lon="5.8561">
        <ele>26.007622</ele>
        <time>2020-07-16T15:04:26.950Z</time>
      </trkpt>
      <trkpt lat="62.33914" lon="5.85669">
        <ele>27.262701</ele>
        <time>2020-07-16T15:04:40.964Z</time>
      </trkpt>
      <trkpt lat="62.33915" lon="5.85674">
        <ele>27.412116</ele>
        <time>2020-07-16T15:04:41.787Z</time>
      </trkpt>
      <trkpt lat="62.33915" lon="5.85682">
        <ele>27.677609</ele>
        <time>2020-07-16T15:04:44.684Z</time>
      </trkpt>
      <trkpt lat="62.33897" lon="5.85824">
        <ele>32.226412</ele>
        <time>2020-07-16T15:05:13.687Z</time>
      </trkpt>
      <trkpt lat="62.33901" lon="5.85846">
        <ele>32.951299</ele>
        <time>2020-07-16T15:05:19.121Z</time>
      </trkpt>
      <trkpt lat="62.33903" lon="5.85846">
        <ele>33.091904</ele>
        <time>2020-07-16T15:05:21.201Z</time>
      </trkpt>
      <trkpt lat="62.33908" lon="5.85862">
        <ele>33.707898</ele>
        <time>2020-07-16T15:05:24.404Z</time>
      </trkpt>
      <trkpt lat="62.33914" lon="5.85942">
        <ele>36.218315</ele>
        <time>2020-07-16T15:05:39.637Z</time>
      </trkpt>
      <trkpt lat="62.33922" lon="5.85965">
        <ele>37.077785</ele>
        <time>2020-07-16T15:05:44.444Z</time>
      </trkpt>
      <trkpt lat="62.33932" lon="5.85984">
        <ele>37.976548</ele>
        <time>2020-07-16T15:05:51.874Z</time>
      </trkpt>
      <trkpt lat="62.33934" lon="5.86001">
        <ele>38.530696</ele>
        <time>2020-07-16T15:05:55.459Z</time>
      </trkpt>
      <trkpt lat="62.33945" lon="5.86065">
        <ele>40.496645</ele>
        <time>2020-07-16T15:06:08.368Z</time>
      </trkpt>
      <trkpt lat="62.33945" lon="5.86124">
        <ele>42.162531</ele>
        <time>2020-07-16T15:06:16.900Z</time>
      </trkpt>
      <trkpt lat="62.33966" lon="5.86148">
        <ele>43.629025</ele>
        <time>2020-07-16T15:06:27.963Z</time>
      </trkpt>
      <trkpt lat="62.33975" lon="5.86176">
        <ele>44.574305</ele>
        <time>2020-07-16T15:06:32.023Z</time>
      </trkpt>
      <trkpt lat="62.33977" lon="5.86182">
        <ele>44.785484</ele>
        <time>2020-07-16T15:06:33.585Z</time>
      </trkpt>
      <trkpt lat="62.33988" lon="5.86203">
        <ele>45.70898</ele>
        <time>2020-07-16T15:06:39.639Z</time>
      </trkpt>
      <trkpt lat="62.33994" lon="5.86215">
        <ele>46.198548</ele>
        <time>2020-07-16T15:06:43.912Z</time>
      </trkpt>
      <trkpt lat="62.34005" lon="5.86272">
        <ele>47.956482</ele>
        <time>2020-07-16T15:06:53.153Z</time>
      </trkpt>
      <trkpt lat="62.34007" lon="5.86283">
        <ele>48.271228</ele>
        <time>2020-07-16T15:06:56.612Z</time>
      </trkpt>
      <trkpt lat="62.34002" lon="5.8629">
        <ele>48.593348</ele>
        <time>2020-07-16T15:06:57.649Z</time>
      </trkpt>
      <trkpt lat="62.33975" lon="5.86239">
        <ele>50.78583</ele>
        <time>2020-07-16T15:07:12.701Z</time>
      </trkpt>
      <trkpt lat="62.33974" lon="5.86231">
        <ele>51.018705</ele>
        <time>2020-07-16T15:07:13.339Z</time>
      </trkpt>
      <trkpt lat="62.33968" lon="5.8624">
        <ele>51.454707</ele>
        <time>2020-07-16T15:07:16.557Z</time>
      </trkpt>
      <trkpt lat="62.33964" lon="5.86248">
        <ele>51.791445</ele>
        <time>2020-07-16T15:07:18.873Z</time>
      </trkpt>
      <trkpt lat="62.33959" lon="5.86253">
        <ele>52.084185</ele>
        <time>2020-07-16T15:07:21.950Z</time>
      </trkpt>
      <trkpt lat="62.33904" lon="5.86311">
        <ele>55.783263</ele>
        <time>2020-07-16T15:07:45.165Z</time>
      </trkpt>
      <trkpt lat="62.33886" lon="5.86353">
        <ele>57.359244</ele>
        <time>2020-07-16T15:07:54.987Z</time>
      </trkpt>
      <trkpt lat="62.33873" lon="5.86413">
        <ele>59.186716</ele>
        <time>2020-07-16T15:08:06.472Z</time>
      </trkpt>
      <trkpt lat="62.33875" lon="5.86489">
        <ele>61.294699</ele>
        <time>2020-07-16T15:08:20.777Z</time>
      </trkpt>
      <trkpt lat="62.339" lon="5.86709">
        <ele>67.451665</ele>
        <time>2020-07-16T15:09:01.185Z</time>
      </trkpt>
      <trkpt lat="62.33902" lon="5.86765">
        <ele>68.988629</ele>
        <time>2020-07-16T15:09:09.999Z</time>
      </trkpt>
      <trkpt lat="62.33902" lon="5.86775">
        <ele>69.262057</ele>
        <time>2020-07-16T15:09:12.648Z</time>
      </trkpt>
      <trkpt lat="62.33903" lon="5.86801">
        <ele>69.984827</ele>
        <time>2020-07-16T15:09:16.704Z</time>
      </trkpt>
      <trkpt lat="62.33904" lon="5.86848">
        <ele>71.204753</ele>
        <time>2020-07-16T15:09:24.343Z</time>
      </trkpt>
      <trkpt lat="62.33897" lon="5.86939">
        <ele>72.882056</ele>
        <time>2020-07-16T15:09:39.113Z</time>
      </trkpt>
      <trkpt lat="62.33876" lon="5.87025">
        <ele>74.656388</ele>
        <time>2020-07-16T15:09:53.450Z</time>
      </trkpt>
      <trkpt lat="62.33875" lon="5.87043">
        <ele>74.98999</ele>
        <time>2020-07-16T15:09:55.735Z</time>
      </trkpt>
      <trkpt lat="62.33871" lon="5.87062">
        <ele>75.372952</ele>
        <time>2020-07-16T15:09:59.120Z</time>
      </trkpt>
      <trkpt lat="62.33869" lon="5.87076">
        <ele>75.646642</ele>
        <time>2020-07-16T15:10:01.678Z</time>
      </trkpt>
      <trkpt lat="62.33866" lon="5.87074">
        <ele>75.770295</ele>
        <time>2020-07-16T15:10:02.763Z</time>
      </trkpt>
      <trkpt lat="62.33853" lon="5.87083">
        <ele>76.279509</ele>
        <time>2020-07-16T15:10:06.116Z</time>
      </trkpt>
      <trkpt lat="62.33808" lon="5.87251">
        <ele>79.398015</ele>
        <time>2020-07-16T15:10:30.622Z</time>
      </trkpt>
      <trkpt lat="62.33761" lon="5.87508">
        <ele>83.171605</ele>
        <time>2020-07-16T15:11:06.443Z</time>
      </trkpt>
      <trkpt lat="62.33759" lon="5.87535">
        <ele>83.577845</ele>
        <time>2020-07-16T15:11:10.228Z</time>
      </trkpt>
      <trkpt lat="62.33758" lon="5.87547">
        <ele>83.809379</ele>
        <time>2020-07-16T15:11:12.029Z</time>
      </trkpt>
      <trkpt lat="62.3375" lon="5.87633">
        <ele>85.403907</ele>
        <time>2020-07-16T15:11:23.371Z</time>
      </trkpt>
      <trkpt lat="62.33751" lon="5.87759">
        <ele>87.722277</ele>
        <time>2020-07-16T15:11:41.428Z</time>
      </trkpt>
      <trkpt lat="62.33766" lon="5.879">
        <ele>90.368526</ele>
        <time>2020-07-16T15:12:04.419Z</time>
      </trkpt>
      <trkpt lat="62.33783" lon="5.87977">
        <ele>92.206714</ele>
        <time>2020-07-16T15:12:17.022Z</time>
      </trkpt>
      <trkpt lat="62.33793" lon="5.88003">
        <ele>92.964426</ele>
        <time>2020-07-16T15:12:22.185Z</time>
      </trkpt>
      <trkpt lat="62.33794" lon="5.88013">
        <ele>93.186149</ele>
        <time>2020-07-16T15:12:24.002Z</time>
      </trkpt>
      <trkpt lat="62.33796" lon="5.88024">
        <ele>93.428461</ele>
        <time>2020-07-16T15:12:25.521Z</time>
      </trkpt>
      <trkpt lat="62.33807" lon="5.88075">
        <ele>94.678994</ele>
        <time>2020-07-16T15:12:34.552Z</time>
      </trkpt>
      <trkpt lat="62.33814" lon="5.88103">
        <ele>95.364717</ele>
        <time>2020-07-16T15:12:39.400Z</time>
      </trkpt>
      <trkpt lat="62.33858" lon="5.88245">
        <ele>99.084575</ele>
        <time>2020-07-16T15:13:06.453Z</time>
      </trkpt>
      <trkpt lat="62.33886" lon="5.88305">
        <ele>100.906042</ele>
        <time>2020-07-16T15:13:20.821Z</time>
      </trkpt>
      <trkpt lat="62.33894" lon="5.88302">
        <ele>101.237236</ele>
        <time>2020-07-16T15:13:23.266Z</time>
      </trkpt>
      <trkpt lat="62.33897" lon="5.88302">
        <ele>101.38716</ele>
        <time>2020-07-16T15:13:24.685Z</time>
      </trkpt>
      <trkpt lat="62.33939" lon="5.88369">
        <ele>103.747131</ele>
        <time>2020-07-16T15:13:41.113Z</time>
      </trkpt>
      <trkpt lat="62.33949" lon="5.88383">
        <ele>104.299004</ele>
        <time>2020-07-16T15:13:45.182Z</time>
      </trkpt>
      <trkpt lat="62.33947" lon="5.88412">
        <ele>104.902884</ele>
        <time>2020-07-16T15:13:49.519Z</time>
      </trkpt>
      <trkpt lat="62.33952" lon="5.88429">
        <ele>105.315983</ele>
        <time>2020-07-16T15:13:52.465Z</time>
      </trkpt>
      <trkpt lat="62.3396" lon="5.88469">
        <ele>106.233588</ele>
        <time>2020-07-16T15:13:59.261Z</time>
      </trkpt>
      <trkpt lat="62.33961" lon="5.88482">
        <ele>106.511031</ele>
        <time>2020-07-16T15:14:01.154Z</time>
      </trkpt>
      <trkpt lat="62.33962" lon="5.88495">
        <ele>106.801218</ele>
        <time>2020-07-16T15:14:03.302Z</time>
      </trkpt>
      <trkpt lat="62.33974" lon="5.88642">
        <ele>109.314802</ele>
        <time>2020-07-16T15:14:24.972Z</time>
      </trkpt>
      <trkpt lat="62.33976" lon="5.88661">
        <ele>109.637469</ele>
        <time>2020-07-16T15:14:27.902Z</time>
      </trkpt>
      <trkpt lat="62.33978" lon="5.88678">
        <ele>109.928905</ele>
        <time>2020-07-16T15:14:30.719Z</time>
      </trkpt>
      <trkpt lat="62.3403" lon="5.88976">
        <ele>114.909913</ele>
        <time>2020-07-16T15:15:12.299Z</time>
      </trkpt>
      <trkpt lat="62.34043" lon="5.89112">
        <ele>116.856927</ele>
        <time>2020-07-16T15:15:30.078Z</time>
      </trkpt>
      <trkpt lat="62.34041" lon="5.89158">
        <ele>117.513861</ele>
        <time>2020-07-16T15:15:35.998Z</time>
      </trkpt>
      <trkpt lat="62.34065" lon="5.89247">
        <ele>118.95011</ele>
        <time>2020-07-16T15:15:49.661Z</time>
      </trkpt>
      <trkpt lat="62.34068" lon="5.89262">
        <ele>119.244114</ele>
        <time>2020-07-16T15:15:51.976Z</time>
      </trkpt>
      <trkpt lat="62.3407" lon="5.89275">
        <ele>119.52473</ele>
        <time>2020-07-16T15:15:53.850Z</time>
      </trkpt>
      <trkpt lat="62.34076" lon="5.8929">
        <ele>119.882569</ele>
        <time>2020-07-16T15:15:56.273Z</time>
      </trkpt>
      <trkpt lat="62.34076" lon="5.89305">
        <ele>120.169298</ele>
        <time>2020-07-16T15:15:58.674Z</time>
      </trkpt>
      <trkpt lat="62.34111" lon="5.89503">
        <ele>124.181321</ele>
        <time>2020-07-16T15:16:29.227Z</time>
      </trkpt>
      <trkpt lat="62.34266" lon="5.90269">
        <ele>142.518471</ele>
        <time>2020-07-16T15:18:42.686Z</time>
      </trkpt>
      <trkpt lat="62.34284" lon="5.90358">
        <ele>144.286608</ele>
        <time>2020-07-16T15:18:57.243Z</time>
      </trkpt>
      <trkpt lat="62.34294" lon="5.90404">
        <ele>144.99085</ele>
        <time>2020-07-16T15:19:04.807Z</time>
      </trkpt>
      <trkpt lat="62.34361" lon="5.90651">
        <ele>148.878439</ele>
        <time>2020-07-16T15:19:41.190Z</time>
      </trkpt>
      <trkpt lat="62.34402" lon="5.90768">
        <ele>148.610701</ele>
        <time>2020-07-16T15:19:55.349Z</time>
      </trkpt>
      <trkpt lat="62.3446" lon="5.90909">
        <ele>148.148063</ele>
        <time>2020-07-16T15:20:09.806Z</time>
      </trkpt>
      <trkpt lat="62.34498" lon="5.90988">
        <ele>146.770661</ele>
        <time>2020-07-16T15:20:17.509Z</time>
      </trkpt>
      <trkpt lat="62.34644" lon="5.91293">
        <ele>135.927959</ele>
        <time>2020-07-16T15:20:42.899Z</time>
      </trkpt>
      <trkpt lat="62.34651" lon="5.91307">
        <ele>135.237531</ele>
        <time>2020-07-16T15:20:44.070Z</time>
      </trkpt>
      <trkpt lat="62.34667" lon="5.91345">
        <ele>133.564209</ele>
        <time>2020-07-16T15:20:46.961Z</time>
      </trkpt>
      <trkpt lat="62.34684" lon="5.91387">
        <ele>131.772346</ele>
        <time>2020-07-16T15:20:50.105Z</time>
      </trkpt>
      <trkpt lat="62.34685" lon="5.91389">
        <ele>131.69423</ele>
        <time>2020-07-16T15:20:50.226Z</time>
      </trkpt>
      <trkpt lat="62.34695" lon="5.91414">
        <ele>130.639412</ele>
        <time>2020-07-16T15:20:52.001Z</time>
      </trkpt>
      <trkpt lat="62.34754" lon="5.9161">
        <ele>123.68524</ele>
        <time>2020-07-16T15:21:04.918Z</time>
      </trkpt>
      <trkpt lat="62.3491" lon="5.92321">
        <ele>103.772187</ele>
        <time>2020-07-16T15:21:51.248Z</time>
      </trkpt>
      <trkpt lat="62.34917" lon="5.92348">
        <ele>102.948565</ele>
        <time>2020-07-16T15:21:53.075Z</time>
      </trkpt>
      <trkpt lat="62.34978" lon="5.92626">
        <ele>94.678286</ele>
        <time>2020-07-16T15:22:10.697Z</time>
      </trkpt>
      <trkpt lat="62.35022" lon="5.92829">
        <ele>88.061155</ele>
        <time>2020-07-16T15:22:23.322Z</time>
      </trkpt>
      <trkpt lat="62.35035" lon="5.92889">
        <ele>86.079228</ele>
        <time>2020-07-16T15:22:27.128Z</time>
      </trkpt>
      <trkpt lat="62.35049" lon="5.92954">
        <ele>84.186176</ele>
        <time>2020-07-16T15:22:31.206Z</time>
      </trkpt>
      <trkpt lat="62.35062" lon="5.93011">
        <ele>82.608312</ele>
        <time>2020-07-16T15:22:34.829Z</time>
      </trkpt>
      <trkpt lat="62.35073" lon="5.9306">
        <ele>81.24913</ele>
        <time>2020-07-16T15:22:37.991Z</time>
      </trkpt>
      <trkpt lat="62.3512" lon="5.93274">
        <ele>75.345751</ele>
        <time>2020-07-16T15:22:51.942Z</time>
      </trkpt>
      <trkpt lat="62.35145" lon="5.9339">
        <ele>72.46839</ele>
        <time>2020-07-16T15:22:59.865Z</time>
      </trkpt>
      <trkpt lat="62.35147" lon="5.934">
        <ele>72.235459</ele>
        <time>2020-07-16T15:23:00.439Z</time>
      </trkpt>
      <trkpt lat="62.35169" lon="5.935">
        <ele>69.731159</ele>
        <time>2020-07-16T15:23:07.003Z</time>
      </trkpt>
      <trkpt lat="62.35221" lon="5.9369">
        <ele>64.848047</ele>
        <time>2020-07-16T15:23:19.979Z</time>
      </trkpt>
      <trkpt lat="62.35224" lon="5.93698">
        <ele>64.608064</ele>
        <time>2020-07-16T15:23:20.579Z</time>
      </trkpt>
      <trkpt lat="62.35228" lon="5.93709">
        <ele>64.327789</ele>
        <time>2020-07-16T15:23:21.305Z</time>
      </trkpt>
      <trkpt lat="62.35261" lon="5.93834">
        <ele>61.188882</ele>
        <time>2020-07-16T15:23:29.956Z</time>
      </trkpt>
      <trkpt lat="62.35268" lon="5.93872">
        <ele>60.289129</ele>
        <time>2020-07-16T15:23:32.426Z</time>
      </trkpt>
      <trkpt lat="62.35277" lon="5.93921">
        <ele>59.157419</ele>
        <time>2020-07-16T15:23:35.556Z</time>
      </trkpt>
      <trkpt lat="62.35281" lon="5.93947">
        <ele>58.563824</ele>
        <time>2020-07-16T15:23:37.249Z</time>
      </trkpt>
      <trkpt lat="62.35294" lon="5.94055">
        <ele>56.708354</ele>
        <time>2020-07-16T15:23:44.212Z</time>
      </trkpt>
      <trkpt lat="62.3533" lon="5.94511">
        <ele>49.390168</ele>
        <time>2020-07-16T15:24:13.451Z</time>
      </trkpt>
      <trkpt lat="62.35332" lon="5.94537">
        <ele>48.987367</ele>
        <time>2020-07-16T15:24:15.125Z</time>
      </trkpt>
      <trkpt lat="62.35339" lon="5.94599">
        <ele>48.048261</ele>
        <time>2020-07-16T15:24:19.199Z</time>
      </trkpt>
      <trkpt lat="62.35363" lon="5.94779">
        <ele>45.452065</ele>
        <time>2020-07-16T15:24:31.205Z</time>
      </trkpt>
      <trkpt lat="62.35381" lon="5.94895">
        <ele>43.925615</ele>
        <time>2020-07-16T15:24:39.127Z</time>
      </trkpt>
      <trkpt lat="62.35396" lon="5.94985">
        <ele>42.734698</ele>
        <time>2020-07-16T15:24:45.544Z</time>
      </trkpt>
      <trkpt lat="62.35412" lon="5.95086">
        <ele>41.437208</ele>
        <time>2020-07-16T15:24:52.656Z</time>
      </trkpt>
      <trkpt lat="62.3546" lon="5.95385">
        <ele>38.171521</ele>
        <time>2020-07-16T15:25:14.012Z</time>
      </trkpt>
      <trkpt lat="62.3547" lon="5.95444">
        <ele>37.535819</ele>
        <time>2020-07-16T15:25:18.353Z</time>
      </trkpt>
      <trkpt lat="62.35478" lon="5.95494">
        <ele>37.024126</ele>
        <time>2020-07-16T15:25:21.961Z</time>
      </trkpt>
      <trkpt lat="62.35494" lon="5.95597">
        <ele>35.973711</ele>
        <time>2020-07-16T15:25:29.501Z</time>
      </trkpt>
      <trkpt lat="62.35517" lon="5.95739">
        <ele>34.529314</ele>
        <time>2020-07-16T15:25:39.811Z</time>
      </trkpt>
      <trkpt lat="62.3552" lon="5.95757">
        <ele>34.349103</ele>
        <time>2020-07-16T15:25:41.013Z</time>
      </trkpt>
      <trkpt lat="62.35537" lon="5.95919">
        <ele>32.657819</ele>
        <time>2020-07-16T15:25:52.214Z</time>
      </trkpt>
      <trkpt lat="62.35546" lon="5.96039">
        <ele>31.379598</ele>
        <time>2020-07-16T15:26:00.467Z</time>
      </trkpt>
      <trkpt lat="62.35565" lon="5.96287">
        <ele>29.050637</ele>
        <time>2020-07-16T15:26:17.401Z</time>
      </trkpt>
      <trkpt lat="62.35571" lon="5.96368">
        <ele>28.434488</ele>
        <time>2020-07-16T15:26:23.016Z</time>
      </trkpt>
      <trkpt lat="62.35579" lon="5.9644">
        <ele>27.874319</ele>
        <time>2020-07-16T15:26:28.283Z</time>
      </trkpt>
      <trkpt lat="62.35586" lon="5.9649">
        <ele>27.47491</ele>
        <time>2020-07-16T15:26:32.074Z</time>
      </trkpt>
      <trkpt lat="62.35596" lon="5.96542">
        <ele>27.050831</ele>
        <time>2020-07-16T15:26:36.343Z</time>
      </trkpt>
      <trkpt lat="62.35605" lon="5.9658">
        <ele>26.885049</ele>
        <time>2020-07-16T15:26:39.602Z</time>
      </trkpt>
      <trkpt lat="62.35618" lon="5.96629">
        <ele>26.85965</ele>
        <time>2020-07-16T15:26:43.967Z</time>
      </trkpt>
      <trkpt lat="62.35626" lon="5.96659">
        <ele>26.843194</ele>
        <time>2020-07-16T15:26:46.991Z</time>
      </trkpt>
      <trkpt lat="62.35662" lon="5.96771">
        <ele>26.781468</ele>
        <time>2020-07-16T15:26:58.416Z</time>
      </trkpt>
      <trkpt lat="62.35665" lon="5.96778">
        <ele>26.77696</ele>
        <time>2020-07-16T15:26:59.347Z</time>
      </trkpt>
      <trkpt lat="62.3567" lon="5.96792">
        <ele>26.768907</ele>
        <time>2020-07-16T15:27:00.949Z</time>
      </trkpt>
      <trkpt lat="62.35747" lon="5.96961">
        <ele>27.101106</ele>
        <time>2020-07-16T15:27:23.269Z</time>
      </trkpt>
      <trkpt lat="62.35759" lon="5.96989">
        <ele>27.215754</ele>
        <time>2020-07-16T15:27:26.927Z</time>
      </trkpt>
      <trkpt lat="62.35773" lon="5.97022">
        <ele>27.352638</ele>
        <time>2020-07-16T15:27:31.319Z</time>
      </trkpt>
      <trkpt lat="62.35796" lon="5.97079">
        <ele>27.578862</ele>
        <time>2020-07-16T15:27:38.407Z</time>
      </trkpt>
      <trkpt lat="62.35811" lon="5.97119">
        <ele>27.735477</ele>
        <time>2020-07-16T15:27:43.469Z</time>
      </trkpt>
      <trkpt lat="62.35826" lon="5.97158">
        <ele>27.889859</ele>
        <time>2020-07-16T15:27:48.304Z</time>
      </trkpt>
      <trkpt lat="62.3583" lon="5.97168">
        <ele>27.952543</ele>
        <time>2020-07-16T15:27:49.638Z</time>
      </trkpt>
      <trkpt lat="62.35832" lon="5.97175">
        <ele>27.995499</ele>
        <time>2020-07-16T15:27:50.494Z</time>
      </trkpt>
      <trkpt lat="62.35893" lon="5.97325">
        <ele>29.003324</ele>
        <time>2020-07-16T15:28:10.358Z</time>
      </trkpt>
      <trkpt lat="62.35899" lon="5.97342">
        <ele>29.111069</ele>
        <time>2020-07-16T15:28:12.664Z</time>
      </trkpt>
      <trkpt lat="62.35917" lon="5.97388">
        <ele>29.410273</ele>
        <time>2020-07-16T15:28:18.795Z</time>
      </trkpt>
      <trkpt lat="62.35928" lon="5.97417">
        <ele>29.605725</ele>
        <time>2020-07-16T15:28:23.022Z</time>
      </trkpt>
      <trkpt lat="62.35946" lon="5.97462">
        <ele>29.904316</ele>
        <time>2020-07-16T15:28:29.415Z</time>
      </trkpt>
      <trkpt lat="62.35964" lon="5.97507">
        <ele>30.186237</ele>
        <time>2020-07-16T15:28:35.767Z</time>
      </trkpt>
      <trkpt lat="62.35983" lon="5.97557">
        <ele>30.495928</ele>
        <time>2020-07-16T15:28:42.790Z</time>
      </trkpt>
      <trkpt lat="62.36015" lon="5.97636">
        <ele>30.996816</ele>
        <time>2020-07-16T15:28:53.936Z</time>
      </trkpt>
      <trkpt lat="62.36055" lon="5.97737">
        <ele>31.628872</ele>
        <time>2020-07-16T15:29:07.060Z</time>
      </trkpt>
      <trkpt lat="62.36081" lon="5.97802">
        <ele>31.216128</ele>
        <time>2020-07-16T15:29:14.380Z</time>
      </trkpt>
      <trkpt lat="62.36102" lon="5.97858">
        <ele>30.700159</ele>
        <time>2020-07-16T15:29:20.115Z</time>
      </trkpt>
      <trkpt lat="62.36121" lon="5.97906">
        <ele>30.253544</ele>
        <time>2020-07-16T15:29:24.864Z</time>
      </trkpt>
      <trkpt lat="62.36144" lon="5.97963">
        <ele>29.716759</ele>
        <time>2020-07-16T15:29:30.076Z</time>
      </trkpt>
      <trkpt lat="62.36156" lon="5.97993">
        <ele>29.43727</ele>
        <time>2020-07-16T15:29:32.594Z</time>
      </trkpt>
      <trkpt lat="62.36179" lon="5.98051">
        <ele>28.764826</ele>
        <time>2020-07-16T15:29:37.450Z</time>
      </trkpt>
      <trkpt lat="62.36219" lon="5.98158">
        <ele>25.774132</ele>
        <time>2020-07-16T15:29:46.016Z</time>
      </trkpt>
      <trkpt lat="62.36225" lon="5.98176">
        <ele>25.318771</ele>
        <time>2020-07-16T15:29:47.193Z</time>
      </trkpt>
      <trkpt lat="62.36238" lon="5.98223">
        <ele>24.124152</ele>
        <time>2020-07-16T15:29:50.501Z</time>
      </trkpt>
      <trkpt lat="62.36261" lon="5.98309">
        <ele>21.972057</ele>
        <time>2020-07-16T15:29:56.205Z</time>
      </trkpt>
      <trkpt lat="62.36286" lon="5.98407">
        <ele>19.509111</ele>
        <time>2020-07-16T15:30:02.856Z</time>
      </trkpt>
      <trkpt lat="62.36293" lon="5.98435">
        <ele>18.795916</ele>
        <time>2020-07-16T15:30:04.622Z</time>
      </trkpt>
      <trkpt lat="62.36314" lon="5.9851">
        <ele>16.817641</ele>
        <time>2020-07-16T15:30:09.675Z</time>
      </trkpt>
      <trkpt lat="62.36361" lon="5.98667">
        <ele>12.611862</ele>
        <time>2020-07-16T15:30:20.924Z</time>
      </trkpt>
      <trkpt lat="62.36385" lon="5.98747">
        <ele>11.178186</ele>
        <time>2020-07-16T15:30:26.634Z</time>
      </trkpt>
      <trkpt lat="62.36409" lon="5.98824">
        <ele>10.19253</ele>
        <time>2020-07-16T15:30:32.795Z</time>
      </trkpt>
      <trkpt lat="62.36433" lon="5.98903">
        <ele>9.208627</ele>
        <time>2020-07-16T15:30:39.318Z</time>
      </trkpt>
      <trkpt lat="62.36439" lon="5.98925">
        <ele>8.935422</ele>
        <time>2020-07-16T15:30:41.168Z</time>
      </trkpt>
      <trkpt lat="62.36454" lon="5.98969">
        <ele>8.361344</ele>
        <time>2020-07-16T15:30:45.438Z</time>
      </trkpt>
      <trkpt lat="62.36479" lon="5.99048">
        <ele>7.539715</ele>
        <time>2020-07-16T15:30:52.365Z</time>
      </trkpt>
      <trkpt lat="62.36489" lon="5.99082">
        <ele>7.331645</ele>
        <time>2020-07-16T15:30:55.946Z</time>
      </trkpt>
      <trkpt lat="62.36521" lon="5.99184">
        <ele>6.678265</ele>
        <time>2020-07-16T15:31:04.584Z</time>
      </trkpt>
      <trkpt lat="62.3653" lon="5.99216">
        <ele>6.484437</ele>
        <time>2020-07-16T15:31:07.830Z</time>
      </trkpt>
      <trkpt lat="62.36537" lon="5.99241">
        <ele>6.327455</ele>
        <time>2020-07-16T15:31:09.646Z</time>
      </trkpt>
      <trkpt lat="62.36555" lon="5.99313">
        <ele>5.897709</ele>
        <time>2020-07-16T15:31:15.934Z</time>
      </trkpt>
      <trkpt lat="62.36561" lon="5.99342">
        <ele>5.732332</ele>
        <time>2020-07-16T15:31:19.186Z</time>
      </trkpt>
      <trkpt lat="62.36567" lon="5.99374">
        <ele>5.727804</ele>
        <time>2020-07-16T15:31:21.778Z</time>
      </trkpt>
      <trkpt lat="62.36579" lon="5.9944">
        <ele>5.849881</ele>
        <time>2020-07-16T15:31:27.247Z</time>
      </trkpt>
      <trkpt lat="62.36593" lon="5.99528">
        <ele>6.01195</ele>
        <time>2020-07-16T15:31:34.508Z</time>
      </trkpt>
      <trkpt lat="62.36612" lon="5.99643">
        <ele>6.222227</ele>
        <time>2020-07-16T15:31:46.431Z</time>
      </trkpt>
      <trkpt lat="62.36634" lon="5.99778">
        <ele>6.9181</ele>
        <time>2020-07-16T15:32:03.319Z</time>
      </trkpt>
      <trkpt lat="62.36648" lon="5.99869">
        <ele>7.730004</ele>
        <time>2020-07-16T15:32:14.354Z</time>
      </trkpt>
      <trkpt lat="62.3666" lon="5.99944">
        <ele>8.402251</ele>
        <time>2020-07-16T15:32:23.326Z</time>
      </trkpt>
      <trkpt lat="62.36672" lon="6.00019">
        <ele>9.071939</ele>
        <time>2020-07-16T15:32:32.149Z</time>
      </trkpt>
      <trkpt lat="62.36683" lon="6.00088">
        <ele>9.689347</ele>
        <time>2020-07-16T15:32:40.386Z</time>
      </trkpt>
      <trkpt lat="62.36692" lon="6.00138">
        <ele>10.10424</ele>
        <time>2020-07-16T15:32:46.720Z</time>
      </trkpt>
      <trkpt lat="62.36695" lon="6.00154">
        <ele>10.235818</ele>
        <time>2020-07-16T15:32:48.363Z</time>
      </trkpt>
      <trkpt lat="62.36703" lon="6.00192">
        <ele>10.560406</ele>
        <time>2020-07-16T15:32:53.044Z</time>
      </trkpt>
      <trkpt lat="62.36718" lon="6.00255">
        <ele>11.102036</ele>
        <time>2020-07-16T15:33:00.339Z</time>
      </trkpt>
      <trkpt lat="62.36725" lon="6.00284">
        <ele>11.356052</ele>
        <time>2020-07-16T15:33:03.626Z</time>
      </trkpt>
      <trkpt lat="62.36747" lon="6.00362">
        <ele>12.053533</ele>
        <time>2020-07-16T15:33:12.917Z</time>
      </trkpt>
      <trkpt lat="62.36794" lon="6.00533">
        <ele>14.172118</ele>
        <time>2020-07-16T15:33:37.862Z</time>
      </trkpt>
      <trkpt lat="62.36804" lon="6.00571">
        <ele>14.718556</ele>
        <time>2020-07-16T15:33:43.550Z</time>
      </trkpt>
      <trkpt lat="62.36828" lon="6.00657">
        <ele>15.94778</ele>
        <time>2020-07-16T15:33:56.791Z</time>
      </trkpt>
      <trkpt lat="62.36838" lon="6.00693">
        <ele>16.471869</ele>
        <time>2020-07-16T15:34:02.330Z</time>
      </trkpt>
      <trkpt lat="62.36857" lon="6.00765">
        <ele>17.462247</ele>
        <time>2020-07-16T15:34:12.743Z</time>
      </trkpt>
      <trkpt lat="62.36869" lon="6.00807">
        <ele>17.837659</ele>
        <time>2020-07-16T15:34:18.819Z</time>
      </trkpt>
      <trkpt lat="62.36901" lon="6.00921">
        <ele>18.843997</ele>
        <time>2020-07-16T15:34:34.168Z</time>
      </trkpt>
      <trkpt lat="62.36911" lon="6.00961">
        <ele>19.197202</ele>
        <time>2020-07-16T15:34:39.240Z</time>
      </trkpt>
      <trkpt lat="62.36928" lon="6.01022">
        <ele>19.732365</ele>
        <time>2020-07-16T15:34:46.645Z</time>
      </trkpt>
      <trkpt lat="62.36948" lon="6.01109">
        <ele>20.366824</ele>
        <time>2020-07-16T15:34:56.150Z</time>
      </trkpt>
      <trkpt lat="62.36951" lon="6.01117">
        <ele>20.370572</ele>
        <time>2020-07-16T15:34:57.193Z</time>
      </trkpt>
      <trkpt lat="62.36964" lon="6.01162">
        <ele>20.388953</ele>
        <time>2020-07-16T15:35:02.089Z</time>
      </trkpt>
      <trkpt lat="62.36999" lon="6.01267">
        <ele>20.433472</ele>
        <time>2020-07-16T15:35:13.293Z</time>
      </trkpt>
      <trkpt lat="62.37001" lon="6.01274">
        <ele>20.436198</ele>
        <time>2020-07-16T15:35:14.091Z</time>
      </trkpt>
      <trkpt lat="62.37005" lon="6.01292">
        <ele>20.44313</ele>
        <time>2020-07-16T15:35:15.786Z</time>
      </trkpt>
      <trkpt lat="62.3701" lon="6.01314">
        <ele>20.451474</ele>
        <time>2020-07-16T15:35:17.828Z</time>
      </trkpt>
      <trkpt lat="62.37006" lon="6.01322">
        <ele>20.45528</ele>
        <time>2020-07-16T15:35:18.639Z</time>
      </trkpt>
      <trkpt lat="62.37003" lon="6.01335">
        <ele>20.460395</ele>
        <time>2020-07-16T15:35:19.919Z</time>
      </trkpt>
      <trkpt lat="62.36985" lon="6.01439">
        <ele>20.486746</ele>
        <time>2020-07-16T15:35:29.222Z</time>
      </trkpt>
      <trkpt lat="62.36977" lon="6.0148">
        <ele>20.434839</ele>
        <time>2020-07-16T15:35:32.740Z</time>
      </trkpt>
      <trkpt lat="62.36945" lon="6.01674">
        <ele>20.19278</ele>
        <time>2020-07-16T15:35:49.458Z</time>
      </trkpt>
      <trkpt lat="62.36929" lon="6.01833">
        <ele>20.019704</ele>
        <time>2020-07-16T15:36:03.276Z</time>
      </trkpt>
      <trkpt lat="62.36925" lon="6.01888">
        <ele>19.98423</ele>
        <time>2020-07-16T15:36:08.046Z</time>
      </trkpt>
      <trkpt lat="62.36924" lon="6.01895">
        <ele>19.979774</ele>
        <time>2020-07-16T15:36:08.644Z</time>
      </trkpt>
      <trkpt lat="62.36922" lon="6.01922">
        <ele>19.962115</ele>
        <time>2020-07-16T15:36:11.021Z</time>
      </trkpt>
      <trkpt lat="62.36924" lon="6.02066">
        <ele>19.870214</ele>
        <time>2020-07-16T15:36:23.281Z</time>
      </trkpt>
      <trkpt lat="62.36935" lon="6.02144">
        <ele>19.818354</ele>
        <time>2020-07-16T15:36:30.111Z</time>
      </trkpt>
      <trkpt lat="62.36943" lon="6.02173">
        <ele>19.796173</ele>
        <time>2020-07-16T15:36:32.996Z</time>
      </trkpt>
      <trkpt lat="62.36946" lon="6.02182">
        <ele>19.758079</ele>
        <time>2020-07-16T15:36:33.873Z</time>
      </trkpt>
      <trkpt lat="62.36948" lon="6.02194">
        <ele>19.68386</ele>
        <time>2020-07-16T15:36:34.970Z</time>
      </trkpt>
      <trkpt lat="62.36951" lon="6.02207">
        <ele>19.605356</ele>
        <time>2020-07-16T15:36:36.117Z</time>
      </trkpt>
      <trkpt lat="62.36951" lon="6.02215">
        <ele>19.561638</ele>
        <time>2020-07-16T15:36:36.761Z</time>
      </trkpt>
      <trkpt lat="62.36954" lon="6.02274">
        <ele>19.226326</ele>
        <time>2020-07-16T15:36:41.658Z</time>
      </trkpt>
      <trkpt lat="62.36962" lon="6.02333">
        <ele>18.878441</ele>
        <time>2020-07-16T15:36:46.699Z</time>
      </trkpt>
      <trkpt lat="62.36998" lon="6.02514">
        <ele>17.768225</ele>
        <time>2020-07-16T15:37:01.000Z</time>
      </trkpt>
      <trkpt lat="62.36999" lon="6.02593">
        <ele>16.557823</ele>
        <time>2020-07-16T15:37:06.191Z</time>
      </trkpt>
      <trkpt lat="62.37011" lon="6.02679">
        <ele>14.654507</ele>
        <time>2020-07-16T15:37:11.531Z</time>
      </trkpt>
      <trkpt lat="62.37011" lon="6.02684">
        <ele>14.535164</ele>
        <time>2020-07-16T15:37:11.848Z</time>
      </trkpt>
      <trkpt lat="62.36997" lon="6.02692">
        <ele>13.883071</ele>
        <time>2020-07-16T15:37:13.865Z</time>
      </trkpt>
      <trkpt lat="62.36999" lon="6.02706">
        <ele>13.564837</ele>
        <time>2020-07-16T15:37:14.763Z</time>
      </trkpt>
      <trkpt lat="62.3701" lon="6.02786">
        <ele>11.802382</ele>
        <time>2020-07-16T15:37:19.625Z</time>
      </trkpt>
      <trkpt lat="62.37024" lon="6.02864">
        <ele>10.039035</ele>
        <time>2020-07-16T15:37:24.456Z</time>
      </trkpt>
      <trkpt lat="62.37025" lon="6.02873">
        <ele>9.852392</ele>
        <time>2020-07-16T15:37:24.905Z</time>
      </trkpt>
      <trkpt lat="62.37025" lon="6.02884">
        <ele>9.608249</ele>
        <time>2020-07-16T15:37:25.542Z</time>
      </trkpt>
      <trkpt lat="62.37017" lon="6.02908">
        <ele>8.991348</ele>
        <time>2020-07-16T15:37:27.447Z</time>
      </trkpt>
      <trkpt lat="62.37013" lon="6.02912">
        <ele>8.834172</ele>
        <time>2020-07-16T15:37:27.903Z</time>
      </trkpt>
      <trkpt lat="62.37015" lon="6.02924">
        <ele>8.583519</ele>
        <time>2020-07-16T15:37:28.642Z</time>
      </trkpt>
      <trkpt lat="62.37017" lon="6.02939">
        <ele>8.276493</ele>
        <time>2020-07-16T15:37:29.456Z</time>
      </trkpt>
      <trkpt lat="62.37023" lon="6.02937">
        <ele>7.988769</ele>
        <time>2020-07-16T15:37:30.211Z</time>
      </trkpt>
      <trkpt lat="62.37032" lon="6.02936">
        <ele>7.615589</ele>
        <time>2020-07-16T15:37:31.379Z</time>
      </trkpt>
      <trkpt lat="62.37033" lon="6.02938">
        <ele>7.553306</ele>
        <time>2020-07-16T15:37:31.539Z</time>
      </trkpt>
      <trkpt lat="62.37038" lon="6.02943">
        <ele>7.312431</ele>
        <time>2020-07-16T15:37:32.241Z</time>
      </trkpt>
      <trkpt lat="62.37041" lon="6.02943">
        <ele>7.191161</ele>
        <time>2020-07-16T15:37:32.588Z</time>
      </trkpt>
      <trkpt lat="62.37042" lon="6.02942">
        <ele>7.129734</ele>
        <time>2020-07-16T15:37:32.770Z</time>
      </trkpt>
      <trkpt lat="62.37046" lon="6.02938">
        <ele>6.930987</ele>
        <time>2020-07-16T15:37:33.316Z</time>
      </trkpt>
      <trkpt lat="62.3705" lon="6.02942">
        <ele>6.746996</ele>
        <time>2020-07-16T15:37:33.945Z</time>
      </trkpt>
      <trkpt lat="62.37052" lon="6.02946">
        <ele>6.621511</ele>
        <time>2020-07-16T15:37:34.386Z</time>
      </trkpt>
      <trkpt lat="62.37053" lon="6.02948">
        <ele>6.580205</ele>
        <time>2020-07-16T15:37:34.551Z</time>
      </trkpt>
      <trkpt lat="62.37053" lon="6.02951">
        <ele>6.525215</ele>
        <time>2020-07-16T15:37:34.753Z</time>
      </trkpt>
      <trkpt lat="62.37054" lon="6.02955">
        <ele>6.433731</ele>
        <time>2020-07-16T15:37:35.099Z</time>
      </trkpt>
      <trkpt lat="62.37054" lon="6.02971">
        <ele>6.118535</ele>
        <time>2020-07-16T15:37:36.549Z</time>
      </trkpt>
      <trkpt lat="62.37053" lon="6.02975">
        <ele>6.019777</ele>
        <time>2020-07-16T15:37:36.920Z</time>
      </trkpt>
      <trkpt lat="62.37049" lon="6.03014">
        <ele>5.22191</ele>
        <time>2020-07-16T15:37:39.983Z</time>
      </trkpt>
      <trkpt lat="62.37049" lon="6.03017">
        <ele>5.159247</ele>
        <time>2020-07-16T15:37:40.196Z</time>
      </trkpt>
      <trkpt lat="62.37045" lon="6.03031">
        <ele>4.843499</ele>
        <time>2020-07-16T15:37:41.449Z</time>
      </trkpt>
      <trkpt lat="62.37038" lon="6.03034">
        <ele>4.524871</ele>
        <time>2020-07-16T15:37:43.010Z</time>
      </trkpt>
      <trkpt lat="62.37036" lon="6.03033">
        <ele>4.417756</ele>
        <time>2020-07-16T15:37:43.433Z</time>
      </trkpt>
      <trkpt lat="62.37033" lon="6.03028">
        <ele>4.253717</ele>
        <time>2020-07-16T15:37:44.169Z</time>
      </trkpt>
      <trkpt lat="62.37029" lon="6.0302">
        <ele>4.043152</ele>
        <time>2020-07-16T15:37:45.061Z</time>
      </trkpt>
      <trkpt lat="62.37028" lon="6.03025">
        <ele>3.917667</ele>
        <time>2020-07-16T15:37:47.074Z</time>
      </trkpt>
      <trkpt lat="62.37026" lon="6.03032">
        <ele>3.749186</ele>
        <time>2020-07-16T15:37:49.796Z</time>
      </trkpt>
      <trkpt lat="62.37022" lon="6.03049">
        <ele>3.395707</ele>
        <time>2020-07-16T15:37:55.507Z</time>
      </trkpt>
      <trkpt lat="62.37019" lon="6.03045">
        <ele>3.211775</ele>
        <time>2020-07-16T15:37:56.144Z</time>
      </trkpt>
      <trkpt lat="62.37012" lon="6.03043">
        <ele>2.920914</ele>
        <time>2020-07-16T15:37:57.120Z</time>
      </trkpt>
      <trkpt lat="62.37008" lon="6.03052">
        <ele>2.67806</ele>
        <time>2020-07-16T15:37:57.890Z</time>
      </trkpt>
      <trkpt lat="62.37006" lon="6.03071">
        <ele>2.297443</ele>
        <time>2020-07-16T15:37:59.061Z</time>
      </trkpt>
      <trkpt lat="62.37007" lon="6.03081">
        <ele>2.085826</ele>
        <time>2020-07-16T15:37:59.684Z</time>
      </trkpt>
      <trkpt lat="62.37008" lon="6.03087">
        <ele>1.958568</ele>
        <time>2020-07-16T15:38:00.066Z</time>
      </trkpt>
      <trkpt lat="62.37014" lon="6.03113">
        <ele>1.56054</ele>
        <time>2020-07-16T15:38:02.044Z</time>
      </trkpt>
      <trkpt lat="62.37046" lon="6.03258">
        <ele>0.916629</ele>
        <time>2020-07-16T15:38:12.395Z</time>
      </trkpt>
      <trkpt lat="62.37069" lon="6.03309">
        <ele>0.626713</ele>
        <time>2020-07-16T15:38:17.045Z</time>
      </trkpt>
      <trkpt lat="62.37115" lon="6.0352">
        <ele>0.036525</ele>
        <time>2020-07-16T15:38:32.108Z</time>
      </trkpt>
      <trkpt lat="62.37205" lon="6.04021">
        <time>2020-07-16T15:39:06.884Z</time>
      </trkpt>
      <trkpt lat="62.3849" lon="6.12459">
        <time>2020-07-16T15:48:41.277Z</time>
      </trkpt>
      <trkpt lat="62.39433" lon="6.15945">
        <ele>0.035688</ele>
        <time>2020-07-16T15:53:02.130Z</time>
      </trkpt>
      <trkpt lat="62.3947" lon="6.16118">
        <ele>0.322859</ele>
        <time>2020-07-16T15:53:14.479Z</time>
      </trkpt>
      <trkpt lat="62.39492" lon="6.16324">
        <ele>0.709986</ele>
        <time>2020-07-16T15:53:28.156Z</time>
      </trkpt>
      <trkpt lat="62.39499" lon="6.16425">
        <ele>1.452634</ele>
        <time>2020-07-16T15:53:34.702Z</time>
      </trkpt>
      <trkpt lat="62.39501" lon="6.1645">
        <ele>1.678464</ele>
        <time>2020-07-16T15:53:37.233Z</time>
      </trkpt>
      <trkpt lat="62.39503" lon="6.16488">
        <ele>2.013252</ele>
        <time>2020-07-16T15:53:41.137Z</time>
      </trkpt>
      <trkpt lat="62.39506" lon="6.1652">
        <ele>2.305055</ele>
        <time>2020-07-16T15:53:44.499Z</time>
      </trkpt>
      <trkpt lat="62.39509" lon="6.16538">
        <ele>2.470299</ele>
        <time>2020-07-16T15:53:46.881Z</time>
      </trkpt>
      <trkpt lat="62.39531" lon="6.1666">
        <ele>3.627357</ele>
        <time>2020-07-16T15:54:02.375Z</time>
      </trkpt>
      <trkpt lat="62.39545" lon="6.16738">
        <ele>4.560708</ele>
        <time>2020-07-16T15:54:12.945Z</time>
      </trkpt>
      <trkpt lat="62.39556" lon="6.16798">
        <ele>5.704195</ele>
        <time>2020-07-16T15:54:21.170Z</time>
      </trkpt>
      <trkpt lat="62.39564" lon="6.16833">
        <ele>6.402203</ele>
        <time>2020-07-16T15:54:26.474Z</time>
      </trkpt>
      <trkpt lat="62.39566" lon="6.16877">
        <ele>7.194394</ele>
        <time>2020-07-16T15:54:32.108Z</time>
      </trkpt>
      <trkpt lat="62.39579" lon="6.17314">
        <ele>15.944194</ele>
        <time>2020-07-16T15:55:37.588Z</time>
      </trkpt>
      <trkpt lat="62.3958" lon="6.17327">
        <ele>16.245444</ele>
        <time>2020-07-16T15:55:40.318Z</time>
      </trkpt>
      <trkpt lat="62.39583" lon="6.17468">
        <ele>19.350773</ele>
        <time>2020-07-16T15:56:02.685Z</time>
      </trkpt>
      <trkpt lat="62.39584" lon="6.17675">
        <ele>22.113011</ele>
        <time>2020-07-16T15:56:33.658Z</time>
      </trkpt>
      <trkpt lat="62.39584" lon="6.17796">
        <ele>23.632984</ele>
        <time>2020-07-16T15:56:47.050Z</time>
      </trkpt>
      <trkpt lat="62.39584" lon="6.17799">
        <ele>23.673348</ele>
        <time>2020-07-16T15:56:47.691Z</time>
      </trkpt>
      <trkpt lat="62.39584" lon="6.17886">
        <ele>24.463256</ele>
        <time>2020-07-16T15:56:55.283Z</time>
      </trkpt>
      <trkpt lat="62.39588" lon="6.18065">
        <ele>22.9828</ele>
        <time>2020-07-16T15:57:07.623Z</time>
      </trkpt>
      <trkpt lat="62.39634" lon="6.18705">
        <ele>15.755366</ele>
        <time>2020-07-16T15:57:47.756Z</time>
      </trkpt>
      <trkpt lat="62.39642" lon="6.18906">
        <ele>13.721447</ele>
        <time>2020-07-16T15:58:00.858Z</time>
      </trkpt>
      <trkpt lat="62.39636" lon="6.19168">
        <ele>11.547782</ele>
        <time>2020-07-16T15:58:18.297Z</time>
      </trkpt>
      <trkpt lat="62.39609" lon="6.1952">
        <ele>9.605836</ele>
        <time>2020-07-16T15:58:43.160Z</time>
      </trkpt>
      <trkpt lat="62.39609" lon="6.19619">
        <ele>9.365527</ele>
        <time>2020-07-16T15:58:50.646Z</time>
      </trkpt>
      <trkpt lat="62.39619" lon="6.19721">
        <ele>9.112776</ele>
        <time>2020-07-16T15:58:58.920Z</time>
      </trkpt>
      <trkpt lat="62.39705" lon="6.20366">
        <ele>9.842842</ele>
        <time>2020-07-16T15:59:57.126Z</time>
      </trkpt>
      <trkpt lat="62.39735" lon="6.20692">
        <ele>11.505241</ele>
        <time>2020-07-16T16:00:28.385Z</time>
      </trkpt>
      <trkpt lat="62.39794" lon="6.21045">
        <ele>14.452886</ele>
        <time>2020-07-16T16:01:12.790Z</time>
      </trkpt>
      <trkpt lat="62.39839" lon="6.21492">
        <ele>15.342261</ele>
        <time>2020-07-16T16:01:58.561Z</time>
      </trkpt>
      <trkpt lat="62.39839" lon="6.21518">
        <ele>15.222087</ele>
        <time>2020-07-16T16:02:00.852Z</time>
      </trkpt>
      <trkpt lat="62.3984" lon="6.21563">
        <ele>15.013251</ele>
        <time>2020-07-16T16:02:03.436Z</time>
      </trkpt>
      <trkpt lat="62.39839" lon="6.21654">
        <ele>14.590969</ele>
        <time>2020-07-16T16:02:08.966Z</time>
      </trkpt>
      <trkpt lat="62.39846" lon="6.21727">
        <ele>13.418484</ele>
        <time>2020-07-16T16:02:13.213Z</time>
      </trkpt>
      <trkpt lat="62.39879" lon="6.21888">
        <ele>10.00292</ele>
        <time>2020-07-16T16:02:23.046Z</time>
      </trkpt>
      <trkpt lat="62.39933" lon="6.22202">
        <ele>5.391744</ele>
        <time>2020-07-16T16:02:43.350Z</time>
      </trkpt>
      <trkpt lat="62.39964" lon="6.22342">
        <ele>3.996553</ele>
        <time>2020-07-16T16:02:53.824Z</time>
      </trkpt>
      <trkpt lat="62.4003" lon="6.22625">
        <ele>4.803595</ele>
        <time>2020-07-16T16:03:22.791Z</time>
      </trkpt>
      <trkpt lat="62.40064" lon="6.22774">
        <ele>5.859923</ele>
        <time>2020-07-16T16:03:42.013Z</time>
      </trkpt>
      <trkpt lat="62.40117" lon="6.23024">
        <ele>8.880882</ele>
        <time>2020-07-16T16:04:16.085Z</time>
      </trkpt>
      <trkpt lat="62.40155" lon="6.2326">
        <ele>10.914991</ele>
        <time>2020-07-16T16:04:42.213Z</time>
      </trkpt>
      <trkpt lat="62.40161" lon="6.23312">
        <ele>11.291879</ele>
        <time>2020-07-16T16:04:47.438Z</time>
      </trkpt>
      <trkpt lat="62.40177" lon="6.23453">
        <ele>12.312818</ele>
        <time>2020-07-16T16:05:01.308Z</time>
      </trkpt>
      <trkpt lat="62.40194" lon="6.23565">
        <ele>14.348179</ele>
        <time>2020-07-16T16:05:16.339Z</time>
      </trkpt>
      <trkpt lat="62.40226" lon="6.23689">
        <ele>16.948066</ele>
        <time>2020-07-16T16:05:35.543Z</time>
      </trkpt>
      <trkpt lat="62.40242" lon="6.23737">
        <ele>18.03943</ele>
        <time>2020-07-16T16:05:44.085Z</time>
      </trkpt>
      <trkpt lat="62.4025" lon="6.23758">
        <ele>18.529165</ele>
        <time>2020-07-16T16:05:49.002Z</time>
      </trkpt>
      <trkpt lat="62.40378" lon="6.24047">
        <ele>29.384577</ele>
        <time>2020-07-16T16:07:00.379Z</time>
      </trkpt>
      <trkpt lat="62.40422" lon="6.24174">
        <ele>33.38696</ele>
        <time>2020-07-16T16:07:25.860Z</time>
      </trkpt>
      <trkpt lat="62.4044" lon="6.24233">
        <ele>35.067248</ele>
        <time>2020-07-16T16:07:37.787Z</time>
      </trkpt>
      <trkpt lat="62.40455" lon="6.24285">
        <ele>36.55015</ele>
        <time>2020-07-16T16:07:48.137Z</time>
      </trkpt>
      <trkpt lat="62.40448" lon="6.24294">
        <ele>36.959269</ele>
        <time>2020-07-16T16:07:50.212Z</time>
      </trkpt>
      <trkpt lat="62.40447" lon="6.24298">
        <ele>37.085797</ele>
        <time>2020-07-16T16:07:50.570Z</time>
      </trkpt>
      <trkpt lat="62.40445" lon="6.24309">
        <ele>37.341384</ele>
        <time>2020-07-16T16:07:52.458Z</time>
      </trkpt>
      <trkpt lat="62.40457" lon="6.2441">
        <ele>39.829286</ele>
        <time>2020-07-16T16:08:09.332Z</time>
      </trkpt>
      <trkpt lat="62.40466" lon="6.24472">
        <ele>41.140741</ele>
        <time>2020-07-16T16:08:18.710Z</time>
      </trkpt>
      <trkpt lat="62.40467" lon="6.24486">
        <ele>41.425996</ele>
        <time>2020-07-16T16:08:21.608Z</time>
      </trkpt>
      <trkpt lat="62.40479" lon="6.24589">
        <ele>43.5423</ele>
        <time>2020-07-16T16:08:36.279Z</time>
      </trkpt>
      <trkpt lat="62.40496" lon="6.2467">
        <ele>45.292133</ele>
        <time>2020-07-16T16:08:49.023Z</time>
      </trkpt>
      <trkpt lat="62.40523" lon="6.24751">
        <ele>47.306705</ele>
        <time>2020-07-16T16:09:04.657Z</time>
      </trkpt>
      <trkpt lat="62.40567" lon="6.24839">
        <ele>49.877014</ele>
        <time>2020-07-16T16:09:25.026Z</time>
      </trkpt>
      <trkpt lat="62.4059" lon="6.24876">
        <ele>51.119799</ele>
        <time>2020-07-16T16:09:34.451Z</time>
      </trkpt>
      <trkpt lat="62.40601" lon="6.24893">
        <ele>51.691121</ele>
        <time>2020-07-16T16:09:38.762Z</time>
      </trkpt>
      <trkpt lat="62.40622" lon="6.24929">
        <ele>52.828001</ele>
        <time>2020-07-16T16:09:46.960Z</time>
      </trkpt>
      <trkpt lat="62.40637" lon="6.24958">
        <ele>53.704852</ele>
        <time>2020-07-16T16:09:53.642Z</time>
      </trkpt>
      <trkpt lat="62.40656" lon="6.24992">
        <ele>54.773253</ele>
        <time>2020-07-16T16:10:01.646Z</time>
      </trkpt>
      <trkpt lat="62.40741" lon="6.25093">
        <ele>58.167281</ele>
        <time>2020-07-16T16:10:31.518Z</time>
      </trkpt>
      <trkpt lat="62.4075" lon="6.25109">
        <ele>58.546768</ele>
        <time>2020-07-16T16:10:34.915Z</time>
      </trkpt>
      <trkpt lat="62.40753" lon="6.25114">
        <ele>58.683894</ele>
        <time>2020-07-16T16:10:36.633Z</time>
      </trkpt>
      <trkpt lat="62.40761" lon="6.2513">
        <ele>59.031723</ele>
        <time>2020-07-16T16:10:39.507Z</time>
      </trkpt>
      <trkpt lat="62.40775" lon="6.25167">
        <ele>59.787195</ele>
        <time>2020-07-16T16:10:45.585Z</time>
      </trkpt>
      <trkpt lat="62.40777" lon="6.25163">
        <ele>59.892305</ele>
        <time>2020-07-16T16:10:47.051Z</time>
      </trkpt>
      <trkpt lat="62.40803" lon="6.25115">
        <ele>61.026506</ele>
        <time>2020-07-16T16:10:55.698Z</time>
      </trkpt>
      <trkpt lat="62.40808" lon="6.2511">
        <ele>61.204424</ele>
        <time>2020-07-16T16:10:57.797Z</time>
      </trkpt>
      <trkpt lat="62.40819" lon="6.25124">
        <ele>61.486786</ele>
        <time>2020-07-16T16:11:00.647Z</time>
      </trkpt>
      <trkpt lat="62.4083" lon="6.25136">
        <ele>61.641493</ele>
        <time>2020-07-16T16:11:03.802Z</time>
      </trkpt>
      <trkpt lat="62.40832" lon="6.25135">
        <ele>61.659121</ele>
        <time>2020-07-16T16:11:04.121Z</time>
      </trkpt>
      <trkpt lat="62.40834" lon="6.25133">
        <ele>61.688913</ele>
        <time>2020-07-16T16:11:04.788Z</time>
      </trkpt>
      <trkpt lat="62.40836" lon="6.25129">
        <ele>61.722952</ele>
        <time>2020-07-16T16:11:05.967Z</time>
      </trkpt>
      <trkpt lat="62.40855" lon="6.25159">
        <ele>62.012031</ele>
        <time>2020-07-16T16:11:11.378Z</time>
      </trkpt>
      <trkpt lat="62.40951" lon="6.25295">
        <ele>63.437496</ele>
        <time>2020-07-16T16:11:36.555Z</time>
      </trkpt>
      <trkpt lat="62.41172" lon="6.25567">
        <ele>61.87913</ele>
        <time>2020-07-16T16:12:16.579Z</time>
      </trkpt>
      <trkpt lat="62.41221" lon="6.25648">
        <ele>61.328365</ele>
        <time>2020-07-16T16:12:25.960Z</time>
      </trkpt>
      <trkpt lat="62.41293" lon="6.25785">
        <ele>60.618896</ele>
        <time>2020-07-16T16:12:41.391Z</time>
      </trkpt>
      <trkpt lat="62.41332" lon="6.25845">
        <ele>60.377525</ele>
        <time>2020-07-16T16:12:49.472Z</time>
      </trkpt>
      <trkpt lat="62.41403" lon="6.25919">
        <ele>59.97797</ele>
        <time>2020-07-16T16:13:03.603Z</time>
      </trkpt>
      <trkpt lat="62.41549" lon="6.26032">
        <ele>57.119121</ele>
        <time>2020-07-16T16:13:26.718Z</time>
      </trkpt>
      <trkpt lat="62.41613" lon="6.26112">
        <ele>55.192487</ele>
        <time>2020-07-16T16:13:35.923Z</time>
      </trkpt>
      <trkpt lat="62.41623" lon="6.26128">
        <ele>54.789157</ele>
        <time>2020-07-16T16:13:37.381Z</time>
      </trkpt>
      <trkpt lat="62.41633" lon="6.26146">
        <ele>54.330554</ele>
        <time>2020-07-16T16:13:39.099Z</time>
      </trkpt>
      <trkpt lat="62.41651" lon="6.2618">
        <ele>53.557743</ele>
        <time>2020-07-16T16:13:42.038Z</time>
      </trkpt>
      <trkpt lat="62.41654" lon="6.26188">
        <ele>53.385536</ele>
        <time>2020-07-16T16:13:42.664Z</time>
      </trkpt>
      <trkpt lat="62.4166" lon="6.26202">
        <ele>53.087602</ele>
        <time>2020-07-16T16:13:43.810Z</time>
      </trkpt>
      <trkpt lat="62.41674" lon="6.26235">
        <ele>52.401187</ele>
        <time>2020-07-16T16:13:46.429Z</time>
      </trkpt>
      <trkpt lat="62.41693" lon="6.26285">
        <ele>51.40032</ele>
        <time>2020-07-16T16:13:50.341Z</time>
      </trkpt>
      <trkpt lat="62.41705" lon="6.26323">
        <ele>50.695386</ele>
        <time>2020-07-16T16:13:53.085Z</time>
      </trkpt>
      <trkpt lat="62.41716" lon="6.26307">
        <ele>50.314703</ele>
        <time>2020-07-16T16:13:55.134Z</time>
      </trkpt>
      <trkpt lat="62.41725" lon="6.26295">
        <ele>50.374806</ele>
        <time>2020-07-16T16:13:56.653Z</time>
      </trkpt>
      <trkpt lat="62.41729" lon="6.26306">
        <ele>50.414032</ele>
        <time>2020-07-16T16:13:57.623Z</time>
      </trkpt>
      <trkpt lat="62.41781" lon="6.26448">
        <ele>50.924521</ele>
        <time>2020-07-16T16:14:14.539Z</time>
      </trkpt>
      <trkpt lat="62.41784" lon="6.26458">
        <ele>50.958509</ele>
        <time>2020-07-16T16:14:16.309Z</time>
      </trkpt>
      <trkpt lat="62.41793" lon="6.26486">
        <ele>51.05698</ele>
        <time>2020-07-16T16:14:20.576Z</time>
      </trkpt>
      <trkpt lat="62.41807" lon="6.26525">
        <ele>51.196215</ele>
        <time>2020-07-16T16:14:26.542Z</time>
      </trkpt>
      <trkpt lat="62.41814" lon="6.26545">
        <ele>51.266411</ele>
        <time>2020-07-16T16:14:29.720Z</time>
      </trkpt>
      <trkpt lat="62.41826" lon="6.26601">
        <ele>51.319906</ele>
        <time>2020-07-16T16:14:36.671Z</time>
      </trkpt>
      <trkpt lat="62.41861" lon="6.26691">
        <ele>50.666796</ele>
        <time>2020-07-16T16:14:48.148Z</time>
      </trkpt>
      <trkpt lat="62.41868" lon="6.2671">
        <ele>50.528834</ele>
        <time>2020-07-16T16:14:51.070Z</time>
      </trkpt>
      <trkpt lat="62.41881" lon="6.26748">
        <ele>50.265911</ele>
        <time>2020-07-16T16:14:54.485Z</time>
      </trkpt>
      <trkpt lat="62.41896" lon="6.26789">
        <ele>49.975921</ele>
        <time>2020-07-16T16:14:58.021Z</time>
      </trkpt>
      <trkpt lat="62.41942" lon="6.26828">
        <ele>49.376182</ele>
        <time>2020-07-16T16:15:04.828Z</time>
      </trkpt>
      <trkpt lat="62.41982" lon="6.2688">
        <ele>47.772664</ele>
        <time>2020-07-16T16:15:10.904Z</time>
      </trkpt>
      <trkpt lat="62.42017" lon="6.26924">
        <ele>46.108354</ele>
        <time>2020-07-16T16:15:15.864Z</time>
      </trkpt>
      <trkpt lat="62.42022" lon="6.26935">
        <ele>45.799044</ele>
        <time>2020-07-16T16:15:16.760Z</time>
      </trkpt>
      <trkpt lat="62.42056" lon="6.27019">
        <ele>43.635931</ele>
        <time>2020-07-16T16:15:23.554Z</time>
      </trkpt>
      <trkpt lat="62.4206" lon="6.2703">
        <ele>43.381806</ele>
        <time>2020-07-16T16:15:24.347Z</time>
      </trkpt>
      <trkpt lat="62.42062" lon="6.27037">
        <ele>43.214677</ele>
        <time>2020-07-16T16:15:24.924Z</time>
      </trkpt>
      <trkpt lat="62.42062" lon="6.2704">
        <ele>43.150457</ele>
        <time>2020-07-16T16:15:25.133Z</time>
      </trkpt>
      <trkpt lat="62.42062" lon="6.27045">
        <ele>43.059297</ele>
        <time>2020-07-16T16:15:25.419Z</time>
      </trkpt>
      <trkpt lat="62.42067" lon="6.27047">
        <ele>42.838257</ele>
        <time>2020-07-16T16:15:26.082Z</time>
      </trkpt>
      <trkpt lat="62.42066" lon="6.27053">
        <ele>42.711525</ele>
        <time>2020-07-16T16:15:26.625Z</time>
      </trkpt>
      <trkpt lat="62.42065" lon="6.27059">
        <ele>42.591639</ele>
        <time>2020-07-16T16:15:27.159Z</time>
      </trkpt>
      <trkpt lat="62.4207" lon="6.27078">
        <ele>42.165163</ele>
        <time>2020-07-16T16:15:28.582Z</time>
      </trkpt>
      <trkpt lat="62.42076" lon="6.27129">
        <ele>41.367978</ele>
        <time>2020-07-16T16:15:31.843Z</time>
      </trkpt>
      <trkpt lat="62.42094" lon="6.27187">
        <ele>40.545038</ele>
        <time>2020-07-16T16:15:36.403Z</time>
      </trkpt>
      <trkpt lat="62.42099" lon="6.27203">
        <ele>40.321584</ele>
        <time>2020-07-16T16:15:37.745Z</time>
      </trkpt>
      <trkpt lat="62.42093" lon="6.27218">
        <ele>40.080029</ele>
        <time>2020-07-16T16:15:39.168Z</time>
      </trkpt>
      <trkpt lat="62.42092" lon="6.27221">
        <ele>40.034162</ele>
        <time>2020-07-16T16:15:39.436Z</time>
      </trkpt>
      <trkpt lat="62.42088" lon="6.27229">
        <ele>39.900041</ele>
        <time>2020-07-16T16:15:40.268Z</time>
      </trkpt>
      <trkpt lat="62.42084" lon="6.27241">
        <ele>39.719761</ele>
        <time>2020-07-16T16:15:41.461Z</time>
      </trkpt>
      <trkpt lat="62.42079" lon="6.27255">
        <ele>39.518683</ele>
        <time>2020-07-16T16:15:42.645Z</time>
      </trkpt>
      <trkpt lat="62.42074" lon="6.27266">
        <ele>39.341297</ele>
        <time>2020-07-16T16:15:43.585Z</time>
      </trkpt>
      <trkpt lat="62.42073" lon="6.27275">
        <ele>39.226274</ele>
        <time>2020-07-16T16:15:44.188Z</time>
      </trkpt>
      <trkpt lat="62.42072" lon="6.2729">
        <ele>39.052456</ele>
        <time>2020-07-16T16:15:45.072Z</time>
      </trkpt>
      <trkpt lat="62.42074" lon="6.27332">
        <ele>38.546689</ele>
        <time>2020-07-16T16:15:47.888Z</time>
      </trkpt>
      <trkpt lat="62.42086" lon="6.27397">
        <ele>37.732331</ele>
        <time>2020-07-16T16:15:52.482Z</time>
      </trkpt>
      <trkpt lat="62.42111" lon="6.27457">
        <ele>36.805097</ele>
        <time>2020-07-16T16:15:57.430Z</time>
      </trkpt>
      <trkpt lat="62.42132" lon="6.27497">
        <ele>36.132964</ele>
        <time>2020-07-16T16:16:01.139Z</time>
      </trkpt>
      <trkpt lat="62.42159" lon="6.27545">
        <ele>35.312339</ele>
        <time>2020-07-16T16:16:05.647Z</time>
      </trkpt>
      <trkpt lat="62.42196" lon="6.27609">
        <ele>34.202109</ele>
        <time>2020-07-16T16:16:11.836Z</time>
      </trkpt>
      <trkpt lat="62.422" lon="6.27621">
        <ele>34.028242</ele>
        <time>2020-07-16T16:16:12.684Z</time>
      </trkpt>
      <trkpt lat="62.4221" lon="6.27655">
        <ele>33.584931</ele>
        <time>2020-07-16T16:16:15.341Z</time>
      </trkpt>
      <trkpt lat="62.42221" lon="6.27708">
        <ele>32.952199</ele>
        <time>2020-07-16T16:16:19.081Z</time>
      </trkpt>
      <trkpt lat="62.42226" lon="6.27748">
        <ele>33.820914</ele>
        <time>2020-07-16T16:16:22.291Z</time>
      </trkpt>
      <trkpt lat="62.42236" lon="6.27869">
        <ele>37.248666</ele>
        <time>2020-07-16T16:16:37.463Z</time>
      </trkpt>
      <trkpt lat="62.42237" lon="6.27879">
        <ele>37.544465</ele>
        <time>2020-07-16T16:16:39.642Z</time>
      </trkpt>
      <trkpt lat="62.42238" lon="6.27889">
        <ele>37.806289</ele>
        <time>2020-07-16T16:16:41.647Z</time>
      </trkpt>
      <trkpt lat="62.4224" lon="6.27918">
        <ele>38.642215</ele>
        <time>2020-07-16T16:16:44.638Z</time>
      </trkpt>
      <trkpt lat="62.42243" lon="6.27957">
        <ele>39.745615</ele>
        <time>2020-07-16T16:16:52.468Z</time>
      </trkpt>
      <trkpt lat="62.42246" lon="6.27983">
        <ele>40.483331</ele>
        <time>2020-07-16T16:16:57.407Z</time>
      </trkpt>
      <trkpt lat="62.42251" lon="6.28075">
        <ele>43.060106</ele>
        <time>2020-07-16T16:17:19.458Z</time>
      </trkpt>
      <trkpt lat="62.42251" lon="6.28085">
        <ele>43.350095</ele>
        <time>2020-07-16T16:17:23.148Z</time>
      </trkpt>
      <trkpt lat="62.42251" lon="6.28119">
        <ele>45.028361</ele>
        <time>2020-07-16T16:17:34.819Z</time>
      </trkpt>
      <trkpt lat="62.42245" lon="6.28235">
        <ele>52.150921</ele>
        <time>2020-07-16T16:18:08.107Z</time>
      </trkpt>
      <trkpt lat="62.42237" lon="6.28302">
        <ele>56.423009</ele>
        <time>2020-07-16T16:18:29.550Z</time>
      </trkpt>
      <trkpt lat="62.42231" lon="6.2833">
        <ele>58.286024</ele>
        <time>2020-07-16T16:18:41.108Z</time>
      </trkpt>
      <trkpt lat="62.42215" lon="6.28412">
        <ele>63.773012</ele>
        <time>2020-07-16T16:19:07.082Z</time>
      </trkpt>
      <trkpt lat="62.42207" lon="6.28452">
        <ele>66.430434</ele>
        <time>2020-07-16T16:19:16.112Z</time>
      </trkpt>
      <trkpt lat="62.42192" lon="6.28527">
        <ele>68.663987</ele>
        <time>2020-07-16T16:19:34.036Z</time>
      </trkpt>
      <trkpt lat="62.42187" lon="6.28561">
        <ele>69.302768</ele>
        <time>2020-07-16T16:19:42.754Z</time>
      </trkpt>
      <trkpt lat="62.42183" lon="6.28581">
        <ele>69.692976</ele>
        <time>2020-07-16T16:19:46.121Z</time>
      </trkpt>
      <trkpt lat="62.42179" lon="6.28615">
        <ele>70.308972</ele>
        <time>2020-07-16T16:19:53.713Z</time>
      </trkpt>
      <trkpt lat="62.42178" lon="6.28624">
        <ele>70.475312</ele>
        <time>2020-07-16T16:19:55.775Z</time>
      </trkpt>
      <trkpt lat="62.42177" lon="6.28634">
        <ele>70.657258</ele>
        <time>2020-07-16T16:19:57.714Z</time>
      </trkpt>
      <trkpt lat="62.42178" lon="6.28646">
        <ele>70.863028</ele>
        <time>2020-07-16T16:19:59.413Z</time>
      </trkpt>
      <trkpt lat="62.42179" lon="6.28656">
        <ele>71.054622</ele>
        <time>2020-07-16T16:20:00.857Z</time>
      </trkpt>
      <trkpt lat="62.4218" lon="6.28663">
        <ele>71.178032</ele>
        <time>2020-07-16T16:20:01.358Z</time>
      </trkpt>
      <trkpt lat="62.42175" lon="6.29037">
        <ele>71.287112</ele>
        <time>2020-07-16T16:20:26.969Z</time>
      </trkpt>
      <trkpt lat="62.42185" lon="6.29233">
        <ele>68.044629</ele>
        <time>2020-07-16T16:20:38.134Z</time>
      </trkpt>
      <trkpt lat="62.42207" lon="6.29423">
        <ele>61.034517</ele>
        <time>2020-07-16T16:20:48.366Z</time>
      </trkpt>
      <trkpt lat="62.4223" lon="6.29516">
        <ele>57.289274</ele>
        <time>2020-07-16T16:20:53.821Z</time>
      </trkpt>
      <trkpt lat="62.42254" lon="6.29579">
        <ele>54.346702</ele>
        <time>2020-07-16T16:20:58.053Z</time>
      </trkpt>
      <trkpt lat="62.42257" lon="6.29585">
        <ele>54.071618</ele>
        <time>2020-07-16T16:20:58.424Z</time>
      </trkpt>
      <trkpt lat="62.42266" lon="6.29604">
        <ele>53.202434</ele>
        <time>2020-07-16T16:20:59.880Z</time>
      </trkpt>
      <trkpt lat="62.4233" lon="6.29728">
        <ele>47.35018</ele>
        <time>2020-07-16T16:21:09.954Z</time>
      </trkpt>
      <trkpt lat="62.42335" lon="6.29739">
        <ele>46.868536</ele>
        <time>2020-07-16T16:21:10.713Z</time>
      </trkpt>
      <trkpt lat="62.42343" lon="6.29762">
        <ele>45.953267</ele>
        <time>2020-07-16T16:21:12.221Z</time>
      </trkpt>
      <trkpt lat="62.42344" lon="6.29766">
        <ele>45.808135</ele>
        <time>2020-07-16T16:21:12.480Z</time>
      </trkpt>
      <trkpt lat="62.42352" lon="6.29791">
        <ele>44.850506</ele>
        <time>2020-07-16T16:21:14.381Z</time>
      </trkpt>
      <trkpt lat="62.42361" lon="6.29823">
        <ele>43.664694</ele>
        <time>2020-07-16T16:21:16.265Z</time>
      </trkpt>
      <trkpt lat="62.42393" lon="6.29933">
        <ele>39.881519</ele>
        <time>2020-07-16T16:21:23.570Z</time>
      </trkpt>
      <trkpt lat="62.4243" lon="6.3006">
        <ele>35.810109</ele>
        <time>2020-07-16T16:21:32.097Z</time>
      </trkpt>
      <trkpt lat="62.42451" lon="6.30135">
        <ele>33.409655</ele>
        <time>2020-07-16T16:21:36.869Z</time>
      </trkpt>
      <trkpt lat="62.42472" lon="6.30216">
        <ele>30.900791</ele>
        <time>2020-07-16T16:21:41.724Z</time>
      </trkpt>
      <trkpt lat="62.42491" lon="6.30319">
        <ele>27.956083</ele>
        <time>2020-07-16T16:21:47.603Z</time>
      </trkpt>
      <trkpt lat="62.42507" lon="6.30336">
        <ele>26.934825</ele>
        <time>2020-07-16T16:21:49.680Z</time>
      </trkpt>
      <trkpt lat="62.4251" lon="6.30338">
        <ele>26.719629</ele>
        <time>2020-07-16T16:21:50.066Z</time>
      </trkpt>
      <trkpt lat="62.42512" lon="6.30341">
        <ele>26.609301</ele>
        <time>2020-07-16T16:21:50.270Z</time>
      </trkpt>
      <trkpt lat="62.42521" lon="6.30363">
        <ele>25.831082</ele>
        <time>2020-07-16T16:21:52.049Z</time>
      </trkpt>
      <trkpt lat="62.42525" lon="6.30398">
        <ele>24.852235</ele>
        <time>2020-07-16T16:21:54.098Z</time>
      </trkpt>
      <trkpt lat="62.42527" lon="6.30403">
        <ele>24.688364</ele>
        <time>2020-07-16T16:21:54.387Z</time>
      </trkpt>
      <trkpt lat="62.42527" lon="6.30413">
        <ele>24.40928</ele>
        <time>2020-07-16T16:21:54.950Z</time>
      </trkpt>
      <trkpt lat="62.42529" lon="6.30422">
        <ele>24.16506</ele>
        <time>2020-07-16T16:21:55.648Z</time>
      </trkpt>
      <trkpt lat="62.42524" lon="6.30458">
        <ele>23.160846</ele>
        <time>2020-07-16T16:21:58.019Z</time>
      </trkpt>
      <trkpt lat="62.42526" lon="6.30507">
        <ele>21.856124</ele>
        <time>2020-07-16T16:22:00.778Z</time>
      </trkpt>
      <trkpt lat="62.42527" lon="6.30512">
        <ele>21.709662</ele>
        <time>2020-07-16T16:22:01.444Z</time>
      </trkpt>
      <trkpt lat="62.42531" lon="6.30545">
        <ele>20.96372</ele>
        <time>2020-07-16T16:22:03.654Z</time>
      </trkpt>
      <trkpt lat="62.42533" lon="6.30552">
        <ele>20.948778</ele>
        <time>2020-07-16T16:22:04.021Z</time>
      </trkpt>
      <trkpt lat="62.42544" lon="6.30591">
        <ele>20.857973</ele>
        <time>2020-07-16T16:22:07.399Z</time>
      </trkpt>
      <trkpt lat="62.42547" lon="6.30604">
        <ele>20.830507</ele>
        <time>2020-07-16T16:22:08.263Z</time>
      </trkpt>
      <trkpt lat="62.42556" lon="6.30641">
        <ele>20.749571</ele>
        <time>2020-07-16T16:22:10.686Z</time>
      </trkpt>
      <trkpt lat="62.42574" lon="6.30689">
        <ele>20.629753</ele>
        <time>2020-07-16T16:22:15.338Z</time>
      </trkpt>
      <trkpt lat="62.42584" lon="6.30698">
        <ele>20.582933</ele>
        <time>2020-07-16T16:22:17.989Z</time>
      </trkpt>
      <trkpt lat="62.42586" lon="6.30705">
        <ele>20.566298</ele>
        <time>2020-07-16T16:22:19.128Z</time>
      </trkpt>
      <trkpt lat="62.42588" lon="6.30709">
        <ele>20.556025</ele>
        <time>2020-07-16T16:22:19.585Z</time>
      </trkpt>
      <trkpt lat="62.42587" lon="6.30721">
        <ele>20.533727</ele>
        <time>2020-07-16T16:22:20.354Z</time>
      </trkpt>
      <trkpt lat="62.42594" lon="6.30741">
        <ele>20.48271</ele>
        <time>2020-07-16T16:22:22.410Z</time>
      </trkpt>
      <trkpt lat="62.42611" lon="6.30783">
        <ele>20.375702</ele>
        <time>2020-07-16T16:22:27.590Z</time>
      </trkpt>
      <trkpt lat="62.42674" lon="6.30971">
        <ele>21.358008</ele>
        <time>2020-07-16T16:22:54.289Z</time>
      </trkpt>
      <trkpt lat="62.42707" lon="6.31093">
        <ele>22.425379</ele>
        <time>2020-07-16T16:23:09.618Z</time>
      </trkpt>
      <trkpt lat="62.4271" lon="6.31102">
        <ele>22.504473</ele>
        <time>2020-07-16T16:23:10.994Z</time>
      </trkpt>
      <trkpt lat="62.42714" lon="6.31119">
        <ele>22.64943</ele>
        <time>2020-07-16T16:23:13.040Z</time>
      </trkpt>
      <trkpt lat="62.42727" lon="6.31163">
        <ele>23.04591</ele>
        <time>2020-07-16T16:23:18.180Z</time>
      </trkpt>
      <trkpt lat="62.42737" lon="6.3121">
        <ele>23.268859</ele>
        <time>2020-07-16T16:23:23.241Z</time>
      </trkpt>
      <trkpt lat="62.42753" lon="6.31313">
        <ele>23.625533</ele>
        <time>2020-07-16T16:23:33.690Z</time>
      </trkpt>
      <trkpt lat="62.42759" lon="6.31357">
        <ele>23.776572</ele>
        <time>2020-07-16T16:23:38.010Z</time>
      </trkpt>
      <trkpt lat="62.42778" lon="6.31501">
        <ele>24.267632</ele>
        <time>2020-07-16T16:23:51.794Z</time>
      </trkpt>
      <trkpt lat="62.42781" lon="6.3152">
        <ele>24.332526</ele>
        <time>2020-07-16T16:23:53.331Z</time>
      </trkpt>
      <trkpt lat="62.42784" lon="6.31541">
        <ele>24.40402</ele>
        <time>2020-07-16T16:23:55.205Z</time>
      </trkpt>
      <trkpt lat="62.42785" lon="6.31554">
        <ele>24.532762</ele>
        <time>2020-07-16T16:23:56.312Z</time>
      </trkpt>
      <trkpt lat="62.42785" lon="6.31559">
        <ele>24.599737</ele>
        <time>2020-07-16T16:23:56.844Z</time>
      </trkpt>
      <trkpt lat="62.42787" lon="6.31596">
        <ele>25.080366</ele>
        <time>2020-07-16T16:24:00.589Z</time>
      </trkpt>
      <trkpt lat="62.42788" lon="6.31617">
        <ele>25.345555</ele>
        <time>2020-07-16T16:24:03.529Z</time>
      </trkpt>
      <trkpt lat="62.42788" lon="6.31697">
        <ele>26.35838</ele>
        <time>2020-07-16T16:24:12.746Z</time>
      </trkpt>
      <trkpt lat="62.42787" lon="6.31707">
        <ele>26.490547</ele>
        <time>2020-07-16T16:24:13.801Z</time>
      </trkpt>
      <trkpt lat="62.42789" lon="6.31716">
        <ele>26.600242</ele>
        <time>2020-07-16T16:24:14.774Z</time>
      </trkpt>
      <trkpt lat="62.42789" lon="6.31728">
        <ele>26.76071</ele>
        <time>2020-07-16T16:24:16.521Z</time>
      </trkpt>
      <trkpt lat="62.42789" lon="6.31739">
        <ele>26.895642</ele>
        <time>2020-07-16T16:24:17.514Z</time>
      </trkpt>
      <trkpt lat="62.42789" lon="6.31749">
        <ele>27.030322</ele>
        <time>2020-07-16T16:24:18.699Z</time>
      </trkpt>
      <trkpt lat="62.42789" lon="6.31794">
        <ele>27.599562</ele>
        <time>2020-07-16T16:24:24.701Z</time>
      </trkpt>
      <trkpt lat="62.42789" lon="6.31795">
        <ele>27.610998</ele>
        <time>2020-07-16T16:24:25.073Z</time>
      </trkpt>
      <trkpt lat="62.42781" lon="6.31848">
        <ele>28.322182</ele>
        <time>2020-07-16T16:24:32.565Z</time>
      </trkpt>
      <trkpt lat="62.42766" lon="6.31879">
        <ele>28.896607</ele>
        <time>2020-07-16T16:24:38.497Z</time>
      </trkpt>
      <trkpt lat="62.4276" lon="6.31891">
        <ele>29.112083</ele>
        <time>2020-07-16T16:24:41.021Z</time>
      </trkpt>
      <trkpt lat="62.42759" lon="6.31897">
        <ele>29.193547</ele>
        <time>2020-07-16T16:24:42.666Z</time>
      </trkpt>
      <trkpt lat="62.42751" lon="6.31963">
        <ele>30.775008</ele>
        <time>2020-07-16T16:24:52.242Z</time>
      </trkpt>
      <trkpt lat="62.42742" lon="6.32112">
        <ele>34.620238</ele>
        <time>2020-07-16T16:25:19.416Z</time>
      </trkpt>
      <trkpt lat="62.42742" lon="6.32233">
        <ele>37.724285</ele>
        <time>2020-07-16T16:25:41.062Z</time>
      </trkpt>
      <trkpt lat="62.42747" lon="6.32317">
        <ele>39.781985</ele>
        <time>2020-07-16T16:25:54.396Z</time>
      </trkpt>
      <trkpt lat="62.4275" lon="6.32343">
        <ele>40.331584</ele>
        <time>2020-07-16T16:25:59.201Z</time>
      </trkpt>
      <trkpt lat="62.42752" lon="6.32358">
        <ele>40.655375</ele>
        <time>2020-07-16T16:26:02.229Z</time>
      </trkpt>
      <trkpt lat="62.42765" lon="6.32439">
        <ele>42.411836</ele>
        <time>2020-07-16T16:26:15.050Z</time>
      </trkpt>
      <trkpt lat="62.42788" lon="6.32533">
        <ele>44.596009</ele>
        <time>2020-07-16T16:26:29.814Z</time>
      </trkpt>
      <trkpt lat="62.429" lon="6.32835">
        <ele>54.554313</ele>
        <time>2020-07-16T16:27:27.480Z</time>
      </trkpt>
      <trkpt lat="62.42938" lon="6.3302">
        <ele>59.904619</ele>
        <time>2020-07-16T16:28:14.840Z</time>
      </trkpt>
      <trkpt lat="62.42945" lon="6.33089">
        <ele>61.497804</ele>
        <time>2020-07-16T16:28:29.211Z</time>
      </trkpt>
      <trkpt lat="62.42945" lon="6.33147">
        <ele>62.831572</ele>
        <time>2020-07-16T16:28:39.559Z</time>
      </trkpt>
      <trkpt lat="62.42946" lon="6.3318">
        <ele>63.58564</ele>
        <time>2020-07-16T16:28:48.580Z</time>
      </trkpt>
      <trkpt lat="62.42926" lon="6.33406">
        <ele>63.116114</ele>
        <time>2020-07-16T16:29:12.180Z</time>
      </trkpt>
      <trkpt lat="62.42917" lon="6.33608">
        <ele>51.825774</ele>
        <time>2020-07-16T16:29:22.476Z</time>
      </trkpt>
      <trkpt lat="62.42917" lon="6.33669">
        <ele>48.433834</ele>
        <time>2020-07-16T16:29:25.508Z</time>
      </trkpt>
      <trkpt lat="62.42918" lon="6.33688">
        <ele>47.364767</ele>
        <time>2020-07-16T16:29:26.459Z</time>
      </trkpt>
      <trkpt lat="62.42926" lon="6.33774">
        <ele>41.558446</ele>
        <time>2020-07-16T16:29:30.808Z</time>
      </trkpt>
      <trkpt lat="62.42927" lon="6.33788">
        <ele>40.514095</ele>
        <time>2020-07-16T16:29:31.526Z</time>
      </trkpt>
      <trkpt lat="62.42931" lon="6.33811">
        <ele>38.765683</ele>
        <time>2020-07-16T16:29:32.720Z</time>
      </trkpt>
      <trkpt lat="62.42957" lon="6.34011">
        <ele>23.753487</ele>
        <time>2020-07-16T16:29:43.033Z</time>
      </trkpt>
      <trkpt lat="62.42965" lon="6.34073">
        <ele>19.060643</ele>
        <time>2020-07-16T16:29:46.530Z</time>
      </trkpt>
      <trkpt lat="62.42969" lon="6.34089">
        <ele>17.759918</ele>
        <time>2020-07-16T16:29:47.423Z</time>
      </trkpt>
      <trkpt lat="62.43024" lon="6.34394">
        <ele>10.818261</ele>
        <time>2020-07-16T16:30:07.443Z</time>
      </trkpt>
      <trkpt lat="62.43047" lon="6.34487">
        <ele>9.28044</ele>
        <time>2020-07-16T16:30:15.691Z</time>
      </trkpt>
      <trkpt lat="62.4306" lon="6.34535">
        <ele>9.027027</ele>
        <time>2020-07-16T16:30:19.880Z</time>
      </trkpt>
      <trkpt lat="62.4308" lon="6.34608">
        <ele>8.636479</ele>
        <time>2020-07-16T16:30:26.425Z</time>
      </trkpt>
      <trkpt lat="62.43083" lon="6.34621">
        <ele>8.567785</ele>
        <time>2020-07-16T16:30:27.583Z</time>
      </trkpt>
      <trkpt lat="62.43085" lon="6.34638">
        <ele>8.485118</ele>
        <time>2020-07-16T16:30:28.839Z</time>
      </trkpt>
      <trkpt lat="62.43095" lon="6.34799">
        <ele>7.737951</ele>
        <time>2020-07-16T16:30:41.333Z</time>
      </trkpt>
      <trkpt lat="62.43092" lon="6.34949">
        <ele>7.010617</ele>
        <time>2020-07-16T16:30:52.670Z</time>
      </trkpt>
      <trkpt lat="62.4309" lon="6.34966">
        <ele>6.927161</ele>
        <time>2020-07-16T16:30:53.958Z</time>
      </trkpt>
      <trkpt lat="62.43088" lon="6.35026">
        <ele>6.637104</ele>
        <time>2020-07-16T16:30:58.660Z</time>
      </trkpt>
      <trkpt lat="62.43087" lon="6.35077">
        <ele>6.387255</ele>
        <time>2020-07-16T16:31:02.591Z</time>
      </trkpt>
      <trkpt lat="62.43084" lon="6.35135">
        <ele>6.106954</ele>
        <time>2020-07-16T16:31:07.059Z</time>
      </trkpt>
      <trkpt lat="62.4309" lon="6.35134">
        <ele>6.041919</ele>
        <time>2020-07-16T16:31:07.916Z</time>
      </trkpt>
      <trkpt lat="62.43088" lon="6.35282">
        <ele>5.54202</ele>
        <time>2020-07-16T16:31:18.383Z</time>
      </trkpt>
      <trkpt lat="62.43086" lon="6.35427">
        <ele>5.17126</ele>
        <time>2020-07-16T16:31:29.030Z</time>
      </trkpt>
      <trkpt lat="62.43087" lon="6.35452">
        <ele>5.105794</ele>
        <time>2020-07-16T16:31:30.831Z</time>
      </trkpt>
      <trkpt lat="62.43086" lon="6.35456">
        <ele>5.093668</ele>
        <time>2020-07-16T16:31:31.110Z</time>
      </trkpt>
      <trkpt lat="62.4309" lon="6.35502">
        <ele>4.974612</ele>
        <time>2020-07-16T16:31:35.578Z</time>
      </trkpt>
      <trkpt lat="62.43106" lon="6.35534">
        <ele>4.850641</ele>
        <time>2020-07-16T16:31:39.599Z</time>
      </trkpt>
      <trkpt lat="62.43142" lon="6.35578">
        <ele>5.816618</ele>
        <time>2020-07-16T16:31:48.610Z</time>
      </trkpt>
      <trkpt lat="62.43343" lon="6.3572">
        <ele>13.29662</ele>
        <time>2020-07-16T16:32:56.511Z</time>
      </trkpt>
      <trkpt lat="62.43349" lon="6.35723">
        <ele>13.505708</ele>
        <time>2020-07-16T16:32:59.032Z</time>
      </trkpt>
      <trkpt lat="62.43428" lon="6.35777">
        <ele>16.704938</ele>
        <time>2020-07-16T16:33:24.321Z</time>
      </trkpt>
      <trkpt lat="62.43433" lon="6.35774">
        <ele>16.912024</ele>
        <time>2020-07-16T16:33:26.267Z</time>
      </trkpt>
      <trkpt lat="62.4344" lon="6.35772">
        <ele>17.160536</ele>
        <time>2020-07-16T16:33:27.799Z</time>
      </trkpt>
      <trkpt lat="62.4345" lon="6.35779">
        <ele>17.572476</ele>
        <time>2020-07-16T16:33:30.931Z</time>
      </trkpt>
      <trkpt lat="62.43477" lon="6.35795">
        <ele>18.229662</ele>
        <time>2020-07-16T16:33:38.175Z</time>
      </trkpt>
      <trkpt lat="62.43481" lon="6.35799">
        <ele>18.308794</ele>
        <time>2020-07-16T16:33:39.143Z</time>
      </trkpt>
      <trkpt lat="62.43534" lon="6.35831">
        <ele>19.349239</ele>
        <time>2020-07-16T16:33:52.020Z</time>
      </trkpt>
      <trkpt lat="62.43544" lon="6.35832">
        <ele>19.533492</ele>
        <time>2020-07-16T16:33:54.303Z</time>
      </trkpt>
      <trkpt lat="62.43546" lon="6.35834">
        <ele>19.578971</ele>
        <time>2020-07-16T16:33:54.766Z</time>
      </trkpt>
      <trkpt lat="62.43573" lon="6.35863">
        <ele>20.157125</ele>
        <time>2020-07-16T16:34:01.345Z</time>
      </trkpt>
      <trkpt lat="62.43597" lon="6.35879">
        <ele>20.624579</ele>
        <time>2020-07-16T16:34:05.987Z</time>
      </trkpt>
      <trkpt lat="62.43603" lon="6.35884">
        <ele>20.746846</ele>
        <time>2020-07-16T16:34:07.277Z</time>
      </trkpt>
      <trkpt lat="62.43743" lon="6.35984">
        <ele>24.537123</ele>
        <time>2020-07-16T16:34:45.059Z</time>
      </trkpt>
      <trkpt lat="62.43744" lon="6.35982">
        <ele>24.57765</ele>
        <time>2020-07-16T16:34:45.706Z</time>
      </trkpt>
      <trkpt lat="62.43759" lon="6.35957">
        <ele>25.085604</ele>
        <time>2020-07-16T16:34:51.354Z</time>
      </trkpt>
      <trkpt lat="62.4376" lon="6.35956">
        <ele>25.120186</ele>
        <time>2020-07-16T16:34:52.336Z</time>
      </trkpt>
      <trkpt lat="62.43815" lon="6.35978">
        <ele>26.261391</ele>
        <time>2020-07-16T16:35:07.980Z</time>
      </trkpt>
      <trkpt lat="62.43824" lon="6.35983">
        <ele>26.336481</ele>
        <time>2020-07-16T16:35:10.822Z</time>
      </trkpt>
      <trkpt lat="62.43824" lon="6.35985">
        <ele>26.343472</ele>
        <time>2020-07-16T16:35:11.634Z</time>
      </trkpt>
      <trkpt lat="62.43893" lon="6.36058">
        <ele>26.979604</ele>
        <time>2020-07-16T16:35:35.066Z</time>
      </trkpt>
      <trkpt lat="62.43931" lon="6.36113">
        <ele>27.361029</ele>
        <time>2020-07-16T16:35:44.751Z</time>
      </trkpt>
      <trkpt lat="62.43932" lon="6.36114">
        <ele>27.372043</ele>
        <time>2020-07-16T16:35:44.969Z</time>
      </trkpt>
      <trkpt lat="62.43951" lon="6.3614">
        <ele>27.551741</ele>
        <time>2020-07-16T16:35:49.347Z</time>
      </trkpt>
      <trkpt lat="62.4396" lon="6.36151">
        <ele>27.290467</ele>
        <time>2020-07-16T16:35:51.454Z</time>
      </trkpt>
      <trkpt lat="62.43968" lon="6.36159">
        <ele>26.941289</ele>
        <time>2020-07-16T16:35:52.751Z</time>
      </trkpt>
      <trkpt lat="62.43994" lon="6.36175">
        <ele>25.761907</ele>
        <time>2020-07-16T16:35:57.636Z</time>
      </trkpt>
      <trkpt lat="62.44037" lon="6.36193">
        <ele>23.845833</ele>
        <time>2020-07-16T16:36:05.026Z</time>
      </trkpt>
      <trkpt lat="62.44044" lon="6.36197">
        <ele>23.548389</ele>
        <time>2020-07-16T16:36:05.943Z</time>
      </trkpt>
      <trkpt lat="62.44052" lon="6.36201">
        <ele>23.17642</ele>
        <time>2020-07-16T16:36:06.951Z</time>
      </trkpt>
      <trkpt lat="62.44055" lon="6.36202">
        <ele>23.049745</ele>
        <time>2020-07-16T16:36:07.252Z</time>
      </trkpt>
      <trkpt lat="62.44186" lon="6.36247">
        <ele>18.914713</ele>
        <time>2020-07-16T16:36:23.613Z</time>
      </trkpt>
      <trkpt lat="62.44189" lon="6.36247">
        <ele>18.860218</ele>
        <time>2020-07-16T16:36:23.990Z</time>
      </trkpt>
      <trkpt lat="62.44189" lon="6.36252">
        <ele>18.826579</ele>
        <time>2020-07-16T16:36:24.461Z</time>
      </trkpt>
      <trkpt lat="62.44195" lon="6.36269">
        <ele>18.685317</ele>
        <time>2020-07-16T16:36:25.637Z</time>
      </trkpt>
      <trkpt lat="62.44196" lon="6.36276">
        <ele>18.628765</ele>
        <time>2020-07-16T16:36:26.357Z</time>
      </trkpt>
      <trkpt lat="62.442" lon="6.36302">
        <ele>18.436314</ele>
        <time>2020-07-16T16:36:28.816Z</time>
      </trkpt>
      <trkpt lat="62.442" lon="6.36305">
        <ele>18.41471</ele>
        <time>2020-07-16T16:36:29.082Z</time>
      </trkpt>
      <trkpt lat="62.44218" lon="6.3631">
        <ele>18.146088</ele>
        <time>2020-07-16T16:36:31.595Z</time>
      </trkpt>
      <trkpt lat="62.44229" lon="6.36303">
        <ele>17.967617</ele>
        <time>2020-07-16T16:36:34.088Z</time>
      </trkpt>
      <trkpt lat="62.44255" lon="6.36288">
        <ele>17.569164</ele>
        <time>2020-07-16T16:36:38.632Z</time>
      </trkpt>
      <trkpt lat="62.44299" lon="6.36279">
        <ele>17.331944</ele>
        <time>2020-07-16T16:36:49.127Z</time>
      </trkpt>
      <trkpt lat="62.44312" lon="6.36293">
        <ele>17.712819</ele>
        <time>2020-07-16T16:36:51.751Z</time>
      </trkpt>
      <trkpt lat="62.44322" lon="6.36317">
        <ele>18.110445</ele>
        <time>2020-07-16T16:36:56.052Z</time>
      </trkpt>
      <trkpt lat="62.44332" lon="6.36366">
        <ele>18.748479</ele>
        <time>2020-07-16T16:37:04.015Z</time>
      </trkpt>
      <trkpt lat="62.44336" lon="6.3643">
        <ele>19.530025</ele>
        <time>2020-07-16T16:37:13.330Z</time>
      </trkpt>
      <trkpt lat="62.44333" lon="6.36548">
        <ele>20.96608</ele>
        <time>2020-07-16T16:37:27.818Z</time>
      </trkpt>
      <trkpt lat="62.44335" lon="6.36552">
        <ele>21.036921</ele>
        <time>2020-07-16T16:37:29.385Z</time>
      </trkpt>
      <trkpt lat="62.44349" lon="6.36561">
        <ele>21.414078</ele>
        <time>2020-07-16T16:37:32.587Z</time>
      </trkpt>
      <trkpt lat="62.44352" lon="6.36562">
        <ele>21.489911</ele>
        <time>2020-07-16T16:37:33.174Z</time>
      </trkpt>
      <trkpt lat="62.44394" lon="6.36568">
        <ele>21.884113</ele>
        <time>2020-07-16T16:37:42.731Z</time>
      </trkpt>
      <trkpt lat="62.44399" lon="6.36572">
        <ele>21.901841</ele>
        <time>2020-07-16T16:37:43.878Z</time>
      </trkpt>
      <trkpt lat="62.44402" lon="6.36576">
        <ele>21.915462</ele>
        <time>2020-07-16T16:37:44.692Z</time>
      </trkpt>
      <trkpt lat="62.44405" lon="6.3658">
        <ele>21.931106</ele>
        <time>2020-07-16T16:37:46.474Z</time>
      </trkpt>
      <trkpt lat="62.44409" lon="6.36578">
        <ele>21.948094</ele>
        <time>2020-07-16T16:37:47.331Z</time>
      </trkpt>
      <trkpt lat="62.44414" lon="6.3658">
        <ele>21.967265</ele>
        <time>2020-07-16T16:37:48.407Z</time>
      </trkpt>
      <trkpt lat="62.44416" lon="6.3657">
        <ele>21.986529</ele>
        <time>2020-07-16T16:37:49.234Z</time>
      </trkpt>
      <trkpt lat="62.44418" lon="6.36559">
        <ele>22.006232</ele>
        <time>2020-07-16T16:37:49.993Z</time>
      </trkpt>
      <trkpt lat="62.44463" lon="6.36502">
        <ele>22.208284</ele>
        <time>2020-07-16T16:38:01.651Z</time>
      </trkpt>
      <trkpt lat="62.44527" lon="6.36285">
        <ele>22.022462</ele>
        <time>2020-07-16T16:38:19.941Z</time>
      </trkpt>
      <trkpt lat="62.44581" lon="6.36193">
        <ele>21.490181</ele>
        <time>2020-07-16T16:38:30.962Z</time>
      </trkpt>
      <trkpt lat="62.44584" lon="6.36202">
        <ele>21.454381</ele>
        <time>2020-07-16T16:38:31.733Z</time>
      </trkpt>
      <trkpt lat="62.44604" lon="6.36167">
        <ele>21.257121</ele>
        <time>2020-07-16T16:38:35.916Z</time>
      </trkpt>
      <trkpt lat="62.4462" lon="6.36138">
        <ele>21.091788</ele>
        <time>2020-07-16T16:38:39.839Z</time>
      </trkpt>
      <trkpt lat="62.44629" lon="6.3612">
        <ele>21.250379</ele>
        <time>2020-07-16T16:38:42.204Z</time>
      </trkpt>
      <trkpt lat="62.44641" lon="6.36095">
        <ele>21.59128</ele>
        <time>2020-07-16T16:38:45.931Z</time>
      </trkpt>
      <trkpt lat="62.44694" lon="6.35966">
        <ele>23.210478</ele>
        <time>2020-07-16T16:39:04.002Z</time>
      </trkpt>
      <trkpt lat="62.44712" lon="6.35921">
        <ele>23.775738</ele>
        <time>2020-07-16T16:39:11.172Z</time>
      </trkpt>
      <trkpt lat="62.44718" lon="6.35905">
        <ele>23.975261</ele>
        <time>2020-07-16T16:39:13.549Z</time>
      </trkpt>
      <trkpt lat="62.44725" lon="6.35887">
        <ele>24.189917</ele>
        <time>2020-07-16T16:39:16.303Z</time>
      </trkpt>
      <trkpt lat="62.44729" lon="6.35896">
        <ele>24.306967</ele>
        <time>2020-07-16T16:39:18.716Z</time>
      </trkpt>
      <trkpt lat="62.44792" lon="6.35711">
        <ele>28.41685</ele>
        <time>2020-07-16T16:39:52.694Z</time>
      </trkpt>
      <trkpt lat="62.44812" lon="6.35659">
        <ele>29.782427</ele>
        <time>2020-07-16T16:40:03.389Z</time>
      </trkpt>
      <trkpt lat="62.4482" lon="6.3564">
        <ele>30.291566</ele>
        <time>2020-07-16T16:40:08.178Z</time>
      </trkpt>
      <trkpt lat="62.44823" lon="6.35634">
        <ele>30.466365</ele>
        <time>2020-07-16T16:40:09.542Z</time>
      </trkpt>
      <trkpt lat="62.44843" lon="6.35601">
        <ele>31.564019</ele>
        <time>2020-07-16T16:40:16.942Z</time>
      </trkpt>
      <trkpt lat="62.44846" lon="6.35597">
        <ele>31.703202</ele>
        <time>2020-07-16T16:40:18.292Z</time>
      </trkpt>
      <trkpt lat="62.44848" lon="6.35594">
        <ele>31.822457</ele>
        <time>2020-07-16T16:40:19.711Z</time>
      </trkpt>
      <trkpt lat="62.44875" lon="6.35567">
        <ele>33.050377</ele>
        <time>2020-07-16T16:40:28.076Z</time>
      </trkpt>
      <trkpt lat="62.44893" lon="6.35551">
        <ele>33.856446</ele>
        <time>2020-07-16T16:40:35.514Z</time>
      </trkpt>
      <trkpt lat="62.44911" lon="6.35536">
        <ele>34.671093</ele>
        <time>2020-07-16T16:40:41.470Z</time>
      </trkpt>
      <trkpt lat="62.44933" lon="6.35518">
        <ele>35.62787</ele>
        <time>2020-07-16T16:40:49.160Z</time>
      </trkpt>
      <trkpt lat="62.44935" lon="6.35517">
        <ele>35.702702</ele>
        <time>2020-07-16T16:40:49.859Z</time>
      </trkpt>
      <trkpt lat="62.4494" lon="6.35513">
        <ele>35.912975</ele>
        <time>2020-07-16T16:40:51.289Z</time>
      </trkpt>
      <trkpt lat="62.44943" lon="6.3551">
        <ele>36.073092</ele>
        <time>2020-07-16T16:40:52.571Z</time>
      </trkpt>
      <trkpt lat="62.44947" lon="6.35507">
        <ele>36.230473</ele>
        <time>2020-07-16T16:40:54.308Z</time>
      </trkpt>
      <trkpt lat="62.44968" lon="6.35491">
        <ele>37.149603</ele>
        <time>2020-07-16T16:41:01.259Z</time>
      </trkpt>
      <trkpt lat="62.4498" lon="6.35482">
        <ele>37.67987</ele>
        <time>2020-07-16T16:41:05.234Z</time>
      </trkpt>
      <trkpt lat="62.45014" lon="6.35458">
        <ele>39.131607</ele>
        <time>2020-07-16T16:41:15.696Z</time>
      </trkpt>
      <trkpt lat="62.45022" lon="6.35449">
        <ele>39.535783</ele>
        <time>2020-07-16T16:41:18.504Z</time>
      </trkpt>
      <trkpt lat="62.45027" lon="6.35444">
        <ele>39.733635</ele>
        <time>2020-07-16T16:41:20.270Z</time>
      </trkpt>
      <trkpt lat="62.45062" lon="6.3543">
        <ele>40.705938</ele>
        <time>2020-07-16T16:41:30.109Z</time>
      </trkpt>
      <trkpt lat="62.45101" lon="6.3544">
        <ele>41.68249</ele>
        <time>2020-07-16T16:41:40.438Z</time>
      </trkpt>
      <trkpt lat="62.45169" lon="6.35495">
        <ele>43.51734</ele>
        <time>2020-07-16T16:41:59.096Z</time>
      </trkpt>
      <trkpt lat="62.45228" lon="6.35565">
        <ele>44.864971</ele>
        <time>2020-07-16T16:42:14.785Z</time>
      </trkpt>
      <trkpt lat="62.45265" lon="6.35611">
        <ele>45.46042</ele>
        <time>2020-07-16T16:42:24.423Z</time>
      </trkpt>
      <trkpt lat="62.45288" lon="6.35639">
        <ele>45.837124</ele>
        <time>2020-07-16T16:42:30.554Z</time>
      </trkpt>
      <trkpt lat="62.45408" lon="6.35794">
        <ele>46.714137</ele>
        <time>2020-07-16T16:43:00.375Z</time>
      </trkpt>
      <trkpt lat="62.4551" lon="6.35972">
        <ele>45.830106</ele>
        <time>2020-07-16T16:43:20.820Z</time>
      </trkpt>
      <trkpt lat="62.45527" lon="6.3601">
        <ele>44.950434</ele>
        <time>2020-07-16T16:43:24.178Z</time>
      </trkpt>
      <trkpt lat="62.45542" lon="6.36045">
        <ele>44.146173</ele>
        <time>2020-07-16T16:43:27.148Z</time>
      </trkpt>
      <trkpt lat="62.45589" lon="6.3616">
        <ele>41.572798</ele>
        <time>2020-07-16T16:43:36.343Z</time>
      </trkpt>
      <trkpt lat="62.45625" lon="6.36221">
        <ele>39.942319</ele>
        <time>2020-07-16T16:43:41.720Z</time>
      </trkpt>
      <trkpt lat="62.45662" lon="6.36261">
        <ele>37.828989</ele>
        <time>2020-07-16T16:43:46.594Z</time>
      </trkpt>
      <trkpt lat="62.45734" lon="6.36314">
        <ele>33.747031</ele>
        <time>2020-07-16T16:43:55.602Z</time>
      </trkpt>
      <trkpt lat="62.45736" lon="6.3632">
        <ele>33.536282</ele>
        <time>2020-07-16T16:43:56.007Z</time>
      </trkpt>
      <trkpt lat="62.45754" lon="6.3633">
        <ele>32.545343</ele>
        <time>2020-07-16T16:43:58.288Z</time>
      </trkpt>
      <trkpt lat="62.45804" lon="6.36335">
        <ele>29.968517</ele>
        <time>2020-07-16T16:44:04.435Z</time>
      </trkpt>
      <trkpt lat="62.4581" lon="6.36336">
        <ele>29.760828</ele>
        <time>2020-07-16T16:44:05.179Z</time>
      </trkpt>
      <trkpt lat="62.45838" lon="6.36343">
        <ele>28.933651</ele>
        <time>2020-07-16T16:44:08.931Z</time>
      </trkpt>
      <trkpt lat="62.45894" lon="6.36336">
        <ele>27.257761</ele>
        <time>2020-07-16T16:44:15.879Z</time>
      </trkpt>
      <trkpt lat="62.45899" lon="6.3633">
        <ele>27.084239</ele>
        <time>2020-07-16T16:44:16.721Z</time>
      </trkpt>
      <trkpt lat="62.45902" lon="6.36325">
        <ele>26.958458</ele>
        <time>2020-07-16T16:44:17.326Z</time>
      </trkpt>
      <trkpt lat="62.45922" lon="6.36274">
        <ele>26.035991</ele>
        <time>2020-07-16T16:44:21.711Z</time>
      </trkpt>
      <trkpt lat="62.45949" lon="6.36237">
        <ele>25.086287</ele>
        <time>2020-07-16T16:44:26.235Z</time>
      </trkpt>
      <trkpt lat="62.45971" lon="6.36227">
        <ele>24.57893</ele>
        <time>2020-07-16T16:44:29.764Z</time>
      </trkpt>
      <trkpt lat="62.45998" lon="6.36234">
        <ele>24.297455</ele>
        <time>2020-07-16T16:44:33.975Z</time>
      </trkpt>
      <trkpt lat="62.46003" lon="6.36236">
        <ele>24.23722</ele>
        <time>2020-07-16T16:44:34.815Z</time>
      </trkpt>
      <trkpt lat="62.46021" lon="6.36244">
        <ele>24.048398</ele>
        <time>2020-07-16T16:44:37.633Z</time>
      </trkpt>
      <trkpt lat="62.46034" lon="6.36249">
        <ele>23.912718</ele>
        <time>2020-07-16T16:44:39.762Z</time>
      </trkpt>
      <trkpt lat="62.46046" lon="6.36255">
        <ele>23.783009</ele>
        <time>2020-07-16T16:44:41.704Z</time>
      </trkpt>
      <trkpt lat="62.46049" lon="6.36256">
        <ele>23.75024</ele>
        <time>2020-07-16T16:44:42.126Z</time>
      </trkpt>
      <trkpt lat="62.4608" lon="6.36271">
        <ele>23.420914</ele>
        <time>2020-07-16T16:44:47.196Z</time>
      </trkpt>
      <trkpt lat="62.46149" lon="6.36329">
        <ele>22.925876</ele>
        <time>2020-07-16T16:44:59.562Z</time>
      </trkpt>
      <trkpt lat="62.46152" lon="6.36332">
        <ele>22.952909</ele>
        <time>2020-07-16T16:44:59.988Z</time>
      </trkpt>
      <trkpt lat="62.46155" lon="6.3632">
        <ele>23.009971</ele>
        <time>2020-07-16T16:45:01.500Z</time>
      </trkpt>
      <trkpt lat="62.46167" lon="6.36334">
        <ele>23.132525</ele>
        <time>2020-07-16T16:45:04.134Z</time>
      </trkpt>
      <trkpt lat="62.46192" lon="6.36357">
        <ele>23.386144</ele>
        <time>2020-07-16T16:45:09.268Z</time>
      </trkpt>
      <trkpt lat="62.46209" lon="6.36373">
        <ele>23.552495</ele>
        <time>2020-07-16T16:45:13.209Z</time>
      </trkpt>
      <trkpt lat="62.4625" lon="6.36416">
        <ele>23.969773</ele>
        <time>2020-07-16T16:45:23.443Z</time>
      </trkpt>
      <trkpt lat="62.46284" lon="6.36455">
        <ele>24.317193</ele>
        <time>2020-07-16T16:45:32.657Z</time>
      </trkpt>
      <trkpt lat="62.46327" lon="6.36507">
        <ele>25.700107</ele>
        <time>2020-07-16T16:45:45.702Z</time>
      </trkpt>
      <trkpt lat="62.46339" lon="6.36519">
        <ele>26.147215</ele>
        <time>2020-07-16T16:45:49.468Z</time>
      </trkpt>
      <trkpt lat="62.46342" lon="6.36521">
        <ele>26.262927</ele>
        <time>2020-07-16T16:45:50.554Z</time>
      </trkpt>
      <trkpt lat="62.46349" lon="6.36524">
        <ele>26.521361</ele>
        <time>2020-07-16T16:45:52.753Z</time>
      </trkpt>
      <trkpt lat="62.46355" lon="6.36524">
        <ele>26.72985</ele>
        <time>2020-07-16T16:45:54.528Z</time>
      </trkpt>
      <trkpt lat="62.46356" lon="6.36534">
        <ele>26.887521</ele>
        <time>2020-07-16T16:45:55.966Z</time>
      </trkpt>
      <trkpt lat="62.46356" lon="6.36545">
        <ele>27.062612</ele>
        <time>2020-07-16T16:45:57.426Z</time>
      </trkpt>
      <trkpt lat="62.46356" lon="6.36554">
        <ele>27.207529</ele>
        <time>2020-07-16T16:45:58.764Z</time>
      </trkpt>
      <trkpt lat="62.46363" lon="6.36565">
        <ele>27.498763</ele>
        <time>2020-07-16T16:46:01.455Z</time>
      </trkpt>
      <trkpt lat="62.46365" lon="6.3657">
        <ele>27.617046</ele>
        <time>2020-07-16T16:46:02.483Z</time>
      </trkpt>
      <trkpt lat="62.46368" lon="6.36574">
        <ele>27.717925</ele>
        <time>2020-07-16T16:46:03.450Z</time>
      </trkpt>
      <trkpt lat="62.46383" lon="6.36606">
        <ele>28.473477</ele>
        <time>2020-07-16T16:46:10.020Z</time>
      </trkpt>
      <trkpt lat="62.46386" lon="6.36622">
        <ele>28.747794</ele>
        <time>2020-07-16T16:46:12.619Z</time>
      </trkpt>
      <trkpt lat="62.46391" lon="6.3662">
        <ele>28.906769</ele>
        <time>2020-07-16T16:46:14.040Z</time>
      </trkpt>
      <trkpt lat="62.46422" lon="6.36605">
        <ele>29.99838</ele>
        <time>2020-07-16T16:46:23.955Z</time>
      </trkpt>
      <trkpt lat="62.46433" lon="6.36596">
        <ele>30.421632</ele>
        <time>2020-07-16T16:46:27.560Z</time>
      </trkpt>
      <trkpt lat="62.46436" lon="6.36591">
        <ele>30.565364</ele>
        <time>2020-07-16T16:46:29.084Z</time>
      </trkpt>
      <trkpt lat="62.46443" lon="6.36584">
        <ele>30.818049</ele>
        <time>2020-07-16T16:46:31.418Z</time>
      </trkpt>
      <trkpt lat="62.46447" lon="6.36579">
        <ele>30.97813</ele>
        <time>2020-07-16T16:46:33.042Z</time>
      </trkpt>
      <trkpt lat="62.46449" lon="6.36576">
        <ele>31.058119</ele>
        <time>2020-07-16T16:46:33.776Z</time>
      </trkpt>
      <trkpt lat="62.46453" lon="6.36572">
        <ele>31.197558</ele>
        <time>2020-07-16T16:46:35.157Z</time>
      </trkpt>
      <trkpt lat="62.46459" lon="6.36566">
        <ele>31.406701</ele>
        <time>2020-07-16T16:46:37.143Z</time>
      </trkpt>
      <trkpt lat="62.46466" lon="6.36556">
        <ele>31.70771</ele>
        <time>2020-07-16T16:46:39.899Z</time>
      </trkpt>
      <trkpt lat="62.46471" lon="6.3655">
        <ele>31.878856</ele>
        <time>2020-07-16T16:46:41.595Z</time>
      </trkpt>
      <trkpt lat="62.46473" lon="6.36546">
        <ele>31.982624</ele>
        <time>2020-07-16T16:46:42.575Z</time>
      </trkpt>
      <trkpt lat="62.465" lon="6.36512">
        <ele>33.017605</ele>
        <time>2020-07-16T16:46:52.119Z</time>
      </trkpt>
      <trkpt lat="62.4651" lon="6.365">
        <ele>33.400024</ele>
        <time>2020-07-16T16:46:55.560Z</time>
      </trkpt>
      <trkpt lat="62.46539" lon="6.36484">
        <ele>34.401071</ele>
        <time>2020-07-16T16:47:04.463Z</time>
      </trkpt>
      <trkpt lat="62.46541" lon="6.36482">
        <ele>34.466011</ele>
        <time>2020-07-16T16:47:05.145Z</time>
      </trkpt>
      <trkpt lat="62.46557" lon="6.36469">
        <ele>35.038944</ele>
        <time>2020-07-16T16:47:09.676Z</time>
      </trkpt>
      <trkpt lat="62.46568" lon="6.36474">
        <ele>35.409245</ele>
        <time>2020-07-16T16:47:12.917Z</time>
      </trkpt>
      <trkpt lat="62.46572" lon="6.36479">
        <ele>35.564603</ele>
        <time>2020-07-16T16:47:14.296Z</time>
      </trkpt>
      <trkpt lat="62.46588" lon="6.36503">
        <ele>36.219991</ele>
        <time>2020-07-16T16:47:19.539Z</time>
      </trkpt>
      <trkpt lat="62.46597" lon="6.36505">
        <ele>36.519285</ele>
        <time>2020-07-16T16:47:21.875Z</time>
      </trkpt>
      <trkpt lat="62.46603" lon="6.36504">
        <ele>36.714001</ele>
        <time>2020-07-16T16:47:23.622Z</time>
      </trkpt>
      <trkpt lat="62.46622" lon="6.36496">
        <ele>37.15027</ele>
        <time>2020-07-16T16:47:28.588Z</time>
      </trkpt>
      <trkpt lat="62.4663" lon="6.36493">
        <ele>37.323656</ele>
        <time>2020-07-16T16:47:30.553Z</time>
      </trkpt>
      <trkpt lat="62.46639" lon="6.36496">
        <ele>37.53475</ele>
        <time>2020-07-16T16:47:32.975Z</time>
      </trkpt>
      <trkpt lat="62.46652" lon="6.36486">
        <ele>37.842649</ele>
        <time>2020-07-16T16:47:36.307Z</time>
      </trkpt>
      <trkpt lat="62.46684" lon="6.36467">
        <ele>38.594219</ele>
        <time>2020-07-16T16:47:44.411Z</time>
      </trkpt>
      <trkpt lat="62.4672" lon="6.36447">
        <ele>39.431188</ele>
        <time>2020-07-16T16:47:53.393Z</time>
      </trkpt>
      <trkpt lat="62.46748" lon="6.36433">
        <ele>40.086994</ele>
        <time>2020-07-16T16:48:00.744Z</time>
      </trkpt>
      <trkpt lat="62.46756" lon="6.36428">
        <ele>40.272427</ele>
        <time>2020-07-16T16:48:02.785Z</time>
      </trkpt>
      <trkpt lat="62.46764" lon="6.36496">
        <ele>41.177485</ele>
        <time>2020-07-16T16:48:11.061Z</time>
      </trkpt>
      <trkpt lat="62.46774" lon="6.36573">
        <ele>42.559528</ele>
        <time>2020-07-16T16:48:21.917Z</time>
      </trkpt>
      <trkpt lat="62.46785" lon="6.36586">
        <ele>43.049218</ele>
        <time>2020-07-16T16:48:25.720Z</time>
      </trkpt>
      <trkpt lat="62.4679" lon="6.36583">
        <ele>43.234582</ele>
        <time>2020-07-16T16:48:27.303Z</time>
      </trkpt>
      <trkpt lat="62.46797" lon="6.36578">
        <ele>43.500676</ele>
        <time>2020-07-16T16:48:29.728Z</time>
      </trkpt>
      <trkpt lat="62.46827" lon="6.36594">
        <ele>44.655444</ele>
        <time>2020-07-16T16:48:39.648Z</time>
      </trkpt>
      <trkpt lat="62.4687" lon="6.36605">
        <ele>46.274698</ele>
        <time>2020-07-16T16:48:53.501Z</time>
      </trkpt>
      <trkpt lat="62.46882" lon="6.36606">
        <ele>46.751565</ele>
        <time>2020-07-16T16:48:57.627Z</time>
      </trkpt>
      <trkpt lat="62.46893" lon="6.36605">
        <ele>47.149995</ele>
        <time>2020-07-16T16:49:00.431Z</time>
      </trkpt>
      <trkpt lat="62.46908" lon="6.36602">
        <ele>47.585162</ele>
        <time>2020-07-16T16:49:05.527Z</time>
      </trkpt>
      <trkpt lat="62.46928" lon="6.36594">
        <ele>47.85272</ele>
        <time>2020-07-16T16:49:10.815Z</time>
      </trkpt>
      <trkpt lat="62.46948" lon="6.36583">
        <ele>48.134742</ele>
        <time>2020-07-16T16:49:17.309Z</time>
      </trkpt>
      <trkpt lat="62.46992" lon="6.36558">
        <ele>48.733505</ele>
        <time>2020-07-16T16:49:28.092Z</time>
      </trkpt>
      <trkpt lat="62.47006" lon="6.36551">
        <ele>48.930596</ele>
        <time>2020-07-16T16:49:31.502Z</time>
      </trkpt>
      <trkpt lat="62.47018" lon="6.36543">
        <ele>49.093361</ele>
        <time>2020-07-16T16:49:34.356Z</time>
      </trkpt>
      <trkpt lat="62.47054" lon="6.3652">
        <ele>49.606423</ele>
        <time>2020-07-16T16:49:41.286Z</time>
      </trkpt>
      <trkpt lat="62.47075" lon="6.36504">
        <ele>49.907003</ele>
        <time>2020-07-16T16:49:44.473Z</time>
      </trkpt>
      <trkpt lat="62.47117" lon="6.36481">
        <ele>48.578463</ele>
        <time>2020-07-16T16:49:50.361Z</time>
      </trkpt>
      <trkpt lat="62.47123" lon="6.36478">
        <ele>48.396786</ele>
        <time>2020-07-16T16:49:51.094Z</time>
      </trkpt>
      <trkpt lat="62.47127" lon="6.36482">
        <ele>48.236049</ele>
        <time>2020-07-16T16:49:51.779Z</time>
      </trkpt>
      <trkpt lat="62.47144" lon="6.36486">
        <ele>47.715421</ele>
        <time>2020-07-16T16:49:53.957Z</time>
      </trkpt>
      <trkpt lat="62.47149" lon="6.36491">
        <ele>47.519315</ele>
        <time>2020-07-16T16:49:54.804Z</time>
      </trkpt>
      <trkpt lat="62.47153" lon="6.36494">
        <ele>47.400919</ele>
        <time>2020-07-16T16:49:55.282Z</time>
      </trkpt>
      <trkpt lat="62.47163" lon="6.36488">
        <ele>47.058334</ele>
        <time>2020-07-16T16:49:56.617Z</time>
      </trkpt>
      <trkpt lat="62.47164" lon="6.36485">
        <ele>47.000071</ele>
        <time>2020-07-16T16:49:56.835Z</time>
      </trkpt>
      <trkpt lat="62.4717" lon="6.36481">
        <ele>46.81966</ele>
        <time>2020-07-16T16:49:57.531Z</time>
      </trkpt>
      <trkpt lat="62.47181" lon="6.36482">
        <ele>46.475069</ele>
        <time>2020-07-16T16:49:58.994Z</time>
      </trkpt>
      <trkpt lat="62.47185" lon="6.36479">
        <ele>46.319011</ele>
        <time>2020-07-16T16:49:59.638Z</time>
      </trkpt>
      <trkpt lat="62.47193" lon="6.36484">
        <ele>46.070329</ele>
        <time>2020-07-16T16:50:00.609Z</time>
      </trkpt>
      <trkpt lat="62.47196" lon="6.36466">
        <ele>45.78833</ele>
        <time>2020-07-16T16:50:01.756Z</time>
      </trkpt>
      <trkpt lat="62.47206" lon="6.36473">
        <ele>45.464191</ele>
        <time>2020-07-16T16:50:03.125Z</time>
      </trkpt>
      <trkpt lat="62.4725" lon="6.36515">
        <ele>43.760867</ele>
        <time>2020-07-16T16:50:09.640Z</time>
      </trkpt>
      <trkpt lat="62.47281" lon="6.36562">
        <ele>41.824979</ele>
        <time>2020-07-16T16:50:14.769Z</time>
      </trkpt>
      <trkpt lat="62.47284" lon="6.36567">
        <ele>41.643481</ele>
        <time>2020-07-16T16:50:15.218Z</time>
      </trkpt>
      <trkpt lat="62.47292" lon="6.36584">
        <ele>41.048579</ele>
        <time>2020-07-16T16:50:16.617Z</time>
      </trkpt>
      <trkpt lat="62.47361" lon="6.3676">
        <ele>35.602963</ele>
        <time>2020-07-16T16:50:29.832Z</time>
      </trkpt>
      <trkpt lat="62.47377" lon="6.36786">
        <ele>34.933213</ele>
        <time>2020-07-16T16:50:32.339Z</time>
      </trkpt>
      <trkpt lat="62.47389" lon="6.36792">
        <ele>34.785387</ele>
        <time>2020-07-16T16:50:33.955Z</time>
      </trkpt>
      <trkpt lat="62.47393" lon="6.36791">
        <ele>34.733857</ele>
        <time>2020-07-16T16:50:34.419Z</time>
      </trkpt>
      <trkpt lat="62.47399" lon="6.36789">
        <ele>34.658685</ele>
        <time>2020-07-16T16:50:35.102Z</time>
      </trkpt>
      <trkpt lat="62.47423" lon="6.36795">
        <ele>34.368561</ele>
        <time>2020-07-16T16:50:38.968Z</time>
      </trkpt>
      <trkpt lat="62.47433" lon="6.36799">
        <ele>34.234406</ele>
        <time>2020-07-16T16:50:40.250Z</time>
      </trkpt>
      <trkpt lat="62.47447" lon="6.36819">
        <ele>34.039626</ele>
        <time>2020-07-16T16:50:42.869Z</time>
      </trkpt>
      <trkpt lat="62.47469" lon="6.36885">
        <ele>33.571053</ele>
        <time>2020-07-16T16:50:50.269Z</time>
      </trkpt>
      <trkpt lat="62.47485" lon="6.3694">
        <ele>33.203338</ele>
        <time>2020-07-16T16:50:56.196Z</time>
      </trkpt>
      <trkpt lat="62.47498" lon="6.36978">
        <ele>32.941748</ele>
        <time>2020-07-16T16:51:01.249Z</time>
      </trkpt>
      <trkpt lat="62.47501" lon="6.36989">
        <ele>32.86693</ele>
        <time>2020-07-16T16:51:02.227Z</time>
      </trkpt>
      <trkpt lat="62.47502" lon="6.36995">
        <ele>32.861552</ele>
        <time>2020-07-16T16:51:03.232Z</time>
      </trkpt>
      <trkpt lat="62.47508" lon="6.37034">
        <ele>33.474305</ele>
        <time>2020-07-16T16:51:09.713Z</time>
      </trkpt>
      <trkpt lat="62.4751" lon="6.37046">
        <ele>33.662841</ele>
        <time>2020-07-16T16:51:11.052Z</time>
      </trkpt>
      <trkpt lat="62.47511" lon="6.37055">
        <ele>33.800287</ele>
        <time>2020-07-16T16:51:12.377Z</time>
      </trkpt>
      <trkpt lat="62.4751" lon="6.37082">
        <ele>34.212703</ele>
        <time>2020-07-16T16:51:16.306Z</time>
      </trkpt>
      <trkpt lat="62.4751" lon="6.37098">
        <ele>34.450978</ele>
        <time>2020-07-16T16:51:19.324Z</time>
      </trkpt>
      <trkpt lat="62.47506" lon="6.37178">
        <ele>35.646124</ele>
        <time>2020-07-16T16:51:33.258Z</time>
      </trkpt>
      <trkpt lat="62.47514" lon="6.37258">
        <ele>36.880071</ele>
        <time>2020-07-16T16:51:47.789Z</time>
      </trkpt>
      <trkpt lat="62.47578" lon="6.37601">
        <ele>35.776377</ele>
        <time>2020-07-16T16:52:21.232Z</time>
      </trkpt>
      <trkpt lat="62.47595" lon="6.37652">
        <ele>35.055444</ele>
        <time>2020-07-16T16:52:24.746Z</time>
      </trkpt>
      <trkpt lat="62.47618" lon="6.37693">
        <ele>34.31767</ele>
        <time>2020-07-16T16:52:28.341Z</time>
      </trkpt>
      <trkpt lat="62.47625" lon="6.37702">
        <ele>33.967224</ele>
        <time>2020-07-16T16:52:29.305Z</time>
      </trkpt>
      <trkpt lat="62.47628" lon="6.37705">
        <ele>33.760533</ele>
        <time>2020-07-16T16:52:29.648Z</time>
      </trkpt>
      <trkpt lat="62.47644" lon="6.37717">
        <ele>32.602691</ele>
        <time>2020-07-16T16:52:31.716Z</time>
      </trkpt>
      <trkpt lat="62.47651" lon="6.37722">
        <ele>32.072045</ele>
        <time>2020-07-16T16:52:32.592Z</time>
      </trkpt>
      <trkpt lat="62.47651" lon="6.37726">
        <ele>31.935617</ele>
        <time>2020-07-16T16:52:32.813Z</time>
      </trkpt>
      <trkpt lat="62.47653" lon="6.37752">
        <ele>31.110758</ele>
        <time>2020-07-16T16:52:34.198Z</time>
      </trkpt>
      <trkpt lat="62.47659" lon="6.37762">
        <ele>30.618898</ele>
        <time>2020-07-16T16:52:35.001Z</time>
      </trkpt>
      <trkpt lat="62.47676" lon="6.37783">
        <ele>29.264384</ele>
        <time>2020-07-16T16:52:37.301Z</time>
      </trkpt>
      <trkpt lat="62.47721" lon="6.37814">
        <ele>25.999033</ele>
        <time>2020-07-16T16:52:42.909Z</time>
      </trkpt>
      <trkpt lat="62.47748" lon="6.37813">
        <ele>24.181208</ele>
        <time>2020-07-16T16:52:46.002Z</time>
      </trkpt>
      <trkpt lat="62.47771" lon="6.37792">
        <ele>22.481896</ele>
        <time>2020-07-16T16:52:49.275Z</time>
      </trkpt>
      <trkpt lat="62.47774" lon="6.37786">
        <ele>22.174971</ele>
        <time>2020-07-16T16:52:49.776Z</time>
      </trkpt>
      <trkpt lat="62.47793" lon="6.3775">
        <ele>22.371319</ele>
        <time>2020-07-16T16:52:53.817Z</time>
      </trkpt>
      <trkpt lat="62.47803" lon="6.3772">
        <ele>22.81136</ele>
        <time>2020-07-16T16:52:56.657Z</time>
      </trkpt>
      <trkpt lat="62.47805" lon="6.37714">
        <ele>22.892716</ele>
        <time>2020-07-16T16:52:57.271Z</time>
      </trkpt>
      <trkpt lat="62.47811" lon="6.3772">
        <ele>23.066251</ele>
        <time>2020-07-16T16:52:59.838Z</time>
      </trkpt>
      <trkpt lat="62.47835" lon="6.37749">
        <ele>23.760541</ele>
        <time>2020-07-16T16:53:05.480Z</time>
      </trkpt>
      <trkpt lat="62.47837" lon="6.37754">
        <ele>23.837516</ele>
        <time>2020-07-16T16:53:06.880Z</time>
      </trkpt>
      <trkpt lat="62.47843" lon="6.3775">
        <ele>24.001702</ele>
        <time>2020-07-16T16:53:09.541Z</time>
      </trkpt>
      <trkpt lat="62.47883" lon="6.37731">
        <ele>25.029456</ele>
        <time>2020-07-16T16:53:21.852Z</time>
      </trkpt>
      <trkpt lat="62.47898" lon="6.37748">
        <ele>25.460459</ele>
        <time>2020-07-16T16:53:25.900Z</time>
      </trkpt>
      <trkpt lat="62.47908" lon="6.3779">
        <ele>26.01862</ele>
        <time>2020-07-16T16:53:35.472Z</time>
      </trkpt>
      <trkpt lat="62.47908" lon="6.378">
        <ele>26.138566</ele>
        <time>2020-07-16T16:53:37.450Z</time>
      </trkpt>
      <trkpt lat="62.47912" lon="6.37811">
        <ele>26.294955</ele>
        <time>2020-07-16T16:53:39.778Z</time>
      </trkpt>
      <trkpt lat="62.47946" lon="6.37847">
        <ele>28.359191</ele>
        <time>2020-07-16T16:53:55.878Z</time>
      </trkpt>
      <trkpt lat="62.47948" lon="6.37848">
        <ele>28.468924</ele>
        <time>2020-07-16T16:53:56.891Z</time>
      </trkpt>
      <trkpt lat="62.47947" lon="6.3787">
        <ele>29.086894</ele>
        <time>2020-07-16T16:54:02.706Z</time>
      </trkpt>
      <trkpt lat="62.47947" lon="6.3794">
        <ele>31.004972</ele>
        <time>2020-07-16T16:54:14.816Z</time>
      </trkpt>
      <trkpt lat="62.47947" lon="6.37946">
        <ele>31.148802</ele>
        <time>2020-07-16T16:54:16.707Z</time>
      </trkpt>
      <trkpt lat="62.4794" lon="6.37949">
        <ele>31.591518</ele>
        <time>2020-07-16T16:54:19.298Z</time>
      </trkpt>
      <trkpt lat="62.47919" lon="6.37977">
        <ele>33.015017</ele>
        <time>2020-07-16T16:54:28.009Z</time>
      </trkpt>
      <trkpt lat="62.47917" lon="6.37985">
        <ele>33.284511</ele>
        <time>2020-07-16T16:54:30.756Z</time>
      </trkpt>
      <trkpt lat="62.47912" lon="6.38001">
        <ele>33.802581</ele>
        <time>2020-07-16T16:54:33.688Z</time>
      </trkpt>
      <trkpt lat="62.4791" lon="6.38013">
        <ele>34.156768</ele>
        <time>2020-07-16T16:54:35.717Z</time>
      </trkpt>
      <trkpt lat="62.47907" lon="6.38026">
        <ele>34.536579</ele>
        <time>2020-07-16T16:54:38.097Z</time>
      </trkpt>
      <trkpt lat="62.47962" lon="6.38075">
        <ele>37.010023</ele>
        <time>2020-07-16T16:54:57.923Z</time>
      </trkpt>
      <trkpt lat="62.47992" lon="6.38107">
        <ele>36.929103</ele>
        <time>2020-07-16T16:55:06.346Z</time>
      </trkpt>
      <trkpt lat="62.48018" lon="6.3815">
        <ele>36.847858</ele>
        <time>2020-07-16T16:55:12.696Z</time>
      </trkpt>
      <trkpt lat="62.48026" lon="6.38166">
        <ele>36.82107</ele>
        <time>2020-07-16T16:55:14.770Z</time>
      </trkpt>
      <trkpt lat="62.48033" lon="6.38184">
        <ele>36.793674</ele>
        <time>2020-07-16T16:55:16.616Z</time>
      </trkpt>
      <trkpt lat="62.4807" lon="6.38278">
        <ele>36.652599</ele>
        <time>2020-07-16T16:55:24.298Z</time>
      </trkpt>
      <trkpt lat="62.48109" lon="6.38348">
        <ele>34.791327</ele>
        <time>2020-07-16T16:55:30.568Z</time>
      </trkpt>
      <trkpt lat="62.48124" lon="6.38366">
        <ele>33.871167</ele>
        <time>2020-07-16T16:55:32.544Z</time>
      </trkpt>
      <trkpt lat="62.48148" lon="6.38392">
        <ele>32.380403</ele>
        <time>2020-07-16T16:55:35.769Z</time>
      </trkpt>
      <trkpt lat="62.48164" lon="6.38409">
        <ele>31.361434</ele>
        <time>2020-07-16T16:55:37.945Z</time>
      </trkpt>
      <trkpt lat="62.48227" lon="6.38471">
        <ele>27.55125</ele>
        <time>2020-07-16T16:55:45.887Z</time>
      </trkpt>
      <trkpt lat="62.48305" lon="6.38552">
        <ele>23.98288</ele>
        <time>2020-07-16T16:55:56.146Z</time>
      </trkpt>
      <trkpt lat="62.48324" lon="6.3857">
        <ele>23.214063</ele>
        <time>2020-07-16T16:55:58.639Z</time>
      </trkpt>
      <trkpt lat="62.48328" lon="6.38549">
        <ele>22.82412</ele>
        <time>2020-07-16T16:56:00.125Z</time>
      </trkpt>
      <trkpt lat="62.4834" lon="6.38568">
        <ele>22.276248</ele>
        <time>2020-07-16T16:56:02.007Z</time>
      </trkpt>
      <trkpt lat="62.48362" lon="6.38602">
        <ele>21.253395</ele>
        <time>2020-07-16T16:56:05.805Z</time>
      </trkpt>
      <trkpt lat="62.48379" lon="6.38654">
        <ele>20.148546</ele>
        <time>2020-07-16T16:56:10.785Z</time>
      </trkpt>
      <trkpt lat="62.48381" lon="6.38663">
        <ele>19.978659</ele>
        <time>2020-07-16T16:56:11.374Z</time>
      </trkpt>
      <trkpt lat="62.48382" lon="6.38671">
        <ele>19.916201</ele>
        <time>2020-07-16T16:56:12.032Z</time>
      </trkpt>
      <trkpt lat="62.48379" lon="6.38904">
        <ele>22.684832</ele>
        <time>2020-07-16T16:56:36.851Z</time>
      </trkpt>
      <trkpt lat="62.48379" lon="6.38928">
        <ele>22.976419</ele>
        <time>2020-07-16T16:56:40.416Z</time>
      </trkpt>
      <trkpt lat="62.48379" lon="6.3895">
        <ele>23.233533</ele>
        <time>2020-07-16T16:56:44.386Z</time>
      </trkpt>
      <trkpt lat="62.48384" lon="6.39062">
        <ele>24.628257</ele>
        <time>2020-07-16T16:57:02.933Z</time>
      </trkpt>
      <trkpt lat="62.48402" lon="6.39261">
        <ele>29.071975</ele>
        <time>2020-07-16T16:57:37.634Z</time>
      </trkpt>
      <trkpt lat="62.48403" lon="6.39279">
        <ele>29.460824</ele>
        <time>2020-07-16T16:57:41.159Z</time>
      </trkpt>
      <trkpt lat="62.48417" lon="6.39398">
        <ele>32.153602</ele>
        <time>2020-07-16T16:57:58.150Z</time>
      </trkpt>
      <trkpt lat="62.48461" lon="6.3956">
        <ele>35.328741</ele>
        <time>2020-07-16T16:58:23.023Z</time>
      </trkpt>
      <trkpt lat="62.48464" lon="6.39572">
        <ele>35.545774</ele>
        <time>2020-07-16T16:58:24.441Z</time>
      </trkpt>
      <trkpt lat="62.48467" lon="6.39582">
        <ele>35.742186</ele>
        <time>2020-07-16T16:58:25.318Z</time>
      </trkpt>
      <trkpt lat="62.4848" lon="6.39644">
        <ele>36.799796</ele>
        <time>2020-07-16T16:58:35.272Z</time>
      </trkpt>
      <trkpt lat="62.48491" lon="6.39732">
        <ele>38.209132</ele>
        <time>2020-07-16T16:58:47.092Z</time>
      </trkpt>
      <trkpt lat="62.48494" lon="6.39844">
        <ele>39.677369</ele>
        <time>2020-07-16T16:59:04.745Z</time>
      </trkpt>
      <trkpt lat="62.48492" lon="6.39881">
        <ele>40.061057</ele>
        <time>2020-07-16T16:59:08.765Z</time>
      </trkpt>
      <trkpt lat="62.48488" lon="6.39886">
        <ele>40.164894</ele>
        <time>2020-07-16T16:59:09.840Z</time>
      </trkpt>
      <trkpt lat="62.48484" lon="6.39885">
        <ele>40.245017</ele>
        <time>2020-07-16T16:59:11.745Z</time>
      </trkpt>
      <trkpt lat="62.48482" lon="6.39913">
        <ele>40.541923</ele>
        <time>2020-07-16T16:59:16.835Z</time>
      </trkpt>
      <trkpt lat="62.48461" lon="6.40165">
        <ele>43.115081</ele>
        <time>2020-07-16T16:59:47.456Z</time>
      </trkpt>
      <trkpt lat="62.48468" lon="6.4028">
        <ele>40.278151</ele>
        <time>2020-07-16T16:59:53.929Z</time>
      </trkpt>
      <trkpt lat="62.48472" lon="6.40303">
        <ele>39.65337</ele>
        <time>2020-07-16T16:59:55.884Z</time>
      </trkpt>
      <trkpt lat="62.48482" lon="6.40348">
        <ele>38.461541</ele>
        <time>2020-07-16T16:59:58.366Z</time>
      </trkpt>
      <trkpt lat="62.48499" lon="6.4041">
        <ele>36.673297</ele>
        <time>2020-07-16T17:00:02.261Z</time>
      </trkpt>
      <trkpt lat="62.48516" lon="6.40446">
        <ele>35.454113</ele>
        <time>2020-07-16T17:00:05.301Z</time>
      </trkpt>
      <trkpt lat="62.48521" lon="6.40454">
        <ele>35.10847</ele>
        <time>2020-07-16T17:00:05.977Z</time>
      </trkpt>
      <trkpt lat="62.48525" lon="6.40459">
        <ele>34.879355</ele>
        <time>2020-07-16T17:00:06.422Z</time>
      </trkpt>
      <trkpt lat="62.48549" lon="6.4048">
        <ele>33.580733</ele>
        <time>2020-07-16T17:00:09.699Z</time>
      </trkpt>
      <trkpt lat="62.48575" lon="6.40488">
        <ele>32.847902</ele>
        <time>2020-07-16T17:00:12.590Z</time>
      </trkpt>
      <trkpt lat="62.48595" lon="6.40478">
        <ele>32.26941</ele>
        <time>2020-07-16T17:00:14.834Z</time>
      </trkpt>
      <trkpt lat="62.48631" lon="6.40439">
        <ele>31.133229</ele>
        <time>2020-07-16T17:00:19.875Z</time>
      </trkpt>
      <trkpt lat="62.48658" lon="6.40431">
        <ele>30.370197</ele>
        <time>2020-07-16T17:00:23.563Z</time>
      </trkpt>
      <trkpt lat="62.48715" lon="6.40475">
        <ele>28.665806</ele>
        <time>2020-07-16T17:00:35.694Z</time>
      </trkpt>
      <trkpt lat="62.48722" lon="6.40478">
        <ele>28.857371</ele>
        <time>2020-07-16T17:00:38.263Z</time>
      </trkpt>
      <trkpt lat="62.48727" lon="6.4048">
        <ele>29.106304</ele>
        <time>2020-07-16T17:00:40.337Z</time>
      </trkpt>
      <trkpt lat="62.48821" lon="6.40492">
        <ele>33.142427</ele>
        <time>2020-07-16T17:01:09.453Z</time>
      </trkpt>
      <trkpt lat="62.4884" lon="6.40508">
        <ele>34.014581</ele>
        <time>2020-07-16T17:01:17.624Z</time>
      </trkpt>
      <trkpt lat="62.4885" lon="6.40536">
        <ele>34.713402</ele>
        <time>2020-07-16T17:01:22.960Z</time>
      </trkpt>
      <trkpt lat="62.48872" lon="6.40821">
        <ele>39.675475</ele>
        <time>2020-07-16T17:02:08.711Z</time>
      </trkpt>
      <trkpt lat="62.48857" lon="6.41034">
        <ele>42.474995</ele>
        <time>2020-07-16T17:02:33.111Z</time>
      </trkpt>
      <trkpt lat="62.48863" lon="6.41145">
        <ele>41.978975</ele>
        <time>2020-07-16T17:02:41.926Z</time>
      </trkpt>
      <trkpt lat="62.48865" lon="6.41437">
        <ele>40.689714</ele>
        <time>2020-07-16T17:03:00.973Z</time>
      </trkpt>
      <trkpt lat="62.48878" lon="6.41513">
        <ele>40.334528</ele>
        <time>2020-07-16T17:03:06.168Z</time>
      </trkpt>
      <trkpt lat="62.48911" lon="6.41651">
        <ele>39.642304</ele>
        <time>2020-07-16T17:03:17.140Z</time>
      </trkpt>
      <trkpt lat="62.48949" lon="6.4189">
        <ele>39.542563</ele>
        <time>2020-07-16T17:03:40.276Z</time>
      </trkpt>
      <trkpt lat="62.48995" lon="6.42058">
        <ele>40.020102</ele>
        <time>2020-07-16T17:03:58.180Z</time>
      </trkpt>
      <trkpt lat="62.49001" lon="6.42079">
        <ele>40.080587</ele>
        <time>2020-07-16T17:04:01.125Z</time>
      </trkpt>
      <trkpt lat="62.49006" lon="6.42094">
        <ele>40.125279</ele>
        <time>2020-07-16T17:04:02.242Z</time>
      </trkpt>
      <trkpt lat="62.49076" lon="6.42213">
        <ele>40.663577</ele>
        <time>2020-07-16T17:04:19.338Z</time>
      </trkpt>
      <trkpt lat="62.4911" lon="6.42294">
        <ele>40.967187</ele>
        <time>2020-07-16T17:04:29.720Z</time>
      </trkpt>
      <trkpt lat="62.49124" lon="6.42338">
        <ele>41.115593</ele>
        <time>2020-07-16T17:04:33.563Z</time>
      </trkpt>
      <trkpt lat="62.49127" lon="6.42352">
        <ele>41.161528</ele>
        <time>2020-07-16T17:04:35.650Z</time>
      </trkpt>
      <trkpt lat="62.49174" lon="6.42539">
        <ele>42.866879</ele>
        <time>2020-07-16T17:04:56.648Z</time>
      </trkpt>
      <trkpt lat="62.49191" lon="6.42667">
        <ele>44.020918</ele>
        <time>2020-07-16T17:05:13.114Z</time>
      </trkpt>
      <trkpt lat="62.492" lon="6.42795">
        <ele>45.578908</ele>
        <time>2020-07-16T17:05:28.449Z</time>
      </trkpt>
      <trkpt lat="62.49203" lon="6.42828">
        <ele>46.099872</ele>
        <time>2020-07-16T17:05:32.694Z</time>
      </trkpt>
      <trkpt lat="62.49207" lon="6.43141">
        <ele>50.941919</ele>
        <time>2020-07-16T17:06:16.020Z</time>
      </trkpt>
      <trkpt lat="62.49207" lon="6.43175">
        <ele>51.405239</ele>
        <time>2020-07-16T17:06:20.622Z</time>
      </trkpt>
      <trkpt lat="62.49207" lon="6.43208">
        <ele>51.86026</ele>
        <time>2020-07-16T17:06:25.109Z</time>
      </trkpt>
      <trkpt lat="62.49238" lon="6.43801">
        <ele>59.373457</ele>
        <time>2020-07-16T17:07:38.309Z</time>
      </trkpt>
      <trkpt lat="62.49255" lon="6.4398">
        <ele>60.847128</ele>
        <time>2020-07-16T17:07:58.583Z</time>
      </trkpt>
      <trkpt lat="62.49275" lon="6.44351">
        <ele>61.463148</ele>
        <time>2020-07-16T17:08:33.995Z</time>
      </trkpt>
      <trkpt lat="62.49288" lon="6.44805">
        <ele>55.477376</ele>
        <time>2020-07-16T17:09:01.790Z</time>
      </trkpt>
      <trkpt lat="62.49282" lon="6.45131">
        <ele>49.310136</ele>
        <time>2020-07-16T17:09:19.898Z</time>
      </trkpt>
      <trkpt lat="62.49284" lon="6.45197">
        <ele>48.391317</ele>
        <time>2020-07-16T17:09:23.712Z</time>
      </trkpt>
      <trkpt lat="62.49298" lon="6.45302">
        <ele>46.875646</ele>
        <time>2020-07-16T17:09:30.350Z</time>
      </trkpt>
      <trkpt lat="62.49337" lon="6.45514">
        <ele>44.269824</ele>
        <time>2020-07-16T17:09:46.716Z</time>
      </trkpt>
      <trkpt lat="62.4938" lon="6.45648">
        <ele>43.023079</ele>
        <time>2020-07-16T17:09:58.894Z</time>
      </trkpt>
      <trkpt lat="62.4942" lon="6.45739">
        <ele>42.072433</ele>
        <time>2020-07-16T17:10:06.819Z</time>
      </trkpt>
      <trkpt lat="62.49444" lon="6.45776">
        <ele>40.890759</ele>
        <time>2020-07-16T17:10:10.634Z</time>
      </trkpt>
      <trkpt lat="62.49545" lon="6.4586">
        <ele>36.078415</ele>
        <time>2020-07-16T17:10:23.770Z</time>
      </trkpt>
      <trkpt lat="62.49603" lon="6.45886">
        <ele>33.842781</ele>
        <time>2020-07-16T17:10:30.858Z</time>
      </trkpt>
      <trkpt lat="62.49655" lon="6.45878">
        <ele>33.290673</ele>
        <time>2020-07-16T17:10:37.406Z</time>
      </trkpt>
      <trkpt lat="62.49676" lon="6.45902">
        <ele>33.027878</ele>
        <time>2020-07-16T17:10:40.749Z</time>
      </trkpt>
      <trkpt lat="62.49716" lon="6.46032">
        <ele>32.257634</ele>
        <time>2020-07-16T17:10:54.209Z</time>
      </trkpt>
      <trkpt lat="62.4976" lon="6.46146">
        <ele>34.89875</ele>
        <time>2020-07-16T17:11:14.802Z</time>
      </trkpt>
      <trkpt lat="62.49793" lon="6.46271">
        <ele>38.785405</ele>
        <time>2020-07-16T17:11:40.091Z</time>
      </trkpt>
      <trkpt lat="62.49832" lon="6.46491">
        <ele>45.281809</ele>
        <time>2020-07-16T17:12:27.556Z</time>
      </trkpt>
      <trkpt lat="62.49855" lon="6.467">
        <ele>51.393553</ele>
        <time>2020-07-16T17:13:05.828Z</time>
      </trkpt>
      <trkpt lat="62.49894" lon="6.469">
        <ele>54.202958</ele>
        <time>2020-07-16T17:13:35.342Z</time>
      </trkpt>
      <trkpt lat="62.49914" lon="6.46952">
        <ele>54.483769</ele>
        <time>2020-07-16T17:13:41.690Z</time>
      </trkpt>
      <trkpt lat="62.49962" lon="6.47019">
        <ele>54.996586</ele>
        <time>2020-07-16T17:13:50.621Z</time>
      </trkpt>
      <trkpt lat="62.4998" lon="6.47055">
        <ele>55.215894</ele>
        <time>2020-07-16T17:13:54.301Z</time>
      </trkpt>
      <trkpt lat="62.50012" lon="6.47197">
        <ele>53.023018</ele>
        <time>2020-07-16T17:14:04.198Z</time>
      </trkpt>
      <trkpt lat="62.50037" lon="6.47276">
        <ele>51.597014</ele>
        <time>2020-07-16T17:14:09.865Z</time>
      </trkpt>
      <trkpt lat="62.50099" lon="6.47353">
        <ele>49.355145</ele>
        <time>2020-07-16T17:14:18.785Z</time>
      </trkpt>
      <trkpt lat="62.50107" lon="6.47362">
        <ele>49.130739</ele>
        <time>2020-07-16T17:14:19.831Z</time>
      </trkpt>
      <trkpt lat="62.5011" lon="6.47365">
        <ele>49.055625</ele>
        <time>2020-07-16T17:14:20.290Z</time>
      </trkpt>
      <trkpt lat="62.50126" lon="6.47406">
        <ele>48.478021</ele>
        <time>2020-07-16T17:14:23.729Z</time>
      </trkpt>
      <trkpt lat="62.5014" lon="6.47486">
        <ele>47.53778</ele>
        <time>2020-07-16T17:14:28.898Z</time>
      </trkpt>
      <trkpt lat="62.50147" lon="6.47723">
        <ele>45.02006</ele>
        <time>2020-07-16T17:14:45.042Z</time>
      </trkpt>
      <trkpt lat="62.50146" lon="6.47741">
        <ele>44.88081</ele>
        <time>2020-07-16T17:14:46.285Z</time>
      </trkpt>
      <trkpt lat="62.50144" lon="6.4776">
        <ele>44.737501</ele>
        <time>2020-07-16T17:14:48.821Z</time>
      </trkpt>
      <trkpt lat="62.50127" lon="6.4783">
        <ele>44.144229</ele>
        <time>2020-07-16T17:14:54.678Z</time>
      </trkpt>
      <trkpt lat="62.50098" lon="6.47909">
        <ele>43.38609</ele>
        <time>2020-07-16T17:15:01.590Z</time>
      </trkpt>
      <trkpt lat="62.50082" lon="6.47988">
        <ele>42.73154</ele>
        <time>2020-07-16T17:15:07.285Z</time>
      </trkpt>
      <trkpt lat="62.50076" lon="6.48037">
        <ele>42.344829</ele>
        <time>2020-07-16T17:15:10.834Z</time>
      </trkpt>
      <trkpt lat="62.50072" lon="6.4807">
        <ele>41.74357</ele>
        <time>2020-07-16T17:15:12.749Z</time>
      </trkpt>
      <trkpt lat="62.50051" lon="6.48252">
        <ele>37.605125</ele>
        <time>2020-07-16T17:15:23.620Z</time>
      </trkpt>
      <trkpt lat="62.50027" lon="6.48366">
        <ele>34.831877</ele>
        <time>2020-07-16T17:15:30.389Z</time>
      </trkpt>
      <trkpt lat="62.50017" lon="6.48452">
        <ele>33.032541</ele>
        <time>2020-07-16T17:15:35.209Z</time>
      </trkpt>
      <trkpt lat="62.50008" lon="6.48608">
        <ele>30.217954</ele>
        <time>2020-07-16T17:15:43.924Z</time>
      </trkpt>
      <trkpt lat="62.50011" lon="6.48766">
        <ele>27.377302</ele>
        <time>2020-07-16T17:15:53.415Z</time>
      </trkpt>
      <trkpt lat="62.50007" lon="6.48846">
        <ele>26.797063</ele>
        <time>2020-07-16T17:15:58.985Z</time>
      </trkpt>
      <trkpt lat="62.49982" lon="6.48943">
        <ele>27.063209</ele>
        <time>2020-07-16T17:16:09.996Z</time>
      </trkpt>
      <trkpt lat="62.49912" lon="6.49109">
        <ele>27.604028</ele>
        <time>2020-07-16T17:16:33.169Z</time>
      </trkpt>
      <trkpt lat="62.49909" lon="6.4912">
        <ele>27.616482</ele>
        <time>2020-07-16T17:16:35.745Z</time>
      </trkpt>
      <trkpt lat="62.499" lon="6.49154">
        <ele>27.401013</ele>
        <time>2020-07-16T17:16:38.573Z</time>
      </trkpt>
      <trkpt lat="62.49885" lon="6.49254">
        <ele>26.821358</ele>
        <time>2020-07-16T17:16:46.529Z</time>
      </trkpt>
      <trkpt lat="62.49882" lon="6.4937">
        <ele>26.183929</ele>
        <time>2020-07-16T17:16:54.726Z</time>
      </trkpt>
      <trkpt lat="62.49885" lon="6.49426">
        <ele>25.876016</ele>
        <time>2020-07-16T17:16:58.522Z</time>
      </trkpt>
      <trkpt lat="62.49891" lon="6.49519">
        <ele>25.194495</ele>
        <time>2020-07-16T17:17:04.008Z</time>
      </trkpt>
      <trkpt lat="62.49894" lon="6.49807">
        <ele>21.579417</ele>
        <time>2020-07-16T17:17:21.308Z</time>
      </trkpt>
      <trkpt lat="62.49881" lon="6.49861">
        <ele>20.816424</ele>
        <time>2020-07-16T17:17:25.500Z</time>
      </trkpt>
      <trkpt lat="62.49824" lon="6.49949">
        <ele>19.976667</ele>
        <time>2020-07-16T17:17:36.864Z</time>
      </trkpt>
      <trkpt lat="62.49801" lon="6.50014">
        <ele>19.599578</ele>
        <time>2020-07-16T17:17:42.905Z</time>
      </trkpt>
      <trkpt lat="62.49789" lon="6.50104">
        <ele>19.162662</ele>
        <time>2020-07-16T17:17:49.799Z</time>
      </trkpt>
      <trkpt lat="62.49783" lon="6.50209">
        <ele>18.601221</ele>
        <time>2020-07-16T17:17:57.275Z</time>
      </trkpt>
      <trkpt lat="62.49787" lon="6.5037">
        <ele>17.410595</ele>
        <time>2020-07-16T17:18:08.085Z</time>
      </trkpt>
      <trkpt lat="62.49797" lon="6.5042">
        <ele>17.012044</ele>
        <time>2020-07-16T17:18:11.600Z</time>
      </trkpt>
      <trkpt lat="62.49811" lon="6.50447">
        <ele>16.71682</ele>
        <time>2020-07-16T17:18:14.170Z</time>
      </trkpt>
      <trkpt lat="62.49856" lon="6.50476">
        <ele>15.96857</ele>
        <time>2020-07-16T17:18:20.755Z</time>
      </trkpt>
      <trkpt lat="62.49883" lon="6.50509">
        <ele>16.336485</ele>
        <time>2020-07-16T17:18:25.467Z</time>
      </trkpt>
      <trkpt lat="62.49925" lon="6.50682">
        <ele>17.622072</ele>
        <time>2020-07-16T17:18:43.025Z</time>
      </trkpt>
      <trkpt lat="62.49977" lon="6.50789">
        <ele>19.32881</ele>
        <time>2020-07-16T17:19:03.128Z</time>
      </trkpt>
      <trkpt lat="62.50038" lon="6.51158">
        <ele>32.842659</ele>
        <time>2020-07-16T17:20:23.472Z</time>
      </trkpt>
      <trkpt lat="62.50043" lon="6.51214">
        <ele>34.620912</ele>
        <time>2020-07-16T17:20:36.072Z</time>
      </trkpt>
      <trkpt lat="62.50049" lon="6.51273">
        <ele>36.541943</ele>
        <time>2020-07-16T17:20:49.080Z</time>
      </trkpt>
      <trkpt lat="62.50071" lon="6.51448">
        <ele>42.242991</ele>
        <time>2020-07-16T17:21:21.556Z</time>
      </trkpt>
      <trkpt lat="62.5008" lon="6.51488">
        <ele>43.61697</ele>
        <time>2020-07-16T17:21:29.837Z</time>
      </trkpt>
      <trkpt lat="62.50098" lon="6.51528">
        <ele>44.564776</ele>
        <time>2020-07-16T17:21:37.800Z</time>
      </trkpt>
      <trkpt lat="62.50152" lon="6.51597">
        <ele>45.72624</ele>
        <time>2020-07-16T17:21:51.771Z</time>
      </trkpt>
      <trkpt lat="62.50168" lon="6.5164">
        <ele>46.194255</ele>
        <time>2020-07-16T17:21:57.824Z</time>
      </trkpt>
      <trkpt lat="62.50171" lon="6.51656">
        <ele>46.342381</ele>
        <time>2020-07-16T17:21:58.927Z</time>
      </trkpt>
      <trkpt lat="62.50172" lon="6.51664">
        <ele>46.415614</ele>
        <time>2020-07-16T17:22:00.443Z</time>
      </trkpt>
      <trkpt lat="62.50167" lon="6.5183">
        <ele>47.576224</ele>
        <time>2020-07-16T17:22:16.047Z</time>
      </trkpt>
      <trkpt lat="62.50166" lon="6.51995">
        <ele>47.520618</ele>
        <time>2020-07-16T17:22:29.965Z</time>
      </trkpt>
      <trkpt lat="62.50166" lon="6.52007">
        <ele>47.516821</ele>
        <time>2020-07-16T17:22:30.939Z</time>
      </trkpt>
      <trkpt lat="62.50172" lon="6.52181">
        <ele>47.458048</ele>
        <time>2020-07-16T17:22:44.613Z</time>
      </trkpt>
      <trkpt lat="62.50159" lon="6.52304">
        <ele>47.953255</ele>
        <time>2020-07-16T17:22:53.430Z</time>
      </trkpt>
      <trkpt lat="62.50159" lon="6.52485">
        <ele>48.725628</ele>
        <time>2020-07-16T17:23:08.273Z</time>
      </trkpt>
      <trkpt lat="62.50155" lon="6.52528">
        <ele>48.911853</ele>
        <time>2020-07-16T17:23:13.784Z</time>
      </trkpt>
      <trkpt lat="62.50152" lon="6.52537">
        <ele>48.959435</ele>
        <time>2020-07-16T17:23:14.802Z</time>
      </trkpt>
      <trkpt lat="62.50141" lon="6.52557">
        <ele>49.089572</ele>
        <time>2020-07-16T17:23:20.173Z</time>
      </trkpt>
      <trkpt lat="62.50115" lon="6.52595">
        <ele>50.999382</ele>
        <time>2020-07-16T17:23:30.699Z</time>
      </trkpt>
      <trkpt lat="62.50072" lon="6.52745">
        <ele>56.274078</ele>
        <time>2020-07-16T17:24:01.090Z</time>
      </trkpt>
      <trkpt lat="62.50065" lon="6.52762">
        <ele>56.964436</ele>
        <time>2020-07-16T17:24:05.677Z</time>
      </trkpt>
      <trkpt lat="62.50057" lon="6.52778">
        <ele>57.666078</ele>
        <time>2020-07-16T17:24:10.804Z</time>
      </trkpt>
      <trkpt lat="62.50005" lon="6.52899">
        <ele>62.646794</ele>
        <time>2020-07-16T17:24:45.406Z</time>
      </trkpt>
      <trkpt lat="62.49971" lon="6.52948">
        <ele>65.391854</ele>
        <time>2020-07-16T17:25:02.809Z</time>
      </trkpt>
      <trkpt lat="62.49954" lon="6.53029">
        <ele>68.112191</ele>
        <time>2020-07-16T17:25:20.727Z</time>
      </trkpt>
      <trkpt lat="62.49951" lon="6.53049">
        <ele>68.763832</ele>
        <time>2020-07-16T17:25:24.895Z</time>
      </trkpt>
      <trkpt lat="62.49934" lon="6.53102">
        <ele>70.725244</ele>
        <time>2020-07-16T17:25:34.569Z</time>
      </trkpt>
      <trkpt lat="62.49897" lon="6.53176">
        <ele>72.773079</ele>
        <time>2020-07-16T17:25:50.843Z</time>
      </trkpt>
      <trkpt lat="62.49879" lon="6.53202">
        <ele>72.832446</ele>
        <time>2020-07-16T17:25:55.488Z</time>
      </trkpt>
      <trkpt lat="62.49864" lon="6.53221">
        <ele>72.881137</ele>
        <time>2020-07-16T17:26:00.745Z</time>
      </trkpt>
      <trkpt lat="62.49809" lon="6.53298">
        <ele>73.06681</ele>
        <time>2020-07-16T17:26:11.751Z</time>
      </trkpt>
      <trkpt lat="62.49803" lon="6.53309">
        <ele>73.087988</ele>
        <time>2020-07-16T17:26:13.702Z</time>
      </trkpt>
      <trkpt lat="62.49794" lon="6.53336">
        <ele>73.131462</ele>
        <time>2020-07-16T17:26:15.611Z</time>
      </trkpt>
      <trkpt lat="62.49749" lon="6.5345">
        <ele>71.853559</ele>
        <time>2020-07-16T17:26:24.856Z</time>
      </trkpt>
      <trkpt lat="62.49676" lon="6.53786">
        <ele>66.756565</ele>
        <time>2020-07-16T17:26:46.238Z</time>
      </trkpt>
      <trkpt lat="62.49669" lon="6.53813">
        <ele>66.795839</ele>
        <time>2020-07-16T17:26:48.440Z</time>
      </trkpt>
      <trkpt lat="62.4964" lon="6.53912">
        <ele>66.940333</ele>
        <time>2020-07-16T17:26:58.952Z</time>
      </trkpt>
      <trkpt lat="62.49618" lon="6.53973">
        <ele>67.035882</ele>
        <time>2020-07-16T17:27:06.814Z</time>
      </trkpt>
      <trkpt lat="62.4961" lon="6.53993">
        <ele>67.068677</ele>
        <time>2020-07-16T17:27:10.242Z</time>
      </trkpt>
      <trkpt lat="62.49567" lon="6.54072">
        <ele>68.108552</ele>
        <time>2020-07-16T17:27:24.564Z</time>
      </trkpt>
      <trkpt lat="62.49564" lon="6.54081">
        <ele>68.318773</ele>
        <time>2020-07-16T17:27:27.406Z</time>
      </trkpt>
      <trkpt lat="62.49557" lon="6.54105">
        <ele>68.884443</ele>
        <time>2020-07-16T17:27:31.498Z</time>
      </trkpt>
      <trkpt lat="62.49534" lon="6.54207">
        <ele>71.077234</ele>
        <time>2020-07-16T17:27:47.833Z</time>
      </trkpt>
      <trkpt lat="62.49525" lon="6.54322">
        <ele>73.339162</ele>
        <time>2020-07-16T17:28:06.116Z</time>
      </trkpt>
      <trkpt lat="62.49505" lon="6.54461">
        <ele>76.125658</ele>
        <time>2020-07-16T17:28:27.644Z</time>
      </trkpt>
      <trkpt lat="62.49501" lon="6.54608">
        <ele>78.904397</ele>
        <time>2020-07-16T17:28:49.673Z</time>
      </trkpt>
      <trkpt lat="62.49484" lon="6.54762">
        <ele>81.884641</ele>
        <time>2020-07-16T17:29:12.253Z</time>
      </trkpt>
      <trkpt lat="62.49482" lon="6.54932">
        <ele>81.89543</ele>
        <time>2020-07-16T17:29:32.249Z</time>
      </trkpt>
      <trkpt lat="62.49499" lon="6.55116">
        <ele>81.70154</ele>
        <time>2020-07-16T17:29:45.371Z</time>
      </trkpt>
      <trkpt lat="62.49517" lon="6.55222">
        <ele>79.300785</ele>
        <time>2020-07-16T17:29:51.888Z</time>
      </trkpt>
      <trkpt lat="62.49539" lon="6.55389">
        <ele>73.713641</ele>
        <time>2020-07-16T17:30:01.077Z</time>
      </trkpt>
      <trkpt lat="62.49623" lon="6.55764">
        <ele>57.455161</ele>
        <time>2020-07-16T17:30:22.285Z</time>
      </trkpt>
      <trkpt lat="62.49629" lon="6.55819">
        <ele>55.090953</ele>
        <time>2020-07-16T17:30:25.134Z</time>
      </trkpt>
      <trkpt lat="62.49631" lon="6.56007">
        <ele>48.526594</ele>
        <time>2020-07-16T17:30:34.885Z</time>
      </trkpt>
      <trkpt lat="62.49684" lon="6.56291">
        <ele>39.908213</ele>
        <time>2020-07-16T17:30:51.524Z</time>
      </trkpt>
      <trkpt lat="62.49687" lon="6.56358">
        <ele>39.211056</ele>
        <time>2020-07-16T17:30:55.431Z</time>
      </trkpt>
      <trkpt lat="62.49681" lon="6.56419">
        <ele>38.564743</ele>
        <time>2020-07-16T17:30:59.173Z</time>
      </trkpt>
      <trkpt lat="62.49679" lon="6.56456">
        <ele>38.175769</ele>
        <time>2020-07-16T17:31:01.437Z</time>
      </trkpt>
      <trkpt lat="62.49678" lon="6.56468">
        <ele>38.050397</ele>
        <time>2020-07-16T17:31:02.226Z</time>
      </trkpt>
      <trkpt lat="62.49677" lon="6.56544">
        <ele>37.258652</ele>
        <time>2020-07-16T17:31:07.492Z</time>
      </trkpt>
      <trkpt lat="62.49675" lon="6.5658">
        <ele>36.874297</ele>
        <time>2020-07-16T17:31:10.678Z</time>
      </trkpt>
      <trkpt lat="62.49673" lon="6.56622">
        <ele>36.435636</ele>
        <time>2020-07-16T17:31:13.697Z</time>
      </trkpt>
      <trkpt lat="62.49668" lon="6.56668">
        <ele>37.038413</ele>
        <time>2020-07-16T17:31:19.902Z</time>
      </trkpt>
      <trkpt lat="62.49659" lon="6.56745">
        <ele>38.643559</ele>
        <time>2020-07-16T17:31:29.825Z</time>
      </trkpt>
      <trkpt lat="62.49655" lon="6.56771">
        <ele>39.199294</ele>
        <time>2020-07-16T17:31:32.668Z</time>
      </trkpt>
      <trkpt lat="62.49648" lon="6.56805">
        <ele>39.941552</ele>
        <time>2020-07-16T17:31:39.363Z</time>
      </trkpt>
      <trkpt lat="62.49624" lon="6.56921">
        <ele>42.498039</ele>
        <time>2020-07-16T17:31:58.494Z</time>
      </trkpt>
      <trkpt lat="62.49622" lon="6.56936">
        <ele>42.797919</ele>
        <time>2020-07-16T17:32:01.832Z</time>
      </trkpt>
      <trkpt lat="62.49619" lon="6.5695">
        <ele>43.096155</ele>
        <time>2020-07-16T17:32:05.099Z</time>
      </trkpt>
      <trkpt lat="62.49615" lon="6.57061">
        <ele>45.819072</ele>
        <time>2020-07-16T17:32:24.870Z</time>
      </trkpt>
      <trkpt lat="62.49639" lon="6.57219">
        <ele>50.532826</ele>
        <time>2020-07-16T17:32:56.484Z</time>
      </trkpt>
      <trkpt lat="62.49652" lon="6.57383">
        <ele>55.215213</ele>
        <time>2020-07-16T17:33:25.284Z</time>
      </trkpt>
      <trkpt lat="62.49696" lon="6.57608">
        <ele>56.974967</ele>
        <time>2020-07-16T17:33:54.846Z</time>
      </trkpt>
      <trkpt lat="62.4976" lon="6.58141">
        <ele>55.58241</ele>
        <time>2020-07-16T17:34:32.712Z</time>
      </trkpt>
      <trkpt lat="62.49764" lon="6.58385">
        <ele>54.67747</ele>
        <time>2020-07-16T17:34:50.618Z</time>
      </trkpt>
      <trkpt lat="62.49776" lon="6.58537">
        <ele>54.019548</ele>
        <time>2020-07-16T17:35:02.435Z</time>
      </trkpt>
      <trkpt lat="62.49794" lon="6.58616">
        <ele>53.411453</ele>
        <time>2020-07-16T17:35:08.971Z</time>
      </trkpt>
      <trkpt lat="62.49895" lon="6.58931">
        <ele>49.375764</ele>
        <time>2020-07-16T17:35:34.322Z</time>
      </trkpt>
      <trkpt lat="62.49911" lon="6.59024">
        <ele>47.423666</ele>
        <time>2020-07-16T17:35:40.184Z</time>
      </trkpt>
      <trkpt lat="62.49914" lon="6.59091">
        <ele>46.110892</ele>
        <time>2020-07-16T17:35:43.821Z</time>
      </trkpt>
      <trkpt lat="62.49914" lon="6.59107">
        <ele>45.789907</ele>
        <time>2020-07-16T17:35:45.039Z</time>
      </trkpt>
      <trkpt lat="62.49913" lon="6.59118">
        <ele>45.578677</ele>
        <time>2020-07-16T17:35:45.555Z</time>
      </trkpt>
      <trkpt lat="62.49883" lon="6.59446">
        <ele>38.119325</ele>
        <time>2020-07-16T17:36:03.662Z</time>
      </trkpt>
      <trkpt lat="62.49872" lon="6.59504">
        <ele>36.66147</ele>
        <time>2020-07-16T17:36:07.180Z</time>
      </trkpt>
      <trkpt lat="62.49862" lon="6.5952">
        <ele>36.032201</ele>
        <time>2020-07-16T17:36:08.798Z</time>
      </trkpt>
      <trkpt lat="62.49843" lon="6.59526">
        <ele>35.084042</ele>
        <time>2020-07-16T17:36:11.243Z</time>
      </trkpt>
      <trkpt lat="62.4977" lon="6.59504">
        <ele>35.615864</ele>
        <time>2020-07-16T17:36:22.426Z</time>
      </trkpt>
      <trkpt lat="62.49748" lon="6.59509">
        <ele>35.865391</ele>
        <time>2020-07-16T17:36:26.834Z</time>
      </trkpt>
      <trkpt lat="62.49736" lon="6.59529">
        <ele>36.04364</ele>
        <time>2020-07-16T17:36:29.857Z</time>
      </trkpt>
      <trkpt lat="62.49703" lon="6.5964">
        <ele>36.746108</ele>
        <time>2020-07-16T17:36:48.062Z</time>
      </trkpt>
      <trkpt lat="62.4969" lon="6.5966">
        <ele>37.004409</ele>
        <time>2020-07-16T17:36:53.227Z</time>
      </trkpt>
      <trkpt lat="62.49666" lon="6.59674">
        <ele>38.005619</ele>
        <time>2020-07-16T17:37:02.119Z</time>
      </trkpt>
      <trkpt lat="62.49656" lon="6.59675">
        <ele>38.399961</ele>
        <time>2020-07-16T17:37:05.682Z</time>
      </trkpt>
      <trkpt lat="62.49647" lon="6.59673">
        <ele>38.760195</ele>
        <time>2020-07-16T17:37:09.581Z</time>
      </trkpt>
      <trkpt lat="62.49637" lon="6.59665">
        <ele>39.19665</ele>
        <time>2020-07-16T17:37:13.447Z</time>
      </trkpt>
      <trkpt lat="62.496" lon="6.59623">
        <ele>40.83804</ele>
        <time>2020-07-16T17:37:27.313Z</time>
      </trkpt>
      <trkpt lat="62.49595" lon="6.59616">
        <ele>41.079183</ele>
        <time>2020-07-16T17:37:29.181Z</time>
      </trkpt>
      <trkpt lat="62.49585" lon="6.59598">
        <ele>41.589201</ele>
        <time>2020-07-16T17:37:33.876Z</time>
      </trkpt>
      <trkpt lat="62.49544" lon="6.59518">
        <ele>43.791156</ele>
        <time>2020-07-16T17:37:47.997Z</time>
      </trkpt>
      <trkpt lat="62.49528" lon="6.59516">
        <ele>43.950132</ele>
        <time>2020-07-16T17:37:52.607Z</time>
      </trkpt>
      <trkpt lat="62.49514" lon="6.59531">
        <ele>43.78202</ele>
        <time>2020-07-16T17:37:55.507Z</time>
      </trkpt>
      <trkpt lat="62.49503" lon="6.59579">
        <ele>43.509944</ele>
        <time>2020-07-16T17:38:01.796Z</time>
      </trkpt>
      <trkpt lat="62.49444" lon="6.59974">
        <ele>41.120039</ele>
        <time>2020-07-16T17:38:27.886Z</time>
      </trkpt>
      <trkpt lat="62.49433" lon="6.60022">
        <ele>40.731329</ele>
        <time>2020-07-16T17:38:31.281Z</time>
      </trkpt>
      <trkpt lat="62.49414" lon="6.60052">
        <ele>40.36366</ele>
        <time>2020-07-16T17:38:34.636Z</time>
      </trkpt>
      <trkpt lat="62.49343" lon="6.60094">
        <ele>39.263184</ele>
        <time>2020-07-16T17:38:46.582Z</time>
      </trkpt>
      <trkpt lat="62.49306" lon="6.60135">
        <ele>39.111719</ele>
        <time>2020-07-16T17:38:54.820Z</time>
      </trkpt>
      <trkpt lat="62.49215" lon="6.60316">
        <ele>38.658329</ele>
        <time>2020-07-16T17:39:16.453Z</time>
      </trkpt>
      <trkpt lat="62.49205" lon="6.60348">
        <ele>38.390674</ele>
        <time>2020-07-16T17:39:19.082Z</time>
      </trkpt>
      <trkpt lat="62.49203" lon="6.60357">
        <ele>38.2444</ele>
        <time>2020-07-16T17:39:19.677Z</time>
      </trkpt>
      <trkpt lat="62.49202" lon="6.60371">
        <ele>38.027888</ele>
        <time>2020-07-16T17:39:20.697Z</time>
      </trkpt>
      <trkpt lat="62.49201" lon="6.60389">
        <ele>37.748104</ele>
        <time>2020-07-16T17:39:21.940Z</time>
      </trkpt>
      <trkpt lat="62.49198" lon="6.60409">
        <ele>37.43243</ele>
        <time>2020-07-16T17:39:23.317Z</time>
      </trkpt>
      <trkpt lat="62.49194" lon="6.60454">
        <ele>36.741205</ele>
        <time>2020-07-16T17:39:26.205Z</time>
      </trkpt>
      <trkpt lat="62.49205" lon="6.60454">
        <ele>36.38322</ele>
        <time>2020-07-16T17:39:27.654Z</time>
      </trkpt>
      <trkpt lat="62.49207" lon="6.60454">
        <ele>36.314256</ele>
        <time>2020-07-16T17:39:27.944Z</time>
      </trkpt>
      <trkpt lat="62.49219" lon="6.60453">
        <ele>35.943052</ele>
        <time>2020-07-16T17:39:29.388Z</time>
      </trkpt>
      <trkpt lat="62.49317" lon="6.60407">
        <ele>32.643272</ele>
        <time>2020-07-16T17:39:41.794Z</time>
      </trkpt>
      <trkpt lat="62.49345" lon="6.60405">
        <ele>31.600896</ele>
        <time>2020-07-16T17:39:45.260Z</time>
      </trkpt>
      <trkpt lat="62.494" lon="6.60431">
        <ele>29.568425</ele>
        <time>2020-07-16T17:39:52.122Z</time>
      </trkpt>
      <trkpt lat="62.4944" lon="6.60484">
        <ele>27.837398</ele>
        <time>2020-07-16T17:39:58.242Z</time>
      </trkpt>
      <trkpt lat="62.49466" lon="6.60545">
        <ele>26.434338</ele>
        <time>2020-07-16T17:40:03.389Z</time>
      </trkpt>
      <trkpt lat="62.49482" lon="6.60607">
        <ele>25.713398</ele>
        <time>2020-07-16T17:40:07.961Z</time>
      </trkpt>
      <trkpt lat="62.49543" lon="6.61">
        <ele>22.320769</ele>
        <time>2020-07-16T17:40:36.177Z</time>
      </trkpt>
      <trkpt lat="62.49568" lon="6.61098">
        <ele>21.322345</ele>
        <time>2020-07-16T17:40:43.556Z</time>
      </trkpt>
      <trkpt lat="62.49574" lon="6.61113">
        <ele>21.140875</ele>
        <time>2020-07-16T17:40:44.977Z</time>
      </trkpt>
      <trkpt lat="62.49577" lon="6.61122">
        <ele>21.033629</ele>
        <time>2020-07-16T17:40:45.584Z</time>
      </trkpt>
      <trkpt lat="62.49622" lon="6.61188">
        <ele>19.980749</ele>
        <time>2020-07-16T17:40:53.211Z</time>
      </trkpt>
      <trkpt lat="62.49719" lon="6.61268">
        <ele>19.436105</ele>
        <time>2020-07-16T17:41:08.025Z</time>
      </trkpt>
      <trkpt lat="62.49757" lon="6.61338">
        <ele>19.381612</ele>
        <time>2020-07-16T17:41:18.201Z</time>
      </trkpt>
      <trkpt lat="62.49775" lon="6.61398">
        <ele>19.345671</ele>
        <time>2020-07-16T17:41:25.869Z</time>
      </trkpt>
      <trkpt lat="62.49835" lon="6.61662">
        <ele>20.249609</ele>
        <time>2020-07-16T17:41:58.571Z</time>
      </trkpt>
      <trkpt lat="62.49945" lon="6.62053">
        <ele>17.478833</ele>
        <time>2020-07-16T17:42:30.235Z</time>
      </trkpt>
      <trkpt lat="62.49972" lon="6.62151">
        <ele>15.622278</ele>
        <time>2020-07-16T17:42:36.718Z</time>
      </trkpt>
      <trkpt lat="62.49985" lon="6.62196">
        <ele>14.382739</ele>
        <time>2020-07-16T17:42:39.588Z</time>
      </trkpt>
      <trkpt lat="62.49988" lon="6.62194">
        <ele>14.231289</ele>
        <time>2020-07-16T17:42:39.944Z</time>
      </trkpt>
      <trkpt lat="62.49992" lon="6.6219">
        <ele>13.969373</ele>
        <time>2020-07-16T17:42:40.641Z</time>
      </trkpt>
      <trkpt lat="62.49998" lon="6.62187">
        <ele>13.695323</ele>
        <time>2020-07-16T17:42:41.317Z</time>
      </trkpt>
      <trkpt lat="62.49998" lon="6.62194">
        <ele>13.527907</ele>
        <time>2020-07-16T17:42:41.667Z</time>
      </trkpt>
      <trkpt lat="62.50004" lon="6.62235">
        <ele>12.515646</ele>
        <time>2020-07-16T17:42:44.256Z</time>
      </trkpt>
      <trkpt lat="62.50027" lon="6.62301">
        <ele>10.571347</ele>
        <time>2020-07-16T17:42:48.968Z</time>
      </trkpt>
      <trkpt lat="62.5006" lon="6.6237">
        <ele>8.218145</ele>
        <time>2020-07-16T17:42:54.811Z</time>
      </trkpt>
      <trkpt lat="62.50103" lon="6.62414">
        <ele>7.510711</ele>
        <time>2020-07-16T17:43:00.876Z</time>
      </trkpt>
      <trkpt lat="62.50147" lon="6.62424">
        <ele>7.294616</ele>
        <time>2020-07-16T17:43:07.859Z</time>
      </trkpt>
      <trkpt lat="62.50165" lon="6.62421">
        <ele>7.204811</ele>
        <time>2020-07-16T17:43:11.207Z</time>
      </trkpt>
      <trkpt lat="62.50165" lon="6.62426">
        <ele>7.192271</ele>
        <time>2020-07-16T17:43:11.661Z</time>
      </trkpt>
      <trkpt lat="62.50168" lon="6.62434">
        <ele>7.171123</ele>
        <time>2020-07-16T17:43:12.462Z</time>
      </trkpt>
      <trkpt lat="62.50177" lon="6.6243">
        <ele>7.125466</ele>
        <time>2020-07-16T17:43:14.063Z</time>
      </trkpt>
      <trkpt lat="62.50188" lon="6.62423">
        <ele>7.069767</ele>
        <time>2020-07-16T17:43:16.111Z</time>
      </trkpt>
      <trkpt lat="62.50197" lon="6.62418">
        <ele>7.021147</ele>
        <time>2020-07-16T17:43:18.020Z</time>
      </trkpt>
      <trkpt lat="62.50434" lon="6.62249">
        <ele>15.671765</ele>
        <time>2020-07-16T17:44:32.398Z</time>
      </trkpt>
      <trkpt lat="62.50447" lon="6.6224">
        <ele>16.688951</ele>
        <time>2020-07-16T17:44:37.633Z</time>
      </trkpt>
      <trkpt lat="62.50449" lon="6.62238">
        <ele>16.880178</ele>
        <time>2020-07-16T17:44:38.821Z</time>
      </trkpt>
      <trkpt lat="62.50468" lon="6.62227">
        <ele>18.323737</ele>
        <time>2020-07-16T17:44:48.471Z</time>
      </trkpt>
      <trkpt lat="62.50484" lon="6.6222">
        <ele>19.505411</ele>
        <time>2020-07-16T17:44:54.874Z</time>
      </trkpt>
      <trkpt lat="62.50496" lon="6.62217">
        <ele>20.357286</ele>
        <time>2020-07-16T17:45:00.522Z</time>
      </trkpt>
      <trkpt lat="62.50512" lon="6.62214">
        <ele>21.578415</ele>
        <time>2020-07-16T17:45:08.320Z</time>
      </trkpt>
      <trkpt lat="62.50521" lon="6.62214">
        <ele>22.187501</ele>
        <time>2020-07-16T17:45:11.606Z</time>
      </trkpt>
      <trkpt lat="62.5053" lon="6.62215">
        <ele>22.870244</ele>
        <time>2020-07-16T17:45:16.192Z</time>
      </trkpt>
      <trkpt lat="62.50539" lon="6.62215">
        <ele>23.552862</ele>
        <time>2020-07-16T17:45:21.172Z</time>
      </trkpt>
      <trkpt lat="62.50586" lon="6.62235">
        <ele>27.037592</ele>
        <time>2020-07-16T17:45:43.019Z</time>
      </trkpt>
      <trkpt lat="62.50722" lon="6.62354">
        <ele>35.201885</ele>
        <time>2020-07-16T17:46:37.668Z</time>
      </trkpt>
      <trkpt lat="62.50792" lon="6.62392">
        <ele>37.893619</ele>
        <time>2020-07-16T17:46:55.950Z</time>
      </trkpt>
      <trkpt lat="62.5086" lon="6.62395">
        <ele>39.416889</ele>
        <time>2020-07-16T17:47:12.902Z</time>
      </trkpt>
      <trkpt lat="62.50905" lon="6.62378">
        <ele>40.433923</ele>
        <time>2020-07-16T17:47:23.880Z</time>
      </trkpt>
      <trkpt lat="62.50953" lon="6.62343">
        <ele>41.060253</ele>
        <time>2020-07-16T17:47:35.463Z</time>
      </trkpt>
      <trkpt lat="62.50971" lon="6.62325">
        <ele>41.093961</ele>
        <time>2020-07-16T17:47:40.295Z</time>
      </trkpt>
      <trkpt lat="62.50972" lon="6.6233">
        <ele>41.098699</ele>
        <time>2020-07-16T17:47:41.081Z</time>
      </trkpt>
      <trkpt lat="62.50975" lon="6.62346">
        <ele>41.112408</ele>
        <time>2020-07-16T17:47:42.881Z</time>
      </trkpt>
      <trkpt lat="62.50979" lon="6.62362">
        <ele>41.126432</ele>
        <time>2020-07-16T17:47:44.996Z</time>
      </trkpt>
      <trkpt lat="62.50981" lon="6.6236">
        <ele>41.129639</ele>
        <time>2020-07-16T17:47:45.964Z</time>
      </trkpt>
      <trkpt lat="62.51056" lon="6.62271">
        <ele>41.276047</ele>
        <time>2020-07-16T17:48:02.342Z</time>
      </trkpt>
      <trkpt lat="62.51063" lon="6.62228">
        <ele>41.311998</ele>
        <time>2020-07-16T17:48:05.436Z</time>
      </trkpt>
      <trkpt lat="62.51062" lon="6.62218">
        <ele>41.320472</ele>
        <time>2020-07-16T17:48:06.630Z</time>
      </trkpt>
      <trkpt lat="62.51058" lon="6.62198">
        <ele>41.184917</ele>
        <time>2020-07-16T17:48:08.014Z</time>
      </trkpt>
      <trkpt lat="62.51057" lon="6.62194">
        <ele>41.136017</ele>
        <time>2020-07-16T17:48:08.284Z</time>
      </trkpt>
      <trkpt lat="62.51056" lon="6.62183">
        <ele>41.002396</ele>
        <time>2020-07-16T17:48:09.049Z</time>
      </trkpt>
      <trkpt lat="62.51055" lon="6.62167">
        <ele>40.816712</ele>
        <time>2020-07-16T17:48:10.040Z</time>
      </trkpt>
      <trkpt lat="62.5107" lon="6.62093">
        <ele>39.893569</ele>
        <time>2020-07-16T17:48:15.256Z</time>
      </trkpt>
      <trkpt lat="62.5108" lon="6.62045">
        <ele>39.295337</ele>
        <time>2020-07-16T17:48:18.590Z</time>
      </trkpt>
      <trkpt lat="62.51108" lon="6.61901">
        <ele>37.501042</ele>
        <time>2020-07-16T17:48:28.512Z</time>
      </trkpt>
      <trkpt lat="62.51119" lon="6.61818">
        <ele>37.425494</ele>
        <time>2020-07-16T17:48:34.184Z</time>
      </trkpt>
      <trkpt lat="62.51124" lon="6.61637">
        <ele>40.824302</ele>
        <time>2020-07-16T17:48:49.358Z</time>
      </trkpt>
      <trkpt lat="62.51134" lon="6.61582">
        <ele>41.913323</ele>
        <time>2020-07-16T17:49:02.122Z</time>
      </trkpt>
      <trkpt lat="62.51151" lon="6.6153">
        <ele>43.122369</ele>
        <time>2020-07-16T17:49:17.352Z</time>
      </trkpt>
      <trkpt lat="62.51176" lon="6.6149">
        <ele>44.82431</ele>
        <time>2020-07-16T17:49:32.543Z</time>
      </trkpt>
      <trkpt lat="62.51202" lon="6.61472">
        <ele>48.258238</ele>
        <time>2020-07-16T17:49:46.697Z</time>
      </trkpt>
      <trkpt lat="62.51231" lon="6.61473">
        <ele>51.933702</ele>
        <time>2020-07-16T17:50:03.076Z</time>
      </trkpt>
      <trkpt lat="62.51245" lon="6.61481">
        <ele>53.708216</ele>
        <time>2020-07-16T17:50:12.537Z</time>
      </trkpt>
      <trkpt lat="62.51249" lon="6.61485">
        <ele>54.297244</ele>
        <time>2020-07-16T17:50:16.849Z</time>
      </trkpt>
      <trkpt lat="62.51274" lon="6.61522">
        <ele>58.067728</ele>
        <time>2020-07-16T17:50:33.705Z</time>
      </trkpt>
      <trkpt lat="62.51384" lon="6.61744">
        <ele>73.677167</ele>
        <time>2020-07-16T17:52:07.831Z</time>
      </trkpt>
      <trkpt lat="62.51419" lon="6.61821">
        <ele>77.930286</ele>
        <time>2020-07-16T17:52:27.940Z</time>
      </trkpt>
      <trkpt lat="62.51444" lon="6.61876">
        <ele>80.945593</ele>
        <time>2020-07-16T17:52:39.052Z</time>
      </trkpt>
      <trkpt lat="62.51497" lon="6.61989">
        <ele>80.65664</ele>
        <time>2020-07-16T17:52:54.883Z</time>
      </trkpt>
      <trkpt lat="62.51576" lon="6.62127">
        <ele>78.395554</ele>
        <time>2020-07-16T17:53:07.989Z</time>
      </trkpt>
      <trkpt lat="62.51655" lon="6.62229">
        <ele>76.37727</ele>
        <time>2020-07-16T17:53:19.866Z</time>
      </trkpt>
      <trkpt lat="62.51658" lon="6.62265">
        <ele>76.014208</ele>
        <time>2020-07-16T17:53:22.325Z</time>
      </trkpt>
      <trkpt lat="62.51649" lon="6.62286">
        <ele>75.734581</ele>
        <time>2020-07-16T17:53:23.968Z</time>
      </trkpt>
      <trkpt lat="62.51661" lon="6.6231">
        <ele>75.382991</ele>
        <time>2020-07-16T17:53:26.802Z</time>
      </trkpt>
      <trkpt lat="62.51829" lon="6.6273">
        <ele>74.552612</ele>
        <time>2020-07-16T17:54:18.571Z</time>
      </trkpt>
      <trkpt lat="62.51841" lon="6.62757">
        <ele>74.095551</ele>
        <time>2020-07-16T17:54:21.319Z</time>
      </trkpt>
      <trkpt lat="62.51842" lon="6.6276">
        <ele>74.05176</ele>
        <time>2020-07-16T17:54:21.580Z</time>
      </trkpt>
      <trkpt lat="62.5188" lon="6.62837">
        <ele>72.656088</ele>
        <time>2020-07-16T17:54:28.829Z</time>
      </trkpt>
      <trkpt lat="62.51889" lon="6.62853">
        <ele>72.341054</ele>
        <time>2020-07-16T17:54:30.418Z</time>
      </trkpt>
      <trkpt lat="62.51915" lon="6.62893">
        <ele>71.470737</ele>
        <time>2020-07-16T17:54:34.574Z</time>
      </trkpt>
      <trkpt lat="62.51951" lon="6.62943">
        <ele>70.314785</ele>
        <time>2020-07-16T17:54:39.859Z</time>
      </trkpt>
      <trkpt lat="62.52007" lon="6.63019">
        <ele>66.922046</ele>
        <time>2020-07-16T17:54:47.604Z</time>
      </trkpt>
      <trkpt lat="62.5206" lon="6.63092">
        <ele>63.583941</ele>
        <time>2020-07-16T17:54:54.904Z</time>
      </trkpt>
      <trkpt lat="62.52075" lon="6.63111">
        <ele>62.633505</ele>
        <time>2020-07-16T17:54:57.036Z</time>
      </trkpt>
      <trkpt lat="62.52088" lon="6.63124">
        <ele>61.876992</ele>
        <time>2020-07-16T17:54:58.740Z</time>
      </trkpt>
      <trkpt lat="62.52112" lon="6.63143">
        <ele>60.51554</ele>
        <time>2020-07-16T17:55:01.906Z</time>
      </trkpt>
      <trkpt lat="62.52116" lon="6.63146">
        <ele>60.372644</ele>
        <time>2020-07-16T17:55:02.463Z</time>
      </trkpt>
      <trkpt lat="62.52128" lon="6.63152">
        <ele>60.000562</ele>
        <time>2020-07-16T17:55:03.985Z</time>
      </trkpt>
      <trkpt lat="62.52146" lon="6.63157">
        <ele>59.428759</ele>
        <time>2020-07-16T17:55:06.326Z</time>
      </trkpt>
      <trkpt lat="62.52177" lon="6.63158">
        <ele>58.48212</ele>
        <time>2020-07-16T17:55:10.266Z</time>
      </trkpt>
      <trkpt lat="62.52213" lon="6.63145">
        <ele>57.368927</ele>
        <time>2020-07-16T17:55:14.996Z</time>
      </trkpt>
      <trkpt lat="62.52288" lon="6.63103">
        <ele>54.981803</ele>
        <time>2020-07-16T17:55:25.750Z</time>
      </trkpt>
      <trkpt lat="62.52327" lon="6.63081">
        <ele>54.333709</ele>
        <time>2020-07-16T17:55:31.707Z</time>
      </trkpt>
      <trkpt lat="62.52351" lon="6.63069">
        <ele>53.944571</ele>
        <time>2020-07-16T17:55:35.282Z</time>
      </trkpt>
      <trkpt lat="62.52361" lon="6.63064">
        <ele>53.785248</ele>
        <time>2020-07-16T17:55:36.724Z</time>
      </trkpt>
      <trkpt lat="62.52397" lon="6.6305">
        <ele>53.203414</ele>
        <time>2020-07-16T17:55:42.055Z</time>
      </trkpt>
      <trkpt lat="62.52457" lon="6.63035">
        <ele>52.234495</ele>
        <time>2020-07-16T17:55:51.011Z</time>
      </trkpt>
      <trkpt lat="62.52489" lon="6.63031">
        <ele>52.065604</ele>
        <time>2020-07-16T17:55:55.796Z</time>
      </trkpt>
      <trkpt lat="62.52522" lon="6.63031">
        <ele>51.984366</ele>
        <time>2020-07-16T17:56:00.831Z</time>
      </trkpt>
      <trkpt lat="62.52547" lon="6.63033">
        <ele>51.924061</ele>
        <time>2020-07-16T17:56:04.689Z</time>
      </trkpt>
      <trkpt lat="62.52551" lon="6.63034">
        <ele>51.912196</ele>
        <time>2020-07-16T17:56:05.378Z</time>
      </trkpt>
      <trkpt lat="62.52939" lon="6.63132">
        <ele>52.858618</ele>
        <time>2020-07-16T17:57:15.654Z</time>
      </trkpt>
      <trkpt lat="62.52997" lon="6.63123">
        <ele>53.664847</ele>
        <time>2020-07-16T17:57:32.132Z</time>
      </trkpt>
      <trkpt lat="62.53039" lon="6.63079">
        <ele>56.009729</ele>
        <time>2020-07-16T17:57:46.929Z</time>
      </trkpt>
      <trkpt lat="62.5306" lon="6.63038">
        <ele>57.533915</ele>
        <time>2020-07-16T17:57:56.722Z</time>
      </trkpt>
      <trkpt lat="62.53084" lon="6.62957">
        <ele>59.920013</ele>
        <time>2020-07-16T17:58:12.989Z</time>
      </trkpt>
      <trkpt lat="62.53107" lon="6.6277">
        <ele>64.886839</ele>
        <time>2020-07-16T17:58:47.146Z</time>
      </trkpt>
      <trkpt lat="62.53118" lon="6.62396">
        <ele>74.809096</ele>
        <time>2020-07-16T17:59:51.675Z</time>
      </trkpt>
      <trkpt lat="62.5311" lon="6.62168">
        <ele>78.172101</ele>
        <time>2020-07-16T18:00:26.881Z</time>
      </trkpt>
      <trkpt lat="62.53102" lon="6.62076">
        <ele>79.55312</ele>
        <time>2020-07-16T18:00:36.941Z</time>
      </trkpt>
      <trkpt lat="62.531" lon="6.62031">
        <ele>79.63068</ele>
        <time>2020-07-16T18:00:39.756Z</time>
      </trkpt>
      <trkpt lat="62.53107" lon="6.61888">
        <ele>76.378122</ele>
        <time>2020-07-16T18:00:48.299Z</time>
      </trkpt>
      <trkpt lat="62.53119" lon="6.61815">
        <ele>74.629952</ele>
        <time>2020-07-16T18:00:52.603Z</time>
      </trkpt>
      <trkpt lat="62.53127" lon="6.61783">
        <ele>73.827082</ele>
        <time>2020-07-16T18:00:54.576Z</time>
      </trkpt>
      <trkpt lat="62.53136" lon="6.61752">
        <ele>72.9772</ele>
        <time>2020-07-16T18:00:56.506Z</time>
      </trkpt>
      <trkpt lat="62.53173" lon="6.61651">
        <ele>69.728427</ele>
        <time>2020-07-16T18:01:03.121Z</time>
      </trkpt>
      <trkpt lat="62.53395" lon="6.61141">
        <ele>50.502111</ele>
        <time>2020-07-16T18:01:41.153Z</time>
      </trkpt>
      <trkpt lat="62.53431" lon="6.61047">
        <ele>48.798735</ele>
        <time>2020-07-16T18:01:48.814Z</time>
      </trkpt>
      <trkpt lat="62.53439" lon="6.61027">
        <ele>48.522366</ele>
        <time>2020-07-16T18:01:50.488Z</time>
      </trkpt>
      <trkpt lat="62.53457" lon="6.60975">
        <ele>47.846247</ele>
        <time>2020-07-16T18:01:54.798Z</time>
      </trkpt>
      <trkpt lat="62.53479" lon="6.60905">
        <ele>46.978708</ele>
        <time>2020-07-16T18:02:00.389Z</time>
      </trkpt>
      <trkpt lat="62.53482" lon="6.60896">
        <ele>46.858124</ele>
        <time>2020-07-16T18:02:01.170Z</time>
      </trkpt>
      <trkpt lat="62.53479" lon="6.60892">
        <ele>46.780433</ele>
        <time>2020-07-16T18:02:01.628Z</time>
      </trkpt>
      <trkpt lat="62.53471" lon="6.60876">
        <ele>46.533553</ele>
        <time>2020-07-16T18:02:03.530Z</time>
      </trkpt>
      <trkpt lat="62.53469" lon="6.6085">
        <ele>46.259475</ele>
        <time>2020-07-16T18:02:05.733Z</time>
      </trkpt>
      <trkpt lat="62.53466" lon="6.60846">
        <ele>46.170517</ele>
        <time>2020-07-16T18:02:06.300Z</time>
      </trkpt>
      <trkpt lat="62.53471" lon="6.60822">
        <ele>45.900448</ele>
        <time>2020-07-16T18:02:07.996Z</time>
      </trkpt>
      <trkpt lat="62.53487" lon="6.60708">
        <ele>44.508592</ele>
        <time>2020-07-16T18:02:16.082Z</time>
      </trkpt>
      <trkpt lat="62.5348" lon="6.60489">
        <ele>41.906919</ele>
        <time>2020-07-16T18:02:29.493Z</time>
      </trkpt>
      <trkpt lat="62.53478" lon="6.60416">
        <ele>41.02445</ele>
        <time>2020-07-16T18:02:33.987Z</time>
      </trkpt>
      <trkpt lat="62.53468" lon="6.60166">
        <ele>37.113882</ele>
        <time>2020-07-16T18:02:49.072Z</time>
      </trkpt>
      <trkpt lat="62.53462" lon="6.59967">
        <ele>34.00831</ele>
        <time>2020-07-16T18:03:00.815Z</time>
      </trkpt>
      <trkpt lat="62.53459" lon="6.59892">
        <ele>32.822848</ele>
        <time>2020-07-16T18:03:05.300Z</time>
      </trkpt>
      <trkpt lat="62.53454" lon="6.59776">
        <ele>31.001269</ele>
        <time>2020-07-16T18:03:12.255Z</time>
      </trkpt>
      <trkpt lat="62.53449" lon="6.59637">
        <ele>28.820824</ele>
        <time>2020-07-16T18:03:20.673Z</time>
      </trkpt>
      <trkpt lat="62.5344" lon="6.59421">
        <ele>25.691492</ele>
        <time>2020-07-16T18:03:33.788Z</time>
      </trkpt>
      <trkpt lat="62.53431" lon="6.59337">
        <ele>24.445967</ele>
        <time>2020-07-16T18:03:39.072Z</time>
      </trkpt>
      <trkpt lat="62.53427" lon="6.59316">
        <ele>24.1249</ele>
        <time>2020-07-16T18:03:40.382Z</time>
      </trkpt>
      <trkpt lat="62.53419" lon="6.59275">
        <ele>23.473572</ele>
        <time>2020-07-16T18:03:43.237Z</time>
      </trkpt>
      <trkpt lat="62.53413" lon="6.59245">
        <ele>23.046031</ele>
        <time>2020-07-16T18:03:45.106Z</time>
      </trkpt>
      <trkpt lat="62.53409" lon="6.59225">
        <ele>22.77981</ele>
        <time>2020-07-16T18:03:46.448Z</time>
      </trkpt>
      <trkpt lat="62.53403" lon="6.59198">
        <ele>22.41445</ele>
        <time>2020-07-16T18:03:48.415Z</time>
      </trkpt>
      <trkpt lat="62.53385" lon="6.59102">
        <ele>21.139215</ele>
        <time>2020-07-16T18:03:54.575Z</time>
      </trkpt>
      <trkpt lat="62.53369" lon="6.59028">
        <ele>20.127777</ele>
        <time>2020-07-16T18:03:59.596Z</time>
      </trkpt>
      <trkpt lat="62.53358" lon="6.58979">
        <ele>19.472799</ele>
        <time>2020-07-16T18:04:03.122Z</time>
      </trkpt>
      <trkpt lat="62.53358" lon="6.5897">
        <ele>19.356234</ele>
        <time>2020-07-16T18:04:03.657Z</time>
      </trkpt>
      <trkpt lat="62.53359" lon="6.58961">
        <ele>19.24912</ele>
        <time>2020-07-16T18:04:04.170Z</time>
      </trkpt>
      <trkpt lat="62.53376" lon="6.58919">
        <ele>18.565957</ele>
        <time>2020-07-16T18:04:07.899Z</time>
      </trkpt>
      <trkpt lat="62.53388" lon="6.589">
        <ele>18.5921</ele>
        <time>2020-07-16T18:04:09.874Z</time>
      </trkpt>
      <trkpt lat="62.53438" lon="6.58819">
        <ele>19.07247</ele>
        <time>2020-07-16T18:04:20.630Z</time>
      </trkpt>
      <trkpt lat="62.53456" lon="6.58792">
        <ele>19.242876</ele>
        <time>2020-07-16T18:04:24.872Z</time>
      </trkpt>
      <trkpt lat="62.53478" lon="6.5876">
        <ele>19.445748</ele>
        <time>2020-07-16T18:04:30.028Z</time>
      </trkpt>
      <trkpt lat="62.53506" lon="6.58716">
        <ele>19.713906</ele>
        <time>2020-07-16T18:04:38.507Z</time>
      </trkpt>
      <trkpt lat="62.53527" lon="6.5868">
        <ele>20.067531</ele>
        <time>2020-07-16T18:04:46.304Z</time>
      </trkpt>
      <trkpt lat="62.53614" lon="6.58545">
        <ele>24.501269</ele>
        <time>2020-07-16T18:05:20.578Z</time>
      </trkpt>
      <trkpt lat="62.53656" lon="6.58481">
        <ele>26.598245</ele>
        <time>2020-07-16T18:05:37.822Z</time>
      </trkpt>
      <trkpt lat="62.53659" lon="6.58489">
        <ele>26.788917</ele>
        <time>2020-07-16T18:05:39.392Z</time>
      </trkpt>
      <trkpt lat="62.53717" lon="6.58395">
        <ele>28.189452</ele>
        <time>2020-07-16T18:06:01.087Z</time>
      </trkpt>
      <trkpt lat="62.53738" lon="6.58373">
        <ele>28.522726</ele>
        <time>2020-07-16T18:06:06.874Z</time>
      </trkpt>
      <trkpt lat="62.53756" lon="6.58355">
        <ele>28.820181</ele>
        <time>2020-07-16T18:06:12.238Z</time>
      </trkpt>
      <trkpt lat="62.53765" lon="6.58346">
        <ele>28.960108</ele>
        <time>2020-07-16T18:06:14.360Z</time>
      </trkpt>
      <trkpt lat="62.53785" lon="6.58325">
        <ele>29.279824</ele>
        <time>2020-07-16T18:06:18.379Z</time>
      </trkpt>
      <trkpt lat="62.53862" lon="6.58249">
        <ele>28.846051</ele>
        <time>2020-07-16T18:06:31.554Z</time>
      </trkpt>
      <trkpt lat="62.53868" lon="6.58246">
        <ele>28.668848</ele>
        <time>2020-07-16T18:06:32.455Z</time>
      </trkpt>
      <trkpt lat="62.53867" lon="6.5824">
        <ele>28.592286</ele>
        <time>2020-07-16T18:06:32.863Z</time>
      </trkpt>
      <trkpt lat="62.53866" lon="6.58231">
        <ele>28.47151</ele>
        <time>2020-07-16T18:06:33.544Z</time>
      </trkpt>
      <trkpt lat="62.5388" lon="6.58219">
        <ele>28.050615</ele>
        <time>2020-07-16T18:06:35.549Z</time>
      </trkpt>
      <trkpt lat="62.53906" lon="6.58199">
        <ele>27.287293</ele>
        <time>2020-07-16T18:06:39.260Z</time>
      </trkpt>
      <trkpt lat="62.53907" lon="6.58198">
        <ele>27.255321</ele>
        <time>2020-07-16T18:06:39.378Z</time>
      </trkpt>
      <trkpt lat="62.54225" lon="6.57978">
        <ele>18.117828</ele>
        <time>2020-07-16T18:07:22.458Z</time>
      </trkpt>
      <trkpt lat="62.54257" lon="6.57931">
        <ele>17.715996</ele>
        <time>2020-07-16T18:07:28.897Z</time>
      </trkpt>
      <trkpt lat="62.54296" lon="6.57834">
        <ele>17.100132</ele>
        <time>2020-07-16T18:07:40.467Z</time>
      </trkpt>
      <trkpt lat="62.54313" lon="6.57807">
        <ele>17.259517</ele>
        <time>2020-07-16T18:07:44.983Z</time>
      </trkpt>
      <trkpt lat="62.54315" lon="6.57806">
        <ele>17.322805</ele>
        <time>2020-07-16T18:07:45.716Z</time>
      </trkpt>
      <trkpt lat="62.54316" lon="6.57794">
        <ele>17.484219</ele>
        <time>2020-07-16T18:07:47.340Z</time>
      </trkpt>
      <trkpt lat="62.54319" lon="6.57775">
        <ele>17.733628</ele>
        <time>2020-07-16T18:07:49.378Z</time>
      </trkpt>
      <trkpt lat="62.54345" lon="6.57712">
        <ele>18.794259</ele>
        <time>2020-07-16T18:07:59.785Z</time>
      </trkpt>
      <trkpt lat="62.54348" lon="6.57704">
        <ele>18.927106</ele>
        <time>2020-07-16T18:08:01.344Z</time>
      </trkpt>
      <trkpt lat="62.54355" lon="6.57677">
        <ele>19.325245</ele>
        <time>2020-07-16T18:08:05.401Z</time>
      </trkpt>
      <trkpt lat="62.54377" lon="6.57581">
        <ele>20.667347</ele>
        <time>2020-07-16T18:08:19.869Z</time>
      </trkpt>
      <trkpt lat="62.54401" lon="6.57461">
        <ele>22.213647</ele>
        <time>2020-07-16T18:08:38.183Z</time>
      </trkpt>
      <trkpt lat="62.54429" lon="6.57342">
        <ele>23.482366</ele>
        <time>2020-07-16T18:08:54.508Z</time>
      </trkpt>
      <trkpt lat="62.5443" lon="6.57324">
        <ele>23.653785</ele>
        <time>2020-07-16T18:08:57.246Z</time>
      </trkpt>
      <trkpt lat="62.54435" lon="6.57249">
        <ele>24.377207</ele>
        <time>2020-07-16T18:09:05.848Z</time>
      </trkpt>
      <trkpt lat="62.54439" lon="6.57152">
        <ele>25.305954</ele>
        <time>2020-07-16T18:09:15.937Z</time>
      </trkpt>
      <trkpt lat="62.54443" lon="6.57082">
        <ele>25.533188</ele>
        <time>2020-07-16T18:09:22.751Z</time>
      </trkpt>
      <trkpt lat="62.54447" lon="6.57019">
        <ele>25.384706</ele>
        <time>2020-07-16T18:09:28.410Z</time>
      </trkpt>
      <trkpt lat="62.54447" lon="6.57004">
        <ele>25.350602</ele>
        <time>2020-07-16T18:09:29.709Z</time>
      </trkpt>
      <trkpt lat="62.54447" lon="6.56981">
        <ele>25.295959</ele>
        <time>2020-07-16T18:09:31.440Z</time>
      </trkpt>
      <trkpt lat="62.54445" lon="6.56797">
        <ele>24.866906</ele>
        <time>2020-07-16T18:09:45.378Z</time>
      </trkpt>
      <trkpt lat="62.54443" lon="6.56687">
        <ele>24.431697</ele>
        <time>2020-07-16T18:09:53.355Z</time>
      </trkpt>
      <trkpt lat="62.54438" lon="6.56059">
        <ele>20.28237</ele>
        <time>2020-07-16T18:10:38.269Z</time>
      </trkpt>
      <trkpt lat="62.54413" lon="6.55686">
        <ele>18.175312</ele>
        <time>2020-07-16T18:11:05.078Z</time>
      </trkpt>
      <trkpt lat="62.54413" lon="6.55658">
        <ele>18.032884</ele>
        <time>2020-07-16T18:11:07.077Z</time>
      </trkpt>
      <trkpt lat="62.54408" lon="6.55534">
        <ele>17.654258</ele>
        <time>2020-07-16T18:11:17.151Z</time>
      </trkpt>
      <trkpt lat="62.54406" lon="6.55437">
        <ele>17.975411</ele>
        <time>2020-07-16T18:11:26.220Z</time>
      </trkpt>
      <trkpt lat="62.54404" lon="6.55395">
        <ele>18.115731</ele>
        <time>2020-07-16T18:11:29.945Z</time>
      </trkpt>
      <trkpt lat="62.54403" lon="6.55362">
        <ele>18.226604</ele>
        <time>2020-07-16T18:11:33.453Z</time>
      </trkpt>
      <trkpt lat="62.54395" lon="6.55295">
        <ele>18.457093</ele>
        <time>2020-07-16T18:11:40.253Z</time>
      </trkpt>
      <trkpt lat="62.54397" lon="6.55278">
        <ele>18.515612</ele>
        <time>2020-07-16T18:11:42.084Z</time>
      </trkpt>
      <trkpt lat="62.54404" lon="6.55269">
        <ele>18.568943</ele>
        <time>2020-07-16T18:11:43.485Z</time>
      </trkpt>
      <trkpt lat="62.54412" lon="6.55265">
        <ele>18.633291</ele>
        <time>2020-07-16T18:11:45.607Z</time>
      </trkpt>
      <trkpt lat="62.54416" lon="6.55245">
        <ele>18.705155</ele>
        <time>2020-07-16T18:11:48.486Z</time>
      </trkpt>
      <trkpt lat="62.54421" lon="6.55236">
        <ele>18.748179</ele>
        <time>2020-07-16T18:11:50.347Z</time>
      </trkpt>
      <trkpt lat="62.54417" lon="6.55078">
        <ele>19.467996</ele>
        <time>2020-07-16T18:12:07.506Z</time>
      </trkpt>
      <trkpt lat="62.54412" lon="6.55022">
        <ele>19.746664</ele>
        <time>2020-07-16T18:12:13.899Z</time>
      </trkpt>
      <trkpt lat="62.54411" lon="6.5484">
        <ele>20.626496</ele>
        <time>2020-07-16T18:12:31.855Z</time>
      </trkpt>
      <trkpt lat="62.54406" lon="6.54699">
        <ele>20.418413</ele>
        <time>2020-07-16T18:12:43.893Z</time>
      </trkpt>
      <trkpt lat="62.54403" lon="6.54635">
        <ele>20.241445</ele>
        <time>2020-07-16T18:12:49.025Z</time>
      </trkpt>
      <trkpt lat="62.54386" lon="6.54412">
        <ele>19.536228</ele>
        <time>2020-07-16T18:13:05.938Z</time>
      </trkpt>
      <trkpt lat="62.54359" lon="6.54021">
        <ele>16.68103</ele>
        <time>2020-07-16T18:13:33.530Z</time>
      </trkpt>
      <trkpt lat="62.54335" lon="6.53692">
        <ele>14.556797</ele>
        <time>2020-07-16T18:13:57.355Z</time>
      </trkpt>
      <trkpt lat="62.54333" lon="6.53617">
        <ele>14.305318</ele>
        <time>2020-07-16T18:14:03.084Z</time>
      </trkpt>
      <trkpt lat="62.54335" lon="6.5361">
        <ele>14.298319</ele>
        <time>2020-07-16T18:14:03.665Z</time>
      </trkpt>
      <trkpt lat="62.54337" lon="6.53599">
        <ele>14.287585</ele>
        <time>2020-07-16T18:14:04.540Z</time>
      </trkpt>
      <trkpt lat="62.54332" lon="6.53485">
        <ele>14.188968</ele>
        <time>2020-07-16T18:14:13.701Z</time>
      </trkpt>
      <trkpt lat="62.54326" lon="6.53421">
        <ele>14.133392</ele>
        <time>2020-07-16T18:14:18.836Z</time>
      </trkpt>
      <trkpt lat="62.54325" lon="6.53396">
        <ele>14.1121</ele>
        <time>2020-07-16T18:14:21.228Z</time>
      </trkpt>
      <trkpt lat="62.54359" lon="6.52532">
        <ele>17.112547</ele>
        <time>2020-07-16T18:15:44.851Z</time>
      </trkpt>
      <trkpt lat="62.54359" lon="6.52301">
        <ele>20.967268</ele>
        <time>2020-07-16T18:16:15.476Z</time>
      </trkpt>
      <trkpt lat="62.54358" lon="6.5228">
        <ele>21.366909</ele>
        <time>2020-07-16T18:16:18.689Z</time>
      </trkpt>
      <trkpt lat="62.54356" lon="6.52228">
        <ele>22.343891</ele>
        <time>2020-07-16T18:16:26.568Z</time>
      </trkpt>
      <trkpt lat="62.54354" lon="6.52177">
        <ele>23.298681</ele>
        <time>2020-07-16T18:16:34.562Z</time>
      </trkpt>
      <trkpt lat="62.54347" lon="6.52022">
        <ele>26.992678</ele>
        <time>2020-07-16T18:17:02.090Z</time>
      </trkpt>
      <trkpt lat="62.54338" lon="6.51832">
        <ele>32.258737</ele>
        <time>2020-07-16T18:17:36.561Z</time>
      </trkpt>
      <trkpt lat="62.54334" lon="6.51761">
        <ele>34.23044</ele>
        <time>2020-07-16T18:17:48.960Z</time>
      </trkpt>
      <trkpt lat="62.54322" lon="6.51604">
        <ele>37.545943</ele>
        <time>2020-07-16T18:18:15.280Z</time>
      </trkpt>
      <trkpt lat="62.5431" lon="6.51528">
        <ele>39.006106</ele>
        <time>2020-07-16T18:18:27.851Z</time>
      </trkpt>
      <trkpt lat="62.54161" lon="6.50904">
        <ele>46.116773</ele>
        <time>2020-07-16T18:19:55.252Z</time>
      </trkpt>
      <trkpt lat="62.54159" lon="6.50898">
        <ele>46.056917</ele>
        <time>2020-07-16T18:19:55.839Z</time>
      </trkpt>
      <trkpt lat="62.54149" lon="6.5087">
        <ele>45.753804</ele>
        <time>2020-07-16T18:19:58.374Z</time>
      </trkpt>
      <trkpt lat="62.54145" lon="6.50858">
        <ele>45.631989</ele>
        <time>2020-07-16T18:19:59.287Z</time>
      </trkpt>
      <trkpt lat="62.54124" lon="6.50781">
        <ele>44.883077</ele>
        <time>2020-07-16T18:20:04.894Z</time>
      </trkpt>
      <trkpt lat="62.54116" lon="6.50744">
        <ele>44.546906</ele>
        <time>2020-07-16T18:20:07.381Z</time>
      </trkpt>
      <trkpt lat="62.54107" lon="6.50692">
        <ele>44.084927</ele>
        <time>2020-07-16T18:20:10.675Z</time>
      </trkpt>
      <trkpt lat="62.54095" lon="6.5067">
        <ele>43.697846</ele>
        <time>2020-07-16T18:20:12.707Z</time>
      </trkpt>
      <trkpt lat="62.54076" lon="6.5067">
        <ele>42.824941</ele>
        <time>2020-07-16T18:20:14.861Z</time>
      </trkpt>
      <trkpt lat="62.54067" lon="6.50656">
        <ele>42.274893</ele>
        <time>2020-07-16T18:20:16.253Z</time>
      </trkpt>
      <trkpt lat="62.54044" lon="6.50567">
        <ele>40.041541</ele>
        <time>2020-07-16T18:20:21.735Z</time>
      </trkpt>
      <trkpt lat="62.53941" lon="6.50103">
        <ele>32.036289</ele>
        <time>2020-07-16T18:20:51.705Z</time>
      </trkpt>
      <trkpt lat="62.53937" lon="6.50081">
        <ele>31.787156</ele>
        <time>2020-07-16T18:20:53.460Z</time>
      </trkpt>
      <trkpt lat="62.53931" lon="6.50036">
        <ele>31.266429</ele>
        <time>2020-07-16T18:20:58.529Z</time>
      </trkpt>
      <trkpt lat="62.53923" lon="6.49962">
        <ele>32.097849</ele>
        <time>2020-07-16T18:21:07.324Z</time>
      </trkpt>
      <trkpt lat="62.53907" lon="6.49814">
        <ele>34.948351</ele>
        <time>2020-07-16T18:21:28.362Z</time>
      </trkpt>
      <trkpt lat="62.53892" lon="6.49671">
        <ele>37.711014</ele>
        <time>2020-07-16T18:21:52.383Z</time>
      </trkpt>
      <trkpt lat="62.53859" lon="6.49349">
        <ele>45.839388</ele>
        <time>2020-07-16T18:22:49.170Z</time>
      </trkpt>
      <trkpt lat="62.53853" lon="6.49264">
        <ele>48.021201</ele>
        <time>2020-07-16T18:23:02.233Z</time>
      </trkpt>
      <trkpt lat="62.53846" lon="6.49152">
        <ele>49.351431</ele>
        <time>2020-07-16T18:23:18.528Z</time>
      </trkpt>
      <trkpt lat="62.53825" lon="6.48696">
        <ele>51.804397</ele>
        <time>2020-07-16T18:24:05.417Z</time>
      </trkpt>
      <trkpt lat="62.53819" lon="6.48629">
        <ele>51.562795</ele>
        <time>2020-07-16T18:24:10.069Z</time>
      </trkpt>
      <trkpt lat="62.53822" lon="6.48623">
        <ele>51.53112</ele>
        <time>2020-07-16T18:24:10.873Z</time>
      </trkpt>
      <trkpt lat="62.53834" lon="6.48402">
        <ele>49.586268</ele>
        <time>2020-07-16T18:24:25.248Z</time>
      </trkpt>
      <trkpt lat="62.53834" lon="6.48318">
        <ele>48.088028</ele>
        <time>2020-07-16T18:24:30.375Z</time>
      </trkpt>
      <trkpt lat="62.53842" lon="6.48256">
        <ele>46.953092</ele>
        <time>2020-07-16T18:24:34.318Z</time>
      </trkpt>
      <trkpt lat="62.53843" lon="6.48201">
        <ele>45.956519</ele>
        <time>2020-07-16T18:24:37.703Z</time>
      </trkpt>
      <trkpt lat="62.53838" lon="6.48134">
        <ele>44.759866</ele>
        <time>2020-07-16T18:24:41.686Z</time>
      </trkpt>
      <trkpt lat="62.53818" lon="6.48007">
        <ele>42.405</ele>
        <time>2020-07-16T18:24:49.624Z</time>
      </trkpt>
      <trkpt lat="62.53813" lon="6.47902">
        <ele>40.539399</ele>
        <time>2020-07-16T18:24:56.165Z</time>
      </trkpt>
      <trkpt lat="62.53812" lon="6.47876">
        <ele>40.095338</ele>
        <time>2020-07-16T18:24:57.652Z</time>
      </trkpt>
      <trkpt lat="62.53808" lon="6.47846">
        <ele>39.546028</ele>
        <time>2020-07-16T18:24:59.670Z</time>
      </trkpt>
      <trkpt lat="62.53799" lon="6.47794">
        <ele>38.560927</ele>
        <time>2020-07-16T18:25:03.187Z</time>
      </trkpt>
      <trkpt lat="62.53775" lon="6.47712">
        <ele>36.9962</ele>
        <time>2020-07-16T18:25:09.416Z</time>
      </trkpt>
      <trkpt lat="62.53752" lon="6.47617">
        <ele>35.717048</ele>
        <time>2020-07-16T18:25:16.295Z</time>
      </trkpt>
      <trkpt lat="62.53733" lon="6.4755">
        <ele>34.777053</ele>
        <time>2020-07-16T18:25:21.427Z</time>
      </trkpt>
      <trkpt lat="62.53726" lon="6.47522">
        <ele>34.395269</ele>
        <time>2020-07-16T18:25:23.611Z</time>
      </trkpt>
      <trkpt lat="62.53724" lon="6.47507">
        <ele>34.20288</ele>
        <time>2020-07-16T18:25:24.668Z</time>
      </trkpt>
      <trkpt lat="62.53722" lon="6.47497">
        <ele>34.080878</ele>
        <time>2020-07-16T18:25:25.351Z</time>
      </trkpt>
      <trkpt lat="62.53708" lon="6.47421">
        <ele>33.089826</ele>
        <time>2020-07-16T18:25:30.893Z</time>
      </trkpt>
      <trkpt lat="62.53708" lon="6.47412">
        <ele>32.989194</ele>
        <time>2020-07-16T18:25:31.445Z</time>
      </trkpt>
      <trkpt lat="62.53699" lon="6.47362">
        <ele>32.415948</ele>
        <time>2020-07-16T18:25:34.986Z</time>
      </trkpt>
      <trkpt lat="62.5364" lon="6.47057">
        <ele>29.623164</ele>
        <time>2020-07-16T18:25:57.264Z</time>
      </trkpt>
      <trkpt lat="62.53636" lon="6.47038">
        <ele>29.44728</ele>
        <time>2020-07-16T18:25:58.664Z</time>
      </trkpt>
      <trkpt lat="62.53638" lon="6.47029">
        <ele>29.361241</ele>
        <time>2020-07-16T18:25:59.728Z</time>
      </trkpt>
      <trkpt lat="62.53624" lon="6.46942">
        <ele>29.744971</ele>
        <time>2020-07-16T18:26:07.697Z</time>
      </trkpt>
      <trkpt lat="62.53621" lon="6.46909">
        <ele>29.923069</ele>
        <time>2020-07-16T18:26:11.008Z</time>
      </trkpt>
      <trkpt lat="62.53606" lon="6.46813">
        <ele>30.448501</ele>
        <time>2020-07-16T18:26:20.711Z</time>
      </trkpt>
      <trkpt lat="62.53582" lon="6.46625">
        <ele>31.651316</ele>
        <time>2020-07-16T18:26:44.339Z</time>
      </trkpt>
      <trkpt lat="62.53551" lon="6.46457">
        <ele>33.865672</ele>
        <time>2020-07-16T18:27:08.075Z</time>
      </trkpt>
      <trkpt lat="62.53537" lon="6.46251">
        <ele>36.209881</ele>
        <time>2020-07-16T18:27:33.977Z</time>
      </trkpt>
      <trkpt lat="62.53536" lon="6.46184">
        <ele>36.408665</ele>
        <time>2020-07-16T18:27:41.655Z</time>
      </trkpt>
      <trkpt lat="62.53534" lon="6.46125">
        <ele>36.584728</ele>
        <time>2020-07-16T18:27:47.925Z</time>
      </trkpt>
      <trkpt lat="62.53514" lon="6.45918">
        <ele>37.214568</ele>
        <time>2020-07-16T18:28:07.164Z</time>
      </trkpt>
      <trkpt lat="62.53426" lon="6.45374">
        <ele>33.493545</ele>
        <time>2020-07-16T18:28:47.098Z</time>
      </trkpt>
      <trkpt lat="62.53399" lon="6.44948">
        <ele>31.591804</ele>
        <time>2020-07-16T18:29:19.560Z</time>
      </trkpt>
      <trkpt lat="62.53399" lon="6.44766">
        <ele>31.098426</ele>
        <time>2020-07-16T18:29:34.237Z</time>
      </trkpt>
      <trkpt lat="62.53384" lon="6.44547">
        <ele>31.896982</ele>
        <time>2020-07-16T18:29:54.192Z</time>
      </trkpt>
      <trkpt lat="62.5338" lon="6.44374">
        <ele>32.577052</ele>
        <time>2020-07-16T18:30:12.700Z</time>
      </trkpt>
      <trkpt lat="62.53428" lon="6.43822">
        <ele>36.750954</ele>
        <time>2020-07-16T18:31:18.886Z</time>
      </trkpt>
      <trkpt lat="62.53428" lon="6.43737">
        <ele>36.962944</ele>
        <time>2020-07-16T18:31:26.105Z</time>
      </trkpt>
      <trkpt lat="62.53426" lon="6.43696">
        <ele>37.065724</ele>
        <time>2020-07-16T18:31:29.643Z</time>
      </trkpt>
      <trkpt lat="62.53425" lon="6.43674">
        <ele>37.120918</ele>
        <time>2020-07-16T18:31:31.447Z</time>
      </trkpt>
      <trkpt lat="62.53423" lon="6.43652">
        <ele>37.176801</ele>
        <time>2020-07-16T18:31:32.930Z</time>
      </trkpt>
      <trkpt lat="62.53416" lon="6.435">
        <ele>36.77949</ele>
        <time>2020-07-16T18:31:44.046Z</time>
      </trkpt>
      <trkpt lat="62.53427" lon="6.43267">
        <ele>35.525231</ele>
        <time>2020-07-16T18:32:00.623Z</time>
      </trkpt>
      <trkpt lat="62.53441" lon="6.43109">
        <ele>35.494577</ele>
        <time>2020-07-16T18:32:13.760Z</time>
      </trkpt>
      <trkpt lat="62.53433" lon="6.4291">
        <ele>36.016707</ele>
        <time>2020-07-16T18:32:32.909Z</time>
      </trkpt>
      <trkpt lat="62.53433" lon="6.42764">
        <ele>36.712174</ele>
        <time>2020-07-16T18:32:48.974Z</time>
      </trkpt>
      <trkpt lat="62.53438" lon="6.42578">
        <ele>38.17987</ele>
        <time>2020-07-16T18:33:10.176Z</time>
      </trkpt>
      <trkpt lat="62.53442" lon="6.42456">
        <ele>39.133727</ele>
        <time>2020-07-16T18:33:23.865Z</time>
      </trkpt>
      <trkpt lat="62.53449" lon="6.42243">
        <ele>40.432476</ele>
        <time>2020-07-16T18:33:47.006Z</time>
      </trkpt>
      <trkpt lat="62.53451" lon="6.42198">
        <ele>40.703118</ele>
        <time>2020-07-16T18:33:51.744Z</time>
      </trkpt>
      <trkpt lat="62.53456" lon="6.42142">
        <ele>41.037491</ele>
        <time>2020-07-16T18:33:57.406Z</time>
      </trkpt>
      <trkpt lat="62.53507" lon="6.4155">
        <ele>44.135544</ele>
        <time>2020-07-16T18:34:56.916Z</time>
      </trkpt>
      <trkpt lat="62.53502" lon="6.41427">
        <ele>45.078931</ele>
        <time>2020-07-16T18:35:10.605Z</time>
      </trkpt>
      <trkpt lat="62.53501" lon="6.4124">
        <ele>46.420874</ele>
        <time>2020-07-16T18:35:32.567Z</time>
      </trkpt>
      <trkpt lat="62.53513" lon="6.41024">
        <ele>47.601499</ele>
        <time>2020-07-16T18:35:59.668Z</time>
      </trkpt>
      <trkpt lat="62.53509" lon="6.40741">
        <ele>45.868722</ele>
        <time>2020-07-16T18:36:20.666Z</time>
      </trkpt>
      <trkpt lat="62.53509" lon="6.40707">
        <ele>45.303366</ele>
        <time>2020-07-16T18:36:22.921Z</time>
      </trkpt>
      <trkpt lat="62.53508" lon="6.40689">
        <ele>45.014302</ele>
        <time>2020-07-16T18:36:23.909Z</time>
      </trkpt>
      <trkpt lat="62.53503" lon="6.40537">
        <ele>42.471921</ele>
        <time>2020-07-16T18:36:32.921Z</time>
      </trkpt>
      <trkpt lat="62.53502" lon="6.40514">
        <ele>42.094275</ele>
        <time>2020-07-16T18:36:34.190Z</time>
      </trkpt>
      <trkpt lat="62.535" lon="6.40492">
        <ele>41.635812</ele>
        <time>2020-07-16T18:36:35.421Z</time>
      </trkpt>
      <trkpt lat="62.53498" lon="6.40403">
        <ele>39.19546</ele>
        <time>2020-07-16T18:36:40.404Z</time>
      </trkpt>
      <trkpt lat="62.5351" lon="6.40206">
        <ele>33.763638</ele>
        <time>2020-07-16T18:36:51.482Z</time>
      </trkpt>
      <trkpt lat="62.53515" lon="6.40121">
        <ele>31.421312</ele>
        <time>2020-07-16T18:36:56.540Z</time>
      </trkpt>
      <trkpt lat="62.53518" lon="6.40037">
        <ele>30.370508</ele>
        <time>2020-07-16T18:37:01.872Z</time>
      </trkpt>
      <trkpt lat="62.53518" lon="6.39967">
        <ele>29.602709</ele>
        <time>2020-07-16T18:37:06.454Z</time>
      </trkpt>
      <trkpt lat="62.53531" lon="6.39825">
        <ele>28.026827</ele>
        <time>2020-07-16T18:37:16.250Z</time>
      </trkpt>
      <trkpt lat="62.53532" lon="6.39542">
        <ele>26.240734</ele>
        <time>2020-07-16T18:37:37.735Z</time>
      </trkpt>
      <trkpt lat="62.53535" lon="6.39394">
        <ele>25.6744</ele>
        <time>2020-07-16T18:37:49.058Z</time>
      </trkpt>
      <trkpt lat="62.53537" lon="6.39313">
        <ele>25.428391</ele>
        <time>2020-07-16T18:37:55.209Z</time>
      </trkpt>
      <trkpt lat="62.53557" lon="6.38958">
        <ele>25.015109</ele>
        <time>2020-07-16T18:38:24.381Z</time>
      </trkpt>
      <trkpt lat="62.53558" lon="6.38657">
        <ele>26.118227</ele>
        <time>2020-07-16T18:38:54.180Z</time>
      </trkpt>
      <trkpt lat="62.53578" lon="6.38255">
        <ele>27.384776</ele>
        <time>2020-07-16T18:39:35.491Z</time>
      </trkpt>
      <trkpt lat="62.53581" lon="6.38219">
        <ele>27.490055</ele>
        <time>2020-07-16T18:39:38.735Z</time>
      </trkpt>
      <trkpt lat="62.53582" lon="6.38178">
        <ele>27.611316</ele>
        <time>2020-07-16T18:39:41.954Z</time>
      </trkpt>
      <trkpt lat="62.53583" lon="6.38129">
        <ele>27.022989</ele>
        <time>2020-07-16T18:39:45.877Z</time>
      </trkpt>
      <trkpt lat="62.53584" lon="6.38051">
        <ele>25.900958</ele>
        <time>2020-07-16T18:39:51.541Z</time>
      </trkpt>
      <trkpt lat="62.53578" lon="6.37932">
        <ele>24.178675</ele>
        <time>2020-07-16T18:39:59.068Z</time>
      </trkpt>
      <trkpt lat="62.53558" lon="6.37766">
        <ele>21.71599</ele>
        <time>2020-07-16T18:40:09.077Z</time>
      </trkpt>
      <trkpt lat="62.53549" lon="6.37713">
        <ele>20.875876</ele>
        <time>2020-07-16T18:40:12.453Z</time>
      </trkpt>
      <trkpt lat="62.53545" lon="6.3769">
        <ele>20.50516</ele>
        <time>2020-07-16T18:40:13.919Z</time>
      </trkpt>
      <trkpt lat="62.53529" lon="6.37607">
        <ele>19.178892</ele>
        <time>2020-07-16T18:40:19.380Z</time>
      </trkpt>
      <trkpt lat="62.53525" lon="6.37589">
        <ele>18.886161</ele>
        <time>2020-07-16T18:40:20.614Z</time>
      </trkpt>
      <trkpt lat="62.5352" lon="6.37557">
        <ele>18.381705</ele>
        <time>2020-07-16T18:40:22.698Z</time>
      </trkpt>
      <trkpt lat="62.53503" lon="6.37418">
        <ele>16.254376</ele>
        <time>2020-07-16T18:40:32.745Z</time>
      </trkpt>
      <trkpt lat="62.53503" lon="6.37354">
        <ele>16.128266</ele>
        <time>2020-07-16T18:40:37.482Z</time>
      </trkpt>
      <trkpt lat="62.5351" lon="6.37328">
        <ele>16.070067</ele>
        <time>2020-07-16T18:40:39.868Z</time>
      </trkpt>
      <trkpt lat="62.53546" lon="6.37276">
        <ele>15.887817</ele>
        <time>2020-07-16T18:40:48.105Z</time>
      </trkpt>
      <trkpt lat="62.53552" lon="6.37256">
        <ele>15.841043</ele>
        <time>2020-07-16T18:40:50.063Z</time>
      </trkpt>
      <trkpt lat="62.53554" lon="6.37243">
        <ele>15.815174</ele>
        <time>2020-07-16T18:40:52.293Z</time>
      </trkpt>
      <trkpt lat="62.53555" lon="6.37215">
        <ele>15.758694</ele>
        <time>2020-07-16T18:40:54.650Z</time>
      </trkpt>
      <trkpt lat="62.53554" lon="6.37204">
        <ele>15.737692</ele>
        <time>2020-07-16T18:40:55.499Z</time>
      </trkpt>
      <trkpt lat="62.53552" lon="6.37155">
        <ele>15.641397</ele>
        <time>2020-07-16T18:41:00.314Z</time>
      </trkpt>
      <trkpt lat="62.53549" lon="6.37083">
        <ele>15.498357</ele>
        <time>2020-07-16T18:41:06.456Z</time>
      </trkpt>
      <trkpt lat="62.53546" lon="6.36996">
        <ele>14.55314</ele>
        <time>2020-07-16T18:41:12.374Z</time>
      </trkpt>
      <trkpt lat="62.53537" lon="6.36934">
        <ele>13.821059</ele>
        <time>2020-07-16T18:41:16.661Z</time>
      </trkpt>
      <trkpt lat="62.5351" lon="6.36826">
        <ele>12.430774</ele>
        <time>2020-07-16T18:41:24.254Z</time>
      </trkpt>
      <trkpt lat="62.53489" lon="6.36771">
        <ele>11.62981</ele>
        <time>2020-07-16T18:41:28.920Z</time>
      </trkpt>
      <trkpt lat="62.53486" lon="6.36767">
        <ele>11.538248</ele>
        <time>2020-07-16T18:41:29.331Z</time>
      </trkpt>
      <trkpt lat="62.53481" lon="6.36756">
        <ele>11.353709</ele>
        <time>2020-07-16T18:41:30.425Z</time>
      </trkpt>
      <trkpt lat="62.53455" lon="6.3647">
        <ele>10.333057</ele>
        <time>2020-07-16T18:41:50.976Z</time>
      </trkpt>
      <trkpt lat="62.53451" lon="6.36454">
        <ele>10.28198</ele>
        <time>2020-07-16T18:41:52.157Z</time>
      </trkpt>
      <trkpt lat="62.53455" lon="6.36448">
        <ele>10.253805</ele>
        <time>2020-07-16T18:41:53.447Z</time>
      </trkpt>
      <trkpt lat="62.53457" lon="6.36421">
        <ele>10.177907</ele>
        <time>2020-07-16T18:41:56.513Z</time>
      </trkpt>
      <trkpt lat="62.53455" lon="6.36406">
        <ele>10.132577</ele>
        <time>2020-07-16T18:41:58.617Z</time>
      </trkpt>
      <trkpt lat="62.53452" lon="6.36392">
        <ele>10.088561</ele>
        <time>2020-07-16T18:42:00.548Z</time>
      </trkpt>
      <trkpt lat="62.53447" lon="6.3636">
        <ele>9.994534</ele>
        <time>2020-07-16T18:42:04.709Z</time>
      </trkpt>
      <trkpt lat="62.53445" lon="6.36235">
        <ele>11.287336</ele>
        <time>2020-07-16T18:42:20.334Z</time>
      </trkpt>
      <trkpt lat="62.53455" lon="6.36152">
        <ele>12.21547</ele>
        <time>2020-07-16T18:42:31.292Z</time>
      </trkpt>
      <trkpt lat="62.53462" lon="6.36126">
        <ele>12.533963</ele>
        <time>2020-07-16T18:42:34.977Z</time>
      </trkpt>
      <trkpt lat="62.5347" lon="6.36089">
        <ele>12.969477</ele>
        <time>2020-07-16T18:42:40.250Z</time>
      </trkpt>
      <trkpt lat="62.53479" lon="6.36037">
        <ele>13.564766</ele>
        <time>2020-07-16T18:42:46.732Z</time>
      </trkpt>
      <trkpt lat="62.53482" lon="6.35948">
        <ele>14.349471</ele>
        <time>2020-07-16T18:42:56.858Z</time>
      </trkpt>
      <trkpt lat="62.53468" lon="6.35776">
        <ele>15.334575</ele>
        <time>2020-07-16T18:43:15.431Z</time>
      </trkpt>
      <trkpt lat="62.53445" lon="6.35644">
        <ele>16.126156</ele>
        <time>2020-07-16T18:43:29.064Z</time>
      </trkpt>
      <trkpt lat="62.53443" lon="6.3563">
        <ele>16.208518</ele>
        <time>2020-07-16T18:43:30.077Z</time>
      </trkpt>
      <trkpt lat="62.5344" lon="6.35613">
        <ele>16.312581</ele>
        <time>2020-07-16T18:43:32.210Z</time>
      </trkpt>
      <trkpt lat="62.53406" lon="6.35195">
        <ele>18.461947</ele>
        <time>2020-07-16T18:44:15.779Z</time>
      </trkpt>
      <trkpt lat="62.5339" lon="6.35045">
        <ele>19.213122</ele>
        <time>2020-07-16T18:44:32.205Z</time>
      </trkpt>
      <trkpt lat="62.53313" lon="6.34652">
        <ele>20.97074</ele>
        <time>2020-07-16T18:45:13.838Z</time>
      </trkpt>
      <trkpt lat="62.53301" lon="6.34582">
        <ele>21.22073</ele>
        <time>2020-07-16T18:45:20.757Z</time>
      </trkpt>
      <trkpt lat="62.53291" lon="6.3452">
        <ele>21.444001</ele>
        <time>2020-07-16T18:45:26.976Z</time>
      </trkpt>
      <trkpt lat="62.53287" lon="6.34493">
        <ele>21.539059</ele>
        <time>2020-07-16T18:45:29.619Z</time>
      </trkpt>
      <trkpt lat="62.53282" lon="6.34369">
        <ele>22.030634</ele>
        <time>2020-07-16T18:45:42.339Z</time>
      </trkpt>
      <trkpt lat="62.5327" lon="6.34224">
        <ele>22.60793</ele>
        <time>2020-07-16T18:45:57.698Z</time>
      </trkpt>
      <trkpt lat="62.53275" lon="6.34128">
        <ele>22.988936</ele>
        <time>2020-07-16T18:46:07.477Z</time>
      </trkpt>
      <trkpt lat="62.53278" lon="6.34082">
        <ele>22.915976</ele>
        <time>2020-07-16T18:46:11.789Z</time>
      </trkpt>
      <trkpt lat="62.53279" lon="6.34073">
        <ele>22.846791</ele>
        <time>2020-07-16T18:46:12.541Z</time>
      </trkpt>
      <trkpt lat="62.53277" lon="6.34037">
        <ele>22.56493</ele>
        <time>2020-07-16T18:46:15.459Z</time>
      </trkpt>
      <trkpt lat="62.53276" lon="6.34025">
        <ele>22.470179</ele>
        <time>2020-07-16T18:46:16.447Z</time>
      </trkpt>
      <trkpt lat="62.53272" lon="6.33981">
        <ele>22.127142</ele>
        <time>2020-07-16T18:46:19.732Z</time>
      </trkpt>
      <trkpt lat="62.53265" lon="6.33858">
        <ele>21.166552</ele>
        <time>2020-07-16T18:46:28.297Z</time>
      </trkpt>
      <trkpt lat="62.53263" lon="6.33809">
        <ele>20.787367</ele>
        <time>2020-07-16T18:46:31.444Z</time>
      </trkpt>
      <trkpt lat="62.53263" lon="6.33777">
        <ele>20.53961</ele>
        <time>2020-07-16T18:46:33.477Z</time>
      </trkpt>
      <trkpt lat="62.53263" lon="6.33715">
        <ele>20.060431</ele>
        <time>2020-07-16T18:46:37.420Z</time>
      </trkpt>
      <trkpt lat="62.53264" lon="6.33564">
        <ele>18.699526</ele>
        <time>2020-07-16T18:46:47.238Z</time>
      </trkpt>
      <trkpt lat="62.53264" lon="6.33551">
        <ele>18.585749</ele>
        <time>2020-07-16T18:46:48.073Z</time>
      </trkpt>
      <trkpt lat="62.53265" lon="6.33536">
        <ele>18.448975</ele>
        <time>2020-07-16T18:46:48.922Z</time>
      </trkpt>
      <trkpt lat="62.53265" lon="6.33519">
        <ele>18.295557</ele>
        <time>2020-07-16T18:46:50.225Z</time>
      </trkpt>
      <trkpt lat="62.5326" lon="6.33433">
        <ele>17.504753</ele>
        <time>2020-07-16T18:46:56.178Z</time>
      </trkpt>
      <trkpt lat="62.53257" lon="6.3337">
        <ele>16.935732</ele>
        <time>2020-07-16T18:47:00.661Z</time>
      </trkpt>
      <trkpt lat="62.53256" lon="6.33346">
        <ele>16.719824</ele>
        <time>2020-07-16T18:47:03.092Z</time>
      </trkpt>
      <trkpt lat="62.53257" lon="6.33284">
        <ele>16.670675</ele>
        <time>2020-07-16T18:47:08.153Z</time>
      </trkpt>
      <trkpt lat="62.53257" lon="6.33236">
        <ele>16.794164</ele>
        <time>2020-07-16T18:47:12.700Z</time>
      </trkpt>
      <trkpt lat="62.53252" lon="6.33154">
        <ele>17.008402</ele>
        <time>2020-07-16T18:47:21.404Z</time>
      </trkpt>
      <trkpt lat="62.53259" lon="6.3292">
        <ele>17.503354</ele>
        <time>2020-07-16T18:47:45.343Z</time>
      </trkpt>
      <trkpt lat="62.5326" lon="6.32682">
        <ele>16.708487</ele>
        <time>2020-07-16T18:48:03.769Z</time>
      </trkpt>
      <trkpt lat="62.5325" lon="6.32511">
        <ele>16.392852</ele>
        <time>2020-07-16T18:48:15.765Z</time>
      </trkpt>
      <trkpt lat="62.53235" lon="6.3241">
        <ele>16.728521</ele>
        <time>2020-07-16T18:48:24.271Z</time>
      </trkpt>
      <trkpt lat="62.5323" lon="6.32394">
        <ele>16.788143</ele>
        <time>2020-07-16T18:48:25.427Z</time>
      </trkpt>
      <trkpt lat="62.53225" lon="6.32386">
        <ele>16.834036</ele>
        <time>2020-07-16T18:48:26.659Z</time>
      </trkpt>
      <trkpt lat="62.53221" lon="6.32386">
        <ele>16.857489</ele>
        <time>2020-07-16T18:48:27.165Z</time>
      </trkpt>
      <trkpt lat="62.53221" lon="6.32349">
        <ele>16.97293</ele>
        <time>2020-07-16T18:48:31.603Z</time>
      </trkpt>
      <trkpt lat="62.53221" lon="6.32282">
        <ele>17.185791</ele>
        <time>2020-07-16T18:48:38.342Z</time>
      </trkpt>
      <trkpt lat="62.53216" lon="6.32152">
        <ele>18.143992</ele>
        <time>2020-07-16T18:48:53.029Z</time>
      </trkpt>
      <trkpt lat="62.5321" lon="6.32043">
        <ele>20.464407</ele>
        <time>2020-07-16T18:49:09.897Z</time>
      </trkpt>
      <trkpt lat="62.53205" lon="6.31962">
        <ele>22.168086</ele>
        <time>2020-07-16T18:49:25.131Z</time>
      </trkpt>
      <trkpt lat="62.53193" lon="6.31763">
        <ele>25.780229</ele>
        <time>2020-07-16T18:49:56.111Z</time>
      </trkpt>
      <trkpt lat="62.53187" lon="6.31643">
        <ele>26.065217</ele>
        <time>2020-07-16T18:50:10.037Z</time>
      </trkpt>
      <trkpt lat="62.53184" lon="6.3158">
        <ele>26.212507</ele>
        <time>2020-07-16T18:50:14.589Z</time>
      </trkpt>
      <trkpt lat="62.53182" lon="6.31514">
        <ele>26.368041</ele>
        <time>2020-07-16T18:50:18.964Z</time>
      </trkpt>
      <trkpt lat="62.53179" lon="6.31364">
        <ele>26.620661</ele>
        <time>2020-07-16T18:50:29.061Z</time>
      </trkpt>
      <trkpt lat="62.53176" lon="6.31216">
        <ele>26.63378</ele>
        <time>2020-07-16T18:50:39.920Z</time>
      </trkpt>
      <trkpt lat="62.53171" lon="6.31016">
        <ele>26.660877</ele>
        <time>2020-07-16T18:50:58.771Z</time>
      </trkpt>
      <trkpt lat="62.53168" lon="6.30926">
        <ele>27.228835</ele>
        <time>2020-07-16T18:51:09.330Z</time>
      </trkpt>
      <trkpt lat="62.5315" lon="6.30603">
        <ele>28.954504</ele>
        <time>2020-07-16T18:51:44.342Z</time>
      </trkpt>
      <trkpt lat="62.53148" lon="6.30425">
        <ele>28.105227</ele>
        <time>2020-07-16T18:51:56.040Z</time>
      </trkpt>
      <trkpt lat="62.53199" lon="6.29666">
        <ele>25.517215</ele>
        <time>2020-07-16T18:52:48.780Z</time>
      </trkpt>
      <trkpt lat="62.53203" lon="6.29599">
        <ele>25.794337</ele>
        <time>2020-07-16T18:52:55.718Z</time>
      </trkpt>
      <trkpt lat="62.53205" lon="6.29598">
        <ele>25.816855</ele>
        <time>2020-07-16T18:52:57.817Z</time>
      </trkpt>
      <trkpt lat="62.53227" lon="6.29569">
        <ele>26.045949</ele>
        <time>2020-07-16T18:53:04.101Z</time>
      </trkpt>
      <trkpt lat="62.53238" lon="6.29536">
        <ele>26.213483</ele>
        <time>2020-07-16T18:53:10.331Z</time>
      </trkpt>
      <trkpt lat="62.53253" lon="6.29469">
        <ele>26.980888</ele>
        <time>2020-07-16T18:53:20.909Z</time>
      </trkpt>
      <trkpt lat="62.53277" lon="6.29353">
        <ele>28.783355</ele>
        <time>2020-07-16T18:53:38.908Z</time>
      </trkpt>
      <trkpt lat="62.53283" lon="6.29286">
        <ele>29.746659</ele>
        <time>2020-07-16T18:53:49.342Z</time>
      </trkpt>
      <trkpt lat="62.5326" lon="6.29156">
        <ele>31.711867</ele>
        <time>2020-07-16T18:54:06.286Z</time>
      </trkpt>
      <trkpt lat="62.53248" lon="6.28883">
        <ele>31.763436</ele>
        <time>2020-07-16T18:54:31.062Z</time>
      </trkpt>
      <trkpt lat="62.5323" lon="6.28708">
        <ele>31.34088</ele>
        <time>2020-07-16T18:54:43.760Z</time>
      </trkpt>
      <trkpt lat="62.532" lon="6.28552">
        <ele>30.131794</ele>
        <time>2020-07-16T18:54:55.568Z</time>
      </trkpt>
      <trkpt lat="62.53192" lon="6.28518">
        <ele>29.856845</ele>
        <time>2020-07-16T18:54:58.132Z</time>
      </trkpt>
      <trkpt lat="62.5319" lon="6.28506">
        <ele>29.76329</ele>
        <time>2020-07-16T18:54:59.009Z</time>
      </trkpt>
      <trkpt lat="62.53176" lon="6.28438">
        <ele>29.230769</ele>
        <time>2020-07-16T18:55:04.271Z</time>
      </trkpt>
      <trkpt lat="62.53159" lon="6.28158">
        <ele>29.576475</ele>
        <time>2020-07-16T18:55:26.120Z</time>
      </trkpt>
      <trkpt lat="62.53132" lon="6.27846">
        <ele>32.623406</ele>
        <time>2020-07-16T18:56:06.319Z</time>
      </trkpt>
      <trkpt lat="62.53129" lon="6.2776">
        <ele>33.98012</ele>
        <time>2020-07-16T18:56:18.918Z</time>
      </trkpt>
      <trkpt lat="62.5313" lon="6.27754">
        <ele>34.081514</ele>
        <time>2020-07-16T18:56:21.232Z</time>
      </trkpt>
      <trkpt lat="62.5315" lon="6.27578">
        <ele>35.96988</ele>
        <time>2020-07-16T18:56:46.259Z</time>
      </trkpt>
      <trkpt lat="62.53183" lon="6.27479">
        <ele>35.665709</ele>
        <time>2020-07-16T18:57:01.042Z</time>
      </trkpt>
      <trkpt lat="62.53204" lon="6.27451">
        <ele>35.533825</ele>
        <time>2020-07-16T18:57:06.987Z</time>
      </trkpt>
      <trkpt lat="62.53326" lon="6.27349">
        <ele>31.567994</ele>
        <time>2020-07-16T18:57:23.596Z</time>
      </trkpt>
      <trkpt lat="62.53364" lon="6.27317">
        <ele>29.029557</ele>
        <time>2020-07-16T18:57:28.422Z</time>
      </trkpt>
      <trkpt lat="62.5339" lon="6.27295">
        <ele>27.221023</ele>
        <time>2020-07-16T18:57:31.830Z</time>
      </trkpt>
      <trkpt lat="62.53439" lon="6.27274">
        <ele>24.109201</ele>
        <time>2020-07-16T18:57:37.774Z</time>
      </trkpt>
      <trkpt lat="62.5346" lon="6.2728">
        <ele>23.308988</ele>
        <time>2020-07-16T18:57:40.320Z</time>
      </trkpt>
      <trkpt lat="62.53491" lon="6.27308">
        <ele>22.320274</ele>
        <time>2020-07-16T18:57:44.380Z</time>
      </trkpt>
      <trkpt lat="62.53545" lon="6.27395">
        <ele>20.300717</ele>
        <time>2020-07-16T18:57:53.786Z</time>
      </trkpt>
      <trkpt lat="62.53606" lon="6.2754">
        <ele>19.303014</ele>
        <time>2020-07-16T18:58:10.785Z</time>
      </trkpt>
      <trkpt lat="62.53637" lon="6.27585">
        <ele>20.454256</ele>
        <time>2020-07-16T18:58:19.798Z</time>
      </trkpt>
      <trkpt lat="62.53696" lon="6.27647">
        <ele>22.490615</ele>
        <time>2020-07-16T18:58:38.970Z</time>
      </trkpt>
      <trkpt lat="62.53719" lon="6.27684">
        <ele>23.368689</ele>
        <time>2020-07-16T18:58:48.641Z</time>
      </trkpt>
      <trkpt lat="62.53765" lon="6.27804">
        <ele>27.595997</ele>
        <time>2020-07-16T18:59:16.459Z</time>
      </trkpt>
      <trkpt lat="62.53826" lon="6.28033">
        <ele>36.076337</ele>
        <time>2020-07-16T19:00:09.164Z</time>
      </trkpt>
      <trkpt lat="62.53874" lon="6.28176">
        <ele>40.24058</ele>
        <time>2020-07-16T19:00:42.143Z</time>
      </trkpt>
      <trkpt lat="62.53923" lon="6.28292">
        <ele>43.819841</ele>
        <time>2020-07-16T19:01:06.227Z</time>
      </trkpt>
      <trkpt lat="62.54025" lon="6.2849">
        <ele>46.398388</ele>
        <time>2020-07-16T19:01:39.271Z</time>
      </trkpt>
      <trkpt lat="62.54073" lon="6.28621">
        <ele>47.035093</ele>
        <time>2020-07-16T19:01:52.949Z</time>
      </trkpt>
      <trkpt lat="62.54115" lon="6.28707">
        <ele>44.655922</ele>
        <time>2020-07-16T19:02:02.280Z</time>
      </trkpt>
      <trkpt lat="62.54133" lon="6.28785">
        <ele>42.991453</ele>
        <time>2020-07-16T19:02:08.423Z</time>
      </trkpt>
      <trkpt lat="62.54136" lon="6.28787">
        <ele>42.845366</ele>
        <time>2020-07-16T19:02:08.864Z</time>
      </trkpt>
      <trkpt lat="62.54137" lon="6.288">
        <ele>42.599964</ele>
        <time>2020-07-16T19:02:09.811Z</time>
      </trkpt>
      <trkpt lat="62.54179" lon="6.28991">
        <ele>36.985461</ele>
        <time>2020-07-16T19:02:21.276Z</time>
      </trkpt>
      <trkpt lat="62.54211" lon="6.29071">
        <ele>32.112649</ele>
        <time>2020-07-16T19:02:26.867Z</time>
      </trkpt>
      <trkpt lat="62.54218" lon="6.29082">
        <ele>31.212833</ele>
        <time>2020-07-16T19:02:27.834Z</time>
      </trkpt>
      <trkpt lat="62.54223" lon="6.29086">
        <ele>30.706373</ele>
        <time>2020-07-16T19:02:28.382Z</time>
      </trkpt>
      <trkpt lat="62.54244" lon="6.29082">
        <ele>28.612383</ele>
        <time>2020-07-16T19:02:30.925Z</time>
      </trkpt>
      <trkpt lat="62.5425" lon="6.29079">
        <ele>27.994806</ele>
        <time>2020-07-16T19:02:31.591Z</time>
      </trkpt>
      <trkpt lat="62.54255" lon="6.29076">
        <ele>27.441939</ele>
        <time>2020-07-16T19:02:32.188Z</time>
      </trkpt>
      <trkpt lat="62.54278" lon="6.29065">
        <ele>25.134225</ele>
        <time>2020-07-16T19:02:34.877Z</time>
      </trkpt>
      <trkpt lat="62.5436" lon="6.29004">
        <ele>18.629731</ele>
        <time>2020-07-16T19:02:44.687Z</time>
      </trkpt>
      <trkpt lat="62.54399" lon="6.28965">
        <ele>16.165742</ele>
        <time>2020-07-16T19:02:49.899Z</time>
      </trkpt>
      <trkpt lat="62.54408" lon="6.28952">
        <ele>15.518774</ele>
        <time>2020-07-16T19:02:51.289Z</time>
      </trkpt>
      <trkpt lat="62.54414" lon="6.28944">
        <ele>15.150259</ele>
        <time>2020-07-16T19:02:52.176Z</time>
      </trkpt>
      <trkpt lat="62.54481" lon="6.28801">
        <ele>11.230113</ele>
        <time>2020-07-16T19:03:06.979Z</time>
      </trkpt>
      <trkpt lat="62.54485" lon="6.28791">
        <ele>11.218472</ele>
        <time>2020-07-16T19:03:07.870Z</time>
      </trkpt>
      <trkpt lat="62.54507" lon="6.28718">
        <ele>11.137044</ele>
        <time>2020-07-16T19:03:15.118Z</time>
      </trkpt>
      <trkpt lat="62.54517" lon="6.28694">
        <ele>11.106381</ele>
        <time>2020-07-16T19:03:18.060Z</time>
      </trkpt>
      <trkpt lat="62.54534" lon="6.28655">
        <ele>11.056442</ele>
        <time>2020-07-16T19:03:23.122Z</time>
      </trkpt>
      <trkpt lat="62.54581" lon="6.28507">
        <ele>10.918184</ele>
        <time>2020-07-16T19:03:39.082Z</time>
      </trkpt>
      <trkpt lat="62.54587" lon="6.28466">
        <ele>10.914778</ele>
        <time>2020-07-16T19:03:42.781Z</time>
      </trkpt>
      <trkpt lat="62.54588" lon="6.28443">
        <ele>10.912863</ele>
        <time>2020-07-16T19:03:44.810Z</time>
      </trkpt>
      <trkpt lat="62.54591" lon="6.28404">
        <ele>10.90963</ele>
        <time>2020-07-16T19:03:48.172Z</time>
      </trkpt>
      <trkpt lat="62.54594" lon="6.28387">
        <ele>10.90818</ele>
        <time>2020-07-16T19:03:49.771Z</time>
      </trkpt>
      <trkpt lat="62.54598" lon="6.28363">
        <ele>10.906176</ele>
        <time>2020-07-16T19:03:51.847Z</time>
      </trkpt>
      <trkpt lat="62.546" lon="6.28351">
        <ele>10.90508</ele>
        <time>2020-07-16T19:03:52.875Z</time>
      </trkpt>
      <trkpt lat="62.54626" lon="6.28212">
        <ele>10.89294</ele>
        <time>2020-07-16T19:04:05.076Z</time>
      </trkpt>
      <trkpt lat="62.54631" lon="6.28192">
        <ele>10.891087</ele>
        <time>2020-07-16T19:04:07.168Z</time>
      </trkpt>
      <trkpt lat="62.54636" lon="6.28168">
        <ele>10.936048</ele>
        <time>2020-07-16T19:04:09.412Z</time>
      </trkpt>
      <trkpt lat="62.54666" lon="6.28045">
        <ele>12.250656</ele>
        <time>2020-07-16T19:04:22.077Z</time>
      </trkpt>
      <trkpt lat="62.54698" lon="6.27973">
        <ele>13.209524</ele>
        <time>2020-07-16T19:04:33.512Z</time>
      </trkpt>
      <trkpt lat="62.54714" lon="6.27956">
        <ele>13.564493</ele>
        <time>2020-07-16T19:04:38.340Z</time>
      </trkpt>
      <trkpt lat="62.54715" lon="6.27946">
        <ele>13.657459</ele>
        <time>2020-07-16T19:04:39.971Z</time>
      </trkpt>
      <trkpt lat="62.54735" lon="6.27922">
        <ele>14.129886</ele>
        <time>2020-07-16T19:04:46.558Z</time>
      </trkpt>
      <trkpt lat="62.54772" lon="6.27934">
        <ele>15.31641</ele>
        <time>2020-07-16T19:04:58.498Z</time>
      </trkpt>
      <trkpt lat="62.54778" lon="6.27931">
        <ele>15.615117</ele>
        <time>2020-07-16T19:05:00.793Z</time>
      </trkpt>
      <trkpt lat="62.54793" lon="6.27933">
        <ele>16.368603</ele>
        <time>2020-07-16T19:05:06.156Z</time>
      </trkpt>
      <trkpt lat="62.54808" lon="6.27933">
        <ele>17.106856</ele>
        <time>2020-07-16T19:05:11.001Z</time>
      </trkpt>
      <trkpt lat="62.54874" lon="6.27932">
        <ele>20.348328</ele>
        <time>2020-07-16T19:05:36.834Z</time>
      </trkpt>
      <trkpt lat="62.54959" lon="6.27919">
        <ele>23.414853</ele>
        <time>2020-07-16T19:06:04.939Z</time>
      </trkpt>
      <trkpt lat="62.54962" lon="6.27918">
        <ele>23.419381</ele>
        <time>2020-07-16T19:06:07.296Z</time>
      </trkpt>
      <trkpt lat="62.54969" lon="6.27915">
        <ele>23.429543</ele>
        <time>2020-07-16T19:06:08.885Z</time>
      </trkpt>
      <trkpt lat="62.5505" lon="6.27875">
        <ele>23.559903</ele>
        <time>2020-07-16T19:06:25.992Z</time>
      </trkpt>
      <trkpt lat="62.55118" lon="6.27831">
        <ele>23.294055</ele>
        <time>2020-07-16T19:06:36.156Z</time>
      </trkpt>
      <trkpt lat="62.55251" lon="6.27698">
        <ele>15.889238</ele>
        <time>2020-07-16T19:06:54.338Z</time>
      </trkpt>
      <trkpt lat="62.55293" lon="6.27646">
        <ele>13.932231</ele>
        <time>2020-07-16T19:07:00.378Z</time>
      </trkpt>
      <trkpt lat="62.55383" lon="6.27532">
        <ele>10.829137</ele>
        <time>2020-07-16T19:07:14.438Z</time>
      </trkpt>
      <trkpt lat="62.55439" lon="6.27466">
        <ele>9.32679</ele>
        <time>2020-07-16T19:07:24.605Z</time>
      </trkpt>
      <trkpt lat="62.55464" lon="6.27444">
        <ele>9.615229</ele>
        <time>2020-07-16T19:07:29.581Z</time>
      </trkpt>
      <trkpt lat="62.5548" lon="6.27432">
        <ele>9.786544</ele>
        <time>2020-07-16T19:07:32.818Z</time>
      </trkpt>
      <trkpt lat="62.55693" lon="6.27334">
        <ele>15.099251</ele>
        <time>2020-07-16T19:08:26.185Z</time>
      </trkpt>
      <trkpt lat="62.5572" lon="6.27331">
        <ele>16.279439</ele>
        <time>2020-07-16T19:08:36.123Z</time>
      </trkpt>
      <trkpt lat="62.55724" lon="6.2733">
        <ele>16.454477</ele>
        <time>2020-07-16T19:08:37.432Z</time>
      </trkpt>
      <trkpt lat="62.55726" lon="6.27338">
        <ele>16.632494</ele>
        <time>2020-07-16T19:08:39.535Z</time>
      </trkpt>
      <trkpt lat="62.55828" lon="6.27381">
        <ele>22.622842</ele>
        <time>2020-07-16T19:09:23.019Z</time>
      </trkpt>
      <trkpt lat="62.55832" lon="6.27403">
        <ele>23.39316</ele>
        <time>2020-07-16T19:09:27.723Z</time>
      </trkpt>
      <trkpt lat="62.55831" lon="6.27409">
        <ele>23.611225</ele>
        <time>2020-07-16T19:09:29.738Z</time>
      </trkpt>
      <trkpt lat="62.55831" lon="6.27409">
        <ele>23.611225</ele>
        <time>2020-07-16T19:09:29.979Z</time>
      </trkpt>
      <trkpt lat="62.55836" lon="6.27411">
        <ele>23.978331</ele>
        <time>2020-07-16T19:09:32.636Z</time>
      </trkpt>
      <trkpt lat="62.55851" lon="6.27427">
        <ele>25.185872</ele>
        <time>2020-07-16T19:09:40.086Z</time>
      </trkpt>
      <trkpt lat="62.55901" lon="6.27514">
        <ele>29.851531</ele>
        <time>2020-07-16T19:10:09.490Z</time>
      </trkpt>
      <trkpt lat="62.55949" lon="6.27635">
        <ele>31.124754</ele>
        <time>2020-07-16T19:10:33.015Z</time>
      </trkpt>
      <trkpt lat="62.55958" lon="6.27659">
        <ele>30.844339</ele>
        <time>2020-07-16T19:10:37.015Z</time>
      </trkpt>
      <trkpt lat="62.55962" lon="6.27669">
        <ele>30.726428</ele>
        <time>2020-07-16T19:10:38.122Z</time>
      </trkpt>
      <trkpt lat="62.5599" lon="6.27743">
        <ele>29.873101</ele>
        <time>2020-07-16T19:10:43.881Z</time>
      </trkpt>
      <trkpt lat="62.56032" lon="6.27847">
        <ele>28.623585</ele>
        <time>2020-07-16T19:10:52.118Z</time>
      </trkpt>
      <trkpt lat="62.56043" lon="6.27876">
        <ele>27.871964</ele>
        <time>2020-07-16T19:10:53.990Z</time>
      </trkpt>
      <trkpt lat="62.56046" lon="6.27885">
        <ele>27.522597</ele>
        <time>2020-07-16T19:10:54.671Z</time>
      </trkpt>
      <trkpt lat="62.5609" lon="6.27948">
        <ele>24.142969</ele>
        <time>2020-07-16T19:11:00.883Z</time>
      </trkpt>
      <trkpt lat="62.56099" lon="6.27961">
        <ele>23.434814</ele>
        <time>2020-07-16T19:11:02.099Z</time>
      </trkpt>
      <trkpt lat="62.56104" lon="6.27966">
        <ele>23.053224</ele>
        <time>2020-07-16T19:11:02.774Z</time>
      </trkpt>
      <trkpt lat="62.56162" lon="6.27977">
        <ele>19.290779</ele>
        <time>2020-07-16T19:11:09.953Z</time>
      </trkpt>
      <trkpt lat="62.56183" lon="6.27975">
        <ele>17.951987</ele>
        <time>2020-07-16T19:11:12.418Z</time>
      </trkpt>
      <trkpt lat="62.56186" lon="6.27975">
        <ele>17.738753</ele>
        <time>2020-07-16T19:11:12.953Z</time>
      </trkpt>
      <trkpt lat="62.56199" lon="6.27973">
        <ele>16.902718</ele>
        <time>2020-07-16T19:11:14.821Z</time>
      </trkpt>
      <trkpt lat="62.5622" lon="6.27963">
        <ele>16.421937</ele>
        <time>2020-07-16T19:11:17.884Z</time>
      </trkpt>
      <trkpt lat="62.56284" lon="6.27897">
        <ele>14.945838</ele>
        <time>2020-07-16T19:11:28.441Z</time>
      </trkpt>
      <trkpt lat="62.56369" lon="6.27826">
        <ele>13.0769</ele>
        <time>2020-07-16T19:11:42.405Z</time>
      </trkpt>
      <trkpt lat="62.56394" lon="6.27786">
        <ele>12.865401</ele>
        <time>2020-07-16T19:11:47.312Z</time>
      </trkpt>
      <trkpt lat="62.56428" lon="6.27715">
        <ele>12.549381</ele>
        <time>2020-07-16T19:11:54.999Z</time>
      </trkpt>
      <trkpt lat="62.56454" lon="6.27681">
        <ele>12.347514</ele>
        <time>2020-07-16T19:12:00.421Z</time>
      </trkpt>
      <trkpt lat="62.56463" lon="6.27675">
        <ele>12.284562</ele>
        <time>2020-07-16T19:12:01.809Z</time>
      </trkpt>
      <trkpt lat="62.5647" lon="6.2767">
        <ele>12.233964</ele>
        <time>2020-07-16T19:12:03.574Z</time>
      </trkpt>
      <trkpt lat="62.56512" lon="6.2767">
        <ele>11.952172</ele>
        <time>2020-07-16T19:12:11.210Z</time>
      </trkpt>
      <trkpt lat="62.5653" lon="6.2768">
        <ele>11.897011</ele>
        <time>2020-07-16T19:12:14.461Z</time>
      </trkpt>
      <trkpt lat="62.56544" lon="6.27685">
        <ele>11.911231</ele>
        <time>2020-07-16T19:12:17.385Z</time>
      </trkpt>
      <trkpt lat="62.56569" lon="6.27679">
        <ele>11.936363</ele>
        <time>2020-07-16T19:12:21.718Z</time>
      </trkpt>
      <trkpt lat="62.56603" lon="6.27653">
        <ele>11.973621</ele>
        <time>2020-07-16T19:12:28.756Z</time>
      </trkpt>
      <trkpt lat="62.56666" lon="6.27579">
        <ele>12.045679</ele>
        <time>2020-07-16T19:12:43.032Z</time>
      </trkpt>
      <trkpt lat="62.56683" lon="6.27562">
        <ele>12.065226</ele>
        <time>2020-07-16T19:12:46.785Z</time>
      </trkpt>
      <trkpt lat="62.56714" lon="6.27541">
        <ele>11.919169</ele>
        <time>2020-07-16T19:12:52.399Z</time>
      </trkpt>
      <trkpt lat="62.56742" lon="6.27521">
        <ele>11.75423</ele>
        <time>2020-07-16T19:12:57.526Z</time>
      </trkpt>
      <trkpt lat="62.5675" lon="6.27492">
        <ele>11.670027</ele>
        <time>2020-07-16T19:13:00.235Z</time>
      </trkpt>
      <trkpt lat="62.5675" lon="6.27479">
        <ele>11.637868</ele>
        <time>2020-07-16T19:13:01.101Z</time>
      </trkpt>
      <trkpt lat="62.56753" lon="6.27478">
        <ele>11.621763</ele>
        <time>2020-07-16T19:13:01.672Z</time>
      </trkpt>
      <trkpt lat="62.56775" lon="6.27466">
        <ele>11.496475</ele>
        <time>2020-07-16T19:13:05.655Z</time>
      </trkpt>
      <trkpt lat="62.56821" lon="6.27456">
        <ele>11.238817</ele>
        <time>2020-07-16T19:13:13.194Z</time>
      </trkpt>
      <trkpt lat="62.56922" lon="6.27433">
        <ele>10.55704</ele>
        <time>2020-07-16T19:13:30.082Z</time>
      </trkpt>
      <trkpt lat="62.56931" lon="6.2743">
        <ele>10.491958</ele>
        <time>2020-07-16T19:13:31.632Z</time>
      </trkpt>
      <trkpt lat="62.5693" lon="6.27414">
        <ele>10.440511</ele>
        <time>2020-07-16T19:13:33.100Z</time>
      </trkpt>
      <trkpt lat="62.57014" lon="6.27395">
        <ele>9.831575</ele>
        <time>2020-07-16T19:13:46.669Z</time>
      </trkpt>
      <trkpt lat="62.57021" lon="6.27393">
        <ele>9.77769</ele>
        <time>2020-07-16T19:13:47.879Z</time>
      </trkpt>
      <trkpt lat="62.57192" lon="6.27353">
        <ele>8.626918</ele>
        <time>2020-07-16T19:14:15.358Z</time>
      </trkpt>
      <trkpt lat="62.57274" lon="6.27335">
        <ele>8.412611</ele>
        <time>2020-07-16T19:14:29.004Z</time>
      </trkpt>
      <trkpt lat="62.5736" lon="6.2732">
        <ele>8.232088</ele>
        <time>2020-07-16T19:14:44.068Z</time>
      </trkpt>
      <trkpt lat="62.57493" lon="6.27297">
        <ele>8.731126</ele>
        <time>2020-07-16T19:15:09.916Z</time>
      </trkpt>
      <trkpt lat="62.57574" lon="6.27272">
        <ele>9.021015</ele>
        <time>2020-07-16T19:15:26.074Z</time>
      </trkpt>
      <trkpt lat="62.57607" lon="6.27255">
        <ele>8.968973</ele>
        <time>2020-07-16T19:15:32.591Z</time>
      </trkpt>
      <trkpt lat="62.57628" lon="6.27244">
        <ele>8.93704</ele>
        <time>2020-07-16T19:15:36.487Z</time>
      </trkpt>
      <trkpt lat="62.57667" lon="6.27217">
        <ele>8.875809</ele>
        <time>2020-07-16T19:15:43.735Z</time>
      </trkpt>
      <trkpt lat="62.57693" lon="6.27197">
        <ele>8.833926</ele>
        <time>2020-07-16T19:15:48.515Z</time>
      </trkpt>
      <trkpt lat="62.57708" lon="6.27185">
        <ele>8.8106</ele>
        <time>2020-07-16T19:15:51.009Z</time>
      </trkpt>
      <trkpt lat="62.57815" lon="6.27066">
        <ele>7.477664</ele>
        <time>2020-07-16T19:16:09.425Z</time>
      </trkpt>
      <trkpt lat="62.57827" lon="6.27049">
        <ele>7.293422</ele>
        <time>2020-07-16T19:16:11.463Z</time>
      </trkpt>
      <trkpt lat="62.57848" lon="6.2702">
        <ele>6.958493</ele>
        <time>2020-07-16T19:16:15.152Z</time>
      </trkpt>
      <trkpt lat="62.57969" lon="6.26803">
        <ele>4.443421</ele>
        <time>2020-07-16T19:16:37.573Z</time>
      </trkpt>
      <trkpt lat="62.57995" lon="6.26756">
        <ele>3.86515</ele>
        <time>2020-07-16T19:16:42.527Z</time>
      </trkpt>
      <trkpt lat="62.58005" lon="6.26739">
        <ele>3.648003</ele>
        <time>2020-07-16T19:16:44.318Z</time>
      </trkpt>
      <trkpt lat="62.58081" lon="6.26634">
        <ele>2.570139</ele>
        <time>2020-07-16T19:16:57.771Z</time>
      </trkpt>
      <trkpt lat="62.58153" lon="6.26565">
        <ele>1.761119</ele>
        <time>2020-07-16T19:17:09.939Z</time>
      </trkpt>
      <trkpt lat="62.58178" lon="6.26549">
        <ele>1.494058</ele>
        <time>2020-07-16T19:17:14.200Z</time>
      </trkpt>
      <trkpt lat="62.58188" lon="6.26543">
        <ele>1.421638</ele>
        <time>2020-07-16T19:17:15.908Z</time>
      </trkpt>
      <trkpt lat="62.58263" lon="6.2651">
        <ele>1.24603</ele>
        <time>2020-07-16T19:17:28.848Z</time>
      </trkpt>
      <trkpt lat="62.58344" lon="6.26506">
        <ele>1.058375</ele>
        <time>2020-07-16T19:17:43.137Z</time>
      </trkpt>
      <trkpt lat="62.58415" lon="6.26543">
        <ele>1.041076</ele>
        <time>2020-07-16T19:17:56.044Z</time>
      </trkpt>
      <trkpt lat="62.58468" lon="6.26606">
        <ele>1.067173</ele>
        <time>2020-07-16T19:18:06.964Z</time>
      </trkpt>
      <trkpt lat="62.58494" lon="6.26648">
        <ele>1.080722</ele>
        <time>2020-07-16T19:18:12.638Z</time>
      </trkpt>
      <trkpt lat="62.58512" lon="6.26687">
        <ele>1.091759</ele>
        <time>2020-07-16T19:18:17.341Z</time>
      </trkpt>
      <trkpt lat="62.5853" lon="6.26734">
        <ele>1.269731</ele>
        <time>2020-07-16T19:18:22.468Z</time>
      </trkpt>
      <trkpt lat="62.58545" lon="6.26784">
        <ele>1.499342</ele>
        <time>2020-07-16T19:18:27.833Z</time>
      </trkpt>
      <trkpt lat="62.58551" lon="6.26802">
        <ele>1.582223</ele>
        <time>2020-07-16T19:18:29.746Z</time>
      </trkpt>
      <trkpt lat="62.58569" lon="6.26888">
        <ele>1.939251</ele>
        <time>2020-07-16T19:18:38.395Z</time>
      </trkpt>
      <trkpt lat="62.58577" lon="6.26945">
        <ele>2.16847</ele>
        <time>2020-07-16T19:18:44.007Z</time>
      </trkpt>
      <trkpt lat="62.5858" lon="6.26971">
        <ele>2.269589</ele>
        <time>2020-07-16T19:18:46.636Z</time>
      </trkpt>
      <trkpt lat="62.58601" lon="6.27444">
        <ele>5.645104</ele>
        <time>2020-07-16T19:19:37.689Z</time>
      </trkpt>
      <trkpt lat="62.58606" lon="6.2752">
        <ele>6.153594</ele>
        <time>2020-07-16T19:19:46.125Z</time>
      </trkpt>
      <trkpt lat="62.58606" lon="6.27527">
        <ele>6.199207</ele>
        <time>2020-07-16T19:19:47.133Z</time>
      </trkpt>
      <trkpt lat="62.58619" lon="6.27644">
        <ele>7.006297</ele>
        <time>2020-07-16T19:19:59.904Z</time>
      </trkpt>
      <trkpt lat="62.58625" lon="6.27674">
        <ele>7.22393</ele>
        <time>2020-07-16T19:20:03.520Z</time>
      </trkpt>
      <trkpt lat="62.58629" lon="6.27691">
        <ele>7.349046</ele>
        <time>2020-07-16T19:20:05.501Z</time>
      </trkpt>
      <trkpt lat="62.58672" lon="6.27813">
        <ele>8.232378</ele>
        <time>2020-07-16T19:20:20.564Z</time>
      </trkpt>
      <trkpt lat="62.58701" lon="6.27864">
        <ele>8.271974</ele>
        <time>2020-07-16T19:20:27.497Z</time>
      </trkpt>
      <trkpt lat="62.58731" lon="6.27902">
        <ele>8.309008</ele>
        <time>2020-07-16T19:20:33.882Z</time>
      </trkpt>
      <trkpt lat="62.58773" lon="6.27947">
        <ele>8.359156</ele>
        <time>2020-07-16T19:20:41.985Z</time>
      </trkpt>
      <trkpt lat="62.58824" lon="6.28">
        <ele>8.392444</ele>
        <time>2020-07-16T19:20:51.633Z</time>
      </trkpt>
      <trkpt lat="62.58872" lon="6.2805">
        <ele>8.201732</ele>
        <time>2020-07-16T19:21:00.682Z</time>
      </trkpt>
      <trkpt lat="62.5898" lon="6.28164">
        <ele>7.769906</ele>
        <time>2020-07-16T19:21:20.829Z</time>
      </trkpt>
      <trkpt lat="62.59017" lon="6.28202">
        <ele>7.589268</ele>
        <time>2020-07-16T19:21:27.444Z</time>
      </trkpt>
      <trkpt lat="62.59058" lon="6.28245">
        <ele>7.382215</ele>
        <time>2020-07-16T19:21:34.970Z</time>
      </trkpt>
      <trkpt lat="62.59104" lon="6.28297">
        <ele>7.147052</ele>
        <time>2020-07-16T19:21:43.517Z</time>
      </trkpt>
      <trkpt lat="62.5912" lon="6.28316">
        <ele>7.065789</ele>
        <time>2020-07-16T19:21:46.497Z</time>
      </trkpt>
      <trkpt lat="62.5916" lon="6.28366">
        <ele>6.988849</ele>
        <time>2020-07-16T19:21:54.231Z</time>
      </trkpt>
      <trkpt lat="62.59169" lon="6.28382">
        <ele>7.006731</ele>
        <time>2020-07-16T19:21:56.213Z</time>
      </trkpt>
      <trkpt lat="62.5919" lon="6.28421">
        <ele>7.048963</ele>
        <time>2020-07-16T19:22:01.269Z</time>
      </trkpt>
      <trkpt lat="62.59198" lon="6.28438">
        <ele>7.065743</ele>
        <time>2020-07-16T19:22:03.177Z</time>
      </trkpt>
      <trkpt lat="62.5923" lon="6.28507">
        <ele>7.135064</ele>
        <time>2020-07-16T19:22:11.662Z</time>
      </trkpt>
      <trkpt lat="62.59251" lon="6.2857">
        <ele>7.188769</ele>
        <time>2020-07-16T19:22:18.433Z</time>
      </trkpt>
      <trkpt lat="62.59261" lon="6.28637">
        <ele>7.271594</ele>
        <time>2020-07-16T19:22:24.719Z</time>
      </trkpt>
      <trkpt lat="62.59267" lon="6.28668">
        <ele>7.387034</ele>
        <time>2020-07-16T19:22:27.861Z</time>
      </trkpt>
      <trkpt lat="62.59272" lon="6.2869">
        <ele>7.472114</ele>
        <time>2020-07-16T19:22:30.045Z</time>
      </trkpt>
      <trkpt lat="62.5929" lon="6.28761">
        <ele>7.75249</ele>
        <time>2020-07-16T19:22:37.582Z</time>
      </trkpt>
      <trkpt lat="62.59311" lon="6.28838">
        <ele>8.059632</ele>
        <time>2020-07-16T19:22:45.714Z</time>
      </trkpt>
      <trkpt lat="62.59335" lon="6.28917">
        <ele>8.387109</ele>
        <time>2020-07-16T19:22:54.863Z</time>
      </trkpt>
      <trkpt lat="62.59342" lon="6.28943">
        <ele>8.492174</ele>
        <time>2020-07-16T19:22:57.880Z</time>
      </trkpt>
      <trkpt lat="62.5935" lon="6.28976">
        <ele>8.643503</ele>
        <time>2020-07-16T19:23:01.196Z</time>
      </trkpt>
      <trkpt lat="62.5936" lon="6.29027">
        <ele>8.953</ele>
        <time>2020-07-16T19:23:06.577Z</time>
      </trkpt>
      <trkpt lat="62.59381" lon="6.29112">
        <ele>9.487189</ele>
        <time>2020-07-16T19:23:16.193Z</time>
      </trkpt>
      <trkpt lat="62.59388" lon="6.29152">
        <ele>9.729837</ele>
        <time>2020-07-16T19:23:20.394Z</time>
      </trkpt>
      <trkpt lat="62.59407" lon="6.29308">
        <ele>10.628824</ele>
        <time>2020-07-16T19:23:36.968Z</time>
      </trkpt>
      <trkpt lat="62.5941" lon="6.29329">
        <ele>10.752584</ele>
        <time>2020-07-16T19:23:39.432Z</time>
      </trkpt>
      <trkpt lat="62.59422" lon="6.29385">
        <ele>10.974103</ele>
        <time>2020-07-16T19:23:45.593Z</time>
      </trkpt>
      <trkpt lat="62.59425" lon="6.29397">
        <ele>11.022466</ele>
        <time>2020-07-16T19:23:47.133Z</time>
      </trkpt>
      <trkpt lat="62.59436" lon="6.29493">
        <ele>11.378096</ele>
        <time>2020-07-16T19:23:57.044Z</time>
      </trkpt>
      <trkpt lat="62.59439" lon="6.29514">
        <ele>11.458393</ele>
        <time>2020-07-16T19:23:59.218Z</time>
      </trkpt>
      <trkpt lat="62.59443" lon="6.29539">
        <ele>11.551476</ele>
        <time>2020-07-16T19:24:01.819Z</time>
      </trkpt>
      <trkpt lat="62.59504" lon="6.29793">
        <ele>11.562415</ele>
        <time>2020-07-16T19:24:26.076Z</time>
      </trkpt>
      <trkpt lat="62.59527" lon="6.29853">
        <ele>11.172303</ele>
        <time>2020-07-16T19:24:31.476Z</time>
      </trkpt>
      <trkpt lat="62.59537" lon="6.29873">
        <ele>11.023626</ele>
        <time>2020-07-16T19:24:33.488Z</time>
      </trkpt>
      <trkpt lat="62.59546" lon="6.29887">
        <ele>10.903767</ele>
        <time>2020-07-16T19:24:35.029Z</time>
      </trkpt>
      <trkpt lat="62.59609" lon="6.29956">
        <ele>10.128355</ele>
        <time>2020-07-16T19:24:45.117Z</time>
      </trkpt>
      <trkpt lat="62.59634" lon="6.29985">
        <ele>9.77013</ele>
        <time>2020-07-16T19:24:49.152Z</time>
      </trkpt>
      <trkpt lat="62.59651" lon="6.30004">
        <ele>9.529544</ele>
        <time>2020-07-16T19:24:51.846Z</time>
      </trkpt>
      <trkpt lat="62.59655" lon="6.30009">
        <ele>9.46375</ele>
        <time>2020-07-16T19:24:52.513Z</time>
      </trkpt>
      <trkpt lat="62.59704" lon="6.30048">
        <ele>8.80797</ele>
        <time>2020-07-16T19:25:00.036Z</time>
      </trkpt>
      <trkpt lat="62.59733" lon="6.30084">
        <ele>8.387483</ele>
        <time>2020-07-16T19:25:05.149Z</time>
      </trkpt>
      <trkpt lat="62.59762" lon="6.30142">
        <ele>7.935422</ele>
        <time>2020-07-16T19:25:11.629Z</time>
      </trkpt>
      <trkpt lat="62.59777" lon="6.30198">
        <ele>8.126828</ele>
        <time>2020-07-16T19:25:16.900Z</time>
      </trkpt>
      <trkpt lat="62.59779" lon="6.30208">
        <ele>8.160083</ele>
        <time>2020-07-16T19:25:17.910Z</time>
      </trkpt>
      <trkpt lat="62.59791" lon="6.30287">
        <ele>8.408431</ele>
        <time>2020-07-16T19:25:25.710Z</time>
      </trkpt>
      <trkpt lat="62.59798" lon="6.30338">
        <ele>8.566789</ele>
        <time>2020-07-16T19:25:30.589Z</time>
      </trkpt>
      <trkpt lat="62.59802" lon="6.30369">
        <ele>8.663332</ele>
        <time>2020-07-16T19:25:33.916Z</time>
      </trkpt>
      <trkpt lat="62.59827" lon="6.30543">
        <ele>9.235884</ele>
        <time>2020-07-16T19:25:51.787Z</time>
      </trkpt>
      <trkpt lat="62.59831" lon="6.30573">
        <ele>9.351997</ele>
        <time>2020-07-16T19:25:55.008Z</time>
      </trkpt>
      <trkpt lat="62.59833" lon="6.30591">
        <ele>9.42037</ele>
        <time>2020-07-16T19:25:57.027Z</time>
      </trkpt>
      <trkpt lat="62.59834" lon="6.3061">
        <ele>9.493699</ele>
        <time>2020-07-16T19:25:58.828Z</time>
      </trkpt>
      <trkpt lat="62.59837" lon="6.3066">
        <ele>9.682338</ele>
        <time>2020-07-16T19:26:03.873Z</time>
      </trkpt>
      <trkpt lat="62.59837" lon="6.30734">
        <ele>9.956616</ele>
        <time>2020-07-16T19:26:10.896Z</time>
      </trkpt>
      <trkpt lat="62.59835" lon="6.30781">
        <ele>10.133496</ele>
        <time>2020-07-16T19:26:15.267Z</time>
      </trkpt>
      <trkpt lat="62.59835" lon="6.30792">
        <ele>10.175423</ele>
        <time>2020-07-16T19:26:16.272Z</time>
      </trkpt>
      <trkpt lat="62.59834" lon="6.30797">
        <ele>10.195283</ele>
        <time>2020-07-16T19:26:16.881Z</time>
      </trkpt>
      <trkpt lat="62.59831" lon="6.30918">
        <ele>10.511569</ele>
        <time>2020-07-16T19:26:27.401Z</time>
      </trkpt>
      <trkpt lat="62.59847" lon="6.3104">
        <ele>10.392666</ele>
        <time>2020-07-16T19:26:37.638Z</time>
      </trkpt>
      <trkpt lat="62.59852" lon="6.3106">
        <ele>10.371528</ele>
        <time>2020-07-16T19:26:39.483Z</time>
      </trkpt>
      <trkpt lat="62.59859" lon="6.31083">
        <ele>10.346199</ele>
        <time>2020-07-16T19:26:41.444Z</time>
      </trkpt>
      <trkpt lat="62.59865" lon="6.31101">
        <ele>10.324283</ele>
        <time>2020-07-16T19:26:43.404Z</time>
      </trkpt>
      <trkpt lat="62.59875" lon="6.31124">
        <ele>10.296066</ele>
        <time>2020-07-16T19:26:45.804Z</time>
      </trkpt>
      <trkpt lat="62.59886" lon="6.31151">
        <ele>10.261799</ele>
        <time>2020-07-16T19:26:48.455Z</time>
      </trkpt>
      <trkpt lat="62.59929" lon="6.31234">
        <ele>10.146753</ele>
        <time>2020-07-16T19:26:58.033Z</time>
      </trkpt>
      <trkpt lat="62.59957" lon="6.3129">
        <ele>10.072978</ele>
        <time>2020-07-16T19:27:04.413Z</time>
      </trkpt>
      <trkpt lat="62.59961" lon="6.31299">
        <ele>10.062092</ele>
        <time>2020-07-16T19:27:05.304Z</time>
      </trkpt>
      <trkpt lat="62.59976" lon="6.31333">
        <ele>10.019424</ele>
        <time>2020-07-16T19:27:09.054Z</time>
      </trkpt>
      <trkpt lat="62.59995" lon="6.31385">
        <ele>9.960036</ele>
        <time>2020-07-16T19:27:14.283Z</time>
      </trkpt>
      <trkpt lat="62.60019" lon="6.31463">
        <ele>9.876902</ele>
        <time>2020-07-16T19:27:22.034Z</time>
      </trkpt>
      <trkpt lat="62.60033" lon="6.3151">
        <ele>9.826893</ele>
        <time>2020-07-16T19:27:26.806Z</time>
      </trkpt>
      <trkpt lat="62.60109" lon="6.3168">
        <ele>9.792899</ele>
        <time>2020-07-16T19:27:46.447Z</time>
      </trkpt>
      <trkpt lat="62.60131" lon="6.31724">
        <ele>9.783899</ele>
        <time>2020-07-16T19:27:51.863Z</time>
      </trkpt>
      <trkpt lat="62.60138" lon="6.31738">
        <ele>9.781061</ele>
        <time>2020-07-16T19:27:53.459Z</time>
      </trkpt>
      <trkpt lat="62.60158" lon="6.31766">
        <ele>9.774223</ele>
        <time>2020-07-16T19:27:57.474Z</time>
      </trkpt>
      <trkpt lat="62.60196" lon="6.31815">
        <ele>9.686407</ele>
        <time>2020-07-16T19:28:05.062Z</time>
      </trkpt>
      <trkpt lat="62.60223" lon="6.31853">
        <ele>9.608644</ele>
        <time>2020-07-16T19:28:10.570Z</time>
      </trkpt>
      <trkpt lat="62.60228" lon="6.3186">
        <ele>9.593687</ele>
        <time>2020-07-16T19:28:11.577Z</time>
      </trkpt>
      <trkpt lat="62.60334" lon="6.31961">
        <ele>9.305495</ele>
        <time>2020-07-16T19:28:31.272Z</time>
      </trkpt>
      <trkpt lat="62.60382" lon="6.32025">
        <ele>9.119498</ele>
        <time>2020-07-16T19:28:40.909Z</time>
      </trkpt>
      <trkpt lat="62.60409" lon="6.32068">
        <ele>9.006131</ele>
        <time>2020-07-16T19:28:46.739Z</time>
      </trkpt>
      <trkpt lat="62.60412" lon="6.32072">
        <ele>8.995874</ele>
        <time>2020-07-16T19:28:47.184Z</time>
      </trkpt>
      <trkpt lat="62.6046" lon="6.32127">
        <ele>8.812227</ele>
        <time>2020-07-16T19:28:56.452Z</time>
      </trkpt>
      <trkpt lat="62.605" lon="6.32187">
        <ele>8.689845</ele>
        <time>2020-07-16T19:29:04.409Z</time>
      </trkpt>
      <trkpt lat="62.60518" lon="6.32216">
        <ele>8.646506</ele>
        <time>2020-07-16T19:29:08.177Z</time>
      </trkpt>
      <trkpt lat="62.60544" lon="6.32256">
        <ele>8.588264</ele>
        <time>2020-07-16T19:29:13.354Z</time>
      </trkpt>
      <trkpt lat="62.60584" lon="6.32335">
        <ele>8.486517</ele>
        <time>2020-07-16T19:29:22.978Z</time>
      </trkpt>
      <trkpt lat="62.60587" lon="6.32344">
        <ele>8.476622</ele>
        <time>2020-07-16T19:29:23.857Z</time>
      </trkpt>
      <trkpt lat="62.60591" lon="6.32356">
        <ele>8.463481</ele>
        <time>2020-07-16T19:29:25.060Z</time>
      </trkpt>
      <trkpt lat="62.60601" lon="6.32388">
        <ele>8.430113</ele>
        <time>2020-07-16T19:29:28.533Z</time>
      </trkpt>
      <trkpt lat="62.60609" lon="6.3242">
        <ele>8.398486</ele>
        <time>2020-07-16T19:29:31.350Z</time>
      </trkpt>
      <trkpt lat="62.60616" lon="6.32461">
        <ele>8.357971</ele>
        <time>2020-07-16T19:29:35.263Z</time>
      </trkpt>
      <trkpt lat="62.60621" lon="6.32494">
        <ele>8.326695</ele>
        <time>2020-07-16T19:29:37.865Z</time>
      </trkpt>
      <trkpt lat="62.60622" lon="6.32509">
        <ele>8.313096</ele>
        <time>2020-07-16T19:29:39.120Z</time>
      </trkpt>
      <trkpt lat="62.60628" lon="6.3256">
        <ele>8.264292</ele>
        <time>2020-07-16T19:29:43.568Z</time>
      </trkpt>
      <trkpt lat="62.60643" lon="6.32669">
        <ele>8.159825</ele>
        <time>2020-07-16T19:29:52.754Z</time>
      </trkpt>
      <trkpt lat="62.60646" lon="6.32685">
        <ele>8.143539</ele>
        <time>2020-07-16T19:29:54.358Z</time>
      </trkpt>
      <trkpt lat="62.60655" lon="6.32731">
        <ele>8.098874</ele>
        <time>2020-07-16T19:29:58.069Z</time>
      </trkpt>
      <trkpt lat="62.6067" lon="6.32783">
        <ele>8.041805</ele>
        <time>2020-07-16T19:30:02.673Z</time>
      </trkpt>
      <trkpt lat="62.60693" lon="6.3282">
        <ele>7.845017</ele>
        <time>2020-07-16T19:30:07.261Z</time>
      </trkpt>
      <trkpt lat="62.60776" lon="6.32879">
        <ele>7.235301</ele>
        <time>2020-07-16T19:30:21.089Z</time>
      </trkpt>
      <trkpt lat="62.60783" lon="6.32885">
        <ele>7.1806</ele>
        <time>2020-07-16T19:30:22.150Z</time>
      </trkpt>
      <trkpt lat="62.60789" lon="6.3289">
        <ele>7.134888</ele>
        <time>2020-07-16T19:30:23.248Z</time>
      </trkpt>
      <trkpt lat="62.60817" lon="6.32927">
        <ele>6.904501</ele>
        <time>2020-07-16T19:30:28.517Z</time>
      </trkpt>
      <trkpt lat="62.60847" lon="6.32982">
        <ele>6.757077</ele>
        <time>2020-07-16T19:30:34.902Z</time>
      </trkpt>
      <trkpt lat="62.60866" lon="6.33019">
        <ele>6.726594</ele>
        <time>2020-07-16T19:30:39.249Z</time>
      </trkpt>
      <trkpt lat="62.60994" lon="6.33342">
        <ele>6.556609</ele>
        <time>2020-07-16T19:31:14.681Z</time>
      </trkpt>
      <trkpt lat="62.61081" lon="6.33474">
        <ele>6.539639</ele>
        <time>2020-07-16T19:31:33.373Z</time>
      </trkpt>
      <trkpt lat="62.61096" lon="6.33507">
        <ele>6.522915</ele>
        <time>2020-07-16T19:31:37.109Z</time>
      </trkpt>
      <trkpt lat="62.61107" lon="6.33561">
        <ele>6.483715</ele>
        <time>2020-07-16T19:31:41.923Z</time>
      </trkpt>
      <trkpt lat="62.61119" lon="6.33694">
        <ele>6.39423</ele>
        <time>2020-07-16T19:31:52.831Z</time>
      </trkpt>
      <trkpt lat="62.61116" lon="6.33753">
        <ele>6.355727</ele>
        <time>2020-07-16T19:31:57.491Z</time>
      </trkpt>
      <trkpt lat="62.61101" lon="6.33822">
        <ele>6.305416</ele>
        <time>2020-07-16T19:32:03.569Z</time>
      </trkpt>
      <trkpt lat="62.61078" lon="6.33898">
        <ele>6.244665</ele>
        <time>2020-07-16T19:32:10.735Z</time>
      </trkpt>
      <trkpt lat="62.61054" lon="6.33978">
        <ele>6.178605</ele>
        <time>2020-07-16T19:32:18.375Z</time>
      </trkpt>
      <trkpt lat="62.61028" lon="6.34086">
        <ele>6.095102</ele>
        <time>2020-07-16T19:32:28.084Z</time>
      </trkpt>
      <trkpt lat="62.6099" lon="6.3429">
        <ele>6.128638</ele>
        <time>2020-07-16T19:32:45.747Z</time>
      </trkpt>
      <trkpt lat="62.60968" lon="6.34377">
        <ele>6.244948</ele>
        <time>2020-07-16T19:32:54.198Z</time>
      </trkpt>
      <trkpt lat="62.60941" lon="6.34452">
        <ele>6.354677</ele>
        <time>2020-07-16T19:33:02.446Z</time>
      </trkpt>
      <trkpt lat="62.60905" lon="6.34495">
        <ele>6.459552</ele>
        <time>2020-07-16T19:33:10.544Z</time>
      </trkpt>
      <trkpt lat="62.60882" lon="6.3451">
        <ele>6.607922</ele>
        <time>2020-07-16T19:33:15.391Z</time>
      </trkpt>
      <trkpt lat="62.6086" lon="6.34528">
        <ele>6.769729</ele>
        <time>2020-07-16T19:33:20.214Z</time>
      </trkpt>
      <trkpt lat="62.6084" lon="6.34556">
        <ele>6.932819</ele>
        <time>2020-07-16T19:33:24.850Z</time>
      </trkpt>
      <trkpt lat="62.60835" lon="6.34563">
        <ele>6.969252</ele>
        <time>2020-07-16T19:33:26.042Z</time>
      </trkpt>
      <trkpt lat="62.6083" lon="6.34573">
        <ele>7.015618</ele>
        <time>2020-07-16T19:33:27.473Z</time>
      </trkpt>
      <trkpt lat="62.60826" lon="6.34581">
        <ele>7.055631</ele>
        <time>2020-07-16T19:33:28.658Z</time>
      </trkpt>
      <trkpt lat="62.60821" lon="6.34594">
        <ele>7.107331</ele>
        <time>2020-07-16T19:33:30.118Z</time>
      </trkpt>
      <trkpt lat="62.60812" lon="6.34623">
        <ele>7.217202</ele>
        <time>2020-07-16T19:33:33.402Z</time>
      </trkpt>
      <trkpt lat="62.60807" lon="6.34642">
        <ele>7.285908</ele>
        <time>2020-07-16T19:33:35.577Z</time>
      </trkpt>
      <trkpt lat="62.60787" lon="6.34727">
        <ele>7.586821</ele>
        <time>2020-07-16T19:33:44.566Z</time>
      </trkpt>
      <trkpt lat="62.60727" lon="6.34884">
        <ele>7.693205</ele>
        <time>2020-07-16T19:34:02.679Z</time>
      </trkpt>
      <trkpt lat="62.60719" lon="6.34912">
        <ele>7.69325</ele>
        <time>2020-07-16T19:34:05.543Z</time>
      </trkpt>
      <trkpt lat="62.60708" lon="6.34963">
        <ele>7.693327</ele>
        <time>2020-07-16T19:34:09.840Z</time>
      </trkpt>
      <trkpt lat="62.60688" lon="6.3511">
        <ele>7.62969</ele>
        <time>2020-07-16T19:34:21.562Z</time>
      </trkpt>
      <trkpt lat="62.60693" lon="6.35204">
        <ele>7.354012</ele>
        <time>2020-07-16T19:34:28.640Z</time>
      </trkpt>
      <trkpt lat="62.60696" lon="6.35237">
        <ele>7.255237</ele>
        <time>2020-07-16T19:34:31.101Z</time>
      </trkpt>
      <trkpt lat="62.60699" lon="6.35263">
        <ele>7.17501</ele>
        <time>2020-07-16T19:34:33.023Z</time>
      </trkpt>
      <trkpt lat="62.60706" lon="6.35359">
        <ele>6.892582</ele>
        <time>2020-07-16T19:34:40.078Z</time>
      </trkpt>
      <trkpt lat="62.60704" lon="6.35598">
        <ele>6.813665</ele>
        <time>2020-07-16T19:34:58.188Z</time>
      </trkpt>
      <trkpt lat="62.60702" lon="6.35648">
        <ele>6.921494</ele>
        <time>2020-07-16T19:35:02.288Z</time>
      </trkpt>
      <trkpt lat="62.60702" lon="6.35665">
        <ele>6.959696</ele>
        <time>2020-07-16T19:35:03.967Z</time>
      </trkpt>
      <trkpt lat="62.60683" lon="6.35789">
        <ele>7.241899</ele>
        <time>2020-07-16T19:35:15.849Z</time>
      </trkpt>
      <trkpt lat="62.60674" lon="6.35849">
        <ele>7.380822</ele>
        <time>2020-07-16T19:35:22.588Z</time>
      </trkpt>
      <trkpt lat="62.6066" lon="6.3594">
        <ele>8.288512</ele>
        <time>2020-07-16T19:35:32.970Z</time>
      </trkpt>
      <trkpt lat="62.60642" lon="6.3604">
        <ele>9.39003</ele>
        <time>2020-07-16T19:35:45.259Z</time>
      </trkpt>
      <trkpt lat="62.6064" lon="6.3605">
        <ele>9.500353</ele>
        <time>2020-07-16T19:35:46.625Z</time>
      </trkpt>
      <trkpt lat="62.60636" lon="6.36063">
        <ele>9.656173</ele>
        <time>2020-07-16T19:35:48.759Z</time>
      </trkpt>
      <trkpt lat="62.60619" lon="6.36111">
        <ele>10.280358</ele>
        <time>2020-07-16T19:35:55.544Z</time>
      </trkpt>
      <trkpt lat="62.60615" lon="6.36119">
        <ele>10.390751</ele>
        <time>2020-07-16T19:35:57.164Z</time>
      </trkpt>
      <trkpt lat="62.60588" lon="6.36176">
        <ele>11.229512</ele>
        <time>2020-07-16T19:36:06.817Z</time>
      </trkpt>
      <trkpt lat="62.60578" lon="6.36197">
        <ele>11.543613</ele>
        <time>2020-07-16T19:36:10.592Z</time>
      </trkpt>
      <trkpt lat="62.60494" lon="6.3641">
        <ele>14.562773</ele>
        <time>2020-07-16T19:36:43.897Z</time>
      </trkpt>
      <trkpt lat="62.6049" lon="6.3643">
        <ele>14.802583</ele>
        <time>2020-07-16T19:36:46.889Z</time>
      </trkpt>
      <trkpt lat="62.60487" lon="6.36446">
        <ele>14.989227</ele>
        <time>2020-07-16T19:36:48.857Z</time>
      </trkpt>
      <trkpt lat="62.60484" lon="6.36469">
        <ele>15.241609</ele>
        <time>2020-07-16T19:36:51.215Z</time>
      </trkpt>
      <trkpt lat="62.6048" lon="6.36511">
        <ele>15.657336</ele>
        <time>2020-07-16T19:36:56.010Z</time>
      </trkpt>
      <trkpt lat="62.60478" lon="6.36533">
        <ele>15.79893</ele>
        <time>2020-07-16T19:36:58.515Z</time>
      </trkpt>
      <trkpt lat="62.60444" lon="6.36692">
        <ele>16.86606</ele>
        <time>2020-07-16T19:37:16.725Z</time>
      </trkpt>
      <trkpt lat="62.6044" lon="6.36715">
        <ele>17.013513</ele>
        <time>2020-07-16T19:37:19.505Z</time>
      </trkpt>
      <trkpt lat="62.60436" lon="6.36756">
        <ele>17.268107</ele>
        <time>2020-07-16T19:37:23.630Z</time>
      </trkpt>
      <trkpt lat="62.60418" lon="6.36961">
        <ele>17.988681</ele>
        <time>2020-07-16T19:37:42.755Z</time>
      </trkpt>
      <trkpt lat="62.6042" lon="6.36992">
        <ele>17.992043</ele>
        <time>2020-07-16T19:37:45.352Z</time>
      </trkpt>
      <trkpt lat="62.60426" lon="6.37051">
        <ele>17.99842</ele>
        <time>2020-07-16T19:37:50.479Z</time>
      </trkpt>
      <trkpt lat="62.60428" lon="6.37111">
        <ele>18.004896</ele>
        <time>2020-07-16T19:37:55.274Z</time>
      </trkpt>
      <trkpt lat="62.60423" lon="6.3725">
        <ele>18.019737</ele>
        <time>2020-07-16T19:38:05.966Z</time>
      </trkpt>
      <trkpt lat="62.60432" lon="6.37457">
        <ele>17.924858</ele>
        <time>2020-07-16T19:38:22.032Z</time>
      </trkpt>
      <trkpt lat="62.60441" lon="6.37563">
        <ele>17.873229</ele>
        <time>2020-07-16T19:38:30.505Z</time>
      </trkpt>
      <trkpt lat="62.60442" lon="6.37584">
        <ele>17.863117</ele>
        <time>2020-07-16T19:38:32.282Z</time>
      </trkpt>
      <trkpt lat="62.60443" lon="6.37614">
        <ele>17.849072</ele>
        <time>2020-07-16T19:38:35.076Z</time>
      </trkpt>
      <trkpt lat="62.60442" lon="6.37686">
        <ele>18.099778</ele>
        <time>2020-07-16T19:38:41.407Z</time>
      </trkpt>
      <trkpt lat="62.60441" lon="6.37827">
        <ele>19.036038</ele>
        <time>2020-07-16T19:38:55.004Z</time>
      </trkpt>
      <trkpt lat="62.6044" lon="6.37867">
        <ele>19.298833</ele>
        <time>2020-07-16T19:38:59.174Z</time>
      </trkpt>
      <trkpt lat="62.60439" lon="6.37893">
        <ele>19.469854</ele>
        <time>2020-07-16T19:39:01.905Z</time>
      </trkpt>
      <trkpt lat="62.60436" lon="6.37922">
        <ele>19.663801</ele>
        <time>2020-07-16T19:39:05.545Z</time>
      </trkpt>
      <trkpt lat="62.6042" lon="6.38008">
        <ele>20.282531</ele>
        <time>2020-07-16T19:39:16.195Z</time>
      </trkpt>
      <trkpt lat="62.60401" lon="6.38096">
        <ele>21.374057</ele>
        <time>2020-07-16T19:39:27.299Z</time>
      </trkpt>
      <trkpt lat="62.60382" lon="6.38181">
        <ele>22.556652</ele>
        <time>2020-07-16T19:39:38.291Z</time>
      </trkpt>
      <trkpt lat="62.60372" lon="6.38228">
        <ele>23.20144</ele>
        <time>2020-07-16T19:39:44.840Z</time>
      </trkpt>
      <trkpt lat="62.60369" lon="6.38243">
        <ele>23.40654</ele>
        <time>2020-07-16T19:39:46.758Z</time>
      </trkpt>
      <trkpt lat="62.60355" lon="6.38319">
        <ele>24.446045</ele>
        <time>2020-07-16T19:39:57.205Z</time>
      </trkpt>
      <trkpt lat="62.60345" lon="6.38411">
        <ele>25.739439</ele>
        <time>2020-07-16T19:40:09.594Z</time>
      </trkpt>
      <trkpt lat="62.60346" lon="6.38489">
        <ele>27.048103</ele>
        <time>2020-07-16T19:40:19.605Z</time>
      </trkpt>
      <trkpt lat="62.60346" lon="6.38575">
        <ele>28.494867</ele>
        <time>2020-07-16T19:40:31.305Z</time>
      </trkpt>
      <trkpt lat="62.60346" lon="6.38693">
        <ele>30.487967</ele>
        <time>2020-07-16T19:40:47.477Z</time>
      </trkpt>
      <trkpt lat="62.60349" lon="6.38744">
        <ele>31.365244</ele>
        <time>2020-07-16T19:40:54.681Z</time>
      </trkpt>
      <trkpt lat="62.60361" lon="6.38794">
        <ele>32.508428</ele>
        <time>2020-07-16T19:41:01.930Z</time>
      </trkpt>
      <trkpt lat="62.60367" lon="6.38815">
        <ele>33.185492</ele>
        <time>2020-07-16T19:41:06.007Z</time>
      </trkpt>
      <trkpt lat="62.60379" lon="6.3885">
        <ele>34.326018</ele>
        <time>2020-07-16T19:41:12.049Z</time>
      </trkpt>
      <trkpt lat="62.60422" lon="6.38985">
        <ele>38.63573</ele>
        <time>2020-07-16T19:41:40.533Z</time>
      </trkpt>
      <trkpt lat="62.60427" lon="6.39039">
        <ele>40.092707</ele>
        <time>2020-07-16T19:41:49.963Z</time>
      </trkpt>
      <trkpt lat="62.60428" lon="6.39121">
        <ele>42.255553</ele>
        <time>2020-07-16T19:42:04.902Z</time>
      </trkpt>
      <trkpt lat="62.60428" lon="6.3918">
        <ele>43.922324</ele>
        <time>2020-07-16T19:42:15.404Z</time>
      </trkpt>
      <trkpt lat="62.60429" lon="6.39214">
        <ele>44.86981</ele>
        <time>2020-07-16T19:42:22.256Z</time>
      </trkpt>
      <trkpt lat="62.60441" lon="6.39327">
        <ele>48.12377</ele>
        <time>2020-07-16T19:42:43.612Z</time>
      </trkpt>
      <trkpt lat="62.60507" lon="6.39684">
        <ele>54.311314</ele>
        <time>2020-07-16T19:43:44.392Z</time>
      </trkpt>
      <trkpt lat="62.60509" lon="6.39695">
        <ele>54.378678</ele>
        <time>2020-07-16T19:43:46.736Z</time>
      </trkpt>
      <trkpt lat="62.60516" lon="6.39733">
        <ele>54.61571</ele>
        <time>2020-07-16T19:43:49.703Z</time>
      </trkpt>
      <trkpt lat="62.60595" lon="6.40003">
        <ele>51.40325</ele>
        <time>2020-07-16T19:44:07.817Z</time>
      </trkpt>
      <trkpt lat="62.60603" lon="6.40035">
        <ele>50.618019</ele>
        <time>2020-07-16T19:44:09.768Z</time>
      </trkpt>
      <trkpt lat="62.60606" lon="6.40033">
        <ele>50.498652</ele>
        <time>2020-07-16T19:44:10.075Z</time>
      </trkpt>
      <trkpt lat="62.6061" lon="6.40027">
        <ele>50.269993</ele>
        <time>2020-07-16T19:44:10.717Z</time>
      </trkpt>
      <trkpt lat="62.60617" lon="6.40057">
        <ele>49.568459</ele>
        <time>2020-07-16T19:44:12.641Z</time>
      </trkpt>
      <trkpt lat="62.60642" lon="6.40154">
        <ele>47.212787</ele>
        <time>2020-07-16T19:44:19.197Z</time>
      </trkpt>
      <trkpt lat="62.60651" lon="6.40215">
        <ele>47.094271</ele>
        <time>2020-07-16T19:44:23.255Z</time>
      </trkpt>
      <trkpt lat="62.6065" lon="6.40227">
        <ele>47.095131</ele>
        <time>2020-07-16T19:44:23.951Z</time>
      </trkpt>
      <trkpt lat="62.6065" lon="6.40233">
        <ele>47.095585</ele>
        <time>2020-07-16T19:44:24.644Z</time>
      </trkpt>
      <trkpt lat="62.60677" lon="6.40422">
        <ele>47.110319</ele>
        <time>2020-07-16T19:44:40.466Z</time>
      </trkpt>
      <trkpt lat="62.60679" lon="6.40433">
        <ele>47.111216</ele>
        <time>2020-07-16T19:44:41.980Z</time>
      </trkpt>
      <trkpt lat="62.6068" lon="6.40455">
        <ele>47.112827</ele>
        <time>2020-07-16T19:44:45.140Z</time>
      </trkpt>
      <trkpt lat="62.60686" lon="6.40566">
        <ele>47.693792</ele>
        <time>2020-07-16T19:44:59.746Z</time>
      </trkpt>
      <trkpt lat="62.60704" lon="6.40748">
        <ele>51.314595</ele>
        <time>2020-07-16T19:45:28.929Z</time>
      </trkpt>
      <trkpt lat="62.60704" lon="6.40844">
        <ele>53.190288</ele>
        <time>2020-07-16T19:45:44.329Z</time>
      </trkpt>
      <trkpt lat="62.60705" lon="6.40859">
        <ele>53.491905</ele>
        <time>2020-07-16T19:45:46.297Z</time>
      </trkpt>
      <trkpt lat="62.60708" lon="6.40879">
        <ele>53.888135</ele>
        <time>2020-07-16T19:45:48.645Z</time>
      </trkpt>
      <trkpt lat="62.60708" lon="6.4091">
        <ele>54.505195</ele>
        <time>2020-07-16T19:45:54.488Z</time>
      </trkpt>
      <trkpt lat="62.60717" lon="6.41039">
        <ele>55.318603</ele>
        <time>2020-07-16T19:46:11.416Z</time>
      </trkpt>
      <trkpt lat="62.60719" lon="6.41061">
        <ele>55.425327</ele>
        <time>2020-07-16T19:46:15.470Z</time>
      </trkpt>
      <trkpt lat="62.60723" lon="6.41095">
        <ele>55.597093</ele>
        <time>2020-07-16T19:46:19.457Z</time>
      </trkpt>
      <trkpt lat="62.60782" lon="6.41433">
        <ele>54.450401</ele>
        <time>2020-07-16T19:46:46.339Z</time>
      </trkpt>
      <trkpt lat="62.60798" lon="6.41494">
        <ele>53.406904</ele>
        <time>2020-07-16T19:46:50.533Z</time>
      </trkpt>
      <trkpt lat="62.60805" lon="6.41526">
        <ele>52.876883</ele>
        <time>2020-07-16T19:46:52.623Z</time>
      </trkpt>
      <trkpt lat="62.60835" lon="6.41758">
        <ele>48.381253</ele>
        <time>2020-07-16T19:47:06.871Z</time>
      </trkpt>
      <trkpt lat="62.60863" lon="6.41938">
        <ele>43.866809</ele>
        <time>2020-07-16T19:47:18.119Z</time>
      </trkpt>
      <trkpt lat="62.60868" lon="6.41996">
        <ele>42.483597</ele>
        <time>2020-07-16T19:47:21.539Z</time>
      </trkpt>
      <trkpt lat="62.60869" lon="6.42022">
        <ele>41.85811</ele>
        <time>2020-07-16T19:47:23.005Z</time>
      </trkpt>
      <trkpt lat="62.60887" lon="6.42168">
        <ele>37.818169</ele>
        <time>2020-07-16T19:47:31.425Z</time>
      </trkpt>
      <trkpt lat="62.60912" lon="6.42255">
        <ele>35.058464</ele>
        <time>2020-07-16T19:47:37.142Z</time>
      </trkpt>
      <trkpt lat="62.60938" lon="6.42333">
        <ele>32.437492</ele>
        <time>2020-07-16T19:47:42.652Z</time>
      </trkpt>
      <trkpt lat="62.60953" lon="6.42376">
        <ele>30.98407</ele>
        <time>2020-07-16T19:47:45.828Z</time>
      </trkpt>
      <trkpt lat="62.60991" lon="6.42503">
        <ele>30.273492</ele>
        <time>2020-07-16T19:47:55.166Z</time>
      </trkpt>
      <trkpt lat="62.61025" lon="6.42696">
        <ele>29.355901</ele>
        <time>2020-07-16T19:48:13.430Z</time>
      </trkpt>
      <trkpt lat="62.61024" lon="6.42739">
        <ele>29.370417</ele>
        <time>2020-07-16T19:48:19.298Z</time>
      </trkpt>
      <trkpt lat="62.61003" lon="6.42831">
        <ele>31.28537</ele>
        <time>2020-07-16T19:48:33.481Z</time>
      </trkpt>
      <trkpt lat="62.60994" lon="6.42889">
        <ele>32.429487</ele>
        <time>2020-07-16T19:48:42.762Z</time>
      </trkpt>
      <trkpt lat="62.60983" lon="6.42948">
        <ele>33.604447</ele>
        <time>2020-07-16T19:48:52.502Z</time>
      </trkpt>
      <trkpt lat="62.60978" lon="6.43039">
        <ele>35.296366</ele>
        <time>2020-07-16T19:49:06.818Z</time>
      </trkpt>
      <trkpt lat="62.60986" lon="6.43373">
        <ele>41.45587</ele>
        <time>2020-07-16T19:49:58.820Z</time>
      </trkpt>
      <trkpt lat="62.60985" lon="6.43474">
        <ele>43.294483</ele>
        <time>2020-07-16T19:50:11.404Z</time>
      </trkpt>
      <trkpt lat="62.60979" lon="6.43576">
        <ele>43.490675</ele>
        <time>2020-07-16T19:50:23.659Z</time>
      </trkpt>
      <trkpt lat="62.60966" lon="6.43646">
        <ele>43.361981</ele>
        <time>2020-07-16T19:50:32.010Z</time>
      </trkpt>
      <trkpt lat="62.60961" lon="6.43665">
        <ele>43.323949</ele>
        <time>2020-07-16T19:50:33.650Z</time>
      </trkpt>
      <trkpt lat="62.60965" lon="6.43672">
        <ele>43.305272</ele>
        <time>2020-07-16T19:50:34.386Z</time>
      </trkpt>
      <trkpt lat="62.60967" lon="6.43676">
        <ele>43.293941</ele>
        <time>2020-07-16T19:50:34.834Z</time>
      </trkpt>
      <trkpt lat="62.6096" lon="6.43694">
        <ele>43.254207</ele>
        <time>2020-07-16T19:50:36.990Z</time>
      </trkpt>
      <trkpt lat="62.60924" lon="6.438">
        <ele>43.029364</ele>
        <time>2020-07-16T19:50:46.028Z</time>
      </trkpt>
      <trkpt lat="62.60898" lon="6.43834">
        <ele>42.174978</ele>
        <time>2020-07-16T19:50:50.413Z</time>
      </trkpt>
      <trkpt lat="62.60894" lon="6.43835">
        <ele>41.982736</ele>
        <time>2020-07-16T19:50:50.814Z</time>
      </trkpt>
      <trkpt lat="62.60885" lon="6.43837">
        <ele>41.475457</ele>
        <time>2020-07-16T19:50:52.081Z</time>
      </trkpt>
      <trkpt lat="62.60873" lon="6.43839">
        <ele>40.771356</ele>
        <time>2020-07-16T19:50:53.959Z</time>
      </trkpt>
      <trkpt lat="62.60871" lon="6.43844">
        <ele>40.609796</ele>
        <time>2020-07-16T19:50:54.268Z</time>
      </trkpt>
      <trkpt lat="62.60723" lon="6.43927">
        <ele>31.931632</ele>
        <time>2020-07-16T19:51:12.918Z</time>
      </trkpt>
      <trkpt lat="62.60686" lon="6.43932">
        <ele>29.663394</ele>
        <time>2020-07-16T19:51:17.297Z</time>
      </trkpt>
      <trkpt lat="62.60668" lon="6.43936">
        <ele>28.536504</ele>
        <time>2020-07-16T19:51:19.463Z</time>
      </trkpt>
      <trkpt lat="62.60639" lon="6.43958">
        <ele>26.612377</ele>
        <time>2020-07-16T19:51:23.251Z</time>
      </trkpt>
      <trkpt lat="62.60575" lon="6.43983">
        <ele>22.56859</ele>
        <time>2020-07-16T19:51:31.332Z</time>
      </trkpt>
      <trkpt lat="62.60571" lon="6.43993">
        <ele>22.215094</ele>
        <time>2020-07-16T19:51:32.000Z</time>
      </trkpt>
      <trkpt lat="62.60567" lon="6.44013">
        <ele>21.648956</ele>
        <time>2020-07-16T19:51:33.302Z</time>
      </trkpt>
      <trkpt lat="62.60564" lon="6.44024">
        <ele>21.471863</ele>
        <time>2020-07-16T19:51:34.033Z</time>
      </trkpt>
      <trkpt lat="62.60544" lon="6.44069">
        <ele>20.594666</ele>
        <time>2020-07-16T19:51:37.811Z</time>
      </trkpt>
      <trkpt lat="62.605" lon="6.44076">
        <ele>19.258196</ele>
        <time>2020-07-16T19:51:43.897Z</time>
      </trkpt>
      <trkpt lat="62.60496" lon="6.44087">
        <ele>19.067512</ele>
        <time>2020-07-16T19:51:44.881Z</time>
      </trkpt>
      <trkpt lat="62.60494" lon="6.44104">
        <ele>18.824325</ele>
        <time>2020-07-16T19:51:45.982Z</time>
      </trkpt>
      <trkpt lat="62.6052" lon="6.44095">
        <ele>18.028025</ele>
        <time>2020-07-16T19:51:49.482Z</time>
      </trkpt>
      <trkpt lat="62.60594" lon="6.44098">
        <ele>16.079612</ele>
        <time>2020-07-16T19:52:00.070Z</time>
      </trkpt>
      <trkpt lat="62.60649" lon="6.44146">
        <ele>15.420955</ele>
        <time>2020-07-16T19:52:09.164Z</time>
      </trkpt>
      <trkpt lat="62.60672" lon="6.44182">
        <ele>15.098254</ele>
        <time>2020-07-16T19:52:14.101Z</time>
      </trkpt>
      <trkpt lat="62.60692" lon="6.4423">
        <ele>14.766331</ele>
        <time>2020-07-16T19:52:19.500Z</time>
      </trkpt>
      <trkpt lat="62.60712" lon="6.44305">
        <ele>14.316319</ele>
        <time>2020-07-16T19:52:26.208Z</time>
      </trkpt>
      <trkpt lat="62.60722" lon="6.44375">
        <ele>13.261435</ele>
        <time>2020-07-16T19:52:30.762Z</time>
      </trkpt>
      <trkpt lat="62.6074" lon="6.44557">
        <ele>10.121942</ele>
        <time>2020-07-16T19:52:41.619Z</time>
      </trkpt>
      <trkpt lat="62.60749" lon="6.44656">
        <ele>8.423106</ele>
        <time>2020-07-16T19:52:47.383Z</time>
      </trkpt>
      <trkpt lat="62.60752" lon="6.44679">
        <ele>8.024438</ele>
        <time>2020-07-16T19:52:48.641Z</time>
      </trkpt>
      <trkpt lat="62.60758" lon="6.44747">
        <ele>6.908167</ele>
        <time>2020-07-16T19:52:52.629Z</time>
      </trkpt>
      <trkpt lat="62.6076" lon="6.44762">
        <ele>6.657667</ele>
        <time>2020-07-16T19:52:53.473Z</time>
      </trkpt>
      <trkpt lat="62.6077" lon="6.4482">
        <ele>5.68157</ele>
        <time>2020-07-16T19:52:57.014Z</time>
      </trkpt>
      <trkpt lat="62.60784" lon="6.44863">
        <ele>4.841758</ele>
        <time>2020-07-16T19:53:00.014Z</time>
      </trkpt>
      <trkpt lat="62.60812" lon="6.44945">
        <ele>3.215698</ele>
        <time>2020-07-16T19:53:06.616Z</time>
      </trkpt>
      <trkpt lat="62.61077" lon="6.4511">
        <ele>0.22065</ele>
        <time>2020-07-16T19:53:44.986Z</time>
      </trkpt>
      <trkpt lat="62.61145" lon="6.45054">
        <ele>0.101492</ele>
        <time>2020-07-16T19:53:55.123Z</time>
      </trkpt>
      <trkpt lat="62.61251" lon="6.4491">
        <time>2020-07-16T19:54:12.514Z</time>
      </trkpt>
      <trkpt lat="62.61346" lon="6.44878">
        <time>2020-07-16T19:54:25.849Z</time>
      </trkpt>
      <trkpt lat="62.61399" lon="6.44931">
        <time>2020-07-16T19:54:33.992Z</time>
      </trkpt>
      <trkpt lat="62.61478" lon="6.45117">
        <time>2020-07-16T19:54:50.291Z</time>
      </trkpt>
      <trkpt lat="62.61645" lon="6.45672">
        <time>2020-07-16T19:55:32.826Z</time>
      </trkpt>
      <trkpt lat="62.61896" lon="6.46557">
        <time>2020-07-16T19:56:39.463Z</time>
      </trkpt>
      <trkpt lat="62.62703" lon="6.49476">
        <time>2020-07-16T20:00:17.976Z</time>
      </trkpt>
      <trkpt lat="62.63613" lon="6.52738">
        <time>2020-07-16T20:04:22.584Z</time>
      </trkpt>
      <trkpt lat="62.6367" lon="6.5287">
        <ele>0.008613</ele>
        <time>2020-07-16T20:04:34.205Z</time>
      </trkpt>
      <trkpt lat="62.63715" lon="6.5294">
        <ele>0.028127</ele>
        <time>2020-07-16T20:04:41.805Z</time>
      </trkpt>
      <trkpt lat="62.63749" lon="6.52966">
        <ele>0.041237</ele>
        <time>2020-07-16T20:04:46.908Z</time>
      </trkpt>
      <trkpt lat="62.63797" lon="6.52975">
        <ele>0.058481</ele>
        <time>2020-07-16T20:04:53.608Z</time>
      </trkpt>
      <trkpt lat="62.63842" lon="6.5294">
        <ele>0.210631</ele>
        <time>2020-07-16T20:05:00.293Z</time>
      </trkpt>
      <trkpt lat="62.63884" lon="6.52873">
        <ele>0.452017</ele>
        <time>2020-07-16T20:05:07.530Z</time>
      </trkpt>
      <trkpt lat="62.63922" lon="6.52786">
        <ele>0.706233</ele>
        <time>2020-07-16T20:05:15.146Z</time>
      </trkpt>
      <trkpt lat="62.63942" lon="6.52717">
        <ele>0.883042</ele>
        <time>2020-07-16T20:05:20.449Z</time>
      </trkpt>
      <trkpt lat="62.63963" lon="6.52387">
        <ele>3.141595</ele>
        <time>2020-07-16T20:05:41.829Z</time>
      </trkpt>
      <trkpt lat="62.63973" lon="6.52307">
        <ele>3.638867</ele>
        <time>2020-07-16T20:05:47.061Z</time>
      </trkpt>
      <trkpt lat="62.63976" lon="6.52273">
        <ele>3.728888</ele>
        <time>2020-07-16T20:05:50.561Z</time>
      </trkpt>
      <trkpt lat="62.63985" lon="6.52259">
        <ele>3.792895</ele>
        <time>2020-07-16T20:05:53.392Z</time>
      </trkpt>
      <trkpt lat="62.63996" lon="6.52318">
        <ele>3.958418</ele>
        <time>2020-07-16T20:05:59.778Z</time>
      </trkpt>
      <trkpt lat="62.64001" lon="6.52348">
        <ele>4.039942</ele>
        <time>2020-07-16T20:06:02.973Z</time>
      </trkpt>
      <trkpt lat="62.6409" lon="6.52923">
        <ele>4.276024</ele>
        <time>2020-07-16T20:06:51.249Z</time>
      </trkpt>
      <trkpt lat="62.64183" lon="6.53342">
        <ele>3.883244</ele>
        <time>2020-07-16T20:07:27.612Z</time>
      </trkpt>
      <trkpt lat="62.64306" lon="6.53754">
        <ele>4.155584</ele>
        <time>2020-07-16T20:08:09.827Z</time>
      </trkpt>
      <trkpt lat="62.64465" lon="6.54384">
        <ele>3.808712</ele>
        <time>2020-07-16T20:09:08.438Z</time>
      </trkpt>
      <trkpt lat="62.6449" lon="6.54489">
        <ele>3.473422</ele>
        <time>2020-07-16T20:09:17.158Z</time>
      </trkpt>
      <trkpt lat="62.64556" lon="6.54839">
        <ele>2.304998</ele>
        <time>2020-07-16T20:09:44.123Z</time>
      </trkpt>
      <trkpt lat="62.64586" lon="6.54959">
        <ele>1.85383</ele>
        <time>2020-07-16T20:09:54.329Z</time>
      </trkpt>
      <trkpt lat="62.64629" lon="6.55088">
        <ele>1.825368</ele>
        <time>2020-07-16T20:10:07.147Z</time>
      </trkpt>
      <trkpt lat="62.64716" lon="6.55287">
        <ele>2.122595</ele>
        <time>2020-07-16T20:10:31.573Z</time>
      </trkpt>
      <trkpt lat="62.6474" lon="6.55362">
        <ele>2.102117</ele>
        <time>2020-07-16T20:10:39.630Z</time>
      </trkpt>
      <trkpt lat="62.64812" lon="6.55626">
        <ele>2.015687</ele>
        <time>2020-07-16T20:11:04.149Z</time>
      </trkpt>
      <trkpt lat="62.64905" lon="6.55878">
        <ele>2.033226</ele>
        <time>2020-07-16T20:11:28.534Z</time>
      </trkpt>
      <trkpt lat="62.64928" lon="6.55915">
        <ele>2.036649</ele>
        <time>2020-07-16T20:11:34.625Z</time>
      </trkpt>
      <trkpt lat="62.64953" lon="6.55936">
        <ele>2.813194</ele>
        <time>2020-07-16T20:11:40.810Z</time>
      </trkpt>
      <trkpt lat="62.64981" lon="6.55944">
        <ele>3.646885</ele>
        <time>2020-07-16T20:11:47.836Z</time>
      </trkpt>
      <trkpt lat="62.65019" lon="6.55937">
        <ele>4.82168</ele>
        <time>2020-07-16T20:11:58.837Z</time>
      </trkpt>
      <trkpt lat="62.65111" lon="6.5591">
        <ele>7.572894</ele>
        <time>2020-07-16T20:12:26.749Z</time>
      </trkpt>
      <trkpt lat="62.65171" lon="6.55903">
        <ele>9.07912</ele>
        <time>2020-07-16T20:12:45.534Z</time>
      </trkpt>
      <trkpt lat="62.6521" lon="6.5592">
        <ele>10.070726</ele>
        <time>2020-07-16T20:12:57.015Z</time>
      </trkpt>
      <trkpt lat="62.65263" lon="6.5598">
        <ele>11.561106</ele>
        <time>2020-07-16T20:13:10.723Z</time>
      </trkpt>
      <trkpt lat="62.65288" lon="6.56034">
        <ele>11.59972</ele>
        <time>2020-07-16T20:13:16.922Z</time>
      </trkpt>
      <trkpt lat="62.65311" lon="6.56113">
        <ele>10.815068</ele>
        <time>2020-07-16T20:13:23.381Z</time>
      </trkpt>
      <trkpt lat="62.65321" lon="6.56175">
        <ele>10.269705</ele>
        <time>2020-07-16T20:13:27.619Z</time>
      </trkpt>
      <trkpt lat="62.65327" lon="6.56253">
        <ele>9.615069</ele>
        <time>2020-07-16T20:13:32.556Z</time>
      </trkpt>
      <trkpt lat="62.65326" lon="6.56319">
        <ele>9.061817</ele>
        <time>2020-07-16T20:13:36.616Z</time>
      </trkpt>
      <trkpt lat="62.65312" lon="6.56426">
        <ele>8.002174</ele>
        <time>2020-07-16T20:13:43.262Z</time>
      </trkpt>
      <trkpt lat="62.65298" lon="6.5648">
        <ele>7.358618</ele>
        <time>2020-07-16T20:13:46.996Z</time>
      </trkpt>
      <trkpt lat="62.65236" lon="6.56654">
        <ele>5.079923</ele>
        <time>2020-07-16T20:14:01.010Z</time>
      </trkpt>
      <trkpt lat="62.65212" lon="6.56774">
        <ele>4.837213</ele>
        <time>2020-07-16T20:14:10.296Z</time>
      </trkpt>
      <trkpt lat="62.65196" lon="6.57005">
        <ele>5.380818</ele>
        <time>2020-07-16T20:14:31.520Z</time>
      </trkpt>
      <trkpt lat="62.65195" lon="6.57084">
        <ele>5.689002</ele>
        <time>2020-07-16T20:14:40.461Z</time>
      </trkpt>
      <trkpt lat="62.65201" lon="6.57168">
        <ele>6.95144</ele>
        <time>2020-07-16T20:14:50.833Z</time>
      </trkpt>
      <trkpt lat="62.65215" lon="6.57242">
        <ele>8.130592</ele>
        <time>2020-07-16T20:15:01.054Z</time>
      </trkpt>
      <trkpt lat="62.65257" lon="6.57361">
        <ele>10.365276</ele>
        <time>2020-07-16T20:15:21.856Z</time>
      </trkpt>
      <trkpt lat="62.65367" lon="6.57562">
        <ele>15.122886</ele>
        <time>2020-07-16T20:16:04.817Z</time>
      </trkpt>
      <trkpt lat="62.65401" lon="6.57636">
        <ele>16.750368</ele>
        <time>2020-07-16T20:16:17.880Z</time>
      </trkpt>
      <trkpt lat="62.6544" lon="6.57772">
        <ele>18.782863</ele>
        <time>2020-07-16T20:16:36.857Z</time>
      </trkpt>
      <trkpt lat="62.65453" lon="6.57859">
        <ele>19.863325</ele>
        <time>2020-07-16T20:16:47.232Z</time>
      </trkpt>
      <trkpt lat="62.65548" lon="6.58496">
        <ele>28.383853</ele>
        <time>2020-07-16T20:18:09.172Z</time>
      </trkpt>
      <trkpt lat="62.65584" lon="6.58691">
        <ele>31.330287</ele>
        <time>2020-07-16T20:18:38.114Z</time>
      </trkpt>
      <trkpt lat="62.6569" lon="6.59132">
        <ele>35.259006</ele>
        <time>2020-07-16T20:19:34.565Z</time>
      </trkpt>
      <trkpt lat="62.65725" lon="6.59251">
        <ele>33.058738</ele>
        <time>2020-07-16T20:19:43.260Z</time>
      </trkpt>
      <trkpt lat="62.65759" lon="6.59329">
        <ele>31.356923</ele>
        <time>2020-07-16T20:19:49.425Z</time>
      </trkpt>
      <trkpt lat="62.65856" lon="6.59481">
        <ele>26.937815</ele>
        <time>2020-07-16T20:20:03.555Z</time>
      </trkpt>
      <trkpt lat="62.65893" lon="6.59532">
        <ele>25.207098</ele>
        <time>2020-07-16T20:20:08.896Z</time>
      </trkpt>
      <trkpt lat="62.6593" lon="6.59561">
        <ele>23.647407</ele>
        <time>2020-07-16T20:20:13.915Z</time>
      </trkpt>
      <trkpt lat="62.65979" lon="6.59585">
        <ele>22.813889</ele>
        <time>2020-07-16T20:20:21.353Z</time>
      </trkpt>
      <trkpt lat="62.66013" lon="6.59619">
        <ele>23.801474</ele>
        <time>2020-07-16T20:20:28.552Z</time>
      </trkpt>
      <trkpt lat="62.66033" lon="6.59643">
        <ele>24.419742</ele>
        <time>2020-07-16T20:20:33.782Z</time>
      </trkpt>
      <trkpt lat="62.66018" lon="6.59698">
        <ele>25.205237</ele>
        <time>2020-07-16T20:20:41.257Z</time>
      </trkpt>
      <trkpt lat="62.65984" lon="6.5983">
        <ele>27.050564</ele>
        <time>2020-07-16T20:21:04.657Z</time>
      </trkpt>
      <trkpt lat="62.6597" lon="6.59921">
        <ele>29.416351</ele>
        <time>2020-07-16T20:21:24.644Z</time>
      </trkpt>
      <trkpt lat="62.65939" lon="6.60015">
        <ele>32.326694</ele>
        <time>2020-07-16T20:21:45.661Z</time>
      </trkpt>
      <trkpt lat="62.65925" lon="6.60114">
        <ele>34.954446</ele>
        <time>2020-07-16T20:22:02.851Z</time>
      </trkpt>
      <trkpt lat="62.65911" lon="6.60211">
        <ele>37.073214</ele>
        <time>2020-07-16T20:22:16.677Z</time>
      </trkpt>
      <trkpt lat="62.65889" lon="6.60257">
        <ele>37.109989</ele>
        <time>2020-07-16T20:22:23.387Z</time>
      </trkpt>
      <trkpt lat="62.65813" lon="6.60331">
        <ele>37.208791</ele>
        <time>2020-07-16T20:22:40.095Z</time>
      </trkpt>
      <trkpt lat="62.6578" lon="6.60409">
        <ele>37.266985</ele>
        <time>2020-07-16T20:22:46.483Z</time>
      </trkpt>
      <trkpt lat="62.65736" lon="6.60545">
        <ele>37.114191</ele>
        <time>2020-07-16T20:22:56.954Z</time>
      </trkpt>
      <trkpt lat="62.65678" lon="6.60647">
        <ele>36.933964</ele>
        <time>2020-07-16T20:23:09.901Z</time>
      </trkpt>
      <trkpt lat="62.65662" lon="6.60689">
        <ele>36.874346</ele>
        <time>2020-07-16T20:23:16.318Z</time>
      </trkpt>
      <trkpt lat="62.65654" lon="6.60727">
        <ele>36.990074</ele>
        <time>2020-07-16T20:23:21.624Z</time>
      </trkpt>
      <trkpt lat="62.65652" lon="6.6081">
        <ele>37.905537</ele>
        <time>2020-07-16T20:23:32.804Z</time>
      </trkpt>
      <trkpt lat="62.65657" lon="6.60926">
        <ele>39.170975</ele>
        <time>2020-07-16T20:23:47.421Z</time>
      </trkpt>
      <trkpt lat="62.65703" lon="6.61108">
        <ele>40.900171</ele>
        <time>2020-07-16T20:24:11.143Z</time>
      </trkpt>
      <trkpt lat="62.65724" lon="6.61224">
        <ele>39.971957</ele>
        <time>2020-07-16T20:24:22.194Z</time>
      </trkpt>
      <trkpt lat="62.65728" lon="6.61275">
        <ele>39.58049</ele>
        <time>2020-07-16T20:24:26.199Z</time>
      </trkpt>
      <trkpt lat="62.6571" lon="6.61573">
        <ele>35.526522</ele>
        <time>2020-07-16T20:24:43.406Z</time>
      </trkpt>
      <trkpt lat="62.65712" lon="6.6169">
        <ele>32.810578</ele>
        <time>2020-07-16T20:24:49.747Z</time>
      </trkpt>
      <trkpt lat="62.65707" lon="6.61784">
        <ele>30.606836</ele>
        <time>2020-07-16T20:24:54.930Z</time>
      </trkpt>
      <trkpt lat="62.65671" lon="6.61905">
        <ele>28.157637</ele>
        <time>2020-07-16T20:25:02.950Z</time>
      </trkpt>
      <trkpt lat="62.65665" lon="6.6195">
        <ele>27.590227</ele>
        <time>2020-07-16T20:25:05.663Z</time>
      </trkpt>
      <trkpt lat="62.65653" lon="6.62205">
        <ele>24.554449</ele>
        <time>2020-07-16T20:25:22.441Z</time>
      </trkpt>
      <trkpt lat="62.65676" lon="6.62594">
        <ele>25.001727</ele>
        <time>2020-07-16T20:25:58.430Z</time>
      </trkpt>
      <trkpt lat="62.65686" lon="6.62801">
        <ele>24.544916</ele>
        <time>2020-07-16T20:26:16.206Z</time>
      </trkpt>
      <trkpt lat="62.6567" lon="6.62952">
        <ele>24.181888</ele>
        <time>2020-07-16T20:26:27.218Z</time>
      </trkpt>
      <trkpt lat="62.65643" lon="6.63135">
        <ele>22.732412</ele>
        <time>2020-07-16T20:26:39.638Z</time>
      </trkpt>
      <trkpt lat="62.65637" lon="6.63261">
        <ele>21.616375</ele>
        <time>2020-07-16T20:26:47.701Z</time>
      </trkpt>
      <trkpt lat="62.65638" lon="6.63349">
        <ele>20.845715</ele>
        <time>2020-07-16T20:26:53.294Z</time>
      </trkpt>
      <trkpt lat="62.65659" lon="6.63711">
        <ele>19.952838</ele>
        <time>2020-07-16T20:27:19.449Z</time>
      </trkpt>
      <trkpt lat="62.65707" lon="6.63936">
        <ele>22.93663</ele>
        <time>2020-07-16T20:27:47.593Z</time>
      </trkpt>
      <trkpt lat="62.65876" lon="6.64609">
        <ele>38.881896</ele>
        <time>2020-07-16T20:29:48.107Z</time>
      </trkpt>
      <trkpt lat="62.65945" lon="6.64926">
        <ele>45.019753</ele>
        <time>2020-07-16T20:30:37.274Z</time>
      </trkpt>
      <trkpt lat="62.65978" lon="6.65038">
        <ele>46.748527</ele>
        <time>2020-07-16T20:30:53.364Z</time>
      </trkpt>
      <trkpt lat="62.66" lon="6.65171">
        <ele>48.342136</ele>
        <time>2020-07-16T20:31:08.837Z</time>
      </trkpt>
      <trkpt lat="62.66062" lon="6.65488">
        <ele>49.664705</ele>
        <time>2020-07-16T20:31:43.107Z</time>
      </trkpt>
      <trkpt lat="62.66103" lon="6.65617">
        <ele>46.757481</ele>
        <time>2020-07-16T20:31:53.460Z</time>
      </trkpt>
      <trkpt lat="62.66114" lon="6.65679">
        <ele>45.271673</ele>
        <time>2020-07-16T20:31:57.423Z</time>
      </trkpt>
      <trkpt lat="62.66129" lon="6.658">
        <ele>42.510004</ele>
        <time>2020-07-16T20:32:04.202Z</time>
      </trkpt>
      <trkpt lat="62.66148" lon="6.65908">
        <ele>38.141139</ele>
        <time>2020-07-16T20:32:10.060Z</time>
      </trkpt>
      <trkpt lat="62.66162" lon="6.66038">
        <ele>30.535826</ele>
        <time>2020-07-16T20:32:16.491Z</time>
      </trkpt>
      <trkpt lat="62.66203" lon="6.66281">
        <ele>16.897924</ele>
        <time>2020-07-16T20:32:28.991Z</time>
      </trkpt>
      <trkpt lat="62.66222" lon="6.66364">
        <ele>13.69308</ele>
        <time>2020-07-16T20:32:33.612Z</time>
      </trkpt>
      <trkpt lat="62.66247" lon="6.66445">
        <ele>10.325389</ele>
        <time>2020-07-16T20:32:38.662Z</time>
      </trkpt>
      <trkpt lat="62.66267" lon="6.66471">
        <ele>8.574806</ele>
        <time>2020-07-16T20:32:41.414Z</time>
      </trkpt>
      <trkpt lat="62.66342" lon="6.66457">
        <ele>6.140176</ele>
        <time>2020-07-16T20:32:52.015Z</time>
      </trkpt>
      <trkpt lat="62.664" lon="6.66483">
        <ele>8.042765</ele>
        <time>2020-07-16T20:33:09.049Z</time>
      </trkpt>
      <trkpt lat="62.66426" lon="6.66459">
        <ele>8.941947</ele>
        <time>2020-07-16T20:33:18.269Z</time>
      </trkpt>
      <trkpt lat="62.66483" lon="6.66346">
        <ele>11.895715</ele>
        <time>2020-07-16T20:33:46.115Z</time>
      </trkpt>
      <trkpt lat="62.66513" lon="6.66293">
        <ele>14.489218</ele>
        <time>2020-07-16T20:34:01.546Z</time>
      </trkpt>
      <trkpt lat="62.66573" lon="6.6626">
        <ele>18.622044</ele>
        <time>2020-07-16T20:34:27.015Z</time>
      </trkpt>
      <trkpt lat="62.66626" lon="6.66192">
        <ele>22.743269</ele>
        <time>2020-07-16T20:34:52.144Z</time>
      </trkpt>
      <trkpt lat="62.66689" lon="6.66156">
        <ele>25.880129</ele>
        <time>2020-07-16T20:35:15.415Z</time>
      </trkpt>
      <trkpt lat="62.66785" lon="6.66042">
        <ele>31.100943</ele>
        <time>2020-07-16T20:35:49.808Z</time>
      </trkpt>
      <trkpt lat="62.66876" lon="6.65974">
        <ele>34.209264</ele>
        <time>2020-07-16T20:36:17.174Z</time>
      </trkpt>
      <trkpt lat="62.6695" lon="6.65919">
        <ele>36.578512</ele>
        <time>2020-07-16T20:36:38.438Z</time>
      </trkpt>
      <trkpt lat="62.66982" lon="6.6585">
        <ele>37.162941</ele>
        <time>2020-07-16T20:36:49.722Z</time>
      </trkpt>
      <trkpt lat="62.67022" lon="6.65708">
        <ele>37.546469</ele>
        <time>2020-07-16T20:37:06.645Z</time>
      </trkpt>
      <trkpt lat="62.67043" lon="6.65592">
        <ele>37.832697</ele>
        <time>2020-07-16T20:37:15.620Z</time>
      </trkpt>
      <trkpt lat="62.67047" lon="6.65523">
        <ele>37.304411</ele>
        <time>2020-07-16T20:37:20.397Z</time>
      </trkpt>
      <trkpt lat="62.67047" lon="6.65518">
        <ele>37.220421</ele>
        <time>2020-07-16T20:37:20.687Z</time>
      </trkpt>
      <trkpt lat="62.67039" lon="6.65409">
        <ele>35.367248</ele>
        <time>2020-07-16T20:37:27.599Z</time>
      </trkpt>
      <trkpt lat="62.67042" lon="6.65389">
        <ele>35.00309</ele>
        <time>2020-07-16T20:37:28.939Z</time>
      </trkpt>
      <trkpt lat="62.67044" lon="6.65383">
        <ele>34.895628</ele>
        <time>2020-07-16T20:37:29.270Z</time>
      </trkpt>
      <trkpt lat="62.67067" lon="6.65405">
        <ele>33.969766</ele>
        <time>2020-07-16T20:37:32.446Z</time>
      </trkpt>
      <trkpt lat="62.67087" lon="6.65437">
        <ele>33.059788</ele>
        <time>2020-07-16T20:37:35.497Z</time>
      </trkpt>
      <trkpt lat="62.67101" lon="6.65476">
        <ele>32.226283</ele>
        <time>2020-07-16T20:37:38.278Z</time>
      </trkpt>
      <trkpt lat="62.67116" lon="6.65548">
        <ele>30.60286</ele>
        <time>2020-07-16T20:37:42.659Z</time>
      </trkpt>
      <trkpt lat="62.67172" lon="6.65844">
        <ele>21.755147</ele>
        <time>2020-07-16T20:37:59.934Z</time>
      </trkpt>
      <trkpt lat="62.67178" lon="6.65875">
        <ele>20.834629</ele>
        <time>2020-07-16T20:38:01.695Z</time>
      </trkpt>
      <trkpt lat="62.67182" lon="6.65898">
        <ele>20.121255</ele>
        <time>2020-07-16T20:38:03.013Z</time>
      </trkpt>
      <trkpt lat="62.67264" lon="6.66336">
        <ele>7.721167</ele>
        <time>2020-07-16T20:38:28.281Z</time>
      </trkpt>
      <trkpt lat="62.67269" lon="6.664">
        <ele>6.84501</ele>
        <time>2020-07-16T20:38:32.075Z</time>
      </trkpt>
      <trkpt lat="62.67276" lon="6.66654">
        <ele>3.871804</ele>
        <time>2020-07-16T20:38:49.137Z</time>
      </trkpt>
      <trkpt lat="62.67276" lon="6.66663">
        <ele>3.947154</ele>
        <time>2020-07-16T20:38:50.067Z</time>
      </trkpt>
      <trkpt lat="62.67277" lon="6.66689">
        <ele>4.150085</ele>
        <time>2020-07-16T20:38:52.265Z</time>
      </trkpt>
      <trkpt lat="62.67277" lon="6.66698">
        <ele>4.222965</ele>
        <time>2020-07-16T20:38:53.056Z</time>
      </trkpt>
      <trkpt lat="62.67282" lon="6.66706">
        <ele>4.334562</ele>
        <time>2020-07-16T20:38:54.821Z</time>
      </trkpt>
      <trkpt lat="62.67289" lon="6.66913">
        <ele>5.975692</ele>
        <time>2020-07-16T20:39:18.401Z</time>
      </trkpt>
      <trkpt lat="62.67303" lon="6.67016">
        <ele>6.856023</ele>
        <time>2020-07-16T20:39:32.588Z</time>
      </trkpt>
      <trkpt lat="62.67323" lon="6.67092">
        <ele>8.811466</ele>
        <time>2020-07-16T20:39:44.258Z</time>
      </trkpt>
      <trkpt lat="62.67372" lon="6.67231">
        <ele>12.725377</ele>
        <time>2020-07-16T20:40:10.662Z</time>
      </trkpt>
      <trkpt lat="62.67387" lon="6.67283">
        <ele>14.072706</ele>
        <time>2020-07-16T20:40:21.310Z</time>
      </trkpt>
      <trkpt lat="62.6739" lon="6.67309">
        <ele>14.674981</ele>
        <time>2020-07-16T20:40:26.144Z</time>
      </trkpt>
      <trkpt lat="62.67388" lon="6.67314">
        <ele>14.804478</ele>
        <time>2020-07-16T20:40:27.467Z</time>
      </trkpt>
      <trkpt lat="62.67394" lon="6.67379">
        <ele>16.7813</ele>
        <time>2020-07-16T20:40:39.370Z</time>
      </trkpt>
      <trkpt lat="62.67386" lon="6.67419">
        <ele>18.381417</ele>
        <time>2020-07-16T20:40:47.665Z</time>
      </trkpt>
      <trkpt lat="62.67306" lon="6.67515">
        <ele>25.686466</ele>
        <time>2020-07-16T20:41:26.651Z</time>
      </trkpt>
      <trkpt lat="62.67267" lon="6.67667">
        <ele>31.780148</ele>
        <time>2020-07-16T20:42:05.174Z</time>
      </trkpt>
      <trkpt lat="62.67253" lon="6.6774">
        <ele>34.326234</ele>
        <time>2020-07-16T20:42:21.967Z</time>
      </trkpt>
      <trkpt lat="62.67255" lon="6.67811">
        <ele>36.642282</ele>
        <time>2020-07-16T20:42:35.994Z</time>
      </trkpt>
      <trkpt lat="62.67268" lon="6.67866">
        <ele>38.617494</ele>
        <time>2020-07-16T20:42:47.100Z</time>
      </trkpt>
      <trkpt lat="62.67293" lon="6.679">
        <ele>40.699836</ele>
        <time>2020-07-16T20:42:58.154Z</time>
      </trkpt>
      <trkpt lat="62.67335" lon="6.67912">
        <ele>42.604504</ele>
        <time>2020-07-16T20:43:11.660Z</time>
      </trkpt>
      <trkpt lat="62.67382" lon="6.67903">
        <ele>42.869559</ele>
        <time>2020-07-16T20:43:24.145Z</time>
      </trkpt>
      <trkpt lat="62.67459" lon="6.67863">
        <ele>43.311726</ele>
        <time>2020-07-16T20:43:37.736Z</time>
      </trkpt>
      <trkpt lat="62.67517" lon="6.6784">
        <ele>42.84636</ele>
        <time>2020-07-16T20:43:45.523Z</time>
      </trkpt>
      <trkpt lat="62.67567" lon="6.67821">
        <ele>41.25247</ele>
        <time>2020-07-16T20:43:52.025Z</time>
      </trkpt>
      <trkpt lat="62.67675" lon="6.67773">
        <ele>37.800982</ele>
        <time>2020-07-16T20:44:06.314Z</time>
      </trkpt>
      <trkpt lat="62.67765" lon="6.67719">
        <ele>36.285512</ele>
        <time>2020-07-16T20:44:19.161Z</time>
      </trkpt>
      <trkpt lat="62.67833" lon="6.67688">
        <ele>35.167081</ele>
        <time>2020-07-16T20:44:29.819Z</time>
      </trkpt>
      <trkpt lat="62.67847" lon="6.67671">
        <ele>34.965094</ele>
        <time>2020-07-16T20:44:32.564Z</time>
      </trkpt>
      <trkpt lat="62.67863" lon="6.67652">
        <ele>35.319872</ele>
        <time>2020-07-16T20:44:35.776Z</time>
      </trkpt>
      <trkpt lat="62.67881" lon="6.6761">
        <ele>35.851701</ele>
        <time>2020-07-16T20:44:41.153Z</time>
      </trkpt>
      <trkpt lat="62.67901" lon="6.67563">
        <ele>36.428722</ele>
        <time>2020-07-16T20:44:48.421Z</time>
      </trkpt>
      <trkpt lat="62.67921" lon="6.67537">
        <ele>36.879924</ele>
        <time>2020-07-16T20:44:54.200Z</time>
      </trkpt>
      <trkpt lat="62.67997" lon="6.67516">
        <ele>38.386678</ele>
        <time>2020-07-16T20:45:14.738Z</time>
      </trkpt>
      <trkpt lat="62.68032" lon="6.67495">
        <ele>39.458558</ele>
        <time>2020-07-16T20:45:26.054Z</time>
      </trkpt>
      <trkpt lat="62.68108" lon="6.6741">
        <ele>42.044007</ele>
        <time>2020-07-16T20:45:51.049Z</time>
      </trkpt>
      <trkpt lat="62.68219" lon="6.67261">
        <ele>46.387341</ele>
        <time>2020-07-16T20:46:23.304Z</time>
      </trkpt>
      <trkpt lat="62.68273" lon="6.67196">
        <ele>48.628446</ele>
        <time>2020-07-16T20:46:41.758Z</time>
      </trkpt>
      <trkpt lat="62.68313" lon="6.67172">
        <ele>50.108077</ele>
        <time>2020-07-16T20:46:54.851Z</time>
      </trkpt>
      <trkpt lat="62.6835" lon="6.67173">
        <ele>52.48415</ele>
        <time>2020-07-16T20:47:07.806Z</time>
      </trkpt>
      <trkpt lat="62.68397" lon="6.67204">
        <ele>56.067488</ele>
        <time>2020-07-16T20:47:28.822Z</time>
      </trkpt>
      <trkpt lat="62.68435" lon="6.67251">
        <ele>59.178109</ele>
        <time>2020-07-16T20:47:47.734Z</time>
      </trkpt>
      <trkpt lat="62.68445" lon="6.67225">
        <ele>60.34806</ele>
        <time>2020-07-16T20:47:54.807Z</time>
      </trkpt>
      <trkpt lat="62.68449" lon="6.6723">
        <ele>60.69601</ele>
        <time>2020-07-16T20:47:57.907Z</time>
      </trkpt>
      <trkpt lat="62.68502" lon="6.67305">
        <ele>65.028467</ele>
        <time>2020-07-16T20:48:25.356Z</time>
      </trkpt>
      <trkpt lat="62.68505" lon="6.67309">
        <ele>65.219518</ele>
        <time>2020-07-16T20:48:27.524Z</time>
      </trkpt>
      <trkpt lat="62.68618" lon="6.67469">
        <ele>73.69489</ele>
        <time>2020-07-16T20:49:24.266Z</time>
      </trkpt>
      <trkpt lat="62.6872" lon="6.67679">
        <ele>72.466425</ele>
        <time>2020-07-16T20:49:50.612Z</time>
      </trkpt>
      <trkpt lat="62.68758" lon="6.67747">
        <ele>71.572701</ele>
        <time>2020-07-16T20:49:56.639Z</time>
      </trkpt>
      <trkpt lat="62.68796" lon="6.67794">
        <ele>68.118788</ele>
        <time>2020-07-16T20:50:01.728Z</time>
      </trkpt>
      <trkpt lat="62.68976" lon="6.67921">
        <ele>54.210763</ele>
        <time>2020-07-16T20:50:23.381Z</time>
      </trkpt>
      <trkpt lat="62.69023" lon="6.6794">
        <ele>53.198955</ele>
        <time>2020-07-16T20:50:29.759Z</time>
      </trkpt>
      <trkpt lat="62.69079" lon="6.67989">
        <ele>51.904692</ele>
        <time>2020-07-16T20:50:40.075Z</time>
      </trkpt>
      <trkpt lat="62.6917" lon="6.68038">
        <ele>56.681212</ele>
        <time>2020-07-16T20:51:22.414Z</time>
      </trkpt>
      <trkpt lat="62.69189" lon="6.68068">
        <ele>58.43611</ele>
        <time>2020-07-16T20:51:32.701Z</time>
      </trkpt>
      <trkpt lat="62.69211" lon="6.68134">
        <ele>61.366753</ele>
        <time>2020-07-16T20:51:52.003Z</time>
      </trkpt>
      <trkpt lat="62.69211" lon="6.6814">
        <ele>61.573986</ele>
        <time>2020-07-16T20:51:54.542Z</time>
      </trkpt>
      <trkpt lat="62.69196" lon="6.68163">
        <ele>63.023051</ele>
        <time>2020-07-16T20:52:04.875Z</time>
      </trkpt>
      <trkpt lat="62.6922" lon="6.68251">
        <ele>65.031201</ele>
        <time>2020-07-16T20:52:23.297Z</time>
      </trkpt>
      <trkpt lat="62.69245" lon="6.68424">
        <ele>63.450988</ele>
        <time>2020-07-16T20:52:44.805Z</time>
      </trkpt>
      <trkpt lat="62.69247" lon="6.6844">
        <ele>63.308302</ele>
        <time>2020-07-16T20:52:46.655Z</time>
      </trkpt>
      <trkpt lat="62.69285" lon="6.68709">
        <ele>55.226507</ele>
        <time>2020-07-16T20:53:00.669Z</time>
      </trkpt>
      <trkpt lat="62.69305" lon="6.68782">
        <ele>50.674752</ele>
        <time>2020-07-16T20:53:04.730Z</time>
      </trkpt>
      <trkpt lat="62.69329" lon="6.68839">
        <ele>46.487449</ele>
        <time>2020-07-16T20:53:08.466Z</time>
      </trkpt>
      <trkpt lat="62.69507" lon="6.69092">
        <ele>26.411244</ele>
        <time>2020-07-16T20:53:31.858Z</time>
      </trkpt>
      <trkpt lat="62.69535" lon="6.69132">
        <ele>24.210218</ele>
        <time>2020-07-16T20:53:35.881Z</time>
      </trkpt>
      <trkpt lat="62.6957" lon="6.69191">
        <ele>22.161892</ele>
        <time>2020-07-16T20:53:41.217Z</time>
      </trkpt>
      <trkpt lat="62.69604" lon="6.69277">
        <ele>19.718018</ele>
        <time>2020-07-16T20:53:47.726Z</time>
      </trkpt>
      <trkpt lat="62.69646" lon="6.69414">
        <ele>16.375479</ele>
        <time>2020-07-16T20:53:57.404Z</time>
      </trkpt>
      <trkpt lat="62.69706" lon="6.69605">
        <ele>13.234147</ele>
        <time>2020-07-16T20:54:11.412Z</time>
      </trkpt>
      <trkpt lat="62.69797" lon="6.69863">
        <ele>9.508557</ele>
        <time>2020-07-16T20:54:31.638Z</time>
      </trkpt>
      <trkpt lat="62.69801" lon="6.69874">
        <ele>9.363528</ele>
        <time>2020-07-16T20:54:32.564Z</time>
      </trkpt>
      <trkpt lat="62.69856" lon="6.70028">
        <ele>7.469199</ele>
        <time>2020-07-16T20:54:45.292Z</time>
      </trkpt>
      <trkpt lat="62.69867" lon="6.70059">
        <ele>7.307326</ele>
        <time>2020-07-16T20:54:47.852Z</time>
      </trkpt>
      <trkpt lat="62.6996" lon="6.70319">
        <ele>5.909026</ele>
        <time>2020-07-16T20:55:11.605Z</time>
      </trkpt>
      <trkpt lat="62.69969" lon="6.70345">
        <ele>5.907602</ele>
        <time>2020-07-16T20:55:14.228Z</time>
      </trkpt>
      <trkpt lat="62.69977" lon="6.70364">
        <ele>6.039714</ele>
        <time>2020-07-16T20:55:16.250Z</time>
      </trkpt>
      <trkpt lat="62.6998" lon="6.70372">
        <ele>6.098019</ele>
        <time>2020-07-16T20:55:17.149Z</time>
      </trkpt>
      <trkpt lat="62.69981" lon="6.70374">
        <ele>6.11429</ele>
        <time>2020-07-16T20:55:17.409Z</time>
      </trkpt>
      <trkpt lat="62.69982" lon="6.70376">
        <ele>6.132174</ele>
        <time>2020-07-16T20:55:17.680Z</time>
      </trkpt>
      <trkpt lat="62.70001" lon="6.70413">
        <ele>6.430203</ele>
        <time>2020-07-16T20:55:22.525Z</time>
      </trkpt>
      <trkpt lat="62.70017" lon="6.70435">
        <ele>6.647228</ele>
        <time>2020-07-16T20:55:26.195Z</time>
      </trkpt>
      <trkpt lat="62.7007" lon="6.70487">
        <ele>7.33526</ele>
        <time>2020-07-16T20:55:39.059Z</time>
      </trkpt>
      <trkpt lat="62.70127" lon="6.70542">
        <ele>8.237822</ele>
        <time>2020-07-16T20:55:54.271Z</time>
      </trkpt>
      <trkpt lat="62.70238" lon="6.70746">
        <ele>12.477629</ele>
        <time>2020-07-16T20:56:35.843Z</time>
      </trkpt>
      <trkpt lat="62.70279" lon="6.70808">
        <ele>13.397556</ele>
        <time>2020-07-16T20:56:48.833Z</time>
      </trkpt>
      <trkpt lat="62.70329" lon="6.70872">
        <ele>13.870171</ele>
        <time>2020-07-16T20:57:02.241Z</time>
      </trkpt>
      <trkpt lat="62.70495" lon="6.71085">
        <ele>14.488417</ele>
        <time>2020-07-16T20:57:34.834Z</time>
      </trkpt>
      <trkpt lat="62.70651" lon="6.71251">
        <ele>14.264516</ele>
        <time>2020-07-16T20:58:05.835Z</time>
      </trkpt>
      <trkpt lat="62.70727" lon="6.71334">
        <ele>14.185686</ele>
        <time>2020-07-16T20:58:21.140Z</time>
      </trkpt>
      <trkpt lat="62.70778" lon="6.71403">
        <ele>13.313911</ele>
        <time>2020-07-16T20:58:30.772Z</time>
      </trkpt>
      <trkpt lat="62.70907" lon="6.71661">
        <ele>10.818398</ele>
        <time>2020-07-16T20:58:55.235Z</time>
      </trkpt>
      <trkpt lat="62.70942" lon="6.71731">
        <ele>10.341355</ele>
        <time>2020-07-16T20:59:02.315Z</time>
      </trkpt>
      <trkpt lat="62.70971" lon="6.71791">
        <ele>9.9324</ele>
        <time>2020-07-16T20:59:09.420Z</time>
      </trkpt>
      <trkpt lat="62.71081" lon="6.72014">
        <ele>8.663014</ele>
        <time>2020-07-16T20:59:35.429Z</time>
      </trkpt>
      <trkpt lat="62.7109" lon="6.72034">
        <ele>8.562718</ele>
        <time>2020-07-16T20:59:37.749Z</time>
      </trkpt>
      <trkpt lat="62.71131" lon="6.72164">
        <ele>7.73452</ele>
        <time>2020-07-16T20:59:48.341Z</time>
      </trkpt>
      <trkpt lat="62.7115" lon="6.72284">
        <ele>6.13356</ele>
        <time>2020-07-16T20:59:56.041Z</time>
      </trkpt>
      <trkpt lat="62.71153" lon="6.72431">
        <ele>4.283436</ele>
        <time>2020-07-16T21:00:04.593Z</time>
      </trkpt>
      <trkpt lat="62.71152" lon="6.72755">
        <ele>2.121028</ele>
        <time>2020-07-16T21:00:25.825Z</time>
      </trkpt>
      <trkpt lat="62.71151" lon="6.72806">
        <ele>1.894006</ele>
        <time>2020-07-16T21:00:29.912Z</time>
      </trkpt>
      <trkpt lat="62.71151" lon="6.72826">
        <ele>1.807751</ele>
        <time>2020-07-16T21:00:31.469Z</time>
      </trkpt>
      <trkpt lat="62.7115" lon="6.72842">
        <ele>1.734361</ele>
        <time>2020-07-16T21:00:32.877Z</time>
      </trkpt>
      <trkpt lat="62.7115" lon="6.72856">
        <ele>1.673884</ele>
        <time>2020-07-16T21:00:34.062Z</time>
      </trkpt>
      <trkpt lat="62.71148" lon="6.729">
        <ele>1.477674</ele>
        <time>2020-07-16T21:00:37.875Z</time>
      </trkpt>
      <trkpt lat="62.71138" lon="6.7305">
        <ele>3.081235</ele>
        <time>2020-07-16T21:00:53.281Z</time>
      </trkpt>
      <trkpt lat="62.71137" lon="6.7313">
        <ele>4.034668</ele>
        <time>2020-07-16T21:01:02.828Z</time>
      </trkpt>
      <trkpt lat="62.71145" lon="6.73232">
        <ele>5.250946</ele>
        <time>2020-07-16T21:01:16.359Z</time>
      </trkpt>
      <trkpt lat="62.7117" lon="6.7341">
        <ele>8.522661</ele>
        <time>2020-07-16T21:01:43.933Z</time>
      </trkpt>
      <trkpt lat="62.71243" lon="6.73801">
        <ele>16.281058</ele>
        <time>2020-07-16T21:02:47.752Z</time>
      </trkpt>
      <trkpt lat="62.71245" lon="6.73812">
        <ele>16.454413</ele>
        <time>2020-07-16T21:02:49.364Z</time>
      </trkpt>
      <trkpt lat="62.71247" lon="6.73822">
        <ele>16.594739</ele>
        <time>2020-07-16T21:02:50.658Z</time>
      </trkpt>
      <trkpt lat="62.71272" lon="6.73942">
        <ele>18.368979</ele>
        <time>2020-07-16T21:03:06.340Z</time>
      </trkpt>
      <trkpt lat="62.7133" lon="6.7421">
        <ele>20.061344</ele>
        <time>2020-07-16T21:03:33.825Z</time>
      </trkpt>
      <trkpt lat="62.71435" lon="6.74516">
        <ele>20.874561</ele>
        <time>2020-07-16T21:04:05.830Z</time>
      </trkpt>
      <trkpt lat="62.71447" lon="6.74548">
        <ele>20.953518</ele>
        <time>2020-07-16T21:04:09.484Z</time>
      </trkpt>
      <trkpt lat="62.71457" lon="6.74578">
        <ele>21.025278</ele>
        <time>2020-07-16T21:04:12.852Z</time>
      </trkpt>
      <trkpt lat="62.715" lon="6.74696">
        <ele>21.477337</ele>
        <time>2020-07-16T21:04:26.953Z</time>
      </trkpt>
      <trkpt lat="62.71534" lon="6.74768">
        <ele>22.198474</ele>
        <time>2020-07-16T21:04:36.643Z</time>
      </trkpt>
      <trkpt lat="62.71587" lon="6.74856">
        <ele>23.208759</ele>
        <time>2020-07-16T21:04:50.808Z</time>
      </trkpt>
      <trkpt lat="62.7167" lon="6.74952">
        <ele>25.55303</ele>
        <time>2020-07-16T21:05:15.914Z</time>
      </trkpt>
      <trkpt lat="62.71709" lon="6.74992">
        <ele>27.141243</ele>
        <time>2020-07-16T21:05:28.503Z</time>
      </trkpt>
      <trkpt lat="62.71771" lon="6.75055">
        <ele>29.638684</ele>
        <time>2020-07-16T21:05:49.762Z</time>
      </trkpt>
      <trkpt lat="62.71877" lon="6.75136">
        <ele>33.871081</ele>
        <time>2020-07-16T21:06:25.680Z</time>
      </trkpt>
      <trkpt lat="62.7188" lon="6.75138">
        <ele>34.011514</ele>
        <time>2020-07-16T21:06:27.584Z</time>
      </trkpt>
      <trkpt lat="62.71969" lon="6.75177">
        <ele>37.43431</ele>
        <time>2020-07-16T21:06:52.160Z</time>
      </trkpt>
      <trkpt lat="62.72124" lon="6.75214">
        <ele>42.332683</ele>
        <time>2020-07-16T21:07:34.917Z</time>
      </trkpt>
      <trkpt lat="62.7215" lon="6.75221">
        <ele>43.154832</ele>
        <time>2020-07-16T21:07:42.823Z</time>
      </trkpt>
      <trkpt lat="62.72164" lon="6.75228">
        <ele>43.551059</ele>
        <time>2020-07-16T21:07:47.137Z</time>
      </trkpt>
      <trkpt lat="62.72205" lon="6.7525">
        <ele>44.728368</ele>
        <time>2020-07-16T21:08:00.017Z</time>
      </trkpt>
      <trkpt lat="62.72296" lon="6.75331">
        <ele>47.446989</ele>
        <time>2020-07-16T21:08:27.375Z</time>
      </trkpt>
      <trkpt lat="62.72372" lon="6.75441">
        <ele>47.559014</ele>
        <time>2020-07-16T21:08:44.234Z</time>
      </trkpt>
      <trkpt lat="62.72443" lon="6.75564">
        <ele>46.922871</ele>
        <time>2020-07-16T21:08:57.548Z</time>
      </trkpt>
      <trkpt lat="62.72602" lon="6.7584">
        <ele>44.124226</ele>
        <time>2020-07-16T21:09:27.049Z</time>
      </trkpt>
      <trkpt lat="62.72677" lon="6.76023">
        <ele>43.603145</ele>
        <time>2020-07-16T21:09:46.292Z</time>
      </trkpt>
      <trkpt lat="62.72843" lon="6.76482">
        <ele>42.685576</ele>
        <time>2020-07-16T21:10:31.652Z</time>
      </trkpt>
      <trkpt lat="62.72914" lon="6.76695">
        <ele>42.321012</ele>
        <time>2020-07-16T21:10:51.840Z</time>
      </trkpt>
      <trkpt lat="62.7302" lon="6.77135">
        <ele>42.521734</ele>
        <time>2020-07-16T21:11:32.390Z</time>
      </trkpt>
      <trkpt lat="62.73054" lon="6.77284">
        <ele>43.5148</ele>
        <time>2020-07-16T21:11:49.342Z</time>
      </trkpt>
      <trkpt lat="62.73075" lon="6.77436">
        <ele>44.463402</ele>
        <time>2020-07-16T21:12:06.245Z</time>
      </trkpt>
      <trkpt lat="62.73135" lon="6.78014">
        <ele>49.078596</ele>
        <time>2020-07-16T21:13:09.131Z</time>
      </trkpt>
      <trkpt lat="62.73159" lon="6.79084">
        <ele>57.384523</ele>
        <time>2020-07-16T21:15:07.540Z</time>
      </trkpt>
      <trkpt lat="62.7319" lon="6.79708">
        <ele>53.938628</ele>
        <time>2020-07-16T21:15:49.618Z</time>
      </trkpt>
      <trkpt lat="62.73232" lon="6.80525">
        <ele>47.7779</ele>
        <time>2020-07-16T21:16:44.108Z</time>
      </trkpt>
      <trkpt lat="62.73247" lon="6.80737">
        <ele>47.026681</ele>
        <time>2020-07-16T21:16:59.489Z</time>
      </trkpt>
      <trkpt lat="62.73276" lon="6.8101">
        <ele>46.765997</ele>
        <time>2020-07-16T21:17:21.723Z</time>
      </trkpt>
      <trkpt lat="62.73283" lon="6.81138">
        <ele>47.528633</ele>
        <time>2020-07-16T21:17:33.805Z</time>
      </trkpt>
      <trkpt lat="62.73282" lon="6.81287">
        <ele>48.401673</ele>
        <time>2020-07-16T21:17:49.030Z</time>
      </trkpt>
      <trkpt lat="62.73253" lon="6.81999">
        <ele>56.834813</ele>
        <time>2020-07-16T21:19:15.850Z</time>
      </trkpt>
      <trkpt lat="62.73245" lon="6.82546">
        <ele>64.822156</ele>
        <time>2020-07-16T21:20:26.280Z</time>
      </trkpt>
      <trkpt lat="62.73251" lon="6.82875">
        <ele>69.954945</ele>
        <time>2020-07-16T21:21:11.442Z</time>
      </trkpt>
      <trkpt lat="62.73263" lon="6.83058">
        <ele>69.913104</ele>
        <time>2020-07-16T21:21:33.476Z</time>
      </trkpt>
      <trkpt lat="62.73265" lon="6.83077">
        <ele>69.771093</ele>
        <time>2020-07-16T21:21:35.532Z</time>
      </trkpt>
      <trkpt lat="62.73278" lon="6.83177">
        <ele>69.007828</ele>
        <time>2020-07-16T21:21:43.042Z</time>
      </trkpt>
      <trkpt lat="62.73302" lon="6.83315">
        <ele>67.605526</ele>
        <time>2020-07-16T21:21:51.448Z</time>
      </trkpt>
      <trkpt lat="62.73351" lon="6.8352">
        <ele>55.878433</ele>
        <time>2020-07-16T21:22:02.867Z</time>
      </trkpt>
      <trkpt lat="62.73364" lon="6.83576">
        <ele>52.644387</ele>
        <time>2020-07-16T21:22:05.907Z</time>
      </trkpt>
      <trkpt lat="62.73411" lon="6.83758">
        <ele>42.407303</ele>
        <time>2020-07-16T21:22:15.941Z</time>
      </trkpt>
      <trkpt lat="62.73439" lon="6.83839">
        <ele>37.589491</ele>
        <time>2020-07-16T21:22:20.887Z</time>
      </trkpt>
      <trkpt lat="62.73444" lon="6.83851">
        <ele>36.809262</ele>
        <time>2020-07-16T21:22:21.698Z</time>
      </trkpt>
      <trkpt lat="62.73514" lon="6.83994">
        <ele>28.557547</ele>
        <time>2020-07-16T21:22:32.596Z</time>
      </trkpt>
      <trkpt lat="62.73567" lon="6.84137">
        <ele>26.120935</ele>
        <time>2020-07-16T21:22:43.785Z</time>
      </trkpt>
      <trkpt lat="62.73569" lon="6.84142">
        <ele>26.034161</ele>
        <time>2020-07-16T21:22:44.238Z</time>
      </trkpt>
      <trkpt lat="62.73603" lon="6.84253">
        <ele>24.251196</ele>
        <time>2020-07-16T21:22:54.004Z</time>
      </trkpt>
      <trkpt lat="62.73638" lon="6.84384">
        <ele>24.175625</ele>
        <time>2020-07-16T21:23:06.542Z</time>
      </trkpt>
      <trkpt lat="62.73669" lon="6.84515">
        <ele>24.338346</ele>
        <time>2020-07-16T21:23:19.839Z</time>
      </trkpt>
      <trkpt lat="62.73713" lon="6.84682">
        <ele>24.625484</ele>
        <time>2020-07-16T21:23:36.566Z</time>
      </trkpt>
      <trkpt lat="62.73776" lon="6.84982">
        <ele>25.353627</ele>
        <time>2020-07-16T21:24:05.272Z</time>
      </trkpt>
      <trkpt lat="62.7398" lon="6.86167">
        <ele>32.762229</ele>
        <time>2020-07-16T21:26:12.524Z</time>
      </trkpt>
      <trkpt lat="62.74027" lon="6.865">
        <ele>35.316611</ele>
        <time>2020-07-16T21:26:50.265Z</time>
      </trkpt>
      <trkpt lat="62.74043" lon="6.86584">
        <ele>36.001181</ele>
        <time>2020-07-16T21:26:59.211Z</time>
      </trkpt>
      <trkpt lat="62.74073" lon="6.86702">
        <ele>37.022748</ele>
        <time>2020-07-16T21:27:12.538Z</time>
      </trkpt>
      <trkpt lat="62.74119" lon="6.86825">
        <ele>39.345896</ele>
        <time>2020-07-16T21:27:29.008Z</time>
      </trkpt>
      <trkpt lat="62.74185" lon="6.86986">
        <ele>45.427578</ele>
        <time>2020-07-16T21:28:04.386Z</time>
      </trkpt>
      <trkpt lat="62.74207" lon="6.8704">
        <ele>47.468838</ele>
        <time>2020-07-16T21:28:19.472Z</time>
      </trkpt>
      <trkpt lat="62.7421" lon="6.87049">
        <ele>47.786571</ele>
        <time>2020-07-16T21:28:21.991Z</time>
      </trkpt>
      <trkpt lat="62.74245" lon="6.87166">
        <ele>53.236637</ele>
        <time>2020-07-16T21:28:55.272Z</time>
      </trkpt>
      <trkpt lat="62.74269" lon="6.8733">
        <ele>60.69886</ele>
        <time>2020-07-16T21:29:37.519Z</time>
      </trkpt>
      <trkpt lat="62.74278" lon="6.87438">
        <ele>65.454617</ele>
        <time>2020-07-16T21:30:02.510Z</time>
      </trkpt>
      <trkpt lat="62.74276" lon="6.87678">
        <ele>66.465325</ele>
        <time>2020-07-16T21:30:32.784Z</time>
      </trkpt>
      <trkpt lat="62.74306" lon="6.87974">
        <ele>62.466614</ele>
        <time>2020-07-16T21:30:49.810Z</time>
      </trkpt>
      <trkpt lat="62.74447" lon="6.8884">
        <ele>36.633334</ele>
        <time>2020-07-16T21:31:37.878Z</time>
      </trkpt>
      <trkpt lat="62.74499" lon="6.89459">
        <ele>37.684501</ele>
        <time>2020-07-16T21:32:40.593Z</time>
      </trkpt>
      <trkpt lat="62.74595" lon="6.9012">
        <ele>46.186867</ele>
        <time>2020-07-16T21:34:14.456Z</time>
      </trkpt>
      <trkpt lat="62.7461" lon="6.90294">
        <ele>43.087623</ele>
        <time>2020-07-16T21:34:24.938Z</time>
      </trkpt>
      <trkpt lat="62.74612" lon="6.90428">
        <ele>40.751979</ele>
        <time>2020-07-16T21:34:32.043Z</time>
      </trkpt>
      <trkpt lat="62.74605" lon="6.90563">
        <ele>38.812383</ele>
        <time>2020-07-16T21:34:39.200Z</time>
      </trkpt>
      <trkpt lat="62.74584" lon="6.90715">
        <ele>36.869325</ele>
        <time>2020-07-16T21:34:48.363Z</time>
      </trkpt>
      <trkpt lat="62.74553" lon="6.90909">
        <ele>36.26057</ele>
        <time>2020-07-16T21:35:06.683Z</time>
      </trkpt>
      <trkpt lat="62.74549" lon="6.90979">
        <ele>37.966669</ele>
        <time>2020-07-16T21:35:16.764Z</time>
      </trkpt>
      <trkpt lat="62.74556" lon="6.91044">
        <ele>39.559643</ele>
        <time>2020-07-16T21:35:27.867Z</time>
      </trkpt>
      <trkpt lat="62.74617" lon="6.91352">
        <ele>47.189037</ele>
        <time>2020-07-16T21:36:31.173Z</time>
      </trkpt>
      <trkpt lat="62.7463" lon="6.91452">
        <ele>49.349136</ele>
        <time>2020-07-16T21:36:48.075Z</time>
      </trkpt>
      <trkpt lat="62.74631" lon="6.91554">
        <ele>51.482435</ele>
        <time>2020-07-16T21:37:02.432Z</time>
      </trkpt>
      <trkpt lat="62.74616" lon="6.91836">
        <ele>51.219661</ele>
        <time>2020-07-16T21:37:23.563Z</time>
      </trkpt>
      <trkpt lat="62.74604" lon="6.9192">
        <ele>50.689382</ele>
        <time>2020-07-16T21:37:28.734Z</time>
      </trkpt>
      <trkpt lat="62.74577" lon="6.91987">
        <ele>50.28494</ele>
        <time>2020-07-16T21:37:33.995Z</time>
      </trkpt>
      <trkpt lat="62.7455" lon="6.92016">
        <ele>50.541168</ele>
        <time>2020-07-16T21:37:38.047Z</time>
      </trkpt>
      <trkpt lat="62.74485" lon="6.92045">
        <ele>51.110446</ele>
        <time>2020-07-16T21:37:48.170Z</time>
      </trkpt>
      <trkpt lat="62.74425" lon="6.92089">
        <ele>51.653217</ele>
        <time>2020-07-16T21:38:04.615Z</time>
      </trkpt>
      <trkpt lat="62.74341" lon="6.92091">
        <ele>56.970476</ele>
        <time>2020-07-16T21:38:39.854Z</time>
      </trkpt>
      <trkpt lat="62.74312" lon="6.92104">
        <ele>59.130351</ele>
        <time>2020-07-16T21:38:53.459Z</time>
      </trkpt>
      <trkpt lat="62.74248" lon="6.92162">
        <ele>64.263471</ele>
        <time>2020-07-16T21:39:25.516Z</time>
      </trkpt>
      <trkpt lat="62.74203" lon="6.9222">
        <ele>65.508218</ele>
        <time>2020-07-16T21:39:46.259Z</time>
      </trkpt>
      <trkpt lat="62.74148" lon="6.92313">
        <ele>66.254507</ele>
        <time>2020-07-16T21:40:05.555Z</time>
      </trkpt>
      <trkpt lat="62.74125" lon="6.92377">
        <ele>66.655693</ele>
        <time>2020-07-16T21:40:10.878Z</time>
      </trkpt>
      <trkpt lat="62.74117" lon="6.92447">
        <ele>66.852951</ele>
        <time>2020-07-16T21:40:14.897Z</time>
      </trkpt>
      <trkpt lat="62.74114" lon="6.92611">
        <ele>59.773024</ele>
        <time>2020-07-16T21:40:23.183Z</time>
      </trkpt>
      <trkpt lat="62.74103" lon="6.92654">
        <ele>57.612673</ele>
        <time>2020-07-16T21:40:25.640Z</time>
      </trkpt>
      <trkpt lat="62.74077" lon="6.92689">
        <ele>54.74833</ele>
        <time>2020-07-16T21:40:28.900Z</time>
      </trkpt>
      <trkpt lat="62.74059" lon="6.9269">
        <ele>52.998674</ele>
        <time>2020-07-16T21:40:30.895Z</time>
      </trkpt>
      <trkpt lat="62.74019" lon="6.92658">
        <ele>49.182323</ele>
        <time>2020-07-16T21:40:35.488Z</time>
      </trkpt>
      <trkpt lat="62.74004" lon="6.92661">
        <ele>48.072211</ele>
        <time>2020-07-16T21:40:37.064Z</time>
      </trkpt>
      <trkpt lat="62.73984" lon="6.92681">
        <ele>46.393643</ele>
        <time>2020-07-16T21:40:39.477Z</time>
      </trkpt>
      <trkpt lat="62.73948" lon="6.92759">
        <ele>42.567662</ele>
        <time>2020-07-16T21:40:45.036Z</time>
      </trkpt>
      <trkpt lat="62.73928" lon="6.92766">
        <ele>41.032336</ele>
        <time>2020-07-16T21:40:47.355Z</time>
      </trkpt>
      <trkpt lat="62.73878" lon="6.92745">
        <ele>37.173739</ele>
        <time>2020-07-16T21:40:53.482Z</time>
      </trkpt>
      <trkpt lat="62.73852" lon="6.92749">
        <ele>36.782278</ele>
        <time>2020-07-16T21:40:56.882Z</time>
      </trkpt>
      <trkpt lat="62.73836" lon="6.92773">
        <ele>37.320499</ele>
        <time>2020-07-16T21:40:59.639Z</time>
      </trkpt>
      <trkpt lat="62.73813" lon="6.92828">
        <ele>38.236269</ele>
        <time>2020-07-16T21:41:05.556Z</time>
      </trkpt>
      <trkpt lat="62.73796" lon="6.92845">
        <ele>38.732769</ele>
        <time>2020-07-16T21:41:10.109Z</time>
      </trkpt>
      <trkpt lat="62.73783" lon="6.92839">
        <ele>39.087049</ele>
        <time>2020-07-16T21:41:13.446Z</time>
      </trkpt>
      <trkpt lat="62.73744" lon="6.9279">
        <ele>40.291419</ele>
        <time>2020-07-16T21:41:28.254Z</time>
      </trkpt>
      <trkpt lat="62.73716" lon="6.92774">
        <ele>41.073795</ele>
        <time>2020-07-16T21:41:40.100Z</time>
      </trkpt>
      <trkpt lat="62.73523" lon="6.92787">
        <ele>61.342987</ele>
        <time>2020-07-16T21:43:27.969Z</time>
      </trkpt>
      <trkpt lat="62.73489" lon="6.92799">
        <ele>63.143712</ele>
        <time>2020-07-16T21:43:45.397Z</time>
      </trkpt>
      <trkpt lat="62.73474" lon="6.9282">
        <ele>64.079871</ele>
        <time>2020-07-16T21:43:53.413Z</time>
      </trkpt>
      <trkpt lat="62.73463" lon="6.92848">
        <ele>64.983905</ele>
        <time>2020-07-16T21:44:00.854Z</time>
      </trkpt>
      <trkpt lat="62.73438" lon="6.92975">
        <ele>68.344711</ele>
        <time>2020-07-16T21:44:21.195Z</time>
      </trkpt>
      <trkpt lat="62.73424" lon="6.93011">
        <ele>69.473348</ele>
        <time>2020-07-16T21:44:25.785Z</time>
      </trkpt>
      <trkpt lat="62.73371" lon="6.93077">
        <ele>67.023399</ele>
        <time>2020-07-16T21:44:34.388Z</time>
      </trkpt>
      <trkpt lat="62.73306" lon="6.93231">
        <ele>59.769952</ele>
        <time>2020-07-16T21:44:45.158Z</time>
      </trkpt>
      <trkpt lat="62.73194" lon="6.93365">
        <ele>44.671014</ele>
        <time>2020-07-16T21:44:58.572Z</time>
      </trkpt>
      <trkpt lat="62.73141" lon="6.93431">
        <ele>36.387013</ele>
        <time>2020-07-16T21:45:04.880Z</time>
      </trkpt>
      <trkpt lat="62.73117" lon="6.93435">
        <ele>33.118473</ele>
        <time>2020-07-16T21:45:07.408Z</time>
      </trkpt>
      <trkpt lat="62.73094" lon="6.93403">
        <ele>30.520879</ele>
        <time>2020-07-16T21:45:10.351Z</time>
      </trkpt>
      <trkpt lat="62.73064" lon="6.93296">
        <ele>25.971887</ele>
        <time>2020-07-16T21:45:16.544Z</time>
      </trkpt>
      <trkpt lat="62.73037" lon="6.93248">
        <ele>23.232014</ele>
        <time>2020-07-16T21:45:20.458Z</time>
      </trkpt>
      <trkpt lat="62.72966" lon="6.9321">
        <ele>17.879192</ele>
        <time>2020-07-16T21:45:29.658Z</time>
      </trkpt>
      <trkpt lat="62.72904" lon="6.93206">
        <ele>17.586597</ele>
        <time>2020-07-16T21:45:38.663Z</time>
      </trkpt>
      <trkpt lat="62.72849" lon="6.93177">
        <ele>17.320836</ele>
        <time>2020-07-16T21:45:48.992Z</time>
      </trkpt>
      <trkpt lat="62.72788" lon="6.93174">
        <ele>17.165133</ele>
        <time>2020-07-16T21:46:02.461Z</time>
      </trkpt>
      <trkpt lat="62.72663" lon="6.93218">
        <ele>19.441993</ele>
        <time>2020-07-16T21:46:34.187Z</time>
      </trkpt>
      <trkpt lat="62.72641" lon="6.9322">
        <ele>19.828052</ele>
        <time>2020-07-16T21:46:39.507Z</time>
      </trkpt>
      <trkpt lat="62.72585" lon="6.93223">
        <ele>20.348066</ele>
        <time>2020-07-16T21:46:51.300Z</time>
      </trkpt>
      <trkpt lat="62.7256" lon="6.93237">
        <ele>20.401748</ele>
        <time>2020-07-16T21:46:56.320Z</time>
      </trkpt>
      <trkpt lat="62.72493" lon="6.9333">
        <ele>20.565776</ele>
        <time>2020-07-16T21:47:10.749Z</time>
      </trkpt>
      <trkpt lat="62.72413" lon="6.93413">
        <ele>20.561421</ele>
        <time>2020-07-16T21:47:25.036Z</time>
      </trkpt>
      <trkpt lat="62.72384" lon="6.93412">
        <ele>20.500272</ele>
        <time>2020-07-16T21:47:29.599Z</time>
      </trkpt>
      <trkpt lat="62.72318" lon="6.93372">
        <ele>20.352235</ele>
        <time>2020-07-16T21:47:41.356Z</time>
      </trkpt>
      <trkpt lat="62.7229" lon="6.93381">
        <ele>20.293291</ele>
        <time>2020-07-16T21:47:46.517Z</time>
      </trkpt>
      <trkpt lat="62.72221" lon="6.93459">
        <ele>20.156202</ele>
        <time>2020-07-16T21:48:02.599Z</time>
      </trkpt>
      <trkpt lat="62.72178" lon="6.93543">
        <ele>20.057008</ele>
        <time>2020-07-16T21:48:14.700Z</time>
      </trkpt>
      <trkpt lat="62.7216" lon="6.93564">
        <ele>20.021665</ele>
        <time>2020-07-16T21:48:19.244Z</time>
      </trkpt>
      <trkpt lat="62.72138" lon="6.9357">
        <ele>19.983299</ele>
        <time>2020-07-16T21:48:22.535Z</time>
      </trkpt>
      <trkpt lat="62.72062" lon="6.9355">
        <ele>16.465195</ele>
        <time>2020-07-16T21:48:31.958Z</time>
      </trkpt>
      <trkpt lat="62.72021" lon="6.93566">
        <ele>14.201445</ele>
        <time>2020-07-16T21:48:36.823Z</time>
      </trkpt>
      <trkpt lat="62.71985" lon="6.93619">
        <ele>11.881654</ele>
        <time>2020-07-16T21:48:41.841Z</time>
      </trkpt>
      <trkpt lat="62.7199" lon="6.9365">
        <ele>11.065754</ele>
        <time>2020-07-16T21:48:43.604Z</time>
      </trkpt>
      <trkpt lat="62.71988" lon="6.93673">
        <ele>10.489686</ele>
        <time>2020-07-16T21:48:44.982Z</time>
      </trkpt>
      <trkpt lat="62.71987" lon="6.93678">
        <ele>10.34618</ele>
        <time>2020-07-16T21:48:45.253Z</time>
      </trkpt>
      <trkpt lat="62.71973" lon="6.93713">
        <ele>9.236867</ele>
        <time>2020-07-16T21:48:47.719Z</time>
      </trkpt>
      <trkpt lat="62.71961" lon="6.93729">
        <ele>8.529835</ele>
        <time>2020-07-16T21:48:49.323Z</time>
      </trkpt>
      <trkpt lat="62.7196" lon="6.93731">
        <ele>8.430284</ele>
        <time>2020-07-16T21:48:49.521Z</time>
      </trkpt>
      <trkpt lat="62.71958" lon="6.93733">
        <ele>8.309886</ele>
        <time>2020-07-16T21:48:49.792Z</time>
      </trkpt>
      <trkpt lat="62.71949" lon="6.93741">
        <ele>7.819205</ele>
        <time>2020-07-16T21:48:50.886Z</time>
      </trkpt>
      <trkpt lat="62.71942" lon="6.93752">
        <ele>7.361092</ele>
        <time>2020-07-16T21:48:51.900Z</time>
      </trkpt>
      <trkpt lat="62.71905" lon="6.93854">
        <ele>4.245647</ele>
        <time>2020-07-16T21:49:00.251Z</time>
      </trkpt>
      <trkpt lat="62.7186" lon="6.93964">
        <ele>0.929102</ele>
        <time>2020-07-16T21:49:09.650Z</time>
      </trkpt>
      <trkpt lat="62.71853" lon="6.93996">
        <ele>0.984857</ele>
        <time>2020-07-16T21:49:11.960Z</time>
      </trkpt>
      <trkpt lat="62.71853" lon="6.94086">
        <ele>1.122665</ele>
        <time>2020-07-16T21:49:17.663Z</time>
      </trkpt>
      <trkpt lat="62.71859" lon="6.94131">
        <ele>1.196737</ele>
        <time>2020-07-16T21:49:20.727Z</time>
      </trkpt>
      <trkpt lat="62.72921" lon="6.98289">
        <ele>11.039502</ele>
        <time>2020-07-16T21:54:24.969Z</time>
      </trkpt>
      <trkpt lat="62.72929" lon="6.98353">
        <ele>11.862106</ele>
        <time>2020-07-16T21:54:29.242Z</time>
      </trkpt>
      <trkpt lat="62.72929" lon="6.98385">
        <ele>12.255372</ele>
        <time>2020-07-16T21:54:31.283Z</time>
      </trkpt>
      <trkpt lat="62.72901" lon="6.98498">
        <ele>15.186706</ele>
        <time>2020-07-16T21:54:39.449Z</time>
      </trkpt>
      <trkpt lat="62.72884" lon="6.98586">
        <ele>18.371877</ele>
        <time>2020-07-16T21:54:45.591Z</time>
      </trkpt>
      <trkpt lat="62.72881" lon="6.98624">
        <ele>19.666725</ele>
        <time>2020-07-16T21:54:54.656Z</time>
      </trkpt>
      <trkpt lat="62.7288" lon="6.98662">
        <ele>20.91816</ele>
        <time>2020-07-16T21:55:00.621Z</time>
      </trkpt>
      <trkpt lat="62.7288" lon="6.98677">
        <ele>21.410697</ele>
        <time>2020-07-16T21:55:04.212Z</time>
      </trkpt>
      <trkpt lat="62.72882" lon="6.98702">
        <ele>22.254445</ele>
        <time>2020-07-16T21:55:09.949Z</time>
      </trkpt>
      <trkpt lat="62.7289" lon="6.98762">
        <ele>24.320877</ele>
        <time>2020-07-16T21:55:21.443Z</time>
      </trkpt>
      <trkpt lat="62.72912" lon="6.98919">
        <ele>28.42241</ele>
        <time>2020-07-16T21:55:52.228Z</time>
      </trkpt>
      <trkpt lat="62.72921" lon="6.98984">
        <ele>29.844299</ele>
        <time>2020-07-16T21:56:02.654Z</time>
      </trkpt>
      <trkpt lat="62.72923" lon="6.98996">
        <ele>30.100142</ele>
        <time>2020-07-16T21:56:04.828Z</time>
      </trkpt>
      <trkpt lat="62.7293" lon="6.99041">
        <ele>31.101777</ele>
        <time>2020-07-16T21:56:11.046Z</time>
      </trkpt>
      <trkpt lat="62.72932" lon="6.99048">
        <ele>31.249934</ele>
        <time>2020-07-16T21:56:12.004Z</time>
      </trkpt>
      <trkpt lat="62.72935" lon="6.99066">
        <ele>31.654721</ele>
        <time>2020-07-16T21:56:14.434Z</time>
      </trkpt>
      <trkpt lat="62.73049" lon="6.99512">
        <ele>38.553143</ele>
        <time>2020-07-16T21:57:14.327Z</time>
      </trkpt>
      <trkpt lat="62.73073" lon="6.99668">
        <ele>39.967822</ele>
        <time>2020-07-16T21:57:33.464Z</time>
      </trkpt>
      <trkpt lat="62.73084" lon="6.9981">
        <ele>41.189011</ele>
        <time>2020-07-16T21:57:49.203Z</time>
      </trkpt>
      <trkpt lat="62.73083" lon="6.99956">
        <ele>41.878866</ele>
        <time>2020-07-16T21:58:03.835Z</time>
      </trkpt>
      <trkpt lat="62.73067" lon="7.00101">
        <ele>41.647988</ele>
        <time>2020-07-16T21:58:17.138Z</time>
      </trkpt>
      <trkpt lat="62.73049" lon="7.00188">
        <ele>41.499587</ele>
        <time>2020-07-16T21:58:23.940Z</time>
      </trkpt>
      <trkpt lat="62.72995" lon="7.00376">
        <ele>40.696866</ele>
        <time>2020-07-16T21:58:38.187Z</time>
      </trkpt>
      <trkpt lat="62.72989" lon="7.00406">
        <ele>40.529686</ele>
        <time>2020-07-16T21:58:40.372Z</time>
      </trkpt>
      <trkpt lat="62.72986" lon="7.00401">
        <ele>40.490107</ele>
        <time>2020-07-16T21:58:40.949Z</time>
      </trkpt>
      <trkpt lat="62.72981" lon="7.00393">
        <ele>40.416577</ele>
        <time>2020-07-16T21:58:41.934Z</time>
      </trkpt>
      <trkpt lat="62.72976" lon="7.00413">
        <ele>40.302955</ele>
        <time>2020-07-16T21:58:43.344Z</time>
      </trkpt>
      <trkpt lat="62.72962" lon="7.00518">
        <ele>39.740626</ele>
        <time>2020-07-16T21:58:51.381Z</time>
      </trkpt>
      <trkpt lat="62.72959" lon="7.00547">
        <ele>39.590074</ele>
        <time>2020-07-16T21:58:53.487Z</time>
      </trkpt>
      <trkpt lat="62.72958" lon="7.00563">
        <ele>39.507881</ele>
        <time>2020-07-16T21:58:54.824Z</time>
      </trkpt>
      <trkpt lat="62.72962" lon="7.00745">
        <ele>42.691824</ele>
        <time>2020-07-16T21:59:14.314Z</time>
      </trkpt>
      <trkpt lat="62.72967" lon="7.00866">
        <ele>45.396766</ele>
        <time>2020-07-16T21:59:33.209Z</time>
      </trkpt>
      <trkpt lat="62.72976" lon="7.01072">
        <ele>50.420994</ele>
        <time>2020-07-16T22:00:20.502Z</time>
      </trkpt>
      <trkpt lat="62.72977" lon="7.01147">
        <ele>52.44644</ele>
        <time>2020-07-16T22:00:36.090Z</time>
      </trkpt>
      <trkpt lat="62.72978" lon="7.01159">
        <ele>52.771972</ele>
        <time>2020-07-16T22:00:39.831Z</time>
      </trkpt>
      <trkpt lat="62.72987" lon="7.01157">
        <ele>53.333586</ele>
        <time>2020-07-16T22:00:42.811Z</time>
      </trkpt>
      <trkpt lat="62.72988" lon="7.01195">
        <ele>54.347354</ele>
        <time>2020-07-16T22:00:50.550Z</time>
      </trkpt>
      <trkpt lat="62.72989" lon="7.01253">
        <ele>55.928071</ele>
        <time>2020-07-16T22:00:58.841Z</time>
      </trkpt>
      <trkpt lat="62.72989" lon="7.01261">
        <ele>56.125288</ele>
        <time>2020-07-16T22:01:00.917Z</time>
      </trkpt>
      <trkpt lat="62.73058" lon="7.01251">
        <ele>57.546877</ele>
        <time>2020-07-16T22:01:14.957Z</time>
      </trkpt>
      <trkpt lat="62.73065" lon="7.0125">
        <ele>57.212605</ele>
        <time>2020-07-16T22:01:16.244Z</time>
      </trkpt>
      <trkpt lat="62.73089" lon="7.01242">
        <ele>56.166867</ele>
        <time>2020-07-16T22:01:19.614Z</time>
      </trkpt>
      <trkpt lat="62.73111" lon="7.01236">
        <ele>55.143704</ele>
        <time>2020-07-16T22:01:22.607Z</time>
      </trkpt>
      <trkpt lat="62.73122" lon="7.01229">
        <ele>54.639792</ele>
        <time>2020-07-16T22:01:23.918Z</time>
      </trkpt>
      <trkpt lat="62.7313" lon="7.0122">
        <ele>54.268089</ele>
        <time>2020-07-16T22:01:24.893Z</time>
      </trkpt>
      <trkpt lat="62.73155" lon="7.01184">
        <ele>52.921479</ele>
        <time>2020-07-16T22:01:28.342Z</time>
      </trkpt>
      <trkpt lat="62.73166" lon="7.01159">
        <ele>52.205734</ele>
        <time>2020-07-16T22:01:30.087Z</time>
      </trkpt>
      <trkpt lat="62.7318" lon="7.01124">
        <ele>51.263797</ele>
        <time>2020-07-16T22:01:32.509Z</time>
      </trkpt>
      <trkpt lat="62.73225" lon="7.00977">
        <ele>47.60395</ele>
        <time>2020-07-16T22:01:41.756Z</time>
      </trkpt>
      <trkpt lat="62.73229" lon="7.00962">
        <ele>47.257029</ele>
        <time>2020-07-16T22:01:42.616Z</time>
      </trkpt>
      <trkpt lat="62.73237" lon="7.0092">
        <ele>46.301524</ele>
        <time>2020-07-16T22:01:45.385Z</time>
      </trkpt>
      <trkpt lat="62.73251" lon="7.00825">
        <ele>44.235586</ele>
        <time>2020-07-16T22:01:51.300Z</time>
      </trkpt>
      <trkpt lat="62.73254" lon="7.0079">
        <ele>43.502964</ele>
        <time>2020-07-16T22:01:53.739Z</time>
      </trkpt>
      <trkpt lat="62.73258" lon="7.00743">
        <ele>42.549554</ele>
        <time>2020-07-16T22:01:57.077Z</time>
      </trkpt>
      <trkpt lat="62.73262" lon="7.00631">
        <ele>42.393258</ele>
        <time>2020-07-16T22:02:05.538Z</time>
      </trkpt>
      <trkpt lat="62.73258" lon="7.00506">
        <ele>42.218579</ele>
        <time>2020-07-16T22:02:16.382Z</time>
      </trkpt>
      <trkpt lat="62.73246" lon="7.00339">
        <ele>41.932008</ele>
        <time>2020-07-16T22:02:30.144Z</time>
      </trkpt>
      <trkpt lat="62.73243" lon="7.00272">
        <ele>41.630771</ele>
        <time>2020-07-16T22:02:35.280Z</time>
      </trkpt>
      <trkpt lat="62.73242" lon="7.00215">
        <ele>41.375718</ele>
        <time>2020-07-16T22:02:39.446Z</time>
      </trkpt>
      <trkpt lat="62.73242" lon="7.00176">
        <ele>41.196024</ele>
        <time>2020-07-16T22:02:42.452Z</time>
      </trkpt>
      <trkpt lat="62.73242" lon="7.00059">
        <ele>40.669109</ele>
        <time>2020-07-16T22:02:50.575Z</time>
      </trkpt>
      <trkpt lat="62.73235" lon="6.99943">
        <ele>39.908728</ele>
        <time>2020-07-16T22:02:58.577Z</time>
      </trkpt>
      <trkpt lat="62.73225" lon="6.99793">
        <ele>37.533692</ele>
        <time>2020-07-16T22:03:08.108Z</time>
      </trkpt>
      <trkpt lat="62.7321" lon="6.99556">
        <ele>33.665485</ele>
        <time>2020-07-16T22:03:21.693Z</time>
      </trkpt>
      <trkpt lat="62.73206" lon="6.99506">
        <ele>32.577179</ele>
        <time>2020-07-16T22:03:24.510Z</time>
      </trkpt>
      <trkpt lat="62.73197" lon="6.99362">
        <ele>29.466659</ele>
        <time>2020-07-16T22:03:32.576Z</time>
      </trkpt>
      <trkpt lat="62.73189" lon="6.9905">
        <ele>25.052109</ele>
        <time>2020-07-16T22:03:50.328Z</time>
      </trkpt>
      <trkpt lat="62.73188" lon="6.99012">
        <ele>24.871488</ele>
        <time>2020-07-16T22:03:52.819Z</time>
      </trkpt>
      <trkpt lat="62.73186" lon="6.98872">
        <ele>24.212723</ele>
        <time>2020-07-16T22:04:04.151Z</time>
      </trkpt>
      <trkpt lat="62.73183" lon="6.9867">
        <ele>26.892127</ele>
        <time>2020-07-16T22:04:28.413Z</time>
      </trkpt>
      <trkpt lat="62.73186" lon="6.98545">
        <ele>30.018673</ele>
        <time>2020-07-16T22:04:48.478Z</time>
      </trkpt>
      <trkpt lat="62.73195" lon="6.98504">
        <ele>31.157483</ele>
        <time>2020-07-16T22:04:57.434Z</time>
      </trkpt>
      <trkpt lat="62.7321" lon="6.98467">
        <ele>32.392571</ele>
        <time>2020-07-16T22:05:07.913Z</time>
      </trkpt>
      <trkpt lat="62.7323" lon="6.98445">
        <ele>33.633902</ele>
        <time>2020-07-16T22:05:18.581Z</time>
      </trkpt>
      <trkpt lat="62.73258" lon="6.9844">
        <ele>35.487023</ele>
        <time>2020-07-16T22:05:30.386Z</time>
      </trkpt>
      <trkpt lat="62.73279" lon="6.98453">
        <ele>36.975093</ele>
        <time>2020-07-16T22:05:40.649Z</time>
      </trkpt>
      <trkpt lat="62.733" lon="6.98479">
        <ele>38.543552</ele>
        <time>2020-07-16T22:05:51.022Z</time>
      </trkpt>
      <trkpt lat="62.73323" lon="6.98512">
        <ele>40.38585</ele>
        <time>2020-07-16T22:06:01.912Z</time>
      </trkpt>
      <trkpt lat="62.73326" lon="6.98517">
        <ele>40.662735</ele>
        <time>2020-07-16T22:06:04.508Z</time>
      </trkpt>
      <trkpt lat="62.73359" lon="6.98559">
        <ele>43.209544</ele>
        <time>2020-07-16T22:06:19.170Z</time>
      </trkpt>
      <trkpt lat="62.73403" lon="6.98599">
        <ele>45.740154</ele>
        <time>2020-07-16T22:06:35.723Z</time>
      </trkpt>
      <trkpt lat="62.7359" lon="6.98702">
        <ele>47.044527</ele>
        <time>2020-07-16T22:07:12.567Z</time>
      </trkpt>
      <trkpt lat="62.73648" lon="6.98745">
        <ele>45.966451</ele>
        <time>2020-07-16T22:07:20.633Z</time>
      </trkpt>
      <trkpt lat="62.73839" lon="6.98888">
        <ele>44.445413</ele>
        <time>2020-07-16T22:07:49.652Z</time>
      </trkpt>
      <trkpt lat="62.73865" lon="6.98907">
        <ele>44.478994</ele>
        <time>2020-07-16T22:07:56.263Z</time>
      </trkpt>
      <trkpt lat="62.73952" lon="6.98972">
        <ele>45.203736</ele>
        <time>2020-07-16T22:08:22.347Z</time>
      </trkpt>
      <trkpt lat="62.7403" lon="6.99046">
        <ele>46.435586</ele>
        <time>2020-07-16T22:08:44.353Z</time>
      </trkpt>
      <trkpt lat="62.74039" lon="6.99057">
        <ele>46.587263</ele>
        <time>2020-07-16T22:08:46.626Z</time>
      </trkpt>
      <trkpt lat="62.74065" lon="6.99087">
        <ele>47.006202</ele>
        <time>2020-07-16T22:08:51.072Z</time>
      </trkpt>
      <trkpt lat="62.7408" lon="6.99104">
        <ele>46.860959</ele>
        <time>2020-07-16T22:08:53.567Z</time>
      </trkpt>
      <trkpt lat="62.74122" lon="6.99144">
        <ele>45.425329</ele>
        <time>2020-07-16T22:08:59.591Z</time>
      </trkpt>
      <trkpt lat="62.74145" lon="6.9916">
        <ele>44.667925</ele>
        <time>2020-07-16T22:09:02.577Z</time>
      </trkpt>
      <trkpt lat="62.74171" lon="6.99176">
        <ele>43.816139</ele>
        <time>2020-07-16T22:09:05.948Z</time>
      </trkpt>
      <trkpt lat="62.74232" lon="6.99204">
        <ele>41.852956</ele>
        <time>2020-07-16T22:09:13.554Z</time>
      </trkpt>
      <trkpt lat="62.7428" lon="6.99222">
        <ele>42.393778</ele>
        <time>2020-07-16T22:09:20.223Z</time>
      </trkpt>
      <trkpt lat="62.7435" lon="6.99249">
        <ele>44.1582</ele>
        <time>2020-07-16T22:09:36.414Z</time>
      </trkpt>
      <trkpt lat="62.74382" lon="6.99268">
        <ele>45.01029</ele>
        <time>2020-07-16T22:09:48.026Z</time>
      </trkpt>
      <trkpt lat="62.74411" lon="6.99303">
        <ele>45.829002</ele>
        <time>2020-07-16T22:10:00.910Z</time>
      </trkpt>
      <trkpt lat="62.74484" lon="6.99465">
        <ele>52.384207</ele>
        <time>2020-07-16T22:10:48.956Z</time>
      </trkpt>
      <trkpt lat="62.7452" lon="6.99532">
        <ele>55.465144</ele>
        <time>2020-07-16T22:11:07.807Z</time>
      </trkpt>
      <trkpt lat="62.74564" lon="6.99591">
        <ele>57.269085</ele>
        <time>2020-07-16T22:11:23.107Z</time>
      </trkpt>
      <trkpt lat="62.74606" lon="6.99628">
        <ele>56.057295</ele>
        <time>2020-07-16T22:11:31.524Z</time>
      </trkpt>
      <trkpt lat="62.74656" lon="6.99652">
        <ele>54.708804</ele>
        <time>2020-07-16T22:11:38.213Z</time>
      </trkpt>
      <trkpt lat="62.74714" lon="6.99658">
        <ele>53.154121</ele>
        <time>2020-07-16T22:11:45.029Z</time>
      </trkpt>
      <trkpt lat="62.74781" lon="6.99644">
        <ele>49.181031</ele>
        <time>2020-07-16T22:11:52.525Z</time>
      </trkpt>
      <trkpt lat="62.74828" lon="6.99623">
        <ele>46.104338</ele>
        <time>2020-07-16T22:11:58.045Z</time>
      </trkpt>
      <trkpt lat="62.74842" lon="6.99615">
        <ele>45.192115</ele>
        <time>2020-07-16T22:11:59.648Z</time>
      </trkpt>
      <trkpt lat="62.74853" lon="6.99608">
        <ele>44.448053</ele>
        <time>2020-07-16T22:12:01.014Z</time>
      </trkpt>
      <trkpt lat="62.74925" lon="6.99547">
        <ele>41.396267</ele>
        <time>2020-07-16T22:12:10.462Z</time>
      </trkpt>
      <trkpt lat="62.75023" lon="6.99443">
        <ele>41.072403</ele>
        <time>2020-07-16T22:12:28.891Z</time>
      </trkpt>
      <trkpt lat="62.75037" lon="6.99431">
        <ele>41.02635</ele>
        <time>2020-07-16T22:12:32.428Z</time>
      </trkpt>
      <trkpt lat="62.75056" lon="6.99417">
        <ele>40.967886</ele>
        <time>2020-07-16T22:12:38.457Z</time>
      </trkpt>
      <trkpt lat="62.75128" lon="6.9939">
        <ele>44.640079</ele>
        <time>2020-07-16T22:13:02.126Z</time>
      </trkpt>
      <trkpt lat="62.75203" lon="6.99401">
        <ele>48.705236</ele>
        <time>2020-07-16T22:13:31.116Z</time>
      </trkpt>
      <trkpt lat="62.75267" lon="6.99442">
        <ele>52.168557</ele>
        <time>2020-07-16T22:13:57.259Z</time>
      </trkpt>
      <trkpt lat="62.75329" lon="6.99518">
        <ele>55.743538</ele>
        <time>2020-07-16T22:14:22.333Z</time>
      </trkpt>
      <trkpt lat="62.75369" lon="6.9958">
        <ele>58.196206</ele>
        <time>2020-07-16T22:14:38.139Z</time>
      </trkpt>
      <trkpt lat="62.75372" lon="6.99573">
        <ele>58.399903</ele>
        <time>2020-07-16T22:14:38.701Z</time>
      </trkpt>
      <trkpt lat="62.75373" lon="6.99565">
        <ele>58.596571</ele>
        <time>2020-07-16T22:14:39.231Z</time>
      </trkpt>
      <trkpt lat="62.75377" lon="6.99573">
        <ele>58.865296</ele>
        <time>2020-07-16T22:14:41.718Z</time>
      </trkpt>
      <trkpt lat="62.75523" lon="6.99795">
        <ele>65.89354</ele>
        <time>2020-07-16T22:15:35.299Z</time>
      </trkpt>
      <trkpt lat="62.75526" lon="6.99797">
        <ele>66.034758</ele>
        <time>2020-07-16T22:15:36.606Z</time>
      </trkpt>
      <trkpt lat="62.7554" lon="6.99791">
        <ele>66.555767</ele>
        <time>2020-07-16T22:15:40.978Z</time>
      </trkpt>
      <trkpt lat="62.75543" lon="6.9979">
        <ele>66.702555</ele>
        <time>2020-07-16T22:15:42.809Z</time>
      </trkpt>
      <trkpt lat="62.75547" lon="6.99791">
        <ele>66.847689</ele>
        <time>2020-07-16T22:15:43.258Z</time>
      </trkpt>
      <trkpt lat="62.75557" lon="6.99808">
        <ele>67.326408</ele>
        <time>2020-07-16T22:15:49.469Z</time>
      </trkpt>
      <trkpt lat="62.75574" lon="6.99843">
        <ele>68.23084</ele>
        <time>2020-07-16T22:15:55.918Z</time>
      </trkpt>
      <trkpt lat="62.75574" lon="6.99855">
        <ele>68.434301</ele>
        <time>2020-07-16T22:15:58.067Z</time>
      </trkpt>
      <trkpt lat="62.75566" lon="6.9988">
        <ele>68.970365</ele>
        <time>2020-07-16T22:16:03.927Z</time>
      </trkpt>
      <trkpt lat="62.75561" lon="6.99894">
        <ele>69.283203</ele>
        <time>2020-07-16T22:16:06.121Z</time>
      </trkpt>
      <trkpt lat="62.75561" lon="6.99898">
        <ele>69.350821</ele>
        <time>2020-07-16T22:16:07.737Z</time>
      </trkpt>
      <trkpt lat="62.75571" lon="6.99924">
        <ele>69.941423</ele>
        <time>2020-07-16T22:16:12.026Z</time>
      </trkpt>
      <trkpt lat="62.75637" lon="7.00001">
        <ele>72.81634</ele>
        <time>2020-07-16T22:16:35.989Z</time>
      </trkpt>
      <trkpt lat="62.75715" lon="7.00069">
        <ele>72.185518</ele>
        <time>2020-07-16T22:16:54.729Z</time>
      </trkpt>
      <trkpt lat="62.7582" lon="7.00116">
        <ele>70.019195</ele>
        <time>2020-07-16T22:17:08.935Z</time>
      </trkpt>
      <trkpt lat="62.75925" lon="7.00116">
        <ele>64.388598</ele>
        <time>2020-07-16T22:17:22.031Z</time>
      </trkpt>
      <trkpt lat="62.75933" lon="7.00114">
        <ele>63.924633</ele>
        <time>2020-07-16T22:17:23.083Z</time>
      </trkpt>
      <trkpt lat="62.75945" lon="7.00111">
        <ele>63.255875</ele>
        <time>2020-07-16T22:17:24.548Z</time>
      </trkpt>
      <trkpt lat="62.76026" lon="7.00074">
        <ele>58.466077</ele>
        <time>2020-07-16T22:17:34.664Z</time>
      </trkpt>
      <trkpt lat="62.7621" lon="6.9996">
        <ele>47.274521</ele>
        <time>2020-07-16T22:17:58.021Z</time>
      </trkpt>
      <trkpt lat="62.7626" lon="6.99923">
        <ele>45.465364</ele>
        <time>2020-07-16T22:18:04.863Z</time>
      </trkpt>
      <trkpt lat="62.76281" lon="6.99907">
        <ele>44.681355</ele>
        <time>2020-07-16T22:18:07.972Z</time>
      </trkpt>
      <trkpt lat="62.76289" lon="6.999">
        <ele>44.399588</ele>
        <time>2020-07-16T22:18:09.099Z</time>
      </trkpt>
      <trkpt lat="62.76325" lon="6.9987">
        <ele>43.064424</ele>
        <time>2020-07-16T22:18:14.679Z</time>
      </trkpt>
      <trkpt lat="62.76362" lon="6.99835">
        <ele>42.231681</ele>
        <time>2020-07-16T22:18:21.271Z</time>
      </trkpt>
      <trkpt lat="62.76364" lon="6.99833">
        <ele>42.23894</ele>
        <time>2020-07-16T22:18:21.702Z</time>
      </trkpt>
      <trkpt lat="62.76461" lon="6.99719">
        <ele>42.574286</ele>
        <time>2020-07-16T22:18:45.136Z</time>
      </trkpt>
      <trkpt lat="62.76472" lon="6.99704">
        <ele>42.614195</ele>
        <time>2020-07-16T22:18:47.822Z</time>
      </trkpt>
      <trkpt lat="62.76483" lon="6.99688">
        <ele>42.653286</ele>
        <time>2020-07-16T22:18:50.646Z</time>
      </trkpt>
      <trkpt lat="62.76518" lon="6.99636">
        <ele>42.515413</ele>
        <time>2020-07-16T22:18:59.440Z</time>
      </trkpt>
      <trkpt lat="62.76542" lon="6.99601">
        <ele>42.130769</ele>
        <time>2020-07-16T22:19:04.901Z</time>
      </trkpt>
      <trkpt lat="62.76596" lon="6.99537">
        <ele>41.318265</ele>
        <time>2020-07-16T22:19:15.100Z</time>
      </trkpt>
      <trkpt lat="62.7666" lon="6.99504">
        <ele>40.446517</ele>
        <time>2020-07-16T22:19:24.320Z</time>
      </trkpt>
      <trkpt lat="62.767" lon="6.99495">
        <ele>39.514662</ele>
        <time>2020-07-16T22:19:29.838Z</time>
      </trkpt>
      <trkpt lat="62.76713" lon="6.99492">
        <ele>39.184631</ele>
        <time>2020-07-16T22:19:31.536Z</time>
      </trkpt>
      <trkpt lat="62.76735" lon="6.99481">
        <ele>38.636911</ele>
        <time>2020-07-16T22:19:34.675Z</time>
      </trkpt>
      <trkpt lat="62.76745" lon="6.99472">
        <ele>38.349628</ele>
        <time>2020-07-16T22:19:36.171Z</time>
      </trkpt>
      <trkpt lat="62.76761" lon="6.99452">
        <ele>37.90501</ele>
        <time>2020-07-16T22:19:39.587Z</time>
      </trkpt>
      <trkpt lat="62.76766" lon="6.99444">
        <ele>37.752553</ele>
        <time>2020-07-16T22:19:40.688Z</time>
      </trkpt>
      <trkpt lat="62.7678" lon="6.99418">
        <ele>37.289904</ele>
        <time>2020-07-16T22:19:43.963Z</time>
      </trkpt>
      <trkpt lat="62.768" lon="6.99344">
        <ele>36.297532</ele>
        <time>2020-07-16T22:19:51.829Z</time>
      </trkpt>
      <trkpt lat="62.76818" lon="6.99317">
        <ele>35.839523</ele>
        <time>2020-07-16T22:19:56.236Z</time>
      </trkpt>
      <trkpt lat="62.76853" lon="6.99301">
        <ele>35.868959</ele>
        <time>2020-07-16T22:20:03.814Z</time>
      </trkpt>
      <trkpt lat="62.76891" lon="6.99301">
        <ele>35.901052</ele>
        <time>2020-07-16T22:20:12.714Z</time>
      </trkpt>
      <trkpt lat="62.76915" lon="6.99321">
        <ele>35.922872</ele>
        <time>2020-07-16T22:20:19.100Z</time>
      </trkpt>
      <trkpt lat="62.76928" lon="6.99349">
        <ele>35.938192</ele>
        <time>2020-07-16T22:20:24.473Z</time>
      </trkpt>
      <trkpt lat="62.76931" lon="6.99347">
        <ele>35.94052</ele>
        <time>2020-07-16T22:20:24.961Z</time>
      </trkpt>
      <trkpt lat="62.76984" lon="6.99372">
        <ele>35.98661</ele>
        <time>2020-07-16T22:20:35.928Z</time>
      </trkpt>
      <trkpt lat="62.77029" lon="6.99376">
        <ele>36.279208</ele>
        <time>2020-07-16T22:20:45.486Z</time>
      </trkpt>
      <trkpt lat="62.77034" lon="6.99375">
        <ele>36.308088</ele>
        <time>2020-07-16T22:20:46.510Z</time>
      </trkpt>
      <trkpt lat="62.77039" lon="6.99375">
        <ele>36.341608</ele>
        <time>2020-07-16T22:20:47.627Z</time>
      </trkpt>
      <trkpt lat="62.77045" lon="6.99376">
        <ele>36.384576</ele>
        <time>2020-07-16T22:20:49.027Z</time>
      </trkpt>
      <trkpt lat="62.77061" lon="6.99374">
        <ele>36.493223</ele>
        <time>2020-07-16T22:20:52.240Z</time>
      </trkpt>
      <trkpt lat="62.77081" lon="6.99365">
        <ele>36.632122</ele>
        <time>2020-07-16T22:20:56.950Z</time>
      </trkpt>
      <trkpt lat="62.77089" lon="6.99358">
        <ele>36.68789</ele>
        <time>2020-07-16T22:20:58.294Z</time>
      </trkpt>
      <trkpt lat="62.77098" lon="6.99349">
        <ele>36.752378</ele>
        <time>2020-07-16T22:21:00.074Z</time>
      </trkpt>
      <trkpt lat="62.7715" lon="6.99257">
        <ele>37.204076</ele>
        <time>2020-07-16T22:21:13.539Z</time>
      </trkpt>
      <trkpt lat="62.77158" lon="6.99243">
        <ele>37.272959</ele>
        <time>2020-07-16T22:21:15.870Z</time>
      </trkpt>
      <trkpt lat="62.77165" lon="6.99227">
        <ele>37.344167</ele>
        <time>2020-07-16T22:21:18.379Z</time>
      </trkpt>
      <trkpt lat="62.77218" lon="6.99127">
        <ele>37.827822</ele>
        <time>2020-07-16T22:21:33.242Z</time>
      </trkpt>
      <trkpt lat="62.7724" lon="6.991">
        <ele>38.005141</ele>
        <time>2020-07-16T22:21:38.251Z</time>
      </trkpt>
      <trkpt lat="62.77242" lon="6.991">
        <ele>38.018459</ele>
        <time>2020-07-16T22:21:39.040Z</time>
      </trkpt>
      <trkpt lat="62.77244" lon="6.99093">
        <ele>38.042798</ele>
        <time>2020-07-16T22:21:40.413Z</time>
      </trkpt>
      <trkpt lat="62.77276" lon="6.99049">
        <ele>38.303906</ele>
        <time>2020-07-16T22:21:52.733Z</time>
      </trkpt>
      <trkpt lat="62.77305" lon="6.99033">
        <ele>38.370089</ele>
        <time>2020-07-16T22:22:02.242Z</time>
      </trkpt>
      <trkpt lat="62.77341" lon="6.99027">
        <ele>38.130619</ele>
        <time>2020-07-16T22:22:12.372Z</time>
      </trkpt>
      <trkpt lat="62.77374" lon="6.99032">
        <ele>37.912365</ele>
        <time>2020-07-16T22:22:21.288Z</time>
      </trkpt>
      <trkpt lat="62.77407" lon="6.99051">
        <ele>37.689702</ele>
        <time>2020-07-16T22:22:30.474Z</time>
      </trkpt>
      <trkpt lat="62.77462" lon="6.99109">
        <ele>37.281302</ele>
        <time>2020-07-16T22:22:46.483Z</time>
      </trkpt>
      <trkpt lat="62.77469" lon="6.99129">
        <ele>37.348771</ele>
        <time>2020-07-16T22:22:49.493Z</time>
      </trkpt>
      <trkpt lat="62.77473" lon="6.9913">
        <ele>37.410493</ele>
        <time>2020-07-16T22:22:50.449Z</time>
      </trkpt>
      <trkpt lat="62.77502" lon="6.9914">
        <ele>37.852481</ele>
        <time>2020-07-16T22:22:59.812Z</time>
      </trkpt>
      <trkpt lat="62.77534" lon="6.99177">
        <ele>38.401368</ele>
        <time>2020-07-16T22:23:10.970Z</time>
      </trkpt>
      <trkpt lat="62.77551" lon="6.99192">
        <ele>38.681232</ele>
        <time>2020-07-16T22:23:18.202Z</time>
      </trkpt>
      <trkpt lat="62.77553" lon="6.99186">
        <ele>38.733118</ele>
        <time>2020-07-16T22:23:19.440Z</time>
      </trkpt>
      <trkpt lat="62.77554" lon="6.99177">
        <ele>38.796588</ele>
        <time>2020-07-16T22:23:20.696Z</time>
      </trkpt>
      <trkpt lat="62.77557" lon="6.99154">
        <ele>38.962851</ele>
        <time>2020-07-16T22:23:22.839Z</time>
      </trkpt>
      <trkpt lat="62.77559" lon="6.99146">
        <ele>39.024294</ele>
        <time>2020-07-16T22:23:23.952Z</time>
      </trkpt>
      <trkpt lat="62.77562" lon="6.99135">
        <ele>39.112201</ele>
        <time>2020-07-16T22:23:26.102Z</time>
      </trkpt>
      <trkpt lat="62.77585" lon="6.99152">
        <ele>39.481671</ele>
        <time>2020-07-16T22:23:35.787Z</time>
      </trkpt>
      <trkpt lat="62.77595" lon="6.99158">
        <ele>39.645878</ele>
        <time>2020-07-16T22:23:39.193Z</time>
      </trkpt>
      <trkpt lat="62.77598" lon="6.99159">
        <ele>39.686027</ele>
        <time>2020-07-16T22:23:40.754Z</time>
      </trkpt>
      <trkpt lat="62.77599" lon="6.99163">
        <ele>39.721476</ele>
        <time>2020-07-16T22:23:42.517Z</time>
      </trkpt>
      <trkpt lat="62.77613" lon="6.99176">
        <ele>39.9475</ele>
        <time>2020-07-16T22:23:47.969Z</time>
      </trkpt>
      <trkpt lat="62.77662" lon="6.99187">
        <ele>42.264226</ele>
        <time>2020-07-16T22:24:09.017Z</time>
      </trkpt>
      <trkpt lat="62.77673" lon="6.99191">
        <ele>42.852271</ele>
        <time>2020-07-16T22:24:16.320Z</time>
      </trkpt>
      <trkpt lat="62.77699" lon="6.99198">
        <ele>44.089364</ele>
        <time>2020-07-16T22:24:26.303Z</time>
      </trkpt>
      <trkpt lat="62.77741" lon="6.99217">
        <ele>46.19522</ele>
        <time>2020-07-16T22:24:48.383Z</time>
      </trkpt>
      <trkpt lat="62.7777" lon="6.99242">
        <ele>47.710886</ele>
        <time>2020-07-16T22:25:01.477Z</time>
      </trkpt>
      <trkpt lat="62.77776" lon="6.99242">
        <ele>48.029272</ele>
        <time>2020-07-16T22:25:04.858Z</time>
      </trkpt>
      <trkpt lat="62.77781" lon="6.99246">
        <ele>48.304197</ele>
        <time>2020-07-16T22:25:07.722Z</time>
      </trkpt>
      <trkpt lat="62.7791" lon="6.99426">
        <ele>55.622574</ele>
        <time>2020-07-16T22:26:16.711Z</time>
      </trkpt>
      <trkpt lat="62.77935" lon="6.99439">
        <ele>56.837302</ele>
        <time>2020-07-16T22:26:27.541Z</time>
      </trkpt>
      <trkpt lat="62.77939" lon="6.99452">
        <ele>57.187631</ele>
        <time>2020-07-16T22:26:30.404Z</time>
      </trkpt>
      <trkpt lat="62.77953" lon="6.99493">
        <ele>58.088462</ele>
        <time>2020-07-16T22:26:37.888Z</time>
      </trkpt>
      <trkpt lat="62.78036" lon="6.99649">
        <ele>62.077646</ele>
        <time>2020-07-16T22:27:15.532Z</time>
      </trkpt>
      <trkpt lat="62.78159" lon="6.99962">
        <ele>63.699064</ele>
        <time>2020-07-16T22:27:56.551Z</time>
      </trkpt>
      <trkpt lat="62.78164" lon="6.99966">
        <ele>63.689811</ele>
        <time>2020-07-16T22:27:57.173Z</time>
      </trkpt>
      <trkpt lat="62.78169" lon="6.99982">
        <ele>63.672283</ele>
        <time>2020-07-16T22:27:58.546Z</time>
      </trkpt>
      <trkpt lat="62.78176" lon="7.00012">
        <ele>63.643729</ele>
        <time>2020-07-16T22:28:00.682Z</time>
      </trkpt>
      <trkpt lat="62.78354" lon="7.00493">
        <ele>54.792021</ele>
        <time>2020-07-16T22:28:38.118Z</time>
      </trkpt>
      <trkpt lat="62.78397" lon="7.00652">
        <ele>52.839848</ele>
        <time>2020-07-16T22:28:52.101Z</time>
      </trkpt>
      <trkpt lat="62.78403" lon="7.0067">
        <ele>52.721329</ele>
        <time>2020-07-16T22:28:53.955Z</time>
      </trkpt>
      <trkpt lat="62.78413" lon="7.00695">
        <ele>52.709638</ele>
        <time>2020-07-16T22:28:56.479Z</time>
      </trkpt>
      <trkpt lat="62.78418" lon="7.00709">
        <ele>52.702952</ele>
        <time>2020-07-16T22:28:57.986Z</time>
      </trkpt>
      <trkpt lat="62.78422" lon="7.00713">
        <ele>52.699253</ele>
        <time>2020-07-16T22:28:58.990Z</time>
      </trkpt>
      <trkpt lat="62.78426" lon="7.00719">
        <ele>52.695595</ele>
        <time>2020-07-16T22:28:59.744Z</time>
      </trkpt>
      <trkpt lat="62.78441" lon="7.00755">
        <ele>52.677742</ele>
        <time>2020-07-16T22:29:03.630Z</time>
      </trkpt>
      <trkpt lat="62.78449" lon="7.00773">
        <ele>52.668978</ele>
        <time>2020-07-16T22:29:05.862Z</time>
      </trkpt>
      <trkpt lat="62.78477" lon="7.00844">
        <ele>52.634875</ele>
        <time>2020-07-16T22:29:13.781Z</time>
      </trkpt>
      <trkpt lat="62.78506" lon="7.00913">
        <ele>52.600568</ele>
        <time>2020-07-16T22:29:22.020Z</time>
      </trkpt>
      <trkpt lat="62.78525" lon="7.0096">
        <ele>52.529907</ele>
        <time>2020-07-16T22:29:27.202Z</time>
      </trkpt>
      <trkpt lat="62.78611" lon="7.01182">
        <ele>51.323081</ele>
        <time>2020-07-16T22:29:48.184Z</time>
      </trkpt>
      <trkpt lat="62.78622" lon="7.01205">
        <ele>51.18466</ele>
        <time>2020-07-16T22:29:50.414Z</time>
      </trkpt>
      <trkpt lat="62.7863" lon="7.01227">
        <ele>51.070918</ele>
        <time>2020-07-16T22:29:52.189Z</time>
      </trkpt>
      <trkpt lat="62.78637" lon="7.01248">
        <ele>50.957887</ele>
        <time>2020-07-16T22:29:54.116Z</time>
      </trkpt>
      <trkpt lat="62.78648" lon="7.01274">
        <ele>50.71424</ele>
        <time>2020-07-16T22:29:56.321Z</time>
      </trkpt>
      <trkpt lat="62.78651" lon="7.01282">
        <ele>50.628169</ele>
        <time>2020-07-16T22:29:57.072Z</time>
      </trkpt>
      <trkpt lat="62.78671" lon="7.01355">
        <ele>50.009307</ele>
        <time>2020-07-16T22:30:02.713Z</time>
      </trkpt>
      <trkpt lat="62.7868" lon="7.01379">
        <ele>49.783586</ele>
        <time>2020-07-16T22:30:04.872Z</time>
      </trkpt>
      <trkpt lat="62.7869" lon="7.01372">
        <ele>49.616574</ele>
        <time>2020-07-16T22:30:06.375Z</time>
      </trkpt>
      <trkpt lat="62.78696" lon="7.01368">
        <ele>49.520695</ele>
        <time>2020-07-16T22:30:07.153Z</time>
      </trkpt>
      <trkpt lat="62.78778" lon="7.01295">
        <ele>48.098688</ele>
        <time>2020-07-16T22:30:20.314Z</time>
      </trkpt>
      <trkpt lat="62.78848" lon="7.01234">
        <ele>47.263813</ele>
        <time>2020-07-16T22:30:31.228Z</time>
      </trkpt>
      <trkpt lat="62.78917" lon="7.01168">
        <ele>46.42977</ele>
        <time>2020-07-16T22:30:43.118Z</time>
      </trkpt>
      <trkpt lat="62.78949" lon="7.01134">
        <ele>46.043847</ele>
        <time>2020-07-16T22:30:48.937Z</time>
      </trkpt>
      <trkpt lat="62.7896" lon="7.01122">
        <ele>45.927703</ele>
        <time>2020-07-16T22:30:50.943Z</time>
      </trkpt>
      <trkpt lat="62.78999" lon="7.01067">
        <ele>45.482141</ele>
        <time>2020-07-16T22:30:58.245Z</time>
      </trkpt>
      <trkpt lat="62.7904" lon="7.00969">
        <ele>44.901014</ele>
        <time>2020-07-16T22:31:07.726Z</time>
      </trkpt>
      <trkpt lat="62.79083" lon="7.0085">
        <ele>44.307311</ele>
        <time>2020-07-16T22:31:18.229Z</time>
      </trkpt>
      <trkpt lat="62.79089" lon="7.0083">
        <ele>44.253247</ele>
        <time>2020-07-16T22:31:19.763Z</time>
      </trkpt>
      <trkpt lat="62.79153" lon="7.00607">
        <ele>43.663565</ele>
        <time>2020-07-16T22:31:39.062Z</time>
      </trkpt>
      <trkpt lat="62.79178" lon="7.00552">
        <ele>43.515532</ele>
        <time>2020-07-16T22:31:45.711Z</time>
      </trkpt>
      <trkpt lat="62.79219" lon="7.00494">
        <ele>44.38697</ele>
        <time>2020-07-16T22:31:55.898Z</time>
      </trkpt>
      <trkpt lat="62.79234" lon="7.00473">
        <ele>44.707565</ele>
        <time>2020-07-16T22:32:00.274Z</time>
      </trkpt>
      <trkpt lat="62.79272" lon="7.00407">
        <ele>45.568852</ele>
        <time>2020-07-16T22:32:11.514Z</time>
      </trkpt>
      <trkpt lat="62.79365" lon="7.00122">
        <ele>48.894509</ele>
        <time>2020-07-16T22:32:54.765Z</time>
      </trkpt>
      <trkpt lat="62.7938" lon="7.00074">
        <ele>49.488259</ele>
        <time>2020-07-16T22:33:01.202Z</time>
      </trkpt>
      <trkpt lat="62.79386" lon="7.00056">
        <ele>49.71555</ele>
        <time>2020-07-16T22:33:03.697Z</time>
      </trkpt>
      <trkpt lat="62.79444" lon="6.99861">
        <ele>50.931573</ele>
        <time>2020-07-16T22:33:27.444Z</time>
      </trkpt>
      <trkpt lat="62.79502" lon="6.99574">
        <ele>51.309346</ele>
        <time>2020-07-16T22:33:51.391Z</time>
      </trkpt>
      <trkpt lat="62.79533" lon="6.99421">
        <ele>51.509423</ele>
        <time>2020-07-16T22:34:05.145Z</time>
      </trkpt>
      <trkpt lat="62.79535" lon="6.99412">
        <ele>51.521821</ele>
        <time>2020-07-16T22:34:05.858Z</time>
      </trkpt>
      <trkpt lat="62.79555" lon="6.99348">
        <ele>51.614651</ele>
        <time>2020-07-16T22:34:12.849Z</time>
      </trkpt>
      <trkpt lat="62.79559" lon="6.99343">
        <ele>51.625716</ele>
        <time>2020-07-16T22:34:13.480Z</time>
      </trkpt>
      <trkpt lat="62.79565" lon="6.99339">
        <ele>51.642219</ele>
        <time>2020-07-16T22:34:15.121Z</time>
      </trkpt>
      <trkpt lat="62.79577" lon="6.99337">
        <ele>51.675256</ele>
        <time>2020-07-16T22:34:17.847Z</time>
      </trkpt>
      <trkpt lat="62.79603" lon="6.99352">
        <ele>51.873171</ele>
        <time>2020-07-16T22:34:22.949Z</time>
      </trkpt>
      <trkpt lat="62.79615" lon="6.99362">
        <ele>52.079043</ele>
        <time>2020-07-16T22:34:25.840Z</time>
      </trkpt>
      <trkpt lat="62.79677" lon="6.99412">
        <ele>53.157517</ele>
        <time>2020-07-16T22:34:40.777Z</time>
      </trkpt>
      <trkpt lat="62.79787" lon="6.99501">
        <ele>54.77157</ele>
        <time>2020-07-16T22:35:09.876Z</time>
      </trkpt>
      <trkpt lat="62.79804" lon="6.99514">
        <ele>54.857917</ele>
        <time>2020-07-16T22:35:13.871Z</time>
      </trkpt>
      <trkpt lat="62.79863" lon="6.99537">
        <ele>55.150627</ele>
        <time>2020-07-16T22:35:25.962Z</time>
      </trkpt>
      <trkpt lat="62.79891" lon="6.99566">
        <ele>55.306433</ele>
        <time>2020-07-16T22:35:31.850Z</time>
      </trkpt>
      <trkpt lat="62.7991" lon="6.99624">
        <ele>55.4637</ele>
        <time>2020-07-16T22:35:37.450Z</time>
      </trkpt>
      <trkpt lat="62.79951" lon="6.99959">
        <ele>52.500469</ele>
        <time>2020-07-16T22:35:59.967Z</time>
      </trkpt>
      <trkpt lat="62.79999" lon="7.00095">
        <ele>50.670132</ele>
        <time>2020-07-16T22:36:10.153Z</time>
      </trkpt>
      <trkpt lat="62.80064" lon="7.00314">
        <ele>47.629554</ele>
        <time>2020-07-16T22:36:26.395Z</time>
      </trkpt>
      <trkpt lat="62.80101" lon="7.00384">
        <ele>46.791292</ele>
        <time>2020-07-16T22:36:33.435Z</time>
      </trkpt>
      <trkpt lat="62.80228" lon="7.00509">
        <ele>44.930786</ele>
        <time>2020-07-16T22:36:54.802Z</time>
      </trkpt>
      <trkpt lat="62.80265" lon="7.00562">
        <ele>44.256595</ele>
        <time>2020-07-16T22:37:01.545Z</time>
      </trkpt>
      <trkpt lat="62.80316" lon="7.00658">
        <ele>43.196881</ele>
        <time>2020-07-16T22:37:11.504Z</time>
      </trkpt>
      <trkpt lat="62.80347" lon="7.00714">
        <ele>42.578515</ele>
        <time>2020-07-16T22:37:17.210Z</time>
      </trkpt>
      <trkpt lat="62.80392" lon="7.00797">
        <ele>41.459776</ele>
        <time>2020-07-16T22:37:25.563Z</time>
      </trkpt>
      <trkpt lat="62.80467" lon="7.00941">
        <ele>39.050011</ele>
        <time>2020-07-16T22:37:39.416Z</time>
      </trkpt>
      <trkpt lat="62.80571" lon="7.01143">
        <ele>35.048436</ele>
        <time>2020-07-16T22:37:57.896Z</time>
      </trkpt>
      <trkpt lat="62.80599" lon="7.012">
        <ele>33.797169</ele>
        <time>2020-07-16T22:38:02.995Z</time>
      </trkpt>
      <trkpt lat="62.80653" lon="7.01302">
        <ele>31.447987</ele>
        <time>2020-07-16T22:38:12.016Z</time>
      </trkpt>
      <trkpt lat="62.80685" lon="7.01334">
        <ele>30.155518</ele>
        <time>2020-07-16T22:38:16.465Z</time>
      </trkpt>
      <trkpt lat="62.80735" lon="7.01358">
        <ele>28.263905</ele>
        <time>2020-07-16T22:38:23.056Z</time>
      </trkpt>
      <trkpt lat="62.80743" lon="7.01361">
        <ele>27.982008</ele>
        <time>2020-07-16T22:38:23.967Z</time>
      </trkpt>
      <trkpt lat="62.80808" lon="7.0139">
        <ele>25.528987</ele>
        <time>2020-07-16T22:38:32.597Z</time>
      </trkpt>
      <trkpt lat="62.80837" lon="7.01412">
        <ele>24.387797</ele>
        <time>2020-07-16T22:38:36.530Z</time>
      </trkpt>
      <trkpt lat="62.80946" lon="7.01567">
        <ele>19.506602</ele>
        <time>2020-07-16T22:38:53.003Z</time>
      </trkpt>
      <trkpt lat="62.80987" lon="7.01625">
        <ele>17.694191</ele>
        <time>2020-07-16T22:38:59.254Z</time>
      </trkpt>
      <trkpt lat="62.81001" lon="7.01647">
        <ele>17.047605</ele>
        <time>2020-07-16T22:39:01.424Z</time>
      </trkpt>
      <trkpt lat="62.81092" lon="7.01776">
        <ele>13.059133</ele>
        <time>2020-07-16T22:39:15.157Z</time>
      </trkpt>
      <trkpt lat="62.81125" lon="7.01834">
        <ele>11.557384</ele>
        <time>2020-07-16T22:39:20.670Z</time>
      </trkpt>
      <trkpt lat="62.81257" lon="7.02207">
        <ele>5.880244</ele>
        <time>2020-07-16T22:39:49.433Z</time>
      </trkpt>
      <trkpt lat="62.81259" lon="7.02213">
        <ele>5.824761</ele>
        <time>2020-07-16T22:39:49.847Z</time>
      </trkpt>
      <trkpt lat="62.81261" lon="7.02217">
        <ele>5.773126</ele>
        <time>2020-07-16T22:39:50.249Z</time>
      </trkpt>
      <trkpt lat="62.81375" lon="7.02388">
        <ele>3.735185</ele>
        <time>2020-07-16T22:40:11.314Z</time>
      </trkpt>
      <trkpt lat="62.81422" lon="7.02494">
        <ele>3.768274</ele>
        <time>2020-07-16T22:40:23.499Z</time>
      </trkpt>
      <trkpt lat="62.81456" lon="7.02612">
        <ele>3.799347</ele>
        <time>2020-07-16T22:40:35.687Z</time>
      </trkpt>
      <trkpt lat="62.81555" lon="7.03012">
        <ele>4.31125</ele>
        <time>2020-07-16T22:41:14.963Z</time>
      </trkpt>
      <trkpt lat="62.81615" lon="7.03225">
        <ele>4.433819</ele>
        <time>2020-07-16T22:41:35.441Z</time>
      </trkpt>
      <trkpt lat="62.81619" lon="7.03246">
        <ele>4.443586</ele>
        <time>2020-07-16T22:41:37.337Z</time>
      </trkpt>
      <trkpt lat="62.81627" lon="7.03289">
        <ele>4.462757</ele>
        <time>2020-07-16T22:41:41.179Z</time>
      </trkpt>
      <trkpt lat="62.81634" lon="7.03332">
        <ele>4.481379</ele>
        <time>2020-07-16T22:41:44.876Z</time>
      </trkpt>
      <trkpt lat="62.81636" lon="7.03354">
        <ele>4.490622</ele>
        <time>2020-07-16T22:41:46.737Z</time>
      </trkpt>
      <trkpt lat="62.81638" lon="7.03384">
        <ele>4.505311</ele>
        <time>2020-07-16T22:41:49.288Z</time>
      </trkpt>
      <trkpt lat="62.81638" lon="7.03581">
        <ele>4.781214</ele>
        <time>2020-07-16T22:42:05.996Z</time>
      </trkpt>
      <trkpt lat="62.81634" lon="7.03705">
        <ele>4.956047</ele>
        <time>2020-07-16T22:42:16.947Z</time>
      </trkpt>
      <trkpt lat="62.81632" lon="7.03788">
        <ele>5.075089</ele>
        <time>2020-07-16T22:42:24.166Z</time>
      </trkpt>
      <trkpt lat="62.81629" lon="7.04085">
        <ele>5.569044</ele>
        <time>2020-07-16T22:42:50.096Z</time>
      </trkpt>
      <trkpt lat="62.81635" lon="7.04257">
        <ele>6.035282</ele>
        <time>2020-07-16T22:43:04.888Z</time>
      </trkpt>
      <trkpt lat="62.81644" lon="7.04379">
        <ele>6.494147</ele>
        <time>2020-07-16T22:43:15.790Z</time>
      </trkpt>
      <trkpt lat="62.81658" lon="7.04561">
        <ele>7.21719</ele>
        <time>2020-07-16T22:43:33.404Z</time>
      </trkpt>
      <trkpt lat="62.8167" lon="7.04692">
        <ele>9.267714</ele>
        <time>2020-07-16T22:43:48.726Z</time>
      </trkpt>
      <trkpt lat="62.81693" lon="7.048">
        <ele>11.065866</ele>
        <time>2020-07-16T22:44:04.174Z</time>
      </trkpt>
      <trkpt lat="62.81702" lon="7.04851">
        <ele>11.908559</ele>
        <time>2020-07-16T22:44:11.567Z</time>
      </trkpt>
      <trkpt lat="62.81705" lon="7.04867">
        <ele>12.170194</ele>
        <time>2020-07-16T22:44:14.802Z</time>
      </trkpt>
      <trkpt lat="62.81715" lon="7.05002">
        <ele>15.176079</ele>
        <time>2020-07-16T22:44:35.526Z</time>
      </trkpt>
      <trkpt lat="62.81718" lon="7.05132">
        <ele>18.816172</ele>
        <time>2020-07-16T22:44:59.566Z</time>
      </trkpt>
      <trkpt lat="62.81719" lon="7.05211">
        <ele>21.033221</ele>
        <time>2020-07-16T22:45:14.113Z</time>
      </trkpt>
      <trkpt lat="62.81726" lon="7.05332">
        <ele>24.371036</ele>
        <time>2020-07-16T22:45:34.200Z</time>
      </trkpt>
      <trkpt lat="62.8173" lon="7.05369">
        <ele>25.088109</ele>
        <time>2020-07-16T22:45:41.265Z</time>
      </trkpt>
      <trkpt lat="62.81737" lon="7.05437">
        <ele>26.412002</ele>
        <time>2020-07-16T22:45:52.979Z</time>
      </trkpt>
      <trkpt lat="62.81741" lon="7.05496">
        <ele>27.525117</ele>
        <time>2020-07-16T22:46:02.419Z</time>
      </trkpt>
      <trkpt lat="62.81741" lon="7.05643">
        <ele>30.293738</ele>
        <time>2020-07-16T22:46:22.784Z</time>
      </trkpt>
      <trkpt lat="62.8175" lon="7.05739">
        <ele>31.461606</ele>
        <time>2020-07-16T22:46:34.015Z</time>
      </trkpt>
      <trkpt lat="62.81751" lon="7.05766">
        <ele>31.268683</ele>
        <time>2020-07-16T22:46:36.805Z</time>
      </trkpt>
      <trkpt lat="62.81753" lon="7.0579">
        <ele>31.102903</ele>
        <time>2020-07-16T22:46:38.936Z</time>
      </trkpt>
      <trkpt lat="62.81781" lon="7.06331">
        <ele>25.615881</ele>
        <time>2020-07-16T22:47:12.489Z</time>
      </trkpt>
      <trkpt lat="62.81771" lon="7.06415">
        <ele>24.368972</ele>
        <time>2020-07-16T22:47:17.435Z</time>
      </trkpt>
      <trkpt lat="62.81739" lon="7.06512">
        <ele>22.766428</ele>
        <time>2020-07-16T22:47:24.500Z</time>
      </trkpt>
      <trkpt lat="62.8173" lon="7.06538">
        <ele>22.385122</ele>
        <time>2020-07-16T22:47:26.377Z</time>
      </trkpt>
      <trkpt lat="62.81708" lon="7.06594">
        <ele>21.535513</ele>
        <time>2020-07-16T22:47:30.838Z</time>
      </trkpt>
      <trkpt lat="62.8167" lon="7.06722">
        <ele>19.780284</ele>
        <time>2020-07-16T22:47:40.415Z</time>
      </trkpt>
      <trkpt lat="62.81663" lon="7.06753">
        <ele>19.3767</ele>
        <time>2020-07-16T22:47:42.783Z</time>
      </trkpt>
      <trkpt lat="62.81654" lon="7.06798">
        <ele>18.815341</ele>
        <time>2020-07-16T22:47:45.889Z</time>
      </trkpt>
      <trkpt lat="62.81642" lon="7.06901">
        <ele>18.149743</ele>
        <time>2020-07-16T22:47:53.351Z</time>
      </trkpt>
      <trkpt lat="62.81638" lon="7.07067">
        <ele>17.193568</ele>
        <time>2020-07-16T22:48:05.005Z</time>
      </trkpt>
      <trkpt lat="62.81637" lon="7.07091">
        <ele>17.049731</ele>
        <time>2020-07-16T22:48:06.770Z</time>
      </trkpt>
      <trkpt lat="62.81632" lon="7.07132">
        <ele>16.807054</ele>
        <time>2020-07-16T22:48:09.623Z</time>
      </trkpt>
      <trkpt lat="62.81616" lon="7.07218">
        <ele>16.298087</ele>
        <time>2020-07-16T22:48:16.039Z</time>
      </trkpt>
      <trkpt lat="62.81567" lon="7.0734">
        <ele>15.515485</ele>
        <time>2020-07-16T22:48:27.018Z</time>
      </trkpt>
      <trkpt lat="62.81511" lon="7.07551">
        <ele>14.568761</ele>
        <time>2020-07-16T22:48:44.315Z</time>
      </trkpt>
      <trkpt lat="62.8149" lon="7.07851">
        <ele>14.818399</ele>
        <time>2020-07-16T22:49:09.646Z</time>
      </trkpt>
      <trkpt lat="62.81497" lon="7.08033">
        <ele>16.224599</ele>
        <time>2020-07-16T22:49:28.681Z</time>
      </trkpt>
      <trkpt lat="62.81495" lon="7.0813">
        <ele>17.222652</ele>
        <time>2020-07-16T22:49:40.109Z</time>
      </trkpt>
      <trkpt lat="62.81485" lon="7.08209">
        <ele>18.066892</ele>
        <time>2020-07-16T22:49:50.207Z</time>
      </trkpt>
      <trkpt lat="62.81468" lon="7.08286">
        <ele>18.934237</ele>
        <time>2020-07-16T22:50:00.817Z</time>
      </trkpt>
      <trkpt lat="62.81465" lon="7.08336">
        <ele>19.457262</ele>
        <time>2020-07-16T22:50:07.246Z</time>
      </trkpt>
      <trkpt lat="62.81471" lon="7.08385">
        <ele>19.979297</ele>
        <time>2020-07-16T22:50:13.783Z</time>
      </trkpt>
      <trkpt lat="62.81484" lon="7.0843">
        <ele>20.513108</ele>
        <time>2020-07-16T22:50:20.436Z</time>
      </trkpt>
      <trkpt lat="62.81572" lon="7.08687">
        <ele>23.192948</ele>
        <time>2020-07-16T22:50:54.963Z</time>
      </trkpt>
      <trkpt lat="62.81613" lon="7.08787">
        <ele>23.634386</ele>
        <time>2020-07-16T22:51:06.893Z</time>
      </trkpt>
      <trkpt lat="62.8169" lon="7.08953">
        <ele>24.414124</ele>
        <time>2020-07-16T22:51:26.731Z</time>
      </trkpt>
      <trkpt lat="62.81744" lon="7.09126">
        <ele>25.114692</ele>
        <time>2020-07-16T22:51:46.062Z</time>
      </trkpt>
      <trkpt lat="62.81769" lon="7.09218">
        <ele>25.473362</ele>
        <time>2020-07-16T22:51:57.125Z</time>
      </trkpt>
      <trkpt lat="62.81787" lon="7.09314">
        <ele>25.252009</ele>
        <time>2020-07-16T22:52:07.007Z</time>
      </trkpt>
      <trkpt lat="62.81795" lon="7.09467">
        <ele>24.804914</ele>
        <time>2020-07-16T22:52:18.912Z</time>
      </trkpt>
      <trkpt lat="62.81794" lon="7.09544">
        <ele>24.581664</ele>
        <time>2020-07-16T22:52:24.236Z</time>
      </trkpt>
      <trkpt lat="62.81793" lon="7.09676">
        <ele>23.347253</ele>
        <time>2020-07-16T22:52:32.664Z</time>
      </trkpt>
      <trkpt lat="62.81785" lon="7.09922">
        <ele>19.178305</ele>
        <time>2020-07-16T22:52:46.746Z</time>
      </trkpt>
      <trkpt lat="62.81774" lon="7.09968">
        <ele>18.280995</ele>
        <time>2020-07-16T22:52:49.691Z</time>
      </trkpt>
      <trkpt lat="62.81737" lon="7.10013">
        <ele>16.915034</ele>
        <time>2020-07-16T22:52:54.936Z</time>
      </trkpt>
      <trkpt lat="62.81722" lon="7.10029">
        <ele>16.420075</ele>
        <time>2020-07-16T22:52:57.041Z</time>
      </trkpt>
      <trkpt lat="62.81709" lon="7.10048">
        <ele>15.941581</ele>
        <time>2020-07-16T22:52:59.029Z</time>
      </trkpt>
      <trkpt lat="62.81657" lon="7.10135">
        <ele>13.964755</ele>
        <time>2020-07-16T22:53:07.643Z</time>
      </trkpt>
      <trkpt lat="62.81624" lon="7.10171">
        <ele>12.850927</ele>
        <time>2020-07-16T22:53:12.724Z</time>
      </trkpt>
      <trkpt lat="62.81598" lon="7.10178">
        <ele>12.302236</ele>
        <time>2020-07-16T22:53:16.391Z</time>
      </trkpt>
      <trkpt lat="62.8155" lon="7.10162">
        <ele>12.44006</ele>
        <time>2020-07-16T22:53:23.923Z</time>
      </trkpt>
      <trkpt lat="62.81537" lon="7.10157">
        <ele>12.476543</ele>
        <time>2020-07-16T22:53:26.071Z</time>
      </trkpt>
      <trkpt lat="62.81524" lon="7.10152">
        <ele>12.515038</ele>
        <time>2020-07-16T22:53:28.966Z</time>
      </trkpt>
      <trkpt lat="62.8144" lon="7.10131">
        <ele>12.753464</ele>
        <time>2020-07-16T22:53:46.430Z</time>
      </trkpt>
      <trkpt lat="62.81395" lon="7.10085">
        <ele>13.849754</ele>
        <time>2020-07-16T22:53:58.801Z</time>
      </trkpt>
      <trkpt lat="62.8139" lon="7.10087">
        <ele>13.982418</ele>
        <time>2020-07-16T22:54:00.279Z</time>
      </trkpt>
      <trkpt lat="62.81388" lon="7.10089">
        <ele>14.066021</ele>
        <time>2020-07-16T22:54:00.978Z</time>
      </trkpt>
      <trkpt lat="62.81379" lon="7.10107">
        <ele>14.406608</ele>
        <time>2020-07-16T22:54:04.293Z</time>
      </trkpt>
      <trkpt lat="62.81356" lon="7.10149">
        <ele>15.288932</ele>
        <time>2020-07-16T22:54:12.943Z</time>
      </trkpt>
      <trkpt lat="62.8135" lon="7.10161">
        <ele>15.513245</ele>
        <time>2020-07-16T22:54:14.738Z</time>
      </trkpt>
      <trkpt lat="62.81349" lon="7.10163">
        <ele>15.550505</ele>
        <time>2020-07-16T22:54:15.094Z</time>
      </trkpt>
      <trkpt lat="62.81338" lon="7.10184">
        <ele>15.973245</ele>
        <time>2020-07-16T22:54:19.251Z</time>
      </trkpt>
      <trkpt lat="62.81301" lon="7.10256">
        <ele>17.427247</ele>
        <time>2020-07-16T22:54:33.802Z</time>
      </trkpt>
      <trkpt lat="62.81275" lon="7.1029">
        <ele>18.319538</ele>
        <time>2020-07-16T22:54:42.106Z</time>
      </trkpt>
      <trkpt lat="62.81272" lon="7.10292">
        <ele>18.433368</ele>
        <time>2020-07-16T22:54:43.678Z</time>
      </trkpt>
      <trkpt lat="62.81268" lon="7.10293">
        <ele>18.547487</ele>
        <time>2020-07-16T22:54:44.570Z</time>
      </trkpt>
      <trkpt lat="62.81269" lon="7.10318">
        <ele>18.91084</ele>
        <time>2020-07-16T22:54:47.682Z</time>
      </trkpt>
      <trkpt lat="62.81288" lon="7.10727">
        <ele>24.816074</ele>
        <time>2020-07-16T22:55:39.995Z</time>
      </trkpt>
      <trkpt lat="62.81303" lon="7.11058">
        <ele>29.323625</ele>
        <time>2020-07-16T22:56:21.154Z</time>
      </trkpt>
      <trkpt lat="62.81308" lon="7.11161">
        <ele>30.71485</ele>
        <time>2020-07-16T22:56:34.329Z</time>
      </trkpt>
      <trkpt lat="62.81313" lon="7.11271">
        <ele>32.180993</ele>
        <time>2020-07-16T22:56:48.708Z</time>
      </trkpt>
      <trkpt lat="62.81323" lon="7.11493">
        <ele>34.71769</ele>
        <time>2020-07-16T22:57:15.837Z</time>
      </trkpt>
      <trkpt lat="62.81328" lon="7.11579">
        <ele>35.249903</ele>
        <time>2020-07-16T22:57:25.505Z</time>
      </trkpt>
      <trkpt lat="62.81332" lon="7.1164">
        <ele>35.627493</ele>
        <time>2020-07-16T22:57:31.781Z</time>
      </trkpt>
      <trkpt lat="62.81361" lon="7.11894">
        <ele>36.742776</ele>
        <time>2020-07-16T22:57:55.188Z</time>
      </trkpt>
      <trkpt lat="62.81396" lon="7.12181">
        <ele>36.693972</ele>
        <time>2020-07-16T22:58:18.102Z</time>
      </trkpt>
      <trkpt lat="62.81398" lon="7.12196">
        <ele>36.691507</ele>
        <time>2020-07-16T22:58:19.341Z</time>
      </trkpt>
      <trkpt lat="62.81431" lon="7.12464">
        <ele>37.342616</ele>
        <time>2020-07-16T22:58:42.742Z</time>
      </trkpt>
      <trkpt lat="62.81486" lon="7.12907">
        <ele>40.57148</ele>
        <time>2020-07-16T22:59:29.657Z</time>
      </trkpt>
      <trkpt lat="62.81496" lon="7.12983">
        <ele>41.613142</ele>
        <time>2020-07-16T22:59:40.241Z</time>
      </trkpt>
      <trkpt lat="62.815" lon="7.13008">
        <ele>42.243037</ele>
        <time>2020-07-16T22:59:44.286Z</time>
      </trkpt>
      <trkpt lat="62.81509" lon="7.13058">
        <ele>43.496349</ele>
        <time>2020-07-16T22:59:51.740Z</time>
      </trkpt>
      <trkpt lat="62.81518" lon="7.13097">
        <ele>44.517556</ele>
        <time>2020-07-16T22:59:58.184Z</time>
      </trkpt>
      <trkpt lat="62.81528" lon="7.13135">
        <ele>45.525526</ele>
        <time>2020-07-16T23:00:05.070Z</time>
      </trkpt>
      <trkpt lat="62.81605" lon="7.13378">
        <ele>52.654215</ele>
        <time>2020-07-16T23:00:56.080Z</time>
      </trkpt>
      <trkpt lat="62.81625" lon="7.13501">
        <ele>56.060174</ele>
        <time>2020-07-16T23:01:18.401Z</time>
      </trkpt>
      <trkpt lat="62.81638" lon="7.13676">
        <ele>60.576994</ele>
        <time>2020-07-16T23:01:46.636Z</time>
      </trkpt>
      <trkpt lat="62.8165" lon="7.13772">
        <ele>62.332036</ele>
        <time>2020-07-16T23:02:01.840Z</time>
      </trkpt>
      <trkpt lat="62.81723" lon="7.14039">
        <ele>67.456679</ele>
        <time>2020-07-16T23:02:42.928Z</time>
      </trkpt>
      <trkpt lat="62.81738" lon="7.14113">
        <ele>67.824394</ele>
        <time>2020-07-16T23:02:52.208Z</time>
      </trkpt>
      <trkpt lat="62.81749" lon="7.1422">
        <ele>68.318867</ele>
        <time>2020-07-16T23:03:04.168Z</time>
      </trkpt>
      <trkpt lat="62.81789" lon="7.1483">
        <ele>65.823989</ele>
        <time>2020-07-16T23:03:49.319Z</time>
      </trkpt>
      <trkpt lat="62.81789" lon="7.14882">
        <ele>64.332621</ele>
        <time>2020-07-16T23:03:52.100Z</time>
      </trkpt>
      <trkpt lat="62.8178" lon="7.14967">
        <ele>61.777575</ele>
        <time>2020-07-16T23:03:56.755Z</time>
      </trkpt>
      <trkpt lat="62.81753" lon="7.15059">
        <ele>58.568416</ele>
        <time>2020-07-16T23:04:02.436Z</time>
      </trkpt>
      <trkpt lat="62.8173" lon="7.15099">
        <ele>56.717857</ele>
        <time>2020-07-16T23:04:05.653Z</time>
      </trkpt>
      <trkpt lat="62.81699" lon="7.15135">
        <ele>54.187345</ele>
        <time>2020-07-16T23:04:09.514Z</time>
      </trkpt>
      <trkpt lat="62.8165" lon="7.15155">
        <ele>50.206065</ele>
        <time>2020-07-16T23:04:15.030Z</time>
      </trkpt>
      <trkpt lat="62.81531" lon="7.15168">
        <ele>41.00486</ele>
        <time>2020-07-16T23:04:28.605Z</time>
      </trkpt>
      <trkpt lat="62.81526" lon="7.15168">
        <ele>40.790835</ele>
        <time>2020-07-16T23:04:29.123Z</time>
      </trkpt>
      <trkpt lat="62.81489" lon="7.1518">
        <ele>38.95714</ele>
        <time>2020-07-16T23:04:33.636Z</time>
      </trkpt>
      <trkpt lat="62.81461" lon="7.15194">
        <ele>37.566689</ele>
        <time>2020-07-16T23:04:37.072Z</time>
      </trkpt>
      <trkpt lat="62.81462" lon="7.1518">
        <ele>37.262657</ele>
        <time>2020-07-16T23:04:38.187Z</time>
      </trkpt>
      <trkpt lat="62.81419" lon="7.15206">
        <ele>35.104396</ele>
        <time>2020-07-16T23:04:44.001Z</time>
      </trkpt>
      <trkpt lat="62.81398" lon="7.15218">
        <ele>34.033165</ele>
        <time>2020-07-16T23:04:46.895Z</time>
      </trkpt>
      <trkpt lat="62.812" lon="7.15336">
        <ele>26.331147</ele>
        <time>2020-07-16T23:05:14.493Z</time>
      </trkpt>
      <trkpt lat="62.81191" lon="7.15342">
        <ele>26.074789</ele>
        <time>2020-07-16T23:05:15.726Z</time>
      </trkpt>
      <trkpt lat="62.81182" lon="7.15347">
        <ele>25.875049</ele>
        <time>2020-07-16T23:05:16.917Z</time>
      </trkpt>
      <trkpt lat="62.81095" lon="7.15399">
        <ele>23.835889</ele>
        <time>2020-07-16T23:05:29.986Z</time>
      </trkpt>
      <trkpt lat="62.81084" lon="7.15405">
        <ele>23.597369</ele>
        <time>2020-07-16T23:05:31.378Z</time>
      </trkpt>
      <trkpt lat="62.81077" lon="7.1541">
        <ele>23.41502</ele>
        <time>2020-07-16T23:05:32.602Z</time>
      </trkpt>
      <trkpt lat="62.80981" lon="7.15487">
        <ele>21.669085</ele>
        <time>2020-07-16T23:05:48.955Z</time>
      </trkpt>
      <trkpt lat="62.80912" lon="7.15559">
        <ele>20.839794</ele>
        <time>2020-07-16T23:06:01.678Z</time>
      </trkpt>
      <trkpt lat="62.80865" lon="7.15616">
        <ele>20.25325</ele>
        <time>2020-07-16T23:06:10.513Z</time>
      </trkpt>
      <trkpt lat="62.8085" lon="7.15636">
        <ele>19.917586</ele>
        <time>2020-07-16T23:06:13.219Z</time>
      </trkpt>
      <trkpt lat="62.80791" lon="7.15723">
        <ele>18.487182</ele>
        <time>2020-07-16T23:06:23.654Z</time>
      </trkpt>
      <trkpt lat="62.80723" lon="7.15852">
        <ele>16.678723</ele>
        <time>2020-07-16T23:06:36.544Z</time>
      </trkpt>
      <trkpt lat="62.80711" lon="7.15878">
        <ele>16.370492</ele>
        <time>2020-07-16T23:06:39.061Z</time>
      </trkpt>
      <trkpt lat="62.80705" lon="7.15891">
        <ele>16.234791</ele>
        <time>2020-07-16T23:06:40.165Z</time>
      </trkpt>
      <trkpt lat="62.80577" lon="7.16184">
        <ele>13.257095</ele>
        <time>2020-07-16T23:07:08.626Z</time>
      </trkpt>
      <trkpt lat="62.80565" lon="7.16209">
        <ele>13.10104</ele>
        <time>2020-07-16T23:07:11.311Z</time>
      </trkpt>
      <trkpt lat="62.80561" lon="7.1622">
        <ele>13.038651</ele>
        <time>2020-07-16T23:07:12.291Z</time>
      </trkpt>
      <trkpt lat="62.80509" lon="7.16348">
        <ele>12.275943</ele>
        <time>2020-07-16T23:07:25.217Z</time>
      </trkpt>
      <trkpt lat="62.80483" lon="7.16426">
        <ele>11.848177</ele>
        <time>2020-07-16T23:07:32.573Z</time>
      </trkpt>
      <trkpt lat="62.80476" lon="7.16454">
        <ele>11.737504</ele>
        <time>2020-07-16T23:07:35.087Z</time>
      </trkpt>
      <trkpt lat="62.80471" lon="7.16471">
        <ele>11.692765</ele>
        <time>2020-07-16T23:07:36.441Z</time>
      </trkpt>
      <trkpt lat="62.80347" lon="7.17089">
        <ele>10.780832</ele>
        <time>2020-07-16T23:08:29.912Z</time>
      </trkpt>
      <trkpt lat="62.80347" lon="7.17095">
        <ele>10.77935</ele>
        <time>2020-07-16T23:08:30.479Z</time>
      </trkpt>
      <trkpt lat="62.80343" lon="7.17118">
        <ele>10.77361</ele>
        <time>2020-07-16T23:08:32.514Z</time>
      </trkpt>
      <trkpt lat="62.80339" lon="7.17145">
        <ele>10.766811</ele>
        <time>2020-07-16T23:08:35.236Z</time>
      </trkpt>
      <trkpt lat="62.80337" lon="7.17159">
        <ele>10.763282</ele>
        <time>2020-07-16T23:08:36.580Z</time>
      </trkpt>
      <trkpt lat="62.80336" lon="7.17166">
        <ele>10.817721</ele>
        <time>2020-07-16T23:08:37.268Z</time>
      </trkpt>
      <trkpt lat="62.80343" lon="7.17175">
        <ele>11.073521</ele>
        <time>2020-07-16T23:08:39.426Z</time>
      </trkpt>
      <trkpt lat="62.80339" lon="7.17207">
        <ele>11.563044</ele>
        <time>2020-07-16T23:08:43.489Z</time>
      </trkpt>
      <trkpt lat="62.80331" lon="7.17318">
        <ele>13.213079</ele>
        <time>2020-07-16T23:08:56.041Z</time>
      </trkpt>
      <trkpt lat="62.8032" lon="7.17476">
        <ele>15.541598</ele>
        <time>2020-07-16T23:09:17.699Z</time>
      </trkpt>
      <trkpt lat="62.80319" lon="7.17502">
        <ele>15.935389</ele>
        <time>2020-07-16T23:09:22.396Z</time>
      </trkpt>
      <trkpt lat="62.80309" lon="7.17644">
        <ele>19.169324</ele>
        <time>2020-07-16T23:09:45.379Z</time>
      </trkpt>
      <trkpt lat="62.8029" lon="7.17919">
        <ele>26.273885</ele>
        <time>2020-07-16T23:10:32.785Z</time>
      </trkpt>
      <trkpt lat="62.80287" lon="7.17981">
        <ele>27.392583</ele>
        <time>2020-07-16T23:10:42.635Z</time>
      </trkpt>
      <trkpt lat="62.80271" lon="7.18186">
        <ele>30.708864</ele>
        <time>2020-07-16T23:11:12.030Z</time>
      </trkpt>
      <trkpt lat="62.80263" lon="7.18417">
        <ele>33.004252</ele>
        <time>2020-07-16T23:11:36.474Z</time>
      </trkpt>
      <trkpt lat="62.80263" lon="7.18461">
        <ele>33.063459</ele>
        <time>2020-07-16T23:11:40.511Z</time>
      </trkpt>
      <trkpt lat="62.80263" lon="7.18527">
        <ele>33.153354</ele>
        <time>2020-07-16T23:11:46.136Z</time>
      </trkpt>
      <trkpt lat="62.80263" lon="7.18624">
        <ele>33.286086</ele>
        <time>2020-07-16T23:11:53.980Z</time>
      </trkpt>
      <trkpt lat="62.80263" lon="7.18641">
        <ele>33.308611</ele>
        <time>2020-07-16T23:11:55.202Z</time>
      </trkpt>
      <trkpt lat="62.80262" lon="7.1866">
        <ele>33.334844</ele>
        <time>2020-07-16T23:11:56.636Z</time>
      </trkpt>
      <trkpt lat="62.80262" lon="7.18825">
        <ele>32.499853</ele>
        <time>2020-07-16T23:12:08.399Z</time>
      </trkpt>
      <trkpt lat="62.80263" lon="7.18911">
        <ele>31.790496</ele>
        <time>2020-07-16T23:12:14.077Z</time>
      </trkpt>
      <trkpt lat="62.80263" lon="7.19044">
        <ele>30.699919</ele>
        <time>2020-07-16T23:12:22.532Z</time>
      </trkpt>
      <trkpt lat="62.80263" lon="7.19089">
        <ele>30.334042</ele>
        <time>2020-07-16T23:12:25.366Z</time>
      </trkpt>
      <trkpt lat="62.80264" lon="7.19113">
        <ele>30.106987</ele>
        <time>2020-07-16T23:12:26.939Z</time>
      </trkpt>
      <trkpt lat="62.80265" lon="7.19127">
        <ele>29.912004</ele>
        <time>2020-07-16T23:12:27.704Z</time>
      </trkpt>
      <trkpt lat="62.80272" lon="7.19276">
        <ele>27.840976</ele>
        <time>2020-07-16T23:12:36.903Z</time>
      </trkpt>
      <trkpt lat="62.80287" lon="7.19457">
        <ele>25.299901</ele>
        <time>2020-07-16T23:12:47.770Z</time>
      </trkpt>
      <trkpt lat="62.80328" lon="7.19761">
        <ele>21.339587</ele>
        <time>2020-07-16T23:13:07.074Z</time>
      </trkpt>
      <trkpt lat="62.80372" lon="7.20057">
        <ele>18.649656</ele>
        <time>2020-07-16T23:13:27.010Z</time>
      </trkpt>
      <trkpt lat="62.80381" lon="7.20121">
        <ele>18.216117</ele>
        <time>2020-07-16T23:13:31.582Z</time>
      </trkpt>
      <trkpt lat="62.80529" lon="7.21091">
        <ele>15.931112</ele>
        <time>2020-07-16T23:14:49.484Z</time>
      </trkpt>
      <trkpt lat="62.80546" lon="7.21204">
        <ele>16.034755</ele>
        <time>2020-07-16T23:14:59.980Z</time>
      </trkpt>
      <trkpt lat="62.80562" lon="7.2131">
        <ele>16.130818</ele>
        <time>2020-07-16T23:15:09.898Z</time>
      </trkpt>
      <trkpt lat="62.80583" lon="7.21493">
        <ele>15.910783</ele>
        <time>2020-07-16T23:15:26.390Z</time>
      </trkpt>
      <trkpt lat="62.80599" lon="7.21707">
        <ele>15.449007</ele>
        <time>2020-07-16T23:15:42.462Z</time>
      </trkpt>
      <trkpt lat="62.806" lon="7.21737">
        <ele>15.386133</ele>
        <time>2020-07-16T23:15:44.492Z</time>
      </trkpt>
      <trkpt lat="62.80603" lon="7.21826">
        <ele>14.774641</ele>
        <time>2020-07-16T23:15:50.539Z</time>
      </trkpt>
      <trkpt lat="62.80604" lon="7.21981">
        <ele>13.528896</ele>
        <time>2020-07-16T23:16:00.703Z</time>
      </trkpt>
      <trkpt lat="62.80598" lon="7.22124">
        <ele>12.382566</ele>
        <time>2020-07-16T23:16:09.786Z</time>
      </trkpt>
      <trkpt lat="62.80589" lon="7.22257">
        <ele>11.651938</ele>
        <time>2020-07-16T23:16:18.633Z</time>
      </trkpt>
      <trkpt lat="62.80575" lon="7.2238">
        <ele>11.037082</ele>
        <time>2020-07-16T23:16:27.420Z</time>
      </trkpt>
      <trkpt lat="62.80565" lon="7.2244">
        <ele>10.728358</ele>
        <time>2020-07-16T23:16:32.026Z</time>
      </trkpt>
      <trkpt lat="62.80558" lon="7.22477">
        <ele>10.532102</ele>
        <time>2020-07-16T23:16:35.037Z</time>
      </trkpt>
      <trkpt lat="62.80548" lon="7.22518">
        <ele>10.308753</ele>
        <time>2020-07-16T23:16:38.646Z</time>
      </trkpt>
      <trkpt lat="62.80505" lon="7.22656">
        <ele>11.773484</ele>
        <time>2020-07-16T23:16:52.867Z</time>
      </trkpt>
      <trkpt lat="62.80426" lon="7.22814">
        <ele>13.946006</ele>
        <time>2020-07-16T23:17:22.541Z</time>
      </trkpt>
      <trkpt lat="62.80394" lon="7.22872">
        <ele>16.063572</ele>
        <time>2020-07-16T23:17:36.362Z</time>
      </trkpt>
      <trkpt lat="62.80382" lon="7.22895">
        <ele>16.858787</ele>
        <time>2020-07-16T23:17:41.466Z</time>
      </trkpt>
      <trkpt lat="62.80375" lon="7.22909">
        <ele>17.333092</ele>
        <time>2020-07-16T23:17:44.252Z</time>
      </trkpt>
      <trkpt lat="62.80363" lon="7.22931">
        <ele>18.123991</ele>
        <time>2020-07-16T23:17:50.425Z</time>
      </trkpt>
      <trkpt lat="62.80296" lon="7.23064">
        <ele>22.658812</ele>
        <time>2020-07-16T23:18:22.160Z</time>
      </trkpt>
      <trkpt lat="62.80273" lon="7.23143">
        <ele>24.784184</ele>
        <time>2020-07-16T23:18:38.257Z</time>
      </trkpt>
      <trkpt lat="62.80262" lon="7.2321">
        <ele>26.387599</ele>
        <time>2020-07-16T23:18:49.677Z</time>
      </trkpt>
      <trkpt lat="62.80256" lon="7.23303">
        <ele>28.528574</ele>
        <time>2020-07-16T23:19:03.540Z</time>
      </trkpt>
      <trkpt lat="62.80263" lon="7.2358">
        <ele>33.339613</ele>
        <time>2020-07-16T23:19:44.943Z</time>
      </trkpt>
      <trkpt lat="62.80261" lon="7.23695">
        <ele>34.636646</ele>
        <time>2020-07-16T23:19:57.795Z</time>
      </trkpt>
      <trkpt lat="62.80257" lon="7.23738">
        <ele>35.133798</ele>
        <time>2020-07-16T23:20:03.140Z</time>
      </trkpt>
      <trkpt lat="62.80261" lon="7.23744">
        <ele>35.250347</ele>
        <time>2020-07-16T23:20:03.872Z</time>
      </trkpt>
      <trkpt lat="62.80287" lon="7.23786">
        <ele>36.057662</ele>
        <time>2020-07-16T23:20:11.196Z</time>
      </trkpt>
      <trkpt lat="62.80291" lon="7.23791">
        <ele>36.156142</ele>
        <time>2020-07-16T23:20:11.785Z</time>
      </trkpt>
      <trkpt lat="62.80294" lon="7.23799">
        <ele>36.285161</ele>
        <time>2020-07-16T23:20:12.765Z</time>
      </trkpt>
      <trkpt lat="62.80315" lon="7.23832">
        <ele>36.181003</ele>
        <time>2020-07-16T23:20:17.957Z</time>
      </trkpt>
      <trkpt lat="62.80494" lon="7.24107">
        <ele>37.200456</ele>
        <time>2020-07-16T23:20:53.450Z</time>
      </trkpt>
      <trkpt lat="62.80581" lon="7.2423">
        <ele>40.349466</ele>
        <time>2020-07-16T23:21:26.144Z</time>
      </trkpt>
      <trkpt lat="62.80585" lon="7.24259">
        <ele>40.819216</ele>
        <time>2020-07-16T23:21:31.748Z</time>
      </trkpt>
      <trkpt lat="62.80588" lon="7.24406">
        <ele>46.071637</ele>
        <time>2020-07-16T23:22:05.614Z</time>
      </trkpt>
      <trkpt lat="62.80601" lon="7.24478">
        <ele>48.856382</ele>
        <time>2020-07-16T23:22:22.905Z</time>
      </trkpt>
      <trkpt lat="62.80622" lon="7.24552">
        <ele>51.985766</ele>
        <time>2020-07-16T23:22:40.667Z</time>
      </trkpt>
      <trkpt lat="62.80635" lon="7.2459">
        <ele>53.648929</ele>
        <time>2020-07-16T23:22:49.927Z</time>
      </trkpt>
      <trkpt lat="62.80637" lon="7.24588">
        <ele>53.777965</ele>
        <time>2020-07-16T23:22:50.877Z</time>
      </trkpt>
      <trkpt lat="62.80642" lon="7.24591">
        <ele>54.226623</ele>
        <time>2020-07-16T23:22:52.738Z</time>
      </trkpt>
      <trkpt lat="62.80659" lon="7.24633">
        <ele>55.192826</ele>
        <time>2020-07-16T23:23:01.685Z</time>
      </trkpt>
      <trkpt lat="62.80664" lon="7.24648">
        <ele>55.375237</ele>
        <time>2020-07-16T23:23:04.975Z</time>
      </trkpt>
      <trkpt lat="62.80669" lon="7.24669">
        <ele>55.617146</ele>
        <time>2020-07-16T23:23:08.209Z</time>
      </trkpt>
      <trkpt lat="62.80671" lon="7.24674">
        <ele>55.679214</ele>
        <time>2020-07-16T23:23:08.825Z</time>
      </trkpt>
      <trkpt lat="62.80678" lon="7.2468">
        <ele>55.845069</ele>
        <time>2020-07-16T23:23:11.357Z</time>
      </trkpt>
      <trkpt lat="62.80705" lon="7.24671">
        <ele>56.437092</ele>
        <time>2020-07-16T23:23:19.279Z</time>
      </trkpt>
      <trkpt lat="62.80731" lon="7.24667">
        <ele>57.006448</ele>
        <time>2020-07-16T23:23:26.407Z</time>
      </trkpt>
      <trkpt lat="62.80785" lon="7.24659">
        <ele>58.173442</ele>
        <time>2020-07-16T23:23:35.553Z</time>
      </trkpt>
      <trkpt lat="62.80975" lon="7.24604">
        <ele>57.055581</ele>
        <time>2020-07-16T23:24:03.667Z</time>
      </trkpt>
      <trkpt lat="62.8101" lon="7.24592">
        <ele>57.265661</ele>
        <time>2020-07-16T23:24:11.122Z</time>
      </trkpt>
      <trkpt lat="62.81012" lon="7.24601">
        <ele>57.325331</ele>
        <time>2020-07-16T23:24:12.572Z</time>
      </trkpt>
      <trkpt lat="62.81021" lon="7.24622">
        <ele>57.509128</ele>
        <time>2020-07-16T23:24:14.859Z</time>
      </trkpt>
      <trkpt lat="62.81024" lon="7.24626">
        <ele>57.563396</ele>
        <time>2020-07-16T23:24:16.148Z</time>
      </trkpt>
      <trkpt lat="62.8104" lon="7.24633">
        <ele>57.789658</ele>
        <time>2020-07-16T23:24:19.966Z</time>
      </trkpt>
      <trkpt lat="62.81093" lon="7.24652">
        <ele>58.546654</ele>
        <time>2020-07-16T23:24:33.092Z</time>
      </trkpt>
      <trkpt lat="62.81139" lon="7.24649">
        <ele>59.190154</ele>
        <time>2020-07-16T23:24:45.082Z</time>
      </trkpt>
      <trkpt lat="62.81239" lon="7.24601">
        <ele>59.923401</ele>
        <time>2020-07-16T23:25:08.891Z</time>
      </trkpt>
      <trkpt lat="62.81322" lon="7.24526">
        <ele>60.415847</ele>
        <time>2020-07-16T23:25:24.882Z</time>
      </trkpt>
      <trkpt lat="62.81375" lon="7.2447">
        <ele>60.038575</ele>
        <time>2020-07-16T23:25:34.725Z</time>
      </trkpt>
      <trkpt lat="62.8142" lon="7.24408">
        <ele>59.607481</ele>
        <time>2020-07-16T23:25:43.430Z</time>
      </trkpt>
      <trkpt lat="62.81667" lon="7.24031">
        <ele>57.322473</ele>
        <time>2020-07-16T23:26:32.755Z</time>
      </trkpt>
      <trkpt lat="62.81673" lon="7.24028">
        <ele>57.315044</ele>
        <time>2020-07-16T23:26:33.888Z</time>
      </trkpt>
      <trkpt lat="62.81671" lon="7.2401">
        <ele>57.304446</ele>
        <time>2020-07-16T23:26:35.318Z</time>
      </trkpt>
      <trkpt lat="62.81674" lon="7.23954">
        <ele>57.272546</ele>
        <time>2020-07-16T23:26:39.993Z</time>
      </trkpt>
      <trkpt lat="62.81676" lon="7.2395">
        <ele>57.269081</ele>
        <time>2020-07-16T23:26:40.462Z</time>
      </trkpt>
      <trkpt lat="62.81672" lon="7.23934">
        <ele>57.258722</ele>
        <time>2020-07-16T23:26:41.930Z</time>
      </trkpt>
      <trkpt lat="62.81666" lon="7.23913">
        <ele>57.244537</ele>
        <time>2020-07-16T23:26:44.074Z</time>
      </trkpt>
      <trkpt lat="62.81661" lon="7.23896">
        <ele>57.233494</ele>
        <time>2020-07-16T23:26:45.656Z</time>
      </trkpt>
      <trkpt lat="62.8169" lon="7.2387">
        <ele>57.19467</ele>
        <time>2020-07-16T23:26:51.681Z</time>
      </trkpt>
      <trkpt lat="62.81824" lon="7.23747">
        <ele>57.886438</ele>
        <time>2020-07-16T23:27:22.017Z</time>
      </trkpt>
      <trkpt lat="62.81898" lon="7.23709">
        <ele>58.334562</ele>
        <time>2020-07-16T23:27:37.709Z</time>
      </trkpt>
      <trkpt lat="62.81956" lon="7.23693">
        <ele>58.518504</ele>
        <time>2020-07-16T23:27:49.536Z</time>
      </trkpt>
      <trkpt lat="62.81984" lon="7.23689">
        <ele>58.605104</ele>
        <time>2020-07-16T23:27:54.948Z</time>
      </trkpt>
      <trkpt lat="62.82015" lon="7.23687">
        <ele>58.701089</ele>
        <time>2020-07-16T23:28:00.863Z</time>
      </trkpt>
      <trkpt lat="62.82074" lon="7.23701">
        <ele>58.851291</ele>
        <time>2020-07-16T23:28:12.025Z</time>
      </trkpt>
      <trkpt lat="62.82184" lon="7.23758">
        <ele>58.689543</ele>
        <time>2020-07-16T23:28:32.977Z</time>
      </trkpt>
      <trkpt lat="62.82238" lon="7.23759">
        <ele>58.612861</ele>
        <time>2020-07-16T23:28:42.584Z</time>
      </trkpt>
      <trkpt lat="62.82257" lon="7.23753">
        <ele>58.448359</ele>
        <time>2020-07-16T23:28:46.137Z</time>
      </trkpt>
      <trkpt lat="62.8227" lon="7.2375">
        <ele>58.308778</ele>
        <time>2020-07-16T23:28:48.390Z</time>
      </trkpt>
      <trkpt lat="62.82609" lon="7.23638">
        <ele>53.369331</ele>
        <time>2020-07-16T23:29:42.250Z</time>
      </trkpt>
      <trkpt lat="62.82631" lon="7.2363">
        <ele>52.42192</ele>
        <time>2020-07-16T23:29:45.206Z</time>
      </trkpt>
      <trkpt lat="62.8277" lon="7.23583">
        <ele>46.354454</ele>
        <time>2020-07-16T23:30:03.220Z</time>
      </trkpt>
      <trkpt lat="62.82872" lon="7.23549">
        <ele>40.883557</ele>
        <time>2020-07-16T23:30:16.068Z</time>
      </trkpt>
      <trkpt lat="62.82889" lon="7.23543">
        <ele>39.935772</ele>
        <time>2020-07-16T23:30:18.255Z</time>
      </trkpt>
      <trkpt lat="62.82917" lon="7.23534">
        <ele>38.423669</ele>
        <time>2020-07-16T23:30:21.788Z</time>
      </trkpt>
      <trkpt lat="62.8293" lon="7.23529">
        <ele>37.715867</ele>
        <time>2020-07-16T23:30:23.436Z</time>
      </trkpt>
      <trkpt lat="62.82997" lon="7.23508">
        <ele>34.368737</ele>
        <time>2020-07-16T23:30:32.078Z</time>
      </trkpt>
      <trkpt lat="62.83031" lon="7.23499">
        <ele>32.803394</ele>
        <time>2020-07-16T23:30:36.401Z</time>
      </trkpt>
      <trkpt lat="62.83093" lon="7.23478">
        <ele>29.887288</ele>
        <time>2020-07-16T23:30:44.552Z</time>
      </trkpt>
      <trkpt lat="62.83128" lon="7.23466">
        <ele>28.260115</ele>
        <time>2020-07-16T23:30:49.064Z</time>
      </trkpt>
      <trkpt lat="62.83159" lon="7.23456">
        <ele>27.469985</ele>
        <time>2020-07-16T23:30:53.199Z</time>
      </trkpt>
      <trkpt lat="62.83218" lon="7.23449">
        <ele>26.232617</ele>
        <time>2020-07-16T23:31:01.282Z</time>
      </trkpt>
      <trkpt lat="62.83228" lon="7.2345">
        <ele>26.00654</ele>
        <time>2020-07-16T23:31:02.690Z</time>
      </trkpt>
      <trkpt lat="62.83255" lon="7.23452">
        <ele>25.450657</ele>
        <time>2020-07-16T23:31:06.579Z</time>
      </trkpt>
      <trkpt lat="62.8326" lon="7.23452">
        <ele>25.33448</ele>
        <time>2020-07-16T23:31:07.305Z</time>
      </trkpt>
      <trkpt lat="62.83273" lon="7.23453">
        <ele>25.053498</ele>
        <time>2020-07-16T23:31:09.298Z</time>
      </trkpt>
      <trkpt lat="62.83282" lon="7.23453">
        <ele>24.882445</ele>
        <time>2020-07-16T23:31:11.483Z</time>
      </trkpt>
      <trkpt lat="62.83413" lon="7.23464">
        <ele>26.7751</ele>
        <time>2020-07-16T23:31:40.900Z</time>
      </trkpt>
      <trkpt lat="62.83421" lon="7.23466">
        <ele>26.973509</ele>
        <time>2020-07-16T23:31:43.600Z</time>
      </trkpt>
      <trkpt lat="62.83426" lon="7.23467">
        <ele>27.078988</ele>
        <time>2020-07-16T23:31:45.878Z</time>
      </trkpt>
      <trkpt lat="62.83485" lon="7.23505">
        <ele>28.627787</ele>
        <time>2020-07-16T23:32:04.570Z</time>
      </trkpt>
      <trkpt lat="62.83493" lon="7.23513">
        <ele>28.886243</ele>
        <time>2020-07-16T23:32:08.354Z</time>
      </trkpt>
      <trkpt lat="62.835" lon="7.23521">
        <ele>29.189946</ele>
        <time>2020-07-16T23:32:11.628Z</time>
      </trkpt>
      <trkpt lat="62.83514" lon="7.23549">
        <ele>29.877282</ele>
        <time>2020-07-16T23:32:16.449Z</time>
      </trkpt>
      <trkpt lat="62.83554" lon="7.23589">
        <ele>31.457235</ele>
        <time>2020-07-16T23:32:31.906Z</time>
      </trkpt>
      <trkpt lat="62.83589" lon="7.23614">
        <ele>32.779675</ele>
        <time>2020-07-16T23:32:43.469Z</time>
      </trkpt>
      <trkpt lat="62.83609" lon="7.23617">
        <ele>33.536031</ele>
        <time>2020-07-16T23:32:49.727Z</time>
      </trkpt>
      <trkpt lat="62.83633" lon="7.23649">
        <ele>34.546616</ele>
        <time>2020-07-16T23:32:58.559Z</time>
      </trkpt>
      <trkpt lat="62.83726" lon="7.2371">
        <ele>35.111784</ele>
        <time>2020-07-16T23:33:18.616Z</time>
      </trkpt>
      <trkpt lat="62.83736" lon="7.23709">
        <ele>35.09415</ele>
        <time>2020-07-16T23:33:20.750Z</time>
      </trkpt>
      <trkpt lat="62.8374" lon="7.23705">
        <ele>35.085768</ele>
        <time>2020-07-16T23:33:21.472Z</time>
      </trkpt>
      <trkpt lat="62.83767" lon="7.23667">
        <ele>35.028533</ele>
        <time>2020-07-16T23:33:27.142Z</time>
      </trkpt>
      <trkpt lat="62.83771" lon="7.23674">
        <ele>35.020507</ele>
        <time>2020-07-16T23:33:27.797Z</time>
      </trkpt>
      <trkpt lat="62.83775" lon="7.23681">
        <ele>35.010299</ele>
        <time>2020-07-16T23:33:28.875Z</time>
      </trkpt>
      <trkpt lat="62.83778" lon="7.23688">
        <ele>35.002038</ele>
        <time>2020-07-16T23:33:29.755Z</time>
      </trkpt>
      <trkpt lat="62.83782" lon="7.2368">
        <ele>34.992897</ele>
        <time>2020-07-16T23:33:30.427Z</time>
      </trkpt>
      <trkpt lat="62.83821" lon="7.23627">
        <ele>34.58765</ele>
        <time>2020-07-16T23:33:37.502Z</time>
      </trkpt>
      <trkpt lat="62.83914" lon="7.23451">
        <ele>30.518746</ele>
        <time>2020-07-16T23:33:54.172Z</time>
      </trkpt>
      <trkpt lat="62.83925" lon="7.23428">
        <ele>29.995087</ele>
        <time>2020-07-16T23:33:56.167Z</time>
      </trkpt>
      <trkpt lat="62.83966" lon="7.2335">
        <ele>28.103618</ele>
        <time>2020-07-16T23:34:03.276Z</time>
      </trkpt>
      <trkpt lat="62.83987" lon="7.23314">
        <ele>27.072198</ele>
        <time>2020-07-16T23:34:06.828Z</time>
      </trkpt>
      <trkpt lat="62.83996" lon="7.23303">
        <ele>26.667276</ele>
        <time>2020-07-16T23:34:08.230Z</time>
      </trkpt>
      <trkpt lat="62.84001" lon="7.23297">
        <ele>26.45354</ele>
        <time>2020-07-16T23:34:08.914Z</time>
      </trkpt>
      <trkpt lat="62.84027" lon="7.23264">
        <ele>25.322797</ele>
        <time>2020-07-16T23:34:12.824Z</time>
      </trkpt>
      <trkpt lat="62.84035" lon="7.23255">
        <ele>24.975129</ele>
        <time>2020-07-16T23:34:13.954Z</time>
      </trkpt>
      <trkpt lat="62.84044" lon="7.23246">
        <ele>24.593988</ele>
        <time>2020-07-16T23:34:15.218Z</time>
      </trkpt>
      <trkpt lat="62.84088" lon="7.232">
        <ele>22.75333</ele>
        <time>2020-07-16T23:34:21.873Z</time>
      </trkpt>
      <trkpt lat="62.84121" lon="7.23146">
        <ele>21.823193</ele>
        <time>2020-07-16T23:34:27.724Z</time>
      </trkpt>
      <trkpt lat="62.8413" lon="7.23127">
        <ele>21.677013</ele>
        <time>2020-07-16T23:34:29.414Z</time>
      </trkpt>
      <trkpt lat="62.84146" lon="7.23087">
        <ele>21.402719</ele>
        <time>2020-07-16T23:34:33.353Z</time>
      </trkpt>
      <trkpt lat="62.84171" lon="7.23016">
        <ele>20.933745</ele>
        <time>2020-07-16T23:34:39.641Z</time>
      </trkpt>
      <trkpt lat="62.84202" lon="7.2297">
        <ele>20.508368</ele>
        <time>2020-07-16T23:34:46.042Z</time>
      </trkpt>
      <trkpt lat="62.84213" lon="7.2296">
        <ele>20.37595</ele>
        <time>2020-07-16T23:34:47.990Z</time>
      </trkpt>
      <trkpt lat="62.8422" lon="7.22952">
        <ele>20.281188</ele>
        <time>2020-07-16T23:34:49.666Z</time>
      </trkpt>
      <trkpt lat="62.843" lon="7.22888">
        <ele>21.300293</ele>
        <time>2020-07-16T23:35:07.799Z</time>
      </trkpt>
      <trkpt lat="62.84303" lon="7.22885">
        <ele>21.361992</ele>
        <time>2020-07-16T23:35:08.592Z</time>
      </trkpt>
      <trkpt lat="62.84331" lon="7.22858">
        <ele>21.975727</ele>
        <time>2020-07-16T23:35:16.862Z</time>
      </trkpt>
      <trkpt lat="62.84366" lon="7.22823">
        <ele>22.713445</ele>
        <time>2020-07-16T23:35:27.074Z</time>
      </trkpt>
      <trkpt lat="62.84374" lon="7.22814">
        <ele>22.896394</ele>
        <time>2020-07-16T23:35:29.571Z</time>
      </trkpt>
      <trkpt lat="62.84379" lon="7.22807">
        <ele>23.013619</ele>
        <time>2020-07-16T23:35:31.814Z</time>
      </trkpt>
      <trkpt lat="62.84432" lon="7.22749">
        <ele>24.417351</ele>
        <time>2020-07-16T23:35:47.634Z</time>
      </trkpt>
      <trkpt lat="62.84449" lon="7.22729">
        <ele>24.952488</ele>
        <time>2020-07-16T23:35:53.739Z</time>
      </trkpt>
      <trkpt lat="62.84462" lon="7.22714">
        <ele>25.363653</ele>
        <time>2020-07-16T23:35:57.435Z</time>
      </trkpt>
      <trkpt lat="62.84487" lon="7.22681">
        <ele>26.151512</ele>
        <time>2020-07-16T23:36:05.768Z</time>
      </trkpt>
      <trkpt lat="62.84542" lon="7.22607">
        <ele>27.950854</ele>
        <time>2020-07-16T23:36:23.764Z</time>
      </trkpt>
      <trkpt lat="62.84561" lon="7.22581">
        <ele>28.538635</ele>
        <time>2020-07-16T23:36:29.177Z</time>
      </trkpt>
      <trkpt lat="62.84571" lon="7.22565">
        <ele>28.745043</ele>
        <time>2020-07-16T23:36:32.807Z</time>
      </trkpt>
      <trkpt lat="62.8458" lon="7.2255">
        <ele>28.927673</ele>
        <time>2020-07-16T23:36:35.684Z</time>
      </trkpt>
      <trkpt lat="62.84596" lon="7.22518">
        <ele>29.276353</ele>
        <time>2020-07-16T23:36:40.814Z</time>
      </trkpt>
      <trkpt lat="62.84642" lon="7.22428">
        <ele>30.290871</ele>
        <time>2020-07-16T23:36:55.099Z</time>
      </trkpt>
      <trkpt lat="62.8466" lon="7.22395">
        <ele>30.671099</ele>
        <time>2020-07-16T23:37:00.566Z</time>
      </trkpt>
      <trkpt lat="62.84777" lon="7.22222">
        <ele>32.663136</ele>
        <time>2020-07-16T23:37:32.773Z</time>
      </trkpt>
      <trkpt lat="62.84818" lon="7.22163">
        <ele>33.309</ele>
        <time>2020-07-16T23:37:44.067Z</time>
      </trkpt>
      <trkpt lat="62.8493" lon="7.22007">
        <ele>34.525813</ele>
        <time>2020-07-16T23:38:13.651Z</time>
      </trkpt>
      <trkpt lat="62.84952" lon="7.21973">
        <ele>34.728872</ele>
        <time>2020-07-16T23:38:19.046Z</time>
      </trkpt>
      <trkpt lat="62.84962" lon="7.21956">
        <ele>34.82154</ele>
        <time>2020-07-16T23:38:21.630Z</time>
      </trkpt>
      <trkpt lat="62.84966" lon="7.21949">
        <ele>34.863376</ele>
        <time>2020-07-16T23:38:22.616Z</time>
      </trkpt>
      <trkpt lat="62.85016" lon="7.21811">
        <ele>35.101418</ele>
        <time>2020-07-16T23:38:38.174Z</time>
      </trkpt>
      <trkpt lat="62.85052" lon="7.21689">
        <ele>34.992994</ele>
        <time>2020-07-16T23:38:50.439Z</time>
      </trkpt>
      <trkpt lat="62.85065" lon="7.21644">
        <ele>34.95217</ele>
        <time>2020-07-16T23:38:54.819Z</time>
      </trkpt>
      <trkpt lat="62.85112" lon="7.21515">
        <ele>34.479662</ele>
        <time>2020-07-16T23:39:07.689Z</time>
      </trkpt>
      <trkpt lat="62.85115" lon="7.21507">
        <ele>34.413643</ele>
        <time>2020-07-16T23:39:08.468Z</time>
      </trkpt>
      <trkpt lat="62.8512" lon="7.21493">
        <ele>34.285706</ele>
        <time>2020-07-16T23:39:09.741Z</time>
      </trkpt>
      <trkpt lat="62.85133" lon="7.21455">
        <ele>33.965213</ele>
        <time>2020-07-16T23:39:13.328Z</time>
      </trkpt>
      <trkpt lat="62.85149" lon="7.21408">
        <ele>33.567605</ele>
        <time>2020-07-16T23:39:17.519Z</time>
      </trkpt>
      <trkpt lat="62.85179" lon="7.21309">
        <ele>32.753819</ele>
        <time>2020-07-16T23:39:25.788Z</time>
      </trkpt>
      <trkpt lat="62.85199" lon="7.21253">
        <ele>32.271004</ele>
        <time>2020-07-16T23:39:30.541Z</time>
      </trkpt>
      <trkpt lat="62.85202" lon="7.21239">
        <ele>32.139383</ele>
        <time>2020-07-16T23:39:31.498Z</time>
      </trkpt>
      <trkpt lat="62.85206" lon="7.21225">
        <ele>31.907224</ele>
        <time>2020-07-16T23:39:32.570Z</time>
      </trkpt>
      <trkpt lat="62.85212" lon="7.21192">
        <ele>31.424808</ele>
        <time>2020-07-16T23:39:34.910Z</time>
      </trkpt>
      <trkpt lat="62.85218" lon="7.21168">
        <ele>31.038316</ele>
        <time>2020-07-16T23:39:36.638Z</time>
      </trkpt>
      <trkpt lat="62.85226" lon="7.21138">
        <ele>30.549583</ele>
        <time>2020-07-16T23:39:38.922Z</time>
      </trkpt>
      <trkpt lat="62.85232" lon="7.21112">
        <ele>30.143415</ele>
        <time>2020-07-16T23:39:40.811Z</time>
      </trkpt>
      <trkpt lat="62.85253" lon="7.21022">
        <ele>28.742907</ele>
        <time>2020-07-16T23:39:46.970Z</time>
      </trkpt>
      <trkpt lat="62.85304" lon="7.20788">
        <ele>25.335898</ele>
        <time>2020-07-16T23:40:03.111Z</time>
      </trkpt>
      <trkpt lat="62.85312" lon="7.20749">
        <ele>24.820523</ele>
        <time>2020-07-16T23:40:05.729Z</time>
      </trkpt>
      <trkpt lat="62.85357" lon="7.2052">
        <ele>21.889273</ele>
        <time>2020-07-16T23:40:22.248Z</time>
      </trkpt>
      <trkpt lat="62.85374" lon="7.20446">
        <ele>21.626658</ele>
        <time>2020-07-16T23:40:27.984Z</time>
      </trkpt>
      <trkpt lat="62.85375" lon="7.20432">
        <ele>21.583539</ele>
        <time>2020-07-16T23:40:28.920Z</time>
      </trkpt>
      <trkpt lat="62.8538" lon="7.20397">
        <ele>21.467038</ele>
        <time>2020-07-16T23:40:31.787Z</time>
      </trkpt>
      <trkpt lat="62.85427" lon="7.2016">
        <ele>20.692346</ele>
        <time>2020-07-16T23:40:53.002Z</time>
      </trkpt>
      <trkpt lat="62.85429" lon="7.20154">
        <ele>20.707259</ele>
        <time>2020-07-16T23:40:53.579Z</time>
      </trkpt>
      <trkpt lat="62.85438" lon="7.20109">
        <ele>20.814354</ele>
        <time>2020-07-16T23:40:58.187Z</time>
      </trkpt>
      <trkpt lat="62.8547" lon="7.19972">
        <ele>21.144878</ele>
        <time>2020-07-16T23:41:12.734Z</time>
      </trkpt>
      <trkpt lat="62.85472" lon="7.19965">
        <ele>21.162436</ele>
        <time>2020-07-16T23:41:13.621Z</time>
      </trkpt>
      <trkpt lat="62.85489" lon="7.19892">
        <ele>21.338565</ele>
        <time>2020-07-16T23:41:21.228Z</time>
      </trkpt>
      <trkpt lat="62.85499" lon="7.19845">
        <ele>21.450976</ele>
        <time>2020-07-16T23:41:25.926Z</time>
      </trkpt>
      <trkpt lat="62.85503" lon="7.19828">
        <ele>21.491579</ele>
        <time>2020-07-16T23:41:27.666Z</time>
      </trkpt>
      <trkpt lat="62.85508" lon="7.19806">
        <ele>21.520876</ele>
        <time>2020-07-16T23:41:29.910Z</time>
      </trkpt>
      <trkpt lat="62.85524" lon="7.19724">
        <ele>21.492969</ele>
        <time>2020-07-16T23:41:37.949Z</time>
      </trkpt>
      <trkpt lat="62.85536" lon="7.19657">
        <ele>21.470761</ele>
        <time>2020-07-16T23:41:44.301Z</time>
      </trkpt>
      <trkpt lat="62.85543" lon="7.19613">
        <ele>21.456325</ele>
        <time>2020-07-16T23:41:48.309Z</time>
      </trkpt>
      <trkpt lat="62.85551" lon="7.19549">
        <ele>21.435796</ele>
        <time>2020-07-16T23:41:53.662Z</time>
      </trkpt>
      <trkpt lat="62.8556" lon="7.19455">
        <ele>21.405726</ele>
        <time>2020-07-16T23:42:01.245Z</time>
      </trkpt>
      <trkpt lat="62.85571" lon="7.19304">
        <ele>21.114657</ele>
        <time>2020-07-16T23:42:13.066Z</time>
      </trkpt>
      <trkpt lat="62.85572" lon="7.19294">
        <ele>21.095259</ele>
        <time>2020-07-16T23:42:13.723Z</time>
      </trkpt>
      <trkpt lat="62.85573" lon="7.19269">
        <ele>21.042981</ele>
        <time>2020-07-16T23:42:15.678Z</time>
      </trkpt>
      <trkpt lat="62.85574" lon="7.19069">
        <ele>20.631</ele>
        <time>2020-07-16T23:42:31.804Z</time>
      </trkpt>
      <trkpt lat="62.85574" lon="7.19057">
        <ele>20.605484</ele>
        <time>2020-07-16T23:42:32.705Z</time>
      </trkpt>
      <trkpt lat="62.85573" lon="7.19039">
        <ele>20.619554</ele>
        <time>2020-07-16T23:42:34.156Z</time>
      </trkpt>
      <trkpt lat="62.85566" lon="7.18921">
        <ele>20.962944</ele>
        <time>2020-07-16T23:42:43.969Z</time>
      </trkpt>
      <trkpt lat="62.85559" lon="7.18811">
        <ele>21.284944</ele>
        <time>2020-07-16T23:42:54.133Z</time>
      </trkpt>
      <trkpt lat="62.85546" lon="7.1861">
        <ele>22.035797</ele>
        <time>2020-07-16T23:43:15.703Z</time>
      </trkpt>
      <trkpt lat="62.85537" lon="7.18469">
        <ele>22.910162</ele>
        <time>2020-07-16T23:43:31.407Z</time>
      </trkpt>
      <trkpt lat="62.85533" lon="7.18423">
        <ele>23.200659</ele>
        <time>2020-07-16T23:43:36.185Z</time>
      </trkpt>
      <trkpt lat="62.85531" lon="7.18399">
        <ele>23.347671</ele>
        <time>2020-07-16T23:43:39.035Z</time>
      </trkpt>
      <trkpt lat="62.85525" lon="7.1833">
        <ele>23.786893</ele>
        <time>2020-07-16T23:43:46.466Z</time>
      </trkpt>
      <trkpt lat="62.85524" lon="7.18297">
        <ele>23.990583</ele>
        <time>2020-07-16T23:43:49.528Z</time>
      </trkpt>
      <trkpt lat="62.85521" lon="7.18227">
        <ele>24.156022</ele>
        <time>2020-07-16T23:43:56.502Z</time>
      </trkpt>
      <trkpt lat="62.85518" lon="7.18199">
        <ele>24.150682</ele>
        <time>2020-07-16T23:43:59.117Z</time>
      </trkpt>
      <trkpt lat="62.85513" lon="7.18146">
        <ele>24.14083</ele>
        <time>2020-07-16T23:44:04.015Z</time>
      </trkpt>
      <trkpt lat="62.85503" lon="7.18018">
        <ele>24.116907</ele>
        <time>2020-07-16T23:44:14.870Z</time>
      </trkpt>
      <trkpt lat="62.85502" lon="7.18001">
        <ele>24.113659</ele>
        <time>2020-07-16T23:44:16.130Z</time>
      </trkpt>
      <trkpt lat="62.85498" lon="7.1796">
        <ele>24.10604</ele>
        <time>2020-07-16T23:44:19.284Z</time>
      </trkpt>
      <trkpt lat="62.85495" lon="7.17926">
        <ele>24.099531</ele>
        <time>2020-07-16T23:44:21.902Z</time>
      </trkpt>
      <trkpt lat="62.85485" lon="7.17839">
        <ele>24.04492</ele>
        <time>2020-07-16T23:44:28.712Z</time>
      </trkpt>
      <trkpt lat="62.85458" lon="7.17637">
        <ele>23.823015</ele>
        <time>2020-07-16T23:44:45.602Z</time>
      </trkpt>
      <trkpt lat="62.85443" lon="7.17518">
        <ele>23.692082</ele>
        <time>2020-07-16T23:44:56.347Z</time>
      </trkpt>
      <trkpt lat="62.85431" lon="7.17423">
        <ele>23.909071</ele>
        <time>2020-07-16T23:45:05.061Z</time>
      </trkpt>
      <trkpt lat="62.85428" lon="7.17392">
        <ele>24.001432</ele>
        <time>2020-07-16T23:45:08.032Z</time>
      </trkpt>
      <trkpt lat="62.85426" lon="7.17372">
        <ele>24.061945</ele>
        <time>2020-07-16T23:45:09.987Z</time>
      </trkpt>
      <trkpt lat="62.85423" lon="7.17352">
        <ele>24.122809</ele>
        <time>2020-07-16T23:45:11.933Z</time>
      </trkpt>
      <trkpt lat="62.8542" lon="7.17336">
        <ele>24.169258</ele>
        <time>2020-07-16T23:45:13.416Z</time>
      </trkpt>
      <trkpt lat="62.85406" lon="7.17205">
        <ele>24.559728</ele>
        <time>2020-07-16T23:45:26.637Z</time>
      </trkpt>
      <trkpt lat="62.85405" lon="7.17195">
        <ele>24.588216</ele>
        <time>2020-07-16T23:45:27.569Z</time>
      </trkpt>
      <trkpt lat="62.85403" lon="7.17175">
        <ele>24.645756</ele>
        <time>2020-07-16T23:45:29.469Z</time>
      </trkpt>
      <trkpt lat="62.85401" lon="7.17138">
        <ele>24.753511</ele>
        <time>2020-07-16T23:45:33.021Z</time>
      </trkpt>
      <trkpt lat="62.85399" lon="7.17085">
        <ele>24.932374</ele>
        <time>2020-07-16T23:45:38.215Z</time>
      </trkpt>
      <trkpt lat="62.85398" lon="7.17076">
        <ele>24.965477</ele>
        <time>2020-07-16T23:45:39.099Z</time>
      </trkpt>
      <trkpt lat="62.85398" lon="7.17056">
        <ele>25.038407</ele>
        <time>2020-07-16T23:45:41.156Z</time>
      </trkpt>
      <trkpt lat="62.85398" lon="7.1705">
        <ele>25.061279</ele>
        <time>2020-07-16T23:45:41.845Z</time>
      </trkpt>
      <trkpt lat="62.85399" lon="7.16996">
        <ele>25.254858</ele>
        <time>2020-07-16T23:45:47.015Z</time>
      </trkpt>
      <trkpt lat="62.854" lon="7.16961">
        <ele>25.382565</ele>
        <time>2020-07-16T23:45:50.487Z</time>
      </trkpt>
      <trkpt lat="62.85403" lon="7.16792">
        <ele>25.9968</ele>
        <time>2020-07-16T23:46:06.870Z</time>
      </trkpt>
      <trkpt lat="62.85401" lon="7.16719">
        <ele>26.246372</ele>
        <time>2020-07-16T23:46:13.830Z</time>
      </trkpt>
      <trkpt lat="62.85401" lon="7.16704">
        <ele>26.264562</ele>
        <time>2020-07-16T23:46:15.180Z</time>
      </trkpt>
      <trkpt lat="62.854" lon="7.16678">
        <ele>26.297029</ele>
        <time>2020-07-16T23:46:17.675Z</time>
      </trkpt>
      <trkpt lat="62.85398" lon="7.1667">
        <ele>26.307703</ele>
        <time>2020-07-16T23:46:18.449Z</time>
      </trkpt>
      <trkpt lat="62.85396" lon="7.1665">
        <ele>26.332585</ele>
        <time>2020-07-16T23:46:20.493Z</time>
      </trkpt>
      <trkpt lat="62.85389" lon="7.16541">
        <ele>26.465073</ele>
        <time>2020-07-16T23:46:30.222Z</time>
      </trkpt>
      <trkpt lat="62.85386" lon="7.16486">
        <ele>26.532682</ele>
        <time>2020-07-16T23:46:35.124Z</time>
      </trkpt>
      <trkpt lat="62.85377" lon="7.16334">
        <ele>26.716695</ele>
        <time>2020-07-16T23:46:48.071Z</time>
      </trkpt>
      <trkpt lat="62.85371" lon="7.16231">
        <ele>26.751789</ele>
        <time>2020-07-16T23:46:56.868Z</time>
      </trkpt>
      <trkpt lat="62.85368" lon="7.16176">
        <ele>26.770458</ele>
        <time>2020-07-16T23:47:01.845Z</time>
      </trkpt>
      <trkpt lat="62.85359" lon="7.1596">
        <ele>26.843585</ele>
        <time>2020-07-16T23:47:20.319Z</time>
      </trkpt>
      <trkpt lat="62.85358" lon="7.15944">
        <ele>26.848866</ele>
        <time>2020-07-16T23:47:21.684Z</time>
      </trkpt>
      <trkpt lat="62.85357" lon="7.15919">
        <ele>26.879104</ele>
        <time>2020-07-16T23:47:23.760Z</time>
      </trkpt>
      <trkpt lat="62.85357" lon="7.15908">
        <ele>26.893372</ele>
        <time>2020-07-16T23:47:24.793Z</time>
      </trkpt>
      <trkpt lat="62.85359" lon="7.15895">
        <ele>26.910134</ele>
        <time>2020-07-16T23:47:25.942Z</time>
      </trkpt>
      <trkpt lat="62.85359" lon="7.15885">
        <ele>26.923529</ele>
        <time>2020-07-16T23:47:26.915Z</time>
      </trkpt>
      <trkpt lat="62.85358" lon="7.1587">
        <ele>26.941555</ele>
        <time>2020-07-16T23:47:28.181Z</time>
      </trkpt>
      <trkpt lat="62.85358" lon="7.15858">
        <ele>26.956434</ele>
        <time>2020-07-16T23:47:29.278Z</time>
      </trkpt>
      <trkpt lat="62.85355" lon="7.15849">
        <ele>26.971619</ele>
        <time>2020-07-16T23:47:30.380Z</time>
      </trkpt>
      <trkpt lat="62.85354" lon="7.15845">
        <ele>26.976762</ele>
        <time>2020-07-16T23:47:30.741Z</time>
      </trkpt>
      <trkpt lat="62.85352" lon="7.15792">
        <ele>27.042987</ele>
        <time>2020-07-16T23:47:35.586Z</time>
      </trkpt>
      <trkpt lat="62.85348" lon="7.15686">
        <ele>27.175809</ele>
        <time>2020-07-16T23:47:44.821Z</time>
      </trkpt>
      <trkpt lat="62.85347" lon="7.15653">
        <ele>27.21747</ele>
        <time>2020-07-16T23:47:47.892Z</time>
      </trkpt>
      <trkpt lat="62.85344" lon="7.15593">
        <ele>27.293178</ele>
        <time>2020-07-16T23:47:53.176Z</time>
      </trkpt>
      <trkpt lat="62.85344" lon="7.1557">
        <ele>27.321929</ele>
        <time>2020-07-16T23:47:55.474Z</time>
      </trkpt>
      <trkpt lat="62.85344" lon="7.1555">
        <ele>27.35599</ele>
        <time>2020-07-16T23:47:57.044Z</time>
      </trkpt>
      <trkpt lat="62.85345" lon="7.15542">
        <ele>27.391588</ele>
        <time>2020-07-16T23:47:57.901Z</time>
      </trkpt>
      <trkpt lat="62.85351" lon="7.15521">
        <ele>27.490717</ele>
        <time>2020-07-16T23:47:59.883Z</time>
      </trkpt>
      <trkpt lat="62.85353" lon="7.15514">
        <ele>27.52891</ele>
        <time>2020-07-16T23:48:00.931Z</time>
      </trkpt>
      <trkpt lat="62.85352" lon="7.15504">
        <ele>27.57218</ele>
        <time>2020-07-16T23:48:01.934Z</time>
      </trkpt>
      <trkpt lat="62.85351" lon="7.15488">
        <ele>27.635095</ele>
        <time>2020-07-16T23:48:03.392Z</time>
      </trkpt>
      <trkpt lat="62.8535" lon="7.15479">
        <ele>27.67405</ele>
        <time>2020-07-16T23:48:04.161Z</time>
      </trkpt>
      <trkpt lat="62.85343" lon="7.1547">
        <ele>27.748211</ele>
        <time>2020-07-16T23:48:06.024Z</time>
      </trkpt>
      <trkpt lat="62.85341" lon="7.15465">
        <ele>27.773031</ele>
        <time>2020-07-16T23:48:06.485Z</time>
      </trkpt>
      <trkpt lat="62.8534" lon="7.15458">
        <ele>27.803031</ele>
        <time>2020-07-16T23:48:07.220Z</time>
      </trkpt>
      <trkpt lat="62.85339" lon="7.15362">
        <ele>28.193752</ele>
        <time>2020-07-16T23:48:17.063Z</time>
      </trkpt>
      <trkpt lat="62.85341" lon="7.1531">
        <ele>28.406538</ele>
        <time>2020-07-16T23:48:22.205Z</time>
      </trkpt>
      <trkpt lat="62.85343" lon="7.15272">
        <ele>28.558527</ele>
        <time>2020-07-16T23:48:26.234Z</time>
      </trkpt>
      <trkpt lat="62.85347" lon="7.15206">
        <ele>28.833964</ele>
        <time>2020-07-16T23:48:33.130Z</time>
      </trkpt>
      <trkpt lat="62.85349" lon="7.15171">
        <ele>28.97092</ele>
        <time>2020-07-16T23:48:36.470Z</time>
      </trkpt>
      <trkpt lat="62.85351" lon="7.15129">
        <ele>29.111353</ele>
        <time>2020-07-16T23:48:40.527Z</time>
      </trkpt>
      <trkpt lat="62.85356" lon="7.15049">
        <ele>29.378574</ele>
        <time>2020-07-16T23:48:48.600Z</time>
      </trkpt>
      <trkpt lat="62.85364" lon="7.14905">
        <ele>29.857706</ele>
        <time>2020-07-16T23:49:02.903Z</time>
      </trkpt>
      <trkpt lat="62.8537" lon="7.14805">
        <ele>30.191118</ele>
        <time>2020-07-16T23:49:12.159Z</time>
      </trkpt>
      <trkpt lat="62.85371" lon="7.1478">
        <ele>30.244195</ele>
        <time>2020-07-16T23:49:14.274Z</time>
      </trkpt>
      <trkpt lat="62.85373" lon="7.14752">
        <ele>30.204457</ele>
        <time>2020-07-16T23:49:16.685Z</time>
      </trkpt>
      <trkpt lat="62.85379" lon="7.14649">
        <ele>30.061588</ele>
        <time>2020-07-16T23:49:25.121Z</time>
      </trkpt>
      <trkpt lat="62.85379" lon="7.14633">
        <ele>30.039856</ele>
        <time>2020-07-16T23:49:26.368Z</time>
      </trkpt>
      <trkpt lat="62.85381" lon="7.14527">
        <ele>29.894399</ele>
        <time>2020-07-16T23:49:34.630Z</time>
      </trkpt>
      <trkpt lat="62.85383" lon="7.14492">
        <ele>29.845842</ele>
        <time>2020-07-16T23:49:37.417Z</time>
      </trkpt>
      <trkpt lat="62.85384" lon="7.1444">
        <ele>29.774495</ele>
        <time>2020-07-16T23:49:41.505Z</time>
      </trkpt>
      <trkpt lat="62.85386" lon="7.14362">
        <ele>29.729328</ele>
        <time>2020-07-16T23:49:47.686Z</time>
      </trkpt>
      <trkpt lat="62.85388" lon="7.14313">
        <ele>29.757624</ele>
        <time>2020-07-16T23:49:51.613Z</time>
      </trkpt>
      <trkpt lat="62.85393" lon="7.14172">
        <ele>29.837835</ele>
        <time>2020-07-16T23:50:03.336Z</time>
      </trkpt>
      <trkpt lat="62.85394" lon="7.14153">
        <ele>29.848525</ele>
        <time>2020-07-16T23:50:04.927Z</time>
      </trkpt>
      <trkpt lat="62.85396" lon="7.14122">
        <ele>29.866685</ele>
        <time>2020-07-16T23:50:07.883Z</time>
      </trkpt>
      <trkpt lat="62.85414" lon="7.1394">
        <ele>30.212037</ele>
        <time>2020-07-16T23:50:25.515Z</time>
      </trkpt>
      <trkpt lat="62.85415" lon="7.13924">
        <ele>30.281778</ele>
        <time>2020-07-16T23:50:27.207Z</time>
      </trkpt>
      <trkpt lat="62.85416" lon="7.13914">
        <ele>30.322689</ele>
        <time>2020-07-16T23:50:28.431Z</time>
      </trkpt>
      <trkpt lat="62.85429" lon="7.13782">
        <ele>30.897517</ele>
        <time>2020-07-16T23:50:41.766Z</time>
      </trkpt>
      <trkpt lat="62.85429" lon="7.13767">
        <ele>30.961451</ele>
        <time>2020-07-16T23:50:43.494Z</time>
      </trkpt>
      <trkpt lat="62.85429" lon="7.13751">
        <ele>31.028778</ele>
        <time>2020-07-16T23:50:45.233Z</time>
      </trkpt>
      <trkpt lat="62.85429" lon="7.13593">
        <ele>31.616958</ele>
        <time>2020-07-16T23:51:00.912Z</time>
      </trkpt>
      <trkpt lat="62.85421" lon="7.135">
        <ele>31.672093</ele>
        <time>2020-07-16T23:51:09.603Z</time>
      </trkpt>
      <trkpt lat="62.85417" lon="7.13478">
        <ele>31.685839</ele>
        <time>2020-07-16T23:51:11.749Z</time>
      </trkpt>
      <trkpt lat="62.85407" lon="7.13424">
        <ele>31.720144</ele>
        <time>2020-07-16T23:51:16.953Z</time>
      </trkpt>
      <trkpt lat="62.85389" lon="7.13339">
        <ele>31.774885</ele>
        <time>2020-07-16T23:51:24.722Z</time>
      </trkpt>
      <trkpt lat="62.85382" lon="7.13313">
        <ele>31.792401</ele>
        <time>2020-07-16T23:51:27.084Z</time>
      </trkpt>
      <trkpt lat="62.85377" lon="7.13292">
        <ele>31.80646</ele>
        <time>2020-07-16T23:51:29.014Z</time>
      </trkpt>
      <trkpt lat="62.85362" lon="7.13223">
        <ele>31.752991</ele>
        <time>2020-07-16T23:51:35.021Z</time>
      </trkpt>
      <trkpt lat="62.85339" lon="7.13123">
        <ele>31.424941</ele>
        <time>2020-07-16T23:51:43.732Z</time>
      </trkpt>
      <trkpt lat="62.8531" lon="7.12984">
        <ele>30.97609</ele>
        <time>2020-07-16T23:51:55.328Z</time>
      </trkpt>
      <trkpt lat="62.85304" lon="7.12954">
        <ele>30.881822</ele>
        <time>2020-07-16T23:51:57.739Z</time>
      </trkpt>
      <trkpt lat="62.85295" lon="7.12898">
        <ele>30.707949</ele>
        <time>2020-07-16T23:52:02.303Z</time>
      </trkpt>
      <trkpt lat="62.85286" lon="7.12836">
        <ele>30.599423</ele>
        <time>2020-07-16T23:52:07.348Z</time>
      </trkpt>
      <trkpt lat="62.85283" lon="7.12818">
        <ele>30.571066</ele>
        <time>2020-07-16T23:52:08.876Z</time>
      </trkpt>
      <trkpt lat="62.85274" lon="7.12772">
        <ele>30.499806</ele>
        <time>2020-07-16T23:52:12.770Z</time>
      </trkpt>
      <trkpt lat="62.85243" lon="7.12571">
        <ele>30.195525</ele>
        <time>2020-07-16T23:52:30.073Z</time>
      </trkpt>
      <trkpt lat="62.85229" lon="7.12421">
        <ele>30.08797</ele>
        <time>2020-07-16T23:52:43.394Z</time>
      </trkpt>
      <trkpt lat="62.85224" lon="7.12308">
        <ele>30.057287</ele>
        <time>2020-07-16T23:52:52.944Z</time>
      </trkpt>
      <trkpt lat="62.85223" lon="7.12277">
        <ele>30.049047</ele>
        <time>2020-07-16T23:52:55.469Z</time>
      </trkpt>
      <trkpt lat="62.85222" lon="7.12257">
        <ele>30.043543</ele>
        <time>2020-07-16T23:52:57.148Z</time>
      </trkpt>
      <trkpt lat="62.85214" lon="7.12153">
        <ele>30.015039</ele>
        <time>2020-07-16T23:53:05.881Z</time>
      </trkpt>
      <trkpt lat="62.85219" lon="7.12139">
        <ele>30.010188</ele>
        <time>2020-07-16T23:53:07.469Z</time>
      </trkpt>
      <trkpt lat="62.85216" lon="7.1212">
        <ele>29.984708</ele>
        <time>2020-07-16T23:53:09.062Z</time>
      </trkpt>
      <trkpt lat="62.85214" lon="7.12105">
        <ele>29.946012</ele>
        <time>2020-07-16T23:53:10.369Z</time>
      </trkpt>
      <trkpt lat="62.85209" lon="7.12084">
        <ele>29.889919</ele>
        <time>2020-07-16T23:53:12.367Z</time>
      </trkpt>
      <trkpt lat="62.85205" lon="7.12071">
        <ele>29.855005</ele>
        <time>2020-07-16T23:53:13.694Z</time>
      </trkpt>
      <trkpt lat="62.85203" lon="7.12062">
        <ele>29.83059</ele>
        <time>2020-07-16T23:53:14.530Z</time>
      </trkpt>
      <trkpt lat="62.85192" lon="7.11971">
        <ele>29.609936</ele>
        <time>2020-07-16T23:53:22.303Z</time>
      </trkpt>
      <trkpt lat="62.85189" lon="7.11941">
        <ele>29.537291</ele>
        <time>2020-07-16T23:53:24.676Z</time>
      </trkpt>
      <trkpt lat="62.85186" lon="7.11914">
        <ele>29.472761</ele>
        <time>2020-07-16T23:53:26.930Z</time>
      </trkpt>
      <trkpt lat="62.85172" lon="7.11795">
        <ele>29.182462</ele>
        <time>2020-07-16T23:53:36.176Z</time>
      </trkpt>
      <trkpt lat="62.85173" lon="7.11764">
        <ele>29.109316</ele>
        <time>2020-07-16T23:53:38.471Z</time>
      </trkpt>
      <trkpt lat="62.85171" lon="7.11749">
        <ele>29.063456</ele>
        <time>2020-07-16T23:53:39.673Z</time>
      </trkpt>
      <trkpt lat="62.85168" lon="7.11732">
        <ele>28.981389</ele>
        <time>2020-07-16T23:53:40.922Z</time>
      </trkpt>
      <trkpt lat="62.85161" lon="7.11695">
        <ele>28.783983</ele>
        <time>2020-07-16T23:53:44.057Z</time>
      </trkpt>
      <trkpt lat="62.85156" lon="7.11653">
        <ele>28.576908</ele>
        <time>2020-07-16T23:53:47.209Z</time>
      </trkpt>
      <trkpt lat="62.85137" lon="7.11481">
        <ele>27.726287</ele>
        <time>2020-07-16T23:54:00.163Z</time>
      </trkpt>
      <trkpt lat="62.85123" lon="7.11379">
        <ele>27.215465</ele>
        <time>2020-07-16T23:54:07.974Z</time>
      </trkpt>
      <trkpt lat="62.85115" lon="7.1133">
        <ele>26.998196</ele>
        <time>2020-07-16T23:54:11.714Z</time>
      </trkpt>
      <trkpt lat="62.85097" lon="7.11227">
        <ele>26.552446</ele>
        <time>2020-07-16T23:54:19.810Z</time>
      </trkpt>
      <trkpt lat="62.8506" lon="7.10994">
        <ele>25.571367</ele>
        <time>2020-07-16T23:54:38.416Z</time>
      </trkpt>
      <trkpt lat="62.85053" lon="7.10956">
        <ele>25.509469</ele>
        <time>2020-07-16T23:54:41.695Z</time>
      </trkpt>
      <trkpt lat="62.8504" lon="7.10881">
        <ele>25.388962</ele>
        <time>2020-07-16T23:54:48.200Z</time>
      </trkpt>
      <trkpt lat="62.85024" lon="7.10785">
        <ele>25.233161</ele>
        <time>2020-07-16T23:54:56.676Z</time>
      </trkpt>
      <trkpt lat="62.85021" lon="7.1077">
        <ele>25.209418</ele>
        <time>2020-07-16T23:54:57.996Z</time>
      </trkpt>
      <trkpt lat="62.85007" lon="7.10682">
        <ele>25.067274</ele>
        <time>2020-07-16T23:55:05.596Z</time>
      </trkpt>
      <trkpt lat="62.85" lon="7.10638">
        <ele>24.997716</ele>
        <time>2020-07-16T23:55:09.281Z</time>
      </trkpt>
      <trkpt lat="62.84993" lon="7.10595">
        <ele>24.931334</ele>
        <time>2020-07-16T23:55:12.945Z</time>
      </trkpt>
      <trkpt lat="62.84981" lon="7.10529">
        <ele>24.828806</ele>
        <time>2020-07-16T23:55:18.686Z</time>
      </trkpt>
      <trkpt lat="62.84972" lon="7.10481">
        <ele>24.753435</ele>
        <time>2020-07-16T23:55:22.965Z</time>
      </trkpt>
      <trkpt lat="62.84965" lon="7.10444">
        <ele>24.694802</ele>
        <time>2020-07-16T23:55:26.281Z</time>
      </trkpt>
      <trkpt lat="62.84962" lon="7.1043">
        <ele>24.672143</ele>
        <time>2020-07-16T23:55:27.582Z</time>
      </trkpt>
      <trkpt lat="62.84954" lon="7.10394">
        <ele>24.614572</ele>
        <time>2020-07-16T23:55:30.765Z</time>
      </trkpt>
      <trkpt lat="62.84934" lon="7.10316">
        <ele>24.485685</ele>
        <time>2020-07-16T23:55:37.887Z</time>
      </trkpt>
      <trkpt lat="62.84886" lon="7.10122">
        <ele>24.310274</ele>
        <time>2020-07-16T23:55:55.428Z</time>
      </trkpt>
      <trkpt lat="62.84864" lon="7.10029">
        <ele>24.24577</ele>
        <time>2020-07-16T23:56:04.096Z</time>
      </trkpt>
      <trkpt lat="62.84848" lon="7.09954">
        <ele>24.194987</ele>
        <time>2020-07-16T23:56:11.168Z</time>
      </trkpt>
      <trkpt lat="62.84848" lon="7.09952">
        <ele>24.193638</ele>
        <time>2020-07-16T23:56:11.304Z</time>
      </trkpt>
      <trkpt lat="62.84827" lon="7.09834">
        <ele>24.494301</ele>
        <time>2020-07-16T23:56:23.147Z</time>
      </trkpt>
      <trkpt lat="62.84804" lon="7.09653">
        <ele>25.122827</ele>
        <time>2020-07-16T23:56:41.037Z</time>
      </trkpt>
      <trkpt lat="62.84803" lon="7.09641">
        <ele>25.162637</ele>
        <time>2020-07-16T23:56:42.323Z</time>
      </trkpt>
      <trkpt lat="62.84792" lon="7.09552">
        <ele>25.469389</ele>
        <time>2020-07-16T23:56:51.552Z</time>
      </trkpt>
      <trkpt lat="62.84789" lon="7.09529">
        <ele>25.583402</ele>
        <time>2020-07-16T23:56:54.025Z</time>
      </trkpt>
      <trkpt lat="62.84759" lon="7.09266">
        <ele>26.959898</ele>
        <time>2020-07-16T23:57:21.394Z</time>
      </trkpt>
      <trkpt lat="62.8475" lon="7.09176">
        <ele>27.426481</ele>
        <time>2020-07-16T23:57:30.667Z</time>
      </trkpt>
      <trkpt lat="62.84746" lon="7.09125">
        <ele>27.750821</ele>
        <time>2020-07-16T23:57:35.978Z</time>
      </trkpt>
      <trkpt lat="62.84743" lon="7.0911">
        <ele>27.856861</ele>
        <time>2020-07-16T23:57:37.573Z</time>
      </trkpt>
      <trkpt lat="62.8474" lon="7.0907">
        <ele>28.132112</ele>
        <time>2020-07-16T23:57:41.905Z</time>
      </trkpt>
      <trkpt lat="62.84727" lon="7.08926">
        <ele>29.102949</ele>
        <time>2020-07-16T23:57:57.142Z</time>
      </trkpt>
      <trkpt lat="62.84725" lon="7.08907">
        <ele>29.233024</ele>
        <time>2020-07-16T23:57:59.413Z</time>
      </trkpt>
      <trkpt lat="62.84712" lon="7.08766">
        <ele>30.194837</ele>
        <time>2020-07-16T23:58:15.228Z</time>
      </trkpt>
      <trkpt lat="62.84698" lon="7.08627">
        <ele>31.18732</ele>
        <time>2020-07-16T23:58:30.695Z</time>
      </trkpt>
      <trkpt lat="62.84694" lon="7.08581">
        <ele>31.514714</ele>
        <time>2020-07-16T23:58:35.926Z</time>
      </trkpt>
      <trkpt lat="62.84692" lon="7.0856">
        <ele>31.663965</ele>
        <time>2020-07-16T23:58:38.349Z</time>
      </trkpt>
      <trkpt lat="62.84672" lon="7.0843">
        <ele>32.616823</ele>
        <time>2020-07-16T23:58:52.745Z</time>
      </trkpt>
      <trkpt lat="62.84647" lon="7.08317">
        <ele>33.065595</ele>
        <time>2020-07-16T23:59:05.480Z</time>
      </trkpt>
      <trkpt lat="62.84633" lon="7.08266">
        <ele>33.198439</ele>
        <time>2020-07-16T23:59:11.404Z</time>
      </trkpt>
      <trkpt lat="62.84623" lon="7.08234">
        <ele>33.285937</ele>
        <time>2020-07-16T23:59:14.940Z</time>
      </trkpt>
      <trkpt lat="62.8451" lon="7.07897">
        <ele>33.471587</ele>
        <time>2020-07-16T23:59:50.725Z</time>
      </trkpt>
      <trkpt lat="62.84492" lon="7.07846">
        <ele>33.388461</ele>
        <time>2020-07-16T23:59:55.722Z</time>
      </trkpt>
      <trkpt lat="62.84466" lon="7.07771">
        <ele>33.266667</ele>
        <time>2020-07-17T00:00:02.936Z</time>
      </trkpt>
      <trkpt lat="62.84455" lon="7.07737">
        <ele>33.154312</ele>
        <time>2020-07-17T00:00:06.205Z</time>
      </trkpt>
      <trkpt lat="62.84426" lon="7.07651">
        <ele>32.702878</ele>
        <time>2020-07-17T00:00:14.328Z</time>
      </trkpt>
      <trkpt lat="62.844" lon="7.07572">
        <ele>32.291523</ele>
        <time>2020-07-17T00:00:21.600Z</time>
      </trkpt>
      <trkpt lat="62.84361" lon="7.07459">
        <ele>31.698235</ele>
        <time>2020-07-17T00:00:31.971Z</time>
      </trkpt>
      <trkpt lat="62.84324" lon="7.07349">
        <ele>30.981639</ele>
        <time>2020-07-17T00:00:41.929Z</time>
      </trkpt>
      <trkpt lat="62.84203" lon="7.06989">
        <ele>28.830738</ele>
        <time>2020-07-17T00:01:14.172Z</time>
      </trkpt>
      <trkpt lat="62.84181" lon="7.06923">
        <ele>28.543509</ele>
        <time>2020-07-17T00:01:20.267Z</time>
      </trkpt>
      <trkpt lat="62.84165" lon="7.06876">
        <ele>28.3376</ele>
        <time>2020-07-17T00:01:24.770Z</time>
      </trkpt>
      <trkpt lat="62.84144" lon="7.06796">
        <ele>28.00768</ele>
        <time>2020-07-17T00:01:32.399Z</time>
      </trkpt>
      <trkpt lat="62.84129" lon="7.06693">
        <ele>28.30444</ele>
        <time>2020-07-17T00:01:41.718Z</time>
      </trkpt>
      <trkpt lat="62.84112" lon="7.06532">
        <ele>28.763281</ele>
        <time>2020-07-17T00:01:57.593Z</time>
      </trkpt>
      <trkpt lat="62.84108" lon="7.06488">
        <ele>28.885989</ele>
        <time>2020-07-17T00:02:02.077Z</time>
      </trkpt>
      <trkpt lat="62.84102" lon="7.06422">
        <ele>29.074643</ele>
        <time>2020-07-17T00:02:08.884Z</time>
      </trkpt>
      <trkpt lat="62.84095" lon="7.06351">
        <ele>29.372869</ele>
        <time>2020-07-17T00:02:16.223Z</time>
      </trkpt>
      <trkpt lat="62.84088" lon="7.06284">
        <ele>29.666905</ele>
        <time>2020-07-17T00:02:23.152Z</time>
      </trkpt>
      <trkpt lat="62.8405" lon="7.05901">
        <ele>31.073518</ele>
        <time>2020-07-17T00:03:01.257Z</time>
      </trkpt>
      <trkpt lat="62.8403" lon="7.05703">
        <ele>31.520157</ele>
        <time>2020-07-17T00:03:19.615Z</time>
      </trkpt>
      <trkpt lat="62.84027" lon="7.05669">
        <ele>31.595741</ele>
        <time>2020-07-17T00:03:23.110Z</time>
      </trkpt>
      <trkpt lat="62.84029" lon="7.05643">
        <ele>31.64934</ele>
        <time>2020-07-17T00:03:25.268Z</time>
      </trkpt>
      <trkpt lat="62.84044" lon="7.05619">
        <ele>31.513115</ele>
        <time>2020-07-17T00:03:28.477Z</time>
      </trkpt>
      <trkpt lat="62.84045" lon="7.05613">
        <ele>31.491144</ele>
        <time>2020-07-17T00:03:29.460Z</time>
      </trkpt>
      <trkpt lat="62.84046" lon="7.05601">
        <ele>31.451211</ele>
        <time>2020-07-17T00:03:30.466Z</time>
      </trkpt>
      <trkpt lat="62.84046" lon="7.05587">
        <ele>31.402546</ele>
        <time>2020-07-17T00:03:31.569Z</time>
      </trkpt>
      <trkpt lat="62.84044" lon="7.0557">
        <ele>31.341052</ele>
        <time>2020-07-17T00:03:32.971Z</time>
      </trkpt>
      <trkpt lat="62.84041" lon="7.05556">
        <ele>31.289567</ele>
        <time>2020-07-17T00:03:34.058Z</time>
      </trkpt>
      <trkpt lat="62.84022" lon="7.055">
        <ele>31.050666</ele>
        <time>2020-07-17T00:03:40.038Z</time>
      </trkpt>
      <trkpt lat="62.83996" lon="7.05207">
        <ele>29.519177</ele>
        <time>2020-07-17T00:04:01.372Z</time>
      </trkpt>
      <trkpt lat="62.83993" lon="7.05188">
        <ele>29.319851</ele>
        <time>2020-07-17T00:04:02.790Z</time>
      </trkpt>
      <trkpt lat="62.83991" lon="7.05186">
        <ele>29.27744</ele>
        <time>2020-07-17T00:04:03.010Z</time>
      </trkpt>
      <trkpt lat="62.83973" lon="7.05131">
        <ele>28.606933</ele>
        <time>2020-07-17T00:04:07.754Z</time>
      </trkpt>
      <trkpt lat="62.83918" lon="7.04573">
        <ele>22.430716</ele>
        <time>2020-07-17T00:04:44.879Z</time>
      </trkpt>
      <trkpt lat="62.83919" lon="7.04515">
        <ele>21.73892</ele>
        <time>2020-07-17T00:04:48.833Z</time>
      </trkpt>
      <trkpt lat="62.83926" lon="7.04422">
        <ele>20.539276</ele>
        <time>2020-07-17T00:04:54.953Z</time>
      </trkpt>
      <trkpt lat="62.83964" lon="7.0424">
        <ele>17.988371</ele>
        <time>2020-07-17T00:05:07.845Z</time>
      </trkpt>
      <trkpt lat="62.83981" lon="7.0416">
        <ele>16.84849</ele>
        <time>2020-07-17T00:05:13.426Z</time>
      </trkpt>
      <trkpt lat="62.83986" lon="7.04142">
        <ele>16.522419</ele>
        <time>2020-07-17T00:05:14.659Z</time>
      </trkpt>
      <trkpt lat="62.84005" lon="7.04058">
        <ele>15.019406</ele>
        <time>2020-07-17T00:05:20.474Z</time>
      </trkpt>
      <trkpt lat="62.84009" lon="7.04032">
        <ele>14.576652</ele>
        <time>2020-07-17T00:05:22.142Z</time>
      </trkpt>
      <trkpt lat="62.84025" lon="7.03961">
        <ele>13.312967</ele>
        <time>2020-07-17T00:05:26.978Z</time>
      </trkpt>
      <trkpt lat="62.84033" lon="7.03931">
        <ele>12.754446</ele>
        <time>2020-07-17T00:05:29.121Z</time>
      </trkpt>
      <trkpt lat="62.8404" lon="7.03903">
        <ele>12.258898</ele>
        <time>2020-07-17T00:05:31.000Z</time>
      </trkpt>
      <trkpt lat="62.84053" lon="7.03843">
        <ele>11.188684</ele>
        <time>2020-07-17T00:05:35.112Z</time>
      </trkpt>
      <trkpt lat="62.84068" lon="7.03782">
        <ele>10.270828</ele>
        <time>2020-07-17T00:05:39.438Z</time>
      </trkpt>
      <trkpt lat="62.841" lon="7.03645">
        <ele>8.694965</ele>
        <time>2020-07-17T00:05:49.281Z</time>
      </trkpt>
      <trkpt lat="62.84125" lon="7.03561">
        <ele>7.675502</ele>
        <time>2020-07-17T00:05:55.934Z</time>
      </trkpt>
      <trkpt lat="62.84172" lon="7.03404">
        <ele>6.830767</ele>
        <time>2020-07-17T00:06:09.614Z</time>
      </trkpt>
      <trkpt lat="62.84206" lon="7.03292">
        <ele>7.279769</ele>
        <time>2020-07-17T00:06:21.059Z</time>
      </trkpt>
      <trkpt lat="62.84259" lon="7.03113">
        <ele>8.389961</ele>
        <time>2020-07-17T00:06:45.735Z</time>
      </trkpt>
      <trkpt lat="62.84271" lon="7.03082">
        <ele>9.043937</ele>
        <time>2020-07-17T00:06:50.460Z</time>
      </trkpt>
      <trkpt lat="62.8428" lon="7.03061">
        <ele>9.483292</ele>
        <time>2020-07-17T00:06:54.608Z</time>
      </trkpt>
      <trkpt lat="62.84291" lon="7.03035">
        <ele>10.029484</ele>
        <time>2020-07-17T00:06:59.079Z</time>
      </trkpt>
      <trkpt lat="62.84305" lon="7.02996">
        <ele>10.799678</ele>
        <time>2020-07-17T00:07:06.478Z</time>
      </trkpt>
      <trkpt lat="62.84302" lon="7.02991">
        <ele>10.925182</ele>
        <time>2020-07-17T00:07:07.538Z</time>
      </trkpt>
      <trkpt lat="62.84293" lon="7.02977">
        <ele>11.288875</ele>
        <time>2020-07-17T00:07:10.262Z</time>
      </trkpt>
      <trkpt lat="62.84292" lon="7.02975">
        <ele>11.341138</ele>
        <time>2020-07-17T00:07:10.731Z</time>
      </trkpt>
      <trkpt lat="62.84297" lon="7.02959">
        <ele>11.644256</ele>
        <time>2020-07-17T00:07:13.475Z</time>
      </trkpt>
      <trkpt lat="62.84302" lon="7.02945">
        <ele>11.931051</ele>
        <time>2020-07-17T00:07:16.357Z</time>
      </trkpt>
      <trkpt lat="62.84301" lon="7.0294">
        <ele>12.011162</ele>
        <time>2020-07-17T00:07:17.337Z</time>
      </trkpt>
      <trkpt lat="62.84305" lon="7.02908">
        <ele>12.535802</ele>
        <time>2020-07-17T00:07:21.675Z</time>
      </trkpt>
      <trkpt lat="62.84313" lon="7.02891">
        <ele>12.907796</ele>
        <time>2020-07-17T00:07:25.146Z</time>
      </trkpt>
      <trkpt lat="62.84318" lon="7.02882">
        <ele>13.123158</ele>
        <time>2020-07-17T00:07:27.418Z</time>
      </trkpt>
      <trkpt lat="62.84337" lon="7.02843">
        <ele>14.009546</ele>
        <time>2020-07-17T00:07:35.357Z</time>
      </trkpt>
      <trkpt lat="62.84348" lon="7.02834">
        <ele>14.28761</ele>
        <time>2020-07-17T00:07:39.678Z</time>
      </trkpt>
      <trkpt lat="62.8435" lon="7.02838">
        <ele>14.35252</ele>
        <time>2020-07-17T00:07:40.773Z</time>
      </trkpt>
      <trkpt lat="62.84361" lon="7.0282">
        <ele>14.658334</ele>
        <time>2020-07-17T00:07:44.113Z</time>
      </trkpt>
      <trkpt lat="62.84369" lon="7.02806">
        <ele>14.894924</ele>
        <time>2020-07-17T00:07:47.059Z</time>
      </trkpt>
      <trkpt lat="62.84391" lon="7.02776">
        <ele>15.486518</ele>
        <time>2020-07-17T00:07:54.460Z</time>
      </trkpt>
      <trkpt lat="62.84393" lon="7.02773">
        <ele>15.546231</ele>
        <time>2020-07-17T00:07:55.158Z</time>
      </trkpt>
      <trkpt lat="62.84415" lon="7.02743">
        <ele>16.137538</ele>
        <time>2020-07-17T00:08:02.210Z</time>
      </trkpt>
      <trkpt lat="62.84464" lon="7.02676">
        <ele>17.449173</ele>
        <time>2020-07-17T00:08:15.184Z</time>
      </trkpt>
      <trkpt lat="62.8449" lon="7.02643">
        <ele>18.10653</ele>
        <time>2020-07-17T00:08:21.617Z</time>
      </trkpt>
      <trkpt lat="62.84522" lon="7.02605">
        <ele>17.802869</ele>
        <time>2020-07-17T00:08:28.430Z</time>
      </trkpt>
      <trkpt lat="62.84527" lon="7.02599">
        <ele>17.756822</ele>
        <time>2020-07-17T00:08:29.328Z</time>
      </trkpt>
      <trkpt lat="62.84569" lon="7.0255">
        <ele>17.358664</ele>
        <time>2020-07-17T00:08:37.274Z</time>
      </trkpt>
      <trkpt lat="62.84824" lon="7.02261">
        <ele>13.218986</ele>
        <time>2020-07-17T00:09:18.566Z</time>
      </trkpt>
      <trkpt lat="62.84875" lon="7.02204">
        <ele>12.562872</ele>
        <time>2020-07-17T00:09:26.717Z</time>
      </trkpt>
      <trkpt lat="62.84898" lon="7.02177">
        <ele>12.258353</ele>
        <time>2020-07-17T00:09:30.541Z</time>
      </trkpt>
      <trkpt lat="62.84971" lon="7.02094">
        <ele>11.351465</ele>
        <time>2020-07-17T00:09:43.958Z</time>
      </trkpt>
      <trkpt lat="62.85034" lon="7.02022">
        <ele>11.297904</ele>
        <time>2020-07-17T00:09:56.354Z</time>
      </trkpt>
      <trkpt lat="62.85103" lon="7.01944">
        <ele>11.238504</ele>
        <time>2020-07-17T00:10:11.148Z</time>
      </trkpt>
      <trkpt lat="62.85136" lon="7.01905">
        <ele>11.154172</ele>
        <time>2020-07-17T00:10:17.687Z</time>
      </trkpt>
      <trkpt lat="62.85207" lon="7.01825">
        <ele>10.681225</ele>
        <time>2020-07-17T00:10:30.190Z</time>
      </trkpt>
      <trkpt lat="62.85325" lon="7.0169">
        <ele>10.499763</ele>
        <time>2020-07-17T00:10:51.496Z</time>
      </trkpt>
      <trkpt lat="62.85446" lon="7.01552">
        <ele>11.603352</ele>
        <time>2020-07-17T00:11:21.296Z</time>
      </trkpt>
      <trkpt lat="62.85465" lon="7.01531">
        <ele>11.967936</ele>
        <time>2020-07-17T00:11:26.293Z</time>
      </trkpt>
      <trkpt lat="62.85476" lon="7.0152">
        <ele>12.187151</ele>
        <time>2020-07-17T00:11:29.723Z</time>
      </trkpt>
      <trkpt lat="62.85577" lon="7.01446">
        <ele>14.049706</ele>
        <time>2020-07-17T00:11:55.228Z</time>
      </trkpt>
      <trkpt lat="62.85654" lon="7.01419">
        <ele>15.383529</ele>
        <time>2020-07-17T00:12:12.629Z</time>
      </trkpt>
      <trkpt lat="62.85703" lon="7.01414">
        <ele>16.203686</ele>
        <time>2020-07-17T00:12:23.841Z</time>
      </trkpt>
      <trkpt lat="62.85727" lon="7.01414">
        <ele>16.602394</ele>
        <time>2020-07-17T00:12:29.324Z</time>
      </trkpt>
      <trkpt lat="62.85836" lon="7.01411">
        <ele>18.436697</ele>
        <time>2020-07-17T00:12:55.220Z</time>
      </trkpt>
      <trkpt lat="62.85982" lon="7.01407">
        <ele>20.819162</ele>
        <time>2020-07-17T00:13:29.529Z</time>
      </trkpt>
      <trkpt lat="62.86118" lon="7.01405">
        <ele>21.878398</ele>
        <time>2020-07-17T00:13:56.762Z</time>
      </trkpt>
      <trkpt lat="62.86158" lon="7.01404">
        <ele>22.196486</ele>
        <time>2020-07-17T00:14:04.328Z</time>
      </trkpt>
      <trkpt lat="62.86157" lon="7.0139">
        <ele>22.276879</ele>
        <time>2020-07-17T00:14:05.885Z</time>
      </trkpt>
      <trkpt lat="62.8623" lon="7.01387">
        <ele>23.145084</ele>
        <time>2020-07-17T00:14:20.666Z</time>
      </trkpt>
      <trkpt lat="62.86327" lon="7.01385">
        <ele>24.303694</ele>
        <time>2020-07-17T00:14:43.411Z</time>
      </trkpt>
      <trkpt lat="62.86404" lon="7.01384">
        <ele>26.943795</ele>
        <time>2020-07-17T00:15:04.492Z</time>
      </trkpt>
      <trkpt lat="62.86438" lon="7.01383">
        <ele>28.120035</ele>
        <time>2020-07-17T00:15:14.867Z</time>
      </trkpt>
      <trkpt lat="62.86535" lon="7.01381">
        <ele>31.790668</ele>
        <time>2020-07-17T00:15:46.248Z</time>
      </trkpt>
      <trkpt lat="62.86544" lon="7.01381">
        <ele>32.180727</ele>
        <time>2020-07-17T00:15:49.692Z</time>
      </trkpt>
      <trkpt lat="62.86692" lon="7.01379">
        <ele>38.926848</ele>
        <time>2020-07-17T00:16:40.829Z</time>
      </trkpt>
      <trkpt lat="62.86709" lon="7.0138">
        <ele>39.164789</ele>
        <time>2020-07-17T00:16:46.479Z</time>
      </trkpt>
      <trkpt lat="62.86738" lon="7.01378">
        <ele>39.555933</ele>
        <time>2020-07-17T00:16:54.445Z</time>
      </trkpt>
      <trkpt lat="62.86959" lon="7.01374">
        <ele>40.518337</ele>
        <time>2020-07-17T00:17:36.683Z</time>
      </trkpt>
      <trkpt lat="62.87023" lon="7.01358">
        <ele>39.938921</ele>
        <time>2020-07-17T00:17:46.353Z</time>
      </trkpt>
      <trkpt lat="62.87086" lon="7.01325">
        <ele>38.705225</ele>
        <time>2020-07-17T00:17:55.934Z</time>
      </trkpt>
      <trkpt lat="62.87137" lon="7.01284">
        <ele>37.360905</ele>
        <time>2020-07-17T00:18:03.622Z</time>
      </trkpt>
      <trkpt lat="62.87231" lon="7.01165">
        <ele>34.491564</ele>
        <time>2020-07-17T00:18:18.919Z</time>
      </trkpt>
      <trkpt lat="62.87243" lon="7.01142">
        <ele>33.995464</ele>
        <time>2020-07-17T00:18:21.097Z</time>
      </trkpt>
      <trkpt lat="62.87244" lon="7.01126">
        <ele>33.760807</ele>
        <time>2020-07-17T00:18:22.113Z</time>
      </trkpt>
      <trkpt lat="62.87255" lon="7.01092">
        <ele>33.163213</ele>
        <time>2020-07-17T00:18:24.849Z</time>
      </trkpt>
      <trkpt lat="62.8727" lon="7.01077">
        <ele>32.638864</ele>
        <time>2020-07-17T00:18:27.126Z</time>
      </trkpt>
      <trkpt lat="62.87301" lon="7.01025">
        <ele>31.413614</ele>
        <time>2020-07-17T00:18:32.448Z</time>
      </trkpt>
      <trkpt lat="62.87307" lon="7.01014">
        <ele>31.172373</ele>
        <time>2020-07-17T00:18:33.498Z</time>
      </trkpt>
      <trkpt lat="62.87319" lon="7.00996">
        <ele>30.721988</ele>
        <time>2020-07-17T00:18:35.491Z</time>
      </trkpt>
      <trkpt lat="62.87316" lon="7.00988">
        <ele>30.581373</ele>
        <time>2020-07-17T00:18:36.036Z</time>
      </trkpt>
      <trkpt lat="62.87314" lon="7.00961">
        <ele>30.178046</ele>
        <time>2020-07-17T00:18:37.821Z</time>
      </trkpt>
      <trkpt lat="62.87363" lon="7.00842">
        <ele>27.847212</ele>
        <time>2020-07-17T00:18:47.740Z</time>
      </trkpt>
      <trkpt lat="62.87373" lon="7.00814">
        <ele>27.320353</ele>
        <time>2020-07-17T00:18:49.903Z</time>
      </trkpt>
      <trkpt lat="62.87381" lon="7.00794">
        <ele>26.925011</ele>
        <time>2020-07-17T00:18:51.595Z</time>
      </trkpt>
      <trkpt lat="62.87412" lon="7.00704">
        <ele>25.281627</ele>
        <time>2020-07-17T00:18:58.471Z</time>
      </trkpt>
      <trkpt lat="62.87421" lon="7.00646">
        <ele>24.391607</ele>
        <time>2020-07-17T00:19:02.603Z</time>
      </trkpt>
      <trkpt lat="62.87421" lon="7.00638">
        <ele>24.275819</ele>
        <time>2020-07-17T00:19:03.030Z</time>
      </trkpt>
      <trkpt lat="62.87426" lon="7.00635">
        <ele>24.084663</ele>
        <time>2020-07-17T00:19:03.825Z</time>
      </trkpt>
      <trkpt lat="62.87441" lon="7.00613">
        <ele>23.643254</ele>
        <time>2020-07-17T00:19:06.535Z</time>
      </trkpt>
      <trkpt lat="62.87452" lon="7.00583">
        <ele>23.342263</ele>
        <time>2020-07-17T00:19:08.879Z</time>
      </trkpt>
      <trkpt lat="62.87456" lon="7.00593">
        <ele>23.230835</ele>
        <time>2020-07-17T00:19:09.866Z</time>
      </trkpt>
      <trkpt lat="62.87469" lon="7.00625">
        <ele>22.890267</ele>
        <time>2020-07-17T00:19:12.847Z</time>
      </trkpt>
      <trkpt lat="62.87474" lon="7.00628">
        <ele>22.804685</ele>
        <time>2020-07-17T00:19:13.458Z</time>
      </trkpt>
      <trkpt lat="62.87499" lon="7.00599">
        <ele>22.313667</ele>
        <time>2020-07-17T00:19:18.019Z</time>
      </trkpt>
      <trkpt lat="62.87541" lon="7.00444">
        <ele>20.896787</ele>
        <time>2020-07-17T00:19:30.554Z</time>
      </trkpt>
      <trkpt lat="62.87567" lon="7.00322">
        <ele>20.154352</ele>
        <time>2020-07-17T00:19:41.042Z</time>
      </trkpt>
      <trkpt lat="62.87558" lon="7.00262">
        <ele>19.841947</ele>
        <time>2020-07-17T00:19:45.931Z</time>
      </trkpt>
      <trkpt lat="62.87559" lon="7.00257">
        <ele>19.814342</ele>
        <time>2020-07-17T00:19:46.344Z</time>
      </trkpt>
      <trkpt lat="62.87565" lon="7.00239">
        <ele>19.703842</ele>
        <time>2020-07-17T00:19:48.045Z</time>
      </trkpt>
      <trkpt lat="62.87566" lon="7.00236">
        <ele>19.685092</ele>
        <time>2020-07-17T00:19:48.336Z</time>
      </trkpt>
      <trkpt lat="62.87575" lon="7.00235">
        <ele>19.588322</ele>
        <time>2020-07-17T00:19:49.830Z</time>
      </trkpt>
      <trkpt lat="62.87579" lon="7.00233">
        <ele>19.548552</ele>
        <time>2020-07-17T00:19:50.427Z</time>
      </trkpt>
      <trkpt lat="62.87582" lon="7.00229">
        <ele>19.509772</ele>
        <time>2020-07-17T00:19:51.010Z</time>
      </trkpt>
      <trkpt lat="62.87594" lon="7.00162">
        <ele>19.153043</ele>
        <time>2020-07-17T00:19:56.370Z</time>
      </trkpt>
      <trkpt lat="62.87602" lon="7.00108">
        <ele>18.871869</ele>
        <time>2020-07-17T00:20:00.515Z</time>
      </trkpt>
      <trkpt lat="62.87606" lon="7.00078">
        <ele>18.697842</ele>
        <time>2020-07-17T00:20:02.741Z</time>
      </trkpt>
      <trkpt lat="62.87623" lon="6.99878">
        <ele>16.596398</ele>
        <time>2020-07-17T00:20:16.015Z</time>
      </trkpt>
      <trkpt lat="62.87631" lon="6.99673">
        <ele>14.607335</ele>
        <time>2020-07-17T00:20:29.327Z</time>
      </trkpt>
      <trkpt lat="62.87631" lon="6.99657">
        <ele>14.559009</ele>
        <time>2020-07-17T00:20:30.253Z</time>
      </trkpt>
      <trkpt lat="62.87632" lon="6.99622">
        <ele>14.455859</ele>
        <time>2020-07-17T00:20:32.601Z</time>
      </trkpt>
      <trkpt lat="62.87651" lon="6.98754">
        <ele>14.404171</ele>
        <time>2020-07-17T00:21:46.469Z</time>
      </trkpt>
      <trkpt lat="62.87653" lon="6.98692">
        <ele>14.764911</ele>
        <time>2020-07-17T00:21:53.729Z</time>
      </trkpt>
      <trkpt lat="62.87655" lon="6.98636">
        <ele>15.090496</ele>
        <time>2020-07-17T00:22:00.314Z</time>
      </trkpt>
      <trkpt lat="62.87669" lon="6.98472">
        <ele>15.843057</ele>
        <time>2020-07-17T00:22:19.798Z</time>
      </trkpt>
      <trkpt lat="62.87694" lon="6.98312">
        <ele>15.924265</ele>
        <time>2020-07-17T00:22:36.507Z</time>
      </trkpt>
      <trkpt lat="62.87703" lon="6.98269">
        <ele>15.947191</ele>
        <time>2020-07-17T00:22:40.392Z</time>
      </trkpt>
      <trkpt lat="62.87714" lon="6.98216">
        <ele>15.975065</ele>
        <time>2020-07-17T00:22:44.526Z</time>
      </trkpt>
      <trkpt lat="62.87752" lon="6.98044">
        <ele>14.701582</ele>
        <time>2020-07-17T00:22:57.710Z</time>
      </trkpt>
      <trkpt lat="62.87781" lon="6.97917">
        <ele>13.050537</ele>
        <time>2020-07-17T00:23:06.612Z</time>
      </trkpt>
      <trkpt lat="62.87828" lon="6.97703">
        <ele>10.646031</ele>
        <time>2020-07-17T00:23:21.773Z</time>
      </trkpt>
      <trkpt lat="62.87832" lon="6.97687">
        <ele>10.498951</ele>
        <time>2020-07-17T00:23:22.935Z</time>
      </trkpt>
      <trkpt lat="62.87838" lon="6.97659">
        <ele>10.258124</ele>
        <time>2020-07-17T00:23:25.045Z</time>
      </trkpt>
      <trkpt lat="62.87872" lon="6.97526">
        <ele>9.052049</ele>
        <time>2020-07-17T00:23:35.933Z</time>
      </trkpt>
      <trkpt lat="62.87913" lon="6.9743">
        <ele>8.19436</ele>
        <time>2020-07-17T00:23:45.665Z</time>
      </trkpt>
      <trkpt lat="62.87926" lon="6.97409">
        <ele>8.100264</ele>
        <time>2020-07-17T00:23:48.314Z</time>
      </trkpt>
      <trkpt lat="62.87927" lon="6.97406">
        <ele>8.087338</ele>
        <time>2020-07-17T00:23:48.783Z</time>
      </trkpt>
      <trkpt lat="62.87984" lon="6.97339">
        <ele>7.695612</ele>
        <time>2020-07-17T00:24:00.143Z</time>
      </trkpt>
      <trkpt lat="62.88147" lon="6.97176">
        <ele>6.6097</ele>
        <time>2020-07-17T00:24:30.488Z</time>
      </trkpt>
      <trkpt lat="62.88218" lon="6.97133">
        <ele>6.16622</ele>
        <time>2020-07-17T00:24:42.931Z</time>
      </trkpt>
      <trkpt lat="62.88294" lon="6.97114">
        <ele>5.928463</ele>
        <time>2020-07-17T00:24:56.158Z</time>
      </trkpt>
      <trkpt lat="62.88324" lon="6.97116">
        <ele>5.845107</ele>
        <time>2020-07-17T00:25:01.265Z</time>
      </trkpt>
      <trkpt lat="62.88331" lon="6.97117">
        <ele>5.824781</ele>
        <time>2020-07-17T00:25:02.776Z</time>
      </trkpt>
      <trkpt lat="62.88382" lon="6.9713">
        <ele>5.682667</ele>
        <time>2020-07-17T00:25:12.011Z</time>
      </trkpt>
      <trkpt lat="62.88384" lon="6.9711">
        <ele>5.656188</ele>
        <time>2020-07-17T00:25:13.667Z</time>
      </trkpt>
      <trkpt lat="62.88387" lon="6.97088">
        <ele>5.62707</ele>
        <time>2020-07-17T00:25:15.825Z</time>
      </trkpt>
      <trkpt lat="62.88389" lon="6.97082">
        <ele>5.618737</ele>
        <time>2020-07-17T00:25:16.324Z</time>
      </trkpt>
      <trkpt lat="62.88393" lon="6.9707">
        <ele>5.61688</ele>
        <time>2020-07-17T00:25:17.626Z</time>
      </trkpt>
      <trkpt lat="62.88404" lon="6.9705">
        <ele>5.61571</ele>
        <time>2020-07-17T00:25:20.176Z</time>
      </trkpt>
      <trkpt lat="62.88407" lon="6.97043">
        <ele>5.615319</ele>
        <time>2020-07-17T00:25:20.977Z</time>
      </trkpt>
      <trkpt lat="62.88409" lon="6.97046">
        <ele>5.615125</ele>
        <time>2020-07-17T00:25:21.541Z</time>
      </trkpt>
      <trkpt lat="62.88524" lon="6.97192">
        <ele>5.603939</ele>
        <time>2020-07-17T00:25:46.340Z</time>
      </trkpt>
      <trkpt lat="62.88532" lon="6.97277">
        <ele>5.6069</ele>
        <time>2020-07-17T00:25:53.809Z</time>
      </trkpt>
      <trkpt lat="62.8854" lon="6.97305">
        <ele>5.610188</ele>
        <time>2020-07-17T00:25:56.610Z</time>
      </trkpt>
      <trkpt lat="62.88777" lon="6.97858">
        <ele>6.087429</ele>
        <time>2020-07-17T00:27:01.015Z</time>
      </trkpt>
      <trkpt lat="62.88826" lon="6.97947">
        <ele>6.843126</ele>
        <time>2020-07-17T00:27:15.191Z</time>
      </trkpt>
      <trkpt lat="62.8895" lon="6.98134">
        <ele>8.526987</ele>
        <time>2020-07-17T00:27:51.233Z</time>
      </trkpt>
      <trkpt lat="62.89" lon="6.9821">
        <ele>9.155149</ele>
        <time>2020-07-17T00:28:04.820Z</time>
      </trkpt>
      <trkpt lat="62.89035" lon="6.9826">
        <ele>9.589702</ele>
        <time>2020-07-17T00:28:13.455Z</time>
      </trkpt>
      <trkpt lat="62.89086" lon="6.98314">
        <ele>9.505089</ele>
        <time>2020-07-17T00:28:24.131Z</time>
      </trkpt>
      <trkpt lat="62.89118" lon="6.98329">
        <ele>9.22757</ele>
        <time>2020-07-17T00:28:29.950Z</time>
      </trkpt>
      <trkpt lat="62.89153" lon="6.98331">
        <ele>8.929936</ele>
        <time>2020-07-17T00:28:35.542Z</time>
      </trkpt>
      <trkpt lat="62.89207" lon="6.98301">
        <ele>8.461894</ele>
        <time>2020-07-17T00:28:44.137Z</time>
      </trkpt>
      <trkpt lat="62.89254" lon="6.98236">
        <ele>7.739864</ele>
        <time>2020-07-17T00:28:52.719Z</time>
      </trkpt>
      <trkpt lat="62.89263" lon="6.98216">
        <ele>7.533126</ele>
        <time>2020-07-17T00:28:54.692Z</time>
      </trkpt>
      <trkpt lat="62.89272" lon="6.98196">
        <ele>7.332792</ele>
        <time>2020-07-17T00:28:56.618Z</time>
      </trkpt>
      <trkpt lat="62.89339" lon="6.97968">
        <ele>5.384393</ele>
        <time>2020-07-17T00:29:15.537Z</time>
      </trkpt>
      <trkpt lat="62.89371" lon="6.97899">
        <ele>4.798883</ele>
        <time>2020-07-17T00:29:22.395Z</time>
      </trkpt>
      <trkpt lat="62.89406" lon="6.97848">
        <ele>4.249495</ele>
        <time>2020-07-17T00:29:28.971Z</time>
      </trkpt>
      <trkpt lat="62.89451" lon="6.97812">
        <ele>3.624146</ele>
        <time>2020-07-17T00:29:36.425Z</time>
      </trkpt>
      <trkpt lat="62.89612" lon="6.97759">
        <ele>2.250421</ele>
        <time>2020-07-17T00:30:02.704Z</time>
      </trkpt>
      <trkpt lat="62.89669" lon="6.97716">
        <ele>1.864854</ele>
        <time>2020-07-17T00:30:13.874Z</time>
      </trkpt>
      <trkpt lat="62.89709" lon="6.97672">
        <ele>2.077952</ele>
        <time>2020-07-17T00:30:22.439Z</time>
      </trkpt>
      <trkpt lat="62.89715" lon="6.97663">
        <ele>2.114272</ele>
        <time>2020-07-17T00:30:24.023Z</time>
      </trkpt>
      <trkpt lat="62.89723" lon="6.97653">
        <ele>2.157132</ele>
        <time>2020-07-17T00:30:25.964Z</time>
      </trkpt>
      <trkpt lat="62.89778" lon="6.97551">
        <ele>2.501455</ele>
        <time>2020-07-17T00:30:41.050Z</time>
      </trkpt>
      <trkpt lat="62.89946" lon="6.97126">
        <ele>3.47876</ele>
        <time>2020-07-17T00:31:32.936Z</time>
      </trkpt>
      <trkpt lat="62.89951" lon="6.97104">
        <ele>3.446088</ele>
        <time>2020-07-17T00:31:35.009Z</time>
      </trkpt>
      <trkpt lat="62.89949" lon="6.9707">
        <ele>3.399646</ele>
        <time>2020-07-17T00:31:37.958Z</time>
      </trkpt>
      <trkpt lat="62.89951" lon="6.97064">
        <ele>3.389742</ele>
        <time>2020-07-17T00:31:38.597Z</time>
      </trkpt>
      <trkpt lat="62.89953" lon="6.97053">
        <ele>3.373177</ele>
        <time>2020-07-17T00:31:39.392Z</time>
      </trkpt>
      <trkpt lat="62.89972" lon="6.97048">
        <ele>3.315799</ele>
        <time>2020-07-17T00:31:42.922Z</time>
      </trkpt>
      <trkpt lat="62.89985" lon="6.97027">
        <ele>3.266957</ele>
        <time>2020-07-17T00:31:45.583Z</time>
      </trkpt>
      <trkpt lat="62.90044" lon="6.96859">
        <ele>3.01975</ele>
        <time>2020-07-17T00:32:02.034Z</time>
      </trkpt>
      <trkpt lat="62.90066" lon="6.96759">
        <ele>2.962825</ele>
        <time>2020-07-17T00:32:10.597Z</time>
      </trkpt>
      <trkpt lat="62.90118" lon="6.96448">
        <ele>3.46423</ele>
        <time>2020-07-17T00:32:39.310Z</time>
      </trkpt>
      <trkpt lat="62.90159" lon="6.963">
        <ele>4.643073</ele>
        <time>2020-07-17T00:32:57.988Z</time>
      </trkpt>
      <trkpt lat="62.90167" lon="6.96276">
        <ele>4.844849</ele>
        <time>2020-07-17T00:33:01.360Z</time>
      </trkpt>
      <trkpt lat="62.90172" lon="6.96284">
        <ele>4.93478</ele>
        <time>2020-07-17T00:33:02.999Z</time>
      </trkpt>
      <trkpt lat="62.90188" lon="6.96238">
        <ele>5.321735</ele>
        <time>2020-07-17T00:33:09.420Z</time>
      </trkpt>
      <trkpt lat="62.90209" lon="6.9617">
        <ele>6.31903</ele>
        <time>2020-07-17T00:33:19.379Z</time>
      </trkpt>
      <trkpt lat="62.90242" lon="6.96057">
        <ele>8.280376</ele>
        <time>2020-07-17T00:33:36.203Z</time>
      </trkpt>
      <trkpt lat="62.90258" lon="6.95971">
        <ele>9.640316</ele>
        <time>2020-07-17T00:33:48.841Z</time>
      </trkpt>
      <trkpt lat="62.90267" lon="6.95862">
        <ele>11.268256</ele>
        <time>2020-07-17T00:34:04.137Z</time>
      </trkpt>
      <trkpt lat="62.90265" lon="6.95741">
        <ele>12.834325</ele>
        <time>2020-07-17T00:34:19.340Z</time>
      </trkpt>
      <trkpt lat="62.90262" lon="6.95695">
        <ele>13.441964</ele>
        <time>2020-07-17T00:34:25.447Z</time>
      </trkpt>
      <trkpt lat="62.90258" lon="6.9566">
        <ele>13.909792</ele>
        <time>2020-07-17T00:34:29.675Z</time>
      </trkpt>
      <trkpt lat="62.90242" lon="6.95502">
        <ele>16.004666</ele>
        <time>2020-07-17T00:34:48.952Z</time>
      </trkpt>
      <trkpt lat="62.90235" lon="6.95375">
        <ele>17.030021</ele>
        <time>2020-07-17T00:35:03.599Z</time>
      </trkpt>
      <trkpt lat="62.9024" lon="6.95251">
        <ele>17.814053</ele>
        <time>2020-07-17T00:35:16.325Z</time>
      </trkpt>
      <trkpt lat="62.90252" lon="6.95169">
        <ele>18.363832</ele>
        <time>2020-07-17T00:35:24.784Z</time>
      </trkpt>
      <trkpt lat="62.90275" lon="6.95072">
        <ele>18.907302</ele>
        <time>2020-07-17T00:35:34.765Z</time>
      </trkpt>
      <trkpt lat="62.90288" lon="6.95025">
        <ele>18.869819</ele>
        <time>2020-07-17T00:35:39.676Z</time>
      </trkpt>
      <trkpt lat="62.90293" lon="6.95004">
        <ele>18.853891</ele>
        <time>2020-07-17T00:35:41.705Z</time>
      </trkpt>
      <trkpt lat="62.90327" lon="6.94879">
        <ele>18.755524</ele>
        <time>2020-07-17T00:35:53.341Z</time>
      </trkpt>
      <trkpt lat="62.90366" lon="6.9469">
        <ele>18.367189</ele>
        <time>2020-07-17T00:36:08.534Z</time>
      </trkpt>
      <trkpt lat="62.90373" lon="6.94647">
        <ele>18.137948</ele>
        <time>2020-07-17T00:36:11.722Z</time>
      </trkpt>
      <trkpt lat="62.90378" lon="6.94611">
        <ele>17.955054</ele>
        <time>2020-07-17T00:36:14.292Z</time>
      </trkpt>
      <trkpt lat="62.90383" lon="6.94569">
        <ele>17.738786</ele>
        <time>2020-07-17T00:36:17.327Z</time>
      </trkpt>
      <trkpt lat="62.90403" lon="6.94389">
        <ele>16.813511</ele>
        <time>2020-07-17T00:36:30.123Z</time>
      </trkpt>
      <trkpt lat="62.90411" lon="6.94319">
        <ele>16.446019</ele>
        <time>2020-07-17T00:36:34.985Z</time>
      </trkpt>
      <trkpt lat="62.90421" lon="6.94202">
        <ele>15.824821</ele>
        <time>2020-07-17T00:36:43.403Z</time>
      </trkpt>
      <trkpt lat="62.90425" lon="6.9416">
        <ele>15.603292</ele>
        <time>2020-07-17T00:36:46.322Z</time>
      </trkpt>
      <trkpt lat="62.9043" lon="6.94088">
        <ele>15.220513</ele>
        <time>2020-07-17T00:36:51.425Z</time>
      </trkpt>
      <trkpt lat="62.90435" lon="6.94009">
        <ele>14.807924</ele>
        <time>2020-07-17T00:36:56.928Z</time>
      </trkpt>
      <trkpt lat="62.90437" lon="6.93971">
        <ele>14.608932</ele>
        <time>2020-07-17T00:36:59.653Z</time>
      </trkpt>
      <trkpt lat="62.9044" lon="6.93899">
        <ele>14.236065</ele>
        <time>2020-07-17T00:37:04.754Z</time>
      </trkpt>
      <trkpt lat="62.90441" lon="6.93862">
        <ele>14.050312</ele>
        <time>2020-07-17T00:37:07.300Z</time>
      </trkpt>
      <trkpt lat="62.90442" lon="6.93828">
        <ele>13.873685</ele>
        <time>2020-07-17T00:37:09.578Z</time>
      </trkpt>
      <trkpt lat="62.90441" lon="6.93611">
        <ele>12.760102</ele>
        <time>2020-07-17T00:37:24.847Z</time>
      </trkpt>
      <trkpt lat="62.90441" lon="6.93531">
        <ele>12.364966</ele>
        <time>2020-07-17T00:37:30.378Z</time>
      </trkpt>
      <trkpt lat="62.90441" lon="6.93528">
        <ele>12.349368</ele>
        <time>2020-07-17T00:37:30.556Z</time>
      </trkpt>
      <trkpt lat="62.90444" lon="6.93405">
        <ele>11.752137</ele>
        <time>2020-07-17T00:37:39.192Z</time>
      </trkpt>
      <trkpt lat="62.90447" lon="6.93341">
        <ele>11.438632</ele>
        <time>2020-07-17T00:37:43.609Z</time>
      </trkpt>
      <trkpt lat="62.90454" lon="6.93341">
        <ele>11.363718</ele>
        <time>2020-07-17T00:37:45.178Z</time>
      </trkpt>
      <trkpt lat="62.90458" lon="6.93244">
        <ele>10.889422</ele>
        <time>2020-07-17T00:37:52.268Z</time>
      </trkpt>
      <trkpt lat="62.90463" lon="6.93133">
        <ele>10.287407</ele>
        <time>2020-07-17T00:38:00.692Z</time>
      </trkpt>
      <trkpt lat="62.90464" lon="6.93123">
        <ele>10.233465</ele>
        <time>2020-07-17T00:38:01.341Z</time>
      </trkpt>
      <trkpt lat="62.90465" lon="6.93101">
        <ele>10.10452</ele>
        <time>2020-07-17T00:38:03.162Z</time>
      </trkpt>
      <trkpt lat="62.90468" lon="6.93042">
        <ele>9.767615</ele>
        <time>2020-07-17T00:38:07.520Z</time>
      </trkpt>
      <trkpt lat="62.90472" lon="6.93001">
        <ele>9.53388</ele>
        <time>2020-07-17T00:38:10.637Z</time>
      </trkpt>
      <trkpt lat="62.90473" lon="6.92983">
        <ele>9.42952</ele>
        <time>2020-07-17T00:38:12.036Z</time>
      </trkpt>
      <trkpt lat="62.90474" lon="6.92974">
        <ele>9.379338</ele>
        <time>2020-07-17T00:38:12.635Z</time>
      </trkpt>
      <trkpt lat="62.90493" lon="6.9279">
        <ele>8.208454</ele>
        <time>2020-07-17T00:38:25.863Z</time>
      </trkpt>
      <trkpt lat="62.90496" lon="6.92761">
        <ele>7.910964</ele>
        <time>2020-07-17T00:38:27.954Z</time>
      </trkpt>
      <trkpt lat="62.9052" lon="6.92547">
        <ele>5.755734</ele>
        <time>2020-07-17T00:38:42.586Z</time>
      </trkpt>
      <trkpt lat="62.90529" lon="6.92469">
        <ele>4.963238</ele>
        <time>2020-07-17T00:38:47.819Z</time>
      </trkpt>
      <trkpt lat="62.90542" lon="6.92349">
        <ele>4.01414</ele>
        <time>2020-07-17T00:38:55.846Z</time>
      </trkpt>
      <trkpt lat="62.90545" lon="6.92324">
        <ele>3.833543</ele>
        <time>2020-07-17T00:38:57.661Z</time>
      </trkpt>
      <trkpt lat="62.90548" lon="6.92303">
        <ele>3.684045</ele>
        <time>2020-07-17T00:38:59.063Z</time>
      </trkpt>
      <trkpt lat="62.90556" lon="6.92244">
        <ele>3.272358</ele>
        <time>2020-07-17T00:39:03.301Z</time>
      </trkpt>
      <trkpt lat="62.90559" lon="6.92223">
        <ele>3.123504</ele>
        <time>2020-07-17T00:39:04.738Z</time>
      </trkpt>
      <trkpt lat="62.90551" lon="6.92218">
        <ele>2.998858</ele>
        <time>2020-07-17T00:39:06.107Z</time>
      </trkpt>
      <trkpt lat="62.90559" lon="6.9215">
        <ele>2.52445</ele>
        <time>2020-07-17T00:39:10.928Z</time>
      </trkpt>
      <trkpt lat="62.90566" lon="6.92095">
        <ele>2.131329</ele>
        <time>2020-07-17T00:39:15.200Z</time>
      </trkpt>
      <trkpt lat="62.90573" lon="6.92053">
        <ele>1.91081</ele>
        <time>2020-07-17T00:39:18.662Z</time>
      </trkpt>
      <trkpt lat="62.9059" lon="6.9196">
        <ele>1.952856</ele>
        <time>2020-07-17T00:39:27.131Z</time>
      </trkpt>
      <trkpt lat="62.90595" lon="6.91935">
        <ele>1.964142</ele>
        <time>2020-07-17T00:39:29.287Z</time>
      </trkpt>
      <trkpt lat="62.90623" lon="6.91809">
        <ele>2.021751</ele>
        <time>2020-07-17T00:39:41.358Z</time>
      </trkpt>
      <trkpt lat="62.90636" lon="6.91749">
        <ele>2.049811</ele>
        <time>2020-07-17T00:39:46.895Z</time>
      </trkpt>
      <trkpt lat="62.90652" lon="6.91676">
        <ele>2.081463</ele>
        <time>2020-07-17T00:39:53.672Z</time>
      </trkpt>
      <trkpt lat="62.90674" lon="6.91578">
        <ele>2.121117</ele>
        <time>2020-07-17T00:40:02.955Z</time>
      </trkpt>
      <trkpt lat="62.9068" lon="6.91554">
        <ele>2.131146</ele>
        <time>2020-07-17T00:40:05.108Z</time>
      </trkpt>
      <trkpt lat="62.90697" lon="6.91477">
        <ele>2.162222</ele>
        <time>2020-07-17T00:40:12.199Z</time>
      </trkpt>
      <trkpt lat="62.90699" lon="6.91466">
        <ele>2.166543</ele>
        <time>2020-07-17T00:40:13.415Z</time>
      </trkpt>
      <trkpt lat="62.90707" lon="6.91437">
        <ele>2.178919</ele>
        <time>2020-07-17T00:40:16.120Z</time>
      </trkpt>
      <trkpt lat="62.90718" lon="6.91407">
        <ele>2.192483</ele>
        <time>2020-07-17T00:40:18.923Z</time>
      </trkpt>
      <trkpt lat="62.9072" lon="6.91411">
        <ele>2.19471</ele>
        <time>2020-07-17T00:40:19.661Z</time>
      </trkpt>
      <trkpt lat="62.90732" lon="6.9144">
        <ele>2.208614</ele>
        <time>2020-07-17T00:40:22.643Z</time>
      </trkpt>
      <trkpt lat="62.90745" lon="6.91535">
        <ele>2.218128</ele>
        <time>2020-07-17T00:40:30.387Z</time>
      </trkpt>
      <trkpt lat="62.90754" lon="6.91575">
        <ele>2.220523</ele>
        <time>2020-07-17T00:40:34.132Z</time>
      </trkpt>
      <trkpt lat="62.90766" lon="6.91635">
        <ele>2.224135</ele>
        <time>2020-07-17T00:40:39.567Z</time>
      </trkpt>
      <trkpt lat="62.9081" lon="6.91783">
        <ele>2.233727</ele>
        <time>2020-07-17T00:40:54.306Z</time>
      </trkpt>
      <trkpt lat="62.90813" lon="6.91792">
        <ele>2.234363</ele>
        <time>2020-07-17T00:40:55.301Z</time>
      </trkpt>
      <trkpt lat="62.90819" lon="6.91809">
        <ele>2.223574</ele>
        <time>2020-07-17T00:40:56.811Z</time>
      </trkpt>
      <trkpt lat="62.90838" lon="6.91852">
        <ele>2.157562</ele>
        <time>2020-07-17T00:41:01.713Z</time>
      </trkpt>
      <trkpt lat="62.90847" lon="6.91869">
        <ele>2.129481</ele>
        <time>2020-07-17T00:41:03.564Z</time>
      </trkpt>
      <trkpt lat="62.90857" lon="6.91889">
        <ele>2.096546</ele>
        <time>2020-07-17T00:41:05.961Z</time>
      </trkpt>
      <trkpt lat="62.90873" lon="6.91918">
        <ele>2.04661</ele>
        <time>2020-07-17T00:41:09.379Z</time>
      </trkpt>
      <trkpt lat="62.9089" lon="6.91949">
        <ele>1.99301</ele>
        <time>2020-07-17T00:41:13.186Z</time>
      </trkpt>
      <trkpt lat="62.90975" lon="6.92104">
        <ele>2.166186</ele>
        <time>2020-07-17T00:41:31.653Z</time>
      </trkpt>
      <trkpt lat="62.91016" lon="6.92182">
        <ele>2.815019</ele>
        <time>2020-07-17T00:41:42.570Z</time>
      </trkpt>
      <trkpt lat="62.91021" lon="6.92192">
        <ele>2.89362</ele>
        <time>2020-07-17T00:41:44.099Z</time>
      </trkpt>
      <trkpt lat="62.91098" lon="6.92333">
        <ele>4.3167</ele>
        <time>2020-07-17T00:42:08.208Z</time>
      </trkpt>
      <trkpt lat="62.91118" lon="6.9237">
        <ele>5.098017</ele>
        <time>2020-07-17T00:42:15.386Z</time>
      </trkpt>
      <trkpt lat="62.91272" lon="6.92656">
        <ele>10.556241</ele>
        <time>2020-07-17T00:43:12.392Z</time>
      </trkpt>
      <trkpt lat="62.91303" lon="6.92711">
        <ele>11.361522</ele>
        <time>2020-07-17T00:43:22.055Z</time>
      </trkpt>
      <trkpt lat="62.91333" lon="6.92768">
        <ele>12.176779</ele>
        <time>2020-07-17T00:43:31.213Z</time>
      </trkpt>
      <trkpt lat="62.91436" lon="6.92956">
        <ele>13.755476</ele>
        <time>2020-07-17T00:43:58.117Z</time>
      </trkpt>
      <trkpt lat="62.91478" lon="6.93008">
        <ele>14.141989</ele>
        <time>2020-07-17T00:44:07.506Z</time>
      </trkpt>
      <trkpt lat="62.91487" lon="6.93017">
        <ele>14.228108</ele>
        <time>2020-07-17T00:44:09.523Z</time>
      </trkpt>
      <trkpt lat="62.91533" lon="6.93062">
        <ele>14.78206</ele>
        <time>2020-07-17T00:44:20.314Z</time>
      </trkpt>
      <trkpt lat="62.91563" lon="6.93103">
        <ele>15.290433</ele>
        <time>2020-07-17T00:44:28.233Z</time>
      </trkpt>
      <trkpt lat="62.91581" lon="6.93147">
        <ele>15.674431</ele>
        <time>2020-07-17T00:44:34.414Z</time>
      </trkpt>
      <trkpt lat="62.91715" lon="6.93556">
        <ele>18.118294</ele>
        <time>2020-07-17T00:45:26.726Z</time>
      </trkpt>
      <trkpt lat="62.91727" lon="6.93591">
        <ele>18.276284</ele>
        <time>2020-07-17T00:45:30.184Z</time>
      </trkpt>
      <trkpt lat="62.91761" lon="6.93695">
        <ele>17.880361</ele>
        <time>2020-07-17T00:45:39.142Z</time>
      </trkpt>
      <trkpt lat="62.91843" lon="6.93944">
        <ele>15.32787</ele>
        <time>2020-07-17T00:45:58.507Z</time>
      </trkpt>
      <trkpt lat="62.91886" lon="6.94076">
        <ele>13.99645</ele>
        <time>2020-07-17T00:46:08.993Z</time>
      </trkpt>
      <trkpt lat="62.91918" lon="6.94173">
        <ele>13.013833</ele>
        <time>2020-07-17T00:46:16.969Z</time>
      </trkpt>
      <trkpt lat="62.91929" lon="6.94205">
        <ele>12.698481</ele>
        <time>2020-07-17T00:46:19.567Z</time>
      </trkpt>
      <trkpt lat="62.91983" lon="6.94361">
        <ele>11.247039</ele>
        <time>2020-07-17T00:46:32.634Z</time>
      </trkpt>
      <trkpt lat="62.92049" lon="6.94451">
        <ele>10.114876</ele>
        <time>2020-07-17T00:46:43.879Z</time>
      </trkpt>
      <trkpt lat="62.92058" lon="6.94461">
        <ele>9.967238</ele>
        <time>2020-07-17T00:46:45.311Z</time>
      </trkpt>
      <trkpt lat="62.92091" lon="6.94503">
        <ele>9.412553</ele>
        <time>2020-07-17T00:46:51.037Z</time>
      </trkpt>
      <trkpt lat="62.92124" lon="6.94556">
        <ele>9.266703</ele>
        <time>2020-07-17T00:46:57.498Z</time>
      </trkpt>
      <trkpt lat="62.92143" lon="6.94589">
        <ele>9.224307</ele>
        <time>2020-07-17T00:47:01.256Z</time>
      </trkpt>
      <trkpt lat="62.92161" lon="6.94624">
        <ele>9.182221</ele>
        <time>2020-07-17T00:47:05.227Z</time>
      </trkpt>
      <trkpt lat="62.92191" lon="6.9471">
        <ele>9.094974</ele>
        <time>2020-07-17T00:47:13.661Z</time>
      </trkpt>
      <trkpt lat="62.92208" lon="6.94791">
        <ele>9.022632</ele>
        <time>2020-07-17T00:47:21.898Z</time>
      </trkpt>
      <trkpt lat="62.92237" lon="6.94964">
        <ele>10.502705</ele>
        <time>2020-07-17T00:47:41.023Z</time>
      </trkpt>
      <trkpt lat="62.92242" lon="6.94992">
        <ele>10.759324</ele>
        <time>2020-07-17T00:47:44.332Z</time>
      </trkpt>
      <trkpt lat="62.92249" lon="6.95031">
        <ele>11.127131</ele>
        <time>2020-07-17T00:47:48.990Z</time>
      </trkpt>
      <trkpt lat="62.9226" lon="6.95104">
        <ele>11.794411</ele>
        <time>2020-07-17T00:47:57.767Z</time>
      </trkpt>
      <trkpt lat="62.92282" lon="6.9523">
        <ele>13.123358</ele>
        <time>2020-07-17T00:48:13.863Z</time>
      </trkpt>
      <trkpt lat="62.92303" lon="6.95353">
        <ele>14.616869</ele>
        <time>2020-07-17T00:48:30.051Z</time>
      </trkpt>
      <trkpt lat="62.92346" lon="6.9561">
        <ele>17.247191</ele>
        <time>2020-07-17T00:49:01.969Z</time>
      </trkpt>
      <trkpt lat="62.9237" lon="6.95747">
        <ele>17.895395</ele>
        <time>2020-07-17T00:49:16.536Z</time>
      </trkpt>
      <trkpt lat="62.92387" lon="6.95849">
        <ele>18.382602</ele>
        <time>2020-07-17T00:49:26.071Z</time>
      </trkpt>
      <trkpt lat="62.92428" lon="6.96023">
        <ele>18.369601</ele>
        <time>2020-07-17T00:49:41.211Z</time>
      </trkpt>
      <trkpt lat="62.92436" lon="6.9605">
        <ele>18.288174</ele>
        <time>2020-07-17T00:49:43.371Z</time>
      </trkpt>
      <trkpt lat="62.92451" lon="6.96099">
        <ele>18.133682</ele>
        <time>2020-07-17T00:49:47.618Z</time>
      </trkpt>
      <trkpt lat="62.92468" lon="6.96147">
        <ele>17.980904</ele>
        <time>2020-07-17T00:49:51.904Z</time>
      </trkpt>
      <trkpt lat="62.92516" lon="6.96282">
        <ele>17.6528</ele>
        <time>2020-07-17T00:50:04.751Z</time>
      </trkpt>
      <trkpt lat="62.9252" lon="6.96273">
        <ele>17.646312</ele>
        <time>2020-07-17T00:50:05.814Z</time>
      </trkpt>
      <trkpt lat="62.92523" lon="6.96279">
        <ele>17.642747</ele>
        <time>2020-07-17T00:50:06.438Z</time>
      </trkpt>
      <trkpt lat="62.92554" lon="6.96365">
        <ele>17.589821</ele>
        <time>2020-07-17T00:50:15.612Z</time>
      </trkpt>
      <trkpt lat="62.92564" lon="6.96378">
        <ele>17.578388</ele>
        <time>2020-07-17T00:50:17.607Z</time>
      </trkpt>
      <trkpt lat="62.92567" lon="6.96386">
        <ele>17.573379</ele>
        <time>2020-07-17T00:50:18.439Z</time>
      </trkpt>
      <trkpt lat="62.92569" lon="6.96393">
        <ele>17.569575</ele>
        <time>2020-07-17T00:50:19.210Z</time>
      </trkpt>
      <trkpt lat="62.92575" lon="6.96421">
        <ele>17.554385</ele>
        <time>2020-07-17T00:50:21.919Z</time>
      </trkpt>
      <trkpt lat="62.92658" lon="6.96656">
        <ele>17.235712</ele>
        <time>2020-07-17T00:50:47.610Z</time>
      </trkpt>
      <trkpt lat="62.92684" lon="6.96729">
        <ele>17.08869</ele>
        <time>2020-07-17T00:50:54.976Z</time>
      </trkpt>
      <trkpt lat="62.92701" lon="6.96758">
        <ele>17.014678</ele>
        <time>2020-07-17T00:50:58.636Z</time>
      </trkpt>
      <trkpt lat="62.92702" lon="6.96764">
        <ele>17.005925</ele>
        <time>2020-07-17T00:50:59.037Z</time>
      </trkpt>
      <trkpt lat="62.92706" lon="6.9679">
        <ele>16.962302</ele>
        <time>2020-07-17T00:51:01.175Z</time>
      </trkpt>
      <trkpt lat="62.92757" lon="6.96929">
        <ele>16.308818</ele>
        <time>2020-07-17T00:51:14.466Z</time>
      </trkpt>
      <trkpt lat="62.92752" lon="6.9694">
        <ele>16.231126</ele>
        <time>2020-07-17T00:51:15.632Z</time>
      </trkpt>
      <trkpt lat="62.92755" lon="6.9695">
        <ele>16.173429</ele>
        <time>2020-07-17T00:51:16.404Z</time>
      </trkpt>
      <trkpt lat="62.9281" lon="6.97103">
        <ele>15.260381</ele>
        <time>2020-07-17T00:51:29.936Z</time>
      </trkpt>
      <trkpt lat="62.92825" lon="6.97145">
        <ele>15.008102</ele>
        <time>2020-07-17T00:51:33.677Z</time>
      </trkpt>
      <trkpt lat="62.92851" lon="6.97219">
        <ele>14.870969</ele>
        <time>2020-07-17T00:51:40.354Z</time>
      </trkpt>
      <trkpt lat="62.92949" lon="6.97497">
        <ele>14.388322</ele>
        <time>2020-07-17T00:52:08.463Z</time>
      </trkpt>
      <trkpt lat="62.92975" lon="6.9759">
        <ele>14.314913</ele>
        <time>2020-07-17T00:52:17.425Z</time>
      </trkpt>
      <trkpt lat="62.9299" lon="6.97653">
        <ele>14.266459</ele>
        <time>2020-07-17T00:52:23.219Z</time>
      </trkpt>
      <trkpt lat="62.93023" lon="6.97799">
        <ele>14.157426</ele>
        <time>2020-07-17T00:52:35.898Z</time>
      </trkpt>
      <trkpt lat="62.93047" lon="6.97906">
        <ele>13.75858</ele>
        <time>2020-07-17T00:52:44.949Z</time>
      </trkpt>
      <trkpt lat="62.93054" lon="6.97934">
        <ele>13.649596</ele>
        <time>2020-07-17T00:52:47.324Z</time>
      </trkpt>
      <trkpt lat="62.93065" lon="6.97987">
        <ele>13.450652</ele>
        <time>2020-07-17T00:52:51.458Z</time>
      </trkpt>
      <trkpt lat="62.93102" lon="6.98132">
        <ele>12.891956</ele>
        <time>2020-07-17T00:53:03.064Z</time>
      </trkpt>
      <trkpt lat="62.93109" lon="6.98155">
        <ele>12.81299</ele>
        <time>2020-07-17T00:53:05.146Z</time>
      </trkpt>
      <trkpt lat="62.93125" lon="6.98195">
        <ele>12.772325</ele>
        <time>2020-07-17T00:53:08.833Z</time>
      </trkpt>
      <trkpt lat="62.93133" lon="6.98214">
        <ele>12.752721</ele>
        <time>2020-07-17T00:53:10.753Z</time>
      </trkpt>
      <trkpt lat="62.93142" lon="6.98233">
        <ele>12.73144</ele>
        <time>2020-07-17T00:53:12.667Z</time>
      </trkpt>
      <trkpt lat="62.93189" lon="6.98307">
        <ele>12.632942</ele>
        <time>2020-07-17T00:53:22.499Z</time>
      </trkpt>
      <trkpt lat="62.93211" lon="6.98335">
        <ele>12.589148</ele>
        <time>2020-07-17T00:53:26.903Z</time>
      </trkpt>
      <trkpt lat="62.93311" lon="6.98454">
        <ele>13.379014</ele>
        <time>2020-07-17T00:53:50.189Z</time>
      </trkpt>
      <trkpt lat="62.93351" lon="6.98518">
        <ele>13.997118</ele>
        <time>2020-07-17T00:54:01.667Z</time>
      </trkpt>
      <trkpt lat="62.93382" lon="6.98592">
        <ele>14.567461</ele>
        <time>2020-07-17T00:54:12.325Z</time>
      </trkpt>
      <trkpt lat="62.93387" lon="6.98609">
        <ele>14.684491</ele>
        <time>2020-07-17T00:54:14.818Z</time>
      </trkpt>
      <trkpt lat="62.93394" lon="6.98627">
        <ele>14.775904</ele>
        <time>2020-07-17T00:54:17.091Z</time>
      </trkpt>
      <trkpt lat="62.93412" lon="6.98689">
        <ele>14.818925</ele>
        <time>2020-07-17T00:54:24.520Z</time>
      </trkpt>
      <trkpt lat="62.9342" lon="6.98719">
        <ele>14.840211</ele>
        <time>2020-07-17T00:54:27.969Z</time>
      </trkpt>
      <trkpt lat="62.93646" lon="6.99505">
        <ele>14.952592</ele>
        <time>2020-07-17T00:55:41.742Z</time>
      </trkpt>
      <trkpt lat="62.93681" lon="6.99581">
        <ele>14.831638</ele>
        <time>2020-07-17T00:55:49.802Z</time>
      </trkpt>
      <trkpt lat="62.93707" lon="6.99609">
        <ele>14.744698</ele>
        <time>2020-07-17T00:55:54.897Z</time>
      </trkpt>
      <trkpt lat="62.93714" lon="6.99614">
        <ele>14.719932</ele>
        <time>2020-07-17T00:55:55.987Z</time>
      </trkpt>
      <trkpt lat="62.93716" lon="6.99615">
        <ele>14.713753</ele>
        <time>2020-07-17T00:55:56.379Z</time>
      </trkpt>
      <trkpt lat="62.93857" lon="6.99627">
        <ele>14.227678</ele>
        <time>2020-07-17T00:56:20.011Z</time>
      </trkpt>
      <trkpt lat="62.93877" lon="6.99635">
        <ele>14.185017</ele>
        <time>2020-07-17T00:56:23.765Z</time>
      </trkpt>
      <trkpt lat="62.93888" lon="6.99642">
        <ele>14.197898</ele>
        <time>2020-07-17T00:56:25.613Z</time>
      </trkpt>
      <trkpt lat="62.93935" lon="6.99692">
        <ele>14.255998</ele>
        <time>2020-07-17T00:56:34.897Z</time>
      </trkpt>
      <trkpt lat="62.9397" lon="6.99759">
        <ele>14.307727</ele>
        <time>2020-07-17T00:56:43.360Z</time>
      </trkpt>
      <trkpt lat="62.94028" lon="6.99887">
        <ele>14.533187</ele>
        <time>2020-07-17T00:56:58.636Z</time>
      </trkpt>
      <trkpt lat="62.94054" lon="6.99948">
        <ele>14.857627</ele>
        <time>2020-07-17T00:57:06.311Z</time>
      </trkpt>
      <trkpt lat="62.94105" lon="7.00102">
        <ele>15.595343</ele>
        <time>2020-07-17T00:57:24.569Z</time>
      </trkpt>
      <trkpt lat="62.94146" lon="7.00252">
        <ele>16.277894</ele>
        <time>2020-07-17T00:57:41.787Z</time>
      </trkpt>
      <trkpt lat="62.94218" lon="7.00513">
        <ele>17.475887</ele>
        <time>2020-07-17T00:58:10.450Z</time>
      </trkpt>
      <trkpt lat="62.9425" lon="7.00612">
        <ele>17.638084</ele>
        <time>2020-07-17T00:58:21.004Z</time>
      </trkpt>
      <trkpt lat="62.94328" lon="7.00792">
        <ele>17.970121</ele>
        <time>2020-07-17T00:58:41.776Z</time>
      </trkpt>
      <trkpt lat="62.9436" lon="7.00913">
        <ele>17.926237</ele>
        <time>2020-07-17T00:58:53.382Z</time>
      </trkpt>
      <trkpt lat="62.94381" lon="7.01026">
        <ele>17.850895</ele>
        <time>2020-07-17T00:59:03.058Z</time>
      </trkpt>
      <trkpt lat="62.94385" lon="7.01048">
        <ele>17.836353</ele>
        <time>2020-07-17T00:59:05.102Z</time>
      </trkpt>
      <trkpt lat="62.94469" lon="7.01506">
        <ele>16.541528</ele>
        <time>2020-07-17T00:59:41.980Z</time>
      </trkpt>
      <trkpt lat="62.94486" lon="7.01577">
        <ele>15.998329</ele>
        <time>2020-07-17T00:59:47.273Z</time>
      </trkpt>
      <trkpt lat="62.94507" lon="7.01638">
        <ele>15.28357</ele>
        <time>2020-07-17T00:59:52.306Z</time>
      </trkpt>
      <trkpt lat="62.94571" lon="7.01749">
        <ele>13.643573</ele>
        <time>2020-07-17T01:00:03.643Z</time>
      </trkpt>
      <trkpt lat="62.94581" lon="7.01767">
        <ele>13.377476</ele>
        <time>2020-07-17T01:00:05.318Z</time>
      </trkpt>
      <trkpt lat="62.94595" lon="7.01791">
        <ele>13.014208</ele>
        <time>2020-07-17T01:00:07.820Z</time>
      </trkpt>
      <trkpt lat="62.94602" lon="7.01804">
        <ele>12.827721</ele>
        <time>2020-07-17T01:00:09.077Z</time>
      </trkpt>
      <trkpt lat="62.94609" lon="7.01821">
        <ele>12.674763</ele>
        <time>2020-07-17T01:00:10.447Z</time>
      </trkpt>
      <trkpt lat="62.94628" lon="7.01871">
        <ele>12.283301</ele>
        <time>2020-07-17T01:00:14.598Z</time>
      </trkpt>
      <trkpt lat="62.94658" lon="7.01994">
        <ele>11.452093</ele>
        <time>2020-07-17T01:00:23.654Z</time>
      </trkpt>
      <trkpt lat="62.94662" lon="7.0202">
        <ele>11.288841</ele>
        <time>2020-07-17T01:00:25.325Z</time>
      </trkpt>
      <trkpt lat="62.94664" lon="7.02035">
        <ele>11.190672</ele>
        <time>2020-07-17T01:00:26.381Z</time>
      </trkpt>
      <trkpt lat="62.94729" lon="7.02613">
        <ele>11.190138</ele>
        <time>2020-07-17T01:01:17.012Z</time>
      </trkpt>
      <trkpt lat="62.94738" lon="7.02678">
        <ele>11.460182</ele>
        <time>2020-07-17T01:01:23.893Z</time>
      </trkpt>
      <trkpt lat="62.94759" lon="7.0281">
        <ele>12.008835</ele>
        <time>2020-07-17T01:01:37.733Z</time>
      </trkpt>
      <trkpt lat="62.9484" lon="7.03257">
        <ele>13.408539</ele>
        <time>2020-07-17T01:02:22.014Z</time>
      </trkpt>
      <trkpt lat="62.94865" lon="7.03348">
        <ele>13.150677</ele>
        <time>2020-07-17T01:02:30.257Z</time>
      </trkpt>
      <trkpt lat="62.94902" lon="7.03433">
        <ele>12.615742</ele>
        <time>2020-07-17T01:02:38.952Z</time>
      </trkpt>
      <trkpt lat="62.94922" lon="7.03465">
        <ele>12.363984</ele>
        <time>2020-07-17T01:02:42.840Z</time>
      </trkpt>
      <trkpt lat="62.94926" lon="7.03469">
        <ele>12.325622</ele>
        <time>2020-07-17T01:02:43.408Z</time>
      </trkpt>
      <trkpt lat="62.94944" lon="7.03491">
        <ele>12.117625</ele>
        <time>2020-07-17T01:02:46.322Z</time>
      </trkpt>
      <trkpt lat="62.9502" lon="7.03561">
        <ele>10.858042</ele>
        <time>2020-07-17T01:02:58.093Z</time>
      </trkpt>
      <trkpt lat="62.95059" lon="7.03594">
        <ele>9.986339</ele>
        <time>2020-07-17T01:03:03.836Z</time>
      </trkpt>
      <trkpt lat="62.95072" lon="7.03606">
        <ele>9.700144</ele>
        <time>2020-07-17T01:03:05.634Z</time>
      </trkpt>
      <trkpt lat="62.95455" lon="7.03935">
        <ele>2.358695</ele>
        <time>2020-07-17T01:04:04.423Z</time>
      </trkpt>
      <trkpt lat="62.95495" lon="7.03968">
        <ele>1.875214</ele>
        <time>2020-07-17T01:04:11.248Z</time>
      </trkpt>
      <trkpt lat="62.95498" lon="7.03971">
        <ele>1.878759</ele>
        <time>2020-07-17T01:04:11.801Z</time>
      </trkpt>
      <trkpt lat="62.95511" lon="7.03983">
        <ele>1.893569</ele>
        <time>2020-07-17T01:04:14.148Z</time>
      </trkpt>
      <trkpt lat="62.95525" lon="7.03995">
        <ele>1.908699</ele>
        <time>2020-07-17T01:04:16.624Z</time>
      </trkpt>
      <trkpt lat="62.95573" lon="7.04043">
        <ele>1.964945</ele>
        <time>2020-07-17T01:04:26.136Z</time>
      </trkpt>
      <trkpt lat="62.95636" lon="7.04136">
        <ele>2.044756</ele>
        <time>2020-07-17T01:04:41.050Z</time>
      </trkpt>
      <trkpt lat="62.95975" lon="7.04755">
        <ele>5.801402</ele>
        <time>2020-07-17T01:06:12.811Z</time>
      </trkpt>
      <trkpt lat="62.96099" lon="7.04984">
        <ele>6.560987</ele>
        <time>2020-07-17T01:06:44.181Z</time>
      </trkpt>
      <trkpt lat="62.96122" lon="7.05026">
        <ele>6.585966</ele>
        <time>2020-07-17T01:06:49.621Z</time>
      </trkpt>
      <trkpt lat="62.96134" lon="7.05049">
        <ele>6.59908</ele>
        <time>2020-07-17T01:06:52.477Z</time>
      </trkpt>
      <trkpt lat="62.96267" lon="7.05293">
        <ele>6.182779</ele>
        <time>2020-07-17T01:07:22.089Z</time>
      </trkpt>
      <trkpt lat="62.96323" lon="7.05422">
        <ele>5.760966</ele>
        <time>2020-07-17T01:07:35.086Z</time>
      </trkpt>
      <trkpt lat="62.96329" lon="7.05439">
        <ele>5.697028</ele>
        <time>2020-07-17T01:07:36.542Z</time>
      </trkpt>
      <trkpt lat="62.96334" lon="7.05453">
        <ele>5.629938</ele>
        <time>2020-07-17T01:07:37.844Z</time>
      </trkpt>
      <trkpt lat="62.96338" lon="7.05468">
        <ele>5.564778</ele>
        <time>2020-07-17T01:07:39.105Z</time>
      </trkpt>
      <trkpt lat="62.96334" lon="7.05476">
        <ele>5.51968</ele>
        <time>2020-07-17T01:07:39.972Z</time>
      </trkpt>
      <trkpt lat="62.96337" lon="7.05574">
        <ele>5.146364</ele>
        <time>2020-07-17T01:07:47.316Z</time>
      </trkpt>
      <trkpt lat="62.96373" lon="7.05722">
        <ele>4.510505</ele>
        <time>2020-07-17T01:07:59.762Z</time>
      </trkpt>
      <trkpt lat="62.96381" lon="7.05783">
        <ele>4.266046</ele>
        <time>2020-07-17T01:08:04.605Z</time>
      </trkpt>
      <trkpt lat="62.96388" lon="7.05876">
        <ele>3.935625</ele>
        <time>2020-07-17T01:08:11.756Z</time>
      </trkpt>
      <trkpt lat="62.96394" lon="7.06073">
        <ele>3.255281</ele>
        <time>2020-07-17T01:08:26.794Z</time>
      </trkpt>
      <trkpt lat="62.96396" lon="7.06094">
        <ele>3.181586</ele>
        <time>2020-07-17T01:08:28.426Z</time>
      </trkpt>
      <trkpt lat="62.96397" lon="7.06109">
        <ele>3.127831</ele>
        <time>2020-07-17T01:08:29.531Z</time>
      </trkpt>
      <trkpt lat="62.96404" lon="7.06136">
        <ele>3.019431</ele>
        <time>2020-07-17T01:08:31.963Z</time>
      </trkpt>
      <trkpt lat="62.96442" lon="7.06222">
        <ele>2.635133</ele>
        <time>2020-07-17T01:08:40.995Z</time>
      </trkpt>
      <trkpt lat="62.96479" lon="7.06377">
        <ele>2.103768</ele>
        <time>2020-07-17T01:08:54.126Z</time>
      </trkpt>
      <trkpt lat="62.96515" lon="7.06504">
        <ele>1.647896</ele>
        <time>2020-07-17T01:09:05.809Z</time>
      </trkpt>
      <trkpt lat="62.96546" lon="7.06589">
        <ele>1.491071</ele>
        <time>2020-07-17T01:09:14.428Z</time>
      </trkpt>
      <trkpt lat="62.96588" lon="7.06679">
        <ele>1.30535</ele>
        <time>2020-07-17T01:09:24.849Z</time>
      </trkpt>
      <trkpt lat="62.96591" lon="7.06677">
        <ele>1.296061</ele>
        <time>2020-07-17T01:09:25.355Z</time>
      </trkpt>
      <trkpt lat="62.96605" lon="7.06742">
        <ele>1.194092</ele>
        <time>2020-07-17T01:09:30.950Z</time>
      </trkpt>
      <trkpt lat="62.96621" lon="7.06823">
        <ele>1.084129</ele>
        <time>2020-07-17T01:09:37.966Z</time>
      </trkpt>
      <trkpt lat="62.96623" lon="7.06834">
        <ele>1.085283</ele>
        <time>2020-07-17T01:09:38.893Z</time>
      </trkpt>
      <trkpt lat="62.96624" lon="7.06844">
        <ele>1.086308</ele>
        <time>2020-07-17T01:09:39.724Z</time>
      </trkpt>
      <trkpt lat="62.96631" lon="7.06902">
        <ele>1.092257</ele>
        <time>2020-07-17T01:09:44.493Z</time>
      </trkpt>
      <trkpt lat="62.96632" lon="7.06967">
        <ele>1.098811</ele>
        <time>2020-07-17T01:09:49.893Z</time>
      </trkpt>
      <trkpt lat="62.96615" lon="7.07192">
        <ele>1.1215</ele>
        <time>2020-07-17T01:10:08.685Z</time>
      </trkpt>
      <trkpt lat="62.96614" lon="7.07221">
        <ele>1.131688</ele>
        <time>2020-07-17T01:10:11.068Z</time>
      </trkpt>
      <trkpt lat="62.96612" lon="7.07243">
        <ele>1.141724</ele>
        <time>2020-07-17T01:10:12.855Z</time>
      </trkpt>
      <trkpt lat="62.96611" lon="7.07257">
        <ele>1.148282</ele>
        <time>2020-07-17T01:10:14.072Z</time>
      </trkpt>
      <trkpt lat="62.96599" lon="7.07394">
        <ele>1.213218</ele>
        <time>2020-07-17T01:10:25.670Z</time>
      </trkpt>
      <trkpt lat="62.96575" lon="7.0754">
        <ele>1.284846</ele>
        <time>2020-07-17T01:10:38.542Z</time>
      </trkpt>
      <trkpt lat="62.96517" lon="7.07812">
        <ele>1.297256</ele>
        <time>2020-07-17T01:11:03.064Z</time>
      </trkpt>
      <trkpt lat="62.96479" lon="7.07941">
        <ele>1.283077</ele>
        <time>2020-07-17T01:11:15.328Z</time>
      </trkpt>
      <trkpt lat="62.9645" lon="7.08006">
        <ele>1.220886</ele>
        <time>2020-07-17T01:11:22.493Z</time>
      </trkpt>
      <trkpt lat="62.96372" lon="7.08146">
        <ele>1.068708</ele>
        <time>2020-07-17T01:11:39.857Z</time>
      </trkpt>
      <trkpt lat="62.96307" lon="7.08286">
        <ele>0.961862</ele>
        <time>2020-07-17T01:11:55.637Z</time>
      </trkpt>
      <trkpt lat="62.96257" lon="7.08357">
        <ele>0.903698</ele>
        <time>2020-07-17T01:12:05.987Z</time>
      </trkpt>
      <trkpt lat="62.96217" lon="7.08401">
        <ele>0.859205</ele>
        <time>2020-07-17T01:12:14.061Z</time>
      </trkpt>
      <trkpt lat="62.96198" lon="7.08421">
        <ele>0.858964</ele>
        <time>2020-07-17T01:12:17.836Z</time>
      </trkpt>
      <trkpt lat="62.96147" lon="7.08476">
        <ele>1.019288</ele>
        <time>2020-07-17T01:12:28.240Z</time>
      </trkpt>
      <trkpt lat="62.96009" lon="7.0862">
        <ele>1.441308</ele>
        <time>2020-07-17T01:12:57.269Z</time>
      </trkpt>
      <trkpt lat="62.96003" lon="7.08627">
        <ele>1.45971</ele>
        <time>2020-07-17T01:12:58.701Z</time>
      </trkpt>
      <trkpt lat="62.95977" lon="7.08653">
        <ele>1.53185</ele>
        <time>2020-07-17T01:13:04.006Z</time>
      </trkpt>
      <trkpt lat="62.95926" lon="7.08708">
        <ele>1.67619</ele>
        <time>2020-07-17T01:13:14.683Z</time>
      </trkpt>
      <trkpt lat="62.95905" lon="7.08729">
        <ele>1.734264</ele>
        <time>2020-07-17T01:13:18.950Z</time>
      </trkpt>
      <trkpt lat="62.9576" lon="7.08881">
        <ele>1.88081</ele>
        <time>2020-07-17T01:13:47.882Z</time>
      </trkpt>
      <trkpt lat="62.9575" lon="7.0889">
        <ele>1.886061</ele>
        <time>2020-07-17T01:13:49.631Z</time>
      </trkpt>
      <trkpt lat="62.95734" lon="7.08904">
        <ele>1.895319</ele>
        <time>2020-07-17T01:13:52.713Z</time>
      </trkpt>
      <trkpt lat="62.95685" lon="7.08938">
        <ele>1.970566</ele>
        <time>2020-07-17T01:14:01.912Z</time>
      </trkpt>
      <trkpt lat="62.95583" lon="7.08987">
        <ele>2.191711</ele>
        <time>2020-07-17T01:14:20.863Z</time>
      </trkpt>
      <trkpt lat="62.95573" lon="7.08994">
        <ele>2.21437</ele>
        <time>2020-07-17T01:14:22.856Z</time>
      </trkpt>
      <trkpt lat="62.95556" lon="7.09004">
        <ele>2.250583</ele>
        <time>2020-07-17T01:14:26.016Z</time>
      </trkpt>
      <trkpt lat="62.95513" lon="7.09051">
        <ele>2.894265</ele>
        <time>2020-07-17T01:14:34.987Z</time>
      </trkpt>
      <trkpt lat="62.95506" lon="7.09064">
        <ele>3.086884</ele>
        <time>2020-07-17T01:14:37.429Z</time>
      </trkpt>
      <trkpt lat="62.95495" lon="7.09081">
        <ele>3.352802</ele>
        <time>2020-07-17T01:14:40.816Z</time>
      </trkpt>
      <trkpt lat="62.95468" lon="7.0914">
        <ele>4.113431</ele>
        <time>2020-07-17T01:14:49.950Z</time>
      </trkpt>
      <trkpt lat="62.95449" lon="7.09197">
        <ele>4.749868</ele>
        <time>2020-07-17T01:14:58.155Z</time>
      </trkpt>
      <trkpt lat="62.95436" lon="7.09239">
        <ele>5.199963</ele>
        <time>2020-07-17T01:15:04.638Z</time>
      </trkpt>
      <trkpt lat="62.95425" lon="7.09281">
        <ele>5.640772</ele>
        <time>2020-07-17T01:15:10.654Z</time>
      </trkpt>
      <trkpt lat="62.95421" lon="7.09294">
        <ele>5.785736</ele>
        <time>2020-07-17T01:15:12.855Z</time>
      </trkpt>
      <trkpt lat="62.95412" lon="7.09329">
        <ele>6.161897</ele>
        <time>2020-07-17T01:15:17.801Z</time>
      </trkpt>
      <trkpt lat="62.95397" lon="7.09395">
        <ele>6.845476</ele>
        <time>2020-07-17T01:15:26.436Z</time>
      </trkpt>
      <trkpt lat="62.95398" lon="7.09493">
        <ele>7.76064</ele>
        <time>2020-07-17T01:15:37.522Z</time>
      </trkpt>
      <trkpt lat="62.95397" lon="7.09511">
        <ele>7.933925</ele>
        <time>2020-07-17T01:15:40.008Z</time>
      </trkpt>
      <trkpt lat="62.95399" lon="7.09513">
        <ele>7.988552</ele>
        <time>2020-07-17T01:15:40.504Z</time>
      </trkpt>
      <trkpt lat="62.95416" lon="7.09526">
        <ele>8.343966</ele>
        <time>2020-07-17T01:15:44.785Z</time>
      </trkpt>
      <trkpt lat="62.95455" lon="7.09553">
        <ele>9.186083</ele>
        <time>2020-07-17T01:15:54.255Z</time>
      </trkpt>
      <trkpt lat="62.95453" lon="7.09566">
        <ele>9.314756</ele>
        <time>2020-07-17T01:15:56.359Z</time>
      </trkpt>
      <trkpt lat="62.95456" lon="7.09569">
        <ele>9.391235</ele>
        <time>2020-07-17T01:15:56.980Z</time>
      </trkpt>
      <trkpt lat="62.95497" lon="7.09602">
        <ele>9.644345</ele>
        <time>2020-07-17T01:16:05.406Z</time>
      </trkpt>
      <trkpt lat="62.95538" lon="7.09687">
        <ele>9.781505</ele>
        <time>2020-07-17T01:16:16.170Z</time>
      </trkpt>
      <trkpt lat="62.95556" lon="7.09727">
        <ele>9.842266</ele>
        <time>2020-07-17T01:16:20.208Z</time>
      </trkpt>
      <trkpt lat="62.95563" lon="7.09752">
        <ele>9.875819</ele>
        <time>2020-07-17T01:16:23.148Z</time>
      </trkpt>
      <trkpt lat="62.95579" lon="7.0983">
        <ele>9.969489</ele>
        <time>2020-07-17T01:16:29.765Z</time>
      </trkpt>
      <trkpt lat="62.95584" lon="7.09889">
        <ele>10.167128</ele>
        <time>2020-07-17T01:16:35.515Z</time>
      </trkpt>
      <trkpt lat="62.95593" lon="7.0992">
        <ele>10.335936</ele>
        <time>2020-07-17T01:16:38.508Z</time>
      </trkpt>
      <trkpt lat="62.95596" lon="7.09932">
        <ele>10.399661</ele>
        <time>2020-07-17T01:16:40.109Z</time>
      </trkpt>
      <trkpt lat="62.95602" lon="7.09956">
        <ele>10.524216</ele>
        <time>2020-07-17T01:16:42.896Z</time>
      </trkpt>
      <trkpt lat="62.95639" lon="7.10143">
        <ele>11.471938</ele>
        <time>2020-07-17T01:17:03.820Z</time>
      </trkpt>
      <trkpt lat="62.95639" lon="7.10147">
        <ele>11.4944</ele>
        <time>2020-07-17T01:17:04.510Z</time>
      </trkpt>
      <trkpt lat="62.95639" lon="7.10151">
        <ele>11.513588</ele>
        <time>2020-07-17T01:17:05.287Z</time>
      </trkpt>
      <trkpt lat="62.95652" lon="7.10215">
        <ele>11.839647</ele>
        <time>2020-07-17T01:17:12.474Z</time>
      </trkpt>
      <trkpt lat="62.9566" lon="7.10439">
        <ele>12.851278</ele>
        <time>2020-07-17T01:17:35.417Z</time>
      </trkpt>
      <trkpt lat="62.9567" lon="7.10512">
        <ele>13.188927</ele>
        <time>2020-07-17T01:17:42.852Z</time>
      </trkpt>
      <trkpt lat="62.95673" lon="7.10524">
        <ele>13.255219</ele>
        <time>2020-07-17T01:17:44.403Z</time>
      </trkpt>
      <trkpt lat="62.95677" lon="7.10538">
        <ele>13.32728</ele>
        <time>2020-07-17T01:17:45.788Z</time>
      </trkpt>
      <trkpt lat="62.95686" lon="7.10564">
        <ele>13.471634</ele>
        <time>2020-07-17T01:17:48.668Z</time>
      </trkpt>
      <trkpt lat="62.95698" lon="7.10595">
        <ele>13.630022</ele>
        <time>2020-07-17T01:17:52.539Z</time>
      </trkpt>
      <trkpt lat="62.95713" lon="7.10641">
        <ele>13.711037</ele>
        <time>2020-07-17T01:17:57.479Z</time>
      </trkpt>
      <trkpt lat="62.95733" lon="7.10721">
        <ele>13.843112</ele>
        <time>2020-07-17T01:18:05.593Z</time>
      </trkpt>
      <trkpt lat="62.95734" lon="7.10729">
        <ele>13.854251</ele>
        <time>2020-07-17T01:18:06.202Z</time>
      </trkpt>
      <trkpt lat="62.95746" lon="7.10786">
        <ele>13.945159</ele>
        <time>2020-07-17T01:18:11.566Z</time>
      </trkpt>
      <trkpt lat="62.95764" lon="7.10958">
        <ele>14.220637</ele>
        <time>2020-07-17T01:18:27.138Z</time>
      </trkpt>
      <trkpt lat="62.95774" lon="7.11015">
        <ele>14.464916</ele>
        <time>2020-07-17T01:18:32.866Z</time>
      </trkpt>
      <trkpt lat="62.95782" lon="7.1105">
        <ele>14.620007</ele>
        <time>2020-07-17T01:18:36.642Z</time>
      </trkpt>
      <trkpt lat="62.95786" lon="7.11071">
        <ele>14.712558</ele>
        <time>2020-07-17T01:18:38.806Z</time>
      </trkpt>
      <trkpt lat="62.95792" lon="7.11099">
        <ele>14.834036</ele>
        <time>2020-07-17T01:18:41.638Z</time>
      </trkpt>
      <trkpt lat="62.95796" lon="7.11119">
        <ele>14.919001</ele>
        <time>2020-07-17T01:18:43.904Z</time>
      </trkpt>
      <trkpt lat="62.95807" lon="7.11172">
        <ele>15.152237</ele>
        <time>2020-07-17T01:18:49.546Z</time>
      </trkpt>
      <trkpt lat="62.95821" lon="7.11209">
        <ele>15.338852</ele>
        <time>2020-07-17T01:18:54.521Z</time>
      </trkpt>
      <trkpt lat="62.95928" lon="7.11362">
        <ele>16.193963</ele>
        <time>2020-07-17T01:19:22.656Z</time>
      </trkpt>
      <trkpt lat="62.95953" lon="7.11417">
        <ele>16.387278</ele>
        <time>2020-07-17T01:19:29.662Z</time>
      </trkpt>
      <trkpt lat="62.95955" lon="7.11412">
        <ele>16.404376</ele>
        <time>2020-07-17T01:19:30.275Z</time>
      </trkpt>
      <trkpt lat="62.95958" lon="7.11407">
        <ele>16.423975</ele>
        <time>2020-07-17T01:19:30.938Z</time>
      </trkpt>
      <trkpt lat="62.95944" lon="7.11376">
        <ele>16.529822</ele>
        <time>2020-07-17T01:19:34.368Z</time>
      </trkpt>
      <trkpt lat="62.95934" lon="7.11355">
        <ele>16.607643</ele>
        <time>2020-07-17T01:19:37.153Z</time>
      </trkpt>
      <trkpt lat="62.95924" lon="7.11339">
        <ele>16.671972</ele>
        <time>2020-07-17T01:19:39.128Z</time>
      </trkpt>
      <trkpt lat="62.95926" lon="7.11335">
        <ele>16.684902</ele>
        <time>2020-07-17T01:19:39.473Z</time>
      </trkpt>
      <trkpt lat="62.95958" lon="7.11249">
        <ele>16.589608</ele>
        <time>2020-07-17T01:19:48.444Z</time>
      </trkpt>
      <trkpt lat="62.95964" lon="7.11231">
        <ele>16.550179</ele>
        <time>2020-07-17T01:19:50.247Z</time>
      </trkpt>
      <trkpt lat="62.95966" lon="7.11225">
        <ele>16.539094</ele>
        <time>2020-07-17T01:19:50.728Z</time>
      </trkpt>
      <trkpt lat="62.9597" lon="7.11212">
        <ele>16.510522</ele>
        <time>2020-07-17T01:19:51.904Z</time>
      </trkpt>
      <trkpt lat="62.95988" lon="7.11157">
        <ele>16.396735</ele>
        <time>2020-07-17T01:19:56.987Z</time>
      </trkpt>
      <trkpt lat="62.96013" lon="7.11071">
        <ele>16.222796</ele>
        <time>2020-07-17T01:20:04.376Z</time>
      </trkpt>
      <trkpt lat="62.96017" lon="7.11057">
        <ele>16.194693</ele>
        <time>2020-07-17T01:20:05.643Z</time>
      </trkpt>
      <trkpt lat="62.96069" lon="7.10909">
        <ele>16.166676</ele>
        <time>2020-07-17T01:20:20.364Z</time>
      </trkpt>
      <trkpt lat="62.96085" lon="7.10872">
        <ele>16.211383</ele>
        <time>2020-07-17T01:20:24.543Z</time>
      </trkpt>
      <trkpt lat="62.96135" lon="7.10758">
        <ele>16.349121</ele>
        <time>2020-07-17T01:20:38.098Z</time>
      </trkpt>
      <trkpt lat="62.96146" lon="7.10733">
        <ele>16.37915</ele>
        <time>2020-07-17T01:20:41.289Z</time>
      </trkpt>
      <trkpt lat="62.96164" lon="7.10694">
        <ele>16.429973</ele>
        <time>2020-07-17T01:20:46.196Z</time>
      </trkpt>
      <trkpt lat="62.96201" lon="7.1061">
        <ele>16.550363</ele>
        <time>2020-07-17T01:20:56.720Z</time>
      </trkpt>
      <trkpt lat="62.96221" lon="7.10565">
        <ele>16.616252</ele>
        <time>2020-07-17T01:21:02.458Z</time>
      </trkpt>
      <trkpt lat="62.96237" lon="7.10518">
        <ele>16.677293</ele>
        <time>2020-07-17T01:21:07.667Z</time>
      </trkpt>
      <trkpt lat="62.96246" lon="7.10483">
        <ele>16.718867</ele>
        <time>2020-07-17T01:21:11.034Z</time>
      </trkpt>
      <trkpt lat="62.96249" lon="7.10468">
        <ele>16.736244</ele>
        <time>2020-07-17T01:21:12.515Z</time>
      </trkpt>
      <trkpt lat="62.96255" lon="7.10437">
        <ele>16.771291</ele>
        <time>2020-07-17T01:21:15.156Z</time>
      </trkpt>
      <trkpt lat="62.96275" lon="7.10262">
        <ele>15.8135</ele>
        <time>2020-07-17T01:21:28.265Z</time>
      </trkpt>
      <trkpt lat="62.96284" lon="7.10224">
        <ele>15.491214</ele>
        <time>2020-07-17T01:21:31.242Z</time>
      </trkpt>
      <trkpt lat="62.96288" lon="7.10212">
        <ele>15.368214</ele>
        <time>2020-07-17T01:21:32.231Z</time>
      </trkpt>
      <trkpt lat="62.96292" lon="7.10201">
        <ele>15.261242</ele>
        <time>2020-07-17T01:21:33.022Z</time>
      </trkpt>
      <trkpt lat="62.96312" lon="7.10166">
        <ele>14.82761</ele>
        <time>2020-07-17T01:21:36.792Z</time>
      </trkpt>
      <trkpt lat="62.96314" lon="7.10163">
        <ele>14.78292</ele>
        <time>2020-07-17T01:21:37.108Z</time>
      </trkpt>
      <trkpt lat="62.96333" lon="7.10142">
        <ele>14.42003</ele>
        <time>2020-07-17T01:21:40.002Z</time>
      </trkpt>
      <trkpt lat="62.96342" lon="7.10133">
        <ele>14.256009</ele>
        <time>2020-07-17T01:21:41.372Z</time>
      </trkpt>
      <trkpt lat="62.96357" lon="7.10119">
        <ele>13.984308</ele>
        <time>2020-07-17T01:21:43.377Z</time>
      </trkpt>
      <trkpt lat="62.96377" lon="7.10103">
        <ele>13.577784</ele>
        <time>2020-07-17T01:21:46.509Z</time>
      </trkpt>
      <trkpt lat="62.96386" lon="7.10095">
        <ele>13.357827</ele>
        <time>2020-07-17T01:21:47.736Z</time>
      </trkpt>
      <trkpt lat="62.96418" lon="7.10092">
        <ele>12.66733</ele>
        <time>2020-07-17T01:21:52.136Z</time>
      </trkpt>
      <trkpt lat="62.96421" lon="7.10093">
        <ele>12.598045</ele>
        <time>2020-07-17T01:21:52.499Z</time>
      </trkpt>
      <trkpt lat="62.96427" lon="7.10097">
        <ele>12.461592</ele>
        <time>2020-07-17T01:21:53.351Z</time>
      </trkpt>
      <trkpt lat="62.96437" lon="7.10103">
        <ele>12.247483</ele>
        <time>2020-07-17T01:21:54.823Z</time>
      </trkpt>
      <trkpt lat="62.96446" lon="7.10112">
        <ele>12.019239</ele>
        <time>2020-07-17T01:21:56.282Z</time>
      </trkpt>
      <trkpt lat="62.96455" lon="7.10122">
        <ele>11.79701</ele>
        <time>2020-07-17T01:21:57.550Z</time>
      </trkpt>
      <trkpt lat="62.96511" lon="7.10215">
        <ele>10.272085</ele>
        <time>2020-07-17T01:22:07.440Z</time>
      </trkpt>
      <trkpt lat="62.96543" lon="7.10284">
        <ele>9.833041</ele>
        <time>2020-07-17T01:22:14.454Z</time>
      </trkpt>
      <trkpt lat="62.96561" lon="7.1033">
        <ele>9.81326</ele>
        <time>2020-07-17T01:22:18.872Z</time>
      </trkpt>
      <trkpt lat="62.96566" lon="7.10342">
        <ele>9.808107</ele>
        <time>2020-07-17T01:22:20.312Z</time>
      </trkpt>
      <trkpt lat="62.96625" lon="7.10494">
        <ele>9.742521</ele>
        <time>2020-07-17T01:22:37.134Z</time>
      </trkpt>
      <trkpt lat="62.9663" lon="7.10505">
        <ele>9.737587</ele>
        <time>2020-07-17T01:22:38.611Z</time>
      </trkpt>
      <trkpt lat="62.96634" lon="7.10515">
        <ele>9.732749</ele>
        <time>2020-07-17T01:22:40.019Z</time>
      </trkpt>
      <trkpt lat="62.96662" lon="7.10563">
        <ele>9.847957</ele>
        <time>2020-07-17T01:22:46.876Z</time>
      </trkpt>
      <trkpt lat="62.96684" lon="7.10587">
        <ele>10.002152</ele>
        <time>2020-07-17T01:22:51.513Z</time>
      </trkpt>
      <trkpt lat="62.96686" lon="7.10589">
        <ele>10.021355</ele>
        <time>2020-07-17T01:22:52.266Z</time>
      </trkpt>
      <trkpt lat="62.9669" lon="7.10592">
        <ele>10.046059</ele>
        <time>2020-07-17T01:22:53.121Z</time>
      </trkpt>
      <trkpt lat="62.967" lon="7.10597">
        <ele>10.108906</ele>
        <time>2020-07-17T01:22:55.072Z</time>
      </trkpt>
      <trkpt lat="62.96715" lon="7.10599">
        <ele>10.204874</ele>
        <time>2020-07-17T01:22:57.870Z</time>
      </trkpt>
      <trkpt lat="62.96732" lon="7.10593">
        <ele>10.315187</ele>
        <time>2020-07-17T01:23:01.542Z</time>
      </trkpt>
      <trkpt lat="62.96758" lon="7.10583">
        <ele>10.485473</ele>
        <time>2020-07-17T01:23:06.751Z</time>
      </trkpt>
      <trkpt lat="62.96778" lon="7.10574">
        <ele>10.616493</ele>
        <time>2020-07-17T01:23:10.792Z</time>
      </trkpt>
      <trkpt lat="62.96805" lon="7.10563">
        <ele>10.794426</ele>
        <time>2020-07-17T01:23:16.361Z</time>
      </trkpt>
      <trkpt lat="62.96914" lon="7.10519">
        <ele>11.612289</ele>
        <time>2020-07-17T01:23:38.287Z</time>
      </trkpt>
      <trkpt lat="62.96927" lon="7.10517">
        <ele>11.710218</ele>
        <time>2020-07-17T01:23:40.999Z</time>
      </trkpt>
      <trkpt lat="62.96936" lon="7.10518">
        <ele>11.77268</ele>
        <time>2020-07-17T01:23:42.786Z</time>
      </trkpt>
      <trkpt lat="62.96987" lon="7.10549">
        <ele>12.174544</ele>
        <time>2020-07-17T01:23:53.721Z</time>
      </trkpt>
      <trkpt lat="62.97001" lon="7.10561">
        <ele>12.313955</ele>
        <time>2020-07-17T01:23:56.959Z</time>
      </trkpt>
      <trkpt lat="62.97042" lon="7.10598">
        <ele>12.777572</ele>
        <time>2020-07-17T01:24:06.180Z</time>
      </trkpt>
      <trkpt lat="62.9723" lon="7.10789">
        <ele>15.107825</ele>
        <time>2020-07-17T01:24:50.524Z</time>
      </trkpt>
      <trkpt lat="62.97387" lon="7.10925">
        <ele>16.682152</ele>
        <time>2020-07-17T01:25:27.875Z</time>
      </trkpt>
      <trkpt lat="62.97405" lon="7.10941">
        <ele>16.773902</ele>
        <time>2020-07-17T01:25:32.152Z</time>
      </trkpt>
      <trkpt lat="62.9742" lon="7.1096">
        <ele>16.855178</ele>
        <time>2020-07-17T01:25:35.150Z</time>
      </trkpt>
      <trkpt lat="62.97522" lon="7.1111">
        <ele>16.617565</ele>
        <time>2020-07-17T01:25:55.942Z</time>
      </trkpt>
      <trkpt lat="62.9759" lon="7.11209">
        <ele>15.649764</ele>
        <time>2020-07-17T01:26:07.811Z</time>
      </trkpt>
      <trkpt lat="62.97612" lon="7.11243">
        <ele>15.321274</ele>
        <time>2020-07-17T01:26:11.835Z</time>
      </trkpt>
      <trkpt lat="62.97628" lon="7.11271">
        <ele>15.078628</ele>
        <time>2020-07-17T01:26:14.829Z</time>
      </trkpt>
      <trkpt lat="62.97636" lon="7.1129">
        <ele>14.894121</ele>
        <time>2020-07-17T01:26:16.454Z</time>
      </trkpt>
      <trkpt lat="62.9764" lon="7.11303">
        <ele>14.762684</ele>
        <time>2020-07-17T01:26:17.551Z</time>
      </trkpt>
      <trkpt lat="62.97671" lon="7.11443">
        <ele>13.529981</ele>
        <time>2020-07-17T01:26:27.801Z</time>
      </trkpt>
      <trkpt lat="62.97695" lon="7.115">
        <ele>12.919905</ele>
        <time>2020-07-17T01:26:32.869Z</time>
      </trkpt>
      <trkpt lat="62.97778" lon="7.11655">
        <ele>10.736786</ele>
        <time>2020-07-17T01:26:48.474Z</time>
      </trkpt>
      <trkpt lat="62.97938" lon="7.11926">
        <ele>6.363035</ele>
        <time>2020-07-17T01:27:16.001Z</time>
      </trkpt>
      <trkpt lat="62.97944" lon="7.11937">
        <ele>6.207942</ele>
        <time>2020-07-17T01:27:17.050Z</time>
      </trkpt>
      <trkpt lat="62.97944" lon="7.11937">
        <ele>6.207942</ele>
        <time>2020-07-17T01:27:17.057Z</time>
      </trkpt>
      <trkpt lat="62.9795" lon="7.11955">
        <ele>6.002961</ele>
        <time>2020-07-17T01:27:18.493Z</time>
      </trkpt>
      <trkpt lat="62.97959" lon="7.12016">
        <ele>5.428197</ele>
        <time>2020-07-17T01:27:22.601Z</time>
      </trkpt>
      <trkpt lat="62.97957" lon="7.12138">
        <ele>4.326988</ele>
        <time>2020-07-17T01:27:30.885Z</time>
      </trkpt>
      <trkpt lat="62.97957" lon="7.12166">
        <ele>4.25362</ele>
        <time>2020-07-17T01:27:32.681Z</time>
      </trkpt>
      <trkpt lat="62.97957" lon="7.1218">
        <ele>4.249411</ele>
        <time>2020-07-17T01:27:33.600Z</time>
      </trkpt>
      <trkpt lat="62.9797" lon="7.12756">
        <ele>4.851949</ele>
        <time>2020-07-17T01:28:22.362Z</time>
      </trkpt>
      <trkpt lat="62.97967" lon="7.12813">
        <ele>5.042841</ele>
        <time>2020-07-17T01:28:28.007Z</time>
      </trkpt>
      <trkpt lat="62.97948" lon="7.12943">
        <ele>5.541802</ele>
        <time>2020-07-17T01:28:41.740Z</time>
      </trkpt>
      <trkpt lat="62.97942" lon="7.13023">
        <ele>6.087231</ele>
        <time>2020-07-17T01:28:50.112Z</time>
      </trkpt>
      <trkpt lat="62.97948" lon="7.13537">
        <ele>9.171738</ele>
        <time>2020-07-17T01:29:43.254Z</time>
      </trkpt>
      <trkpt lat="62.97941" lon="7.13703">
        <ele>9.999553</ele>
        <time>2020-07-17T01:29:58.733Z</time>
      </trkpt>
      <trkpt lat="62.9794" lon="7.13728">
        <ele>10.073403</ele>
        <time>2020-07-17T01:30:00.905Z</time>
      </trkpt>
      <trkpt lat="62.97931" lon="7.1384">
        <ele>9.927116</ele>
        <time>2020-07-17T01:30:10.199Z</time>
      </trkpt>
      <trkpt lat="62.97913" lon="7.14015">
        <ele>9.695911</ele>
        <time>2020-07-17T01:30:23.788Z</time>
      </trkpt>
      <trkpt lat="62.97912" lon="7.14022">
        <ele>9.687556</ele>
        <time>2020-07-17T01:30:24.207Z</time>
      </trkpt>
      <trkpt lat="62.97907" lon="7.14068">
        <ele>9.625749</ele>
        <time>2020-07-17T01:30:27.581Z</time>
      </trkpt>
      <trkpt lat="62.97899" lon="7.14253">
        <ele>9.373895</ele>
        <time>2020-07-17T01:30:41.249Z</time>
      </trkpt>
      <trkpt lat="62.97898" lon="7.14275">
        <ele>9.343631</ele>
        <time>2020-07-17T01:30:42.862Z</time>
      </trkpt>
      <trkpt lat="62.97896" lon="7.14302">
        <ele>9.306453</ele>
        <time>2020-07-17T01:30:44.833Z</time>
      </trkpt>
      <trkpt lat="62.97885" lon="7.14372">
        <ele>9.203769</ele>
        <time>2020-07-17T01:30:50.646Z</time>
      </trkpt>
      <trkpt lat="62.97871" lon="7.1442">
        <ele>9.126142</ele>
        <time>2020-07-17T01:30:55.474Z</time>
      </trkpt>
      <trkpt lat="62.97869" lon="7.14425">
        <ele>9.11657</ele>
        <time>2020-07-17T01:30:55.926Z</time>
      </trkpt>
      <trkpt lat="62.97857" lon="7.14455">
        <ele>9.062568</ele>
        <time>2020-07-17T01:30:59.406Z</time>
      </trkpt>
      <trkpt lat="62.97835" lon="7.14504">
        <ele>9.061206</ele>
        <time>2020-07-17T01:31:05.122Z</time>
      </trkpt>
      <trkpt lat="62.97819" lon="7.14537">
        <ele>9.092303</ele>
        <time>2020-07-17T01:31:09.105Z</time>
      </trkpt>
      <trkpt lat="62.97755" lon="7.14675">
        <ele>9.221671</ele>
        <time>2020-07-17T01:31:26.248Z</time>
      </trkpt>
      <trkpt lat="62.97705" lon="7.14789">
        <ele>9.142484</ele>
        <time>2020-07-17T01:31:38.978Z</time>
      </trkpt>
      <trkpt lat="62.97696" lon="7.14816">
        <ele>9.051396</ele>
        <time>2020-07-17T01:31:41.458Z</time>
      </trkpt>
      <trkpt lat="62.97694" lon="7.14822">
        <ele>9.031774</ele>
        <time>2020-07-17T01:31:41.964Z</time>
      </trkpt>
      <trkpt lat="62.97691" lon="7.14842">
        <ele>8.975331</ele>
        <time>2020-07-17T01:31:43.515Z</time>
      </trkpt>
      <trkpt lat="62.97678" lon="7.14912">
        <ele>8.768435</ele>
        <time>2020-07-17T01:31:48.953Z</time>
      </trkpt>
      <trkpt lat="62.97675" lon="7.14928">
        <ele>8.7213</ele>
        <time>2020-07-17T01:31:50.201Z</time>
      </trkpt>
      <trkpt lat="62.97671" lon="7.14948">
        <ele>8.661018</ele>
        <time>2020-07-17T01:31:51.760Z</time>
      </trkpt>
      <trkpt lat="62.97654" lon="7.15013">
        <ele>8.458264</ele>
        <time>2020-07-17T01:31:57.068Z</time>
      </trkpt>
      <trkpt lat="62.97647" lon="7.15038">
        <ele>8.378299</ele>
        <time>2020-07-17T01:31:59.162Z</time>
      </trkpt>
      <trkpt lat="62.97622" lon="7.1514">
        <ele>8.281863</ele>
        <time>2020-07-17T01:32:07.751Z</time>
      </trkpt>
      <trkpt lat="62.97616" lon="7.15158">
        <ele>8.310298</ele>
        <time>2020-07-17T01:32:09.414Z</time>
      </trkpt>
      <trkpt lat="62.97607" lon="7.15184">
        <ele>8.352364</ele>
        <time>2020-07-17T01:32:12.007Z</time>
      </trkpt>
      <trkpt lat="62.97589" lon="7.15231">
        <ele>8.431266</ele>
        <time>2020-07-17T01:32:16.909Z</time>
      </trkpt>
      <trkpt lat="62.97582" lon="7.15248">
        <ele>8.461024</ele>
        <time>2020-07-17T01:32:18.857Z</time>
      </trkpt>
      <trkpt lat="62.9758" lon="7.15253">
        <ele>8.469443</ele>
        <time>2020-07-17T01:32:19.412Z</time>
      </trkpt>
      <trkpt lat="62.97578" lon="7.15258">
        <ele>8.477666</ele>
        <time>2020-07-17T01:32:19.957Z</time>
      </trkpt>
      <trkpt lat="62.97564" lon="7.15294">
        <ele>8.538056</ele>
        <time>2020-07-17T01:32:23.966Z</time>
      </trkpt>
      <trkpt lat="62.97489" lon="7.15524">
        <ele>9.669309</ele>
        <time>2020-07-17T01:32:51.295Z</time>
      </trkpt>
      <trkpt lat="62.97439" lon="7.15701">
        <ele>11.065281</ele>
        <time>2020-07-17T01:33:13.382Z</time>
      </trkpt>
      <trkpt lat="62.97428" lon="7.15775">
        <ele>11.613186</ele>
        <time>2020-07-17T01:33:21.642Z</time>
      </trkpt>
      <trkpt lat="62.97411" lon="7.15993">
        <ele>13.334264</ele>
        <time>2020-07-17T01:33:45.489Z</time>
      </trkpt>
      <trkpt lat="62.97402" lon="7.16069">
        <ele>13.937644</ele>
        <time>2020-07-17T01:33:53.592Z</time>
      </trkpt>
      <trkpt lat="62.97399" lon="7.16094">
        <ele>14.144066</ele>
        <time>2020-07-17T01:33:56.314Z</time>
      </trkpt>
      <trkpt lat="62.97394" lon="7.16126">
        <ele>14.408624</ele>
        <time>2020-07-17T01:33:59.885Z</time>
      </trkpt>
      <trkpt lat="62.97393" lon="7.16129">
        <ele>14.43194</ele>
        <time>2020-07-17T01:34:00.193Z</time>
      </trkpt>
      <trkpt lat="62.97395" lon="7.16142">
        <ele>14.515549</ele>
        <time>2020-07-17T01:34:01.804Z</time>
      </trkpt>
      <trkpt lat="62.97402" lon="7.16175">
        <ele>14.720314</ele>
        <time>2020-07-17T01:34:05.385Z</time>
      </trkpt>
      <trkpt lat="62.97407" lon="7.16171">
        <ele>14.795069</ele>
        <time>2020-07-17T01:34:06.831Z</time>
      </trkpt>
      <trkpt lat="62.97409" lon="7.16185">
        <ele>14.88187</ele>
        <time>2020-07-17T01:34:08.714Z</time>
      </trkpt>
      <trkpt lat="62.97411" lon="7.16197">
        <ele>14.950108</ele>
        <time>2020-07-17T01:34:10.276Z</time>
      </trkpt>
      <trkpt lat="62.97415" lon="7.16189">
        <ele>15.019243</ele>
        <time>2020-07-17T01:34:11.593Z</time>
      </trkpt>
      <trkpt lat="62.97444" lon="7.16176">
        <ele>15.406229</ele>
        <time>2020-07-17T01:34:18.324Z</time>
      </trkpt>
      <trkpt lat="62.975" lon="7.16176">
        <ele>16.110397</ele>
        <time>2020-07-17T01:34:30.430Z</time>
      </trkpt>
      <trkpt lat="62.97502" lon="7.16175">
        <ele>16.145232</ele>
        <time>2020-07-17T01:34:31.147Z</time>
      </trkpt>
      <trkpt lat="62.97506" lon="7.16173">
        <ele>16.188745</ele>
        <time>2020-07-17T01:34:31.855Z</time>
      </trkpt>
      <trkpt lat="62.97541" lon="7.16152">
        <ele>16.65831</ele>
        <time>2020-07-17T01:34:39.653Z</time>
      </trkpt>
      <trkpt lat="62.97589" lon="7.16131">
        <ele>16.770524</ele>
        <time>2020-07-17T01:34:49.358Z</time>
      </trkpt>
      <trkpt lat="62.97614" lon="7.16122">
        <ele>16.796751</ele>
        <time>2020-07-17T01:34:54.484Z</time>
      </trkpt>
      <trkpt lat="62.97667" lon="7.16106">
        <ele>16.851186</ele>
        <time>2020-07-17T01:35:04.186Z</time>
      </trkpt>
      <trkpt lat="62.97794" lon="7.16071">
        <ele>16.049932</ele>
        <time>2020-07-17T01:35:24.624Z</time>
      </trkpt>
      <trkpt lat="62.97794" lon="7.16058">
        <ele>15.977902</ele>
        <time>2020-07-17T01:35:25.484Z</time>
      </trkpt>
      <trkpt lat="62.97802" lon="7.16056">
        <ele>15.870914</ele>
        <time>2020-07-17T01:35:26.663Z</time>
      </trkpt>
      <trkpt lat="62.9788" lon="7.1602">
        <ele>14.901459</ele>
        <time>2020-07-17T01:35:38.361Z</time>
      </trkpt>
      <trkpt lat="62.97909" lon="7.16008">
        <ele>14.69382</ele>
        <time>2020-07-17T01:35:42.686Z</time>
      </trkpt>
      <trkpt lat="62.97938" lon="7.15999">
        <ele>14.641359</ele>
        <time>2020-07-17T01:35:47.150Z</time>
      </trkpt>
      <trkpt lat="62.9799" lon="7.15988">
        <ele>14.546692</ele>
        <time>2020-07-17T01:35:55.880Z</time>
      </trkpt>
      <trkpt lat="62.98007" lon="7.15986">
        <ele>14.517472</ele>
        <time>2020-07-17T01:35:58.495Z</time>
      </trkpt>
      <trkpt lat="62.98028" lon="7.15984">
        <ele>14.478411</ele>
        <time>2020-07-17T01:36:02.624Z</time>
      </trkpt>
      <trkpt lat="62.98222" lon="7.15981">
        <ele>15.878204</ele>
        <time>2020-07-17T01:36:44.433Z</time>
      </trkpt>
      <trkpt lat="62.98253" lon="7.15992">
        <ele>16.19215</ele>
        <time>2020-07-17T01:36:50.886Z</time>
      </trkpt>
      <trkpt lat="62.98307" lon="7.16029">
        <ele>16.020021</ele>
        <time>2020-07-17T01:37:01.428Z</time>
      </trkpt>
      <trkpt lat="62.98325" lon="7.16043">
        <ele>15.96002</ele>
        <time>2020-07-17T01:37:04.866Z</time>
      </trkpt>
      <trkpt lat="62.98347" lon="7.16058">
        <ele>15.886869</ele>
        <time>2020-07-17T01:37:08.543Z</time>
      </trkpt>
      <trkpt lat="62.98398" lon="7.16086">
        <ele>15.719577</ele>
        <time>2020-07-17T01:37:17.080Z</time>
      </trkpt>
      <trkpt lat="62.98424" lon="7.161">
        <ele>15.633344</ele>
        <time>2020-07-17T01:37:21.242Z</time>
      </trkpt>
      <trkpt lat="62.98432" lon="7.16105">
        <ele>15.573744</ele>
        <time>2020-07-17T01:37:22.562Z</time>
      </trkpt>
      <trkpt lat="62.9846" lon="7.16126">
        <ele>15.336862</ele>
        <time>2020-07-17T01:37:26.909Z</time>
      </trkpt>
      <trkpt lat="62.98469" lon="7.16135">
        <ele>15.249689</ele>
        <time>2020-07-17T01:37:28.509Z</time>
      </trkpt>
      <trkpt lat="62.98475" lon="7.16139">
        <ele>15.204825</ele>
        <time>2020-07-17T01:37:29.328Z</time>
      </trkpt>
      <trkpt lat="62.98477" lon="7.16117">
        <ele>15.120055</ele>
        <time>2020-07-17T01:37:30.874Z</time>
      </trkpt>
      <trkpt lat="62.98485" lon="7.16091">
        <ele>15.003688</ele>
        <time>2020-07-17T01:37:33.269Z</time>
      </trkpt>
      <trkpt lat="62.98501" lon="7.16082">
        <ele>14.866524</ele>
        <time>2020-07-17T01:37:35.965Z</time>
      </trkpt>
      <trkpt lat="62.98528" lon="7.16079">
        <ele>14.648643</ele>
        <time>2020-07-17T01:37:40.380Z</time>
      </trkpt>
      <trkpt lat="62.98554" lon="7.16089">
        <ele>14.431358</ele>
        <time>2020-07-17T01:37:44.784Z</time>
      </trkpt>
      <trkpt lat="62.98567" lon="7.161">
        <ele>14.311191</ele>
        <time>2020-07-17T01:37:47.301Z</time>
      </trkpt>
      <trkpt lat="62.98603" lon="7.16135">
        <ele>14.154673</ele>
        <time>2020-07-17T01:37:54.140Z</time>
      </trkpt>
      <trkpt lat="62.98635" lon="7.16178">
        <ele>14.163527</ele>
        <time>2020-07-17T01:38:00.924Z</time>
      </trkpt>
      <trkpt lat="62.98699" lon="7.16291">
        <ele>14.183009</ele>
        <time>2020-07-17T01:38:16.448Z</time>
      </trkpt>
      <trkpt lat="62.98781" lon="7.16386">
        <ele>14.360527</ele>
        <time>2020-07-17T01:38:34.869Z</time>
      </trkpt>
      <trkpt lat="62.9879" lon="7.16398">
        <ele>14.394049</ele>
        <time>2020-07-17T01:38:36.838Z</time>
      </trkpt>
      <trkpt lat="62.98799" lon="7.16408">
        <ele>14.428213</ele>
        <time>2020-07-17T01:38:38.848Z</time>
      </trkpt>
      <trkpt lat="62.98817" lon="7.16427">
        <ele>14.492845</ele>
        <time>2020-07-17T01:38:42.892Z</time>
      </trkpt>
      <trkpt lat="62.98833" lon="7.1645">
        <ele>14.554246</ele>
        <time>2020-07-17T01:38:46.515Z</time>
      </trkpt>
      <trkpt lat="62.98836" lon="7.16462">
        <ele>14.575098</ele>
        <time>2020-07-17T01:38:47.958Z</time>
      </trkpt>
      <trkpt lat="62.98857" lon="7.16532">
        <ele>14.69816</ele>
        <time>2020-07-17T01:38:55.560Z</time>
      </trkpt>
      <trkpt lat="62.9889" lon="7.16742">
        <ele>14.7725</ele>
        <time>2020-07-17T01:39:14.531Z</time>
      </trkpt>
      <trkpt lat="62.9891" lon="7.16813">
        <ele>14.770401</ele>
        <time>2020-07-17T01:39:21.507Z</time>
      </trkpt>
      <trkpt lat="62.98918" lon="7.16835">
        <ele>14.769703</ele>
        <time>2020-07-17T01:39:23.977Z</time>
      </trkpt>
      <trkpt lat="62.9892" lon="7.16842">
        <ele>14.769505</ele>
        <time>2020-07-17T01:39:24.524Z</time>
      </trkpt>
      <trkpt lat="62.98939" lon="7.16874">
        <ele>14.76821</ele>
        <time>2020-07-17T01:39:28.794Z</time>
      </trkpt>
      <trkpt lat="62.98988" lon="7.16928">
        <ele>14.816775</ele>
        <time>2020-07-17T01:39:38.886Z</time>
      </trkpt>
      <trkpt lat="62.99" lon="7.16942">
        <ele>14.839197</ele>
        <time>2020-07-17T01:39:41.263Z</time>
      </trkpt>
      <trkpt lat="62.99007" lon="7.16957">
        <ele>14.855434</ele>
        <time>2020-07-17T01:39:43.222Z</time>
      </trkpt>
      <trkpt lat="62.9904" lon="7.17062">
        <ele>14.951372</ele>
        <time>2020-07-17T01:39:53.755Z</time>
      </trkpt>
      <trkpt lat="62.99046" lon="7.17113">
        <ele>14.991424</ele>
        <time>2020-07-17T01:39:58.915Z</time>
      </trkpt>
      <trkpt lat="62.99043" lon="7.17371">
        <ele>15.503033</ele>
        <time>2020-07-17T01:40:22.587Z</time>
      </trkpt>
      <trkpt lat="62.99032" lon="7.17374">
        <ele>15.571325</ele>
        <time>2020-07-17T01:40:24.738Z</time>
      </trkpt>
      <trkpt lat="62.99026" lon="7.17376">
        <ele>15.604253</ele>
        <time>2020-07-17T01:40:26.296Z</time>
      </trkpt>
      <trkpt lat="62.9904" lon="7.17465">
        <ele>15.859534</ele>
        <time>2020-07-17T01:40:34.623Z</time>
      </trkpt>
      <trkpt lat="62.9905" lon="7.17541">
        <ele>16.077435</ele>
        <time>2020-07-17T01:40:41.826Z</time>
      </trkpt>
      <trkpt lat="62.99057" lon="7.176">
        <ele>16.329023</ele>
        <time>2020-07-17T01:40:47.291Z</time>
      </trkpt>
      <trkpt lat="62.99062" lon="7.17647">
        <ele>16.578099</ele>
        <time>2020-07-17T01:40:51.335Z</time>
      </trkpt>
      <trkpt lat="62.99069" lon="7.17722">
        <ele>16.97687</ele>
        <time>2020-07-17T01:40:58.465Z</time>
      </trkpt>
      <trkpt lat="62.99073" lon="7.17769">
        <ele>17.219105</ele>
        <time>2020-07-17T01:41:03.149Z</time>
      </trkpt>
      <trkpt lat="62.99081" lon="7.1802">
        <ele>18.526911</ele>
        <time>2020-07-17T01:41:29.333Z</time>
      </trkpt>
      <trkpt lat="62.99081" lon="7.18046">
        <ele>18.665687</ele>
        <time>2020-07-17T01:41:32.039Z</time>
      </trkpt>
      <trkpt lat="62.99081" lon="7.18081">
        <ele>18.852512</ele>
        <time>2020-07-17T01:41:36.367Z</time>
      </trkpt>
      <trkpt lat="62.99075" lon="7.18304">
        <ele>20.029861</ele>
        <time>2020-07-17T01:41:58.136Z</time>
      </trkpt>
      <trkpt lat="62.99076" lon="7.18334">
        <ele>20.187623</ele>
        <time>2020-07-17T01:42:01.068Z</time>
      </trkpt>
      <trkpt lat="62.99082" lon="7.18335">
        <ele>20.257366</ele>
        <time>2020-07-17T01:42:02.177Z</time>
      </trkpt>
      <trkpt lat="62.99086" lon="7.18343">
        <ele>20.237644</ele>
        <time>2020-07-17T01:42:03.337Z</time>
      </trkpt>
      <trkpt lat="62.99089" lon="7.18378">
        <ele>20.047324</ele>
        <time>2020-07-17T01:42:06.384Z</time>
      </trkpt>
      <trkpt lat="62.99091" lon="7.18428">
        <ele>19.770958</ele>
        <time>2020-07-17T01:42:10.510Z</time>
      </trkpt>
      <trkpt lat="62.99093" lon="7.18456">
        <ele>19.615318</ele>
        <time>2020-07-17T01:42:12.543Z</time>
      </trkpt>
      <trkpt lat="62.99127" lon="7.18647">
        <ele>18.50387</ele>
        <time>2020-07-17T01:42:26.954Z</time>
      </trkpt>
      <trkpt lat="62.99145" lon="7.18793">
        <ele>17.481118</ele>
        <time>2020-07-17T01:42:36.668Z</time>
      </trkpt>
      <trkpt lat="62.99152" lon="7.18896">
        <ele>16.661429</ele>
        <time>2020-07-17T01:42:43.778Z</time>
      </trkpt>
      <trkpt lat="62.99154" lon="7.18942">
        <ele>16.295555</ele>
        <time>2020-07-17T01:42:46.892Z</time>
      </trkpt>
      <trkpt lat="62.99156" lon="7.19049">
        <ele>15.459118</ele>
        <time>2020-07-17T01:42:54.441Z</time>
      </trkpt>
      <trkpt lat="62.99154" lon="7.191">
        <ele>15.056155</ele>
        <time>2020-07-17T01:42:58.039Z</time>
      </trkpt>
      <trkpt lat="62.99153" lon="7.19102">
        <ele>15.035783</ele>
        <time>2020-07-17T01:42:58.187Z</time>
      </trkpt>
      <trkpt lat="62.9915" lon="7.19105">
        <ele>15.009132</ele>
        <time>2020-07-17T01:42:58.795Z</time>
      </trkpt>
      <trkpt lat="62.99145" lon="7.19107">
        <ele>14.991095</ele>
        <time>2020-07-17T01:42:59.788Z</time>
      </trkpt>
      <trkpt lat="62.99147" lon="7.19174">
        <ele>14.890198</ele>
        <time>2020-07-17T01:43:04.423Z</time>
      </trkpt>
      <trkpt lat="62.99144" lon="7.19364">
        <ele>14.601773</ele>
        <time>2020-07-17T01:43:19.216Z</time>
      </trkpt>
      <trkpt lat="62.99123" lon="7.19556">
        <ele>14.634972</ele>
        <time>2020-07-17T01:43:35.835Z</time>
      </trkpt>
      <trkpt lat="62.99117" lon="7.19595">
        <ele>14.75222</ele>
        <time>2020-07-17T01:43:39.367Z</time>
      </trkpt>
      <trkpt lat="62.99112" lon="7.19619">
        <ele>14.828309</ele>
        <time>2020-07-17T01:43:41.680Z</time>
      </trkpt>
      <trkpt lat="62.99064" lon="7.19807">
        <ele>15.448531</ele>
        <time>2020-07-17T01:44:01.197Z</time>
      </trkpt>
      <trkpt lat="62.98999" lon="7.20032">
        <ele>17.105642</ele>
        <time>2020-07-17T01:44:28.282Z</time>
      </trkpt>
      <trkpt lat="62.98974" lon="7.20114">
        <ele>17.772178</ele>
        <time>2020-07-17T01:44:38.812Z</time>
      </trkpt>
      <trkpt lat="62.98947" lon="7.20224">
        <ele>18.598723</ele>
        <time>2020-07-17T01:44:52.003Z</time>
      </trkpt>
      <trkpt lat="62.98932" lon="7.20295">
        <ele>19.110278</ele>
        <time>2020-07-17T01:45:00.381Z</time>
      </trkpt>
      <trkpt lat="62.98927" lon="7.20322">
        <ele>19.302258</ele>
        <time>2020-07-17T01:45:03.569Z</time>
      </trkpt>
      <trkpt lat="62.98901" lon="7.20447">
        <ele>20.189496</ele>
        <time>2020-07-17T01:45:17.576Z</time>
      </trkpt>
      <trkpt lat="62.98893" lon="7.20488">
        <ele>20.483115</ele>
        <time>2020-07-17T01:45:22.109Z</time>
      </trkpt>
      <trkpt lat="62.98872" lon="7.20596">
        <ele>20.781099</ele>
        <time>2020-07-17T01:45:33.274Z</time>
      </trkpt>
      <trkpt lat="62.98864" lon="7.20678">
        <ele>20.751391</ele>
        <time>2020-07-17T01:45:40.610Z</time>
      </trkpt>
      <trkpt lat="62.98861" lon="7.20722">
        <ele>20.735206</ele>
        <time>2020-07-17T01:45:44.665Z</time>
      </trkpt>
      <trkpt lat="62.98854" lon="7.20809">
        <ele>20.703729</ele>
        <time>2020-07-17T01:45:51.365Z</time>
      </trkpt>
      <trkpt lat="62.98845" lon="7.2095">
        <ele>20.377077</ele>
        <time>2020-07-17T01:46:01.232Z</time>
      </trkpt>
      <trkpt lat="62.98839" lon="7.21054">
        <ele>19.387583</ele>
        <time>2020-07-17T01:46:08.326Z</time>
      </trkpt>
      <trkpt lat="62.98841" lon="7.21055">
        <ele>19.354481</ele>
        <time>2020-07-17T01:46:08.496Z</time>
      </trkpt>
      <trkpt lat="62.98871" lon="7.21063">
        <ele>18.719455</ele>
        <time>2020-07-17T01:46:13.010Z</time>
      </trkpt>
      <trkpt lat="62.98911" lon="7.21093">
        <ele>17.84917</ele>
        <time>2020-07-17T01:46:18.638Z</time>
      </trkpt>
      <trkpt lat="62.98978" lon="7.21158">
        <ele>16.448493</ele>
        <time>2020-07-17T01:46:28.600Z</time>
      </trkpt>
      <trkpt lat="62.99007" lon="7.212">
        <ele>15.868246</ele>
        <time>2020-07-17T01:46:33.484Z</time>
      </trkpt>
      <trkpt lat="62.99028" lon="7.21258">
        <ele>15.315967</ele>
        <time>2020-07-17T01:46:38.214Z</time>
      </trkpt>
      <trkpt lat="62.99049" lon="7.21344">
        <ele>14.567985</ele>
        <time>2020-07-17T01:46:44.757Z</time>
      </trkpt>
      <trkpt lat="62.99101" lon="7.21644">
        <ele>13.460687</ele>
        <time>2020-07-17T01:47:08.336Z</time>
      </trkpt>
      <trkpt lat="62.99106" lon="7.2167">
        <ele>13.402084</ele>
        <time>2020-07-17T01:47:10.646Z</time>
      </trkpt>
      <trkpt lat="62.99117" lon="7.21714">
        <ele>13.302573</ele>
        <time>2020-07-17T01:47:14.612Z</time>
      </trkpt>
      <trkpt lat="62.99156" lon="7.21867">
        <ele>12.906898</ele>
        <time>2020-07-17T01:47:28.679Z</time>
      </trkpt>
      <trkpt lat="62.99182" lon="7.2193">
        <ele>12.699869</ele>
        <time>2020-07-17T01:47:35.274Z</time>
      </trkpt>
      <trkpt lat="62.99222" lon="7.21979">
        <ele>12.452164</ele>
        <time>2020-07-17T01:47:42.791Z</time>
      </trkpt>
      <trkpt lat="62.99257" lon="7.21999">
        <ele>12.257385</ele>
        <time>2020-07-17T01:47:48.415Z</time>
      </trkpt>
      <trkpt lat="62.99267" lon="7.22002">
        <ele>12.203206</ele>
        <time>2020-07-17T01:47:49.970Z</time>
      </trkpt>
      <trkpt lat="62.99294" lon="7.2201">
        <ele>11.852478</ele>
        <time>2020-07-17T01:47:54.110Z</time>
      </trkpt>
      <trkpt lat="62.99337" lon="7.2202">
        <ele>11.218056</ele>
        <time>2020-07-17T01:48:00.707Z</time>
      </trkpt>
      <trkpt lat="62.99352" lon="7.22021">
        <ele>11.005133</ele>
        <time>2020-07-17T01:48:02.862Z</time>
      </trkpt>
      <trkpt lat="62.99364" lon="7.22022">
        <ele>10.827148</ele>
        <time>2020-07-17T01:48:04.634Z</time>
      </trkpt>
      <trkpt lat="62.99404" lon="7.22021">
        <ele>10.251473</ele>
        <time>2020-07-17T01:48:10.338Z</time>
      </trkpt>
      <trkpt lat="62.99427" lon="7.22022">
        <ele>9.910306</ele>
        <time>2020-07-17T01:48:13.704Z</time>
      </trkpt>
      <trkpt lat="62.99458" lon="7.22039">
        <ele>9.462854</ele>
        <time>2020-07-17T01:48:18.360Z</time>
      </trkpt>
      <trkpt lat="62.99493" lon="7.22093">
        <ele>8.958343</ele>
        <time>2020-07-17T01:48:24.544Z</time>
      </trkpt>
      <trkpt lat="62.99495" lon="7.22095">
        <ele>8.923211</ele>
        <time>2020-07-17T01:48:24.933Z</time>
      </trkpt>
      <trkpt lat="62.99499" lon="7.22098">
        <ele>8.876226</ele>
        <time>2020-07-17T01:48:25.524Z</time>
      </trkpt>
      <trkpt lat="62.99508" lon="7.22108">
        <ele>8.751078</ele>
        <time>2020-07-17T01:48:27.045Z</time>
      </trkpt>
      <trkpt lat="62.99554" lon="7.22151">
        <ele>8.151702</ele>
        <time>2020-07-17T01:48:34.715Z</time>
      </trkpt>
      <trkpt lat="62.99626" lon="7.2224">
        <ele>7.249339</ele>
        <time>2020-07-17T01:48:47.490Z</time>
      </trkpt>
      <trkpt lat="62.99715" lon="7.22366">
        <ele>6.426394</ele>
        <time>2020-07-17T01:49:04.656Z</time>
      </trkpt>
      <trkpt lat="62.99737" lon="7.22398">
        <ele>6.222076</ele>
        <time>2020-07-17T01:49:08.816Z</time>
      </trkpt>
      <trkpt lat="62.9975" lon="7.22421">
        <ele>6.091064</ele>
        <time>2020-07-17T01:49:11.482Z</time>
      </trkpt>
      <trkpt lat="62.99765" lon="7.2246">
        <ele>5.905704</ele>
        <time>2020-07-17T01:49:15.059Z</time>
      </trkpt>
      <trkpt lat="62.99776" lon="7.22508">
        <ele>5.700639</ele>
        <time>2020-07-17T01:49:18.894Z</time>
      </trkpt>
      <trkpt lat="62.99777" lon="7.22516">
        <ele>5.667732</ele>
        <time>2020-07-17T01:49:19.508Z</time>
      </trkpt>
      <trkpt lat="62.99784" lon="7.22554">
        <ele>5.51408</ele>
        <time>2020-07-17T01:49:22.442Z</time>
      </trkpt>
      <trkpt lat="62.99791" lon="7.22594">
        <ele>5.35141</ele>
        <time>2020-07-17T01:49:25.458Z</time>
      </trkpt>
      <trkpt lat="62.99809" lon="7.22696">
        <ele>4.938053</ele>
        <time>2020-07-17T01:49:33.286Z</time>
      </trkpt>
      <trkpt lat="62.99813" lon="7.22721">
        <ele>4.839897</ele>
        <time>2020-07-17T01:49:35.092Z</time>
      </trkpt>
      <trkpt lat="62.99821" lon="7.22828">
        <ele>4.512904</ele>
        <time>2020-07-17T01:49:42.931Z</time>
      </trkpt>
      <trkpt lat="62.99815" lon="7.2294">
        <ele>4.592388</ele>
        <time>2020-07-17T01:49:51.317Z</time>
      </trkpt>
      <trkpt lat="62.99812" lon="7.22974">
        <ele>4.617586</ele>
        <time>2020-07-17T01:49:54.075Z</time>
      </trkpt>
      <trkpt lat="62.9981" lon="7.2302">
        <ele>4.649641</ele>
        <time>2020-07-17T01:49:57.899Z</time>
      </trkpt>
      <trkpt lat="62.99815" lon="7.23114">
        <ele>4.716311</ele>
        <time>2020-07-17T01:50:06.375Z</time>
      </trkpt>
      <trkpt lat="62.99835" lon="7.23238">
        <ele>5.05984</ele>
        <time>2020-07-17T01:50:18.857Z</time>
      </trkpt>
      <trkpt lat="62.99841" lon="7.23279">
        <ele>5.342634</ele>
        <time>2020-07-17T01:50:22.983Z</time>
      </trkpt>
      <trkpt lat="62.99844" lon="7.23311">
        <ele>5.557416</ele>
        <time>2020-07-17T01:50:26.291Z</time>
      </trkpt>
      <trkpt lat="62.99848" lon="7.23347">
        <ele>5.803922</ele>
        <time>2020-07-17T01:50:30.140Z</time>
      </trkpt>
      <trkpt lat="62.99855" lon="7.23413">
        <ele>6.247904</ele>
        <time>2020-07-17T01:50:37.130Z</time>
      </trkpt>
      <trkpt lat="62.99876" lon="7.23595">
        <ele>7.486587</ele>
        <time>2020-07-17T01:50:57.108Z</time>
      </trkpt>
      <trkpt lat="62.99891" lon="7.23724">
        <ele>8.397573</ele>
        <time>2020-07-17T01:51:11.304Z</time>
      </trkpt>
      <trkpt lat="62.99901" lon="7.23791">
        <ele>8.874978</ele>
        <time>2020-07-17T01:51:18.393Z</time>
      </trkpt>
      <trkpt lat="62.99911" lon="7.23862">
        <ele>9.378616</ele>
        <time>2020-07-17T01:51:25.861Z</time>
      </trkpt>
      <trkpt lat="62.99916" lon="7.23898">
        <ele>9.638442</ele>
        <time>2020-07-17T01:51:29.782Z</time>
      </trkpt>
      <trkpt lat="62.99961" lon="7.24204">
        <ele>11.519829</ele>
        <time>2020-07-17T01:52:01.882Z</time>
      </trkpt>
      <trkpt lat="62.99981" lon="7.24338">
        <ele>12.306772</ele>
        <time>2020-07-17T01:52:15.514Z</time>
      </trkpt>
      <trkpt lat="62.99997" lon="7.24444">
        <ele>12.818299</ele>
        <time>2020-07-17T01:52:26.370Z</time>
      </trkpt>
      <trkpt lat="63.00113" lon="7.25236">
        <ele>15.961374</ele>
        <time>2020-07-17T01:53:45.594Z</time>
      </trkpt>
      <trkpt lat="63.00118" lon="7.25269">
        <ele>15.989692</ele>
        <time>2020-07-17T01:53:48.483Z</time>
      </trkpt>
      <trkpt lat="63.00127" lon="7.25331">
        <ele>16.043492</ele>
        <time>2020-07-17T01:53:53.932Z</time>
      </trkpt>
      <trkpt lat="63.00175" lon="7.2565">
        <ele>15.251868</ele>
        <time>2020-07-17T01:54:18.571Z</time>
      </trkpt>
      <trkpt lat="63.00192" lon="7.25742">
        <ele>14.78252</ele>
        <time>2020-07-17T01:54:25.390Z</time>
      </trkpt>
      <trkpt lat="63.00214" lon="7.25865">
        <ele>14.108061</ele>
        <time>2020-07-17T01:54:34.223Z</time>
      </trkpt>
      <trkpt lat="63.00305" lon="7.26359">
        <ele>10.914454</ele>
        <time>2020-07-17T01:55:10.050Z</time>
      </trkpt>
      <trkpt lat="63.00337" lon="7.26531">
        <ele>10.048479</ele>
        <time>2020-07-17T01:55:23.390Z</time>
      </trkpt>
      <trkpt lat="63.00337" lon="7.26532">
        <ele>10.043794</ele>
        <time>2020-07-17T01:55:23.450Z</time>
      </trkpt>
      <trkpt lat="63.00373" lon="7.26728">
        <ele>9.441616</ele>
        <time>2020-07-17T01:55:39.316Z</time>
      </trkpt>
      <trkpt lat="63.0038" lon="7.26764">
        <ele>9.352597</ele>
        <time>2020-07-17T01:55:42.138Z</time>
      </trkpt>
      <trkpt lat="63.00385" lon="7.26795">
        <ele>9.273498</ele>
        <time>2020-07-17T01:55:44.693Z</time>
      </trkpt>
      <trkpt lat="63.00388" lon="7.26813">
        <ele>9.228799</ele>
        <time>2020-07-17T01:55:46.127Z</time>
      </trkpt>
      <trkpt lat="63.00393" lon="7.26841">
        <ele>9.157815</ele>
        <time>2020-07-17T01:55:48.372Z</time>
      </trkpt>
      <trkpt lat="63.00418" lon="7.26981">
        <ele>8.85851</ele>
        <time>2020-07-17T01:55:59.672Z</time>
      </trkpt>
      <trkpt lat="63.00448" lon="7.27141">
        <ele>8.674306</ele>
        <time>2020-07-17T01:56:12.689Z</time>
      </trkpt>
      <trkpt lat="63.00489" lon="7.27368">
        <ele>8.635146</ele>
        <time>2020-07-17T01:56:32.207Z</time>
      </trkpt>
      <trkpt lat="63.00494" lon="7.27399">
        <ele>8.71864</ele>
        <time>2020-07-17T01:56:35.162Z</time>
      </trkpt>
      <trkpt lat="63.00549" lon="7.27812">
        <ele>10.088273</ele>
        <time>2020-07-17T01:57:14.764Z</time>
      </trkpt>
      <trkpt lat="63.00589" lon="7.28074">
        <ele>11.442774</ele>
        <time>2020-07-17T01:57:41.764Z</time>
      </trkpt>
      <trkpt lat="63.00608" lon="7.28312">
        <ele>12.929614</ele>
        <time>2020-07-17T01:58:06.409Z</time>
      </trkpt>
      <trkpt lat="63.00623" lon="7.28409">
        <ele>13.559991</ele>
        <time>2020-07-17T01:58:16.464Z</time>
      </trkpt>
      <trkpt lat="63.00628" lon="7.28439">
        <ele>13.752262</ele>
        <time>2020-07-17T01:58:19.694Z</time>
      </trkpt>
      <trkpt lat="63.00635" lon="7.2849">
        <ele>14.076379</ele>
        <time>2020-07-17T01:58:25.234Z</time>
      </trkpt>
      <trkpt lat="63.00669" lon="7.28749">
        <ele>15.707069</ele>
        <time>2020-07-17T01:58:52.806Z</time>
      </trkpt>
      <trkpt lat="63.0067" lon="7.28762">
        <ele>15.784641</ele>
        <time>2020-07-17T01:58:53.991Z</time>
      </trkpt>
      <trkpt lat="63.00671" lon="7.28777">
        <ele>15.878871</ele>
        <time>2020-07-17T01:58:55.854Z</time>
      </trkpt>
      <trkpt lat="63.00661" lon="7.289">
        <ele>16.472416</ele>
        <time>2020-07-17T01:59:07.411Z</time>
      </trkpt>
      <trkpt lat="63.00646" lon="7.28981">
        <ele>16.802532</ele>
        <time>2020-07-17T01:59:15.553Z</time>
      </trkpt>
      <trkpt lat="63.00634" lon="7.29089">
        <ele>17.22801</ele>
        <time>2020-07-17T01:59:26.279Z</time>
      </trkpt>
      <trkpt lat="63.00601" lon="7.2927">
        <ele>17.819121</ele>
        <time>2020-07-17T01:59:43.613Z</time>
      </trkpt>
      <trkpt lat="63.00598" lon="7.29344">
        <ele>17.938668</ele>
        <time>2020-07-17T01:59:50.093Z</time>
      </trkpt>
      <trkpt lat="63.00604" lon="7.29349">
        <ele>17.962098</ele>
        <time>2020-07-17T01:59:51.705Z</time>
      </trkpt>
      <trkpt lat="63.00654" lon="7.29413">
        <ele>18.168329</ele>
        <time>2020-07-17T02:00:02.800Z</time>
      </trkpt>
      <trkpt lat="63.00693" lon="7.29499">
        <ele>18.2786</ele>
        <time>2020-07-17T02:00:13.223Z</time>
      </trkpt>
      <trkpt lat="63.00715" lon="7.29583">
        <ele>17.623709</ele>
        <time>2020-07-17T02:00:20.477Z</time>
      </trkpt>
      <trkpt lat="63.0074" lon="7.29735">
        <ele>16.534512</ele>
        <time>2020-07-17T02:00:31.500Z</time>
      </trkpt>
      <trkpt lat="63.00746" lon="7.29771">
        <ele>16.274334</ele>
        <time>2020-07-17T02:00:33.990Z</time>
      </trkpt>
      <trkpt lat="63.00756" lon="7.29842">
        <ele>15.772017</ele>
        <time>2020-07-17T02:00:38.709Z</time>
      </trkpt>
      <trkpt lat="63.00825" lon="7.30299">
        <ele>7.770426</ele>
        <time>2020-07-17T02:01:06.256Z</time>
      </trkpt>
      <trkpt lat="63.00837" lon="7.3038">
        <ele>6.346384</ele>
        <time>2020-07-17T02:01:11.123Z</time>
      </trkpt>
      <trkpt lat="63.00833" lon="7.30399">
        <ele>6.003976</ele>
        <time>2020-07-17T02:01:12.393Z</time>
      </trkpt>
      <trkpt lat="63.00831" lon="7.30401">
        <ele>5.907401</ele>
        <time>2020-07-17T02:01:12.669Z</time>
      </trkpt>
      <trkpt lat="63.00834" lon="7.30423">
        <ele>5.527193</ele>
        <time>2020-07-17T02:01:14.013Z</time>
      </trkpt>
      <trkpt lat="63.0086" lon="7.30544">
        <ele>3.294711</ele>
        <time>2020-07-17T02:01:22.258Z</time>
      </trkpt>
      <trkpt lat="63.00865" lon="7.30561">
        <ele>2.964571</ele>
        <time>2020-07-17T02:01:23.437Z</time>
      </trkpt>
      <trkpt lat="63.00868" lon="7.3057">
        <ele>2.790507</ele>
        <time>2020-07-17T02:01:24.097Z</time>
      </trkpt>
      <trkpt lat="63.00896" lon="7.30651">
        <ele>1.917494</ele>
        <time>2020-07-17T02:01:30.710Z</time>
      </trkpt>
      <trkpt lat="63.00934" lon="7.30744">
        <ele>1.229181</ele>
        <time>2020-07-17T02:01:39.518Z</time>
      </trkpt>
      <trkpt lat="63.00937" lon="7.30751">
        <ele>1.176966</ele>
        <time>2020-07-17T02:01:40.218Z</time>
      </trkpt>
      <trkpt lat="63.00986" lon="7.30871">
        <ele>0.282739</ele>
        <time>2020-07-17T02:01:53.276Z</time>
      </trkpt>
      <trkpt lat="63.00999" lon="7.30904">
        <ele>0.14611</ele>
        <time>2020-07-17T02:01:56.886Z</time>
      </trkpt>
      <trkpt lat="63.01028" lon="7.30991">
        <ele>0.132912</ele>
        <time>2020-07-17T02:02:05.985Z</time>
      </trkpt>
      <trkpt lat="63.01052" lon="7.31111">
        <ele>0.117009</ele>
        <time>2020-07-17T02:02:17.049Z</time>
      </trkpt>
      <trkpt lat="63.01054" lon="7.31136">
        <ele>0.113845</ele>
        <time>2020-07-17T02:02:19.261Z</time>
      </trkpt>
      <trkpt lat="63.01057" lon="7.31168">
        <ele>0.109834</ele>
        <time>2020-07-17T02:02:22.040Z</time>
      </trkpt>
      <trkpt lat="63.01059" lon="7.31281">
        <ele>0.1</ele>
        <time>2020-07-17T02:02:31.541Z</time>
      </trkpt>
      <trkpt lat="63.01056" lon="7.31366">
        <ele>0.1</ele>
        <time>2020-07-17T02:02:38.763Z</time>
      </trkpt>
      <trkpt lat="63.01054" lon="7.31431">
        <ele>0.1</ele>
        <time>2020-07-17T02:02:44.201Z</time>
      </trkpt>
      <trkpt lat="63.01054" lon="7.3151">
        <ele>0.1</ele>
        <time>2020-07-17T02:02:50.917Z</time>
      </trkpt>
      <trkpt lat="63.01056" lon="7.31533">
        <ele>0.1</ele>
        <time>2020-07-17T02:02:52.816Z</time>
      </trkpt>
      <trkpt lat="63.01056" lon="7.31545">
        <ele>0.1</ele>
        <time>2020-07-17T02:02:53.809Z</time>
      </trkpt>
      <trkpt lat="63.01075" lon="7.3168">
        <ele>0.1</ele>
        <time>2020-07-17T02:03:05.652Z</time>
      </trkpt>
      <trkpt lat="63.01201" lon="7.32167">
        <ele>0.168136</ele>
        <time>2020-07-17T02:03:53.229Z</time>
      </trkpt>
      <trkpt lat="63.01229" lon="7.32324">
        <ele>0.224376</ele>
        <time>2020-07-17T02:04:07.807Z</time>
      </trkpt>
      <trkpt lat="63.01235" lon="7.32373">
        <ele>0.252461</ele>
        <time>2020-07-17T02:04:12.198Z</time>
      </trkpt>
      <trkpt lat="63.01245" lon="7.3246">
        <ele>0.316291</ele>
        <time>2020-07-17T02:04:20.073Z</time>
      </trkpt>
      <trkpt lat="63.01273" lon="7.32723">
        <ele>0.507854</ele>
        <time>2020-07-17T02:04:43.515Z</time>
      </trkpt>
      <trkpt lat="63.01278" lon="7.32759">
        <ele>0.509594</ele>
        <time>2020-07-17T02:04:46.729Z</time>
      </trkpt>
      <trkpt lat="63.01282" lon="7.32792">
        <ele>0.506424</ele>
        <time>2020-07-17T02:04:49.655Z</time>
      </trkpt>
      <trkpt lat="63.013" lon="7.32898">
        <ele>0.496143</ele>
        <time>2020-07-17T02:04:59.275Z</time>
      </trkpt>
      <trkpt lat="63.0134" lon="7.33081">
        <ele>0.477662</ele>
        <time>2020-07-17T02:05:16.226Z</time>
      </trkpt>
      <trkpt lat="63.01372" lon="7.33194">
        <ele>0.386287</ele>
        <time>2020-07-17T02:05:27.029Z</time>
      </trkpt>
      <trkpt lat="63.0146" lon="7.33465">
        <ele>0.159472</ele>
        <time>2020-07-17T02:05:54.338Z</time>
      </trkpt>
      <trkpt lat="63.01489" lon="7.33593">
        <ele>0.125324</ele>
        <time>2020-07-17T02:06:06.194Z</time>
      </trkpt>
      <trkpt lat="63.01506" lon="7.33729">
        <ele>0.091521</ele>
        <time>2020-07-17T02:06:18.034Z</time>
      </trkpt>
      <trkpt lat="63.0152" lon="7.34001">
        <ele>0.140896</ele>
        <time>2020-07-17T02:06:41.522Z</time>
      </trkpt>
      <trkpt lat="63.01523" lon="7.34032">
        <ele>0.150243</ele>
        <time>2020-07-17T02:06:44.244Z</time>
      </trkpt>
      <trkpt lat="63.01528" lon="7.34068">
        <ele>0.161017</ele>
        <time>2020-07-17T02:06:47.408Z</time>
      </trkpt>
      <trkpt lat="63.01535" lon="7.34111">
        <ele>0.174271</ele>
        <time>2020-07-17T02:06:51.245Z</time>
      </trkpt>
      <trkpt lat="63.01573" lon="7.3425">
        <ele>0.162625</ele>
        <time>2020-07-17T02:07:04.972Z</time>
      </trkpt>
      <trkpt lat="63.01628" lon="7.34413">
        <ele>0.098301</ele>
        <time>2020-07-17T02:07:22.005Z</time>
      </trkpt>
      <trkpt lat="63.01636" lon="7.34436">
        <ele>0.089249</ele>
        <time>2020-07-17T02:07:24.370Z</time>
      </trkpt>
      <trkpt lat="63.01642" lon="7.34454">
        <ele>0.082258</ele>
        <time>2020-07-17T02:07:26.193Z</time>
      </trkpt>
      <trkpt lat="63.01651" lon="7.34483">
        <ele>0.071154</ele>
        <time>2020-07-17T02:07:29.091Z</time>
      </trkpt>
      <trkpt lat="63.01674" lon="7.34582">
        <ele>0.061048</ele>
        <time>2020-07-17T02:07:38.317Z</time>
      </trkpt>
      <trkpt lat="63.01677" lon="7.34603">
        <ele>0.059496</ele>
        <time>2020-07-17T02:07:40.209Z</time>
      </trkpt>
      <trkpt lat="63.0168" lon="7.3463">
        <ele>0.057586</ele>
        <time>2020-07-17T02:07:42.555Z</time>
      </trkpt>
      <trkpt lat="63.01683" lon="7.34671">
        <ele>0.054754</ele>
        <time>2020-07-17T02:07:46.048Z</time>
      </trkpt>
      <trkpt lat="63.01684" lon="7.347">
        <ele>0.052785</ele>
        <time>2020-07-17T02:07:48.476Z</time>
      </trkpt>
      <trkpt lat="63.01682" lon="7.34766">
        <ele>0.048279</ele>
        <time>2020-07-17T02:07:54.089Z</time>
      </trkpt>
      <trkpt lat="63.01681" lon="7.34784">
        <ele>0.04706</ele>
        <time>2020-07-17T02:07:55.609Z</time>
      </trkpt>
      <trkpt lat="63.0168" lon="7.34799">
        <ele>0.046035</ele>
        <time>2020-07-17T02:07:56.888Z</time>
      </trkpt>
      <trkpt lat="63.01652" lon="7.35013">
        <ele>0.062889</ele>
        <time>2020-07-17T02:08:15.850Z</time>
      </trkpt>
      <trkpt lat="63.01649" lon="7.35085">
        <ele>0.073622</ele>
        <time>2020-07-17T02:08:21.938Z</time>
      </trkpt>
      <trkpt lat="63.01652" lon="7.35186">
        <ele>0.088687</ele>
        <time>2020-07-17T02:08:30.449Z</time>
      </trkpt>
      <trkpt lat="63.01655" lon="7.3522">
        <ele>0.093901</ele>
        <time>2020-07-17T02:08:33.449Z</time>
      </trkpt>
      <trkpt lat="63.01657" lon="7.35256">
        <ele>0.099228</ele>
        <time>2020-07-17T02:08:36.409Z</time>
      </trkpt>
      <trkpt lat="63.01664" lon="7.35332">
        <ele>0.102234</ele>
        <time>2020-07-17T02:08:42.938Z</time>
      </trkpt>
      <trkpt lat="63.01671" lon="7.35402">
        <ele>0.104474</ele>
        <time>2020-07-17T02:08:49.031Z</time>
      </trkpt>
      <trkpt lat="63.01675" lon="7.35431">
        <ele>0.10539</ele>
        <time>2020-07-17T02:08:51.531Z</time>
      </trkpt>
      <trkpt lat="63.01716" lon="7.3568">
        <ele>0.21189</ele>
        <time>2020-07-17T02:09:13.933Z</time>
      </trkpt>
      <trkpt lat="63.01725" lon="7.35717">
        <ele>0.309202</ele>
        <time>2020-07-17T02:09:17.591Z</time>
      </trkpt>
      <trkpt lat="63.01732" lon="7.35748">
        <ele>0.38889</ele>
        <time>2020-07-17T02:09:20.631Z</time>
      </trkpt>
      <trkpt lat="63.01759" lon="7.35859">
        <ele>0.677025</ele>
        <time>2020-07-17T02:09:31.760Z</time>
      </trkpt>
      <trkpt lat="63.01779" lon="7.35974">
        <ele>0.960922</ele>
        <time>2020-07-17T02:09:43.320Z</time>
      </trkpt>
      <trkpt lat="63.01794" lon="7.36109">
        <ele>1.793803</ele>
        <time>2020-07-17T02:09:57.950Z</time>
      </trkpt>
      <trkpt lat="63.018" lon="7.36236">
        <ele>2.682002</ele>
        <time>2020-07-17T02:10:12.414Z</time>
      </trkpt>
      <trkpt lat="63.01802" lon="7.36283">
        <ele>3.013355</ele>
        <time>2020-07-17T02:10:18.034Z</time>
      </trkpt>
      <trkpt lat="63.01805" lon="7.36325">
        <ele>3.307924</ele>
        <time>2020-07-17T02:10:22.878Z</time>
      </trkpt>
      <trkpt lat="63.01809" lon="7.36381">
        <ele>3.704464</ele>
        <time>2020-07-17T02:10:28.841Z</time>
      </trkpt>
      <trkpt lat="63.01811" lon="7.36401">
        <ele>3.770729</ele>
        <time>2020-07-17T02:10:30.618Z</time>
      </trkpt>
      <trkpt lat="63.01816" lon="7.36443">
        <ele>3.730118</ele>
        <time>2020-07-17T02:10:35.033Z</time>
      </trkpt>
      <trkpt lat="63.0183" lon="7.36535">
        <ele>3.638326</ele>
        <time>2020-07-17T02:10:43.515Z</time>
      </trkpt>
      <trkpt lat="63.01854" lon="7.36653">
        <ele>3.515311</ele>
        <time>2020-07-17T02:10:54.293Z</time>
      </trkpt>
      <trkpt lat="63.01859" lon="7.3667">
        <ele>3.496935</ele>
        <time>2020-07-17T02:10:55.783Z</time>
      </trkpt>
      <trkpt lat="63.01867" lon="7.36701">
        <ele>3.462837</ele>
        <time>2020-07-17T02:10:58.200Z</time>
      </trkpt>
      <trkpt lat="63.01899" lon="7.36801">
        <ele>2.990555</ele>
        <time>2020-07-17T02:11:06.864Z</time>
      </trkpt>
      <trkpt lat="63.01977" lon="7.36991">
        <ele>1.250934</ele>
        <time>2020-07-17T02:11:24.072Z</time>
      </trkpt>
      <trkpt lat="63.01984" lon="7.37012">
        <ele>1.073858</ele>
        <time>2020-07-17T02:11:26.039Z</time>
      </trkpt>
      <trkpt lat="63.0199" lon="7.37029">
        <ele>0.927884</ele>
        <time>2020-07-17T02:11:27.662Z</time>
      </trkpt>
      <trkpt lat="63.02" lon="7.37062">
        <ele>0.699276</ele>
        <time>2020-07-17T02:11:30.775Z</time>
      </trkpt>
      <trkpt lat="63.02009" lon="7.37091">
        <ele>0.655368</ele>
        <time>2020-07-17T02:11:33.408Z</time>
      </trkpt>
      <trkpt lat="63.0203" lon="7.37163">
        <ele>0.544389</ele>
        <time>2020-07-17T02:11:40.204Z</time>
      </trkpt>
      <trkpt lat="63.02033" lon="7.37173">
        <ele>0.530303</ele>
        <time>2020-07-17T02:11:41.098Z</time>
      </trkpt>
      <trkpt lat="63.02058" lon="7.37245">
        <ele>0.413472</ele>
        <time>2020-07-17T02:11:48.518Z</time>
      </trkpt>
      <trkpt lat="63.02062" lon="7.37257">
        <ele>0.393382</ele>
        <time>2020-07-17T02:11:49.833Z</time>
      </trkpt>
      <trkpt lat="63.02077" lon="7.37292">
        <ele>0.332542</ele>
        <time>2020-07-17T02:11:53.845Z</time>
      </trkpt>
      <trkpt lat="63.02173" lon="7.3747">
        <ele>0.147361</ele>
        <time>2020-07-17T02:12:17.170Z</time>
      </trkpt>
      <trkpt lat="63.02202" lon="7.37557">
        <ele>0.114332</ele>
        <time>2020-07-17T02:12:26.141Z</time>
      </trkpt>
      <trkpt lat="63.0221" lon="7.37597">
        <ele>0.100943</ele>
        <time>2020-07-17T02:12:29.730Z</time>
      </trkpt>
      <trkpt lat="63.02213" lon="7.37617">
        <ele>0.094462</ele>
        <time>2020-07-17T02:12:31.502Z</time>
      </trkpt>
      <trkpt lat="63.02219" lon="7.37664">
        <ele>0.079446</ele>
        <time>2020-07-17T02:12:35.562Z</time>
      </trkpt>
      <trkpt lat="63.02221" lon="7.37684">
        <ele>0.075297</ele>
        <time>2020-07-17T02:12:37.242Z</time>
      </trkpt>
      <trkpt lat="63.02222" lon="7.37704">
        <ele>0.071246</ele>
        <time>2020-07-17T02:12:38.946Z</time>
      </trkpt>
      <trkpt lat="63.02222" lon="7.37791">
        <ele>0.053846</ele>
        <time>2020-07-17T02:12:46.208Z</time>
      </trkpt>
      <trkpt lat="63.02215" lon="7.37875">
        <ele>0.036777</ele>
        <time>2020-07-17T02:12:53.342Z</time>
      </trkpt>
      <trkpt lat="63.02201" lon="7.37955">
        <ele>0.019658</ele>
        <time>2020-07-17T02:13:00.536Z</time>
      </trkpt>
      <trkpt lat="63.02175" lon="7.38039">
        <ele>0.000356</ele>
        <time>2020-07-17T02:13:09.105Z</time>
      </trkpt>
      <trkpt lat="63.02167" lon="7.38061">
        <ele>0.003625</ele>
        <time>2020-07-17T02:13:11.463Z</time>
      </trkpt>
      <trkpt lat="63.02159" lon="7.38084">
        <ele>0.007058</ele>
        <time>2020-07-17T02:13:13.952Z</time>
      </trkpt>
      <trkpt lat="63.02151" lon="7.38102">
        <ele>0.009867</ele>
        <time>2020-07-17T02:13:15.975Z</time>
      </trkpt>
      <trkpt lat="63.02129" lon="7.38159">
        <ele>0.018649</ele>
        <time>2020-07-17T02:13:22.333Z</time>
      </trkpt>
      <trkpt lat="63.02111" lon="7.38208">
        <ele>0.026039</ele>
        <time>2020-07-17T02:13:27.680Z</time>
      </trkpt>
      <trkpt lat="63.02072" lon="7.38309">
        <ele>0.041571</ele>
        <time>2020-07-17T02:13:38.947Z</time>
      </trkpt>
      <trkpt lat="63.02039" lon="7.38393">
        <ele>0.14018</ele>
        <time>2020-07-17T02:13:48.415Z</time>
      </trkpt>
      <trkpt lat="63.02026" lon="7.38428">
        <ele>0.199915</ele>
        <time>2020-07-17T02:13:52.276Z</time>
      </trkpt>
      <trkpt lat="63.02011" lon="7.38467">
        <ele>0.268529</ele>
        <time>2020-07-17T02:13:56.721Z</time>
      </trkpt>
      <trkpt lat="63.02003" lon="7.38486">
        <ele>0.302336</ele>
        <time>2020-07-17T02:13:58.911Z</time>
      </trkpt>
      <trkpt lat="63.01776" lon="7.39078">
        <ele>1.871683</ele>
        <time>2020-07-17T02:15:09.848Z</time>
      </trkpt>
      <trkpt lat="63.0175" lon="7.39146">
        <ele>2.064317</ele>
        <time>2020-07-17T02:15:18.436Z</time>
      </trkpt>
      <trkpt lat="63.01732" lon="7.39195">
        <ele>2.20068</ele>
        <time>2020-07-17T02:15:24.565Z</time>
      </trkpt>
      <trkpt lat="63.01604" lon="7.39631">
        <ele>2.189524</ele>
        <time>2020-07-17T02:16:08.557Z</time>
      </trkpt>
      <trkpt lat="63.01573" lon="7.39703">
        <ele>1.848373</ele>
        <time>2020-07-17T02:16:15.811Z</time>
      </trkpt>
      <trkpt lat="63.01535" lon="7.39768">
        <ele>1.479951</ele>
        <time>2020-07-17T02:16:23.668Z</time>
      </trkpt>
      <trkpt lat="63.01531" lon="7.39773">
        <ele>1.444478</ele>
        <time>2020-07-17T02:16:24.306Z</time>
      </trkpt>
      <trkpt lat="63.01474" lon="7.39846">
        <ele>0.983136</ele>
        <time>2020-07-17T02:16:35.268Z</time>
      </trkpt>
      <trkpt lat="63.01464" lon="7.39861">
        <ele>0.953367</ele>
        <time>2020-07-17T02:16:37.180Z</time>
      </trkpt>
      <trkpt lat="63.01441" lon="7.39898">
        <ele>0.885462</ele>
        <time>2020-07-17T02:16:41.926Z</time>
      </trkpt>
      <trkpt lat="63.01435" lon="7.39913">
        <ele>0.863316</ele>
        <time>2020-07-17T02:16:43.463Z</time>
      </trkpt>
      <trkpt lat="63.01429" lon="7.39925">
        <ele>0.844343</ele>
        <time>2020-07-17T02:16:44.901Z</time>
      </trkpt>
      <trkpt lat="63.01418" lon="7.39958">
        <ele>0.798715</ele>
        <time>2020-07-17T02:16:48.201Z</time>
      </trkpt>
      <trkpt lat="63.01409" lon="7.39986">
        <ele>0.762303</ele>
        <time>2020-07-17T02:16:50.844Z</time>
      </trkpt>
      <trkpt lat="63.01405" lon="7.40002">
        <ele>0.741698</ele>
        <time>2020-07-17T02:16:52.588Z</time>
      </trkpt>
      <trkpt lat="63.01388" lon="7.40097">
        <ele>0.630137</ele>
        <time>2020-07-17T02:17:01.372Z</time>
      </trkpt>
      <trkpt lat="63.01384" lon="7.40212">
        <ele>0.608532</ele>
        <time>2020-07-17T02:17:11.468Z</time>
      </trkpt>
      <trkpt lat="63.01385" lon="7.40237">
        <ele>0.625589</ele>
        <time>2020-07-17T02:17:13.851Z</time>
      </trkpt>
      <trkpt lat="63.01386" lon="7.4026">
        <ele>0.641424</ele>
        <time>2020-07-17T02:17:15.854Z</time>
      </trkpt>
      <trkpt lat="63.01407" lon="7.40473">
        <ele>0.790337</ele>
        <time>2020-07-17T02:17:34.953Z</time>
      </trkpt>
      <trkpt lat="63.01401" lon="7.40679">
        <ele>0.729052</ele>
        <time>2020-07-17T02:17:52.091Z</time>
      </trkpt>
      <trkpt lat="63.014" lon="7.40728">
        <ele>0.689447</ele>
        <time>2020-07-17T02:17:56.093Z</time>
      </trkpt>
      <trkpt lat="63.014" lon="7.40776">
        <ele>0.650377</ele>
        <time>2020-07-17T02:17:59.983Z</time>
      </trkpt>
      <trkpt lat="63.01409" lon="7.41037">
        <ele>0.428057</ele>
        <time>2020-07-17T02:18:21.203Z</time>
      </trkpt>
      <trkpt lat="63.01406" lon="7.41156">
        <ele>0.318913</ele>
        <time>2020-07-17T02:18:30.866Z</time>
      </trkpt>
      <trkpt lat="63.01405" lon="7.41181">
        <ele>0.295464</ele>
        <time>2020-07-17T02:18:32.980Z</time>
      </trkpt>
      <trkpt lat="63.014" lon="7.41227">
        <ele>0.253368</ele>
        <time>2020-07-17T02:18:36.740Z</time>
      </trkpt>
      <trkpt lat="63.01385" lon="7.41339">
        <ele>0.161677</ele>
        <time>2020-07-17T02:18:46.398Z</time>
      </trkpt>
      <trkpt lat="63.0138" lon="7.41367">
        <ele>0.183705</ele>
        <time>2020-07-17T02:18:48.902Z</time>
      </trkpt>
      <trkpt lat="63.01356" lon="7.41491">
        <ele>0.280782</ele>
        <time>2020-07-17T02:19:00.170Z</time>
      </trkpt>
      <trkpt lat="63.01347" lon="7.41539">
        <ele>0.318828</ele>
        <time>2020-07-17T02:19:04.698Z</time>
      </trkpt>
      <trkpt lat="63.01305" lon="7.41756">
        <ele>0.705714</ele>
        <time>2020-07-17T02:19:25.852Z</time>
      </trkpt>
      <trkpt lat="63.01296" lon="7.41807">
        <ele>0.926032</ele>
        <time>2020-07-17T02:19:31.018Z</time>
      </trkpt>
      <trkpt lat="63.01229" lon="7.42156">
        <ele>2.768466</ele>
        <time>2020-07-17T02:20:08.798Z</time>
      </trkpt>
      <trkpt lat="63.01226" lon="7.42172">
        <ele>2.892629</ele>
        <time>2020-07-17T02:20:10.745Z</time>
      </trkpt>
      <trkpt lat="63.01175" lon="7.42439">
        <ele>4.996731</ele>
        <time>2020-07-17T02:20:42.165Z</time>
      </trkpt>
      <trkpt lat="63.0117" lon="7.42465">
        <ele>5.288869</ele>
        <time>2020-07-17T02:20:45.654Z</time>
      </trkpt>
      <trkpt lat="63.01144" lon="7.42571">
        <ele>6.538154</ele>
        <time>2020-07-17T02:20:59.555Z</time>
      </trkpt>
      <trkpt lat="63.01137" lon="7.42595">
        <ele>6.847782</ele>
        <time>2020-07-17T02:21:03.276Z</time>
      </trkpt>
      <trkpt lat="63.01132" lon="7.42611">
        <ele>7.046962</ele>
        <time>2020-07-17T02:21:05.578Z</time>
      </trkpt>
      <trkpt lat="63.01118" lon="7.42648">
        <ele>7.542799</ele>
        <time>2020-07-17T02:21:11.071Z</time>
      </trkpt>
      <trkpt lat="63.01065" lon="7.42777">
        <ele>9.290188</ele>
        <time>2020-07-17T02:21:32.162Z</time>
      </trkpt>
      <trkpt lat="63.0101" lon="7.4291">
        <ele>10.805747</ele>
        <time>2020-07-17T02:21:53.677Z</time>
      </trkpt>
      <trkpt lat="63.0097" lon="7.43007">
        <ele>11.915912</ele>
        <time>2020-07-17T02:22:07.871Z</time>
      </trkpt>
      <trkpt lat="63.00937" lon="7.43087">
        <ele>12.361588</ele>
        <time>2020-07-17T02:22:17.807Z</time>
      </trkpt>
      <trkpt lat="63.00929" lon="7.43097">
        <ele>12.374656</ele>
        <time>2020-07-17T02:22:19.722Z</time>
      </trkpt>
      <trkpt lat="63.00925" lon="7.43103">
        <ele>12.380687</ele>
        <time>2020-07-17T02:22:20.582Z</time>
      </trkpt>
      <trkpt lat="63.00915" lon="7.43112">
        <ele>12.396048</ele>
        <time>2020-07-17T02:22:22.850Z</time>
      </trkpt>
      <trkpt lat="63.00917" lon="7.43118">
        <ele>12.400593</ele>
        <time>2020-07-17T02:22:23.320Z</time>
      </trkpt>
      <trkpt lat="63.00919" lon="7.43126">
        <ele>12.406604</ele>
        <time>2020-07-17T02:22:24.036Z</time>
      </trkpt>
      <trkpt lat="63.00925" lon="7.43143">
        <ele>12.419984</ele>
        <time>2020-07-17T02:22:25.902Z</time>
      </trkpt>
      <trkpt lat="63.00926" lon="7.43135">
        <ele>12.425497</ele>
        <time>2020-07-17T02:22:26.649Z</time>
      </trkpt>
      <trkpt lat="63.0093" lon="7.43118">
        <ele>12.436868</ele>
        <time>2020-07-17T02:22:28.230Z</time>
      </trkpt>
      <trkpt lat="63.00933" lon="7.43104">
        <ele>12.446741</ele>
        <time>2020-07-17T02:22:29.542Z</time>
      </trkpt>
      <trkpt lat="63.00935" lon="7.43109">
        <ele>12.450745</ele>
        <time>2020-07-17T02:22:30.067Z</time>
      </trkpt>
      <trkpt lat="63.00939" lon="7.43118">
        <ele>12.458242</ele>
        <time>2020-07-17T02:22:31.270Z</time>
      </trkpt>
      <trkpt lat="63.00937" lon="7.43153">
        <ele>12.479874</ele>
        <time>2020-07-17T02:22:34.933Z</time>
      </trkpt>
      <trkpt lat="63.00958" lon="7.43223">
        <ele>12.53235</ele>
        <time>2020-07-17T02:22:43.867Z</time>
      </trkpt>
      <trkpt lat="63.01012" lon="7.43388">
        <ele>13.182339</ele>
        <time>2020-07-17T02:23:05.133Z</time>
      </trkpt>
      <trkpt lat="63.01019" lon="7.43409">
        <ele>13.291877</ele>
        <time>2020-07-17T02:23:07.885Z</time>
      </trkpt>
      <trkpt lat="63.01023" lon="7.43423">
        <ele>13.36755</ele>
        <time>2020-07-17T02:23:10.177Z</time>
      </trkpt>
      <trkpt lat="63.01132" lon="7.43762">
        <ele>15.886217</ele>
        <time>2020-07-17T02:24:04.989Z</time>
      </trkpt>
      <trkpt lat="63.01157" lon="7.43841">
        <ele>16.646559</ele>
        <time>2020-07-17T02:24:18.159Z</time>
      </trkpt>
      <trkpt lat="63.01179" lon="7.43909">
        <ele>17.302654</ele>
        <time>2020-07-17T02:24:29.240Z</time>
      </trkpt>
      <trkpt lat="63.01192" lon="7.4395">
        <ele>17.556847</ele>
        <time>2020-07-17T02:24:35.926Z</time>
      </trkpt>
      <trkpt lat="63.01353" lon="7.44452">
        <ele>19.084468</ele>
        <time>2020-07-17T02:25:47.245Z</time>
      </trkpt>
      <trkpt lat="63.0135" lon="7.44454">
        <ele>19.088859</ele>
        <time>2020-07-17T02:25:47.940Z</time>
      </trkpt>
      <trkpt lat="63.01346" lon="7.44458">
        <ele>19.093006</ele>
        <time>2020-07-17T02:25:48.628Z</time>
      </trkpt>
      <trkpt lat="63.01376" lon="7.44549">
        <ele>19.150688</ele>
        <time>2020-07-17T02:25:57.693Z</time>
      </trkpt>
      <trkpt lat="63.01452" lon="7.44787">
        <ele>16.721272</ele>
        <time>2020-07-17T02:26:17.571Z</time>
      </trkpt>
      <trkpt lat="63.01471" lon="7.44846">
        <ele>16.092928</ele>
        <time>2020-07-17T02:26:22.148Z</time>
      </trkpt>
      <trkpt lat="63.01491" lon="7.44907">
        <ele>15.554156</ele>
        <time>2020-07-17T02:26:26.861Z</time>
      </trkpt>
      <trkpt lat="63.01498" lon="7.4493">
        <ele>15.42216</ele>
        <time>2020-07-17T02:26:28.628Z</time>
      </trkpt>
      <trkpt lat="63.0152" lon="7.45018">
        <ele>14.941969</ele>
        <time>2020-07-17T02:26:35.343Z</time>
      </trkpt>
      <trkpt lat="63.01522" lon="7.45028">
        <ele>14.889551</ele>
        <time>2020-07-17T02:26:36.051Z</time>
      </trkpt>
      <trkpt lat="63.01526" lon="7.45058">
        <ele>14.740288</ele>
        <time>2020-07-17T02:26:38.177Z</time>
      </trkpt>
      <trkpt lat="63.01534" lon="7.45156">
        <ele>14.268183</ele>
        <time>2020-07-17T02:26:45.779Z</time>
      </trkpt>
      <trkpt lat="63.01534" lon="7.45165">
        <ele>14.225018</ele>
        <time>2020-07-17T02:26:46.475Z</time>
      </trkpt>
      <trkpt lat="63.01535" lon="7.45182">
        <ele>14.141723</ele>
        <time>2020-07-17T02:26:48.102Z</time>
      </trkpt>
      <trkpt lat="63.0154" lon="7.45296">
        <ele>14.258976</ele>
        <time>2020-07-17T02:26:59.201Z</time>
      </trkpt>
      <trkpt lat="63.01541" lon="7.45338">
        <ele>14.696934</ele>
        <time>2020-07-17T02:27:03.947Z</time>
      </trkpt>
      <trkpt lat="63.01545" lon="7.45408">
        <ele>15.432973</ele>
        <time>2020-07-17T02:27:11.829Z</time>
      </trkpt>
      <trkpt lat="63.01549" lon="7.45517">
        <ele>16.571726</ele>
        <time>2020-07-17T02:27:25.639Z</time>
      </trkpt>
      <trkpt lat="63.01554" lon="7.45513">
        <ele>16.685129</ele>
        <time>2020-07-17T02:27:27.149Z</time>
      </trkpt>
      <trkpt lat="63.01557" lon="7.4551">
        <ele>16.752925</ele>
        <time>2020-07-17T02:27:28.051Z</time>
      </trkpt>
      <trkpt lat="63.01575" lon="7.45886">
        <ele>21.973403</ele>
        <time>2020-07-17T02:28:25.813Z</time>
      </trkpt>
      <trkpt lat="63.01612" lon="7.4679">
        <ele>36.825479</ele>
        <time>2020-07-17T02:30:52.468Z</time>
      </trkpt>
      <trkpt lat="63.01613" lon="7.46876">
        <ele>37.559071</ele>
        <time>2020-07-17T02:31:04.305Z</time>
      </trkpt>
      <trkpt lat="63.01609" lon="7.46876">
        <ele>37.62642</ele>
        <time>2020-07-17T02:31:05.373Z</time>
      </trkpt>
      <trkpt lat="63.01606" lon="7.46875">
        <ele>37.664492</ele>
        <time>2020-07-17T02:31:05.961Z</time>
      </trkpt>
      <trkpt lat="63.01606" lon="7.4697">
        <ele>38.28887</ele>
        <time>2020-07-17T02:31:16.004Z</time>
      </trkpt>
      <trkpt lat="63.01602" lon="7.471">
        <ele>39.154374</ele>
        <time>2020-07-17T02:31:28.789Z</time>
      </trkpt>
      <trkpt lat="63.01602" lon="7.47119">
        <ele>39.279424</ele>
        <time>2020-07-17T02:31:30.510Z</time>
      </trkpt>
      <trkpt lat="63.01573" lon="7.48179">
        <ele>43.684309</ele>
        <time>2020-07-17T02:33:11.713Z</time>
      </trkpt>
      <trkpt lat="63.01576" lon="7.48317">
        <ele>44.550589</ele>
        <time>2020-07-17T02:33:27.151Z</time>
      </trkpt>
      <trkpt lat="63.01589" lon="7.48454">
        <ele>45.76504</ele>
        <time>2020-07-17T02:33:43.390Z</time>
      </trkpt>
      <trkpt lat="63.01612" lon="7.48579">
        <ele>47.163535</ele>
        <time>2020-07-17T02:33:59.449Z</time>
      </trkpt>
      <trkpt lat="63.01636" lon="7.48669">
        <ele>48.245629</ele>
        <time>2020-07-17T02:34:12.034Z</time>
      </trkpt>
      <trkpt lat="63.01692" lon="7.48827">
        <ele>50.169535</ele>
        <time>2020-07-17T02:34:35.417Z</time>
      </trkpt>
      <trkpt lat="63.017" lon="7.48848">
        <ele>50.418734</ele>
        <time>2020-07-17T02:34:38.667Z</time>
      </trkpt>
      <trkpt lat="63.01756" lon="7.49002">
        <ele>52.218058</ele>
        <time>2020-07-17T02:35:00.708Z</time>
      </trkpt>
      <trkpt lat="63.01812" lon="7.49161">
        <ele>53.564391</ele>
        <time>2020-07-17T02:35:22.793Z</time>
      </trkpt>
      <trkpt lat="63.01848" lon="7.49289">
        <ele>54.463043</ele>
        <time>2020-07-17T02:35:38.431Z</time>
      </trkpt>
      <trkpt lat="63.02016" lon="7.50054">
        <ele>56.449373</ele>
        <time>2020-07-17T02:36:57.547Z</time>
      </trkpt>
      <trkpt lat="63.02029" lon="7.50202">
        <ele>54.965238</ele>
        <time>2020-07-17T02:37:08.150Z</time>
      </trkpt>
      <trkpt lat="63.02047" lon="7.50871">
        <ele>44.840642</ele>
        <time>2020-07-17T02:37:48.819Z</time>
      </trkpt>
      <trkpt lat="63.02049" lon="7.50929">
        <ele>44.140783</ele>
        <time>2020-07-17T02:37:52.382Z</time>
      </trkpt>
      <trkpt lat="63.02049" lon="7.5096">
        <ele>43.790706</ele>
        <time>2020-07-17T02:37:54.265Z</time>
      </trkpt>
      <trkpt lat="63.02053" lon="7.51083">
        <ele>42.375188</ele>
        <time>2020-07-17T02:38:02.047Z</time>
      </trkpt>
      <trkpt lat="63.02057" lon="7.51261">
        <ele>40.329867</ele>
        <time>2020-07-17T02:38:13.993Z</time>
      </trkpt>
      <trkpt lat="63.0206" lon="7.5135">
        <ele>40.044867</ele>
        <time>2020-07-17T02:38:20.873Z</time>
      </trkpt>
      <trkpt lat="63.02064" lon="7.51486">
        <ele>39.743013</ele>
        <time>2020-07-17T02:38:31.831Z</time>
      </trkpt>
      <trkpt lat="63.02069" lon="7.51639">
        <ele>39.403625</ele>
        <time>2020-07-17T02:38:44.625Z</time>
      </trkpt>
      <trkpt lat="63.02069" lon="7.51652">
        <ele>39.376167</ele>
        <time>2020-07-17T02:38:45.591Z</time>
      </trkpt>
      <trkpt lat="63.02074" lon="7.51933">
        <ele>39.009433</ele>
        <time>2020-07-17T02:39:06.836Z</time>
      </trkpt>
      <trkpt lat="63.02073" lon="7.51948">
        <ele>38.990404</ele>
        <time>2020-07-17T02:39:08.029Z</time>
      </trkpt>
      <trkpt lat="63.02071" lon="7.51992">
        <ele>38.935283</ele>
        <time>2020-07-17T02:39:11.381Z</time>
      </trkpt>
      <trkpt lat="63.02069" lon="7.52016">
        <ele>38.904583</ele>
        <time>2020-07-17T02:39:13.296Z</time>
      </trkpt>
      <trkpt lat="63.02066" lon="7.52067">
        <ele>38.873516</ele>
        <time>2020-07-17T02:39:17.423Z</time>
      </trkpt>
      <trkpt lat="63.02062" lon="7.52099">
        <ele>39.018925</ele>
        <time>2020-07-17T02:39:20.042Z</time>
      </trkpt>
      <trkpt lat="63.02055" lon="7.52166">
        <ele>39.330481</ele>
        <time>2020-07-17T02:39:25.704Z</time>
      </trkpt>
      <trkpt lat="63.02052" lon="7.52188">
        <ele>39.436562</ele>
        <time>2020-07-17T02:39:27.732Z</time>
      </trkpt>
      <trkpt lat="63.02002" lon="7.52464">
        <ele>41.015956</ele>
        <time>2020-07-17T02:39:57.067Z</time>
      </trkpt>
      <trkpt lat="63.01958" lon="7.52677">
        <ele>43.936939</ele>
        <time>2020-07-17T02:40:26.912Z</time>
      </trkpt>
      <trkpt lat="63.01952" lon="7.52702">
        <ele>44.293279</ele>
        <time>2020-07-17T02:40:30.650Z</time>
      </trkpt>
      <trkpt lat="63.01943" lon="7.52729">
        <ele>44.704219</ele>
        <time>2020-07-17T02:40:35.141Z</time>
      </trkpt>
      <trkpt lat="63.01906" lon="7.52812">
        <ele>45.668218</ele>
        <time>2020-07-17T02:40:49.557Z</time>
      </trkpt>
      <trkpt lat="63.01834" lon="7.5292">
        <ele>46.063318</ele>
        <time>2020-07-17T02:41:09.553Z</time>
      </trkpt>
      <trkpt lat="63.01768" lon="7.53016">
        <ele>46.280607</ele>
        <time>2020-07-17T02:41:20.927Z</time>
      </trkpt>
      <trkpt lat="63.01743" lon="7.53056">
        <ele>45.872611</ele>
        <time>2020-07-17T02:41:25.004Z</time>
      </trkpt>
      <trkpt lat="63.0171" lon="7.5312">
        <ele>45.279296</ele>
        <time>2020-07-17T02:41:31.247Z</time>
      </trkpt>
      <trkpt lat="63.01684" lon="7.53183">
        <ele>44.754922</ele>
        <time>2020-07-17T02:41:36.718Z</time>
      </trkpt>
      <trkpt lat="63.01636" lon="7.53302">
        <ele>44.42096</ele>
        <time>2020-07-17T02:41:47.912Z</time>
      </trkpt>
      <trkpt lat="63.01631" lon="7.53313">
        <ele>44.646096</ele>
        <time>2020-07-17T02:41:49.953Z</time>
      </trkpt>
      <trkpt lat="63.01572" lon="7.5346">
        <ele>47.646102</ele>
        <time>2020-07-17T02:42:14.129Z</time>
      </trkpt>
      <trkpt lat="63.0155" lon="7.53517">
        <ele>48.794568</ele>
        <time>2020-07-17T02:42:26.112Z</time>
      </trkpt>
      <trkpt lat="63.01484" lon="7.53685">
        <ele>53.526</ele>
        <time>2020-07-17T02:43:05.637Z</time>
      </trkpt>
      <trkpt lat="63.01454" lon="7.5376">
        <ele>55.984577</ele>
        <time>2020-07-17T02:43:23.186Z</time>
      </trkpt>
      <trkpt lat="63.01436" lon="7.53807">
        <ele>57.490022</ele>
        <time>2020-07-17T02:43:33.421Z</time>
      </trkpt>
      <trkpt lat="63.01431" lon="7.53819">
        <ele>57.904901</ele>
        <time>2020-07-17T02:43:36.078Z</time>
      </trkpt>
      <trkpt lat="63.01413" lon="7.53871">
        <ele>59.502769</ele>
        <time>2020-07-17T02:43:46.224Z</time>
      </trkpt>
      <trkpt lat="63.01359" lon="7.54074">
        <ele>59.748813</ele>
        <time>2020-07-17T02:44:12.904Z</time>
      </trkpt>
      <trkpt lat="63.01346" lon="7.54138">
        <ele>59.735627</ele>
        <time>2020-07-17T02:44:17.736Z</time>
      </trkpt>
      <trkpt lat="63.01323" lon="7.5426">
        <ele>59.081758</ele>
        <time>2020-07-17T02:44:25.639Z</time>
      </trkpt>
      <trkpt lat="63.01305" lon="7.54354">
        <ele>56.881309</ele>
        <time>2020-07-17T02:44:31.537Z</time>
      </trkpt>
      <trkpt lat="63.01274" lon="7.54515">
        <ele>53.149101</ele>
        <time>2020-07-17T02:44:41.461Z</time>
      </trkpt>
      <trkpt lat="63.01263" lon="7.54569">
        <ele>51.869361</ele>
        <time>2020-07-17T02:44:44.942Z</time>
      </trkpt>
      <trkpt lat="63.01253" lon="7.54624">
        <ele>50.851617</ele>
        <time>2020-07-17T02:44:48.425Z</time>
      </trkpt>
      <trkpt lat="63.01246" lon="7.54662">
        <ele>50.320987</ele>
        <time>2020-07-17T02:44:50.954Z</time>
      </trkpt>
      <trkpt lat="63.01237" lon="7.54711">
        <ele>49.646467</ele>
        <time>2020-07-17T02:44:54.246Z</time>
      </trkpt>
      <trkpt lat="63.01218" lon="7.54823">
        <ele>48.121772</ele>
        <time>2020-07-17T02:45:02.031Z</time>
      </trkpt>
      <trkpt lat="63.01189" lon="7.54996">
        <ele>45.833373</ele>
        <time>2020-07-17T02:45:14.418Z</time>
      </trkpt>
      <trkpt lat="63.01181" lon="7.55047">
        <ele>45.292552</ele>
        <time>2020-07-17T02:45:17.942Z</time>
      </trkpt>
      <trkpt lat="63.01178" lon="7.55067">
        <ele>45.069535</ele>
        <time>2020-07-17T02:45:19.382Z</time>
      </trkpt>
      <trkpt lat="63.01166" lon="7.55151">
        <ele>44.176749</ele>
        <time>2020-07-17T02:45:25.138Z</time>
      </trkpt>
      <trkpt lat="63.01161" lon="7.55187">
        <ele>43.794368</ele>
        <time>2020-07-17T02:45:27.598Z</time>
      </trkpt>
      <trkpt lat="63.01153" lon="7.55245">
        <ele>43.179011</ele>
        <time>2020-07-17T02:45:31.571Z</time>
      </trkpt>
      <trkpt lat="63.01145" lon="7.55306">
        <ele>42.535174</ele>
        <time>2020-07-17T02:45:35.729Z</time>
      </trkpt>
      <trkpt lat="63.01137" lon="7.55372">
        <ele>41.973017</ele>
        <time>2020-07-17T02:45:40.270Z</time>
      </trkpt>
      <trkpt lat="63.01126" lon="7.55448">
        <ele>41.565003</ele>
        <time>2020-07-17T02:45:45.585Z</time>
      </trkpt>
      <trkpt lat="63.01121" lon="7.55484">
        <ele>41.369458</ele>
        <time>2020-07-17T02:45:48.200Z</time>
      </trkpt>
      <trkpt lat="63.01104" lon="7.55566">
        <ele>40.908777</ele>
        <time>2020-07-17T02:45:54.697Z</time>
      </trkpt>
      <trkpt lat="63.01077" lon="7.5566">
        <ele>40.343415</ele>
        <time>2020-07-17T02:46:03.405Z</time>
      </trkpt>
      <trkpt lat="63.01043" lon="7.55768">
        <ele>39.796475</ele>
        <time>2020-07-17T02:46:14.534Z</time>
      </trkpt>
      <trkpt lat="63.01034" lon="7.55801">
        <ele>39.658046</ele>
        <time>2020-07-17T02:46:17.896Z</time>
      </trkpt>
      <trkpt lat="63.01002" lon="7.55901">
        <ele>39.22537</ele>
        <time>2020-07-17T02:46:28.509Z</time>
      </trkpt>
      <trkpt lat="63.00962" lon="7.5603">
        <ele>38.641212</ele>
        <time>2020-07-17T02:46:39.465Z</time>
      </trkpt>
      <trkpt lat="63.00936" lon="7.56131">
        <ele>35.214633</ele>
        <time>2020-07-17T02:46:46.839Z</time>
      </trkpt>
      <trkpt lat="63.00933" lon="7.56147">
        <ele>34.744122</ele>
        <time>2020-07-17T02:46:47.796Z</time>
      </trkpt>
      <trkpt lat="63.00931" lon="7.56162">
        <ele>34.266779</ele>
        <time>2020-07-17T02:46:48.712Z</time>
      </trkpt>
      <trkpt lat="63.00929" lon="7.56184">
        <ele>33.604472</ele>
        <time>2020-07-17T02:46:50.020Z</time>
      </trkpt>
      <trkpt lat="63.00927" lon="7.56213">
        <ele>32.749659</ele>
        <time>2020-07-17T02:46:51.802Z</time>
      </trkpt>
      <trkpt lat="63.00926" lon="7.56255">
        <ele>31.511926</ele>
        <time>2020-07-17T02:46:54.114Z</time>
      </trkpt>
      <trkpt lat="63.00926" lon="7.56298">
        <ele>30.276547</ele>
        <time>2020-07-17T02:46:56.397Z</time>
      </trkpt>
      <trkpt lat="63.00926" lon="7.56567">
        <ele>20.137808</ele>
        <time>2020-07-17T02:47:10.136Z</time>
      </trkpt>
      <trkpt lat="63.00926" lon="7.56584">
        <ele>19.378807</ele>
        <time>2020-07-17T02:47:11.014Z</time>
      </trkpt>
      <trkpt lat="63.00926" lon="7.56651">
        <ele>16.507841</ele>
        <time>2020-07-17T02:47:14.464Z</time>
      </trkpt>
      <trkpt lat="63.00925" lon="7.56671">
        <ele>15.644605</ele>
        <time>2020-07-17T02:47:15.436Z</time>
      </trkpt>
      <trkpt lat="63.00926" lon="7.56704">
        <ele>14.183069</ele>
        <time>2020-07-17T02:47:17.136Z</time>
      </trkpt>
      <trkpt lat="63.00926" lon="7.56779">
        <ele>10.947812</ele>
        <time>2020-07-17T02:47:20.937Z</time>
      </trkpt>
      <trkpt lat="63.00926" lon="7.56823">
        <ele>9.876968</ele>
        <time>2020-07-17T02:47:23.312Z</time>
      </trkpt>
      <trkpt lat="63.00926" lon="7.56872">
        <ele>9.842634</ele>
        <time>2020-07-17T02:47:26.166Z</time>
      </trkpt>
      <trkpt lat="63.00921" lon="7.57023">
        <ele>9.736719</ele>
        <time>2020-07-17T02:47:36.385Z</time>
      </trkpt>
      <trkpt lat="63.00903" lon="7.57163">
        <ele>9.63455</ele>
        <time>2020-07-17T02:47:56.495Z</time>
      </trkpt>
      <trkpt lat="63.00898" lon="7.57191">
        <ele>9.613621</ele>
        <time>2020-07-17T02:48:02.219Z</time>
      </trkpt>
      <trkpt lat="63.00874" lon="7.57321">
        <ele>13.023777</ele>
        <time>2020-07-17T02:48:26.272Z</time>
      </trkpt>
      <trkpt lat="63.00862" lon="7.57396">
        <ele>14.946839</ele>
        <time>2020-07-17T02:48:39.759Z</time>
      </trkpt>
      <trkpt lat="63.00856" lon="7.57488">
        <ele>17.213254</ele>
        <time>2020-07-17T02:48:55.419Z</time>
      </trkpt>
      <trkpt lat="63.00856" lon="7.57497">
        <ele>17.422735</ele>
        <time>2020-07-17T02:48:57.627Z</time>
      </trkpt>
      <trkpt lat="63.00856" lon="7.57518">
        <ele>17.941424</ele>
        <time>2020-07-17T02:49:00.630Z</time>
      </trkpt>
      <trkpt lat="63.00856" lon="7.5753">
        <ele>18.238692</ele>
        <time>2020-07-17T02:49:02.435Z</time>
      </trkpt>
      <trkpt lat="63.00857" lon="7.57549">
        <ele>18.704061</ele>
        <time>2020-07-17T02:49:05.292Z</time>
      </trkpt>
      <trkpt lat="63.00865" lon="7.57659">
        <ele>20.500451</ele>
        <time>2020-07-17T02:49:21.636Z</time>
      </trkpt>
      <trkpt lat="63.00899" lon="7.57902">
        <ele>24.033078</ele>
        <time>2020-07-17T02:49:52.733Z</time>
      </trkpt>
      <trkpt lat="63.00909" lon="7.57966">
        <ele>24.965651</ele>
        <time>2020-07-17T02:50:00.493Z</time>
      </trkpt>
      <trkpt lat="63.00919" lon="7.58025">
        <ele>25.82809</ele>
        <time>2020-07-17T02:50:07.924Z</time>
      </trkpt>
      <trkpt lat="63.00927" lon="7.58066">
        <ele>26.437474</ele>
        <time>2020-07-17T02:50:12.769Z</time>
      </trkpt>
      <trkpt lat="63.00935" lon="7.58098">
        <ele>26.925867</ele>
        <time>2020-07-17T02:50:17.505Z</time>
      </trkpt>
      <trkpt lat="63.00947" lon="7.58146">
        <ele>27.670271</ele>
        <time>2020-07-17T02:50:23.599Z</time>
      </trkpt>
      <trkpt lat="63.00952" lon="7.58163">
        <ele>27.957986</ele>
        <time>2020-07-17T02:50:27.677Z</time>
      </trkpt>
      <trkpt lat="63.01005" lon="7.58297">
        <ele>30.244827</ele>
        <time>2020-07-17T02:50:51.732Z</time>
      </trkpt>
      <trkpt lat="63.01046" lon="7.58372">
        <ele>30.913479</ele>
        <time>2020-07-17T02:51:06.398Z</time>
      </trkpt>
      <trkpt lat="63.01058" lon="7.58386">
        <ele>31.085622</ele>
        <time>2020-07-17T02:51:11.592Z</time>
      </trkpt>
      <trkpt lat="63.01081" lon="7.58412">
        <ele>31.418142</ele>
        <time>2020-07-17T02:51:17.676Z</time>
      </trkpt>
      <trkpt lat="63.01084" lon="7.58404">
        <ele>31.478031</ele>
        <time>2020-07-17T02:51:18.908Z</time>
      </trkpt>
      <trkpt lat="63.01087" lon="7.58407">
        <ele>31.517768</ele>
        <time>2020-07-17T02:51:19.908Z</time>
      </trkpt>
      <trkpt lat="63.01117" lon="7.58453">
        <ele>31.980994</ele>
        <time>2020-07-17T02:51:26.607Z</time>
      </trkpt>
      <trkpt lat="63.01142" lon="7.5852">
        <ele>32.279484</ele>
        <time>2020-07-17T02:51:32.857Z</time>
      </trkpt>
      <trkpt lat="63.01165" lon="7.58591">
        <ele>30.642357</ele>
        <time>2020-07-17T02:51:38.577Z</time>
      </trkpt>
      <trkpt lat="63.01161" lon="7.58595">
        <ele>30.467726</ele>
        <time>2020-07-17T02:51:39.391Z</time>
      </trkpt>
      <trkpt lat="63.01198" lon="7.58702">
        <ele>27.947139</ele>
        <time>2020-07-17T02:51:47.018Z</time>
      </trkpt>
      <trkpt lat="63.01261" lon="7.58855">
        <ele>24.308952</ele>
        <time>2020-07-17T02:51:58.862Z</time>
      </trkpt>
      <trkpt lat="63.01276" lon="7.58887">
        <ele>23.667676</ele>
        <time>2020-07-17T02:52:01.476Z</time>
      </trkpt>
      <trkpt lat="63.01296" lon="7.58931">
        <ele>22.801397</ele>
        <time>2020-07-17T02:52:05.260Z</time>
      </trkpt>
      <trkpt lat="63.01336" lon="7.59011">
        <ele>21.15635</ele>
        <time>2020-07-17T02:52:12.992Z</time>
      </trkpt>
      <trkpt lat="63.01373" lon="7.5906">
        <ele>19.832363</ele>
        <time>2020-07-17T02:52:19.494Z</time>
      </trkpt>
      <trkpt lat="63.01401" lon="7.59077">
        <ele>19.337985</ele>
        <time>2020-07-17T02:52:23.998Z</time>
      </trkpt>
      <trkpt lat="63.01445" lon="7.59071">
        <ele>18.971569</ele>
        <time>2020-07-17T02:52:31.730Z</time>
      </trkpt>
      <trkpt lat="63.01456" lon="7.59064">
        <ele>18.880436</ele>
        <time>2020-07-17T02:52:33.609Z</time>
      </trkpt>
      <trkpt lat="63.01464" lon="7.59057">
        <ele>18.805514</ele>
        <time>2020-07-17T02:52:35.216Z</time>
      </trkpt>
      <trkpt lat="63.01561" lon="7.58966">
        <ele>17.905099</ele>
        <time>2020-07-17T02:52:52.903Z</time>
      </trkpt>
      <trkpt lat="63.01685" lon="7.58913">
        <ele>16.427351</ele>
        <time>2020-07-17T02:53:13.122Z</time>
      </trkpt>
      <trkpt lat="63.01723" lon="7.58889">
        <ele>15.971493</ele>
        <time>2020-07-17T02:53:19.150Z</time>
      </trkpt>
      <trkpt lat="63.01748" lon="7.58871">
        <ele>15.59015</ele>
        <time>2020-07-17T02:53:23.263Z</time>
      </trkpt>
      <trkpt lat="63.01914" lon="7.58769">
        <ele>13.104327</ele>
        <time>2020-07-17T02:53:49.378Z</time>
      </trkpt>
      <trkpt lat="63.01932" lon="7.5877">
        <ele>13.128825</ele>
        <time>2020-07-17T02:53:52.269Z</time>
      </trkpt>
      <trkpt lat="63.01957" lon="7.58789">
        <ele>13.165778</ele>
        <time>2020-07-17T02:53:56.771Z</time>
      </trkpt>
      <trkpt lat="63.01984" lon="7.58837">
        <ele>13.214089</ele>
        <time>2020-07-17T02:54:03.090Z</time>
      </trkpt>
      <trkpt lat="63.01999" lon="7.58882">
        <ele>13.2491</ele>
        <time>2020-07-17T02:54:07.921Z</time>
      </trkpt>
      <trkpt lat="63.02019" lon="7.58949">
        <ele>13.300682</ele>
        <time>2020-07-17T02:54:15.776Z</time>
      </trkpt>
      <trkpt lat="63.02073" lon="7.5915">
        <ele>14.814441</ele>
        <time>2020-07-17T02:54:41.805Z</time>
      </trkpt>
      <trkpt lat="63.02165" lon="7.59628">
        <ele>18.29643</ele>
        <time>2020-07-17T02:55:40.647Z</time>
      </trkpt>
      <trkpt lat="63.02192" lon="7.59704">
        <ele>18.807042</ele>
        <time>2020-07-17T02:55:48.364Z</time>
      </trkpt>
      <trkpt lat="63.02224" lon="7.59757">
        <ele>18.303876</ele>
        <time>2020-07-17T02:55:54.776Z</time>
      </trkpt>
      <trkpt lat="63.02236" lon="7.59771">
        <ele>18.111143</ele>
        <time>2020-07-17T02:55:56.885Z</time>
      </trkpt>
      <trkpt lat="63.02241" lon="7.59776">
        <ele>18.040001</ele>
        <time>2020-07-17T02:55:57.527Z</time>
      </trkpt>
      <trkpt lat="63.02288" lon="7.59801">
        <ele>17.381762</ele>
        <time>2020-07-17T02:56:04.846Z</time>
      </trkpt>
      <trkpt lat="63.02357" lon="7.59799">
        <ele>16.423222</ele>
        <time>2020-07-17T02:56:15.303Z</time>
      </trkpt>
      <trkpt lat="63.02386" lon="7.59789">
        <ele>16.421199</ele>
        <time>2020-07-17T02:56:19.651Z</time>
      </trkpt>
      <trkpt lat="63.02522" lon="7.59743">
        <ele>16.776775</ele>
        <time>2020-07-17T02:56:46.997Z</time>
      </trkpt>
      <trkpt lat="63.02604" lon="7.59715">
        <ele>18.757802</ele>
        <time>2020-07-17T02:57:07.982Z</time>
      </trkpt>
      <trkpt lat="63.02675" lon="7.59692">
        <ele>20.893508</ele>
        <time>2020-07-17T02:57:28.633Z</time>
      </trkpt>
      <trkpt lat="63.02702" lon="7.59682">
        <ele>21.730505</ele>
        <time>2020-07-17T02:57:37.220Z</time>
      </trkpt>
      <trkpt lat="63.02711" lon="7.59678">
        <ele>21.988996</ele>
        <time>2020-07-17T02:57:39.866Z</time>
      </trkpt>
      <trkpt lat="63.0274" lon="7.59669">
        <ele>23.181871</ele>
        <time>2020-07-17T02:57:49.454Z</time>
      </trkpt>
      <trkpt lat="63.02777" lon="7.59658">
        <ele>24.878837</ele>
        <time>2020-07-17T02:58:03.047Z</time>
      </trkpt>
      <trkpt lat="63.02811" lon="7.59665">
        <ele>26.402258</ele>
        <time>2020-07-17T02:58:15.034Z</time>
      </trkpt>
      <trkpt lat="63.02841" lon="7.597">
        <ele>27.89033</ele>
        <time>2020-07-17T02:58:26.467Z</time>
      </trkpt>
      <trkpt lat="63.02863" lon="7.5975">
        <ele>29.294203</ele>
        <time>2020-07-17T02:58:37.300Z</time>
      </trkpt>
      <trkpt lat="63.02883" lon="7.59809">
        <ele>30.515789</ele>
        <time>2020-07-17T02:58:47.399Z</time>
      </trkpt>
      <trkpt lat="63.02886" lon="7.59816">
        <ele>30.616424</ele>
        <time>2020-07-17T02:58:48.313Z</time>
      </trkpt>
      <trkpt lat="63.02962" lon="7.60031">
        <ele>33.392329</ele>
        <time>2020-07-17T02:59:20.311Z</time>
      </trkpt>
      <trkpt lat="63.02971" lon="7.60054">
        <ele>33.703009</ele>
        <time>2020-07-17T02:59:23.682Z</time>
      </trkpt>
      <trkpt lat="63.02974" lon="7.60063">
        <ele>33.827099</ele>
        <time>2020-07-17T02:59:24.704Z</time>
      </trkpt>
      <trkpt lat="63.0299" lon="7.601">
        <ele>34.326638</ele>
        <time>2020-07-17T02:59:29.394Z</time>
      </trkpt>
      <trkpt lat="63.03014" lon="7.60143">
        <ele>34.936122</ele>
        <time>2020-07-17T02:59:36.094Z</time>
      </trkpt>
      <trkpt lat="63.03041" lon="7.60174">
        <ele>35.527531</ele>
        <time>2020-07-17T02:59:42.807Z</time>
      </trkpt>
      <trkpt lat="63.03062" lon="7.60193">
        <ele>35.970595</ele>
        <time>2020-07-17T02:59:48.046Z</time>
      </trkpt>
      <trkpt lat="63.031" lon="7.60227">
        <ele>36.780766</ele>
        <time>2020-07-17T02:59:58.907Z</time>
      </trkpt>
      <trkpt lat="63.03127" lon="7.60263">
        <ele>37.4006</ele>
        <time>2020-07-17T03:00:07.672Z</time>
      </trkpt>
      <trkpt lat="63.03152" lon="7.60334">
        <ele>38.113288</ele>
        <time>2020-07-17T03:00:19.216Z</time>
      </trkpt>
      <trkpt lat="63.03177" lon="7.60433">
        <ele>38.935872</ele>
        <time>2020-07-17T03:00:32.747Z</time>
      </trkpt>
      <trkpt lat="63.03186" lon="7.6047">
        <ele>39.242442</ele>
        <time>2020-07-17T03:00:37.747Z</time>
      </trkpt>
      <trkpt lat="63.03206" lon="7.60531">
        <ele>39.789442</ele>
        <time>2020-07-17T03:00:45.063Z</time>
      </trkpt>
      <trkpt lat="63.03206" lon="7.60532">
        <ele>39.802021</ele>
        <time>2020-07-17T03:00:45.575Z</time>
      </trkpt>
      <trkpt lat="63.03214" lon="7.60549">
        <ele>39.969075</ele>
        <time>2020-07-17T03:00:47.647Z</time>
      </trkpt>
      <trkpt lat="63.03252" lon="7.60615">
        <ele>40.643982</ele>
        <time>2020-07-17T03:00:57.787Z</time>
      </trkpt>
      <trkpt lat="63.03339" lon="7.60742">
        <ele>40.282993</ele>
        <time>2020-07-17T03:01:16.248Z</time>
      </trkpt>
      <trkpt lat="63.03344" lon="7.60751">
        <ele>40.259633</ele>
        <time>2020-07-17T03:01:17.363Z</time>
      </trkpt>
      <trkpt lat="63.03364" lon="7.6078">
        <ele>40.176322</ele>
        <time>2020-07-17T03:01:21.225Z</time>
      </trkpt>
      <trkpt lat="63.03373" lon="7.60794">
        <ele>40.137003</ele>
        <time>2020-07-17T03:01:23.093Z</time>
      </trkpt>
      <trkpt lat="63.03384" lon="7.6081">
        <ele>40.091124</ele>
        <time>2020-07-17T03:01:25.211Z</time>
      </trkpt>
      <trkpt lat="63.03423" lon="7.60855">
        <ele>39.892336</ele>
        <time>2020-07-17T03:01:32.389Z</time>
      </trkpt>
      <trkpt lat="63.03452" lon="7.60871">
        <ele>39.732864</ele>
        <time>2020-07-17T03:01:37.581Z</time>
      </trkpt>
      <trkpt lat="63.03472" lon="7.6087">
        <ele>39.629908</ele>
        <time>2020-07-17T03:01:41.028Z</time>
      </trkpt>
      <trkpt lat="63.03567" lon="7.60824">
        <ele>39.127432</ele>
        <time>2020-07-17T03:01:57.961Z</time>
      </trkpt>
      <trkpt lat="63.036" lon="7.60832">
        <ele>38.996883</ele>
        <time>2020-07-17T03:02:03.792Z</time>
      </trkpt>
      <trkpt lat="63.03627" lon="7.60851">
        <ele>38.892366</ele>
        <time>2020-07-17T03:02:08.717Z</time>
      </trkpt>
      <trkpt lat="63.03652" lon="7.60881">
        <ele>38.786321</ele>
        <time>2020-07-17T03:02:13.712Z</time>
      </trkpt>
      <trkpt lat="63.0367" lon="7.60915">
        <ele>38.69824</ele>
        <time>2020-07-17T03:02:17.851Z</time>
      </trkpt>
      <trkpt lat="63.03711" lon="7.61053">
        <ele>38.427355</ele>
        <time>2020-07-17T03:02:31.003Z</time>
      </trkpt>
      <trkpt lat="63.03737" lon="7.61099">
        <ele>38.36593</ele>
        <time>2020-07-17T03:02:36.880Z</time>
      </trkpt>
      <trkpt lat="63.03763" lon="7.6112">
        <ele>38.315031</ele>
        <time>2020-07-17T03:02:41.772Z</time>
      </trkpt>
      <trkpt lat="63.03809" lon="7.6113">
        <ele>38.229034</ele>
        <time>2020-07-17T03:02:50.165Z</time>
      </trkpt>
      <trkpt lat="63.03833" lon="7.61144">
        <ele>38.182874</ele>
        <time>2020-07-17T03:02:54.702Z</time>
      </trkpt>
      <trkpt lat="63.03902" lon="7.61227">
        <ele>38.133912</ele>
        <time>2020-07-17T03:03:09.214Z</time>
      </trkpt>
      <trkpt lat="63.03936" lon="7.61282">
        <ele>38.171144</ele>
        <time>2020-07-17T03:03:17.136Z</time>
      </trkpt>
      <trkpt lat="63.03956" lon="7.61326">
        <ele>38.195881</ele>
        <time>2020-07-17T03:03:22.449Z</time>
      </trkpt>
      <trkpt lat="63.03974" lon="7.61401">
        <ele>38.229441</ele>
        <time>2020-07-17T03:03:29.668Z</time>
      </trkpt>
      <trkpt lat="63.03994" lon="7.61555">
        <ele>38.663485</ele>
        <time>2020-07-17T03:03:43.387Z</time>
      </trkpt>
      <trkpt lat="63.0401" lon="7.61635">
        <ele>39.098927</ele>
        <time>2020-07-17T03:03:51.958Z</time>
      </trkpt>
      <trkpt lat="63.04058" lon="7.61762">
        <ele>39.919041</ele>
        <time>2020-07-17T03:04:09.159Z</time>
      </trkpt>
      <trkpt lat="63.04079" lon="7.61793">
        <ele>40.190438</ele>
        <time>2020-07-17T03:04:15.420Z</time>
      </trkpt>
      <trkpt lat="63.04084" lon="7.61797">
        <ele>40.265795</ele>
        <time>2020-07-17T03:04:16.668Z</time>
      </trkpt>
      <trkpt lat="63.04094" lon="7.61803">
        <ele>40.420218</ele>
        <time>2020-07-17T03:04:18.855Z</time>
      </trkpt>
      <trkpt lat="63.04111" lon="7.61813">
        <ele>40.707997</ele>
        <time>2020-07-17T03:04:23.749Z</time>
      </trkpt>
      <trkpt lat="63.04207" lon="7.61881">
        <ele>42.301734</ele>
        <time>2020-07-17T03:04:48.497Z</time>
      </trkpt>
      <trkpt lat="63.04228" lon="7.61883">
        <ele>42.641751</ele>
        <time>2020-07-17T03:04:53.503Z</time>
      </trkpt>
      <trkpt lat="63.04248" lon="7.61861">
        <ele>42.995395</ele>
        <time>2020-07-17T03:04:59.055Z</time>
      </trkpt>
      <trkpt lat="63.04277" lon="7.61769">
        <ele>42.816107</ele>
        <time>2020-07-17T03:05:08.791Z</time>
      </trkpt>
      <trkpt lat="63.04289" lon="7.61743">
        <ele>42.713895</ele>
        <time>2020-07-17T03:05:11.830Z</time>
      </trkpt>
      <trkpt lat="63.04339" lon="7.61694">
        <ele>42.392631</ele>
        <time>2020-07-17T03:05:20.787Z</time>
      </trkpt>
      <trkpt lat="63.04366" lon="7.6161">
        <ele>42.113533</ele>
        <time>2020-07-17T03:05:27.834Z</time>
      </trkpt>
      <trkpt lat="63.04377" lon="7.61591">
        <ele>42.028422</ele>
        <time>2020-07-17T03:05:30.110Z</time>
      </trkpt>
      <trkpt lat="63.04396" lon="7.61584">
        <ele>42.002374</ele>
        <time>2020-07-17T03:05:32.837Z</time>
      </trkpt>
      <trkpt lat="63.04415" lon="7.61595">
        <ele>41.987738</ele>
        <time>2020-07-17T03:05:36.096Z</time>
      </trkpt>
      <trkpt lat="63.04449" lon="7.61655">
        <ele>41.956387</ele>
        <time>2020-07-17T03:05:43.300Z</time>
      </trkpt>
      <trkpt lat="63.04455" lon="7.6167">
        <ele>41.949759</ele>
        <time>2020-07-17T03:05:44.663Z</time>
      </trkpt>
      <trkpt lat="63.04455" lon="7.61672">
        <ele>41.949242</ele>
        <time>2020-07-17T03:05:44.917Z</time>
      </trkpt>
      <trkpt lat="63.04503" lon="7.61805">
        <ele>41.892909</ele>
        <time>2020-07-17T03:06:00.418Z</time>
      </trkpt>
      <trkpt lat="63.04514" lon="7.61826">
        <ele>41.918151</ele>
        <time>2020-07-17T03:06:03.825Z</time>
      </trkpt>
      <trkpt lat="63.04525" lon="7.61843">
        <ele>42.234483</ele>
        <time>2020-07-17T03:06:07.156Z</time>
      </trkpt>
      <trkpt lat="63.04608" lon="7.61967">
        <ele>44.645859</ele>
        <time>2020-07-17T03:06:34.563Z</time>
      </trkpt>
      <trkpt lat="63.0462" lon="7.61983">
        <ele>44.997148</ele>
        <time>2020-07-17T03:06:39.506Z</time>
      </trkpt>
      <trkpt lat="63.0463" lon="7.61992">
        <ele>45.259788</ele>
        <time>2020-07-17T03:06:42.422Z</time>
      </trkpt>
      <trkpt lat="63.04645" lon="7.61997">
        <ele>45.614189</ele>
        <time>2020-07-17T03:06:46.471Z</time>
      </trkpt>
      <trkpt lat="63.04664" lon="7.61991">
        <ele>46.07495</ele>
        <time>2020-07-17T03:06:51.951Z</time>
      </trkpt>
      <trkpt lat="63.04707" lon="7.61919">
        <ele>45.863241</ele>
        <time>2020-07-17T03:07:04.621Z</time>
      </trkpt>
      <trkpt lat="63.04737" lon="7.61901">
        <ele>45.637693</ele>
        <time>2020-07-17T03:07:10.765Z</time>
      </trkpt>
      <trkpt lat="63.04749" lon="7.619">
        <ele>45.549753</ele>
        <time>2020-07-17T03:07:13.560Z</time>
      </trkpt>
      <trkpt lat="63.04751" lon="7.619">
        <ele>45.53583</ele>
        <time>2020-07-17T03:07:13.976Z</time>
      </trkpt>
      <trkpt lat="63.04818" lon="7.61905">
        <ele>45.04398</ele>
        <time>2020-07-17T03:07:23.740Z</time>
      </trkpt>
      <trkpt lat="63.04856" lon="7.61924">
        <ele>43.718061</ele>
        <time>2020-07-17T03:07:28.851Z</time>
      </trkpt>
      <trkpt lat="63.04867" lon="7.61947">
        <ele>42.766119</ele>
        <time>2020-07-17T03:07:30.775Z</time>
      </trkpt>
      <trkpt lat="63.04893" lon="7.6204">
        <ele>39.655724</ele>
        <time>2020-07-17T03:07:36.957Z</time>
      </trkpt>
      <trkpt lat="63.0491" lon="7.62073">
        <ele>38.271024</ele>
        <time>2020-07-17T03:07:39.636Z</time>
      </trkpt>
      <trkpt lat="63.04982" lon="7.6213">
        <ele>33.483975</ele>
        <time>2020-07-17T03:07:48.768Z</time>
      </trkpt>
      <trkpt lat="63.05013" lon="7.62184">
        <ele>30.993447</ele>
        <time>2020-07-17T03:07:53.431Z</time>
      </trkpt>
      <trkpt lat="63.05049" lon="7.62281">
        <ele>27.376949</ele>
        <time>2020-07-17T03:08:00.274Z</time>
      </trkpt>
      <trkpt lat="63.05102" lon="7.62323">
        <ele>23.787291</ele>
        <time>2020-07-17T03:08:07.288Z</time>
      </trkpt>
      <trkpt lat="63.05114" lon="7.62347">
        <ele>22.76581</ele>
        <time>2020-07-17T03:08:09.338Z</time>
      </trkpt>
      <trkpt lat="63.05135" lon="7.62432">
        <ele>21.417487</ele>
        <time>2020-07-17T03:08:15.029Z</time>
      </trkpt>
      <trkpt lat="63.05143" lon="7.6247">
        <ele>20.955761</ele>
        <time>2020-07-17T03:08:17.609Z</time>
      </trkpt>
      <trkpt lat="63.05144" lon="7.62477">
        <ele>20.872527</ele>
        <time>2020-07-17T03:08:18.090Z</time>
      </trkpt>
      <trkpt lat="63.05152" lon="7.62525">
        <ele>20.320448</ele>
        <time>2020-07-17T03:08:21.339Z</time>
      </trkpt>
      <trkpt lat="63.05154" lon="7.62547">
        <ele>20.077425</ele>
        <time>2020-07-17T03:08:22.782Z</time>
      </trkpt>
      <trkpt lat="63.05155" lon="7.62572">
        <ele>19.80664</ele>
        <time>2020-07-17T03:08:24.514Z</time>
      </trkpt>
      <trkpt lat="63.05152" lon="7.62652">
        <ele>18.925619</ele>
        <time>2020-07-17T03:08:30.196Z</time>
      </trkpt>
      <trkpt lat="63.05148" lon="7.62703">
        <ele>18.366208</ele>
        <time>2020-07-17T03:08:33.945Z</time>
      </trkpt>
      <trkpt lat="63.05146" lon="7.62727">
        <ele>18.102652</ele>
        <time>2020-07-17T03:08:36.012Z</time>
      </trkpt>
      <trkpt lat="63.05144" lon="7.62784">
        <ele>18.005856</ele>
        <time>2020-07-17T03:08:40.527Z</time>
      </trkpt>
      <trkpt lat="63.05145" lon="7.62818">
        <ele>18.042612</ele>
        <time>2020-07-17T03:08:43.596Z</time>
      </trkpt>
      <trkpt lat="63.05146" lon="7.62836">
        <ele>18.061771</ele>
        <time>2020-07-17T03:08:45.101Z</time>
      </trkpt>
      <trkpt lat="63.05147" lon="7.6286">
        <ele>18.088012</ele>
        <time>2020-07-17T03:08:47.224Z</time>
      </trkpt>
      <trkpt lat="63.05151" lon="7.62892">
        <ele>18.124035</ele>
        <time>2020-07-17T03:08:50.310Z</time>
      </trkpt>
      <trkpt lat="63.05164" lon="7.63004">
        <ele>18.248585</ele>
        <time>2020-07-17T03:09:00.600Z</time>
      </trkpt>
      <trkpt lat="63.05167" lon="7.63031">
        <ele>18.279523</ele>
        <time>2020-07-17T03:09:03.357Z</time>
      </trkpt>
      <trkpt lat="63.05175" lon="7.6309">
        <ele>18.34627</ele>
        <time>2020-07-17T03:09:08.967Z</time>
      </trkpt>
      <trkpt lat="63.05192" lon="7.6323">
        <ele>18.672454</ele>
        <time>2020-07-17T03:09:22.421Z</time>
      </trkpt>
      <trkpt lat="63.05196" lon="7.6326">
        <ele>18.75535</ele>
        <time>2020-07-17T03:09:25.313Z</time>
      </trkpt>
      <trkpt lat="63.05198" lon="7.63278">
        <ele>18.806487</ele>
        <time>2020-07-17T03:09:26.997Z</time>
      </trkpt>
      <trkpt lat="63.05201" lon="7.63294">
        <ele>18.851915</ele>
        <time>2020-07-17T03:09:28.506Z</time>
      </trkpt>
      <trkpt lat="63.05207" lon="7.63288">
        <ele>18.889399</ele>
        <time>2020-07-17T03:09:29.709Z</time>
      </trkpt>
      <trkpt lat="63.05208" lon="7.63296">
        <ele>18.911834</ele>
        <time>2020-07-17T03:09:30.472Z</time>
      </trkpt>
      <trkpt lat="63.05232" lon="7.63372">
        <ele>19.156882</ele>
        <time>2020-07-17T03:09:38.855Z</time>
      </trkpt>
      <trkpt lat="63.05248" lon="7.63393">
        <ele>19.269468</ele>
        <time>2020-07-17T03:09:42.819Z</time>
      </trkpt>
      <trkpt lat="63.05276" lon="7.63387">
        <ele>19.433786</ele>
        <time>2020-07-17T03:09:48.430Z</time>
      </trkpt>
      <trkpt lat="63.05319" lon="7.63347">
        <ele>20.138702</ele>
        <time>2020-07-17T03:09:58.810Z</time>
      </trkpt>
      <trkpt lat="63.05322" lon="7.63358">
        <ele>20.226836</ele>
        <time>2020-07-17T03:09:59.904Z</time>
      </trkpt>
      <trkpt lat="63.05331" lon="7.63348">
        <ele>20.374408</ele>
        <time>2020-07-17T03:10:01.772Z</time>
      </trkpt>
      <trkpt lat="63.05335" lon="7.63342">
        <ele>20.456637</ele>
        <time>2020-07-17T03:10:03.631Z</time>
      </trkpt>
      <trkpt lat="63.05339" lon="7.63337">
        <ele>20.519397</ele>
        <time>2020-07-17T03:10:04.786Z</time>
      </trkpt>
      <trkpt lat="63.05366" lon="7.6327">
        <ele>21.150981</ele>
        <time>2020-07-17T03:10:14.343Z</time>
      </trkpt>
      <trkpt lat="63.05386" lon="7.6315">
        <ele>22.04859</ele>
        <time>2020-07-17T03:10:27.514Z</time>
      </trkpt>
      <trkpt lat="63.05388" lon="7.63147">
        <ele>22.0839</ele>
        <time>2020-07-17T03:10:28.442Z</time>
      </trkpt>
      <trkpt lat="63.05391" lon="7.63145">
        <ele>22.126689</ele>
        <time>2020-07-17T03:10:29.405Z</time>
      </trkpt>
      <trkpt lat="63.05403" lon="7.63156">
        <ele>22.417542</ele>
        <time>2020-07-17T03:10:32.531Z</time>
      </trkpt>
      <trkpt lat="63.05415" lon="7.63209">
        <ele>23.224421</ele>
        <time>2020-07-17T03:10:40.559Z</time>
      </trkpt>
      <trkpt lat="63.05423" lon="7.63254">
        <ele>23.878153</ele>
        <time>2020-07-17T03:10:45.519Z</time>
      </trkpt>
      <trkpt lat="63.05427" lon="7.63271">
        <ele>24.135842</ele>
        <time>2020-07-17T03:10:48.826Z</time>
      </trkpt>
      <trkpt lat="63.05432" lon="7.63291">
        <ele>24.447266</ele>
        <time>2020-07-17T03:10:51.991Z</time>
      </trkpt>
      <trkpt lat="63.05455" lon="7.63351">
        <ele>25.509421</ele>
        <time>2020-07-17T03:11:02.346Z</time>
      </trkpt>
      <trkpt lat="63.05486" lon="7.63382">
        <ele>26.534988</ele>
        <time>2020-07-17T03:11:12.530Z</time>
      </trkpt>
      <trkpt lat="63.05496" lon="7.63385">
        <ele>26.829395</ele>
        <time>2020-07-17T03:11:15.159Z</time>
      </trkpt>
      <trkpt lat="63.05496" lon="7.63396">
        <ele>26.975639</ele>
        <time>2020-07-17T03:11:16.185Z</time>
      </trkpt>
      <trkpt lat="63.05496" lon="7.634">
        <ele>27.042002</ele>
        <time>2020-07-17T03:11:16.580Z</time>
      </trkpt>
      <trkpt lat="63.05501" lon="7.63401">
        <ele>27.197742</ele>
        <time>2020-07-17T03:11:17.877Z</time>
      </trkpt>
      <trkpt lat="63.0551" lon="7.63403">
        <ele>27.479463</ele>
        <time>2020-07-17T03:11:21.324Z</time>
      </trkpt>
      <trkpt lat="63.05545" lon="7.6341">
        <ele>28.875161</ele>
        <time>2020-07-17T03:11:30.897Z</time>
      </trkpt>
      <trkpt lat="63.05597" lon="7.63475">
        <ele>31.339474</ele>
        <time>2020-07-17T03:11:48.382Z</time>
      </trkpt>
      <trkpt lat="63.05615" lon="7.63521">
        <ele>32.506022</ele>
        <time>2020-07-17T03:11:58.829Z</time>
      </trkpt>
      <trkpt lat="63.0566" lon="7.6368">
        <ele>36.285386</ele>
        <time>2020-07-17T03:12:26.523Z</time>
      </trkpt>
      <trkpt lat="63.05665" lon="7.63693">
        <ele>36.70384</ele>
        <time>2020-07-17T03:12:28.928Z</time>
      </trkpt>
      <trkpt lat="63.05676" lon="7.63715">
        <ele>37.468673</ele>
        <time>2020-07-17T03:12:36.307Z</time>
      </trkpt>
      <trkpt lat="63.05706" lon="7.63762">
        <ele>39.386308</ele>
        <time>2020-07-17T03:12:49.927Z</time>
      </trkpt>
      <trkpt lat="63.05784" lon="7.63847">
        <ele>43.980155</ele>
        <time>2020-07-17T03:13:20.636Z</time>
      </trkpt>
      <trkpt lat="63.05794" lon="7.63859">
        <ele>44.562481</ele>
        <time>2020-07-17T03:13:25.378Z</time>
      </trkpt>
      <trkpt lat="63.05801" lon="7.63865">
        <ele>44.76789</ele>
        <time>2020-07-17T03:13:29.105Z</time>
      </trkpt>
      <trkpt lat="63.06033" lon="7.64013">
        <ele>49.821266</ele>
        <time>2020-07-17T03:14:31.961Z</time>
      </trkpt>
      <trkpt lat="63.06077" lon="7.6406">
        <ele>49.879428</ele>
        <time>2020-07-17T03:14:40.229Z</time>
      </trkpt>
      <trkpt lat="63.06172" lon="7.64191">
        <ele>48.455369</ele>
        <time>2020-07-17T03:14:57.066Z</time>
      </trkpt>
      <trkpt lat="63.06195" lon="7.64222">
        <ele>47.650224</ele>
        <time>2020-07-17T03:15:00.907Z</time>
      </trkpt>
      <trkpt lat="63.0621" lon="7.64238">
        <ele>47.173541</ele>
        <time>2020-07-17T03:15:03.175Z</time>
      </trkpt>
      <trkpt lat="63.06248" lon="7.64269">
        <ele>45.969109</ele>
        <time>2020-07-17T03:15:08.699Z</time>
      </trkpt>
      <trkpt lat="63.06317" lon="7.64287">
        <ele>43.718395</ele>
        <time>2020-07-17T03:15:17.894Z</time>
      </trkpt>
      <trkpt lat="63.06323" lon="7.64289">
        <ele>43.483538</ele>
        <time>2020-07-17T03:15:18.643Z</time>
      </trkpt>
      <trkpt lat="63.06326" lon="7.6429">
        <ele>43.362805</ele>
        <time>2020-07-17T03:15:19.045Z</time>
      </trkpt>
      <trkpt lat="63.06343" lon="7.64296">
        <ele>42.712996</ele>
        <time>2020-07-17T03:15:21.305Z</time>
      </trkpt>
      <trkpt lat="63.06348" lon="7.64296">
        <ele>42.515787</ele>
        <time>2020-07-17T03:15:21.981Z</time>
      </trkpt>
      <trkpt lat="63.06353" lon="7.64296">
        <ele>42.295577</ele>
        <time>2020-07-17T03:15:22.747Z</time>
      </trkpt>
      <trkpt lat="63.06359" lon="7.64295">
        <ele>42.070466</ele>
        <time>2020-07-17T03:15:23.473Z</time>
      </trkpt>
      <trkpt lat="63.0637" lon="7.64292">
        <ele>41.666695</ele>
        <time>2020-07-17T03:15:24.840Z</time>
      </trkpt>
      <trkpt lat="63.06467" lon="7.64311">
        <ele>37.883215</ele>
        <time>2020-07-17T03:15:37.826Z</time>
      </trkpt>
      <trkpt lat="63.06634" lon="7.64422">
        <ele>32.303986</ele>
        <time>2020-07-17T03:16:01.709Z</time>
      </trkpt>
      <trkpt lat="63.06663" lon="7.64446">
        <ele>31.465957</ele>
        <time>2020-07-17T03:16:06.118Z</time>
      </trkpt>
      <trkpt lat="63.0667" lon="7.64451">
        <ele>31.288616</ele>
        <time>2020-07-17T03:16:07.176Z</time>
      </trkpt>
      <trkpt lat="63.06752" lon="7.64502">
        <ele>29.192062</ele>
        <time>2020-07-17T03:16:19.425Z</time>
      </trkpt>
      <trkpt lat="63.06758" lon="7.64507">
        <ele>29.017083</ele>
        <time>2020-07-17T03:16:20.482Z</time>
      </trkpt>
      <trkpt lat="63.06766" lon="7.64512">
        <ele>28.824257</ele>
        <time>2020-07-17T03:16:21.529Z</time>
      </trkpt>
      <trkpt lat="63.06896" lon="7.646">
        <ele>25.447085</ele>
        <time>2020-07-17T03:16:41.151Z</time>
      </trkpt>
      <trkpt lat="63.06949" lon="7.64622">
        <ele>24.106715</ele>
        <time>2020-07-17T03:16:48.629Z</time>
      </trkpt>
      <trkpt lat="63.06997" lon="7.64618">
        <ele>22.961007</ele>
        <time>2020-07-17T03:16:55.486Z</time>
      </trkpt>
      <trkpt lat="63.07061" lon="7.64578">
        <ele>21.909027</ele>
        <time>2020-07-17T03:17:05.436Z</time>
      </trkpt>
      <trkpt lat="63.07063" lon="7.64575">
        <ele>21.862504</ele>
        <time>2020-07-17T03:17:05.803Z</time>
      </trkpt>
      <trkpt lat="63.0709" lon="7.64543">
        <ele>21.385305</ele>
        <time>2020-07-17T03:17:10.565Z</time>
      </trkpt>
      <trkpt lat="63.0719" lon="7.64423">
        <ele>19.923034</ele>
        <time>2020-07-17T03:17:28.791Z</time>
      </trkpt>
      <trkpt lat="63.07222" lon="7.64413">
        <ele>19.69143</ele>
        <time>2020-07-17T03:17:34.362Z</time>
      </trkpt>
      <trkpt lat="63.07242" lon="7.64423">
        <ele>19.536642</ele>
        <time>2020-07-17T03:17:38.075Z</time>
      </trkpt>
      <trkpt lat="63.07273" lon="7.64469">
        <ele>19.269165</ele>
        <time>2020-07-17T03:17:44.411Z</time>
      </trkpt>
      <trkpt lat="63.07344" lon="7.64675">
        <ele>18.572612</ele>
        <time>2020-07-17T03:18:03.925Z</time>
      </trkpt>
      <trkpt lat="63.07371" lon="7.64734">
        <ele>18.385131</ele>
        <time>2020-07-17T03:18:10.335Z</time>
      </trkpt>
      <trkpt lat="63.07374" lon="7.64727">
        <ele>18.360974</ele>
        <time>2020-07-17T03:18:11.002Z</time>
      </trkpt>
      <trkpt lat="63.07384" lon="7.64749">
        <ele>18.293859</ele>
        <time>2020-07-17T03:18:13.707Z</time>
      </trkpt>
      <trkpt lat="63.07386" lon="7.64743">
        <ele>18.277136</ele>
        <time>2020-07-17T03:18:14.235Z</time>
      </trkpt>
      <trkpt lat="63.07392" lon="7.6473">
        <ele>18.233864</ele>
        <time>2020-07-17T03:18:15.760Z</time>
      </trkpt>
      <trkpt lat="63.07394" lon="7.64735">
        <ele>18.217167</ele>
        <time>2020-07-17T03:18:16.584Z</time>
      </trkpt>
      <trkpt lat="63.07409" lon="7.64785">
        <ele>18.083363</ele>
        <time>2020-07-17T03:18:21.350Z</time>
      </trkpt>
      <trkpt lat="63.07474" lon="7.64928">
        <ele>18.411411</ele>
        <time>2020-07-17T03:18:38.823Z</time>
      </trkpt>
      <trkpt lat="63.07489" lon="7.64963">
        <ele>18.522618</ele>
        <time>2020-07-17T03:18:43.393Z</time>
      </trkpt>
      <trkpt lat="63.07514" lon="7.65018">
        <ele>18.699987</ele>
        <time>2020-07-17T03:18:51.081Z</time>
      </trkpt>
      <trkpt lat="63.07642" lon="7.65302">
        <ele>19.872613</ele>
        <time>2020-07-17T03:19:29.358Z</time>
      </trkpt>
      <trkpt lat="63.07737" lon="7.65427">
        <ele>20.436509</ele>
        <time>2020-07-17T03:19:51.608Z</time>
      </trkpt>
      <trkpt lat="63.07775" lon="7.65491">
        <ele>20.621587</ele>
        <time>2020-07-17T03:20:00.792Z</time>
      </trkpt>
      <trkpt lat="63.0778" lon="7.65507">
        <ele>20.657423</ele>
        <time>2020-07-17T03:20:02.591Z</time>
      </trkpt>
      <trkpt lat="63.07786" lon="7.65527">
        <ele>20.700328</ele>
        <time>2020-07-17T03:20:04.760Z</time>
      </trkpt>
      <trkpt lat="63.07793" lon="7.65552">
        <ele>20.750386</ele>
        <time>2020-07-17T03:20:07.190Z</time>
      </trkpt>
      <trkpt lat="63.07806" lon="7.65627">
        <ele>20.924623</ele>
        <time>2020-07-17T03:20:14.342Z</time>
      </trkpt>
      <trkpt lat="63.07825" lon="7.65702">
        <ele>21.322603</ele>
        <time>2020-07-17T03:20:21.957Z</time>
      </trkpt>
      <trkpt lat="63.07832" lon="7.65721">
        <ele>21.435475</ele>
        <time>2020-07-17T03:20:24.601Z</time>
      </trkpt>
      <trkpt lat="63.07835" lon="7.65726">
        <ele>21.470803</ele>
        <time>2020-07-17T03:20:25.389Z</time>
      </trkpt>
      <trkpt lat="63.07864" lon="7.65772">
        <ele>21.839759</ele>
        <time>2020-07-17T03:20:33.057Z</time>
      </trkpt>
      <trkpt lat="63.07882" lon="7.65788">
        <ele>22.039252</ele>
        <time>2020-07-17T03:20:36.903Z</time>
      </trkpt>
      <trkpt lat="63.07919" lon="7.65819">
        <ele>22.443975</ele>
        <time>2020-07-17T03:20:45.914Z</time>
      </trkpt>
      <trkpt lat="63.07925" lon="7.65824">
        <ele>22.501724</ele>
        <time>2020-07-17T03:20:47.390Z</time>
      </trkpt>
      <trkpt lat="63.07957" lon="7.65852">
        <ele>22.979115</ele>
        <time>2020-07-17T03:20:55.671Z</time>
      </trkpt>
      <trkpt lat="63.0796" lon="7.65855">
        <ele>23.031956</ele>
        <time>2020-07-17T03:20:56.815Z</time>
      </trkpt>
      <trkpt lat="63.08017" lon="7.6591">
        <ele>24.201078</ele>
        <time>2020-07-17T03:21:12.423Z</time>
      </trkpt>
      <trkpt lat="63.08058" lon="7.65949">
        <ele>25.041271</ele>
        <time>2020-07-17T03:21:24.626Z</time>
      </trkpt>
      <trkpt lat="63.08149" lon="7.66037">
        <ele>26.165653</ele>
        <time>2020-07-17T03:21:47.664Z</time>
      </trkpt>
      <trkpt lat="63.08176" lon="7.66047">
        <ele>26.215664</ele>
        <time>2020-07-17T03:21:52.807Z</time>
      </trkpt>
      <trkpt lat="63.0818" lon="7.66049">
        <ele>26.222661</ele>
        <time>2020-07-17T03:21:54.062Z</time>
      </trkpt>
      <trkpt lat="63.08178" lon="7.66054">
        <ele>26.228096</ele>
        <time>2020-07-17T03:21:54.538Z</time>
      </trkpt>
      <trkpt lat="63.08182" lon="7.66054">
        <ele>26.234777</ele>
        <time>2020-07-17T03:21:55.341Z</time>
      </trkpt>
      <trkpt lat="63.08226" lon="7.66093">
        <ele>26.321752</ele>
        <time>2020-07-17T03:22:06.234Z</time>
      </trkpt>
      <trkpt lat="63.08227" lon="7.66097">
        <ele>26.326097</ele>
        <time>2020-07-17T03:22:06.670Z</time>
      </trkpt>
      <trkpt lat="63.08233" lon="7.66104">
        <ele>26.339074</ele>
        <time>2020-07-17T03:22:07.658Z</time>
      </trkpt>
      <trkpt lat="63.08284" lon="7.66164">
        <ele>26.417348</ele>
        <time>2020-07-17T03:22:17.516Z</time>
      </trkpt>
      <trkpt lat="63.08318" lon="7.6619">
        <ele>26.417348</ele>
        <time>2020-07-17T03:22:23.306Z</time>
      </trkpt>
      <trkpt lat="63.08361" lon="7.66186">
        <ele>26.417348</ele>
        <time>2020-07-17T03:22:29.890Z</time>
      </trkpt>
      <trkpt lat="63.08414" lon="7.66163">
        <ele>26.417348</ele>
        <time>2020-07-17T03:22:38.706Z</time>
      </trkpt>
      <trkpt lat="63.08416" lon="7.66162">
        <ele>26.417348</ele>
        <time>2020-07-17T03:22:39.070Z</time>
      </trkpt>
    </trkseg>
  </trk>
  <trk>
    <name><![CDATA[2_Tømmervåg-Trondheim: 204km]]></name>
    <trkseg>
      <trkpt lat="63.1531" lon="7.95485">
        <ele>1.303913</ele>
        <time>2020-07-15T11:40:11.644Z</time>
      </trkpt>
      <trkpt lat="63.1531" lon="7.95485">
        <ele>1.303913</ele>
        <time>2020-07-15T11:40:11.646Z</time>
      </trkpt>
      <trkpt lat="63.15344" lon="7.95564">
        <ele>1.303913</ele>
        <time>2020-07-15T11:40:21.743Z</time>
      </trkpt>
      <trkpt lat="63.15345" lon="7.95569">
        <ele>1.303913</ele>
        <time>2020-07-15T11:40:22.238Z</time>
      </trkpt>
      <trkpt lat="63.15371" lon="7.95623">
        <ele>1.303913</ele>
        <time>2020-07-15T11:40:30.175Z</time>
      </trkpt>
      <trkpt lat="63.15377" lon="7.95632">
        <ele>1.469975</ele>
        <time>2020-07-15T11:40:31.668Z</time>
      </trkpt>
      <trkpt lat="63.15388" lon="7.95648">
        <ele>2.009582</ele>
        <time>2020-07-15T11:40:34.786Z</time>
      </trkpt>
      <trkpt lat="63.15421" lon="7.95677">
        <ele>3.373334</ele>
        <time>2020-07-15T11:40:44.055Z</time>
      </trkpt>
      <trkpt lat="63.15429" lon="7.95681">
        <ele>3.671847</ele>
        <time>2020-07-15T11:40:46.294Z</time>
      </trkpt>
      <trkpt lat="63.15446" lon="7.95685">
        <ele>4.343833</ele>
        <time>2020-07-15T11:40:51.357Z</time>
      </trkpt>
      <trkpt lat="63.15456" lon="7.95686">
        <ele>4.7516</ele>
        <time>2020-07-15T11:40:55.044Z</time>
      </trkpt>
      <trkpt lat="63.15464" lon="7.95686">
        <ele>5.062309</ele>
        <time>2020-07-15T11:40:57.866Z</time>
      </trkpt>
      <trkpt lat="63.1547" lon="7.95685">
        <ele>5.283804</ele>
        <time>2020-07-15T11:40:59.969Z</time>
      </trkpt>
      <trkpt lat="63.15487" lon="7.95682">
        <ele>5.938346</ele>
        <time>2020-07-15T11:41:04.840Z</time>
      </trkpt>
      <trkpt lat="63.15525" lon="7.95671">
        <ele>7.423715</ele>
        <time>2020-07-15T11:41:18.031Z</time>
      </trkpt>
      <trkpt lat="63.15542" lon="7.95666">
        <ele>8.113592</ele>
        <time>2020-07-15T11:41:24.858Z</time>
      </trkpt>
      <trkpt lat="63.15579" lon="7.95652">
        <ele>9.850173</ele>
        <time>2020-07-15T11:41:37.436Z</time>
      </trkpt>
      <trkpt lat="63.15588" lon="7.95647">
        <ele>10.318745</ele>
        <time>2020-07-15T11:41:39.970Z</time>
      </trkpt>
      <trkpt lat="63.15598" lon="7.9564">
        <ele>10.849025</ele>
        <time>2020-07-15T11:41:44.069Z</time>
      </trkpt>
      <trkpt lat="63.15603" lon="7.95637">
        <ele>11.067302</ele>
        <time>2020-07-15T11:41:45.902Z</time>
      </trkpt>
      <trkpt lat="63.15625" lon="7.95618">
        <ele>12.220407</ele>
        <time>2020-07-15T11:41:53.229Z</time>
      </trkpt>
      <trkpt lat="63.15654" lon="7.95585">
        <ele>13.797362</ele>
        <time>2020-07-15T11:42:03.998Z</time>
      </trkpt>
      <trkpt lat="63.15661" lon="7.95621">
        <ele>14.652515</ele>
        <time>2020-07-15T11:42:10.871Z</time>
      </trkpt>
      <trkpt lat="63.15664" lon="7.9562">
        <ele>14.800518</ele>
        <time>2020-07-15T11:42:11.740Z</time>
      </trkpt>
      <trkpt lat="63.1567" lon="7.95618">
        <ele>15.08506</ele>
        <time>2020-07-15T11:42:13.557Z</time>
      </trkpt>
      <trkpt lat="63.15669" lon="7.95606">
        <ele>15.344667</ele>
        <time>2020-07-15T11:42:15.150Z</time>
      </trkpt>
      <trkpt lat="63.15675" lon="7.95577">
        <ele>16.042083</ele>
        <time>2020-07-15T11:42:20.735Z</time>
      </trkpt>
      <trkpt lat="63.15732" lon="7.95474">
        <ele>19.202793</ele>
        <time>2020-07-15T11:42:43.957Z</time>
      </trkpt>
      <trkpt lat="63.1574" lon="7.95457">
        <ele>19.685675</ele>
        <time>2020-07-15T11:42:47.302Z</time>
      </trkpt>
      <trkpt lat="63.15757" lon="7.95427">
        <ele>20.561972</ele>
        <time>2020-07-15T11:42:54.169Z</time>
      </trkpt>
      <trkpt lat="63.15796" lon="7.95367">
        <ele>22.501609</ele>
        <time>2020-07-15T11:43:08.874Z</time>
      </trkpt>
      <trkpt lat="63.15852" lon="7.95309">
        <ele>24.883328</ele>
        <time>2020-07-15T11:43:29.079Z</time>
      </trkpt>
      <trkpt lat="63.15928" lon="7.95245">
        <ele>27.319707</ele>
        <time>2020-07-15T11:43:53.477Z</time>
      </trkpt>
      <trkpt lat="63.15959" lon="7.9522">
        <ele>28.31128</ele>
        <time>2020-07-15T11:44:02.247Z</time>
      </trkpt>
      <trkpt lat="63.16003" lon="7.95182">
        <ele>29.715389</ele>
        <time>2020-07-15T11:44:13.889Z</time>
      </trkpt>
      <trkpt lat="63.16024" lon="7.95173">
        <ele>30.072331</ele>
        <time>2020-07-15T11:44:19.371Z</time>
      </trkpt>
      <trkpt lat="63.16027" lon="7.95171">
        <ele>30.122114</ele>
        <time>2020-07-15T11:44:20.241Z</time>
      </trkpt>
      <trkpt lat="63.16022" lon="7.95146">
        <ele>30.305658</ele>
        <time>2020-07-15T11:44:22.989Z</time>
      </trkpt>
      <trkpt lat="63.16043" lon="7.95124">
        <ele>30.661348</ele>
        <time>2020-07-15T11:44:28.541Z</time>
      </trkpt>
      <trkpt lat="63.16095" lon="7.95063">
        <ele>31.53145</ele>
        <time>2020-07-15T11:44:40.943Z</time>
      </trkpt>
      <trkpt lat="63.16107" lon="7.95047">
        <ele>31.739638</ele>
        <time>2020-07-15T11:44:44.088Z</time>
      </trkpt>
      <trkpt lat="63.16137" lon="7.95007">
        <ele>32.257445</ele>
        <time>2020-07-15T11:44:51.836Z</time>
      </trkpt>
      <trkpt lat="63.16197" lon="7.94924">
        <ele>33.533059</ele>
        <time>2020-07-15T11:45:08.216Z</time>
      </trkpt>
      <trkpt lat="63.16232" lon="7.94876">
        <ele>34.295242</ele>
        <time>2020-07-15T11:45:18.372Z</time>
      </trkpt>
      <trkpt lat="63.16291" lon="7.94799">
        <ele>35.569366</ele>
        <time>2020-07-15T11:45:35.146Z</time>
      </trkpt>
      <trkpt lat="63.16314" lon="7.94772">
        <ele>35.996058</ele>
        <time>2020-07-15T11:45:41.283Z</time>
      </trkpt>
      <trkpt lat="63.16333" lon="7.94751">
        <ele>36.282818</ele>
        <time>2020-07-15T11:45:46.266Z</time>
      </trkpt>
      <trkpt lat="63.16348" lon="7.94736">
        <ele>36.50893</ele>
        <time>2020-07-15T11:45:49.995Z</time>
      </trkpt>
      <trkpt lat="63.16353" lon="7.94731">
        <ele>36.585213</ele>
        <time>2020-07-15T11:45:51.433Z</time>
      </trkpt>
      <trkpt lat="63.16486" lon="7.94613">
        <ele>38.21983</ele>
        <time>2020-07-15T11:46:22.576Z</time>
      </trkpt>
      <trkpt lat="63.16518" lon="7.94576">
        <ele>38.142315</ele>
        <time>2020-07-15T11:46:29.738Z</time>
      </trkpt>
      <trkpt lat="63.16562" lon="7.9449">
        <ele>38.017476</ele>
        <time>2020-07-15T11:46:40.189Z</time>
      </trkpt>
      <trkpt lat="63.16592" lon="7.94376">
        <ele>37.890557</ele>
        <time>2020-07-15T11:46:49.376Z</time>
      </trkpt>
      <trkpt lat="63.16602" lon="7.94318">
        <ele>37.358026</ele>
        <time>2020-07-15T11:46:53.418Z</time>
      </trkpt>
      <trkpt lat="63.16608" lon="7.94286">
        <ele>36.991158</ele>
        <time>2020-07-15T11:46:55.667Z</time>
      </trkpt>
      <trkpt lat="63.16661" lon="7.93984">
        <ele>33.72606</ele>
        <time>2020-07-15T11:47:15.196Z</time>
      </trkpt>
      <trkpt lat="63.1667" lon="7.93939">
        <ele>33.66056</ele>
        <time>2020-07-15T11:47:18.605Z</time>
      </trkpt>
      <trkpt lat="63.1668" lon="7.93898">
        <ele>33.598311</ele>
        <time>2020-07-15T11:47:21.448Z</time>
      </trkpt>
      <trkpt lat="63.16689" lon="7.93864">
        <ele>33.544202</ele>
        <time>2020-07-15T11:47:24.999Z</time>
      </trkpt>
      <trkpt lat="63.16696" lon="7.93844">
        <ele>33.511753</ele>
        <time>2020-07-15T11:47:26.593Z</time>
      </trkpt>
      <trkpt lat="63.167" lon="7.93835">
        <ele>33.494699</ele>
        <time>2020-07-15T11:47:27.361Z</time>
      </trkpt>
      <trkpt lat="63.16704" lon="7.93823">
        <ele>33.474666</ele>
        <time>2020-07-15T11:47:29.583Z</time>
      </trkpt>
      <trkpt lat="63.16748" lon="7.93736">
        <ele>33.299085</ele>
        <time>2020-07-15T11:47:40.761Z</time>
      </trkpt>
      <trkpt lat="63.16787" lon="7.93688">
        <ele>33.026158</ele>
        <time>2020-07-15T11:47:50.464Z</time>
      </trkpt>
      <trkpt lat="63.16829" lon="7.93658">
        <ele>32.420007</ele>
        <time>2020-07-15T11:48:00.547Z</time>
      </trkpt>
      <trkpt lat="63.16885" lon="7.93643">
        <ele>31.636746</ele>
        <time>2020-07-15T11:48:08.758Z</time>
      </trkpt>
      <trkpt lat="63.16948" lon="7.9364">
        <ele>30.77156</ele>
        <time>2020-07-15T11:48:17.003Z</time>
      </trkpt>
      <trkpt lat="63.1697" lon="7.93639">
        <ele>29.930703</ele>
        <time>2020-07-15T11:48:19.764Z</time>
      </trkpt>
      <trkpt lat="63.17006" lon="7.93634">
        <ele>28.390039</ele>
        <time>2020-07-15T11:48:24.321Z</time>
      </trkpt>
      <trkpt lat="63.17021" lon="7.93631">
        <ele>27.77082</ele>
        <time>2020-07-15T11:48:26.132Z</time>
      </trkpt>
      <trkpt lat="63.17121" lon="7.93597">
        <ele>23.499822</ele>
        <time>2020-07-15T11:48:38.298Z</time>
      </trkpt>
      <trkpt lat="63.17159" lon="7.93577">
        <ele>23.103225</ele>
        <time>2020-07-15T11:48:43.497Z</time>
      </trkpt>
      <trkpt lat="63.17183" lon="7.93563">
        <ele>23.081769</ele>
        <time>2020-07-15T11:48:47.212Z</time>
      </trkpt>
      <trkpt lat="63.17226" lon="7.93537">
        <ele>23.042026</ele>
        <time>2020-07-15T11:48:54.962Z</time>
      </trkpt>
      <trkpt lat="63.17254" lon="7.93522">
        <ele>23.016949</ele>
        <time>2020-07-15T11:49:01.093Z</time>
      </trkpt>
      <trkpt lat="63.17269" lon="7.93516">
        <ele>23.003778</ele>
        <time>2020-07-15T11:49:05.110Z</time>
      </trkpt>
      <trkpt lat="63.17287" lon="7.93511">
        <ele>22.987569</ele>
        <time>2020-07-15T11:49:09.305Z</time>
      </trkpt>
      <trkpt lat="63.1731" lon="7.93508">
        <ele>23.167311</ele>
        <time>2020-07-15T11:49:15.748Z</time>
      </trkpt>
      <trkpt lat="63.17364" lon="7.93518">
        <ele>25.051133</ele>
        <time>2020-07-15T11:49:30.569Z</time>
      </trkpt>
      <trkpt lat="63.17384" lon="7.93527">
        <ele>25.797344</ele>
        <time>2020-07-15T11:49:36.987Z</time>
      </trkpt>
      <trkpt lat="63.17407" lon="7.93541">
        <ele>26.61756</ele>
        <time>2020-07-15T11:49:44.467Z</time>
      </trkpt>
      <trkpt lat="63.17445" lon="7.93577">
        <ele>28.068419</ele>
        <time>2020-07-15T11:49:57.357Z</time>
      </trkpt>
      <trkpt lat="63.17486" lon="7.93635">
        <ele>29.536541</ele>
        <time>2020-07-15T11:50:11.998Z</time>
      </trkpt>
      <trkpt lat="63.17541" lon="7.93753">
        <ele>30.821968</ele>
        <time>2020-07-15T11:50:32.621Z</time>
      </trkpt>
      <trkpt lat="63.17567" lon="7.9384">
        <ele>31.613754</ele>
        <time>2020-07-15T11:50:42.575Z</time>
      </trkpt>
      <trkpt lat="63.1765" lon="7.94222">
        <ele>30.685731</ele>
        <time>2020-07-15T11:51:13.799Z</time>
      </trkpt>
      <trkpt lat="63.17678" lon="7.94318">
        <ele>29.789908</ele>
        <time>2020-07-15T11:51:20.590Z</time>
      </trkpt>
      <trkpt lat="63.17693" lon="7.94362">
        <ele>29.113729</ele>
        <time>2020-07-15T11:51:23.871Z</time>
      </trkpt>
      <trkpt lat="63.17728" lon="7.94458">
        <ele>27.619095</ele>
        <time>2020-07-15T11:51:31.101Z</time>
      </trkpt>
      <trkpt lat="63.17751" lon="7.94523">
        <ele>26.598689</ele>
        <time>2020-07-15T11:51:36.045Z</time>
      </trkpt>
      <trkpt lat="63.17828" lon="7.94708">
        <ele>25.079718</ele>
        <time>2020-07-15T11:51:51.884Z</time>
      </trkpt>
      <trkpt lat="63.17873" lon="7.9479">
        <ele>24.757449</ele>
        <time>2020-07-15T11:52:03.428Z</time>
      </trkpt>
      <trkpt lat="63.17922" lon="7.94863">
        <ele>24.413538</ele>
        <time>2020-07-15T11:52:15.710Z</time>
      </trkpt>
      <trkpt lat="63.17972" lon="7.94928">
        <ele>23.971556</ele>
        <time>2020-07-15T11:52:26.581Z</time>
      </trkpt>
      <trkpt lat="63.17993" lon="7.94956">
        <ele>23.78567</ele>
        <time>2020-07-15T11:52:30.457Z</time>
      </trkpt>
      <trkpt lat="63.18027" lon="7.95021">
        <ele>23.448516</ele>
        <time>2020-07-15T11:52:37.499Z</time>
      </trkpt>
      <trkpt lat="63.18031" lon="7.9503">
        <ele>23.403324</ele>
        <time>2020-07-15T11:52:38.388Z</time>
      </trkpt>
      <trkpt lat="63.18044" lon="7.95071">
        <ele>23.231389</ele>
        <time>2020-07-15T11:52:41.565Z</time>
      </trkpt>
      <trkpt lat="63.18061" lon="7.95153">
        <ele>22.248438</ele>
        <time>2020-07-15T11:52:47.177Z</time>
      </trkpt>
      <trkpt lat="63.18085" lon="7.95349">
        <ele>19.18992</ele>
        <time>2020-07-15T11:52:58.743Z</time>
      </trkpt>
      <trkpt lat="63.18108" lon="7.9545">
        <ele>17.492059</ele>
        <time>2020-07-15T11:53:05.220Z</time>
      </trkpt>
      <trkpt lat="63.18134" lon="7.95509">
        <ele>16.65095</ele>
        <time>2020-07-15T11:53:10.145Z</time>
      </trkpt>
      <trkpt lat="63.18197" lon="7.95601">
        <ele>15.302741</ele>
        <time>2020-07-15T11:53:20.581Z</time>
      </trkpt>
      <trkpt lat="63.18223" lon="7.95654">
        <ele>14.674586</ele>
        <time>2020-07-15T11:53:25.763Z</time>
      </trkpt>
      <trkpt lat="63.18402" lon="7.9611">
        <ele>15.519176</ele>
        <time>2020-07-15T11:54:14.253Z</time>
      </trkpt>
      <trkpt lat="63.18464" lon="7.96269">
        <ele>18.518975</ele>
        <time>2020-07-15T11:54:41.288Z</time>
      </trkpt>
      <trkpt lat="63.18572" lon="7.96555">
        <ele>28.965366</ele>
        <time>2020-07-15T11:55:48.476Z</time>
      </trkpt>
      <trkpt lat="63.18601" lon="7.96644">
        <ele>32.429638</ele>
        <time>2020-07-15T11:56:10.442Z</time>
      </trkpt>
      <trkpt lat="63.18628" lon="7.96756">
        <ele>35.996457</ele>
        <time>2020-07-15T11:56:34.208Z</time>
      </trkpt>
      <trkpt lat="63.18656" lon="7.96925">
        <ele>41.086979</ele>
        <time>2020-07-15T11:57:05.199Z</time>
      </trkpt>
      <trkpt lat="63.18703" lon="7.97573">
        <ele>52.706919</ele>
        <time>2020-07-15T11:58:38.290Z</time>
      </trkpt>
      <trkpt lat="63.18716" lon="7.97673">
        <ele>53.568239</ele>
        <time>2020-07-15T11:58:48.948Z</time>
      </trkpt>
      <trkpt lat="63.18736" lon="7.97751">
        <ele>54.303476</ele>
        <time>2020-07-15T11:58:56.364Z</time>
      </trkpt>
      <trkpt lat="63.18761" lon="7.97818">
        <ele>53.665069</ele>
        <time>2020-07-15T11:59:02.329Z</time>
      </trkpt>
      <trkpt lat="63.18831" lon="7.97947">
        <ele>50.277721</ele>
        <time>2020-07-15T11:59:13.949Z</time>
      </trkpt>
      <trkpt lat="63.18969" lon="7.98183">
        <ele>42.70262</ele>
        <time>2020-07-15T11:59:34.668Z</time>
      </trkpt>
      <trkpt lat="63.19308" lon="7.98767">
        <ele>27.13592</ele>
        <time>2020-07-15T12:00:30.167Z</time>
      </trkpt>
      <trkpt lat="63.19353" lon="7.98846">
        <ele>25.806018</ele>
        <time>2020-07-15T12:00:37.981Z</time>
      </trkpt>
      <trkpt lat="63.1938" lon="7.98895">
        <ele>24.99824</ele>
        <time>2020-07-15T12:00:42.784Z</time>
      </trkpt>
      <trkpt lat="63.19415" lon="7.98971">
        <ele>23.870973</ele>
        <time>2020-07-15T12:00:49.580Z</time>
      </trkpt>
      <trkpt lat="63.19459" lon="7.99101">
        <ele>22.469994</ele>
        <time>2020-07-15T12:01:00.096Z</time>
      </trkpt>
      <trkpt lat="63.19468" lon="7.99137">
        <ele>22.205578</ele>
        <time>2020-07-15T12:01:02.770Z</time>
      </trkpt>
      <trkpt lat="63.19476" lon="7.99171">
        <ele>21.950913</ele>
        <time>2020-07-15T12:01:05.416Z</time>
      </trkpt>
      <trkpt lat="63.19483" lon="7.99203">
        <ele>21.722939</ele>
        <time>2020-07-15T12:01:07.768Z</time>
      </trkpt>
      <trkpt lat="63.19517" lon="7.9938">
        <ele>20.467067</ele>
        <time>2020-07-15T12:01:20.757Z</time>
      </trkpt>
      <trkpt lat="63.19609" lon="7.99864">
        <ele>18.194876</ele>
        <time>2020-07-15T12:01:57.269Z</time>
      </trkpt>
      <trkpt lat="63.19612" lon="7.9986">
        <ele>18.17679</ele>
        <time>2020-07-15T12:01:57.876Z</time>
      </trkpt>
      <trkpt lat="63.19616" lon="7.99856">
        <ele>18.158704</ele>
        <time>2020-07-15T12:01:58.472Z</time>
      </trkpt>
      <trkpt lat="63.19618" lon="7.99864">
        <ele>18.139297</ele>
        <time>2020-07-15T12:01:59.191Z</time>
      </trkpt>
      <trkpt lat="63.1962" lon="7.99875">
        <ele>18.112612</ele>
        <time>2020-07-15T12:02:00.142Z</time>
      </trkpt>
      <trkpt lat="63.1963" lon="7.99922">
        <ele>18.003448</ele>
        <time>2020-07-15T12:02:04.032Z</time>
      </trkpt>
      <trkpt lat="63.1964" lon="7.99973">
        <ele>17.882771</ele>
        <time>2020-07-15T12:02:08.383Z</time>
      </trkpt>
      <trkpt lat="63.19683" lon="8.00123">
        <ele>17.67564</ele>
        <time>2020-07-15T12:02:23.273Z</time>
      </trkpt>
      <trkpt lat="63.19725" lon="8.00238">
        <ele>18.093974</ele>
        <time>2020-07-15T12:02:36.833Z</time>
      </trkpt>
      <trkpt lat="63.19736" lon="8.0027">
        <ele>18.208824</ele>
        <time>2020-07-15T12:02:40.860Z</time>
      </trkpt>
      <trkpt lat="63.19765" lon="8.00362">
        <ele>18.528174</ele>
        <time>2020-07-15T12:02:51.516Z</time>
      </trkpt>
      <trkpt lat="63.19779" lon="8.00414">
        <ele>18.698506</ele>
        <time>2020-07-15T12:02:57.507Z</time>
      </trkpt>
      <trkpt lat="63.19788" lon="8.0045">
        <ele>18.858695</ele>
        <time>2020-07-15T12:03:01.414Z</time>
      </trkpt>
      <trkpt lat="63.19807" lon="8.00532">
        <ele>19.234756</ele>
        <time>2020-07-15T12:03:10.663Z</time>
      </trkpt>
      <trkpt lat="63.19835" lon="8.00661">
        <ele>19.814832</ele>
        <time>2020-07-15T12:03:24.570Z</time>
      </trkpt>
      <trkpt lat="63.1984" lon="8.00684">
        <ele>19.919829</ele>
        <time>2020-07-15T12:03:27.090Z</time>
      </trkpt>
      <trkpt lat="63.19876" lon="8.00901">
        <ele>20.543628</ele>
        <time>2020-07-15T12:03:48.945Z</time>
      </trkpt>
      <trkpt lat="63.19906" lon="8.01213">
        <ele>20.866872</ele>
        <time>2020-07-15T12:04:16.808Z</time>
      </trkpt>
      <trkpt lat="63.19905" lon="8.0123">
        <ele>20.824081</ele>
        <time>2020-07-15T12:04:18.558Z</time>
      </trkpt>
      <trkpt lat="63.19919" lon="8.01233">
        <ele>20.748316</ele>
        <time>2020-07-15T12:04:20.731Z</time>
      </trkpt>
      <trkpt lat="63.19932" lon="8.01255">
        <ele>20.657772</ele>
        <time>2020-07-15T12:04:23.662Z</time>
      </trkpt>
      <trkpt lat="63.20012" lon="8.01462">
        <ele>19.941531</ele>
        <time>2020-07-15T12:04:44.080Z</time>
      </trkpt>
      <trkpt lat="63.20022" lon="8.01496">
        <ele>19.670488</ele>
        <time>2020-07-15T12:04:46.956Z</time>
      </trkpt>
      <trkpt lat="63.20026" lon="8.01524">
        <ele>19.478205</ele>
        <time>2020-07-15T12:04:49.072Z</time>
      </trkpt>
      <trkpt lat="63.20029" lon="8.01619">
        <ele>18.838907</ele>
        <time>2020-07-15T12:04:55.808Z</time>
      </trkpt>
      <trkpt lat="63.20027" lon="8.0167">
        <ele>18.500157</ele>
        <time>2020-07-15T12:04:59.335Z</time>
      </trkpt>
      <trkpt lat="63.20021" lon="8.01748">
        <ele>17.975629</ele>
        <time>2020-07-15T12:05:04.718Z</time>
      </trkpt>
      <trkpt lat="63.20022" lon="8.01851">
        <ele>17.278374</ele>
        <time>2020-07-15T12:05:11.752Z</time>
      </trkpt>
      <trkpt lat="63.20026" lon="8.01892">
        <ele>16.974173</ele>
        <time>2020-07-15T12:05:14.630Z</time>
      </trkpt>
      <trkpt lat="63.20035" lon="8.01931">
        <ele>16.644926</ele>
        <time>2020-07-15T12:05:17.611Z</time>
      </trkpt>
      <trkpt lat="63.20071" lon="8.02056">
        <ele>15.55682</ele>
        <time>2020-07-15T12:05:27.510Z</time>
      </trkpt>
      <trkpt lat="63.20133" lon="8.02309">
        <ele>14.459545</ele>
        <time>2020-07-15T12:05:47.870Z</time>
      </trkpt>
      <trkpt lat="63.20144" lon="8.02374">
        <ele>14.485218</ele>
        <time>2020-07-15T12:05:53.537Z</time>
      </trkpt>
      <trkpt lat="63.20146" lon="8.02385">
        <ele>14.489434</ele>
        <time>2020-07-15T12:05:54.507Z</time>
      </trkpt>
      <trkpt lat="63.20149" lon="8.02395">
        <ele>14.49369</ele>
        <time>2020-07-15T12:05:55.765Z</time>
      </trkpt>
      <trkpt lat="63.20221" lon="8.0282">
        <ele>16.325594</ele>
        <time>2020-07-15T12:06:41.823Z</time>
      </trkpt>
      <trkpt lat="63.20239" lon="8.02918">
        <ele>16.990929</ele>
        <time>2020-07-15T12:06:53.489Z</time>
      </trkpt>
      <trkpt lat="63.2025" lon="8.02981">
        <ele>17.449123</ele>
        <time>2020-07-15T12:07:00.920Z</time>
      </trkpt>
      <trkpt lat="63.20284" lon="8.03183">
        <ele>18.931301</ele>
        <time>2020-07-15T12:07:24.086Z</time>
      </trkpt>
      <trkpt lat="63.20306" lon="8.03291">
        <ele>19.750021</ele>
        <time>2020-07-15T12:07:36.289Z</time>
      </trkpt>
      <trkpt lat="63.20318" lon="8.0334">
        <ele>20.155874</ele>
        <time>2020-07-15T12:07:41.884Z</time>
      </trkpt>
      <trkpt lat="63.20334" lon="8.03393">
        <ele>20.617519</ele>
        <time>2020-07-15T12:07:48.187Z</time>
      </trkpt>
      <trkpt lat="63.20341" lon="8.03418">
        <ele>20.827148</ele>
        <time>2020-07-15T12:07:51.225Z</time>
      </trkpt>
      <trkpt lat="63.20373" lon="8.0352">
        <ele>21.729958</ele>
        <time>2020-07-15T12:08:04.243Z</time>
      </trkpt>
      <trkpt lat="63.2041" lon="8.0364">
        <ele>22.856212</ele>
        <time>2020-07-15T12:08:20.365Z</time>
      </trkpt>
      <trkpt lat="63.20416" lon="8.0367">
        <ele>23.36613</ele>
        <time>2020-07-15T12:08:24.001Z</time>
      </trkpt>
      <trkpt lat="63.20418" lon="8.03685">
        <ele>23.598556</ele>
        <time>2020-07-15T12:08:25.876Z</time>
      </trkpt>
      <trkpt lat="63.20418" lon="8.03695">
        <ele>23.75641</ele>
        <time>2020-07-15T12:08:27.127Z</time>
      </trkpt>
      <trkpt lat="63.20416" lon="8.03712">
        <ele>24.032402</ele>
        <time>2020-07-15T12:08:29.429Z</time>
      </trkpt>
      <trkpt lat="63.20419" lon="8.03719">
        <ele>24.191138</ele>
        <time>2020-07-15T12:08:30.943Z</time>
      </trkpt>
      <trkpt lat="63.20441" lon="8.03761">
        <ele>25.183232</ele>
        <time>2020-07-15T12:08:38.837Z</time>
      </trkpt>
      <trkpt lat="63.20444" lon="8.0377">
        <ele>25.336072</ele>
        <time>2020-07-15T12:08:40.192Z</time>
      </trkpt>
      <trkpt lat="63.20448" lon="8.03773">
        <ele>25.481121</ele>
        <time>2020-07-15T12:08:41.808Z</time>
      </trkpt>
      <trkpt lat="63.20455" lon="8.03788">
        <ele>25.81267</ele>
        <time>2020-07-15T12:08:44.899Z</time>
      </trkpt>
      <trkpt lat="63.20462" lon="8.0381">
        <ele>26.226441</ele>
        <time>2020-07-15T12:08:48.941Z</time>
      </trkpt>
      <trkpt lat="63.20465" lon="8.0382">
        <ele>26.406919</ele>
        <time>2020-07-15T12:08:50.766Z</time>
      </trkpt>
      <trkpt lat="63.20477" lon="8.03859">
        <ele>27.131047</ele>
        <time>2020-07-15T12:08:58.500Z</time>
      </trkpt>
      <trkpt lat="63.2049" lon="8.03893">
        <ele>27.815457</ele>
        <time>2020-07-15T12:09:06.469Z</time>
      </trkpt>
      <trkpt lat="63.20512" lon="8.03948">
        <ele>28.984901</ele>
        <time>2020-07-15T12:09:19.103Z</time>
      </trkpt>
      <trkpt lat="63.2052" lon="8.03966">
        <ele>29.444138</ele>
        <time>2020-07-15T12:09:22.755Z</time>
      </trkpt>
      <trkpt lat="63.20572" lon="8.04081">
        <ele>32.541892</ele>
        <time>2020-07-15T12:09:46.527Z</time>
      </trkpt>
      <trkpt lat="63.20577" lon="8.04096">
        <ele>32.910754</ele>
        <time>2020-07-15T12:09:49.535Z</time>
      </trkpt>
      <trkpt lat="63.20586" lon="8.04128">
        <ele>33.634728</ele>
        <time>2020-07-15T12:09:55.309Z</time>
      </trkpt>
      <trkpt lat="63.2065" lon="8.04305">
        <ele>37.481011</ele>
        <time>2020-07-15T12:10:26.996Z</time>
      </trkpt>
      <trkpt lat="63.20669" lon="8.04368">
        <ele>38.465434</ele>
        <time>2020-07-15T12:10:36.984Z</time>
      </trkpt>
      <trkpt lat="63.20675" lon="8.04387">
        <ele>38.78006</ele>
        <time>2020-07-15T12:10:40.257Z</time>
      </trkpt>
      <trkpt lat="63.20734" lon="8.04577">
        <ele>41.762845</ele>
        <time>2020-07-15T12:11:07.512Z</time>
      </trkpt>
      <trkpt lat="63.20817" lon="8.04789">
        <ele>43.892543</ele>
        <time>2020-07-15T12:11:38.701Z</time>
      </trkpt>
      <trkpt lat="63.2082" lon="8.04794">
        <ele>43.953485</ele>
        <time>2020-07-15T12:11:39.898Z</time>
      </trkpt>
      <trkpt lat="63.2085" lon="8.04854">
        <ele>44.629933</ele>
        <time>2020-07-15T12:11:48.575Z</time>
      </trkpt>
      <trkpt lat="63.20879" lon="8.0491">
        <ele>44.697115</ele>
        <time>2020-07-15T12:11:56.501Z</time>
      </trkpt>
      <trkpt lat="63.20876" lon="8.04922">
        <ele>44.695421</ele>
        <time>2020-07-15T12:11:57.860Z</time>
      </trkpt>
      <trkpt lat="63.20913" lon="8.04986">
        <ele>44.681782</ele>
        <time>2020-07-15T12:12:06.496Z</time>
      </trkpt>
      <trkpt lat="63.20918" lon="8.04995">
        <ele>44.679963</ele>
        <time>2020-07-15T12:12:07.430Z</time>
      </trkpt>
      <trkpt lat="63.20988" lon="8.05122">
        <ele>44.650665</ele>
        <time>2020-07-15T12:12:22.354Z</time>
      </trkpt>
      <trkpt lat="63.21055" lon="8.05265">
        <ele>44.555298</ele>
        <time>2020-07-15T12:12:37.184Z</time>
      </trkpt>
      <trkpt lat="63.2107" lon="8.05304">
        <ele>44.531464</ele>
        <time>2020-07-15T12:12:41.228Z</time>
      </trkpt>
      <trkpt lat="63.21079" lon="8.05326">
        <ele>44.517817</ele>
        <time>2020-07-15T12:12:43.711Z</time>
      </trkpt>
      <trkpt lat="63.21152" lon="8.05546">
        <ele>45.794689</ele>
        <time>2020-07-15T12:13:09.098Z</time>
      </trkpt>
      <trkpt lat="63.21203" lon="8.05746">
        <ele>47.588843</ele>
        <time>2020-07-15T12:13:34.790Z</time>
      </trkpt>
      <trkpt lat="63.21267" lon="8.06033">
        <ele>52.65832</ele>
        <time>2020-07-15T12:14:16.284Z</time>
      </trkpt>
      <trkpt lat="63.21378" lon="8.06515">
        <ele>63.049982</ele>
        <time>2020-07-15T12:15:35.516Z</time>
      </trkpt>
      <trkpt lat="63.214" lon="8.06608">
        <ele>64.795176</ele>
        <time>2020-07-15T12:15:50.389Z</time>
      </trkpt>
      <trkpt lat="63.21404" lon="8.06625">
        <ele>65.123096</ele>
        <time>2020-07-15T12:15:53.041Z</time>
      </trkpt>
      <trkpt lat="63.21422" lon="8.06708">
        <ele>66.667216</ele>
        <time>2020-07-15T12:16:05.519Z</time>
      </trkpt>
      <trkpt lat="63.21442" lon="8.06812">
        <ele>68.578383</ele>
        <time>2020-07-15T12:16:20.319Z</time>
      </trkpt>
      <trkpt lat="63.21566" lon="8.0748">
        <ele>72.067022</ele>
        <time>2020-07-15T12:17:32.752Z</time>
      </trkpt>
      <trkpt lat="63.21582" lon="8.07568">
        <ele>71.912809</ele>
        <time>2020-07-15T12:17:38.711Z</time>
      </trkpt>
      <trkpt lat="63.21593" lon="8.07624">
        <ele>70.747677</ele>
        <time>2020-07-15T12:17:42.264Z</time>
      </trkpt>
      <trkpt lat="63.21607" lon="8.07694">
        <ele>69.260145</ele>
        <time>2020-07-15T12:17:46.660Z</time>
      </trkpt>
      <trkpt lat="63.21674" lon="8.08018">
        <ele>62.095835</ele>
        <time>2020-07-15T12:18:05.963Z</time>
      </trkpt>
      <trkpt lat="63.21691" lon="8.08105">
        <ele>60.009033</ele>
        <time>2020-07-15T12:18:11.204Z</time>
      </trkpt>
      <trkpt lat="63.21716" lon="8.08226">
        <ele>57.09066</ele>
        <time>2020-07-15T12:18:18.578Z</time>
      </trkpt>
      <trkpt lat="63.2176" lon="8.08506">
        <ele>51.098768</ele>
        <time>2020-07-15T12:18:34.969Z</time>
      </trkpt>
      <trkpt lat="63.21793" lon="8.08754">
        <ele>46.546393</ele>
        <time>2020-07-15T12:18:49.590Z</time>
      </trkpt>
      <trkpt lat="63.21804" lon="8.08832">
        <ele>45.449477</ele>
        <time>2020-07-15T12:18:54.297Z</time>
      </trkpt>
      <trkpt lat="63.2183" lon="8.08979">
        <ele>43.304974</ele>
        <time>2020-07-15T12:19:03.880Z</time>
      </trkpt>
      <trkpt lat="63.21861" lon="8.09106">
        <ele>42.117789</ele>
        <time>2020-07-15T12:19:13.327Z</time>
      </trkpt>
      <trkpt lat="63.2201" lon="8.09684">
        <ele>40.301716</ele>
        <time>2020-07-15T12:20:02.989Z</time>
      </trkpt>
      <trkpt lat="63.22086" lon="8.09949">
        <ele>40.073052</ele>
        <time>2020-07-15T12:20:27.706Z</time>
      </trkpt>
      <trkpt lat="63.22166" lon="8.10173">
        <ele>39.988656</ele>
        <time>2020-07-15T12:20:50.592Z</time>
      </trkpt>
      <trkpt lat="63.22387" lon="8.10701">
        <ele>39.892681</ele>
        <time>2020-07-15T12:21:48.129Z</time>
      </trkpt>
      <trkpt lat="63.22436" lon="8.10848">
        <ele>39.871381</ele>
        <time>2020-07-15T12:22:02.813Z</time>
      </trkpt>
      <trkpt lat="63.22483" lon="8.11032">
        <ele>39.854998</ele>
        <time>2020-07-15T12:22:19.885Z</time>
      </trkpt>
      <trkpt lat="63.2254" lon="8.11283">
        <ele>39.858693</ele>
        <time>2020-07-15T12:22:42.474Z</time>
      </trkpt>
      <trkpt lat="63.22552" lon="8.11343">
        <ele>39.844316</ele>
        <time>2020-07-15T12:22:47.749Z</time>
      </trkpt>
      <trkpt lat="63.2257" lon="8.11453">
        <ele>39.685931</ele>
        <time>2020-07-15T12:22:57.198Z</time>
      </trkpt>
      <trkpt lat="63.22582" lon="8.11567">
        <ele>39.527493</ele>
        <time>2020-07-15T12:23:06.445Z</time>
      </trkpt>
      <trkpt lat="63.22584" lon="8.11589">
        <ele>39.498169</ele>
        <time>2020-07-15T12:23:08.117Z</time>
      </trkpt>
      <trkpt lat="63.22587" lon="8.1163">
        <ele>39.441969</ele>
        <time>2020-07-15T12:23:11.244Z</time>
      </trkpt>
      <trkpt lat="63.2259" lon="8.11779">
        <ele>38.752973</ele>
        <time>2020-07-15T12:23:22.053Z</time>
      </trkpt>
      <trkpt lat="63.22587" lon="8.11893">
        <ele>37.668839</ele>
        <time>2020-07-15T12:23:29.856Z</time>
      </trkpt>
      <trkpt lat="63.22519" lon="8.1275">
        <ele>29.221366</ele>
        <time>2020-07-15T12:24:23.501Z</time>
      </trkpt>
      <trkpt lat="63.22504" lon="8.12923">
        <ele>27.725316</ele>
        <time>2020-07-15T12:24:34.552Z</time>
      </trkpt>
      <trkpt lat="63.22501" lon="8.1295">
        <ele>27.806438</ele>
        <time>2020-07-15T12:24:36.269Z</time>
      </trkpt>
      <trkpt lat="63.22488" lon="8.13012">
        <ele>28.012807</ele>
        <time>2020-07-15T12:24:41.166Z</time>
      </trkpt>
      <trkpt lat="63.22469" lon="8.13053">
        <ele>28.189715</ele>
        <time>2020-07-15T12:24:45.782Z</time>
      </trkpt>
      <trkpt lat="63.22456" lon="8.1307">
        <ele>28.289991</ele>
        <time>2020-07-15T12:24:48.251Z</time>
      </trkpt>
      <trkpt lat="63.22453" lon="8.13074">
        <ele>28.316223</ele>
        <time>2020-07-15T12:24:49.030Z</time>
      </trkpt>
      <trkpt lat="63.22449" lon="8.13078">
        <ele>28.341804</ele>
        <time>2020-07-15T12:24:49.803Z</time>
      </trkpt>
      <trkpt lat="63.22446" lon="8.13081">
        <ele>28.367027</ele>
        <time>2020-07-15T12:24:50.709Z</time>
      </trkpt>
      <trkpt lat="63.22413" lon="8.13107">
        <ele>28.599417</ele>
        <time>2020-07-15T12:24:58.384Z</time>
      </trkpt>
      <trkpt lat="63.22312" lon="8.13183">
        <ele>32.715484</ele>
        <time>2020-07-15T12:25:30.394Z</time>
      </trkpt>
      <trkpt lat="63.22224" lon="8.13244">
        <ele>37.901183</ele>
        <time>2020-07-15T12:26:05.667Z</time>
      </trkpt>
      <trkpt lat="63.21967" lon="8.13387">
        <ele>57.838826</ele>
        <time>2020-07-15T12:28:04.155Z</time>
      </trkpt>
      <trkpt lat="63.21929" lon="8.13425">
        <ele>60.36397</ele>
        <time>2020-07-15T12:28:21.996Z</time>
      </trkpt>
      <trkpt lat="63.21908" lon="8.1347">
        <ele>62.166995</ele>
        <time>2020-07-15T12:28:32.504Z</time>
      </trkpt>
      <trkpt lat="63.21903" lon="8.13487">
        <ele>62.711764</ele>
        <time>2020-07-15T12:28:36.909Z</time>
      </trkpt>
      <trkpt lat="63.21899" lon="8.13504">
        <ele>63.258738</ele>
        <time>2020-07-15T12:28:40.241Z</time>
      </trkpt>
      <trkpt lat="63.21891" lon="8.13555">
        <ele>64.745445</ele>
        <time>2020-07-15T12:28:46.538Z</time>
      </trkpt>
      <trkpt lat="63.21892" lon="8.13619">
        <ele>63.818123</ele>
        <time>2020-07-15T12:28:50.835Z</time>
      </trkpt>
      <trkpt lat="63.21899" lon="8.13673">
        <ele>62.84746</ele>
        <time>2020-07-15T12:28:54.813Z</time>
      </trkpt>
      <trkpt lat="63.21931" lon="8.13813">
        <ele>60.148723</ele>
        <time>2020-07-15T12:29:03.582Z</time>
      </trkpt>
      <trkpt lat="63.21934" lon="8.13838">
        <ele>59.704225</ele>
        <time>2020-07-15T12:29:04.988Z</time>
      </trkpt>
      <trkpt lat="63.21935" lon="8.13854">
        <ele>59.426174</ele>
        <time>2020-07-15T12:29:05.808Z</time>
      </trkpt>
      <trkpt lat="63.21936" lon="8.13868">
        <ele>59.184526</ele>
        <time>2020-07-15T12:29:06.498Z</time>
      </trkpt>
      <trkpt lat="63.21936" lon="8.1388">
        <ele>58.966003</ele>
        <time>2020-07-15T12:29:07.081Z</time>
      </trkpt>
      <trkpt lat="63.21931" lon="8.13939">
        <ele>57.938122</ele>
        <time>2020-07-15T12:29:10.240Z</time>
      </trkpt>
      <trkpt lat="63.21921" lon="8.13983">
        <ele>56.791572</ele>
        <time>2020-07-15T12:29:12.691Z</time>
      </trkpt>
      <trkpt lat="63.21891" lon="8.14048">
        <ele>54.590489</ele>
        <time>2020-07-15T12:29:17.524Z</time>
      </trkpt>
      <trkpt lat="63.21879" lon="8.14061">
        <ele>53.892403</ele>
        <time>2020-07-15T12:29:18.966Z</time>
      </trkpt>
      <trkpt lat="63.21872" lon="8.14067">
        <ele>53.505905</ele>
        <time>2020-07-15T12:29:19.799Z</time>
      </trkpt>
      <trkpt lat="63.21843" lon="8.14076">
        <ele>51.95046</ele>
        <time>2020-07-15T12:29:23.203Z</time>
      </trkpt>
      <trkpt lat="63.21811" lon="8.14062">
        <ele>50.268333</ele>
        <time>2020-07-15T12:29:27.383Z</time>
      </trkpt>
      <trkpt lat="63.21656" lon="8.13896">
        <ele>50.078149</ele>
        <time>2020-07-15T12:30:03.237Z</time>
      </trkpt>
      <trkpt lat="63.21594" lon="8.13867">
        <ele>50.732763</ele>
        <time>2020-07-15T12:30:19.344Z</time>
      </trkpt>
      <trkpt lat="63.21589" lon="8.13868">
        <ele>50.78299</ele>
        <time>2020-07-15T12:30:20.958Z</time>
      </trkpt>
      <trkpt lat="63.21583" lon="8.13867">
        <ele>50.843084</ele>
        <time>2020-07-15T12:30:22.445Z</time>
      </trkpt>
      <trkpt lat="63.21565" lon="8.13868">
        <ele>51.021029</ele>
        <time>2020-07-15T12:30:26.604Z</time>
      </trkpt>
      <trkpt lat="63.21545" lon="8.13869">
        <ele>51.212733</ele>
        <time>2020-07-15T12:30:31.722Z</time>
      </trkpt>
      <trkpt lat="63.21508" lon="8.13854">
        <ele>51.58036</ele>
        <time>2020-07-15T12:30:40.745Z</time>
      </trkpt>
      <trkpt lat="63.21433" lon="8.13782">
        <ele>51.911598</ele>
        <time>2020-07-15T12:30:54.658Z</time>
      </trkpt>
      <trkpt lat="63.21404" lon="8.13777">
        <ele>51.015679</ele>
        <time>2020-07-15T12:30:58.889Z</time>
      </trkpt>
      <trkpt lat="63.21369" lon="8.13793">
        <ele>49.906881</ele>
        <time>2020-07-15T12:31:03.667Z</time>
      </trkpt>
      <trkpt lat="63.21351" lon="8.13811">
        <ele>49.312476</ele>
        <time>2020-07-15T12:31:06.206Z</time>
      </trkpt>
      <trkpt lat="63.21348" lon="8.13813">
        <ele>49.22714</ele>
        <time>2020-07-15T12:31:06.567Z</time>
      </trkpt>
      <trkpt lat="63.21327" lon="8.1384">
        <ele>48.483014</ele>
        <time>2020-07-15T12:31:09.602Z</time>
      </trkpt>
      <trkpt lat="63.21237" lon="8.13961">
        <ele>44.973161</ele>
        <time>2020-07-15T12:31:22.696Z</time>
      </trkpt>
      <trkpt lat="63.2116" lon="8.14067">
        <ele>41.658815</ele>
        <time>2020-07-15T12:31:34.277Z</time>
      </trkpt>
      <trkpt lat="63.21104" lon="8.14153">
        <ele>39.568136</ele>
        <time>2020-07-15T12:31:43.339Z</time>
      </trkpt>
      <trkpt lat="63.21079" lon="8.14204">
        <ele>38.799667</ele>
        <time>2020-07-15T12:31:48.010Z</time>
      </trkpt>
      <trkpt lat="63.21073" lon="8.14221">
        <ele>38.579487</ele>
        <time>2020-07-15T12:31:49.351Z</time>
      </trkpt>
      <trkpt lat="63.21068" lon="8.14232">
        <ele>38.424413</ele>
        <time>2020-07-15T12:31:50.298Z</time>
      </trkpt>
      <trkpt lat="63.2105" lon="8.14279">
        <ele>37.786947</ele>
        <time>2020-07-15T12:31:54.203Z</time>
      </trkpt>
      <trkpt lat="63.21028" lon="8.14336">
        <ele>37.018349</ele>
        <time>2020-07-15T12:31:58.920Z</time>
      </trkpt>
      <trkpt lat="63.20982" lon="8.1443">
        <ele>35.716006</ele>
        <time>2020-07-15T12:32:07.803Z</time>
      </trkpt>
      <trkpt lat="63.20944" lon="8.14479">
        <ele>34.938683</ele>
        <time>2020-07-15T12:32:14.222Z</time>
      </trkpt>
      <trkpt lat="63.20903" lon="8.14509">
        <ele>34.193157</ele>
        <time>2020-07-15T12:32:20.604Z</time>
      </trkpt>
      <trkpt lat="63.20819" lon="8.1455">
        <ele>32.309761</ele>
        <time>2020-07-15T12:32:33.427Z</time>
      </trkpt>
      <trkpt lat="63.20755" lon="8.14608">
        <ele>29.522716</ele>
        <time>2020-07-15T12:32:42.274Z</time>
      </trkpt>
      <trkpt lat="63.20743" lon="8.14624">
        <ele>28.968747</ele>
        <time>2020-07-15T12:32:44.063Z</time>
      </trkpt>
      <trkpt lat="63.20739" lon="8.1463">
        <ele>28.770459</ele>
        <time>2020-07-15T12:32:44.600Z</time>
      </trkpt>
      <trkpt lat="63.20705" lon="8.14692">
        <ele>27.020807</ele>
        <time>2020-07-15T12:32:50.024Z</time>
      </trkpt>
      <trkpt lat="63.20694" lon="8.14717">
        <ele>26.381761</ele>
        <time>2020-07-15T12:32:52.039Z</time>
      </trkpt>
      <trkpt lat="63.20682" lon="8.1475">
        <ele>25.568605</ele>
        <time>2020-07-15T12:32:54.222Z</time>
      </trkpt>
      <trkpt lat="63.20618" lon="8.14997">
        <ele>18.759797</ele>
        <time>2020-07-15T12:33:09.365Z</time>
      </trkpt>
      <trkpt lat="63.20614" lon="8.15008">
        <ele>18.407953</ele>
        <time>2020-07-15T12:33:10.101Z</time>
      </trkpt>
      <trkpt lat="63.20594" lon="8.1506">
        <ele>16.783325</ele>
        <time>2020-07-15T12:33:14.040Z</time>
      </trkpt>
      <trkpt lat="63.20592" lon="8.15066">
        <ele>16.615169</ele>
        <time>2020-07-15T12:33:14.414Z</time>
      </trkpt>
      <trkpt lat="63.2059" lon="8.15082">
        <ele>16.210645</ele>
        <time>2020-07-15T12:33:15.405Z</time>
      </trkpt>
      <trkpt lat="63.20589" lon="8.15095">
        <ele>16.036686</ele>
        <time>2020-07-15T12:33:16.110Z</time>
      </trkpt>
      <trkpt lat="63.20614" lon="8.15468">
        <ele>10.68063</ele>
        <time>2020-07-15T12:33:38.920Z</time>
      </trkpt>
      <trkpt lat="63.20617" lon="8.155">
        <ele>10.274528</ele>
        <time>2020-07-15T12:33:40.772Z</time>
      </trkpt>
      <trkpt lat="63.20618" lon="8.15507">
        <ele>10.189608</ele>
        <time>2020-07-15T12:33:41.170Z</time>
      </trkpt>
      <trkpt lat="63.20626" lon="8.15564">
        <ele>9.478183</ele>
        <time>2020-07-15T12:33:44.751Z</time>
      </trkpt>
      <trkpt lat="63.20633" lon="8.15603">
        <ele>8.978001</ele>
        <time>2020-07-15T12:33:47.159Z</time>
      </trkpt>
      <trkpt lat="63.20639" lon="8.15641">
        <ele>8.483753</ele>
        <time>2020-07-15T12:33:49.530Z</time>
      </trkpt>
      <trkpt lat="63.20646" lon="8.15673">
        <ele>8.061218</ele>
        <time>2020-07-15T12:33:51.590Z</time>
      </trkpt>
      <trkpt lat="63.20664" lon="8.15751">
        <ele>7.012148</ele>
        <time>2020-07-15T12:33:56.865Z</time>
      </trkpt>
      <trkpt lat="63.20671" lon="8.15777">
        <ele>6.646466</ele>
        <time>2020-07-15T12:33:58.728Z</time>
      </trkpt>
      <trkpt lat="63.20673" lon="8.15785">
        <ele>6.531525</ele>
        <time>2020-07-15T12:33:59.238Z</time>
      </trkpt>
      <trkpt lat="63.20699" lon="8.15867">
        <ele>6.189048</ele>
        <time>2020-07-15T12:34:05.625Z</time>
      </trkpt>
      <trkpt lat="63.20717" lon="8.15916">
        <ele>6.904948</ele>
        <time>2020-07-15T12:34:09.788Z</time>
      </trkpt>
      <trkpt lat="63.20923" lon="8.16441">
        <ele>18.97612</ele>
        <time>2020-07-15T12:35:48.742Z</time>
      </trkpt>
      <trkpt lat="63.20934" lon="8.16469">
        <ele>20.133705</ele>
        <time>2020-07-15T12:35:57.619Z</time>
      </trkpt>
      <trkpt lat="63.20988" lon="8.16605">
        <ele>25.703951</ele>
        <time>2020-07-15T12:36:33.634Z</time>
      </trkpt>
      <trkpt lat="63.20996" lon="8.16626">
        <ele>26.552613</ele>
        <time>2020-07-15T12:36:38.682Z</time>
      </trkpt>
      <trkpt lat="63.21015" lon="8.16676">
        <ele>28.549048</ele>
        <time>2020-07-15T12:36:51.312Z</time>
      </trkpt>
      <trkpt lat="63.2106" lon="8.16838">
        <ele>31.748104</ele>
        <time>2020-07-15T12:37:21.441Z</time>
      </trkpt>
      <trkpt lat="63.21095" lon="8.17034">
        <ele>32.644957</ele>
        <time>2020-07-15T12:37:39.041Z</time>
      </trkpt>
      <trkpt lat="63.21108" lon="8.17232">
        <ele>31.118414</ele>
        <time>2020-07-15T12:37:51.074Z</time>
      </trkpt>
      <trkpt lat="63.21108" lon="8.17502">
        <ele>26.54134</ele>
        <time>2020-07-15T12:38:06.134Z</time>
      </trkpt>
      <trkpt lat="63.21113" lon="8.17607">
        <ele>25.361548</ele>
        <time>2020-07-15T12:38:12.104Z</time>
      </trkpt>
      <trkpt lat="63.21132" lon="8.17734">
        <ele>24.003716</ele>
        <time>2020-07-15T12:38:20.124Z</time>
      </trkpt>
      <trkpt lat="63.2116" lon="8.17836">
        <ele>22.805297</ele>
        <time>2020-07-15T12:38:27.867Z</time>
      </trkpt>
      <trkpt lat="63.21171" lon="8.17867">
        <ele>22.411</ele>
        <time>2020-07-15T12:38:30.561Z</time>
      </trkpt>
      <trkpt lat="63.21179" lon="8.1789">
        <ele>22.350772</ele>
        <time>2020-07-15T12:38:32.707Z</time>
      </trkpt>
      <trkpt lat="63.21298" lon="8.18172">
        <ele>26.23806</ele>
        <time>2020-07-15T12:39:17.658Z</time>
      </trkpt>
      <trkpt lat="63.21306" lon="8.18192">
        <ele>26.699036</ele>
        <time>2020-07-15T12:39:21.797Z</time>
      </trkpt>
      <trkpt lat="63.21333" lon="8.18256">
        <ele>28.238495</ele>
        <time>2020-07-15T12:39:34.485Z</time>
      </trkpt>
      <trkpt lat="63.21385" lon="8.18402">
        <ele>31.457247</ele>
        <time>2020-07-15T12:40:01.271Z</time>
      </trkpt>
      <trkpt lat="63.21436" lon="8.1859">
        <ele>34.245316</ele>
        <time>2020-07-15T12:40:29.490Z</time>
      </trkpt>
      <trkpt lat="63.21458" lon="8.18695">
        <ele>35.281428</ele>
        <time>2020-07-15T12:40:41.680Z</time>
      </trkpt>
      <trkpt lat="63.21485" lon="8.1886">
        <ele>36.797995</ele>
        <time>2020-07-15T12:40:58.476Z</time>
      </trkpt>
      <trkpt lat="63.21523" lon="8.19216">
        <ele>38.55106</ele>
        <time>2020-07-15T12:41:31.726Z</time>
      </trkpt>
      <trkpt lat="63.21547" lon="8.19305">
        <ele>40.408096</ele>
        <time>2020-07-15T12:41:43.839Z</time>
      </trkpt>
      <trkpt lat="63.21577" lon="8.19355">
        <ele>42.169908</ele>
        <time>2020-07-15T12:41:54.647Z</time>
      </trkpt>
      <trkpt lat="63.21595" lon="8.19372">
        <ele>43.077111</ele>
        <time>2020-07-15T12:42:00.549Z</time>
      </trkpt>
      <trkpt lat="63.21612" lon="8.19379">
        <ele>43.88691</ele>
        <time>2020-07-15T12:42:06.562Z</time>
      </trkpt>
      <trkpt lat="63.217" lon="8.19379">
        <ele>49.04831</ele>
        <time>2020-07-15T12:42:41.090Z</time>
      </trkpt>
      <trkpt lat="63.21726" lon="8.19398">
        <ele>51.731738</ele>
        <time>2020-07-15T12:42:53.608Z</time>
      </trkpt>
      <trkpt lat="63.21746" lon="8.19428">
        <ele>54.149525</ele>
        <time>2020-07-15T12:43:05.394Z</time>
      </trkpt>
      <trkpt lat="63.21766" lon="8.19489">
        <ele>57.533178</ele>
        <time>2020-07-15T12:43:24.067Z</time>
      </trkpt>
      <trkpt lat="63.21791" lon="8.19665">
        <ele>65.695154</ele>
        <time>2020-07-15T12:44:08.530Z</time>
      </trkpt>
      <trkpt lat="63.21808" lon="8.19746">
        <ele>69.288612</ele>
        <time>2020-07-15T12:44:29.749Z</time>
      </trkpt>
      <trkpt lat="63.21817" lon="8.19779">
        <ele>70.856606</ele>
        <time>2020-07-15T12:44:40.014Z</time>
      </trkpt>
      <trkpt lat="63.21901" lon="8.20062">
        <ele>81.778539</ele>
        <time>2020-07-15T12:45:45.546Z</time>
      </trkpt>
      <trkpt lat="63.21943" lon="8.20217">
        <ele>83.407445</ele>
        <time>2020-07-15T12:46:04.799Z</time>
      </trkpt>
      <trkpt lat="63.21969" lon="8.20349">
        <ele>84.354483</ele>
        <time>2020-07-15T12:46:15.122Z</time>
      </trkpt>
      <trkpt lat="63.22013" lon="8.20765">
        <ele>74.206784</ele>
        <time>2020-07-15T12:46:38.478Z</time>
      </trkpt>
      <trkpt lat="63.22034" lon="8.20875">
        <ele>68.974071</ele>
        <time>2020-07-15T12:46:44.429Z</time>
      </trkpt>
      <trkpt lat="63.22045" lon="8.20923">
        <ele>66.631197</ele>
        <time>2020-07-15T12:46:47.049Z</time>
      </trkpt>
      <trkpt lat="63.22075" lon="8.21061">
        <ele>59.909134</ele>
        <time>2020-07-15T12:46:54.466Z</time>
      </trkpt>
      <trkpt lat="63.22116" lon="8.21215">
        <ele>51.150727</ele>
        <time>2020-07-15T12:47:03.043Z</time>
      </trkpt>
      <trkpt lat="63.22152" lon="8.21282">
        <ele>45.96391</ele>
        <time>2020-07-15T12:47:08.079Z</time>
      </trkpt>
      <trkpt lat="63.22161" lon="8.21291">
        <ele>44.861084</ele>
        <time>2020-07-15T12:47:09.112Z</time>
      </trkpt>
      <trkpt lat="63.22175" lon="8.21303">
        <ele>43.188159</ele>
        <time>2020-07-15T12:47:10.781Z</time>
      </trkpt>
      <trkpt lat="63.22193" lon="8.21313">
        <ele>41.133603</ele>
        <time>2020-07-15T12:47:12.822Z</time>
      </trkpt>
      <trkpt lat="63.22209" lon="8.21318">
        <ele>39.341694</ele>
        <time>2020-07-15T12:47:14.614Z</time>
      </trkpt>
      <trkpt lat="63.2222" lon="8.21322">
        <ele>38.218864</ele>
        <time>2020-07-15T12:47:15.895Z</time>
      </trkpt>
      <trkpt lat="63.22244" lon="8.21328">
        <ele>36.36505</ele>
        <time>2020-07-15T12:47:18.548Z</time>
      </trkpt>
      <trkpt lat="63.22282" lon="8.21339">
        <ele>33.46994</ele>
        <time>2020-07-15T12:47:22.766Z</time>
      </trkpt>
      <trkpt lat="63.2235" lon="8.2137">
        <ele>28.159009</ele>
        <time>2020-07-15T12:47:30.689Z</time>
      </trkpt>
      <trkpt lat="63.22365" lon="8.2138">
        <ele>26.965916</ele>
        <time>2020-07-15T12:47:32.508Z</time>
      </trkpt>
      <trkpt lat="63.2239" lon="8.214">
        <ele>24.944399</ele>
        <time>2020-07-15T12:47:35.672Z</time>
      </trkpt>
      <trkpt lat="63.2241" lon="8.21419">
        <ele>23.895751</ele>
        <time>2020-07-15T12:47:38.320Z</time>
      </trkpt>
      <trkpt lat="63.2243" lon="8.21438">
        <ele>22.925416</ele>
        <time>2020-07-15T12:47:40.848Z</time>
      </trkpt>
      <trkpt lat="63.22448" lon="8.2146">
        <ele>21.953969</ele>
        <time>2020-07-15T12:47:43.475Z</time>
      </trkpt>
      <trkpt lat="63.22524" lon="8.21576">
        <ele>17.71564</ele>
        <time>2020-07-15T12:47:54.814Z</time>
      </trkpt>
      <trkpt lat="63.22563" lon="8.21662">
        <ele>15.628415</ele>
        <time>2020-07-15T12:48:01.878Z</time>
      </trkpt>
      <trkpt lat="63.22592" lon="8.21741">
        <ele>14.224884</ele>
        <time>2020-07-15T12:48:07.906Z</time>
      </trkpt>
      <trkpt lat="63.22665" lon="8.22027">
        <ele>10.303739</ele>
        <time>2020-07-15T12:48:27.717Z</time>
      </trkpt>
      <trkpt lat="63.22675" lon="8.22103">
        <ele>9.729864</ele>
        <time>2020-07-15T12:48:32.847Z</time>
      </trkpt>
      <trkpt lat="63.22675" lon="8.22163">
        <ele>9.298714</ele>
        <time>2020-07-15T12:48:36.860Z</time>
      </trkpt>
      <trkpt lat="63.22672" lon="8.22208">
        <ele>8.968533</ele>
        <time>2020-07-15T12:48:39.875Z</time>
      </trkpt>
      <trkpt lat="63.22661" lon="8.22287">
        <ele>8.373487</ele>
        <time>2020-07-15T12:48:45.695Z</time>
      </trkpt>
      <trkpt lat="63.22653" lon="8.22386">
        <ele>8.041479</ele>
        <time>2020-07-15T12:48:53.278Z</time>
      </trkpt>
      <trkpt lat="63.22655" lon="8.22477">
        <ele>7.940535</ele>
        <time>2020-07-15T12:49:00.096Z</time>
      </trkpt>
      <trkpt lat="63.22672" lon="8.22592">
        <ele>7.805975</ele>
        <time>2020-07-15T12:49:10.436Z</time>
      </trkpt>
      <trkpt lat="63.22699" lon="8.22684">
        <ele>7.683514</ele>
        <time>2020-07-15T12:49:19.289Z</time>
      </trkpt>
      <trkpt lat="63.2271" lon="8.22714">
        <ele>7.474207</ele>
        <time>2020-07-15T12:49:22.298Z</time>
      </trkpt>
      <trkpt lat="63.22729" lon="8.22771">
        <ele>6.954236</ele>
        <time>2020-07-15T12:49:27.315Z</time>
      </trkpt>
      <trkpt lat="63.22762" lon="8.22886">
        <ele>5.969359</ele>
        <time>2020-07-15T12:49:35.938Z</time>
      </trkpt>
      <trkpt lat="63.2277" lon="8.22928">
        <ele>5.63038</ele>
        <time>2020-07-15T12:49:39.027Z</time>
      </trkpt>
      <trkpt lat="63.22774" lon="8.22952">
        <ele>5.447707</ele>
        <time>2020-07-15T12:49:40.431Z</time>
      </trkpt>
      <trkpt lat="63.22792" lon="8.23131">
        <ele>4.027974</ele>
        <time>2020-07-15T12:49:52.101Z</time>
      </trkpt>
      <trkpt lat="63.22793" lon="8.23177">
        <ele>3.648698</ele>
        <time>2020-07-15T12:49:54.840Z</time>
      </trkpt>
      <trkpt lat="63.22793" lon="8.23205">
        <ele>3.414809</ele>
        <time>2020-07-15T12:49:56.632Z</time>
      </trkpt>
      <trkpt lat="63.22789" lon="8.23293">
        <ele>2.686752</ele>
        <time>2020-07-15T12:50:02.010Z</time>
      </trkpt>
      <trkpt lat="63.22779" lon="8.23394">
        <ele>1.834689</ele>
        <time>2020-07-15T12:50:08.607Z</time>
      </trkpt>
      <trkpt lat="63.22697" lon="8.24022">
        <ele>4.230374</ele>
        <time>2020-07-15T12:51:03.993Z</time>
      </trkpt>
      <trkpt lat="63.22691" lon="8.24115">
        <ele>5.382028</ele>
        <time>2020-07-15T12:51:15.839Z</time>
      </trkpt>
      <trkpt lat="63.22691" lon="8.24208">
        <ele>6.532564</ele>
        <time>2020-07-15T12:51:31.879Z</time>
      </trkpt>
      <trkpt lat="63.22692" lon="8.24244">
        <ele>7.61585</ele>
        <time>2020-07-15T12:51:37.902Z</time>
      </trkpt>
      <trkpt lat="63.22693" lon="8.24262">
        <ele>8.208415</ele>
        <time>2020-07-15T12:51:42.829Z</time>
      </trkpt>
      <trkpt lat="63.22715" lon="8.24434">
        <ele>13.901903</ele>
        <time>2020-07-15T12:52:17.091Z</time>
      </trkpt>
      <trkpt lat="63.22723" lon="8.24471">
        <ele>15.192316</ele>
        <time>2020-07-15T12:52:24.399Z</time>
      </trkpt>
      <trkpt lat="63.22734" lon="8.24518">
        <ele>16.881532</ele>
        <time>2020-07-15T12:52:35.589Z</time>
      </trkpt>
      <trkpt lat="63.22772" lon="8.24632">
        <ele>19.707464</ele>
        <time>2020-07-15T12:53:00.899Z</time>
      </trkpt>
      <trkpt lat="63.22867" lon="8.24842">
        <ele>21.700963</ele>
        <time>2020-07-15T12:53:30.956Z</time>
      </trkpt>
      <trkpt lat="63.22901" lon="8.24959">
        <ele>19.157091</ele>
        <time>2020-07-15T12:53:38.550Z</time>
      </trkpt>
      <trkpt lat="63.22918" lon="8.25045">
        <ele>16.656518</ele>
        <time>2020-07-15T12:53:43.361Z</time>
      </trkpt>
      <trkpt lat="63.22927" lon="8.2511">
        <ele>14.839932</ele>
        <time>2020-07-15T12:53:46.819Z</time>
      </trkpt>
      <trkpt lat="63.22932" lon="8.25159">
        <ele>13.500443</ele>
        <time>2020-07-15T12:53:49.378Z</time>
      </trkpt>
      <trkpt lat="63.22948" lon="8.25307">
        <ele>10.971129</ele>
        <time>2020-07-15T12:53:57.355Z</time>
      </trkpt>
      <trkpt lat="63.2295" lon="8.2532">
        <ele>10.910675</ele>
        <time>2020-07-15T12:53:58.002Z</time>
      </trkpt>
      <trkpt lat="63.22951" lon="8.25329">
        <ele>10.868279</ele>
        <time>2020-07-15T12:53:58.528Z</time>
      </trkpt>
      <trkpt lat="63.22995" lon="8.2561">
        <ele>9.541047</ele>
        <time>2020-07-15T12:54:20.282Z</time>
      </trkpt>
      <trkpt lat="63.23043" lon="8.25823">
        <ele>19.770297</ele>
        <time>2020-07-15T12:55:12.435Z</time>
      </trkpt>
      <trkpt lat="63.23057" lon="8.25873">
        <ele>22.381554</ele>
        <time>2020-07-15T12:55:26.330Z</time>
      </trkpt>
      <trkpt lat="63.23063" lon="8.25896">
        <ele>23.558433</ele>
        <time>2020-07-15T12:55:34.485Z</time>
      </trkpt>
      <trkpt lat="63.2313" lon="8.26128">
        <ele>36.667148</ele>
        <time>2020-07-15T12:56:51.011Z</time>
      </trkpt>
      <trkpt lat="63.23186" lon="8.26367">
        <ele>47.97674</ele>
        <time>2020-07-15T12:57:46.904Z</time>
      </trkpt>
      <trkpt lat="63.23195" lon="8.26397">
        <ele>48.62873</ele>
        <time>2020-07-15T12:57:53.613Z</time>
      </trkpt>
      <trkpt lat="63.232" lon="8.26414">
        <ele>48.980785</ele>
        <time>2020-07-15T12:57:55.884Z</time>
      </trkpt>
      <trkpt lat="63.23247" lon="8.26543">
        <ele>51.987257</ele>
        <time>2020-07-15T12:58:17.738Z</time>
      </trkpt>
      <trkpt lat="63.23285" lon="8.26621">
        <ele>54.044244</ele>
        <time>2020-07-15T12:58:29.971Z</time>
      </trkpt>
      <trkpt lat="63.23316" lon="8.26677">
        <ele>53.688252</ele>
        <time>2020-07-15T12:58:36.903Z</time>
      </trkpt>
      <trkpt lat="63.23319" lon="8.26687">
        <ele>53.631559</ele>
        <time>2020-07-15T12:58:37.949Z</time>
      </trkpt>
      <trkpt lat="63.23453" lon="8.2692">
        <ele>50.662969</ele>
        <time>2020-07-15T12:59:02.707Z</time>
      </trkpt>
      <trkpt lat="63.23457" lon="8.26922">
        <ele>50.469385</ele>
        <time>2020-07-15T12:59:03.282Z</time>
      </trkpt>
      <trkpt lat="63.23506" lon="8.27008">
        <ele>47.58472</ele>
        <time>2020-07-15T12:59:11.117Z</time>
      </trkpt>
      <trkpt lat="63.23586" lon="8.27153">
        <ele>42.046304</ele>
        <time>2020-07-15T12:59:23.130Z</time>
      </trkpt>
      <trkpt lat="63.2363" lon="8.27247">
        <ele>37.399525</ele>
        <time>2020-07-15T12:59:30.040Z</time>
      </trkpt>
      <trkpt lat="63.2365" lon="8.27283">
        <ele>35.409973</ele>
        <time>2020-07-15T12:59:32.983Z</time>
      </trkpt>
      <trkpt lat="63.2368" lon="8.27328">
        <ele>32.671653</ele>
        <time>2020-07-15T12:59:37.019Z</time>
      </trkpt>
      <trkpt lat="63.23713" lon="8.2736">
        <ele>29.939374</ele>
        <time>2020-07-15T12:59:41.028Z</time>
      </trkpt>
      <trkpt lat="63.23838" lon="8.27416">
        <ele>20.294724</ele>
        <time>2020-07-15T12:59:55.491Z</time>
      </trkpt>
      <trkpt lat="63.23872" lon="8.27442">
        <ele>17.602637</ele>
        <time>2020-07-15T12:59:59.541Z</time>
      </trkpt>
      <trkpt lat="63.23919" lon="8.27501">
        <ele>15.348122</ele>
        <time>2020-07-15T13:00:05.791Z</time>
      </trkpt>
      <trkpt lat="63.23959" lon="8.27586">
        <ele>13.556785</ele>
        <time>2020-07-15T13:00:12.937Z</time>
      </trkpt>
      <trkpt lat="63.23971" lon="8.27621">
        <ele>12.92776</ele>
        <time>2020-07-15T13:00:15.384Z</time>
      </trkpt>
      <trkpt lat="63.23982" lon="8.27659">
        <ele>12.288018</ele>
        <time>2020-07-15T13:00:18.682Z</time>
      </trkpt>
      <trkpt lat="63.24059" lon="8.27941">
        <ele>11.518975</ele>
        <time>2020-07-15T13:00:47.233Z</time>
      </trkpt>
      <trkpt lat="63.2416" lon="8.28244">
        <ele>11.613444</ele>
        <time>2020-07-15T13:01:22.745Z</time>
      </trkpt>
      <trkpt lat="63.24224" lon="8.28405">
        <ele>11.08715</ele>
        <time>2020-07-15T13:01:36.769Z</time>
      </trkpt>
      <trkpt lat="63.24254" lon="8.2846">
        <ele>10.373478</ele>
        <time>2020-07-15T13:01:42.067Z</time>
      </trkpt>
      <trkpt lat="63.2429" lon="8.28508">
        <ele>9.592476</ele>
        <time>2020-07-15T13:01:47.881Z</time>
      </trkpt>
      <trkpt lat="63.24299" lon="8.28519">
        <ele>9.397415</ele>
        <time>2020-07-15T13:01:49.199Z</time>
      </trkpt>
      <trkpt lat="63.24331" lon="8.28553">
        <ele>8.746307</ele>
        <time>2020-07-15T13:01:54.206Z</time>
      </trkpt>
      <trkpt lat="63.2436" lon="8.28586">
        <ele>8.139688</ele>
        <time>2020-07-15T13:01:59.135Z</time>
      </trkpt>
      <trkpt lat="63.24403" lon="8.28644">
        <ele>8.477955</ele>
        <time>2020-07-15T13:02:07.103Z</time>
      </trkpt>
      <trkpt lat="63.2446" lon="8.28748">
        <ele>9.344042</ele>
        <time>2020-07-15T13:02:21.905Z</time>
      </trkpt>
      <trkpt lat="63.24508" lon="8.28872">
        <ele>10.485296</ele>
        <time>2020-07-15T13:02:42.329Z</time>
      </trkpt>
      <trkpt lat="63.24537" lon="8.28986">
        <ele>12.943685</ele>
        <time>2020-07-15T13:02:59.989Z</time>
      </trkpt>
      <trkpt lat="63.24548" lon="8.29043">
        <ele>14.108626</ele>
        <time>2020-07-15T13:03:08.824Z</time>
      </trkpt>
      <trkpt lat="63.24554" lon="8.29089">
        <ele>15.012283</ele>
        <time>2020-07-15T13:03:15.837Z</time>
      </trkpt>
      <trkpt lat="63.24572" lon="8.29216">
        <ele>17.504254</ele>
        <time>2020-07-15T13:03:35.330Z</time>
      </trkpt>
      <trkpt lat="63.24608" lon="8.29469">
        <ele>23.229963</ele>
        <time>2020-07-15T13:04:15.903Z</time>
      </trkpt>
      <trkpt lat="63.24651" lon="8.29694">
        <ele>28.085405</ele>
        <time>2020-07-15T13:04:51.777Z</time>
      </trkpt>
      <trkpt lat="63.24772" lon="8.30154">
        <ele>35.861285</ele>
        <time>2020-07-15T13:06:02.294Z</time>
      </trkpt>
      <trkpt lat="63.24876" lon="8.30602">
        <ele>38.295099</ele>
        <time>2020-07-15T13:06:48.086Z</time>
      </trkpt>
      <trkpt lat="63.24889" lon="8.30663">
        <ele>38.351461</ele>
        <time>2020-07-15T13:06:53.035Z</time>
      </trkpt>
      <trkpt lat="63.24928" lon="8.30848">
        <ele>37.33841</ele>
        <time>2020-07-15T13:07:07.343Z</time>
      </trkpt>
      <trkpt lat="63.2496" lon="8.30995">
        <ele>36.533087</ele>
        <time>2020-07-15T13:07:18.206Z</time>
      </trkpt>
      <trkpt lat="63.25023" lon="8.31249">
        <ele>34.410486</ele>
        <time>2020-07-15T13:07:37.239Z</time>
      </trkpt>
      <trkpt lat="63.25105" lon="8.31512">
        <ele>31.32123</ele>
        <time>2020-07-15T13:07:57.864Z</time>
      </trkpt>
      <trkpt lat="63.2513" lon="8.31581">
        <ele>30.337706</ele>
        <time>2020-07-15T13:08:03.203Z</time>
      </trkpt>
      <trkpt lat="63.25156" lon="8.3165">
        <ele>29.336152</ele>
        <time>2020-07-15T13:08:08.564Z</time>
      </trkpt>
      <trkpt lat="63.25173" lon="8.31691">
        <ele>28.6108</ele>
        <time>2020-07-15T13:08:11.874Z</time>
      </trkpt>
      <trkpt lat="63.2519" lon="8.31733">
        <ele>27.710325</ele>
        <time>2020-07-15T13:08:15.167Z</time>
      </trkpt>
      <trkpt lat="63.25205" lon="8.31768">
        <ele>26.947546</ele>
        <time>2020-07-15T13:08:17.866Z</time>
      </trkpt>
      <trkpt lat="63.25275" lon="8.31911">
        <ele>23.622916</ele>
        <time>2020-07-15T13:08:29.943Z</time>
      </trkpt>
      <trkpt lat="63.25309" lon="8.31974">
        <ele>22.372059</ele>
        <time>2020-07-15T13:08:35.776Z</time>
      </trkpt>
      <trkpt lat="63.25328" lon="8.32009">
        <ele>21.927827</ele>
        <time>2020-07-15T13:08:39.157Z</time>
      </trkpt>
      <trkpt lat="63.25353" lon="8.32063">
        <ele>21.301295</ele>
        <time>2020-07-15T13:08:44.033Z</time>
      </trkpt>
      <trkpt lat="63.25371" lon="8.32122">
        <ele>20.717204</ele>
        <time>2020-07-15T13:08:48.666Z</time>
      </trkpt>
      <trkpt lat="63.25384" lon="8.32198">
        <ele>20.0458</ele>
        <time>2020-07-15T13:08:54.116Z</time>
      </trkpt>
      <trkpt lat="63.25389" lon="8.32262">
        <ele>19.517479</ele>
        <time>2020-07-15T13:08:58.723Z</time>
      </trkpt>
      <trkpt lat="63.25383" lon="8.32388">
        <ele>18.874901</ele>
        <time>2020-07-15T13:09:08.393Z</time>
      </trkpt>
      <trkpt lat="63.25352" lon="8.32616">
        <ele>17.732999</ele>
        <time>2020-07-15T13:09:25.097Z</time>
      </trkpt>
      <trkpt lat="63.25337" lon="8.32718">
        <ele>16.83425</ele>
        <time>2020-07-15T13:09:31.960Z</time>
      </trkpt>
      <trkpt lat="63.25335" lon="8.32729">
        <ele>16.711453</ele>
        <time>2020-07-15T13:09:32.576Z</time>
      </trkpt>
      <trkpt lat="63.25331" lon="8.32758">
        <ele>16.375563</ele>
        <time>2020-07-15T13:09:34.523Z</time>
      </trkpt>
      <trkpt lat="63.25322" lon="8.32848">
        <ele>15.360561</ele>
        <time>2020-07-15T13:09:40.286Z</time>
      </trkpt>
      <trkpt lat="63.25322" lon="8.32928">
        <ele>14.490566</ele>
        <time>2020-07-15T13:09:45.087Z</time>
      </trkpt>
      <trkpt lat="63.25324" lon="8.32956">
        <ele>14.178844</ele>
        <time>2020-07-15T13:09:46.808Z</time>
      </trkpt>
      <trkpt lat="63.25325" lon="8.32964">
        <ele>14.091696</ele>
        <time>2020-07-15T13:09:47.219Z</time>
      </trkpt>
      <trkpt lat="63.25348" lon="8.33078">
        <ele>12.924081</ele>
        <time>2020-07-15T13:09:54.696Z</time>
      </trkpt>
      <trkpt lat="63.25415" lon="8.3326">
        <ele>11.607585</ele>
        <time>2020-07-15T13:10:09.948Z</time>
      </trkpt>
      <trkpt lat="63.25455" lon="8.33368">
        <ele>10.976575</ele>
        <time>2020-07-15T13:10:21.517Z</time>
      </trkpt>
      <trkpt lat="63.25473" lon="8.33416">
        <ele>11.297295</ele>
        <time>2020-07-15T13:10:27.609Z</time>
      </trkpt>
      <trkpt lat="63.25501" lon="8.33504">
        <ele>11.858859</ele>
        <time>2020-07-15T13:10:37.440Z</time>
      </trkpt>
      <trkpt lat="63.25522" lon="8.33592">
        <ele>12.374444</ele>
        <time>2020-07-15T13:10:47.530Z</time>
      </trkpt>
      <trkpt lat="63.25528" lon="8.33622">
        <ele>12.545288</ele>
        <time>2020-07-15T13:10:51.349Z</time>
      </trkpt>
      <trkpt lat="63.25531" lon="8.3364">
        <ele>12.644623</ele>
        <time>2020-07-15T13:10:52.938Z</time>
      </trkpt>
      <trkpt lat="63.25547" lon="8.3376">
        <ele>13.313942</ele>
        <time>2020-07-15T13:11:06.848Z</time>
      </trkpt>
      <trkpt lat="63.2556" lon="8.33949">
        <ele>14.362722</ele>
        <time>2020-07-15T13:11:25.374Z</time>
      </trkpt>
      <trkpt lat="63.25564" lon="8.34002">
        <ele>14.658899</ele>
        <time>2020-07-15T13:11:30.322Z</time>
      </trkpt>
      <trkpt lat="63.25568" lon="8.34044">
        <ele>14.892642</ele>
        <time>2020-07-15T13:11:34.308Z</time>
      </trkpt>
      <trkpt lat="63.25573" lon="8.34087">
        <ele>15.142463</ele>
        <time>2020-07-15T13:11:38.403Z</time>
      </trkpt>
      <trkpt lat="63.25578" lon="8.34116">
        <ele>15.376657</ele>
        <time>2020-07-15T13:11:41.353Z</time>
      </trkpt>
      <trkpt lat="63.25588" lon="8.34163">
        <ele>15.783144</ele>
        <time>2020-07-15T13:11:45.998Z</time>
      </trkpt>
      <trkpt lat="63.25606" lon="8.34237">
        <ele>16.46058</ele>
        <time>2020-07-15T13:11:54.483Z</time>
      </trkpt>
      <trkpt lat="63.25626" lon="8.34303">
        <ele>17.092255</ele>
        <time>2020-07-15T13:12:02.580Z</time>
      </trkpt>
      <trkpt lat="63.25642" lon="8.34356">
        <ele>17.598148</ele>
        <time>2020-07-15T13:12:09.344Z</time>
      </trkpt>
      <trkpt lat="63.25652" lon="8.34398">
        <ele>17.986643</ele>
        <time>2020-07-15T13:12:15.010Z</time>
      </trkpt>
      <trkpt lat="63.25658" lon="8.34427">
        <ele>18.238709</ele>
        <time>2020-07-15T13:12:18.467Z</time>
      </trkpt>
      <trkpt lat="63.25664" lon="8.34457">
        <ele>18.757281</ele>
        <time>2020-07-15T13:12:22.207Z</time>
      </trkpt>
      <trkpt lat="63.25665" lon="8.34469">
        <ele>19.049726</ele>
        <time>2020-07-15T13:12:24.171Z</time>
      </trkpt>
      <trkpt lat="63.25676" lon="8.34596">
        <ele>22.079593</ele>
        <time>2020-07-15T13:12:41.267Z</time>
      </trkpt>
      <trkpt lat="63.25677" lon="8.34681">
        <ele>24.08989</ele>
        <time>2020-07-15T13:12:54.201Z</time>
      </trkpt>
      <trkpt lat="63.25689" lon="8.35376">
        <ele>44.94585</ele>
        <time>2020-07-15T13:15:04.886Z</time>
      </trkpt>
      <trkpt lat="63.25695" lon="8.3552">
        <ele>48.937571</ele>
        <time>2020-07-15T13:15:30.923Z</time>
      </trkpt>
      <trkpt lat="63.25714" lon="8.35647">
        <ele>52.085973</ele>
        <time>2020-07-15T13:15:50.498Z</time>
      </trkpt>
      <trkpt lat="63.25725" lon="8.35699">
        <ele>52.04639</ele>
        <time>2020-07-15T13:15:57.770Z</time>
      </trkpt>
      <trkpt lat="63.2576" lon="8.35868">
        <ele>51.917483</ele>
        <time>2020-07-15T13:16:13.608Z</time>
      </trkpt>
      <trkpt lat="63.2578" lon="8.35988">
        <ele>51.829563</ele>
        <time>2020-07-15T13:16:21.530Z</time>
      </trkpt>
      <trkpt lat="63.25785" lon="8.36106">
        <ele>49.195983</ele>
        <time>2020-07-15T13:16:27.857Z</time>
      </trkpt>
      <trkpt lat="63.25778" lon="8.36207">
        <ele>46.709451</ele>
        <time>2020-07-15T13:16:33.237Z</time>
      </trkpt>
      <trkpt lat="63.25759" lon="8.36342">
        <ele>43.276934</ele>
        <time>2020-07-15T13:16:40.760Z</time>
      </trkpt>
      <trkpt lat="63.25754" lon="8.36378">
        <ele>42.358624</ele>
        <time>2020-07-15T13:16:42.738Z</time>
      </trkpt>
      <trkpt lat="63.2575" lon="8.36403">
        <ele>41.876178</ele>
        <time>2020-07-15T13:16:44.223Z</time>
      </trkpt>
      <trkpt lat="63.25742" lon="8.36551">
        <ele>39.705219</ele>
        <time>2020-07-15T13:16:52.496Z</time>
      </trkpt>
      <trkpt lat="63.25742" lon="8.36588">
        <ele>39.167985</ele>
        <time>2020-07-15T13:16:54.653Z</time>
      </trkpt>
      <trkpt lat="63.25742" lon="8.36588">
        <ele>39.167985</ele>
        <time>2020-07-15T13:16:54.703Z</time>
      </trkpt>
      <trkpt lat="63.25742" lon="8.36588">
        <ele>39.167985</ele>
        <time>2020-07-15T13:16:54.709Z</time>
      </trkpt>
      <trkpt lat="63.25743" lon="8.36633">
        <ele>38.500143</ele>
        <time>2020-07-15T13:16:57.354Z</time>
      </trkpt>
      <trkpt lat="63.25751" lon="8.36848">
        <ele>36.234331</ele>
        <time>2020-07-15T13:17:11.640Z</time>
      </trkpt>
      <trkpt lat="63.25764" lon="8.36948">
        <ele>36.147522</ele>
        <time>2020-07-15T13:17:19.454Z</time>
      </trkpt>
      <trkpt lat="63.25771" lon="8.36976">
        <ele>36.122106</ele>
        <time>2020-07-15T13:17:22.055Z</time>
      </trkpt>
      <trkpt lat="63.25776" lon="8.36998">
        <ele>36.100461</ele>
        <time>2020-07-15T13:17:24.325Z</time>
      </trkpt>
      <trkpt lat="63.25823" lon="8.37132">
        <ele>35.960168</ele>
        <time>2020-07-15T13:17:38.952Z</time>
      </trkpt>
      <trkpt lat="63.25829" lon="8.3715">
        <ele>35.924045</ele>
        <time>2020-07-15T13:17:41.052Z</time>
      </trkpt>
      <trkpt lat="63.25835" lon="8.3717">
        <ele>35.879034</ele>
        <time>2020-07-15T13:17:43.179Z</time>
      </trkpt>
      <trkpt lat="63.25846" lon="8.3721">
        <ele>35.794711</ele>
        <time>2020-07-15T13:17:47.259Z</time>
      </trkpt>
      <trkpt lat="63.2585" lon="8.37234">
        <ele>35.747122</ele>
        <time>2020-07-15T13:17:49.504Z</time>
      </trkpt>
      <trkpt lat="63.25853" lon="8.37246">
        <ele>35.722971</ele>
        <time>2020-07-15T13:17:50.777Z</time>
      </trkpt>
      <trkpt lat="63.25876" lon="8.37416">
        <ele>35.397121</ele>
        <time>2020-07-15T13:18:04.728Z</time>
      </trkpt>
      <trkpt lat="63.25883" lon="8.3745">
        <ele>35.327074</ele>
        <time>2020-07-15T13:18:07.624Z</time>
      </trkpt>
      <trkpt lat="63.25887" lon="8.37465">
        <ele>35.295837</ele>
        <time>2020-07-15T13:18:08.868Z</time>
      </trkpt>
      <trkpt lat="63.25906" lon="8.37525">
        <ele>34.536012</ele>
        <time>2020-07-15T13:18:13.317Z</time>
      </trkpt>
      <trkpt lat="63.25929" lon="8.37575">
        <ele>33.012302</ele>
        <time>2020-07-15T13:18:17.641Z</time>
      </trkpt>
      <trkpt lat="63.2594" lon="8.37596">
        <ele>32.315025</ele>
        <time>2020-07-15T13:18:19.593Z</time>
      </trkpt>
      <trkpt lat="63.25946" lon="8.37606">
        <ele>31.954483</ele>
        <time>2020-07-15T13:18:20.479Z</time>
      </trkpt>
      <trkpt lat="63.25995" lon="8.37702">
        <ele>28.855904</ele>
        <time>2020-07-15T13:18:28.397Z</time>
      </trkpt>
      <trkpt lat="63.26002" lon="8.37722">
        <ele>28.308549</ele>
        <time>2020-07-15T13:18:29.677Z</time>
      </trkpt>
      <trkpt lat="63.26011" lon="8.3775">
        <ele>27.570264</ele>
        <time>2020-07-15T13:18:31.523Z</time>
      </trkpt>
      <trkpt lat="63.2603" lon="8.37825">
        <ele>25.047014</ele>
        <time>2020-07-15T13:18:35.968Z</time>
      </trkpt>
      <trkpt lat="63.26045" lon="8.37891">
        <ele>22.358394</ele>
        <time>2020-07-15T13:18:39.713Z</time>
      </trkpt>
      <trkpt lat="63.26052" lon="8.37884">
        <ele>21.772384</ele>
        <time>2020-07-15T13:18:40.579Z</time>
      </trkpt>
      <trkpt lat="63.26064" lon="8.37937">
        <ele>19.591196</ele>
        <time>2020-07-15T13:18:43.669Z</time>
      </trkpt>
      <trkpt lat="63.26072" lon="8.37981">
        <ele>17.858013</ele>
        <time>2020-07-15T13:18:46.180Z</time>
      </trkpt>
      <trkpt lat="63.26081" lon="8.38084">
        <ele>14.039334</ele>
        <time>2020-07-15T13:18:51.663Z</time>
      </trkpt>
      <trkpt lat="63.26077" lon="8.38142">
        <ele>12.0102</ele>
        <time>2020-07-15T13:18:54.777Z</time>
      </trkpt>
      <trkpt lat="63.26062" lon="8.38209">
        <ele>10.59663</ele>
        <time>2020-07-15T13:18:58.773Z</time>
      </trkpt>
      <trkpt lat="63.26058" lon="8.3822">
        <ele>10.326412</ele>
        <time>2020-07-15T13:18:59.513Z</time>
      </trkpt>
      <trkpt lat="63.26053" lon="8.38232">
        <ele>10.012439</ele>
        <time>2020-07-15T13:19:00.484Z</time>
      </trkpt>
      <trkpt lat="63.26034" lon="8.38305">
        <ele>8.40992</ele>
        <time>2020-07-15T13:19:05.159Z</time>
      </trkpt>
      <trkpt lat="63.26029" lon="8.38333">
        <ele>7.820729</ele>
        <time>2020-07-15T13:19:07.081Z</time>
      </trkpt>
      <trkpt lat="63.26029" lon="8.38336">
        <ele>7.760948</ele>
        <time>2020-07-15T13:19:07.242Z</time>
      </trkpt>
      <trkpt lat="63.26023" lon="8.38399">
        <ele>6.544664</ele>
        <time>2020-07-15T13:19:11.097Z</time>
      </trkpt>
      <trkpt lat="63.26024" lon="8.38484">
        <ele>4.903795</ele>
        <time>2020-07-15T13:19:17.167Z</time>
      </trkpt>
      <trkpt lat="63.26027" lon="8.38505">
        <ele>4.494568</ele>
        <time>2020-07-15T13:19:18.601Z</time>
      </trkpt>
      <trkpt lat="63.26027" lon="8.38512">
        <ele>4.543845</ele>
        <time>2020-07-15T13:19:18.992Z</time>
      </trkpt>
      <trkpt lat="63.26049" lon="8.38617">
        <ele>5.696493</ele>
        <time>2020-07-15T13:19:31.170Z</time>
      </trkpt>
      <trkpt lat="63.26059" lon="8.38699">
        <ele>6.543801</ele>
        <time>2020-07-15T13:19:41.431Z</time>
      </trkpt>
      <trkpt lat="63.26059" lon="8.38725">
        <ele>6.802978</ele>
        <time>2020-07-15T13:19:44.816Z</time>
      </trkpt>
      <trkpt lat="63.26052" lon="8.38725">
        <ele>6.962501</ele>
        <time>2020-07-15T13:19:46.937Z</time>
      </trkpt>
      <trkpt lat="63.26051" lon="8.38745">
        <ele>7.161309</ele>
        <time>2020-07-15T13:19:50.272Z</time>
      </trkpt>
      <trkpt lat="63.26044" lon="8.38805">
        <ele>7.774753</ele>
        <time>2020-07-15T13:19:57.498Z</time>
      </trkpt>
      <trkpt lat="63.26022" lon="8.38902">
        <ele>9.148912</ele>
        <time>2020-07-15T13:20:12.496Z</time>
      </trkpt>
      <trkpt lat="63.26014" lon="8.38936">
        <ele>9.809639</ele>
        <time>2020-07-15T13:20:17.767Z</time>
      </trkpt>
      <trkpt lat="63.2601" lon="8.38953">
        <ele>10.121814</ele>
        <time>2020-07-15T13:20:20.345Z</time>
      </trkpt>
      <trkpt lat="63.26001" lon="8.39019">
        <ele>11.296944</ele>
        <time>2020-07-15T13:20:29.984Z</time>
      </trkpt>
      <trkpt lat="63.25991" lon="8.39166">
        <ele>13.822275</ele>
        <time>2020-07-15T13:20:49.118Z</time>
      </trkpt>
      <trkpt lat="63.25989" lon="8.39215">
        <ele>14.660536</ele>
        <time>2020-07-15T13:20:56.393Z</time>
      </trkpt>
      <trkpt lat="63.25987" lon="8.3924">
        <ele>15.099514</ele>
        <time>2020-07-15T13:20:59.526Z</time>
      </trkpt>
      <trkpt lat="63.25986" lon="8.39251">
        <ele>15.294355</ele>
        <time>2020-07-15T13:21:01.012Z</time>
      </trkpt>
      <trkpt lat="63.25981" lon="8.3929">
        <ele>16.399887</ele>
        <time>2020-07-15T13:21:07.147Z</time>
      </trkpt>
      <trkpt lat="63.25968" lon="8.394">
        <ele>19.481721</ele>
        <time>2020-07-15T13:21:22.150Z</time>
      </trkpt>
      <trkpt lat="63.25964" lon="8.39479">
        <ele>21.63218</ele>
        <time>2020-07-15T13:21:35.737Z</time>
      </trkpt>
      <trkpt lat="63.25964" lon="8.39492">
        <ele>21.995108</ele>
        <time>2020-07-15T13:21:38.637Z</time>
      </trkpt>
      <trkpt lat="63.25964" lon="8.39496">
        <ele>22.084485</ele>
        <time>2020-07-15T13:21:40.044Z</time>
      </trkpt>
      <trkpt lat="63.25974" lon="8.39606">
        <ele>25.129547</ele>
        <time>2020-07-15T13:22:00.443Z</time>
      </trkpt>
      <trkpt lat="63.25996" lon="8.39699">
        <ele>28.654256</ele>
        <time>2020-07-15T13:22:19.949Z</time>
      </trkpt>
      <trkpt lat="63.26017" lon="8.39762">
        <ele>31.530829</ele>
        <time>2020-07-15T13:22:36.326Z</time>
      </trkpt>
      <trkpt lat="63.26023" lon="8.39779">
        <ele>32.348287</ele>
        <time>2020-07-15T13:22:43.024Z</time>
      </trkpt>
      <trkpt lat="63.26035" lon="8.39817">
        <ele>34.029086</ele>
        <time>2020-07-15T13:22:51.006Z</time>
      </trkpt>
      <trkpt lat="63.2604" lon="8.39835">
        <ele>34.799224</ele>
        <time>2020-07-15T13:22:55.727Z</time>
      </trkpt>
      <trkpt lat="63.26044" lon="8.39861">
        <ele>35.81816</ele>
        <time>2020-07-15T13:23:01.555Z</time>
      </trkpt>
      <trkpt lat="63.26052" lon="8.39935">
        <ele>38.604813</ele>
        <time>2020-07-15T13:23:16.578Z</time>
      </trkpt>
      <trkpt lat="63.26056" lon="8.39973">
        <ele>40.050376</ele>
        <time>2020-07-15T13:23:23.391Z</time>
      </trkpt>
      <trkpt lat="63.26059" lon="8.40008">
        <ele>41.231992</ele>
        <time>2020-07-15T13:23:31.559Z</time>
      </trkpt>
      <trkpt lat="63.26106" lon="8.40519">
        <ele>56.252684</ele>
        <time>2020-07-15T13:24:58.463Z</time>
      </trkpt>
      <trkpt lat="63.26124" lon="8.40667">
        <ele>60.822834</ele>
        <time>2020-07-15T13:25:24.245Z</time>
      </trkpt>
      <trkpt lat="63.26183" lon="8.41018">
        <ele>73.980701</ele>
        <time>2020-07-15T13:26:37.141Z</time>
      </trkpt>
      <trkpt lat="63.26219" lon="8.41311">
        <ele>84.665042</ele>
        <time>2020-07-15T13:27:41.717Z</time>
      </trkpt>
      <trkpt lat="63.26269" lon="8.4154">
        <ele>92.551597</ele>
        <time>2020-07-15T13:28:27.211Z</time>
      </trkpt>
      <trkpt lat="63.26286" lon="8.4164">
        <ele>93.29524</ele>
        <time>2020-07-15T13:28:41.366Z</time>
      </trkpt>
      <trkpt lat="63.26344" lon="8.42325">
        <ele>94.656515</ele>
        <time>2020-07-15T13:29:34.769Z</time>
      </trkpt>
      <trkpt lat="63.26414" lon="8.42857">
        <ele>93.96341</ele>
        <time>2020-07-15T13:30:18.646Z</time>
      </trkpt>
      <trkpt lat="63.2643" lon="8.43066">
        <ele>93.38563</ele>
        <time>2020-07-15T13:30:33.882Z</time>
      </trkpt>
      <trkpt lat="63.26446" lon="8.43486">
        <ele>89.596475</ele>
        <time>2020-07-15T13:31:00.548Z</time>
      </trkpt>
      <trkpt lat="63.2645" lon="8.43702">
        <ele>87.218667</ele>
        <time>2020-07-15T13:31:13.413Z</time>
      </trkpt>
      <trkpt lat="63.26446" lon="8.43864">
        <ele>85.433823</ele>
        <time>2020-07-15T13:31:23.199Z</time>
      </trkpt>
      <trkpt lat="63.2644" lon="8.44055">
        <ele>86.744994</ele>
        <time>2020-07-15T13:31:37.734Z</time>
      </trkpt>
      <trkpt lat="63.26436" lon="8.44152">
        <ele>87.452992</ele>
        <time>2020-07-15T13:31:48.795Z</time>
      </trkpt>
      <trkpt lat="63.26436" lon="8.44173">
        <ele>87.605316</ele>
        <time>2020-07-15T13:31:51.451Z</time>
      </trkpt>
      <trkpt lat="63.2643" lon="8.44319">
        <ele>89.689833</ele>
        <time>2020-07-15T13:32:13.176Z</time>
      </trkpt>
      <trkpt lat="63.26419" lon="8.44481">
        <ele>94.122769</ele>
        <time>2020-07-15T13:32:42.645Z</time>
      </trkpt>
      <trkpt lat="63.26403" lon="8.44591">
        <ele>97.231747</ele>
        <time>2020-07-15T13:33:04.151Z</time>
      </trkpt>
      <trkpt lat="63.26373" lon="8.44734">
        <ele>99.771096</ele>
        <time>2020-07-15T13:33:28.458Z</time>
      </trkpt>
      <trkpt lat="63.26349" lon="8.44818">
        <ele>100.552011</ele>
        <time>2020-07-15T13:33:40.314Z</time>
      </trkpt>
      <trkpt lat="63.26318" lon="8.44915">
        <ele>101.481843</ele>
        <time>2020-07-15T13:33:51.200Z</time>
      </trkpt>
      <trkpt lat="63.26283" lon="8.45024">
        <ele>101.53333</ele>
        <time>2020-07-15T13:34:00.476Z</time>
      </trkpt>
      <trkpt lat="63.26214" lon="8.45245">
        <ele>97.362379</ele>
        <time>2020-07-15T13:34:15.927Z</time>
      </trkpt>
      <trkpt lat="63.26171" lon="8.45498">
        <ele>91.732023</ele>
        <time>2020-07-15T13:34:30.748Z</time>
      </trkpt>
      <trkpt lat="63.26107" lon="8.45759">
        <ele>84.836783</ele>
        <time>2020-07-15T13:34:46.710Z</time>
      </trkpt>
      <trkpt lat="63.26071" lon="8.45937">
        <ele>80.461056</ele>
        <time>2020-07-15T13:34:57.243Z</time>
      </trkpt>
      <trkpt lat="63.26046" lon="8.46072">
        <ele>77.398672</ele>
        <time>2020-07-15T13:35:05.392Z</time>
      </trkpt>
      <trkpt lat="63.26037" lon="8.46122">
        <ele>76.740266</ele>
        <time>2020-07-15T13:35:08.454Z</time>
      </trkpt>
      <trkpt lat="63.26008" lon="8.46267">
        <ele>74.800601</ele>
        <time>2020-07-15T13:35:17.839Z</time>
      </trkpt>
      <trkpt lat="63.25974" lon="8.46365">
        <ele>73.29148</ele>
        <time>2020-07-15T13:35:25.576Z</time>
      </trkpt>
      <trkpt lat="63.25921" lon="8.46444">
        <ele>72.779153</ele>
        <time>2020-07-15T13:35:35.826Z</time>
      </trkpt>
      <trkpt lat="63.25884" lon="8.46471">
        <ele>72.783607</ele>
        <time>2020-07-15T13:35:42.984Z</time>
      </trkpt>
      <trkpt lat="63.25851" lon="8.46483">
        <ele>72.78744</ele>
        <time>2020-07-15T13:35:49.410Z</time>
      </trkpt>
      <trkpt lat="63.25833" lon="8.46487">
        <ele>72.78961</ele>
        <time>2020-07-15T13:35:53.320Z</time>
      </trkpt>
      <trkpt lat="63.25804" lon="8.46494">
        <ele>72.792971</ele>
        <time>2020-07-15T13:35:59.190Z</time>
      </trkpt>
      <trkpt lat="63.25757" lon="8.46519">
        <ele>72.447226</ele>
        <time>2020-07-15T13:36:08.614Z</time>
      </trkpt>
      <trkpt lat="63.25731" lon="8.46546">
        <ele>72.14712</ele>
        <time>2020-07-15T13:36:13.993Z</time>
      </trkpt>
      <trkpt lat="63.25697" lon="8.46604">
        <ele>71.693939</ele>
        <time>2020-07-15T13:36:21.340Z</time>
      </trkpt>
      <trkpt lat="63.25677" lon="8.46654">
        <ele>71.375637</ele>
        <time>2020-07-15T13:36:25.953Z</time>
      </trkpt>
      <trkpt lat="63.25652" lon="8.46755">
        <ele>70.526878</ele>
        <time>2020-07-15T13:36:33.128Z</time>
      </trkpt>
      <trkpt lat="63.25564" lon="8.47208">
        <ele>57.630399</ele>
        <time>2020-07-15T13:36:59.369Z</time>
      </trkpt>
      <trkpt lat="63.25558" lon="8.47233">
        <ele>56.678132</ele>
        <time>2020-07-15T13:37:00.794Z</time>
      </trkpt>
      <trkpt lat="63.25553" lon="8.47251">
        <ele>56.006378</ele>
        <time>2020-07-15T13:37:01.791Z</time>
      </trkpt>
      <trkpt lat="63.25497" lon="8.47396">
        <ele>49.762454</ele>
        <time>2020-07-15T13:37:11.546Z</time>
      </trkpt>
      <trkpt lat="63.25486" lon="8.47417">
        <ele>48.686099</ele>
        <time>2020-07-15T13:37:13.167Z</time>
      </trkpt>
      <trkpt lat="63.25467" lon="8.47448">
        <ele>47.310767</ele>
        <time>2020-07-15T13:37:15.863Z</time>
      </trkpt>
      <trkpt lat="63.25431" lon="8.47498">
        <ele>45.0608</ele>
        <time>2020-07-15T13:37:20.796Z</time>
      </trkpt>
      <trkpt lat="63.25391" lon="8.47538">
        <ele>42.758905</ele>
        <time>2020-07-15T13:37:26.142Z</time>
      </trkpt>
      <trkpt lat="63.25284" lon="8.47598">
        <ele>37.077886</ele>
        <time>2020-07-15T13:37:40.181Z</time>
      </trkpt>
      <trkpt lat="63.25271" lon="8.47606">
        <ele>36.416313</ele>
        <time>2020-07-15T13:37:41.812Z</time>
      </trkpt>
      <trkpt lat="63.25267" lon="8.47609">
        <ele>36.222208</ele>
        <time>2020-07-15T13:37:42.258Z</time>
      </trkpt>
      <trkpt lat="63.25235" lon="8.47643">
        <ele>34.485794</ele>
        <time>2020-07-15T13:37:46.670Z</time>
      </trkpt>
      <trkpt lat="63.25227" lon="8.47653">
        <ele>34.06358</ele>
        <time>2020-07-15T13:37:47.813Z</time>
      </trkpt>
      <trkpt lat="63.25203" lon="8.47684">
        <ele>32.69149</ele>
        <time>2020-07-15T13:37:51.223Z</time>
      </trkpt>
      <trkpt lat="63.25151" lon="8.47733">
        <ele>29.962172</ele>
        <time>2020-07-15T13:37:58.108Z</time>
      </trkpt>
      <trkpt lat="63.25143" lon="8.47738">
        <ele>29.394399</ele>
        <time>2020-07-15T13:37:59.129Z</time>
      </trkpt>
      <trkpt lat="63.25137" lon="8.47741">
        <ele>28.978734</ele>
        <time>2020-07-15T13:37:59.823Z</time>
      </trkpt>
      <trkpt lat="63.25074" lon="8.47768">
        <ele>24.7486</ele>
        <time>2020-07-15T13:38:07.089Z</time>
      </trkpt>
      <trkpt lat="63.25029" lon="8.4781">
        <ele>21.485132</ele>
        <time>2020-07-15T13:38:12.598Z</time>
      </trkpt>
      <trkpt lat="63.25023" lon="8.47819">
        <ele>20.98405</ele>
        <time>2020-07-15T13:38:13.422Z</time>
      </trkpt>
      <trkpt lat="63.25004" lon="8.47842">
        <ele>19.54162</ele>
        <time>2020-07-15T13:38:15.954Z</time>
      </trkpt>
      <trkpt lat="63.24996" lon="8.47855">
        <ele>18.887172</ele>
        <time>2020-07-15T13:38:17.061Z</time>
      </trkpt>
      <trkpt lat="63.24989" lon="8.47862">
        <ele>18.402605</ele>
        <time>2020-07-15T13:38:17.922Z</time>
      </trkpt>
      <trkpt lat="63.24988" lon="8.47863">
        <ele>18.32077</ele>
        <time>2020-07-15T13:38:18.090Z</time>
      </trkpt>
      <trkpt lat="63.24985" lon="8.47866">
        <ele>18.078757</ele>
        <time>2020-07-15T13:38:18.588Z</time>
      </trkpt>
      <trkpt lat="63.24982" lon="8.47872">
        <ele>17.925757</ele>
        <time>2020-07-15T13:38:19.021Z</time>
      </trkpt>
      <trkpt lat="63.24981" lon="8.47888">
        <ele>17.855501</ele>
        <time>2020-07-15T13:38:19.973Z</time>
      </trkpt>
      <trkpt lat="63.24982" lon="8.47894">
        <ele>17.825088</ele>
        <time>2020-07-15T13:38:20.336Z</time>
      </trkpt>
      <trkpt lat="63.24984" lon="8.47899">
        <ele>17.795699</ele>
        <time>2020-07-15T13:38:20.717Z</time>
      </trkpt>
      <trkpt lat="63.24985" lon="8.47917">
        <ele>17.713894</ele>
        <time>2020-07-15T13:38:21.646Z</time>
      </trkpt>
      <trkpt lat="63.24988" lon="8.47936">
        <ele>17.626717</ele>
        <time>2020-07-15T13:38:22.805Z</time>
      </trkpt>
      <trkpt lat="63.24996" lon="8.47985">
        <ele>17.396994</ele>
        <time>2020-07-15T13:38:25.720Z</time>
      </trkpt>
      <trkpt lat="63.25064" lon="8.48615">
        <ele>18.754865</ele>
        <time>2020-07-15T13:39:28.023Z</time>
      </trkpt>
      <trkpt lat="63.25065" lon="8.48623">
        <ele>18.810952</ele>
        <time>2020-07-15T13:39:29.383Z</time>
      </trkpt>
      <trkpt lat="63.25069" lon="8.48651">
        <ele>19.058632</ele>
        <time>2020-07-15T13:39:33.208Z</time>
      </trkpt>
      <trkpt lat="63.25075" lon="8.48685">
        <ele>19.502281</ele>
        <time>2020-07-15T13:39:38.326Z</time>
      </trkpt>
      <trkpt lat="63.25078" lon="8.48703">
        <ele>19.730194</ele>
        <time>2020-07-15T13:39:40.932Z</time>
      </trkpt>
      <trkpt lat="63.25087" lon="8.48749">
        <ele>20.334286</ele>
        <time>2020-07-15T13:39:47.660Z</time>
      </trkpt>
      <trkpt lat="63.25091" lon="8.4877">
        <ele>20.619258</ele>
        <time>2020-07-15T13:39:50.942Z</time>
      </trkpt>
      <trkpt lat="63.25133" lon="8.48916">
        <ele>22.698248</ele>
        <time>2020-07-15T13:40:13.207Z</time>
      </trkpt>
      <trkpt lat="63.25182" lon="8.49035">
        <ele>23.468337</ele>
        <time>2020-07-15T13:40:29.343Z</time>
      </trkpt>
      <trkpt lat="63.25203" lon="8.49075">
        <ele>23.2113</ele>
        <time>2020-07-15T13:40:33.832Z</time>
      </trkpt>
      <trkpt lat="63.25233" lon="8.49131">
        <ele>22.852165</ele>
        <time>2020-07-15T13:40:39.719Z</time>
      </trkpt>
      <trkpt lat="63.25293" lon="8.49231">
        <ele>22.15262</ele>
        <time>2020-07-15T13:40:50.329Z</time>
      </trkpt>
      <trkpt lat="63.25393" lon="8.49349">
        <ele>20.251551</ele>
        <time>2020-07-15T13:41:05.586Z</time>
      </trkpt>
      <trkpt lat="63.25441" lon="8.49426">
        <ele>19.236923</ele>
        <time>2020-07-15T13:41:14.998Z</time>
      </trkpt>
      <trkpt lat="63.25449" lon="8.49442">
        <ele>19.049356</ele>
        <time>2020-07-15T13:41:16.410Z</time>
      </trkpt>
      <trkpt lat="63.25456" lon="8.49458">
        <ele>19.053384</ele>
        <time>2020-07-15T13:41:19.201Z</time>
      </trkpt>
      <trkpt lat="63.25531" lon="8.49687">
        <ele>19.626262</ele>
        <time>2020-07-15T13:41:43.124Z</time>
      </trkpt>
      <trkpt lat="63.25577" lon="8.49783">
        <ele>19.792218</ele>
        <time>2020-07-15T13:41:57.489Z</time>
      </trkpt>
      <trkpt lat="63.25589" lon="8.498">
        <ele>19.766</ele>
        <time>2020-07-15T13:42:00.608Z</time>
      </trkpt>
      <trkpt lat="63.25594" lon="8.49806">
        <ele>19.75692</ele>
        <time>2020-07-15T13:42:01.348Z</time>
      </trkpt>
      <trkpt lat="63.25635" lon="8.49845">
        <ele>19.678372</ele>
        <time>2020-07-15T13:42:10.354Z</time>
      </trkpt>
      <trkpt lat="63.25687" lon="8.49864">
        <ele>19.585832</ele>
        <time>2020-07-15T13:42:19.865Z</time>
      </trkpt>
      <trkpt lat="63.25716" lon="8.49862">
        <ele>19.534093</ele>
        <time>2020-07-15T13:42:24.580Z</time>
      </trkpt>
      <trkpt lat="63.25823" lon="8.49825">
        <ele>15.646955</ele>
        <time>2020-07-15T13:42:38.788Z</time>
      </trkpt>
      <trkpt lat="63.25892" lon="8.49844">
        <ele>12.789584</ele>
        <time>2020-07-15T13:42:46.945Z</time>
      </trkpt>
      <trkpt lat="63.25931" lon="8.4987">
        <ele>11.520724</ele>
        <time>2020-07-15T13:42:51.749Z</time>
      </trkpt>
      <trkpt lat="63.25963" lon="8.49891">
        <ele>10.736013</ele>
        <time>2020-07-15T13:42:55.813Z</time>
      </trkpt>
      <trkpt lat="63.25972" lon="8.49896">
        <ele>10.522314</ele>
        <time>2020-07-15T13:42:56.885Z</time>
      </trkpt>
      <trkpt lat="63.26021" lon="8.49915">
        <ele>9.351748</ele>
        <time>2020-07-15T13:43:03.172Z</time>
      </trkpt>
      <trkpt lat="63.26037" lon="8.49918">
        <ele>8.956661</ele>
        <time>2020-07-15T13:43:05.239Z</time>
      </trkpt>
      <trkpt lat="63.2605" lon="8.49919">
        <ele>8.653797</ele>
        <time>2020-07-15T13:43:07.024Z</time>
      </trkpt>
      <trkpt lat="63.26192" lon="8.49897">
        <ele>14.515514</ele>
        <time>2020-07-15T13:43:55.867Z</time>
      </trkpt>
      <trkpt lat="63.26224" lon="8.49892">
        <ele>16.490007</ele>
        <time>2020-07-15T13:44:11.401Z</time>
      </trkpt>
      <trkpt lat="63.26233" lon="8.4989">
        <ele>17.025457</ele>
        <time>2020-07-15T13:44:16.123Z</time>
      </trkpt>
      <trkpt lat="63.26257" lon="8.49886">
        <ele>18.540497</ele>
        <time>2020-07-15T13:44:27.693Z</time>
      </trkpt>
      <trkpt lat="63.26307" lon="8.49876">
        <ele>20.427071</ele>
        <time>2020-07-15T13:44:48.860Z</time>
      </trkpt>
      <trkpt lat="63.26332" lon="8.49868">
        <ele>21.263894</ele>
        <time>2020-07-15T13:44:58.091Z</time>
      </trkpt>
      <trkpt lat="63.26385" lon="8.49841">
        <ele>23.051918</ele>
        <time>2020-07-15T13:45:12.614Z</time>
      </trkpt>
      <trkpt lat="63.26408" lon="8.49823">
        <ele>23.870361</ele>
        <time>2020-07-15T13:45:18.906Z</time>
      </trkpt>
      <trkpt lat="63.26417" lon="8.49815">
        <ele>24.19577</ele>
        <time>2020-07-15T13:45:20.156Z</time>
      </trkpt>
      <trkpt lat="63.26477" lon="8.49743">
        <ele>25.704958</ele>
        <time>2020-07-15T13:45:30.068Z</time>
      </trkpt>
      <trkpt lat="63.26495" lon="8.49715">
        <ele>26.070977</ele>
        <time>2020-07-15T13:45:32.966Z</time>
      </trkpt>
      <trkpt lat="63.26501" lon="8.49706">
        <ele>26.182306</ele>
        <time>2020-07-15T13:45:33.908Z</time>
      </trkpt>
      <trkpt lat="63.26581" lon="8.49597">
        <ele>27.752307</ele>
        <time>2020-07-15T13:45:58.116Z</time>
      </trkpt>
      <trkpt lat="63.26588" lon="8.49591">
        <ele>27.876603</ele>
        <time>2020-07-15T13:46:00.748Z</time>
      </trkpt>
      <trkpt lat="63.26594" lon="8.49586">
        <ele>28.076611</ele>
        <time>2020-07-15T13:46:03.636Z</time>
      </trkpt>
      <trkpt lat="63.26607" lon="8.49576">
        <ele>29.033811</ele>
        <time>2020-07-15T13:46:12.269Z</time>
      </trkpt>
      <trkpt lat="63.26646" lon="8.49558">
        <ele>31.799629</ele>
        <time>2020-07-15T13:46:30.527Z</time>
      </trkpt>
      <trkpt lat="63.2666" lon="8.49555">
        <ele>32.790643</ele>
        <time>2020-07-15T13:46:37.169Z</time>
      </trkpt>
      <trkpt lat="63.26677" lon="8.49554">
        <ele>33.950925</ele>
        <time>2020-07-15T13:46:47.647Z</time>
      </trkpt>
      <trkpt lat="63.26718" lon="8.49563">
        <ele>36.807365</ele>
        <time>2020-07-15T13:47:06.267Z</time>
      </trkpt>
      <trkpt lat="63.26745" lon="8.49572">
        <ele>38.64149</ele>
        <time>2020-07-15T13:47:19.762Z</time>
      </trkpt>
      <trkpt lat="63.2677" lon="8.49581">
        <ele>40.312468</ele>
        <time>2020-07-15T13:47:30.205Z</time>
      </trkpt>
      <trkpt lat="63.2699" lon="8.4967">
        <ele>27.347806</ele>
        <time>2020-07-15T13:47:57.778Z</time>
      </trkpt>
      <trkpt lat="63.27012" lon="8.49681">
        <ele>24.918612</ele>
        <time>2020-07-15T13:48:00.212Z</time>
      </trkpt>
      <trkpt lat="63.27018" lon="8.49684">
        <ele>24.22197</ele>
        <time>2020-07-15T13:48:00.859Z</time>
      </trkpt>
      <trkpt lat="63.27088" lon="8.49737">
        <ele>16.15385</ele>
        <time>2020-07-15T13:48:08.625Z</time>
      </trkpt>
      <trkpt lat="63.271" lon="8.49751">
        <ele>14.679551</ele>
        <time>2020-07-15T13:48:10.045Z</time>
      </trkpt>
      <trkpt lat="63.27124" lon="8.49782">
        <ele>12.115338</ele>
        <time>2020-07-15T13:48:13.025Z</time>
      </trkpt>
      <trkpt lat="63.27155" lon="8.49824">
        <ele>10.176619</ele>
        <time>2020-07-15T13:48:16.944Z</time>
      </trkpt>
      <trkpt lat="63.27159" lon="8.49828">
        <ele>9.937243</ele>
        <time>2020-07-15T13:48:17.428Z</time>
      </trkpt>
      <trkpt lat="63.27217" lon="8.49887">
        <ele>6.569231</ele>
        <time>2020-07-15T13:48:25.168Z</time>
      </trkpt>
      <trkpt lat="63.27466" lon="8.5008">
        <ele>2.571234</ele>
        <time>2020-07-15T13:49:07.695Z</time>
      </trkpt>
      <trkpt lat="63.27505" lon="8.50124">
        <ele>3.508002</ele>
        <time>2020-07-15T13:49:19.196Z</time>
      </trkpt>
      <trkpt lat="63.27544" lon="8.50188">
        <ele>4.546443</ele>
        <time>2020-07-15T13:49:31.306Z</time>
      </trkpt>
      <trkpt lat="63.27554" lon="8.50208">
        <ele>4.831439</ele>
        <time>2020-07-15T13:49:34.652Z</time>
      </trkpt>
      <trkpt lat="63.2756" lon="8.50222">
        <ele>5.019644</ele>
        <time>2020-07-15T13:49:37.950Z</time>
      </trkpt>
      <trkpt lat="63.27607" lon="8.50362">
        <ele>7.234403</ele>
        <time>2020-07-15T13:49:58.665Z</time>
      </trkpt>
      <trkpt lat="63.27633" lon="8.505">
        <ele>9.865883</ele>
        <time>2020-07-15T13:50:18.602Z</time>
      </trkpt>
      <trkpt lat="63.27635" lon="8.50523">
        <ele>10.271465</ele>
        <time>2020-07-15T13:50:21.960Z</time>
      </trkpt>
      <trkpt lat="63.27639" lon="8.50553">
        <ele>10.812712</ele>
        <time>2020-07-15T13:50:25.938Z</time>
      </trkpt>
      <trkpt lat="63.27641" lon="8.50577">
        <ele>11.249918</ele>
        <time>2020-07-15T13:50:29.416Z</time>
      </trkpt>
      <trkpt lat="63.27649" lon="8.50671">
        <ele>12.938021</ele>
        <time>2020-07-15T13:50:44.164Z</time>
      </trkpt>
      <trkpt lat="63.27662" lon="8.50812">
        <ele>16.048853</ele>
        <time>2020-07-15T13:51:05.774Z</time>
      </trkpt>
      <trkpt lat="63.2767" lon="8.50889">
        <ele>17.801871</ele>
        <time>2020-07-15T13:51:17.879Z</time>
      </trkpt>
      <trkpt lat="63.27677" lon="8.5094">
        <ele>18.972161</ele>
        <time>2020-07-15T13:51:26.498Z</time>
      </trkpt>
      <trkpt lat="63.27708" lon="8.51112">
        <ele>22.36367</ele>
        <time>2020-07-15T13:51:55.191Z</time>
      </trkpt>
      <trkpt lat="63.27754" lon="8.5129">
        <ele>24.183504</ele>
        <time>2020-07-15T13:52:18.090Z</time>
      </trkpt>
      <trkpt lat="63.27761" lon="8.51312">
        <ele>24.42393</ele>
        <time>2020-07-15T13:52:20.643Z</time>
      </trkpt>
      <trkpt lat="63.27768" lon="8.51334">
        <ele>24.661772</ele>
        <time>2020-07-15T13:52:22.584Z</time>
      </trkpt>
      <trkpt lat="63.27824" lon="8.51487">
        <ele>25.956297</ele>
        <time>2020-07-15T13:52:37.716Z</time>
      </trkpt>
      <trkpt lat="63.27964" lon="8.51829">
        <ele>30.63682</ele>
        <time>2020-07-15T13:53:25.106Z</time>
      </trkpt>
      <trkpt lat="63.27974" lon="8.51863">
        <ele>31.431855</ele>
        <time>2020-07-15T13:53:30.913Z</time>
      </trkpt>
      <trkpt lat="63.27982" lon="8.51891">
        <ele>32.071158</ele>
        <time>2020-07-15T13:53:36.670Z</time>
      </trkpt>
      <trkpt lat="63.2801" lon="8.52013">
        <ele>34.709592</ele>
        <time>2020-07-15T13:53:59.875Z</time>
      </trkpt>
      <trkpt lat="63.28024" lon="8.52111">
        <ele>37.807463</ele>
        <time>2020-07-15T13:54:19.969Z</time>
      </trkpt>
      <trkpt lat="63.28034" lon="8.52228">
        <ele>41.690451</ele>
        <time>2020-07-15T13:54:43.610Z</time>
      </trkpt>
      <trkpt lat="63.28037" lon="8.52359">
        <ele>45.91983</ele>
        <time>2020-07-15T13:55:07.318Z</time>
      </trkpt>
      <trkpt lat="63.28032" lon="8.52486">
        <ele>49.460553</ele>
        <time>2020-07-15T13:55:29.634Z</time>
      </trkpt>
      <trkpt lat="63.28022" lon="8.52584">
        <ele>51.751361</ele>
        <time>2020-07-15T13:55:46.058Z</time>
      </trkpt>
      <trkpt lat="63.28007" lon="8.52683">
        <ele>54.111051</ele>
        <time>2020-07-15T13:56:01.855Z</time>
      </trkpt>
      <trkpt lat="63.27976" lon="8.52835">
        <ele>57.377268</ele>
        <time>2020-07-15T13:56:24.816Z</time>
      </trkpt>
      <trkpt lat="63.27961" lon="8.52895">
        <ele>57.859294</ele>
        <time>2020-07-15T13:56:33.396Z</time>
      </trkpt>
      <trkpt lat="63.27957" lon="8.52904">
        <ele>57.945835</ele>
        <time>2020-07-15T13:56:35.138Z</time>
      </trkpt>
      <trkpt lat="63.27908" lon="8.53084">
        <ele>59.450181</ele>
        <time>2020-07-15T13:56:56.719Z</time>
      </trkpt>
      <trkpt lat="63.27903" lon="8.53098">
        <ele>59.582649</ele>
        <time>2020-07-15T13:56:58.440Z</time>
      </trkpt>
      <trkpt lat="63.279" lon="8.53099">
        <ele>59.624884</ele>
        <time>2020-07-15T13:56:59.003Z</time>
      </trkpt>
      <trkpt lat="63.27898" lon="8.53103">
        <ele>59.671165</ele>
        <time>2020-07-15T13:56:59.710Z</time>
      </trkpt>
      <trkpt lat="63.27894" lon="8.53118">
        <ele>59.792392</ele>
        <time>2020-07-15T13:57:00.949Z</time>
      </trkpt>
      <trkpt lat="63.27894" lon="8.53124">
        <ele>59.836688</ele>
        <time>2020-07-15T13:57:01.514Z</time>
      </trkpt>
      <trkpt lat="63.27894" lon="8.5313">
        <ele>59.882242</ele>
        <time>2020-07-15T13:57:02.041Z</time>
      </trkpt>
      <trkpt lat="63.27895" lon="8.53136">
        <ele>59.926509</ele>
        <time>2020-07-15T13:57:02.559Z</time>
      </trkpt>
      <trkpt lat="63.27897" lon="8.53142">
        <ele>59.975251</ele>
        <time>2020-07-15T13:57:02.903Z</time>
      </trkpt>
      <trkpt lat="63.279" lon="8.53144">
        <ele>59.831754</ele>
        <time>2020-07-15T13:57:03.362Z</time>
      </trkpt>
      <trkpt lat="63.27906" lon="8.53146">
        <ele>59.540624</ele>
        <time>2020-07-15T13:57:04.379Z</time>
      </trkpt>
      <trkpt lat="63.27909" lon="8.53145">
        <ele>59.393654</ele>
        <time>2020-07-15T13:57:04.915Z</time>
      </trkpt>
      <trkpt lat="63.27916" lon="8.5315">
        <ele>59.053973</ele>
        <time>2020-07-15T13:57:06.144Z</time>
      </trkpt>
      <trkpt lat="63.27953" lon="8.53211">
        <ele>56.818343</ele>
        <time>2020-07-15T13:57:12.571Z</time>
      </trkpt>
      <trkpt lat="63.27956" lon="8.53211">
        <ele>56.683269</ele>
        <time>2020-07-15T13:57:12.981Z</time>
      </trkpt>
      <trkpt lat="63.27958" lon="8.53214">
        <ele>56.590477</ele>
        <time>2020-07-15T13:57:13.184Z</time>
      </trkpt>
      <trkpt lat="63.28162" lon="8.53581">
        <ele>39.997472</ele>
        <time>2020-07-15T13:57:43.444Z</time>
      </trkpt>
      <trkpt lat="63.28179" lon="8.53616">
        <ele>38.298919</ele>
        <time>2020-07-15T13:57:45.964Z</time>
      </trkpt>
      <trkpt lat="63.28181" lon="8.53618">
        <ele>38.160038</ele>
        <time>2020-07-15T13:57:46.158Z</time>
      </trkpt>
      <trkpt lat="63.28231" lon="8.5373">
        <ele>32.929866</ele>
        <time>2020-07-15T13:57:54.103Z</time>
      </trkpt>
      <trkpt lat="63.28247" lon="8.53756">
        <ele>31.455244</ele>
        <time>2020-07-15T13:57:56.421Z</time>
      </trkpt>
      <trkpt lat="63.28253" lon="8.53762">
        <ele>31.022551</ele>
        <time>2020-07-15T13:57:57.039Z</time>
      </trkpt>
      <trkpt lat="63.28303" lon="8.53819">
        <ele>26.839398</ele>
        <time>2020-07-15T13:58:03.555Z</time>
      </trkpt>
      <trkpt lat="63.28328" lon="8.5386">
        <ele>24.680067</ele>
        <time>2020-07-15T13:58:07.285Z</time>
      </trkpt>
      <trkpt lat="63.28377" lon="8.5403">
        <ele>21.105818</ele>
        <time>2020-07-15T13:58:18.398Z</time>
      </trkpt>
      <trkpt lat="63.28402" lon="8.54086">
        <ele>19.67412</ele>
        <time>2020-07-15T13:58:23.182Z</time>
      </trkpt>
      <trkpt lat="63.28437" lon="8.54123">
        <ele>18.170925</ele>
        <time>2020-07-15T13:58:28.253Z</time>
      </trkpt>
      <trkpt lat="63.28476" lon="8.54135">
        <ele>17.298131</ele>
        <time>2020-07-15T13:58:33.594Z</time>
      </trkpt>
      <trkpt lat="63.28487" lon="8.54134">
        <ele>17.128844</ele>
        <time>2020-07-15T13:58:35.106Z</time>
      </trkpt>
      <trkpt lat="63.28494" lon="8.54131">
        <ele>17.026616</ele>
        <time>2020-07-15T13:58:35.995Z</time>
      </trkpt>
      <trkpt lat="63.28532" lon="8.54109">
        <ele>16.432708</ele>
        <time>2020-07-15T13:58:41.675Z</time>
      </trkpt>
      <trkpt lat="63.28592" lon="8.5406">
        <ele>15.469568</ele>
        <time>2020-07-15T13:58:51.310Z</time>
      </trkpt>
      <trkpt lat="63.28608" lon="8.54046">
        <ele>15.197318</ele>
        <time>2020-07-15T13:58:54.223Z</time>
      </trkpt>
      <trkpt lat="63.28684" lon="8.53985">
        <ele>15.265166</ele>
        <time>2020-07-15T13:59:07.914Z</time>
      </trkpt>
      <trkpt lat="63.28762" lon="8.53921">
        <ele>15.594578</ele>
        <time>2020-07-15T13:59:25.112Z</time>
      </trkpt>
      <trkpt lat="63.2882" lon="8.53872">
        <ele>15.995879</ele>
        <time>2020-07-15T13:59:38.111Z</time>
      </trkpt>
      <trkpt lat="63.28837" lon="8.53858">
        <ele>16.15672</ele>
        <time>2020-07-15T13:59:42.112Z</time>
      </trkpt>
      <trkpt lat="63.28853" lon="8.53845">
        <ele>16.311339</ele>
        <time>2020-07-15T13:59:45.728Z</time>
      </trkpt>
      <trkpt lat="63.28923" lon="8.53789">
        <ele>16.969085</ele>
        <time>2020-07-15T14:00:01.278Z</time>
      </trkpt>
      <trkpt lat="63.29187" lon="8.53574">
        <ele>18.680809</ele>
        <time>2020-07-15T14:00:56.971Z</time>
      </trkpt>
      <trkpt lat="63.29194" lon="8.53569">
        <ele>18.710838</ele>
        <time>2020-07-15T14:00:58.432Z</time>
      </trkpt>
      <trkpt lat="63.29204" lon="8.53564">
        <ele>18.75237</ele>
        <time>2020-07-15T14:01:00.241Z</time>
      </trkpt>
      <trkpt lat="63.29464" lon="8.53472">
        <ele>19.583146</ele>
        <time>2020-07-15T14:01:49.500Z</time>
      </trkpt>
      <trkpt lat="63.29499" lon="8.53462">
        <ele>19.557032</ele>
        <time>2020-07-15T14:01:56.038Z</time>
      </trkpt>
      <trkpt lat="63.29518" lon="8.53456">
        <ele>19.494719</ele>
        <time>2020-07-15T14:01:59.500Z</time>
      </trkpt>
      <trkpt lat="63.29552" lon="8.53444">
        <ele>19.381867</ele>
        <time>2020-07-15T14:02:05.925Z</time>
      </trkpt>
      <trkpt lat="63.29641" lon="8.53413">
        <ele>19.09225</ele>
        <time>2020-07-15T14:02:20.520Z</time>
      </trkpt>
      <trkpt lat="63.29671" lon="8.53401">
        <ele>18.945413</ele>
        <time>2020-07-15T14:02:25.160Z</time>
      </trkpt>
      <trkpt lat="63.29696" lon="8.53396">
        <ele>18.776562</ele>
        <time>2020-07-15T14:02:29.210Z</time>
      </trkpt>
      <trkpt lat="63.29715" lon="8.53395">
        <ele>18.651606</ele>
        <time>2020-07-15T14:02:32.394Z</time>
      </trkpt>
      <trkpt lat="63.2972" lon="8.53395">
        <ele>18.622375</ele>
        <time>2020-07-15T14:02:32.958Z</time>
      </trkpt>
      <trkpt lat="63.2974" lon="8.534">
        <ele>18.482524</ele>
        <time>2020-07-15T14:02:36.959Z</time>
      </trkpt>
      <trkpt lat="63.2976" lon="8.53411">
        <ele>18.345939</ele>
        <time>2020-07-15T14:02:40.125Z</time>
      </trkpt>
      <trkpt lat="63.29775" lon="8.53421">
        <ele>18.24527</ele>
        <time>2020-07-15T14:02:43.088Z</time>
      </trkpt>
      <trkpt lat="63.29801" lon="8.53443">
        <ele>18.058507</ele>
        <time>2020-07-15T14:02:47.428Z</time>
      </trkpt>
      <trkpt lat="63.29824" lon="8.53465">
        <ele>17.893648</ele>
        <time>2020-07-15T14:02:51.099Z</time>
      </trkpt>
      <trkpt lat="63.29829" lon="8.5347">
        <ele>17.85444</ele>
        <time>2020-07-15T14:02:52.329Z</time>
      </trkpt>
      <trkpt lat="63.29894" lon="8.53579">
        <ele>16.828945</ele>
        <time>2020-07-15T14:03:05.496Z</time>
      </trkpt>
      <trkpt lat="63.29902" lon="8.53589">
        <ele>16.711358</ele>
        <time>2020-07-15T14:03:07.349Z</time>
      </trkpt>
      <trkpt lat="63.2991" lon="8.53596">
        <ele>16.604663</ele>
        <time>2020-07-15T14:03:08.397Z</time>
      </trkpt>
      <trkpt lat="63.30011" lon="8.5365">
        <ele>15.428643</ele>
        <time>2020-07-15T14:03:23.371Z</time>
      </trkpt>
      <trkpt lat="63.30041" lon="8.53681">
        <ele>15.243598</ele>
        <time>2020-07-15T14:03:28.183Z</time>
      </trkpt>
      <trkpt lat="63.30045" lon="8.53687">
        <ele>15.216074</ele>
        <time>2020-07-15T14:03:28.787Z</time>
      </trkpt>
      <trkpt lat="63.3005" lon="8.53698">
        <ele>15.174126</ele>
        <time>2020-07-15T14:03:29.676Z</time>
      </trkpt>
      <trkpt lat="63.30093" lon="8.53845">
        <ele>14.723034</ele>
        <time>2020-07-15T14:03:42.500Z</time>
      </trkpt>
      <trkpt lat="63.3011" lon="8.53913">
        <ele>14.544394</ele>
        <time>2020-07-15T14:03:49.067Z</time>
      </trkpt>
      <trkpt lat="63.3012" lon="8.53956">
        <ele>15.438635</ele>
        <time>2020-07-15T14:03:54.732Z</time>
      </trkpt>
      <trkpt lat="63.30173" lon="8.54175">
        <ele>20.0463</ele>
        <time>2020-07-15T14:04:29.625Z</time>
      </trkpt>
      <trkpt lat="63.30198" lon="8.54276">
        <ele>22.255673</ele>
        <time>2020-07-15T14:04:49.384Z</time>
      </trkpt>
      <trkpt lat="63.30202" lon="8.54292">
        <ele>22.699635</ele>
        <time>2020-07-15T14:04:52.202Z</time>
      </trkpt>
      <trkpt lat="63.30207" lon="8.54314">
        <ele>23.315272</ele>
        <time>2020-07-15T14:04:56.632Z</time>
      </trkpt>
      <trkpt lat="63.30223" lon="8.54377">
        <ele>25.111968</ele>
        <time>2020-07-15T14:05:08.700Z</time>
      </trkpt>
      <trkpt lat="63.30284" lon="8.54627">
        <ele>32.038286</ele>
        <time>2020-07-15T14:05:54.537Z</time>
      </trkpt>
      <trkpt lat="63.30307" lon="8.54721">
        <ele>33.401219</ele>
        <time>2020-07-15T14:06:08.922Z</time>
      </trkpt>
      <trkpt lat="63.30325" lon="8.54794">
        <ele>34.456541</ele>
        <time>2020-07-15T14:06:19.174Z</time>
      </trkpt>
      <trkpt lat="63.30357" lon="8.5492">
        <ele>36.290197</ele>
        <time>2020-07-15T14:06:35.277Z</time>
      </trkpt>
      <trkpt lat="63.30435" lon="8.55191">
        <ele>38.003238</ele>
        <time>2020-07-15T14:07:05.256Z</time>
      </trkpt>
      <trkpt lat="63.30551" lon="8.55556">
        <ele>39.548512</ele>
        <time>2020-07-15T14:07:44.659Z</time>
      </trkpt>
      <trkpt lat="63.30585" lon="8.55692">
        <ele>40.308475</ele>
        <time>2020-07-15T14:07:59.596Z</time>
      </trkpt>
      <trkpt lat="63.30675" lon="8.56252">
        <ele>44.439272</ele>
        <time>2020-07-15T14:09:01.472Z</time>
      </trkpt>
      <trkpt lat="63.30696" lon="8.56475">
        <ele>45.757329</ele>
        <time>2020-07-15T14:09:24.723Z</time>
      </trkpt>
      <trkpt lat="63.30703" lon="8.56633">
        <ele>46.353618</ele>
        <time>2020-07-15T14:09:39.706Z</time>
      </trkpt>
      <trkpt lat="63.30704" lon="8.56679">
        <ele>46.527105</ele>
        <time>2020-07-15T14:09:43.928Z</time>
      </trkpt>
      <trkpt lat="63.30708" lon="8.56794">
        <ele>46.877801</ele>
        <time>2020-07-15T14:09:53.773Z</time>
      </trkpt>
      <trkpt lat="63.3072" lon="8.57076">
        <ele>46.126695</ele>
        <time>2020-07-15T14:10:15.039Z</time>
      </trkpt>
      <trkpt lat="63.30745" lon="8.57326">
        <ele>44.960711</ele>
        <time>2020-07-15T14:10:31.966Z</time>
      </trkpt>
      <trkpt lat="63.30762" lon="8.57465">
        <ele>44.115347</ele>
        <time>2020-07-15T14:10:41.514Z</time>
      </trkpt>
      <trkpt lat="63.30778" lon="8.576">
        <ele>43.526277</ele>
        <time>2020-07-15T14:10:51.150Z</time>
      </trkpt>
      <trkpt lat="63.30792" lon="8.57748">
        <ele>43.635495</ele>
        <time>2020-07-15T14:11:02.477Z</time>
      </trkpt>
      <trkpt lat="63.30798" lon="8.57884">
        <ele>43.734464</ele>
        <time>2020-07-15T14:11:14.609Z</time>
      </trkpt>
      <trkpt lat="63.30798" lon="8.58025">
        <ele>44.074033</ele>
        <time>2020-07-15T14:11:28.419Z</time>
      </trkpt>
      <trkpt lat="63.3079" lon="8.58351">
        <ele>45.55032</ele>
        <time>2020-07-15T14:12:00.321Z</time>
      </trkpt>
      <trkpt lat="63.30794" lon="8.58487">
        <ele>44.725901</ele>
        <time>2020-07-15T14:12:11.152Z</time>
      </trkpt>
      <trkpt lat="63.30798" lon="8.58535">
        <ele>44.387633</ele>
        <time>2020-07-15T14:12:14.730Z</time>
      </trkpt>
      <trkpt lat="63.30803" lon="8.58593">
        <ele>43.978627</ele>
        <time>2020-07-15T14:12:18.572Z</time>
      </trkpt>
      <trkpt lat="63.30819" lon="8.58708">
        <ele>43.138886</ele>
        <time>2020-07-15T14:12:25.974Z</time>
      </trkpt>
      <trkpt lat="63.30838" lon="8.58804">
        <ele>41.54023</ele>
        <time>2020-07-15T14:12:31.919Z</time>
      </trkpt>
      <trkpt lat="63.30869" lon="8.58935">
        <ele>38.27837</ele>
        <time>2020-07-15T14:12:40.037Z</time>
      </trkpt>
      <trkpt lat="63.30887" lon="8.59013">
        <ele>36.355961</ele>
        <time>2020-07-15T14:12:44.757Z</time>
      </trkpt>
      <trkpt lat="63.30908" lon="8.59126">
        <ele>33.724762</ele>
        <time>2020-07-15T14:12:51.236Z</time>
      </trkpt>
      <trkpt lat="63.30941" lon="8.59364">
        <ele>29.405971</ele>
        <time>2020-07-15T14:13:04.744Z</time>
      </trkpt>
      <trkpt lat="63.30959" lon="8.59499">
        <ele>27.06561</ele>
        <time>2020-07-15T14:13:13.271Z</time>
      </trkpt>
      <trkpt lat="63.3096" lon="8.59506">
        <ele>27.10833</ele>
        <time>2020-07-15T14:13:14.662Z</time>
      </trkpt>
      <trkpt lat="63.31012" lon="8.59801">
        <ele>28.793336</ele>
        <time>2020-07-15T14:13:44.872Z</time>
      </trkpt>
      <trkpt lat="63.31054" lon="8.59983">
        <ele>29.892206</ele>
        <time>2020-07-15T14:14:12.036Z</time>
      </trkpt>
      <trkpt lat="63.31063" lon="8.6002">
        <ele>30.121056</ele>
        <time>2020-07-15T14:14:17.551Z</time>
      </trkpt>
      <trkpt lat="63.31073" lon="8.60058">
        <ele>30.35435</ele>
        <time>2020-07-15T14:14:20.850Z</time>
      </trkpt>
      <trkpt lat="63.31089" lon="8.60119">
        <ele>30.742537</ele>
        <time>2020-07-15T14:14:26.951Z</time>
      </trkpt>
      <trkpt lat="63.31096" lon="8.60143">
        <ele>30.891561</ele>
        <time>2020-07-15T14:14:29.920Z</time>
      </trkpt>
      <trkpt lat="63.31115" lon="8.60216">
        <ele>31.288521</ele>
        <time>2020-07-15T14:14:35.974Z</time>
      </trkpt>
      <trkpt lat="63.31143" lon="8.60319">
        <ele>29.122805</ele>
        <time>2020-07-15T14:14:43.732Z</time>
      </trkpt>
      <trkpt lat="63.31145" lon="8.60316">
        <ele>29.008846</ele>
        <time>2020-07-15T14:14:44.027Z</time>
      </trkpt>
      <trkpt lat="63.31161" lon="8.60309">
        <ele>28.354543</ele>
        <time>2020-07-15T14:14:46.407Z</time>
      </trkpt>
      <trkpt lat="63.31178" lon="8.60322">
        <ele>27.653554</ele>
        <time>2020-07-15T14:14:48.699Z</time>
      </trkpt>
      <trkpt lat="63.31354" lon="8.60614">
        <ele>16.01918</ele>
        <time>2020-07-15T14:15:14.482Z</time>
      </trkpt>
      <trkpt lat="63.31386" lon="8.60634">
        <ele>13.935684</ele>
        <time>2020-07-15T14:15:18.332Z</time>
      </trkpt>
      <trkpt lat="63.31429" lon="8.60626">
        <ele>12.506888</ele>
        <time>2020-07-15T14:15:23.349Z</time>
      </trkpt>
      <trkpt lat="63.3144" lon="8.6062">
        <ele>12.293681</ele>
        <time>2020-07-15T14:15:24.617Z</time>
      </trkpt>
      <trkpt lat="63.31459" lon="8.60607">
        <ele>11.907029</ele>
        <time>2020-07-15T14:15:27.301Z</time>
      </trkpt>
      <trkpt lat="63.31511" lon="8.60568">
        <ele>10.894116</ele>
        <time>2020-07-15T14:15:34.059Z</time>
      </trkpt>
      <trkpt lat="63.31516" lon="8.6056">
        <ele>10.787731</ele>
        <time>2020-07-15T14:15:35.062Z</time>
      </trkpt>
      <trkpt lat="63.31742" lon="8.60396">
        <ele>17.412103</ele>
        <time>2020-07-15T14:16:47.766Z</time>
      </trkpt>
      <trkpt lat="63.31822" lon="8.60337">
        <ele>22.020966</ele>
        <time>2020-07-15T14:17:23.113Z</time>
      </trkpt>
      <trkpt lat="63.31826" lon="8.60334">
        <ele>22.223345</ele>
        <time>2020-07-15T14:17:25.928Z</time>
      </trkpt>
      <trkpt lat="63.31861" lon="8.60309">
        <ele>24.240581</ele>
        <time>2020-07-15T14:17:40.010Z</time>
      </trkpt>
      <trkpt lat="63.31869" lon="8.60386">
        <ele>26.185538</ele>
        <time>2020-07-15T14:17:52.905Z</time>
      </trkpt>
      <trkpt lat="63.31871" lon="8.60406">
        <ele>26.694227</ele>
        <time>2020-07-15T14:17:55.125Z</time>
      </trkpt>
      <trkpt lat="63.31917" lon="8.60858">
        <ele>27.952383</ele>
        <time>2020-07-15T14:18:33.870Z</time>
      </trkpt>
      <trkpt lat="63.3193" lon="8.60992">
        <ele>26.732309</ele>
        <time>2020-07-15T14:18:42.861Z</time>
      </trkpt>
      <trkpt lat="63.31933" lon="8.61027">
        <ele>26.413318</ele>
        <time>2020-07-15T14:18:44.997Z</time>
      </trkpt>
      <trkpt lat="63.31951" lon="8.6115">
        <ele>25.264404</ele>
        <time>2020-07-15T14:18:53.205Z</time>
      </trkpt>
      <trkpt lat="63.31998" lon="8.61358">
        <ele>21.824352</ele>
        <time>2020-07-15T14:19:06.434Z</time>
      </trkpt>
      <trkpt lat="63.32031" lon="8.61503">
        <ele>19.085463</ele>
        <time>2020-07-15T14:19:15.549Z</time>
      </trkpt>
      <trkpt lat="63.32047" lon="8.61579">
        <ele>17.938651</ele>
        <time>2020-07-15T14:19:20.395Z</time>
      </trkpt>
      <trkpt lat="63.32058" lon="8.6163">
        <ele>17.844082</ele>
        <time>2020-07-15T14:19:23.721Z</time>
      </trkpt>
      <trkpt lat="63.32075" lon="8.61693">
        <ele>17.72018</ele>
        <time>2020-07-15T14:19:28.275Z</time>
      </trkpt>
      <trkpt lat="63.32102" lon="8.61748">
        <ele>17.585566</ele>
        <time>2020-07-15T14:19:33.546Z</time>
      </trkpt>
      <trkpt lat="63.32209" lon="8.61915">
        <ele>20.190168</ele>
        <time>2020-07-15T14:20:06.993Z</time>
      </trkpt>
      <trkpt lat="63.32307" lon="8.62089">
        <ele>26.925912</ele>
        <time>2020-07-15T14:20:56.065Z</time>
      </trkpt>
      <trkpt lat="63.32345" lon="8.62207">
        <ele>30.440083</ele>
        <time>2020-07-15T14:21:23.885Z</time>
      </trkpt>
      <trkpt lat="63.32409" lon="8.62537">
        <ele>36.545119</ele>
        <time>2020-07-15T14:22:16.200Z</time>
      </trkpt>
      <trkpt lat="63.32439" lon="8.62888">
        <ele>35.415457</ele>
        <time>2020-07-15T14:22:38.930Z</time>
      </trkpt>
      <trkpt lat="63.32454" lon="8.62998">
        <ele>33.963078</ele>
        <time>2020-07-15T14:22:45.334Z</time>
      </trkpt>
      <trkpt lat="63.32615" lon="8.63768">
        <ele>24.731619</ele>
        <time>2020-07-15T14:23:36.656Z</time>
      </trkpt>
      <trkpt lat="63.32638" lon="8.63878">
        <ele>24.000534</ele>
        <time>2020-07-15T14:23:46.441Z</time>
      </trkpt>
      <trkpt lat="63.32646" lon="8.63915">
        <ele>23.757022</ele>
        <time>2020-07-15T14:23:50.077Z</time>
      </trkpt>
      <trkpt lat="63.32667" lon="8.64042">
        <ele>23.880737</ele>
        <time>2020-07-15T14:24:02.115Z</time>
      </trkpt>
      <trkpt lat="63.32673" lon="8.64084">
        <ele>23.965393</ele>
        <time>2020-07-15T14:24:06.523Z</time>
      </trkpt>
      <trkpt lat="63.3268" lon="8.64136">
        <ele>24.067432</ele>
        <time>2020-07-15T14:24:11.623Z</time>
      </trkpt>
      <trkpt lat="63.32768" lon="8.65077">
        <ele>25.099604</ele>
        <time>2020-07-15T14:25:29.116Z</time>
      </trkpt>
      <trkpt lat="63.3277" lon="8.65092">
        <ele>25.124406</ele>
        <time>2020-07-15T14:25:30.211Z</time>
      </trkpt>
      <trkpt lat="63.32776" lon="8.65162">
        <ele>26.223755</ele>
        <time>2020-07-15T14:25:37.326Z</time>
      </trkpt>
      <trkpt lat="63.32781" lon="8.6552">
        <ele>32.491055</ele>
        <time>2020-07-15T14:26:29.160Z</time>
      </trkpt>
      <trkpt lat="63.32783" lon="8.65558">
        <ele>33.386677</ele>
        <time>2020-07-15T14:26:35.560Z</time>
      </trkpt>
      <trkpt lat="63.32785" lon="8.65571">
        <ele>33.71853</ele>
        <time>2020-07-15T14:26:38.697Z</time>
      </trkpt>
      <trkpt lat="63.32852" lon="8.66006">
        <ele>42.576265</ele>
        <time>2020-07-15T14:27:50.369Z</time>
      </trkpt>
      <trkpt lat="63.3287" lon="8.66152">
        <ele>43.850409</ele>
        <time>2020-07-15T14:28:05.471Z</time>
      </trkpt>
      <trkpt lat="63.32901" lon="8.66497">
        <ele>42.520757</ele>
        <time>2020-07-15T14:28:29.176Z</time>
      </trkpt>
      <trkpt lat="63.32929" lon="8.66677">
        <ele>40.540088</ele>
        <time>2020-07-15T14:28:40.187Z</time>
      </trkpt>
      <trkpt lat="63.32935" lon="8.66711">
        <ele>40.022631</ele>
        <time>2020-07-15T14:28:42.352Z</time>
      </trkpt>
      <trkpt lat="63.32947" lon="8.66765">
        <ele>39.172692</ele>
        <time>2020-07-15T14:28:45.780Z</time>
      </trkpt>
      <trkpt lat="63.32974" lon="8.67">
        <ele>35.77665</ele>
        <time>2020-07-15T14:28:59.607Z</time>
      </trkpt>
      <trkpt lat="63.3299" lon="8.67095">
        <ele>35.746974</ele>
        <time>2020-07-15T14:29:06.708Z</time>
      </trkpt>
      <trkpt lat="63.33008" lon="8.67167">
        <ele>36.3725</ele>
        <time>2020-07-15T14:29:15.062Z</time>
      </trkpt>
      <trkpt lat="63.33048" lon="8.67259">
        <ele>37.337205</ele>
        <time>2020-07-15T14:29:31.234Z</time>
      </trkpt>
      <trkpt lat="63.33068" lon="8.67305">
        <ele>37.820901</ele>
        <time>2020-07-15T14:29:37.777Z</time>
      </trkpt>
      <trkpt lat="63.33074" lon="8.6732">
        <ele>37.966086</ele>
        <time>2020-07-15T14:29:42.138Z</time>
      </trkpt>
      <trkpt lat="63.33093" lon="8.67388">
        <ele>38.136511</ele>
        <time>2020-07-15T14:29:52.128Z</time>
      </trkpt>
      <trkpt lat="63.33108" lon="8.67498">
        <ele>37.713079</ele>
        <time>2020-07-15T14:30:05.198Z</time>
      </trkpt>
      <trkpt lat="63.33161" lon="8.68237">
        <ele>27.979981</ele>
        <time>2020-07-15T14:30:49.305Z</time>
      </trkpt>
      <trkpt lat="63.33195" lon="8.6863">
        <ele>16.481429</ele>
        <time>2020-07-15T14:31:09.647Z</time>
      </trkpt>
      <trkpt lat="63.33205" lon="8.68694">
        <ele>14.514112</ele>
        <time>2020-07-15T14:31:13.130Z</time>
      </trkpt>
      <trkpt lat="63.33276" lon="8.68989">
        <ele>6.72846</ele>
        <time>2020-07-15T14:31:31.052Z</time>
      </trkpt>
      <trkpt lat="63.3331" lon="8.69157">
        <ele>4.751174</ele>
        <time>2020-07-15T14:31:42.241Z</time>
      </trkpt>
      <trkpt lat="63.33386" lon="8.69409">
        <ele>7.008062</ele>
        <time>2020-07-15T14:32:09.942Z</time>
      </trkpt>
      <trkpt lat="63.33402" lon="8.69429">
        <ele>7.748089</ele>
        <time>2020-07-15T14:32:17.380Z</time>
      </trkpt>
      <trkpt lat="63.33419" lon="8.69434">
        <ele>8.459633</ele>
        <time>2020-07-15T14:32:23.407Z</time>
      </trkpt>
      <trkpt lat="63.3348" lon="8.69391">
        <ele>11.329268</ele>
        <time>2020-07-15T14:32:50.217Z</time>
      </trkpt>
      <trkpt lat="63.33528" lon="8.69382">
        <ele>15.550627</ele>
        <time>2020-07-15T14:33:09.392Z</time>
      </trkpt>
      <trkpt lat="63.3354" lon="8.69378">
        <ele>16.632066</ele>
        <time>2020-07-15T14:33:16.688Z</time>
      </trkpt>
      <trkpt lat="63.33548" lon="8.6937">
        <ele>17.426469</ele>
        <time>2020-07-15T14:33:22.618Z</time>
      </trkpt>
      <trkpt lat="63.33599" lon="8.69271">
        <ele>23.393589</ele>
        <time>2020-07-15T14:33:55.411Z</time>
      </trkpt>
      <trkpt lat="63.33656" lon="8.69206">
        <ele>28.059789</ele>
        <time>2020-07-15T14:34:23.244Z</time>
      </trkpt>
      <trkpt lat="63.33661" lon="8.69203">
        <ele>28.308865</ele>
        <time>2020-07-15T14:34:27.092Z</time>
      </trkpt>
      <trkpt lat="63.33666" lon="8.692">
        <ele>28.578338</ele>
        <time>2020-07-15T14:34:30.389Z</time>
      </trkpt>
      <trkpt lat="63.33708" lon="8.69192">
        <ele>30.713644</ele>
        <time>2020-07-15T14:34:44.893Z</time>
      </trkpt>
      <trkpt lat="63.3379" lon="8.6921">
        <ele>34.806091</ele>
        <time>2020-07-15T14:35:09.556Z</time>
      </trkpt>
      <trkpt lat="63.33859" lon="8.69177">
        <ele>35.543027</ele>
        <time>2020-07-15T14:35:25.804Z</time>
      </trkpt>
      <trkpt lat="63.33865" lon="8.69171">
        <ele>35.513481</ele>
        <time>2020-07-15T14:35:26.952Z</time>
      </trkpt>
      <trkpt lat="63.33869" lon="8.69166">
        <ele>35.494327</ele>
        <time>2020-07-15T14:35:27.569Z</time>
      </trkpt>
      <trkpt lat="63.33916" lon="8.69057">
        <ele>35.182611</ele>
        <time>2020-07-15T14:35:38.174Z</time>
      </trkpt>
      <trkpt lat="63.33933" lon="8.69028">
        <ele>35.082998</ele>
        <time>2020-07-15T14:35:41.361Z</time>
      </trkpt>
      <trkpt lat="63.33951" lon="8.68992">
        <ele>34.970881</ele>
        <time>2020-07-15T14:35:44.602Z</time>
      </trkpt>
      <trkpt lat="63.33983" lon="8.68918">
        <ele>33.322041</ele>
        <time>2020-07-15T14:35:50.791Z</time>
      </trkpt>
      <trkpt lat="63.33999" lon="8.68873">
        <ele>32.324243</ele>
        <time>2020-07-15T14:35:54.018Z</time>
      </trkpt>
      <trkpt lat="63.34005" lon="8.6885">
        <ele>31.877323</ele>
        <time>2020-07-15T14:35:55.552Z</time>
      </trkpt>
      <trkpt lat="63.34008" lon="8.68836">
        <ele>31.599942</ele>
        <time>2020-07-15T14:35:56.453Z</time>
      </trkpt>
      <trkpt lat="63.34012" lon="8.6882">
        <ele>31.282392</ele>
        <time>2020-07-15T14:35:57.418Z</time>
      </trkpt>
      <trkpt lat="63.34037" lon="8.6876">
        <ele>29.853099</ele>
        <time>2020-07-15T14:36:01.959Z</time>
      </trkpt>
      <trkpt lat="63.34081" lon="8.68693">
        <ele>27.721397</ele>
        <time>2020-07-15T14:36:08.598Z</time>
      </trkpt>
      <trkpt lat="63.34131" lon="8.68679">
        <ele>25.314703</ele>
        <time>2020-07-15T14:36:14.662Z</time>
      </trkpt>
      <trkpt lat="63.34157" lon="8.68691">
        <ele>24.013462</ele>
        <time>2020-07-15T14:36:17.946Z</time>
      </trkpt>
      <trkpt lat="63.34212" lon="8.68765">
        <ele>20.907331</ele>
        <time>2020-07-15T14:36:25.781Z</time>
      </trkpt>
      <trkpt lat="63.34237" lon="8.68781">
        <ele>19.664769</ele>
        <time>2020-07-15T14:36:28.934Z</time>
      </trkpt>
      <trkpt lat="63.34266" lon="8.68778">
        <ele>18.634948</ele>
        <time>2020-07-15T14:36:32.433Z</time>
      </trkpt>
      <trkpt lat="63.34335" lon="8.68741">
        <ele>16.380806</ele>
        <time>2020-07-15T14:36:41.328Z</time>
      </trkpt>
      <trkpt lat="63.34371" lon="8.68748">
        <ele>15.230844</ele>
        <time>2020-07-15T14:36:45.912Z</time>
      </trkpt>
      <trkpt lat="63.34477" lon="8.68885">
        <ele>14.728857</ele>
        <time>2020-07-15T14:37:05.190Z</time>
      </trkpt>
      <trkpt lat="63.34511" lon="8.68919">
        <ele>15.329891</ele>
        <time>2020-07-15T14:37:14.641Z</time>
      </trkpt>
      <trkpt lat="63.34526" lon="8.68924">
        <ele>15.56731</ele>
        <time>2020-07-15T14:37:18.461Z</time>
      </trkpt>
      <trkpt lat="63.34529" lon="8.68923">
        <ele>15.620976</ele>
        <time>2020-07-15T14:37:19.431Z</time>
      </trkpt>
      <trkpt lat="63.34534" lon="8.68921">
        <ele>15.698057</ele>
        <time>2020-07-15T14:37:21.402Z</time>
      </trkpt>
      <trkpt lat="63.34542" lon="8.68915">
        <ele>15.833531</ele>
        <time>2020-07-15T14:37:23.397Z</time>
      </trkpt>
      <trkpt lat="63.34555" lon="8.68901">
        <ele>16.067016</ele>
        <time>2020-07-15T14:37:27.614Z</time>
      </trkpt>
      <trkpt lat="63.34591" lon="8.68859">
        <ele>17.097026</ele>
        <time>2020-07-15T14:37:39.949Z</time>
      </trkpt>
      <trkpt lat="63.3462" lon="8.68834">
        <ele>18.434317</ele>
        <time>2020-07-15T14:37:50.463Z</time>
      </trkpt>
      <trkpt lat="63.34674" lon="8.68831">
        <ele>20.697517</ele>
        <time>2020-07-15T14:38:09.942Z</time>
      </trkpt>
      <trkpt lat="63.34692" lon="8.68814">
        <ele>21.559105</ele>
        <time>2020-07-15T14:38:16.850Z</time>
      </trkpt>
      <trkpt lat="63.34702" lon="8.68765">
        <ele>22.571728</ele>
        <time>2020-07-15T14:38:24.307Z</time>
      </trkpt>
      <trkpt lat="63.34708" lon="8.68631">
        <ele>24.126518</ele>
        <time>2020-07-15T14:38:40.075Z</time>
      </trkpt>
      <trkpt lat="63.34711" lon="8.68617">
        <ele>24.138844</ele>
        <time>2020-07-15T14:38:42.549Z</time>
      </trkpt>
      <trkpt lat="63.34714" lon="8.68609">
        <ele>24.147222</ele>
        <time>2020-07-15T14:38:43.407Z</time>
      </trkpt>
      <trkpt lat="63.34753" lon="8.6857">
        <ele>24.221144</ele>
        <time>2020-07-15T14:38:51.801Z</time>
      </trkpt>
      <trkpt lat="63.34762" lon="8.68556">
        <ele>24.241438</ele>
        <time>2020-07-15T14:38:54.213Z</time>
      </trkpt>
      <trkpt lat="63.34778" lon="8.68531">
        <ele>24.275693</ele>
        <time>2020-07-15T14:38:57.167Z</time>
      </trkpt>
      <trkpt lat="63.34784" lon="8.68521">
        <ele>24.287488</ele>
        <time>2020-07-15T14:38:58.286Z</time>
      </trkpt>
      <trkpt lat="63.34789" lon="8.68513">
        <ele>24.299237</ele>
        <time>2020-07-15T14:38:59.606Z</time>
      </trkpt>
      <trkpt lat="63.34844" lon="8.68424">
        <ele>24.123039</ele>
        <time>2020-07-15T14:39:09.420Z</time>
      </trkpt>
      <trkpt lat="63.34853" lon="8.68415">
        <ele>23.854378</ele>
        <time>2020-07-15T14:39:11.115Z</time>
      </trkpt>
      <trkpt lat="63.34858" lon="8.68413">
        <ele>23.72634</ele>
        <time>2020-07-15T14:39:11.667Z</time>
      </trkpt>
      <trkpt lat="63.34886" lon="8.68417">
        <ele>23.027867</ele>
        <time>2020-07-15T14:39:15.736Z</time>
      </trkpt>
      <trkpt lat="63.34921" lon="8.68453">
        <ele>22.058748</ele>
        <time>2020-07-15T14:39:20.906Z</time>
      </trkpt>
      <trkpt lat="63.34943" lon="8.68461">
        <ele>21.498166</ele>
        <time>2020-07-15T14:39:23.687Z</time>
      </trkpt>
      <trkpt lat="63.35004" lon="8.68418">
        <ele>19.858839</ele>
        <time>2020-07-15T14:39:32.165Z</time>
      </trkpt>
      <trkpt lat="63.35062" lon="8.68395">
        <ele>19.323593</ele>
        <time>2020-07-15T14:39:40.779Z</time>
      </trkpt>
      <trkpt lat="63.35104" lon="8.68367">
        <ele>18.931192</ele>
        <time>2020-07-15T14:39:47.732Z</time>
      </trkpt>
      <trkpt lat="63.35122" lon="8.68369">
        <ele>18.77807</ele>
        <time>2020-07-15T14:39:50.728Z</time>
      </trkpt>
      <trkpt lat="63.35181" lon="8.68408">
        <ele>18.243583</ele>
        <time>2020-07-15T14:40:01.614Z</time>
      </trkpt>
      <trkpt lat="63.35234" lon="8.68405">
        <ele>18.360465</ele>
        <time>2020-07-15T14:40:11.941Z</time>
      </trkpt>
      <trkpt lat="63.35251" lon="8.684">
        <ele>18.398335</ele>
        <time>2020-07-15T14:40:15.198Z</time>
      </trkpt>
      <trkpt lat="63.35264" lon="8.68397">
        <ele>18.427179</ele>
        <time>2020-07-15T14:40:17.935Z</time>
      </trkpt>
      <trkpt lat="63.35295" lon="8.684">
        <ele>18.49766</ele>
        <time>2020-07-15T14:40:23.963Z</time>
      </trkpt>
      <trkpt lat="63.35361" lon="8.68437">
        <ele>18.612887</ele>
        <time>2020-07-15T14:40:36.226Z</time>
      </trkpt>
      <trkpt lat="63.35407" lon="8.68461">
        <ele>18.320181</ele>
        <time>2020-07-15T14:40:44.385Z</time>
      </trkpt>
      <trkpt lat="63.35487" lon="8.68505">
        <ele>17.811729</ele>
        <time>2020-07-15T14:40:57.818Z</time>
      </trkpt>
      <trkpt lat="63.3551" lon="8.68519">
        <ele>17.664535</ele>
        <time>2020-07-15T14:41:01.677Z</time>
      </trkpt>
      <trkpt lat="63.35539" lon="8.68535">
        <ele>17.295406</ele>
        <time>2020-07-15T14:41:06.507Z</time>
      </trkpt>
      <trkpt lat="63.35573" lon="8.68553">
        <ele>16.282033</ele>
        <time>2020-07-15T14:41:11.157Z</time>
      </trkpt>
      <trkpt lat="63.3559" lon="8.68561">
        <ele>15.762669</ele>
        <time>2020-07-15T14:41:13.831Z</time>
      </trkpt>
      <trkpt lat="63.35699" lon="8.68618">
        <ele>12.454462</ele>
        <time>2020-07-15T14:41:28.292Z</time>
      </trkpt>
      <trkpt lat="63.35701" lon="8.68624">
        <ele>12.352572</ele>
        <time>2020-07-15T14:41:28.710Z</time>
      </trkpt>
      <trkpt lat="63.35702" lon="8.68629">
        <ele>12.279875</ele>
        <time>2020-07-15T14:41:28.960Z</time>
      </trkpt>
      <trkpt lat="63.35705" lon="8.68763">
        <ele>9.697522</ele>
        <time>2020-07-15T14:41:36.534Z</time>
      </trkpt>
      <trkpt lat="63.35713" lon="8.68843">
        <ele>8.094361</ele>
        <time>2020-07-15T14:41:40.949Z</time>
      </trkpt>
      <trkpt lat="63.35771" lon="8.69104">
        <ele>3.370368</ele>
        <time>2020-07-15T14:41:57.303Z</time>
      </trkpt>
      <trkpt lat="63.35776" lon="8.69125">
        <ele>3.145354</ele>
        <time>2020-07-15T14:41:58.671Z</time>
      </trkpt>
      <trkpt lat="63.35779" lon="8.69145">
        <ele>2.935132</ele>
        <time>2020-07-15T14:42:00.048Z</time>
      </trkpt>
      <trkpt lat="63.35802" lon="8.69423">
        <ele>0.425372</ele>
        <time>2020-07-15T14:42:18.908Z</time>
      </trkpt>
      <trkpt lat="63.3582" lon="8.69503">
        <ele>0.324222</ele>
        <time>2020-07-15T14:42:25.792Z</time>
      </trkpt>
      <trkpt lat="63.35855" lon="8.69593">
        <ele>0.189353</ele>
        <time>2020-07-15T14:42:35.292Z</time>
      </trkpt>
      <trkpt lat="63.35868" lon="8.69623">
        <ele>0.140905</ele>
        <time>2020-07-15T14:42:38.703Z</time>
      </trkpt>
      <trkpt lat="63.35873" lon="8.69637">
        <ele>0.121641</ele>
        <time>2020-07-15T14:42:40.064Z</time>
      </trkpt>
      <trkpt lat="63.36005" lon="8.69932">
        <ele>0.851746</ele>
        <time>2020-07-15T14:43:13.511Z</time>
      </trkpt>
      <trkpt lat="63.36117" lon="8.70185">
        <ele>4.248566</ele>
        <time>2020-07-15T14:43:53.649Z</time>
      </trkpt>
      <trkpt lat="63.36124" lon="8.70202">
        <ele>4.527229</ele>
        <time>2020-07-15T14:43:58.896Z</time>
      </trkpt>
      <trkpt lat="63.36151" lon="8.70278">
        <ele>5.676852</ele>
        <time>2020-07-15T14:44:10.511Z</time>
      </trkpt>
      <trkpt lat="63.36172" lon="8.70403">
        <ele>6.843952</ele>
        <time>2020-07-15T14:44:25.177Z</time>
      </trkpt>
      <trkpt lat="63.36175" lon="8.70414">
        <ele>6.940996</ele>
        <time>2020-07-15T14:44:28.793Z</time>
      </trkpt>
      <trkpt lat="63.36177" lon="8.70417">
        <ele>6.991106</ele>
        <time>2020-07-15T14:44:29.119Z</time>
      </trkpt>
      <trkpt lat="63.36191" lon="8.70423">
        <ele>7.257883</ele>
        <time>2020-07-15T14:44:31.617Z</time>
      </trkpt>
      <trkpt lat="63.36223" lon="8.70411">
        <ele>7.840855</ele>
        <time>2020-07-15T14:44:40.265Z</time>
      </trkpt>
      <trkpt lat="63.36263" lon="8.70374">
        <ele>8.640351</ele>
        <time>2020-07-15T14:44:49.183Z</time>
      </trkpt>
      <trkpt lat="63.36293" lon="8.70318">
        <ele>9.246772</ele>
        <time>2020-07-15T14:44:56.826Z</time>
      </trkpt>
      <trkpt lat="63.36392" lon="8.70101">
        <ele>10.191532</ele>
        <time>2020-07-15T14:45:23.397Z</time>
      </trkpt>
      <trkpt lat="63.36417" lon="8.70067">
        <ele>10.388373</ele>
        <time>2020-07-15T14:45:30.286Z</time>
      </trkpt>
      <trkpt lat="63.36455" lon="8.70056">
        <ele>10.167542</ele>
        <time>2020-07-15T14:45:39.617Z</time>
      </trkpt>
      <trkpt lat="63.36512" lon="8.70116">
        <ele>9.763237</ele>
        <time>2020-07-15T14:45:49.487Z</time>
      </trkpt>
      <trkpt lat="63.36533" lon="8.70117">
        <ele>9.632208</ele>
        <time>2020-07-15T14:45:53.962Z</time>
      </trkpt>
      <trkpt lat="63.36561" lon="8.70082">
        <ele>9.425745</ele>
        <time>2020-07-15T14:45:58.622Z</time>
      </trkpt>
      <trkpt lat="63.36585" lon="8.70004">
        <ele>8.781669</ele>
        <time>2020-07-15T14:46:04.621Z</time>
      </trkpt>
      <trkpt lat="63.36588" lon="8.7">
        <ele>8.667214</ele>
        <time>2020-07-15T14:46:05.022Z</time>
      </trkpt>
      <trkpt lat="63.3659" lon="8.69982">
        <ele>8.412964</ele>
        <time>2020-07-15T14:46:05.977Z</time>
      </trkpt>
      <trkpt lat="63.36644" lon="8.69792">
        <ele>5.253906</ele>
        <time>2020-07-15T14:46:19.056Z</time>
      </trkpt>
      <trkpt lat="63.367" lon="8.69696">
        <ele>3.875122</ele>
        <time>2020-07-15T14:46:28.055Z</time>
      </trkpt>
      <trkpt lat="63.36713" lon="8.69675">
        <ele>4.082557</ele>
        <time>2020-07-15T14:46:30.340Z</time>
      </trkpt>
      <trkpt lat="63.36727" lon="8.69648">
        <ele>4.328485</ele>
        <time>2020-07-15T14:46:33.229Z</time>
      </trkpt>
      <trkpt lat="63.36749" lon="8.69585">
        <ele>4.797893</ele>
        <time>2020-07-15T14:46:40.913Z</time>
      </trkpt>
      <trkpt lat="63.36751" lon="8.69474">
        <ele>5.443172</ele>
        <time>2020-07-15T14:46:52.395Z</time>
      </trkpt>
      <trkpt lat="63.36756" lon="8.69436">
        <ele>5.674546</ele>
        <time>2020-07-15T14:46:57.935Z</time>
      </trkpt>
      <trkpt lat="63.36772" lon="8.69402">
        <ele>5.959738</ele>
        <time>2020-07-15T14:47:05.949Z</time>
      </trkpt>
      <trkpt lat="63.36793" lon="8.69382">
        <ele>7.977772</ele>
        <time>2020-07-15T14:47:13.742Z</time>
      </trkpt>
      <trkpt lat="63.36805" lon="8.69376">
        <ele>9.150953</ele>
        <time>2020-07-15T14:47:18.964Z</time>
      </trkpt>
      <trkpt lat="63.36823" lon="8.6937">
        <ele>10.856905</ele>
        <time>2020-07-15T14:47:26.210Z</time>
      </trkpt>
      <trkpt lat="63.36898" lon="8.69371">
        <ele>17.885187</ele>
        <time>2020-07-15T14:48:01.998Z</time>
      </trkpt>
      <trkpt lat="63.36906" lon="8.69371">
        <ele>18.607822</ele>
        <time>2020-07-15T14:48:06.361Z</time>
      </trkpt>
      <trkpt lat="63.36912" lon="8.69371">
        <ele>19.227129</ele>
        <time>2020-07-15T14:48:09.234Z</time>
      </trkpt>
      <trkpt lat="63.36951" lon="8.69347">
        <ele>23.042696</ele>
        <time>2020-07-15T14:48:31.395Z</time>
      </trkpt>
      <trkpt lat="63.36959" lon="8.69335">
        <ele>24.58503</ele>
        <time>2020-07-15T14:48:37.379Z</time>
      </trkpt>
      <trkpt lat="63.36982" lon="8.69301">
        <ele>28.907855</ele>
        <time>2020-07-15T14:48:58.326Z</time>
      </trkpt>
      <trkpt lat="63.37018" lon="8.69281">
        <ele>34.720911</ele>
        <time>2020-07-15T14:49:24.156Z</time>
      </trkpt>
      <trkpt lat="63.37028" lon="8.69281">
        <ele>36.321509</ele>
        <time>2020-07-15T14:49:30.378Z</time>
      </trkpt>
      <trkpt lat="63.37032" lon="8.69282">
        <ele>36.886929</ele>
        <time>2020-07-15T14:49:33.777Z</time>
      </trkpt>
      <trkpt lat="63.37066" lon="8.69299">
        <ele>42.368005</ele>
        <time>2020-07-15T14:49:58.760Z</time>
      </trkpt>
      <trkpt lat="63.37091" lon="8.69323">
        <ele>46.717261</ele>
        <time>2020-07-15T14:50:15.963Z</time>
      </trkpt>
      <trkpt lat="63.37104" lon="8.69341">
        <ele>49.109937</ele>
        <time>2020-07-15T14:50:28.399Z</time>
      </trkpt>
      <trkpt lat="63.37107" lon="8.69345">
        <ele>49.62773</ele>
        <time>2020-07-15T14:50:31.441Z</time>
      </trkpt>
      <trkpt lat="63.37211" lon="8.6954">
        <ele>66.22083</ele>
        <time>2020-07-15T14:51:55.814Z</time>
      </trkpt>
      <trkpt lat="63.37282" lon="8.69686">
        <ele>74.400761</ele>
        <time>2020-07-15T14:52:34.757Z</time>
      </trkpt>
      <trkpt lat="63.37318" lon="8.69761">
        <ele>76.474097</ele>
        <time>2020-07-15T14:52:49.158Z</time>
      </trkpt>
      <trkpt lat="63.37353" lon="8.69824">
        <ele>78.355085</ele>
        <time>2020-07-15T14:53:00.881Z</time>
      </trkpt>
      <trkpt lat="63.37364" lon="8.69841">
        <ele>78.93558</ele>
        <time>2020-07-15T14:53:04.699Z</time>
      </trkpt>
      <trkpt lat="63.37371" lon="8.69848">
        <ele>79.251045</ele>
        <time>2020-07-15T14:53:06.630Z</time>
      </trkpt>
      <trkpt lat="63.37413" lon="8.69874">
        <ele>80.982935</ele>
        <time>2020-07-15T14:53:18.012Z</time>
      </trkpt>
      <trkpt lat="63.3747" lon="8.69864">
        <ele>83.072375</ele>
        <time>2020-07-15T14:53:33.058Z</time>
      </trkpt>
      <trkpt lat="63.37485" lon="8.69856">
        <ele>83.667984</ele>
        <time>2020-07-15T14:53:37.752Z</time>
      </trkpt>
      <trkpt lat="63.37523" lon="8.69832">
        <ele>85.109936</ele>
        <time>2020-07-15T14:53:49.731Z</time>
      </trkpt>
      <trkpt lat="63.37581" lon="8.69811">
        <ele>87.514368</ele>
        <time>2020-07-15T14:54:09.585Z</time>
      </trkpt>
      <trkpt lat="63.37616" lon="8.69815">
        <ele>89.355426</ele>
        <time>2020-07-15T14:54:22.196Z</time>
      </trkpt>
      <trkpt lat="63.3778" lon="8.69921">
        <ele>97.813025</ele>
        <time>2020-07-15T14:55:21.982Z</time>
      </trkpt>
      <trkpt lat="63.37844" lon="8.69928">
        <ele>100.297657</ele>
        <time>2020-07-15T14:55:42.138Z</time>
      </trkpt>
      <trkpt lat="63.37865" lon="8.69922">
        <ele>101.117217</ele>
        <time>2020-07-15T14:55:48.639Z</time>
      </trkpt>
      <trkpt lat="63.37891" lon="8.69913">
        <ele>102.122324</ele>
        <time>2020-07-15T14:55:56.039Z</time>
      </trkpt>
      <trkpt lat="63.38006" lon="8.69876">
        <ele>103.265819</ele>
        <time>2020-07-15T14:56:23.573Z</time>
      </trkpt>
      <trkpt lat="63.38069" lon="8.69872">
        <ele>103.284579</ele>
        <time>2020-07-15T14:56:33.779Z</time>
      </trkpt>
      <trkpt lat="63.38363" lon="8.69874">
        <ele>92.920828</ele>
        <time>2020-07-15T14:57:11.759Z</time>
      </trkpt>
      <trkpt lat="63.38534" lon="8.69876">
        <ele>82.499166</ele>
        <time>2020-07-15T14:57:31.449Z</time>
      </trkpt>
      <trkpt lat="63.38602" lon="8.6987">
        <ele>77.680975</ele>
        <time>2020-07-15T14:57:39.204Z</time>
      </trkpt>
      <trkpt lat="63.38662" lon="8.6984">
        <ele>73.932456</ele>
        <time>2020-07-15T14:57:46.220Z</time>
      </trkpt>
      <trkpt lat="63.38713" lon="8.69778">
        <ele>71.172166</ele>
        <time>2020-07-15T14:57:53.048Z</time>
      </trkpt>
      <trkpt lat="63.38756" lon="8.69683">
        <ele>68.339541</ele>
        <time>2020-07-15T14:58:00.551Z</time>
      </trkpt>
      <trkpt lat="63.38766" lon="8.69652">
        <ele>67.536277</ele>
        <time>2020-07-15T14:58:02.651Z</time>
      </trkpt>
      <trkpt lat="63.38782" lon="8.69598">
        <ele>66.707163</ele>
        <time>2020-07-15T14:58:06.742Z</time>
      </trkpt>
      <trkpt lat="63.3885" lon="8.69367">
        <ele>67.6959</ele>
        <time>2020-07-15T14:58:29.822Z</time>
      </trkpt>
      <trkpt lat="63.38876" lon="8.69291">
        <ele>68.042396</ele>
        <time>2020-07-15T14:58:42.782Z</time>
      </trkpt>
      <trkpt lat="63.38917" lon="8.69215">
        <ele>70.090406</ele>
        <time>2020-07-15T14:58:59.650Z</time>
      </trkpt>
      <trkpt lat="63.3897" lon="8.69155">
        <ele>72.500683</ele>
        <time>2020-07-15T14:59:19.039Z</time>
      </trkpt>
      <trkpt lat="63.39075" lon="8.69095">
        <ele>76.215158</ele>
        <time>2020-07-15T14:59:52.254Z</time>
      </trkpt>
      <trkpt lat="63.39155" lon="8.6908">
        <ele>78.004616</ele>
        <time>2020-07-15T15:00:12.707Z</time>
      </trkpt>
      <trkpt lat="63.39247" lon="8.69096">
        <ele>79.130159</ele>
        <time>2020-07-15T15:00:31.790Z</time>
      </trkpt>
      <trkpt lat="63.39286" lon="8.69121">
        <ele>78.804686</ele>
        <time>2020-07-15T15:00:39.131Z</time>
      </trkpt>
      <trkpt lat="63.39321" lon="8.69161">
        <ele>78.492089</ele>
        <time>2020-07-15T15:00:45.835Z</time>
      </trkpt>
      <trkpt lat="63.39334" lon="8.69181">
        <ele>78.367243</ele>
        <time>2020-07-15T15:00:47.960Z</time>
      </trkpt>
      <trkpt lat="63.39338" lon="8.69187">
        <ele>78.33116</ele>
        <time>2020-07-15T15:00:48.678Z</time>
      </trkpt>
      <trkpt lat="63.39346" lon="8.69203">
        <ele>78.243609</ele>
        <time>2020-07-15T15:00:50.324Z</time>
      </trkpt>
      <trkpt lat="63.39377" lon="8.69278">
        <ele>77.660087</ele>
        <time>2020-07-15T15:00:56.599Z</time>
      </trkpt>
      <trkpt lat="63.39413" lon="8.69397">
        <ele>75.439793</ele>
        <time>2020-07-15T15:01:05.086Z</time>
      </trkpt>
      <trkpt lat="63.39416" lon="8.69406">
        <ele>75.270088</ele>
        <time>2020-07-15T15:01:05.726Z</time>
      </trkpt>
      <trkpt lat="63.39418" lon="8.69418">
        <ele>75.06102</ele>
        <time>2020-07-15T15:01:06.412Z</time>
      </trkpt>
      <trkpt lat="63.39574" lon="8.69952">
        <ele>65.073473</ele>
        <time>2020-07-15T15:01:42.660Z</time>
      </trkpt>
      <trkpt lat="63.39614" lon="8.70047">
        <ele>64.203277</ele>
        <time>2020-07-15T15:01:50.956Z</time>
      </trkpt>
      <trkpt lat="63.3973" lon="8.70267">
        <ele>62.566526</ele>
        <time>2020-07-15T15:02:15.037Z</time>
      </trkpt>
      <trkpt lat="63.39745" lon="8.70297">
        <ele>62.5898</ele>
        <time>2020-07-15T15:02:18.870Z</time>
      </trkpt>
      <trkpt lat="63.39764" lon="8.70339">
        <ele>62.621421</ele>
        <time>2020-07-15T15:02:23.781Z</time>
      </trkpt>
      <trkpt lat="63.3978" lon="8.70375">
        <ele>62.648078</ele>
        <time>2020-07-15T15:02:27.907Z</time>
      </trkpt>
      <trkpt lat="63.39806" lon="8.70432">
        <ele>62.691091</ele>
        <time>2020-07-15T15:02:34.902Z</time>
      </trkpt>
      <trkpt lat="63.39819" lon="8.70456">
        <ele>62.710443</ele>
        <time>2020-07-15T15:02:38.353Z</time>
      </trkpt>
      <trkpt lat="63.39921" lon="8.70626">
        <ele>63.615539</ele>
        <time>2020-07-15T15:03:03.935Z</time>
      </trkpt>
      <trkpt lat="63.40032" lon="8.70798">
        <ele>64.82996</ele>
        <time>2020-07-15T15:03:32.379Z</time>
      </trkpt>
      <trkpt lat="63.40036" lon="8.70805">
        <ele>64.882928</ele>
        <time>2020-07-15T15:03:33.552Z</time>
      </trkpt>
      <trkpt lat="63.40093" lon="8.70889">
        <ele>65.556938</ele>
        <time>2020-07-15T15:03:47.654Z</time>
      </trkpt>
      <trkpt lat="63.40157" lon="8.70969">
        <ele>66.257399</ele>
        <time>2020-07-15T15:04:03.239Z</time>
      </trkpt>
      <trkpt lat="63.4018" lon="8.70994">
        <ele>66.490343</ele>
        <time>2020-07-15T15:04:08.756Z</time>
      </trkpt>
      <trkpt lat="63.40265" lon="8.71087">
        <ele>67.343595</ele>
        <time>2020-07-15T15:04:28.839Z</time>
      </trkpt>
      <trkpt lat="63.40393" lon="8.71225">
        <ele>67.151994</ele>
        <time>2020-07-15T15:04:55.794Z</time>
      </trkpt>
      <trkpt lat="63.40444" lon="8.71279">
        <ele>66.936215</ele>
        <time>2020-07-15T15:05:03.965Z</time>
      </trkpt>
      <trkpt lat="63.4049" lon="8.71317">
        <ele>66.017471</ele>
        <time>2020-07-15T15:05:11.212Z</time>
      </trkpt>
      <trkpt lat="63.405" lon="8.71321">
        <ele>65.800712</ele>
        <time>2020-07-15T15:05:12.680Z</time>
      </trkpt>
      <trkpt lat="63.40498" lon="8.71329">
        <ele>65.703361</ele>
        <time>2020-07-15T15:05:13.215Z</time>
      </trkpt>
      <trkpt lat="63.40533" lon="8.7157">
        <ele>63.213833</ele>
        <time>2020-07-15T15:05:29.520Z</time>
      </trkpt>
      <trkpt lat="63.40602" lon="8.71876">
        <ele>59.755372</ele>
        <time>2020-07-15T15:05:52.226Z</time>
      </trkpt>
      <trkpt lat="63.40616" lon="8.71963">
        <ele>58.743306</ele>
        <time>2020-07-15T15:05:58.170Z</time>
      </trkpt>
      <trkpt lat="63.40617" lon="8.71976">
        <ele>58.463021</ele>
        <time>2020-07-15T15:05:59.047Z</time>
      </trkpt>
      <trkpt lat="63.40618" lon="8.71982">
        <ele>58.319403</ele>
        <time>2020-07-15T15:05:59.489Z</time>
      </trkpt>
      <trkpt lat="63.40621" lon="8.7201">
        <ele>57.687778</ele>
        <time>2020-07-15T15:06:01.366Z</time>
      </trkpt>
      <trkpt lat="63.40622" lon="8.72029">
        <ele>57.277755</ele>
        <time>2020-07-15T15:06:02.606Z</time>
      </trkpt>
      <trkpt lat="63.40623" lon="8.72029">
        <ele>57.203362</ele>
        <time>2020-07-15T15:06:02.837Z</time>
      </trkpt>
      <trkpt lat="63.40714" lon="8.7231">
        <ele>49.130392</ele>
        <time>2020-07-15T15:06:28.605Z</time>
      </trkpt>
      <trkpt lat="63.40732" lon="8.72312">
        <ele>47.39832</ele>
        <time>2020-07-15T15:06:31.401Z</time>
      </trkpt>
      <trkpt lat="63.40753" lon="8.72299">
        <ele>45.220357</ele>
        <time>2020-07-15T15:06:34.765Z</time>
      </trkpt>
      <trkpt lat="63.40772" lon="8.72304">
        <ele>43.391331</ele>
        <time>2020-07-15T15:06:37.790Z</time>
      </trkpt>
      <trkpt lat="63.40778" lon="8.72313">
        <ele>42.670589</ele>
        <time>2020-07-15T15:06:38.806Z</time>
      </trkpt>
      <trkpt lat="63.4079" lon="8.72324">
        <ele>41.385818</ele>
        <time>2020-07-15T15:06:40.693Z</time>
      </trkpt>
      <trkpt lat="63.40823" lon="8.72375">
        <ele>37.463532</ele>
        <time>2020-07-15T15:06:46.616Z</time>
      </trkpt>
      <trkpt lat="63.40847" lon="8.72433">
        <ele>33.976525</ele>
        <time>2020-07-15T15:06:51.828Z</time>
      </trkpt>
      <trkpt lat="63.40895" lon="8.72445">
        <ele>29.085776</ele>
        <time>2020-07-15T15:06:59.049Z</time>
      </trkpt>
      <trkpt lat="63.40898" lon="8.72446">
        <ele>28.769065</ele>
        <time>2020-07-15T15:06:59.494Z</time>
      </trkpt>
      <trkpt lat="63.40905" lon="8.72477">
        <ele>27.206119</ele>
        <time>2020-07-15T15:07:01.675Z</time>
      </trkpt>
      <trkpt lat="63.40925" lon="8.72622">
        <ele>20.327183</ele>
        <time>2020-07-15T15:07:11.822Z</time>
      </trkpt>
      <trkpt lat="63.40948" lon="8.72706">
        <ele>15.861015</ele>
        <time>2020-07-15T15:07:18.549Z</time>
      </trkpt>
      <trkpt lat="63.4096" lon="8.72734">
        <ele>14.103767</ele>
        <time>2020-07-15T15:07:21.171Z</time>
      </trkpt>
      <trkpt lat="63.40969" lon="8.72731">
        <ele>13.614226</ele>
        <time>2020-07-15T15:07:22.182Z</time>
      </trkpt>
      <trkpt lat="63.41076" lon="8.72662">
        <ele>7.327535</ele>
        <time>2020-07-15T15:07:36.005Z</time>
      </trkpt>
      <trkpt lat="63.41086" lon="8.7266">
        <ele>6.773038</ele>
        <time>2020-07-15T15:07:37.213Z</time>
      </trkpt>
      <trkpt lat="63.41088" lon="8.72663">
        <ele>6.648742</ele>
        <time>2020-07-15T15:07:37.471Z</time>
      </trkpt>
      <trkpt lat="63.41108" lon="8.7268">
        <ele>5.405521</ele>
        <time>2020-07-15T15:07:40.405Z</time>
      </trkpt>
      <trkpt lat="63.41114" lon="8.7268">
        <ele>5.101083</ele>
        <time>2020-07-15T15:07:41.087Z</time>
      </trkpt>
      <trkpt lat="63.41114" lon="8.72695">
        <ele>4.73268</ele>
        <time>2020-07-15T15:07:41.901Z</time>
      </trkpt>
      <trkpt lat="63.41112" lon="8.72742">
        <ele>3.920742</ele>
        <time>2020-07-15T15:07:45.059Z</time>
      </trkpt>
      <trkpt lat="63.41111" lon="8.72754">
        <ele>3.853283</ele>
        <time>2020-07-15T15:07:45.787Z</time>
      </trkpt>
      <trkpt lat="63.41108" lon="8.72774">
        <ele>3.732934</ele>
        <time>2020-07-15T15:07:46.997Z</time>
      </trkpt>
      <trkpt lat="63.41093" lon="8.72879">
        <ele>3.129032</ele>
        <time>2020-07-15T15:07:54.040Z</time>
      </trkpt>
      <trkpt lat="63.41098" lon="8.72927">
        <ele>2.861305</ele>
        <time>2020-07-15T15:07:57.032Z</time>
      </trkpt>
      <trkpt lat="63.41114" lon="8.72987">
        <ele>2.470793</ele>
        <time>2020-07-15T15:08:02.207Z</time>
      </trkpt>
      <trkpt lat="63.41133" lon="8.73032">
        <ele>2.137561</ele>
        <time>2020-07-15T15:08:07.346Z</time>
      </trkpt>
      <trkpt lat="63.41145" lon="8.73062">
        <ele>1.913509</ele>
        <time>2020-07-15T15:08:10.735Z</time>
      </trkpt>
      <trkpt lat="63.41153" lon="8.7308">
        <ele>1.934606</ele>
        <time>2020-07-15T15:08:13.116Z</time>
      </trkpt>
      <trkpt lat="63.4117" lon="8.73131">
        <ele>3.025291</ele>
        <time>2020-07-15T15:08:18.940Z</time>
      </trkpt>
      <trkpt lat="63.41179" lon="8.73178">
        <ele>3.909662</ele>
        <time>2020-07-15T15:08:24.072Z</time>
      </trkpt>
      <trkpt lat="63.4118" lon="8.73194">
        <ele>4.180299</ele>
        <time>2020-07-15T15:08:25.884Z</time>
      </trkpt>
      <trkpt lat="63.41181" lon="8.73213">
        <ele>4.516601</ele>
        <time>2020-07-15T15:08:28.480Z</time>
      </trkpt>
      <trkpt lat="63.41183" lon="8.73394">
        <ele>7.621817</ele>
        <time>2020-07-15T15:08:55.608Z</time>
      </trkpt>
      <trkpt lat="63.41193" lon="8.73482">
        <ele>9.521441</ele>
        <time>2020-07-15T15:09:10.942Z</time>
      </trkpt>
      <trkpt lat="63.412" lon="8.73525">
        <ele>10.869165</ele>
        <time>2020-07-15T15:09:19.258Z</time>
      </trkpt>
      <trkpt lat="63.4121" lon="8.73583">
        <ele>12.730931</ele>
        <time>2020-07-15T15:09:30.955Z</time>
      </trkpt>
      <trkpt lat="63.41239" lon="8.73762">
        <ele>18.395352</ele>
        <time>2020-07-15T15:10:07.374Z</time>
      </trkpt>
      <trkpt lat="63.41273" lon="8.74011">
        <ele>23.726787</ele>
        <time>2020-07-15T15:10:45.843Z</time>
      </trkpt>
      <trkpt lat="63.41276" lon="8.74021">
        <ele>23.944044</ele>
        <time>2020-07-15T15:10:48.300Z</time>
      </trkpt>
      <trkpt lat="63.41278" lon="8.74026">
        <ele>24.062511</ele>
        <time>2020-07-15T15:10:48.660Z</time>
      </trkpt>
      <trkpt lat="63.41321" lon="8.74072">
        <ele>25.814952</ele>
        <time>2020-07-15T15:11:00.308Z</time>
      </trkpt>
      <trkpt lat="63.4134" lon="8.74092">
        <ele>26.600379</ele>
        <time>2020-07-15T15:11:06.583Z</time>
      </trkpt>
      <trkpt lat="63.41347" lon="8.741">
        <ele>26.904958</ele>
        <time>2020-07-15T15:11:07.818Z</time>
      </trkpt>
      <trkpt lat="63.41369" lon="8.74125">
        <ele>28.092229</ele>
        <time>2020-07-15T15:11:15.208Z</time>
      </trkpt>
      <trkpt lat="63.41384" lon="8.74144">
        <ele>29.176034</ele>
        <time>2020-07-15T15:11:20.061Z</time>
      </trkpt>
      <trkpt lat="63.41401" lon="8.74165">
        <ele>30.34109</ele>
        <time>2020-07-15T15:11:25.575Z</time>
      </trkpt>
      <trkpt lat="63.41431" lon="8.74211">
        <ele>32.559569</ele>
        <time>2020-07-15T15:11:35.084Z</time>
      </trkpt>
      <trkpt lat="63.41437" lon="8.74222">
        <ele>33.038266</ele>
        <time>2020-07-15T15:11:37.562Z</time>
      </trkpt>
      <trkpt lat="63.41445" lon="8.7424">
        <ele>33.735688</ele>
        <time>2020-07-15T15:11:45.087Z</time>
      </trkpt>
      <trkpt lat="63.41467" lon="8.74307">
        <ele>35.988399</ele>
        <time>2020-07-15T15:12:00.229Z</time>
      </trkpt>
      <trkpt lat="63.41504" lon="8.74484">
        <ele>42.790149</ele>
        <time>2020-07-15T15:12:41.485Z</time>
      </trkpt>
      <trkpt lat="63.41511" lon="8.74517">
        <ele>44.310263</ele>
        <time>2020-07-15T15:12:51.556Z</time>
      </trkpt>
      <trkpt lat="63.41512" lon="8.74521">
        <ele>44.507442</ele>
        <time>2020-07-15T15:12:53.609Z</time>
      </trkpt>
      <trkpt lat="63.41545" lon="8.74635">
        <ele>49.999964</ele>
        <time>2020-07-15T15:13:20.996Z</time>
      </trkpt>
      <trkpt lat="63.41605" lon="8.74729">
        <ele>55.588031</ele>
        <time>2020-07-15T15:13:54.003Z</time>
      </trkpt>
      <trkpt lat="63.41629" lon="8.74777">
        <ele>56.87789</ele>
        <time>2020-07-15T15:14:06.700Z</time>
      </trkpt>
      <trkpt lat="63.41762" lon="8.75141">
        <ele>61.749691</ele>
        <time>2020-07-15T15:14:59.679Z</time>
      </trkpt>
      <trkpt lat="63.41782" lon="8.75196">
        <ele>61.637278</ele>
        <time>2020-07-15T15:15:04.644Z</time>
      </trkpt>
      <trkpt lat="63.41815" lon="8.7525">
        <ele>61.495932</ele>
        <time>2020-07-15T15:15:10.214Z</time>
      </trkpt>
      <trkpt lat="63.41882" lon="8.75324">
        <ele>58.419243</ele>
        <time>2020-07-15T15:15:19.597Z</time>
      </trkpt>
      <trkpt lat="63.41904" lon="8.75374">
        <ele>56.575922</ele>
        <time>2020-07-15T15:15:23.361Z</time>
      </trkpt>
      <trkpt lat="63.41919" lon="8.75435">
        <ele>54.768083</ele>
        <time>2020-07-15T15:15:26.918Z</time>
      </trkpt>
      <trkpt lat="63.41923" lon="8.7548">
        <ele>53.581154</ele>
        <time>2020-07-15T15:15:29.230Z</time>
      </trkpt>
      <trkpt lat="63.41918" lon="8.75685">
        <ele>49.460685</ele>
        <time>2020-07-15T15:15:39.754Z</time>
      </trkpt>
      <trkpt lat="63.41925" lon="8.75806">
        <ele>47.695669</ele>
        <time>2020-07-15T15:15:46.567Z</time>
      </trkpt>
      <trkpt lat="63.41932" lon="8.7586">
        <ele>46.891116</ele>
        <time>2020-07-15T15:15:49.728Z</time>
      </trkpt>
      <trkpt lat="63.41935" lon="8.75878">
        <ele>46.620757</ele>
        <time>2020-07-15T15:15:51.150Z</time>
      </trkpt>
      <trkpt lat="63.41991" lon="8.76249">
        <ele>49.058487</ele>
        <time>2020-07-15T15:16:33.054Z</time>
      </trkpt>
      <trkpt lat="63.41997" lon="8.76276">
        <ele>49.451312</ele>
        <time>2020-07-15T15:16:37.772Z</time>
      </trkpt>
      <trkpt lat="63.42" lon="8.7629">
        <ele>49.656929</ele>
        <time>2020-07-15T15:16:40.754Z</time>
      </trkpt>
      <trkpt lat="63.42043" lon="8.76434">
        <ele>53.664351</ele>
        <time>2020-07-15T15:17:09.270Z</time>
      </trkpt>
      <trkpt lat="63.42167" lon="8.76766">
        <ele>63.880026</ele>
        <time>2020-07-15T15:18:26.451Z</time>
      </trkpt>
      <trkpt lat="63.42187" lon="8.7684">
        <ele>64.947975</ele>
        <time>2020-07-15T15:18:38.183Z</time>
      </trkpt>
      <trkpt lat="63.42206" lon="8.76939">
        <ele>66.280982</ele>
        <time>2020-07-15T15:18:48.850Z</time>
      </trkpt>
      <trkpt lat="63.4221" lon="8.76967">
        <ele>66.642072</ele>
        <time>2020-07-15T15:18:52.932Z</time>
      </trkpt>
      <trkpt lat="63.42216" lon="8.77022">
        <ele>66.634149</ele>
        <time>2020-07-15T15:18:56.437Z</time>
      </trkpt>
      <trkpt lat="63.42267" lon="8.77648">
        <ele>46.690301</ele>
        <time>2020-07-15T15:19:28.837Z</time>
      </trkpt>
      <trkpt lat="63.4228" lon="8.77768">
        <ele>42.264442</ele>
        <time>2020-07-15T15:19:34.925Z</time>
      </trkpt>
      <trkpt lat="63.42286" lon="8.77809">
        <ele>40.742481</ele>
        <time>2020-07-15T15:19:37.071Z</time>
      </trkpt>
      <trkpt lat="63.42287" lon="8.77812">
        <ele>40.6304</ele>
        <time>2020-07-15T15:19:37.220Z</time>
      </trkpt>
      <trkpt lat="63.42297" lon="8.7787">
        <ele>38.509462</ele>
        <time>2020-07-15T15:19:40.412Z</time>
      </trkpt>
      <trkpt lat="63.42305" lon="8.77915">
        <ele>36.87594</ele>
        <time>2020-07-15T15:19:42.833Z</time>
      </trkpt>
      <trkpt lat="63.42324" lon="8.78015">
        <ele>33.149896</ele>
        <time>2020-07-15T15:19:48.306Z</time>
      </trkpt>
      <trkpt lat="63.42339" lon="8.78113">
        <ele>29.638344</ele>
        <time>2020-07-15T15:19:53.533Z</time>
      </trkpt>
      <trkpt lat="63.42345" lon="8.78209">
        <ele>26.947518</ele>
        <time>2020-07-15T15:19:58.783Z</time>
      </trkpt>
      <trkpt lat="63.42346" lon="8.78235">
        <ele>26.501962</ele>
        <time>2020-07-15T15:20:00.089Z</time>
      </trkpt>
      <trkpt lat="63.42347" lon="8.78258">
        <ele>26.081389</ele>
        <time>2020-07-15T15:20:01.344Z</time>
      </trkpt>
      <trkpt lat="63.42348" lon="8.78682">
        <ele>20.47997</ele>
        <time>2020-07-15T15:20:25.966Z</time>
      </trkpt>
      <trkpt lat="63.42343" lon="8.78826">
        <ele>20.467508</ele>
        <time>2020-07-15T15:20:38.367Z</time>
      </trkpt>
      <trkpt lat="63.4234" lon="8.78878">
        <ele>20.463033</ele>
        <time>2020-07-15T15:20:44.313Z</time>
      </trkpt>
      <trkpt lat="63.42322" lon="8.79112">
        <ele>21.335796</ele>
        <time>2020-07-15T15:21:10.614Z</time>
      </trkpt>
      <trkpt lat="63.42321" lon="8.79158">
        <ele>21.622345</ele>
        <time>2020-07-15T15:21:15.193Z</time>
      </trkpt>
      <trkpt lat="63.42321" lon="8.79176">
        <ele>21.740908</ele>
        <time>2020-07-15T15:21:18.021Z</time>
      </trkpt>
      <trkpt lat="63.42322" lon="8.79204">
        <ele>21.914588</ele>
        <time>2020-07-15T15:21:20.786Z</time>
      </trkpt>
      <trkpt lat="63.42371" lon="8.79546">
        <ele>23.372876</ele>
        <time>2020-07-15T15:21:51.411Z</time>
      </trkpt>
      <trkpt lat="63.42385" lon="8.79661">
        <ele>23.62251</ele>
        <time>2020-07-15T15:22:00.679Z</time>
      </trkpt>
      <trkpt lat="63.42395" lon="8.79733">
        <ele>23.781886</ele>
        <time>2020-07-15T15:22:07.827Z</time>
      </trkpt>
      <trkpt lat="63.42428" lon="8.79907">
        <ele>25.683981</ele>
        <time>2020-07-15T15:22:27.010Z</time>
      </trkpt>
      <trkpt lat="63.42434" lon="8.79935">
        <ele>26.020197</ele>
        <time>2020-07-15T15:22:30.717Z</time>
      </trkpt>
      <trkpt lat="63.42438" lon="8.79951">
        <ele>26.220604</ele>
        <time>2020-07-15T15:22:33.269Z</time>
      </trkpt>
      <trkpt lat="63.42524" lon="8.80284">
        <ele>30.216663</ele>
        <time>2020-07-15T15:23:21.714Z</time>
      </trkpt>
      <trkpt lat="63.42563" lon="8.80462">
        <ele>32.202404</ele>
        <time>2020-07-15T15:23:42.007Z</time>
      </trkpt>
      <trkpt lat="63.42583" lon="8.8056">
        <ele>31.852612</ele>
        <time>2020-07-15T15:23:51.781Z</time>
      </trkpt>
      <trkpt lat="63.42778" lon="8.81519">
        <ele>28.114283</ele>
        <time>2020-07-15T15:25:04.279Z</time>
      </trkpt>
      <trkpt lat="63.42785" lon="8.81556">
        <ele>27.94919</ele>
        <time>2020-07-15T15:25:07.195Z</time>
      </trkpt>
      <trkpt lat="63.42804" lon="8.8167">
        <ele>28.172632</ele>
        <time>2020-07-15T15:25:16.702Z</time>
      </trkpt>
      <trkpt lat="63.42808" lon="8.81708">
        <ele>28.256131</ele>
        <time>2020-07-15T15:25:19.734Z</time>
      </trkpt>
      <trkpt lat="63.42809" lon="8.81715">
        <ele>28.271452</ele>
        <time>2020-07-15T15:25:20.475Z</time>
      </trkpt>
      <trkpt lat="63.42815" lon="8.81811">
        <ele>28.478007</ele>
        <time>2020-07-15T15:25:29.055Z</time>
      </trkpt>
      <trkpt lat="63.42815" lon="8.81908">
        <ele>28.68586</ele>
        <time>2020-07-15T15:25:38.253Z</time>
      </trkpt>
      <trkpt lat="63.42805" lon="8.8206">
        <ele>30.007259</ele>
        <time>2020-07-15T15:25:53.585Z</time>
      </trkpt>
      <trkpt lat="63.42802" lon="8.82086">
        <ele>30.311129</ele>
        <time>2020-07-15T15:25:56.569Z</time>
      </trkpt>
      <trkpt lat="63.42794" lon="8.82144">
        <ele>30.991034</ele>
        <time>2020-07-15T15:26:03.562Z</time>
      </trkpt>
      <trkpt lat="63.42773" lon="8.82344">
        <ele>33.312762</ele>
        <time>2020-07-15T15:26:29.696Z</time>
      </trkpt>
      <trkpt lat="63.42772" lon="8.82364">
        <ele>33.485574</ele>
        <time>2020-07-15T15:26:32.418Z</time>
      </trkpt>
      <trkpt lat="63.4277" lon="8.82417">
        <ele>33.934925</ele>
        <time>2020-07-15T15:26:39.199Z</time>
      </trkpt>
      <trkpt lat="63.42766" lon="8.82476">
        <ele>34.431128</ele>
        <time>2020-07-15T15:26:46.461Z</time>
      </trkpt>
      <trkpt lat="63.42762" lon="8.82586">
        <ele>35.360315</ele>
        <time>2020-07-15T15:26:58.725Z</time>
      </trkpt>
      <trkpt lat="63.42758" lon="8.82669">
        <ele>36.059189</ele>
        <time>2020-07-15T15:27:07.398Z</time>
      </trkpt>
      <trkpt lat="63.42757" lon="8.8271">
        <ele>36.397117</ele>
        <time>2020-07-15T15:27:11.172Z</time>
      </trkpt>
      <trkpt lat="63.42757" lon="8.82807">
        <ele>35.769294</ele>
        <time>2020-07-15T15:27:19.130Z</time>
      </trkpt>
      <trkpt lat="63.42771" lon="8.82971">
        <ele>33.229108</ele>
        <time>2020-07-15T15:27:29.590Z</time>
      </trkpt>
      <trkpt lat="63.42771" lon="8.83036">
        <ele>32.247462</ele>
        <time>2020-07-15T15:27:32.986Z</time>
      </trkpt>
      <trkpt lat="63.42762" lon="8.83099">
        <ele>31.236126</ele>
        <time>2020-07-15T15:27:36.467Z</time>
      </trkpt>
      <trkpt lat="63.42731" lon="8.83224">
        <ele>27.688453</ele>
        <time>2020-07-15T15:27:43.893Z</time>
      </trkpt>
      <trkpt lat="63.42723" lon="8.83289">
        <ele>25.758997</ele>
        <time>2020-07-15T15:27:47.355Z</time>
      </trkpt>
      <trkpt lat="63.42723" lon="8.83315">
        <ele>25.01391</ele>
        <time>2020-07-15T15:27:48.665Z</time>
      </trkpt>
      <trkpt lat="63.42723" lon="8.83349">
        <ele>24.02441</ele>
        <time>2020-07-15T15:27:50.402Z</time>
      </trkpt>
      <trkpt lat="63.42729" lon="8.83477">
        <ele>20.302969</ele>
        <time>2020-07-15T15:27:57.087Z</time>
      </trkpt>
      <trkpt lat="63.42721" lon="8.83574">
        <ele>18.639375</ele>
        <time>2020-07-15T15:28:02.363Z</time>
      </trkpt>
      <trkpt lat="63.427" lon="8.83641">
        <ele>18.093595</ele>
        <time>2020-07-15T15:28:06.906Z</time>
      </trkpt>
      <trkpt lat="63.42662" lon="8.83692">
        <ele>17.433424</ele>
        <time>2020-07-15T15:28:13.948Z</time>
      </trkpt>
      <trkpt lat="63.42632" lon="8.83713">
        <ele>16.966795</ele>
        <time>2020-07-15T15:28:19.742Z</time>
      </trkpt>
      <trkpt lat="63.42608" lon="8.83732">
        <ele>16.579185</ele>
        <time>2020-07-15T15:28:25.384Z</time>
      </trkpt>
      <trkpt lat="63.42577" lon="8.83757">
        <ele>16.602852</ele>
        <time>2020-07-15T15:28:32.937Z</time>
      </trkpt>
      <trkpt lat="63.42544" lon="8.83812">
        <ele>17.47982</ele>
        <time>2020-07-15T15:28:42.719Z</time>
      </trkpt>
      <trkpt lat="63.42535" lon="8.83841">
        <ele>17.824346</ele>
        <time>2020-07-15T15:28:47.450Z</time>
      </trkpt>
      <trkpt lat="63.42527" lon="8.83875">
        <ele>18.179362</ele>
        <time>2020-07-15T15:28:51.459Z</time>
      </trkpt>
      <trkpt lat="63.4252" lon="8.83968">
        <ele>19.085268</ele>
        <time>2020-07-15T15:29:03.138Z</time>
      </trkpt>
      <trkpt lat="63.42546" lon="8.84179">
        <ele>20.628977</ele>
        <time>2020-07-15T15:29:26.892Z</time>
      </trkpt>
      <trkpt lat="63.42545" lon="8.84291">
        <ele>21.126681</ele>
        <time>2020-07-15T15:29:36.744Z</time>
      </trkpt>
      <trkpt lat="63.42543" lon="8.84384">
        <ele>21.543932</ele>
        <time>2020-07-15T15:29:44.962Z</time>
      </trkpt>
      <trkpt lat="63.42539" lon="8.84498">
        <ele>21.989431</ele>
        <time>2020-07-15T15:29:54.839Z</time>
      </trkpt>
      <trkpt lat="63.42536" lon="8.84592">
        <ele>22.173604</ele>
        <time>2020-07-15T15:30:02.813Z</time>
      </trkpt>
      <trkpt lat="63.42501" lon="8.84911">
        <ele>23.188599</ele>
        <time>2020-07-15T15:30:30.548Z</time>
      </trkpt>
      <trkpt lat="63.42496" lon="8.84952">
        <ele>23.616151</ele>
        <time>2020-07-15T15:30:34.399Z</time>
      </trkpt>
      <trkpt lat="63.42493" lon="8.84976">
        <ele>23.860689</ele>
        <time>2020-07-15T15:30:36.732Z</time>
      </trkpt>
      <trkpt lat="63.42429" lon="8.85527">
        <ele>30.939664</ele>
        <time>2020-07-15T15:31:46.560Z</time>
      </trkpt>
      <trkpt lat="63.42425" lon="8.85593">
        <ele>31.924618</ele>
        <time>2020-07-15T15:31:55.927Z</time>
      </trkpt>
      <trkpt lat="63.42427" lon="8.85691">
        <ele>33.335893</ele>
        <time>2020-07-15T15:32:09.524Z</time>
      </trkpt>
      <trkpt lat="63.42436" lon="8.85774">
        <ele>34.513957</ele>
        <time>2020-07-15T15:32:21.290Z</time>
      </trkpt>
      <trkpt lat="63.42455" lon="8.85872">
        <ele>35.97846</ele>
        <time>2020-07-15T15:32:35.196Z</time>
      </trkpt>
      <trkpt lat="63.42519" lon="8.86054">
        <ele>38.47759</ele>
        <time>2020-07-15T15:33:00.835Z</time>
      </trkpt>
      <trkpt lat="63.42558" lon="8.86198">
        <ele>39.028796</ele>
        <time>2020-07-15T15:33:16.732Z</time>
      </trkpt>
      <trkpt lat="63.42583" lon="8.86367">
        <ele>39.62075</ele>
        <time>2020-07-15T15:33:30.531Z</time>
      </trkpt>
      <trkpt lat="63.42586" lon="8.86426">
        <ele>39.870032</ele>
        <time>2020-07-15T15:33:34.892Z</time>
      </trkpt>
      <trkpt lat="63.42587" lon="8.86445">
        <ele>39.952073</ele>
        <time>2020-07-15T15:33:36.293Z</time>
      </trkpt>
      <trkpt lat="63.42583" lon="8.86531">
        <ele>40.311534</ele>
        <time>2020-07-15T15:33:42.964Z</time>
      </trkpt>
      <trkpt lat="63.42573" lon="8.86592">
        <ele>40.588151</ele>
        <time>2020-07-15T15:33:48.783Z</time>
      </trkpt>
      <trkpt lat="63.42547" lon="8.86665">
        <ele>40.981261</ele>
        <time>2020-07-15T15:33:58.197Z</time>
      </trkpt>
      <trkpt lat="63.42515" lon="8.86713">
        <ele>41.656171</ele>
        <time>2020-07-15T15:34:07.861Z</time>
      </trkpt>
      <trkpt lat="63.42489" lon="8.86733">
        <ele>43.214796</ele>
        <time>2020-07-15T15:34:15.588Z</time>
      </trkpt>
      <trkpt lat="63.42457" lon="8.8674">
        <ele>45.029705</ele>
        <time>2020-07-15T15:34:25.913Z</time>
      </trkpt>
      <trkpt lat="63.42368" lon="8.86708">
        <ele>50.093208</ele>
        <time>2020-07-15T15:35:01.488Z</time>
      </trkpt>
      <trkpt lat="63.42332" lon="8.86726">
        <ele>51.745257</ele>
        <time>2020-07-15T15:35:17.886Z</time>
      </trkpt>
      <trkpt lat="63.42309" lon="8.86756">
        <ele>52.456176</ele>
        <time>2020-07-15T15:35:29.796Z</time>
      </trkpt>
      <trkpt lat="63.42288" lon="8.86806">
        <ele>53.290325</ele>
        <time>2020-07-15T15:35:41.459Z</time>
      </trkpt>
      <trkpt lat="63.42267" lon="8.86882">
        <ele>54.375692</ele>
        <time>2020-07-15T15:35:51.950Z</time>
      </trkpt>
      <trkpt lat="63.42249" lon="8.86968">
        <ele>55.526167</ele>
        <time>2020-07-15T15:35:59.880Z</time>
      </trkpt>
      <trkpt lat="63.42237" lon="8.87061">
        <ele>54.590468</ele>
        <time>2020-07-15T15:36:05.936Z</time>
      </trkpt>
      <trkpt lat="63.42235" lon="8.87086">
        <ele>53.550467</ele>
        <time>2020-07-15T15:36:07.389Z</time>
      </trkpt>
      <trkpt lat="63.42233" lon="8.8712">
        <ele>52.091139</ele>
        <time>2020-07-15T15:36:09.099Z</time>
      </trkpt>
      <trkpt lat="63.42231" lon="8.87225">
        <ele>47.679392</ele>
        <time>2020-07-15T15:36:14.377Z</time>
      </trkpt>
      <trkpt lat="63.42237" lon="8.87323">
        <ele>43.521962</ele>
        <time>2020-07-15T15:36:19.109Z</time>
      </trkpt>
      <trkpt lat="63.42255" lon="8.87478">
        <ele>35.959632</ele>
        <time>2020-07-15T15:36:26.595Z</time>
      </trkpt>
      <trkpt lat="63.42253" lon="8.87568">
        <ele>30.964943</ele>
        <time>2020-07-15T15:36:30.845Z</time>
      </trkpt>
      <trkpt lat="63.42242" lon="8.87636">
        <ele>26.981712</ele>
        <time>2020-07-15T15:36:34.244Z</time>
      </trkpt>
      <trkpt lat="63.42223" lon="8.87693">
        <ele>23.043418</ele>
        <time>2020-07-15T15:36:37.616Z</time>
      </trkpt>
      <trkpt lat="63.42195" lon="8.8774">
        <ele>18.627515</ele>
        <time>2020-07-15T15:36:41.459Z</time>
      </trkpt>
      <trkpt lat="63.4217" lon="8.87762">
        <ele>16.29181</ele>
        <time>2020-07-15T15:36:44.309Z</time>
      </trkpt>
      <trkpt lat="63.42125" lon="8.87768">
        <ele>13.762395</ele>
        <time>2020-07-15T15:36:49.431Z</time>
      </trkpt>
      <trkpt lat="63.42001" lon="8.87702">
        <ele>7.013078</ele>
        <time>2020-07-15T15:37:05.427Z</time>
      </trkpt>
      <trkpt lat="63.41913" lon="8.87694">
        <ele>6.148731</ele>
        <time>2020-07-15T15:37:19.411Z</time>
      </trkpt>
      <trkpt lat="63.41825" lon="8.87728">
        <ele>5.310806</ele>
        <time>2020-07-15T15:37:34.866Z</time>
      </trkpt>
      <trkpt lat="63.41701" lon="8.87822">
        <ele>5.492715</ele>
        <time>2020-07-15T15:37:57.254Z</time>
      </trkpt>
      <trkpt lat="63.41641" lon="8.87829">
        <ele>6.023455</ele>
        <time>2020-07-15T15:38:09.510Z</time>
      </trkpt>
      <trkpt lat="63.41593" lon="8.87798">
        <ele>7.573364</ele>
        <time>2020-07-15T15:38:21.191Z</time>
      </trkpt>
      <trkpt lat="63.41562" lon="8.87755">
        <ele>8.719682</ele>
        <time>2020-07-15T15:38:31.463Z</time>
      </trkpt>
      <trkpt lat="63.41525" lon="8.87671">
        <ele>10.36382</ele>
        <time>2020-07-15T15:38:48.439Z</time>
      </trkpt>
      <trkpt lat="63.41477" lon="8.87522">
        <ele>13.42816</ele>
        <time>2020-07-15T15:39:15.627Z</time>
      </trkpt>
      <trkpt lat="63.41467" lon="8.87495">
        <ele>14.044486</ele>
        <time>2020-07-15T15:39:21.312Z</time>
      </trkpt>
      <trkpt lat="63.4145" lon="8.87444">
        <ele>15.192193</ele>
        <time>2020-07-15T15:39:30.299Z</time>
      </trkpt>
      <trkpt lat="63.4141" lon="8.87343">
        <ele>17.607546</ele>
        <time>2020-07-15T15:39:48.220Z</time>
      </trkpt>
      <trkpt lat="63.41368" lon="8.87263">
        <ele>18.475369</ele>
        <time>2020-07-15T15:40:03.397Z</time>
      </trkpt>
      <trkpt lat="63.4129" lon="8.87151">
        <ele>18.750404</ele>
        <time>2020-07-15T15:40:20.277Z</time>
      </trkpt>
      <trkpt lat="63.4123" lon="8.87095">
        <ele>18.625</ele>
        <time>2020-07-15T15:40:29.953Z</time>
      </trkpt>
      <trkpt lat="63.41188" lon="8.8707">
        <ele>17.780158</ele>
        <time>2020-07-15T15:40:35.673Z</time>
      </trkpt>
      <trkpt lat="63.41141" lon="8.87058">
        <ele>16.839198</ele>
        <time>2020-07-15T15:40:42.083Z</time>
      </trkpt>
      <trkpt lat="63.41095" lon="8.87059">
        <ele>15.945576</ele>
        <time>2020-07-15T15:40:48.446Z</time>
      </trkpt>
      <trkpt lat="63.41067" lon="8.87065">
        <ele>15.384506</ele>
        <time>2020-07-15T15:40:52.520Z</time>
      </trkpt>
      <trkpt lat="63.41054" lon="8.87068">
        <ele>15.56881</ele>
        <time>2020-07-15T15:40:54.593Z</time>
      </trkpt>
      <trkpt lat="63.40991" lon="8.8707">
        <ele>16.626849</ele>
        <time>2020-07-15T15:41:05.971Z</time>
      </trkpt>
      <trkpt lat="63.40897" lon="8.87011">
        <ele>18.256404</ele>
        <time>2020-07-15T15:41:31.986Z</time>
      </trkpt>
      <trkpt lat="63.40835" lon="8.86989">
        <ele>20.901908</ele>
        <time>2020-07-15T15:41:53.194Z</time>
      </trkpt>
      <trkpt lat="63.40771" lon="8.86998">
        <ele>23.852355</ele>
        <time>2020-07-15T15:42:14.992Z</time>
      </trkpt>
      <trkpt lat="63.40717" lon="8.87035">
        <ele>26.44356</ele>
        <time>2020-07-15T15:42:33.451Z</time>
      </trkpt>
      <trkpt lat="63.40672" lon="8.87091">
        <ele>28.865192</ele>
        <time>2020-07-15T15:42:49.742Z</time>
      </trkpt>
      <trkpt lat="63.40598" lon="8.87218">
        <ele>33.192309</ele>
        <time>2020-07-15T15:43:19.365Z</time>
      </trkpt>
      <trkpt lat="63.40554" lon="8.87278">
        <ele>35.741244</ele>
        <time>2020-07-15T15:43:37.060Z</time>
      </trkpt>
      <trkpt lat="63.40436" lon="8.87349">
        <ele>42.747023</ele>
        <time>2020-07-15T15:44:22.370Z</time>
      </trkpt>
      <trkpt lat="63.40391" lon="8.87399">
        <ele>45.512587</ele>
        <time>2020-07-15T15:44:40.981Z</time>
      </trkpt>
      <trkpt lat="63.40361" lon="8.87456">
        <ele>47.189507</ele>
        <time>2020-07-15T15:44:54.708Z</time>
      </trkpt>
      <trkpt lat="63.40343" lon="8.87507">
        <ele>48.439138</ele>
        <time>2020-07-15T15:45:04.235Z</time>
      </trkpt>
      <trkpt lat="63.40302" lon="8.87674">
        <ele>52.047937</ele>
        <time>2020-07-15T15:45:29.233Z</time>
      </trkpt>
      <trkpt lat="63.40268" lon="8.8777">
        <ele>53.23437</ele>
        <time>2020-07-15T15:45:45.093Z</time>
      </trkpt>
      <trkpt lat="63.40231" lon="8.87836">
        <ele>53.668378</ele>
        <time>2020-07-15T15:45:57.755Z</time>
      </trkpt>
      <trkpt lat="63.40151" lon="8.87934">
        <ele>54.501061</ele>
        <time>2020-07-15T15:46:13.188Z</time>
      </trkpt>
      <trkpt lat="63.40136" lon="8.87953">
        <ele>54.186134</ele>
        <time>2020-07-15T15:46:17.151Z</time>
      </trkpt>
      <trkpt lat="63.40132" lon="8.87958">
        <ele>54.026268</ele>
        <time>2020-07-15T15:46:17.631Z</time>
      </trkpt>
      <trkpt lat="63.39967" lon="8.88211">
        <ele>46.419722</ele>
        <time>2020-07-15T15:46:42.723Z</time>
      </trkpt>
      <trkpt lat="63.39906" lon="8.88276">
        <ele>43.02828</ele>
        <time>2020-07-15T15:46:50.716Z</time>
      </trkpt>
      <trkpt lat="63.39832" lon="8.88326">
        <ele>39.143713</ele>
        <time>2020-07-15T15:46:59.923Z</time>
      </trkpt>
      <trkpt lat="63.39742" lon="8.88358">
        <ele>38.028431</ele>
        <time>2020-07-15T15:47:11.720Z</time>
      </trkpt>
      <trkpt lat="63.39671" lon="8.8836">
        <ele>37.175502</ele>
        <time>2020-07-15T15:47:23.718Z</time>
      </trkpt>
      <trkpt lat="63.39539" lon="8.88309">
        <ele>43.626325</ele>
        <time>2020-07-15T15:48:10.685Z</time>
      </trkpt>
      <trkpt lat="63.39497" lon="8.88306">
        <ele>45.996329</ele>
        <time>2020-07-15T15:48:28.940Z</time>
      </trkpt>
      <trkpt lat="63.39444" lon="8.88321">
        <ele>48.741918</ele>
        <time>2020-07-15T15:48:51.568Z</time>
      </trkpt>
      <trkpt lat="63.39399" lon="8.88357">
        <ele>50.936433</ele>
        <time>2020-07-15T15:49:09.131Z</time>
      </trkpt>
      <trkpt lat="63.39354" lon="8.88434">
        <ele>53.565189</ele>
        <time>2020-07-15T15:49:27.759Z</time>
      </trkpt>
      <trkpt lat="63.39291" lon="8.88627">
        <ele>55.62987</ele>
        <time>2020-07-15T15:49:50.967Z</time>
      </trkpt>
      <trkpt lat="63.39267" lon="8.88683">
        <ele>55.65415</ele>
        <time>2020-07-15T15:49:56.407Z</time>
      </trkpt>
      <trkpt lat="63.39245" lon="8.88721">
        <ele>55.673716</ele>
        <time>2020-07-15T15:50:00.680Z</time>
      </trkpt>
      <trkpt lat="63.39168" lon="8.88798">
        <ele>56.018493</ele>
        <time>2020-07-15T15:50:14.447Z</time>
      </trkpt>
      <trkpt lat="63.39141" lon="8.88835">
        <ele>56.330894</ele>
        <time>2020-07-15T15:50:20.380Z</time>
      </trkpt>
      <trkpt lat="63.39113" lon="8.88897">
        <ele>56.717409</ele>
        <time>2020-07-15T15:50:28.110Z</time>
      </trkpt>
      <trkpt lat="63.39087" lon="8.8898">
        <ele>57.171093</ele>
        <time>2020-07-15T15:50:37.862Z</time>
      </trkpt>
      <trkpt lat="63.39057" lon="8.89042">
        <ele>57.907307</ele>
        <time>2020-07-15T15:50:47.658Z</time>
      </trkpt>
      <trkpt lat="63.39019" lon="8.89073">
        <ele>60.042743</ele>
        <time>2020-07-15T15:51:00.003Z</time>
      </trkpt>
      <trkpt lat="63.38935" lon="8.89079">
        <ele>64.446481</ele>
        <time>2020-07-15T15:51:31.543Z</time>
      </trkpt>
      <trkpt lat="63.38908" lon="8.89097">
        <ele>65.935328</ele>
        <time>2020-07-15T15:51:42.510Z</time>
      </trkpt>
      <trkpt lat="63.38875" lon="8.89142">
        <ele>68.426402</ele>
        <time>2020-07-15T15:51:57.514Z</time>
      </trkpt>
      <trkpt lat="63.38843" lon="8.89226">
        <ele>72.111069</ele>
        <time>2020-07-15T15:52:16.168Z</time>
      </trkpt>
      <trkpt lat="63.3881" lon="8.89388">
        <ele>78.102617</ele>
        <time>2020-07-15T15:52:52.885Z</time>
      </trkpt>
      <trkpt lat="63.38784" lon="8.89446">
        <ele>80.731578</ele>
        <time>2020-07-15T15:53:09.006Z</time>
      </trkpt>
      <trkpt lat="63.38754" lon="8.89479">
        <ele>82.286843</ele>
        <time>2020-07-15T15:53:21.785Z</time>
      </trkpt>
      <trkpt lat="63.38746" lon="8.89488">
        <ele>82.686406</ele>
        <time>2020-07-15T15:53:25.933Z</time>
      </trkpt>
      <trkpt lat="63.38741" lon="8.89494">
        <ele>82.954483</ele>
        <time>2020-07-15T15:53:29.011Z</time>
      </trkpt>
      <trkpt lat="63.38717" lon="8.8953">
        <ele>84.308966</ele>
        <time>2020-07-15T15:53:37.985Z</time>
      </trkpt>
      <trkpt lat="63.38645" lon="8.8967">
        <ele>88.777111</ele>
        <time>2020-07-15T15:54:05.721Z</time>
      </trkpt>
      <trkpt lat="63.3862" lon="8.89723">
        <ele>88.810382</ele>
        <time>2020-07-15T15:54:14.624Z</time>
      </trkpt>
      <trkpt lat="63.38599" lon="8.89789">
        <ele>88.771143</ele>
        <time>2020-07-15T15:54:20.048Z</time>
      </trkpt>
      <trkpt lat="63.38589" lon="8.8984">
        <ele>88.744356</ele>
        <time>2020-07-15T15:54:23.579Z</time>
      </trkpt>
      <trkpt lat="63.38583" lon="8.89908">
        <ele>88.710567</ele>
        <time>2020-07-15T15:54:28.082Z</time>
      </trkpt>
      <trkpt lat="63.38584" lon="8.90139">
        <ele>90.118199</ele>
        <time>2020-07-15T15:54:44.950Z</time>
      </trkpt>
      <trkpt lat="63.38565" lon="8.90229">
        <ele>91.471428</ele>
        <time>2020-07-15T15:54:56.219Z</time>
      </trkpt>
      <trkpt lat="63.38544" lon="8.90273">
        <ele>92.341181</ele>
        <time>2020-07-15T15:55:05.243Z</time>
      </trkpt>
      <trkpt lat="63.38524" lon="8.90297">
        <ele>93.028696</ele>
        <time>2020-07-15T15:55:12.905Z</time>
      </trkpt>
      <trkpt lat="63.38454" lon="8.90337">
        <ele>96.143534</ele>
        <time>2020-07-15T15:55:41.025Z</time>
      </trkpt>
      <trkpt lat="63.38412" lon="8.90397">
        <ele>98.952749</ele>
        <time>2020-07-15T15:56:01.428Z</time>
      </trkpt>
      <trkpt lat="63.38349" lon="8.90564">
        <ele>104.189197</ele>
        <time>2020-07-15T15:56:35.539Z</time>
      </trkpt>
      <trkpt lat="63.38323" lon="8.90667">
        <ele>104.341501</ele>
        <time>2020-07-15T15:56:48.796Z</time>
      </trkpt>
      <trkpt lat="63.38309" lon="8.90746">
        <ele>104.45047</ele>
        <time>2020-07-15T15:56:55.724Z</time>
      </trkpt>
      <trkpt lat="63.383" lon="8.90865">
        <ele>104.60595</ele>
        <time>2020-07-15T15:57:03.904Z</time>
      </trkpt>
      <trkpt lat="63.38307" lon="8.90956">
        <ele>104.496112</ele>
        <time>2020-07-15T15:57:09.498Z</time>
      </trkpt>
      <trkpt lat="63.38323" lon="8.91041">
        <ele>103.743278</ele>
        <time>2020-07-15T15:57:15.106Z</time>
      </trkpt>
      <trkpt lat="63.38353" lon="8.91118">
        <ele>102.921269</ele>
        <time>2020-07-15T15:57:21.111Z</time>
      </trkpt>
      <trkpt lat="63.38383" lon="8.9116">
        <ele>102.294207</ele>
        <time>2020-07-15T15:57:25.600Z</time>
      </trkpt>
      <trkpt lat="63.38418" lon="8.91179">
        <ele>101.636306</ele>
        <time>2020-07-15T15:57:31.261Z</time>
      </trkpt>
      <trkpt lat="63.38447" lon="8.91176">
        <ele>101.945</ele>
        <time>2020-07-15T15:57:37.073Z</time>
      </trkpt>
      <trkpt lat="63.38518" lon="8.91127">
        <ele>103.966999</ele>
        <time>2020-07-15T15:57:59.652Z</time>
      </trkpt>
      <trkpt lat="63.38534" lon="8.91123">
        <ele>104.406447</ele>
        <time>2020-07-15T15:58:02.155Z</time>
      </trkpt>
      <trkpt lat="63.38548" lon="8.91123">
        <ele>104.772248</ele>
        <time>2020-07-15T15:58:08.407Z</time>
      </trkpt>
      <trkpt lat="63.38577" lon="8.91139">
        <ele>105.602919</ele>
        <time>2020-07-15T15:58:16.688Z</time>
      </trkpt>
      <trkpt lat="63.3861" lon="8.91183">
        <ele>106.397494</ele>
        <time>2020-07-15T15:58:27.408Z</time>
      </trkpt>
      <trkpt lat="63.38617" lon="8.91198">
        <ele>106.462121</ele>
        <time>2020-07-15T15:58:32.383Z</time>
      </trkpt>
      <trkpt lat="63.38626" lon="8.91222">
        <ele>106.560166</ele>
        <time>2020-07-15T15:58:34.350Z</time>
      </trkpt>
      <trkpt lat="63.38643" lon="8.913">
        <ele>106.818436</ele>
        <time>2020-07-15T15:58:44.660Z</time>
      </trkpt>
      <trkpt lat="63.38651" lon="8.91364">
        <ele>107.020776</ele>
        <time>2020-07-15T15:58:53.981Z</time>
      </trkpt>
      <trkpt lat="63.38655" lon="8.9139">
        <ele>107.101115</ele>
        <time>2020-07-15T15:58:55.632Z</time>
      </trkpt>
      <trkpt lat="63.38663" lon="8.91448">
        <ele>107.284123</ele>
        <time>2020-07-15T15:59:00.691Z</time>
      </trkpt>
      <trkpt lat="63.38683" lon="8.91563">
        <ele>106.378056</ele>
        <time>2020-07-15T15:59:07.893Z</time>
      </trkpt>
      <trkpt lat="63.38704" lon="8.91648">
        <ele>103.653534</ele>
        <time>2020-07-15T15:59:12.953Z</time>
      </trkpt>
      <trkpt lat="63.38729" lon="8.91726">
        <ele>100.95671</ele>
        <time>2020-07-15T15:59:17.859Z</time>
      </trkpt>
      <trkpt lat="63.38786" lon="8.91864">
        <ele>95.743062</ele>
        <time>2020-07-15T15:59:27.522Z</time>
      </trkpt>
      <trkpt lat="63.38802" lon="8.91939">
        <ele>93.589454</ele>
        <time>2020-07-15T15:59:31.783Z</time>
      </trkpt>
      <trkpt lat="63.3881" lon="8.92046">
        <ele>90.769242</ele>
        <time>2020-07-15T15:59:37.420Z</time>
      </trkpt>
      <trkpt lat="63.38807" lon="8.92153">
        <ele>87.985686</ele>
        <time>2020-07-15T15:59:43.118Z</time>
      </trkpt>
      <trkpt lat="63.38796" lon="8.92232">
        <ele>85.855344</ele>
        <time>2020-07-15T15:59:47.693Z</time>
      </trkpt>
      <trkpt lat="63.38773" lon="8.92314">
        <ele>85.126732</ele>
        <time>2020-07-15T15:59:53.342Z</time>
      </trkpt>
      <trkpt lat="63.38728" lon="8.92404">
        <ele>84.098767</ele>
        <time>2020-07-15T16:00:02.079Z</time>
      </trkpt>
      <trkpt lat="63.38578" lon="8.92566">
        <ele>82.376335</ele>
        <time>2020-07-15T16:00:31.196Z</time>
      </trkpt>
      <trkpt lat="63.38432" lon="8.92787">
        <ele>80.526829</ele>
        <time>2020-07-15T16:00:58.938Z</time>
      </trkpt>
      <trkpt lat="63.38385" lon="8.92888">
        <ele>79.475959</ele>
        <time>2020-07-15T16:01:08.211Z</time>
      </trkpt>
      <trkpt lat="63.38324" lon="8.93065">
        <ele>75.431526</ele>
        <time>2020-07-15T16:01:21.403Z</time>
      </trkpt>
      <trkpt lat="63.38293" lon="8.93125">
        <ele>73.368128</ele>
        <time>2020-07-15T16:01:26.445Z</time>
      </trkpt>
      <trkpt lat="63.38269" lon="8.9315">
        <ele>72.059009</ele>
        <time>2020-07-15T16:01:29.556Z</time>
      </trkpt>
      <trkpt lat="63.38243" lon="8.93164">
        <ele>70.754989</ele>
        <time>2020-07-15T16:01:32.601Z</time>
      </trkpt>
      <trkpt lat="63.38122" lon="8.93163">
        <ele>60.434054</ele>
        <time>2020-07-15T16:01:46.051Z</time>
      </trkpt>
      <trkpt lat="63.38099" lon="8.93169">
        <ele>58.323806</ele>
        <time>2020-07-15T16:01:48.619Z</time>
      </trkpt>
      <trkpt lat="63.38067" lon="8.93191">
        <ele>55.341091</ele>
        <time>2020-07-15T16:01:52.235Z</time>
      </trkpt>
      <trkpt lat="63.38038" lon="8.93234">
        <ele>52.542345</ele>
        <time>2020-07-15T16:01:56.031Z</time>
      </trkpt>
      <trkpt lat="63.38011" lon="8.93311">
        <ele>49.304252</ele>
        <time>2020-07-15T16:02:00.921Z</time>
      </trkpt>
      <trkpt lat="63.37984" lon="8.93488">
        <ele>43.168299</ele>
        <time>2020-07-15T16:02:10.522Z</time>
      </trkpt>
      <trkpt lat="63.37963" lon="8.9351">
        <ele>41.486883</ele>
        <time>2020-07-15T16:02:13.284Z</time>
      </trkpt>
      <trkpt lat="63.37937" lon="8.935">
        <ele>40.398773</ele>
        <time>2020-07-15T16:02:16.547Z</time>
      </trkpt>
      <trkpt lat="63.37923" lon="8.93492">
        <ele>40.053302</ele>
        <time>2020-07-15T16:02:18.391Z</time>
      </trkpt>
      <trkpt lat="63.37919" lon="8.93514">
        <ele>39.799133</ele>
        <time>2020-07-15T16:02:19.893Z</time>
      </trkpt>
      <trkpt lat="63.37896" lon="8.93673">
        <ele>38.079072</ele>
        <time>2020-07-15T16:02:30.300Z</time>
      </trkpt>
      <trkpt lat="63.37898" lon="8.93763">
        <ele>37.144004</ele>
        <time>2020-07-15T16:02:36.635Z</time>
      </trkpt>
      <trkpt lat="63.3791" lon="8.93855">
        <ele>36.587843</ele>
        <time>2020-07-15T16:02:43.532Z</time>
      </trkpt>
      <trkpt lat="63.37958" lon="8.94089">
        <ele>36.385864</ele>
        <time>2020-07-15T16:03:03.708Z</time>
      </trkpt>
      <trkpt lat="63.38056" lon="8.94486">
        <ele>36.903178</ele>
        <time>2020-07-15T16:03:41.119Z</time>
      </trkpt>
      <trkpt lat="63.38121" lon="8.94831">
        <ele>38.468236</ele>
        <time>2020-07-15T16:04:17.723Z</time>
      </trkpt>
      <trkpt lat="63.38139" lon="8.94906">
        <ele>38.798662</ele>
        <time>2020-07-15T16:04:25.748Z</time>
      </trkpt>
      <trkpt lat="63.38166" lon="8.94993">
        <ele>38.768401</ele>
        <time>2020-07-15T16:04:34.586Z</time>
      </trkpt>
      <trkpt lat="63.38178" lon="8.95024">
        <ele>38.756101</ele>
        <time>2020-07-15T16:04:38.420Z</time>
      </trkpt>
      <trkpt lat="63.38188" lon="8.95047">
        <ele>38.747209</ele>
        <time>2020-07-15T16:04:40.646Z</time>
      </trkpt>
      <trkpt lat="63.3822" lon="8.9513">
        <ele>38.715556</ele>
        <time>2020-07-15T16:04:49.399Z</time>
      </trkpt>
      <trkpt lat="63.38223" lon="8.95139">
        <ele>38.712558</ele>
        <time>2020-07-15T16:04:50.122Z</time>
      </trkpt>
      <trkpt lat="63.38248" lon="8.95205">
        <ele>38.687541</ele>
        <time>2020-07-15T16:04:56.469Z</time>
      </trkpt>
      <trkpt lat="63.38297" lon="8.95351">
        <ele>37.842384</ele>
        <time>2020-07-15T16:05:08.637Z</time>
      </trkpt>
      <trkpt lat="63.38356" lon="8.9557">
        <ele>36.736911</ele>
        <time>2020-07-15T16:05:26.144Z</time>
      </trkpt>
      <trkpt lat="63.38411" lon="8.95699">
        <ele>36.477724</ele>
        <time>2020-07-15T16:05:39.526Z</time>
      </trkpt>
      <trkpt lat="63.38638" lon="8.96324">
        <ele>36.392144</ele>
        <time>2020-07-15T16:06:44.093Z</time>
      </trkpt>
      <trkpt lat="63.3865" lon="8.96401">
        <ele>36.465922</ele>
        <time>2020-07-15T16:06:50.960Z</time>
      </trkpt>
      <trkpt lat="63.38652" lon="8.96465">
        <ele>36.523914</ele>
        <time>2020-07-15T16:06:56.418Z</time>
      </trkpt>
      <trkpt lat="63.38647" lon="8.96522">
        <ele>36.576995</ele>
        <time>2020-07-15T16:07:01.350Z</time>
      </trkpt>
      <trkpt lat="63.3862" lon="8.96637">
        <ele>36.702114</ele>
        <time>2020-07-15T16:07:12.423Z</time>
      </trkpt>
      <trkpt lat="63.38611" lon="8.96697">
        <ele>36.763122</ele>
        <time>2020-07-15T16:07:17.800Z</time>
      </trkpt>
      <trkpt lat="63.38611" lon="8.9675">
        <ele>36.814795</ele>
        <time>2020-07-15T16:07:22.306Z</time>
      </trkpt>
      <trkpt lat="63.38621" lon="8.96812">
        <ele>36.878608</ele>
        <time>2020-07-15T16:07:27.785Z</time>
      </trkpt>
      <trkpt lat="63.38639" lon="8.96874">
        <ele>36.950106</ele>
        <time>2020-07-15T16:07:33.836Z</time>
      </trkpt>
      <trkpt lat="63.38675" lon="8.96949">
        <ele>36.75515</ele>
        <time>2020-07-15T16:07:42.522Z</time>
      </trkpt>
      <trkpt lat="63.38804" lon="8.97158">
        <ele>36.008712</ele>
        <time>2020-07-15T16:08:08.495Z</time>
      </trkpt>
      <trkpt lat="63.38842" lon="8.97235">
        <ele>35.589947</ele>
        <time>2020-07-15T16:08:16.611Z</time>
      </trkpt>
      <trkpt lat="63.38866" lon="8.97318">
        <ele>35.229734</ele>
        <time>2020-07-15T16:08:23.557Z</time>
      </trkpt>
      <trkpt lat="63.38886" lon="8.97473">
        <ele>34.760568</ele>
        <time>2020-07-15T16:08:34.829Z</time>
      </trkpt>
      <trkpt lat="63.38906" lon="8.97584">
        <ele>34.704937</ele>
        <time>2020-07-15T16:08:43.191Z</time>
      </trkpt>
      <trkpt lat="63.38983" lon="8.97888">
        <ele>35.934661</ele>
        <time>2020-07-15T16:09:13.210Z</time>
      </trkpt>
      <trkpt lat="63.38991" lon="8.97922">
        <ele>36.415046</ele>
        <time>2020-07-15T16:09:16.419Z</time>
      </trkpt>
      <trkpt lat="63.38994" lon="8.97937">
        <ele>36.631215</ele>
        <time>2020-07-15T16:09:18.767Z</time>
      </trkpt>
      <trkpt lat="63.39007" lon="8.98031">
        <ele>37.902493</ele>
        <time>2020-07-15T16:09:31.477Z</time>
      </trkpt>
      <trkpt lat="63.3901" lon="8.98081">
        <ele>38.546619</ele>
        <time>2020-07-15T16:09:38.051Z</time>
      </trkpt>
      <trkpt lat="63.3901" lon="8.98091">
        <ele>38.676597</ele>
        <time>2020-07-15T16:09:40.155Z</time>
      </trkpt>
      <trkpt lat="63.3901" lon="8.98113">
        <ele>38.965495</ele>
        <time>2020-07-15T16:09:43.871Z</time>
      </trkpt>
      <trkpt lat="63.38998" lon="8.98226">
        <ele>40.906921</ele>
        <time>2020-07-15T16:10:00.694Z</time>
      </trkpt>
      <trkpt lat="63.38985" lon="8.98279">
        <ele>42.204297</ele>
        <time>2020-07-15T16:10:10.501Z</time>
      </trkpt>
      <trkpt lat="63.38963" lon="8.9834">
        <ele>43.868832</ele>
        <time>2020-07-15T16:10:22.684Z</time>
      </trkpt>
      <trkpt lat="63.38953" lon="8.9836">
        <ele>44.513415</ele>
        <time>2020-07-15T16:10:27.290Z</time>
      </trkpt>
      <trkpt lat="63.38949" lon="8.98369">
        <ele>44.797708</ele>
        <time>2020-07-15T16:10:29.731Z</time>
      </trkpt>
      <trkpt lat="63.38852" lon="8.98501">
        <ele>49.627924</ele>
        <time>2020-07-15T16:11:04.995Z</time>
      </trkpt>
      <trkpt lat="63.38836" lon="8.98536">
        <ele>50.393034</ele>
        <time>2020-07-15T16:11:11.563Z</time>
      </trkpt>
      <trkpt lat="63.38828" lon="8.98552">
        <ele>50.738901</ele>
        <time>2020-07-15T16:11:15.123Z</time>
      </trkpt>
      <trkpt lat="63.38784" lon="8.98644">
        <ele>52.749101</ele>
        <time>2020-07-15T16:11:30.920Z</time>
      </trkpt>
      <trkpt lat="63.3878" lon="8.98654">
        <ele>52.959513</ele>
        <time>2020-07-15T16:11:32.408Z</time>
      </trkpt>
      <trkpt lat="63.38774" lon="8.98666">
        <ele>53.215663</ele>
        <time>2020-07-15T16:11:35.174Z</time>
      </trkpt>
      <trkpt lat="63.38682" lon="8.9886">
        <ele>56.209027</ele>
        <time>2020-07-15T16:12:09.265Z</time>
      </trkpt>
      <trkpt lat="63.3866" lon="8.98918">
        <ele>56.898917</ele>
        <time>2020-07-15T16:12:17.859Z</time>
      </trkpt>
      <trkpt lat="63.38641" lon="8.98992">
        <ele>57.682824</ele>
        <time>2020-07-15T16:12:26.002Z</time>
      </trkpt>
      <trkpt lat="63.38612" lon="8.9913">
        <ele>57.463207</ele>
        <time>2020-07-15T16:12:38.273Z</time>
      </trkpt>
      <trkpt lat="63.38601" lon="8.99211">
        <ele>57.109191</ele>
        <time>2020-07-15T16:12:44.374Z</time>
      </trkpt>
      <trkpt lat="63.38597" lon="8.99274">
        <ele>56.845657</ele>
        <time>2020-07-15T16:12:48.545Z</time>
      </trkpt>
      <trkpt lat="63.386" lon="8.99427">
        <ele>56.136726</ele>
        <time>2020-07-15T16:12:58.186Z</time>
      </trkpt>
      <trkpt lat="63.38594" lon="8.99479">
        <ele>55.717742</ele>
        <time>2020-07-15T16:13:01.536Z</time>
      </trkpt>
      <trkpt lat="63.38583" lon="8.99519">
        <ele>55.346158</ele>
        <time>2020-07-15T16:13:04.546Z</time>
      </trkpt>
      <trkpt lat="63.38562" lon="8.99563">
        <ele>54.848949</ele>
        <time>2020-07-15T16:13:08.621Z</time>
      </trkpt>
      <trkpt lat="63.38488" lon="8.99677">
        <ele>53.284504</ele>
        <time>2020-07-15T16:13:21.900Z</time>
      </trkpt>
      <trkpt lat="63.38399" lon="8.99878">
        <ele>50.898312</ele>
        <time>2020-07-15T16:13:39.854Z</time>
      </trkpt>
      <trkpt lat="63.3833" lon="8.9996">
        <ele>49.58984</ele>
        <time>2020-07-15T16:13:50.893Z</time>
      </trkpt>
      <trkpt lat="63.38255" lon="9.00091">
        <ele>48.668935</ele>
        <time>2020-07-15T16:14:05.012Z</time>
      </trkpt>
      <trkpt lat="63.3821" lon="9.00132">
        <ele>48.199004</ele>
        <time>2020-07-15T16:14:13.035Z</time>
      </trkpt>
      <trkpt lat="63.38204" lon="9.00134">
        <ele>48.138947</ele>
        <time>2020-07-15T16:14:13.866Z</time>
      </trkpt>
      <trkpt lat="63.3819" lon="9.00139">
        <ele>48.04501</ele>
        <time>2020-07-15T16:14:17.260Z</time>
      </trkpt>
      <trkpt lat="63.38168" lon="9.00138">
        <ele>48.273466</ele>
        <time>2020-07-15T16:14:20.910Z</time>
      </trkpt>
      <trkpt lat="63.38145" lon="9.00132">
        <ele>48.519198</ele>
        <time>2020-07-15T16:14:26.293Z</time>
      </trkpt>
      <trkpt lat="63.37913" lon="9.00075">
        <ele>51.276984</ele>
        <time>2020-07-15T16:15:18.205Z</time>
      </trkpt>
      <trkpt lat="63.37888" lon="9.0007">
        <ele>51.608192</ele>
        <time>2020-07-15T16:15:23.707Z</time>
      </trkpt>
      <trkpt lat="63.37862" lon="9.00063">
        <ele>51.95814</ele>
        <time>2020-07-15T16:15:29.252Z</time>
      </trkpt>
      <trkpt lat="63.37854" lon="9.00061">
        <ele>52.070131</ele>
        <time>2020-07-15T16:15:31.294Z</time>
      </trkpt>
      <trkpt lat="63.37531" lon="8.99981">
        <ele>56.028265</ele>
        <time>2020-07-15T16:16:41.826Z</time>
      </trkpt>
      <trkpt lat="63.37492" lon="8.99982">
        <ele>56.479992</ele>
        <time>2020-07-15T16:16:49.900Z</time>
      </trkpt>
      <trkpt lat="63.37444" lon="9.00003">
        <ele>57.165799</ele>
        <time>2020-07-15T16:17:00.444Z</time>
      </trkpt>
      <trkpt lat="63.3734" lon="9.00112">
        <ele>58.860509</ele>
        <time>2020-07-15T16:17:26.323Z</time>
      </trkpt>
      <trkpt lat="63.37188" lon="9.00287">
        <ele>61.725152</ele>
        <time>2020-07-15T16:18:07.106Z</time>
      </trkpt>
      <trkpt lat="63.37162" lon="9.00316">
        <ele>62.235045</ele>
        <time>2020-07-15T16:18:13.879Z</time>
      </trkpt>
      <trkpt lat="63.37129" lon="9.00345">
        <ele>62.743692</ele>
        <time>2020-07-15T16:18:21.611Z</time>
      </trkpt>
      <trkpt lat="63.37088" lon="9.00367">
        <ele>63.306359</ele>
        <time>2020-07-15T16:18:30.612Z</time>
      </trkpt>
      <trkpt lat="63.3688" lon="9.00446">
        <ele>65.71894</ele>
        <time>2020-07-15T16:19:17.289Z</time>
      </trkpt>
      <trkpt lat="63.36873" lon="9.00446">
        <ele>65.785536</ele>
        <time>2020-07-15T16:19:18.643Z</time>
      </trkpt>
      <trkpt lat="63.36867" lon="9.00447">
        <ele>65.842762</ele>
        <time>2020-07-15T16:19:21.109Z</time>
      </trkpt>
      <trkpt lat="63.3676" lon="9.0041">
        <ele>65.638907</ele>
        <time>2020-07-15T16:19:40.929Z</time>
      </trkpt>
      <trkpt lat="63.36715" lon="9.00417">
        <ele>64.667257</ele>
        <time>2020-07-15T16:19:47.381Z</time>
      </trkpt>
      <trkpt lat="63.36676" lon="9.00459">
        <ele>63.705721</ele>
        <time>2020-07-15T16:19:53.080Z</time>
      </trkpt>
      <trkpt lat="63.366" lon="9.00611">
        <ele>61.535462</ele>
        <time>2020-07-15T16:20:06.005Z</time>
      </trkpt>
      <trkpt lat="63.36573" lon="9.00653">
        <ele>60.841557</ele>
        <time>2020-07-15T16:20:10.396Z</time>
      </trkpt>
      <trkpt lat="63.36533" lon="9.00679">
        <ele>59.966557</ele>
        <time>2020-07-15T16:20:16.268Z</time>
      </trkpt>
      <trkpt lat="63.36423" lon="9.00716">
        <ele>58.897345</ele>
        <time>2020-07-15T16:20:35.423Z</time>
      </trkpt>
      <trkpt lat="63.36373" lon="9.00767">
        <ele>58.994258</ele>
        <time>2020-07-15T16:20:46.887Z</time>
      </trkpt>
      <trkpt lat="63.36341" lon="9.00839">
        <ele>59.074336</ele>
        <time>2020-07-15T16:20:55.752Z</time>
      </trkpt>
      <trkpt lat="63.36325" lon="9.00912">
        <ele>58.982669</ele>
        <time>2020-07-15T16:21:02.081Z</time>
      </trkpt>
      <trkpt lat="63.36318" lon="9.00988">
        <ele>58.59691</ele>
        <time>2020-07-15T16:21:07.719Z</time>
      </trkpt>
      <trkpt lat="63.36321" lon="9.01169">
        <ele>57.708529</ele>
        <time>2020-07-15T16:21:19.508Z</time>
      </trkpt>
      <trkpt lat="63.36318" lon="9.01213">
        <ele>57.488351</ele>
        <time>2020-07-15T16:21:22.450Z</time>
      </trkpt>
      <trkpt lat="63.36302" lon="9.01283">
        <ele>57.161127</ele>
        <time>2020-07-15T16:21:27.675Z</time>
      </trkpt>
      <trkpt lat="63.36273" lon="9.01339">
        <ele>57.363934</ele>
        <time>2020-07-15T16:21:33.581Z</time>
      </trkpt>
      <trkpt lat="63.36253" lon="9.01368">
        <ele>57.493341</ele>
        <time>2020-07-15T16:21:37.471Z</time>
      </trkpt>
      <trkpt lat="63.362" lon="9.01442">
        <ele>57.824622</ele>
        <time>2020-07-15T16:21:49.764Z</time>
      </trkpt>
      <trkpt lat="63.36119" lon="9.01567">
        <ele>59.131373</ele>
        <time>2020-07-15T16:22:14.806Z</time>
      </trkpt>
      <trkpt lat="63.36098" lon="9.01606">
        <ele>59.737539</ele>
        <time>2020-07-15T16:22:22.414Z</time>
      </trkpt>
      <trkpt lat="63.36059" lon="9.0168">
        <ele>60.854514</ele>
        <time>2020-07-15T16:22:35.948Z</time>
      </trkpt>
      <trkpt lat="63.35954" lon="9.01879">
        <ele>63.571512</ele>
        <time>2020-07-15T16:23:07.027Z</time>
      </trkpt>
      <trkpt lat="63.35912" lon="9.01936">
        <ele>64.474992</ele>
        <time>2020-07-15T16:23:17.887Z</time>
      </trkpt>
      <trkpt lat="63.35904" lon="9.01942">
        <ele>64.619671</ele>
        <time>2020-07-15T16:23:19.424Z</time>
      </trkpt>
      <trkpt lat="63.35897" lon="9.01948">
        <ele>64.76435</ele>
        <time>2020-07-15T16:23:21.232Z</time>
      </trkpt>
      <trkpt lat="63.35887" lon="9.01954">
        <ele>64.955611</ele>
        <time>2020-07-15T16:23:23.739Z</time>
      </trkpt>
      <trkpt lat="63.35857" lon="9.01962">
        <ele>65.920005</ele>
        <time>2020-07-15T16:23:31.685Z</time>
      </trkpt>
      <trkpt lat="63.35822" lon="9.01958">
        <ele>67.986189</ele>
        <time>2020-07-15T16:23:41.836Z</time>
      </trkpt>
      <trkpt lat="63.35744" lon="9.01934">
        <ele>72.692677</ele>
        <time>2020-07-15T16:24:09.823Z</time>
      </trkpt>
      <trkpt lat="63.35714" lon="9.01915">
        <ele>74.57167</ele>
        <time>2020-07-15T16:24:23.759Z</time>
      </trkpt>
      <trkpt lat="63.35657" lon="9.0185">
        <ele>79.433626</ele>
        <time>2020-07-15T16:24:55.285Z</time>
      </trkpt>
      <trkpt lat="63.35628" lon="9.01801">
        <ele>82.538515</ele>
        <time>2020-07-15T16:25:13.627Z</time>
      </trkpt>
      <trkpt lat="63.356" lon="9.01737">
        <ele>86.002829</ele>
        <time>2020-07-15T16:25:32.928Z</time>
      </trkpt>
      <trkpt lat="63.35542" lon="9.01574">
        <ele>92.638354</ele>
        <time>2020-07-15T16:26:12.062Z</time>
      </trkpt>
      <trkpt lat="63.35523" lon="9.0152">
        <ele>93.767717</ele>
        <time>2020-07-15T16:26:22.846Z</time>
      </trkpt>
      <trkpt lat="63.3543" lon="9.01265">
        <ele>98.339528</ele>
        <time>2020-07-15T16:26:59.070Z</time>
      </trkpt>
      <trkpt lat="63.35371" lon="9.01152">
        <ele>99.02417</ele>
        <time>2020-07-15T16:27:13.882Z</time>
      </trkpt>
      <trkpt lat="63.35332" lon="9.01099">
        <ele>99.421022</ele>
        <time>2020-07-15T16:27:22.696Z</time>
      </trkpt>
      <trkpt lat="63.35095" lon="9.00832">
        <ele>101.580629</ele>
        <time>2020-07-15T16:28:17.482Z</time>
      </trkpt>
      <trkpt lat="63.3503" lon="9.0074">
        <ele>102.088658</ele>
        <time>2020-07-15T16:28:33.247Z</time>
      </trkpt>
      <trkpt lat="63.34986" lon="9.00672">
        <ele>102.37355</ele>
        <time>2020-07-15T16:28:43.561Z</time>
      </trkpt>
      <trkpt lat="63.34941" lon="9.00601">
        <ele>102.17047</ele>
        <time>2020-07-15T16:28:53.417Z</time>
      </trkpt>
      <trkpt lat="63.34707" lon="9.0023">
        <ele>100.632866</ele>
        <time>2020-07-15T16:29:39.462Z</time>
      </trkpt>
      <trkpt lat="63.34645" lon="9.00131">
        <ele>100.740327</ele>
        <time>2020-07-15T16:29:52.565Z</time>
      </trkpt>
      <trkpt lat="63.34605" lon="9.00067">
        <ele>100.877544</ele>
        <time>2020-07-15T16:30:01.502Z</time>
      </trkpt>
      <trkpt lat="63.34538" lon="8.99972">
        <ele>101.466001</ele>
        <time>2020-07-15T16:30:17.625Z</time>
      </trkpt>
      <trkpt lat="63.34468" lon="8.99913">
        <ele>103.617777</ele>
        <time>2020-07-15T16:30:35.126Z</time>
      </trkpt>
      <trkpt lat="63.34078" lon="8.99726">
        <ele>115.481127</ele>
        <time>2020-07-15T16:32:29.369Z</time>
      </trkpt>
      <trkpt lat="63.34011" lon="8.99703">
        <ele>117.460533</ele>
        <time>2020-07-15T16:32:47.564Z</time>
      </trkpt>
      <trkpt lat="63.33948" lon="8.99712">
        <ele>118.830583</ele>
        <time>2020-07-15T16:33:03.733Z</time>
      </trkpt>
      <trkpt lat="63.3389" lon="8.99755">
        <ele>120.146695</ele>
        <time>2020-07-15T16:33:18.297Z</time>
      </trkpt>
      <trkpt lat="63.33847" lon="8.9981">
        <ele>121.146317</ele>
        <time>2020-07-15T16:33:29.789Z</time>
      </trkpt>
      <trkpt lat="63.33769" lon="8.99954">
        <ele>122.520589</ele>
        <time>2020-07-15T16:33:53.243Z</time>
      </trkpt>
      <trkpt lat="63.3376" lon="8.99971">
        <ele>122.67675</ele>
        <time>2020-07-15T16:33:55.265Z</time>
      </trkpt>
      <trkpt lat="63.33753" lon="8.99983">
        <ele>122.796613</ele>
        <time>2020-07-15T16:33:57.783Z</time>
      </trkpt>
      <trkpt lat="63.33433" lon="9.00581">
        <ele>125.327098</ele>
        <time>2020-07-15T16:35:23.133Z</time>
      </trkpt>
      <trkpt lat="63.33391" lon="9.0064">
        <ele>123.659566</ele>
        <time>2020-07-15T16:35:29.611Z</time>
      </trkpt>
      <trkpt lat="63.33221" lon="9.00829">
        <ele>117.784508</ele>
        <time>2020-07-15T16:35:53.107Z</time>
      </trkpt>
      <trkpt lat="63.33186" lon="9.00867">
        <ele>116.776367</ele>
        <time>2020-07-15T16:35:58.342Z</time>
      </trkpt>
      <trkpt lat="63.33172" lon="9.00883">
        <ele>116.360613</ele>
        <time>2020-07-15T16:36:00.599Z</time>
      </trkpt>
      <trkpt lat="63.33118" lon="9.00937">
        <ele>114.942502</ele>
        <time>2020-07-15T16:36:09.660Z</time>
      </trkpt>
      <trkpt lat="63.33105" lon="9.00947">
        <ele>115.070748</ele>
        <time>2020-07-15T16:36:12.106Z</time>
      </trkpt>
      <trkpt lat="63.3309" lon="9.00956">
        <ele>115.205951</ele>
        <time>2020-07-15T16:36:14.873Z</time>
      </trkpt>
      <trkpt lat="63.33012" lon="9.00968">
        <ele>115.907609</ele>
        <time>2020-07-15T16:36:31.316Z</time>
      </trkpt>
      <trkpt lat="63.32962" lon="9.00949">
        <ele>116.363387</ele>
        <time>2020-07-15T16:36:42.998Z</time>
      </trkpt>
      <trkpt lat="63.32882" lon="9.00876">
        <ele>118.292657</ele>
        <time>2020-07-15T16:37:03.885Z</time>
      </trkpt>
      <trkpt lat="63.32751" lon="9.00735">
        <ele>122.729617</ele>
        <time>2020-07-15T16:37:43.337Z</time>
      </trkpt>
      <trkpt lat="63.32701" lon="9.00697">
        <ele>125.216967</ele>
        <time>2020-07-15T16:38:00.154Z</time>
      </trkpt>
      <trkpt lat="63.32632" lon="9.0068">
        <ele>128.419904</ele>
        <time>2020-07-15T16:38:24.502Z</time>
      </trkpt>
      <trkpt lat="63.32565" lon="9.00692">
        <ele>131.767212</ele>
        <time>2020-07-15T16:38:48.926Z</time>
      </trkpt>
      <trkpt lat="63.32555" lon="9.00695">
        <ele>132.311068</ele>
        <time>2020-07-15T16:38:53.683Z</time>
      </trkpt>
      <trkpt lat="63.32546" lon="9.00698">
        <ele>132.756504</ele>
        <time>2020-07-15T16:38:56.594Z</time>
      </trkpt>
      <trkpt lat="63.32535" lon="9.00701">
        <ele>133.338909</ele>
        <time>2020-07-15T16:39:00.055Z</time>
      </trkpt>
      <trkpt lat="63.32513" lon="9.00708">
        <ele>134.474621</ele>
        <time>2020-07-15T16:39:08.644Z</time>
      </trkpt>
      <trkpt lat="63.32452" lon="9.00746">
        <ele>137.72447</ele>
        <time>2020-07-15T16:39:30.423Z</time>
      </trkpt>
      <trkpt lat="63.32127" lon="9.01073">
        <ele>148.560238</ele>
        <time>2020-07-15T16:41:06.894Z</time>
      </trkpt>
      <trkpt lat="63.32065" lon="9.01168">
        <ele>150.884287</ele>
        <time>2020-07-15T16:41:25.457Z</time>
      </trkpt>
      <trkpt lat="63.31943" lon="9.01402">
        <ele>156.640603</ele>
        <time>2020-07-15T16:42:12.706Z</time>
      </trkpt>
      <trkpt lat="63.3193" lon="9.01424">
        <ele>157.430453</ele>
        <time>2020-07-15T16:42:18.122Z</time>
      </trkpt>
      <trkpt lat="63.31928" lon="9.01428">
        <ele>157.569169</ele>
        <time>2020-07-15T16:42:19.377Z</time>
      </trkpt>
      <trkpt lat="63.31921" lon="9.01439">
        <ele>157.980267</ele>
        <time>2020-07-15T16:42:22.096Z</time>
      </trkpt>
      <trkpt lat="63.319" lon="9.01466">
        <ele>159.133575</ele>
        <time>2020-07-15T16:42:29.755Z</time>
      </trkpt>
      <trkpt lat="63.31891" lon="9.01476">
        <ele>159.633912</ele>
        <time>2020-07-15T16:42:33.585Z</time>
      </trkpt>
      <trkpt lat="63.31816" lon="9.01526">
        <ele>163.364547</ele>
        <time>2020-07-15T16:43:00.226Z</time>
      </trkpt>
      <trkpt lat="63.31679" lon="9.01535">
        <ele>171.548755</ele>
        <time>2020-07-15T16:43:49.776Z</time>
      </trkpt>
      <trkpt lat="63.31637" lon="9.01557">
        <ele>174.165032</ele>
        <time>2020-07-15T16:44:06.750Z</time>
      </trkpt>
      <trkpt lat="63.31593" lon="9.01601">
        <ele>177.754124</ele>
        <time>2020-07-15T16:44:26.206Z</time>
      </trkpt>
      <trkpt lat="63.31433" lon="9.01868">
        <ele>193.179257</ele>
        <time>2020-07-15T16:45:54.067Z</time>
      </trkpt>
      <trkpt lat="63.31377" lon="9.01939">
        <ele>198.074843</ele>
        <time>2020-07-15T16:46:21.566Z</time>
      </trkpt>
      <trkpt lat="63.3132" lon="9.01975">
        <ele>202.453224</ele>
        <time>2020-07-15T16:46:45.724Z</time>
      </trkpt>
      <trkpt lat="63.31175" lon="9.02006">
        <ele>210.79462</ele>
        <time>2020-07-15T16:47:39.941Z</time>
      </trkpt>
      <trkpt lat="63.31129" lon="9.02031">
        <ele>212.647366</ele>
        <time>2020-07-15T16:47:54.729Z</time>
      </trkpt>
      <trkpt lat="63.31092" lon="9.02064">
        <ele>213.072159</ele>
        <time>2020-07-15T16:48:06.040Z</time>
      </trkpt>
      <trkpt lat="63.31078" lon="9.02081">
        <ele>213.240147</ele>
        <time>2020-07-15T16:48:10.600Z</time>
      </trkpt>
      <trkpt lat="63.31055" lon="9.02112">
        <ele>213.519143</ele>
        <time>2020-07-15T16:48:16.109Z</time>
      </trkpt>
      <trkpt lat="63.31" lon="9.02193">
        <ele>214.2087</ele>
        <time>2020-07-15T16:48:26.620Z</time>
      </trkpt>
      <trkpt lat="63.30963" lon="9.02249">
        <ele>212.533912</ele>
        <time>2020-07-15T16:48:32.800Z</time>
      </trkpt>
      <trkpt lat="63.30916" lon="9.02319">
        <ele>209.378973</ele>
        <time>2020-07-15T16:48:39.670Z</time>
      </trkpt>
      <trkpt lat="63.3084" lon="9.02419">
        <ele>204.50199</ele>
        <time>2020-07-15T16:48:49.736Z</time>
      </trkpt>
      <trkpt lat="63.30519" lon="9.02753">
        <ele>174.560089</ele>
        <time>2020-07-15T16:49:29.200Z</time>
      </trkpt>
      <trkpt lat="63.30407" lon="9.02893">
        <ele>165.512636</ele>
        <time>2020-07-15T16:49:43.890Z</time>
      </trkpt>
      <trkpt lat="63.30224" lon="9.03188">
        <ele>151.618707</ele>
        <time>2020-07-15T16:50:10.502Z</time>
      </trkpt>
      <trkpt lat="63.30188" lon="9.03269">
        <ele>148.884896</ele>
        <time>2020-07-15T16:50:16.695Z</time>
      </trkpt>
      <trkpt lat="63.30075" lon="9.03569">
        <ele>139.511051</ele>
        <time>2020-07-15T16:50:38.052Z</time>
      </trkpt>
      <trkpt lat="63.30004" lon="9.03756">
        <ele>132.775298</ele>
        <time>2020-07-15T16:50:51.000Z</time>
      </trkpt>
      <trkpt lat="63.29967" lon="9.03856">
        <ele>128.789266</ele>
        <time>2020-07-15T16:50:57.604Z</time>
      </trkpt>
      <trkpt lat="63.29941" lon="9.03928">
        <ele>125.521155</ele>
        <time>2020-07-15T16:51:02.250Z</time>
      </trkpt>
      <trkpt lat="63.29916" lon="9.04023">
        <ele>121.566299</ele>
        <time>2020-07-15T16:51:07.865Z</time>
      </trkpt>
      <trkpt lat="63.29911" lon="9.04045">
        <ele>120.677063</ele>
        <time>2020-07-15T16:51:09.071Z</time>
      </trkpt>
      <trkpt lat="63.2987" lon="9.04248">
        <ele>112.991055</ele>
        <time>2020-07-15T16:51:20.375Z</time>
      </trkpt>
      <trkpt lat="63.29847" lon="9.04392">
        <ele>107.976035</ele>
        <time>2020-07-15T16:51:28.083Z</time>
      </trkpt>
      <trkpt lat="63.29838" lon="9.04534">
        <ele>103.245937</ele>
        <time>2020-07-15T16:51:35.585Z</time>
      </trkpt>
      <trkpt lat="63.2984" lon="9.04659">
        <ele>100.090582</ele>
        <time>2020-07-15T16:51:42.278Z</time>
      </trkpt>
      <trkpt lat="63.29854" lon="9.04799">
        <ele>96.53065</ele>
        <time>2020-07-15T16:51:49.992Z</time>
      </trkpt>
      <trkpt lat="63.29874" lon="9.04924">
        <ele>93.233982</ele>
        <time>2020-07-15T16:51:57.175Z</time>
      </trkpt>
      <trkpt lat="63.29875" lon="9.04927">
        <ele>93.145472</ele>
        <time>2020-07-15T16:51:57.342Z</time>
      </trkpt>
      <trkpt lat="63.29883" lon="9.04988">
        <ele>91.510832</ele>
        <time>2020-07-15T16:52:00.920Z</time>
      </trkpt>
      <trkpt lat="63.29885" lon="9.05052">
        <ele>89.871114</ele>
        <time>2020-07-15T16:52:04.399Z</time>
      </trkpt>
      <trkpt lat="63.29884" lon="9.05071">
        <ele>89.389597</ele>
        <time>2020-07-15T16:52:05.435Z</time>
      </trkpt>
      <trkpt lat="63.29883" lon="9.05091">
        <ele>88.881462</ele>
        <time>2020-07-15T16:52:06.427Z</time>
      </trkpt>
      <trkpt lat="63.29866" lon="9.05172">
        <ele>86.606729</ele>
        <time>2020-07-15T16:52:11.281Z</time>
      </trkpt>
      <trkpt lat="63.29801" lon="9.05373">
        <ele>80.095616</ele>
        <time>2020-07-15T16:52:24.284Z</time>
      </trkpt>
      <trkpt lat="63.29791" lon="9.05425">
        <ele>78.561684</ele>
        <time>2020-07-15T16:52:27.288Z</time>
      </trkpt>
      <trkpt lat="63.29785" lon="9.05506">
        <ele>76.327323</ele>
        <time>2020-07-15T16:52:31.635Z</time>
      </trkpt>
      <trkpt lat="63.29784" lon="9.0553">
        <ele>75.676902</ele>
        <time>2020-07-15T16:52:32.872Z</time>
      </trkpt>
      <trkpt lat="63.29782" lon="9.05575">
        <ele>74.445846</ele>
        <time>2020-07-15T16:52:35.267Z</time>
      </trkpt>
      <trkpt lat="63.29767" lon="9.05666">
        <ele>71.812126</ele>
        <time>2020-07-15T16:52:40.430Z</time>
      </trkpt>
      <trkpt lat="63.29731" lon="9.05774">
        <ele>68.567572</ele>
        <time>2020-07-15T16:52:47.549Z</time>
      </trkpt>
      <trkpt lat="63.29724" lon="9.05806">
        <ele>67.713974</ele>
        <time>2020-07-15T16:52:49.428Z</time>
      </trkpt>
      <trkpt lat="63.2972" lon="9.05875">
        <ele>66.039038</ele>
        <time>2020-07-15T16:52:53.136Z</time>
      </trkpt>
      <trkpt lat="63.29721" lon="9.06058">
        <ele>61.832068</ele>
        <time>2020-07-15T16:53:03.275Z</time>
      </trkpt>
      <trkpt lat="63.29713" lon="9.06188">
        <ele>59.481212</ele>
        <time>2020-07-15T16:53:10.623Z</time>
      </trkpt>
      <trkpt lat="63.29695" lon="9.06306">
        <ele>57.237892</ele>
        <time>2020-07-15T16:53:17.706Z</time>
      </trkpt>
      <trkpt lat="63.29665" lon="9.06414">
        <ele>54.986911</ele>
        <time>2020-07-15T16:53:25.160Z</time>
      </trkpt>
      <trkpt lat="63.29644" lon="9.06479">
        <ele>53.743332</ele>
        <time>2020-07-15T16:53:29.800Z</time>
      </trkpt>
      <trkpt lat="63.29649" lon="9.06487">
        <ele>53.535512</ele>
        <time>2020-07-15T16:53:30.892Z</time>
      </trkpt>
      <trkpt lat="63.29648" lon="9.06494">
        <ele>53.428834</ele>
        <time>2020-07-15T16:53:31.254Z</time>
      </trkpt>
      <trkpt lat="63.29597" lon="9.06653">
        <ele>50.377154</ele>
        <time>2020-07-15T16:53:42.727Z</time>
      </trkpt>
      <trkpt lat="63.29587" lon="9.06683">
        <ele>49.807047</ele>
        <time>2020-07-15T16:53:44.846Z</time>
      </trkpt>
      <trkpt lat="63.29581" lon="9.06703">
        <ele>49.432603</ele>
        <time>2020-07-15T16:53:46.218Z</time>
      </trkpt>
      <trkpt lat="63.29563" lon="9.06757">
        <ele>48.287169</ele>
        <time>2020-07-15T16:53:50.060Z</time>
      </trkpt>
      <trkpt lat="63.29527" lon="9.06866">
        <ele>45.803576</ele>
        <time>2020-07-15T16:53:57.931Z</time>
      </trkpt>
      <trkpt lat="63.29515" lon="9.0693">
        <ele>44.543985</ele>
        <time>2020-07-15T16:54:01.828Z</time>
      </trkpt>
      <trkpt lat="63.29501" lon="9.07445">
        <ele>33.697074</ele>
        <time>2020-07-15T16:54:30.288Z</time>
      </trkpt>
      <trkpt lat="63.29468" lon="9.07641">
        <ele>28.318679</ele>
        <time>2020-07-15T16:54:41.368Z</time>
      </trkpt>
      <trkpt lat="63.29465" lon="9.07788">
        <ele>24.405915</ele>
        <time>2020-07-15T16:54:49.075Z</time>
      </trkpt>
      <trkpt lat="63.29459" lon="9.07838">
        <ele>23.062686</ele>
        <time>2020-07-15T16:54:51.818Z</time>
      </trkpt>
      <trkpt lat="63.29457" lon="9.07849">
        <ele>22.749156</ele>
        <time>2020-07-15T16:54:52.393Z</time>
      </trkpt>
      <trkpt lat="63.29455" lon="9.07867">
        <ele>22.244506</ele>
        <time>2020-07-15T16:54:53.419Z</time>
      </trkpt>
      <trkpt lat="63.29451" lon="9.07885">
        <ele>21.878451</ele>
        <time>2020-07-15T16:54:54.557Z</time>
      </trkpt>
      <trkpt lat="63.29446" lon="9.0788">
        <ele>21.687029</ele>
        <time>2020-07-15T16:54:55.210Z</time>
      </trkpt>
      <trkpt lat="63.29443" lon="9.07877">
        <ele>21.574002</ele>
        <time>2020-07-15T16:54:55.625Z</time>
      </trkpt>
      <trkpt lat="63.29441" lon="9.07875">
        <ele>21.468814</ele>
        <time>2020-07-15T16:54:56.045Z</time>
      </trkpt>
      <trkpt lat="63.29434" lon="9.07904">
        <ele>20.93846</ele>
        <time>2020-07-15T16:54:57.855Z</time>
      </trkpt>
      <trkpt lat="63.29423" lon="9.07944">
        <ele>20.187276</ele>
        <time>2020-07-15T16:55:00.616Z</time>
      </trkpt>
      <trkpt lat="63.2942" lon="9.07955">
        <ele>19.985539</ele>
        <time>2020-07-15T16:55:01.261Z</time>
      </trkpt>
      <trkpt lat="63.29418" lon="9.07966">
        <ele>19.793384</ele>
        <time>2020-07-15T16:55:01.924Z</time>
      </trkpt>
      <trkpt lat="63.29415" lon="9.07978">
        <ele>19.566083</ele>
        <time>2020-07-15T16:55:02.721Z</time>
      </trkpt>
      <trkpt lat="63.29395" lon="9.0805">
        <ele>18.221292</ele>
        <time>2020-07-15T16:55:07.639Z</time>
      </trkpt>
      <trkpt lat="63.29388" lon="9.08074">
        <ele>17.756284</ele>
        <time>2020-07-15T16:55:09.715Z</time>
      </trkpt>
      <trkpt lat="63.2938" lon="9.08101">
        <ele>17.229323</ele>
        <time>2020-07-15T16:55:11.656Z</time>
      </trkpt>
      <trkpt lat="63.29377" lon="9.08111">
        <ele>17.02655</ele>
        <time>2020-07-15T16:55:12.380Z</time>
      </trkpt>
      <trkpt lat="63.29366" lon="9.08148">
        <ele>16.319052</ele>
        <time>2020-07-15T16:55:15.747Z</time>
      </trkpt>
      <trkpt lat="63.29344" lon="9.08195">
        <ele>15.242039</ele>
        <time>2020-07-15T16:55:19.724Z</time>
      </trkpt>
      <trkpt lat="63.29318" lon="9.08234">
        <ele>14.129082</ele>
        <time>2020-07-15T16:55:23.821Z</time>
      </trkpt>
      <trkpt lat="63.29304" lon="9.08243">
        <ele>13.635155</ele>
        <time>2020-07-15T16:55:25.710Z</time>
      </trkpt>
      <trkpt lat="63.29287" lon="9.08239">
        <ele>13.02074</ele>
        <time>2020-07-15T16:55:27.965Z</time>
      </trkpt>
      <trkpt lat="63.29278" lon="9.08237">
        <ele>12.683652</ele>
        <time>2020-07-15T16:55:29.589Z</time>
      </trkpt>
      <trkpt lat="63.29261" lon="9.08238">
        <ele>12.107634</ele>
        <time>2020-07-15T16:55:31.550Z</time>
      </trkpt>
      <trkpt lat="63.2926" lon="9.08239">
        <ele>12.04683</ele>
        <time>2020-07-15T16:55:31.760Z</time>
      </trkpt>
      <trkpt lat="63.29255" lon="9.08249">
        <ele>11.809048</ele>
        <time>2020-07-15T16:55:32.736Z</time>
      </trkpt>
      <trkpt lat="63.29255" lon="9.08265">
        <ele>11.555406</ele>
        <time>2020-07-15T16:55:33.964Z</time>
      </trkpt>
      <trkpt lat="63.29263" lon="9.08269">
        <ele>11.29437</ele>
        <time>2020-07-15T16:55:35.199Z</time>
      </trkpt>
      <trkpt lat="63.29263" lon="9.08264">
        <ele>11.210108</ele>
        <time>2020-07-15T16:55:35.514Z</time>
      </trkpt>
      <trkpt lat="63.29263" lon="9.08278">
        <ele>10.981734</ele>
        <time>2020-07-15T16:55:36.200Z</time>
      </trkpt>
      <trkpt lat="63.29247" lon="9.08373">
        <ele>9.379566</ele>
        <time>2020-07-15T16:55:41.746Z</time>
      </trkpt>
      <trkpt lat="63.29187" lon="9.08541">
        <ele>5.68719</ele>
        <time>2020-07-15T16:55:53.635Z</time>
      </trkpt>
      <trkpt lat="63.2918" lon="9.08556">
        <ele>5.325511</ele>
        <time>2020-07-15T16:55:54.710Z</time>
      </trkpt>
      <trkpt lat="63.29185" lon="9.08565">
        <ele>5.083352</ele>
        <time>2020-07-15T16:55:55.642Z</time>
      </trkpt>
      <trkpt lat="63.29179" lon="9.08581">
        <ele>4.730625</ele>
        <time>2020-07-15T16:55:56.934Z</time>
      </trkpt>
      <trkpt lat="63.29168" lon="9.08608">
        <ele>4.104333</ele>
        <time>2020-07-15T16:55:59.049Z</time>
      </trkpt>
      <trkpt lat="63.29159" lon="9.08634">
        <ele>3.539091</ele>
        <time>2020-07-15T16:56:01.046Z</time>
      </trkpt>
      <trkpt lat="63.29149" lon="9.08661">
        <ele>2.925235</ele>
        <time>2020-07-15T16:56:03.364Z</time>
      </trkpt>
      <trkpt lat="63.29132" lon="9.08706">
        <ele>2.336071</ele>
        <time>2020-07-15T16:56:06.919Z</time>
      </trkpt>
      <trkpt lat="63.29113" lon="9.08757">
        <ele>2.06484</ele>
        <time>2020-07-15T16:56:11.164Z</time>
      </trkpt>
      <trkpt lat="63.29106" lon="9.08777">
        <ele>1.957827</ele>
        <time>2020-07-15T16:56:13.145Z</time>
      </trkpt>
      <trkpt lat="63.29085" lon="9.08833">
        <ele>1.663738</ele>
        <time>2020-07-15T16:56:18.085Z</time>
      </trkpt>
      <trkpt lat="63.29067" lon="9.08878">
        <ele>1.42226</ele>
        <time>2020-07-15T16:56:22.857Z</time>
      </trkpt>
      <trkpt lat="63.29059" lon="9.089">
        <ele>1.306199</ele>
        <time>2020-07-15T16:56:25.134Z</time>
      </trkpt>
      <trkpt lat="63.29052" lon="9.08919">
        <ele>1.203368</ele>
        <time>2020-07-15T16:56:27.060Z</time>
      </trkpt>
      <trkpt lat="63.29048" lon="9.08913">
        <ele>1.161208</ele>
        <time>2020-07-15T16:56:27.864Z</time>
      </trkpt>
      <trkpt lat="63.29043" lon="9.0893">
        <ele>1.07816</ele>
        <time>2020-07-15T16:56:29.492Z</time>
      </trkpt>
      <trkpt lat="63.29035" lon="9.08951">
        <ele>0.966021</ele>
        <time>2020-07-15T16:56:31.703Z</time>
      </trkpt>
      <trkpt lat="63.29032" lon="9.08959">
        <ele>0.922182</ele>
        <time>2020-07-15T16:56:32.489Z</time>
      </trkpt>
      <trkpt lat="63.29013" lon="9.09">
        <ele>0.865645</ele>
        <time>2020-07-15T16:56:37.075Z</time>
      </trkpt>
      <trkpt lat="63.28982" lon="9.09046">
        <ele>0.93748</ele>
        <time>2020-07-15T16:56:43.577Z</time>
      </trkpt>
      <trkpt lat="63.28945" lon="9.09078">
        <ele>1.014643</ele>
        <time>2020-07-15T16:56:50.647Z</time>
      </trkpt>
      <trkpt lat="63.28927" lon="9.09087">
        <ele>1.050209</ele>
        <time>2020-07-15T16:56:53.937Z</time>
      </trkpt>
      <trkpt lat="63.28905" lon="9.09095">
        <ele>1.091973</ele>
        <time>2020-07-15T16:56:58.077Z</time>
      </trkpt>
      <trkpt lat="63.28835" lon="9.09118">
        <ele>1.548257</ele>
        <time>2020-07-15T16:57:12.115Z</time>
      </trkpt>
      <trkpt lat="63.28817" lon="9.09126">
        <ele>1.822187</ele>
        <time>2020-07-15T16:57:15.923Z</time>
      </trkpt>
      <trkpt lat="63.28791" lon="9.09137">
        <ele>2.217516</ele>
        <time>2020-07-15T16:57:21.906Z</time>
      </trkpt>
      <trkpt lat="63.28781" lon="9.09139">
        <ele>2.373101</ele>
        <time>2020-07-15T16:57:24.141Z</time>
      </trkpt>
      <trkpt lat="63.28755" lon="9.09143">
        <ele>2.764003</ele>
        <time>2020-07-15T16:57:30.271Z</time>
      </trkpt>
      <trkpt lat="63.28727" lon="9.09158">
        <ele>3.186958</ele>
        <time>2020-07-15T16:57:37.013Z</time>
      </trkpt>
      <trkpt lat="63.28707" lon="9.09185">
        <ele>3.540254</ele>
        <time>2020-07-15T16:57:42.532Z</time>
      </trkpt>
      <trkpt lat="63.287" lon="9.09196">
        <ele>3.661834</ele>
        <time>2020-07-15T16:57:44.732Z</time>
      </trkpt>
      <trkpt lat="63.2869" lon="9.09217">
        <ele>3.878108</ele>
        <time>2020-07-15T16:57:48.077Z</time>
      </trkpt>
      <trkpt lat="63.28681" lon="9.09235">
        <ele>4.137216</ele>
        <time>2020-07-15T16:57:50.823Z</time>
      </trkpt>
      <trkpt lat="63.28675" lon="9.0925">
        <ele>4.351317</ele>
        <time>2020-07-15T16:57:53.407Z</time>
      </trkpt>
      <trkpt lat="63.28646" lon="9.09353">
        <ele>5.591716</ele>
        <time>2020-07-15T16:58:07.066Z</time>
      </trkpt>
      <trkpt lat="63.28609" lon="9.09585">
        <ele>8.045389</ele>
        <time>2020-07-15T16:58:35.456Z</time>
      </trkpt>
      <trkpt lat="63.28606" lon="9.09645">
        <ele>8.491351</ele>
        <time>2020-07-15T16:58:41.952Z</time>
      </trkpt>
      <trkpt lat="63.28614" lon="9.09719">
        <ele>9.054409</ele>
        <time>2020-07-15T16:58:50.223Z</time>
      </trkpt>
      <trkpt lat="63.28622" lon="9.09752">
        <ele>9.324858</ele>
        <time>2020-07-15T16:58:54.447Z</time>
      </trkpt>
      <trkpt lat="63.2864" lon="9.09816">
        <ele>9.876625</ele>
        <time>2020-07-15T16:59:02.304Z</time>
      </trkpt>
      <trkpt lat="63.28673" lon="9.09953">
        <ele>10.860022</ele>
        <time>2020-07-15T16:59:17.708Z</time>
      </trkpt>
      <trkpt lat="63.28699" lon="9.10136">
        <ele>10.846089</ele>
        <time>2020-07-15T16:59:33.280Z</time>
      </trkpt>
      <trkpt lat="63.28704" lon="9.10156">
        <ele>10.844366</ele>
        <time>2020-07-15T16:59:35.297Z</time>
      </trkpt>
      <trkpt lat="63.28708" lon="9.10173">
        <ele>10.842975</ele>
        <time>2020-07-15T16:59:36.558Z</time>
      </trkpt>
      <trkpt lat="63.28722" lon="9.10211">
        <ele>10.839461</ele>
        <time>2020-07-15T16:59:40.355Z</time>
      </trkpt>
      <trkpt lat="63.2874" lon="9.10251">
        <ele>10.835323</ele>
        <time>2020-07-15T16:59:44.463Z</time>
      </trkpt>
      <trkpt lat="63.28759" lon="9.10293">
        <ele>10.755569</ele>
        <time>2020-07-15T16:59:48.766Z</time>
      </trkpt>
      <trkpt lat="63.28863" lon="9.10552">
        <ele>9.399181</ele>
        <time>2020-07-15T17:00:12.876Z</time>
      </trkpt>
      <trkpt lat="63.28868" lon="9.10559">
        <ele>9.354448</ele>
        <time>2020-07-15T17:00:14.087Z</time>
      </trkpt>
      <trkpt lat="63.2887" lon="9.10551">
        <ele>9.314602</ele>
        <time>2020-07-15T17:00:14.976Z</time>
      </trkpt>
      <trkpt lat="63.28878" lon="9.10562">
        <ele>9.312894</ele>
        <time>2020-07-15T17:00:16.344Z</time>
      </trkpt>
      <trkpt lat="63.2895" lon="9.10656">
        <ele>9.934613</ele>
        <time>2020-07-15T17:00:31.182Z</time>
      </trkpt>
      <trkpt lat="63.28988" lon="9.10742">
        <ele>10.336382</ele>
        <time>2020-07-15T17:00:42.086Z</time>
      </trkpt>
      <trkpt lat="63.2902" lon="9.10866">
        <ele>11.738032</ele>
        <time>2020-07-15T17:00:57.983Z</time>
      </trkpt>
      <trkpt lat="63.29071" lon="9.11146">
        <ele>17.382549</ele>
        <time>2020-07-15T17:01:43.676Z</time>
      </trkpt>
      <trkpt lat="63.29076" lon="9.11169">
        <ele>17.843244</ele>
        <time>2020-07-15T17:01:47.994Z</time>
      </trkpt>
      <trkpt lat="63.2908" lon="9.11193">
        <ele>18.074158</ele>
        <time>2020-07-15T17:01:52.407Z</time>
      </trkpt>
      <trkpt lat="63.29105" lon="9.11294">
        <ele>18.134213</ele>
        <time>2020-07-15T17:02:07.387Z</time>
      </trkpt>
      <trkpt lat="63.29137" lon="9.11365">
        <ele>18.186729</ele>
        <time>2020-07-15T17:02:16.486Z</time>
      </trkpt>
      <trkpt lat="63.29173" lon="9.11408">
        <ele>18.233519</ele>
        <time>2020-07-15T17:02:22.029Z</time>
      </trkpt>
      <trkpt lat="63.29218" lon="9.11426">
        <ele>18.019769</ele>
        <time>2020-07-15T17:02:27.825Z</time>
      </trkpt>
      <trkpt lat="63.29232" lon="9.11426">
        <ele>17.680986</ele>
        <time>2020-07-15T17:02:29.583Z</time>
      </trkpt>
      <trkpt lat="63.29257" lon="9.11421">
        <ele>17.036222</ele>
        <time>2020-07-15T17:02:32.564Z</time>
      </trkpt>
      <trkpt lat="63.29272" lon="9.11419">
        <ele>16.650765</ele>
        <time>2020-07-15T17:02:34.608Z</time>
      </trkpt>
      <trkpt lat="63.29279" lon="9.11419">
        <ele>16.457172</ele>
        <time>2020-07-15T17:02:35.439Z</time>
      </trkpt>
      <trkpt lat="63.29287" lon="9.11419">
        <ele>16.268506</ele>
        <time>2020-07-15T17:02:36.349Z</time>
      </trkpt>
      <trkpt lat="63.29315" lon="9.11434">
        <ele>15.524458</ele>
        <time>2020-07-15T17:02:40.115Z</time>
      </trkpt>
      <trkpt lat="63.29337" lon="9.11463">
        <ele>14.874272</ele>
        <time>2020-07-15T17:02:44.167Z</time>
      </trkpt>
      <trkpt lat="63.29361" lon="9.11524">
        <ele>13.950467</ele>
        <time>2020-07-15T17:02:49.503Z</time>
      </trkpt>
      <trkpt lat="63.29379" lon="9.11605">
        <ele>15.13995</ele>
        <time>2020-07-15T17:02:57.016Z</time>
      </trkpt>
      <trkpt lat="63.29391" lon="9.11678">
        <ele>16.785995</ele>
        <time>2020-07-15T17:03:07.528Z</time>
      </trkpt>
      <trkpt lat="63.29397" lon="9.11715">
        <ele>17.623978</ele>
        <time>2020-07-15T17:03:15.117Z</time>
      </trkpt>
      <trkpt lat="63.2943" lon="9.11916">
        <ele>22.178076</ele>
        <time>2020-07-15T17:03:53.503Z</time>
      </trkpt>
      <trkpt lat="63.29465" lon="9.12045">
        <ele>24.644365</ele>
        <time>2020-07-15T17:04:18.513Z</time>
      </trkpt>
      <trkpt lat="63.2948" lon="9.12088">
        <ele>25.557517</ele>
        <time>2020-07-15T17:04:26.535Z</time>
      </trkpt>
      <trkpt lat="63.29486" lon="9.12102">
        <ele>25.857932</ele>
        <time>2020-07-15T17:04:28.138Z</time>
      </trkpt>
      <trkpt lat="63.29528" lon="9.12186">
        <ele>27.910084</ele>
        <time>2020-07-15T17:04:42.452Z</time>
      </trkpt>
      <trkpt lat="63.29622" lon="9.12351">
        <ele>27.571249</ele>
        <time>2020-07-15T17:05:05.533Z</time>
      </trkpt>
      <trkpt lat="63.29644" lon="9.12387">
        <ele>27.239034</ele>
        <time>2020-07-15T17:05:09.015Z</time>
      </trkpt>
      <trkpt lat="63.29678" lon="9.12447">
        <ele>26.705343</ele>
        <time>2020-07-15T17:05:14.727Z</time>
      </trkpt>
      <trkpt lat="63.29743" lon="9.12539">
        <ele>23.655461</ele>
        <time>2020-07-15T17:05:24.482Z</time>
      </trkpt>
      <trkpt lat="63.29749" lon="9.12546">
        <ele>23.331944</ele>
        <time>2020-07-15T17:05:25.391Z</time>
      </trkpt>
      <trkpt lat="63.29766" lon="9.12562">
        <ele>22.495743</ele>
        <time>2020-07-15T17:05:27.562Z</time>
      </trkpt>
      <trkpt lat="63.29855" lon="9.12633">
        <ele>18.319973</ele>
        <time>2020-07-15T17:05:39.121Z</time>
      </trkpt>
      <trkpt lat="63.29895" lon="9.12681">
        <ele>17.05586</ele>
        <time>2020-07-15T17:05:44.482Z</time>
      </trkpt>
      <trkpt lat="63.3001" lon="9.12853">
        <ele>13.548205</ele>
        <time>2020-07-15T17:06:03.680Z</time>
      </trkpt>
      <trkpt lat="63.30073" lon="9.12999">
        <ele>14.680848</ele>
        <time>2020-07-15T17:06:24.247Z</time>
      </trkpt>
      <trkpt lat="63.3008" lon="9.13016">
        <ele>14.810063</ele>
        <time>2020-07-15T17:06:26.756Z</time>
      </trkpt>
      <trkpt lat="63.30101" lon="9.13065">
        <ele>15.181099</ele>
        <time>2020-07-15T17:06:34.954Z</time>
      </trkpt>
      <trkpt lat="63.30143" lon="9.13153">
        <ele>15.560481</ele>
        <time>2020-07-15T17:06:49.527Z</time>
      </trkpt>
      <trkpt lat="63.30177" lon="9.13205">
        <ele>15.298642</ele>
        <time>2020-07-15T17:06:58.676Z</time>
      </trkpt>
      <trkpt lat="63.30245" lon="9.13256">
        <ele>14.841093</ele>
        <time>2020-07-15T17:07:09.799Z</time>
      </trkpt>
      <trkpt lat="63.30254" lon="9.13258">
        <ele>14.785305</ele>
        <time>2020-07-15T17:07:11.988Z</time>
      </trkpt>
      <trkpt lat="63.3027" lon="9.13255">
        <ele>14.68248</ele>
        <time>2020-07-15T17:07:13.971Z</time>
      </trkpt>
      <trkpt lat="63.30293" lon="9.13239">
        <ele>14.528172</ele>
        <time>2020-07-15T17:07:17.111Z</time>
      </trkpt>
      <trkpt lat="63.30308" lon="9.13216">
        <ele>14.051197</ele>
        <time>2020-07-15T17:07:19.327Z</time>
      </trkpt>
      <trkpt lat="63.30355" lon="9.13108">
        <ele>12.318411</ele>
        <time>2020-07-15T17:07:28.168Z</time>
      </trkpt>
      <trkpt lat="63.30363" lon="9.13097">
        <ele>12.063885</ele>
        <time>2020-07-15T17:07:29.314Z</time>
      </trkpt>
      <trkpt lat="63.30365" lon="9.13093">
        <ele>11.985952</ele>
        <time>2020-07-15T17:07:30.027Z</time>
      </trkpt>
      <trkpt lat="63.30394" lon="9.13077">
        <ele>11.214592</ele>
        <time>2020-07-15T17:07:33.807Z</time>
      </trkpt>
      <trkpt lat="63.30426" lon="9.13088">
        <ele>10.389058</ele>
        <time>2020-07-15T17:07:38.646Z</time>
      </trkpt>
      <trkpt lat="63.30437" lon="9.13104">
        <ele>10.040404</ele>
        <time>2020-07-15T17:07:40.582Z</time>
      </trkpt>
      <trkpt lat="63.30442" lon="9.13112">
        <ele>9.888861</ele>
        <time>2020-07-15T17:07:42.210Z</time>
      </trkpt>
      <trkpt lat="63.30498" lon="9.13237">
        <ele>10.638818</ele>
        <time>2020-07-15T17:07:55.959Z</time>
      </trkpt>
      <trkpt lat="63.30519" lon="9.13265">
        <ele>10.87714</ele>
        <time>2020-07-15T17:08:01.895Z</time>
      </trkpt>
      <trkpt lat="63.3054" lon="9.13274">
        <ele>11.075175</ele>
        <time>2020-07-15T17:08:06.551Z</time>
      </trkpt>
      <trkpt lat="63.30552" lon="9.13273">
        <ele>11.189337</ele>
        <time>2020-07-15T17:08:09.752Z</time>
      </trkpt>
      <trkpt lat="63.3056" lon="9.1327">
        <ele>11.265553</ele>
        <time>2020-07-15T17:08:12.040Z</time>
      </trkpt>
      <trkpt lat="63.30588" lon="9.13257">
        <ele>11.538943</ele>
        <time>2020-07-15T17:08:19.299Z</time>
      </trkpt>
      <trkpt lat="63.30672" lon="9.1321">
        <ele>13.570694</ele>
        <time>2020-07-15T17:08:40.262Z</time>
      </trkpt>
      <trkpt lat="63.30677" lon="9.13208">
        <ele>13.694527</ele>
        <time>2020-07-15T17:08:41.516Z</time>
      </trkpt>
      <trkpt lat="63.30699" lon="9.13196">
        <ele>14.256825</ele>
        <time>2020-07-15T17:08:47.791Z</time>
      </trkpt>
      <trkpt lat="63.3071" lon="9.13191">
        <ele>14.539456</ele>
        <time>2020-07-15T17:08:50.628Z</time>
      </trkpt>
      <trkpt lat="63.30729" lon="9.13182">
        <ele>15.009267</ele>
        <time>2020-07-15T17:08:55.600Z</time>
      </trkpt>
      <trkpt lat="63.30749" lon="9.1317">
        <ele>15.510429</ele>
        <time>2020-07-15T17:09:00.862Z</time>
      </trkpt>
      <trkpt lat="63.30785" lon="9.13152">
        <ele>16.548581</ele>
        <time>2020-07-15T17:09:10.873Z</time>
      </trkpt>
      <trkpt lat="63.30786" lon="9.13151">
        <ele>16.581826</ele>
        <time>2020-07-15T17:09:11.236Z</time>
      </trkpt>
      <trkpt lat="63.30804" lon="9.13141">
        <ele>17.185017</ele>
        <time>2020-07-15T17:09:16.428Z</time>
      </trkpt>
      <trkpt lat="63.30811" lon="9.13137">
        <ele>17.437996</ele>
        <time>2020-07-15T17:09:18.600Z</time>
      </trkpt>
      <trkpt lat="63.30823" lon="9.13131">
        <ele>17.81796</ele>
        <time>2020-07-15T17:09:21.951Z</time>
      </trkpt>
      <trkpt lat="63.30828" lon="9.13128">
        <ele>17.992199</ele>
        <time>2020-07-15T17:09:23.491Z</time>
      </trkpt>
      <trkpt lat="63.30832" lon="9.13126">
        <ele>18.134118</ele>
        <time>2020-07-15T17:09:24.749Z</time>
      </trkpt>
      <trkpt lat="63.30843" lon="9.13122">
        <ele>18.470577</ele>
        <time>2020-07-15T17:09:27.899Z</time>
      </trkpt>
      <trkpt lat="63.30897" lon="9.13119">
        <ele>20.232397</ele>
        <time>2020-07-15T17:09:42.949Z</time>
      </trkpt>
      <trkpt lat="63.30942" lon="9.13147">
        <ele>21.746784</ele>
        <time>2020-07-15T17:09:56.487Z</time>
      </trkpt>
      <trkpt lat="63.30998" lon="9.13228">
        <ele>24.076625</ele>
        <time>2020-07-15T17:10:16.293Z</time>
      </trkpt>
      <trkpt lat="63.31028" lon="9.13304">
        <ele>25.641836</ele>
        <time>2020-07-15T17:10:29.075Z</time>
      </trkpt>
      <trkpt lat="63.31032" lon="9.13321">
        <ele>25.946022</ele>
        <time>2020-07-15T17:10:32.052Z</time>
      </trkpt>
      <trkpt lat="63.31035" lon="9.13332">
        <ele>26.153115</ele>
        <time>2020-07-15T17:10:34.060Z</time>
      </trkpt>
      <trkpt lat="63.31043" lon="9.13366">
        <ele>26.73894</ele>
        <time>2020-07-15T17:10:38.492Z</time>
      </trkpt>
      <trkpt lat="63.31062" lon="9.13456">
        <ele>28.24774</ele>
        <time>2020-07-15T17:10:51.587Z</time>
      </trkpt>
      <trkpt lat="63.31066" lon="9.13479">
        <ele>28.553689</ele>
        <time>2020-07-15T17:10:55.122Z</time>
      </trkpt>
      <trkpt lat="63.31071" lon="9.13509">
        <ele>28.965595</ele>
        <time>2020-07-15T17:10:58.716Z</time>
      </trkpt>
      <trkpt lat="63.3109" lon="9.13601">
        <ele>30.232818</ele>
        <time>2020-07-15T17:11:10.953Z</time>
      </trkpt>
      <trkpt lat="63.31107" lon="9.13694">
        <ele>31.496136</ele>
        <time>2020-07-15T17:11:22.117Z</time>
      </trkpt>
      <trkpt lat="63.3111" lon="9.13708">
        <ele>31.687674</ele>
        <time>2020-07-15T17:11:23.568Z</time>
      </trkpt>
      <trkpt lat="63.31142" lon="9.13868">
        <ele>34.127679</ele>
        <time>2020-07-15T17:11:44.703Z</time>
      </trkpt>
      <trkpt lat="63.31165" lon="9.13986">
        <ele>36.26223</ele>
        <time>2020-07-15T17:12:02.693Z</time>
      </trkpt>
      <trkpt lat="63.31171" lon="9.14018">
        <ele>36.841427</ele>
        <time>2020-07-15T17:12:07.263Z</time>
      </trkpt>
      <trkpt lat="63.31173" lon="9.14031">
        <ele>37.064683</ele>
        <time>2020-07-15T17:12:09.101Z</time>
      </trkpt>
      <trkpt lat="63.31195" lon="9.14142">
        <ele>39.064933</ele>
        <time>2020-07-15T17:12:27.567Z</time>
      </trkpt>
      <trkpt lat="63.31248" lon="9.14394">
        <ele>39.547175</ele>
        <time>2020-07-15T17:13:00.090Z</time>
      </trkpt>
      <trkpt lat="63.31275" lon="9.14461">
        <ele>39.474777</ele>
        <time>2020-07-15T17:13:05.776Z</time>
      </trkpt>
      <trkpt lat="63.3128" lon="9.14472">
        <ele>39.461492</ele>
        <time>2020-07-15T17:13:07.047Z</time>
      </trkpt>
      <trkpt lat="63.31296" lon="9.14499">
        <ele>39.425731</ele>
        <time>2020-07-15T17:13:09.351Z</time>
      </trkpt>
      <trkpt lat="63.31325" lon="9.14533">
        <ele>36.879832</ele>
        <time>2020-07-15T17:13:13.387Z</time>
      </trkpt>
      <trkpt lat="63.31326" lon="9.14534">
        <ele>36.79679</ele>
        <time>2020-07-15T17:13:13.480Z</time>
      </trkpt>
      <trkpt lat="63.31329" lon="9.14538">
        <ele>36.486774</ele>
        <time>2020-07-15T17:13:13.818Z</time>
      </trkpt>
      <trkpt lat="63.31367" lon="9.14562">
        <ele>32.835764</ele>
        <time>2020-07-15T17:13:18.225Z</time>
      </trkpt>
      <trkpt lat="63.31432" lon="9.14576">
        <ele>26.750517</ele>
        <time>2020-07-15T17:13:25.338Z</time>
      </trkpt>
      <trkpt lat="63.3146" lon="9.14596">
        <ele>24.010903</ele>
        <time>2020-07-15T17:13:28.529Z</time>
      </trkpt>
      <trkpt lat="63.31475" lon="9.14623">
        <ele>22.327543</ele>
        <time>2020-07-15T17:13:30.542Z</time>
      </trkpt>
      <trkpt lat="63.31516" lon="9.14746">
        <ele>17.176948</ele>
        <time>2020-07-15T17:13:38.057Z</time>
      </trkpt>
      <trkpt lat="63.31596" lon="9.14848">
        <ele>10.260925</ele>
        <time>2020-07-15T17:13:48.830Z</time>
      </trkpt>
      <trkpt lat="63.31602" lon="9.1486">
        <ele>9.666201</ele>
        <time>2020-07-15T17:13:49.748Z</time>
      </trkpt>
      <trkpt lat="63.3163" lon="9.14912">
        <ele>10.1639</ele>
        <time>2020-07-15T17:13:54.773Z</time>
      </trkpt>
      <trkpt lat="63.31636" lon="9.14922">
        <ele>10.363664</ele>
        <time>2020-07-15T17:13:56.132Z</time>
      </trkpt>
      <trkpt lat="63.31661" lon="9.14956">
        <ele>11.181958</ele>
        <time>2020-07-15T17:14:01.493Z</time>
      </trkpt>
      <trkpt lat="63.31738" lon="9.14997">
        <ele>13.398716</ele>
        <time>2020-07-15T17:14:25.905Z</time>
      </trkpt>
      <trkpt lat="63.31759" lon="9.1503">
        <ele>14.12984</ele>
        <time>2020-07-15T17:14:37.296Z</time>
      </trkpt>
      <trkpt lat="63.31787" lon="9.15118">
        <ele>18.729712</ele>
        <time>2020-07-15T17:15:01.085Z</time>
      </trkpt>
      <trkpt lat="63.31894" lon="9.15527">
        <ele>40.088442</ele>
        <time>2020-07-15T17:16:57.971Z</time>
      </trkpt>
      <trkpt lat="63.31994" lon="9.16078">
        <ele>58.396633</ele>
        <time>2020-07-15T17:18:43.499Z</time>
      </trkpt>
      <trkpt lat="63.32033" lon="9.16385">
        <ele>59.374454</ele>
        <time>2020-07-15T17:19:11.656Z</time>
      </trkpt>
      <trkpt lat="63.32094" lon="9.16669">
        <ele>57.687329</ele>
        <time>2020-07-15T17:19:30.490Z</time>
      </trkpt>
      <trkpt lat="63.32149" lon="9.17044">
        <ele>54.6187</ele>
        <time>2020-07-15T17:19:57.659Z</time>
      </trkpt>
      <trkpt lat="63.32169" lon="9.17134">
        <ele>53.929491</ele>
        <time>2020-07-15T17:20:05.739Z</time>
      </trkpt>
      <trkpt lat="63.32198" lon="9.17213">
        <ele>53.222378</ele>
        <time>2020-07-15T17:20:12.335Z</time>
      </trkpt>
      <trkpt lat="63.3226" lon="9.17326">
        <ele>47.507958</ele>
        <time>2020-07-15T17:20:22.056Z</time>
      </trkpt>
      <trkpt lat="63.32301" lon="9.17469">
        <ele>41.734481</ele>
        <time>2020-07-15T17:20:30.381Z</time>
      </trkpt>
      <trkpt lat="63.32318" lon="9.175">
        <ele>40.076675</ele>
        <time>2020-07-15T17:20:32.693Z</time>
      </trkpt>
      <trkpt lat="63.32386" lon="9.17569">
        <ele>38.428466</ele>
        <time>2020-07-15T17:20:41.040Z</time>
      </trkpt>
      <trkpt lat="63.32401" lon="9.17598">
        <ele>38.099274</ele>
        <time>2020-07-15T17:20:43.517Z</time>
      </trkpt>
      <trkpt lat="63.32413" lon="9.17639">
        <ele>37.725722</ele>
        <time>2020-07-15T17:20:47.288Z</time>
      </trkpt>
      <trkpt lat="63.32421" lon="9.17683">
        <ele>37.368089</ele>
        <time>2020-07-15T17:20:50.417Z</time>
      </trkpt>
      <trkpt lat="63.32441" lon="9.17802">
        <ele>37.477268</ele>
        <time>2020-07-15T17:21:11.138Z</time>
      </trkpt>
      <trkpt lat="63.32476" lon="9.17963">
        <ele>47.399735</ele>
        <time>2020-07-15T17:21:56.220Z</time>
      </trkpt>
      <trkpt lat="63.32548" lon="9.18164">
        <ele>59.946522</ele>
        <time>2020-07-15T17:23:15.196Z</time>
      </trkpt>
      <trkpt lat="63.32585" lon="9.18258">
        <ele>62.782805</ele>
        <time>2020-07-15T17:23:42.678Z</time>
      </trkpt>
      <trkpt lat="63.32664" lon="9.18468">
        <ele>65.409931</ele>
        <time>2020-07-15T17:24:07.152Z</time>
      </trkpt>
      <trkpt lat="63.32704" lon="9.18563">
        <ele>59.107095</ele>
        <time>2020-07-15T17:24:13.928Z</time>
      </trkpt>
      <trkpt lat="63.32731" lon="9.18605">
        <ele>55.586728</ele>
        <time>2020-07-15T17:24:17.522Z</time>
      </trkpt>
      <trkpt lat="63.32738" lon="9.18612">
        <ele>54.77014</ele>
        <time>2020-07-15T17:24:18.396Z</time>
      </trkpt>
      <trkpt lat="63.32747" lon="9.18621">
        <ele>53.687162</ele>
        <time>2020-07-15T17:24:19.435Z</time>
      </trkpt>
      <trkpt lat="63.32807" lon="9.18654">
        <ele>47.313054</ele>
        <time>2020-07-15T17:24:25.908Z</time>
      </trkpt>
      <trkpt lat="63.32897" lon="9.18643">
        <ele>39.022643</ele>
        <time>2020-07-15T17:24:35.259Z</time>
      </trkpt>
      <trkpt lat="63.32937" lon="9.1866">
        <ele>35.252365</ele>
        <time>2020-07-15T17:24:40.227Z</time>
      </trkpt>
      <trkpt lat="63.32962" lon="9.18694">
        <ele>32.56861</ele>
        <time>2020-07-15T17:24:44.689Z</time>
      </trkpt>
      <trkpt lat="63.33028" lon="9.18823">
        <ele>38.401458</ele>
        <time>2020-07-15T17:25:14.988Z</time>
      </trkpt>
      <trkpt lat="63.3315" lon="9.18981">
        <ele>49.817033</ele>
        <time>2020-07-15T17:26:32.901Z</time>
      </trkpt>
      <trkpt lat="63.33209" lon="9.191">
        <ele>56.849708</ele>
        <time>2020-07-15T17:27:12.907Z</time>
      </trkpt>
      <trkpt lat="63.33225" lon="9.19156">
        <ele>59.468502</ele>
        <time>2020-07-15T17:27:25.193Z</time>
      </trkpt>
      <trkpt lat="63.33242" lon="9.19297">
        <ele>62.323302</ele>
        <time>2020-07-15T17:27:45.945Z</time>
      </trkpt>
      <trkpt lat="63.33278" lon="9.19451">
        <ele>63.168338</ele>
        <time>2020-07-15T17:28:02.311Z</time>
      </trkpt>
      <trkpt lat="63.33285" lon="9.19516">
        <ele>63.492615</ele>
        <time>2020-07-15T17:28:07.144Z</time>
      </trkpt>
      <trkpt lat="63.33287" lon="9.19612">
        <ele>63.33823</ele>
        <time>2020-07-15T17:28:13.625Z</time>
      </trkpt>
      <trkpt lat="63.33313" lon="9.19734">
        <ele>59.819858</ele>
        <time>2020-07-15T17:28:21.602Z</time>
      </trkpt>
      <trkpt lat="63.33316" lon="9.19777">
        <ele>58.687946</ele>
        <time>2020-07-15T17:28:23.821Z</time>
      </trkpt>
      <trkpt lat="63.33314" lon="9.1984">
        <ele>57.042241</ele>
        <time>2020-07-15T17:28:27.134Z</time>
      </trkpt>
      <trkpt lat="63.33307" lon="9.19878">
        <ele>55.987417</ele>
        <time>2020-07-15T17:28:29.251Z</time>
      </trkpt>
      <trkpt lat="63.33292" lon="9.19924">
        <ele>54.505246</ele>
        <time>2020-07-15T17:28:32.077Z</time>
      </trkpt>
      <trkpt lat="63.33283" lon="9.19945">
        <ele>53.752025</ele>
        <time>2020-07-15T17:28:33.630Z</time>
      </trkpt>
      <trkpt lat="63.33265" lon="9.19994">
        <ele>51.21113</ele>
        <time>2020-07-15T17:28:36.745Z</time>
      </trkpt>
      <trkpt lat="63.33254" lon="9.2005">
        <ele>48.641853</ele>
        <time>2020-07-15T17:28:39.673Z</time>
      </trkpt>
      <trkpt lat="63.33259" lon="9.20104">
        <ele>46.282515</ele>
        <time>2020-07-15T17:28:42.369Z</time>
      </trkpt>
      <trkpt lat="63.33322" lon="9.20317">
        <ele>36.536572</ele>
        <time>2020-07-15T17:28:54.781Z</time>
      </trkpt>
      <trkpt lat="63.33345" lon="9.2037">
        <ele>37.169177</ele>
        <time>2020-07-15T17:28:58.741Z</time>
      </trkpt>
      <trkpt lat="63.33363" lon="9.20386">
        <ele>37.546979</ele>
        <time>2020-07-15T17:29:01.307Z</time>
      </trkpt>
      <trkpt lat="63.33383" lon="9.20386">
        <ele>37.929969</ele>
        <time>2020-07-15T17:29:04.549Z</time>
      </trkpt>
      <trkpt lat="63.33448" lon="9.20351">
        <ele>39.228633</ele>
        <time>2020-07-15T17:29:28.170Z</time>
      </trkpt>
      <trkpt lat="63.33468" lon="9.2035">
        <ele>39.615555</ele>
        <time>2020-07-15T17:29:38.738Z</time>
      </trkpt>
      <trkpt lat="63.33486" lon="9.20362">
        <ele>40.904592</ele>
        <time>2020-07-15T17:29:47.956Z</time>
      </trkpt>
      <trkpt lat="63.33504" lon="9.20386">
        <ele>43.601787</ele>
        <time>2020-07-15T17:30:01.177Z</time>
      </trkpt>
      <trkpt lat="63.33546" lon="9.20474">
        <ele>51.156446</ele>
        <time>2020-07-15T17:30:38.566Z</time>
      </trkpt>
      <trkpt lat="63.33556" lon="9.20494">
        <ele>52.814075</ele>
        <time>2020-07-15T17:30:48.457Z</time>
      </trkpt>
      <trkpt lat="63.33593" lon="9.20584">
        <ele>59.95878</ele>
        <time>2020-07-15T17:31:23.855Z</time>
      </trkpt>
      <trkpt lat="63.33623" lon="9.20691">
        <ele>63.479447</ele>
        <time>2020-07-15T17:31:55.365Z</time>
      </trkpt>
      <trkpt lat="63.3363" lon="9.20725">
        <ele>63.613063</ele>
        <time>2020-07-15T17:32:02.607Z</time>
      </trkpt>
      <trkpt lat="63.3364" lon="9.20784">
        <ele>63.841709</ele>
        <time>2020-07-15T17:32:13.384Z</time>
      </trkpt>
      <trkpt lat="63.33736" lon="9.21506">
        <ele>49.554024</ele>
        <time>2020-07-15T17:32:53.139Z</time>
      </trkpt>
      <trkpt lat="63.33746" lon="9.21584">
        <ele>46.783842</ele>
        <time>2020-07-15T17:32:57.174Z</time>
      </trkpt>
      <trkpt lat="63.33749" lon="9.21609">
        <ele>45.88731</ele>
        <time>2020-07-15T17:32:58.455Z</time>
      </trkpt>
      <trkpt lat="63.33754" lon="9.21728">
        <ele>41.833862</ele>
        <time>2020-07-15T17:33:04.453Z</time>
      </trkpt>
      <trkpt lat="63.33749" lon="9.21832">
        <ele>38.907473</ele>
        <time>2020-07-15T17:33:09.743Z</time>
      </trkpt>
      <trkpt lat="63.3371" lon="9.22166">
        <ele>31.40778</ele>
        <time>2020-07-15T17:33:29.013Z</time>
      </trkpt>
      <trkpt lat="63.33686" lon="9.22263">
        <ele>29.951982</ele>
        <time>2020-07-15T17:33:35.752Z</time>
      </trkpt>
      <trkpt lat="63.33653" lon="9.22323">
        <ele>28.715865</ele>
        <time>2020-07-15T17:33:41.683Z</time>
      </trkpt>
      <trkpt lat="63.33275" lon="9.22816">
        <ele>15.895911</ele>
        <time>2020-07-15T17:34:40.023Z</time>
      </trkpt>
      <trkpt lat="63.33247" lon="9.2286">
        <ele>15.06497</ele>
        <time>2020-07-15T17:34:44.217Z</time>
      </trkpt>
      <trkpt lat="63.3318" lon="9.23">
        <ele>13.04734</ele>
        <time>2020-07-15T17:34:56.168Z</time>
      </trkpt>
      <trkpt lat="63.33174" lon="9.23013">
        <ele>12.858157</ele>
        <time>2020-07-15T17:34:57.237Z</time>
      </trkpt>
      <trkpt lat="63.33147" lon="9.23071">
        <ele>12.044255</ele>
        <time>2020-07-15T17:35:03.318Z</time>
      </trkpt>
      <trkpt lat="63.33124" lon="9.23131">
        <ele>12.247132</ele>
        <time>2020-07-15T17:35:11.243Z</time>
      </trkpt>
      <trkpt lat="63.3312" lon="9.23145">
        <ele>12.514468</ele>
        <time>2020-07-15T17:35:12.229Z</time>
      </trkpt>
      <trkpt lat="63.33114" lon="9.2317">
        <ele>12.99009</ele>
        <time>2020-07-15T17:35:16.573Z</time>
      </trkpt>
      <trkpt lat="63.33104" lon="9.23235">
        <ele>14.102768</ele>
        <time>2020-07-15T17:35:23.593Z</time>
      </trkpt>
      <trkpt lat="63.33101" lon="9.23316">
        <ele>15.439254</ele>
        <time>2020-07-15T17:35:33.857Z</time>
      </trkpt>
      <trkpt lat="63.33102" lon="9.23336">
        <ele>15.767047</ele>
        <time>2020-07-15T17:35:37.788Z</time>
      </trkpt>
      <trkpt lat="63.33104" lon="9.23358">
        <ele>16.130206</ele>
        <time>2020-07-15T17:35:40.798Z</time>
      </trkpt>
      <trkpt lat="63.33109" lon="9.23397">
        <ele>16.788241</ele>
        <time>2020-07-15T17:35:45.832Z</time>
      </trkpt>
      <trkpt lat="63.33115" lon="9.23433">
        <ele>17.421858</ele>
        <time>2020-07-15T17:35:52.507Z</time>
      </trkpt>
      <trkpt lat="63.33182" lon="9.23776">
        <ele>30.64316</ele>
        <time>2020-07-15T17:37:02.378Z</time>
      </trkpt>
      <trkpt lat="63.33188" lon="9.23804">
        <ele>31.858986</ele>
        <time>2020-07-15T17:37:09.298Z</time>
      </trkpt>
      <trkpt lat="63.33196" lon="9.23832">
        <ele>33.107018</ele>
        <time>2020-07-15T17:37:18.206Z</time>
      </trkpt>
      <trkpt lat="63.33218" lon="9.23902">
        <ele>38.634899</ele>
        <time>2020-07-15T17:37:41.286Z</time>
      </trkpt>
      <trkpt lat="63.33227" lon="9.23929">
        <ele>40.873866</ele>
        <time>2020-07-15T17:37:49.976Z</time>
      </trkpt>
      <trkpt lat="63.33243" lon="9.23972">
        <ele>44.628464</ele>
        <time>2020-07-15T17:38:07.607Z</time>
      </trkpt>
      <trkpt lat="63.333" lon="9.24137">
        <ele>58.835213</ele>
        <time>2020-07-15T17:39:15.772Z</time>
      </trkpt>
      <trkpt lat="63.33327" lon="9.24183">
        <ele>62.748858</ele>
        <time>2020-07-15T17:39:40.584Z</time>
      </trkpt>
      <trkpt lat="63.3338" lon="9.24252">
        <ele>68.619881</ele>
        <time>2020-07-15T17:40:17.565Z</time>
      </trkpt>
      <trkpt lat="63.33418" lon="9.24264">
        <ele>72.22722</ele>
        <time>2020-07-15T17:40:34.564Z</time>
      </trkpt>
      <trkpt lat="63.33521" lon="9.24232">
        <ele>77.843318</ele>
        <time>2020-07-15T17:41:04.371Z</time>
      </trkpt>
      <trkpt lat="63.3354" lon="9.2424">
        <ele>77.854937</ele>
        <time>2020-07-15T17:41:07.335Z</time>
      </trkpt>
      <trkpt lat="63.33601" lon="9.243">
        <ele>77.896134</ele>
        <time>2020-07-15T17:41:16.421Z</time>
      </trkpt>
      <trkpt lat="63.33696" lon="9.24323">
        <ele>78.862983</ele>
        <time>2020-07-15T17:41:32.570Z</time>
      </trkpt>
      <trkpt lat="63.33738" lon="9.24359">
        <ele>79.767171</ele>
        <time>2020-07-15T17:41:42.267Z</time>
      </trkpt>
      <trkpt lat="63.33749" lon="9.24375">
        <ele>80.032121</ele>
        <time>2020-07-15T17:41:44.459Z</time>
      </trkpt>
      <trkpt lat="63.3376" lon="9.24393">
        <ele>80.302017</ele>
        <time>2020-07-15T17:41:49.984Z</time>
      </trkpt>
      <trkpt lat="63.33865" lon="9.24587">
        <ele>83.641997</ele>
        <time>2020-07-15T17:42:32.533Z</time>
      </trkpt>
      <trkpt lat="63.33922" lon="9.24627">
        <ele>85.33236</ele>
        <time>2020-07-15T17:42:50.627Z</time>
      </trkpt>
      <trkpt lat="63.3397" lon="9.24616">
        <ele>86.356453</ele>
        <time>2020-07-15T17:43:01.495Z</time>
      </trkpt>
      <trkpt lat="63.33988" lon="9.24608">
        <ele>85.453682</ele>
        <time>2020-07-15T17:43:03.981Z</time>
      </trkpt>
      <trkpt lat="63.3404" lon="9.24579">
        <ele>82.733967</ele>
        <time>2020-07-15T17:43:11.291Z</time>
      </trkpt>
      <trkpt lat="63.34091" lon="9.24549">
        <ele>80.12385</ele>
        <time>2020-07-15T17:43:17.632Z</time>
      </trkpt>
      <trkpt lat="63.34098" lon="9.24545">
        <ele>79.744938</ele>
        <time>2020-07-15T17:43:18.559Z</time>
      </trkpt>
      <trkpt lat="63.34128" lon="9.24526">
        <ele>78.162284</ele>
        <time>2020-07-15T17:43:22.065Z</time>
      </trkpt>
      <trkpt lat="63.34159" lon="9.2449">
        <ele>75.961788</ele>
        <time>2020-07-15T17:43:25.903Z</time>
      </trkpt>
      <trkpt lat="63.34187" lon="9.24424">
        <ele>73.031206</ele>
        <time>2020-07-15T17:43:30.436Z</time>
      </trkpt>
      <trkpt lat="63.34242" lon="9.24325">
        <ele>67.99729</ele>
        <time>2020-07-15T17:43:38.231Z</time>
      </trkpt>
      <trkpt lat="63.34317" lon="9.24257">
        <ele>65.19736</ele>
        <time>2020-07-15T17:43:48.711Z</time>
      </trkpt>
      <trkpt lat="63.34356" lon="9.24246">
        <ele>65.765692</ele>
        <time>2020-07-15T17:43:56.211Z</time>
      </trkpt>
      <trkpt lat="63.34385" lon="9.24247">
        <ele>66.169193</ele>
        <time>2020-07-15T17:44:03.186Z</time>
      </trkpt>
      <trkpt lat="63.34404" lon="9.24267">
        <ele>66.47111</ele>
        <time>2020-07-15T17:44:09.528Z</time>
      </trkpt>
      <trkpt lat="63.34433" lon="9.24357">
        <ele>67.189833</ele>
        <time>2020-07-15T17:44:26.788Z</time>
      </trkpt>
      <trkpt lat="63.34451" lon="9.24392">
        <ele>67.830805</ele>
        <time>2020-07-15T17:44:35.418Z</time>
      </trkpt>
      <trkpt lat="63.3455" lon="9.24467">
        <ele>71.034502</ele>
        <time>2020-07-15T17:45:08.590Z</time>
      </trkpt>
      <trkpt lat="63.34557" lon="9.24476">
        <ele>71.290053</ele>
        <time>2020-07-15T17:45:11.337Z</time>
      </trkpt>
      <trkpt lat="63.3458" lon="9.24513">
        <ele>72.156201</ele>
        <time>2020-07-15T17:45:17.046Z</time>
      </trkpt>
      <trkpt lat="63.34631" lon="9.24634">
        <ele>70.612981</ele>
        <time>2020-07-15T17:45:28.821Z</time>
      </trkpt>
      <trkpt lat="63.3468" lon="9.24773">
        <ele>67.329392</ele>
        <time>2020-07-15T17:45:38.550Z</time>
      </trkpt>
      <trkpt lat="63.34717" lon="9.24873">
        <ele>64.354118</ele>
        <time>2020-07-15T17:45:45.200Z</time>
      </trkpt>
      <trkpt lat="63.34756" lon="9.24951">
        <ele>59.361258</ele>
        <time>2020-07-15T17:45:51.090Z</time>
      </trkpt>
      <trkpt lat="63.34794" lon="9.24999">
        <ele>55.288121</ele>
        <time>2020-07-15T17:45:55.850Z</time>
      </trkpt>
      <trkpt lat="63.34841" lon="9.25042">
        <ele>50.407153</ele>
        <time>2020-07-15T17:46:01.504Z</time>
      </trkpt>
      <trkpt lat="63.3486" lon="9.25082">
        <ele>47.907881</ele>
        <time>2020-07-15T17:46:04.194Z</time>
      </trkpt>
      <trkpt lat="63.34871" lon="9.25132">
        <ele>45.002004</ele>
        <time>2020-07-15T17:46:06.842Z</time>
      </trkpt>
      <trkpt lat="63.34876" lon="9.25193">
        <ele>41.741456</ele>
        <time>2020-07-15T17:46:09.854Z</time>
      </trkpt>
      <trkpt lat="63.34874" lon="9.2525">
        <ele>38.756604</ele>
        <time>2020-07-15T17:46:12.548Z</time>
      </trkpt>
      <trkpt lat="63.34865" lon="9.2534">
        <ele>33.934562</ele>
        <time>2020-07-15T17:46:16.959Z</time>
      </trkpt>
      <trkpt lat="63.34864" lon="9.25353">
        <ele>33.237016</ele>
        <time>2020-07-15T17:46:17.583Z</time>
      </trkpt>
      <trkpt lat="63.34863" lon="9.25379">
        <ele>31.879328</ele>
        <time>2020-07-15T17:46:18.833Z</time>
      </trkpt>
      <trkpt lat="63.34869" lon="9.25501">
        <ele>26.366342</ele>
        <time>2020-07-15T17:46:24.827Z</time>
      </trkpt>
      <trkpt lat="63.34867" lon="9.25554">
        <ele>24.865452</ele>
        <time>2020-07-15T17:46:27.511Z</time>
      </trkpt>
      <trkpt lat="63.34864" lon="9.25563">
        <ele>24.575278</ele>
        <time>2020-07-15T17:46:27.990Z</time>
      </trkpt>
      <trkpt lat="63.34863" lon="9.25568">
        <ele>24.405875</ele>
        <time>2020-07-15T17:46:28.306Z</time>
      </trkpt>
      <trkpt lat="63.3486" lon="9.25577">
        <ele>24.072541</ele>
        <time>2020-07-15T17:46:28.929Z</time>
      </trkpt>
      <trkpt lat="63.34858" lon="9.25582">
        <ele>23.892586</ele>
        <time>2020-07-15T17:46:29.226Z</time>
      </trkpt>
      <trkpt lat="63.34833" lon="9.2561">
        <ele>22.159085</ele>
        <time>2020-07-15T17:46:32.374Z</time>
      </trkpt>
      <trkpt lat="63.34717" lon="9.25636">
        <ele>15.742933</ele>
        <time>2020-07-15T17:46:46.979Z</time>
      </trkpt>
      <trkpt lat="63.34694" lon="9.25653">
        <ele>15.275008</ele>
        <time>2020-07-15T17:46:51.261Z</time>
      </trkpt>
      <trkpt lat="63.34676" lon="9.25678">
        <ele>14.880703</ele>
        <time>2020-07-15T17:46:54.733Z</time>
      </trkpt>
      <trkpt lat="63.34643" lon="9.25755">
        <ele>13.991741</ele>
        <time>2020-07-15T17:47:02.045Z</time>
      </trkpt>
      <trkpt lat="63.34626" lon="9.25817">
        <ele>13.384435</ele>
        <time>2020-07-15T17:47:06.616Z</time>
      </trkpt>
      <trkpt lat="63.34615" lon="9.259">
        <ele>12.645656</ele>
        <time>2020-07-15T17:47:12.137Z</time>
      </trkpt>
      <trkpt lat="63.34612" lon="9.25992">
        <ele>11.794852</ele>
        <time>2020-07-15T17:47:17.993Z</time>
      </trkpt>
      <trkpt lat="63.34613" lon="9.26003">
        <ele>11.687213</ele>
        <time>2020-07-15T17:47:18.630Z</time>
      </trkpt>
      <trkpt lat="63.34613" lon="9.26014">
        <ele>11.590554</ele>
        <time>2020-07-15T17:47:19.268Z</time>
      </trkpt>
      <trkpt lat="63.34618" lon="9.26052">
        <ele>11.228398</ele>
        <time>2020-07-15T17:47:21.809Z</time>
      </trkpt>
      <trkpt lat="63.34623" lon="9.26079">
        <ele>10.954869</ele>
        <time>2020-07-15T17:47:23.605Z</time>
      </trkpt>
      <trkpt lat="63.34631" lon="9.26111">
        <ele>10.613098</ele>
        <time>2020-07-15T17:47:25.891Z</time>
      </trkpt>
      <trkpt lat="63.34716" lon="9.26314">
        <ele>8.57869</ele>
        <time>2020-07-15T17:47:43.572Z</time>
      </trkpt>
      <trkpt lat="63.34766" lon="9.26474">
        <ele>7.71277</ele>
        <time>2020-07-15T17:47:57.825Z</time>
      </trkpt>
      <trkpt lat="63.3482" lon="9.26613">
        <ele>6.997455</ele>
        <time>2020-07-15T17:48:11.409Z</time>
      </trkpt>
      <trkpt lat="63.34846" lon="9.26683">
        <ele>6.69991</ele>
        <time>2020-07-15T17:48:18.042Z</time>
      </trkpt>
      <trkpt lat="63.34867" lon="9.26743">
        <ele>6.450221</ele>
        <time>2020-07-15T17:48:23.524Z</time>
      </trkpt>
      <trkpt lat="63.34913" lon="9.2689">
        <ele>5.813293</ele>
        <time>2020-07-15T17:48:36.064Z</time>
      </trkpt>
      <trkpt lat="63.34953" lon="9.27154">
        <ele>4.457948</ele>
        <time>2020-07-15T17:48:55.024Z</time>
      </trkpt>
      <trkpt lat="63.34971" lon="9.27207">
        <ele>4.134974</ele>
        <time>2020-07-15T17:48:59.605Z</time>
      </trkpt>
      <trkpt lat="63.34978" lon="9.27218">
        <ele>4.035993</ele>
        <time>2020-07-15T17:49:00.942Z</time>
      </trkpt>
      <trkpt lat="63.34975" lon="9.27231">
        <ele>3.997368</ele>
        <time>2020-07-15T17:49:02.283Z</time>
      </trkpt>
      <trkpt lat="63.35053" lon="9.2734">
        <ele>3.589864</ele>
        <time>2020-07-15T17:49:17.615Z</time>
      </trkpt>
      <trkpt lat="63.35074" lon="9.2736">
        <ele>3.485827</ele>
        <time>2020-07-15T17:49:22.013Z</time>
      </trkpt>
      <trkpt lat="63.35081" lon="9.27363">
        <ele>3.456993</ele>
        <time>2020-07-15T17:49:23.043Z</time>
      </trkpt>
      <trkpt lat="63.35087" lon="9.27371">
        <ele>3.423759</ele>
        <time>2020-07-15T17:49:24.385Z</time>
      </trkpt>
      <trkpt lat="63.35094" lon="9.27378">
        <ele>3.390525</ele>
        <time>2020-07-15T17:49:25.680Z</time>
      </trkpt>
      <trkpt lat="63.35095" lon="9.27386">
        <ele>3.374174</ele>
        <time>2020-07-15T17:49:26.584Z</time>
      </trkpt>
      <trkpt lat="63.35136" lon="9.27434">
        <ele>3.27888</ele>
        <time>2020-07-15T17:49:35.326Z</time>
      </trkpt>
      <trkpt lat="63.35168" lon="9.27458">
        <ele>3.426083</ele>
        <time>2020-07-15T17:49:41.715Z</time>
      </trkpt>
      <trkpt lat="63.35172" lon="9.27462">
        <ele>3.444959</ele>
        <time>2020-07-15T17:49:42.647Z</time>
      </trkpt>
      <trkpt lat="63.35173" lon="9.27451">
        <ele>3.467337</ele>
        <time>2020-07-15T17:49:43.462Z</time>
      </trkpt>
      <trkpt lat="63.35187" lon="9.27462">
        <ele>3.530383</ele>
        <time>2020-07-15T17:49:46.183Z</time>
      </trkpt>
      <trkpt lat="63.35232" lon="9.27502">
        <ele>3.743117</ele>
        <time>2020-07-15T17:49:55.694Z</time>
      </trkpt>
      <trkpt lat="63.35276" lon="9.2756">
        <ele>3.968565</ele>
        <time>2020-07-15T17:50:05.973Z</time>
      </trkpt>
      <trkpt lat="63.35298" lon="9.27642">
        <ele>4.305402</ele>
        <time>2020-07-15T17:50:14.719Z</time>
      </trkpt>
      <trkpt lat="63.35307" lon="9.27704">
        <ele>4.565369</ele>
        <time>2020-07-15T17:50:20.661Z</time>
      </trkpt>
      <trkpt lat="63.35316" lon="9.27771">
        <ele>4.845719</ele>
        <time>2020-07-15T17:50:27.060Z</time>
      </trkpt>
      <trkpt lat="63.3533" lon="9.279">
        <ele>5.381085</ele>
        <time>2020-07-15T17:50:39.426Z</time>
      </trkpt>
      <trkpt lat="63.3533" lon="9.27955">
        <ele>5.605366</ele>
        <time>2020-07-15T17:50:44.777Z</time>
      </trkpt>
      <trkpt lat="63.35299" lon="9.28158">
        <ele>6.648514</ele>
        <time>2020-07-15T17:51:06.007Z</time>
      </trkpt>
      <trkpt lat="63.35295" lon="9.28226">
        <ele>6.983342</ele>
        <time>2020-07-15T17:51:12.704Z</time>
      </trkpt>
      <trkpt lat="63.35304" lon="9.28291">
        <ele>7.313308</ele>
        <time>2020-07-15T17:51:19.208Z</time>
      </trkpt>
      <trkpt lat="63.35336" lon="9.28378">
        <ele>7.553285</ele>
        <time>2020-07-15T17:51:29.649Z</time>
      </trkpt>
      <trkpt lat="63.35415" lon="9.28539">
        <ele>7.441252</ele>
        <time>2020-07-15T17:51:48.899Z</time>
      </trkpt>
      <trkpt lat="63.35471" lon="9.28596">
        <ele>7.165045</ele>
        <time>2020-07-15T17:51:58.341Z</time>
      </trkpt>
      <trkpt lat="63.3549" lon="9.28606">
        <ele>6.850426</ele>
        <time>2020-07-15T17:52:01.314Z</time>
      </trkpt>
      <trkpt lat="63.35527" lon="9.28606">
        <ele>6.270132</ele>
        <time>2020-07-15T17:52:06.713Z</time>
      </trkpt>
      <trkpt lat="63.35662" lon="9.28538">
        <ele>4.197276</ele>
        <time>2020-07-15T17:52:26.452Z</time>
      </trkpt>
      <trkpt lat="63.35682" lon="9.28547">
        <ele>3.933135</ele>
        <time>2020-07-15T17:52:29.548Z</time>
      </trkpt>
      <trkpt lat="63.35691" lon="9.28567">
        <ele>3.767617</ele>
        <time>2020-07-15T17:52:31.425Z</time>
      </trkpt>
      <trkpt lat="63.35696" lon="9.28595">
        <ele>3.597917</ele>
        <time>2020-07-15T17:52:33.463Z</time>
      </trkpt>
      <trkpt lat="63.35697" lon="9.28613">
        <ele>3.497896</ele>
        <time>2020-07-15T17:52:34.649Z</time>
      </trkpt>
      <trkpt lat="63.35712" lon="9.28607">
        <ele>3.3054</ele>
        <time>2020-07-15T17:52:36.963Z</time>
      </trkpt>
      <trkpt lat="63.35764" lon="9.28604">
        <ele>2.646236</ele>
        <time>2020-07-15T17:52:45.406Z</time>
      </trkpt>
      <trkpt lat="63.35798" lon="9.2863">
        <ele>2.256811</ele>
        <time>2020-07-15T17:52:51.407Z</time>
      </trkpt>
      <trkpt lat="63.35826" lon="9.28687">
        <ele>2.091329</ele>
        <time>2020-07-15T17:52:57.917Z</time>
      </trkpt>
      <trkpt lat="63.35827" lon="9.28687">
        <ele>2.089121</ele>
        <time>2020-07-15T17:52:57.990Z</time>
      </trkpt>
      <trkpt lat="63.35903" lon="9.28924">
        <ele>1.521483</ele>
        <time>2020-07-15T17:53:21.076Z</time>
      </trkpt>
      <trkpt lat="63.35908" lon="9.28947">
        <ele>1.493006</ele>
        <time>2020-07-15T17:53:23.253Z</time>
      </trkpt>
      <trkpt lat="63.3592" lon="9.28995">
        <ele>1.446091</ele>
        <time>2020-07-15T17:53:27.504Z</time>
      </trkpt>
      <trkpt lat="63.35992" lon="9.2934">
        <ele>1.126478</ele>
        <time>2020-07-15T17:53:58.358Z</time>
      </trkpt>
      <trkpt lat="63.35993" lon="9.29364">
        <ele>1.111883</ele>
        <time>2020-07-15T17:54:00.336Z</time>
      </trkpt>
      <trkpt lat="63.35996" lon="9.29385">
        <ele>1.098939</ele>
        <time>2020-07-15T17:54:02.122Z</time>
      </trkpt>
      <trkpt lat="63.36007" lon="9.29423">
        <ele>1.072252</ele>
        <time>2020-07-15T17:54:05.783Z</time>
      </trkpt>
      <trkpt lat="63.36035" lon="9.29459">
        <ele>1.029422</ele>
        <time>2020-07-15T17:54:11.676Z</time>
      </trkpt>
      <trkpt lat="63.36046" lon="9.2949">
        <ele>1.005386</ele>
        <time>2020-07-15T17:54:14.965Z</time>
      </trkpt>
      <trkpt lat="63.36055" lon="9.29536">
        <ele>0.976145</ele>
        <time>2020-07-15T17:54:18.999Z</time>
      </trkpt>
      <trkpt lat="63.36076" lon="9.29721">
        <ele>0.994069</ele>
        <time>2020-07-15T17:54:34.703Z</time>
      </trkpt>
      <trkpt lat="63.36074" lon="9.29876">
        <ele>1.109405</ele>
        <time>2020-07-15T17:54:47.773Z</time>
      </trkpt>
      <trkpt lat="63.36089" lon="9.3001">
        <ele>1.211122</ele>
        <time>2020-07-15T17:54:59.535Z</time>
      </trkpt>
      <trkpt lat="63.3608" lon="9.30053">
        <ele>1.582156</ele>
        <time>2020-07-15T17:55:03.549Z</time>
      </trkpt>
      <trkpt lat="63.35992" lon="9.30234">
        <ele>4.236259</ele>
        <time>2020-07-15T17:55:32.281Z</time>
      </trkpt>
      <trkpt lat="63.35974" lon="9.30303">
        <ele>5.016074</ele>
        <time>2020-07-15T17:55:42.359Z</time>
      </trkpt>
      <trkpt lat="63.35969" lon="9.30344">
        <ele>6.030095</ele>
        <time>2020-07-15T17:55:48.738Z</time>
      </trkpt>
      <trkpt lat="63.35969" lon="9.30349">
        <ele>6.192113</ele>
        <time>2020-07-15T17:55:50.680Z</time>
      </trkpt>
      <trkpt lat="63.35976" lon="9.30433">
        <ele>9.032052</ele>
        <time>2020-07-15T17:56:04.482Z</time>
      </trkpt>
      <trkpt lat="63.35973" lon="9.30582">
        <ele>13.944553</ele>
        <time>2020-07-15T17:56:32.337Z</time>
      </trkpt>
      <trkpt lat="63.35978" lon="9.30645">
        <ele>16.06076</ele>
        <time>2020-07-15T17:56:46.963Z</time>
      </trkpt>
      <trkpt lat="63.35969" lon="9.30657">
        <ele>16.802594</ele>
        <time>2020-07-15T17:56:52.700Z</time>
      </trkpt>
      <trkpt lat="63.3591" lon="9.30765">
        <ele>22.706606</ele>
        <time>2020-07-15T17:57:29.250Z</time>
      </trkpt>
      <trkpt lat="63.35904" lon="9.3078">
        <ele>23.407149</ele>
        <time>2020-07-15T17:57:33.812Z</time>
      </trkpt>
      <trkpt lat="63.359" lon="9.30794">
        <ele>24.000372</ele>
        <time>2020-07-15T17:57:38.993Z</time>
      </trkpt>
      <trkpt lat="63.35868" lon="9.31005">
        <ele>31.887541</ele>
        <time>2020-07-15T17:58:19.473Z</time>
      </trkpt>
      <trkpt lat="63.35867" lon="9.31011">
        <ele>32.103438</ele>
        <time>2020-07-15T17:58:21.992Z</time>
      </trkpt>
      <trkpt lat="63.35862" lon="9.31008">
        <ele>32.51481</ele>
        <time>2020-07-15T17:58:23.794Z</time>
      </trkpt>
      <trkpt lat="63.35824" lon="9.30993">
        <ele>33.635049</ele>
        <time>2020-07-15T17:58:37.748Z</time>
      </trkpt>
      <trkpt lat="63.35752" lon="9.30996">
        <ele>35.5508</ele>
        <time>2020-07-15T17:58:55.374Z</time>
      </trkpt>
      <trkpt lat="63.35743" lon="9.31012">
        <ele>35.875026</ele>
        <time>2020-07-15T17:58:57.545Z</time>
      </trkpt>
      <trkpt lat="63.35724" lon="9.31084">
        <ele>36.881395</ele>
        <time>2020-07-15T17:59:06.116Z</time>
      </trkpt>
      <trkpt lat="63.35722" lon="9.31086">
        <ele>36.934171</ele>
        <time>2020-07-15T17:59:06.388Z</time>
      </trkpt>
      <trkpt lat="63.3572" lon="9.31087">
        <ele>36.974742</ele>
        <time>2020-07-15T17:59:07.253Z</time>
      </trkpt>
      <trkpt lat="63.35709" lon="9.31072">
        <ele>37.320119</ele>
        <time>2020-07-15T17:59:09.863Z</time>
      </trkpt>
      <trkpt lat="63.35704" lon="9.31062">
        <ele>37.472806</ele>
        <time>2020-07-15T17:59:11.880Z</time>
      </trkpt>
      <trkpt lat="63.35649" lon="9.31134">
        <ele>38.117145</ele>
        <time>2020-07-15T17:59:24.732Z</time>
      </trkpt>
      <trkpt lat="63.35634" lon="9.31157">
        <ele>38.303444</ele>
        <time>2020-07-15T17:59:28.673Z</time>
      </trkpt>
      <trkpt lat="63.35626" lon="9.3117">
        <ele>38.404841</ele>
        <time>2020-07-15T17:59:30.797Z</time>
      </trkpt>
      <trkpt lat="63.35617" lon="9.31187">
        <ele>38.524372</ele>
        <time>2020-07-15T17:59:33.713Z</time>
      </trkpt>
      <trkpt lat="63.35587" lon="9.3127">
        <ele>39.015334</ele>
        <time>2020-07-15T17:59:44.328Z</time>
      </trkpt>
      <trkpt lat="63.35579" lon="9.31337">
        <ele>39.290876</ele>
        <time>2020-07-15T17:59:50.348Z</time>
      </trkpt>
      <trkpt lat="63.35605" lon="9.31779">
        <ele>39.49995</ele>
        <time>2020-07-15T18:00:26.698Z</time>
      </trkpt>
      <trkpt lat="63.35645" lon="9.32013">
        <ele>39.050695</ele>
        <time>2020-07-15T18:00:45.231Z</time>
      </trkpt>
      <trkpt lat="63.35698" lon="9.32202">
        <ele>38.462541</ele>
        <time>2020-07-15T18:01:01.650Z</time>
      </trkpt>
      <trkpt lat="63.35718" lon="9.32297">
        <ele>38.125192</ele>
        <time>2020-07-15T18:01:09.170Z</time>
      </trkpt>
      <trkpt lat="63.35732" lon="9.32376">
        <ele>37.848114</ele>
        <time>2020-07-15T18:01:15.281Z</time>
      </trkpt>
      <trkpt lat="63.35739" lon="9.32461">
        <ele>37.563894</ele>
        <time>2020-07-15T18:01:21.448Z</time>
      </trkpt>
      <trkpt lat="63.35736" lon="9.32893">
        <ele>35.626904</ele>
        <time>2020-07-15T18:01:51.568Z</time>
      </trkpt>
      <trkpt lat="63.35728" lon="9.32949">
        <ele>35.245541</ele>
        <time>2020-07-15T18:01:55.562Z</time>
      </trkpt>
      <trkpt lat="63.35713" lon="9.32993">
        <ele>34.891647</ele>
        <time>2020-07-15T18:01:59.126Z</time>
      </trkpt>
      <trkpt lat="63.35683" lon="9.33057">
        <ele>34.307386</ele>
        <time>2020-07-15T18:02:05.102Z</time>
      </trkpt>
      <trkpt lat="63.35667" lon="9.33099">
        <ele>33.953469</ele>
        <time>2020-07-15T18:02:08.664Z</time>
      </trkpt>
      <trkpt lat="63.3565" lon="9.33159">
        <ele>33.501763</ele>
        <time>2020-07-15T18:02:13.330Z</time>
      </trkpt>
      <trkpt lat="63.35643" lon="9.33208">
        <ele>33.301094</ele>
        <time>2020-07-15T18:02:16.756Z</time>
      </trkpt>
      <trkpt lat="63.35635" lon="9.33294">
        <ele>33.387262</ele>
        <time>2020-07-15T18:02:22.783Z</time>
      </trkpt>
      <trkpt lat="63.35633" lon="9.33311">
        <ele>33.403627</ele>
        <time>2020-07-15T18:02:24.056Z</time>
      </trkpt>
      <trkpt lat="63.35632" lon="9.33329">
        <ele>33.421911</ele>
        <time>2020-07-15T18:02:25.377Z</time>
      </trkpt>
      <trkpt lat="63.35643" lon="9.33526">
        <ele>33.616656</ele>
        <time>2020-07-15T18:02:41.458Z</time>
      </trkpt>
      <trkpt lat="63.35684" lon="9.33801">
        <ele>38.224916</ele>
        <time>2020-07-15T18:03:17.367Z</time>
      </trkpt>
      <trkpt lat="63.35689" lon="9.33886">
        <ele>39.921212</ele>
        <time>2020-07-15T18:03:31.450Z</time>
      </trkpt>
      <trkpt lat="63.35663" lon="9.34033">
        <ele>44.471024</ele>
        <time>2020-07-15T18:03:59.757Z</time>
      </trkpt>
      <trkpt lat="63.35647" lon="9.34077">
        <ele>46.709415</ele>
        <time>2020-07-15T18:04:10.416Z</time>
      </trkpt>
      <trkpt lat="63.35619" lon="9.34128">
        <ele>49.951479</ele>
        <time>2020-07-15T18:04:26.314Z</time>
      </trkpt>
      <trkpt lat="63.35611" lon="9.34157">
        <ele>51.341152</ele>
        <time>2020-07-15T18:04:35.089Z</time>
      </trkpt>
      <trkpt lat="63.35566" lon="9.34433">
        <ele>64.013772</ele>
        <time>2020-07-15T18:05:41.498Z</time>
      </trkpt>
      <trkpt lat="63.35565" lon="9.34457">
        <ele>65.140886</ele>
        <time>2020-07-15T18:05:47.671Z</time>
      </trkpt>
      <trkpt lat="63.35565" lon="9.34474">
        <ele>65.987229</ele>
        <time>2020-07-15T18:05:52.146Z</time>
      </trkpt>
      <trkpt lat="63.35588" lon="9.34625">
        <ele>73.463512</ele>
        <time>2020-07-15T18:06:27.254Z</time>
      </trkpt>
      <trkpt lat="63.35669" lon="9.34908">
        <ele>91.863776</ele>
        <time>2020-07-15T18:07:50.066Z</time>
      </trkpt>
      <trkpt lat="63.35673" lon="9.35001">
        <ele>97.100762</ele>
        <time>2020-07-15T18:08:16.561Z</time>
      </trkpt>
      <trkpt lat="63.35669" lon="9.3506">
        <ele>100.723781</ele>
        <time>2020-07-15T18:08:34.399Z</time>
      </trkpt>
      <trkpt lat="63.35663" lon="9.35176">
        <ele>108.541209</ele>
        <time>2020-07-15T18:09:10.129Z</time>
      </trkpt>
      <trkpt lat="63.35652" lon="9.35453">
        <ele>126.707077</ele>
        <time>2020-07-15T18:10:34.802Z</time>
      </trkpt>
      <trkpt lat="63.35631" lon="9.35556">
        <ele>131.260927</ele>
        <time>2020-07-15T18:11:02.347Z</time>
      </trkpt>
      <trkpt lat="63.3559" lon="9.35654">
        <ele>136.602338</ele>
        <time>2020-07-15T18:11:29.391Z</time>
      </trkpt>
      <trkpt lat="63.35542" lon="9.3574">
        <ele>142.097423</ele>
        <time>2020-07-15T18:11:52.612Z</time>
      </trkpt>
      <trkpt lat="63.35409" lon="9.35876">
        <ele>148.166221</ele>
        <time>2020-07-15T18:12:35.723Z</time>
      </trkpt>
      <trkpt lat="63.35403" lon="9.35905">
        <ele>148.776775</ele>
        <time>2020-07-15T18:12:40.081Z</time>
      </trkpt>
      <trkpt lat="63.35404" lon="9.35926">
        <ele>149.176888</ele>
        <time>2020-07-15T18:12:43.132Z</time>
      </trkpt>
      <trkpt lat="63.35415" lon="9.35953">
        <ele>149.848645</ele>
        <time>2020-07-15T18:12:48.441Z</time>
      </trkpt>
      <trkpt lat="63.35429" lon="9.35965">
        <ele>150.415293</ele>
        <time>2020-07-15T18:12:52.899Z</time>
      </trkpt>
      <trkpt lat="63.35464" lon="9.35985">
        <ele>151.841594</ele>
        <time>2020-07-15T18:13:04.697Z</time>
      </trkpt>
      <trkpt lat="63.35508" lon="9.36007">
        <ele>153.606033</ele>
        <time>2020-07-15T18:13:19.634Z</time>
      </trkpt>
      <trkpt lat="63.35547" lon="9.36037">
        <ele>155.213287</ele>
        <time>2020-07-15T18:13:32.432Z</time>
      </trkpt>
      <trkpt lat="63.35578" lon="9.36074">
        <ele>156.599257</ele>
        <time>2020-07-15T18:13:42.782Z</time>
      </trkpt>
      <trkpt lat="63.35602" lon="9.36125">
        <ele>155.816464</ele>
        <time>2020-07-15T18:13:51.064Z</time>
      </trkpt>
      <trkpt lat="63.35618" lon="9.36193">
        <ele>154.950378</ele>
        <time>2020-07-15T18:13:57.836Z</time>
      </trkpt>
      <trkpt lat="63.35631" lon="9.36296">
        <ele>153.762655</ele>
        <time>2020-07-15T18:14:04.307Z</time>
      </trkpt>
      <trkpt lat="63.35634" lon="9.36369">
        <ele>152.94408</ele>
        <time>2020-07-15T18:14:08.329Z</time>
      </trkpt>
      <trkpt lat="63.35634" lon="9.36673">
        <ele>142.153999</ele>
        <time>2020-07-15T18:14:23.549Z</time>
      </trkpt>
      <trkpt lat="63.35641" lon="9.36798">
        <ele>136.721315</ele>
        <time>2020-07-15T18:14:29.630Z</time>
      </trkpt>
      <trkpt lat="63.35652" lon="9.36902">
        <ele>131.841056</ele>
        <time>2020-07-15T18:14:34.773Z</time>
      </trkpt>
      <trkpt lat="63.35665" lon="9.37027">
        <ele>125.784928</ele>
        <time>2020-07-15T18:14:40.927Z</time>
      </trkpt>
      <trkpt lat="63.35677" lon="9.37226">
        <ele>116.298738</ele>
        <time>2020-07-15T18:14:50.723Z</time>
      </trkpt>
      <trkpt lat="63.35675" lon="9.37359">
        <ele>113.176022</ele>
        <time>2020-07-15T18:14:57.491Z</time>
      </trkpt>
      <trkpt lat="63.35567" lon="9.37706">
        <ele>105.393659</ele>
        <time>2020-07-15T18:15:22.514Z</time>
      </trkpt>
      <trkpt lat="63.35547" lon="9.378">
        <ele>104.150379</ele>
        <time>2020-07-15T18:15:29.608Z</time>
      </trkpt>
      <trkpt lat="63.35546" lon="9.37857">
        <ele>103.467085</ele>
        <time>2020-07-15T18:15:33.247Z</time>
      </trkpt>
      <trkpt lat="63.35559" lon="9.37993">
        <ele>101.070765</ele>
        <time>2020-07-15T18:15:41.486Z</time>
      </trkpt>
      <trkpt lat="63.35575" lon="9.38252">
        <ele>93.601523</ele>
        <time>2020-07-15T18:15:55.224Z</time>
      </trkpt>
      <trkpt lat="63.35576" lon="9.3836">
        <ele>90.499355</ele>
        <time>2020-07-15T18:16:00.592Z</time>
      </trkpt>
      <trkpt lat="63.35571" lon="9.38485">
        <ele>86.654308</ele>
        <time>2020-07-15T18:16:06.840Z</time>
      </trkpt>
      <trkpt lat="63.35535" lon="9.38747">
        <ele>78.723265</ele>
        <time>2020-07-15T18:16:21.114Z</time>
      </trkpt>
      <trkpt lat="63.35526" lon="9.38899">
        <ele>79.21136</ele>
        <time>2020-07-15T18:16:31.242Z</time>
      </trkpt>
      <trkpt lat="63.35525" lon="9.38911">
        <ele>79.248114</ele>
        <time>2020-07-15T18:16:32.317Z</time>
      </trkpt>
      <trkpt lat="63.35526" lon="9.38926">
        <ele>79.298146</ele>
        <time>2020-07-15T18:16:34.071Z</time>
      </trkpt>
      <trkpt lat="63.35532" lon="9.39045">
        <ele>79.680046</ele>
        <time>2020-07-15T18:16:47.082Z</time>
      </trkpt>
      <trkpt lat="63.35527" lon="9.39108">
        <ele>79.881664</ele>
        <time>2020-07-15T18:16:56.121Z</time>
      </trkpt>
      <trkpt lat="63.35495" lon="9.3923">
        <ele>83.315684</ele>
        <time>2020-07-15T18:17:19.658Z</time>
      </trkpt>
      <trkpt lat="63.35463" lon="9.39322">
        <ele>86.676439</ele>
        <time>2020-07-15T18:17:40.548Z</time>
      </trkpt>
      <trkpt lat="63.35426" lon="9.39393">
        <ele>89.771774</ele>
        <time>2020-07-15T18:18:00.520Z</time>
      </trkpt>
      <trkpt lat="63.35315" lon="9.39548">
        <ele>97.379224</ele>
        <time>2020-07-15T18:18:51.907Z</time>
      </trkpt>
      <trkpt lat="63.35245" lon="9.3967">
        <ele>102.046475</ele>
        <time>2020-07-15T18:19:20.468Z</time>
      </trkpt>
      <trkpt lat="63.35235" lon="9.39681">
        <ele>102.375111</ele>
        <time>2020-07-15T18:19:24.046Z</time>
      </trkpt>
      <trkpt lat="63.35227" lon="9.3969">
        <ele>102.665279</ele>
        <time>2020-07-15T18:19:26.626Z</time>
      </trkpt>
      <trkpt lat="63.35146" lon="9.39742">
        <ele>105.195895</ele>
        <time>2020-07-15T18:19:49.273Z</time>
      </trkpt>
      <trkpt lat="63.35106" lon="9.39786">
        <ele>106.544762</ele>
        <time>2020-07-15T18:20:00.908Z</time>
      </trkpt>
      <trkpt lat="63.3508" lon="9.39829">
        <ele>107.429494</ele>
        <time>2020-07-15T18:20:08.849Z</time>
      </trkpt>
      <trkpt lat="63.35063" lon="9.39865">
        <ele>107.995519</ele>
        <time>2020-07-15T18:20:14.688Z</time>
      </trkpt>
      <trkpt lat="63.35045" lon="9.39913">
        <ele>108.661543</ele>
        <time>2020-07-15T18:20:21.490Z</time>
      </trkpt>
      <trkpt lat="63.34984" lon="9.40164">
        <ele>111.784456</ele>
        <time>2020-07-15T18:20:54.622Z</time>
      </trkpt>
      <trkpt lat="63.34957" lon="9.40234">
        <ele>112.967337</ele>
        <time>2020-07-15T18:21:05.319Z</time>
      </trkpt>
      <trkpt lat="63.34915" lon="9.40295">
        <ele>114.431185</ele>
        <time>2020-07-15T18:21:18.650Z</time>
      </trkpt>
      <trkpt lat="63.34849" lon="9.40321">
        <ele>116.360785</ele>
        <time>2020-07-15T18:21:37.485Z</time>
      </trkpt>
      <trkpt lat="63.34824" lon="9.40343">
        <ele>117.213176</ele>
        <time>2020-07-15T18:21:45.267Z</time>
      </trkpt>
      <trkpt lat="63.348" lon="9.40388">
        <ele>118.247459</ele>
        <time>2020-07-15T18:21:54.416Z</time>
      </trkpt>
      <trkpt lat="63.34785" lon="9.40429">
        <ele>119.021549</ele>
        <time>2020-07-15T18:22:01.152Z</time>
      </trkpt>
      <trkpt lat="63.34763" lon="9.40499">
        <ele>120.281004</ele>
        <time>2020-07-15T18:22:12.068Z</time>
      </trkpt>
      <trkpt lat="63.34741" lon="9.40573">
        <ele>121.586431</ele>
        <time>2020-07-15T18:22:23.221Z</time>
      </trkpt>
      <trkpt lat="63.34723" lon="9.4062">
        <ele>122.481041</ele>
        <time>2020-07-15T18:22:30.861Z</time>
      </trkpt>
      <trkpt lat="63.34687" lon="9.40698">
        <ele>123.899495</ele>
        <time>2020-07-15T18:22:44.779Z</time>
      </trkpt>
      <trkpt lat="63.34614" lon="9.40942">
        <ele>127.590322</ele>
        <time>2020-07-15T18:23:20.050Z</time>
      </trkpt>
      <trkpt lat="63.34506" lon="9.41115">
        <ele>130.092858</ele>
        <time>2020-07-15T18:23:53.541Z</time>
      </trkpt>
      <trkpt lat="63.34435" lon="9.41277">
        <ele>130.736569</ele>
        <time>2020-07-15T18:24:13.813Z</time>
      </trkpt>
      <trkpt lat="63.34412" lon="9.41375">
        <ele>130.578372</ele>
        <time>2020-07-15T18:24:21.666Z</time>
      </trkpt>
      <trkpt lat="63.34396" lon="9.41525">
        <ele>130.35506</ele>
        <time>2020-07-15T18:24:32.314Z</time>
      </trkpt>
      <trkpt lat="63.34393" lon="9.41557">
        <ele>130.428356</ele>
        <time>2020-07-15T18:24:34.390Z</time>
      </trkpt>
      <trkpt lat="63.34389" lon="9.41583">
        <ele>130.518552</ele>
        <time>2020-07-15T18:24:36.475Z</time>
      </trkpt>
      <trkpt lat="63.34385" lon="9.41608">
        <ele>130.607831</ele>
        <time>2020-07-15T18:24:38.524Z</time>
      </trkpt>
      <trkpt lat="63.34374" lon="9.41661">
        <ele>130.802567</ele>
        <time>2020-07-15T18:24:42.725Z</time>
      </trkpt>
      <trkpt lat="63.34369" lon="9.41682">
        <ele>130.88278</ele>
        <time>2020-07-15T18:24:44.652Z</time>
      </trkpt>
      <trkpt lat="63.34342" lon="9.41761">
        <ele>131.211524</ele>
        <time>2020-07-15T18:24:52.337Z</time>
      </trkpt>
      <trkpt lat="63.3407" lon="9.42349">
        <ele>142.638234</ele>
        <time>2020-07-15T18:26:36.957Z</time>
      </trkpt>
      <trkpt lat="63.34049" lon="9.42383">
        <ele>143.682046</ele>
        <time>2020-07-15T18:26:47.062Z</time>
      </trkpt>
      <trkpt lat="63.34013" lon="9.42423">
        <ele>145.998984</ele>
        <time>2020-07-15T18:27:03.218Z</time>
      </trkpt>
      <trkpt lat="63.33954" lon="9.42453">
        <ele>150.259057</ele>
        <time>2020-07-15T18:27:27.260Z</time>
      </trkpt>
      <trkpt lat="63.33947" lon="9.42455">
        <ele>150.724359</ele>
        <time>2020-07-15T18:27:30.764Z</time>
      </trkpt>
      <trkpt lat="63.33923" lon="9.42462">
        <ele>152.420338</ele>
        <time>2020-07-15T18:27:40.487Z</time>
      </trkpt>
      <trkpt lat="63.33871" lon="9.42493">
        <ele>156.185329</ele>
        <time>2020-07-15T18:28:03.246Z</time>
      </trkpt>
      <trkpt lat="63.33726" lon="9.42669">
        <ele>166.780032</ele>
        <time>2020-07-15T18:29:07.729Z</time>
      </trkpt>
      <trkpt lat="63.337" lon="9.42688">
        <ele>168.487827</ele>
        <time>2020-07-15T18:29:17.155Z</time>
      </trkpt>
      <trkpt lat="63.33678" lon="9.427">
        <ele>169.547515</ele>
        <time>2020-07-15T18:29:24.406Z</time>
      </trkpt>
      <trkpt lat="63.33674" lon="9.42702">
        <ele>169.715514</ele>
        <time>2020-07-15T18:29:26.575Z</time>
      </trkpt>
      <trkpt lat="63.33625" lon="9.42701">
        <ele>171.9526</ele>
        <time>2020-07-15T18:29:42.484Z</time>
      </trkpt>
      <trkpt lat="63.33566" lon="9.42669">
        <ele>174.73014</ele>
        <time>2020-07-15T18:30:02.543Z</time>
      </trkpt>
      <trkpt lat="63.33521" lon="9.42679">
        <ele>176.730543</ele>
        <time>2020-07-15T18:30:16.318Z</time>
      </trkpt>
      <trkpt lat="63.33432" lon="9.42788">
        <ele>179.40247</ele>
        <time>2020-07-15T18:30:43.154Z</time>
      </trkpt>
      <trkpt lat="63.33316" lon="9.429">
        <ele>182.318862</ele>
        <time>2020-07-15T18:31:14.275Z</time>
      </trkpt>
      <trkpt lat="63.33184" lon="9.43117">
        <ele>185.136392</ele>
        <time>2020-07-15T18:31:52.574Z</time>
      </trkpt>
      <trkpt lat="63.33003" lon="9.43254">
        <ele>187.37121</ele>
        <time>2020-07-15T18:32:34.295Z</time>
      </trkpt>
      <trkpt lat="63.32953" lon="9.43276">
        <ele>187.68908</ele>
        <time>2020-07-15T18:32:44.360Z</time>
      </trkpt>
      <trkpt lat="63.3285" lon="9.43296">
        <ele>188.243617</ele>
        <time>2020-07-15T18:33:03.621Z</time>
      </trkpt>
      <trkpt lat="63.3278" lon="9.4334">
        <ele>188.396367</ele>
        <time>2020-07-15T18:33:16.707Z</time>
      </trkpt>
      <trkpt lat="63.32738" lon="9.43384">
        <ele>188.495146</ele>
        <time>2020-07-15T18:33:25.356Z</time>
      </trkpt>
      <trkpt lat="63.32695" lon="9.43476">
        <ele>188.7034</ele>
        <time>2020-07-15T18:33:36.551Z</time>
      </trkpt>
      <trkpt lat="63.32668" lon="9.4352">
        <ele>188.923718</ele>
        <time>2020-07-15T18:33:43.099Z</time>
      </trkpt>
      <trkpt lat="63.32635" lon="9.43541">
        <ele>189.151648</ele>
        <time>2020-07-15T18:33:49.970Z</time>
      </trkpt>
      <trkpt lat="63.32603" lon="9.43542">
        <ele>189.356311</ele>
        <time>2020-07-15T18:33:56.218Z</time>
      </trkpt>
      <trkpt lat="63.32459" lon="9.43522">
        <ele>190.497686</ele>
        <time>2020-07-15T18:34:26.176Z</time>
      </trkpt>
      <trkpt lat="63.32376" lon="9.43509">
        <ele>191.235136</ele>
        <time>2020-07-15T18:34:43.406Z</time>
      </trkpt>
      <trkpt lat="63.32153" lon="9.43471">
        <ele>192.904381</ele>
        <time>2020-07-15T18:35:28.696Z</time>
      </trkpt>
      <trkpt lat="63.31984" lon="9.43443">
        <ele>194.20127</ele>
        <time>2020-07-15T18:36:02.788Z</time>
      </trkpt>
      <trkpt lat="63.31899" lon="9.43414">
        <ele>195.128942</ele>
        <time>2020-07-15T18:36:20.794Z</time>
      </trkpt>
      <trkpt lat="63.31848" lon="9.4339">
        <ele>195.687875</ele>
        <time>2020-07-15T18:36:32.083Z</time>
      </trkpt>
      <trkpt lat="63.31815" lon="9.43375">
        <ele>196.221353</ele>
        <time>2020-07-15T18:36:39.401Z</time>
      </trkpt>
      <trkpt lat="63.31796" lon="9.43365">
        <ele>196.725015</ele>
        <time>2020-07-15T18:36:43.821Z</time>
      </trkpt>
      <trkpt lat="63.3169" lon="9.43317">
        <ele>199.444109</ele>
        <time>2020-07-15T18:37:09.108Z</time>
      </trkpt>
      <trkpt lat="63.31639" lon="9.43292">
        <ele>201.392876</ele>
        <time>2020-07-15T18:37:26.409Z</time>
      </trkpt>
      <trkpt lat="63.316" lon="9.43292">
        <ele>204.285904</ele>
        <time>2020-07-15T18:37:40.425Z</time>
      </trkpt>
      <trkpt lat="63.31592" lon="9.43295">
        <ele>204.908724</ele>
        <time>2020-07-15T18:37:43.483Z</time>
      </trkpt>
      <trkpt lat="63.31584" lon="9.43299">
        <ele>205.526333</ele>
        <time>2020-07-15T18:37:46.284Z</time>
      </trkpt>
      <trkpt lat="63.31577" lon="9.43305">
        <ele>206.102858</ele>
        <time>2020-07-15T18:37:48.956Z</time>
      </trkpt>
      <trkpt lat="63.31565" lon="9.43315">
        <ele>207.023667</ele>
        <time>2020-07-15T18:37:54.887Z</time>
      </trkpt>
      <trkpt lat="63.31544" lon="9.43338">
        <ele>208.770947</ele>
        <time>2020-07-15T18:38:03.894Z</time>
      </trkpt>
      <trkpt lat="63.31534" lon="9.43353">
        <ele>209.703313</ele>
        <time>2020-07-15T18:38:10.416Z</time>
      </trkpt>
      <trkpt lat="63.31503" lon="9.43414">
        <ele>212.806291</ele>
        <time>2020-07-15T18:38:30.046Z</time>
      </trkpt>
      <trkpt lat="63.31485" lon="9.43464">
        <ele>215.398886</ele>
        <time>2020-07-15T18:38:44.612Z</time>
      </trkpt>
      <trkpt lat="63.31468" lon="9.43535">
        <ele>219.304388</ele>
        <time>2020-07-15T18:39:04.019Z</time>
      </trkpt>
      <trkpt lat="63.31452" lon="9.43644">
        <ele>224.89939</ele>
        <time>2020-07-15T18:39:33.110Z</time>
      </trkpt>
      <trkpt lat="63.31431" lon="9.43695">
        <ele>228.220141</ele>
        <time>2020-07-15T18:39:48.638Z</time>
      </trkpt>
      <trkpt lat="63.31411" lon="9.43715">
        <ele>230.609647</ele>
        <time>2020-07-15T18:40:00.476Z</time>
      </trkpt>
      <trkpt lat="63.3138" lon="9.4372">
        <ele>233.890869</ele>
        <time>2020-07-15T18:40:16.834Z</time>
      </trkpt>
      <trkpt lat="63.31347" lon="9.43694">
        <ele>236.978369</ele>
        <time>2020-07-15T18:40:34.502Z</time>
      </trkpt>
      <trkpt lat="63.31333" lon="9.43667">
        <ele>238.606036</ele>
        <time>2020-07-15T18:40:42.939Z</time>
      </trkpt>
      <trkpt lat="63.31329" lon="9.43653">
        <ele>239.28958</ele>
        <time>2020-07-15T18:40:47.968Z</time>
      </trkpt>
      <trkpt lat="63.31326" lon="9.43645">
        <ele>239.691522</ele>
        <time>2020-07-15T18:40:49.654Z</time>
      </trkpt>
      <trkpt lat="63.313" lon="9.43493">
        <ele>246.14084</ele>
        <time>2020-07-15T18:41:22.671Z</time>
      </trkpt>
      <trkpt lat="63.3129" lon="9.43457">
        <ele>247.836262</ele>
        <time>2020-07-15T18:41:30.236Z</time>
      </trkpt>
      <trkpt lat="63.31276" lon="9.43432">
        <ele>249.380044</ele>
        <time>2020-07-15T18:41:38.272Z</time>
      </trkpt>
      <trkpt lat="63.31247" lon="9.43416">
        <ele>251.061455</ele>
        <time>2020-07-15T18:41:50.492Z</time>
      </trkpt>
      <trkpt lat="63.3119" lon="9.43415">
        <ele>254.35356</ele>
        <time>2020-07-15T18:42:09.579Z</time>
      </trkpt>
      <trkpt lat="63.31131" lon="9.43384">
        <ele>257.758301</ele>
        <time>2020-07-15T18:42:29.285Z</time>
      </trkpt>
      <trkpt lat="63.31015" lon="9.43287">
        <ele>266.5149</ele>
        <time>2020-07-15T18:43:15.686Z</time>
      </trkpt>
      <trkpt lat="63.31006" lon="9.43283">
        <ele>267.156888</ele>
        <time>2020-07-15T18:43:17.253Z</time>
      </trkpt>
      <trkpt lat="63.30998" lon="9.43281">
        <ele>267.778982</ele>
        <time>2020-07-15T18:43:23.450Z</time>
      </trkpt>
      <trkpt lat="63.30975" lon="9.43291">
        <ele>269.50239</ele>
        <time>2020-07-15T18:43:31.936Z</time>
      </trkpt>
      <trkpt lat="63.30951" lon="9.43333">
        <ele>271.819293</ele>
        <time>2020-07-15T18:43:47.328Z</time>
      </trkpt>
      <trkpt lat="63.30907" lon="9.4353">
        <ele>280.889908</ele>
        <time>2020-07-15T18:44:39.183Z</time>
      </trkpt>
      <trkpt lat="63.3086" lon="9.43649">
        <ele>287.726446</ele>
        <time>2020-07-15T18:45:14.137Z</time>
      </trkpt>
      <trkpt lat="63.30839" lon="9.4372">
        <ele>290.783534</ele>
        <time>2020-07-15T18:45:30.862Z</time>
      </trkpt>
      <trkpt lat="63.30826" lon="9.438">
        <ele>292.602958</ele>
        <time>2020-07-15T18:45:45.995Z</time>
      </trkpt>
      <trkpt lat="63.30815" lon="9.44033">
        <ele>297.599362</ele>
        <time>2020-07-15T18:46:19.172Z</time>
      </trkpt>
      <trkpt lat="63.30741" lon="9.44389">
        <ele>301.402307</ele>
        <time>2020-07-15T18:46:58.178Z</time>
      </trkpt>
      <trkpt lat="63.30709" lon="9.44551">
        <ele>304.198581</ele>
        <time>2020-07-15T18:47:17.575Z</time>
      </trkpt>
      <trkpt lat="63.30706" lon="9.44566">
        <ele>304.532327</ele>
        <time>2020-07-15T18:47:20.163Z</time>
      </trkpt>
      <trkpt lat="63.30668" lon="9.44698">
        <ele>307.704967</ele>
        <time>2020-07-15T18:47:42.235Z</time>
      </trkpt>
      <trkpt lat="63.3066" lon="9.44798">
        <ele>309.752362</ele>
        <time>2020-07-15T18:47:59.035Z</time>
      </trkpt>
      <trkpt lat="63.30691" lon="9.45268">
        <ele>329.170848</ele>
        <time>2020-07-15T18:49:39.613Z</time>
      </trkpt>
      <trkpt lat="63.30727" lon="9.45652">
        <ele>348.612976</ele>
        <time>2020-07-15T18:51:17.895Z</time>
      </trkpt>
      <trkpt lat="63.30732" lon="9.45703">
        <ele>350.999538</ele>
        <time>2020-07-15T18:51:31.071Z</time>
      </trkpt>
      <trkpt lat="63.30738" lon="9.45814">
        <ele>356.07644</ele>
        <time>2020-07-15T18:51:56.550Z</time>
      </trkpt>
      <trkpt lat="63.30748" lon="9.45927">
        <ele>361.3022</ele>
        <time>2020-07-15T18:52:22.156Z</time>
      </trkpt>
      <trkpt lat="63.30786" lon="9.4611">
        <ele>368.778892</ele>
        <time>2020-07-15T18:53:01.264Z</time>
      </trkpt>
      <trkpt lat="63.3082" lon="9.46316">
        <ele>376.033015</ele>
        <time>2020-07-15T18:53:40.406Z</time>
      </trkpt>
      <trkpt lat="63.30858" lon="9.46508">
        <ele>382.997121</ele>
        <time>2020-07-15T18:54:18.639Z</time>
      </trkpt>
      <trkpt lat="63.30862" lon="9.46596">
        <ele>385.925076</ele>
        <time>2020-07-15T18:54:35.110Z</time>
      </trkpt>
      <trkpt lat="63.30855" lon="9.46786">
        <ele>392.313398</ele>
        <time>2020-07-15T18:55:11.715Z</time>
      </trkpt>
      <trkpt lat="63.30856" lon="9.4687">
        <ele>395.194467</ele>
        <time>2020-07-15T18:55:27.865Z</time>
      </trkpt>
      <trkpt lat="63.30888" lon="9.47173">
        <ele>405.632295</ele>
        <time>2020-07-15T18:56:27.568Z</time>
      </trkpt>
      <trkpt lat="63.30909" lon="9.4726">
        <ele>408.251252</ele>
        <time>2020-07-15T18:56:45.957Z</time>
      </trkpt>
      <trkpt lat="63.30996" lon="9.47459">
        <ele>415.157389</ele>
        <time>2020-07-15T18:57:29.635Z</time>
      </trkpt>
      <trkpt lat="63.31027" lon="9.4757">
        <ele>415.176366</ele>
        <time>2020-07-15T18:57:45.818Z</time>
      </trkpt>
      <trkpt lat="63.31248" lon="9.48939">
        <ele>413.62951</ele>
        <time>2020-07-15T18:59:33.164Z</time>
      </trkpt>
      <trkpt lat="63.31269" lon="9.49152">
        <ele>410.393513</ele>
        <time>2020-07-15T18:59:45.631Z</time>
      </trkpt>
      <trkpt lat="63.31311" lon="9.49842">
        <ele>399.853401</ele>
        <time>2020-07-15T19:00:25.764Z</time>
      </trkpt>
      <trkpt lat="63.31318" lon="9.49945">
        <ele>398.530118</ele>
        <time>2020-07-15T19:00:32.430Z</time>
      </trkpt>
      <trkpt lat="63.3132" lon="9.49963">
        <ele>398.304211</ele>
        <time>2020-07-15T19:00:33.532Z</time>
      </trkpt>
      <trkpt lat="63.31345" lon="9.5018">
        <ele>394.918711</ele>
        <time>2020-07-15T19:00:47.346Z</time>
      </trkpt>
      <trkpt lat="63.31554" lon="9.51654">
        <ele>359.690466</ele>
        <time>2020-07-15T19:02:11.197Z</time>
      </trkpt>
      <trkpt lat="63.31574" lon="9.51753">
        <ele>356.53742</ele>
        <time>2020-07-15T19:02:16.875Z</time>
      </trkpt>
      <trkpt lat="63.31598" lon="9.51821">
        <ele>354.0474</ele>
        <time>2020-07-15T19:02:21.345Z</time>
      </trkpt>
      <trkpt lat="63.3162" lon="9.51861">
        <ele>352.171184</ele>
        <time>2020-07-15T19:02:24.706Z</time>
      </trkpt>
      <trkpt lat="63.31882" lon="9.52166">
        <ele>332.828524</ele>
        <time>2020-07-15T19:02:58.900Z</time>
      </trkpt>
      <trkpt lat="63.31953" lon="9.52278">
        <ele>327.394846</ele>
        <time>2020-07-15T19:03:09.022Z</time>
      </trkpt>
      <trkpt lat="63.32013" lon="9.52412">
        <ele>322.900908</ele>
        <time>2020-07-15T19:03:19.027Z</time>
      </trkpt>
      <trkpt lat="63.32137" lon="9.52827">
        <ele>315.320223</ele>
        <time>2020-07-15T19:03:47.536Z</time>
      </trkpt>
      <trkpt lat="63.32145" lon="9.52875">
        <ele>314.914193</ele>
        <time>2020-07-15T19:03:50.769Z</time>
      </trkpt>
      <trkpt lat="63.32132" lon="9.52888">
        <ele>314.656323</ele>
        <time>2020-07-15T19:03:54.418Z</time>
      </trkpt>
      <trkpt lat="63.32091" lon="9.52946">
        <ele>313.797181</ele>
        <time>2020-07-15T19:04:03.105Z</time>
      </trkpt>
      <trkpt lat="63.32066" lon="9.52997">
        <ele>313.784283</ele>
        <time>2020-07-15T19:04:10.495Z</time>
      </trkpt>
      <trkpt lat="63.31968" lon="9.53202">
        <ele>314.209557</ele>
        <time>2020-07-15T19:04:38.746Z</time>
      </trkpt>
      <trkpt lat="63.31892" lon="9.53384">
        <ele>311.74567</ele>
        <time>2020-07-15T19:04:53.909Z</time>
      </trkpt>
      <trkpt lat="63.31849" lon="9.53525">
        <ele>309.711786</ele>
        <time>2020-07-15T19:05:03.707Z</time>
      </trkpt>
      <trkpt lat="63.31815" lon="9.53675">
        <ele>308.37264</ele>
        <time>2020-07-15T19:05:13.693Z</time>
      </trkpt>
      <trkpt lat="63.31755" lon="9.54024">
        <ele>306.862879</ele>
        <time>2020-07-15T19:05:40.408Z</time>
      </trkpt>
      <trkpt lat="63.31692" lon="9.54334">
        <ele>307.931294</ele>
        <time>2020-07-15T19:06:14.253Z</time>
      </trkpt>
      <trkpt lat="63.31681" lon="9.54395">
        <ele>308.177059</ele>
        <time>2020-07-15T19:06:20.925Z</time>
      </trkpt>
      <trkpt lat="63.31655" lon="9.5467">
        <ele>309.150601</ele>
        <time>2020-07-15T19:06:46.638Z</time>
      </trkpt>
      <trkpt lat="63.31633" lon="9.54834">
        <ele>308.216965</ele>
        <time>2020-07-15T19:06:59.189Z</time>
      </trkpt>
      <trkpt lat="63.31601" lon="9.55072">
        <ele>306.740816</ele>
        <time>2020-07-15T19:07:15.056Z</time>
      </trkpt>
      <trkpt lat="63.31597" lon="9.55103">
        <ele>306.421221</ele>
        <time>2020-07-15T19:07:16.963Z</time>
      </trkpt>
      <trkpt lat="63.31579" lon="9.55234">
        <ele>305.083886</ele>
        <time>2020-07-15T19:07:25.367Z</time>
      </trkpt>
      <trkpt lat="63.31576" lon="9.55253">
        <ele>304.884243</ele>
        <time>2020-07-15T19:07:26.539Z</time>
      </trkpt>
      <trkpt lat="63.3157" lon="9.5529">
        <ele>304.512025</ele>
        <time>2020-07-15T19:07:28.958Z</time>
      </trkpt>
      <trkpt lat="63.31562" lon="9.55338">
        <ele>304.002768</ele>
        <time>2020-07-15T19:07:32.131Z</time>
      </trkpt>
      <trkpt lat="63.31546" lon="9.55415">
        <ele>303.176999</ele>
        <time>2020-07-15T19:07:37.535Z</time>
      </trkpt>
      <trkpt lat="63.31525" lon="9.55484">
        <ele>303.286084</ele>
        <time>2020-07-15T19:07:43.221Z</time>
      </trkpt>
      <trkpt lat="63.31496" lon="9.55549">
        <ele>303.526281</ele>
        <time>2020-07-15T19:07:50.152Z</time>
      </trkpt>
      <trkpt lat="63.31456" lon="9.55605">
        <ele>303.80456</ele>
        <time>2020-07-15T19:08:00.046Z</time>
      </trkpt>
      <trkpt lat="63.31409" lon="9.55644">
        <ele>304.096783</ele>
        <time>2020-07-15T19:08:12.085Z</time>
      </trkpt>
      <trkpt lat="63.31258" lon="9.55717">
        <ele>308.284689</ele>
        <time>2020-07-15T19:08:54.487Z</time>
      </trkpt>
      <trkpt lat="63.31218" lon="9.5575">
        <ele>309.383561</ele>
        <time>2020-07-15T19:09:06.206Z</time>
      </trkpt>
      <trkpt lat="63.31185" lon="9.5579">
        <ele>310.044449</ele>
        <time>2020-07-15T19:09:15.903Z</time>
      </trkpt>
      <trkpt lat="63.31154" lon="9.55844">
        <ele>310.749879</ele>
        <time>2020-07-15T19:09:25.586Z</time>
      </trkpt>
      <trkpt lat="63.31127" lon="9.55905">
        <ele>311.433332</ele>
        <time>2020-07-15T19:09:34.285Z</time>
      </trkpt>
      <trkpt lat="63.31104" lon="9.55977">
        <ele>312.146763</ele>
        <time>2020-07-15T19:09:42.810Z</time>
      </trkpt>
      <trkpt lat="63.31086" lon="9.5606">
        <ele>312.509871</ele>
        <time>2020-07-15T19:09:51.132Z</time>
      </trkpt>
      <trkpt lat="63.31083" lon="9.56076">
        <ele>312.538616</ele>
        <time>2020-07-15T19:09:52.591Z</time>
      </trkpt>
      <trkpt lat="63.31072" lon="9.56148">
        <ele>312.665486</ele>
        <time>2020-07-15T19:09:59.186Z</time>
      </trkpt>
      <trkpt lat="63.31063" lon="9.5621">
        <ele>312.772102</ele>
        <time>2020-07-15T19:10:04.608Z</time>
      </trkpt>
      <trkpt lat="63.31044" lon="9.56343">
        <ele>313.004357</ele>
        <time>2020-07-15T19:10:16.141Z</time>
      </trkpt>
      <trkpt lat="63.31032" lon="9.56424">
        <ele>313.028781</ele>
        <time>2020-07-15T19:10:22.991Z</time>
      </trkpt>
      <trkpt lat="63.31016" lon="9.56519">
        <ele>312.907626</ele>
        <time>2020-07-15T19:10:31.194Z</time>
      </trkpt>
      <trkpt lat="63.31007" lon="9.56568">
        <ele>312.844559</ele>
        <time>2020-07-15T19:10:35.498Z</time>
      </trkpt>
      <trkpt lat="63.30998" lon="9.56612">
        <ele>312.785955</ele>
        <time>2020-07-15T19:10:39.373Z</time>
      </trkpt>
      <trkpt lat="63.30986" lon="9.56663">
        <ele>312.718486</ele>
        <time>2020-07-15T19:10:43.658Z</time>
      </trkpt>
      <trkpt lat="63.30943" lon="9.56829">
        <ele>311.986987</ele>
        <time>2020-07-15T19:10:57.620Z</time>
      </trkpt>
      <trkpt lat="63.30714" lon="9.57566">
        <ele>305.094318</ele>
        <time>2020-07-15T19:11:55.553Z</time>
      </trkpt>
      <trkpt lat="63.30704" lon="9.576">
        <ele>304.727358</ele>
        <time>2020-07-15T19:11:58.082Z</time>
      </trkpt>
      <trkpt lat="63.30696" lon="9.57625">
        <ele>304.447919</ele>
        <time>2020-07-15T19:11:59.997Z</time>
      </trkpt>
      <trkpt lat="63.30639" lon="9.57849">
        <ele>301.958656</ele>
        <time>2020-07-15T19:12:16.063Z</time>
      </trkpt>
      <trkpt lat="63.30575" lon="9.58138">
        <ele>298.444038</ele>
        <time>2020-07-15T19:12:36.127Z</time>
      </trkpt>
      <trkpt lat="63.30479" lon="9.5858">
        <ele>290.645366</ele>
        <time>2020-07-15T19:13:04.711Z</time>
      </trkpt>
      <trkpt lat="63.30454" lon="9.5867">
        <ele>288.581062</ele>
        <time>2020-07-15T19:13:10.535Z</time>
      </trkpt>
      <trkpt lat="63.30424" lon="9.58742">
        <ele>286.695283</ele>
        <time>2020-07-15T19:13:15.824Z</time>
      </trkpt>
      <trkpt lat="63.30391" lon="9.58815">
        <ele>284.705658</ele>
        <time>2020-07-15T19:13:21.542Z</time>
      </trkpt>
      <trkpt lat="63.3032" lon="9.58972">
        <ele>280.676967</ele>
        <time>2020-07-15T19:13:33.935Z</time>
      </trkpt>
      <trkpt lat="63.3023" lon="9.59217">
        <ele>275.907317</ele>
        <time>2020-07-15T19:13:52.572Z</time>
      </trkpt>
      <trkpt lat="63.30205" lon="9.59272">
        <ele>274.916313</ele>
        <time>2020-07-15T19:13:57.372Z</time>
      </trkpt>
      <trkpt lat="63.30197" lon="9.59287">
        <ele>274.622469</ele>
        <time>2020-07-15T19:13:58.840Z</time>
      </trkpt>
      <trkpt lat="63.30179" lon="9.59316">
        <ele>273.992141</ele>
        <time>2020-07-15T19:14:01.846Z</time>
      </trkpt>
      <trkpt lat="63.30065" lon="9.59474">
        <ele>270.328411</ele>
        <time>2020-07-15T19:14:20.131Z</time>
      </trkpt>
      <trkpt lat="63.2995" lon="9.59671">
        <ele>265.817097</ele>
        <time>2020-07-15T19:14:39.365Z</time>
      </trkpt>
      <trkpt lat="63.29936" lon="9.5969">
        <ele>265.221318</ele>
        <time>2020-07-15T19:14:41.567Z</time>
      </trkpt>
      <trkpt lat="63.29931" lon="9.59698">
        <ele>264.992903</ele>
        <time>2020-07-15T19:14:42.341Z</time>
      </trkpt>
      <trkpt lat="63.29782" lon="9.59869">
        <ele>257.722798</ele>
        <time>2020-07-15T19:15:03.270Z</time>
      </trkpt>
      <trkpt lat="63.29725" lon="9.59948">
        <ele>254.225306</ele>
        <time>2020-07-15T19:15:11.312Z</time>
      </trkpt>
      <trkpt lat="63.29651" lon="9.60048">
        <ele>249.82272</ele>
        <time>2020-07-15T19:15:21.352Z</time>
      </trkpt>
      <trkpt lat="63.29604" lon="9.60115">
        <ele>247.025683</ele>
        <time>2020-07-15T19:15:28.063Z</time>
      </trkpt>
      <trkpt lat="63.29592" lon="9.60134">
        <ele>246.269042</ele>
        <time>2020-07-15T19:15:29.815Z</time>
      </trkpt>
      <trkpt lat="63.29583" lon="9.60151">
        <ele>245.669908</ele>
        <time>2020-07-15T19:15:31.310Z</time>
      </trkpt>
      <trkpt lat="63.29549" lon="9.6023">
        <ele>243.2404</ele>
        <time>2020-07-15T19:15:37.522Z</time>
      </trkpt>
      <trkpt lat="63.29503" lon="9.60376">
        <ele>240.795571</ele>
        <time>2020-07-15T19:15:48.117Z</time>
      </trkpt>
      <trkpt lat="63.29466" lon="9.60446">
        <ele>239.321081</ele>
        <time>2020-07-15T19:15:55.038Z</time>
      </trkpt>
      <trkpt lat="63.29303" lon="9.60665">
        <ele>231.495524</ele>
        <time>2020-07-15T19:16:19.607Z</time>
      </trkpt>
      <trkpt lat="63.29272" lon="9.6069">
        <ele>230.015852</ele>
        <time>2020-07-15T19:16:23.509Z</time>
      </trkpt>
      <trkpt lat="63.29202" lon="9.60724">
        <ele>223.56423</ele>
        <time>2020-07-15T19:16:31.382Z</time>
      </trkpt>
      <trkpt lat="63.29145" lon="9.60783">
        <ele>217.587108</ele>
        <time>2020-07-15T19:16:38.224Z</time>
      </trkpt>
      <trkpt lat="63.29114" lon="9.60824">
        <ele>214.132478</ele>
        <time>2020-07-15T19:16:42.159Z</time>
      </trkpt>
      <trkpt lat="63.29081" lon="9.60866">
        <ele>210.719474</ele>
        <time>2020-07-15T19:16:46.220Z</time>
      </trkpt>
      <trkpt lat="63.28977" lon="9.60969">
        <ele>200.697041</ele>
        <time>2020-07-15T19:16:58.678Z</time>
      </trkpt>
      <trkpt lat="63.28953" lon="9.61016">
        <ele>197.875404</ele>
        <time>2020-07-15T19:17:02.372Z</time>
      </trkpt>
      <trkpt lat="63.28941" lon="9.61085">
        <ele>195.621397</ele>
        <time>2020-07-15T19:17:06.579Z</time>
      </trkpt>
      <trkpt lat="63.2894" lon="9.61093">
        <ele>195.424218</ele>
        <time>2020-07-15T19:17:06.990Z</time>
      </trkpt>
      <trkpt lat="63.28934" lon="9.61318">
        <ele>189.689896</ele>
        <time>2020-07-15T19:17:19.097Z</time>
      </trkpt>
      <trkpt lat="63.28918" lon="9.6142">
        <ele>186.953601</ele>
        <time>2020-07-15T19:17:24.964Z</time>
      </trkpt>
      <trkpt lat="63.28913" lon="9.61438">
        <ele>186.428198</ele>
        <time>2020-07-15T19:17:26.154Z</time>
      </trkpt>
      <trkpt lat="63.28904" lon="9.61465">
        <ele>185.658295</ele>
        <time>2020-07-15T19:17:27.769Z</time>
      </trkpt>
      <trkpt lat="63.28837" lon="9.61676">
        <ele>179.442385</ele>
        <time>2020-07-15T19:17:41.555Z</time>
      </trkpt>
      <trkpt lat="63.28807" lon="9.61843">
        <ele>176.632449</ele>
        <time>2020-07-15T19:17:51.531Z</time>
      </trkpt>
      <trkpt lat="63.28799" lon="9.61939">
        <ele>176.068127</ele>
        <time>2020-07-15T19:17:57.595Z</time>
      </trkpt>
      <trkpt lat="63.28794" lon="9.62048">
        <ele>175.431202</ele>
        <time>2020-07-15T19:18:05.631Z</time>
      </trkpt>
      <trkpt lat="63.28799" lon="9.62315">
        <ele>175.855795</ele>
        <time>2020-07-15T19:18:33.060Z</time>
      </trkpt>
      <trkpt lat="63.28801" lon="9.62346">
        <ele>176.070443</ele>
        <time>2020-07-15T19:18:37.147Z</time>
      </trkpt>
      <trkpt lat="63.28815" lon="9.6251">
        <ele>177.201422</ele>
        <time>2020-07-15T19:18:54.758Z</time>
      </trkpt>
      <trkpt lat="63.28818" lon="9.62675">
        <ele>176.644806</ele>
        <time>2020-07-15T19:19:09.690Z</time>
      </trkpt>
      <trkpt lat="63.28804" lon="9.62792">
        <ele>175.781216</ele>
        <time>2020-07-15T19:19:17.904Z</time>
      </trkpt>
      <trkpt lat="63.28783" lon="9.62863">
        <ele>175.172869</ele>
        <time>2020-07-15T19:19:22.908Z</time>
      </trkpt>
      <trkpt lat="63.28708" lon="9.63028">
        <ele>171.749117</ele>
        <time>2020-07-15T19:19:36.080Z</time>
      </trkpt>
      <trkpt lat="63.28702" lon="9.63039">
        <ele>171.421119</ele>
        <time>2020-07-15T19:19:37.018Z</time>
      </trkpt>
      <trkpt lat="63.28698" lon="9.63049">
        <ele>171.202584</ele>
        <time>2020-07-15T19:19:37.683Z</time>
      </trkpt>
      <trkpt lat="63.28681" lon="9.63085">
        <ele>170.253289</ele>
        <time>2020-07-15T19:19:40.977Z</time>
      </trkpt>
      <trkpt lat="63.28676" lon="9.63095">
        <ele>169.987981</ele>
        <time>2020-07-15T19:19:41.771Z</time>
      </trkpt>
      <trkpt lat="63.28671" lon="9.63108">
        <ele>169.669541</ele>
        <time>2020-07-15T19:19:42.757Z</time>
      </trkpt>
      <trkpt lat="63.28653" lon="9.63175">
        <ele>168.265309</ele>
        <time>2020-07-15T19:19:47.382Z</time>
      </trkpt>
      <trkpt lat="63.28606" lon="9.63491">
        <ele>164.851352</ele>
        <time>2020-07-15T19:20:08.791Z</time>
      </trkpt>
      <trkpt lat="63.286" lon="9.63558">
        <ele>164.235733</ele>
        <time>2020-07-15T19:20:13.910Z</time>
      </trkpt>
      <trkpt lat="63.28598" lon="9.6358">
        <ele>164.023067</ele>
        <time>2020-07-15T19:20:15.835Z</time>
      </trkpt>
      <trkpt lat="63.28558" lon="9.63794">
        <ele>163.067411</ele>
        <time>2020-07-15T19:20:34.208Z</time>
      </trkpt>
      <trkpt lat="63.28551" lon="9.63835">
        <ele>162.90774</ele>
        <time>2020-07-15T19:20:37.646Z</time>
      </trkpt>
      <trkpt lat="63.28548" lon="9.63861">
        <ele>162.811138</ele>
        <time>2020-07-15T19:20:39.437Z</time>
      </trkpt>
      <trkpt lat="63.28539" lon="9.6394">
        <ele>162.515682</ele>
        <time>2020-07-15T19:20:45.274Z</time>
      </trkpt>
      <trkpt lat="63.28535" lon="9.63982">
        <ele>162.340562</ele>
        <time>2020-07-15T19:20:48.440Z</time>
      </trkpt>
      <trkpt lat="63.28533" lon="9.64009">
        <ele>162.151891</ele>
        <time>2020-07-15T19:20:50.341Z</time>
      </trkpt>
      <trkpt lat="63.28529" lon="9.64058">
        <ele>161.795551</ele>
        <time>2020-07-15T19:20:53.733Z</time>
      </trkpt>
      <trkpt lat="63.28516" lon="9.64072">
        <ele>161.562047</ele>
        <time>2020-07-15T19:20:56.098Z</time>
      </trkpt>
      <trkpt lat="63.28514" lon="9.64071">
        <ele>161.534581</ele>
        <time>2020-07-15T19:20:56.299Z</time>
      </trkpt>
      <trkpt lat="63.28487" lon="9.64045">
        <ele>161.071262</ele>
        <time>2020-07-15T19:21:00.808Z</time>
      </trkpt>
      <trkpt lat="63.28482" lon="9.64043">
        <ele>160.98779</ele>
        <time>2020-07-15T19:21:01.642Z</time>
      </trkpt>
      <trkpt lat="63.28481" lon="9.64043">
        <ele>160.970486</ele>
        <time>2020-07-15T19:21:01.759Z</time>
      </trkpt>
      <trkpt lat="63.28478" lon="9.64044">
        <ele>160.924123</ele>
        <time>2020-07-15T19:21:02.155Z</time>
      </trkpt>
      <trkpt lat="63.28469" lon="9.64062">
        <ele>160.738334</ele>
        <time>2020-07-15T19:21:04.107Z</time>
      </trkpt>
      <trkpt lat="63.28459" lon="9.64113">
        <ele>160.344339</ele>
        <time>2020-07-15T19:21:07.661Z</time>
      </trkpt>
      <trkpt lat="63.2845" lon="9.64157">
        <ele>160.004695</ele>
        <time>2020-07-15T19:21:11.049Z</time>
      </trkpt>
      <trkpt lat="63.28423" lon="9.64281">
        <ele>160.621525</ele>
        <time>2020-07-15T19:21:20.410Z</time>
      </trkpt>
      <trkpt lat="63.28414" lon="9.64328">
        <ele>161.351354</ele>
        <time>2020-07-15T19:21:26.239Z</time>
      </trkpt>
      <trkpt lat="63.28405" lon="9.64384">
        <ele>162.210794</ele>
        <time>2020-07-15T19:21:34.519Z</time>
      </trkpt>
      <trkpt lat="63.28385" lon="9.64474">
        <ele>163.648013</ele>
        <time>2020-07-15T19:21:48.756Z</time>
      </trkpt>
      <trkpt lat="63.28381" lon="9.64492">
        <ele>163.950169</ele>
        <time>2020-07-15T19:21:51.620Z</time>
      </trkpt>
      <trkpt lat="63.28372" lon="9.64525">
        <ele>164.511592</ele>
        <time>2020-07-15T19:21:59.247Z</time>
      </trkpt>
      <trkpt lat="63.2836" lon="9.64567">
        <ele>165.221163</ele>
        <time>2020-07-15T19:22:06.345Z</time>
      </trkpt>
      <trkpt lat="63.28355" lon="9.64588">
        <ele>165.756877</ele>
        <time>2020-07-15T19:22:12.174Z</time>
      </trkpt>
      <trkpt lat="63.28313" lon="9.64751">
        <ele>170.499501</ele>
        <time>2020-07-15T19:22:45.972Z</time>
      </trkpt>
      <trkpt lat="63.283" lon="9.64783">
        <ele>171.552801</ele>
        <time>2020-07-15T19:22:53.718Z</time>
      </trkpt>
      <trkpt lat="63.28278" lon="9.6481">
        <ele>172.980941</ele>
        <time>2020-07-15T19:23:03.218Z</time>
      </trkpt>
      <trkpt lat="63.28251" lon="9.64808">
        <ele>174.48431</ele>
        <time>2020-07-15T19:23:14.154Z</time>
      </trkpt>
      <trkpt lat="63.28224" lon="9.6476">
        <ele>175.200592</ele>
        <time>2020-07-15T19:23:23.546Z</time>
      </trkpt>
      <trkpt lat="63.28174" lon="9.64574">
        <ele>174.075197</ele>
        <time>2020-07-15T19:23:39.763Z</time>
      </trkpt>
      <trkpt lat="63.28151" lon="9.64513">
        <ele>173.664269</ele>
        <time>2020-07-15T19:23:44.609Z</time>
      </trkpt>
      <trkpt lat="63.28104" lon="9.64416">
        <ele>171.617833</ele>
        <time>2020-07-15T19:23:52.819Z</time>
      </trkpt>
      <trkpt lat="63.28044" lon="9.64319">
        <ele>168.026921</ele>
        <time>2020-07-15T19:24:02.187Z</time>
      </trkpt>
      <trkpt lat="63.28028" lon="9.64302">
        <ele>167.20038</ele>
        <time>2020-07-15T19:24:04.333Z</time>
      </trkpt>
      <trkpt lat="63.28014" lon="9.64287">
        <ele>166.422097</ele>
        <time>2020-07-15T19:24:06.385Z</time>
      </trkpt>
      <trkpt lat="63.27937" lon="9.64204">
        <ele>163.030852</ele>
        <time>2020-07-15T19:24:17.458Z</time>
      </trkpt>
      <trkpt lat="63.27918" lon="9.64164">
        <ele>162.124979</ele>
        <time>2020-07-15T19:24:21.042Z</time>
      </trkpt>
      <trkpt lat="63.27892" lon="9.64085">
        <ele>160.642689</ele>
        <time>2020-07-15T19:24:27.015Z</time>
      </trkpt>
      <trkpt lat="63.27866" lon="9.64043">
        <ele>159.562388</ele>
        <time>2020-07-15T19:24:31.566Z</time>
      </trkpt>
      <trkpt lat="63.27748" lon="9.63953">
        <ele>157.188378</ele>
        <time>2020-07-15T19:24:49.916Z</time>
      </trkpt>
      <trkpt lat="63.27708" lon="9.63947">
        <ele>156.614148</ele>
        <time>2020-07-15T19:24:56.166Z</time>
      </trkpt>
      <trkpt lat="63.27686" lon="9.63976">
        <ele>156.240081</ele>
        <time>2020-07-15T19:25:00.412Z</time>
      </trkpt>
      <trkpt lat="63.27673" lon="9.64029">
        <ele>155.984709</ele>
        <time>2020-07-15T19:25:05.119Z</time>
      </trkpt>
      <trkpt lat="63.27665" lon="9.64203">
        <ele>156.16548</ele>
        <time>2020-07-15T19:25:20.406Z</time>
      </trkpt>
      <trkpt lat="63.27634" lon="9.64385">
        <ele>156.367705</ele>
        <time>2020-07-15T19:25:38.304Z</time>
      </trkpt>
      <trkpt lat="63.27635" lon="9.64469">
        <ele>156.330845</ele>
        <time>2020-07-15T19:25:45.738Z</time>
      </trkpt>
      <trkpt lat="63.27638" lon="9.64509">
        <ele>156.303294</ele>
        <time>2020-07-15T19:25:49.519Z</time>
      </trkpt>
      <trkpt lat="63.27676" lon="9.64858">
        <ele>155.996839</ele>
        <time>2020-07-15T19:26:17.571Z</time>
      </trkpt>
      <trkpt lat="63.277" lon="9.65062">
        <ele>155.656178</ele>
        <time>2020-07-15T19:26:33.557Z</time>
      </trkpt>
      <trkpt lat="63.27731" lon="9.65213">
        <ele>155.621711</ele>
        <time>2020-07-15T19:26:47.644Z</time>
      </trkpt>
      <trkpt lat="63.27752" lon="9.65278">
        <ele>155.870116</ele>
        <time>2020-07-15T19:26:54.986Z</time>
      </trkpt>
      <trkpt lat="63.27837" lon="9.65486">
        <ele>156.740324</ele>
        <time>2020-07-15T19:27:22.448Z</time>
      </trkpt>
      <trkpt lat="63.27988" lon="9.65983">
        <ele>158.605561</ele>
        <time>2020-07-15T19:28:18.666Z</time>
      </trkpt>
      <trkpt lat="63.27995" lon="9.66014">
        <ele>158.699887</ele>
        <time>2020-07-15T19:28:21.919Z</time>
      </trkpt>
      <trkpt lat="63.28009" lon="9.66088">
        <ele>158.918352</ele>
        <time>2020-07-15T19:28:29.102Z</time>
      </trkpt>
      <trkpt lat="63.28041" lon="9.662">
        <ele>159.243409</ele>
        <time>2020-07-15T19:28:40.899Z</time>
      </trkpt>
      <trkpt lat="63.28154" lon="9.66482">
        <ele>159.808386</ele>
        <time>2020-07-15T19:29:15.556Z</time>
      </trkpt>
      <trkpt lat="63.28184" lon="9.66556">
        <ele>159.364269</ele>
        <time>2020-07-15T19:29:23.614Z</time>
      </trkpt>
      <trkpt lat="63.28207" lon="9.66617">
        <ele>159.008795</ele>
        <time>2020-07-15T19:29:29.565Z</time>
      </trkpt>
      <trkpt lat="63.28227" lon="9.66692">
        <ele>158.618451</ele>
        <time>2020-07-15T19:29:35.749Z</time>
      </trkpt>
      <trkpt lat="63.28243" lon="9.66781">
        <ele>158.192279</ele>
        <time>2020-07-15T19:29:42.023Z</time>
      </trkpt>
      <trkpt lat="63.28274" lon="9.66986">
        <ele>156.32974</ele>
        <time>2020-07-15T19:29:55.886Z</time>
      </trkpt>
      <trkpt lat="63.28276" lon="9.67033">
        <ele>155.914279</ele>
        <time>2020-07-15T19:29:59.430Z</time>
      </trkpt>
      <trkpt lat="63.28276" lon="9.67061">
        <ele>155.674758</ele>
        <time>2020-07-15T19:30:01.054Z</time>
      </trkpt>
      <trkpt lat="63.28275" lon="9.67066">
        <ele>155.621686</ele>
        <time>2020-07-15T19:30:01.723Z</time>
      </trkpt>
      <trkpt lat="63.28275" lon="9.6709">
        <ele>155.420445</ele>
        <time>2020-07-15T19:30:03.359Z</time>
      </trkpt>
      <trkpt lat="63.2829" lon="9.67183">
        <ele>154.651562</ele>
        <time>2020-07-15T19:30:10.446Z</time>
      </trkpt>
      <trkpt lat="63.283" lon="9.67196">
        <ele>154.562295</ele>
        <time>2020-07-15T19:30:12.003Z</time>
      </trkpt>
      <trkpt lat="63.28315" lon="9.67187">
        <ele>154.444179</ele>
        <time>2020-07-15T19:30:14.580Z</time>
      </trkpt>
      <trkpt lat="63.28318" lon="9.67184">
        <ele>154.416028</ele>
        <time>2020-07-15T19:30:15.633Z</time>
      </trkpt>
      <trkpt lat="63.28345" lon="9.67352">
        <ele>153.791709</ele>
        <time>2020-07-15T19:30:28.955Z</time>
      </trkpt>
      <trkpt lat="63.28484" lon="9.68204">
        <ele>152.280846</ele>
        <time>2020-07-15T19:31:40.892Z</time>
      </trkpt>
      <trkpt lat="63.28504" lon="9.68293">
        <ele>152.225113</ele>
        <time>2020-07-15T19:31:49.020Z</time>
      </trkpt>
      <trkpt lat="63.28576" lon="9.68521">
        <ele>152.148637</ele>
        <time>2020-07-15T19:32:12.250Z</time>
      </trkpt>
      <trkpt lat="63.28596" lon="9.68614">
        <ele>152.151162</ele>
        <time>2020-07-15T19:32:20.858Z</time>
      </trkpt>
      <trkpt lat="63.28609" lon="9.68717">
        <ele>152.186539</ele>
        <time>2020-07-15T19:32:29.913Z</time>
      </trkpt>
      <trkpt lat="63.28636" lon="9.69058">
        <ele>152.585263</ele>
        <time>2020-07-15T19:32:59.392Z</time>
      </trkpt>
      <trkpt lat="63.28653" lon="9.69208">
        <ele>153.053223</ele>
        <time>2020-07-15T19:33:12.229Z</time>
      </trkpt>
      <trkpt lat="63.28659" lon="9.69249">
        <ele>153.18349</ele>
        <time>2020-07-15T19:33:15.721Z</time>
      </trkpt>
      <trkpt lat="63.28661" lon="9.69265">
        <ele>153.235407</ele>
        <time>2020-07-15T19:33:17.367Z</time>
      </trkpt>
      <trkpt lat="63.28693" lon="9.69503">
        <ele>157.770966</ele>
        <time>2020-07-15T19:33:47.449Z</time>
      </trkpt>
      <trkpt lat="63.28702" lon="9.69563">
        <ele>159.381135</ele>
        <time>2020-07-15T19:33:58.974Z</time>
      </trkpt>
      <trkpt lat="63.28699" lon="9.69565">
        <ele>159.542009</ele>
        <time>2020-07-15T19:34:00.138Z</time>
      </trkpt>
      <trkpt lat="63.28688" lon="9.69575">
        <ele>160.231447</ele>
        <time>2020-07-15T19:34:04.482Z</time>
      </trkpt>
      <trkpt lat="63.28664" lon="9.69598">
        <ele>161.696782</ele>
        <time>2020-07-15T19:34:16.135Z</time>
      </trkpt>
      <trkpt lat="63.2864" lon="9.69622">
        <ele>163.212179</ele>
        <time>2020-07-15T19:34:28.388Z</time>
      </trkpt>
      <trkpt lat="63.28634" lon="9.69628">
        <ele>163.614828</ele>
        <time>2020-07-15T19:34:31.681Z</time>
      </trkpt>
      <trkpt lat="63.28611" lon="9.69651">
        <ele>166.049265</ele>
        <time>2020-07-15T19:34:42.247Z</time>
      </trkpt>
      <trkpt lat="63.28607" lon="9.69656">
        <ele>166.580277</ele>
        <time>2020-07-15T19:34:46.447Z</time>
      </trkpt>
      <trkpt lat="63.28592" lon="9.69687">
        <ele>168.681511</ele>
        <time>2020-07-15T19:34:55.737Z</time>
      </trkpt>
      <trkpt lat="63.28591" lon="9.69714">
        <ele>169.914312</ele>
        <time>2020-07-15T19:35:01.784Z</time>
      </trkpt>
      <trkpt lat="63.28609" lon="9.69848">
        <ele>176.499347</ele>
        <time>2020-07-15T19:35:36.826Z</time>
      </trkpt>
      <trkpt lat="63.28603" lon="9.70058">
        <ele>185.169729</ele>
        <time>2020-07-15T19:36:25.931Z</time>
      </trkpt>
      <trkpt lat="63.28624" lon="9.70193">
        <ele>189.896131</ele>
        <time>2020-07-15T19:36:52.502Z</time>
      </trkpt>
      <trkpt lat="63.28628" lon="9.70276">
        <ele>192.659447</ele>
        <time>2020-07-15T19:37:07.086Z</time>
      </trkpt>
      <trkpt lat="63.28598" lon="9.70511">
        <ele>197.457025</ele>
        <time>2020-07-15T19:37:43.708Z</time>
      </trkpt>
      <trkpt lat="63.28583" lon="9.70587">
        <ele>198.42983</ele>
        <time>2020-07-15T19:37:53.325Z</time>
      </trkpt>
      <trkpt lat="63.2858" lon="9.70598">
        <ele>198.569061</ele>
        <time>2020-07-15T19:37:55.386Z</time>
      </trkpt>
      <trkpt lat="63.28571" lon="9.70629">
        <ele>198.987698</ele>
        <time>2020-07-15T19:37:58.352Z</time>
      </trkpt>
      <trkpt lat="63.28517" lon="9.70776">
        <ele>199.879442</ele>
        <time>2020-07-15T19:38:14.217Z</time>
      </trkpt>
      <trkpt lat="63.28433" lon="9.70964">
        <ele>198.396127</ele>
        <time>2020-07-15T19:38:31.433Z</time>
      </trkpt>
      <trkpt lat="63.28403" lon="9.71017">
        <ele>197.916851</ele>
        <time>2020-07-15T19:38:36.777Z</time>
      </trkpt>
      <trkpt lat="63.28357" lon="9.71061">
        <ele>197.245658</ele>
        <time>2020-07-15T19:38:44.085Z</time>
      </trkpt>
      <trkpt lat="63.282" lon="9.71167">
        <ele>195.239466</ele>
        <time>2020-07-15T19:39:09.226Z</time>
      </trkpt>
      <trkpt lat="63.28184" lon="9.71177">
        <ele>195.07543</ele>
        <time>2020-07-15T19:39:11.975Z</time>
      </trkpt>
      <trkpt lat="63.28103" lon="9.71225">
        <ele>194.268835</ele>
        <time>2020-07-15T19:39:25.622Z</time>
      </trkpt>
      <trkpt lat="63.28016" lon="9.71282">
        <ele>192.062736</ele>
        <time>2020-07-15T19:39:38.927Z</time>
      </trkpt>
      <trkpt lat="63.27959" lon="9.71392">
        <ele>189.581562</ele>
        <time>2020-07-15T19:39:48.907Z</time>
      </trkpt>
      <trkpt lat="63.27952" lon="9.71407">
        <ele>189.264471</ele>
        <time>2020-07-15T19:39:50.144Z</time>
      </trkpt>
      <trkpt lat="63.2792" lon="9.71474">
        <ele>187.580114</ele>
        <time>2020-07-15T19:39:55.420Z</time>
      </trkpt>
      <trkpt lat="63.27894" lon="9.71506">
        <ele>185.496637</ele>
        <time>2020-07-15T19:39:58.839Z</time>
      </trkpt>
      <trkpt lat="63.2781" lon="9.7156">
        <ele>179.414829</ele>
        <time>2020-07-15T19:40:08.758Z</time>
      </trkpt>
      <trkpt lat="63.27782" lon="9.71578">
        <ele>177.418134</ele>
        <time>2020-07-15T19:40:11.983Z</time>
      </trkpt>
      <trkpt lat="63.27774" lon="9.71583">
        <ele>176.794245</ele>
        <time>2020-07-15T19:40:13.036Z</time>
      </trkpt>
      <trkpt lat="63.27763" lon="9.71589">
        <ele>176.017121</ele>
        <time>2020-07-15T19:40:14.276Z</time>
      </trkpt>
      <trkpt lat="63.27727" lon="9.7161">
        <ele>173.967537</ele>
        <time>2020-07-15T19:40:18.608Z</time>
      </trkpt>
      <trkpt lat="63.27712" lon="9.7163">
        <ele>173.107022</ele>
        <time>2020-07-15T19:40:20.635Z</time>
      </trkpt>
      <trkpt lat="63.27675" lon="9.71816">
        <ele>168.40802</ele>
        <time>2020-07-15T19:40:31.476Z</time>
      </trkpt>
      <trkpt lat="63.27568" lon="9.72086">
        <ele>163.571305</ele>
        <time>2020-07-15T19:40:53.847Z</time>
      </trkpt>
      <trkpt lat="63.27554" lon="9.7214">
        <ele>162.939874</ele>
        <time>2020-07-15T19:40:57.827Z</time>
      </trkpt>
      <trkpt lat="63.27548" lon="9.72191">
        <ele>162.410555</ele>
        <time>2020-07-15T19:41:01.162Z</time>
      </trkpt>
      <trkpt lat="63.27542" lon="9.72646">
        <ele>159.227111</ele>
        <time>2020-07-15T19:41:31.042Z</time>
      </trkpt>
      <trkpt lat="63.27548" lon="9.72713">
        <ele>158.987363</ele>
        <time>2020-07-15T19:41:35.813Z</time>
      </trkpt>
      <trkpt lat="63.27593" lon="9.72967">
        <ele>158.036312</ele>
        <time>2020-07-15T19:41:55.784Z</time>
      </trkpt>
      <trkpt lat="63.27613" lon="9.73121">
        <ele>157.868009</ele>
        <time>2020-07-15T19:42:08.292Z</time>
      </trkpt>
      <trkpt lat="63.27637" lon="9.7346">
        <ele>157.888008</ele>
        <time>2020-07-15T19:42:35.339Z</time>
      </trkpt>
      <trkpt lat="63.27635" lon="9.73511">
        <ele>158.012684</ele>
        <time>2020-07-15T19:42:39.513Z</time>
      </trkpt>
      <trkpt lat="63.27627" lon="9.73562">
        <ele>158.144172</ele>
        <time>2020-07-15T19:42:44.550Z</time>
      </trkpt>
      <trkpt lat="63.27623" lon="9.73579">
        <ele>158.189291</ele>
        <time>2020-07-15T19:42:45.974Z</time>
      </trkpt>
      <trkpt lat="63.27625" lon="9.73582">
        <ele>158.204926</ele>
        <time>2020-07-15T19:42:46.651Z</time>
      </trkpt>
      <trkpt lat="63.27665" lon="9.73686">
        <ele>158.536947</ele>
        <time>2020-07-15T19:42:59.526Z</time>
      </trkpt>
      <trkpt lat="63.27698" lon="9.73753">
        <ele>158.701106</ele>
        <time>2020-07-15T19:43:08.540Z</time>
      </trkpt>
      <trkpt lat="63.27716" lon="9.73792">
        <ele>158.756318</ele>
        <time>2020-07-15T19:43:14.170Z</time>
      </trkpt>
      <trkpt lat="63.27778" lon="9.73922">
        <ele>158.937898</ele>
        <time>2020-07-15T19:43:31.597Z</time>
      </trkpt>
      <trkpt lat="63.27809" lon="9.74018">
        <ele>158.799055</ele>
        <time>2020-07-15T19:43:40.143Z</time>
      </trkpt>
      <trkpt lat="63.27816" lon="9.74095">
        <ele>157.460855</ele>
        <time>2020-07-15T19:43:44.981Z</time>
      </trkpt>
      <trkpt lat="63.27811" lon="9.74233">
        <ele>155.096856</ele>
        <time>2020-07-15T19:43:52.918Z</time>
      </trkpt>
      <trkpt lat="63.2781" lon="9.7428">
        <ele>154.282118</ele>
        <time>2020-07-15T19:43:55.514Z</time>
      </trkpt>
      <trkpt lat="63.27802" lon="9.74502">
        <ele>149.688614</ele>
        <time>2020-07-15T19:44:07.484Z</time>
      </trkpt>
      <trkpt lat="63.2779" lon="9.74716">
        <ele>144.343029</ele>
        <time>2020-07-15T19:44:18.919Z</time>
      </trkpt>
      <trkpt lat="63.27787" lon="9.74781">
        <ele>142.707288</ele>
        <time>2020-07-15T19:44:22.524Z</time>
      </trkpt>
      <trkpt lat="63.27781" lon="9.74781">
        <ele>142.380964</ele>
        <time>2020-07-15T19:44:23.471Z</time>
      </trkpt>
      <trkpt lat="63.27761" lon="9.74776">
        <ele>141.351326</ele>
        <time>2020-07-15T19:44:26.988Z</time>
      </trkpt>
      <trkpt lat="63.27781" lon="9.74781">
        <ele>140.334598</ele>
        <time>2020-07-15T19:44:30.394Z</time>
      </trkpt>
      <trkpt lat="63.27787" lon="9.74781">
        <ele>140.041871</ele>
        <time>2020-07-15T19:44:31.522Z</time>
      </trkpt>
      <trkpt lat="63.27784" lon="9.74837">
        <ele>138.805421</ele>
        <time>2020-07-15T19:44:34.508Z</time>
      </trkpt>
      <trkpt lat="63.27753" lon="9.75173">
        <ele>131.362737</ele>
        <time>2020-07-15T19:44:53.319Z</time>
      </trkpt>
      <trkpt lat="63.27712" lon="9.75544">
        <ele>124.910976</ele>
        <time>2020-07-15T19:45:14.582Z</time>
      </trkpt>
      <trkpt lat="63.27709" lon="9.75613">
        <ele>124.552805</ele>
        <time>2020-07-15T19:45:18.984Z</time>
      </trkpt>
      <trkpt lat="63.27715" lon="9.75804">
        <ele>123.580582</ele>
        <time>2020-07-15T19:45:33.140Z</time>
      </trkpt>
      <trkpt lat="63.27739" lon="9.76138">
        <ele>126.042142</ele>
        <time>2020-07-15T19:46:10.868Z</time>
      </trkpt>
      <trkpt lat="63.27754" lon="9.7622">
        <ele>126.918321</ele>
        <time>2020-07-15T19:46:21.793Z</time>
      </trkpt>
      <trkpt lat="63.27791" lon="9.76341">
        <ele>128.585584</ele>
        <time>2020-07-15T19:46:39.102Z</time>
      </trkpt>
      <trkpt lat="63.27801" lon="9.76388">
        <ele>129.205376</ele>
        <time>2020-07-15T19:46:44.987Z</time>
      </trkpt>
      <trkpt lat="63.27787" lon="9.76607">
        <ele>131.828077</ele>
        <time>2020-07-15T19:47:10.871Z</time>
      </trkpt>
      <trkpt lat="63.27795" lon="9.76706">
        <ele>133.039353</ele>
        <time>2020-07-15T19:47:23.230Z</time>
      </trkpt>
      <trkpt lat="63.27809" lon="9.76785">
        <ele>134.076311</ele>
        <time>2020-07-15T19:47:33.868Z</time>
      </trkpt>
      <trkpt lat="63.27828" lon="9.76863">
        <ele>135.144002</ele>
        <time>2020-07-15T19:47:44.588Z</time>
      </trkpt>
      <trkpt lat="63.27832" lon="9.7688">
        <ele>135.372824</ele>
        <time>2020-07-15T19:47:47.544Z</time>
      </trkpt>
      <trkpt lat="63.27897" lon="9.77087">
        <ele>136.616068</ele>
        <time>2020-07-15T19:48:15.530Z</time>
      </trkpt>
      <trkpt lat="63.27904" lon="9.77193">
        <ele>136.445599</ele>
        <time>2020-07-15T19:48:24.267Z</time>
      </trkpt>
      <trkpt lat="63.27935" lon="9.77409">
        <ele>135.458458</ele>
        <time>2020-07-15T19:48:37.916Z</time>
      </trkpt>
      <trkpt lat="63.27946" lon="9.77461">
        <ele>134.826817</ele>
        <time>2020-07-15T19:48:41.277Z</time>
      </trkpt>
      <trkpt lat="63.27971" lon="9.77575">
        <ele>133.446825</ele>
        <time>2020-07-15T19:48:48.887Z</time>
      </trkpt>
      <trkpt lat="63.27975" lon="9.7759">
        <ele>133.261818</ele>
        <time>2020-07-15T19:48:49.827Z</time>
      </trkpt>
      <trkpt lat="63.27984" lon="9.77671">
        <ele>132.349775</ele>
        <time>2020-07-15T19:48:54.974Z</time>
      </trkpt>
      <trkpt lat="63.27986" lon="9.77775">
        <ele>132.215399</ele>
        <time>2020-07-15T19:49:02.157Z</time>
      </trkpt>
      <trkpt lat="63.27995" lon="9.77824">
        <ele>132.580921</ele>
        <time>2020-07-15T19:49:06.385Z</time>
      </trkpt>
      <trkpt lat="63.28047" lon="9.77916">
        <ele>133.589729</ele>
        <time>2020-07-15T19:49:23.292Z</time>
      </trkpt>
      <trkpt lat="63.28063" lon="9.77927">
        <ele>133.846988</ele>
        <time>2020-07-15T19:49:27.928Z</time>
      </trkpt>
      <trkpt lat="63.2809" lon="9.77927">
        <ele>134.25223</ele>
        <time>2020-07-15T19:49:34.854Z</time>
      </trkpt>
      <trkpt lat="63.28105" lon="9.77926">
        <ele>134.480852</ele>
        <time>2020-07-15T19:49:39.622Z</time>
      </trkpt>
      <trkpt lat="63.28116" lon="9.77925">
        <ele>134.674433</ele>
        <time>2020-07-15T19:49:42.571Z</time>
      </trkpt>
      <trkpt lat="63.28137" lon="9.7794">
        <ele>135.124229</ele>
        <time>2020-07-15T19:49:48.646Z</time>
      </trkpt>
      <trkpt lat="63.28149" lon="9.77978">
        <ele>135.542324</ele>
        <time>2020-07-15T19:49:53.851Z</time>
      </trkpt>
      <trkpt lat="63.28162" lon="9.78052">
        <ele>136.252047</ele>
        <time>2020-07-15T19:50:03.440Z</time>
      </trkpt>
      <trkpt lat="63.2818" lon="9.78158">
        <ele>137.259341</ele>
        <time>2020-07-15T19:50:16.542Z</time>
      </trkpt>
      <trkpt lat="63.28204" lon="9.78313">
        <ele>137.083615</ele>
        <time>2020-07-15T19:50:30.583Z</time>
      </trkpt>
      <trkpt lat="63.28208" lon="9.78354">
        <ele>136.400862</ele>
        <time>2020-07-15T19:50:34.060Z</time>
      </trkpt>
      <trkpt lat="63.28211" lon="9.78385">
        <ele>135.869402</ele>
        <time>2020-07-15T19:50:36.385Z</time>
      </trkpt>
      <trkpt lat="63.2822" lon="9.78435">
        <ele>134.987085</ele>
        <time>2020-07-15T19:50:39.667Z</time>
      </trkpt>
      <trkpt lat="63.28273" lon="9.78629">
        <ele>130.445263</ele>
        <time>2020-07-15T19:50:51.840Z</time>
      </trkpt>
      <trkpt lat="63.2828" lon="9.78687">
        <ele>126.9041</ele>
        <time>2020-07-15T19:50:54.789Z</time>
      </trkpt>
      <trkpt lat="63.28279" lon="9.78698">
        <ele>126.241632</ele>
        <time>2020-07-15T19:50:55.356Z</time>
      </trkpt>
      <trkpt lat="63.28278" lon="9.78712">
        <ele>125.420428</ele>
        <time>2020-07-15T19:50:56.007Z</time>
      </trkpt>
      <trkpt lat="63.28263" lon="9.78793">
        <ele>120.285015</ele>
        <time>2020-07-15T19:51:00.185Z</time>
      </trkpt>
      <trkpt lat="63.28259" lon="9.78814">
        <ele>118.918988</ele>
        <time>2020-07-15T19:51:01.276Z</time>
      </trkpt>
      <trkpt lat="63.28241" lon="9.78913">
        <ele>112.604512</ele>
        <time>2020-07-15T19:51:06.310Z</time>
      </trkpt>
      <trkpt lat="63.28209" lon="9.79071">
        <ele>101.482794</ele>
        <time>2020-07-15T19:51:14.304Z</time>
      </trkpt>
      <trkpt lat="63.28165" lon="9.79223">
        <ele>89.112314</ele>
        <time>2020-07-15T19:51:22.660Z</time>
      </trkpt>
      <trkpt lat="63.28112" lon="9.79373">
        <ele>77.780618</ele>
        <time>2020-07-15T19:51:31.800Z</time>
      </trkpt>
      <trkpt lat="63.28103" lon="9.79417">
        <ele>75.743788</ele>
        <time>2020-07-15T19:51:34.202Z</time>
      </trkpt>
      <trkpt lat="63.28101" lon="9.79457">
        <ele>74.067527</ele>
        <time>2020-07-15T19:51:36.207Z</time>
      </trkpt>
      <trkpt lat="63.28113" lon="9.79541">
        <ele>70.420491</ele>
        <time>2020-07-15T19:51:40.630Z</time>
      </trkpt>
      <trkpt lat="63.28113" lon="9.79594">
        <ele>68.241245</ele>
        <time>2020-07-15T19:51:43.299Z</time>
      </trkpt>
      <trkpt lat="63.28105" lon="9.79641">
        <ele>66.145973</ele>
        <time>2020-07-15T19:51:45.863Z</time>
      </trkpt>
      <trkpt lat="63.28081" lon="9.79721">
        <ele>62.511272</ele>
        <time>2020-07-15T19:51:50.772Z</time>
      </trkpt>
      <trkpt lat="63.2809" lon="9.79819">
        <ele>59.139894</ele>
        <time>2020-07-15T19:51:55.972Z</time>
      </trkpt>
      <trkpt lat="63.28086" lon="9.79917">
        <ele>55.833494</ele>
        <time>2020-07-15T19:52:01.062Z</time>
      </trkpt>
      <trkpt lat="63.28079" lon="9.79984">
        <ele>53.516042</ele>
        <time>2020-07-15T19:52:04.603Z</time>
      </trkpt>
      <trkpt lat="63.28057" lon="9.80106">
        <ele>48.797588</ele>
        <time>2020-07-15T19:52:11.213Z</time>
      </trkpt>
      <trkpt lat="63.28049" lon="9.80184">
        <ele>45.494205</ele>
        <time>2020-07-15T19:52:15.223Z</time>
      </trkpt>
      <trkpt lat="63.2805" lon="9.8021">
        <ele>44.413035</ele>
        <time>2020-07-15T19:52:16.534Z</time>
      </trkpt>
      <trkpt lat="63.28065" lon="9.80265">
        <ele>41.738767</ele>
        <time>2020-07-15T19:52:19.786Z</time>
      </trkpt>
      <trkpt lat="63.28076" lon="9.80278">
        <ele>40.645351</ele>
        <time>2020-07-15T19:52:21.070Z</time>
      </trkpt>
      <trkpt lat="63.28105" lon="9.80284">
        <ele>37.937164</ele>
        <time>2020-07-15T19:52:24.299Z</time>
      </trkpt>
      <trkpt lat="63.28119" lon="9.80319">
        <ele>36.052264</ele>
        <time>2020-07-15T19:52:26.550Z</time>
      </trkpt>
      <trkpt lat="63.28114" lon="9.80381">
        <ele>33.555393</ele>
        <time>2020-07-15T19:52:29.677Z</time>
      </trkpt>
      <trkpt lat="63.28093" lon="9.80486">
        <ele>29.702291</ele>
        <time>2020-07-15T19:52:35.470Z</time>
      </trkpt>
      <trkpt lat="63.28081" lon="9.8053">
        <ele>28.021097</ele>
        <time>2020-07-15T19:52:37.991Z</time>
      </trkpt>
      <trkpt lat="63.28074" lon="9.80554">
        <ele>27.053716</ele>
        <time>2020-07-15T19:52:39.512Z</time>
      </trkpt>
      <trkpt lat="63.28049" lon="9.80678">
        <ele>22.477848</ele>
        <time>2020-07-15T19:52:46.578Z</time>
      </trkpt>
      <trkpt lat="63.28061" lon="9.80833">
        <ele>19.304892</ele>
        <time>2020-07-15T19:52:55.023Z</time>
      </trkpt>
      <trkpt lat="63.28056" lon="9.8088">
        <ele>18.660195</ele>
        <time>2020-07-15T19:52:57.980Z</time>
      </trkpt>
      <trkpt lat="63.2804" lon="9.8092">
        <ele>17.954902</ele>
        <time>2020-07-15T19:53:01.331Z</time>
      </trkpt>
      <trkpt lat="63.28053" lon="9.80943">
        <ele>17.445743</ele>
        <time>2020-07-15T19:53:03.865Z</time>
      </trkpt>
      <trkpt lat="63.2814" lon="9.81087">
        <ele>14.951856</ele>
        <time>2020-07-15T19:53:19.676Z</time>
      </trkpt>
      <trkpt lat="63.28184" lon="9.81145">
        <ele>14.400018</ele>
        <time>2020-07-15T19:53:27.404Z</time>
      </trkpt>
      <trkpt lat="63.2821" lon="9.81175">
        <ele>14.083558</ele>
        <time>2020-07-15T19:53:32.129Z</time>
      </trkpt>
      <trkpt lat="63.28215" lon="9.81181">
        <ele>14.013536</ele>
        <time>2020-07-15T19:53:33.059Z</time>
      </trkpt>
      <trkpt lat="63.28266" lon="9.81235">
        <ele>13.406184</ele>
        <time>2020-07-15T19:53:41.925Z</time>
      </trkpt>
      <trkpt lat="63.28302" lon="9.81255">
        <ele>13.052849</ele>
        <time>2020-07-15T19:53:47.813Z</time>
      </trkpt>
      <trkpt lat="63.28365" lon="9.81262">
        <ele>12.459165</ele>
        <time>2020-07-15T19:53:57.638Z</time>
      </trkpt>
      <trkpt lat="63.28489" lon="9.81255">
        <ele>11.06247</ele>
        <time>2020-07-15T19:54:16.913Z</time>
      </trkpt>
      <trkpt lat="63.28495" lon="9.81256">
        <ele>10.982032</ele>
        <time>2020-07-15T19:54:17.733Z</time>
      </trkpt>
      <trkpt lat="63.28501" lon="9.81256">
        <ele>10.891398</ele>
        <time>2020-07-15T19:54:18.650Z</time>
      </trkpt>
      <trkpt lat="63.28525" lon="9.81263">
        <ele>10.535815</ele>
        <time>2020-07-15T19:54:22.305Z</time>
      </trkpt>
      <trkpt lat="63.28548" lon="9.81273">
        <ele>10.199532</ele>
        <time>2020-07-15T19:54:25.739Z</time>
      </trkpt>
      <trkpt lat="63.2857" lon="9.81288">
        <ele>9.855977</ele>
        <time>2020-07-15T19:54:29.112Z</time>
      </trkpt>
      <trkpt lat="63.2861" lon="9.81325">
        <ele>9.230241</ele>
        <time>2020-07-15T19:54:35.301Z</time>
      </trkpt>
      <trkpt lat="63.28664" lon="9.814">
        <ele>7.979578</ele>
        <time>2020-07-15T19:54:44.223Z</time>
      </trkpt>
      <trkpt lat="63.28791" lon="9.8164">
        <ele>4.909004</ele>
        <time>2020-07-15T19:55:07.609Z</time>
      </trkpt>
      <trkpt lat="63.28807" lon="9.81674">
        <ele>4.655507</ele>
        <time>2020-07-15T19:55:10.771Z</time>
      </trkpt>
      <trkpt lat="63.28821" lon="9.81707">
        <ele>4.421549</ele>
        <time>2020-07-15T19:55:13.803Z</time>
      </trkpt>
      <trkpt lat="63.28997" lon="9.82163">
        <ele>2.548328</ele>
        <time>2020-07-15T19:55:58.090Z</time>
      </trkpt>
      <trkpt lat="63.2909" lon="9.82365">
        <ele>2.79812</ele>
        <time>2020-07-15T19:56:21.713Z</time>
      </trkpt>
      <trkpt lat="63.2913" lon="9.82505">
        <ele>3.194608</ele>
        <time>2020-07-15T19:56:36.569Z</time>
      </trkpt>
      <trkpt lat="63.29136" lon="9.82535">
        <ele>3.406131</ele>
        <time>2020-07-15T19:56:39.594Z</time>
      </trkpt>
      <trkpt lat="63.29143" lon="9.82568">
        <ele>3.643105</ele>
        <time>2020-07-15T19:56:42.993Z</time>
      </trkpt>
      <trkpt lat="63.29145" lon="9.82578">
        <ele>3.710069</ele>
        <time>2020-07-15T19:56:44.031Z</time>
      </trkpt>
      <trkpt lat="63.29177" lon="9.8269">
        <ele>4.571405</ele>
        <time>2020-07-15T19:56:57.050Z</time>
      </trkpt>
      <trkpt lat="63.29222" lon="9.82766">
        <ele>5.385185</ele>
        <time>2020-07-15T19:57:10.519Z</time>
      </trkpt>
      <trkpt lat="63.29281" lon="9.82808">
        <ele>6.895993</ele>
        <time>2020-07-15T19:57:27.030Z</time>
      </trkpt>
      <trkpt lat="63.29351" lon="9.82837">
        <ele>8.773257</ele>
        <time>2020-07-15T19:57:46.498Z</time>
      </trkpt>
      <trkpt lat="63.29367" lon="9.8284">
        <ele>9.195813</ele>
        <time>2020-07-15T19:57:50.942Z</time>
      </trkpt>
      <trkpt lat="63.29371" lon="9.8284">
        <ele>9.290173</ele>
        <time>2020-07-15T19:57:51.822Z</time>
      </trkpt>
      <trkpt lat="63.29373" lon="9.82841">
        <ele>9.33244</ele>
        <time>2020-07-15T19:57:52.565Z</time>
      </trkpt>
      <trkpt lat="63.29392" lon="9.82842">
        <ele>9.840213</ele>
        <time>2020-07-15T19:57:57.171Z</time>
      </trkpt>
      <trkpt lat="63.29456" lon="9.82836">
        <ele>10.798286</ele>
        <time>2020-07-15T19:58:13.160Z</time>
      </trkpt>
      <trkpt lat="63.2949" lon="9.82832">
        <ele>11.198224</ele>
        <time>2020-07-15T19:58:21.277Z</time>
      </trkpt>
      <trkpt lat="63.29552" lon="9.82837">
        <ele>11.920942</ele>
        <time>2020-07-15T19:58:34.195Z</time>
      </trkpt>
      <trkpt lat="63.29577" lon="9.82838">
        <ele>12.202122</ele>
        <time>2020-07-15T19:58:38.568Z</time>
      </trkpt>
      <trkpt lat="63.29615" lon="9.82839">
        <ele>11.965965</ele>
        <time>2020-07-15T19:58:45.135Z</time>
      </trkpt>
      <trkpt lat="63.29751" lon="9.82816">
        <ele>10.271066</ele>
        <time>2020-07-15T19:59:05.378Z</time>
      </trkpt>
      <trkpt lat="63.29771" lon="9.82824">
        <ele>9.965604</ele>
        <time>2020-07-15T19:59:08.230Z</time>
      </trkpt>
      <trkpt lat="63.29774" lon="9.82827">
        <ele>9.893242</ele>
        <time>2020-07-15T19:59:08.617Z</time>
      </trkpt>
      <trkpt lat="63.29777" lon="9.82813">
        <ele>9.741176</ele>
        <time>2020-07-15T19:59:09.641Z</time>
      </trkpt>
      <trkpt lat="63.29784" lon="9.82822">
        <ele>9.552719</ele>
        <time>2020-07-15T19:59:10.880Z</time>
      </trkpt>
      <trkpt lat="63.29778" lon="9.82846">
        <ele>9.277408</ele>
        <time>2020-07-15T19:59:12.632Z</time>
      </trkpt>
      <trkpt lat="63.29767" lon="9.82927">
        <ele>8.405784</ele>
        <time>2020-07-15T19:59:18.188Z</time>
      </trkpt>
      <trkpt lat="63.29766" lon="9.82959">
        <ele>8.085369</ele>
        <time>2020-07-15T19:59:20.161Z</time>
      </trkpt>
      <trkpt lat="63.29736" lon="9.83501">
        <ele>2.69722</ele>
        <time>2020-07-15T19:59:55.603Z</time>
      </trkpt>
      <trkpt lat="63.29744" lon="9.8354">
        <ele>2.287935</ele>
        <time>2020-07-15T19:59:58.589Z</time>
      </trkpt>
      <trkpt lat="63.29744" lon="9.83564">
        <ele>2.131593</ele>
        <time>2020-07-15T20:00:00.138Z</time>
      </trkpt>
      <trkpt lat="63.29741" lon="9.83588">
        <ele>2.101437</ele>
        <time>2020-07-15T20:00:01.885Z</time>
      </trkpt>
      <trkpt lat="63.2973" lon="9.8362">
        <ele>2.051847</ele>
        <time>2020-07-15T20:00:04.767Z</time>
      </trkpt>
      <trkpt lat="63.29726" lon="9.83648">
        <ele>2.015901</ele>
        <time>2020-07-15T20:00:06.824Z</time>
      </trkpt>
      <trkpt lat="63.29708" lon="9.83988">
        <ele>2.024484</ele>
        <time>2020-07-15T20:00:36.038Z</time>
      </trkpt>
      <trkpt lat="63.29707" lon="9.84012">
        <ele>2.22131</ele>
        <time>2020-07-15T20:00:38.399Z</time>
      </trkpt>
      <trkpt lat="63.29693" lon="9.84272">
        <ele>4.381234</ele>
        <time>2020-07-15T20:01:06.878Z</time>
      </trkpt>
      <trkpt lat="63.29691" lon="9.84293">
        <ele>4.549975</ele>
        <time>2020-07-15T20:01:09.558Z</time>
      </trkpt>
      <trkpt lat="63.29681" lon="9.84485">
        <ele>7.159038</ele>
        <time>2020-07-15T20:01:36.414Z</time>
      </trkpt>
      <trkpt lat="63.2968" lon="9.84548">
        <ele>8.113984</ele>
        <time>2020-07-15T20:01:45.239Z</time>
      </trkpt>
      <trkpt lat="63.29685" lon="9.84604">
        <ele>8.978588</ele>
        <time>2020-07-15T20:01:52.399Z</time>
      </trkpt>
      <trkpt lat="63.29687" lon="9.84626">
        <ele>9.316024</ele>
        <time>2020-07-15T20:01:55.768Z</time>
      </trkpt>
      <trkpt lat="63.29687" lon="9.84632">
        <ele>9.405591</ele>
        <time>2020-07-15T20:01:56.498Z</time>
      </trkpt>
      <trkpt lat="63.29687" lon="9.84682">
        <ele>10.159404</ele>
        <time>2020-07-15T20:02:02.530Z</time>
      </trkpt>
      <trkpt lat="63.29688" lon="9.847">
        <ele>10.431627</ele>
        <time>2020-07-15T20:02:05.197Z</time>
      </trkpt>
      <trkpt lat="63.29714" lon="9.84688">
        <ele>11.200246</ele>
        <time>2020-07-15T20:02:12.241Z</time>
      </trkpt>
      <trkpt lat="63.2974" lon="9.84692">
        <ele>11.686435</ele>
        <time>2020-07-15T20:02:19.377Z</time>
      </trkpt>
      <trkpt lat="63.29756" lon="9.84695">
        <ele>12.008242</ele>
        <time>2020-07-15T20:02:23.894Z</time>
      </trkpt>
      <trkpt lat="63.29774" lon="9.84698">
        <ele>12.355221</ele>
        <time>2020-07-15T20:02:28.795Z</time>
      </trkpt>
      <trkpt lat="63.29782" lon="9.84702">
        <ele>12.502745</ele>
        <time>2020-07-15T20:02:30.567Z</time>
      </trkpt>
      <trkpt lat="63.29789" lon="9.84731">
        <ele>12.795411</ele>
        <time>2020-07-15T20:02:34.661Z</time>
      </trkpt>
      <trkpt lat="63.29799" lon="9.84738">
        <ele>12.995949</ele>
        <time>2020-07-15T20:02:37.308Z</time>
      </trkpt>
      <trkpt lat="63.29805" lon="9.84736">
        <ele>13.128138</ele>
        <time>2020-07-15T20:02:38.900Z</time>
      </trkpt>
      <trkpt lat="63.2981" lon="9.84718">
        <ele>13.307702</ele>
        <time>2020-07-15T20:02:40.983Z</time>
      </trkpt>
      <trkpt lat="63.29815" lon="9.84702">
        <ele>13.476147</ele>
        <time>2020-07-15T20:02:42.993Z</time>
      </trkpt>
      <trkpt lat="63.29823" lon="9.84684">
        <ele>13.703861</ele>
        <time>2020-07-15T20:02:45.489Z</time>
      </trkpt>
      <trkpt lat="63.29829" lon="9.84681">
        <ele>13.809948</ele>
        <time>2020-07-15T20:02:46.537Z</time>
      </trkpt>
      <trkpt lat="63.29844" lon="9.84679">
        <ele>14.101941</ele>
        <time>2020-07-15T20:02:49.380Z</time>
      </trkpt>
      <trkpt lat="63.29873" lon="9.84682">
        <ele>14.421153</ele>
        <time>2020-07-15T20:02:55.055Z</time>
      </trkpt>
      <trkpt lat="63.29878" lon="9.84683">
        <ele>14.38418</ele>
        <time>2020-07-15T20:02:56.009Z</time>
      </trkpt>
      <trkpt lat="63.29922" lon="9.84689">
        <ele>14.070267</ele>
        <time>2020-07-15T20:03:03.999Z</time>
      </trkpt>
      <trkpt lat="63.29936" lon="9.84692">
        <ele>13.971886</ele>
        <time>2020-07-15T20:03:06.330Z</time>
      </trkpt>
      <trkpt lat="63.29951" lon="9.84695">
        <ele>13.867025</ele>
        <time>2020-07-15T20:03:08.661Z</time>
      </trkpt>
      <trkpt lat="63.29984" lon="9.84701">
        <ele>13.630926</ele>
        <time>2020-07-15T20:03:13.655Z</time>
      </trkpt>
      <trkpt lat="63.29992" lon="9.84703">
        <ele>13.571745</ele>
        <time>2020-07-15T20:03:14.959Z</time>
      </trkpt>
      <trkpt lat="63.29998" lon="9.84704">
        <ele>13.533225</ele>
        <time>2020-07-15T20:03:15.770Z</time>
      </trkpt>
      <trkpt lat="63.30065" lon="9.84718">
        <ele>12.833528</ele>
        <time>2020-07-15T20:03:25.636Z</time>
      </trkpt>
      <trkpt lat="63.30067" lon="9.84718">
        <ele>12.790717</ele>
        <time>2020-07-15T20:03:26.010Z</time>
      </trkpt>
      <trkpt lat="63.30117" lon="9.84732">
        <ele>11.938456</ele>
        <time>2020-07-15T20:03:33.214Z</time>
      </trkpt>
      <trkpt lat="63.30124" lon="9.84735">
        <ele>11.82174</ele>
        <time>2020-07-15T20:03:34.105Z</time>
      </trkpt>
      <trkpt lat="63.30164" lon="9.84753">
        <ele>11.119463</ele>
        <time>2020-07-15T20:03:39.974Z</time>
      </trkpt>
      <trkpt lat="63.3021" lon="9.84777">
        <ele>10.314674</ele>
        <time>2020-07-15T20:03:46.818Z</time>
      </trkpt>
      <trkpt lat="63.30229" lon="9.84818">
        <ele>10.067063</ele>
        <time>2020-07-15T20:03:50.589Z</time>
      </trkpt>
      <trkpt lat="63.30264" lon="9.84807">
        <ele>9.898376</ele>
        <time>2020-07-15T20:03:56.032Z</time>
      </trkpt>
      <trkpt lat="63.30453" lon="9.84917">
        <ele>9.683097</ele>
        <time>2020-07-15T20:04:30.854Z</time>
      </trkpt>
      <trkpt lat="63.30463" lon="9.84915">
        <ele>9.73582</ele>
        <time>2020-07-15T20:04:32.712Z</time>
      </trkpt>
      <trkpt lat="63.30471" lon="9.84911">
        <ele>9.784852</ele>
        <time>2020-07-15T20:04:34.553Z</time>
      </trkpt>
      <trkpt lat="63.30559" lon="9.84957">
        <ele>10.289212</ele>
        <time>2020-07-15T20:04:53.358Z</time>
      </trkpt>
      <trkpt lat="63.30616" lon="9.84988">
        <ele>10.873001</ele>
        <time>2020-07-15T20:05:05.978Z</time>
      </trkpt>
      <trkpt lat="63.30623" lon="9.84992">
        <ele>10.945075</ele>
        <time>2020-07-15T20:05:07.469Z</time>
      </trkpt>
      <trkpt lat="63.30664" lon="9.8503">
        <ele>11.401925</ele>
        <time>2020-07-15T20:05:16.899Z</time>
      </trkpt>
      <trkpt lat="63.30691" lon="9.85062">
        <ele>11.716609</ele>
        <time>2020-07-15T20:05:23.229Z</time>
      </trkpt>
      <trkpt lat="63.30726" lon="9.8511">
        <ele>12.142498</ele>
        <time>2020-07-15T20:05:31.694Z</time>
      </trkpt>
      <trkpt lat="63.30733" lon="9.8512">
        <ele>12.246532</ele>
        <time>2020-07-15T20:05:33.453Z</time>
      </trkpt>
      <trkpt lat="63.3078" lon="9.8518">
        <ele>12.958005</ele>
        <time>2020-07-15T20:05:44.732Z</time>
      </trkpt>
      <trkpt lat="63.30794" lon="9.85199">
        <ele>13.173354</ele>
        <time>2020-07-15T20:05:48.341Z</time>
      </trkpt>
      <trkpt lat="63.30801" lon="9.85209">
        <ele>13.280006</ele>
        <time>2020-07-15T20:05:50.058Z</time>
      </trkpt>
      <trkpt lat="63.30821" lon="9.85241">
        <ele>13.602583</ele>
        <time>2020-07-15T20:05:55.493Z</time>
      </trkpt>
      <trkpt lat="63.30839" lon="9.85278">
        <ele>13.925298</ele>
        <time>2020-07-15T20:06:01.004Z</time>
      </trkpt>
      <trkpt lat="63.30871" lon="9.8536">
        <ele>14.583877</ele>
        <time>2020-07-15T20:06:12.590Z</time>
      </trkpt>
      <trkpt lat="63.309" lon="9.85448">
        <ele>15.415252</ele>
        <time>2020-07-15T20:06:24.245Z</time>
      </trkpt>
      <trkpt lat="63.30924" lon="9.85545">
        <ele>16.257854</ele>
        <time>2020-07-15T20:06:35.955Z</time>
      </trkpt>
      <trkpt lat="63.30934" lon="9.85609">
        <ele>16.775039</ele>
        <time>2020-07-15T20:06:43.090Z</time>
      </trkpt>
      <trkpt lat="63.30933" lon="9.85657">
        <ele>17.141308</ele>
        <time>2020-07-15T20:06:48.298Z</time>
      </trkpt>
      <trkpt lat="63.30941" lon="9.85688">
        <ele>17.409278</ele>
        <time>2020-07-15T20:06:51.849Z</time>
      </trkpt>
      <trkpt lat="63.30972" lon="9.85715">
        <ele>17.84841</ele>
        <time>2020-07-15T20:06:59.610Z</time>
      </trkpt>
      <trkpt lat="63.31018" lon="9.85822">
        <ele>18.607702</ele>
        <time>2020-07-15T20:07:14.297Z</time>
      </trkpt>
      <trkpt lat="63.31105" lon="9.86028">
        <ele>20.368279</ele>
        <time>2020-07-15T20:07:41.767Z</time>
      </trkpt>
      <trkpt lat="63.31177" lon="9.86206">
        <ele>22.462788</ele>
        <time>2020-07-15T20:08:09.022Z</time>
      </trkpt>
      <trkpt lat="63.31229" lon="9.86333">
        <ele>23.547526</ele>
        <time>2020-07-15T20:08:30.770Z</time>
      </trkpt>
      <trkpt lat="63.31274" lon="9.86468">
        <ele>24.249175</ele>
        <time>2020-07-15T20:08:45.814Z</time>
      </trkpt>
      <trkpt lat="63.3131" lon="9.8655">
        <ele>24.725072</ele>
        <time>2020-07-15T20:08:55.315Z</time>
      </trkpt>
      <trkpt lat="63.31321" lon="9.8656">
        <ele>24.851255</ele>
        <time>2020-07-15T20:08:58.709Z</time>
      </trkpt>
      <trkpt lat="63.31339" lon="9.86553">
        <ele>25.166788</ele>
        <time>2020-07-15T20:09:01.184Z</time>
      </trkpt>
      <trkpt lat="63.31369" lon="9.86519">
        <ele>25.777153</ele>
        <time>2020-07-15T20:09:07.731Z</time>
      </trkpt>
      <trkpt lat="63.31389" lon="9.86582">
        <ele>26.394167</ele>
        <time>2020-07-15T20:09:15.259Z</time>
      </trkpt>
      <trkpt lat="63.31405" lon="9.86617">
        <ele>26.80089</ele>
        <time>2020-07-15T20:09:21.267Z</time>
      </trkpt>
      <trkpt lat="63.31464" lon="9.86713">
        <ele>28.168721</ele>
        <time>2020-07-15T20:09:39.943Z</time>
      </trkpt>
      <trkpt lat="63.31488" lon="9.86761">
        <ele>29.454724</ele>
        <time>2020-07-15T20:09:51.137Z</time>
      </trkpt>
      <trkpt lat="63.31508" lon="9.86807">
        <ele>30.559562</ele>
        <time>2020-07-15T20:10:00.732Z</time>
      </trkpt>
      <trkpt lat="63.31526" lon="9.86875">
        <ele>31.956846</ele>
        <time>2020-07-15T20:10:12.323Z</time>
      </trkpt>
      <trkpt lat="63.31542" lon="9.86938">
        <ele>33.235773</ele>
        <time>2020-07-15T20:10:22.727Z</time>
      </trkpt>
      <trkpt lat="63.3155" lon="9.86986">
        <ele>34.145434</ele>
        <time>2020-07-15T20:10:30.279Z</time>
      </trkpt>
      <trkpt lat="63.31553" lon="9.87012">
        <ele>34.615145</ele>
        <time>2020-07-15T20:10:33.593Z</time>
      </trkpt>
      <trkpt lat="63.31567" lon="9.87062">
        <ele>35.370492</ele>
        <time>2020-07-15T20:10:41.301Z</time>
      </trkpt>
      <trkpt lat="63.31647" lon="9.87216">
        <ele>37.272314</ele>
        <time>2020-07-15T20:11:03.676Z</time>
      </trkpt>
      <trkpt lat="63.3169" lon="9.87326">
        <ele>38.712995</ele>
        <time>2020-07-15T20:11:15.346Z</time>
      </trkpt>
      <trkpt lat="63.31724" lon="9.8743">
        <ele>42.69359</ele>
        <time>2020-07-15T20:11:36.229Z</time>
      </trkpt>
      <trkpt lat="63.31745" lon="9.87519">
        <ele>45.803111</ele>
        <time>2020-07-15T20:11:55.731Z</time>
      </trkpt>
      <trkpt lat="63.3176" lon="9.87593">
        <ele>48.31703</ele>
        <time>2020-07-15T20:12:12.624Z</time>
      </trkpt>
      <trkpt lat="63.31772" lon="9.87654">
        <ele>50.410056</ele>
        <time>2020-07-15T20:12:26.440Z</time>
      </trkpt>
      <trkpt lat="63.31777" lon="9.87679">
        <ele>51.204676</ele>
        <time>2020-07-15T20:12:33.885Z</time>
      </trkpt>
      <trkpt lat="63.31814" lon="9.87821">
        <ele>55.862568</ele>
        <time>2020-07-15T20:13:08.537Z</time>
      </trkpt>
      <trkpt lat="63.31835" lon="9.87882">
        <ele>58.06288</ele>
        <time>2020-07-15T20:13:24.617Z</time>
      </trkpt>
      <trkpt lat="63.3219" lon="9.88732">
        <ele>66.673012</ele>
        <time>2020-07-15T20:15:20.862Z</time>
      </trkpt>
      <trkpt lat="63.3229" lon="9.88958">
        <ele>63.005251</ele>
        <time>2020-07-15T20:15:39.967Z</time>
      </trkpt>
      <trkpt lat="63.3239" lon="9.89173">
        <ele>55.583881</ele>
        <time>2020-07-15T20:15:56.056Z</time>
      </trkpt>
      <trkpt lat="63.32457" lon="9.89313">
        <ele>50.5325</ele>
        <time>2020-07-15T20:16:06.648Z</time>
      </trkpt>
      <trkpt lat="63.3255" lon="9.89592">
        <ele>44.074554</ele>
        <time>2020-07-15T20:16:26.603Z</time>
      </trkpt>
      <trkpt lat="63.32609" lon="9.89729">
        <ele>41.489867</ele>
        <time>2020-07-15T20:16:38.590Z</time>
      </trkpt>
      <trkpt lat="63.32641" lon="9.8982">
        <ele>39.880029</ele>
        <time>2020-07-15T20:16:45.424Z</time>
      </trkpt>
      <trkpt lat="63.32702" lon="9.90021">
        <ele>36.522401</ele>
        <time>2020-07-15T20:16:59.411Z</time>
      </trkpt>
      <trkpt lat="63.32726" lon="9.901">
        <ele>35.695462</ele>
        <time>2020-07-15T20:17:05.064Z</time>
      </trkpt>
      <trkpt lat="63.32769" lon="9.90241">
        <ele>35.771725</ele>
        <time>2020-07-15T20:17:16.472Z</time>
      </trkpt>
      <trkpt lat="63.32809" lon="9.90389">
        <ele>35.848318</ele>
        <time>2020-07-15T20:17:33.083Z</time>
      </trkpt>
      <trkpt lat="63.32842" lon="9.90542">
        <ele>39.036541</ele>
        <time>2020-07-15T20:17:58.357Z</time>
      </trkpt>
      <trkpt lat="63.32885" lon="9.9068">
        <ele>42.658545</ele>
        <time>2020-07-15T20:18:24.893Z</time>
      </trkpt>
      <trkpt lat="63.329" lon="9.90734">
        <ele>44.030771</ele>
        <time>2020-07-15T20:18:35.234Z</time>
      </trkpt>
      <trkpt lat="63.32917" lon="9.90801">
        <ele>45.696549</ele>
        <time>2020-07-15T20:18:47.323Z</time>
      </trkpt>
      <trkpt lat="63.32941" lon="9.90888">
        <ele>47.848353</ele>
        <time>2020-07-15T20:19:02.369Z</time>
      </trkpt>
      <trkpt lat="63.32976" lon="9.91065">
        <ele>51.991779</ele>
        <time>2020-07-15T20:19:31.094Z</time>
      </trkpt>
      <trkpt lat="63.3301" lon="9.91202">
        <ele>55.469241</ele>
        <time>2020-07-15T20:19:52.461Z</time>
      </trkpt>
      <trkpt lat="63.33013" lon="9.91215">
        <ele>55.817091</ele>
        <time>2020-07-15T20:19:54.737Z</time>
      </trkpt>
      <trkpt lat="63.33105" lon="9.91559">
        <ele>64.930111</ele>
        <time>2020-07-15T20:20:58.183Z</time>
      </trkpt>
      <trkpt lat="63.3313" lon="9.91667">
        <ele>67.721798</ele>
        <time>2020-07-15T20:21:18.694Z</time>
      </trkpt>
      <trkpt lat="63.33185" lon="9.91959">
        <ele>70.216507</ele>
        <time>2020-07-15T20:22:03.457Z</time>
      </trkpt>
      <trkpt lat="63.33279" lon="9.92234">
        <ele>62.556299</ele>
        <time>2020-07-15T20:22:22.223Z</time>
      </trkpt>
      <trkpt lat="63.33293" lon="9.92286">
        <ele>59.021874</ele>
        <time>2020-07-15T20:22:25.117Z</time>
      </trkpt>
      <trkpt lat="63.33304" lon="9.92334">
        <ele>55.949262</ele>
        <time>2020-07-15T20:22:27.579Z</time>
      </trkpt>
      <trkpt lat="63.33311" lon="9.92368">
        <ele>53.73153</ele>
        <time>2020-07-15T20:22:29.401Z</time>
      </trkpt>
      <trkpt lat="63.33322" lon="9.92426">
        <ele>50.107498</ele>
        <time>2020-07-15T20:22:32.308Z</time>
      </trkpt>
      <trkpt lat="63.3334" lon="9.92539">
        <ele>43.140744</ele>
        <time>2020-07-15T20:22:37.813Z</time>
      </trkpt>
      <trkpt lat="63.33364" lon="9.92635">
        <ele>36.551541</ele>
        <time>2020-07-15T20:22:42.913Z</time>
      </trkpt>
      <trkpt lat="63.33436" lon="9.92785">
        <ele>23.536239</ele>
        <time>2020-07-15T20:22:53.355Z</time>
      </trkpt>
      <trkpt lat="63.3348" lon="9.929">
        <ele>20.362525</ele>
        <time>2020-07-15T20:23:01.391Z</time>
      </trkpt>
      <trkpt lat="63.33538" lon="9.93108">
        <ele>18.020994</ele>
        <time>2020-07-15T20:23:18.504Z</time>
      </trkpt>
      <trkpt lat="63.33609" lon="9.93334">
        <ele>22.32717</ele>
        <time>2020-07-15T20:23:56.513Z</time>
      </trkpt>
      <trkpt lat="63.33631" lon="9.93448">
        <ele>24.792795</ele>
        <time>2020-07-15T20:24:18.195Z</time>
      </trkpt>
      <trkpt lat="63.33646" lon="9.93567">
        <ele>27.237549</ele>
        <time>2020-07-15T20:24:37.213Z</time>
      </trkpt>
      <trkpt lat="63.33653" lon="9.93606">
        <ele>28.058257</ele>
        <time>2020-07-15T20:24:43.668Z</time>
      </trkpt>
      <trkpt lat="63.33659" lon="9.93636">
        <ele>28.708323</ele>
        <time>2020-07-15T20:24:48.008Z</time>
      </trkpt>
      <trkpt lat="63.33665" lon="9.93662">
        <ele>29.292473</ele>
        <time>2020-07-15T20:24:52.870Z</time>
      </trkpt>
      <trkpt lat="63.33667" lon="9.93669">
        <ele>29.464298</ele>
        <time>2020-07-15T20:24:53.997Z</time>
      </trkpt>
      <trkpt lat="63.33735" lon="9.93876">
        <ele>34.170756</ele>
        <time>2020-07-15T20:25:28.673Z</time>
      </trkpt>
      <trkpt lat="63.33898" lon="9.94333">
        <ele>40.467581</ele>
        <time>2020-07-15T20:26:36.728Z</time>
      </trkpt>
      <trkpt lat="63.33952" lon="9.94545">
        <ele>40.966851</ele>
        <time>2020-07-15T20:27:00.959Z</time>
      </trkpt>
      <trkpt lat="63.34036" lon="9.94791">
        <ele>37.510119</ele>
        <time>2020-07-15T20:27:19.117Z</time>
      </trkpt>
      <trkpt lat="63.34086" lon="9.94965">
        <ele>33.675125</ele>
        <time>2020-07-15T20:27:30.048Z</time>
      </trkpt>
      <trkpt lat="63.34174" lon="9.95194">
        <ele>29.331868</ele>
        <time>2020-07-15T20:27:47.571Z</time>
      </trkpt>
      <trkpt lat="63.34239" lon="9.95362">
        <ele>28.530377</ele>
        <time>2020-07-15T20:28:05.230Z</time>
      </trkpt>
      <trkpt lat="63.34246" lon="9.95382">
        <ele>28.435311</ele>
        <time>2020-07-15T20:28:07.488Z</time>
      </trkpt>
      <trkpt lat="63.34258" lon="9.95412">
        <ele>28.29086</ele>
        <time>2020-07-15T20:28:10.995Z</time>
      </trkpt>
      <trkpt lat="63.34288" lon="9.95479">
        <ele>27.962815</ele>
        <time>2020-07-15T20:28:19.730Z</time>
      </trkpt>
      <trkpt lat="63.34351" lon="9.95597">
        <ele>27.330441</ele>
        <time>2020-07-15T20:28:33.405Z</time>
      </trkpt>
      <trkpt lat="63.34456" lon="9.95735">
        <ele>25.954236</ele>
        <time>2020-07-15T20:28:50.682Z</time>
      </trkpt>
      <trkpt lat="63.34466" lon="9.95746">
        <ele>25.787855</ele>
        <time>2020-07-15T20:28:52.034Z</time>
      </trkpt>
      <trkpt lat="63.34475" lon="9.95756">
        <ele>25.636334</ele>
        <time>2020-07-15T20:28:53.571Z</time>
      </trkpt>
      <trkpt lat="63.34505" lon="9.95792">
        <ele>25.099627</ele>
        <time>2020-07-15T20:28:58.631Z</time>
      </trkpt>
      <trkpt lat="63.34536" lon="9.95833">
        <ele>24.546395</ele>
        <time>2020-07-15T20:29:04.018Z</time>
      </trkpt>
      <trkpt lat="63.34557" lon="9.9588">
        <ele>24.083665</ele>
        <time>2020-07-15T20:29:08.799Z</time>
      </trkpt>
      <trkpt lat="63.34592" lon="9.96065">
        <ele>23.682239</ele>
        <time>2020-07-15T20:29:23.262Z</time>
      </trkpt>
      <trkpt lat="63.3461" lon="9.96133">
        <ele>23.528775</ele>
        <time>2020-07-15T20:29:29.403Z</time>
      </trkpt>
      <trkpt lat="63.34623" lon="9.96169">
        <ele>23.438514</ele>
        <time>2020-07-15T20:29:33.474Z</time>
      </trkpt>
      <trkpt lat="63.34629" lon="9.96185">
        <ele>23.396641</ele>
        <time>2020-07-15T20:29:34.899Z</time>
      </trkpt>
      <trkpt lat="63.34687" lon="9.96297">
        <ele>22.617048</ele>
        <time>2020-07-15T20:29:48.799Z</time>
      </trkpt>
      <trkpt lat="63.34694" lon="9.96315">
        <ele>22.469906</ele>
        <time>2020-07-15T20:29:50.233Z</time>
      </trkpt>
      <trkpt lat="63.34698" lon="9.96327">
        <ele>22.387838</ele>
        <time>2020-07-15T20:29:51.937Z</time>
      </trkpt>
      <trkpt lat="63.34712" lon="9.96384">
        <ele>22.004919</ele>
        <time>2020-07-15T20:29:56.046Z</time>
      </trkpt>
      <trkpt lat="63.34735" lon="9.96557">
        <ele>20.935779</ele>
        <time>2020-07-15T20:30:07.705Z</time>
      </trkpt>
      <trkpt lat="63.3474" lon="9.9658">
        <ele>20.626707</ele>
        <time>2020-07-15T20:30:09.973Z</time>
      </trkpt>
      <trkpt lat="63.34745" lon="9.96597">
        <ele>20.355103</ele>
        <time>2020-07-15T20:30:11.033Z</time>
      </trkpt>
      <trkpt lat="63.34815" lon="9.96751">
        <ele>17.495964</ele>
        <time>2020-07-15T20:30:24.432Z</time>
      </trkpt>
      <trkpt lat="63.34851" lon="9.96854">
        <ele>15.784923</ele>
        <time>2020-07-15T20:30:31.714Z</time>
      </trkpt>
      <trkpt lat="63.34863" lon="9.96914">
        <ele>15.138881</ele>
        <time>2020-07-15T20:30:35.570Z</time>
      </trkpt>
      <trkpt lat="63.3487" lon="9.96981">
        <ele>14.508148</ele>
        <time>2020-07-15T20:30:39.644Z</time>
      </trkpt>
      <trkpt lat="63.34868" lon="9.97122">
        <ele>13.201166</ele>
        <time>2020-07-15T20:30:48.498Z</time>
      </trkpt>
      <trkpt lat="63.34866" lon="9.9716">
        <ele>12.847129</ele>
        <time>2020-07-15T20:30:51.003Z</time>
      </trkpt>
      <trkpt lat="63.34862" lon="9.97197">
        <ele>12.49801</ele>
        <time>2020-07-15T20:30:53.597Z</time>
      </trkpt>
      <trkpt lat="63.34841" lon="9.97342">
        <ele>12.910066</ele>
        <time>2020-07-15T20:31:05.072Z</time>
      </trkpt>
      <trkpt lat="63.34813" lon="9.97476">
        <ele>14.367843</ele>
        <time>2020-07-15T20:31:21.059Z</time>
      </trkpt>
      <trkpt lat="63.3477" lon="9.97666">
        <ele>16.673732</ele>
        <time>2020-07-15T20:31:51.543Z</time>
      </trkpt>
      <trkpt lat="63.34767" lon="9.97677">
        <ele>16.835596</ele>
        <time>2020-07-15T20:31:53.120Z</time>
      </trkpt>
      <trkpt lat="63.34752" lon="9.97746">
        <ele>17.865956</ele>
        <time>2020-07-15T20:32:04.231Z</time>
      </trkpt>
      <trkpt lat="63.34741" lon="9.97821">
        <ele>18.925329</ele>
        <time>2020-07-15T20:32:14.717Z</time>
      </trkpt>
      <trkpt lat="63.34738" lon="9.97912">
        <ele>20.152089</ele>
        <time>2020-07-15T20:32:25.094Z</time>
      </trkpt>
      <trkpt lat="63.34738" lon="9.97953">
        <ele>20.711168</ele>
        <time>2020-07-15T20:32:30.334Z</time>
      </trkpt>
      <trkpt lat="63.34741" lon="9.98145">
        <ele>20.077804</ele>
        <time>2020-07-15T20:32:46.619Z</time>
      </trkpt>
      <trkpt lat="63.34742" lon="9.982">
        <ele>19.621819</ele>
        <time>2020-07-15T20:32:50.084Z</time>
      </trkpt>
      <trkpt lat="63.34738" lon="9.98325">
        <ele>18.567676</ele>
        <time>2020-07-15T20:32:57.234Z</time>
      </trkpt>
      <trkpt lat="63.34721" lon="9.985">
        <ele>16.80902</ele>
        <time>2020-07-15T20:33:07.338Z</time>
      </trkpt>
      <trkpt lat="63.34719" lon="9.98517">
        <ele>16.625714</ele>
        <time>2020-07-15T20:33:08.256Z</time>
      </trkpt>
      <trkpt lat="63.34708" lon="9.98608">
        <ele>15.60313</ele>
        <time>2020-07-15T20:33:14.141Z</time>
      </trkpt>
      <trkpt lat="63.34694" lon="9.98688">
        <ele>14.67271</ele>
        <time>2020-07-15T20:33:19.685Z</time>
      </trkpt>
      <trkpt lat="63.3467" lon="9.98755">
        <ele>13.750989</ele>
        <time>2020-07-15T20:33:25.449Z</time>
      </trkpt>
      <trkpt lat="63.34646" lon="9.98796">
        <ele>13.547732</ele>
        <time>2020-07-15T20:33:30.213Z</time>
      </trkpt>
      <trkpt lat="63.34581" lon="9.98878">
        <ele>13.3363</ele>
        <time>2020-07-15T20:33:44.779Z</time>
      </trkpt>
      <trkpt lat="63.34546" lon="9.98951">
        <ele>13.200965</ele>
        <time>2020-07-15T20:33:53.262Z</time>
      </trkpt>
      <trkpt lat="63.34532" lon="9.98997">
        <ele>13.129984</ele>
        <time>2020-07-15T20:33:56.973Z</time>
      </trkpt>
      <trkpt lat="63.34526" lon="9.99056">
        <ele>12.769787</ele>
        <time>2020-07-15T20:34:01.710Z</time>
      </trkpt>
      <trkpt lat="63.34526" lon="9.99088">
        <ele>12.523393</ele>
        <time>2020-07-15T20:34:03.721Z</time>
      </trkpt>
      <trkpt lat="63.34523" lon="9.99089">
        <ele>12.473424</ele>
        <time>2020-07-15T20:34:04.438Z</time>
      </trkpt>
      <trkpt lat="63.34509" lon="9.99092">
        <ele>12.235217</ele>
        <time>2020-07-15T20:34:06.904Z</time>
      </trkpt>
      <trkpt lat="63.34511" lon="9.99109">
        <ele>12.1058</ele>
        <time>2020-07-15T20:34:07.937Z</time>
      </trkpt>
      <trkpt lat="63.3452" lon="9.99159">
        <ele>11.684319</ele>
        <time>2020-07-15T20:34:11.971Z</time>
      </trkpt>
      <trkpt lat="63.34522" lon="9.9917">
        <ele>11.593616</ele>
        <time>2020-07-15T20:34:12.659Z</time>
      </trkpt>
      <trkpt lat="63.34526" lon="9.99186">
        <ele>11.45526</ele>
        <time>2020-07-15T20:34:13.763Z</time>
      </trkpt>
      <trkpt lat="63.34527" lon="9.99194">
        <ele>11.387843</ele>
        <time>2020-07-15T20:34:14.236Z</time>
      </trkpt>
      <trkpt lat="63.34532" lon="9.99338">
        <ele>10.27555</ele>
        <time>2020-07-15T20:34:23.380Z</time>
      </trkpt>
      <trkpt lat="63.34527" lon="9.99411">
        <ele>9.906244</ele>
        <time>2020-07-15T20:34:27.927Z</time>
      </trkpt>
      <trkpt lat="63.34517" lon="9.99451">
        <ele>9.777493</ele>
        <time>2020-07-15T20:34:30.793Z</time>
      </trkpt>
      <trkpt lat="63.34511" lon="9.99476">
        <ele>9.698082</ele>
        <time>2020-07-15T20:34:32.493Z</time>
      </trkpt>
      <trkpt lat="63.34511" lon="9.99481">
        <ele>9.682986</ele>
        <time>2020-07-15T20:34:32.788Z</time>
      </trkpt>
      <trkpt lat="63.34521" lon="9.99557">
        <ele>9.458447</ele>
        <time>2020-07-15T20:34:38.012Z</time>
      </trkpt>
      <trkpt lat="63.34509" lon="9.99776">
        <ele>9.110458</ele>
        <time>2020-07-15T20:34:56.624Z</time>
      </trkpt>
      <trkpt lat="63.34503" lon="9.99995">
        <ele>11.679733</ele>
        <time>2020-07-15T20:35:22.154Z</time>
      </trkpt>
      <trkpt lat="63.34502" lon="10.00025">
        <ele>12.038894</ele>
        <time>2020-07-15T20:35:25.920Z</time>
      </trkpt>
      <trkpt lat="63.34502" lon="10.00052">
        <ele>12.359288</ele>
        <time>2020-07-15T20:35:29.877Z</time>
      </trkpt>
      <trkpt lat="63.34501" lon="10.00249">
        <ele>14.582383</ele>
        <time>2020-07-15T20:35:56.075Z</time>
      </trkpt>
      <trkpt lat="63.34514" lon="10.00548">
        <ele>17.821624</ele>
        <time>2020-07-15T20:36:30.655Z</time>
      </trkpt>
      <trkpt lat="63.34513" lon="10.00599">
        <ele>17.73111</ele>
        <time>2020-07-15T20:36:34.854Z</time>
      </trkpt>
      <trkpt lat="63.34514" lon="10.00607">
        <ele>17.693827</ele>
        <time>2020-07-15T20:36:36.346Z</time>
      </trkpt>
      <trkpt lat="63.34523" lon="10.00603">
        <ele>17.599941</ele>
        <time>2020-07-15T20:36:38.176Z</time>
      </trkpt>
      <trkpt lat="63.34527" lon="10.00649">
        <ele>17.394842</ele>
        <time>2020-07-15T20:36:41.538Z</time>
      </trkpt>
      <trkpt lat="63.34592" lon="10.01295">
        <ele>14.05226</ele>
        <time>2020-07-15T20:37:24.304Z</time>
      </trkpt>
      <trkpt lat="63.34599" lon="10.0139">
        <ele>15.039898</ele>
        <time>2020-07-15T20:37:32.816Z</time>
      </trkpt>
      <trkpt lat="63.34634" lon="10.02035">
        <ele>27.044757</ele>
        <time>2020-07-15T20:39:06.011Z</time>
      </trkpt>
      <trkpt lat="63.34649" lon="10.02341">
        <ele>35.333711</ele>
        <time>2020-07-15T20:40:00.511Z</time>
      </trkpt>
      <trkpt lat="63.34653" lon="10.02418">
        <ele>37.548961</ele>
        <time>2020-07-15T20:40:14.170Z</time>
      </trkpt>
      <trkpt lat="63.34657" lon="10.02515">
        <ele>40.326502</ele>
        <time>2020-07-15T20:40:30.525Z</time>
      </trkpt>
      <trkpt lat="63.3466" lon="10.02628">
        <ele>43.157397</ele>
        <time>2020-07-15T20:40:48.234Z</time>
      </trkpt>
      <trkpt lat="63.34667" lon="10.02924">
        <ele>50.510736</ele>
        <time>2020-07-15T20:41:35.386Z</time>
      </trkpt>
      <trkpt lat="63.34669" lon="10.03">
        <ele>51.943889</ele>
        <time>2020-07-15T20:41:47.956Z</time>
      </trkpt>
      <trkpt lat="63.3467" lon="10.03036">
        <ele>52.635968</ele>
        <time>2020-07-15T20:41:54.085Z</time>
      </trkpt>
      <trkpt lat="63.34676" lon="10.03289">
        <ele>57.458428</ele>
        <time>2020-07-15T20:42:30.661Z</time>
      </trkpt>
      <trkpt lat="63.34679" lon="10.03449">
        <ele>56.77</ele>
        <time>2020-07-15T20:42:43.843Z</time>
      </trkpt>
      <trkpt lat="63.34679" lon="10.03455">
        <ele>56.714741</ele>
        <time>2020-07-15T20:42:44.502Z</time>
      </trkpt>
      <trkpt lat="63.34679" lon="10.03477">
        <ele>56.543265</ele>
        <time>2020-07-15T20:42:45.693Z</time>
      </trkpt>
      <trkpt lat="63.34678" lon="10.03515">
        <ele>56.232613</ele>
        <time>2020-07-15T20:42:48.234Z</time>
      </trkpt>
      <trkpt lat="63.34676" lon="10.03542">
        <ele>56.009184</ele>
        <time>2020-07-15T20:42:49.883Z</time>
      </trkpt>
      <trkpt lat="63.34675" lon="10.03557">
        <ele>55.885034</ele>
        <time>2020-07-15T20:42:50.710Z</time>
      </trkpt>
      <trkpt lat="63.34671" lon="10.03592">
        <ele>55.593601</ele>
        <time>2020-07-15T20:42:52.843Z</time>
      </trkpt>
      <trkpt lat="63.3466" lon="10.03694">
        <ele>54.741093</ele>
        <time>2020-07-15T20:42:58.730Z</time>
      </trkpt>
      <trkpt lat="63.34636" lon="10.03913">
        <ele>52.876112</ele>
        <time>2020-07-15T20:43:11.247Z</time>
      </trkpt>
      <trkpt lat="63.34608" lon="10.04167">
        <ele>52.280675</ele>
        <time>2020-07-15T20:43:34.818Z</time>
      </trkpt>
      <trkpt lat="63.34587" lon="10.04346">
        <ele>54.754874</ele>
        <time>2020-07-15T20:43:59.247Z</time>
      </trkpt>
      <trkpt lat="63.34559" lon="10.04531">
        <ele>57.200188</ele>
        <time>2020-07-15T20:44:25.900Z</time>
      </trkpt>
      <trkpt lat="63.34528" lon="10.04699">
        <ele>59.060149</ele>
        <time>2020-07-15T20:44:47.960Z</time>
      </trkpt>
      <trkpt lat="63.34524" lon="10.0472">
        <ele>59.28649</ele>
        <time>2020-07-15T20:44:50.261Z</time>
      </trkpt>
      <trkpt lat="63.34518" lon="10.04752">
        <ele>59.640399</ele>
        <time>2020-07-15T20:44:53.710Z</time>
      </trkpt>
      <trkpt lat="63.34488" lon="10.04868">
        <ele>60.712995</ele>
        <time>2020-07-15T20:45:06.684Z</time>
      </trkpt>
      <trkpt lat="63.34412" lon="10.05055">
        <ele>60.156099</ele>
        <time>2020-07-15T20:45:27.194Z</time>
      </trkpt>
      <trkpt lat="63.34338" lon="10.05263">
        <ele>56.924359</ele>
        <time>2020-07-15T20:45:43.895Z</time>
      </trkpt>
      <trkpt lat="63.34293" lon="10.05374">
        <ele>53.770111</ele>
        <time>2020-07-15T20:45:51.852Z</time>
      </trkpt>
      <trkpt lat="63.34272" lon="10.05427">
        <ele>52.295981</ele>
        <time>2020-07-15T20:45:55.461Z</time>
      </trkpt>
      <trkpt lat="63.34262" lon="10.05455">
        <ele>51.548256</ele>
        <time>2020-07-15T20:45:57.384Z</time>
      </trkpt>
      <trkpt lat="63.34248" lon="10.05498">
        <ele>50.328912</ele>
        <time>2020-07-15T20:46:00.124Z</time>
      </trkpt>
      <trkpt lat="63.34238" lon="10.05529">
        <ele>49.455587</ele>
        <time>2020-07-15T20:46:02.077Z</time>
      </trkpt>
      <trkpt lat="63.34219" lon="10.05581">
        <ele>47.902472</ele>
        <time>2020-07-15T20:46:05.660Z</time>
      </trkpt>
      <trkpt lat="63.34208" lon="10.05605">
        <ele>47.101141</ele>
        <time>2020-07-15T20:46:07.420Z</time>
      </trkpt>
      <trkpt lat="63.34202" lon="10.05617">
        <ele>46.671837</ele>
        <time>2020-07-15T20:46:08.457Z</time>
      </trkpt>
      <trkpt lat="63.34169" lon="10.05664">
        <ele>44.661632</ele>
        <time>2020-07-15T20:46:13.150Z</time>
      </trkpt>
      <trkpt lat="63.3412" lon="10.05698">
        <ele>42.144756</ele>
        <time>2020-07-15T20:46:19.576Z</time>
      </trkpt>
      <trkpt lat="63.3409" lon="10.05701">
        <ele>41.558443</ele>
        <time>2020-07-15T20:46:24.036Z</time>
      </trkpt>
      <trkpt lat="63.34032" lon="10.05681">
        <ele>40.427634</ele>
        <time>2020-07-15T20:46:33.222Z</time>
      </trkpt>
      <trkpt lat="63.34016" lon="10.05677">
        <ele>40.113024</ele>
        <time>2020-07-15T20:46:35.455Z</time>
      </trkpt>
      <trkpt lat="63.34009" lon="10.05676">
        <ele>39.981261</ele>
        <time>2020-07-15T20:46:36.413Z</time>
      </trkpt>
      <trkpt lat="63.33997" lon="10.05676">
        <ele>39.745376</ele>
        <time>2020-07-15T20:46:38.482Z</time>
      </trkpt>
      <trkpt lat="63.33982" lon="10.05678">
        <ele>39.452852</ele>
        <time>2020-07-15T20:46:40.550Z</time>
      </trkpt>
      <trkpt lat="63.33931" lon="10.05702">
        <ele>38.338797</ele>
        <time>2020-07-15T20:46:47.939Z</time>
      </trkpt>
      <trkpt lat="63.33893" lon="10.05739">
        <ele>37.250361</ele>
        <time>2020-07-15T20:46:53.624Z</time>
      </trkpt>
      <trkpt lat="63.33884" lon="10.05755">
        <ele>36.940918</ele>
        <time>2020-07-15T20:46:55.173Z</time>
      </trkpt>
      <trkpt lat="63.33878" lon="10.05744">
        <ele>36.732673</ele>
        <time>2020-07-15T20:46:56.123Z</time>
      </trkpt>
      <trkpt lat="63.33822" lon="10.05887">
        <ele>34.459375</ele>
        <time>2020-07-15T20:47:07.631Z</time>
      </trkpt>
      <trkpt lat="63.33762" lon="10.05964">
        <ele>32.715541</ele>
        <time>2020-07-15T20:47:16.747Z</time>
      </trkpt>
      <trkpt lat="63.3375" lon="10.05981">
        <ele>32.3711</ele>
        <time>2020-07-15T20:47:18.761Z</time>
      </trkpt>
      <trkpt lat="63.33743" lon="10.0599">
        <ele>32.15983</ele>
        <time>2020-07-15T20:47:20.021Z</time>
      </trkpt>
      <trkpt lat="63.33682" lon="10.06065">
        <ele>30.432724</ele>
        <time>2020-07-15T20:47:29.804Z</time>
      </trkpt>
      <trkpt lat="63.33649" lon="10.0612">
        <ele>29.368854</ele>
        <time>2020-07-15T20:47:35.349Z</time>
      </trkpt>
      <trkpt lat="63.33623" lon="10.06179">
        <ele>27.821227</ele>
        <time>2020-07-15T20:47:40.252Z</time>
      </trkpt>
      <trkpt lat="63.33592" lon="10.0628">
        <ele>25.499621</ele>
        <time>2020-07-15T20:47:47.369Z</time>
      </trkpt>
      <trkpt lat="63.33547" lon="10.06393">
        <ele>22.647903</ele>
        <time>2020-07-15T20:47:55.815Z</time>
      </trkpt>
      <trkpt lat="63.33444" lon="10.06576">
        <ele>14.205248</ele>
        <time>2020-07-15T20:48:10.815Z</time>
      </trkpt>
      <trkpt lat="63.33431" lon="10.06603">
        <ele>13.01951</ele>
        <time>2020-07-15T20:48:12.800Z</time>
      </trkpt>
      <trkpt lat="63.33413" lon="10.06639">
        <ele>11.383788</ele>
        <time>2020-07-15T20:48:15.587Z</time>
      </trkpt>
      <trkpt lat="63.33398" lon="10.06671">
        <ele>9.938182</ele>
        <time>2020-07-15T20:48:18.116Z</time>
      </trkpt>
      <trkpt lat="63.33378" lon="10.06709">
        <ele>8.801858</ele>
        <time>2020-07-15T20:48:21.078Z</time>
      </trkpt>
      <trkpt lat="63.33382" lon="10.06717">
        <ele>8.575082</ele>
        <time>2020-07-15T20:48:21.999Z</time>
      </trkpt>
      <trkpt lat="63.3337" lon="10.06742">
        <ele>7.883444</ele>
        <time>2020-07-15T20:48:23.940Z</time>
      </trkpt>
      <trkpt lat="63.3334" lon="10.06788">
        <ele>6.347386</ele>
        <time>2020-07-15T20:48:28.298Z</time>
      </trkpt>
      <trkpt lat="63.33265" lon="10.06839">
        <ele>3.095176</ele>
        <time>2020-07-15T20:48:38.264Z</time>
      </trkpt>
      <trkpt lat="63.33207" lon="10.06921">
        <ele>2.181121</ele>
        <time>2020-07-15T20:48:49.612Z</time>
      </trkpt>
      <trkpt lat="63.33167" lon="10.06955">
        <ele>2.106831</ele>
        <time>2020-07-15T20:48:57.324Z</time>
      </trkpt>
      <trkpt lat="63.33103" lon="10.06977">
        <ele>1.995135</ele>
        <time>2020-07-15T20:49:09.316Z</time>
      </trkpt>
      <trkpt lat="63.33023" lon="10.06985">
        <ele>2.409114</ele>
        <time>2020-07-15T20:49:25.182Z</time>
      </trkpt>
      <trkpt lat="63.32929" lon="10.06962">
        <ele>3.170945</ele>
        <time>2020-07-15T20:49:44.917Z</time>
      </trkpt>
      <trkpt lat="63.32908" lon="10.06951">
        <ele>3.340461</ele>
        <time>2020-07-15T20:49:49.319Z</time>
      </trkpt>
      <trkpt lat="63.32899" lon="10.06946">
        <ele>3.40936</ele>
        <time>2020-07-15T20:49:51.322Z</time>
      </trkpt>
      <trkpt lat="63.32801" lon="10.06869">
        <ele>4.084726</ele>
        <time>2020-07-15T20:50:13.345Z</time>
      </trkpt>
      <trkpt lat="63.32767" lon="10.06868">
        <ele>4.300092</ele>
        <time>2020-07-15T20:50:19.731Z</time>
      </trkpt>
      <trkpt lat="63.32728" lon="10.06887">
        <ele>4.553304</ele>
        <time>2020-07-15T20:50:27.144Z</time>
      </trkpt>
      <trkpt lat="63.32725" lon="10.06889">
        <ele>4.537285</ele>
        <time>2020-07-15T20:50:27.885Z</time>
      </trkpt>
      <trkpt lat="63.32688" lon="10.06917">
        <ele>4.262309</ele>
        <time>2020-07-15T20:50:34.476Z</time>
      </trkpt>
      <trkpt lat="63.32676" lon="10.06926">
        <ele>4.173947</ele>
        <time>2020-07-15T20:50:36.528Z</time>
      </trkpt>
      <trkpt lat="63.32669" lon="10.06931">
        <ele>4.123626</ele>
        <time>2020-07-15T20:50:37.622Z</time>
      </trkpt>
      <trkpt lat="63.32649" lon="10.06946">
        <ele>3.979819</ele>
        <time>2020-07-15T20:50:41.065Z</time>
      </trkpt>
      <trkpt lat="63.3264" lon="10.06953">
        <ele>3.910459</ele>
        <time>2020-07-15T20:50:42.629Z</time>
      </trkpt>
      <trkpt lat="63.32632" lon="10.06959">
        <ele>3.855706</ele>
        <time>2020-07-15T20:50:43.796Z</time>
      </trkpt>
      <trkpt lat="63.32602" lon="10.06982">
        <ele>3.63287</ele>
        <time>2020-07-15T20:50:48.849Z</time>
      </trkpt>
      <trkpt lat="63.32573" lon="10.0701">
        <ele>3.415856</ele>
        <time>2020-07-15T20:50:53.724Z</time>
      </trkpt>
      <trkpt lat="63.32569" lon="10.07015">
        <ele>3.385574</ele>
        <time>2020-07-15T20:50:54.345Z</time>
      </trkpt>
      <trkpt lat="63.32559" lon="10.07029">
        <ele>3.316642</ele>
        <time>2020-07-15T20:50:56.122Z</time>
      </trkpt>
      <trkpt lat="63.32525" lon="10.07102">
        <ele>3.396866</ele>
        <time>2020-07-15T20:51:03.330Z</time>
      </trkpt>
      <trkpt lat="63.3247" lon="10.07293">
        <ele>3.569052</ele>
        <time>2020-07-15T20:51:21.733Z</time>
      </trkpt>
      <trkpt lat="63.32455" lon="10.07346">
        <ele>3.616817</ele>
        <time>2020-07-15T20:51:28.494Z</time>
      </trkpt>
      <trkpt lat="63.32431" lon="10.07432">
        <ele>4.654548</ele>
        <time>2020-07-15T20:51:39.652Z</time>
      </trkpt>
      <trkpt lat="63.32402" lon="10.07584">
        <ele>6.396748</ele>
        <time>2020-07-15T20:51:59.400Z</time>
      </trkpt>
      <trkpt lat="63.32401" lon="10.07595">
        <ele>6.515309</ele>
        <time>2020-07-15T20:52:01.108Z</time>
      </trkpt>
      <trkpt lat="63.32396" lon="10.07645">
        <ele>7.058857</ele>
        <time>2020-07-15T20:52:07.326Z</time>
      </trkpt>
      <trkpt lat="63.32392" lon="10.07744">
        <ele>7.881628</ele>
        <time>2020-07-15T20:52:18.970Z</time>
      </trkpt>
      <trkpt lat="63.32395" lon="10.07841">
        <ele>8.063417</ele>
        <time>2020-07-15T20:52:29.215Z</time>
      </trkpt>
      <trkpt lat="63.32401" lon="10.07896">
        <ele>8.168608</ele>
        <time>2020-07-15T20:52:34.511Z</time>
      </trkpt>
      <trkpt lat="63.3241" lon="10.07964">
        <ele>8.299874</ele>
        <time>2020-07-15T20:52:40.970Z</time>
      </trkpt>
      <trkpt lat="63.32442" lon="10.08096">
        <ele>8.579377</ele>
        <time>2020-07-15T20:52:51.353Z</time>
      </trkpt>
      <trkpt lat="63.3251" lon="10.08258">
        <ele>6.468464</ele>
        <time>2020-07-15T20:53:05.065Z</time>
      </trkpt>
      <trkpt lat="63.32525" lon="10.08316">
        <ele>5.829218</ele>
        <time>2020-07-15T20:53:09.117Z</time>
      </trkpt>
      <trkpt lat="63.32533" lon="10.08412">
        <ele>4.888975</ele>
        <time>2020-07-15T20:53:15.175Z</time>
      </trkpt>
      <trkpt lat="63.3253" lon="10.08559">
        <ele>4.440179</ele>
        <time>2020-07-15T20:53:24.636Z</time>
      </trkpt>
      <trkpt lat="63.32542" lon="10.08741">
        <ele>4.012157</ele>
        <time>2020-07-15T20:53:37.951Z</time>
      </trkpt>
      <trkpt lat="63.3254" lon="10.08872">
        <ele>4.70002</ele>
        <time>2020-07-15T20:53:50.754Z</time>
      </trkpt>
      <trkpt lat="63.32544" lon="10.08926">
        <ele>5.74321</ele>
        <time>2020-07-15T20:53:57.117Z</time>
      </trkpt>
      <trkpt lat="63.32557" lon="10.08998">
        <ele>7.216311</ele>
        <time>2020-07-15T20:54:07.067Z</time>
      </trkpt>
      <trkpt lat="63.32595" lon="10.09147">
        <ele>10.512023</ele>
        <time>2020-07-15T20:54:32.966Z</time>
      </trkpt>
      <trkpt lat="63.32618" lon="10.09423">
        <ele>18.094897</ele>
        <time>2020-07-15T20:55:27.595Z</time>
      </trkpt>
      <trkpt lat="63.32635" lon="10.09494">
        <ele>20.385178</ele>
        <time>2020-07-15T20:55:42.273Z</time>
      </trkpt>
      <trkpt lat="63.32654" lon="10.09548">
        <ele>22.348552</ele>
        <time>2020-07-15T20:55:52.196Z</time>
      </trkpt>
      <trkpt lat="63.32663" lon="10.09569">
        <ele>22.90468</ele>
        <time>2020-07-15T20:55:57.557Z</time>
      </trkpt>
      <trkpt lat="63.32691" lon="10.09635">
        <ele>21.801401</ele>
        <time>2020-07-15T20:56:07.887Z</time>
      </trkpt>
      <trkpt lat="63.3272" lon="10.09707">
        <ele>20.623318</ele>
        <time>2020-07-15T20:56:14.419Z</time>
      </trkpt>
      <trkpt lat="63.32749" lon="10.09776">
        <ele>19.468659</ele>
        <time>2020-07-15T20:56:19.606Z</time>
      </trkpt>
      <trkpt lat="63.3278" lon="10.09838">
        <ele>18.348935</ele>
        <time>2020-07-15T20:56:24.354Z</time>
      </trkpt>
      <trkpt lat="63.32854" lon="10.09955">
        <ele>12.205858</ele>
        <time>2020-07-15T20:56:34.322Z</time>
      </trkpt>
      <trkpt lat="63.32866" lon="10.09976">
        <ele>11.094948</ele>
        <time>2020-07-15T20:56:36.063Z</time>
      </trkpt>
      <trkpt lat="63.32875" lon="10.09996">
        <ele>10.176738</ele>
        <time>2020-07-15T20:56:37.487Z</time>
      </trkpt>
      <trkpt lat="63.3288" lon="10.10011">
        <ele>9.580218</ele>
        <time>2020-07-15T20:56:38.472Z</time>
      </trkpt>
      <trkpt lat="63.3289" lon="10.1005">
        <ele>8.129743</ele>
        <time>2020-07-15T20:56:40.809Z</time>
      </trkpt>
      <trkpt lat="63.32895" lon="10.1009">
        <ele>6.781663</ele>
        <time>2020-07-15T20:56:43.021Z</time>
      </trkpt>
      <trkpt lat="63.32894" lon="10.10132">
        <ele>5.425364</ele>
        <time>2020-07-15T20:56:45.267Z</time>
      </trkpt>
      <trkpt lat="63.32886" lon="10.10183">
        <ele>4.945262</ele>
        <time>2020-07-15T20:56:48.347Z</time>
      </trkpt>
      <trkpt lat="63.32868" lon="10.10232">
        <ele>4.61365</ele>
        <time>2020-07-15T20:56:52.144Z</time>
      </trkpt>
      <trkpt lat="63.32785" lon="10.10385">
        <ele>3.342021</ele>
        <time>2020-07-15T20:57:12.067Z</time>
      </trkpt>
      <trkpt lat="63.32768" lon="10.10439">
        <ele>3.043543</ele>
        <time>2020-07-15T20:57:17.818Z</time>
      </trkpt>
      <trkpt lat="63.32771" lon="10.10505">
        <ele>2.897868</ele>
        <time>2020-07-15T20:57:23.015Z</time>
      </trkpt>
      <trkpt lat="63.3281" lon="10.10605">
        <ele>2.606838</ele>
        <time>2020-07-15T20:57:32.710Z</time>
      </trkpt>
      <trkpt lat="63.32814" lon="10.10642">
        <ele>2.521924</ele>
        <time>2020-07-15T20:57:35.470Z</time>
      </trkpt>
      <trkpt lat="63.32811" lon="10.10679">
        <ele>2.43865</ele>
        <time>2020-07-15T20:57:38.215Z</time>
      </trkpt>
      <trkpt lat="63.32799" lon="10.10717">
        <ele>2.338459</ele>
        <time>2020-07-15T20:57:41.468Z</time>
      </trkpt>
      <trkpt lat="63.32748" lon="10.10809">
        <ele>2.016687</ele>
        <time>2020-07-15T20:57:52.036Z</time>
      </trkpt>
      <trkpt lat="63.32716" lon="10.1089">
        <ele>1.783505</ele>
        <time>2020-07-15T20:57:59.783Z</time>
      </trkpt>
      <trkpt lat="63.32697" lon="10.10956">
        <ele>1.612534</ele>
        <time>2020-07-15T20:58:05.434Z</time>
      </trkpt>
      <trkpt lat="63.32677" lon="10.11079">
        <ele>1.330528</ele>
        <time>2020-07-15T20:58:14.858Z</time>
      </trkpt>
      <trkpt lat="63.32638" lon="10.11177">
        <ele>1.784567</ele>
        <time>2020-07-15T20:58:27.498Z</time>
      </trkpt>
      <trkpt lat="63.32622" lon="10.11244">
        <ele>2.05648</ele>
        <time>2020-07-15T20:58:34.802Z</time>
      </trkpt>
      <trkpt lat="63.32614" lon="10.11277">
        <ele>2.187072</ele>
        <time>2020-07-15T20:58:37.678Z</time>
      </trkpt>
      <trkpt lat="63.32611" lon="10.11289">
        <ele>2.23813</ele>
        <time>2020-07-15T20:58:39.246Z</time>
      </trkpt>
      <trkpt lat="63.32594" lon="10.1133">
        <ele>2.433703</ele>
        <time>2020-07-15T20:58:44.436Z</time>
      </trkpt>
      <trkpt lat="63.32588" lon="10.11338">
        <ele>2.488872</ele>
        <time>2020-07-15T20:58:45.614Z</time>
      </trkpt>
      <trkpt lat="63.32579" lon="10.11351">
        <ele>2.576656</ele>
        <time>2020-07-15T20:58:48.820Z</time>
      </trkpt>
      <trkpt lat="63.32506" lon="10.11434">
        <ele>2.82471</ele>
        <time>2020-07-15T20:59:05.389Z</time>
      </trkpt>
      <trkpt lat="63.32473" lon="10.11499">
        <ele>2.88091</ele>
        <time>2020-07-15T20:59:13.550Z</time>
      </trkpt>
      <trkpt lat="63.32462" lon="10.11567">
        <ele>2.923136</ele>
        <time>2020-07-15T20:59:19.775Z</time>
      </trkpt>
      <trkpt lat="63.32458" lon="10.117">
        <ele>2.876763</ele>
        <time>2020-07-15T20:59:29.006Z</time>
      </trkpt>
      <trkpt lat="63.32444" lon="10.11824">
        <ele>2.522768</ele>
        <time>2020-07-15T20:59:37.710Z</time>
      </trkpt>
      <trkpt lat="63.3242" lon="10.11931">
        <ele>2.189754</ele>
        <time>2020-07-15T20:59:46.032Z</time>
      </trkpt>
      <trkpt lat="63.32386" lon="10.11985">
        <ele>1.929875</ele>
        <time>2020-07-15T20:59:53.017Z</time>
      </trkpt>
      <trkpt lat="63.3238" lon="10.11998">
        <ele>1.878295</ele>
        <time>2020-07-15T20:59:54.522Z</time>
      </trkpt>
      <trkpt lat="63.32374" lon="10.12012">
        <ele>1.992372</ele>
        <time>2020-07-15T20:59:56.181Z</time>
      </trkpt>
      <trkpt lat="63.32363" lon="10.12058">
        <ele>2.444525</ele>
        <time>2020-07-15T21:00:00.814Z</time>
      </trkpt>
      <trkpt lat="63.32347" lon="10.12187">
        <ele>3.597695</ele>
        <time>2020-07-15T21:00:14.693Z</time>
      </trkpt>
      <trkpt lat="63.32325" lon="10.12273">
        <ele>4.461895</ele>
        <time>2020-07-15T21:00:26.764Z</time>
      </trkpt>
      <trkpt lat="63.32313" lon="10.12305">
        <ele>4.831199</ele>
        <time>2020-07-15T21:00:31.963Z</time>
      </trkpt>
      <trkpt lat="63.32269" lon="10.12377">
        <ele>5.766176</ele>
        <time>2020-07-15T21:00:46.756Z</time>
      </trkpt>
      <trkpt lat="63.32253" lon="10.12444">
        <ele>6.297937</ele>
        <time>2020-07-15T21:00:55.996Z</time>
      </trkpt>
      <trkpt lat="63.32252" lon="10.12537">
        <ele>6.945375</ele>
        <time>2020-07-15T21:01:06.897Z</time>
      </trkpt>
      <trkpt lat="63.32263" lon="10.12842">
        <ele>7.319589</ele>
        <time>2020-07-15T21:01:31.217Z</time>
      </trkpt>
      <trkpt lat="63.32288" lon="10.13006">
        <ele>6.282764</ele>
        <time>2020-07-15T21:01:42.008Z</time>
      </trkpt>
      <trkpt lat="63.32282" lon="10.13088">
        <ele>5.786142</ele>
        <time>2020-07-15T21:01:47.277Z</time>
      </trkpt>
      <trkpt lat="63.32259" lon="10.13217">
        <ele>5.366946</ele>
        <time>2020-07-15T21:01:56.324Z</time>
      </trkpt>
      <trkpt lat="63.32245" lon="10.1326">
        <ele>5.214313</ele>
        <time>2020-07-15T21:02:00.070Z</time>
      </trkpt>
      <trkpt lat="63.32227" lon="10.13278">
        <ele>5.096295</ele>
        <time>2020-07-15T21:02:03.111Z</time>
      </trkpt>
      <trkpt lat="63.32184" lon="10.13279">
        <ele>4.827112</ele>
        <time>2020-07-15T21:02:10.726Z</time>
      </trkpt>
      <trkpt lat="63.32162" lon="10.13292">
        <ele>4.684674</ele>
        <time>2020-07-15T21:02:15.103Z</time>
      </trkpt>
      <trkpt lat="63.32137" lon="10.13326">
        <ele>4.885075</ele>
        <time>2020-07-15T21:02:20.948Z</time>
      </trkpt>
      <trkpt lat="63.32117" lon="10.13378">
        <ele>5.38748</ele>
        <time>2020-07-15T21:02:27.741Z</time>
      </trkpt>
      <trkpt lat="63.32107" lon="10.13426">
        <ele>5.776355</ele>
        <time>2020-07-15T21:02:32.602Z</time>
      </trkpt>
      <trkpt lat="63.32104" lon="10.13481">
        <ele>6.179006</ele>
        <time>2020-07-15T21:02:39.460Z</time>
      </trkpt>
      <trkpt lat="63.32115" lon="10.13648">
        <ele>7.421462</ele>
        <time>2020-07-15T21:02:59.050Z</time>
      </trkpt>
      <trkpt lat="63.32115" lon="10.13664">
        <ele>7.536834</ele>
        <time>2020-07-15T21:03:00.311Z</time>
      </trkpt>
      <trkpt lat="63.32114" lon="10.13687">
        <ele>7.628949</ele>
        <time>2020-07-15T21:03:03.137Z</time>
      </trkpt>
      <trkpt lat="63.32106" lon="10.13741">
        <ele>7.844228</ele>
        <time>2020-07-15T21:03:07.670Z</time>
      </trkpt>
      <trkpt lat="63.32097" lon="10.13779">
        <ele>8.005955</ele>
        <time>2020-07-15T21:03:12.233Z</time>
      </trkpt>
      <trkpt lat="63.32083" lon="10.13828">
        <ele>8.226896</ele>
        <time>2020-07-15T21:03:17.314Z</time>
      </trkpt>
      <trkpt lat="63.32069" lon="10.13877">
        <ele>8.441896</ele>
        <time>2020-07-15T21:03:22.079Z</time>
      </trkpt>
      <trkpt lat="63.32026" lon="10.14029">
        <ele>9.043436</ele>
        <time>2020-07-15T21:03:38.858Z</time>
      </trkpt>
      <trkpt lat="63.32023" lon="10.14026">
        <ele>9.038035</ele>
        <time>2020-07-15T21:03:39.911Z</time>
      </trkpt>
      <trkpt lat="63.31969" lon="10.14204">
        <ele>8.87981</ele>
        <time>2020-07-15T21:03:56.456Z</time>
      </trkpt>
      <trkpt lat="63.31952" lon="10.14263">
        <ele>8.828131</ele>
        <time>2020-07-15T21:04:02.109Z</time>
      </trkpt>
      <trkpt lat="63.31946" lon="10.14285">
        <ele>8.809292</ele>
        <time>2020-07-15T21:04:04.187Z</time>
      </trkpt>
      <trkpt lat="63.31919" lon="10.14378">
        <ele>8.455344</ele>
        <time>2020-07-15T21:04:13.738Z</time>
      </trkpt>
      <trkpt lat="63.31908" lon="10.14422">
        <ele>8.123253</ele>
        <time>2020-07-15T21:04:17.618Z</time>
      </trkpt>
      <trkpt lat="63.31899" lon="10.14455">
        <ele>7.869601</ele>
        <time>2020-07-15T21:04:20.331Z</time>
      </trkpt>
      <trkpt lat="63.31878" lon="10.14566">
        <ele>7.071635</ele>
        <time>2020-07-15T21:04:28.579Z</time>
      </trkpt>
      <trkpt lat="63.31871" lon="10.14615">
        <ele>6.728646</ele>
        <time>2020-07-15T21:04:31.948Z</time>
      </trkpt>
      <trkpt lat="63.31855" lon="10.14768">
        <ele>5.506485</ele>
        <time>2020-07-15T21:04:42.052Z</time>
      </trkpt>
      <trkpt lat="63.31846" lon="10.14857">
        <ele>4.639891</ele>
        <time>2020-07-15T21:04:47.804Z</time>
      </trkpt>
      <trkpt lat="63.3183" lon="10.14946">
        <ele>3.710443</ele>
        <time>2020-07-15T21:04:53.979Z</time>
      </trkpt>
      <trkpt lat="63.31801" lon="10.1501">
        <ele>2.851442</ele>
        <time>2020-07-15T21:04:59.876Z</time>
      </trkpt>
      <trkpt lat="63.31767" lon="10.15046">
        <ele>2.322186</ele>
        <time>2020-07-15T21:05:05.887Z</time>
      </trkpt>
      <trkpt lat="63.31704" lon="10.15085">
        <ele>2.546381</ele>
        <time>2020-07-15T21:05:18.065Z</time>
      </trkpt>
      <trkpt lat="63.31657" lon="10.15112">
        <ele>2.711928</ele>
        <time>2020-07-15T21:05:28.132Z</time>
      </trkpt>
      <trkpt lat="63.3162" lon="10.15134">
        <ele>2.841532</ele>
        <time>2020-07-15T21:05:37.126Z</time>
      </trkpt>
      <trkpt lat="63.31559" lon="10.15187">
        <ele>3.117759</ele>
        <time>2020-07-15T21:05:51.515Z</time>
      </trkpt>
      <trkpt lat="63.31519" lon="10.15244">
        <ele>3.331859</ele>
        <time>2020-07-15T21:06:01.280Z</time>
      </trkpt>
      <trkpt lat="63.31497" lon="10.15284">
        <ele>3.458246</ele>
        <time>2020-07-15T21:06:07.200Z</time>
      </trkpt>
      <trkpt lat="63.31487" lon="10.15305">
        <ele>3.520747</ele>
        <time>2020-07-15T21:06:09.623Z</time>
      </trkpt>
      <trkpt lat="63.31471" lon="10.15343">
        <ele>3.625612</ele>
        <time>2020-07-15T21:06:14.158Z</time>
      </trkpt>
      <trkpt lat="63.31466" lon="10.15358">
        <ele>3.664166</ele>
        <time>2020-07-15T21:06:15.537Z</time>
      </trkpt>
      <trkpt lat="63.31459" lon="10.15377">
        <ele>3.701494</ele>
        <time>2020-07-15T21:06:17.483Z</time>
      </trkpt>
      <trkpt lat="63.31396" lon="10.15621">
        <ele>3.192808</ele>
        <time>2020-07-15T21:06:38.728Z</time>
      </trkpt>
      <trkpt lat="63.31366" lon="10.1576">
        <ele>2.996663</ele>
        <time>2020-07-15T21:06:51.233Z</time>
      </trkpt>
      <trkpt lat="63.31342" lon="10.15802">
        <ele>3.022304</ele>
        <time>2020-07-15T21:06:57.172Z</time>
      </trkpt>
      <trkpt lat="63.31286" lon="10.15832">
        <ele>3.070198</ele>
        <time>2020-07-15T21:07:08.246Z</time>
      </trkpt>
      <trkpt lat="63.3127" lon="10.15842">
        <ele>3.084408</ele>
        <time>2020-07-15T21:07:11.683Z</time>
      </trkpt>
      <trkpt lat="63.31255" lon="10.15852">
        <ele>3.097062</ele>
        <time>2020-07-15T21:07:14.480Z</time>
      </trkpt>
      <trkpt lat="63.31224" lon="10.15895">
        <ele>3.128001</ele>
        <time>2020-07-15T21:07:21.492Z</time>
      </trkpt>
      <trkpt lat="63.31206" lon="10.15948">
        <ele>3.026442</ele>
        <time>2020-07-15T21:07:27.104Z</time>
      </trkpt>
      <trkpt lat="63.31189" lon="10.16016">
        <ele>2.87435</ele>
        <time>2020-07-15T21:07:33.523Z</time>
      </trkpt>
      <trkpt lat="63.31188" lon="10.16021">
        <ele>2.863611</ele>
        <time>2020-07-15T21:07:33.918Z</time>
      </trkpt>
      <trkpt lat="63.31156" lon="10.16257">
        <ele>2.381683</ele>
        <time>2020-07-15T21:07:52.644Z</time>
      </trkpt>
      <trkpt lat="63.31154" lon="10.16441">
        <ele>1.889886</ele>
        <time>2020-07-15T21:08:06.250Z</time>
      </trkpt>
      <trkpt lat="63.31149" lon="10.16478">
        <ele>1.785427</ele>
        <time>2020-07-15T21:08:09.117Z</time>
      </trkpt>
      <trkpt lat="63.31134" lon="10.16523">
        <ele>1.631897</ele>
        <time>2020-07-15T21:08:13.487Z</time>
      </trkpt>
      <trkpt lat="63.31076" lon="10.16608">
        <ele>1.24562</ele>
        <time>2020-07-15T21:08:25.580Z</time>
      </trkpt>
      <trkpt lat="63.31066" lon="10.16634">
        <ele>1.236686</ele>
        <time>2020-07-15T21:08:28.198Z</time>
      </trkpt>
      <trkpt lat="63.31059" lon="10.16653">
        <ele>1.230332</ele>
        <time>2020-07-15T21:08:30.182Z</time>
      </trkpt>
      <trkpt lat="63.31041" lon="10.16732">
        <ele>1.207301</ele>
        <time>2020-07-15T21:08:37.238Z</time>
      </trkpt>
      <trkpt lat="63.31037" lon="10.16739">
        <ele>1.20422</ele>
        <time>2020-07-15T21:08:38.294Z</time>
      </trkpt>
      <trkpt lat="63.31039" lon="10.16752">
        <ele>1.20064</ele>
        <time>2020-07-15T21:08:39.374Z</time>
      </trkpt>
      <trkpt lat="63.3104" lon="10.16764">
        <ele>1.19755</ele>
        <time>2020-07-15T21:08:40.317Z</time>
      </trkpt>
      <trkpt lat="63.3104" lon="10.16769">
        <ele>1.196259</ele>
        <time>2020-07-15T21:08:40.704Z</time>
      </trkpt>
      <trkpt lat="63.3104" lon="10.168">
        <ele>1.188055</ele>
        <time>2020-07-15T21:08:43.363Z</time>
      </trkpt>
      <trkpt lat="63.31045" lon="10.16868">
        <ele>1.170283</ele>
        <time>2020-07-15T21:08:49.123Z</time>
      </trkpt>
      <trkpt lat="63.31055" lon="10.16978">
        <ele>1.161352</ele>
        <time>2020-07-15T21:08:59.125Z</time>
      </trkpt>
      <trkpt lat="63.31058" lon="10.1701">
        <ele>1.192274</ele>
        <time>2020-07-15T21:09:01.823Z</time>
      </trkpt>
      <trkpt lat="63.31062" lon="10.17008">
        <ele>1.202452</ele>
        <time>2020-07-15T21:09:02.964Z</time>
      </trkpt>
      <trkpt lat="63.31084" lon="10.17251">
        <ele>1.439827</ele>
        <time>2020-07-15T21:09:23.847Z</time>
      </trkpt>
      <trkpt lat="63.31097" lon="10.1739">
        <ele>1.501674</ele>
        <time>2020-07-15T21:09:35.528Z</time>
      </trkpt>
      <trkpt lat="63.31099" lon="10.17411">
        <ele>1.489546</ele>
        <time>2020-07-15T21:09:37.312Z</time>
      </trkpt>
      <trkpt lat="63.31104" lon="10.17466">
        <ele>1.457496</ele>
        <time>2020-07-15T21:09:41.735Z</time>
      </trkpt>
      <trkpt lat="63.31111" lon="10.17543">
        <ele>1.411792</ele>
        <time>2020-07-15T21:09:47.996Z</time>
      </trkpt>
      <trkpt lat="63.31126" lon="10.17645">
        <ele>1.350711</ele>
        <time>2020-07-15T21:09:56.194Z</time>
      </trkpt>
      <trkpt lat="63.31175" lon="10.1789">
        <ele>1.558174</ele>
        <time>2020-07-15T21:10:16.674Z</time>
      </trkpt>
      <trkpt lat="63.31186" lon="10.17974">
        <ele>1.6852</ele>
        <time>2020-07-15T21:10:24.376Z</time>
      </trkpt>
      <trkpt lat="63.31187" lon="10.17978">
        <ele>1.69147</ele>
        <time>2020-07-15T21:10:24.695Z</time>
      </trkpt>
      <trkpt lat="63.31193" lon="10.18062">
        <ele>1.81328</ele>
        <time>2020-07-15T21:10:32.654Z</time>
      </trkpt>
      <trkpt lat="63.31196" lon="10.18098">
        <ele>1.866487</ele>
        <time>2020-07-15T21:10:36.345Z</time>
      </trkpt>
      <trkpt lat="63.31207" lon="10.18235">
        <ele>2.254349</ele>
        <time>2020-07-15T21:10:49.057Z</time>
      </trkpt>
      <trkpt lat="63.31211" lon="10.18262">
        <ele>2.337788</ele>
        <time>2020-07-15T21:10:52.143Z</time>
      </trkpt>
      <trkpt lat="63.31217" lon="10.18286">
        <ele>2.416744</ele>
        <time>2020-07-15T21:10:54.600Z</time>
      </trkpt>
      <trkpt lat="63.31222" lon="10.18306">
        <ele>2.481895</ele>
        <time>2020-07-15T21:10:56.411Z</time>
      </trkpt>
      <trkpt lat="63.31229" lon="10.18327">
        <ele>2.557328</ele>
        <time>2020-07-15T21:10:59.200Z</time>
      </trkpt>
      <trkpt lat="63.3124" lon="10.18364">
        <ele>2.684549</ele>
        <time>2020-07-15T21:11:02.988Z</time>
      </trkpt>
      <trkpt lat="63.31253" lon="10.18402">
        <ele>2.819926</ele>
        <time>2020-07-15T21:11:07.421Z</time>
      </trkpt>
      <trkpt lat="63.31263" lon="10.18433">
        <ele>2.929668</ele>
        <time>2020-07-15T21:11:10.335Z</time>
      </trkpt>
      <trkpt lat="63.31322" lon="10.18607">
        <ele>2.735013</ele>
        <time>2020-07-15T21:11:27.699Z</time>
      </trkpt>
      <trkpt lat="63.31371" lon="10.18744">
        <ele>2.461683</ele>
        <time>2020-07-15T21:11:39.955Z</time>
      </trkpt>
      <trkpt lat="63.31414" lon="10.18862">
        <ele>2.8494</ele>
        <time>2020-07-15T21:11:51.644Z</time>
      </trkpt>
      <trkpt lat="63.31438" lon="10.18928">
        <ele>3.194028</ele>
        <time>2020-07-15T21:11:58.987Z</time>
      </trkpt>
      <trkpt lat="63.31465" lon="10.19004">
        <ele>3.590606</ele>
        <time>2020-07-15T21:12:08.168Z</time>
      </trkpt>
      <trkpt lat="63.31471" lon="10.1902">
        <ele>3.673957</ele>
        <time>2020-07-15T21:12:10.164Z</time>
      </trkpt>
      <trkpt lat="63.31507" lon="10.19119">
        <ele>4.448141</ele>
        <time>2020-07-15T21:12:25.164Z</time>
      </trkpt>
      <trkpt lat="63.31574" lon="10.19261">
        <ele>6.607691</ele>
        <time>2020-07-15T21:12:49.808Z</time>
      </trkpt>
      <trkpt lat="63.31593" lon="10.19292">
        <ele>7.160945</ele>
        <time>2020-07-15T21:12:56.180Z</time>
      </trkpt>
      <trkpt lat="63.31613" lon="10.19321">
        <ele>7.709676</ele>
        <time>2020-07-15T21:13:02.175Z</time>
      </trkpt>
      <trkpt lat="63.31664" lon="10.19381">
        <ele>8.147041</ele>
        <time>2020-07-15T21:13:14.984Z</time>
      </trkpt>
      <trkpt lat="63.31697" lon="10.19397">
        <ele>8.090086</ele>
        <time>2020-07-15T21:13:21.797Z</time>
      </trkpt>
      <trkpt lat="63.3173" lon="10.19384">
        <ele>8.032808</ele>
        <time>2020-07-15T21:13:28.054Z</time>
      </trkpt>
      <trkpt lat="63.31783" lon="10.19314">
        <ele>7.927629</ele>
        <time>2020-07-15T21:13:37.179Z</time>
      </trkpt>
      <trkpt lat="63.31809" lon="10.19295">
        <ele>7.680954</ele>
        <time>2020-07-15T21:13:41.022Z</time>
      </trkpt>
      <trkpt lat="63.31913" lon="10.19308">
        <ele>5.86089</ele>
        <time>2020-07-15T21:13:55.527Z</time>
      </trkpt>
      <trkpt lat="63.32075" lon="10.1945">
        <ele>4.528469</ele>
        <time>2020-07-15T21:14:21.769Z</time>
      </trkpt>
      <trkpt lat="63.32103" lon="10.19496">
        <ele>4.45578</ele>
        <time>2020-07-15T21:14:28.672Z</time>
      </trkpt>
      <trkpt lat="63.32119" lon="10.19558">
        <ele>4.390121</ele>
        <time>2020-07-15T21:14:35.666Z</time>
      </trkpt>
      <trkpt lat="63.32119" lon="10.19564">
        <ele>4.396857</ele>
        <time>2020-07-15T21:14:36.332Z</time>
      </trkpt>
      <trkpt lat="63.3212" lon="10.19604">
        <ele>4.860282</ele>
        <time>2020-07-15T21:14:40.593Z</time>
      </trkpt>
      <trkpt lat="63.32089" lon="10.19761">
        <ele>6.85741</ele>
        <time>2020-07-15T21:15:01.244Z</time>
      </trkpt>
      <trkpt lat="63.32088" lon="10.19826">
        <ele>7.621224</ele>
        <time>2020-07-15T21:15:09.640Z</time>
      </trkpt>
      <trkpt lat="63.3213" lon="10.19962">
        <ele>9.248727</ele>
        <time>2020-07-15T21:15:30.201Z</time>
      </trkpt>
      <trkpt lat="63.32143" lon="10.20102">
        <ele>9.926095</ele>
        <time>2020-07-15T21:15:45.910Z</time>
      </trkpt>
      <trkpt lat="63.3215" lon="10.20136">
        <ele>10.104799</ele>
        <time>2020-07-15T21:15:49.496Z</time>
      </trkpt>
      <trkpt lat="63.32168" lon="10.20192">
        <ele>10.432574</ele>
        <time>2020-07-15T21:15:55.504Z</time>
      </trkpt>
      <trkpt lat="63.3223" lon="10.2033">
        <ele>11.102109</ele>
        <time>2020-07-15T21:16:09.234Z</time>
      </trkpt>
      <trkpt lat="63.32246" lon="10.20392">
        <ele>11.226579</ele>
        <time>2020-07-15T21:16:13.995Z</time>
      </trkpt>
      <trkpt lat="63.3227" lon="10.20566">
        <ele>11.546596</ele>
        <time>2020-07-15T21:16:28.794Z</time>
      </trkpt>
      <trkpt lat="63.32276" lon="10.20636">
        <ele>11.869197</ele>
        <time>2020-07-15T21:16:37.388Z</time>
      </trkpt>
      <trkpt lat="63.32273" lon="10.20722">
        <ele>13.563262</ele>
        <time>2020-07-15T21:16:49.630Z</time>
      </trkpt>
      <trkpt lat="63.32261" lon="10.20824">
        <ele>15.63001</ele>
        <time>2020-07-15T21:17:04.354Z</time>
      </trkpt>
      <trkpt lat="63.32257" lon="10.20859">
        <ele>16.334095</ele>
        <time>2020-07-15T21:17:09.429Z</time>
      </trkpt>
      <trkpt lat="63.32256" lon="10.20878">
        <ele>16.708817</ele>
        <time>2020-07-15T21:17:13.591Z</time>
      </trkpt>
      <trkpt lat="63.32255" lon="10.20938">
        <ele>17.901916</ele>
        <time>2020-07-15T21:17:22.249Z</time>
      </trkpt>
      <trkpt lat="63.32255" lon="10.20956">
        <ele>18.240558</ele>
        <time>2020-07-15T21:17:26.146Z</time>
      </trkpt>
      <trkpt lat="63.32257" lon="10.20985">
        <ele>18.817446</ele>
        <time>2020-07-15T21:17:30.323Z</time>
      </trkpt>
      <trkpt lat="63.3227" lon="10.21072">
        <ele>20.004974</ele>
        <time>2020-07-15T21:17:44.897Z</time>
      </trkpt>
      <trkpt lat="63.32299" lon="10.21187">
        <ele>21.114456</ele>
        <time>2020-07-15T21:18:02.661Z</time>
      </trkpt>
      <trkpt lat="63.32301" lon="10.21195">
        <ele>21.195604</ele>
        <time>2020-07-15T21:18:03.818Z</time>
      </trkpt>
      <trkpt lat="63.32348" lon="10.21353">
        <ele>22.795506</ele>
        <time>2020-07-15T21:18:18.184Z</time>
      </trkpt>
      <trkpt lat="63.32358" lon="10.21386">
        <ele>22.812648</ele>
        <time>2020-07-15T21:18:20.549Z</time>
      </trkpt>
      <trkpt lat="63.32371" lon="10.21417">
        <ele>22.661076</ele>
        <time>2020-07-15T21:18:24.408Z</time>
      </trkpt>
      <trkpt lat="63.32388" lon="10.21449">
        <ele>22.4796</ele>
        <time>2020-07-15T21:18:27.539Z</time>
      </trkpt>
      <trkpt lat="63.32401" lon="10.21478">
        <ele>22.335455</ele>
        <time>2020-07-15T21:18:30.665Z</time>
      </trkpt>
      <trkpt lat="63.32415" lon="10.21521">
        <ele>22.139905</ele>
        <time>2020-07-15T21:18:34.307Z</time>
      </trkpt>
      <trkpt lat="63.32423" lon="10.21552">
        <ele>22.00882</ele>
        <time>2020-07-15T21:18:36.722Z</time>
      </trkpt>
      <trkpt lat="63.32429" lon="10.21583">
        <ele>21.885929</ele>
        <time>2020-07-15T21:18:39.161Z</time>
      </trkpt>
      <trkpt lat="63.32432" lon="10.216">
        <ele>21.820458</ele>
        <time>2020-07-15T21:18:41.071Z</time>
      </trkpt>
      <trkpt lat="63.32439" lon="10.21668">
        <ele>21.567508</ele>
        <time>2020-07-15T21:18:45.656Z</time>
      </trkpt>
      <trkpt lat="63.32447" lon="10.21877">
        <ele>21.143966</ele>
        <time>2020-07-15T21:19:02.238Z</time>
      </trkpt>
      <trkpt lat="63.32448" lon="10.21884">
        <ele>21.131112</ele>
        <time>2020-07-15T21:19:03.367Z</time>
      </trkpt>
      <trkpt lat="63.32454" lon="10.21994">
        <ele>20.93858</ele>
        <time>2020-07-15T21:19:12.065Z</time>
      </trkpt>
      <trkpt lat="63.32472" lon="10.22231">
        <ele>19.852242</ele>
        <time>2020-07-15T21:19:28.434Z</time>
      </trkpt>
      <trkpt lat="63.32475" lon="10.22372">
        <ele>18.910151</ele>
        <time>2020-07-15T21:19:37.468Z</time>
      </trkpt>
      <trkpt lat="63.32482" lon="10.22542">
        <ele>17.788333</ele>
        <time>2020-07-15T21:19:48.821Z</time>
      </trkpt>
      <trkpt lat="63.32487" lon="10.2265">
        <ele>17.107077</ele>
        <time>2020-07-15T21:19:56.163Z</time>
      </trkpt>
      <trkpt lat="63.32489" lon="10.22808">
        <ele>16.116069</ele>
        <time>2020-07-15T21:20:06.834Z</time>
      </trkpt>
      <trkpt lat="63.32481" lon="10.23003">
        <ele>14.559399</ele>
        <time>2020-07-15T21:20:19.808Z</time>
      </trkpt>
      <trkpt lat="63.32456" lon="10.23338">
        <ele>11.392039</ele>
        <time>2020-07-15T21:20:40.852Z</time>
      </trkpt>
      <trkpt lat="63.32441" lon="10.23545">
        <ele>9.332875</ele>
        <time>2020-07-15T21:20:53.663Z</time>
      </trkpt>
      <trkpt lat="63.32426" lon="10.23731">
        <ele>7.848171</ele>
        <time>2020-07-15T21:21:05.774Z</time>
      </trkpt>
      <trkpt lat="63.32415" lon="10.2387">
        <ele>7.608117</ele>
        <time>2020-07-15T21:21:15.613Z</time>
      </trkpt>
      <trkpt lat="63.32407" lon="10.23971">
        <ele>7.433186</ele>
        <time>2020-07-15T21:21:23.539Z</time>
      </trkpt>
      <trkpt lat="63.32375" lon="10.24395">
        <ele>8.881178</ele>
        <time>2020-07-15T21:22:04.194Z</time>
      </trkpt>
      <trkpt lat="63.32327" lon="10.25036">
        <ele>12.91736</ele>
        <time>2020-07-15T21:23:12.622Z</time>
      </trkpt>
      <trkpt lat="63.32295" lon="10.2539">
        <ele>13.415206</ele>
        <time>2020-07-15T21:23:41.460Z</time>
      </trkpt>
      <trkpt lat="63.32291" lon="10.25407">
        <ele>13.376726</ele>
        <time>2020-07-15T21:23:42.763Z</time>
      </trkpt>
      <trkpt lat="63.32287" lon="10.25427">
        <ele>13.333153</ele>
        <time>2020-07-15T21:23:44.358Z</time>
      </trkpt>
      <trkpt lat="63.32281" lon="10.25464">
        <ele>13.254736</ele>
        <time>2020-07-15T21:23:47.369Z</time>
      </trkpt>
      <trkpt lat="63.32275" lon="10.25536">
        <ele>13.107536</ele>
        <time>2020-07-15T21:23:52.734Z</time>
      </trkpt>
      <trkpt lat="63.32261" lon="10.25676">
        <ele>12.801541</ele>
        <time>2020-07-15T21:24:03.103Z</time>
      </trkpt>
      <trkpt lat="63.32228" lon="10.26077">
        <ele>11.525021</ele>
        <time>2020-07-15T21:24:32.971Z</time>
      </trkpt>
      <trkpt lat="63.32223" lon="10.26225">
        <ele>10.652472</ele>
        <time>2020-07-15T21:24:43.161Z</time>
      </trkpt>
      <trkpt lat="63.32231" lon="10.26397">
        <ele>9.630619</ele>
        <time>2020-07-15T21:24:54.563Z</time>
      </trkpt>
      <trkpt lat="63.32241" lon="10.26496">
        <ele>8.850486</ele>
        <time>2020-07-15T21:25:01.095Z</time>
      </trkpt>
      <trkpt lat="63.32251" lon="10.26539">
        <ele>8.398744</ele>
        <time>2020-07-15T21:25:04.175Z</time>
      </trkpt>
      <trkpt lat="63.32248" lon="10.26554">
        <ele>8.258589</ele>
        <time>2020-07-15T21:25:05.153Z</time>
      </trkpt>
      <trkpt lat="63.32246" lon="10.26555">
        <ele>8.2027</ele>
        <time>2020-07-15T21:25:05.475Z</time>
      </trkpt>
      <trkpt lat="63.32249" lon="10.26638">
        <ele>7.425313</ele>
        <time>2020-07-15T21:25:10.682Z</time>
      </trkpt>
      <trkpt lat="63.32258" lon="10.26812">
        <ele>5.792676</ele>
        <time>2020-07-15T21:25:21.581Z</time>
      </trkpt>
      <trkpt lat="63.32261" lon="10.26829">
        <ele>5.61691</ele>
        <time>2020-07-15T21:25:22.737Z</time>
      </trkpt>
      <trkpt lat="63.32272" lon="10.26899">
        <ele>5.131971</ele>
        <time>2020-07-15T21:25:27.392Z</time>
      </trkpt>
      <trkpt lat="63.32305" lon="10.27095">
        <ele>3.790476</ele>
        <time>2020-07-15T21:25:41.114Z</time>
      </trkpt>
      <trkpt lat="63.32306" lon="10.271">
        <ele>3.754106</ele>
        <time>2020-07-15T21:25:41.425Z</time>
      </trkpt>
      <trkpt lat="63.32375" lon="10.27454">
        <ele>2.938851</ele>
        <time>2020-07-15T21:26:10.137Z</time>
      </trkpt>
      <trkpt lat="63.32378" lon="10.2747">
        <ele>2.933209</ele>
        <time>2020-07-15T21:26:11.745Z</time>
      </trkpt>
      <trkpt lat="63.32386" lon="10.27507">
        <ele>2.92014</ele>
        <time>2020-07-15T21:26:15.267Z</time>
      </trkpt>
      <trkpt lat="63.32409" lon="10.27615">
        <ele>3.212883</ele>
        <time>2020-07-15T21:26:26.431Z</time>
      </trkpt>
      <trkpt lat="63.32423" lon="10.27656">
        <ele>3.544839</ele>
        <time>2020-07-15T21:26:31.228Z</time>
      </trkpt>
      <trkpt lat="63.32429" lon="10.27665">
        <ele>3.645288</ele>
        <time>2020-07-15T21:26:32.913Z</time>
      </trkpt>
      <trkpt lat="63.3243" lon="10.27673">
        <ele>3.700739</ele>
        <time>2020-07-15T21:26:34.008Z</time>
      </trkpt>
      <trkpt lat="63.32433" lon="10.2779">
        <ele>4.448432</ele>
        <time>2020-07-15T21:26:48.518Z</time>
      </trkpt>
      <trkpt lat="63.32435" lon="10.27804">
        <ele>4.546157</ele>
        <time>2020-07-15T21:26:50.467Z</time>
      </trkpt>
      <trkpt lat="63.32435" lon="10.27815">
        <ele>4.613334</ele>
        <time>2020-07-15T21:26:51.745Z</time>
      </trkpt>
      <trkpt lat="63.32443" lon="10.27929">
        <ele>5.352569</ele>
        <time>2020-07-15T21:27:03.820Z</time>
      </trkpt>
      <trkpt lat="63.32472" lon="10.28752">
        <ele>13.508867</ele>
        <time>2020-07-15T21:28:36.313Z</time>
      </trkpt>
      <trkpt lat="63.32472" lon="10.2888">
        <ele>14.85168</ele>
        <time>2020-07-15T21:28:51.418Z</time>
      </trkpt>
      <trkpt lat="63.32465" lon="10.28995">
        <ele>16.084924</ele>
        <time>2020-07-15T21:29:04.386Z</time>
      </trkpt>
      <trkpt lat="63.32461" lon="10.29026">
        <ele>16.422155</ele>
        <time>2020-07-15T21:29:08.067Z</time>
      </trkpt>
      <trkpt lat="63.32461" lon="10.29033">
        <ele>16.490571</ele>
        <time>2020-07-15T21:29:09.028Z</time>
      </trkpt>
      <trkpt lat="63.32416" lon="10.29334">
        <ele>19.724231</ele>
        <time>2020-07-15T21:29:44.633Z</time>
      </trkpt>
      <trkpt lat="63.32411" lon="10.29432">
        <ele>20.714154</ele>
        <time>2020-07-15T21:29:55.522Z</time>
      </trkpt>
      <trkpt lat="63.32411" lon="10.29451">
        <ele>20.899693</ele>
        <time>2020-07-15T21:29:57.623Z</time>
      </trkpt>
      <trkpt lat="63.32413" lon="10.29474">
        <ele>21.136533</ele>
        <time>2020-07-15T21:30:00.405Z</time>
      </trkpt>
      <trkpt lat="63.32422" lon="10.29533">
        <ele>21.762051</ele>
        <time>2020-07-15T21:30:07.276Z</time>
      </trkpt>
      <trkpt lat="63.32427" lon="10.29559">
        <ele>22.05644</ele>
        <time>2020-07-15T21:30:10.653Z</time>
      </trkpt>
      <trkpt lat="63.32429" lon="10.29566">
        <ele>22.142559</ele>
        <time>2020-07-15T21:30:11.565Z</time>
      </trkpt>
      <trkpt lat="63.32431" lon="10.29572">
        <ele>22.218563</ele>
        <time>2020-07-15T21:30:12.389Z</time>
      </trkpt>
      <trkpt lat="63.32449" lon="10.29637">
        <ele>23.009128</ele>
        <time>2020-07-15T21:30:21.406Z</time>
      </trkpt>
      <trkpt lat="63.3246" lon="10.29677">
        <ele>23.495453</ele>
        <time>2020-07-15T21:30:26.954Z</time>
      </trkpt>
      <trkpt lat="63.32469" lon="10.2971">
        <ele>23.895374</ele>
        <time>2020-07-15T21:30:31.614Z</time>
      </trkpt>
      <trkpt lat="63.32567" lon="10.30068">
        <ele>27.772024</ele>
        <time>2020-07-15T21:31:19.690Z</time>
      </trkpt>
      <trkpt lat="63.32569" lon="10.30078">
        <ele>27.859469</ele>
        <time>2020-07-15T21:31:20.857Z</time>
      </trkpt>
      <trkpt lat="63.32583" lon="10.30165">
        <ele>28.638105</ele>
        <time>2020-07-15T21:31:30.762Z</time>
      </trkpt>
      <trkpt lat="63.32586" lon="10.30232">
        <ele>29.193614</ele>
        <time>2020-07-15T21:31:37.549Z</time>
      </trkpt>
      <trkpt lat="63.32586" lon="10.30248">
        <ele>29.292605</ele>
        <time>2020-07-15T21:31:39.340Z</time>
      </trkpt>
      <trkpt lat="63.32584" lon="10.30271">
        <ele>29.439833</ele>
        <time>2020-07-15T21:31:41.557Z</time>
      </trkpt>
      <trkpt lat="63.32572" lon="10.30356">
        <ele>30.013931</ele>
        <time>2020-07-15T21:31:50.852Z</time>
      </trkpt>
      <trkpt lat="63.32525" lon="10.30587">
        <ele>31.614543</ele>
        <time>2020-07-15T21:32:17.220Z</time>
      </trkpt>
      <trkpt lat="63.32523" lon="10.30618">
        <ele>31.827983</ele>
        <time>2020-07-15T21:32:20.340Z</time>
      </trkpt>
      <trkpt lat="63.32524" lon="10.30636">
        <ele>31.952385</ele>
        <time>2020-07-15T21:32:22.289Z</time>
      </trkpt>
      <trkpt lat="63.32525" lon="10.30647">
        <ele>32.034018</ele>
        <time>2020-07-15T21:32:23.613Z</time>
      </trkpt>
      <trkpt lat="63.3252" lon="10.30651">
        <ele>32.123928</ele>
        <time>2020-07-15T21:32:24.895Z</time>
      </trkpt>
      <trkpt lat="63.32512" lon="10.30663">
        <ele>32.271593</ele>
        <time>2020-07-15T21:32:26.829Z</time>
      </trkpt>
      <trkpt lat="63.32508" lon="10.30674">
        <ele>32.368428</ele>
        <time>2020-07-15T21:32:28.206Z</time>
      </trkpt>
      <trkpt lat="63.32504" lon="10.3068">
        <ele>32.445405</ele>
        <time>2020-07-15T21:32:29.368Z</time>
      </trkpt>
      <trkpt lat="63.32501" lon="10.30686">
        <ele>32.508995</ele>
        <time>2020-07-15T21:32:30.333Z</time>
      </trkpt>
      <trkpt lat="63.32498" lon="10.30691">
        <ele>32.568614</ele>
        <time>2020-07-15T21:32:31.305Z</time>
      </trkpt>
      <trkpt lat="63.32501" lon="10.30699">
        <ele>32.64882</ele>
        <time>2020-07-15T21:32:32.770Z</time>
      </trkpt>
      <trkpt lat="63.32502" lon="10.30702">
        <ele>32.672236</ele>
        <time>2020-07-15T21:32:33.200Z</time>
      </trkpt>
      <trkpt lat="63.32505" lon="10.30706">
        <ele>32.728188</ele>
        <time>2020-07-15T21:32:34.133Z</time>
      </trkpt>
      <trkpt lat="63.32492" lon="10.30765">
        <ele>33.18855</ele>
        <time>2020-07-15T21:32:40.922Z</time>
      </trkpt>
      <trkpt lat="63.32485" lon="10.30786">
        <ele>33.365875</ele>
        <time>2020-07-15T21:32:43.398Z</time>
      </trkpt>
      <trkpt lat="63.32482" lon="10.30798">
        <ele>33.465614</ele>
        <time>2020-07-15T21:32:44.850Z</time>
      </trkpt>
      <trkpt lat="63.3248" lon="10.3081">
        <ele>33.552766</ele>
        <time>2020-07-15T21:32:46.139Z</time>
      </trkpt>
      <trkpt lat="63.32476" lon="10.3081">
        <ele>33.624435</ele>
        <time>2020-07-15T21:32:47.241Z</time>
      </trkpt>
      <trkpt lat="63.32476" lon="10.30824">
        <ele>33.723749</ele>
        <time>2020-07-15T21:32:48.863Z</time>
      </trkpt>
      <trkpt lat="63.32481" lon="10.3107">
        <ele>35.469942</ele>
        <time>2020-07-15T21:33:14.406Z</time>
      </trkpt>
      <trkpt lat="63.32482" lon="10.31101">
        <ele>35.691273</ele>
        <time>2020-07-15T21:33:17.590Z</time>
      </trkpt>
      <trkpt lat="63.32474" lon="10.31102">
        <ele>35.817452</ele>
        <time>2020-07-15T21:33:19.303Z</time>
      </trkpt>
      <trkpt lat="63.32478" lon="10.31222">
        <ele>36.675894</ele>
        <time>2020-07-15T21:33:31.934Z</time>
      </trkpt>
      <trkpt lat="63.32479" lon="10.31289">
        <ele>37.154285</ele>
        <time>2020-07-15T21:33:38.918Z</time>
      </trkpt>
      <trkpt lat="63.32492" lon="10.31802">
        <ele>41.5715</ele>
        <time>2020-07-15T21:34:35.144Z</time>
      </trkpt>
      <trkpt lat="63.32495" lon="10.31841">
        <ele>42.033405</ele>
        <time>2020-07-15T21:34:40.163Z</time>
      </trkpt>
      <trkpt lat="63.325" lon="10.31858">
        <ele>42.257112</ele>
        <time>2020-07-15T21:34:42.311Z</time>
      </trkpt>
      <trkpt lat="63.32506" lon="10.31873">
        <ele>42.490668</ele>
        <time>2020-07-15T21:34:44.539Z</time>
      </trkpt>
      <trkpt lat="63.32511" lon="10.31884">
        <ele>42.676543</ele>
        <time>2020-07-15T21:34:46.877Z</time>
      </trkpt>
      <trkpt lat="63.32564" lon="10.31963">
        <ele>44.317867</ele>
        <time>2020-07-15T21:35:03.765Z</time>
      </trkpt>
      <trkpt lat="63.32633" lon="10.32074">
        <ele>46.830631</ele>
        <time>2020-07-15T21:35:28.528Z</time>
      </trkpt>
      <trkpt lat="63.3272" lon="10.3221">
        <ele>50.243768</ele>
        <time>2020-07-15T21:35:59.132Z</time>
      </trkpt>
      <trkpt lat="63.32737" lon="10.32241">
        <ele>50.956163</ele>
        <time>2020-07-15T21:36:05.644Z</time>
      </trkpt>
      <trkpt lat="63.32756" lon="10.32277">
        <ele>51.687888</ele>
        <time>2020-07-15T21:36:13.137Z</time>
      </trkpt>
      <trkpt lat="63.32782" lon="10.3233">
        <ele>52.70462</ele>
        <time>2020-07-15T21:36:23.358Z</time>
      </trkpt>
      <trkpt lat="63.32807" lon="10.32419">
        <ele>54.066015</ele>
        <time>2020-07-15T21:36:36.691Z</time>
      </trkpt>
      <trkpt lat="63.32811" lon="10.32433">
        <ele>54.277075</ele>
        <time>2020-07-15T21:36:38.963Z</time>
      </trkpt>
      <trkpt lat="63.32814" lon="10.32451">
        <ele>54.534131</ele>
        <time>2020-07-15T21:36:41.309Z</time>
      </trkpt>
      <trkpt lat="63.32815" lon="10.32462">
        <ele>54.6693</ele>
        <time>2020-07-15T21:36:42.577Z</time>
      </trkpt>
      <trkpt lat="63.32817" lon="10.32486">
        <ele>54.982014</ele>
        <time>2020-07-15T21:36:45.657Z</time>
      </trkpt>
      <trkpt lat="63.32816" lon="10.32607">
        <ele>56.399261</ele>
        <time>2020-07-15T21:36:59.831Z</time>
      </trkpt>
      <trkpt lat="63.32828" lon="10.32658">
        <ele>56.807586</ele>
        <time>2020-07-15T21:37:06.366Z</time>
      </trkpt>
      <trkpt lat="63.32843" lon="10.32687">
        <ele>57.121327</ele>
        <time>2020-07-15T21:37:11.247Z</time>
      </trkpt>
      <trkpt lat="63.32892" lon="10.32743">
        <ele>57.982361</ele>
        <time>2020-07-15T21:37:24.521Z</time>
      </trkpt>
      <trkpt lat="63.3292" lon="10.32833">
        <ele>58.749907</ele>
        <time>2020-07-15T21:37:35.278Z</time>
      </trkpt>
      <trkpt lat="63.32935" lon="10.32862">
        <ele>59.050206</ele>
        <time>2020-07-15T21:37:39.534Z</time>
      </trkpt>
      <trkpt lat="63.32951" lon="10.32884">
        <ele>59.227648</ele>
        <time>2020-07-15T21:37:43.693Z</time>
      </trkpt>
      <trkpt lat="63.32977" lon="10.32884">
        <ele>59.456767</ele>
        <time>2020-07-15T21:37:49.000Z</time>
      </trkpt>
      <trkpt lat="63.33027" lon="10.32862">
        <ele>59.919737</ele>
        <time>2020-07-15T21:37:59.439Z</time>
      </trkpt>
      <trkpt lat="63.33049" lon="10.32868">
        <ele>60.127573</ele>
        <time>2020-07-15T21:38:04.039Z</time>
      </trkpt>
      <trkpt lat="63.33085" lon="10.32898">
        <ele>60.476053</ele>
        <time>2020-07-15T21:38:12.260Z</time>
      </trkpt>
      <trkpt lat="63.33116" lon="10.32939">
        <ele>61.046977</ele>
        <time>2020-07-15T21:38:20.311Z</time>
      </trkpt>
      <trkpt lat="63.33159" lon="10.33042">
        <ele>62.737473</ele>
        <time>2020-07-15T21:38:35.912Z</time>
      </trkpt>
      <trkpt lat="63.33169" lon="10.33075">
        <ele>63.217935</ele>
        <time>2020-07-15T21:38:40.598Z</time>
      </trkpt>
      <trkpt lat="63.33182" lon="10.3312">
        <ele>63.863682</ele>
        <time>2020-07-15T21:38:47.461Z</time>
      </trkpt>
      <trkpt lat="63.332" lon="10.33193">
        <ele>64.859861</ele>
        <time>2020-07-15T21:38:58.459Z</time>
      </trkpt>
      <trkpt lat="63.33211" lon="10.33219">
        <ele>65.288893</ele>
        <time>2020-07-15T21:39:03.357Z</time>
      </trkpt>
      <trkpt lat="63.33223" lon="10.33236">
        <ele>65.865974</ele>
        <time>2020-07-15T21:39:08.013Z</time>
      </trkpt>
      <trkpt lat="63.33249" lon="10.33251">
        <ele>67.315826</ele>
        <time>2020-07-15T21:39:16.873Z</time>
      </trkpt>
      <trkpt lat="63.33341" lon="10.33271">
        <ele>72.267397</ele>
        <time>2020-07-15T21:39:50.646Z</time>
      </trkpt>
      <trkpt lat="63.3337" lon="10.3327">
        <ele>73.773034</ele>
        <time>2020-07-15T21:40:01.256Z</time>
      </trkpt>
      <trkpt lat="63.33399" lon="10.3325">
        <ele>75.453213</ele>
        <time>2020-07-15T21:40:12.896Z</time>
      </trkpt>
      <trkpt lat="63.33418" lon="10.33248">
        <ele>76.546269</ele>
        <time>2020-07-15T21:40:20.239Z</time>
      </trkpt>
      <trkpt lat="63.33436" lon="10.33259">
        <ele>77.646958</ele>
        <time>2020-07-15T21:40:26.880Z</time>
      </trkpt>
      <trkpt lat="63.33447" lon="10.33274">
        <ele>78.431052</ele>
        <time>2020-07-15T21:40:32.046Z</time>
      </trkpt>
      <trkpt lat="63.33451" lon="10.33288">
        <ele>78.858595</ele>
        <time>2020-07-15T21:40:35.167Z</time>
      </trkpt>
      <trkpt lat="63.335" lon="10.33461">
        <ele>84.2346</ele>
        <time>2020-07-15T21:41:08.080Z</time>
      </trkpt>
      <trkpt lat="63.33516" lon="10.33496">
        <ele>85.572185</ele>
        <time>2020-07-15T21:41:17.106Z</time>
      </trkpt>
      <trkpt lat="63.33547" lon="10.33522">
        <ele>87.580232</ele>
        <time>2020-07-15T21:41:30.355Z</time>
      </trkpt>
      <trkpt lat="63.33647" lon="10.33522">
        <ele>93.677684</ele>
        <time>2020-07-15T21:42:07.305Z</time>
      </trkpt>
      <trkpt lat="63.3366" lon="10.33527">
        <ele>94.456204</ele>
        <time>2020-07-15T21:42:12.350Z</time>
      </trkpt>
      <trkpt lat="63.33672" lon="10.33531">
        <ele>95.245909</ele>
        <time>2020-07-15T21:42:17.639Z</time>
      </trkpt>
      <trkpt lat="63.33696" lon="10.33561">
        <ele>96.889547</ele>
        <time>2020-07-15T21:42:27.879Z</time>
      </trkpt>
      <trkpt lat="63.33742" lon="10.33667">
        <ele>101.205301</ele>
        <time>2020-07-15T21:42:54.324Z</time>
      </trkpt>
      <trkpt lat="63.33754" lon="10.33769">
        <ele>104.258583</ele>
        <time>2020-07-15T21:43:13.631Z</time>
      </trkpt>
      <trkpt lat="63.33775" lon="10.33831">
        <ele>106.528335</ele>
        <time>2020-07-15T21:43:27.513Z</time>
      </trkpt>
      <trkpt lat="63.33829" lon="10.33901">
        <ele>110.178996</ele>
        <time>2020-07-15T21:43:50.775Z</time>
      </trkpt>
      <trkpt lat="63.33863" lon="10.33978">
        <ele>112.775721</ele>
        <time>2020-07-15T21:44:09.241Z</time>
      </trkpt>
      <trkpt lat="63.33885" lon="10.34">
        <ele>114.051646</ele>
        <time>2020-07-15T21:44:17.053Z</time>
      </trkpt>
      <trkpt lat="63.33888" lon="10.34004">
        <ele>114.244897</ele>
        <time>2020-07-15T21:44:19.134Z</time>
      </trkpt>
      <trkpt lat="63.33913" lon="10.34009">
        <ele>115.579557</ele>
        <time>2020-07-15T21:44:27.086Z</time>
      </trkpt>
      <trkpt lat="63.33948" lon="10.33991">
        <ele>117.464093</ele>
        <time>2020-07-15T21:44:38.939Z</time>
      </trkpt>
      <trkpt lat="63.34017" lon="10.3386">
        <ele>121.480319</ele>
        <time>2020-07-15T21:45:09.028Z</time>
      </trkpt>
      <trkpt lat="63.34034" lon="10.33842">
        <ele>122.305021</ele>
        <time>2020-07-15T21:45:14.878Z</time>
      </trkpt>
      <trkpt lat="63.34053" lon="10.33837">
        <ele>123.15356</ele>
        <time>2020-07-15T21:45:20.800Z</time>
      </trkpt>
      <trkpt lat="63.3407" lon="10.33848">
        <ele>123.92522</ele>
        <time>2020-07-15T21:45:26.343Z</time>
      </trkpt>
      <trkpt lat="63.34091" lon="10.33874">
        <ele>124.988981</ele>
        <time>2020-07-15T21:45:34.157Z</time>
      </trkpt>
      <trkpt lat="63.3414" lon="10.34042">
        <ele>128.951992</ele>
        <time>2020-07-15T21:46:04.038Z</time>
      </trkpt>
      <trkpt lat="63.34169" lon="10.34163">
        <ele>131.690094</ele>
        <time>2020-07-15T21:46:24.984Z</time>
      </trkpt>
      <trkpt lat="63.34198" lon="10.34248">
        <ele>133.7822</ele>
        <time>2020-07-15T21:46:40.823Z</time>
      </trkpt>
      <trkpt lat="63.34238" lon="10.34315">
        <ele>135.062501</ele>
        <time>2020-07-15T21:46:55.636Z</time>
      </trkpt>
      <trkpt lat="63.34288" lon="10.34388">
        <ele>136.610361</ele>
        <time>2020-07-15T21:47:11.971Z</time>
      </trkpt>
      <trkpt lat="63.34313" lon="10.34423">
        <ele>137.377629</ele>
        <time>2020-07-15T21:47:19.296Z</time>
      </trkpt>
      <trkpt lat="63.34344" lon="10.34529">
        <ele>138.457737</ele>
        <time>2020-07-15T21:47:32.261Z</time>
      </trkpt>
      <trkpt lat="63.34426" lon="10.34711">
        <ele>138.95514</ele>
        <time>2020-07-15T21:47:55.122Z</time>
      </trkpt>
      <trkpt lat="63.34453" lon="10.3479">
        <ele>139.14389</ele>
        <time>2020-07-15T21:48:03.229Z</time>
      </trkpt>
      <trkpt lat="63.34478" lon="10.34903">
        <ele>139.188551</ele>
        <time>2020-07-15T21:48:13.720Z</time>
      </trkpt>
      <trkpt lat="63.34486" lon="10.34955">
        <ele>139.205175</ele>
        <time>2020-07-15T21:48:18.214Z</time>
      </trkpt>
      <trkpt lat="63.34487" lon="10.34963">
        <ele>139.207954</ele>
        <time>2020-07-15T21:48:19.028Z</time>
      </trkpt>
      <trkpt lat="63.34497" lon="10.35012">
        <ele>139.224552</ele>
        <time>2020-07-15T21:48:23.564Z</time>
      </trkpt>
      <trkpt lat="63.34531" lon="10.35084">
        <ele>139.255967</ele>
        <time>2020-07-15T21:48:32.324Z</time>
      </trkpt>
      <trkpt lat="63.34542" lon="10.351">
        <ele>139.265317</ele>
        <time>2020-07-15T21:48:34.914Z</time>
      </trkpt>
      <trkpt lat="63.34588" lon="10.35173">
        <ele>139.412688</ele>
        <time>2020-07-15T21:48:45.708Z</time>
      </trkpt>
      <trkpt lat="63.3459" lon="10.35176">
        <ele>139.418475</ele>
        <time>2020-07-15T21:48:46.111Z</time>
      </trkpt>
      <trkpt lat="63.34594" lon="10.35182">
        <ele>139.434742</ele>
        <time>2020-07-15T21:48:47.112Z</time>
      </trkpt>
      <trkpt lat="63.34628" lon="10.35238">
        <ele>139.567985</ele>
        <time>2020-07-15T21:48:55.394Z</time>
      </trkpt>
      <trkpt lat="63.34677" lon="10.35315">
        <ele>139.755527</ele>
        <time>2020-07-15T21:49:07.071Z</time>
      </trkpt>
      <trkpt lat="63.34742" lon="10.35371">
        <ele>140.278964</ele>
        <time>2020-07-15T21:49:20.983Z</time>
      </trkpt>
      <trkpt lat="63.34754" lon="10.35381">
        <ele>140.411024</ele>
        <time>2020-07-15T21:49:23.664Z</time>
      </trkpt>
      <trkpt lat="63.34756" lon="10.35367">
        <ele>140.481033</ele>
        <time>2020-07-15T21:49:25.386Z</time>
      </trkpt>
      <trkpt lat="63.34765" lon="10.35371">
        <ele>140.574786</ele>
        <time>2020-07-15T21:49:27.243Z</time>
      </trkpt>
      <trkpt lat="63.34765" lon="10.35379">
        <ele>140.612056</ele>
        <time>2020-07-15T21:49:27.997Z</time>
      </trkpt>
      <trkpt lat="63.3477" lon="10.35399">
        <ele>140.719878</ele>
        <time>2020-07-15T21:49:30.208Z</time>
      </trkpt>
      <trkpt lat="63.34773" lon="10.35403">
        <ele>140.757507</ele>
        <time>2020-07-15T21:49:30.976Z</time>
      </trkpt>
      <trkpt lat="63.34777" lon="10.35403">
        <ele>140.793299</ele>
        <time>2020-07-15T21:49:31.696Z</time>
      </trkpt>
      <trkpt lat="63.34786" lon="10.35392">
        <ele>140.895732</ele>
        <time>2020-07-15T21:49:33.773Z</time>
      </trkpt>
      <trkpt lat="63.34787" lon="10.35385">
        <ele>140.930785</ele>
        <time>2020-07-15T21:49:34.515Z</time>
      </trkpt>
      <trkpt lat="63.34796" lon="10.35393">
        <ele>141.027452</ele>
        <time>2020-07-15T21:49:36.558Z</time>
      </trkpt>
      <trkpt lat="63.34818" lon="10.35409">
        <ele>141.264644</ele>
        <time>2020-07-15T21:49:41.827Z</time>
      </trkpt>
      <trkpt lat="63.34844" lon="10.35426">
        <ele>141.540057</ele>
        <time>2020-07-15T21:49:48.168Z</time>
      </trkpt>
      <trkpt lat="63.34884" lon="10.35457">
        <ele>142.176717</ele>
        <time>2020-07-15T21:49:58.111Z</time>
      </trkpt>
      <trkpt lat="63.34917" lon="10.35483">
        <ele>142.786499</ele>
        <time>2020-07-15T21:50:06.591Z</time>
      </trkpt>
      <trkpt lat="63.34932" lon="10.35494">
        <ele>143.049814</ele>
        <time>2020-07-15T21:50:09.988Z</time>
      </trkpt>
      <trkpt lat="63.34935" lon="10.35496">
        <ele>143.114989</ele>
        <time>2020-07-15T21:50:10.960Z</time>
      </trkpt>
      <trkpt lat="63.34938" lon="10.35499">
        <ele>143.167552</ele>
        <time>2020-07-15T21:50:11.918Z</time>
      </trkpt>
      <trkpt lat="63.34975" lon="10.35529">
        <ele>143.839618</ele>
        <time>2020-07-15T21:50:21.258Z</time>
      </trkpt>
      <trkpt lat="63.34982" lon="10.35535">
        <ele>143.974731</ele>
        <time>2020-07-15T21:50:23.273Z</time>
      </trkpt>
      <trkpt lat="63.34985" lon="10.35522">
        <ele>144.080232</ele>
        <time>2020-07-15T21:50:24.534Z</time>
      </trkpt>
      <trkpt lat="63.35015" lon="10.3555">
        <ele>144.649681</ele>
        <time>2020-07-15T21:50:32.380Z</time>
      </trkpt>
      <trkpt lat="63.35055" lon="10.35589">
        <ele>144.787885</ele>
        <time>2020-07-15T21:50:41.748Z</time>
      </trkpt>
      <trkpt lat="63.35089" lon="10.35617">
        <ele>144.818614</ele>
        <time>2020-07-15T21:50:49.167Z</time>
      </trkpt>
      <trkpt lat="63.3511" lon="10.35635">
        <ele>144.837707</ele>
        <time>2020-07-15T21:50:53.541Z</time>
      </trkpt>
      <trkpt lat="63.35116" lon="10.35635">
        <ele>144.842644</ele>
        <time>2020-07-15T21:50:54.606Z</time>
      </trkpt>
      <trkpt lat="63.35123" lon="10.3564">
        <ele>144.848338</ele>
        <time>2020-07-15T21:50:56.098Z</time>
      </trkpt>
      <trkpt lat="63.3513" lon="10.35647">
        <ele>144.85512</ele>
        <time>2020-07-15T21:50:57.941Z</time>
      </trkpt>
      <trkpt lat="63.35132" lon="10.35656">
        <ele>144.858791</ele>
        <time>2020-07-15T21:50:58.708Z</time>
      </trkpt>
      <trkpt lat="63.35136" lon="10.35659">
        <ele>144.861891</ele>
        <time>2020-07-15T21:50:59.353Z</time>
      </trkpt>
      <trkpt lat="63.35183" lon="10.35691">
        <ele>144.903461</ele>
        <time>2020-07-15T21:51:07.125Z</time>
      </trkpt>
      <trkpt lat="63.352" lon="10.35704">
        <ele>144.674987</ele>
        <time>2020-07-15T21:51:09.608Z</time>
      </trkpt>
      <trkpt lat="63.35272" lon="10.35743">
        <ele>143.259072</ele>
        <time>2020-07-15T21:51:20.288Z</time>
      </trkpt>
      <trkpt lat="63.35286" lon="10.35748">
        <ele>143.001857</ele>
        <time>2020-07-15T21:51:22.252Z</time>
      </trkpt>
      <trkpt lat="63.35293" lon="10.35749">
        <ele>142.859315</ele>
        <time>2020-07-15T21:51:23.284Z</time>
      </trkpt>
      <trkpt lat="63.35305" lon="10.35748">
        <ele>142.643011</ele>
        <time>2020-07-15T21:51:24.836Z</time>
      </trkpt>
      <trkpt lat="63.35312" lon="10.35747">
        <ele>142.503765</ele>
        <time>2020-07-15T21:51:25.854Z</time>
      </trkpt>
      <trkpt lat="63.35312" lon="10.35765">
        <ele>142.343623</ele>
        <time>2020-07-15T21:51:27.104Z</time>
      </trkpt>
      <trkpt lat="63.35337" lon="10.35763">
        <ele>141.880432</ele>
        <time>2020-07-15T21:51:30.367Z</time>
      </trkpt>
      <trkpt lat="63.3537" lon="10.35775">
        <ele>141.372677</ele>
        <time>2020-07-15T21:51:35.071Z</time>
      </trkpt>
      <trkpt lat="63.35425" lon="10.35837">
        <ele>140.808298</ele>
        <time>2020-07-15T21:51:43.773Z</time>
      </trkpt>
      <trkpt lat="63.35451" lon="10.35849">
        <ele>140.558024</ele>
        <time>2020-07-15T21:51:47.923Z</time>
      </trkpt>
      <trkpt lat="63.35477" lon="10.35854">
        <ele>140.320312</ele>
        <time>2020-07-15T21:51:52.111Z</time>
      </trkpt>
      <trkpt lat="63.35492" lon="10.35857">
        <ele>140.177883</ele>
        <time>2020-07-15T21:51:54.698Z</time>
      </trkpt>
      <trkpt lat="63.35492" lon="10.35873">
        <ele>140.10922</ele>
        <time>2020-07-15T21:51:56.112Z</time>
      </trkpt>
      <trkpt lat="63.3551" lon="10.35923">
        <ele>139.84339</ele>
        <time>2020-07-15T21:52:01.385Z</time>
      </trkpt>
      <trkpt lat="63.35559" lon="10.36025">
        <ele>141.530617</ele>
        <time>2020-07-15T21:52:16.077Z</time>
      </trkpt>
      <trkpt lat="63.35569" lon="10.36046">
        <ele>141.864216</ele>
        <time>2020-07-15T21:52:19.230Z</time>
      </trkpt>
      <trkpt lat="63.35571" lon="10.36084">
        <ele>142.310686</ele>
        <time>2020-07-15T21:52:23.879Z</time>
      </trkpt>
      <trkpt lat="63.3559" lon="10.36093">
        <ele>142.795807</ele>
        <time>2020-07-15T21:52:29.165Z</time>
      </trkpt>
      <trkpt lat="63.35596" lon="10.36102">
        <ele>142.991523</ele>
        <time>2020-07-15T21:52:31.496Z</time>
      </trkpt>
      <trkpt lat="63.35623" lon="10.36152">
        <ele>143.872279</ele>
        <time>2020-07-15T21:52:42.092Z</time>
      </trkpt>
      <trkpt lat="63.35652" lon="10.3621">
        <ele>145.252706</ele>
        <time>2020-07-15T21:52:55.034Z</time>
      </trkpt>
      <trkpt lat="63.35695" lon="10.36298">
        <ele>148.018281</ele>
        <time>2020-07-15T21:53:15.683Z</time>
      </trkpt>
      <trkpt lat="63.35817" lon="10.36546">
        <ele>153.864796</ele>
        <time>2020-07-15T21:54:11.332Z</time>
      </trkpt>
      <trkpt lat="63.35847" lon="10.36604">
        <ele>154.472246</ele>
        <time>2020-07-15T21:54:21.056Z</time>
      </trkpt>
      <trkpt lat="63.35861" lon="10.36634">
        <ele>154.760205</ele>
        <time>2020-07-15T21:54:25.098Z</time>
      </trkpt>
      <trkpt lat="63.35879" lon="10.36671">
        <ele>155.124276</ele>
        <time>2020-07-15T21:54:29.433Z</time>
      </trkpt>
      <trkpt lat="63.35886" lon="10.36686">
        <ele>155.277234</ele>
        <time>2020-07-15T21:54:31.134Z</time>
      </trkpt>
      <trkpt lat="63.35946" lon="10.36814">
        <ele>153.721801</ele>
        <time>2020-07-15T21:54:43.027Z</time>
      </trkpt>
      <trkpt lat="63.35965" lon="10.36845">
        <ele>152.943439</ele>
        <time>2020-07-15T21:54:46.148Z</time>
      </trkpt>
      <trkpt lat="63.35979" lon="10.36869">
        <ele>152.358904</ele>
        <time>2020-07-15T21:54:48.420Z</time>
      </trkpt>
      <trkpt lat="63.35995" lon="10.36881">
        <ele>151.78058</ele>
        <time>2020-07-15T21:54:50.576Z</time>
      </trkpt>
      <trkpt lat="63.36006" lon="10.36888">
        <ele>151.391243</ele>
        <time>2020-07-15T21:54:51.999Z</time>
      </trkpt>
      <trkpt lat="63.36027" lon="10.36902">
        <ele>150.666811</ele>
        <time>2020-07-15T21:54:54.707Z</time>
      </trkpt>
      <trkpt lat="63.36119" lon="10.36948">
        <ele>147.674303</ele>
        <time>2020-07-15T21:55:06.772Z</time>
      </trkpt>
      <trkpt lat="63.36186" lon="10.36988">
        <ele>145.552412</ele>
        <time>2020-07-15T21:55:15.918Z</time>
      </trkpt>
      <trkpt lat="63.36195" lon="10.36992">
        <ele>145.281434</ele>
        <time>2020-07-15T21:55:17.088Z</time>
      </trkpt>
      <trkpt lat="63.36191" lon="10.37012">
        <ele>144.984131</ele>
        <time>2020-07-15T21:55:18.540Z</time>
      </trkpt>
      <trkpt lat="63.36197" lon="10.37015">
        <ele>144.785253</ele>
        <time>2020-07-15T21:55:20.099Z</time>
      </trkpt>
      <trkpt lat="63.36317" lon="10.37076">
        <ele>142.205846</ele>
        <time>2020-07-15T21:55:50.959Z</time>
      </trkpt>
      <trkpt lat="63.36338" lon="10.37086">
        <ele>141.81698</ele>
        <time>2020-07-15T21:55:56.363Z</time>
      </trkpt>
      <trkpt lat="63.36351" lon="10.37091">
        <ele>141.568272</ele>
        <time>2020-07-15T21:55:59.751Z</time>
      </trkpt>
      <trkpt lat="63.3639" lon="10.3712">
        <ele>140.794596</ele>
        <time>2020-07-15T21:56:10.347Z</time>
      </trkpt>
      <trkpt lat="63.36394" lon="10.37124">
        <ele>140.713015</ele>
        <time>2020-07-15T21:56:11.097Z</time>
      </trkpt>
      <trkpt lat="63.3643" lon="10.37156">
        <ele>140.289681</ele>
        <time>2020-07-15T21:56:17.165Z</time>
      </trkpt>
      <trkpt lat="63.36497" lon="10.37233">
        <ele>139.467924</ele>
        <time>2020-07-15T21:56:29.327Z</time>
      </trkpt>
      <trkpt lat="63.36554" lon="10.3732">
        <ele>138.719101</ele>
        <time>2020-07-15T21:56:40.721Z</time>
      </trkpt>
      <trkpt lat="63.36565" lon="10.37344">
        <ele>138.530036</ele>
        <time>2020-07-15T21:56:43.310Z</time>
      </trkpt>
      <trkpt lat="63.36629" lon="10.37443">
        <ele>137.595469</ele>
        <time>2020-07-15T21:56:56.105Z</time>
      </trkpt>
      <trkpt lat="63.36633" lon="10.37456">
        <ele>137.50641</ele>
        <time>2020-07-15T21:56:57.323Z</time>
      </trkpt>
      <trkpt lat="63.36682" lon="10.37521">
        <ele>136.82321</ele>
        <time>2020-07-15T21:57:06.073Z</time>
      </trkpt>
      <trkpt lat="63.36763" lon="10.37604">
        <ele>134.834368</ele>
        <time>2020-07-15T21:57:19.242Z</time>
      </trkpt>
      <trkpt lat="63.3677" lon="10.37608">
        <ele>134.655687</ele>
        <time>2020-07-15T21:57:20.232Z</time>
      </trkpt>
      <trkpt lat="63.36815" lon="10.37636">
        <ele>133.498087</ele>
        <time>2020-07-15T21:57:26.901Z</time>
      </trkpt>
      <trkpt lat="63.36854" lon="10.37656">
        <ele>132.50394</ele>
        <time>2020-07-15T21:57:32.600Z</time>
      </trkpt>
      <trkpt lat="63.36925" lon="10.3768">
        <ele>130.141877</ele>
        <time>2020-07-15T21:57:42.377Z</time>
      </trkpt>
      <trkpt lat="63.36998" lon="10.37704">
        <ele>127.599031</ele>
        <time>2020-07-15T21:57:52.241Z</time>
      </trkpt>
      <trkpt lat="63.37003" lon="10.37713">
        <ele>127.372219</ele>
        <time>2020-07-15T21:57:53.074Z</time>
      </trkpt>
      <trkpt lat="63.37005" lon="10.37707">
        <ele>127.249334</ele>
        <time>2020-07-15T21:57:53.714Z</time>
      </trkpt>
      <trkpt lat="63.37008" lon="10.37701">
        <ele>127.122843</ele>
        <time>2020-07-15T21:57:54.358Z</time>
      </trkpt>
      <trkpt lat="63.37008" lon="10.3768">
        <ele>126.790366</ele>
        <time>2020-07-15T21:57:56.115Z</time>
      </trkpt>
      <trkpt lat="63.37019" lon="10.37685">
        <ele>126.411302</ele>
        <time>2020-07-15T21:57:57.605Z</time>
      </trkpt>
      <trkpt lat="63.37027" lon="10.37688">
        <ele>126.116708</ele>
        <time>2020-07-15T21:57:58.658Z</time>
      </trkpt>
      <trkpt lat="63.37027" lon="10.3767">
        <ele>125.807084</ele>
        <time>2020-07-15T21:57:59.737Z</time>
      </trkpt>
      <trkpt lat="63.37027" lon="10.3763">
        <ele>124.898784</ele>
        <time>2020-07-15T21:58:02.157Z</time>
      </trkpt>
      <trkpt lat="63.37027" lon="10.37563">
        <ele>123.378171</ele>
        <time>2020-07-15T21:58:05.880Z</time>
      </trkpt>
      <trkpt lat="63.37028" lon="10.37531">
        <ele>122.653723</ele>
        <time>2020-07-15T21:58:07.601Z</time>
      </trkpt>
      <trkpt lat="63.37031" lon="10.37488">
        <ele>121.673316</ele>
        <time>2020-07-15T21:58:09.930Z</time>
      </trkpt>
      <trkpt lat="63.37032" lon="10.37477">
        <ele>121.42396</ele>
        <time>2020-07-15T21:58:10.531Z</time>
      </trkpt>
      <trkpt lat="63.37035" lon="10.37391">
        <ele>119.473725</ele>
        <time>2020-07-15T21:58:15.038Z</time>
      </trkpt>
      <trkpt lat="63.37035" lon="10.37314">
        <ele>117.747389</ele>
        <time>2020-07-15T21:58:19.124Z</time>
      </trkpt>
      <trkpt lat="63.3705" lon="10.37091">
        <ele>114.705708</ele>
        <time>2020-07-15T21:58:31.459Z</time>
      </trkpt>
      <trkpt lat="63.37084" lon="10.36508">
        <ele>112.775826</ele>
        <time>2020-07-15T21:59:15.535Z</time>
      </trkpt>
      <trkpt lat="63.37088" lon="10.3637">
        <ele>114.576073</ele>
        <time>2020-07-15T21:59:34.436Z</time>
      </trkpt>
      <trkpt lat="63.3708" lon="10.35926">
        <ele>121.496715</ele>
        <time>2020-07-15T22:00:35.727Z</time>
      </trkpt>
      <trkpt lat="63.37071" lon="10.35767">
        <ele>123.801733</ele>
        <time>2020-07-15T22:00:54.239Z</time>
      </trkpt>
      <trkpt lat="63.37044" lon="10.35287">
        <ele>130.961643</ele>
        <time>2020-07-15T22:01:54.160Z</time>
      </trkpt>
      <trkpt lat="63.37031" lon="10.35">
        <ele>137.218023</ele>
        <time>2020-07-15T22:02:38.227Z</time>
      </trkpt>
      <trkpt lat="63.37032" lon="10.34888">
        <ele>139.676708</ele>
        <time>2020-07-15T22:02:56.198Z</time>
      </trkpt>
      <trkpt lat="63.37034" lon="10.34766">
        <ele>142.156978</ele>
        <time>2020-07-15T22:03:14.684Z</time>
      </trkpt>
      <trkpt lat="63.37038" lon="10.34644">
        <ele>144.633919</ele>
        <time>2020-07-15T22:03:32.239Z</time>
      </trkpt>
      <trkpt lat="63.37045" lon="10.34489">
        <ele>147.783218</ele>
        <time>2020-07-15T22:03:54.021Z</time>
      </trkpt>
      <trkpt lat="63.37054" lon="10.34369">
        <ele>149.779885</ele>
        <time>2020-07-15T22:04:10.256Z</time>
      </trkpt>
      <trkpt lat="63.37055" lon="10.34352">
        <ele>150.061791</ele>
        <time>2020-07-15T22:04:13.314Z</time>
      </trkpt>
      <trkpt lat="63.37056" lon="10.34341">
        <ele>150.228905</ele>
        <time>2020-07-15T22:04:14.629Z</time>
      </trkpt>
      <trkpt lat="63.37061" lon="10.3429">
        <ele>151.069934</ele>
        <time>2020-07-15T22:04:21.052Z</time>
      </trkpt>
      <trkpt lat="63.37062" lon="10.34283">
        <ele>151.189417</ele>
        <time>2020-07-15T22:04:22.455Z</time>
      </trkpt>
      <trkpt lat="63.37066" lon="10.34239">
        <ele>151.907069</ele>
        <time>2020-07-15T22:04:28.222Z</time>
      </trkpt>
      <trkpt lat="63.37087" lon="10.34087">
        <ele>154.440672</ele>
        <time>2020-07-15T22:04:48.287Z</time>
      </trkpt>
      <trkpt lat="63.37124" lon="10.3387">
        <ele>157.901377</ele>
        <time>2020-07-15T22:05:16.824Z</time>
      </trkpt>
      <trkpt lat="63.37157" lon="10.33716">
        <ele>160.469905</ele>
        <time>2020-07-15T22:05:38.665Z</time>
      </trkpt>
      <trkpt lat="63.37254" lon="10.33358">
        <ele>169.053757</ele>
        <time>2020-07-15T22:06:41.139Z</time>
      </trkpt>
      <trkpt lat="63.3734" lon="10.3305">
        <ele>175.948381</ele>
        <time>2020-07-15T22:07:33.046Z</time>
      </trkpt>
      <trkpt lat="63.37381" lon="10.33111">
        <ele>177.16315</ele>
        <time>2020-07-15T22:07:47.151Z</time>
      </trkpt>
      <trkpt lat="63.37387" lon="10.33115">
        <ele>177.288881</ele>
        <time>2020-07-15T22:07:48.686Z</time>
      </trkpt>
      <trkpt lat="63.37392" lon="10.33131">
        <ele>177.477404</ele>
        <time>2020-07-15T22:07:50.994Z</time>
      </trkpt>
      <trkpt lat="63.37393" lon="10.33111">
        <ele>177.670567</ele>
        <time>2020-07-15T22:07:54.308Z</time>
      </trkpt>
      <trkpt lat="63.37387" lon="10.33096">
        <ele>177.860858</ele>
        <time>2020-07-15T22:07:57.468Z</time>
      </trkpt>
      <trkpt lat="63.37375" lon="10.33056">
        <ele>178.324799</ele>
        <time>2020-07-15T22:08:05.227Z</time>
      </trkpt>
      <trkpt lat="63.37362" lon="10.3303">
        <ele>178.703772</ele>
        <time>2020-07-15T22:08:11.211Z</time>
      </trkpt>
      <trkpt lat="63.37333" lon="10.32991">
        <ele>179.425472</ele>
        <time>2020-07-15T22:08:18.783Z</time>
      </trkpt>
      <trkpt lat="63.37325" lon="10.3298">
        <ele>179.635197</ele>
        <time>2020-07-15T22:08:20.865Z</time>
      </trkpt>
      <trkpt lat="63.37318" lon="10.32968">
        <ele>179.818067</ele>
        <time>2020-07-15T22:08:22.794Z</time>
      </trkpt>
      <trkpt lat="63.37321" lon="10.32955">
        <ele>179.961816</ele>
        <time>2020-07-15T22:08:24.187Z</time>
      </trkpt>
      <trkpt lat="63.37348" lon="10.32924">
        <ele>180.564472</ele>
        <time>2020-07-15T22:08:31.261Z</time>
      </trkpt>
      <trkpt lat="63.37368" lon="10.32909">
        <ele>180.976926</ele>
        <time>2020-07-15T22:08:36.362Z</time>
      </trkpt>
      <trkpt lat="63.3741" lon="10.32768">
        <ele>182.439247</ele>
        <time>2020-07-15T22:08:54.283Z</time>
      </trkpt>
      <trkpt lat="63.37547" lon="10.32269">
        <ele>189.266249</ele>
        <time>2020-07-15T22:10:06.535Z</time>
      </trkpt>
      <trkpt lat="63.37562" lon="10.32215">
        <ele>189.964913</ele>
        <time>2020-07-15T22:10:15.278Z</time>
      </trkpt>
      <trkpt lat="63.37574" lon="10.32172">
        <ele>190.520871</ele>
        <time>2020-07-15T22:10:22.163Z</time>
      </trkpt>
      <trkpt lat="63.37582" lon="10.32143">
        <ele>190.903341</ele>
        <time>2020-07-15T22:10:26.506Z</time>
      </trkpt>
      <trkpt lat="63.37623" lon="10.32016">
        <ele>192.630584</ele>
        <time>2020-07-15T22:10:44.892Z</time>
      </trkpt>
      <trkpt lat="63.37632" lon="10.31997">
        <ele>192.939626</ele>
        <time>2020-07-15T22:10:48.222Z</time>
      </trkpt>
      <trkpt lat="63.37653" lon="10.31954">
        <ele>192.711657</ele>
        <time>2020-07-15T22:10:54.379Z</time>
      </trkpt>
      <trkpt lat="63.37693" lon="10.31899">
        <ele>191.643684</ele>
        <time>2020-07-15T22:11:02.272Z</time>
      </trkpt>
      <trkpt lat="63.37802" lon="10.31784">
        <ele>188.790917</ele>
        <time>2020-07-15T22:11:18.236Z</time>
      </trkpt>
      <trkpt lat="63.37875" lon="10.31704">
        <ele>185.696982</ele>
        <time>2020-07-15T22:11:28.834Z</time>
      </trkpt>
      <trkpt lat="63.37881" lon="10.31698">
        <ele>185.474582</ele>
        <time>2020-07-15T22:11:29.606Z</time>
      </trkpt>
      <trkpt lat="63.37887" lon="10.3169">
        <ele>185.179839</ele>
        <time>2020-07-15T22:11:30.649Z</time>
      </trkpt>
      <trkpt lat="63.37901" lon="10.31671">
        <ele>184.565659</ele>
        <time>2020-07-15T22:11:32.809Z</time>
      </trkpt>
      <trkpt lat="63.3791" lon="10.31662">
        <ele>184.209285</ele>
        <time>2020-07-15T22:11:34.053Z</time>
      </trkpt>
      <trkpt lat="63.37916" lon="10.31655">
        <ele>183.933052</ele>
        <time>2020-07-15T22:11:35.037Z</time>
      </trkpt>
      <trkpt lat="63.37925" lon="10.31648">
        <ele>183.591716</ele>
        <time>2020-07-15T22:11:36.255Z</time>
      </trkpt>
      <trkpt lat="63.38019" lon="10.31548">
        <ele>181.120396</ele>
        <time>2020-07-15T22:11:51.003Z</time>
      </trkpt>
      <trkpt lat="63.38077" lon="10.31487">
        <ele>180.068641</ele>
        <time>2020-07-15T22:12:01.237Z</time>
      </trkpt>
      <trkpt lat="63.38106" lon="10.31469">
        <ele>179.57889</ele>
        <time>2020-07-15T22:12:06.205Z</time>
      </trkpt>
      <trkpt lat="63.38152" lon="10.31455">
        <ele>179.048765</ele>
        <time>2020-07-15T22:12:14.123Z</time>
      </trkpt>
      <trkpt lat="63.38199" lon="10.31488">
        <ele>178.635577</ele>
        <time>2020-07-15T22:12:22.501Z</time>
      </trkpt>
      <trkpt lat="63.3822" lon="10.31519">
        <ele>178.421548</ele>
        <time>2020-07-15T22:12:26.830Z</time>
      </trkpt>
      <trkpt lat="63.38278" lon="10.31677">
        <ele>177.442503</ele>
        <time>2020-07-15T22:12:41.621Z</time>
      </trkpt>
      <trkpt lat="63.38282" lon="10.31696">
        <ele>177.239368</ele>
        <time>2020-07-15T22:12:43.027Z</time>
      </trkpt>
      <trkpt lat="63.38297" lon="10.31802">
        <ele>176.153119</ele>
        <time>2020-07-15T22:12:50.566Z</time>
      </trkpt>
      <trkpt lat="63.38307" lon="10.31874">
        <ele>175.408832</ele>
        <time>2020-07-15T22:12:55.523Z</time>
      </trkpt>
      <trkpt lat="63.38323" lon="10.32009">
        <ele>174.042214</ele>
        <time>2020-07-15T22:13:04.181Z</time>
      </trkpt>
      <trkpt lat="63.38343" lon="10.32109">
        <ele>173.066464</ele>
        <time>2020-07-15T22:13:11.033Z</time>
      </trkpt>
      <trkpt lat="63.38363" lon="10.32156">
        <ele>172.516142</ele>
        <time>2020-07-15T22:13:15.147Z</time>
      </trkpt>
      <trkpt lat="63.38371" lon="10.3217">
        <ele>172.322962</ele>
        <time>2020-07-15T22:13:16.466Z</time>
      </trkpt>
      <trkpt lat="63.38378" lon="10.32184">
        <ele>172.134958</ele>
        <time>2020-07-15T22:13:17.895Z</time>
      </trkpt>
      <trkpt lat="63.38385" lon="10.32197">
        <ele>171.952129</ele>
        <time>2020-07-15T22:13:19.339Z</time>
      </trkpt>
      <trkpt lat="63.38394" lon="10.32213">
        <ele>171.736765</ele>
        <time>2020-07-15T22:13:20.952Z</time>
      </trkpt>
      <trkpt lat="63.38625" lon="10.3259">
        <ele>168.969528</ele>
        <time>2020-07-15T22:14:09.303Z</time>
      </trkpt>
      <trkpt lat="63.38685" lon="10.32688">
        <ele>168.378991</ele>
        <time>2020-07-15T22:14:22.460Z</time>
      </trkpt>
      <trkpt lat="63.38703" lon="10.32715">
        <ele>168.207944</ele>
        <time>2020-07-15T22:14:26.089Z</time>
      </trkpt>
      <trkpt lat="63.38708" lon="10.32724">
        <ele>168.156065</ele>
        <time>2020-07-15T22:14:27.016Z</time>
      </trkpt>
      <trkpt lat="63.38715" lon="10.32733">
        <ele>168.090713</ele>
        <time>2020-07-15T22:14:28.503Z</time>
      </trkpt>
      <trkpt lat="63.38756" lon="10.32789">
        <ele>167.213089</ele>
        <time>2020-07-15T22:14:36.204Z</time>
      </trkpt>
      <trkpt lat="63.38781" lon="10.32806">
        <ele>166.097961</ele>
        <time>2020-07-15T22:14:40.116Z</time>
      </trkpt>
      <trkpt lat="63.38782" lon="10.32817">
        <ele>165.888664</ele>
        <time>2020-07-15T22:14:40.878Z</time>
      </trkpt>
      <trkpt lat="63.38786" lon="10.32842">
        <ele>165.395287</ele>
        <time>2020-07-15T22:14:42.363Z</time>
      </trkpt>
      <trkpt lat="63.38788" lon="10.32861">
        <ele>165.01888</ele>
        <time>2020-07-15T22:14:43.524Z</time>
      </trkpt>
      <trkpt lat="63.38778" lon="10.32889">
        <ele>164.321616</ele>
        <time>2020-07-15T22:14:45.957Z</time>
      </trkpt>
      <trkpt lat="63.38775" lon="10.32921">
        <ele>163.719066</ele>
        <time>2020-07-15T22:14:47.721Z</time>
      </trkpt>
      <trkpt lat="63.38793" lon="10.3303">
        <ele>161.507941</ele>
        <time>2020-07-15T22:14:54.495Z</time>
      </trkpt>
      <trkpt lat="63.38809" lon="10.33119">
        <ele>159.246006</ele>
        <time>2020-07-15T22:14:59.694Z</time>
      </trkpt>
      <trkpt lat="63.38812" lon="10.33138">
        <ele>158.511796</ele>
        <time>2020-07-15T22:15:00.740Z</time>
      </trkpt>
      <trkpt lat="63.38828" lon="10.33337">
        <ele>151.27968</ele>
        <time>2020-07-15T22:15:11.320Z</time>
      </trkpt>
      <trkpt lat="63.38823" lon="10.33533">
        <ele>144.846355</ele>
        <time>2020-07-15T22:15:21.632Z</time>
      </trkpt>
      <trkpt lat="63.38823" lon="10.33553">
        <ele>144.40949</ele>
        <time>2020-07-15T22:15:22.704Z</time>
      </trkpt>
      <trkpt lat="63.38821" lon="10.33631">
        <ele>142.656352</ele>
        <time>2020-07-15T22:15:27.020Z</time>
      </trkpt>
      <trkpt lat="63.38819" lon="10.33759">
        <ele>139.802073</ele>
        <time>2020-07-15T22:15:34.269Z</time>
      </trkpt>
      <trkpt lat="63.3882" lon="10.33793">
        <ele>139.032557</ele>
        <time>2020-07-15T22:15:36.355Z</time>
      </trkpt>
      <trkpt lat="63.38823" lon="10.3382">
        <ele>138.410036</ele>
        <time>2020-07-15T22:15:38.074Z</time>
      </trkpt>
      <trkpt lat="63.38827" lon="10.33826">
        <ele>138.162256</ele>
        <time>2020-07-15T22:15:38.774Z</time>
      </trkpt>
      <trkpt lat="63.38833" lon="10.33836">
        <ele>137.808072</ele>
        <time>2020-07-15T22:15:39.815Z</time>
      </trkpt>
      <trkpt lat="63.38833" lon="10.33866">
        <ele>137.134817</ele>
        <time>2020-07-15T22:15:41.854Z</time>
      </trkpt>
      <trkpt lat="63.38822" lon="10.339">
        <ele>136.646982</ele>
        <time>2020-07-15T22:15:44.698Z</time>
      </trkpt>
      <trkpt lat="63.38821" lon="10.33955">
        <ele>136.258538</ele>
        <time>2020-07-15T22:15:48.558Z</time>
      </trkpt>
      <trkpt lat="63.38829" lon="10.34068">
        <ele>135.447465</ele>
        <time>2020-07-15T22:15:56.544Z</time>
      </trkpt>
      <trkpt lat="63.38846" lon="10.34193">
        <ele>134.518595</ele>
        <time>2020-07-15T22:16:05.726Z</time>
      </trkpt>
      <trkpt lat="63.38846" lon="10.34196">
        <ele>134.496398</ele>
        <time>2020-07-15T22:16:05.918Z</time>
      </trkpt>
      <trkpt lat="63.38852" lon="10.34239">
        <ele>134.175665</ele>
        <time>2020-07-15T22:16:08.998Z</time>
      </trkpt>
      <trkpt lat="63.38867" lon="10.34303">
        <ele>133.793849</ele>
        <time>2020-07-15T22:16:14.013Z</time>
      </trkpt>
      <trkpt lat="63.38873" lon="10.34323">
        <ele>133.681325</ele>
        <time>2020-07-15T22:16:15.676Z</time>
      </trkpt>
      <trkpt lat="63.38906" lon="10.34426">
        <ele>133.116186</ele>
        <time>2020-07-15T22:16:24.572Z</time>
      </trkpt>
      <trkpt lat="63.38964" lon="10.34557">
        <ele>132.289507</ele>
        <time>2020-07-15T22:16:37.951Z</time>
      </trkpt>
      <trkpt lat="63.39059" lon="10.34683">
        <ele>131.996003</ele>
        <time>2020-07-15T22:16:58.805Z</time>
      </trkpt>
      <trkpt lat="63.39128" lon="10.34746">
        <ele>131.845119</ele>
        <time>2020-07-15T22:17:12.513Z</time>
      </trkpt>
      <trkpt lat="63.39191" lon="10.34804">
        <ele>130.767756</ele>
        <time>2020-07-15T22:17:23.800Z</time>
      </trkpt>
      <trkpt lat="63.39222" lon="10.34831">
        <ele>130.221044</ele>
        <time>2020-07-15T22:17:29.024Z</time>
      </trkpt>
      <trkpt lat="63.39254" lon="10.34854">
        <ele>129.682749</ele>
        <time>2020-07-15T22:17:33.972Z</time>
      </trkpt>
      <trkpt lat="63.39412" lon="10.34988">
        <ele>125.664498</ele>
        <time>2020-07-15T22:17:57.425Z</time>
      </trkpt>
      <trkpt lat="63.39452" lon="10.35034">
        <ele>124.485161</ele>
        <time>2020-07-15T22:18:03.691Z</time>
      </trkpt>
      <trkpt lat="63.3949" lon="10.35078">
        <ele>124.522844</ele>
        <time>2020-07-15T22:18:10.062Z</time>
      </trkpt>
      <trkpt lat="63.39539" lon="10.35147">
        <ele>125.345091</ele>
        <time>2020-07-15T22:18:20.469Z</time>
      </trkpt>
      <trkpt lat="63.3962" lon="10.35301">
        <ele>127.378459</ele>
        <time>2020-07-15T22:18:52.199Z</time>
      </trkpt>
      <trkpt lat="63.39621" lon="10.35306">
        <ele>127.520445</ele>
        <time>2020-07-15T22:18:53.851Z</time>
      </trkpt>
      <trkpt lat="63.39635" lon="10.35333">
        <ele>128.499582</ele>
        <time>2020-07-15T22:18:59.501Z</time>
      </trkpt>
      <trkpt lat="63.39644" lon="10.35349">
        <ele>129.106118</ele>
        <time>2020-07-15T22:19:03.594Z</time>
      </trkpt>
      <trkpt lat="63.39652" lon="10.35362">
        <ele>129.616003</ele>
        <time>2020-07-15T22:19:07.963Z</time>
      </trkpt>
      <trkpt lat="63.39662" lon="10.35368">
        <ele>130.178692</ele>
        <time>2020-07-15T22:19:10.856Z</time>
      </trkpt>
      <trkpt lat="63.39667" lon="10.35374">
        <ele>130.484837</ele>
        <time>2020-07-15T22:19:13.002Z</time>
      </trkpt>
      <trkpt lat="63.39676" lon="10.35385">
        <ele>131.036838</ele>
        <time>2020-07-15T22:19:16.753Z</time>
      </trkpt>
      <trkpt lat="63.39679" lon="10.35408">
        <ele>131.614914</ele>
        <time>2020-07-15T22:19:21.640Z</time>
      </trkpt>
      <trkpt lat="63.39697" lon="10.35504">
        <ele>134.072032</ele>
        <time>2020-07-15T22:19:37.915Z</time>
      </trkpt>
      <trkpt lat="63.39706" lon="10.35534">
        <ele>134.938926</ele>
        <time>2020-07-15T22:19:44.227Z</time>
      </trkpt>
      <trkpt lat="63.39766" lon="10.35649">
        <ele>139.080861</ele>
        <time>2020-07-15T22:20:13.952Z</time>
      </trkpt>
      <trkpt lat="63.39809" lon="10.35703">
        <ele>141.653111</ele>
        <time>2020-07-15T22:20:29.691Z</time>
      </trkpt>
      <trkpt lat="63.39859" lon="10.35753">
        <ele>144.502256</ele>
        <time>2020-07-15T22:20:48.327Z</time>
      </trkpt>
      <trkpt lat="63.39865" lon="10.35764">
        <ele>144.916763</ele>
        <time>2020-07-15T22:20:51.353Z</time>
      </trkpt>
      <trkpt lat="63.39883" lon="10.35783">
        <ele>145.959057</ele>
        <time>2020-07-15T22:20:58.882Z</time>
      </trkpt>
      <trkpt lat="63.39897" lon="10.35796">
        <ele>146.815286</ele>
        <time>2020-07-15T22:21:04.675Z</time>
      </trkpt>
      <trkpt lat="63.39912" lon="10.35801">
        <ele>147.626176</ele>
        <time>2020-07-15T22:21:10.401Z</time>
      </trkpt>
      <trkpt lat="63.3995" lon="10.35807">
        <ele>149.681496</ele>
        <time>2020-07-15T22:21:24.248Z</time>
      </trkpt>
      <trkpt lat="63.39957" lon="10.35798">
        <ele>150.088088</ele>
        <time>2020-07-15T22:21:27.276Z</time>
      </trkpt>
      <trkpt lat="63.39985" lon="10.35791">
        <ele>151.65022</ele>
        <time>2020-07-15T22:21:38.007Z</time>
      </trkpt>
      <trkpt lat="63.39999" lon="10.35778">
        <ele>152.484184</ele>
        <time>2020-07-15T22:21:43.716Z</time>
      </trkpt>
      <trkpt lat="63.40006" lon="10.35774">
        <ele>152.863992</ele>
        <time>2020-07-15T22:21:46.622Z</time>
      </trkpt>
      <trkpt lat="63.40025" lon="10.35771">
        <ele>153.883643</ele>
        <time>2020-07-15T22:21:52.983Z</time>
      </trkpt>
      <trkpt lat="63.40092" lon="10.35737">
        <ele>156.558301</ele>
        <time>2020-07-15T22:22:15.419Z</time>
      </trkpt>
      <trkpt lat="63.40108" lon="10.35727">
        <ele>157.034329</ele>
        <time>2020-07-15T22:22:20.945Z</time>
      </trkpt>
      <trkpt lat="63.40119" lon="10.35725">
        <ele>157.365553</ele>
        <time>2020-07-15T22:22:24.390Z</time>
      </trkpt>
      <trkpt lat="63.40126" lon="10.35718">
        <ele>157.600195</ele>
        <time>2020-07-15T22:22:26.604Z</time>
      </trkpt>
      <trkpt lat="63.40131" lon="10.35708">
        <ele>157.782818</ele>
        <time>2020-07-15T22:22:28.358Z</time>
      </trkpt>
      <trkpt lat="63.40136" lon="10.35705">
        <ele>157.942161</ele>
        <time>2020-07-15T22:22:29.882Z</time>
      </trkpt>
      <trkpt lat="63.40142" lon="10.35702">
        <ele>158.107803</ele>
        <time>2020-07-15T22:22:31.722Z</time>
      </trkpt>
      <trkpt lat="63.40146" lon="10.35707">
        <ele>158.257191</ele>
        <time>2020-07-15T22:22:33.252Z</time>
      </trkpt>
      <trkpt lat="63.4015" lon="10.35712">
        <ele>158.383824</ele>
        <time>2020-07-15T22:22:34.329Z</time>
      </trkpt>
      <trkpt lat="63.40155" lon="10.35719">
        <ele>158.550251</ele>
        <time>2020-07-15T22:22:35.737Z</time>
      </trkpt>
      <trkpt lat="63.40163" lon="10.35726">
        <ele>158.806235</ele>
        <time>2020-07-15T22:22:38.088Z</time>
      </trkpt>
      <trkpt lat="63.40186" lon="10.35738">
        <ele>159.504772</ele>
        <time>2020-07-15T22:22:43.666Z</time>
      </trkpt>
      <trkpt lat="63.40191" lon="10.35742">
        <ele>159.670344</ele>
        <time>2020-07-15T22:22:44.837Z</time>
      </trkpt>
      <trkpt lat="63.40236" lon="10.3576">
        <ele>160.607423</ele>
        <time>2020-07-15T22:22:55.365Z</time>
      </trkpt>
      <trkpt lat="63.4029" lon="10.3578">
        <ele>160.672253</ele>
        <time>2020-07-15T22:23:06.170Z</time>
      </trkpt>
      <trkpt lat="63.40337" lon="10.35799">
        <ele>160.729748</ele>
        <time>2020-07-15T22:23:14.900Z</time>
      </trkpt>
      <trkpt lat="63.40356" lon="10.35805">
        <ele>160.752749</ele>
        <time>2020-07-15T22:23:18.548Z</time>
      </trkpt>
      <trkpt lat="63.40359" lon="10.358">
        <ele>160.757014</ele>
        <time>2020-07-15T22:23:19.265Z</time>
      </trkpt>
      <trkpt lat="63.40378" lon="10.35792">
        <ele>160.780217</ele>
        <time>2020-07-15T22:23:22.610Z</time>
      </trkpt>
      <trkpt lat="63.40387" lon="10.35794">
        <ele>160.791883</ele>
        <time>2020-07-15T22:23:24.421Z</time>
      </trkpt>
      <trkpt lat="63.40391" lon="10.35796">
        <ele>160.796242</ele>
        <time>2020-07-15T22:23:25.004Z</time>
      </trkpt>
      <trkpt lat="63.40393" lon="10.35815">
        <ele>160.796952</ele>
        <time>2020-07-15T22:23:26.510Z</time>
      </trkpt>
      <trkpt lat="63.40399" lon="10.35823">
        <ele>160.696033</ele>
        <time>2020-07-15T22:23:27.604Z</time>
      </trkpt>
      <trkpt lat="63.40496" lon="10.35861">
        <ele>159.198619</ele>
        <time>2020-07-15T22:23:43.496Z</time>
      </trkpt>
      <trkpt lat="63.40496" lon="10.3586">
        <ele>159.180825</ele>
        <time>2020-07-15T22:23:43.645Z</time>
      </trkpt>
      <trkpt lat="63.40561" lon="10.35882">
        <ele>158.178538</ele>
        <time>2020-07-15T22:23:53.360Z</time>
      </trkpt>
      <trkpt lat="63.40572" lon="10.35874">
        <ele>157.9039</ele>
        <time>2020-07-15T22:23:54.990Z</time>
      </trkpt>
      <trkpt lat="63.40574" lon="10.35865">
        <ele>157.763161</ele>
        <time>2020-07-15T22:23:55.572Z</time>
      </trkpt>
      <trkpt lat="63.40575" lon="10.3586">
        <ele>157.680935</ele>
        <time>2020-07-15T22:23:55.954Z</time>
      </trkpt>
      <trkpt lat="63.40579" lon="10.35848">
        <ele>157.455172</ele>
        <time>2020-07-15T22:23:56.981Z</time>
      </trkpt>
      <trkpt lat="63.40586" lon="10.3585">
        <ele>157.252628</ele>
        <time>2020-07-15T22:23:57.824Z</time>
      </trkpt>
      <trkpt lat="63.40593" lon="10.35853">
        <ele>157.019268</ele>
        <time>2020-07-15T22:23:58.784Z</time>
      </trkpt>
      <trkpt lat="63.40612" lon="10.35882">
        <ele>156.24888</ele>
        <time>2020-07-15T22:24:02.114Z</time>
      </trkpt>
      <trkpt lat="63.40615" lon="10.35884">
        <ele>156.138332</ele>
        <time>2020-07-15T22:24:02.552Z</time>
      </trkpt>
      <trkpt lat="63.40651" lon="10.35906">
        <ele>154.927974</ele>
        <time>2020-07-15T22:24:07.597Z</time>
      </trkpt>
      <trkpt lat="63.40693" lon="10.35915">
        <ele>153.534165</ele>
        <time>2020-07-15T22:24:13.220Z</time>
      </trkpt>
      <trkpt lat="63.40743" lon="10.35933">
        <ele>151.847624</ele>
        <time>2020-07-15T22:24:19.973Z</time>
      </trkpt>
      <trkpt lat="63.40788" lon="10.35945">
        <ele>150.1955</ele>
        <time>2020-07-15T22:24:26.040Z</time>
      </trkpt>
      <trkpt lat="63.40798" lon="10.35952">
        <ele>149.826542</ele>
        <time>2020-07-15T22:24:27.351Z</time>
      </trkpt>
      <trkpt lat="63.40848" lon="10.35973">
        <ele>147.969524</ele>
        <time>2020-07-15T22:24:34.262Z</time>
      </trkpt>
      <trkpt lat="63.4088" lon="10.35985">
        <ele>146.805623</ele>
        <time>2020-07-15T22:24:38.632Z</time>
      </trkpt>
      <trkpt lat="63.40898" lon="10.35993">
        <ele>146.143748</ele>
        <time>2020-07-15T22:24:41.119Z</time>
      </trkpt>
      <trkpt lat="63.40984" lon="10.36027">
        <ele>143.488634</ele>
        <time>2020-07-15T22:24:53.239Z</time>
      </trkpt>
      <trkpt lat="63.41125" lon="10.36094">
        <ele>139.064364</ele>
        <time>2020-07-15T22:25:13.341Z</time>
      </trkpt>
      <trkpt lat="63.41134" lon="10.36102">
        <ele>138.709763</ele>
        <time>2020-07-15T22:25:14.733Z</time>
      </trkpt>
      <trkpt lat="63.41157" lon="10.36122">
        <ele>137.877616</ele>
        <time>2020-07-15T22:25:18.177Z</time>
      </trkpt>
      <trkpt lat="63.41159" lon="10.36124">
        <ele>137.809016</ele>
        <time>2020-07-15T22:25:18.457Z</time>
      </trkpt>
      <trkpt lat="63.4116" lon="10.36125">
        <ele>137.778756</ele>
        <time>2020-07-15T22:25:18.578Z</time>
      </trkpt>
      <trkpt lat="63.41246" lon="10.36218">
        <ele>134.549699</ele>
        <time>2020-07-15T22:25:31.406Z</time>
      </trkpt>
      <trkpt lat="63.41332" lon="10.36337">
        <ele>130.685801</ele>
        <time>2020-07-15T22:25:44.831Z</time>
      </trkpt>
      <trkpt lat="63.41398" lon="10.36455">
        <ele>127.389356</ele>
        <time>2020-07-15T22:25:56.292Z</time>
      </trkpt>
      <trkpt lat="63.41407" lon="10.3647">
        <ele>126.799272</ele>
        <time>2020-07-15T22:25:57.672Z</time>
      </trkpt>
      <trkpt lat="63.4144" lon="10.36547">
        <ele>124.034312</ele>
        <time>2020-07-15T22:26:03.791Z</time>
      </trkpt>
      <trkpt lat="63.41482" lon="10.36639">
        <ele>120.649816</ele>
        <time>2020-07-15T22:26:11.146Z</time>
      </trkpt>
      <trkpt lat="63.41484" lon="10.36638">
        <ele>120.555174</ele>
        <time>2020-07-15T22:26:12.346Z</time>
      </trkpt>
      <trkpt lat="63.4149" lon="10.36651">
        <ele>120.070367</ele>
        <time>2020-07-15T22:26:13.682Z</time>
      </trkpt>
      <trkpt lat="63.41486" lon="10.36674">
        <ele>119.440354</ele>
        <time>2020-07-15T22:26:14.980Z</time>
      </trkpt>
      <trkpt lat="63.41483" lon="10.36692">
        <ele>118.926249</ele>
        <time>2020-07-15T22:26:16.038Z</time>
      </trkpt>
      <trkpt lat="63.41491" lon="10.36716">
        <ele>118.155248</ele>
        <time>2020-07-15T22:26:17.557Z</time>
      </trkpt>
      <trkpt lat="63.41631" lon="10.37044">
        <ele>102.09039</ele>
        <time>2020-07-15T22:26:40.319Z</time>
      </trkpt>
      <trkpt lat="63.41693" lon="10.37142">
        <ele>95.734487</ele>
        <time>2020-07-15T22:26:48.677Z</time>
      </trkpt>
      <trkpt lat="63.41742" lon="10.37196">
        <ele>91.185887</ele>
        <time>2020-07-15T22:26:54.784Z</time>
      </trkpt>
      <trkpt lat="63.41761" lon="10.37217">
        <ele>89.363786</ele>
        <time>2020-07-15T22:26:57.225Z</time>
      </trkpt>
      <trkpt lat="63.41783" lon="10.3724">
        <ele>87.390116</ele>
        <time>2020-07-15T22:26:59.917Z</time>
      </trkpt>
      <trkpt lat="63.41849" lon="10.37293">
        <ele>83.875389</ele>
        <time>2020-07-15T22:27:08.097Z</time>
      </trkpt>
      <trkpt lat="63.41906" lon="10.37285">
        <ele>81.040551</ele>
        <time>2020-07-15T22:27:15.127Z</time>
      </trkpt>
      <trkpt lat="63.41917" lon="10.37268">
        <ele>80.395399</ele>
        <time>2020-07-15T22:27:16.744Z</time>
      </trkpt>
      <trkpt lat="63.41928" lon="10.37259">
        <ele>79.815295</ele>
        <time>2020-07-15T22:27:18.508Z</time>
      </trkpt>
      <trkpt lat="63.41945" lon="10.37254">
        <ele>78.974214</ele>
        <time>2020-07-15T22:27:20.796Z</time>
      </trkpt>
      <trkpt lat="63.41975" lon="10.37255">
        <ele>77.746021</ele>
        <time>2020-07-15T22:27:25.109Z</time>
      </trkpt>
      <trkpt lat="63.42042" lon="10.37296">
        <ele>75.359761</ele>
        <time>2020-07-15T22:27:34.330Z</time>
      </trkpt>
      <trkpt lat="63.4212" lon="10.37292">
        <ele>72.663979</ele>
        <time>2020-07-15T22:27:44.427Z</time>
      </trkpt>
      <trkpt lat="63.42125" lon="10.37291">
        <ele>72.483268</ele>
        <time>2020-07-15T22:27:45.062Z</time>
      </trkpt>
      <trkpt lat="63.42137" lon="10.37287">
        <ele>71.996116</ele>
        <time>2020-07-15T22:27:46.608Z</time>
      </trkpt>
      <trkpt lat="63.42143" lon="10.37284">
        <ele>71.597406</ele>
        <time>2020-07-15T22:27:47.323Z</time>
      </trkpt>
      <trkpt lat="63.42211" lon="10.37241">
        <ele>66.92723</ele>
        <time>2020-07-15T22:27:55.524Z</time>
      </trkpt>
      <trkpt lat="63.42238" lon="10.37231">
        <ele>65.088435</ele>
        <time>2020-07-15T22:27:58.695Z</time>
      </trkpt>
      <trkpt lat="63.42259" lon="10.37231">
        <ele>63.763844</ele>
        <time>2020-07-15T22:28:00.979Z</time>
      </trkpt>
      <trkpt lat="63.42289" lon="10.37234">
        <ele>61.73841</ele>
        <time>2020-07-15T22:28:04.502Z</time>
      </trkpt>
      <trkpt lat="63.42303" lon="10.37235">
        <ele>60.828683</ele>
        <time>2020-07-15T22:28:06.044Z</time>
      </trkpt>
      <trkpt lat="63.42323" lon="10.37231">
        <ele>59.570882</ele>
        <time>2020-07-15T22:28:08.372Z</time>
      </trkpt>
      <trkpt lat="63.42339" lon="10.37221">
        <ele>58.47804</ele>
        <time>2020-07-15T22:28:10.321Z</time>
      </trkpt>
      <trkpt lat="63.42347" lon="10.37213">
        <ele>57.950719</ele>
        <time>2020-07-15T22:28:11.323Z</time>
      </trkpt>
      <trkpt lat="63.42361" lon="10.372">
        <ele>57.026476</ele>
        <time>2020-07-15T22:28:13.006Z</time>
      </trkpt>
      <trkpt lat="63.42381" lon="10.37173">
        <ele>55.56955</ele>
        <time>2020-07-15T22:28:15.656Z</time>
      </trkpt>
      <trkpt lat="63.42423" lon="10.37111">
        <ele>52.406486</ele>
        <time>2020-07-15T22:28:21.495Z</time>
      </trkpt>
      <trkpt lat="63.42493" lon="10.37008">
        <ele>47.560856</ele>
        <time>2020-07-15T22:28:31.762Z</time>
      </trkpt>
      <trkpt lat="63.4256" lon="10.36911">
        <ele>43.719142</ele>
        <time>2020-07-15T22:28:41.831Z</time>
      </trkpt>
      <trkpt lat="63.42719" lon="10.3675">
        <ele>33.391275</ele>
        <time>2020-07-15T22:29:02.653Z</time>
      </trkpt>
      <trkpt lat="63.42747" lon="10.3673">
        <ele>31.461656</ele>
        <time>2020-07-15T22:29:05.928Z</time>
      </trkpt>
      <trkpt lat="63.42769" lon="10.36722">
        <ele>30.008445</ele>
        <time>2020-07-15T22:29:08.372Z</time>
      </trkpt>
      <trkpt lat="63.4279" lon="10.36722">
        <ele>28.644604</ele>
        <time>2020-07-15T22:29:10.725Z</time>
      </trkpt>
      <trkpt lat="63.42811" lon="10.36716">
        <ele>27.574715</ele>
        <time>2020-07-15T22:29:13.118Z</time>
      </trkpt>
      <trkpt lat="63.42812" lon="10.36718">
        <ele>27.510385</ele>
        <time>2020-07-15T22:29:13.270Z</time>
      </trkpt>
      <trkpt lat="63.42816" lon="10.3672">
        <ele>27.323809</ele>
        <time>2020-07-15T22:29:13.720Z</time>
      </trkpt>
      <trkpt lat="63.42823" lon="10.36718">
        <ele>26.981337</ele>
        <time>2020-07-15T22:29:14.559Z</time>
      </trkpt>
      <trkpt lat="63.42825" lon="10.36714">
        <ele>26.857854</ele>
        <time>2020-07-15T22:29:14.842Z</time>
      </trkpt>
      <trkpt lat="63.42826" lon="10.36711">
        <ele>26.754579</ele>
        <time>2020-07-15T22:29:15.092Z</time>
      </trkpt>
      <trkpt lat="63.42842" lon="10.3672">
        <ele>25.976981</ele>
        <time>2020-07-15T22:29:16.952Z</time>
      </trkpt>
      <trkpt lat="63.4285" lon="10.36714">
        <ele>25.589409</ele>
        <time>2020-07-15T22:29:17.895Z</time>
      </trkpt>
      <trkpt lat="63.42854" lon="10.36714">
        <ele>25.406405</ele>
        <time>2020-07-15T22:29:18.358Z</time>
      </trkpt>
      <trkpt lat="63.4287" lon="10.36712">
        <ele>24.591784</ele>
        <time>2020-07-15T22:29:20.322Z</time>
      </trkpt>
      <trkpt lat="63.42889" lon="10.36709">
        <ele>23.675795</ele>
        <time>2020-07-15T22:29:22.572Z</time>
      </trkpt>
      <trkpt lat="63.42905" lon="10.36703">
        <ele>22.911323</ele>
        <time>2020-07-15T22:29:24.511Z</time>
      </trkpt>
      <trkpt lat="63.4291" lon="10.36698">
        <ele>22.639859</ele>
        <time>2020-07-15T22:29:25.178Z</time>
      </trkpt>
      <trkpt lat="63.42915" lon="10.36668">
        <ele>21.951287</ele>
        <time>2020-07-15T22:29:27.042Z</time>
      </trkpt>
      <trkpt lat="63.42918" lon="10.36651">
        <ele>21.567525</ele>
        <time>2020-07-15T22:29:28.112Z</time>
      </trkpt>
      <trkpt lat="63.42926" lon="10.36605">
        <ele>20.516026</ele>
        <time>2020-07-15T22:29:31.142Z</time>
      </trkpt>
      <trkpt lat="63.42928" lon="10.36593">
        <ele>20.244141</ele>
        <time>2020-07-15T22:29:32.060Z</time>
      </trkpt>
      <trkpt lat="63.42931" lon="10.36575">
        <ele>19.81944</ele>
        <time>2020-07-15T22:29:33.534Z</time>
      </trkpt>
      <trkpt lat="63.42931" lon="10.3657">
        <ele>19.915117</ele>
        <time>2020-07-15T22:29:33.920Z</time>
      </trkpt>
      <trkpt lat="63.42931" lon="10.36569">
        <ele>19.927076</ele>
        <time>2020-07-15T22:29:33.977Z</time>
      </trkpt>
      <trkpt lat="63.42933" lon="10.36559">
        <ele>20.138853</ele>
        <time>2020-07-15T22:29:34.913Z</time>
      </trkpt>
      <trkpt lat="63.42955" lon="10.36427">
        <ele>22.764828</ele>
        <time>2020-07-15T22:29:50.560Z</time>
      </trkpt>
      <trkpt lat="63.42955" lon="10.36423">
        <ele>22.836585</ele>
        <time>2020-07-15T22:29:51.747Z</time>
      </trkpt>
      <trkpt lat="63.42963" lon="10.36377">
        <ele>23.751699</ele>
        <time>2020-07-15T22:29:59.420Z</time>
      </trkpt>
      <trkpt lat="63.42969" lon="10.36345">
        <ele>24.405469</ele>
        <time>2020-07-15T22:30:05.433Z</time>
      </trkpt>
      <trkpt lat="63.42972" lon="10.36329">
        <ele>24.72619</ele>
        <time>2020-07-15T22:30:09.064Z</time>
      </trkpt>
      <trkpt lat="63.42976" lon="10.36305">
        <ele>25.196111</ele>
        <time>2020-07-15T22:30:12.648Z</time>
      </trkpt>
      <trkpt lat="63.4298" lon="10.36277">
        <ele>25.754805</ele>
        <time>2020-07-15T22:30:17.245Z</time>
      </trkpt>
      <trkpt lat="63.42985" lon="10.3624">
        <ele>26.484019</ele>
        <time>2020-07-15T22:30:25.358Z</time>
      </trkpt>
      <trkpt lat="63.42991" lon="10.36201">
        <ele>27.242461</ele>
        <time>2020-07-15T22:30:31.779Z</time>
      </trkpt>
      <trkpt lat="63.4299" lon="10.36182">
        <ele>27.760216</ele>
        <time>2020-07-15T22:30:36.565Z</time>
      </trkpt>
      <trkpt lat="63.42984" lon="10.35962">
        <ele>34.45112</ele>
        <time>2020-07-15T22:31:20.382Z</time>
      </trkpt>
      <trkpt lat="63.42987" lon="10.35859">
        <ele>37.614685</ele>
        <time>2020-07-15T22:31:40.035Z</time>
      </trkpt>
      <trkpt lat="63.42999" lon="10.35748">
        <ele>39.547703</ele>
        <time>2020-07-15T22:31:55.005Z</time>
      </trkpt>
      <trkpt lat="63.43002" lon="10.35735">
        <ele>39.547703</ele>
        <time>2020-07-15T22:31:58.419Z</time>
      </trkpt>
      <trkpt lat="63.43004" lon="10.35725">
        <ele>39.547703</ele>
        <time>2020-07-15T22:31:59.707Z</time>
      </trkpt>
      <trkpt lat="63.4301" lon="10.35705">
        <ele>39.547703</ele>
        <time>2020-07-15T22:32:02.222Z</time>
      </trkpt>
      <trkpt lat="63.43037" lon="10.35651">
        <ele>39.547703</ele>
        <time>2020-07-15T22:32:11.158Z</time>
      </trkpt>
      <trkpt lat="63.43048" lon="10.35635">
        <ele>39.547703</ele>
        <time>2020-07-15T22:32:13.353Z</time>
      </trkpt>
      <trkpt lat="63.43065" lon="10.35614">
        <ele>39.547703</ele>
        <time>2020-07-15T22:32:18.791Z</time>
      </trkpt>
      <trkpt lat="63.43073" lon="10.35602">
        <ele>39.547703</ele>
        <time>2020-07-15T22:32:20.226Z</time>
      </trkpt>
      <trkpt lat="63.43082" lon="10.3559">
        <ele>39.547703</ele>
        <time>2020-07-15T22:32:22.603Z</time>
      </trkpt>
      <trkpt lat="63.43124" lon="10.35497">
        <ele>39.547703</ele>
        <time>2020-07-15T22:32:32.751Z</time>
      </trkpt>
      <trkpt lat="63.43125" lon="10.35498">
        <ele>39.547703</ele>
        <time>2020-07-15T22:32:32.839Z</time>
      </trkpt>
    </trkseg>
  </trk>
  <trk>
    <name><![CDATA[3_Trondheim-Forvik: 460km]]></name>
    <trkseg>
      <trkpt lat="63.43128" lon="10.35499">
        <ele>40.209371</ele>
        <time>2020-07-15T11:10:29.794Z</time>
      </trkpt>
      <trkpt lat="63.43132" lon="10.35448">
        <ele>40.209371</ele>
        <time>2020-07-15T11:10:35.304Z</time>
      </trkpt>
      <trkpt lat="63.43141" lon="10.35287">
        <ele>39.907175</ele>
        <time>2020-07-15T11:10:46.976Z</time>
      </trkpt>
      <trkpt lat="63.43155" lon="10.35223">
        <ele>38.240237</ele>
        <time>2020-07-15T11:10:50.957Z</time>
      </trkpt>
      <trkpt lat="63.43158" lon="10.35213">
        <ele>37.957174</ele>
        <time>2020-07-15T11:10:52.350Z</time>
      </trkpt>
      <trkpt lat="63.43162" lon="10.35204">
        <ele>37.679236</ele>
        <time>2020-07-15T11:10:52.968Z</time>
      </trkpt>
      <trkpt lat="63.4317" lon="10.35186">
        <ele>37.07282</ele>
        <time>2020-07-15T11:10:54.349Z</time>
      </trkpt>
      <trkpt lat="63.43199" lon="10.35136">
        <ele>35.139507</ele>
        <time>2020-07-15T11:10:58.854Z</time>
      </trkpt>
      <trkpt lat="63.43232" lon="10.3508">
        <ele>32.996159</ele>
        <time>2020-07-15T11:11:03.514Z</time>
      </trkpt>
      <trkpt lat="63.43248" lon="10.35056">
        <ele>31.99724</ele>
        <time>2020-07-15T11:11:05.953Z</time>
      </trkpt>
      <trkpt lat="63.43255" lon="10.35047">
        <ele>31.585754</ele>
        <time>2020-07-15T11:11:06.839Z</time>
      </trkpt>
      <trkpt lat="63.43262" lon="10.3504">
        <ele>31.181711</ele>
        <time>2020-07-15T11:11:07.644Z</time>
      </trkpt>
      <trkpt lat="63.43325" lon="10.34999">
        <ele>27.63405</ele>
        <time>2020-07-15T11:11:15.213Z</time>
      </trkpt>
      <trkpt lat="63.43328" lon="10.34997">
        <ele>27.440982</ele>
        <time>2020-07-15T11:11:15.580Z</time>
      </trkpt>
      <trkpt lat="63.43332" lon="10.34996">
        <ele>27.226255</ele>
        <time>2020-07-15T11:11:15.998Z</time>
      </trkpt>
      <trkpt lat="63.43341" lon="10.34995">
        <ele>26.755233</ele>
        <time>2020-07-15T11:11:17.188Z</time>
      </trkpt>
      <trkpt lat="63.43347" lon="10.34994">
        <ele>26.399631</ele>
        <time>2020-07-15T11:11:17.997Z</time>
      </trkpt>
      <trkpt lat="63.4337" lon="10.34991">
        <ele>25.163339</ele>
        <time>2020-07-15T11:11:20.541Z</time>
      </trkpt>
      <trkpt lat="63.43403" lon="10.34978">
        <ele>23.310147</ele>
        <time>2020-07-15T11:11:24.631Z</time>
      </trkpt>
      <trkpt lat="63.43483" lon="10.34915">
        <ele>20.623625</ele>
        <time>2020-07-15T11:11:36.309Z</time>
      </trkpt>
      <trkpt lat="63.4354" lon="10.34895">
        <ele>20.083221</ele>
        <time>2020-07-15T11:11:45.935Z</time>
      </trkpt>
      <trkpt lat="63.43561" lon="10.34894">
        <ele>19.886286</ele>
        <time>2020-07-15T11:11:49.725Z</time>
      </trkpt>
      <trkpt lat="63.43569" lon="10.34894">
        <ele>19.812894</ele>
        <time>2020-07-15T11:11:51.130Z</time>
      </trkpt>
      <trkpt lat="63.43576" lon="10.34895">
        <ele>19.750632</ele>
        <time>2020-07-15T11:11:52.168Z</time>
      </trkpt>
      <trkpt lat="63.43691" lon="10.34912">
        <ele>19.70284</ele>
        <time>2020-07-15T11:12:12.116Z</time>
      </trkpt>
      <trkpt lat="63.4378" lon="10.34888">
        <ele>20.145194</ele>
        <time>2020-07-15T11:12:30.437Z</time>
      </trkpt>
      <trkpt lat="63.43814" lon="10.34865">
        <ele>20.4015</ele>
        <time>2020-07-15T11:12:38.231Z</time>
      </trkpt>
      <trkpt lat="63.43837" lon="10.34839">
        <ele>20.64497</ele>
        <time>2020-07-15T11:12:43.973Z</time>
      </trkpt>
      <trkpt lat="63.43848" lon="10.34821">
        <ele>20.775504</ele>
        <time>2020-07-15T11:12:46.923Z</time>
      </trkpt>
      <trkpt lat="63.43852" lon="10.34815">
        <ele>20.821533</ele>
        <time>2020-07-15T11:12:48.193Z</time>
      </trkpt>
      <trkpt lat="63.43862" lon="10.34801">
        <ele>20.934019</ele>
        <time>2020-07-15T11:12:50.952Z</time>
      </trkpt>
      <trkpt lat="63.43882" lon="10.3478">
        <ele>21.13664</ele>
        <time>2020-07-15T11:12:55.589Z</time>
      </trkpt>
      <trkpt lat="63.43902" lon="10.34772">
        <ele>21.331661</ele>
        <time>2020-07-15T11:13:00.299Z</time>
      </trkpt>
      <trkpt lat="63.43959" lon="10.34789">
        <ele>21.879101</ele>
        <time>2020-07-15T11:13:12.766Z</time>
      </trkpt>
      <trkpt lat="63.43987" lon="10.34786">
        <ele>21.725403</ele>
        <time>2020-07-15T11:13:16.998Z</time>
      </trkpt>
      <trkpt lat="63.44007" lon="10.34771">
        <ele>21.52045</ele>
        <time>2020-07-15T11:13:20.416Z</time>
      </trkpt>
      <trkpt lat="63.44038" lon="10.34729">
        <ele>21.159325</ele>
        <time>2020-07-15T11:13:25.656Z</time>
      </trkpt>
      <trkpt lat="63.44049" lon="10.34714">
        <ele>21.030676</ele>
        <time>2020-07-15T11:13:27.426Z</time>
      </trkpt>
      <trkpt lat="63.44052" lon="10.3471">
        <ele>20.994122</ele>
        <time>2020-07-15T11:13:28.055Z</time>
      </trkpt>
      <trkpt lat="63.44065" lon="10.34698">
        <ele>20.861971</ele>
        <time>2020-07-15T11:13:29.936Z</time>
      </trkpt>
      <trkpt lat="63.44093" lon="10.34683">
        <ele>20.569654</ele>
        <time>2020-07-15T11:13:34.146Z</time>
      </trkpt>
      <trkpt lat="63.44106" lon="10.34683">
        <ele>20.442844</ele>
        <time>2020-07-15T11:13:35.894Z</time>
      </trkpt>
      <trkpt lat="63.44115" lon="10.34684">
        <ele>20.354356</ele>
        <time>2020-07-15T11:13:37.028Z</time>
      </trkpt>
      <trkpt lat="63.44171" lon="10.34727">
        <ele>21.445398</ele>
        <time>2020-07-15T11:13:49.075Z</time>
      </trkpt>
      <trkpt lat="63.44194" lon="10.34731">
        <ele>22.203079</ele>
        <time>2020-07-15T11:13:52.914Z</time>
      </trkpt>
      <trkpt lat="63.44216" lon="10.34712">
        <ele>23.011655</ele>
        <time>2020-07-15T11:13:58.233Z</time>
      </trkpt>
      <trkpt lat="63.44247" lon="10.34658">
        <ele>24.299506</ele>
        <time>2020-07-15T11:14:09.110Z</time>
      </trkpt>
      <trkpt lat="63.44256" lon="10.34636">
        <ele>24.742107</ele>
        <time>2020-07-15T11:14:14.086Z</time>
      </trkpt>
      <trkpt lat="63.44259" lon="10.34629">
        <ele>24.887769</ele>
        <time>2020-07-15T11:14:16.950Z</time>
      </trkpt>
      <trkpt lat="63.44271" lon="10.34585">
        <ele>25.654038</ele>
        <time>2020-07-15T11:14:25.149Z</time>
      </trkpt>
      <trkpt lat="63.4429" lon="10.34473">
        <ele>30.11634</ele>
        <time>2020-07-15T11:14:50.436Z</time>
      </trkpt>
      <trkpt lat="63.44346" lon="10.34333">
        <ele>38.525834</ele>
        <time>2020-07-15T11:15:33.954Z</time>
      </trkpt>
      <trkpt lat="63.44364" lon="10.34269">
        <ele>41.940801</ele>
        <time>2020-07-15T11:15:51.645Z</time>
      </trkpt>
      <trkpt lat="63.44384" lon="10.34174">
        <ele>46.580786</ele>
        <time>2020-07-15T11:16:16.983Z</time>
      </trkpt>
      <trkpt lat="63.44398" lon="10.34037">
        <ele>52.746147</ele>
        <time>2020-07-15T11:16:49.611Z</time>
      </trkpt>
      <trkpt lat="63.44412" lon="10.33979">
        <ele>55.598015</ele>
        <time>2020-07-15T11:17:03.578Z</time>
      </trkpt>
      <trkpt lat="63.44455" lon="10.33875">
        <ele>61.778138</ele>
        <time>2020-07-15T11:17:32.781Z</time>
      </trkpt>
      <trkpt lat="63.44556" lon="10.33687">
        <ele>72.780907</ele>
        <time>2020-07-15T11:18:31.557Z</time>
      </trkpt>
      <trkpt lat="63.44566" lon="10.33666">
        <ele>73.879314</ele>
        <time>2020-07-15T11:18:38.426Z</time>
      </trkpt>
      <trkpt lat="63.44568" lon="10.33672">
        <ele>74.188454</ele>
        <time>2020-07-15T11:18:39.394Z</time>
      </trkpt>
      <trkpt lat="63.44571" lon="10.33674">
        <ele>74.415631</ele>
        <time>2020-07-15T11:18:40.024Z</time>
      </trkpt>
      <trkpt lat="63.44576" lon="10.33665">
        <ele>74.938419</ele>
        <time>2020-07-15T11:18:43.337Z</time>
      </trkpt>
      <trkpt lat="63.44611" lon="10.33577">
        <ele>78.460285</ele>
        <time>2020-07-15T11:19:06.588Z</time>
      </trkpt>
      <trkpt lat="63.44624" lon="10.3351">
        <ele>80.239677</ele>
        <time>2020-07-15T11:19:20.771Z</time>
      </trkpt>
      <trkpt lat="63.44624" lon="10.33448">
        <ele>81.74771</ele>
        <time>2020-07-15T11:19:32.917Z</time>
      </trkpt>
      <trkpt lat="63.44608" lon="10.33264">
        <ele>86.344404</ele>
        <time>2020-07-15T11:20:00.763Z</time>
      </trkpt>
      <trkpt lat="63.44602" lon="10.33112">
        <ele>82.649797</ele>
        <time>2020-07-15T11:20:12.497Z</time>
      </trkpt>
      <trkpt lat="63.44635" lon="10.3279">
        <ele>70.388378</ele>
        <time>2020-07-15T11:20:29.501Z</time>
      </trkpt>
      <trkpt lat="63.44648" lon="10.32741">
        <ele>66.399472</ele>
        <time>2020-07-15T11:20:32.219Z</time>
      </trkpt>
      <trkpt lat="63.44662" lon="10.32707">
        <ele>63.073551</ele>
        <time>2020-07-15T11:20:34.471Z</time>
      </trkpt>
      <trkpt lat="63.44767" lon="10.32585">
        <ele>45.304453</ele>
        <time>2020-07-15T11:20:47.083Z</time>
      </trkpt>
      <trkpt lat="63.44787" lon="10.32546">
        <ele>42.57427</ele>
        <time>2020-07-15T11:20:50.011Z</time>
      </trkpt>
      <trkpt lat="63.4481" lon="10.32481">
        <ele>38.852151</ele>
        <time>2020-07-15T11:20:54.050Z</time>
      </trkpt>
      <trkpt lat="63.4482" lon="10.32455">
        <ele>37.256309</ele>
        <time>2020-07-15T11:20:55.787Z</time>
      </trkpt>
      <trkpt lat="63.44862" lon="10.32347">
        <ele>30.781084</ele>
        <time>2020-07-15T11:21:03.681Z</time>
      </trkpt>
      <trkpt lat="63.44893" lon="10.32257">
        <ele>28.91537</ele>
        <time>2020-07-15T11:21:11.227Z</time>
      </trkpt>
      <trkpt lat="63.44894" lon="10.32246">
        <ele>28.96374</ele>
        <time>2020-07-15T11:21:11.877Z</time>
      </trkpt>
      <trkpt lat="63.44893" lon="10.32238">
        <ele>28.997468</ele>
        <time>2020-07-15T11:21:13.092Z</time>
      </trkpt>
      <trkpt lat="63.44892" lon="10.32228">
        <ele>29.044029</ele>
        <time>2020-07-15T11:21:13.940Z</time>
      </trkpt>
      <trkpt lat="63.44886" lon="10.32192">
        <ele>29.210121</ele>
        <time>2020-07-15T11:21:16.952Z</time>
      </trkpt>
      <trkpt lat="63.44884" lon="10.32177">
        <ele>29.282217</ele>
        <time>2020-07-15T11:21:18.495Z</time>
      </trkpt>
      <trkpt lat="63.44883" lon="10.32168">
        <ele>29.322511</ele>
        <time>2020-07-15T11:21:19.161Z</time>
      </trkpt>
      <trkpt lat="63.4488" lon="10.32158">
        <ele>29.369868</ele>
        <time>2020-07-15T11:21:20.819Z</time>
      </trkpt>
      <trkpt lat="63.44878" lon="10.32152">
        <ele>29.408288</ele>
        <time>2020-07-15T11:21:21.602Z</time>
      </trkpt>
      <trkpt lat="63.44876" lon="10.32148">
        <ele>29.433057</ele>
        <time>2020-07-15T11:21:22.588Z</time>
      </trkpt>
      <trkpt lat="63.44871" lon="10.32137">
        <ele>29.502519</ele>
        <time>2020-07-15T11:21:24.717Z</time>
      </trkpt>
      <trkpt lat="63.44868" lon="10.3213">
        <ele>29.542536</ele>
        <time>2020-07-15T11:21:26.359Z</time>
      </trkpt>
      <trkpt lat="63.44867" lon="10.32095">
        <ele>29.694549</ele>
        <time>2020-07-15T11:21:29.870Z</time>
      </trkpt>
      <trkpt lat="63.44884" lon="10.3204">
        <ele>29.979794</ele>
        <time>2020-07-15T11:21:38.196Z</time>
      </trkpt>
      <trkpt lat="63.44887" lon="10.3203">
        <ele>30.032898</ele>
        <time>2020-07-15T11:21:39.284Z</time>
      </trkpt>
      <trkpt lat="63.44904" lon="10.31992">
        <ele>30.271682</ele>
        <time>2020-07-15T11:21:46.957Z</time>
      </trkpt>
      <trkpt lat="63.4492" lon="10.31892">
        <ele>30.779828</ele>
        <time>2020-07-15T11:21:59.977Z</time>
      </trkpt>
      <trkpt lat="63.44951" lon="10.31771">
        <ele>31.46255</ele>
        <time>2020-07-15T11:22:13.504Z</time>
      </trkpt>
      <trkpt lat="63.44974" lon="10.31714">
        <ele>31.837698</ele>
        <time>2020-07-15T11:22:19.781Z</time>
      </trkpt>
      <trkpt lat="63.45033" lon="10.31598">
        <ele>32.27312</ele>
        <time>2020-07-15T11:22:35.061Z</time>
      </trkpt>
      <trkpt lat="63.45043" lon="10.31562">
        <ele>32.222639</ele>
        <time>2020-07-15T11:22:39.292Z</time>
      </trkpt>
      <trkpt lat="63.45048" lon="10.31512">
        <ele>32.163043</ele>
        <time>2020-07-15T11:22:43.280Z</time>
      </trkpt>
      <trkpt lat="63.45051" lon="10.31491">
        <ele>32.136586</ele>
        <time>2020-07-15T11:22:45.602Z</time>
      </trkpt>
      <trkpt lat="63.45053" lon="10.3148">
        <ele>32.123899</ele>
        <time>2020-07-15T11:22:46.703Z</time>
      </trkpt>
      <trkpt lat="63.45071" lon="10.31401">
        <ele>32.02029</ele>
        <time>2020-07-15T11:22:53.778Z</time>
      </trkpt>
      <trkpt lat="63.45117" lon="10.31296">
        <ele>31.447035</ele>
        <time>2020-07-15T11:23:04.575Z</time>
      </trkpt>
      <trkpt lat="63.45131" lon="10.3125">
        <ele>30.680066</ele>
        <time>2020-07-15T11:23:08.228Z</time>
      </trkpt>
      <trkpt lat="63.4514" lon="10.31164">
        <ele>29.470596</ele>
        <time>2020-07-15T11:23:13.962Z</time>
      </trkpt>
      <trkpt lat="63.45139" lon="10.31062">
        <ele>28.066696</ele>
        <time>2020-07-15T11:23:20.123Z</time>
      </trkpt>
      <trkpt lat="63.45179" lon="10.30931">
        <ele>25.871681</ele>
        <time>2020-07-15T11:23:29.259Z</time>
      </trkpt>
      <trkpt lat="63.4519" lon="10.30803">
        <ele>24.035082</ele>
        <time>2020-07-15T11:23:36.678Z</time>
      </trkpt>
      <trkpt lat="63.45206" lon="10.3074">
        <ele>23.007985</ele>
        <time>2020-07-15T11:23:41.093Z</time>
      </trkpt>
      <trkpt lat="63.45217" lon="10.30717">
        <ele>22.538594</ele>
        <time>2020-07-15T11:23:43.547Z</time>
      </trkpt>
      <trkpt lat="63.45221" lon="10.30719">
        <ele>22.411939</ele>
        <time>2020-07-15T11:23:44.455Z</time>
      </trkpt>
      <trkpt lat="63.45223" lon="10.30725">
        <ele>22.316631</ele>
        <time>2020-07-15T11:23:45.128Z</time>
      </trkpt>
      <trkpt lat="63.45225" lon="10.30721">
        <ele>22.228653</ele>
        <time>2020-07-15T11:23:45.438Z</time>
      </trkpt>
      <trkpt lat="63.45274" lon="10.3068">
        <ele>20.679916</ele>
        <time>2020-07-15T11:23:52.858Z</time>
      </trkpt>
      <trkpt lat="63.45293" lon="10.30651">
        <ele>20.951562</ele>
        <time>2020-07-15T11:23:56.442Z</time>
      </trkpt>
      <trkpt lat="63.453" lon="10.30634">
        <ele>21.075517</ele>
        <time>2020-07-15T11:23:58.009Z</time>
      </trkpt>
      <trkpt lat="63.45305" lon="10.30622">
        <ele>21.165462</ele>
        <time>2020-07-15T11:24:00.281Z</time>
      </trkpt>
      <trkpt lat="63.45373" lon="10.30467">
        <ele>22.306964</ele>
        <time>2020-07-15T11:24:21.067Z</time>
      </trkpt>
      <trkpt lat="63.45395" lon="10.3039">
        <ele>22.83607</ele>
        <time>2020-07-15T11:24:32.713Z</time>
      </trkpt>
      <trkpt lat="63.45414" lon="10.30254">
        <ele>25.643986</ele>
        <time>2020-07-15T11:24:51.956Z</time>
      </trkpt>
      <trkpt lat="63.45421" lon="10.30118">
        <ele>28.353508</ele>
        <time>2020-07-15T11:25:11.716Z</time>
      </trkpt>
      <trkpt lat="63.45417" lon="10.3003">
        <ele>30.092545</ele>
        <time>2020-07-15T11:25:25.216Z</time>
      </trkpt>
      <trkpt lat="63.45404" lon="10.29939">
        <ele>32.289692</ele>
        <time>2020-07-15T11:25:40.566Z</time>
      </trkpt>
      <trkpt lat="63.45342" lon="10.29652">
        <ele>40.10591</ele>
        <time>2020-07-15T11:26:33.665Z</time>
      </trkpt>
      <trkpt lat="63.45302" lon="10.29433">
        <ele>43.575303</ele>
        <time>2020-07-15T11:27:03.657Z</time>
      </trkpt>
      <trkpt lat="63.45301" lon="10.29416">
        <ele>43.810134</ele>
        <time>2020-07-15T11:27:06.661Z</time>
      </trkpt>
      <trkpt lat="63.453" lon="10.294">
        <ele>44.044158</ele>
        <time>2020-07-15T11:27:07.486Z</time>
      </trkpt>
      <trkpt lat="63.45303" lon="10.2927">
        <ele>45.827481</ele>
        <time>2020-07-15T11:27:25.498Z</time>
      </trkpt>
      <trkpt lat="63.453" lon="10.29239">
        <ele>46.272184</ele>
        <time>2020-07-15T11:27:27.280Z</time>
      </trkpt>
      <trkpt lat="63.45298" lon="10.29219">
        <ele>46.561338</ele>
        <time>2020-07-15T11:27:31.525Z</time>
      </trkpt>
      <trkpt lat="63.45264" lon="10.2905">
        <ele>49.239002</ele>
        <time>2020-07-15T11:27:51.323Z</time>
      </trkpt>
      <trkpt lat="63.45187" lon="10.28564">
        <ele>57.901481</ele>
        <time>2020-07-15T11:29:05.634Z</time>
      </trkpt>
      <trkpt lat="63.45146" lon="10.28408">
        <ele>57.907589</ele>
        <time>2020-07-15T11:29:28.597Z</time>
      </trkpt>
      <trkpt lat="63.45133" lon="10.28331">
        <ele>56.871683</ele>
        <time>2020-07-15T11:29:33.784Z</time>
      </trkpt>
      <trkpt lat="63.45132" lon="10.28311">
        <ele>56.607133</ele>
        <time>2020-07-15T11:29:38.641Z</time>
      </trkpt>
      <trkpt lat="63.4513" lon="10.28264">
        <ele>56.015726</ele>
        <time>2020-07-15T11:29:40.868Z</time>
      </trkpt>
      <trkpt lat="63.45131" lon="10.28142">
        <ele>54.452933</ele>
        <time>2020-07-15T11:29:47.496Z</time>
      </trkpt>
      <trkpt lat="63.45134" lon="10.28099">
        <ele>53.331521</ele>
        <time>2020-07-15T11:29:49.508Z</time>
      </trkpt>
      <trkpt lat="63.45146" lon="10.27955">
        <ele>46.873345</ele>
        <time>2020-07-15T11:29:56.773Z</time>
      </trkpt>
      <trkpt lat="63.4515" lon="10.27912">
        <ele>44.942381</ele>
        <time>2020-07-15T11:29:58.851Z</time>
      </trkpt>
      <trkpt lat="63.45161" lon="10.27754">
        <ele>37.942992</ele>
        <time>2020-07-15T11:30:06.429Z</time>
      </trkpt>
      <trkpt lat="63.45147" lon="10.27551">
        <ele>34.714636</ele>
        <time>2020-07-15T11:30:17.634Z</time>
      </trkpt>
      <trkpt lat="63.45152" lon="10.27445">
        <ele>33.618085</ele>
        <time>2020-07-15T11:30:25.943Z</time>
      </trkpt>
      <trkpt lat="63.45191" lon="10.27237">
        <ele>32.991292</ele>
        <time>2020-07-15T11:30:48.319Z</time>
      </trkpt>
      <trkpt lat="63.4522" lon="10.27003">
        <ele>34.539396</ele>
        <time>2020-07-15T11:31:14.658Z</time>
      </trkpt>
      <trkpt lat="63.45285" lon="10.26791">
        <ele>35.461096</ele>
        <time>2020-07-15T11:31:36.300Z</time>
      </trkpt>
      <trkpt lat="63.45298" lon="10.26696">
        <ele>35.735742</ele>
        <time>2020-07-15T11:31:44.550Z</time>
      </trkpt>
      <trkpt lat="63.45309" lon="10.26571">
        <ele>36.193631</ele>
        <time>2020-07-15T11:31:56.240Z</time>
      </trkpt>
      <trkpt lat="63.45307" lon="10.26446">
        <ele>37.103866</ele>
        <time>2020-07-15T11:32:08.485Z</time>
      </trkpt>
      <trkpt lat="63.45288" lon="10.26245">
        <ele>38.604395</ele>
        <time>2020-07-15T11:32:31.206Z</time>
      </trkpt>
      <trkpt lat="63.45302" lon="10.25874">
        <ele>40.576358</ele>
        <time>2020-07-15T11:33:09.398Z</time>
      </trkpt>
      <trkpt lat="63.45298" lon="10.25732">
        <ele>40.666766</ele>
        <time>2020-07-15T11:33:20.426Z</time>
      </trkpt>
      <trkpt lat="63.45272" lon="10.25281">
        <ele>37.024038</ele>
        <time>2020-07-15T11:33:50.766Z</time>
      </trkpt>
      <trkpt lat="63.45261" lon="10.252">
        <ele>35.557059</ele>
        <time>2020-07-15T11:33:55.567Z</time>
      </trkpt>
      <trkpt lat="63.45237" lon="10.25094">
        <ele>33.496649</ele>
        <time>2020-07-15T11:34:02.275Z</time>
      </trkpt>
      <trkpt lat="63.45232" lon="10.2504">
        <ele>32.543984</ele>
        <time>2020-07-15T11:34:05.044Z</time>
      </trkpt>
      <trkpt lat="63.4523" lon="10.25009">
        <ele>31.981797</ele>
        <time>2020-07-15T11:34:07.026Z</time>
      </trkpt>
      <trkpt lat="63.4523" lon="10.24996">
        <ele>31.66368</ele>
        <time>2020-07-15T11:34:07.631Z</time>
      </trkpt>
      <trkpt lat="63.45233" lon="10.24943">
        <ele>30.399762</ele>
        <time>2020-07-15T11:34:10.589Z</time>
      </trkpt>
      <trkpt lat="63.45243" lon="10.24879">
        <ele>28.779045</ele>
        <time>2020-07-15T11:34:14.022Z</time>
      </trkpt>
      <trkpt lat="63.45291" lon="10.24722">
        <ele>24.2248</ele>
        <time>2020-07-15T11:34:24.079Z</time>
      </trkpt>
      <trkpt lat="63.45298" lon="10.24669">
        <ele>22.914206</ele>
        <time>2020-07-15T11:34:26.938Z</time>
      </trkpt>
      <trkpt lat="63.45297" lon="10.2459">
        <ele>23.025337</ele>
        <time>2020-07-15T11:34:32.261Z</time>
      </trkpt>
      <trkpt lat="63.45288" lon="10.24522">
        <ele>23.752604</ele>
        <time>2020-07-15T11:34:38.731Z</time>
      </trkpt>
      <trkpt lat="63.45273" lon="10.24469">
        <ele>24.405689</ele>
        <time>2020-07-15T11:34:46.111Z</time>
      </trkpt>
      <trkpt lat="63.45252" lon="10.24426">
        <ele>25.04275</ele>
        <time>2020-07-15T11:34:54.419Z</time>
      </trkpt>
      <trkpt lat="63.45204" lon="10.24361">
        <ele>26.329479</ele>
        <time>2020-07-15T11:35:13.838Z</time>
      </trkpt>
      <trkpt lat="63.45182" lon="10.24309">
        <ele>27.564656</ele>
        <time>2020-07-15T11:35:25.855Z</time>
      </trkpt>
      <trkpt lat="63.45171" lon="10.24256">
        <ele>28.716267</ele>
        <time>2020-07-15T11:35:35.392Z</time>
      </trkpt>
      <trkpt lat="63.45165" lon="10.24187">
        <ele>30.105468</ele>
        <time>2020-07-15T11:35:46.381Z</time>
      </trkpt>
      <trkpt lat="63.45172" lon="10.24084">
        <ele>32.167475</ele>
        <time>2020-07-15T11:36:01.427Z</time>
      </trkpt>
      <trkpt lat="63.45188" lon="10.23955">
        <ele>34.615198</ele>
        <time>2020-07-15T11:36:17.988Z</time>
      </trkpt>
      <trkpt lat="63.45202" lon="10.23877">
        <ele>35.185467</ele>
        <time>2020-07-15T11:36:27.492Z</time>
      </trkpt>
      <trkpt lat="63.45235" lon="10.23768">
        <ele>36.064445</ele>
        <time>2020-07-15T11:36:41.573Z</time>
      </trkpt>
      <trkpt lat="63.45248" lon="10.23706">
        <ele>36.517473</ele>
        <time>2020-07-15T11:36:48.384Z</time>
      </trkpt>
      <trkpt lat="63.4525" lon="10.23643">
        <ele>36.935348</ele>
        <time>2020-07-15T11:36:54.370Z</time>
      </trkpt>
      <trkpt lat="63.45243" lon="10.23448">
        <ele>35.542424</ele>
        <time>2020-07-15T11:37:07.954Z</time>
      </trkpt>
      <trkpt lat="63.45244" lon="10.23426">
        <ele>35.31185</ele>
        <time>2020-07-15T11:37:10.869Z</time>
      </trkpt>
      <trkpt lat="63.45246" lon="10.23399">
        <ele>35.015647</ele>
        <time>2020-07-15T11:37:12.292Z</time>
      </trkpt>
      <trkpt lat="63.45254" lon="10.23336">
        <ele>34.314101</ele>
        <time>2020-07-15T11:37:16.387Z</time>
      </trkpt>
      <trkpt lat="63.45275" lon="10.23245">
        <ele>33.224941</ele>
        <time>2020-07-15T11:37:22.000Z</time>
      </trkpt>
      <trkpt lat="63.45343" lon="10.23065">
        <ele>30.503081</ele>
        <time>2020-07-15T11:37:35.106Z</time>
      </trkpt>
      <trkpt lat="63.45352" lon="10.22998">
        <ele>29.694844</ele>
        <time>2020-07-15T11:37:39.300Z</time>
      </trkpt>
      <trkpt lat="63.4535" lon="10.22946">
        <ele>29.085928</ele>
        <time>2020-07-15T11:37:42.802Z</time>
      </trkpt>
      <trkpt lat="63.45344" lon="10.22897">
        <ele>28.496125</ele>
        <time>2020-07-15T11:37:46.563Z</time>
      </trkpt>
      <trkpt lat="63.45324" lon="10.22835">
        <ele>28.501461</ele>
        <time>2020-07-15T11:37:53.526Z</time>
      </trkpt>
      <trkpt lat="63.45302" lon="10.22801">
        <ele>28.80325</ele>
        <time>2020-07-15T11:38:00.094Z</time>
      </trkpt>
      <trkpt lat="63.45251" lon="10.2276">
        <ele>29.418688</ele>
        <time>2020-07-15T11:38:14.282Z</time>
      </trkpt>
      <trkpt lat="63.45222" lon="10.22723">
        <ele>29.798994</ele>
        <time>2020-07-15T11:38:22.110Z</time>
      </trkpt>
      <trkpt lat="63.45193" lon="10.22661">
        <ele>30.253387</ele>
        <time>2020-07-15T11:38:30.113Z</time>
      </trkpt>
      <trkpt lat="63.45171" lon="10.2258">
        <ele>29.264621</ele>
        <time>2020-07-15T11:38:37.030Z</time>
      </trkpt>
      <trkpt lat="63.45167" lon="10.22557">
        <ele>28.993667</ele>
        <time>2020-07-15T11:38:38.993Z</time>
      </trkpt>
      <trkpt lat="63.45159" lon="10.22514">
        <ele>28.485754</ele>
        <time>2020-07-15T11:38:41.712Z</time>
      </trkpt>
      <trkpt lat="63.45104" lon="10.22312">
        <ele>25.897411</ele>
        <time>2020-07-15T11:38:55.261Z</time>
      </trkpt>
      <trkpt lat="63.45098" lon="10.22241">
        <ele>25.404583</ele>
        <time>2020-07-15T11:38:59.247Z</time>
      </trkpt>
      <trkpt lat="63.45097" lon="10.22115">
        <ele>24.56762</ele>
        <time>2020-07-15T11:39:06.697Z</time>
      </trkpt>
      <trkpt lat="63.45086" lon="10.22042">
        <ele>24.050109</ele>
        <time>2020-07-15T11:39:11.810Z</time>
      </trkpt>
      <trkpt lat="63.44998" lon="10.21787">
        <ele>24.835928</ele>
        <time>2020-07-15T11:39:44.044Z</time>
      </trkpt>
      <trkpt lat="63.44993" lon="10.21762">
        <ele>25.068595</ele>
        <time>2020-07-15T11:39:48.198Z</time>
      </trkpt>
      <trkpt lat="63.4499" lon="10.21739">
        <ele>25.270454</ele>
        <time>2020-07-15T11:39:50.288Z</time>
      </trkpt>
      <trkpt lat="63.44982" lon="10.21444">
        <ele>27.280053</ele>
        <time>2020-07-15T11:40:23.671Z</time>
      </trkpt>
      <trkpt lat="63.44969" lon="10.21377">
        <ele>27.625827</ele>
        <time>2020-07-15T11:40:29.838Z</time>
      </trkpt>
      <trkpt lat="63.4494" lon="10.21299">
        <ele>28.108725</ele>
        <time>2020-07-15T11:40:38.233Z</time>
      </trkpt>
      <trkpt lat="63.44935" lon="10.2128">
        <ele>28.212744</ele>
        <time>2020-07-15T11:40:40.714Z</time>
      </trkpt>
      <trkpt lat="63.4493" lon="10.21257">
        <ele>28.331624</ele>
        <time>2020-07-15T11:40:42.586Z</time>
      </trkpt>
      <trkpt lat="63.44916" lon="10.2106">
        <ele>28.887937</ele>
        <time>2020-07-15T11:40:59.590Z</time>
      </trkpt>
      <trkpt lat="63.44848" lon="10.20731">
        <ele>30.055889</ele>
        <time>2020-07-15T11:41:31.324Z</time>
      </trkpt>
      <trkpt lat="63.44812" lon="10.20629">
        <ele>30.743653</ele>
        <time>2020-07-15T11:41:44.058Z</time>
      </trkpt>
      <trkpt lat="63.44684" lon="10.2037">
        <ele>33.07553</ele>
        <time>2020-07-15T11:42:24.160Z</time>
      </trkpt>
      <trkpt lat="63.44653" lon="10.20296">
        <ele>33.725466</ele>
        <time>2020-07-15T11:42:33.929Z</time>
      </trkpt>
      <trkpt lat="63.44645" lon="10.20272">
        <ele>33.917586</ele>
        <time>2020-07-15T11:42:37.064Z</time>
      </trkpt>
      <trkpt lat="63.44638" lon="10.20247">
        <ele>34.112018</ele>
        <time>2020-07-15T11:42:39.783Z</time>
      </trkpt>
      <trkpt lat="63.4462" lon="10.20147">
        <ele>34.542465</ele>
        <time>2020-07-15T11:42:50.098Z</time>
      </trkpt>
      <trkpt lat="63.44602" lon="10.20014">
        <ele>35.053618</ele>
        <time>2020-07-15T11:43:02.828Z</time>
      </trkpt>
      <trkpt lat="63.44595" lon="10.20018">
        <ele>35.113131</ele>
        <time>2020-07-15T11:43:04.777Z</time>
      </trkpt>
      <trkpt lat="63.4459" lon="10.19979">
        <ele>35.261003</ele>
        <time>2020-07-15T11:43:08.753Z</time>
      </trkpt>
      <trkpt lat="63.44582" lon="10.19932">
        <ele>35.443756</ele>
        <time>2020-07-15T11:43:13.269Z</time>
      </trkpt>
      <trkpt lat="63.44574" lon="10.19874">
        <ele>35.665492</ele>
        <time>2020-07-15T11:43:18.687Z</time>
      </trkpt>
      <trkpt lat="63.44538" lon="10.19603">
        <ele>35.544253</ele>
        <time>2020-07-15T11:43:43.877Z</time>
      </trkpt>
      <trkpt lat="63.44527" lon="10.19519">
        <ele>35.506675</ele>
        <time>2020-07-15T11:43:50.440Z</time>
      </trkpt>
      <trkpt lat="63.44525" lon="10.19493">
        <ele>35.495674</ele>
        <time>2020-07-15T11:43:52.130Z</time>
      </trkpt>
      <trkpt lat="63.44524" lon="10.19483">
        <ele>35.433575</ele>
        <time>2020-07-15T11:43:52.902Z</time>
      </trkpt>
      <trkpt lat="63.44513" lon="10.19417">
        <ele>34.60891</ele>
        <time>2020-07-15T11:43:57.682Z</time>
      </trkpt>
      <trkpt lat="63.44514" lon="10.19416">
        <ele>34.565287</ele>
        <time>2020-07-15T11:43:57.958Z</time>
      </trkpt>
      <trkpt lat="63.44516" lon="10.19415">
        <ele>34.508801</ele>
        <time>2020-07-15T11:43:59.424Z</time>
      </trkpt>
      <trkpt lat="63.44524" lon="10.1941">
        <ele>34.308948</ele>
        <time>2020-07-15T11:44:04.760Z</time>
      </trkpt>
      <trkpt lat="63.4452" lon="10.19382">
        <ele>33.973579</ele>
        <time>2020-07-15T11:44:06.608Z</time>
      </trkpt>
      <trkpt lat="63.44521" lon="10.19369">
        <ele>33.810297</ele>
        <time>2020-07-15T11:44:07.415Z</time>
      </trkpt>
      <trkpt lat="63.44529" lon="10.19329">
        <ele>33.306011</ele>
        <time>2020-07-15T11:44:10.217Z</time>
      </trkpt>
      <trkpt lat="63.44539" lon="10.19312">
        <ele>32.973046</ele>
        <time>2020-07-15T11:44:11.952Z</time>
      </trkpt>
      <trkpt lat="63.44547" lon="10.19304">
        <ele>32.738484</ele>
        <time>2020-07-15T11:44:13.148Z</time>
      </trkpt>
      <trkpt lat="63.44555" lon="10.19297">
        <ele>32.514605</ele>
        <time>2020-07-15T11:44:14.329Z</time>
      </trkpt>
      <trkpt lat="63.44567" lon="10.19287">
        <ele>32.197669</ele>
        <time>2020-07-15T11:44:15.895Z</time>
      </trkpt>
      <trkpt lat="63.446" lon="10.19265">
        <ele>31.297768</ele>
        <time>2020-07-15T11:44:20.329Z</time>
      </trkpt>
      <trkpt lat="63.44659" lon="10.19241">
        <ele>28.949496</ele>
        <time>2020-07-15T11:44:27.796Z</time>
      </trkpt>
      <trkpt lat="63.4469" lon="10.19239">
        <ele>27.522173</ele>
        <time>2020-07-15T11:44:31.686Z</time>
      </trkpt>
      <trkpt lat="63.4471" lon="10.19242">
        <ele>26.637669</ele>
        <time>2020-07-15T11:44:34.166Z</time>
      </trkpt>
      <trkpt lat="63.44718" lon="10.19244">
        <ele>26.236963</ele>
        <time>2020-07-15T11:44:35.206Z</time>
      </trkpt>
      <trkpt lat="63.44772" lon="10.19273">
        <ele>23.756877</ele>
        <time>2020-07-15T11:44:42.156Z</time>
      </trkpt>
      <trkpt lat="63.44782" lon="10.19281">
        <ele>23.272978</ele>
        <time>2020-07-15T11:44:43.368Z</time>
      </trkpt>
      <trkpt lat="63.44782" lon="10.1928">
        <ele>23.233027</ele>
        <time>2020-07-15T11:44:43.457Z</time>
      </trkpt>
      <trkpt lat="63.44841" lon="10.19352">
        <ele>19.522369</ele>
        <time>2020-07-15T11:44:51.435Z</time>
      </trkpt>
      <trkpt lat="63.44865" lon="10.19394">
        <ele>17.742529</ele>
        <time>2020-07-15T11:44:55.057Z</time>
      </trkpt>
      <trkpt lat="63.44872" lon="10.19411">
        <ele>17.13209</ele>
        <time>2020-07-15T11:44:56.212Z</time>
      </trkpt>
      <trkpt lat="63.44888" lon="10.1944">
        <ele>15.949475</ele>
        <time>2020-07-15T11:44:58.830Z</time>
      </trkpt>
      <trkpt lat="63.44899" lon="10.19456">
        <ele>15.205354</ele>
        <time>2020-07-15T11:45:00.254Z</time>
      </trkpt>
      <trkpt lat="63.44901" lon="10.1946">
        <ele>15.051998</ele>
        <time>2020-07-15T11:45:00.533Z</time>
      </trkpt>
      <trkpt lat="63.44909" lon="10.19475">
        <ele>14.408583</ele>
        <time>2020-07-15T11:45:02.017Z</time>
      </trkpt>
      <trkpt lat="63.44917" lon="10.19488">
        <ele>13.86491</ele>
        <time>2020-07-15T11:45:03.158Z</time>
      </trkpt>
      <trkpt lat="63.4492" lon="10.19501">
        <ele>13.477449</ele>
        <time>2020-07-15T11:45:03.900Z</time>
      </trkpt>
      <trkpt lat="63.44961" lon="10.19576">
        <ele>10.97863</ele>
        <time>2020-07-15T11:45:10.187Z</time>
      </trkpt>
      <trkpt lat="63.44975" lon="10.19597">
        <ele>10.290991</ele>
        <time>2020-07-15T11:45:12.196Z</time>
      </trkpt>
      <trkpt lat="63.44985" lon="10.19625">
        <ele>9.637287</ele>
        <time>2020-07-15T11:45:14.113Z</time>
      </trkpt>
      <trkpt lat="63.45093" lon="10.20079">
        <ele>2.359803</ele>
        <time>2020-07-15T11:45:44.490Z</time>
      </trkpt>
      <trkpt lat="63.45111" lon="10.20098">
        <ele>1.919469</ele>
        <time>2020-07-15T11:45:47.295Z</time>
      </trkpt>
      <trkpt lat="63.45109" lon="10.20108">
        <ele>1.812483</ele>
        <time>2020-07-15T11:45:48.020Z</time>
      </trkpt>
      <trkpt lat="63.45108" lon="10.20126">
        <ele>1.622099</ele>
        <time>2020-07-15T11:45:49.324Z</time>
      </trkpt>
      <trkpt lat="63.45109" lon="10.20145">
        <ele>1.426417</ele>
        <time>2020-07-15T11:45:50.620Z</time>
      </trkpt>
      <trkpt lat="63.4512" lon="10.20171">
        <ele>1.053172</ele>
        <time>2020-07-15T11:45:53.069Z</time>
      </trkpt>
      <trkpt lat="63.4521" lon="10.20315">
        <ele>0.37455</ele>
        <time>2020-07-15T11:46:08.397Z</time>
      </trkpt>
      <trkpt lat="63.4528" lon="10.20374">
        <ele>0.018756</ele>
        <time>2020-07-15T11:46:18.883Z</time>
      </trkpt>
      <trkpt lat="63.45426" lon="10.2042">
        <ele>0.000524</ele>
        <time>2020-07-15T11:46:39.373Z</time>
      </trkpt>
      <trkpt lat="63.45499" lon="10.20413">
        <time>2020-07-15T11:46:49.538Z</time>
      </trkpt>
      <trkpt lat="63.45564" lon="10.20394">
        <time>2020-07-15T11:46:58.700Z</time>
      </trkpt>
      <trkpt lat="63.4561" lon="10.20377">
        <time>2020-07-15T11:47:05.202Z</time>
      </trkpt>
      <trkpt lat="63.45802" lon="10.20273">
        <time>2020-07-15T11:47:32.705Z</time>
      </trkpt>
      <trkpt lat="63.46359" lon="10.19941">
        <time>2020-07-15T11:48:53.051Z</time>
      </trkpt>
      <trkpt lat="63.50712" lon="10.15117">
        <time>2020-07-15T12:00:09.901Z</time>
      </trkpt>
      <trkpt lat="63.5088" lon="10.14774">
        <ele>0.023639</ele>
        <time>2020-07-15T12:00:41.643Z</time>
      </trkpt>
      <trkpt lat="63.50934" lon="10.14568">
        <ele>0.05872</ele>
        <time>2020-07-15T12:00:56.479Z</time>
      </trkpt>
      <trkpt lat="63.50953" lon="10.14217">
        <ele>1.425343</ele>
        <time>2020-07-15T12:01:18.494Z</time>
      </trkpt>
      <trkpt lat="63.50957" lon="10.14028">
        <ele>4.353462</ele>
        <time>2020-07-15T12:01:30.245Z</time>
      </trkpt>
      <trkpt lat="63.50953" lon="10.13933">
        <ele>6.28165</ele>
        <time>2020-07-15T12:01:43.778Z</time>
      </trkpt>
      <trkpt lat="63.50951" lon="10.13896">
        <ele>7.01751</ele>
        <time>2020-07-15T12:01:49.304Z</time>
      </trkpt>
      <trkpt lat="63.50957" lon="10.13876">
        <ele>7.487271</ele>
        <time>2020-07-15T12:01:53.168Z</time>
      </trkpt>
      <trkpt lat="63.50958" lon="10.1386">
        <ele>7.808995</ele>
        <time>2020-07-15T12:01:55.253Z</time>
      </trkpt>
      <trkpt lat="63.50958" lon="10.1384">
        <ele>8.215793</ele>
        <time>2020-07-15T12:01:58.627Z</time>
      </trkpt>
      <trkpt lat="63.5095" lon="10.13789">
        <ele>9.311792</ele>
        <time>2020-07-15T12:02:07.168Z</time>
      </trkpt>
      <trkpt lat="63.50905" lon="10.13542">
        <ele>17.317973</ele>
        <time>2020-07-15T12:02:55.767Z</time>
      </trkpt>
      <trkpt lat="63.50864" lon="10.13407">
        <ele>22.226161</ele>
        <time>2020-07-15T12:03:25.110Z</time>
      </trkpt>
      <trkpt lat="63.50852" lon="10.13373">
        <ele>22.787912</ele>
        <time>2020-07-15T12:03:33.702Z</time>
      </trkpt>
      <trkpt lat="63.50846" lon="10.1336">
        <ele>23.024926</ele>
        <time>2020-07-15T12:03:37.248Z</time>
      </trkpt>
      <trkpt lat="63.50797" lon="10.13285">
        <ele>24.753361</ele>
        <time>2020-07-15T12:03:57.638Z</time>
      </trkpt>
      <trkpt lat="63.50792" lon="10.13264">
        <ele>25.045959</ele>
        <time>2020-07-15T12:03:59.451Z</time>
      </trkpt>
      <trkpt lat="63.50793" lon="10.13244">
        <ele>25.317788</ele>
        <time>2020-07-15T12:04:01.230Z</time>
      </trkpt>
      <trkpt lat="63.50795" lon="10.13232">
        <ele>25.476082</ele>
        <time>2020-07-15T12:04:03.837Z</time>
      </trkpt>
      <trkpt lat="63.50795" lon="10.13209">
        <ele>25.769167</ele>
        <time>2020-07-15T12:04:06.852Z</time>
      </trkpt>
      <trkpt lat="63.50782" lon="10.13192">
        <ele>26.228353</ele>
        <time>2020-07-15T12:04:09.211Z</time>
      </trkpt>
      <trkpt lat="63.50752" lon="10.13162">
        <ele>27.163655</ele>
        <time>2020-07-15T12:04:15.823Z</time>
      </trkpt>
      <trkpt lat="63.5073" lon="10.13151">
        <ele>26.435431</ele>
        <time>2020-07-15T12:04:19.993Z</time>
      </trkpt>
      <trkpt lat="63.50716" lon="10.13139">
        <ele>25.529718</ele>
        <time>2020-07-15T12:04:21.721Z</time>
      </trkpt>
      <trkpt lat="63.5056" lon="10.13075">
        <ele>15.982407</ele>
        <time>2020-07-15T12:04:39.831Z</time>
      </trkpt>
      <trkpt lat="63.50507" lon="10.13045">
        <ele>12.698432</ele>
        <time>2020-07-15T12:04:46.031Z</time>
      </trkpt>
      <trkpt lat="63.50483" lon="10.13024">
        <ele>11.164022</ele>
        <time>2020-07-15T12:04:48.951Z</time>
      </trkpt>
      <trkpt lat="63.50429" lon="10.1297">
        <ele>7.595455</ele>
        <time>2020-07-15T12:04:56.032Z</time>
      </trkpt>
      <trkpt lat="63.50388" lon="10.12919">
        <ele>5.552691</ele>
        <time>2020-07-15T12:05:01.894Z</time>
      </trkpt>
      <trkpt lat="63.50351" lon="10.12859">
        <ele>4.999077</ele>
        <time>2020-07-15T12:05:08.196Z</time>
      </trkpt>
      <trkpt lat="63.50286" lon="10.12716">
        <ele>3.90178</ele>
        <time>2020-07-15T12:05:24.026Z</time>
      </trkpt>
      <trkpt lat="63.50285" lon="10.12714">
        <ele>3.888109</ele>
        <time>2020-07-15T12:05:24.276Z</time>
      </trkpt>
      <trkpt lat="63.5024" lon="10.12605">
        <ele>3.743301</ele>
        <time>2020-07-15T12:05:36.930Z</time>
      </trkpt>
      <trkpt lat="63.50165" lon="10.1241">
        <ele>4.210509</ele>
        <time>2020-07-15T12:05:59.183Z</time>
      </trkpt>
      <trkpt lat="63.50107" lon="10.12244">
        <ele>4.997784</ele>
        <time>2020-07-15T12:06:17.118Z</time>
      </trkpt>
      <trkpt lat="63.50045" lon="10.12119">
        <ele>5.831611</ele>
        <time>2020-07-15T12:06:34.681Z</time>
      </trkpt>
      <trkpt lat="63.50041" lon="10.12107">
        <ele>5.899554</ele>
        <time>2020-07-15T12:06:35.918Z</time>
      </trkpt>
      <trkpt lat="63.50035" lon="10.12089">
        <ele>5.993659</ele>
        <time>2020-07-15T12:06:38.612Z</time>
      </trkpt>
      <trkpt lat="63.49971" lon="10.1176">
        <ele>9.362263</ele>
        <time>2020-07-15T12:07:18.780Z</time>
      </trkpt>
      <trkpt lat="63.49871" lon="10.11318">
        <ele>14.410376</ele>
        <time>2020-07-15T12:08:14.902Z</time>
      </trkpt>
      <trkpt lat="63.4977" lon="10.10938">
        <ele>18.932254</ele>
        <time>2020-07-15T12:09:02.676Z</time>
      </trkpt>
      <trkpt lat="63.49735" lon="10.10758">
        <ele>21.784625</ele>
        <time>2020-07-15T12:09:27.938Z</time>
      </trkpt>
      <trkpt lat="63.4971" lon="10.10587">
        <ele>24.487025</ele>
        <time>2020-07-15T12:09:51.606Z</time>
      </trkpt>
      <trkpt lat="63.49709" lon="10.10575">
        <ele>24.704021</ele>
        <time>2020-07-15T12:09:54.020Z</time>
      </trkpt>
      <trkpt lat="63.49703" lon="10.1052">
        <ele>25.646222</ele>
        <time>2020-07-15T12:10:00.960Z</time>
      </trkpt>
      <trkpt lat="63.49673" lon="10.10171">
        <ele>31.817897</ele>
        <time>2020-07-15T12:10:49.033Z</time>
      </trkpt>
      <trkpt lat="63.49671" lon="10.10139">
        <ele>32.456174</ele>
        <time>2020-07-15T12:10:53.002Z</time>
      </trkpt>
      <trkpt lat="63.49666" lon="10.10079">
        <ele>33.634501</ele>
        <time>2020-07-15T12:11:01.033Z</time>
      </trkpt>
      <trkpt lat="63.49665" lon="10.09962">
        <ele>35.914528</ele>
        <time>2020-07-15T12:11:17.424Z</time>
      </trkpt>
      <trkpt lat="63.49678" lon="10.09851">
        <ele>38.152421</ele>
        <time>2020-07-15T12:11:34.503Z</time>
      </trkpt>
      <trkpt lat="63.49699" lon="10.09719">
        <ele>41.391418</ele>
        <time>2020-07-15T12:11:57.470Z</time>
      </trkpt>
      <trkpt lat="63.4972" lon="10.09573">
        <ele>45.046015</ele>
        <time>2020-07-15T12:12:21.461Z</time>
      </trkpt>
      <trkpt lat="63.49727" lon="10.09515">
        <ele>46.468047</ele>
        <time>2020-07-15T12:12:30.112Z</time>
      </trkpt>
      <trkpt lat="63.4973" lon="10.09492">
        <ele>47.023727</ele>
        <time>2020-07-15T12:12:34.280Z</time>
      </trkpt>
      <trkpt lat="63.49736" lon="10.0943">
        <ele>48.603924</ele>
        <time>2020-07-15T12:12:43.496Z</time>
      </trkpt>
      <trkpt lat="63.49745" lon="10.09211">
        <ele>54.56856</ele>
        <time>2020-07-15T12:13:18.501Z</time>
      </trkpt>
      <trkpt lat="63.49749" lon="10.09119">
        <ele>57.067383</ele>
        <time>2020-07-15T12:13:33.211Z</time>
      </trkpt>
      <trkpt lat="63.49752" lon="10.09074">
        <ele>58.308653</ele>
        <time>2020-07-15T12:13:40.393Z</time>
      </trkpt>
      <trkpt lat="63.49754" lon="10.09029">
        <ele>59.943288</ele>
        <time>2020-07-15T12:13:49.892Z</time>
      </trkpt>
      <trkpt lat="63.49773" lon="10.08777">
        <ele>71.942172</ele>
        <time>2020-07-15T12:14:45.738Z</time>
      </trkpt>
      <trkpt lat="63.49778" lon="10.08735">
        <ele>74.012366</ele>
        <time>2020-07-15T12:14:56.690Z</time>
      </trkpt>
      <trkpt lat="63.49782" lon="10.08709">
        <ele>75.306544</ele>
        <time>2020-07-15T12:15:05.598Z</time>
      </trkpt>
      <trkpt lat="63.49793" lon="10.08655">
        <ele>78.106211</ele>
        <time>2020-07-15T12:15:20.258Z</time>
      </trkpt>
      <trkpt lat="63.4982" lon="10.08575">
        <ele>84.995771</ele>
        <time>2020-07-15T12:15:48.966Z</time>
      </trkpt>
      <trkpt lat="63.49837" lon="10.08534">
        <ele>88.823106</ele>
        <time>2020-07-15T12:16:03.982Z</time>
      </trkpt>
      <trkpt lat="63.4985" lon="10.08505">
        <ele>91.582212</ele>
        <time>2020-07-15T12:16:17.778Z</time>
      </trkpt>
      <trkpt lat="63.49913" lon="10.08351">
        <ele>105.752868</ele>
        <time>2020-07-15T12:17:24.161Z</time>
      </trkpt>
      <trkpt lat="63.49936" lon="10.08259">
        <ele>111.307745</ele>
        <time>2020-07-15T12:17:56.156Z</time>
      </trkpt>
      <trkpt lat="63.4994" lon="10.0823">
        <ele>112.881345</ele>
        <time>2020-07-15T12:18:05.494Z</time>
      </trkpt>
      <trkpt lat="63.49943" lon="10.08203">
        <ele>114.345013</ele>
        <time>2020-07-15T12:18:12.031Z</time>
      </trkpt>
      <trkpt lat="63.49945" lon="10.0816">
        <ele>116.612536</ele>
        <time>2020-07-15T12:18:22.173Z</time>
      </trkpt>
      <trkpt lat="63.49951" lon="10.0805">
        <ele>122.362822</ele>
        <time>2020-07-15T12:18:47.180Z</time>
      </trkpt>
      <trkpt lat="63.49954" lon="10.08005">
        <ele>124.785912</ele>
        <time>2020-07-15T12:18:56.455Z</time>
      </trkpt>
      <trkpt lat="63.49956" lon="10.07946">
        <ele>127.022533</ele>
        <time>2020-07-15T12:19:07.854Z</time>
      </trkpt>
      <trkpt lat="63.49961" lon="10.07853">
        <ele>128.655665</ele>
        <time>2020-07-15T12:19:24.455Z</time>
      </trkpt>
      <trkpt lat="63.49965" lon="10.07775">
        <ele>130.036999</ele>
        <time>2020-07-15T12:19:34.430Z</time>
      </trkpt>
      <trkpt lat="63.49969" lon="10.07687">
        <ele>131.595594</ele>
        <time>2020-07-15T12:19:44.563Z</time>
      </trkpt>
      <trkpt lat="63.49973" lon="10.07591">
        <ele>133.295589</ele>
        <time>2020-07-15T12:19:54.317Z</time>
      </trkpt>
      <trkpt lat="63.49983" lon="10.07409">
        <ele>134.811369</ele>
        <time>2020-07-15T12:20:12.354Z</time>
      </trkpt>
      <trkpt lat="63.49998" lon="10.07235">
        <ele>136.04927</ele>
        <time>2020-07-15T12:20:29.666Z</time>
      </trkpt>
      <trkpt lat="63.50003" lon="10.07204">
        <ele>136.279145</ele>
        <time>2020-07-15T12:20:32.905Z</time>
      </trkpt>
      <trkpt lat="63.50007" lon="10.07181">
        <ele>136.454541</ele>
        <time>2020-07-15T12:20:35.629Z</time>
      </trkpt>
      <trkpt lat="63.50088" lon="10.06859">
        <ele>141.531532</ele>
        <time>2020-07-15T12:21:20.128Z</time>
      </trkpt>
      <trkpt lat="63.50093" lon="10.06842">
        <ele>141.833583</ele>
        <time>2020-07-15T12:21:23.372Z</time>
      </trkpt>
      <trkpt lat="63.50106" lon="10.06804">
        <ele>142.779872</ele>
        <time>2020-07-15T12:21:30.733Z</time>
      </trkpt>
      <trkpt lat="63.50119" lon="10.06772">
        <ele>143.814279</ele>
        <time>2020-07-15T12:21:37.079Z</time>
      </trkpt>
      <trkpt lat="63.5015" lon="10.067">
        <ele>146.196548</ele>
        <time>2020-07-15T12:21:52.232Z</time>
      </trkpt>
      <trkpt lat="63.50203" lon="10.0658">
        <ele>150.190026</ele>
        <time>2020-07-15T12:22:19.639Z</time>
      </trkpt>
      <trkpt lat="63.50207" lon="10.0657">
        <ele>150.518896</ele>
        <time>2020-07-15T12:22:22.599Z</time>
      </trkpt>
      <trkpt lat="63.50248" lon="10.06473">
        <ele>153.446762</ele>
        <time>2020-07-15T12:22:43.896Z</time>
      </trkpt>
      <trkpt lat="63.50259" lon="10.0645">
        <ele>154.139697</ele>
        <time>2020-07-15T12:22:49.938Z</time>
      </trkpt>
      <trkpt lat="63.50315" lon="10.0632">
        <ele>157.876017</ele>
        <time>2020-07-15T12:23:16.573Z</time>
      </trkpt>
      <trkpt lat="63.50322" lon="10.06303">
        <ele>158.341568</ele>
        <time>2020-07-15T12:23:19.886Z</time>
      </trkpt>
      <trkpt lat="63.50418" lon="10.06078">
        <ele>161.202132</ele>
        <time>2020-07-15T12:23:56.721Z</time>
      </trkpt>
      <trkpt lat="63.50428" lon="10.06052">
        <ele>161.374055</ele>
        <time>2020-07-15T12:24:00.320Z</time>
      </trkpt>
      <trkpt lat="63.50437" lon="10.06025">
        <ele>161.544366</ele>
        <time>2020-07-15T12:24:02.589Z</time>
      </trkpt>
      <trkpt lat="63.50465" lon="10.05926">
        <ele>161.817844</ele>
        <time>2020-07-15T12:24:10.690Z</time>
      </trkpt>
      <trkpt lat="63.50481" lon="10.05841">
        <ele>159.714883</ele>
        <time>2020-07-15T12:24:16.403Z</time>
      </trkpt>
      <trkpt lat="63.50535" lon="10.05451">
        <ele>150.00743</ele>
        <time>2020-07-15T12:24:37.628Z</time>
      </trkpt>
      <trkpt lat="63.50539" lon="10.05412">
        <ele>148.952387</ele>
        <time>2020-07-15T12:24:39.624Z</time>
      </trkpt>
      <trkpt lat="63.50543" lon="10.05372">
        <ele>147.866253</ele>
        <time>2020-07-15T12:24:41.811Z</time>
      </trkpt>
      <trkpt lat="63.50554" lon="10.05212">
        <ele>143.585891</ele>
        <time>2020-07-15T12:24:50.319Z</time>
      </trkpt>
      <trkpt lat="63.50557" lon="10.05126">
        <ele>141.712893</ele>
        <time>2020-07-15T12:24:54.981Z</time>
      </trkpt>
      <trkpt lat="63.50559" lon="10.05071">
        <ele>140.89458</ele>
        <time>2020-07-15T12:24:58.037Z</time>
      </trkpt>
      <trkpt lat="63.5058" lon="10.04843">
        <ele>137.492323</ele>
        <time>2020-07-15T12:25:12.397Z</time>
      </trkpt>
      <trkpt lat="63.50616" lon="10.04618">
        <ele>133.219258</ele>
        <time>2020-07-15T12:25:26.294Z</time>
      </trkpt>
      <trkpt lat="63.50624" lon="10.04578">
        <ele>132.349107</ele>
        <time>2020-07-15T12:25:28.679Z</time>
      </trkpt>
      <trkpt lat="63.50632" lon="10.04541">
        <ele>131.538612</ele>
        <time>2020-07-15T12:25:30.957Z</time>
      </trkpt>
      <trkpt lat="63.50637" lon="10.04522">
        <ele>131.119105</ele>
        <time>2020-07-15T12:25:32.106Z</time>
      </trkpt>
      <trkpt lat="63.50662" lon="10.04423">
        <ele>128.878424</ele>
        <time>2020-07-15T12:25:38.283Z</time>
      </trkpt>
      <trkpt lat="63.50675" lon="10.04371">
        <ele>127.507272</ele>
        <time>2020-07-15T12:25:41.397Z</time>
      </trkpt>
      <trkpt lat="63.50682" lon="10.04337">
        <ele>126.527153</ele>
        <time>2020-07-15T12:25:43.448Z</time>
      </trkpt>
      <trkpt lat="63.50687" lon="10.04315">
        <ele>125.911304</ele>
        <time>2020-07-15T12:25:44.683Z</time>
      </trkpt>
      <trkpt lat="63.50694" lon="10.04284">
        <ele>125.002552</ele>
        <time>2020-07-15T12:25:46.517Z</time>
      </trkpt>
      <trkpt lat="63.50727" lon="10.04174">
        <ele>121.584518</ele>
        <time>2020-07-15T12:25:53.533Z</time>
      </trkpt>
      <trkpt lat="63.50734" lon="10.04116">
        <ele>120.027872</ele>
        <time>2020-07-15T12:25:56.751Z</time>
      </trkpt>
      <trkpt lat="63.50729" lon="10.03793">
        <ele>109.866158</ele>
        <time>2020-07-15T12:26:13.563Z</time>
      </trkpt>
      <trkpt lat="63.50736" lon="10.03659">
        <ele>105.372609</ele>
        <time>2020-07-15T12:26:20.284Z</time>
      </trkpt>
      <trkpt lat="63.5074" lon="10.03626">
        <ele>104.078083</ele>
        <time>2020-07-15T12:26:21.938Z</time>
      </trkpt>
      <trkpt lat="63.50741" lon="10.03618">
        <ele>103.663048</ele>
        <time>2020-07-15T12:26:22.356Z</time>
      </trkpt>
      <trkpt lat="63.50748" lon="10.03583">
        <ele>101.862235</ele>
        <time>2020-07-15T12:26:24.289Z</time>
      </trkpt>
      <trkpt lat="63.50758" lon="10.03541">
        <ele>99.665967</ele>
        <time>2020-07-15T12:26:26.549Z</time>
      </trkpt>
      <trkpt lat="63.50761" lon="10.03529">
        <ele>99.012144</ele>
        <time>2020-07-15T12:26:27.222Z</time>
      </trkpt>
      <trkpt lat="63.5078" lon="10.03476">
        <ele>95.825059</ele>
        <time>2020-07-15T12:26:30.561Z</time>
      </trkpt>
      <trkpt lat="63.50788" lon="10.03457">
        <ele>94.573726</ele>
        <time>2020-07-15T12:26:31.854Z</time>
      </trkpt>
      <trkpt lat="63.50809" lon="10.03414">
        <ele>91.531177</ele>
        <time>2020-07-15T12:26:34.916Z</time>
      </trkpt>
      <trkpt lat="63.50891" lon="10.0325">
        <ele>79.891597</ele>
        <time>2020-07-15T12:26:46.673Z</time>
      </trkpt>
      <trkpt lat="63.50896" lon="10.03233">
        <ele>78.895646</ele>
        <time>2020-07-15T12:26:47.658Z</time>
      </trkpt>
      <trkpt lat="63.509" lon="10.03223">
        <ele>78.284194</ele>
        <time>2020-07-15T12:26:48.244Z</time>
      </trkpt>
      <trkpt lat="63.50917" lon="10.03064">
        <ele>70.466224</ele>
        <time>2020-07-15T12:26:56.142Z</time>
      </trkpt>
      <trkpt lat="63.50929" lon="10.02999">
        <ele>67.081981</ele>
        <time>2020-07-15T12:26:59.627Z</time>
      </trkpt>
      <trkpt lat="63.50937" lon="10.02968">
        <ele>65.648698</ele>
        <time>2020-07-15T12:27:01.319Z</time>
      </trkpt>
      <trkpt lat="63.50945" lon="10.02941">
        <ele>64.456146</ele>
        <time>2020-07-15T12:27:03.019Z</time>
      </trkpt>
      <trkpt lat="63.51006" lon="10.0274">
        <ele>55.910098</ele>
        <time>2020-07-15T12:27:15.206Z</time>
      </trkpt>
      <trkpt lat="63.51046" lon="10.02483">
        <ele>48.444103</ele>
        <time>2020-07-15T12:27:29.430Z</time>
      </trkpt>
      <trkpt lat="63.51054" lon="10.02445">
        <ele>47.514766</ele>
        <time>2020-07-15T12:27:31.635Z</time>
      </trkpt>
      <trkpt lat="63.51059" lon="10.02418">
        <ele>46.85436</ele>
        <time>2020-07-15T12:27:33.263Z</time>
      </trkpt>
      <trkpt lat="63.51113" lon="10.02229">
        <ele>42.333316</ele>
        <time>2020-07-15T12:27:45.977Z</time>
      </trkpt>
      <trkpt lat="63.5112" lon="10.02204">
        <ele>41.945843</ele>
        <time>2020-07-15T12:27:47.610Z</time>
      </trkpt>
      <trkpt lat="63.51146" lon="10.02112">
        <ele>40.517007</ele>
        <time>2020-07-15T12:27:54.130Z</time>
      </trkpt>
      <trkpt lat="63.51168" lon="10.02043">
        <ele>39.378899</ele>
        <time>2020-07-15T12:27:59.389Z</time>
      </trkpt>
      <trkpt lat="63.51169" lon="10.02042">
        <ele>39.35719</ele>
        <time>2020-07-15T12:27:59.549Z</time>
      </trkpt>
      <trkpt lat="63.51182" lon="10.02017">
        <ele>38.862849</ele>
        <time>2020-07-15T12:28:01.667Z</time>
      </trkpt>
      <trkpt lat="63.51188" lon="10.01988">
        <ele>38.443833</ele>
        <time>2020-07-15T12:28:03.723Z</time>
      </trkpt>
      <trkpt lat="63.51186" lon="10.0197">
        <ele>38.192659</ele>
        <time>2020-07-15T12:28:04.971Z</time>
      </trkpt>
      <trkpt lat="63.5118" lon="10.01959">
        <ele>37.969192</ele>
        <time>2020-07-15T12:28:05.966Z</time>
      </trkpt>
      <trkpt lat="63.51178" lon="10.01957">
        <ele>37.903016</ele>
        <time>2020-07-15T12:28:06.222Z</time>
      </trkpt>
      <trkpt lat="63.51165" lon="10.0196">
        <ele>37.468181</ele>
        <time>2020-07-15T12:28:07.979Z</time>
      </trkpt>
      <trkpt lat="63.51156" lon="10.01956">
        <ele>37.152392</ele>
        <time>2020-07-15T12:28:09.384Z</time>
      </trkpt>
      <trkpt lat="63.51149" lon="10.01953">
        <ele>36.892634</ele>
        <time>2020-07-15T12:28:10.450Z</time>
      </trkpt>
      <trkpt lat="63.51129" lon="10.01927">
        <ele>36.097044</ele>
        <time>2020-07-15T12:28:13.400Z</time>
      </trkpt>
      <trkpt lat="63.51118" lon="10.01907">
        <ele>35.625759</ele>
        <time>2020-07-15T12:28:15.213Z</time>
      </trkpt>
      <trkpt lat="63.51111" lon="10.01893">
        <ele>35.287294</ele>
        <time>2020-07-15T12:28:16.419Z</time>
      </trkpt>
      <trkpt lat="63.5109" lon="10.01841">
        <ele>34.20771</ele>
        <time>2020-07-15T12:28:20.427Z</time>
      </trkpt>
      <trkpt lat="63.51062" lon="10.01732">
        <ele>32.267086</ele>
        <time>2020-07-15T12:28:27.503Z</time>
      </trkpt>
      <trkpt lat="63.51045" lon="10.01691">
        <ele>31.427</ele>
        <time>2020-07-15T12:28:30.745Z</time>
      </trkpt>
      <trkpt lat="63.51045" lon="10.01691">
        <ele>31.40984</ele>
        <time>2020-07-15T12:28:30.798Z</time>
      </trkpt>
      <trkpt lat="63.51042" lon="10.01691">
        <ele>31.301457</ele>
        <time>2020-07-15T12:28:31.253Z</time>
      </trkpt>
      <trkpt lat="63.51038" lon="10.01692">
        <ele>31.168989</ele>
        <time>2020-07-15T12:28:31.810Z</time>
      </trkpt>
      <trkpt lat="63.51034" lon="10.01695">
        <ele>31.028403</ele>
        <time>2020-07-15T12:28:32.303Z</time>
      </trkpt>
      <trkpt lat="63.5099" lon="10.01754">
        <ele>29.311386</ele>
        <time>2020-07-15T12:28:38.831Z</time>
      </trkpt>
      <trkpt lat="63.50955" lon="10.01783">
        <ele>28.030975</ele>
        <time>2020-07-15T12:28:43.751Z</time>
      </trkpt>
      <trkpt lat="63.50917" lon="10.01795">
        <ele>26.73437</ele>
        <time>2020-07-15T12:28:48.736Z</time>
      </trkpt>
      <trkpt lat="63.50868" lon="10.01784">
        <ele>25.17238</ele>
        <time>2020-07-15T12:28:55.202Z</time>
      </trkpt>
      <trkpt lat="63.50862" lon="10.0178">
        <ele>25.027245</ele>
        <time>2020-07-15T12:28:55.919Z</time>
      </trkpt>
      <trkpt lat="63.50852" lon="10.01773">
        <ele>24.766708</ele>
        <time>2020-07-15T12:28:57.283Z</time>
      </trkpt>
      <trkpt lat="63.50829" lon="10.0175">
        <ele>24.138647</ele>
        <time>2020-07-15T12:29:00.730Z</time>
      </trkpt>
      <trkpt lat="63.50796" lon="10.01688">
        <ele>23.062527</ele>
        <time>2020-07-15T12:29:06.540Z</time>
      </trkpt>
      <trkpt lat="63.50764" lon="10.01615">
        <ele>21.913214</ele>
        <time>2020-07-15T12:29:12.886Z</time>
      </trkpt>
      <trkpt lat="63.50748" lon="10.01576">
        <ele>21.308865</ele>
        <time>2020-07-15T12:29:16.195Z</time>
      </trkpt>
      <trkpt lat="63.50729" lon="10.01533">
        <ele>20.768505</ele>
        <time>2020-07-15T12:29:20.022Z</time>
      </trkpt>
      <trkpt lat="63.50721" lon="10.01517">
        <ele>20.612229</ele>
        <time>2020-07-15T12:29:21.518Z</time>
      </trkpt>
      <trkpt lat="63.50708" lon="10.01487">
        <ele>20.327293</ele>
        <time>2020-07-15T12:29:24.247Z</time>
      </trkpt>
      <trkpt lat="63.50669" lon="10.01407">
        <ele>19.516924</ele>
        <time>2020-07-15T12:29:32.060Z</time>
      </trkpt>
      <trkpt lat="63.50666" lon="10.01402">
        <ele>19.466051</ele>
        <time>2020-07-15T12:29:32.545Z</time>
      </trkpt>
      <trkpt lat="63.50628" lon="10.01323">
        <ele>18.671745</ele>
        <time>2020-07-15T12:29:40.423Z</time>
      </trkpt>
      <trkpt lat="63.50557" lon="10.01185">
        <ele>17.425312</ele>
        <time>2020-07-15T12:29:54.478Z</time>
      </trkpt>
      <trkpt lat="63.50491" lon="10.01039">
        <ele>16.262874</ele>
        <time>2020-07-15T12:30:08.503Z</time>
      </trkpt>
      <trkpt lat="63.50454" lon="10.00983">
        <ele>15.771144</ele>
        <time>2020-07-15T12:30:15.373Z</time>
      </trkpt>
      <trkpt lat="63.50399" lon="10.00933">
        <ele>15.207565</ele>
        <time>2020-07-15T12:30:24.419Z</time>
      </trkpt>
      <trkpt lat="63.50314" lon="10.00914">
        <ele>14.380506</ele>
        <time>2020-07-15T12:30:38.008Z</time>
      </trkpt>
      <trkpt lat="63.50282" lon="10.00893">
        <ele>14.047308</ele>
        <time>2020-07-15T12:30:43.208Z</time>
      </trkpt>
      <trkpt lat="63.50274" lon="10.00885">
        <ele>13.949632</ele>
        <time>2020-07-15T12:30:44.544Z</time>
      </trkpt>
      <trkpt lat="63.50252" lon="10.00861">
        <ele>13.695431</ele>
        <time>2020-07-15T12:30:48.515Z</time>
      </trkpt>
      <trkpt lat="63.50205" lon="10.00809">
        <ele>13.144441</ele>
        <time>2020-07-15T12:30:56.529Z</time>
      </trkpt>
      <trkpt lat="63.50187" lon="10.00792">
        <ele>12.939894</ele>
        <time>2020-07-15T12:30:59.651Z</time>
      </trkpt>
      <trkpt lat="63.50176" lon="10.00783">
        <ele>12.822253</ele>
        <time>2020-07-15T12:31:01.242Z</time>
      </trkpt>
      <trkpt lat="63.50145" lon="10.00766">
        <ele>12.48482</ele>
        <time>2020-07-15T12:31:06.171Z</time>
      </trkpt>
      <trkpt lat="63.50118" lon="10.00767">
        <ele>12.134891</ele>
        <time>2020-07-15T12:31:10.276Z</time>
      </trkpt>
      <trkpt lat="63.49976" lon="10.00831">
        <ele>9.991973</ele>
        <time>2020-07-15T12:31:31.522Z</time>
      </trkpt>
      <trkpt lat="63.49909" lon="10.00855">
        <ele>9.218621</ele>
        <time>2020-07-15T12:31:41.493Z</time>
      </trkpt>
      <trkpt lat="63.49889" lon="10.00861">
        <ele>9.020392</ele>
        <time>2020-07-15T12:31:44.503Z</time>
      </trkpt>
      <trkpt lat="63.49877" lon="10.00864">
        <ele>8.89248</ele>
        <time>2020-07-15T12:31:46.393Z</time>
      </trkpt>
      <trkpt lat="63.49854" lon="10.00868">
        <ele>8.666755</ele>
        <time>2020-07-15T12:31:49.925Z</time>
      </trkpt>
      <trkpt lat="63.49814" lon="10.0087">
        <ele>8.261348</ele>
        <time>2020-07-15T12:31:56.300Z</time>
      </trkpt>
      <trkpt lat="63.49803" lon="10.00868">
        <ele>8.148905</ele>
        <time>2020-07-15T12:31:58.038Z</time>
      </trkpt>
      <trkpt lat="63.4978" lon="10.00862">
        <ele>7.912473</ele>
        <time>2020-07-15T12:32:02.002Z</time>
      </trkpt>
      <trkpt lat="63.49773" lon="10.0086">
        <ele>7.923418</ele>
        <time>2020-07-15T12:32:03.100Z</time>
      </trkpt>
      <trkpt lat="63.49771" lon="10.00859">
        <ele>7.927501</ele>
        <time>2020-07-15T12:32:03.364Z</time>
      </trkpt>
      <trkpt lat="63.49767" lon="10.00855">
        <ele>7.938161</ele>
        <time>2020-07-15T12:32:04.095Z</time>
      </trkpt>
      <trkpt lat="63.49757" lon="10.00848">
        <ele>7.965926</ele>
        <time>2020-07-15T12:32:06.026Z</time>
      </trkpt>
      <trkpt lat="63.49755" lon="10.00843">
        <ele>7.973225</ele>
        <time>2020-07-15T12:32:06.539Z</time>
      </trkpt>
      <trkpt lat="63.49753" lon="10.00841">
        <ele>7.978341</ele>
        <time>2020-07-15T12:32:06.904Z</time>
      </trkpt>
      <trkpt lat="63.49753" lon="10.00838">
        <ele>7.98078</ele>
        <time>2020-07-15T12:32:07.162Z</time>
      </trkpt>
      <trkpt lat="63.49751" lon="10.00808">
        <ele>8.015122</ele>
        <time>2020-07-15T12:32:09.495Z</time>
      </trkpt>
      <trkpt lat="63.49751" lon="10.00792">
        <ele>8.031997</ele>
        <time>2020-07-15T12:32:10.727Z</time>
      </trkpt>
      <trkpt lat="63.49753" lon="10.00734">
        <ele>8.09682</ele>
        <time>2020-07-15T12:32:15.463Z</time>
      </trkpt>
      <trkpt lat="63.49767" lon="10.00346">
        <ele>8.678475</ele>
        <time>2020-07-15T12:32:49.942Z</time>
      </trkpt>
      <trkpt lat="63.49774" lon="10.00128">
        <ele>9.127921</ele>
        <time>2020-07-15T12:33:08.779Z</time>
      </trkpt>
      <trkpt lat="63.49779" lon="10.00029">
        <ele>9.007125</ele>
        <time>2020-07-15T12:33:16.835Z</time>
      </trkpt>
      <trkpt lat="63.49783" lon="9.99945">
        <ele>8.800241</ele>
        <time>2020-07-15T12:33:23.329Z</time>
      </trkpt>
      <trkpt lat="63.49785" lon="9.99913">
        <ele>8.719318</ele>
        <time>2020-07-15T12:33:25.583Z</time>
      </trkpt>
      <trkpt lat="63.49805" lon="9.99651">
        <ele>8.039329</ele>
        <time>2020-07-15T12:33:44.251Z</time>
      </trkpt>
      <trkpt lat="63.49814" lon="9.99557">
        <ele>7.754292</ele>
        <time>2020-07-15T12:33:50.791Z</time>
      </trkpt>
      <trkpt lat="63.49825" lon="9.99459">
        <ele>7.455762</ele>
        <time>2020-07-15T12:33:58.008Z</time>
      </trkpt>
      <trkpt lat="63.49831" lon="9.99406">
        <ele>7.293802</ele>
        <time>2020-07-15T12:34:01.975Z</time>
      </trkpt>
      <trkpt lat="63.49833" lon="9.99393">
        <ele>7.252654</ele>
        <time>2020-07-15T12:34:03.006Z</time>
      </trkpt>
      <trkpt lat="63.49834" lon="9.99381">
        <ele>7.217865</ele>
        <time>2020-07-15T12:34:03.886Z</time>
      </trkpt>
      <trkpt lat="63.49847" lon="9.99281">
        <ele>7.020497</ele>
        <time>2020-07-15T12:34:11.789Z</time>
      </trkpt>
      <trkpt lat="63.49873" lon="9.99108">
        <ele>7.148235</ele>
        <time>2020-07-15T12:34:26.538Z</time>
      </trkpt>
      <trkpt lat="63.49886" lon="9.99032">
        <ele>7.204575</ele>
        <time>2020-07-15T12:34:33.396Z</time>
      </trkpt>
      <trkpt lat="63.49889" lon="9.99011">
        <ele>7.220411</ele>
        <time>2020-07-15T12:34:35.281Z</time>
      </trkpt>
      <trkpt lat="63.49968" lon="9.98546">
        <ele>8.032488</ele>
        <time>2020-07-15T12:35:18.159Z</time>
      </trkpt>
      <trkpt lat="63.49981" lon="9.98469">
        <ele>8.072682</ele>
        <time>2020-07-15T12:35:24.947Z</time>
      </trkpt>
      <trkpt lat="63.49986" lon="9.98434">
        <ele>8.090977</ele>
        <time>2020-07-15T12:35:28.035Z</time>
      </trkpt>
      <trkpt lat="63.49991" lon="9.98394">
        <ele>8.111477</ele>
        <time>2020-07-15T12:35:31.307Z</time>
      </trkpt>
      <trkpt lat="63.50009" lon="9.98232">
        <ele>8.193471</ele>
        <time>2020-07-15T12:35:44.550Z</time>
      </trkpt>
      <trkpt lat="63.50017" lon="9.98104">
        <ele>8.399118</ele>
        <time>2020-07-15T12:35:54.936Z</time>
      </trkpt>
      <trkpt lat="63.5002" lon="9.98055">
        <ele>8.538743</ele>
        <time>2020-07-15T12:35:58.960Z</time>
      </trkpt>
      <trkpt lat="63.50021" lon="9.9802">
        <ele>8.637331</ele>
        <time>2020-07-15T12:36:01.892Z</time>
      </trkpt>
      <trkpt lat="63.50022" lon="9.97975">
        <ele>8.763284</ele>
        <time>2020-07-15T12:36:05.700Z</time>
      </trkpt>
      <trkpt lat="63.50027" lon="9.97733">
        <ele>9.66962</ele>
        <time>2020-07-15T12:36:27.666Z</time>
      </trkpt>
      <trkpt lat="63.50033" lon="9.97388">
        <ele>13.180902</ele>
        <time>2020-07-15T12:37:06.657Z</time>
      </trkpt>
      <trkpt lat="63.50035" lon="9.97325">
        <ele>14.073029</ele>
        <time>2020-07-15T12:37:14.576Z</time>
      </trkpt>
      <trkpt lat="63.50043" lon="9.96814">
        <ele>23.298909</ele>
        <time>2020-07-15T12:38:24.848Z</time>
      </trkpt>
      <trkpt lat="63.50043" lon="9.96784">
        <ele>23.91812</ele>
        <time>2020-07-15T12:38:29.486Z</time>
      </trkpt>
      <trkpt lat="63.50046" lon="9.96697">
        <ele>25.72162</ele>
        <time>2020-07-15T12:38:42.126Z</time>
      </trkpt>
      <trkpt lat="63.50048" lon="9.96351">
        <ele>33.472106</ele>
        <time>2020-07-15T12:39:35.201Z</time>
      </trkpt>
      <trkpt lat="63.50048" lon="9.96302">
        <ele>34.63262</ele>
        <time>2020-07-15T12:39:42.724Z</time>
      </trkpt>
      <trkpt lat="63.50048" lon="9.96302">
        <ele>34.63262</ele>
        <time>2020-07-15T12:39:42.837Z</time>
      </trkpt>
      <trkpt lat="63.50048" lon="9.96302">
        <ele>34.63262</ele>
        <time>2020-07-15T12:39:42.852Z</time>
      </trkpt>
      <trkpt lat="63.50047" lon="9.96176">
        <ele>37.610795</ele>
        <time>2020-07-15T12:40:01.902Z</time>
      </trkpt>
      <trkpt lat="63.50044" lon="9.96042">
        <ele>41.009546</ele>
        <time>2020-07-15T12:40:24.368Z</time>
      </trkpt>
      <trkpt lat="63.50044" lon="9.96009">
        <ele>41.873238</ele>
        <time>2020-07-15T12:40:30.482Z</time>
      </trkpt>
      <trkpt lat="63.50041" lon="9.95862">
        <ele>45.647278</ele>
        <time>2020-07-15T12:40:54.587Z</time>
      </trkpt>
      <trkpt lat="63.50039" lon="9.95777">
        <ele>47.858668</ele>
        <time>2020-07-15T12:41:08.136Z</time>
      </trkpt>
      <trkpt lat="63.50038" lon="9.95708">
        <ele>49.379646</ele>
        <time>2020-07-15T12:41:19.163Z</time>
      </trkpt>
      <trkpt lat="63.50041" lon="9.95519">
        <ele>53.046257</ele>
        <time>2020-07-15T12:41:47.246Z</time>
      </trkpt>
      <trkpt lat="63.50052" lon="9.95387">
        <ele>55.652622</ele>
        <time>2020-07-15T12:42:04.885Z</time>
      </trkpt>
      <trkpt lat="63.50071" lon="9.95262">
        <ele>57.834788</ele>
        <time>2020-07-15T12:42:20.896Z</time>
      </trkpt>
      <trkpt lat="63.50103" lon="9.95129">
        <ele>60.118071</ele>
        <time>2020-07-15T12:42:40.403Z</time>
      </trkpt>
      <trkpt lat="63.50109" lon="9.95109">
        <ele>60.487306</ele>
        <time>2020-07-15T12:42:43.643Z</time>
      </trkpt>
      <trkpt lat="63.50138" lon="9.95005">
        <ele>62.334752</ele>
        <time>2020-07-15T12:42:59.211Z</time>
      </trkpt>
      <trkpt lat="63.50161" lon="9.94926">
        <ele>63.912312</ele>
        <time>2020-07-15T12:43:11.591Z</time>
      </trkpt>
      <trkpt lat="63.50207" lon="9.94763">
        <ele>67.226395</ele>
        <time>2020-07-15T12:43:38.345Z</time>
      </trkpt>
      <trkpt lat="63.50427" lon="9.94001">
        <ele>82.784331</ele>
        <time>2020-07-15T12:45:38.606Z</time>
      </trkpt>
      <trkpt lat="63.50497" lon="9.9381">
        <ele>88.751329</ele>
        <time>2020-07-15T12:46:17.752Z</time>
      </trkpt>
      <trkpt lat="63.50559" lon="9.93687">
        <ele>93.349467</ele>
        <time>2020-07-15T12:46:48.668Z</time>
      </trkpt>
      <trkpt lat="63.5063" lon="9.93595">
        <ele>97.825802</ele>
        <time>2020-07-15T12:47:18.732Z</time>
      </trkpt>
      <trkpt lat="63.50686" lon="9.93552">
        <ele>101.039073</ele>
        <time>2020-07-15T12:47:39.318Z</time>
      </trkpt>
      <trkpt lat="63.50729" lon="9.93534">
        <ele>103.341858</ele>
        <time>2020-07-15T12:47:53.857Z</time>
      </trkpt>
      <trkpt lat="63.50883" lon="9.93499">
        <ele>110.354611</ele>
        <time>2020-07-15T12:48:43.289Z</time>
      </trkpt>
      <trkpt lat="63.50993" lon="9.93443">
        <ele>115.442161</ele>
        <time>2020-07-15T12:49:20.284Z</time>
      </trkpt>
      <trkpt lat="63.50995" lon="9.93442">
        <ele>115.549437</ele>
        <time>2020-07-15T12:49:21.474Z</time>
      </trkpt>
      <trkpt lat="63.51033" lon="9.93421">
        <ele>117.304871</ele>
        <time>2020-07-15T12:49:34.066Z</time>
      </trkpt>
      <trkpt lat="63.51129" lon="9.93364">
        <ele>120.747067</ele>
        <time>2020-07-15T12:50:04.694Z</time>
      </trkpt>
      <trkpt lat="63.51188" lon="9.93305">
        <ele>122.4358</ele>
        <time>2020-07-15T12:50:22.327Z</time>
      </trkpt>
      <trkpt lat="63.51227" lon="9.93241">
        <ele>123.709996</ele>
        <time>2020-07-15T12:50:33.347Z</time>
      </trkpt>
      <trkpt lat="63.5133" lon="9.93025">
        <ele>124.346754</ele>
        <time>2020-07-15T12:51:00.012Z</time>
      </trkpt>
      <trkpt lat="63.51368" lon="9.92957">
        <ele>124.467502</ele>
        <time>2020-07-15T12:51:08.068Z</time>
      </trkpt>
      <trkpt lat="63.51444" lon="9.92859">
        <ele>124.357571</ele>
        <time>2020-07-15T12:51:22.947Z</time>
      </trkpt>
      <trkpt lat="63.51516" lon="9.92814">
        <ele>124.256234</ele>
        <time>2020-07-15T12:51:35.647Z</time>
      </trkpt>
      <trkpt lat="63.51672" lon="9.92777">
        <ele>125.663896</ele>
        <time>2020-07-15T12:52:06.469Z</time>
      </trkpt>
      <trkpt lat="63.51811" lon="9.92686">
        <ele>129.213936</ele>
        <time>2020-07-15T12:52:44.319Z</time>
      </trkpt>
      <trkpt lat="63.51882" lon="9.92681">
        <ele>131.36085</ele>
        <time>2020-07-15T12:53:05.685Z</time>
      </trkpt>
      <trkpt lat="63.51918" lon="9.92694">
        <ele>132.527169</ele>
        <time>2020-07-15T12:53:16.511Z</time>
      </trkpt>
      <trkpt lat="63.51959" lon="9.92722">
        <ele>133.927498</ele>
        <time>2020-07-15T12:53:29.293Z</time>
      </trkpt>
      <trkpt lat="63.52003" lon="9.92774">
        <ele>135.586437</ele>
        <time>2020-07-15T12:53:44.019Z</time>
      </trkpt>
      <trkpt lat="63.52102" lon="9.92913">
        <ele>138.521348</ele>
        <time>2020-07-15T12:54:14.139Z</time>
      </trkpt>
      <trkpt lat="63.52232" lon="9.93032">
        <ele>140.689654</ele>
        <time>2020-07-15T12:54:45.568Z</time>
      </trkpt>
      <trkpt lat="63.52234" lon="9.93033">
        <ele>140.692706</ele>
        <time>2020-07-15T12:54:46.321Z</time>
      </trkpt>
      <trkpt lat="63.52244" lon="9.93044">
        <ele>140.705935</ele>
        <time>2020-07-15T12:54:48.571Z</time>
      </trkpt>
      <trkpt lat="63.52328" lon="9.93126">
        <ele>140.819439</ele>
        <time>2020-07-15T12:55:06.966Z</time>
      </trkpt>
      <trkpt lat="63.52392" lon="9.93229">
        <ele>139.887527</ele>
        <time>2020-07-15T12:55:18.769Z</time>
      </trkpt>
      <trkpt lat="63.52414" lon="9.93266">
        <ele>138.698457</ele>
        <time>2020-07-15T12:55:22.428Z</time>
      </trkpt>
      <trkpt lat="63.52426" lon="9.93284">
        <ele>138.095118</ele>
        <time>2020-07-15T12:55:24.305Z</time>
      </trkpt>
      <trkpt lat="63.52453" lon="9.93321">
        <ele>136.709147</ele>
        <time>2020-07-15T12:55:28.420Z</time>
      </trkpt>
      <trkpt lat="63.52457" lon="9.93325">
        <ele>136.550994</ele>
        <time>2020-07-15T12:55:28.872Z</time>
      </trkpt>
      <trkpt lat="63.52473" lon="9.9334">
        <ele>135.812498</ele>
        <time>2020-07-15T12:55:30.955Z</time>
      </trkpt>
      <trkpt lat="63.52502" lon="9.93359">
        <ele>134.488021</ele>
        <time>2020-07-15T12:55:34.492Z</time>
      </trkpt>
      <trkpt lat="63.5254" lon="9.93368">
        <ele>132.851664</ele>
        <time>2020-07-15T12:55:38.834Z</time>
      </trkpt>
      <trkpt lat="63.52575" lon="9.93356">
        <ele>131.177538</ele>
        <time>2020-07-15T12:55:42.970Z</time>
      </trkpt>
      <trkpt lat="63.52622" lon="9.9332">
        <ele>128.867509</ele>
        <time>2020-07-15T12:55:48.846Z</time>
      </trkpt>
      <trkpt lat="63.52637" lon="9.93303">
        <ele>128.050914</ele>
        <time>2020-07-15T12:55:50.823Z</time>
      </trkpt>
      <trkpt lat="63.52666" lon="9.93266">
        <ele>126.485388</ele>
        <time>2020-07-15T12:55:54.989Z</time>
      </trkpt>
      <trkpt lat="63.52677" lon="9.9325">
        <ele>125.863429</ele>
        <time>2020-07-15T12:55:56.779Z</time>
      </trkpt>
      <trkpt lat="63.52684" lon="9.93238">
        <ele>125.483243</ele>
        <time>2020-07-15T12:55:57.998Z</time>
      </trkpt>
      <trkpt lat="63.52917" lon="9.92905">
        <ele>124.294236</ele>
        <time>2020-07-15T12:56:42.995Z</time>
      </trkpt>
      <trkpt lat="63.53008" lon="9.92778">
        <ele>125.942174</ele>
        <time>2020-07-15T12:57:11.150Z</time>
      </trkpt>
      <trkpt lat="63.53039" lon="9.92734">
        <ele>127.436056</ele>
        <time>2020-07-15T12:57:22.159Z</time>
      </trkpt>
      <trkpt lat="63.53095" lon="9.92661">
        <ele>130.076337</ele>
        <time>2020-07-15T12:57:42.879Z</time>
      </trkpt>
      <trkpt lat="63.53131" lon="9.92633">
        <ele>131.643257</ele>
        <time>2020-07-15T12:57:56.239Z</time>
      </trkpt>
      <trkpt lat="63.53183" lon="9.92619">
        <ele>133.130408</ele>
        <time>2020-07-15T12:58:13.744Z</time>
      </trkpt>
      <trkpt lat="63.53265" lon="9.92634">
        <ele>133.882891</ele>
        <time>2020-07-15T12:58:32.603Z</time>
      </trkpt>
      <trkpt lat="63.53302" lon="9.92632">
        <ele>134.22714</ele>
        <time>2020-07-15T12:58:39.002Z</time>
      </trkpt>
      <trkpt lat="63.53312" lon="9.92632">
        <ele>134.318261</ele>
        <time>2020-07-15T12:58:40.435Z</time>
      </trkpt>
      <trkpt lat="63.53367" lon="9.92636">
        <ele>133.730169</ele>
        <time>2020-07-15T12:58:48.350Z</time>
      </trkpt>
      <trkpt lat="63.53483" lon="9.92627">
        <ele>129.758071</ele>
        <time>2020-07-15T12:59:03.026Z</time>
      </trkpt>
      <trkpt lat="63.53653" lon="9.92635">
        <ele>123.196312</ele>
        <time>2020-07-15T12:59:24.196Z</time>
      </trkpt>
      <trkpt lat="63.53673" lon="9.92635">
        <ele>122.399323</ele>
        <time>2020-07-15T12:59:26.733Z</time>
      </trkpt>
      <trkpt lat="63.53689" lon="9.92633">
        <ele>121.736113</ele>
        <time>2020-07-15T12:59:28.917Z</time>
      </trkpt>
      <trkpt lat="63.53795" lon="9.92583">
        <ele>117.816334</ele>
        <time>2020-07-15T12:59:42.908Z</time>
      </trkpt>
      <trkpt lat="63.53831" lon="9.92582">
        <ele>116.489016</ele>
        <time>2020-07-15T12:59:47.653Z</time>
      </trkpt>
      <trkpt lat="63.53872" lon="9.92587">
        <ele>115.026413</ele>
        <time>2020-07-15T12:59:52.931Z</time>
      </trkpt>
      <trkpt lat="63.53934" lon="9.92595">
        <ele>111.217706</ele>
        <time>2020-07-15T13:00:00.687Z</time>
      </trkpt>
      <trkpt lat="63.54005" lon="9.9258">
        <ele>106.611507</ele>
        <time>2020-07-15T13:00:08.889Z</time>
      </trkpt>
      <trkpt lat="63.54101" lon="9.92619">
        <ele>97.874056</ele>
        <time>2020-07-15T13:00:19.855Z</time>
      </trkpt>
      <trkpt lat="63.54115" lon="9.92621">
        <ele>96.26163</ele>
        <time>2020-07-15T13:00:21.284Z</time>
      </trkpt>
      <trkpt lat="63.54157" lon="9.92622">
        <ele>91.13341</ele>
        <time>2020-07-15T13:00:25.851Z</time>
      </trkpt>
      <trkpt lat="63.54222" lon="9.92627">
        <ele>83.310544</ele>
        <time>2020-07-15T13:00:32.710Z</time>
      </trkpt>
      <trkpt lat="63.54228" lon="9.92628">
        <ele>82.684949</ele>
        <time>2020-07-15T13:00:33.247Z</time>
      </trkpt>
      <trkpt lat="63.54267" lon="9.92631">
        <ele>76.237528</ele>
        <time>2020-07-15T13:00:37.324Z</time>
      </trkpt>
      <trkpt lat="63.54336" lon="9.9264">
        <ele>63.996728</ele>
        <time>2020-07-15T13:00:44.445Z</time>
      </trkpt>
      <trkpt lat="63.54354" lon="9.92641">
        <ele>60.881513</ele>
        <time>2020-07-15T13:00:46.235Z</time>
      </trkpt>
      <trkpt lat="63.54372" lon="9.9264">
        <ele>57.625086</ele>
        <time>2020-07-15T13:00:48.126Z</time>
      </trkpt>
      <trkpt lat="63.54429" lon="9.92632">
        <ele>47.766219</ele>
        <time>2020-07-15T13:00:53.974Z</time>
      </trkpt>
      <trkpt lat="63.54482" lon="9.92627">
        <ele>39.605041</ele>
        <time>2020-07-15T13:00:59.403Z</time>
      </trkpt>
      <trkpt lat="63.54546" lon="9.92616">
        <ele>29.748091</ele>
        <time>2020-07-15T13:01:06.047Z</time>
      </trkpt>
      <trkpt lat="63.54585" lon="9.9261">
        <ele>23.70557</ele>
        <time>2020-07-15T13:01:10.188Z</time>
      </trkpt>
      <trkpt lat="63.5459" lon="9.92609">
        <ele>22.919432</ele>
        <time>2020-07-15T13:01:10.729Z</time>
      </trkpt>
      <trkpt lat="63.54598" lon="9.92607">
        <ele>21.862862</ele>
        <time>2020-07-15T13:01:11.629Z</time>
      </trkpt>
      <trkpt lat="63.54622" lon="9.926">
        <ele>20.184778</ele>
        <time>2020-07-15T13:01:14.214Z</time>
      </trkpt>
      <trkpt lat="63.5465" lon="9.92594">
        <ele>18.2047</ele>
        <time>2020-07-15T13:01:17.432Z</time>
      </trkpt>
      <trkpt lat="63.54658" lon="9.92592">
        <ele>17.628625</ele>
        <time>2020-07-15T13:01:18.325Z</time>
      </trkpt>
      <trkpt lat="63.54671" lon="9.92589">
        <ele>16.731154</ele>
        <time>2020-07-15T13:01:19.796Z</time>
      </trkpt>
      <trkpt lat="63.54685" lon="9.92585">
        <ele>15.715025</ele>
        <time>2020-07-15T13:01:21.470Z</time>
      </trkpt>
      <trkpt lat="63.54695" lon="9.92583">
        <ele>14.999428</ele>
        <time>2020-07-15T13:01:22.594Z</time>
      </trkpt>
      <trkpt lat="63.54795" lon="9.92555">
        <ele>8.767099</ele>
        <time>2020-07-15T13:01:34.948Z</time>
      </trkpt>
      <trkpt lat="63.54819" lon="9.9255">
        <ele>8.070294</ele>
        <time>2020-07-15T13:01:38.067Z</time>
      </trkpt>
      <trkpt lat="63.54844" lon="9.92544">
        <ele>7.338072</ele>
        <time>2020-07-15T13:01:41.334Z</time>
      </trkpt>
      <trkpt lat="63.54857" lon="9.92542">
        <ele>6.945258</ele>
        <time>2020-07-15T13:01:43.184Z</time>
      </trkpt>
      <trkpt lat="63.54878" lon="9.92538">
        <ele>6.347342</ele>
        <time>2020-07-15T13:01:45.986Z</time>
      </trkpt>
      <trkpt lat="63.54887" lon="9.92536">
        <ele>6.085111</ele>
        <time>2020-07-15T13:01:47.191Z</time>
      </trkpt>
      <trkpt lat="63.54896" lon="9.92534">
        <ele>5.831321</ele>
        <time>2020-07-15T13:01:48.365Z</time>
      </trkpt>
      <trkpt lat="63.55023" lon="9.92508">
        <ele>3.526678</ele>
        <time>2020-07-15T13:02:06.607Z</time>
      </trkpt>
      <trkpt lat="63.55028" lon="9.92507">
        <ele>3.480883</ele>
        <time>2020-07-15T13:02:07.348Z</time>
      </trkpt>
      <trkpt lat="63.55036" lon="9.92506">
        <ele>3.412982</ele>
        <time>2020-07-15T13:02:08.507Z</time>
      </trkpt>
      <trkpt lat="63.55112" lon="9.92489">
        <ele>2.744209</ele>
        <time>2020-07-15T13:02:21.542Z</time>
      </trkpt>
      <trkpt lat="63.55125" lon="9.92485">
        <ele>2.626627</ele>
        <time>2020-07-15T13:02:23.966Z</time>
      </trkpt>
      <trkpt lat="63.55137" lon="9.92482">
        <ele>2.596755</ele>
        <time>2020-07-15T13:02:26.009Z</time>
      </trkpt>
      <trkpt lat="63.5514" lon="9.92481">
        <ele>2.631939</ele>
        <time>2020-07-15T13:02:26.776Z</time>
      </trkpt>
      <trkpt lat="63.5516" lon="9.92478">
        <ele>2.817193</ele>
        <time>2020-07-15T13:02:30.552Z</time>
      </trkpt>
      <trkpt lat="63.55174" lon="9.92474">
        <ele>2.940829</ele>
        <time>2020-07-15T13:02:33.043Z</time>
      </trkpt>
      <trkpt lat="63.55201" lon="9.9247">
        <ele>3.190863</ele>
        <time>2020-07-15T13:02:38.373Z</time>
      </trkpt>
      <trkpt lat="63.55212" lon="9.92467">
        <ele>3.297944</ele>
        <time>2020-07-15T13:02:40.868Z</time>
      </trkpt>
      <trkpt lat="63.55353" lon="9.92445">
        <ele>5.066883</ele>
        <time>2020-07-15T13:03:12.024Z</time>
      </trkpt>
      <trkpt lat="63.55456" lon="9.92416">
        <ele>7.162861</ele>
        <time>2020-07-15T13:03:37.060Z</time>
      </trkpt>
      <trkpt lat="63.55461" lon="9.92414">
        <ele>7.28239</ele>
        <time>2020-07-15T13:03:38.693Z</time>
      </trkpt>
      <trkpt lat="63.55469" lon="9.92413">
        <ele>7.445518</ele>
        <time>2020-07-15T13:03:40.959Z</time>
      </trkpt>
      <trkpt lat="63.55584" lon="9.9238">
        <ele>10.829641</ele>
        <time>2020-07-15T13:04:12.149Z</time>
      </trkpt>
      <trkpt lat="63.55589" lon="9.92379">
        <ele>10.981978</ele>
        <time>2020-07-15T13:04:13.834Z</time>
      </trkpt>
      <trkpt lat="63.55633" lon="9.92363">
        <ele>12.401871</ele>
        <time>2020-07-15T13:04:26.961Z</time>
      </trkpt>
      <trkpt lat="63.55671" lon="9.9235">
        <ele>13.621653</ele>
        <time>2020-07-15T13:04:37.624Z</time>
      </trkpt>
      <trkpt lat="63.55704" lon="9.92337">
        <ele>14.735017</ele>
        <time>2020-07-15T13:04:47.249Z</time>
      </trkpt>
      <trkpt lat="63.55709" lon="9.92336">
        <ele>14.893559</ele>
        <time>2020-07-15T13:04:48.627Z</time>
      </trkpt>
      <trkpt lat="63.55721" lon="9.92331">
        <ele>15.307623</ele>
        <time>2020-07-15T13:04:51.951Z</time>
      </trkpt>
      <trkpt lat="63.55759" lon="9.92319">
        <ele>16.600296</ele>
        <time>2020-07-15T13:05:03.345Z</time>
      </trkpt>
      <trkpt lat="63.55835" lon="9.92298">
        <ele>19.176914</ele>
        <time>2020-07-15T13:05:25.041Z</time>
      </trkpt>
      <trkpt lat="63.55849" lon="9.92293">
        <ele>19.660361</ele>
        <time>2020-07-15T13:05:29.391Z</time>
      </trkpt>
      <trkpt lat="63.55887" lon="9.92283">
        <ele>20.905043</ele>
        <time>2020-07-15T13:05:39.855Z</time>
      </trkpt>
      <trkpt lat="63.55925" lon="9.92269">
        <ele>22.171226</ele>
        <time>2020-07-15T13:05:50.595Z</time>
      </trkpt>
      <trkpt lat="63.55936" lon="9.92266">
        <ele>22.520822</ele>
        <time>2020-07-15T13:05:53.587Z</time>
      </trkpt>
      <trkpt lat="63.56004" lon="9.9224">
        <ele>24.780447</ele>
        <time>2020-07-15T13:06:13.690Z</time>
      </trkpt>
      <trkpt lat="63.56048" lon="9.9222">
        <ele>26.320737</ele>
        <time>2020-07-15T13:06:26.034Z</time>
      </trkpt>
      <trkpt lat="63.56061" lon="9.92215">
        <ele>26.783457</ele>
        <time>2020-07-15T13:06:29.806Z</time>
      </trkpt>
      <trkpt lat="63.56095" lon="9.92204">
        <ele>28.007508</ele>
        <time>2020-07-15T13:06:40.254Z</time>
      </trkpt>
      <trkpt lat="63.56206" lon="9.92166">
        <ele>31.879588</ele>
        <time>2020-07-15T13:07:12.951Z</time>
      </trkpt>
      <trkpt lat="63.56212" lon="9.92164">
        <ele>31.979304</ele>
        <time>2020-07-15T13:07:15.667Z</time>
      </trkpt>
      <trkpt lat="63.56256" lon="9.92149">
        <ele>32.678542</ele>
        <time>2020-07-15T13:07:27.970Z</time>
      </trkpt>
      <trkpt lat="63.56346" lon="9.92115">
        <ele>34.105451</ele>
        <time>2020-07-15T13:07:48.265Z</time>
      </trkpt>
      <trkpt lat="63.56353" lon="9.92113">
        <ele>34.213218</ele>
        <time>2020-07-15T13:07:50.441Z</time>
      </trkpt>
      <trkpt lat="63.56356" lon="9.92118">
        <ele>34.271854</ele>
        <time>2020-07-15T13:07:51.088Z</time>
      </trkpt>
      <trkpt lat="63.56387" lon="9.92215">
        <ele>33.762533</ele>
        <time>2020-07-15T13:07:59.293Z</time>
      </trkpt>
      <trkpt lat="63.56389" lon="9.92222">
        <ele>33.655921</ele>
        <time>2020-07-15T13:07:59.816Z</time>
      </trkpt>
      <trkpt lat="63.56399" lon="9.92256">
        <ele>33.121778</ele>
        <time>2020-07-15T13:08:02.421Z</time>
      </trkpt>
      <trkpt lat="63.56431" lon="9.92395">
        <ele>31.093629</ele>
        <time>2020-07-15T13:08:11.581Z</time>
      </trkpt>
      <trkpt lat="63.56441" lon="9.92427">
        <ele>30.590571</ele>
        <time>2020-07-15T13:08:13.731Z</time>
      </trkpt>
      <trkpt lat="63.56446" lon="9.92441">
        <ele>30.364881</ele>
        <time>2020-07-15T13:08:14.697Z</time>
      </trkpt>
      <trkpt lat="63.56453" lon="9.92462">
        <ele>30.018302</ele>
        <time>2020-07-15T13:08:16.149Z</time>
      </trkpt>
      <trkpt lat="63.56461" lon="9.9248">
        <ele>29.689171</ele>
        <time>2020-07-15T13:08:17.535Z</time>
      </trkpt>
      <trkpt lat="63.56471" lon="9.925">
        <ele>29.236149</ele>
        <time>2020-07-15T13:08:19.180Z</time>
      </trkpt>
      <trkpt lat="63.56475" lon="9.92506">
        <ele>29.032487</ele>
        <time>2020-07-15T13:08:19.705Z</time>
      </trkpt>
      <trkpt lat="63.565" lon="9.92561">
        <ele>27.430102</ele>
        <time>2020-07-15T13:08:23.966Z</time>
      </trkpt>
      <trkpt lat="63.5655" lon="9.92658">
        <ele>24.395954</ele>
        <time>2020-07-15T13:08:32.003Z</time>
      </trkpt>
      <trkpt lat="63.56673" lon="9.9285">
        <ele>17.979416</ele>
        <time>2020-07-15T13:08:50.811Z</time>
      </trkpt>
      <trkpt lat="63.56771" lon="9.93119">
        <ele>12.571145</ele>
        <time>2020-07-15T13:09:10.415Z</time>
      </trkpt>
      <trkpt lat="63.56785" lon="9.93146">
        <ele>12.085873</ele>
        <time>2020-07-15T13:09:12.808Z</time>
      </trkpt>
      <trkpt lat="63.56796" lon="9.93155">
        <ele>11.790031</ele>
        <time>2020-07-15T13:09:14.347Z</time>
      </trkpt>
      <trkpt lat="63.56821" lon="9.93169">
        <ele>11.107075</ele>
        <time>2020-07-15T13:09:17.848Z</time>
      </trkpt>
      <trkpt lat="63.56919" lon="9.93206">
        <ele>9.2426</ele>
        <time>2020-07-15T13:09:32.127Z</time>
      </trkpt>
      <trkpt lat="63.56982" lon="9.93231">
        <ele>9.179346</ele>
        <time>2020-07-15T13:09:43.363Z</time>
      </trkpt>
      <trkpt lat="63.57007" lon="9.9324">
        <ele>9.154763</ele>
        <time>2020-07-15T13:09:48.157Z</time>
      </trkpt>
      <trkpt lat="63.5702" lon="9.93245">
        <ele>9.142475</ele>
        <time>2020-07-15T13:09:50.585Z</time>
      </trkpt>
      <trkpt lat="63.57113" lon="9.93282">
        <ele>9.315279</ele>
        <time>2020-07-15T13:10:10.125Z</time>
      </trkpt>
      <trkpt lat="63.57297" lon="9.93353">
        <ele>9.373723</ele>
        <time>2020-07-15T13:10:45.747Z</time>
      </trkpt>
      <trkpt lat="63.57359" lon="9.93377">
        <ele>8.693917</ele>
        <time>2020-07-15T13:10:55.287Z</time>
      </trkpt>
      <trkpt lat="63.57423" lon="9.93403">
        <ele>7.972072</ele>
        <time>2020-07-15T13:11:04.413Z</time>
      </trkpt>
      <trkpt lat="63.57622" lon="9.9348">
        <ele>3.30457</ele>
        <time>2020-07-15T13:11:31.719Z</time>
      </trkpt>
      <trkpt lat="63.57699" lon="9.9351">
        <ele>2.478375</ele>
        <time>2020-07-15T13:11:43.228Z</time>
      </trkpt>
      <trkpt lat="63.57775" lon="9.93539">
        <ele>1.669215</ele>
        <time>2020-07-15T13:11:55.945Z</time>
      </trkpt>
      <trkpt lat="63.57937" lon="9.93601">
        <ele>3.382167</ele>
        <time>2020-07-15T13:12:31.441Z</time>
      </trkpt>
      <trkpt lat="63.57947" lon="9.93605">
        <ele>3.488189</ele>
        <time>2020-07-15T13:12:33.945Z</time>
      </trkpt>
      <trkpt lat="63.57979" lon="9.93616">
        <ele>3.850515</ele>
        <time>2020-07-15T13:12:41.403Z</time>
      </trkpt>
      <trkpt lat="63.57989" lon="9.9362">
        <ele>3.971132</ele>
        <time>2020-07-15T13:12:43.878Z</time>
      </trkpt>
      <trkpt lat="63.57994" lon="9.93626">
        <ele>4.028937</ele>
        <time>2020-07-15T13:12:45.088Z</time>
      </trkpt>
      <trkpt lat="63.58006" lon="9.93634">
        <ele>4.179991</ele>
        <time>2020-07-15T13:12:47.899Z</time>
      </trkpt>
      <trkpt lat="63.58012" lon="9.9364">
        <ele>4.248061</ele>
        <time>2020-07-15T13:12:49.325Z</time>
      </trkpt>
      <trkpt lat="63.58013" lon="9.93645">
        <ele>4.278734</ele>
        <time>2020-07-15T13:12:49.964Z</time>
      </trkpt>
      <trkpt lat="63.58017" lon="9.93652">
        <ele>4.338508</ele>
        <time>2020-07-15T13:12:51.121Z</time>
      </trkpt>
      <trkpt lat="63.58019" lon="9.93653">
        <ele>4.354058</ele>
        <time>2020-07-15T13:12:51.447Z</time>
      </trkpt>
      <trkpt lat="63.58021" lon="9.93654">
        <ele>4.383993</ele>
        <time>2020-07-15T13:12:52.075Z</time>
      </trkpt>
      <trkpt lat="63.58027" lon="9.93649">
        <ele>4.459718</ele>
        <time>2020-07-15T13:12:53.583Z</time>
      </trkpt>
      <trkpt lat="63.58029" lon="9.93645">
        <ele>4.490183</ele>
        <time>2020-07-15T13:12:54.163Z</time>
      </trkpt>
      <trkpt lat="63.5803" lon="9.93642">
        <ele>4.504779</ele>
        <time>2020-07-15T13:12:54.430Z</time>
      </trkpt>
      <trkpt lat="63.58032" lon="9.93634">
        <ele>4.550346</ele>
        <time>2020-07-15T13:12:55.237Z</time>
      </trkpt>
      <trkpt lat="63.58032" lon="9.93626">
        <ele>4.591038</ele>
        <time>2020-07-15T13:12:55.964Z</time>
      </trkpt>
      <trkpt lat="63.58033" lon="9.93618">
        <ele>4.636604</ele>
        <time>2020-07-15T13:12:56.894Z</time>
      </trkpt>
      <trkpt lat="63.58037" lon="9.93603">
        <ele>4.723078</ele>
        <time>2020-07-15T13:12:58.626Z</time>
      </trkpt>
      <trkpt lat="63.58041" lon="9.9361">
        <ele>4.780774</ele>
        <time>2020-07-15T13:12:59.764Z</time>
      </trkpt>
      <trkpt lat="63.58044" lon="9.9361">
        <ele>4.815069</ele>
        <time>2020-07-15T13:13:00.464Z</time>
      </trkpt>
      <trkpt lat="63.58042" lon="9.9362">
        <ele>4.867782</ele>
        <time>2020-07-15T13:13:01.484Z</time>
      </trkpt>
      <trkpt lat="63.58039" lon="9.93671">
        <ele>5.129156</ele>
        <time>2020-07-15T13:13:06.381Z</time>
      </trkpt>
      <trkpt lat="63.58044" lon="9.93721">
        <ele>5.39035</ele>
        <time>2020-07-15T13:13:11.197Z</time>
      </trkpt>
      <trkpt lat="63.58142" lon="9.94296">
        <ele>6.022233</ele>
        <time>2020-07-15T13:14:01.369Z</time>
      </trkpt>
      <trkpt lat="63.58259" lon="9.94981">
        <ele>6.641329</ele>
        <time>2020-07-15T13:14:59.114Z</time>
      </trkpt>
      <trkpt lat="63.58263" lon="9.95008">
        <ele>6.809997</ele>
        <time>2020-07-15T13:15:01.779Z</time>
      </trkpt>
      <trkpt lat="63.58264" lon="9.95014">
        <ele>6.846312</ele>
        <time>2020-07-15T13:15:02.325Z</time>
      </trkpt>
      <trkpt lat="63.58261" lon="9.95017">
        <ele>6.88975</ele>
        <time>2020-07-15T13:15:02.999Z</time>
      </trkpt>
      <trkpt lat="63.58258" lon="9.95019">
        <ele>6.933242</ele>
        <time>2020-07-15T13:15:03.672Z</time>
      </trkpt>
      <trkpt lat="63.58276" lon="9.95123">
        <ele>7.601033</ele>
        <time>2020-07-15T13:15:15.015Z</time>
      </trkpt>
      <trkpt lat="63.58284" lon="9.95175">
        <ele>7.936024</ele>
        <time>2020-07-15T13:15:20.904Z</time>
      </trkpt>
      <trkpt lat="63.5831" lon="9.95321">
        <ele>9.220722</ele>
        <time>2020-07-15T13:15:38.636Z</time>
      </trkpt>
      <trkpt lat="63.58341" lon="9.95503">
        <ele>11.501229</ele>
        <time>2020-07-15T13:16:02.017Z</time>
      </trkpt>
      <trkpt lat="63.58361" lon="9.95609">
        <ele>12.846307</ele>
        <time>2020-07-15T13:16:15.481Z</time>
      </trkpt>
      <trkpt lat="63.58376" lon="9.95683">
        <ele>13.74697</ele>
        <time>2020-07-15T13:16:24.948Z</time>
      </trkpt>
      <trkpt lat="63.58396" lon="9.95778">
        <ele>14.865901</ele>
        <time>2020-07-15T13:16:37.073Z</time>
      </trkpt>
      <trkpt lat="63.58411" lon="9.95845">
        <ele>15.648688</ele>
        <time>2020-07-15T13:16:45.493Z</time>
      </trkpt>
      <trkpt lat="63.58412" lon="9.95856">
        <ele>15.765635</ele>
        <time>2020-07-15T13:16:46.756Z</time>
      </trkpt>
      <trkpt lat="63.58418" lon="9.959">
        <ele>16.259447</ele>
        <time>2020-07-15T13:16:52.054Z</time>
      </trkpt>
      <trkpt lat="63.58416" lon="9.95905">
        <ele>16.325302</ele>
        <time>2020-07-15T13:16:52.744Z</time>
      </trkpt>
      <trkpt lat="63.58415" lon="9.95914">
        <ele>16.42835</ele>
        <time>2020-07-15T13:16:53.809Z</time>
      </trkpt>
      <trkpt lat="63.58415" lon="9.95921">
        <ele>16.494102</ele>
        <time>2020-07-15T13:16:54.447Z</time>
      </trkpt>
      <trkpt lat="63.58415" lon="9.95924">
        <ele>16.530449</ele>
        <time>2020-07-15T13:16:54.870Z</time>
      </trkpt>
      <trkpt lat="63.58418" lon="9.95935">
        <ele>16.664335</ele>
        <time>2020-07-15T13:16:56.237Z</time>
      </trkpt>
      <trkpt lat="63.5842" lon="9.95939">
        <ele>16.731081</ele>
        <time>2020-07-15T13:16:56.935Z</time>
      </trkpt>
      <trkpt lat="63.58421" lon="9.95941">
        <ele>16.764319</ele>
        <time>2020-07-15T13:16:57.332Z</time>
      </trkpt>
      <trkpt lat="63.58424" lon="9.95943">
        <ele>16.833994</ele>
        <time>2020-07-15T13:16:58.007Z</time>
      </trkpt>
      <trkpt lat="63.58426" lon="9.95943">
        <ele>16.898453</ele>
        <time>2020-07-15T13:16:58.706Z</time>
      </trkpt>
      <trkpt lat="63.58431" lon="9.95956">
        <ele>17.072697</ele>
        <time>2020-07-15T13:17:00.571Z</time>
      </trkpt>
      <trkpt lat="63.58436" lon="9.95973">
        <ele>17.294075</ele>
        <time>2020-07-15T13:17:02.853Z</time>
      </trkpt>
      <trkpt lat="63.58442" lon="9.9599">
        <ele>17.520912</ele>
        <time>2020-07-15T13:17:05.144Z</time>
      </trkpt>
      <trkpt lat="63.58463" lon="9.96089">
        <ele>18.593241</ele>
        <time>2020-07-15T13:17:17.160Z</time>
      </trkpt>
      <trkpt lat="63.58468" lon="9.96109">
        <ele>18.812315</ele>
        <time>2020-07-15T13:17:19.688Z</time>
      </trkpt>
      <trkpt lat="63.58518" lon="9.9634">
        <ele>21.329977</ele>
        <time>2020-07-15T13:17:48.340Z</time>
      </trkpt>
      <trkpt lat="63.58528" lon="9.96385">
        <ele>21.842388</ele>
        <time>2020-07-15T13:17:53.791Z</time>
      </trkpt>
      <trkpt lat="63.58539" lon="9.96441">
        <ele>22.498289</ele>
        <time>2020-07-15T13:18:00.526Z</time>
      </trkpt>
      <trkpt lat="63.58548" lon="9.96482">
        <ele>22.97459</ele>
        <time>2020-07-15T13:18:05.370Z</time>
      </trkpt>
      <trkpt lat="63.5855" lon="9.96491">
        <ele>23.086309</ele>
        <time>2020-07-15T13:18:06.507Z</time>
      </trkpt>
      <trkpt lat="63.58561" lon="9.96543">
        <ele>23.687251</ele>
        <time>2020-07-15T13:18:12.839Z</time>
      </trkpt>
      <trkpt lat="63.58579" lon="9.96628">
        <ele>24.679519</ele>
        <time>2020-07-15T13:18:23.323Z</time>
      </trkpt>
      <trkpt lat="63.58616" lon="9.96795">
        <ele>26.767849</ele>
        <time>2020-07-15T13:18:46.071Z</time>
      </trkpt>
      <trkpt lat="63.58637" lon="9.96892">
        <ele>28.049351</ele>
        <time>2020-07-15T13:18:59.135Z</time>
      </trkpt>
      <trkpt lat="63.58658" lon="9.96989">
        <ele>29.334065</ele>
        <time>2020-07-15T13:19:11.939Z</time>
      </trkpt>
      <trkpt lat="63.58661" lon="9.96986">
        <ele>29.418707</ele>
        <time>2020-07-15T13:19:12.747Z</time>
      </trkpt>
      <trkpt lat="63.58661" lon="9.96974">
        <ele>29.558311</ele>
        <time>2020-07-15T13:19:14.059Z</time>
      </trkpt>
      <trkpt lat="63.58664" lon="9.96983">
        <ele>29.696463</ele>
        <time>2020-07-15T13:19:16.167Z</time>
      </trkpt>
      <trkpt lat="63.58893" lon="9.98039">
        <ele>38.829928</ele>
        <time>2020-07-15T13:21:19.774Z</time>
      </trkpt>
      <trkpt lat="63.58915" lon="9.98109">
        <ele>39.297072</ele>
        <time>2020-07-15T13:21:26.751Z</time>
      </trkpt>
      <trkpt lat="63.58945" lon="9.98175">
        <ele>39.083277</ele>
        <time>2020-07-15T13:21:33.999Z</time>
      </trkpt>
      <trkpt lat="63.58981" lon="9.98242">
        <ele>38.549776</ele>
        <time>2020-07-15T13:21:41.430Z</time>
      </trkpt>
      <trkpt lat="63.58996" lon="9.98267">
        <ele>38.339043</ele>
        <time>2020-07-15T13:21:44.542Z</time>
      </trkpt>
      <trkpt lat="63.59053" lon="9.9835">
        <ele>37.567352</ele>
        <time>2020-07-15T13:21:54.360Z</time>
      </trkpt>
      <trkpt lat="63.5914" lon="9.98451">
        <ele>33.656868</ele>
        <time>2020-07-15T13:22:07.565Z</time>
      </trkpt>
      <trkpt lat="63.59249" lon="9.98573">
        <ele>27.680117</ele>
        <time>2020-07-15T13:22:21.791Z</time>
      </trkpt>
      <trkpt lat="63.59317" lon="9.98651">
        <ele>22.532754</ele>
        <time>2020-07-15T13:22:30.572Z</time>
      </trkpt>
      <trkpt lat="63.59408" lon="9.98769">
        <ele>16.209518</ele>
        <time>2020-07-15T13:22:42.655Z</time>
      </trkpt>
      <trkpt lat="63.59481" lon="9.98893">
        <ele>12.54762</ele>
        <time>2020-07-15T13:22:54.107Z</time>
      </trkpt>
      <trkpt lat="63.59493" lon="9.98916">
        <ele>11.906749</ele>
        <time>2020-07-15T13:22:56.175Z</time>
      </trkpt>
      <trkpt lat="63.59507" lon="9.98943">
        <ele>11.160179</ele>
        <time>2020-07-15T13:22:58.774Z</time>
      </trkpt>
      <trkpt lat="63.59582" lon="9.99114">
        <ele>8.923617</ele>
        <time>2020-07-15T13:23:13.995Z</time>
      </trkpt>
      <trkpt lat="63.59606" lon="9.99176">
        <ele>8.410172</ele>
        <time>2020-07-15T13:23:19.510Z</time>
      </trkpt>
      <trkpt lat="63.59603" lon="9.99182">
        <ele>8.35149</ele>
        <time>2020-07-15T13:23:20.177Z</time>
      </trkpt>
      <trkpt lat="63.59601" lon="9.99186">
        <ele>8.310843</ele>
        <time>2020-07-15T13:23:20.613Z</time>
      </trkpt>
      <trkpt lat="63.59658" lon="9.99333">
        <ele>7.394705</ele>
        <time>2020-07-15T13:23:34.349Z</time>
      </trkpt>
      <trkpt lat="63.59678" lon="9.99385">
        <ele>7.294001</ele>
        <time>2020-07-15T13:23:39.164Z</time>
      </trkpt>
      <trkpt lat="63.59712" lon="9.99473">
        <ele>7.119717</ele>
        <time>2020-07-15T13:23:47.728Z</time>
      </trkpt>
      <trkpt lat="63.59754" lon="9.99586">
        <ele>6.897661</ele>
        <time>2020-07-15T13:23:59.411Z</time>
      </trkpt>
      <trkpt lat="63.59782" lon="9.99657">
        <ele>7.472956</ele>
        <time>2020-07-15T13:24:07.547Z</time>
      </trkpt>
      <trkpt lat="63.5983" lon="9.99775">
        <ele>8.538818</ele>
        <time>2020-07-15T13:24:23.550Z</time>
      </trkpt>
      <trkpt lat="63.59873" lon="9.99858">
        <ele>9.387855</ele>
        <time>2020-07-15T13:24:37.703Z</time>
      </trkpt>
      <trkpt lat="63.59907" lon="9.99912">
        <ele>10.303825</ele>
        <time>2020-07-15T13:24:48.197Z</time>
      </trkpt>
      <trkpt lat="63.5992" lon="9.99931">
        <ele>10.689067</ele>
        <time>2020-07-15T13:24:52.352Z</time>
      </trkpt>
      <trkpt lat="63.59939" lon="9.9996">
        <ele>11.288052</ele>
        <time>2020-07-15T13:24:58.602Z</time>
      </trkpt>
      <trkpt lat="63.59975" lon="10.00013">
        <ele>12.37294</ele>
        <time>2020-07-15T13:25:10.124Z</time>
      </trkpt>
      <trkpt lat="63.59979" lon="10.00019">
        <ele>12.49334</ele>
        <time>2020-07-15T13:25:11.549Z</time>
      </trkpt>
      <trkpt lat="63.59981" lon="10.0003">
        <ele>12.631089</ele>
        <time>2020-07-15T13:25:12.433Z</time>
      </trkpt>
      <trkpt lat="63.59986" lon="10.00048">
        <ele>12.864113</ele>
        <time>2020-07-15T13:25:14.851Z</time>
      </trkpt>
      <trkpt lat="63.59986" lon="10.00084">
        <ele>13.269054</ele>
        <time>2020-07-15T13:25:19.572Z</time>
      </trkpt>
      <trkpt lat="63.59981" lon="10.0011">
        <ele>13.587717</ele>
        <time>2020-07-15T13:25:22.347Z</time>
      </trkpt>
      <trkpt lat="63.59996" lon="10.00098">
        <ele>14.00996</ele>
        <time>2020-07-15T13:25:27.186Z</time>
      </trkpt>
      <trkpt lat="63.60019" lon="10.0009">
        <ele>14.498263</ele>
        <time>2020-07-15T13:25:32.449Z</time>
      </trkpt>
      <trkpt lat="63.60033" lon="10.00096">
        <ele>14.790534</ele>
        <time>2020-07-15T13:25:36.535Z</time>
      </trkpt>
      <trkpt lat="63.60037" lon="10.001">
        <ele>14.877935</ele>
        <time>2020-07-15T13:25:37.608Z</time>
      </trkpt>
      <trkpt lat="63.60093" lon="10.00186">
        <ele>16.269017</ele>
        <time>2020-07-15T13:25:53.769Z</time>
      </trkpt>
      <trkpt lat="63.60128" lon="10.00255">
        <ele>17.21492</ele>
        <time>2020-07-15T13:26:04.569Z</time>
      </trkpt>
      <trkpt lat="63.60238" lon="10.00533">
        <ele>20.916052</ele>
        <time>2020-07-15T13:26:44.732Z</time>
      </trkpt>
      <trkpt lat="63.60276" lon="10.00635">
        <ele>22.564018</ele>
        <time>2020-07-15T13:27:00.591Z</time>
      </trkpt>
      <trkpt lat="63.60287" lon="10.0066">
        <ele>23.187286</ele>
        <time>2020-07-15T13:27:05.312Z</time>
      </trkpt>
      <trkpt lat="63.60344" lon="10.00807">
        <ele>26.737775</ele>
        <time>2020-07-15T13:27:31.745Z</time>
      </trkpt>
      <trkpt lat="63.60358" lon="10.00843">
        <ele>27.607927</ele>
        <time>2020-07-15T13:27:39.065Z</time>
      </trkpt>
      <trkpt lat="63.60432" lon="10.01038">
        <ele>33.414675</ele>
        <time>2020-07-15T13:28:17.103Z</time>
      </trkpt>
      <trkpt lat="63.60564" lon="10.01375">
        <ele>44.897466</ele>
        <time>2020-07-15T13:29:32.422Z</time>
      </trkpt>
      <trkpt lat="63.60578" lon="10.01409">
        <ele>46.128248</ele>
        <time>2020-07-15T13:29:40.305Z</time>
      </trkpt>
      <trkpt lat="63.60592" lon="10.0144">
        <ele>47.284492</ele>
        <time>2020-07-15T13:29:47.765Z</time>
      </trkpt>
      <trkpt lat="63.60728" lon="10.017">
        <ele>55.698377</ele>
        <time>2020-07-15T13:30:48.716Z</time>
      </trkpt>
      <trkpt lat="63.60773" lon="10.01785">
        <ele>57.869583</ele>
        <time>2020-07-15T13:31:04.002Z</time>
      </trkpt>
      <trkpt lat="63.60788" lon="10.01813">
        <ele>58.076823</ele>
        <time>2020-07-15T13:31:08.735Z</time>
      </trkpt>
      <trkpt lat="63.60807" lon="10.0185">
        <ele>58.342434</ele>
        <time>2020-07-15T13:31:14.712Z</time>
      </trkpt>
      <trkpt lat="63.60812" lon="10.01858">
        <ele>58.403154</ele>
        <time>2020-07-15T13:31:15.987Z</time>
      </trkpt>
      <trkpt lat="63.60827" lon="10.01885">
        <ele>58.605659</ele>
        <time>2020-07-15T13:31:20.381Z</time>
      </trkpt>
      <trkpt lat="63.60864" lon="10.01953">
        <ele>59.102778</ele>
        <time>2020-07-15T13:31:30.132Z</time>
      </trkpt>
      <trkpt lat="63.60867" lon="10.01959">
        <ele>59.143786</ele>
        <time>2020-07-15T13:31:30.844Z</time>
      </trkpt>
      <trkpt lat="63.60957" lon="10.02127">
        <ele>58.930141</ele>
        <time>2020-07-15T13:31:50.427Z</time>
      </trkpt>
      <trkpt lat="63.60985" lon="10.02179">
        <ele>58.566194</ele>
        <time>2020-07-15T13:31:55.989Z</time>
      </trkpt>
      <trkpt lat="63.60993" lon="10.02192">
        <ele>58.469535</ele>
        <time>2020-07-15T13:31:57.471Z</time>
      </trkpt>
      <trkpt lat="63.61027" lon="10.02254">
        <ele>58.026196</ele>
        <time>2020-07-15T13:32:04.106Z</time>
      </trkpt>
      <trkpt lat="63.61032" lon="10.02263">
        <ele>57.966332</ele>
        <time>2020-07-15T13:32:05.005Z</time>
      </trkpt>
      <trkpt lat="63.61037" lon="10.02274">
        <ele>57.891396</ele>
        <time>2020-07-15T13:32:06.027Z</time>
      </trkpt>
      <trkpt lat="63.61223" lon="10.02618">
        <ele>52.602622</ele>
        <time>2020-07-15T13:32:39.667Z</time>
      </trkpt>
      <trkpt lat="63.61274" lon="10.02713">
        <ele>50.849613</ele>
        <time>2020-07-15T13:32:48.470Z</time>
      </trkpt>
      <trkpt lat="63.61304" lon="10.02768">
        <ele>49.817894</ele>
        <time>2020-07-15T13:32:53.599Z</time>
      </trkpt>
      <trkpt lat="63.61507" lon="10.03143">
        <ele>42.270855</ele>
        <time>2020-07-15T13:33:28.373Z</time>
      </trkpt>
      <trkpt lat="63.61627" lon="10.03347">
        <ele>38.05244</ele>
        <time>2020-07-15T13:33:48.839Z</time>
      </trkpt>
      <trkpt lat="63.6163" lon="10.03354">
        <ele>37.911152</ele>
        <time>2020-07-15T13:33:49.391Z</time>
      </trkpt>
      <trkpt lat="63.61636" lon="10.03366">
        <ele>37.648129</ele>
        <time>2020-07-15T13:33:50.508Z</time>
      </trkpt>
      <trkpt lat="63.6171" lon="10.03489">
        <ele>34.769371</ele>
        <time>2020-07-15T13:34:02.669Z</time>
      </trkpt>
      <trkpt lat="63.61716" lon="10.035">
        <ele>34.510856</ele>
        <time>2020-07-15T13:34:03.678Z</time>
      </trkpt>
      <trkpt lat="63.6174" lon="10.0354">
        <ele>33.570284</ele>
        <time>2020-07-15T13:34:07.582Z</time>
      </trkpt>
      <trkpt lat="63.62055" lon="10.04059">
        <ele>16.41653</ele>
        <time>2020-07-15T13:34:55.701Z</time>
      </trkpt>
      <trkpt lat="63.62154" lon="10.04125">
        <ele>12.726795</ele>
        <time>2020-07-15T13:35:08.637Z</time>
      </trkpt>
      <trkpt lat="63.62179" lon="10.04141">
        <ele>11.80251</ele>
        <time>2020-07-15T13:35:12.040Z</time>
      </trkpt>
      <trkpt lat="63.62196" lon="10.04152">
        <ele>11.147542</ele>
        <time>2020-07-15T13:35:14.511Z</time>
      </trkpt>
      <trkpt lat="63.62235" lon="10.04185">
        <ele>10.881772</ele>
        <time>2020-07-15T13:35:20.248Z</time>
      </trkpt>
      <trkpt lat="63.62251" lon="10.04202">
        <ele>10.875786</ele>
        <time>2020-07-15T13:35:23.043Z</time>
      </trkpt>
      <trkpt lat="63.62295" lon="10.0426">
        <ele>10.859283</ele>
        <time>2020-07-15T13:35:31.528Z</time>
      </trkpt>
      <trkpt lat="63.62299" lon="10.04268">
        <ele>10.857395</ele>
        <time>2020-07-15T13:35:32.669Z</time>
      </trkpt>
      <trkpt lat="63.62316" lon="10.04297">
        <ele>10.850615</ele>
        <time>2020-07-15T13:35:37.098Z</time>
      </trkpt>
      <trkpt lat="63.62325" lon="10.04316">
        <ele>10.846379</ele>
        <time>2020-07-15T13:35:39.898Z</time>
      </trkpt>
      <trkpt lat="63.62359" lon="10.04385">
        <ele>11.010435</ele>
        <time>2020-07-15T13:35:50.863Z</time>
      </trkpt>
      <trkpt lat="63.6242" lon="10.04516">
        <ele>12.950988</ele>
        <time>2020-07-15T13:36:12.893Z</time>
      </trkpt>
      <trkpt lat="63.62636" lon="10.04967">
        <ele>18.718324</ele>
        <time>2020-07-15T13:37:26.788Z</time>
      </trkpt>
      <trkpt lat="63.62656" lon="10.0501">
        <ele>18.610881</ele>
        <time>2020-07-15T13:37:32.526Z</time>
      </trkpt>
      <trkpt lat="63.62658" lon="10.05015">
        <ele>18.598122</ele>
        <time>2020-07-15T13:37:33.175Z</time>
      </trkpt>
      <trkpt lat="63.62664" lon="10.05028">
        <ele>18.565204</ele>
        <time>2020-07-15T13:37:34.609Z</time>
      </trkpt>
      <trkpt lat="63.63014" lon="10.05902">
        <ele>15.861964</ele>
        <time>2020-07-15T13:38:57.086Z</time>
      </trkpt>
      <trkpt lat="63.63025" lon="10.05932">
        <ele>15.839916</ele>
        <time>2020-07-15T13:38:59.979Z</time>
      </trkpt>
      <trkpt lat="63.63035" lon="10.05961">
        <ele>15.818654</ele>
        <time>2020-07-15T13:39:02.659Z</time>
      </trkpt>
      <trkpt lat="63.63067" lon="10.06069">
        <ele>15.74475</ele>
        <time>2020-07-15T13:39:12.695Z</time>
      </trkpt>
      <trkpt lat="63.63185" lon="10.06568">
        <ele>17.9864</ele>
        <time>2020-07-15T13:40:05.811Z</time>
      </trkpt>
      <trkpt lat="63.63194" lon="10.06602">
        <ele>18.232728</ele>
        <time>2020-07-15T13:40:09.796Z</time>
      </trkpt>
      <trkpt lat="63.63198" lon="10.06617">
        <ele>18.338851</ele>
        <time>2020-07-15T13:40:11.825Z</time>
      </trkpt>
      <trkpt lat="63.63206" lon="10.06643">
        <ele>18.531219</ele>
        <time>2020-07-15T13:40:14.915Z</time>
      </trkpt>
      <trkpt lat="63.63222" lon="10.06696">
        <ele>18.927045</ele>
        <time>2020-07-15T13:40:22.074Z</time>
      </trkpt>
      <trkpt lat="63.63237" lon="10.0674">
        <ele>19.260041</ele>
        <time>2020-07-15T13:40:27.679Z</time>
      </trkpt>
      <trkpt lat="63.63279" lon="10.06863">
        <ele>20.056887</ele>
        <time>2020-07-15T13:40:42.603Z</time>
      </trkpt>
      <trkpt lat="63.63301" lon="10.06928">
        <ele>20.107633</ele>
        <time>2020-07-15T13:40:49.744Z</time>
      </trkpt>
      <trkpt lat="63.63316" lon="10.06977">
        <ele>20.14562</ele>
        <time>2020-07-15T13:40:54.771Z</time>
      </trkpt>
      <trkpt lat="63.63335" lon="10.07043">
        <ele>20.194936</ele>
        <time>2020-07-15T13:41:00.676Z</time>
      </trkpt>
      <trkpt lat="63.63394" lon="10.07314">
        <ele>20.385008</ele>
        <time>2020-07-15T13:41:23.307Z</time>
      </trkpt>
      <trkpt lat="63.63404" lon="10.07364">
        <ele>20.419556</ele>
        <time>2020-07-15T13:41:27.441Z</time>
      </trkpt>
      <trkpt lat="63.63419" lon="10.07438">
        <ele>20.47123</ele>
        <time>2020-07-15T13:41:34.332Z</time>
      </trkpt>
      <trkpt lat="63.63422" lon="10.07453">
        <ele>20.481703</ele>
        <time>2020-07-15T13:41:35.769Z</time>
      </trkpt>
      <trkpt lat="63.63425" lon="10.07466">
        <ele>20.490845</ele>
        <time>2020-07-15T13:41:37.199Z</time>
      </trkpt>
      <trkpt lat="63.63462" lon="10.07642">
        <ele>20.777054</ele>
        <time>2020-07-15T13:41:54.445Z</time>
      </trkpt>
      <trkpt lat="63.63468" lon="10.07669">
        <ele>20.843963</ele>
        <time>2020-07-15T13:41:57.283Z</time>
      </trkpt>
      <trkpt lat="63.6348" lon="10.07716">
        <ele>20.962793</ele>
        <time>2020-07-15T13:42:02.184Z</time>
      </trkpt>
      <trkpt lat="63.63492" lon="10.07763">
        <ele>21.084969</ele>
        <time>2020-07-15T13:42:07.286Z</time>
      </trkpt>
      <trkpt lat="63.63525" lon="10.07892">
        <ele>21.413759</ele>
        <time>2020-07-15T13:42:19.758Z</time>
      </trkpt>
      <trkpt lat="63.6353" lon="10.07907">
        <ele>21.437136</ele>
        <time>2020-07-15T13:42:21.152Z</time>
      </trkpt>
      <trkpt lat="63.63611" lon="10.08227">
        <ele>20.802737</ele>
        <time>2020-07-15T13:42:48.398Z</time>
      </trkpt>
      <trkpt lat="63.63615" lon="10.08241">
        <ele>20.775065</ele>
        <time>2020-07-15T13:42:49.407Z</time>
      </trkpt>
      <trkpt lat="63.63618" lon="10.0825">
        <ele>20.754395</ele>
        <time>2020-07-15T13:42:50.397Z</time>
      </trkpt>
      <trkpt lat="63.63686" lon="10.08438">
        <ele>20.281226</ele>
        <time>2020-07-15T13:43:08.046Z</time>
      </trkpt>
      <trkpt lat="63.63961" lon="10.09062">
        <ele>18.743966</ele>
        <time>2020-07-15T13:44:14.134Z</time>
      </trkpt>
      <trkpt lat="63.64041" lon="10.09263">
        <ele>18.211846</ele>
        <time>2020-07-15T13:44:33.118Z</time>
      </trkpt>
      <trkpt lat="63.64122" lon="10.09492">
        <ele>18.022624</ele>
        <time>2020-07-15T13:44:54.988Z</time>
      </trkpt>
      <trkpt lat="63.64202" lon="10.09712">
        <ele>19.314774</ele>
        <time>2020-07-15T13:45:21.546Z</time>
      </trkpt>
      <trkpt lat="63.6426" lon="10.09896">
        <ele>21.716672</ele>
        <time>2020-07-15T13:45:47.598Z</time>
      </trkpt>
      <trkpt lat="63.64336" lon="10.10188">
        <ele>26.115862</ele>
        <time>2020-07-15T13:46:30.621Z</time>
      </trkpt>
      <trkpt lat="63.64351" lon="10.1026">
        <ele>27.150811</ele>
        <time>2020-07-15T13:46:40.228Z</time>
      </trkpt>
      <trkpt lat="63.64363" lon="10.10354">
        <ele>28.426262</ele>
        <time>2020-07-15T13:46:51.438Z</time>
      </trkpt>
      <trkpt lat="63.64366" lon="10.10396">
        <ele>28.984249</ele>
        <time>2020-07-15T13:46:56.441Z</time>
      </trkpt>
      <trkpt lat="63.64368" lon="10.10421">
        <ele>29.303448</ele>
        <time>2020-07-15T13:46:59.034Z</time>
      </trkpt>
      <trkpt lat="63.64365" lon="10.1062">
        <ele>32.627491</ele>
        <time>2020-07-15T13:47:23.522Z</time>
      </trkpt>
      <trkpt lat="63.64361" lon="10.10729">
        <ele>34.626622</ele>
        <time>2020-07-15T13:47:38.252Z</time>
      </trkpt>
      <trkpt lat="63.64357" lon="10.10847">
        <ele>36.7947</ele>
        <time>2020-07-15T13:47:55.263Z</time>
      </trkpt>
      <trkpt lat="63.64353" lon="10.10961">
        <ele>39.629605</ele>
        <time>2020-07-15T13:48:14.199Z</time>
      </trkpt>
      <trkpt lat="63.64352" lon="10.10983">
        <ele>40.261368</ele>
        <time>2020-07-15T13:48:17.890Z</time>
      </trkpt>
      <trkpt lat="63.64348" lon="10.11094">
        <ele>43.419528</ele>
        <time>2020-07-15T13:48:38.456Z</time>
      </trkpt>
      <trkpt lat="63.64344" lon="10.11167">
        <ele>45.512777</ele>
        <time>2020-07-15T13:48:51.745Z</time>
      </trkpt>
      <trkpt lat="63.64339" lon="10.11269">
        <ele>48.40807</ele>
        <time>2020-07-15T13:49:09.969Z</time>
      </trkpt>
      <trkpt lat="63.64338" lon="10.11287">
        <ele>48.943769</ele>
        <time>2020-07-15T13:49:13.343Z</time>
      </trkpt>
      <trkpt lat="63.64337" lon="10.11328">
        <ele>49.45251</ele>
        <time>2020-07-15T13:49:19.433Z</time>
      </trkpt>
      <trkpt lat="63.64338" lon="10.1134">
        <ele>49.589516</ele>
        <time>2020-07-15T13:49:21.339Z</time>
      </trkpt>
      <trkpt lat="63.64337" lon="10.11357">
        <ele>49.776161</ele>
        <time>2020-07-15T13:49:24.038Z</time>
      </trkpt>
      <trkpt lat="63.64347" lon="10.11495">
        <ele>51.352415</ele>
        <time>2020-07-15T13:49:41.395Z</time>
      </trkpt>
      <trkpt lat="63.64369" lon="10.11597">
        <ele>52.638632</ele>
        <time>2020-07-15T13:49:53.387Z</time>
      </trkpt>
      <trkpt lat="63.6438" lon="10.11631">
        <ele>53.107418</ele>
        <time>2020-07-15T13:49:56.787Z</time>
      </trkpt>
      <trkpt lat="63.64391" lon="10.11659">
        <ele>53.527271</ele>
        <time>2020-07-15T13:49:59.561Z</time>
      </trkpt>
      <trkpt lat="63.64428" lon="10.11723">
        <ele>53.231398</ele>
        <time>2020-07-15T13:50:06.651Z</time>
      </trkpt>
      <trkpt lat="63.64517" lon="10.11846">
        <ele>52.372953</ele>
        <time>2020-07-15T13:50:21.985Z</time>
      </trkpt>
      <trkpt lat="63.64564" lon="10.11929">
        <ele>52.808756</ele>
        <time>2020-07-15T13:50:32.192Z</time>
      </trkpt>
      <trkpt lat="63.64609" lon="10.12058">
        <ele>54.54484</ele>
        <time>2020-07-15T13:50:48.866Z</time>
      </trkpt>
      <trkpt lat="63.64656" lon="10.1225">
        <ele>57.523186</ele>
        <time>2020-07-15T13:51:18.596Z</time>
      </trkpt>
      <trkpt lat="63.64662" lon="10.1228">
        <ele>58.401228</ele>
        <time>2020-07-15T13:51:25.063Z</time>
      </trkpt>
      <trkpt lat="63.64669" lon="10.1231">
        <ele>59.256175</ele>
        <time>2020-07-15T13:51:30.703Z</time>
      </trkpt>
      <trkpt lat="63.64701" lon="10.12443">
        <ele>63.16051</ele>
        <time>2020-07-15T13:51:57.666Z</time>
      </trkpt>
      <trkpt lat="63.64726" lon="10.12544">
        <ele>66.161882</ele>
        <time>2020-07-15T13:52:16.349Z</time>
      </trkpt>
      <trkpt lat="63.64736" lon="10.12579">
        <ele>67.020013</ele>
        <time>2020-07-15T13:52:23.554Z</time>
      </trkpt>
      <trkpt lat="63.64751" lon="10.12633">
        <ele>67.559465</ele>
        <time>2020-07-15T13:52:32.443Z</time>
      </trkpt>
      <trkpt lat="63.64763" lon="10.12673">
        <ele>67.977429</ele>
        <time>2020-07-15T13:52:38.810Z</time>
      </trkpt>
      <trkpt lat="63.64779" lon="10.12727">
        <ele>68.527417</ele>
        <time>2020-07-15T13:52:46.927Z</time>
      </trkpt>
      <trkpt lat="63.64805" lon="10.12809">
        <ele>69.387234</ele>
        <time>2020-07-15T13:52:57.552Z</time>
      </trkpt>
      <trkpt lat="63.64835" lon="10.12905">
        <ele>70.327778</ele>
        <time>2020-07-15T13:53:05.752Z</time>
      </trkpt>
      <trkpt lat="63.64839" lon="10.12919">
        <ele>70.129512</ele>
        <time>2020-07-15T13:53:06.701Z</time>
      </trkpt>
      <trkpt lat="63.6486" lon="10.12986">
        <ele>69.150054</ele>
        <time>2020-07-15T13:53:11.442Z</time>
      </trkpt>
      <trkpt lat="63.64867" lon="10.13009">
        <ele>68.818632</ele>
        <time>2020-07-15T13:53:13.066Z</time>
      </trkpt>
      <trkpt lat="63.64873" lon="10.13027">
        <ele>68.545034</ele>
        <time>2020-07-15T13:53:14.395Z</time>
      </trkpt>
      <trkpt lat="63.64893" lon="10.13093">
        <ele>67.584997</ele>
        <time>2020-07-15T13:53:19.044Z</time>
      </trkpt>
      <trkpt lat="63.64908" lon="10.1314">
        <ele>66.885031</ele>
        <time>2020-07-15T13:53:22.435Z</time>
      </trkpt>
      <trkpt lat="63.64915" lon="10.13163">
        <ele>66.556995</ele>
        <time>2020-07-15T13:53:24.021Z</time>
      </trkpt>
      <trkpt lat="63.64926" lon="10.13198">
        <ele>66.040362</ele>
        <time>2020-07-15T13:53:26.471Z</time>
      </trkpt>
      <trkpt lat="63.65018" lon="10.13497">
        <ele>62.327176</ele>
        <time>2020-07-15T13:53:48.421Z</time>
      </trkpt>
      <trkpt lat="63.65048" lon="10.13629">
        <ele>61.072878</ele>
        <time>2020-07-15T13:53:58.518Z</time>
      </trkpt>
      <trkpt lat="63.65057" lon="10.13677">
        <ele>60.744664</ele>
        <time>2020-07-15T13:54:02.084Z</time>
      </trkpt>
      <trkpt lat="63.65061" lon="10.13702">
        <ele>60.572605</ele>
        <time>2020-07-15T13:54:04.006Z</time>
      </trkpt>
      <trkpt lat="63.65089" lon="10.13885">
        <ele>59.355665</ele>
        <time>2020-07-15T13:54:17.023Z</time>
      </trkpt>
      <trkpt lat="63.65109" lon="10.14067">
        <ele>57.734982</ele>
        <time>2020-07-15T13:54:28.611Z</time>
      </trkpt>
      <trkpt lat="63.65118" lon="10.14172">
        <ele>56.652821</ele>
        <time>2020-07-15T13:54:35.089Z</time>
      </trkpt>
      <trkpt lat="63.65129" lon="10.14283">
        <ele>55.504763</ele>
        <time>2020-07-15T13:54:42.081Z</time>
      </trkpt>
      <trkpt lat="63.65146" lon="10.14411">
        <ele>53.983213</ele>
        <time>2020-07-15T13:54:50.401Z</time>
      </trkpt>
      <trkpt lat="63.65174" lon="10.14536">
        <ele>52.215074</ele>
        <time>2020-07-15T13:54:58.597Z</time>
      </trkpt>
      <trkpt lat="63.65178" lon="10.14551">
        <ele>51.99734</ele>
        <time>2020-07-15T13:54:59.689Z</time>
      </trkpt>
      <trkpt lat="63.65181" lon="10.14562">
        <ele>51.830625</ele>
        <time>2020-07-15T13:55:00.488Z</time>
      </trkpt>
      <trkpt lat="63.65187" lon="10.14583">
        <ele>51.516356</ele>
        <time>2020-07-15T13:55:01.966Z</time>
      </trkpt>
      <trkpt lat="63.65194" lon="10.14609">
        <ele>51.117664</ele>
        <time>2020-07-15T13:55:03.762Z</time>
      </trkpt>
      <trkpt lat="63.6521" lon="10.14656">
        <ele>50.373721</ele>
        <time>2020-07-15T13:55:07.193Z</time>
      </trkpt>
      <trkpt lat="63.65223" lon="10.14692">
        <ele>49.78865</ele>
        <time>2020-07-15T13:55:09.859Z</time>
      </trkpt>
      <trkpt lat="63.65245" lon="10.14751">
        <ele>48.58921</ele>
        <time>2020-07-15T13:55:14.326Z</time>
      </trkpt>
      <trkpt lat="63.65279" lon="10.14842">
        <ele>46.732215</ele>
        <time>2020-07-15T13:55:21.079Z</time>
      </trkpt>
      <trkpt lat="63.65292" lon="10.14875">
        <ele>46.024612</ele>
        <time>2020-07-15T13:55:23.558Z</time>
      </trkpt>
      <trkpt lat="63.65305" lon="10.14911">
        <ele>45.290674</ele>
        <time>2020-07-15T13:55:26.138Z</time>
      </trkpt>
      <trkpt lat="63.65401" lon="10.15121">
        <ele>41.39094</ele>
        <time>2020-07-15T13:55:43.496Z</time>
      </trkpt>
      <trkpt lat="63.65505" lon="10.15291">
        <ele>38.413118</ele>
        <time>2020-07-15T13:56:02.074Z</time>
      </trkpt>
      <trkpt lat="63.65563" lon="10.15407">
        <ele>36.969229</ele>
        <time>2020-07-15T13:56:13.081Z</time>
      </trkpt>
      <trkpt lat="63.65577" lon="10.1544">
        <ele>36.597879</ele>
        <time>2020-07-15T13:56:15.888Z</time>
      </trkpt>
      <trkpt lat="63.65599" lon="10.15494">
        <ele>35.989463</ele>
        <time>2020-07-15T13:56:20.469Z</time>
      </trkpt>
      <trkpt lat="63.65733" lon="10.15832">
        <ele>33.179883</ele>
        <time>2020-07-15T13:56:50.118Z</time>
      </trkpt>
      <trkpt lat="63.65743" lon="10.1586">
        <ele>33.05662</ele>
        <time>2020-07-15T13:56:52.839Z</time>
      </trkpt>
      <trkpt lat="63.6575" lon="10.15876">
        <ele>32.992768</ele>
        <time>2020-07-15T13:56:54.735Z</time>
      </trkpt>
      <trkpt lat="63.65775" lon="10.15939">
        <ele>32.756097</ele>
        <time>2020-07-15T13:57:01.297Z</time>
      </trkpt>
      <trkpt lat="63.65818" lon="10.16046">
        <ele>32.348889</ele>
        <time>2020-07-15T13:57:11.696Z</time>
      </trkpt>
      <trkpt lat="63.65826" lon="10.16068">
        <ele>32.267735</ele>
        <time>2020-07-15T13:57:13.827Z</time>
      </trkpt>
      <trkpt lat="63.65874" lon="10.16188">
        <ele>32.134619</ele>
        <time>2020-07-15T13:57:25.089Z</time>
      </trkpt>
      <trkpt lat="63.65894" lon="10.16238">
        <ele>32.272424</ele>
        <time>2020-07-15T13:57:29.684Z</time>
      </trkpt>
      <trkpt lat="63.65941" lon="10.16354">
        <ele>32.597754</ele>
        <time>2020-07-15T13:57:42.487Z</time>
      </trkpt>
      <trkpt lat="63.65953" lon="10.16384">
        <ele>32.680775</ele>
        <time>2020-07-15T13:57:46.474Z</time>
      </trkpt>
      <trkpt lat="63.65963" lon="10.16409">
        <ele>32.751327</ele>
        <time>2020-07-15T13:57:49.503Z</time>
      </trkpt>
      <trkpt lat="63.6597" lon="10.16425">
        <ele>32.797065</ele>
        <time>2020-07-15T13:57:52.379Z</time>
      </trkpt>
      <trkpt lat="63.66008" lon="10.16498">
        <ele>34.741675</ele>
        <time>2020-07-15T13:58:04.922Z</time>
      </trkpt>
      <trkpt lat="63.66171" lon="10.16762">
        <ele>43.421505</ele>
        <time>2020-07-15T13:59:16.333Z</time>
      </trkpt>
      <trkpt lat="63.662" lon="10.16834">
        <ele>45.06581</ele>
        <time>2020-07-15T13:59:30.340Z</time>
      </trkpt>
      <trkpt lat="63.66227" lon="10.16942">
        <ele>47.189425</ele>
        <time>2020-07-15T13:59:45.629Z</time>
      </trkpt>
      <trkpt lat="63.6623" lon="10.16961">
        <ele>47.532549</ele>
        <time>2020-07-15T13:59:48.103Z</time>
      </trkpt>
      <trkpt lat="63.66234" lon="10.16991">
        <ele>47.881039</ele>
        <time>2020-07-15T13:59:51.138Z</time>
      </trkpt>
      <trkpt lat="63.66261" lon="10.1722">
        <ele>46.757625</ele>
        <time>2020-07-15T14:00:08.943Z</time>
      </trkpt>
      <trkpt lat="63.66268" lon="10.17256">
        <ele>46.570953</ele>
        <time>2020-07-15T14:00:11.362Z</time>
      </trkpt>
      <trkpt lat="63.66272" lon="10.17274">
        <ele>46.478643</ele>
        <time>2020-07-15T14:00:12.629Z</time>
      </trkpt>
      <trkpt lat="63.66279" lon="10.17302">
        <ele>46.323783</ele>
        <time>2020-07-15T14:00:14.612Z</time>
      </trkpt>
      <trkpt lat="63.66299" lon="10.17373">
        <ele>45.762528</ele>
        <time>2020-07-15T14:00:19.319Z</time>
      </trkpt>
      <trkpt lat="63.66365" lon="10.17598">
        <ele>41.687866</ele>
        <time>2020-07-15T14:00:34.467Z</time>
      </trkpt>
      <trkpt lat="63.66371" lon="10.17616">
        <ele>41.347234</ele>
        <time>2020-07-15T14:00:35.732Z</time>
      </trkpt>
      <trkpt lat="63.66375" lon="10.17629">
        <ele>41.119437</ele>
        <time>2020-07-15T14:00:36.558Z</time>
      </trkpt>
      <trkpt lat="63.66446" lon="10.17867">
        <ele>38.960539</ele>
        <time>2020-07-15T14:00:54.397Z</time>
      </trkpt>
      <trkpt lat="63.66483" lon="10.17945">
        <ele>38.447112</ele>
        <time>2020-07-15T14:01:02.627Z</time>
      </trkpt>
      <trkpt lat="63.66536" lon="10.18036">
        <ele>38.496909</ele>
        <time>2020-07-15T14:01:16.537Z</time>
      </trkpt>
      <trkpt lat="63.66571" lon="10.18144">
        <ele>39.434166</ele>
        <time>2020-07-15T14:01:30.695Z</time>
      </trkpt>
      <trkpt lat="63.6659" lon="10.18244">
        <ele>40.188771</ele>
        <time>2020-07-15T14:01:42.634Z</time>
      </trkpt>
      <trkpt lat="63.66603" lon="10.18362">
        <ele>40.872808</ele>
        <time>2020-07-15T14:01:55.963Z</time>
      </trkpt>
      <trkpt lat="63.66617" lon="10.18635">
        <ele>40.832743</ele>
        <time>2020-07-15T14:02:18.888Z</time>
      </trkpt>
      <trkpt lat="63.66618" lon="10.18686">
        <ele>40.82531</ele>
        <time>2020-07-15T14:02:22.159Z</time>
      </trkpt>
      <trkpt lat="63.6662" lon="10.18775">
        <ele>40.572253</ele>
        <time>2020-07-15T14:02:27.872Z</time>
      </trkpt>
      <trkpt lat="63.66625" lon="10.18947">
        <ele>39.246311</ele>
        <time>2020-07-15T14:02:38.697Z</time>
      </trkpt>
      <trkpt lat="63.66627" lon="10.18977">
        <ele>39.013817</ele>
        <time>2020-07-15T14:02:40.538Z</time>
      </trkpt>
      <trkpt lat="63.66628" lon="10.19001">
        <ele>38.830018</ele>
        <time>2020-07-15T14:02:41.951Z</time>
      </trkpt>
      <trkpt lat="63.66643" lon="10.19111">
        <ele>37.942695</ele>
        <time>2020-07-15T14:02:49.392Z</time>
      </trkpt>
      <trkpt lat="63.66674" lon="10.19219">
        <ele>37.54858</ele>
        <time>2020-07-15T14:02:58.090Z</time>
      </trkpt>
      <trkpt lat="63.66684" lon="10.19249">
        <ele>37.490948</ele>
        <time>2020-07-15T14:03:00.956Z</time>
      </trkpt>
      <trkpt lat="63.66726" lon="10.19372">
        <ele>37.251407</ele>
        <time>2020-07-15T14:03:12.910Z</time>
      </trkpt>
      <trkpt lat="63.67073" lon="10.20394">
        <ele>38.695974</ele>
        <time>2020-07-15T14:05:00.154Z</time>
      </trkpt>
      <trkpt lat="63.67084" lon="10.2043">
        <ele>38.767002</ele>
        <time>2020-07-15T14:05:04.093Z</time>
      </trkpt>
      <trkpt lat="63.67088" lon="10.20442">
        <ele>38.813994</ele>
        <time>2020-07-15T14:05:05.252Z</time>
      </trkpt>
      <trkpt lat="63.67242" lon="10.20827">
        <ele>41.412212</ele>
        <time>2020-07-15T14:05:52.066Z</time>
      </trkpt>
      <trkpt lat="63.67297" lon="10.21014">
        <ele>43.744893</ele>
        <time>2020-07-15T14:06:16.126Z</time>
      </trkpt>
      <trkpt lat="63.67295" lon="10.21017">
        <ele>43.80876</ele>
        <time>2020-07-15T14:06:17.154Z</time>
      </trkpt>
      <trkpt lat="63.67289" lon="10.21059">
        <ele>44.26476</ele>
        <time>2020-07-15T14:06:24.018Z</time>
      </trkpt>
      <trkpt lat="63.67306" lon="10.21144">
        <ele>46.643743</ele>
        <time>2020-07-15T14:06:39.346Z</time>
      </trkpt>
      <trkpt lat="63.67317" lon="10.21162">
        <ele>47.458709</ele>
        <time>2020-07-15T14:06:43.230Z</time>
      </trkpt>
      <trkpt lat="63.67322" lon="10.21163">
        <ele>47.738729</ele>
        <time>2020-07-15T14:06:45.483Z</time>
      </trkpt>
      <trkpt lat="63.67321" lon="10.21174">
        <ele>48.03313</ele>
        <time>2020-07-15T14:06:47.056Z</time>
      </trkpt>
      <trkpt lat="63.6732" lon="10.2119">
        <ele>48.451032</ele>
        <time>2020-07-15T14:06:50.211Z</time>
      </trkpt>
      <trkpt lat="63.67313" lon="10.21255">
        <ele>50.210635</ele>
        <time>2020-07-15T14:07:00.940Z</time>
      </trkpt>
      <trkpt lat="63.67321" lon="10.2126">
        <ele>50.754175</ele>
        <time>2020-07-15T14:07:05.592Z</time>
      </trkpt>
      <trkpt lat="63.6734" lon="10.21274">
        <ele>51.901378</ele>
        <time>2020-07-15T14:07:12.016Z</time>
      </trkpt>
      <trkpt lat="63.67353" lon="10.21287">
        <ele>52.738311</ele>
        <time>2020-07-15T14:07:17.995Z</time>
      </trkpt>
      <trkpt lat="63.67357" lon="10.21291">
        <ele>53.048969</ele>
        <time>2020-07-15T14:07:20.602Z</time>
      </trkpt>
      <trkpt lat="63.67366" lon="10.21301">
        <ele>53.617481</ele>
        <time>2020-07-15T14:07:23.055Z</time>
      </trkpt>
      <trkpt lat="63.67383" lon="10.21322">
        <ele>54.765551</ele>
        <time>2020-07-15T14:07:30.577Z</time>
      </trkpt>
      <trkpt lat="63.67391" lon="10.21334">
        <ele>55.363324</ele>
        <time>2020-07-15T14:07:35.147Z</time>
      </trkpt>
      <trkpt lat="63.67436" lon="10.21412">
        <ele>58.965102</ele>
        <time>2020-07-15T14:07:57.034Z</time>
      </trkpt>
      <trkpt lat="63.67496" lon="10.21541">
        <ele>64.195487</ele>
        <time>2020-07-15T14:08:30.652Z</time>
      </trkpt>
      <trkpt lat="63.6752" lon="10.21601">
        <ele>66.436498</ele>
        <time>2020-07-15T14:08:42.467Z</time>
      </trkpt>
      <trkpt lat="63.67532" lon="10.21632">
        <ele>67.263334</ele>
        <time>2020-07-15T14:08:48.812Z</time>
      </trkpt>
      <trkpt lat="63.67569" lon="10.21734">
        <ele>69.816028</ele>
        <time>2020-07-15T14:09:07.177Z</time>
      </trkpt>
      <trkpt lat="63.67697" lon="10.22171">
        <ele>80.608201</ele>
        <time>2020-07-15T14:10:19.223Z</time>
      </trkpt>
      <trkpt lat="63.67776" lon="10.22339">
        <ele>88.5658</ele>
        <time>2020-07-15T14:11:00.656Z</time>
      </trkpt>
      <trkpt lat="63.67863" lon="10.226">
        <ele>103.495697</ele>
        <time>2020-07-15T14:12:15.001Z</time>
      </trkpt>
      <trkpt lat="63.67938" lon="10.22772">
        <ele>119.455312</ele>
        <time>2020-07-15T14:13:30.256Z</time>
      </trkpt>
      <trkpt lat="63.67979" lon="10.2289">
        <ele>128.752458</ele>
        <time>2020-07-15T14:14:17.071Z</time>
      </trkpt>
      <trkpt lat="63.68" lon="10.22957">
        <ele>132.748842</ele>
        <time>2020-07-15T14:14:40.474Z</time>
      </trkpt>
      <trkpt lat="63.68023" lon="10.23033">
        <ele>137.227749</ele>
        <time>2020-07-15T14:15:04.128Z</time>
      </trkpt>
      <trkpt lat="63.68093" lon="10.2326">
        <ele>147.794965</ele>
        <time>2020-07-15T14:15:56.638Z</time>
      </trkpt>
      <trkpt lat="63.68131" lon="10.23382">
        <ele>150.028746</ele>
        <time>2020-07-15T14:16:11.566Z</time>
      </trkpt>
      <trkpt lat="63.68202" lon="10.23613">
        <ele>155.208711</ele>
        <time>2020-07-15T14:16:41.688Z</time>
      </trkpt>
      <trkpt lat="63.68246" lon="10.2376">
        <ele>159.348232</ele>
        <time>2020-07-15T14:17:09.634Z</time>
      </trkpt>
      <trkpt lat="63.68275" lon="10.23848">
        <ele>161.893999</ele>
        <time>2020-07-15T14:17:29.202Z</time>
      </trkpt>
      <trkpt lat="63.68287" lon="10.23885">
        <ele>163.70487</ele>
        <time>2020-07-15T14:17:39.239Z</time>
      </trkpt>
      <trkpt lat="63.68337" lon="10.23998">
        <ele>170.409103</ele>
        <time>2020-07-15T14:18:13.409Z</time>
      </trkpt>
      <trkpt lat="63.68393" lon="10.24093">
        <ele>177.090461</ele>
        <time>2020-07-15T14:18:50.381Z</time>
      </trkpt>
      <trkpt lat="63.68449" lon="10.24166">
        <ele>181.922149</ele>
        <time>2020-07-15T14:19:21.724Z</time>
      </trkpt>
      <trkpt lat="63.68533" lon="10.2425">
        <ele>187.681849</ele>
        <time>2020-07-15T14:19:57.021Z</time>
      </trkpt>
      <trkpt lat="63.68553" lon="10.24266">
        <ele>189.006279</ele>
        <time>2020-07-15T14:20:03.982Z</time>
      </trkpt>
      <trkpt lat="63.68567" lon="10.24277">
        <ele>189.936325</ele>
        <time>2020-07-15T14:20:08.173Z</time>
      </trkpt>
      <trkpt lat="63.68762" lon="10.24405">
        <ele>194.741981</ele>
        <time>2020-07-15T14:20:53.857Z</time>
      </trkpt>
      <trkpt lat="63.68946" lon="10.24473">
        <ele>202.789678</ele>
        <time>2020-07-15T14:21:51.166Z</time>
      </trkpt>
      <trkpt lat="63.68985" lon="10.24478">
        <ele>205.883593</ele>
        <time>2020-07-15T14:22:07.412Z</time>
      </trkpt>
      <trkpt lat="63.6904" lon="10.24481">
        <ele>210.324289</ele>
        <time>2020-07-15T14:22:32.368Z</time>
      </trkpt>
      <trkpt lat="63.69145" lon="10.24478">
        <ele>218.803069</ele>
        <time>2020-07-15T14:23:24.495Z</time>
      </trkpt>
      <trkpt lat="63.69256" lon="10.2443">
        <ele>228.234256</ele>
        <time>2020-07-15T14:24:16.704Z</time>
      </trkpt>
      <trkpt lat="63.69275" lon="10.2442">
        <ele>229.831283</ele>
        <time>2020-07-15T14:24:25.249Z</time>
      </trkpt>
      <trkpt lat="63.69278" lon="10.24419">
        <ele>230.059844</ele>
        <time>2020-07-15T14:24:26.616Z</time>
      </trkpt>
      <trkpt lat="63.69575" lon="10.24286">
        <ele>240.008332</ele>
        <time>2020-07-15T14:25:53.361Z</time>
      </trkpt>
      <trkpt lat="63.69595" lon="10.24277">
        <ele>240.42717</ele>
        <time>2020-07-15T14:25:56.856Z</time>
      </trkpt>
      <trkpt lat="63.69665" lon="10.24232">
        <ele>241.13138</ele>
        <time>2020-07-15T14:26:09.200Z</time>
      </trkpt>
      <trkpt lat="63.69729" lon="10.24154">
        <ele>240.817317</ele>
        <time>2020-07-15T14:26:20.618Z</time>
      </trkpt>
      <trkpt lat="63.69845" lon="10.2398">
        <ele>240.477151</ele>
        <time>2020-07-15T14:26:44.332Z</time>
      </trkpt>
      <trkpt lat="63.69867" lon="10.23947">
        <ele>240.471751</ele>
        <time>2020-07-15T14:26:49.148Z</time>
      </trkpt>
      <trkpt lat="63.69932" lon="10.2388">
        <ele>240.457139</ele>
        <time>2020-07-15T14:27:02.175Z</time>
      </trkpt>
      <trkpt lat="63.70021" lon="10.23842">
        <ele>240.603168</ele>
        <time>2020-07-15T14:27:19.065Z</time>
      </trkpt>
      <trkpt lat="63.70054" lon="10.2383">
        <ele>240.673136</ele>
        <time>2020-07-15T14:27:25.345Z</time>
      </trkpt>
      <trkpt lat="63.7007" lon="10.23824">
        <ele>240.706029</ele>
        <time>2020-07-15T14:27:28.372Z</time>
      </trkpt>
      <trkpt lat="63.7021" lon="10.2376">
        <ele>240.910362</ele>
        <time>2020-07-15T14:27:54.169Z</time>
      </trkpt>
      <trkpt lat="63.70238" lon="10.23745">
        <ele>240.939096</ele>
        <time>2020-07-15T14:27:59.520Z</time>
      </trkpt>
      <trkpt lat="63.70292" lon="10.23714">
        <ele>240.993225</ele>
        <time>2020-07-15T14:28:09.273Z</time>
      </trkpt>
      <trkpt lat="63.70635" lon="10.23515">
        <ele>242.160345</ele>
        <time>2020-07-15T14:29:16.913Z</time>
      </trkpt>
      <trkpt lat="63.70682" lon="10.23493">
        <ele>242.119106</ele>
        <time>2020-07-15T14:29:25.688Z</time>
      </trkpt>
      <trkpt lat="63.70731" lon="10.23489">
        <ele>241.965358</ele>
        <time>2020-07-15T14:29:34.249Z</time>
      </trkpt>
      <trkpt lat="63.70764" lon="10.23497">
        <ele>241.86311</ele>
        <time>2020-07-15T14:29:39.649Z</time>
      </trkpt>
      <trkpt lat="63.7082" lon="10.2353">
        <ele>241.680581</ele>
        <time>2020-07-15T14:29:49.101Z</time>
      </trkpt>
      <trkpt lat="63.70886" lon="10.23573">
        <ele>241.281627</ele>
        <time>2020-07-15T14:30:00.153Z</time>
      </trkpt>
      <trkpt lat="63.70889" lon="10.23575">
        <ele>241.262954</ele>
        <time>2020-07-15T14:30:00.594Z</time>
      </trkpt>
      <trkpt lat="63.70947" lon="10.23592">
        <ele>240.900085</ele>
        <time>2020-07-15T14:30:10.078Z</time>
      </trkpt>
      <trkpt lat="63.71056" lon="10.23577">
        <ele>240.038714</ele>
        <time>2020-07-15T14:30:28.057Z</time>
      </trkpt>
      <trkpt lat="63.711" lon="10.23597">
        <ele>239.600519</ele>
        <time>2020-07-15T14:30:35.519Z</time>
      </trkpt>
      <trkpt lat="63.71194" lon="10.23664">
        <ele>238.251844</ele>
        <time>2020-07-15T14:30:50.255Z</time>
      </trkpt>
      <trkpt lat="63.71233" lon="10.2367">
        <ele>236.834304</ele>
        <time>2020-07-15T14:30:55.649Z</time>
      </trkpt>
      <trkpt lat="63.71275" lon="10.23657">
        <ele>235.32944</ele>
        <time>2020-07-15T14:31:01.142Z</time>
      </trkpt>
      <trkpt lat="63.71417" lon="10.23591">
        <ele>229.558828</ele>
        <time>2020-07-15T14:31:18.676Z</time>
      </trkpt>
      <trkpt lat="63.71472" lon="10.23566">
        <ele>226.969673</ele>
        <time>2020-07-15T14:31:25.528Z</time>
      </trkpt>
      <trkpt lat="63.71545" lon="10.23532">
        <ele>224.010756</ele>
        <time>2020-07-15T14:31:34.893Z</time>
      </trkpt>
      <trkpt lat="63.71631" lon="10.23493">
        <ele>222.969487</ele>
        <time>2020-07-15T14:31:47.144Z</time>
      </trkpt>
      <trkpt lat="63.71784" lon="10.23403">
        <ele>222.503347</ele>
        <time>2020-07-15T14:32:18.739Z</time>
      </trkpt>
      <trkpt lat="63.71815" lon="10.23371">
        <ele>222.715666</ele>
        <time>2020-07-15T14:32:26.058Z</time>
      </trkpt>
      <trkpt lat="63.71885" lon="10.23271">
        <ele>222.88907</ele>
        <time>2020-07-15T14:32:42.495Z</time>
      </trkpt>
      <trkpt lat="63.71922" lon="10.23242">
        <ele>222.294007</ele>
        <time>2020-07-15T14:32:49.269Z</time>
      </trkpt>
      <trkpt lat="63.72049" lon="10.23225">
        <ele>220.22599</ele>
        <time>2020-07-15T14:33:07.402Z</time>
      </trkpt>
      <trkpt lat="63.72147" lon="10.23242">
        <ele>215.276049</ele>
        <time>2020-07-15T14:33:19.380Z</time>
      </trkpt>
      <trkpt lat="63.72162" lon="10.2325">
        <ele>214.493312</ele>
        <time>2020-07-15T14:33:21.254Z</time>
      </trkpt>
      <trkpt lat="63.72171" lon="10.23256">
        <ele>214.047697</ele>
        <time>2020-07-15T14:33:22.340Z</time>
      </trkpt>
      <trkpt lat="63.72183" lon="10.23264">
        <ele>213.421101</ele>
        <time>2020-07-15T14:33:23.773Z</time>
      </trkpt>
      <trkpt lat="63.72333" lon="10.23382">
        <ele>203.328433</ele>
        <time>2020-07-15T14:33:42.243Z</time>
      </trkpt>
      <trkpt lat="63.72395" lon="10.23413">
        <ele>199.068538</ele>
        <time>2020-07-15T14:33:49.469Z</time>
      </trkpt>
      <trkpt lat="63.72413" lon="10.23419">
        <ele>197.717939</ele>
        <time>2020-07-15T14:33:51.613Z</time>
      </trkpt>
      <trkpt lat="63.72425" lon="10.23423">
        <ele>196.888966</ele>
        <time>2020-07-15T14:33:52.914Z</time>
      </trkpt>
      <trkpt lat="63.72727" lon="10.23513">
        <ele>175.809192</ele>
        <time>2020-07-15T14:34:27.774Z</time>
      </trkpt>
      <trkpt lat="63.72798" lon="10.23526">
        <ele>172.582005</ele>
        <time>2020-07-15T14:34:36.539Z</time>
      </trkpt>
      <trkpt lat="63.72851" lon="10.23518">
        <ele>170.760627</ele>
        <time>2020-07-15T14:34:43.483Z</time>
      </trkpt>
      <trkpt lat="63.72999" lon="10.2345">
        <ele>165.842214</ele>
        <time>2020-07-15T14:35:04.202Z</time>
      </trkpt>
      <trkpt lat="63.73099" lon="10.23445">
        <ele>162.715148</ele>
        <time>2020-07-15T14:35:17.326Z</time>
      </trkpt>
      <trkpt lat="63.73282" lon="10.23438">
        <ele>154.744637</ele>
        <time>2020-07-15T14:35:39.787Z</time>
      </trkpt>
      <trkpt lat="63.73307" lon="10.23439">
        <ele>153.915134</ele>
        <time>2020-07-15T14:35:42.799Z</time>
      </trkpt>
      <trkpt lat="63.73384" lon="10.23427">
        <ele>151.533309</ele>
        <time>2020-07-15T14:35:52.660Z</time>
      </trkpt>
      <trkpt lat="63.73395" lon="10.23422">
        <ele>151.166201</ele>
        <time>2020-07-15T14:35:54.183Z</time>
      </trkpt>
      <trkpt lat="63.73406" lon="10.23419">
        <ele>150.834222</ele>
        <time>2020-07-15T14:35:55.601Z</time>
      </trkpt>
      <trkpt lat="63.73603" lon="10.23322">
        <ele>146.851429</ele>
        <time>2020-07-15T14:36:24.670Z</time>
      </trkpt>
      <trkpt lat="63.73676" lon="10.23322">
        <ele>146.310477</ele>
        <time>2020-07-15T14:36:36.374Z</time>
      </trkpt>
      <trkpt lat="63.73735" lon="10.23355">
        <ele>146.385008</ele>
        <time>2020-07-15T14:36:47.047Z</time>
      </trkpt>
      <trkpt lat="63.73796" lon="10.23403">
        <ele>146.464386</ele>
        <time>2020-07-15T14:36:59.725Z</time>
      </trkpt>
      <trkpt lat="63.73897" lon="10.23577">
        <ele>147.221039</ele>
        <time>2020-07-15T14:37:26.497Z</time>
      </trkpt>
      <trkpt lat="63.73945" lon="10.2363">
        <ele>147.583088</ele>
        <time>2020-07-15T14:37:37.002Z</time>
      </trkpt>
      <trkpt lat="63.73984" lon="10.23641">
        <ele>147.64219</ele>
        <time>2020-07-15T14:37:44.300Z</time>
      </trkpt>
      <trkpt lat="63.74079" lon="10.23616">
        <ele>147.196523</ele>
        <time>2020-07-15T14:38:00.334Z</time>
      </trkpt>
      <trkpt lat="63.74123" lon="10.23619">
        <ele>146.990853</ele>
        <time>2020-07-15T14:38:07.642Z</time>
      </trkpt>
      <trkpt lat="63.74165" lon="10.23644">
        <ele>146.466962</ele>
        <time>2020-07-15T14:38:14.041Z</time>
      </trkpt>
      <trkpt lat="63.74239" lon="10.23732">
        <ele>144.809128</ele>
        <time>2020-07-15T14:38:26.254Z</time>
      </trkpt>
      <trkpt lat="63.74247" lon="10.23738">
        <ele>144.656675</ele>
        <time>2020-07-15T14:38:27.955Z</time>
      </trkpt>
      <trkpt lat="63.74262" lon="10.23749">
        <ele>144.338549</ele>
        <time>2020-07-15T14:38:30.009Z</time>
      </trkpt>
      <trkpt lat="63.74479" lon="10.238">
        <ele>138.81473</ele>
        <time>2020-07-15T14:38:58.998Z</time>
      </trkpt>
      <trkpt lat="63.74559" lon="10.23834">
        <ele>137.647339</ele>
        <time>2020-07-15T14:39:10.486Z</time>
      </trkpt>
      <trkpt lat="63.74589" lon="10.23817">
        <ele>137.267038</ele>
        <time>2020-07-15T14:39:15.290Z</time>
      </trkpt>
      <trkpt lat="63.74663" lon="10.23742">
        <ele>136.311425</ele>
        <time>2020-07-15T14:39:28.611Z</time>
      </trkpt>
      <trkpt lat="63.74719" lon="10.23713">
        <ele>136.131758</ele>
        <time>2020-07-15T14:39:39.494Z</time>
      </trkpt>
      <trkpt lat="63.74867" lon="10.23716">
        <ele>135.212592</ele>
        <time>2020-07-15T14:40:04.664Z</time>
      </trkpt>
      <trkpt lat="63.74997" lon="10.23685">
        <ele>132.557233</ele>
        <time>2020-07-15T14:40:22.844Z</time>
      </trkpt>
      <trkpt lat="63.75314" lon="10.23732">
        <ele>122.783859</ele>
        <time>2020-07-15T14:41:03.983Z</time>
      </trkpt>
      <trkpt lat="63.75457" lon="10.23713">
        <ele>119.410161</ele>
        <time>2020-07-15T14:41:24.005Z</time>
      </trkpt>
      <trkpt lat="63.75467" lon="10.2371">
        <ele>119.231223</ele>
        <time>2020-07-15T14:41:25.307Z</time>
      </trkpt>
      <trkpt lat="63.75486" lon="10.23707">
        <ele>118.872639</ele>
        <time>2020-07-15T14:41:28.241Z</time>
      </trkpt>
      <trkpt lat="63.75599" lon="10.23694">
        <ele>116.843178</ele>
        <time>2020-07-15T14:41:44.709Z</time>
      </trkpt>
      <trkpt lat="63.75612" lon="10.23696">
        <ele>116.622049</ele>
        <time>2020-07-15T14:41:46.498Z</time>
      </trkpt>
      <trkpt lat="63.7564" lon="10.23704">
        <ele>116.149328</ele>
        <time>2020-07-15T14:41:50.664Z</time>
      </trkpt>
      <trkpt lat="63.75698" lon="10.23737">
        <ele>115.139988</ele>
        <time>2020-07-15T14:41:59.570Z</time>
      </trkpt>
      <trkpt lat="63.75896" lon="10.2389">
        <ele>111.105332</ele>
        <time>2020-07-15T14:42:29.029Z</time>
      </trkpt>
      <trkpt lat="63.75925" lon="10.23911">
        <ele>110.714117</ele>
        <time>2020-07-15T14:42:33.263Z</time>
      </trkpt>
      <trkpt lat="63.75938" lon="10.2392">
        <ele>110.570322</ele>
        <time>2020-07-15T14:42:35.203Z</time>
      </trkpt>
      <trkpt lat="63.7595" lon="10.23927">
        <ele>110.439565</ele>
        <time>2020-07-15T14:42:37.043Z</time>
      </trkpt>
      <trkpt lat="63.75963" lon="10.23932">
        <ele>110.300682</ele>
        <time>2020-07-15T14:42:38.891Z</time>
      </trkpt>
      <trkpt lat="63.76014" lon="10.23926">
        <ele>109.75741</ele>
        <time>2020-07-15T14:42:46.668Z</time>
      </trkpt>
      <trkpt lat="63.76048" lon="10.23906">
        <ele>109.387407</ele>
        <time>2020-07-15T14:42:52.162Z</time>
      </trkpt>
      <trkpt lat="63.76049" lon="10.23905">
        <ele>109.377646</ele>
        <time>2020-07-15T14:42:52.456Z</time>
      </trkpt>
      <trkpt lat="63.76076" lon="10.23898">
        <ele>109.093457</ele>
        <time>2020-07-15T14:42:56.948Z</time>
      </trkpt>
      <trkpt lat="63.76135" lon="10.23911">
        <ele>110.146649</ele>
        <time>2020-07-15T14:43:09.066Z</time>
      </trkpt>
      <trkpt lat="63.76197" lon="10.23891">
        <ele>111.382144</ele>
        <time>2020-07-15T14:43:24.253Z</time>
      </trkpt>
      <trkpt lat="63.76233" lon="10.2389">
        <ele>112.08181</ele>
        <time>2020-07-15T14:43:33.893Z</time>
      </trkpt>
      <trkpt lat="63.76565" lon="10.23989">
        <ele>125.262572</ele>
        <time>2020-07-15T14:45:16.262Z</time>
      </trkpt>
      <trkpt lat="63.76583" lon="10.23992">
        <ele>126.050794</ele>
        <time>2020-07-15T14:45:22.501Z</time>
      </trkpt>
      <trkpt lat="63.76599" lon="10.23993">
        <ele>126.754459</ele>
        <time>2020-07-15T14:45:27.558Z</time>
      </trkpt>
      <trkpt lat="63.76656" lon="10.23985">
        <ele>130.599273</ele>
        <time>2020-07-15T14:45:47.931Z</time>
      </trkpt>
      <trkpt lat="63.76725" lon="10.23941">
        <ele>136.00142</ele>
        <time>2020-07-15T14:46:14.766Z</time>
      </trkpt>
      <trkpt lat="63.76771" lon="10.23889">
        <ele>139.861296</ele>
        <time>2020-07-15T14:46:39.135Z</time>
      </trkpt>
      <trkpt lat="63.76862" lon="10.23749">
        <ele>152.462919</ele>
        <time>2020-07-15T14:47:41.569Z</time>
      </trkpt>
      <trkpt lat="63.7688" lon="10.23728">
        <ele>154.849545</ele>
        <time>2020-07-15T14:47:52.751Z</time>
      </trkpt>
      <trkpt lat="63.76892" lon="10.23716">
        <ele>156.432427</ele>
        <time>2020-07-15T14:48:01.654Z</time>
      </trkpt>
      <trkpt lat="63.76936" lon="10.23683">
        <ele>161.994922</ele>
        <time>2020-07-15T14:48:28.662Z</time>
      </trkpt>
      <trkpt lat="63.76976" lon="10.23667">
        <ele>165.608143</ele>
        <time>2020-07-15T14:48:52.298Z</time>
      </trkpt>
      <trkpt lat="63.77057" lon="10.23654">
        <ele>172.290686</ele>
        <time>2020-07-15T14:49:34.115Z</time>
      </trkpt>
      <trkpt lat="63.77165" lon="10.23654">
        <ele>177.166308</ele>
        <time>2020-07-15T14:50:04.509Z</time>
      </trkpt>
      <trkpt lat="63.77229" lon="10.23662">
        <ele>176.619844</ele>
        <time>2020-07-15T14:50:14.637Z</time>
      </trkpt>
      <trkpt lat="63.77243" lon="10.23664">
        <ele>176.496949</ele>
        <time>2020-07-15T14:50:16.498Z</time>
      </trkpt>
      <trkpt lat="63.77366" lon="10.23649">
        <ele>173.037985</ele>
        <time>2020-07-15T14:50:32.028Z</time>
      </trkpt>
      <trkpt lat="63.77505" lon="10.23595">
        <ele>166.588753</ele>
        <time>2020-07-15T14:50:49.163Z</time>
      </trkpt>
      <trkpt lat="63.7754" lon="10.23566">
        <ele>164.785408</ele>
        <time>2020-07-15T14:50:53.694Z</time>
      </trkpt>
      <trkpt lat="63.77634" lon="10.23403">
        <ele>158.963553</ele>
        <time>2020-07-15T14:51:08.221Z</time>
      </trkpt>
      <trkpt lat="63.77667" lon="10.2333">
        <ele>156.346444</ele>
        <time>2020-07-15T14:51:13.773Z</time>
      </trkpt>
      <trkpt lat="63.77689" lon="10.23243">
        <ele>153.859973</ele>
        <time>2020-07-15T14:51:18.997Z</time>
      </trkpt>
      <trkpt lat="63.777" lon="10.23114">
        <ele>150.536881</ele>
        <time>2020-07-15T14:51:25.897Z</time>
      </trkpt>
      <trkpt lat="63.7773" lon="10.22486">
        <ele>133.897219</ele>
        <time>2020-07-15T14:51:58.424Z</time>
      </trkpt>
      <trkpt lat="63.77732" lon="10.22438">
        <ele>132.795746</ele>
        <time>2020-07-15T14:52:01.028Z</time>
      </trkpt>
      <trkpt lat="63.77737" lon="10.22337">
        <ele>130.498913</ele>
        <time>2020-07-15T14:52:06.555Z</time>
      </trkpt>
      <trkpt lat="63.7774" lon="10.2228">
        <ele>129.20454</ele>
        <time>2020-07-15T14:52:09.672Z</time>
      </trkpt>
      <trkpt lat="63.77755" lon="10.22122">
        <ele>127.579154</ele>
        <time>2020-07-15T14:52:18.891Z</time>
      </trkpt>
      <trkpt lat="63.77785" lon="10.21982">
        <ele>126.695028</ele>
        <time>2020-07-15T14:52:28.820Z</time>
      </trkpt>
      <trkpt lat="63.77789" lon="10.21969">
        <ele>126.602608</ele>
        <time>2020-07-15T14:52:29.750Z</time>
      </trkpt>
      <trkpt lat="63.77796" lon="10.21948">
        <ele>126.446989</ele>
        <time>2020-07-15T14:52:31.796Z</time>
      </trkpt>
      <trkpt lat="63.77831" lon="10.21873">
        <ele>126.16338</ele>
        <time>2020-07-15T14:52:42.622Z</time>
      </trkpt>
      <trkpt lat="63.77863" lon="10.21827">
        <ele>127.13636</ele>
        <time>2020-07-15T14:52:53.857Z</time>
      </trkpt>
      <trkpt lat="63.77899" lon="10.21795">
        <ele>128.110781</ele>
        <time>2020-07-15T14:53:05.744Z</time>
      </trkpt>
      <trkpt lat="63.77941" lon="10.21777">
        <ele>129.20584</ele>
        <time>2020-07-15T14:53:17.953Z</time>
      </trkpt>
      <trkpt lat="63.77953" lon="10.21776">
        <ele>129.513562</ele>
        <time>2020-07-15T14:53:22.002Z</time>
      </trkpt>
      <trkpt lat="63.77978" lon="10.21778">
        <ele>130.133732</ele>
        <time>2020-07-15T14:53:27.033Z</time>
      </trkpt>
      <trkpt lat="63.77988" lon="10.2178">
        <ele>130.388913</ele>
        <time>2020-07-15T14:53:30.072Z</time>
      </trkpt>
      <trkpt lat="63.77995" lon="10.21783">
        <ele>130.397257</ele>
        <time>2020-07-15T14:53:32.075Z</time>
      </trkpt>
      <trkpt lat="63.78008" lon="10.21789">
        <ele>129.86795</ele>
        <time>2020-07-15T14:53:35.141Z</time>
      </trkpt>
      <trkpt lat="63.78056" lon="10.2183">
        <ele>127.759541</ele>
        <time>2020-07-15T14:53:43.024Z</time>
      </trkpt>
      <trkpt lat="63.78074" lon="10.21853">
        <ele>126.921492</ele>
        <time>2020-07-15T14:53:46.303Z</time>
      </trkpt>
      <trkpt lat="63.78079" lon="10.21859">
        <ele>126.697714</ele>
        <time>2020-07-15T14:53:46.884Z</time>
      </trkpt>
      <trkpt lat="63.78219" lon="10.2207">
        <ele>117.374037</ele>
        <time>2020-07-15T14:54:05.874Z</time>
      </trkpt>
      <trkpt lat="63.78257" lon="10.22147">
        <ele>113.743138</ele>
        <time>2020-07-15T14:54:11.672Z</time>
      </trkpt>
      <trkpt lat="63.78294" lon="10.22236">
        <ele>110.228731</ele>
        <time>2020-07-15T14:54:17.867Z</time>
      </trkpt>
      <trkpt lat="63.78406" lon="10.22516">
        <ele>104.971124</ele>
        <time>2020-07-15T14:54:39.879Z</time>
      </trkpt>
      <trkpt lat="63.78483" lon="10.22708">
        <ele>105.018933</ele>
        <time>2020-07-15T14:55:00.000Z</time>
      </trkpt>
      <trkpt lat="63.78614" lon="10.23033">
        <ele>107.741001</ele>
        <time>2020-07-15T14:55:44.071Z</time>
      </trkpt>
      <trkpt lat="63.78635" lon="10.23078">
        <ele>108.349515</ele>
        <time>2020-07-15T14:55:52.489Z</time>
      </trkpt>
      <trkpt lat="63.78665" lon="10.23117">
        <ele>109.069164</ele>
        <time>2020-07-15T14:56:02.180Z</time>
      </trkpt>
      <trkpt lat="63.787" lon="10.23139">
        <ele>109.902987</ele>
        <time>2020-07-15T14:56:12.579Z</time>
      </trkpt>
      <trkpt lat="63.78773" lon="10.23159">
        <ele>111.597923</ele>
        <time>2020-07-15T14:56:32.692Z</time>
      </trkpt>
      <trkpt lat="63.78869" lon="10.23154">
        <ele>112.801576</ele>
        <time>2020-07-15T14:56:53.410Z</time>
      </trkpt>
      <trkpt lat="63.78903" lon="10.23167">
        <ele>112.557641</ele>
        <time>2020-07-15T14:56:59.061Z</time>
      </trkpt>
      <trkpt lat="63.79034" lon="10.23331">
        <ele>111.553002</ele>
        <time>2020-07-15T14:57:20.979Z</time>
      </trkpt>
      <trkpt lat="63.79063" lon="10.2335">
        <ele>111.393468</ele>
        <time>2020-07-15T14:57:25.737Z</time>
      </trkpt>
      <trkpt lat="63.79091" lon="10.23347">
        <ele>111.244824</ele>
        <time>2020-07-15T14:57:30.509Z</time>
      </trkpt>
      <trkpt lat="63.79165" lon="10.23299">
        <ele>110.839232</ele>
        <time>2020-07-15T14:57:44.280Z</time>
      </trkpt>
      <trkpt lat="63.79243" lon="10.23292">
        <ele>110.311319</ele>
        <time>2020-07-15T14:57:58.635Z</time>
      </trkpt>
      <trkpt lat="63.79347" lon="10.23251">
        <ele>109.575432</ele>
        <time>2020-07-15T14:58:15.074Z</time>
      </trkpt>
      <trkpt lat="63.79526" lon="10.23261">
        <ele>106.544826</ele>
        <time>2020-07-15T14:58:39.888Z</time>
      </trkpt>
      <trkpt lat="63.79678" lon="10.2331">
        <ele>107.170506</ele>
        <time>2020-07-15T14:59:09.700Z</time>
      </trkpt>
      <trkpt lat="63.79706" lon="10.23308">
        <ele>107.303518</ele>
        <time>2020-07-15T14:59:16.634Z</time>
      </trkpt>
      <trkpt lat="63.79815" lon="10.23236">
        <ele>108.01168</ele>
        <time>2020-07-15T14:59:42.853Z</time>
      </trkpt>
      <trkpt lat="63.79932" lon="10.23124">
        <ele>107.004625</ele>
        <time>2020-07-15T15:00:02.916Z</time>
      </trkpt>
      <trkpt lat="63.79971" lon="10.23115">
        <ele>106.01678</ele>
        <time>2020-07-15T15:00:08.044Z</time>
      </trkpt>
      <trkpt lat="63.80138" lon="10.23128">
        <ele>101.444978</ele>
        <time>2020-07-15T15:00:29.678Z</time>
      </trkpt>
      <trkpt lat="63.80162" lon="10.23116">
        <ele>100.724491</ele>
        <time>2020-07-15T15:00:33.095Z</time>
      </trkpt>
      <trkpt lat="63.80189" lon="10.23073">
        <ele>99.768031</ele>
        <time>2020-07-15T15:00:37.647Z</time>
      </trkpt>
      <trkpt lat="63.80198" lon="10.2305">
        <ele>99.367763</ele>
        <time>2020-07-15T15:00:39.478Z</time>
      </trkpt>
      <trkpt lat="63.80202" lon="10.23042">
        <ele>99.217279</ele>
        <time>2020-07-15T15:00:40.236Z</time>
      </trkpt>
      <trkpt lat="63.80211" lon="10.23018">
        <ele>98.806594</ele>
        <time>2020-07-15T15:00:42.098Z</time>
      </trkpt>
      <trkpt lat="63.80221" lon="10.22987">
        <ele>98.254761</ele>
        <time>2020-07-15T15:00:44.423Z</time>
      </trkpt>
      <trkpt lat="63.80229" lon="10.22965">
        <ele>97.850608</ele>
        <time>2020-07-15T15:00:46.231Z</time>
      </trkpt>
      <trkpt lat="63.80249" lon="10.229">
        <ele>96.703925</ele>
        <time>2020-07-15T15:00:50.730Z</time>
      </trkpt>
      <trkpt lat="63.80256" lon="10.22878">
        <ele>96.314322</ele>
        <time>2020-07-15T15:00:52.202Z</time>
      </trkpt>
      <trkpt lat="63.8026" lon="10.22864">
        <ele>96.069093</ele>
        <time>2020-07-15T15:00:53.113Z</time>
      </trkpt>
      <trkpt lat="63.80274" lon="10.2282">
        <ele>95.293473</ele>
        <time>2020-07-15T15:00:56.367Z</time>
      </trkpt>
      <trkpt lat="63.80283" lon="10.2279">
        <ele>94.766645</ele>
        <time>2020-07-15T15:00:58.323Z</time>
      </trkpt>
      <trkpt lat="63.80289" lon="10.2277">
        <ele>94.406046</ele>
        <time>2020-07-15T15:00:59.966Z</time>
      </trkpt>
      <trkpt lat="63.80293" lon="10.22761">
        <ele>94.228867</ele>
        <time>2020-07-15T15:01:00.761Z</time>
      </trkpt>
      <trkpt lat="63.80295" lon="10.22756">
        <ele>94.139812</ele>
        <time>2020-07-15T15:01:01.120Z</time>
      </trkpt>
      <trkpt lat="63.803" lon="10.22742">
        <ele>93.865036</ele>
        <time>2020-07-15T15:01:02.130Z</time>
      </trkpt>
      <trkpt lat="63.80323" lon="10.22701">
        <ele>92.922666</ele>
        <time>2020-07-15T15:01:05.977Z</time>
      </trkpt>
      <trkpt lat="63.80327" lon="10.22697">
        <ele>92.777007</ele>
        <time>2020-07-15T15:01:06.498Z</time>
      </trkpt>
      <trkpt lat="63.80338" lon="10.22685">
        <ele>92.444654</ele>
        <time>2020-07-15T15:01:08.053Z</time>
      </trkpt>
      <trkpt lat="63.80375" lon="10.2266">
        <ele>91.475207</ele>
        <time>2020-07-15T15:01:12.901Z</time>
      </trkpt>
      <trkpt lat="63.80384" lon="10.22654">
        <ele>91.246355</ele>
        <time>2020-07-15T15:01:14.234Z</time>
      </trkpt>
      <trkpt lat="63.80391" lon="10.22705">
        <ele>90.657622</ele>
        <time>2020-07-15T15:01:17.139Z</time>
      </trkpt>
      <trkpt lat="63.80411" lon="10.22872">
        <ele>88.726651</ele>
        <time>2020-07-15T15:01:27.749Z</time>
      </trkpt>
      <trkpt lat="63.80413" lon="10.23048">
        <ele>88.316315</ele>
        <time>2020-07-15T15:01:41.684Z</time>
      </trkpt>
      <trkpt lat="63.80417" lon="10.23118">
        <ele>88.377295</ele>
        <time>2020-07-15T15:01:47.527Z</time>
      </trkpt>
      <trkpt lat="63.80434" lon="10.23217">
        <ele>88.468682</ele>
        <time>2020-07-15T15:01:56.471Z</time>
      </trkpt>
      <trkpt lat="63.80456" lon="10.23286">
        <ele>88.541425</ele>
        <time>2020-07-15T15:02:03.897Z</time>
      </trkpt>
      <trkpt lat="63.80536" lon="10.23436">
        <ele>89.745101</ele>
        <time>2020-07-15T15:02:25.700Z</time>
      </trkpt>
      <trkpt lat="63.80568" lon="10.23471">
        <ele>90.174717</ele>
        <time>2020-07-15T15:02:33.706Z</time>
      </trkpt>
      <trkpt lat="63.80604" lon="10.2347">
        <ele>90.614982</ele>
        <time>2020-07-15T15:02:41.915Z</time>
      </trkpt>
      <trkpt lat="63.80687" lon="10.23398">
        <ele>92.866604</ele>
        <time>2020-07-15T15:03:03.020Z</time>
      </trkpt>
      <trkpt lat="63.80692" lon="10.23396">
        <ele>93.024897</ele>
        <time>2020-07-15T15:03:05.034Z</time>
      </trkpt>
      <trkpt lat="63.80704" lon="10.23393">
        <ele>93.3369</ele>
        <time>2020-07-15T15:03:07.568Z</time>
      </trkpt>
      <trkpt lat="63.80744" lon="10.23404">
        <ele>94.449684</ele>
        <time>2020-07-15T15:03:17.813Z</time>
      </trkpt>
      <trkpt lat="63.80883" lon="10.23479">
        <ele>101.548947</ele>
        <time>2020-07-15T15:04:03.851Z</time>
      </trkpt>
      <trkpt lat="63.81204" lon="10.23564">
        <ele>123.019733</ele>
        <time>2020-07-15T15:06:23.235Z</time>
      </trkpt>
      <trkpt lat="63.81266" lon="10.23559">
        <ele>125.504506</ele>
        <time>2020-07-15T15:06:42.835Z</time>
      </trkpt>
      <trkpt lat="63.81594" lon="10.23483">
        <ele>126.96287</ele>
        <time>2020-07-15T15:07:38.083Z</time>
      </trkpt>
      <trkpt lat="63.81686" lon="10.23447">
        <ele>126.871846</ele>
        <time>2020-07-15T15:07:54.161Z</time>
      </trkpt>
      <trkpt lat="63.81731" lon="10.23416">
        <ele>127.574553</ele>
        <time>2020-07-15T15:08:02.465Z</time>
      </trkpt>
      <trkpt lat="63.81841" lon="10.23336">
        <ele>129.299117</ele>
        <time>2020-07-15T15:08:30.992Z</time>
      </trkpt>
      <trkpt lat="63.81867" lon="10.23316">
        <ele>129.979481</ele>
        <time>2020-07-15T15:08:37.451Z</time>
      </trkpt>
      <trkpt lat="63.81873" lon="10.23311">
        <ele>130.189735</ele>
        <time>2020-07-15T15:08:40.084Z</time>
      </trkpt>
      <trkpt lat="63.81922" lon="10.23251">
        <ele>131.904266</ele>
        <time>2020-07-15T15:08:54.601Z</time>
      </trkpt>
      <trkpt lat="63.82011" lon="10.23066">
        <ele>135.217242</ele>
        <time>2020-07-15T15:09:30.652Z</time>
      </trkpt>
      <trkpt lat="63.82039" lon="10.23031">
        <ele>135.47138</ele>
        <time>2020-07-15T15:09:38.951Z</time>
      </trkpt>
      <trkpt lat="63.82074" lon="10.23007">
        <ele>135.753945</ele>
        <time>2020-07-15T15:09:47.154Z</time>
      </trkpt>
      <trkpt lat="63.82128" lon="10.22999">
        <ele>136.177423</ele>
        <time>2020-07-15T15:09:57.437Z</time>
      </trkpt>
      <trkpt lat="63.82458" lon="10.23045">
        <ele>130.822915</ele>
        <time>2020-07-15T15:10:43.120Z</time>
      </trkpt>
      <trkpt lat="63.82523" lon="10.23022">
        <ele>129.809952</ele>
        <time>2020-07-15T15:10:53.186Z</time>
      </trkpt>
      <trkpt lat="63.82667" lon="10.2294">
        <ele>131.236055</ele>
        <time>2020-07-15T15:11:24.967Z</time>
      </trkpt>
      <trkpt lat="63.82683" lon="10.22926">
        <ele>131.398898</ele>
        <time>2020-07-15T15:11:29.104Z</time>
      </trkpt>
      <trkpt lat="63.82685" lon="10.22924">
        <ele>131.423127</ele>
        <time>2020-07-15T15:11:29.969Z</time>
      </trkpt>
      <trkpt lat="63.82791" lon="10.22827">
        <ele>132.780228</ele>
        <time>2020-07-15T15:11:55.809Z</time>
      </trkpt>
      <trkpt lat="63.8288" lon="10.22798">
        <ele>133.850756</ele>
        <time>2020-07-15T15:12:14.279Z</time>
      </trkpt>
      <trkpt lat="63.82971" lon="10.22825">
        <ele>134.757101</ele>
        <time>2020-07-15T15:12:32.302Z</time>
      </trkpt>
      <trkpt lat="63.83177" lon="10.22956">
        <ele>137.699188</ele>
        <time>2020-07-15T15:13:20.504Z</time>
      </trkpt>
      <trkpt lat="63.83218" lon="10.22982">
        <ele>138.38402</ele>
        <time>2020-07-15T15:13:30.701Z</time>
      </trkpt>
      <trkpt lat="63.83249" lon="10.23002">
        <ele>139.204837</ele>
        <time>2020-07-15T15:13:38.337Z</time>
      </trkpt>
      <trkpt lat="63.83341" lon="10.23062">
        <ele>141.615649</ele>
        <time>2020-07-15T15:14:03.172Z</time>
      </trkpt>
      <trkpt lat="63.83412" lon="10.23076">
        <ele>143.503752</ele>
        <time>2020-07-15T15:14:22.724Z</time>
      </trkpt>
      <trkpt lat="63.83432" lon="10.23074">
        <ele>144.07077</ele>
        <time>2020-07-15T15:14:27.520Z</time>
      </trkpt>
      <trkpt lat="63.83438" lon="10.23072">
        <ele>144.261182</ele>
        <time>2020-07-15T15:14:30.162Z</time>
      </trkpt>
      <trkpt lat="63.83514" lon="10.23043">
        <ele>146.497862</ele>
        <time>2020-07-15T15:14:52.270Z</time>
      </trkpt>
      <trkpt lat="63.83585" lon="10.22991">
        <ele>148.035705</ele>
        <time>2020-07-15T15:15:12.323Z</time>
      </trkpt>
      <trkpt lat="63.83599" lon="10.22977">
        <ele>147.908815</ele>
        <time>2020-07-15T15:15:15.983Z</time>
      </trkpt>
      <trkpt lat="63.83651" lon="10.22925">
        <ele>147.449141</ele>
        <time>2020-07-15T15:15:24.749Z</time>
      </trkpt>
      <trkpt lat="63.83723" lon="10.22873">
        <ele>146.838961</ele>
        <time>2020-07-15T15:15:35.475Z</time>
      </trkpt>
      <trkpt lat="63.83743" lon="10.22865">
        <ele>146.622747</ele>
        <time>2020-07-15T15:15:38.222Z</time>
      </trkpt>
      <trkpt lat="63.83762" lon="10.22859">
        <ele>146.257716</ele>
        <time>2020-07-15T15:15:40.761Z</time>
      </trkpt>
      <trkpt lat="63.83855" lon="10.22859">
        <ele>144.558689</ele>
        <time>2020-07-15T15:15:53.039Z</time>
      </trkpt>
      <trkpt lat="63.84005" lon="10.22918">
        <ele>144.996487</ele>
        <time>2020-07-15T15:16:19.975Z</time>
      </trkpt>
      <trkpt lat="63.84165" lon="10.22918">
        <ele>149.675161</ele>
        <time>2020-07-15T15:17:07.006Z</time>
      </trkpt>
      <trkpt lat="63.84239" lon="10.22877">
        <ele>153.02821</ele>
        <time>2020-07-15T15:17:33.001Z</time>
      </trkpt>
      <trkpt lat="63.84339" lon="10.22754">
        <ele>156.696383</ele>
        <time>2020-07-15T15:18:10.421Z</time>
      </trkpt>
      <trkpt lat="63.84381" lon="10.22717">
        <ele>157.902736</ele>
        <time>2020-07-15T15:18:22.378Z</time>
      </trkpt>
      <trkpt lat="63.84394" lon="10.22709">
        <ele>158.272071</ele>
        <time>2020-07-15T15:18:26.590Z</time>
      </trkpt>
      <trkpt lat="63.844" lon="10.22705">
        <ele>158.456519</ele>
        <time>2020-07-15T15:18:27.647Z</time>
      </trkpt>
      <trkpt lat="63.84844" lon="10.22486">
        <ele>156.066286</ele>
        <time>2020-07-15T15:19:38.268Z</time>
      </trkpt>
      <trkpt lat="63.84904" lon="10.22472">
        <ele>155.852998</ele>
        <time>2020-07-15T15:19:48.278Z</time>
      </trkpt>
      <trkpt lat="63.85202" lon="10.22453">
        <ele>156.842762</ele>
        <time>2020-07-15T15:20:45.124Z</time>
      </trkpt>
      <trkpt lat="63.85249" lon="10.22451">
        <ele>157.274936</ele>
        <time>2020-07-15T15:20:54.492Z</time>
      </trkpt>
      <trkpt lat="63.85274" lon="10.2245">
        <ele>157.50592</ele>
        <time>2020-07-15T15:20:59.771Z</time>
      </trkpt>
      <trkpt lat="63.85317" lon="10.22452">
        <ele>157.901034</ele>
        <time>2020-07-15T15:21:09.029Z</time>
      </trkpt>
      <trkpt lat="63.85356" lon="10.22469">
        <ele>158.938177</ele>
        <time>2020-07-15T15:21:18.364Z</time>
      </trkpt>
      <trkpt lat="63.85462" lon="10.22591">
        <ele>162.386938</ele>
        <time>2020-07-15T15:21:50.567Z</time>
      </trkpt>
      <trkpt lat="63.85501" lon="10.22619">
        <ele>163.747668</ele>
        <time>2020-07-15T15:22:03.467Z</time>
      </trkpt>
      <trkpt lat="63.85579" lon="10.22652">
        <ele>167.074553</ele>
        <time>2020-07-15T15:22:30.324Z</time>
      </trkpt>
      <trkpt lat="63.85634" lon="10.22665">
        <ele>169.387589</ele>
        <time>2020-07-15T15:22:47.483Z</time>
      </trkpt>
      <trkpt lat="63.85655" lon="10.22665">
        <ele>170.30514</ele>
        <time>2020-07-15T15:22:54.277Z</time>
      </trkpt>
      <trkpt lat="63.85673" lon="10.22664">
        <ele>170.845372</ele>
        <time>2020-07-15T15:22:59.195Z</time>
      </trkpt>
      <trkpt lat="63.85725" lon="10.22651">
        <ele>171.548565</ele>
        <time>2020-07-15T15:23:13.193Z</time>
      </trkpt>
      <trkpt lat="63.85778" lon="10.2262">
        <ele>172.295765</ele>
        <time>2020-07-15T15:23:26.043Z</time>
      </trkpt>
      <trkpt lat="63.86066" lon="10.22372">
        <ele>170.8526</ele>
        <time>2020-07-15T15:24:15.487Z</time>
      </trkpt>
      <trkpt lat="63.86145" lon="10.22338">
        <ele>169.471639</ele>
        <time>2020-07-15T15:24:26.909Z</time>
      </trkpt>
      <trkpt lat="63.86292" lon="10.22331">
        <ele>165.821862</ele>
        <time>2020-07-15T15:24:46.686Z</time>
      </trkpt>
      <trkpt lat="63.86376" lon="10.22311">
        <ele>163.6169</ele>
        <time>2020-07-15T15:24:57.833Z</time>
      </trkpt>
      <trkpt lat="63.86448" lon="10.22265">
        <ele>162.069863</ele>
        <time>2020-07-15T15:25:08.007Z</time>
      </trkpt>
      <trkpt lat="63.86523" lon="10.2218">
        <ele>160.329425</ele>
        <time>2020-07-15T15:25:20.100Z</time>
      </trkpt>
      <trkpt lat="63.86541" lon="10.22159">
        <ele>160.227189</ele>
        <time>2020-07-15T15:25:23.158Z</time>
      </trkpt>
      <trkpt lat="63.86558" lon="10.22142">
        <ele>160.272322</ele>
        <time>2020-07-15T15:25:25.985Z</time>
      </trkpt>
      <trkpt lat="63.86608" lon="10.2211">
        <ele>160.398489</ele>
        <time>2020-07-15T15:25:34.281Z</time>
      </trkpt>
      <trkpt lat="63.86748" lon="10.22066">
        <ele>162.011926</ele>
        <time>2020-07-15T15:26:05.413Z</time>
      </trkpt>
      <trkpt lat="63.8681" lon="10.22038">
        <ele>163.93735</ele>
        <time>2020-07-15T15:26:23.342Z</time>
      </trkpt>
      <trkpt lat="63.86899" lon="10.21931">
        <ele>166.88193</ele>
        <time>2020-07-15T15:26:54.399Z</time>
      </trkpt>
      <trkpt lat="63.86945" lon="10.21893">
        <ele>168.242303</ele>
        <time>2020-07-15T15:27:09.314Z</time>
      </trkpt>
      <trkpt lat="63.86985" lon="10.21881">
        <ele>169.348918</ele>
        <time>2020-07-15T15:27:20.603Z</time>
      </trkpt>
      <trkpt lat="63.87188" lon="10.21865">
        <ele>172.09878</ele>
        <time>2020-07-15T15:28:02.833Z</time>
      </trkpt>
      <trkpt lat="63.87267" lon="10.21846">
        <ele>172.797098</ele>
        <time>2020-07-15T15:28:17.103Z</time>
      </trkpt>
      <trkpt lat="63.87356" lon="10.21802">
        <ele>173.680778</ele>
        <time>2020-07-15T15:28:35.753Z</time>
      </trkpt>
      <trkpt lat="63.87588" lon="10.21635">
        <ele>176.706801</ele>
        <time>2020-07-15T15:29:33.970Z</time>
      </trkpt>
      <trkpt lat="63.87676" lon="10.2159">
        <ele>175.070509</ele>
        <time>2020-07-15T15:29:47.590Z</time>
      </trkpt>
      <trkpt lat="63.87741" lon="10.21589">
        <ele>173.89289</ele>
        <time>2020-07-15T15:29:55.975Z</time>
      </trkpt>
      <trkpt lat="63.88035" lon="10.2165">
        <ele>161.579465</ele>
        <time>2020-07-15T15:30:31.980Z</time>
      </trkpt>
      <trkpt lat="63.8816" lon="10.21624">
        <ele>158.345934</ele>
        <time>2020-07-15T15:30:49.480Z</time>
      </trkpt>
      <trkpt lat="63.88293" lon="10.21569">
        <ele>156.961851</ele>
        <time>2020-07-15T15:31:11.489Z</time>
      </trkpt>
      <trkpt lat="63.88366" lon="10.21567">
        <ele>156.786552</ele>
        <time>2020-07-15T15:31:23.716Z</time>
      </trkpt>
      <trkpt lat="63.88555" lon="10.21589">
        <ele>156.599545</ele>
        <time>2020-07-15T15:31:57.042Z</time>
      </trkpt>
      <trkpt lat="63.88707" lon="10.21535">
        <ele>156.256994</ele>
        <time>2020-07-15T15:32:25.646Z</time>
      </trkpt>
      <trkpt lat="63.88928" lon="10.21505">
        <ele>150.92263</ele>
        <time>2020-07-15T15:32:59.645Z</time>
      </trkpt>
      <trkpt lat="63.88994" lon="10.21515">
        <ele>148.002628</ele>
        <time>2020-07-15T15:33:07.034Z</time>
      </trkpt>
      <trkpt lat="63.89051" lon="10.21553">
        <ele>142.483273</ele>
        <time>2020-07-15T15:33:13.621Z</time>
      </trkpt>
      <trkpt lat="63.89058" lon="10.21561">
        <ele>141.687536</ele>
        <time>2020-07-15T15:33:14.420Z</time>
      </trkpt>
      <trkpt lat="63.89072" lon="10.21579">
        <ele>140.081476</ele>
        <time>2020-07-15T15:33:16.266Z</time>
      </trkpt>
      <trkpt lat="63.89075" lon="10.21584">
        <ele>139.685488</ele>
        <time>2020-07-15T15:33:16.694Z</time>
      </trkpt>
      <trkpt lat="63.89081" lon="10.21595">
        <ele>138.947264</ele>
        <time>2020-07-15T15:33:17.539Z</time>
      </trkpt>
      <trkpt lat="63.89085" lon="10.21602">
        <ele>138.425696</ele>
        <time>2020-07-15T15:33:18.066Z</time>
      </trkpt>
      <trkpt lat="63.89111" lon="10.21667">
        <ele>134.524732</ele>
        <time>2020-07-15T15:33:22.244Z</time>
      </trkpt>
      <trkpt lat="63.89165" lon="10.21881">
        <ele>126.718163</ele>
        <time>2020-07-15T15:33:34.203Z</time>
      </trkpt>
      <trkpt lat="63.89201" lon="10.21983">
        <ele>123.984587</ele>
        <time>2020-07-15T15:33:41.629Z</time>
      </trkpt>
      <trkpt lat="63.8951" lon="10.22642">
        <ele>116.526263</ele>
        <time>2020-07-15T15:34:45.782Z</time>
      </trkpt>
      <trkpt lat="63.89544" lon="10.22701">
        <ele>115.769073</ele>
        <time>2020-07-15T15:34:52.282Z</time>
      </trkpt>
      <trkpt lat="63.89593" lon="10.22759">
        <ele>114.769441</ele>
        <time>2020-07-15T15:35:00.606Z</time>
      </trkpt>
      <trkpt lat="63.89645" lon="10.22805">
        <ele>113.780953</ele>
        <time>2020-07-15T15:35:08.484Z</time>
      </trkpt>
      <trkpt lat="63.89759" lon="10.22816">
        <ele>110.565665</ele>
        <time>2020-07-15T15:35:23.513Z</time>
      </trkpt>
      <trkpt lat="63.89815" lon="10.22838">
        <ele>108.784586</ele>
        <time>2020-07-15T15:35:30.916Z</time>
      </trkpt>
      <trkpt lat="63.89863" lon="10.2287">
        <ele>106.960698</ele>
        <time>2020-07-15T15:35:37.502Z</time>
      </trkpt>
      <trkpt lat="63.89901" lon="10.22914">
        <ele>105.006481</ele>
        <time>2020-07-15T15:35:42.940Z</time>
      </trkpt>
      <trkpt lat="63.89994" lon="10.23082">
        <ele>99.475787</ele>
        <time>2020-07-15T15:35:57.669Z</time>
      </trkpt>
      <trkpt lat="63.90048" lon="10.23141">
        <ele>93.487394</ele>
        <time>2020-07-15T15:36:04.351Z</time>
      </trkpt>
      <trkpt lat="63.90077" lon="10.23155">
        <ele>90.419144</ele>
        <time>2020-07-15T15:36:07.577Z</time>
      </trkpt>
      <trkpt lat="63.90109" lon="10.23157">
        <ele>87.149062</ele>
        <time>2020-07-15T15:36:10.990Z</time>
      </trkpt>
      <trkpt lat="63.90175" lon="10.23128">
        <ele>80.30711</ele>
        <time>2020-07-15T15:36:18.102Z</time>
      </trkpt>
      <trkpt lat="63.90192" lon="10.23121">
        <ele>78.589139</ele>
        <time>2020-07-15T15:36:19.894Z</time>
      </trkpt>
      <trkpt lat="63.90209" lon="10.23115">
        <ele>76.846807</ele>
        <time>2020-07-15T15:36:21.801Z</time>
      </trkpt>
      <trkpt lat="63.90261" lon="10.23115">
        <ele>71.63632</ele>
        <time>2020-07-15T15:36:27.359Z</time>
      </trkpt>
      <trkpt lat="63.90299" lon="10.23151">
        <ele>67.477191</ele>
        <time>2020-07-15T15:36:31.884Z</time>
      </trkpt>
      <trkpt lat="63.90329" lon="10.23217">
        <ele>63.343987</ele>
        <time>2020-07-15T15:36:36.494Z</time>
      </trkpt>
      <trkpt lat="63.90376" lon="10.23394">
        <ele>59.841091</ele>
        <time>2020-07-15T15:36:48.477Z</time>
      </trkpt>
      <trkpt lat="63.90388" lon="10.23502">
        <ele>58.103228</ele>
        <time>2020-07-15T15:36:55.134Z</time>
      </trkpt>
      <trkpt lat="63.90383" lon="10.23724">
        <ele>54.714895</ele>
        <time>2020-07-15T15:37:08.321Z</time>
      </trkpt>
      <trkpt lat="63.90396" lon="10.24039">
        <ele>50.203479</ele>
        <time>2020-07-15T15:37:26.033Z</time>
      </trkpt>
      <trkpt lat="63.90409" lon="10.24152">
        <ele>49.125827</ele>
        <time>2020-07-15T15:37:32.706Z</time>
      </trkpt>
      <trkpt lat="63.90429" lon="10.24236">
        <ele>48.235486</ele>
        <time>2020-07-15T15:37:38.532Z</time>
      </trkpt>
      <trkpt lat="63.90463" lon="10.24312">
        <ele>47.233432</ele>
        <time>2020-07-15T15:37:45.603Z</time>
      </trkpt>
      <trkpt lat="63.90606" lon="10.24516">
        <ele>47.206192</ele>
        <time>2020-07-15T15:38:17.529Z</time>
      </trkpt>
      <trkpt lat="63.90663" lon="10.24623">
        <ele>47.680867</ele>
        <time>2020-07-15T15:38:32.149Z</time>
      </trkpt>
      <trkpt lat="63.9073" lon="10.24704">
        <ele>48.402191</ele>
        <time>2020-07-15T15:38:49.481Z</time>
      </trkpt>
      <trkpt lat="63.90737" lon="10.24711">
        <ele>48.472718</ele>
        <time>2020-07-15T15:38:50.553Z</time>
      </trkpt>
      <trkpt lat="63.90742" lon="10.24718">
        <ele>48.529601</ele>
        <time>2020-07-15T15:38:51.654Z</time>
      </trkpt>
      <trkpt lat="63.90752" lon="10.24733">
        <ele>48.64125</ele>
        <time>2020-07-15T15:38:55.072Z</time>
      </trkpt>
      <trkpt lat="63.90793" lon="10.24822">
        <ele>48.614773</ele>
        <time>2020-07-15T15:39:06.524Z</time>
      </trkpt>
      <trkpt lat="63.90839" lon="10.24887">
        <ele>47.245474</ele>
        <time>2020-07-15T15:39:16.474Z</time>
      </trkpt>
      <trkpt lat="63.90894" lon="10.24997">
        <ele>45.389407</ele>
        <time>2020-07-15T15:39:26.494Z</time>
      </trkpt>
      <trkpt lat="63.90925" lon="10.25037">
        <ele>44.488128</ele>
        <time>2020-07-15T15:39:30.742Z</time>
      </trkpt>
      <trkpt lat="63.90956" lon="10.25055">
        <ele>41.286175</ele>
        <time>2020-07-15T15:39:34.328Z</time>
      </trkpt>
      <trkpt lat="63.91001" lon="10.25052">
        <ele>36.596062</ele>
        <time>2020-07-15T15:39:39.190Z</time>
      </trkpt>
      <trkpt lat="63.91039" lon="10.2502">
        <ele>32.433202</ele>
        <time>2020-07-15T15:39:43.459Z</time>
      </trkpt>
      <trkpt lat="63.91073" lon="10.24955">
        <ele>27.800755</ele>
        <time>2020-07-15T15:39:48.260Z</time>
      </trkpt>
      <trkpt lat="63.91096" lon="10.24862">
        <ele>23.960053</ele>
        <time>2020-07-15T15:39:53.338Z</time>
      </trkpt>
      <trkpt lat="63.911" lon="10.24832">
        <ele>23.045371</ele>
        <time>2020-07-15T15:39:54.745Z</time>
      </trkpt>
      <trkpt lat="63.91101" lon="10.24812">
        <ele>22.429535</ele>
        <time>2020-07-15T15:39:55.787Z</time>
      </trkpt>
      <trkpt lat="63.91096" lon="10.24501">
        <ele>13.548314</ele>
        <time>2020-07-15T15:40:11.940Z</time>
      </trkpt>
      <trkpt lat="63.91092" lon="10.24343">
        <ele>13.127673</ele>
        <time>2020-07-15T15:40:25.460Z</time>
      </trkpt>
      <trkpt lat="63.91089" lon="10.24263">
        <ele>12.912892</ele>
        <time>2020-07-15T15:40:32.201Z</time>
      </trkpt>
      <trkpt lat="63.91082" lon="10.24099">
        <ele>12.495831</ele>
        <time>2020-07-15T15:40:45.627Z</time>
      </trkpt>
      <trkpt lat="63.91075" lon="10.24029">
        <ele>12.431268</ele>
        <time>2020-07-15T15:40:51.261Z</time>
      </trkpt>
      <trkpt lat="63.91061" lon="10.23957">
        <ele>12.361622</ele>
        <time>2020-07-15T15:40:57.173Z</time>
      </trkpt>
      <trkpt lat="63.91022" lon="10.23809">
        <ele>12.206212</ele>
        <time>2020-07-15T15:41:09.994Z</time>
      </trkpt>
      <trkpt lat="63.91006" lon="10.23687">
        <ele>12.473589</ele>
        <time>2020-07-15T15:41:19.333Z</time>
      </trkpt>
      <trkpt lat="63.91005" lon="10.23578">
        <ele>13.152674</ele>
        <time>2020-07-15T15:41:28.015Z</time>
      </trkpt>
      <trkpt lat="63.91012" lon="10.23506">
        <ele>13.615759</ele>
        <time>2020-07-15T15:41:34.581Z</time>
      </trkpt>
      <trkpt lat="63.91026" lon="10.23445">
        <ele>14.049211</ele>
        <time>2020-07-15T15:41:41.260Z</time>
      </trkpt>
      <trkpt lat="63.91055" lon="10.23379">
        <ele>14.631744</ele>
        <time>2020-07-15T15:41:50.968Z</time>
      </trkpt>
      <trkpt lat="63.91328" lon="10.23026">
        <ele>38.590982</ele>
        <time>2020-07-15T15:43:53.333Z</time>
      </trkpt>
      <trkpt lat="63.91367" lon="10.2299">
        <ele>42.870029</ele>
        <time>2020-07-15T15:44:23.389Z</time>
      </trkpt>
      <trkpt lat="63.91404" lon="10.22978">
        <ele>48.665385</ele>
        <time>2020-07-15T15:44:52.619Z</time>
      </trkpt>
      <trkpt lat="63.91431" lon="10.22987">
        <ele>53.451568</ele>
        <time>2020-07-15T15:45:16.344Z</time>
      </trkpt>
      <trkpt lat="63.91572" lon="10.23124">
        <ele>74.879004</ele>
        <time>2020-07-15T15:47:11.962Z</time>
      </trkpt>
      <trkpt lat="63.91624" lon="10.23142">
        <ele>75.004506</ele>
        <time>2020-07-15T15:47:29.257Z</time>
      </trkpt>
      <trkpt lat="63.91656" lon="10.23137">
        <ele>75.081321</ele>
        <time>2020-07-15T15:47:34.020Z</time>
      </trkpt>
      <trkpt lat="63.91703" lon="10.23117">
        <ele>75.193479</ele>
        <time>2020-07-15T15:47:39.411Z</time>
      </trkpt>
      <trkpt lat="63.91989" lon="10.22933">
        <ele>30.537788</ele>
        <time>2020-07-15T15:48:09.939Z</time>
      </trkpt>
      <trkpt lat="63.92033" lon="10.2288">
        <ele>23.374194</ele>
        <time>2020-07-15T15:48:15.252Z</time>
      </trkpt>
      <trkpt lat="63.92069" lon="10.22795">
        <ele>18.110704</ele>
        <time>2020-07-15T15:48:20.966Z</time>
      </trkpt>
      <trkpt lat="63.92073" lon="10.2278">
        <ele>17.755173</ele>
        <time>2020-07-15T15:48:21.863Z</time>
      </trkpt>
      <trkpt lat="63.92078" lon="10.2276">
        <ele>17.300627</ele>
        <time>2020-07-15T15:48:23.079Z</time>
      </trkpt>
      <trkpt lat="63.9209" lon="10.22703">
        <ele>16.114256</ele>
        <time>2020-07-15T15:48:26.334Z</time>
      </trkpt>
      <trkpt lat="63.92099" lon="10.22612">
        <ele>14.313955</ele>
        <time>2020-07-15T15:48:31.694Z</time>
      </trkpt>
      <trkpt lat="63.92104" lon="10.22438">
        <ele>11.165799</ele>
        <time>2020-07-15T15:48:42.495Z</time>
      </trkpt>
      <trkpt lat="63.92102" lon="10.22288">
        <ele>11.065781</ele>
        <time>2020-07-15T15:48:53.830Z</time>
      </trkpt>
      <trkpt lat="63.92094" lon="10.2216">
        <ele>10.979565</ele>
        <time>2020-07-15T15:49:03.984Z</time>
      </trkpt>
      <trkpt lat="63.92034" lon="10.21703">
        <ele>12.508603</ele>
        <time>2020-07-15T15:49:46.009Z</time>
      </trkpt>
      <trkpt lat="63.92029" lon="10.21618">
        <ele>13.363729</ele>
        <time>2020-07-15T15:49:55.008Z</time>
      </trkpt>
      <trkpt lat="63.92044" lon="10.21549">
        <ele>14.767863</ele>
        <time>2020-07-15T15:50:04.171Z</time>
      </trkpt>
      <trkpt lat="63.92069" lon="10.21504">
        <ele>16.060142</ele>
        <time>2020-07-15T15:50:13.506Z</time>
      </trkpt>
      <trkpt lat="63.92097" lon="10.21487">
        <ele>17.275368</ele>
        <time>2020-07-15T15:50:23.027Z</time>
      </trkpt>
      <trkpt lat="63.92133" lon="10.21495">
        <ele>18.758108</ele>
        <time>2020-07-15T15:50:35.526Z</time>
      </trkpt>
      <trkpt lat="63.92162" lon="10.21512">
        <ele>19.978225</ele>
        <time>2020-07-15T15:50:46.521Z</time>
      </trkpt>
      <trkpt lat="63.92174" lon="10.21519">
        <ele>20.627728</ele>
        <time>2020-07-15T15:50:51.102Z</time>
      </trkpt>
      <trkpt lat="63.92217" lon="10.21543">
        <ele>23.111391</ele>
        <time>2020-07-15T15:51:07.976Z</time>
      </trkpt>
      <trkpt lat="63.92297" lon="10.21589">
        <ele>27.752883</ele>
        <time>2020-07-15T15:51:40.090Z</time>
      </trkpt>
      <trkpt lat="63.92315" lon="10.216">
        <ele>28.81182</ele>
        <time>2020-07-15T15:51:46.595Z</time>
      </trkpt>
      <trkpt lat="63.92381" lon="10.21665">
        <ele>30.16939</ele>
        <time>2020-07-15T15:52:07.507Z</time>
      </trkpt>
      <trkpt lat="63.92423" lon="10.21729">
        <ele>30.112113</ele>
        <time>2020-07-15T15:52:18.553Z</time>
      </trkpt>
      <trkpt lat="63.92708" lon="10.22384">
        <ele>20.795401</ele>
        <time>2020-07-15T15:53:10.776Z</time>
      </trkpt>
      <trkpt lat="63.92741" lon="10.22453">
        <ele>20.244552</ele>
        <time>2020-07-15T15:53:20.016Z</time>
      </trkpt>
      <trkpt lat="63.92772" lon="10.22504">
        <ele>21.485836</ele>
        <time>2020-07-15T15:53:30.527Z</time>
      </trkpt>
      <trkpt lat="63.92775" lon="10.22507">
        <ele>21.587335</ele>
        <time>2020-07-15T15:53:31.951Z</time>
      </trkpt>
      <trkpt lat="63.92782" lon="10.22515">
        <ele>21.858118</ele>
        <time>2020-07-15T15:53:35.343Z</time>
      </trkpt>
      <trkpt lat="63.92792" lon="10.22524">
        <ele>22.205062</ele>
        <time>2020-07-15T15:53:38.200Z</time>
      </trkpt>
      <trkpt lat="63.92801" lon="10.22531">
        <ele>22.502583</ele>
        <time>2020-07-15T15:53:40.553Z</time>
      </trkpt>
      <trkpt lat="63.92815" lon="10.22539">
        <ele>22.964235</ele>
        <time>2020-07-15T15:53:46.540Z</time>
      </trkpt>
      <trkpt lat="63.92842" lon="10.22548">
        <ele>23.850377</ele>
        <time>2020-07-15T15:53:55.216Z</time>
      </trkpt>
      <trkpt lat="63.9286" lon="10.2255">
        <ele>24.434008</ele>
        <time>2020-07-15T15:54:02.197Z</time>
      </trkpt>
      <trkpt lat="63.92936" lon="10.22547">
        <ele>25.145778</ele>
        <time>2020-07-15T15:54:22.597Z</time>
      </trkpt>
      <trkpt lat="63.92999" lon="10.22545">
        <ele>23.843087</ele>
        <time>2020-07-15T15:54:33.907Z</time>
      </trkpt>
      <trkpt lat="63.93016" lon="10.22545">
        <ele>23.470878</ele>
        <time>2020-07-15T15:54:36.092Z</time>
      </trkpt>
      <trkpt lat="63.93072" lon="10.22543">
        <ele>22.314473</ele>
        <time>2020-07-15T15:54:42.959Z</time>
      </trkpt>
      <trkpt lat="63.93091" lon="10.22541">
        <ele>21.535438</ele>
        <time>2020-07-15T15:54:45.126Z</time>
      </trkpt>
      <trkpt lat="63.9312" lon="10.22534">
        <ele>19.692284</ele>
        <time>2020-07-15T15:54:48.286Z</time>
      </trkpt>
      <trkpt lat="63.93148" lon="10.22513">
        <ele>17.729304</ele>
        <time>2020-07-15T15:54:51.673Z</time>
      </trkpt>
      <trkpt lat="63.9317" lon="10.2248">
        <ele>16.018255</ele>
        <time>2020-07-15T15:54:54.609Z</time>
      </trkpt>
      <trkpt lat="63.93189" lon="10.2243">
        <ele>14.136745</ele>
        <time>2020-07-15T15:54:57.949Z</time>
      </trkpt>
      <trkpt lat="63.93194" lon="10.2241">
        <ele>13.459581</ele>
        <time>2020-07-15T15:54:59.152Z</time>
      </trkpt>
      <trkpt lat="63.93199" lon="10.22388">
        <ele>12.762285</ele>
        <time>2020-07-15T15:55:00.379Z</time>
      </trkpt>
      <trkpt lat="63.93231" lon="10.22272">
        <ele>10.02329</ele>
        <time>2020-07-15T15:55:08.012Z</time>
      </trkpt>
      <trkpt lat="63.93256" lon="10.2221">
        <ele>9.454893</ele>
        <time>2020-07-15T15:55:12.887Z</time>
      </trkpt>
      <trkpt lat="63.9328" lon="10.22177">
        <ele>9.014667</ele>
        <time>2020-07-15T15:55:16.898Z</time>
      </trkpt>
      <trkpt lat="63.933" lon="10.22163">
        <ele>8.68896</ele>
        <time>2020-07-15T15:55:19.724Z</time>
      </trkpt>
      <trkpt lat="63.93333" lon="10.22162">
        <ele>8.169783</ele>
        <time>2020-07-15T15:55:26.087Z</time>
      </trkpt>
      <trkpt lat="63.93555" lon="10.22206">
        <ele>8.934859</ele>
        <time>2020-07-15T15:56:14.113Z</time>
      </trkpt>
      <trkpt lat="63.93597" lon="10.22226">
        <ele>8.5464</ele>
        <time>2020-07-15T15:56:20.244Z</time>
      </trkpt>
      <trkpt lat="63.93617" lon="10.22245">
        <ele>8.351166</ele>
        <time>2020-07-15T15:56:23.346Z</time>
      </trkpt>
      <trkpt lat="63.93626" lon="10.22253">
        <ele>8.263681</ele>
        <time>2020-07-15T15:56:24.788Z</time>
      </trkpt>
      <trkpt lat="63.93648" lon="10.22274">
        <ele>8.045619</ele>
        <time>2020-07-15T15:56:28.143Z</time>
      </trkpt>
      <trkpt lat="63.93673" lon="10.22298">
        <ele>7.80349</ele>
        <time>2020-07-15T15:56:32.287Z</time>
      </trkpt>
      <trkpt lat="63.93691" lon="10.22315">
        <ele>7.626387</ele>
        <time>2020-07-15T15:56:35.356Z</time>
      </trkpt>
      <trkpt lat="63.93701" lon="10.22324">
        <ele>7.530481</ele>
        <time>2020-07-15T15:56:36.964Z</time>
      </trkpt>
      <trkpt lat="63.93708" lon="10.22329">
        <ele>7.460165</ele>
        <time>2020-07-15T15:56:38.200Z</time>
      </trkpt>
      <trkpt lat="63.93741" lon="10.22344">
        <ele>8.061044</ele>
        <time>2020-07-15T15:56:43.769Z</time>
      </trkpt>
      <trkpt lat="63.93749" lon="10.22345">
        <ele>8.323324</ele>
        <time>2020-07-15T15:56:45.090Z</time>
      </trkpt>
      <trkpt lat="63.9377" lon="10.22351">
        <ele>9.004432</ele>
        <time>2020-07-15T15:56:48.996Z</time>
      </trkpt>
      <trkpt lat="63.93782" lon="10.22353">
        <ele>9.390347</ele>
        <time>2020-07-15T15:56:51.277Z</time>
      </trkpt>
      <trkpt lat="63.93794" lon="10.22354">
        <ele>9.804501</ele>
        <time>2020-07-15T15:56:54.051Z</time>
      </trkpt>
      <trkpt lat="63.9381" lon="10.22355">
        <ele>10.295977</ele>
        <time>2020-07-15T15:56:57.865Z</time>
      </trkpt>
      <trkpt lat="63.93838" lon="10.22343">
        <ele>11.216681</ele>
        <time>2020-07-15T15:57:05.971Z</time>
      </trkpt>
      <trkpt lat="63.9391" lon="10.22271">
        <ele>15.114914</ele>
        <time>2020-07-15T15:57:37.434Z</time>
      </trkpt>
      <trkpt lat="63.93951" lon="10.22244">
        <ele>19.553262</ele>
        <time>2020-07-15T15:57:57.677Z</time>
      </trkpt>
      <trkpt lat="63.93994" lon="10.22237">
        <ele>24.037855</ele>
        <time>2020-07-15T15:58:20.199Z</time>
      </trkpt>
      <trkpt lat="63.94071" lon="10.22247">
        <ele>31.987074</ele>
        <time>2020-07-15T15:59:04.567Z</time>
      </trkpt>
      <trkpt lat="63.94143" lon="10.22261">
        <ele>39.017235</ele>
        <time>2020-07-15T15:59:45.673Z</time>
      </trkpt>
      <trkpt lat="63.94181" lon="10.22269">
        <ele>42.666058</ele>
        <time>2020-07-15T16:00:04.882Z</time>
      </trkpt>
      <trkpt lat="63.9421" lon="10.22276">
        <ele>45.426549</ele>
        <time>2020-07-15T16:00:18.494Z</time>
      </trkpt>
      <trkpt lat="63.94284" lon="10.22302">
        <ele>49.175996</ele>
        <time>2020-07-15T16:00:48.589Z</time>
      </trkpt>
      <trkpt lat="63.94462" lon="10.22391">
        <ele>46.721614</ele>
        <time>2020-07-15T16:01:13.974Z</time>
      </trkpt>
      <trkpt lat="63.94484" lon="10.22402">
        <ele>45.337133</ele>
        <time>2020-07-15T16:01:16.481Z</time>
      </trkpt>
      <trkpt lat="63.9451" lon="10.22416">
        <ele>43.703525</ele>
        <time>2020-07-15T16:01:19.472Z</time>
      </trkpt>
      <trkpt lat="63.94632" lon="10.22478">
        <ele>36.88453</ele>
        <time>2020-07-15T16:01:33.725Z</time>
      </trkpt>
      <trkpt lat="63.9473" lon="10.22527">
        <ele>33.435133</ele>
        <time>2020-07-15T16:01:46.405Z</time>
      </trkpt>
      <trkpt lat="63.94989" lon="10.2266">
        <ele>33.688021</ele>
        <time>2020-07-15T16:02:40.800Z</time>
      </trkpt>
      <trkpt lat="63.95132" lon="10.2267">
        <ele>35.98531</ele>
        <time>2020-07-15T16:03:11.264Z</time>
      </trkpt>
      <trkpt lat="63.9518" lon="10.22674">
        <ele>39.540191</ele>
        <time>2020-07-15T16:03:26.723Z</time>
      </trkpt>
      <trkpt lat="63.95225" lon="10.22677">
        <ele>42.842508</ele>
        <time>2020-07-15T16:03:45.898Z</time>
      </trkpt>
      <trkpt lat="63.95282" lon="10.22682">
        <ele>47.070355</ele>
        <time>2020-07-15T16:04:14.731Z</time>
      </trkpt>
      <trkpt lat="63.95304" lon="10.22685">
        <ele>48.727606</ele>
        <time>2020-07-15T16:04:28.613Z</time>
      </trkpt>
      <trkpt lat="63.95457" lon="10.22701">
        <ele>57.417559</ele>
        <time>2020-07-15T16:05:34.379Z</time>
      </trkpt>
      <trkpt lat="63.95457" lon="10.22684">
        <ele>57.836976</ele>
        <time>2020-07-15T16:05:35.772Z</time>
      </trkpt>
      <trkpt lat="63.95462" lon="10.22685">
        <ele>58.11232</ele>
        <time>2020-07-15T16:05:36.372Z</time>
      </trkpt>
      <trkpt lat="63.956" lon="10.227">
        <ele>52.364727</ele>
        <time>2020-07-15T16:05:53.857Z</time>
      </trkpt>
      <trkpt lat="63.95807" lon="10.22723">
        <ele>32.184166</ele>
        <time>2020-07-15T16:06:16.195Z</time>
      </trkpt>
      <trkpt lat="63.9586" lon="10.22721">
        <ele>26.087647</ele>
        <time>2020-07-15T16:06:21.827Z</time>
      </trkpt>
      <trkpt lat="63.95897" lon="10.22697">
        <ele>21.729537</ele>
        <time>2020-07-15T16:06:25.810Z</time>
      </trkpt>
      <trkpt lat="63.95908" lon="10.22686">
        <ele>20.265634</ele>
        <time>2020-07-15T16:06:27.092Z</time>
      </trkpt>
      <trkpt lat="63.95911" lon="10.22698">
        <ele>19.586769</ele>
        <time>2020-07-15T16:06:28.045Z</time>
      </trkpt>
      <trkpt lat="63.95913" lon="10.22706">
        <ele>19.177383</ele>
        <time>2020-07-15T16:06:28.629Z</time>
      </trkpt>
      <trkpt lat="63.95925" lon="10.22691">
        <ele>17.535799</ele>
        <time>2020-07-15T16:06:30.192Z</time>
      </trkpt>
      <trkpt lat="63.95926" lon="10.2269">
        <ele>17.43035</ele>
        <time>2020-07-15T16:06:30.294Z</time>
      </trkpt>
      <trkpt lat="63.95936" lon="10.22677">
        <ele>16.122063</ele>
        <time>2020-07-15T16:06:31.465Z</time>
      </trkpt>
      <trkpt lat="63.95966" lon="10.2263">
        <ele>11.939412</ele>
        <time>2020-07-15T16:06:35.375Z</time>
      </trkpt>
      <trkpt lat="63.95974" lon="10.22617">
        <ele>10.719054</ele>
        <time>2020-07-15T16:06:36.693Z</time>
      </trkpt>
      <trkpt lat="63.95982" lon="10.22604">
        <ele>9.603739</ele>
        <time>2020-07-15T16:06:37.809Z</time>
      </trkpt>
      <trkpt lat="63.95989" lon="10.22593">
        <ele>8.621047</ele>
        <time>2020-07-15T16:06:38.693Z</time>
      </trkpt>
      <trkpt lat="63.95995" lon="10.22584">
        <ele>7.782428</ele>
        <time>2020-07-15T16:06:39.460Z</time>
      </trkpt>
      <trkpt lat="63.96024" lon="10.22538">
        <ele>6.579094</ele>
        <time>2020-07-15T16:06:43.350Z</time>
      </trkpt>
      <trkpt lat="63.96033" lon="10.22523">
        <ele>6.2489</ele>
        <time>2020-07-15T16:06:44.907Z</time>
      </trkpt>
      <trkpt lat="63.96065" lon="10.22471">
        <ele>5.086706</ele>
        <time>2020-07-15T16:06:49.847Z</time>
      </trkpt>
      <trkpt lat="63.96071" lon="10.22462">
        <ele>4.873829</ele>
        <time>2020-07-15T16:06:50.913Z</time>
      </trkpt>
      <trkpt lat="63.96088" lon="10.22433">
        <ele>4.239251</ele>
        <time>2020-07-15T16:06:53.997Z</time>
      </trkpt>
      <trkpt lat="63.96104" lon="10.22412">
        <ele>3.711412</ele>
        <time>2020-07-15T16:06:57.096Z</time>
      </trkpt>
      <trkpt lat="63.96129" lon="10.22379">
        <ele>2.854351</ele>
        <time>2020-07-15T16:07:02.882Z</time>
      </trkpt>
      <trkpt lat="63.9613" lon="10.22384">
        <ele>2.7717</ele>
        <time>2020-07-15T16:07:03.686Z</time>
      </trkpt>
      <trkpt lat="63.96133" lon="10.22394">
        <ele>2.615606</ele>
        <time>2020-07-15T16:07:04.751Z</time>
      </trkpt>
      <trkpt lat="63.96145" lon="10.22375">
        <ele>2.295078</ele>
        <time>2020-07-15T16:07:07.600Z</time>
      </trkpt>
      <trkpt lat="63.96159" lon="10.22357">
        <ele>2.86931</ele>
        <time>2020-07-15T16:07:12.154Z</time>
      </trkpt>
      <trkpt lat="63.9617" lon="10.22342">
        <ele>3.307794</ele>
        <time>2020-07-15T16:07:14.940Z</time>
      </trkpt>
      <trkpt lat="63.96178" lon="10.22332">
        <ele>3.606794</ele>
        <time>2020-07-15T16:07:16.858Z</time>
      </trkpt>
      <trkpt lat="63.9625" lon="10.22264">
        <ele>6.257898</ele>
        <time>2020-07-15T16:07:40.752Z</time>
      </trkpt>
      <trkpt lat="63.96256" lon="10.22258">
        <ele>6.494189</ele>
        <time>2020-07-15T16:07:43.441Z</time>
      </trkpt>
      <trkpt lat="63.96323" lon="10.22203">
        <ele>8.843882</ele>
        <time>2020-07-15T16:08:07.455Z</time>
      </trkpt>
      <trkpt lat="63.96339" lon="10.22188">
        <ele>9.321812</ele>
        <time>2020-07-15T16:08:12.843Z</time>
      </trkpt>
      <trkpt lat="63.96345" lon="10.22182">
        <ele>9.507202</ele>
        <time>2020-07-15T16:08:14.737Z</time>
      </trkpt>
      <trkpt lat="63.96348" lon="10.22179">
        <ele>9.596315</ele>
        <time>2020-07-15T16:08:16.227Z</time>
      </trkpt>
      <trkpt lat="63.96358" lon="10.22169">
        <ele>9.915212</ele>
        <time>2020-07-15T16:08:20.025Z</time>
      </trkpt>
      <trkpt lat="63.96414" lon="10.22116">
        <ele>11.613086</ele>
        <time>2020-07-15T16:08:38.209Z</time>
      </trkpt>
      <trkpt lat="63.9646" lon="10.22071">
        <ele>13.044583</ele>
        <time>2020-07-15T16:08:50.534Z</time>
      </trkpt>
      <trkpt lat="63.96485" lon="10.22043">
        <ele>13.200376</ele>
        <time>2020-07-15T16:08:55.986Z</time>
      </trkpt>
      <trkpt lat="63.96508" lon="10.22002">
        <ele>12.57844</ele>
        <time>2020-07-15T16:09:00.488Z</time>
      </trkpt>
      <trkpt lat="63.96512" lon="10.21998">
        <ele>12.484355</ele>
        <time>2020-07-15T16:09:01.048Z</time>
      </trkpt>
      <trkpt lat="63.96517" lon="10.21988">
        <ele>12.333875</ele>
        <time>2020-07-15T16:09:02.044Z</time>
      </trkpt>
      <trkpt lat="63.96519" lon="10.21982">
        <ele>12.26411</ele>
        <time>2020-07-15T16:09:02.581Z</time>
      </trkpt>
      <trkpt lat="63.96523" lon="10.21967">
        <ele>12.095233</ele>
        <time>2020-07-15T16:09:04.053Z</time>
      </trkpt>
      <trkpt lat="63.96528" lon="10.21953">
        <ele>11.936398</ele>
        <time>2020-07-15T16:09:05.428Z</time>
      </trkpt>
      <trkpt lat="63.96531" lon="10.21959">
        <ele>11.850848</ele>
        <time>2020-07-15T16:09:05.886Z</time>
      </trkpt>
      <trkpt lat="63.96568" lon="10.22026">
        <ele>10.819682</ele>
        <time>2020-07-15T16:09:12.498Z</time>
      </trkpt>
      <trkpt lat="63.96582" lon="10.22065">
        <ele>10.342438</ele>
        <time>2020-07-15T16:09:15.760Z</time>
      </trkpt>
      <trkpt lat="63.96587" lon="10.22083">
        <ele>10.142212</ele>
        <time>2020-07-15T16:09:16.884Z</time>
      </trkpt>
      <trkpt lat="63.96591" lon="10.22098">
        <ele>9.972542</ele>
        <time>2020-07-15T16:09:17.986Z</time>
      </trkpt>
      <trkpt lat="63.96597" lon="10.22112">
        <ele>9.794219</ele>
        <time>2020-07-15T16:09:19.383Z</time>
      </trkpt>
      <trkpt lat="63.96609" lon="10.22116">
        <ele>9.505466</ele>
        <time>2020-07-15T16:09:20.966Z</time>
      </trkpt>
      <trkpt lat="63.96616" lon="10.22115">
        <ele>9.306399</ele>
        <time>2020-07-15T16:09:21.796Z</time>
      </trkpt>
      <trkpt lat="63.96618" lon="10.22127">
        <ele>9.147787</ele>
        <time>2020-07-15T16:09:22.784Z</time>
      </trkpt>
      <trkpt lat="63.96618" lon="10.22129">
        <ele>9.110628</ele>
        <time>2020-07-15T16:09:23.014Z</time>
      </trkpt>
      <trkpt lat="63.96634" lon="10.22128">
        <ele>8.647222</ele>
        <time>2020-07-15T16:09:25.533Z</time>
      </trkpt>
      <trkpt lat="63.96643" lon="10.22125">
        <ele>8.391001</ele>
        <time>2020-07-15T16:09:26.582Z</time>
      </trkpt>
      <trkpt lat="63.9665" lon="10.22121">
        <ele>8.204851</ele>
        <time>2020-07-15T16:09:27.383Z</time>
      </trkpt>
      <trkpt lat="63.96665" lon="10.2211">
        <ele>7.733036</ele>
        <time>2020-07-15T16:09:29.894Z</time>
      </trkpt>
      <trkpt lat="63.96675" lon="10.22141">
        <ele>7.25756</ele>
        <time>2020-07-15T16:09:32.018Z</time>
      </trkpt>
      <trkpt lat="63.96681" lon="10.22177">
        <ele>6.764535</ele>
        <time>2020-07-15T16:09:34.577Z</time>
      </trkpt>
      <trkpt lat="63.96682" lon="10.22199">
        <ele>6.479115</ele>
        <time>2020-07-15T16:09:36.052Z</time>
      </trkpt>
      <trkpt lat="63.96687" lon="10.22253">
        <ele>5.797007</ele>
        <time>2020-07-15T16:09:39.227Z</time>
      </trkpt>
      <trkpt lat="63.96689" lon="10.22281">
        <ele>5.429678</ele>
        <time>2020-07-15T16:09:41.197Z</time>
      </trkpt>
      <trkpt lat="63.96691" lon="10.22291">
        <ele>5.292406</ele>
        <time>2020-07-15T16:09:41.814Z</time>
      </trkpt>
      <trkpt lat="63.96692" lon="10.22305">
        <ele>5.119185</ele>
        <time>2020-07-15T16:09:42.656Z</time>
      </trkpt>
      <trkpt lat="63.96702" lon="10.22344">
        <ele>4.5508</ele>
        <time>2020-07-15T16:09:45.842Z</time>
      </trkpt>
      <trkpt lat="63.96716" lon="10.22373">
        <ele>4.31093</ele>
        <time>2020-07-15T16:09:48.663Z</time>
      </trkpt>
      <trkpt lat="63.96832" lon="10.22504">
        <ele>3.391834</ele>
        <time>2020-07-15T16:10:09.872Z</time>
      </trkpt>
      <trkpt lat="63.96837" lon="10.22527">
        <ele>3.309289</ele>
        <time>2020-07-15T16:10:12.193Z</time>
      </trkpt>
      <trkpt lat="63.96837" lon="10.22544">
        <ele>3.258084</ele>
        <time>2020-07-15T16:10:13.684Z</time>
      </trkpt>
      <trkpt lat="63.96896" lon="10.22532">
        <ele>3.553428</ele>
        <time>2020-07-15T16:10:25.280Z</time>
      </trkpt>
      <trkpt lat="63.96912" lon="10.2253">
        <ele>3.713051</ele>
        <time>2020-07-15T16:10:28.731Z</time>
      </trkpt>
      <trkpt lat="63.96972" lon="10.22528">
        <ele>4.314659</ele>
        <time>2020-07-15T16:10:41.420Z</time>
      </trkpt>
      <trkpt lat="63.97001" lon="10.22542">
        <ele>4.61695</ele>
        <time>2020-07-15T16:10:48.012Z</time>
      </trkpt>
      <trkpt lat="63.97032" lon="10.2257">
        <ele>4.956736</ele>
        <time>2020-07-15T16:10:55.503Z</time>
      </trkpt>
      <trkpt lat="63.9707" lon="10.2263">
        <ele>6.02345</ele>
        <time>2020-07-15T16:11:06.049Z</time>
      </trkpt>
      <trkpt lat="63.97158" lon="10.22809">
        <ele>8.714278</ele>
        <time>2020-07-15T16:11:34.900Z</time>
      </trkpt>
      <trkpt lat="63.97195" lon="10.22885">
        <ele>11.08259</ele>
        <time>2020-07-15T16:11:50.415Z</time>
      </trkpt>
      <trkpt lat="63.97209" lon="10.22915">
        <ele>12.217334</ele>
        <time>2020-07-15T16:11:56.421Z</time>
      </trkpt>
      <trkpt lat="63.97219" lon="10.22937">
        <ele>12.997487</ele>
        <time>2020-07-15T16:12:01.376Z</time>
      </trkpt>
      <trkpt lat="63.97235" lon="10.22971">
        <ele>14.321924</ele>
        <time>2020-07-15T16:12:08.879Z</time>
      </trkpt>
      <trkpt lat="63.97245" lon="10.2299">
        <ele>15.042079</ele>
        <time>2020-07-15T16:12:13.803Z</time>
      </trkpt>
      <trkpt lat="63.9749" lon="10.23525">
        <ele>39.664994</ele>
        <time>2020-07-15T16:14:38.024Z</time>
      </trkpt>
      <trkpt lat="63.97558" lon="10.23658">
        <ele>46.545662</ele>
        <time>2020-07-15T16:15:16.876Z</time>
      </trkpt>
      <trkpt lat="63.97567" lon="10.23673">
        <ele>47.272149</ele>
        <time>2020-07-15T16:15:21.592Z</time>
      </trkpt>
      <trkpt lat="63.97581" lon="10.237">
        <ele>48.114289</ele>
        <time>2020-07-15T16:15:29.165Z</time>
      </trkpt>
      <trkpt lat="63.9766" lon="10.23855">
        <ele>52.911756</ele>
        <time>2020-07-15T16:16:06.498Z</time>
      </trkpt>
      <trkpt lat="63.97709" lon="10.23986">
        <ele>55.119986</ele>
        <time>2020-07-15T16:16:25.158Z</time>
      </trkpt>
      <trkpt lat="63.97934" lon="10.24798">
        <ele>47.416226</ele>
        <time>2020-07-15T16:17:24.430Z</time>
      </trkpt>
      <trkpt lat="63.97952" lon="10.24855">
        <ele>46.642549</ele>
        <time>2020-07-15T16:17:28.558Z</time>
      </trkpt>
      <trkpt lat="63.97957" lon="10.24871">
        <ele>46.420073</ele>
        <time>2020-07-15T16:17:29.901Z</time>
      </trkpt>
      <trkpt lat="63.98075" lon="10.25241">
        <ele>39.548172</ele>
        <time>2020-07-15T16:17:56.012Z</time>
      </trkpt>
      <trkpt lat="63.98095" lon="10.25345">
        <ele>37.550525</ele>
        <time>2020-07-15T16:18:02.002Z</time>
      </trkpt>
      <trkpt lat="63.98124" lon="10.25619">
        <ele>31.81568</ele>
        <time>2020-07-15T16:18:16.852Z</time>
      </trkpt>
      <trkpt lat="63.98146" lon="10.25736">
        <ele>29.673236</ele>
        <time>2020-07-15T16:18:23.806Z</time>
      </trkpt>
      <trkpt lat="63.98359" lon="10.26523">
        <ele>26.731939</ele>
        <time>2020-07-15T16:19:29.795Z</time>
      </trkpt>
      <trkpt lat="63.98433" lon="10.26867">
        <ele>27.75736</ele>
        <time>2020-07-15T16:20:03.283Z</time>
      </trkpt>
      <trkpt lat="63.98462" lon="10.26985">
        <ele>28.683362</ele>
        <time>2020-07-15T16:20:16.849Z</time>
      </trkpt>
      <trkpt lat="63.98526" lon="10.2718">
        <ele>30.612394</ele>
        <time>2020-07-15T16:20:43.162Z</time>
      </trkpt>
      <trkpt lat="63.98674" lon="10.27518">
        <ele>35.269846</ele>
        <time>2020-07-15T16:21:37.377Z</time>
      </trkpt>
      <trkpt lat="63.98773" lon="10.27781">
        <ele>37.768548</ele>
        <time>2020-07-15T16:22:11.706Z</time>
      </trkpt>
      <trkpt lat="63.98873" lon="10.28111">
        <ele>39.725069</ele>
        <time>2020-07-15T16:22:47.727Z</time>
      </trkpt>
      <trkpt lat="63.98965" lon="10.28452">
        <ele>42.087405</ele>
        <time>2020-07-15T16:23:29.168Z</time>
      </trkpt>
      <trkpt lat="63.98981" lon="10.28517">
        <ele>42.195678</ele>
        <time>2020-07-15T16:23:36.147Z</time>
      </trkpt>
      <trkpt lat="63.98991" lon="10.2856">
        <ele>42.264921</ele>
        <time>2020-07-15T16:23:40.346Z</time>
      </trkpt>
      <trkpt lat="63.99012" lon="10.28646">
        <ele>42.407355</ele>
        <time>2020-07-15T16:23:48.098Z</time>
      </trkpt>
      <trkpt lat="63.99048" lon="10.28792">
        <ele>42.339174</ele>
        <time>2020-07-15T16:24:00.239Z</time>
      </trkpt>
      <trkpt lat="63.99078" lon="10.28913">
        <ele>41.492392</ele>
        <time>2020-07-15T16:24:08.954Z</time>
      </trkpt>
      <trkpt lat="63.99185" lon="10.29333">
        <ele>39.23305</ele>
        <time>2020-07-15T16:24:40.284Z</time>
      </trkpt>
      <trkpt lat="63.99196" lon="10.29368">
        <ele>39.087901</ele>
        <time>2020-07-15T16:24:43.773Z</time>
      </trkpt>
      <trkpt lat="63.99198" lon="10.29375">
        <ele>39.059152</ele>
        <time>2020-07-15T16:24:44.373Z</time>
      </trkpt>
      <trkpt lat="63.99238" lon="10.29473">
        <ele>38.981109</ele>
        <time>2020-07-15T16:24:55.581Z</time>
      </trkpt>
      <trkpt lat="63.99255" lon="10.2951">
        <ele>39.462326</ele>
        <time>2020-07-15T16:25:00.299Z</time>
      </trkpt>
      <trkpt lat="63.99263" lon="10.29525">
        <ele>39.659879</ele>
        <time>2020-07-15T16:25:02.521Z</time>
      </trkpt>
      <trkpt lat="63.99322" lon="10.29621">
        <ele>41.126321</ele>
        <time>2020-07-15T16:25:18.959Z</time>
      </trkpt>
      <trkpt lat="63.9945" lon="10.29776">
        <ele>45.32555</ele>
        <time>2020-07-15T16:26:02.551Z</time>
      </trkpt>
      <trkpt lat="63.99476" lon="10.29813">
        <ele>46.425139</ele>
        <time>2020-07-15T16:26:11.905Z</time>
      </trkpt>
      <trkpt lat="63.99483" lon="10.29823">
        <ele>46.711989</ele>
        <time>2020-07-15T16:26:15.115Z</time>
      </trkpt>
      <trkpt lat="63.99503" lon="10.29854">
        <ele>47.550175</ele>
        <time>2020-07-15T16:26:21.586Z</time>
      </trkpt>
      <trkpt lat="63.99512" lon="10.2987">
        <ele>47.952658</ele>
        <time>2020-07-15T16:26:25.703Z</time>
      </trkpt>
      <trkpt lat="63.99518" lon="10.2988">
        <ele>48.223479</ele>
        <time>2020-07-15T16:26:28.056Z</time>
      </trkpt>
      <trkpt lat="63.99559" lon="10.29968">
        <ele>48.430286</ele>
        <time>2020-07-15T16:26:40.656Z</time>
      </trkpt>
      <trkpt lat="63.99562" lon="10.2998">
        <ele>48.391636</ele>
        <time>2020-07-15T16:26:42.957Z</time>
      </trkpt>
      <trkpt lat="63.99571" lon="10.30006">
        <ele>48.3073</ele>
        <time>2020-07-15T16:26:46.258Z</time>
      </trkpt>
      <trkpt lat="63.99601" lon="10.30132">
        <ele>47.926541</ele>
        <time>2020-07-15T16:26:56.049Z</time>
      </trkpt>
      <trkpt lat="63.99605" lon="10.30155">
        <ele>47.861013</ele>
        <time>2020-07-15T16:26:57.557Z</time>
      </trkpt>
      <trkpt lat="63.99608" lon="10.3017">
        <ele>47.819169</ele>
        <time>2020-07-15T16:26:58.353Z</time>
      </trkpt>
      <trkpt lat="63.99621" lon="10.30294">
        <ele>46.775585</ele>
        <time>2020-07-15T16:27:05.735Z</time>
      </trkpt>
      <trkpt lat="63.99626" lon="10.30378">
        <ele>45.227008</ele>
        <time>2020-07-15T16:27:10.279Z</time>
      </trkpt>
      <trkpt lat="63.99629" lon="10.30431">
        <ele>44.260506</ele>
        <time>2020-07-15T16:27:13.015Z</time>
      </trkpt>
      <trkpt lat="63.99637" lon="10.3052">
        <ele>42.605561</ele>
        <time>2020-07-15T16:27:17.899Z</time>
      </trkpt>
      <trkpt lat="63.99652" lon="10.30614">
        <ele>40.775628</ele>
        <time>2020-07-15T16:27:23.517Z</time>
      </trkpt>
      <trkpt lat="63.99658" lon="10.30642">
        <ele>40.210317</ele>
        <time>2020-07-15T16:27:25.154Z</time>
      </trkpt>
      <trkpt lat="63.99664" lon="10.30666">
        <ele>39.967327</ele>
        <time>2020-07-15T16:27:26.745Z</time>
      </trkpt>
      <trkpt lat="63.9967" lon="10.30696">
        <ele>39.714748</ele>
        <time>2020-07-15T16:27:28.709Z</time>
      </trkpt>
      <trkpt lat="63.99699" lon="10.30823">
        <ele>38.646628</ele>
        <time>2020-07-15T16:27:37.676Z</time>
      </trkpt>
      <trkpt lat="63.99733" lon="10.30975">
        <ele>37.363458</ele>
        <time>2020-07-15T16:27:49.008Z</time>
      </trkpt>
      <trkpt lat="63.99747" lon="10.31037">
        <ele>36.992533</ele>
        <time>2020-07-15T16:27:54.296Z</time>
      </trkpt>
      <trkpt lat="63.99782" lon="10.31194">
        <ele>36.6</ele>
        <time>2020-07-15T16:28:07.212Z</time>
      </trkpt>
      <trkpt lat="63.99813" lon="10.31314">
        <ele>36.287756</ele>
        <time>2020-07-15T16:28:17.456Z</time>
      </trkpt>
      <trkpt lat="63.99848" lon="10.31413">
        <ele>36.088515</ele>
        <time>2020-07-15T16:28:26.549Z</time>
      </trkpt>
      <trkpt lat="63.99858" lon="10.31435">
        <ele>36.060563</ele>
        <time>2020-07-15T16:28:28.697Z</time>
      </trkpt>
      <trkpt lat="63.99875" lon="10.3147">
        <ele>36.014472</ele>
        <time>2020-07-15T16:28:32.588Z</time>
      </trkpt>
      <trkpt lat="63.99957" lon="10.31618">
        <ele>35.802306</ele>
        <time>2020-07-15T16:28:50.502Z</time>
      </trkpt>
      <trkpt lat="64.00004" lon="10.31725">
        <ele>36.764735</ele>
        <time>2020-07-15T16:29:03.728Z</time>
      </trkpt>
      <trkpt lat="64.00024" lon="10.31779">
        <ele>37.313857</ele>
        <time>2020-07-15T16:29:10.566Z</time>
      </trkpt>
      <trkpt lat="64.00078" lon="10.31922">
        <ele>38.778075</ele>
        <time>2020-07-15T16:29:30.823Z</time>
      </trkpt>
      <trkpt lat="64.00085" lon="10.31941">
        <ele>38.971194</ele>
        <time>2020-07-15T16:29:33.721Z</time>
      </trkpt>
      <trkpt lat="64.00224" lon="10.32427">
        <ele>51.553534</ele>
        <time>2020-07-15T16:30:57.760Z</time>
      </trkpt>
      <trkpt lat="64.00352" lon="10.32802">
        <ele>63.474244</ele>
        <time>2020-07-15T16:32:22.981Z</time>
      </trkpt>
      <trkpt lat="64.00494" lon="10.33319">
        <ele>73.589044</ele>
        <time>2020-07-15T16:33:34.684Z</time>
      </trkpt>
      <trkpt lat="64.00546" lon="10.33444">
        <ele>77.685078</ele>
        <time>2020-07-15T16:34:00.594Z</time>
      </trkpt>
      <trkpt lat="64.00637" lon="10.33589">
        <ele>83.527128</ele>
        <time>2020-07-15T16:34:43.342Z</time>
      </trkpt>
      <trkpt lat="64.0066" lon="10.33632">
        <ele>84.846871</ele>
        <time>2020-07-15T16:34:54.412Z</time>
      </trkpt>
      <trkpt lat="64.00675" lon="10.33666">
        <ele>85.786357</ele>
        <time>2020-07-15T16:35:01.753Z</time>
      </trkpt>
      <trkpt lat="64.0071" lon="10.33756">
        <ele>88.122872</ele>
        <time>2020-07-15T16:35:18.616Z</time>
      </trkpt>
      <trkpt lat="64.00782" lon="10.34014">
        <ele>93.339855</ele>
        <time>2020-07-15T16:35:53.908Z</time>
      </trkpt>
      <trkpt lat="64.00828" lon="10.34144">
        <ele>95.867785</ele>
        <time>2020-07-15T16:36:14.594Z</time>
      </trkpt>
      <trkpt lat="64.00862" lon="10.34223">
        <ele>97.839757</ele>
        <time>2020-07-15T16:36:31.092Z</time>
      </trkpt>
      <trkpt lat="64.01" lon="10.34475">
        <ele>106.12868</ele>
        <time>2020-07-15T16:37:34.075Z</time>
      </trkpt>
      <trkpt lat="64.01048" lon="10.34577">
        <ele>106.622546</ele>
        <time>2020-07-15T16:37:49.568Z</time>
      </trkpt>
      <trkpt lat="64.01061" lon="10.34612">
        <ele>106.774292</ele>
        <time>2020-07-15T16:37:53.441Z</time>
      </trkpt>
      <trkpt lat="64.01066" lon="10.34624">
        <ele>106.828861</ele>
        <time>2020-07-15T16:37:54.820Z</time>
      </trkpt>
      <trkpt lat="64.0108" lon="10.34662">
        <ele>106.995056</ele>
        <time>2020-07-15T16:37:57.991Z</time>
      </trkpt>
      <trkpt lat="64.01183" lon="10.34972">
        <ele>107.427205</ele>
        <time>2020-07-15T16:38:22.440Z</time>
      </trkpt>
      <trkpt lat="64.0122" lon="10.3507">
        <ele>107.448743</ele>
        <time>2020-07-15T16:38:35.945Z</time>
      </trkpt>
      <trkpt lat="64.01399" lon="10.35458">
        <ele>120.150452</ele>
        <time>2020-07-15T16:40:06.018Z</time>
      </trkpt>
      <trkpt lat="64.01495" lon="10.35718">
        <ele>126.896108</ele>
        <time>2020-07-15T16:40:54.836Z</time>
      </trkpt>
      <trkpt lat="64.01516" lon="10.35783">
        <ele>127.929948</ele>
        <time>2020-07-15T16:41:04.667Z</time>
      </trkpt>
      <trkpt lat="64.01539" lon="10.35851">
        <ele>129.020624</ele>
        <time>2020-07-15T16:41:14.689Z</time>
      </trkpt>
      <trkpt lat="64.01797" lon="10.36627">
        <ele>137.381279</ele>
        <time>2020-07-15T16:42:56.719Z</time>
      </trkpt>
      <trkpt lat="64.01814" lon="10.36681">
        <ele>137.093438</ele>
        <time>2020-07-15T16:43:02.674Z</time>
      </trkpt>
      <trkpt lat="64.01819" lon="10.36699">
        <ele>136.904751</ele>
        <time>2020-07-15T16:43:04.322Z</time>
      </trkpt>
      <trkpt lat="64.01838" lon="10.36771">
        <ele>136.189175</ele>
        <time>2020-07-15T16:43:10.500Z</time>
      </trkpt>
      <trkpt lat="64.01856" lon="10.36872">
        <ele>135.261027</ele>
        <time>2020-07-15T16:43:17.493Z</time>
      </trkpt>
      <trkpt lat="64.01857" lon="10.36881">
        <ele>135.179644</ele>
        <time>2020-07-15T16:43:18.075Z</time>
      </trkpt>
      <trkpt lat="64.0186" lon="10.36905">
        <ele>134.969563</ele>
        <time>2020-07-15T16:43:19.573Z</time>
      </trkpt>
      <trkpt lat="64.01877" lon="10.37134">
        <ele>129.140512</ele>
        <time>2020-07-15T16:43:31.866Z</time>
      </trkpt>
      <trkpt lat="64.01891" lon="10.37197">
        <ele>126.259614</ele>
        <time>2020-07-15T16:43:35.328Z</time>
      </trkpt>
      <trkpt lat="64.01917" lon="10.37274">
        <ele>122.29682</ele>
        <time>2020-07-15T16:43:39.961Z</time>
      </trkpt>
      <trkpt lat="64.01963" lon="10.37353">
        <ele>116.695271</ele>
        <time>2020-07-15T16:43:46.130Z</time>
      </trkpt>
      <trkpt lat="64.02139" lon="10.37551">
        <ele>87.300354</ele>
        <time>2020-07-15T16:44:06.386Z</time>
      </trkpt>
      <trkpt lat="64.02169" lon="10.37603">
        <ele>82.870924</ele>
        <time>2020-07-15T16:44:10.332Z</time>
      </trkpt>
      <trkpt lat="64.02197" lon="10.37675">
        <ele>77.945934</ele>
        <time>2020-07-15T16:44:14.802Z</time>
      </trkpt>
      <trkpt lat="64.02205" lon="10.37705">
        <ele>76.134644</ele>
        <time>2020-07-15T16:44:16.402Z</time>
      </trkpt>
      <trkpt lat="64.02225" lon="10.37786">
        <ele>71.413759</ele>
        <time>2020-07-15T16:44:20.907Z</time>
      </trkpt>
      <trkpt lat="64.02232" lon="10.37815">
        <ele>69.676199</ele>
        <time>2020-07-15T16:44:22.997Z</time>
      </trkpt>
      <trkpt lat="64.02238" lon="10.37836">
        <ele>68.601394</ele>
        <time>2020-07-15T16:44:24.181Z</time>
      </trkpt>
      <trkpt lat="64.02248" lon="10.37869">
        <ele>68.965286</ele>
        <time>2020-07-15T16:44:26.432Z</time>
      </trkpt>
      <trkpt lat="64.02259" lon="10.37905">
        <ele>69.373078</ele>
        <time>2020-07-15T16:44:28.897Z</time>
      </trkpt>
      <trkpt lat="64.02289" lon="10.37971">
        <ele>70.24234</ele>
        <time>2020-07-15T16:44:35.294Z</time>
      </trkpt>
      <trkpt lat="64.02297" lon="10.37987">
        <ele>70.46558</ele>
        <time>2020-07-15T16:44:39.097Z</time>
      </trkpt>
      <trkpt lat="64.02339" lon="10.38058">
        <ele>71.553444</ele>
        <time>2020-07-15T16:44:59.399Z</time>
      </trkpt>
      <trkpt lat="64.02396" lon="10.38172">
        <ele>74.65793</ele>
        <time>2020-07-15T16:45:31.609Z</time>
      </trkpt>
      <trkpt lat="64.02532" lon="10.38527">
        <ele>84.682517</ele>
        <time>2020-07-15T16:46:45.422Z</time>
      </trkpt>
      <trkpt lat="64.02562" lon="10.38627">
        <ele>85.898119</ele>
        <time>2020-07-15T16:46:56.165Z</time>
      </trkpt>
      <trkpt lat="64.02603" lon="10.38839">
        <ele>88.348574</ele>
        <time>2020-07-15T16:47:13.947Z</time>
      </trkpt>
      <trkpt lat="64.02636" lon="10.38967">
        <ele>90.058154</ele>
        <time>2020-07-15T16:47:28.021Z</time>
      </trkpt>
      <trkpt lat="64.02678" lon="10.39083">
        <ele>91.775284</ele>
        <time>2020-07-15T16:47:48.227Z</time>
      </trkpt>
      <trkpt lat="64.02788" lon="10.39343">
        <ele>102.429896</ele>
        <time>2020-07-15T16:48:55.942Z</time>
      </trkpt>
      <trkpt lat="64.02818" lon="10.39417">
        <ele>104.960992</ele>
        <time>2020-07-15T16:49:13.683Z</time>
      </trkpt>
      <trkpt lat="64.02842" lon="10.39477">
        <ele>106.020108</ele>
        <time>2020-07-15T16:49:26.369Z</time>
      </trkpt>
      <trkpt lat="64.02979" lon="10.39856">
        <ele>110.886123</ele>
        <time>2020-07-15T16:50:15.129Z</time>
      </trkpt>
      <trkpt lat="64.03053" lon="10.40061">
        <ele>112.586892</ele>
        <time>2020-07-15T16:50:37.073Z</time>
      </trkpt>
      <trkpt lat="64.03186" lon="10.40428">
        <ele>120.440303</ele>
        <time>2020-07-15T16:51:38.078Z</time>
      </trkpt>
      <trkpt lat="64.0322" lon="10.40523">
        <ele>123.755665</ele>
        <time>2020-07-15T16:51:59.088Z</time>
      </trkpt>
      <trkpt lat="64.03298" lon="10.40721">
        <ele>131.653654</ele>
        <time>2020-07-15T16:52:48.636Z</time>
      </trkpt>
      <trkpt lat="64.0343" lon="10.41034">
        <ele>146.192657</ele>
        <time>2020-07-15T16:54:12.014Z</time>
      </trkpt>
      <trkpt lat="64.03447" lon="10.41078">
        <ele>147.923872</ele>
        <time>2020-07-15T16:54:22.453Z</time>
      </trkpt>
      <trkpt lat="64.03459" lon="10.4111">
        <ele>149.155145</ele>
        <time>2020-07-15T16:54:29.530Z</time>
      </trkpt>
      <trkpt lat="64.03491" lon="10.41198">
        <ele>152.51232</ele>
        <time>2020-07-15T16:54:48.212Z</time>
      </trkpt>
      <trkpt lat="64.03533" lon="10.41313">
        <ele>155.913189</ele>
        <time>2020-07-15T16:55:12.948Z</time>
      </trkpt>
      <trkpt lat="64.03583" lon="10.41442">
        <ele>158.403597</ele>
        <time>2020-07-15T16:55:35.210Z</time>
      </trkpt>
      <trkpt lat="64.03628" lon="10.41552">
        <ele>160.569478</ele>
        <time>2020-07-15T16:55:51.062Z</time>
      </trkpt>
      <trkpt lat="64.03664" lon="10.41643">
        <ele>160.378841</ele>
        <time>2020-07-15T16:56:02.314Z</time>
      </trkpt>
      <trkpt lat="64.04022" lon="10.42552">
        <ele>155.184545</ele>
        <time>2020-07-15T16:57:21.963Z</time>
      </trkpt>
      <trkpt lat="64.04097" lon="10.42695">
        <ele>155.978992</ele>
        <time>2020-07-15T16:57:42.636Z</time>
      </trkpt>
      <trkpt lat="64.04255" lon="10.42927">
        <ele>159.527281</ele>
        <time>2020-07-15T16:58:31.439Z</time>
      </trkpt>
      <trkpt lat="64.04332" lon="10.43067">
        <ele>160.068613</ele>
        <time>2020-07-15T16:58:53.218Z</time>
      </trkpt>
      <trkpt lat="64.04393" lon="10.43209">
        <ele>159.849242</ele>
        <time>2020-07-15T16:59:07.678Z</time>
      </trkpt>
      <trkpt lat="64.04607" lon="10.43774">
        <ele>149.993852</ele>
        <time>2020-07-15T16:59:50.877Z</time>
      </trkpt>
      <trkpt lat="64.04665" lon="10.43915">
        <ele>146.335547</ele>
        <time>2020-07-15T17:00:01.109Z</time>
      </trkpt>
      <trkpt lat="64.04787" lon="10.44158">
        <ele>137.38077</ele>
        <time>2020-07-15T17:00:20.225Z</time>
      </trkpt>
      <trkpt lat="64.04894" lon="10.44427">
        <ele>130.030806</ele>
        <time>2020-07-15T17:00:39.613Z</time>
      </trkpt>
      <trkpt lat="64.04928" lon="10.44482">
        <ele>129.140351</ele>
        <time>2020-07-15T17:00:45.164Z</time>
      </trkpt>
      <trkpt lat="64.04966" lon="10.44522">
        <ele>128.787681</ele>
        <time>2020-07-15T17:00:51.145Z</time>
      </trkpt>
      <trkpt lat="64.04982" lon="10.44532">
        <ele>128.650532</ele>
        <time>2020-07-15T17:00:53.530Z</time>
      </trkpt>
      <trkpt lat="64.04996" lon="10.4454">
        <ele>128.525662</ele>
        <time>2020-07-15T17:00:55.845Z</time>
      </trkpt>
      <trkpt lat="64.05141" lon="10.44582">
        <ele>129.417556</ele>
        <time>2020-07-15T17:01:27.217Z</time>
      </trkpt>
      <trkpt lat="64.05181" lon="10.44613">
        <ele>130.413429</ele>
        <time>2020-07-15T17:01:39.513Z</time>
      </trkpt>
      <trkpt lat="64.05227" lon="10.4467">
        <ele>131.63821</ele>
        <time>2020-07-15T17:01:53.612Z</time>
      </trkpt>
      <trkpt lat="64.0524" lon="10.44691">
        <ele>132.003175</ele>
        <time>2020-07-15T17:01:58.431Z</time>
      </trkpt>
      <trkpt lat="64.05273" lon="10.44745">
        <ele>132.710529</ele>
        <time>2020-07-15T17:02:09.004Z</time>
      </trkpt>
      <trkpt lat="64.05475" lon="10.45084">
        <ele>136.690579</ele>
        <time>2020-07-15T17:03:04.342Z</time>
      </trkpt>
      <trkpt lat="64.05687" lon="10.45357">
        <ele>140.947358</ele>
        <time>2020-07-15T17:03:59.565Z</time>
      </trkpt>
      <trkpt lat="64.05781" lon="10.45467">
        <ele>145.513633</ele>
        <time>2020-07-15T17:04:32.399Z</time>
      </trkpt>
      <trkpt lat="64.05823" lon="10.45512">
        <ele>147.610794</ele>
        <time>2020-07-15T17:04:48.903Z</time>
      </trkpt>
      <trkpt lat="64.05991" lon="10.45694">
        <ele>156.929878</ele>
        <time>2020-07-15T17:05:55.773Z</time>
      </trkpt>
      <trkpt lat="64.06248" lon="10.45975">
        <ele>167.162645</ele>
        <time>2020-07-15T17:07:17.028Z</time>
      </trkpt>
      <trkpt lat="64.06268" lon="10.45997">
        <ele>167.876009</ele>
        <time>2020-07-15T17:07:23.355Z</time>
      </trkpt>
      <trkpt lat="64.06271" lon="10.46001">
        <ele>167.995547</ele>
        <time>2020-07-15T17:07:24.334Z</time>
      </trkpt>
      <trkpt lat="64.06298" lon="10.46032">
        <ele>168.97934</ele>
        <time>2020-07-15T17:07:33.032Z</time>
      </trkpt>
      <trkpt lat="64.06453" lon="10.4624">
        <ele>174.035185</ele>
        <time>2020-07-15T17:08:22.779Z</time>
      </trkpt>
      <trkpt lat="64.06733" lon="10.46684">
        <ele>179.656791</ele>
        <time>2020-07-15T17:09:41.209Z</time>
      </trkpt>
      <trkpt lat="64.06813" lon="10.46842">
        <ele>180.516209</ele>
        <time>2020-07-15T17:10:02.331Z</time>
      </trkpt>
      <trkpt lat="64.06962" lon="10.47187">
        <ele>180.678095</ele>
        <time>2020-07-15T17:10:39.639Z</time>
      </trkpt>
      <trkpt lat="64.07021" lon="10.47294">
        <ele>180.691931</ele>
        <time>2020-07-15T17:10:52.263Z</time>
      </trkpt>
      <trkpt lat="64.07076" lon="10.47378">
        <ele>181.409531</ele>
        <time>2020-07-15T17:11:05.115Z</time>
      </trkpt>
      <trkpt lat="64.07099" lon="10.47408">
        <ele>182.007485</ele>
        <time>2020-07-15T17:11:10.740Z</time>
      </trkpt>
      <trkpt lat="64.07143" lon="10.47463">
        <ele>183.118952</ele>
        <time>2020-07-15T17:11:22.697Z</time>
      </trkpt>
      <trkpt lat="64.07229" lon="10.47569">
        <ele>186.179338</ele>
        <time>2020-07-15T17:11:51.404Z</time>
      </trkpt>
      <trkpt lat="64.07291" lon="10.4766">
        <ele>190.279973</ele>
        <time>2020-07-15T17:12:17.914Z</time>
      </trkpt>
      <trkpt lat="64.07564" lon="10.48146">
        <ele>209.868372</ele>
        <time>2020-07-15T17:14:30.869Z</time>
      </trkpt>
      <trkpt lat="64.07723" lon="10.48517">
        <ele>216.046905</ele>
        <time>2020-07-15T17:15:26.627Z</time>
      </trkpt>
      <trkpt lat="64.07839" lon="10.48727">
        <ele>217.342477</ele>
        <time>2020-07-15T17:15:56.471Z</time>
      </trkpt>
      <trkpt lat="64.07872" lon="10.48797">
        <ele>217.563587</ele>
        <time>2020-07-15T17:16:04.817Z</time>
      </trkpt>
      <trkpt lat="64.07909" lon="10.48907">
        <ele>217.664971</ele>
        <time>2020-07-15T17:16:15.730Z</time>
      </trkpt>
      <trkpt lat="64.07959" lon="10.49119">
        <ele>217.423836</ele>
        <time>2020-07-15T17:16:33.652Z</time>
      </trkpt>
      <trkpt lat="64.07996" lon="10.49238">
        <ele>217.290594</ele>
        <time>2020-07-15T17:16:44.388Z</time>
      </trkpt>
      <trkpt lat="64.0804" lon="10.49341">
        <ele>217.195304</ele>
        <time>2020-07-15T17:16:55.195Z</time>
      </trkpt>
      <trkpt lat="64.08102" lon="10.49435">
        <ele>217.084054</ele>
        <time>2020-07-15T17:17:08.123Z</time>
      </trkpt>
      <trkpt lat="64.08115" lon="10.4945">
        <ele>217.062323</ele>
        <time>2020-07-15T17:17:10.708Z</time>
      </trkpt>
      <trkpt lat="64.08133" lon="10.49469">
        <ele>217.072812</ele>
        <time>2020-07-15T17:17:14.289Z</time>
      </trkpt>
      <trkpt lat="64.08193" lon="10.49512">
        <ele>217.274988</ele>
        <time>2020-07-15T17:17:25.870Z</time>
      </trkpt>
      <trkpt lat="64.08235" lon="10.49527">
        <ele>217.409666</ele>
        <time>2020-07-15T17:17:33.777Z</time>
      </trkpt>
      <trkpt lat="64.08288" lon="10.49531">
        <ele>217.577522</ele>
        <time>2020-07-15T17:17:43.956Z</time>
      </trkpt>
      <trkpt lat="64.08372" lon="10.49519">
        <ele>218.415635</ele>
        <time>2020-07-15T17:18:01.327Z</time>
      </trkpt>
      <trkpt lat="64.08427" lon="10.49536">
        <ele>219.029034</ele>
        <time>2020-07-15T17:18:13.301Z</time>
      </trkpt>
      <trkpt lat="64.08502" lon="10.49606">
        <ele>220.106789</ele>
        <time>2020-07-15T17:18:31.762Z</time>
      </trkpt>
      <trkpt lat="64.08602" lon="10.49755">
        <ele>222.149425</ele>
        <time>2020-07-15T17:18:59.296Z</time>
      </trkpt>
      <trkpt lat="64.08624" lon="10.49796">
        <ele>222.637149</ele>
        <time>2020-07-15T17:19:06.005Z</time>
      </trkpt>
      <trkpt lat="64.08635" lon="10.49816">
        <ele>222.965791</ele>
        <time>2020-07-15T17:19:09.246Z</time>
      </trkpt>
      <trkpt lat="64.08715" lon="10.50006">
        <ele>226.020691</ele>
        <time>2020-07-15T17:19:38.682Z</time>
      </trkpt>
      <trkpt lat="64.08803" lon="10.50279">
        <ele>230.793047</ele>
        <time>2020-07-15T17:20:21.815Z</time>
      </trkpt>
      <trkpt lat="64.08857" lon="10.50392">
        <ele>233.411213</ele>
        <time>2020-07-15T17:20:44.012Z</time>
      </trkpt>
      <trkpt lat="64.08922" lon="10.50469">
        <ele>235.2201</ele>
        <time>2020-07-15T17:21:04.834Z</time>
      </trkpt>
      <trkpt lat="64.09055" lon="10.50547">
        <ele>238.042037</ele>
        <time>2020-07-15T17:21:37.081Z</time>
      </trkpt>
      <trkpt lat="64.0911" lon="10.50618">
        <ele>238.603004</ele>
        <time>2020-07-15T17:21:48.997Z</time>
      </trkpt>
      <trkpt lat="64.0912" lon="10.50637">
        <ele>238.717511</ele>
        <time>2020-07-15T17:21:51.322Z</time>
      </trkpt>
      <trkpt lat="64.09134" lon="10.50666">
        <ele>238.887177</ele>
        <time>2020-07-15T17:21:54.704Z</time>
      </trkpt>
      <trkpt lat="64.09193" lon="10.50804">
        <ele>240.177761</ele>
        <time>2020-07-15T17:22:12.031Z</time>
      </trkpt>
      <trkpt lat="64.09234" lon="10.50881">
        <ele>242.299061</ele>
        <time>2020-07-15T17:22:25.350Z</time>
      </trkpt>
      <trkpt lat="64.09246" lon="10.509">
        <ele>242.887837</ele>
        <time>2020-07-15T17:22:29.226Z</time>
      </trkpt>
      <trkpt lat="64.09261" lon="10.50919">
        <ele>243.573443</ele>
        <time>2020-07-15T17:22:34.641Z</time>
      </trkpt>
      <trkpt lat="64.09318" lon="10.50971">
        <ele>246.065599</ele>
        <time>2020-07-15T17:22:56.073Z</time>
      </trkpt>
      <trkpt lat="64.0939" lon="10.50991">
        <ele>251.891183</ele>
        <time>2020-07-15T17:23:27.481Z</time>
      </trkpt>
      <trkpt lat="64.09427" lon="10.50985">
        <ele>255.383528</ele>
        <time>2020-07-15T17:23:46.140Z</time>
      </trkpt>
      <trkpt lat="64.09549" lon="10.50929">
        <ele>265.535676</ele>
        <time>2020-07-15T17:24:50.179Z</time>
      </trkpt>
      <trkpt lat="64.09602" lon="10.50927">
        <ele>268.486278</ele>
        <time>2020-07-15T17:25:14.413Z</time>
      </trkpt>
      <trkpt lat="64.09664" lon="10.50952">
        <ele>272.038189</ele>
        <time>2020-07-15T17:25:36.748Z</time>
      </trkpt>
      <trkpt lat="64.0971" lon="10.51002">
        <ele>271.255631</ele>
        <time>2020-07-15T17:25:44.148Z</time>
      </trkpt>
      <trkpt lat="64.09716" lon="10.51013">
        <ele>270.536182</ele>
        <time>2020-07-15T17:25:45.468Z</time>
      </trkpt>
      <trkpt lat="64.09722" lon="10.51026">
        <ele>269.796693</ele>
        <time>2020-07-15T17:25:46.300Z</time>
      </trkpt>
      <trkpt lat="64.09749" lon="10.51107">
        <ele>265.686525</ele>
        <time>2020-07-15T17:25:51.133Z</time>
      </trkpt>
      <trkpt lat="64.09763" lon="10.51222">
        <ele>260.859025</ele>
        <time>2020-07-15T17:25:56.738Z</time>
      </trkpt>
      <trkpt lat="64.09764" lon="10.51236">
        <ele>260.273052</ele>
        <time>2020-07-15T17:25:57.394Z</time>
      </trkpt>
      <trkpt lat="64.09764" lon="10.51271">
        <ele>258.889648</ele>
        <time>2020-07-15T17:25:58.973Z</time>
      </trkpt>
      <trkpt lat="64.09752" lon="10.51375">
        <ele>254.623177</ele>
        <time>2020-07-15T17:26:03.988Z</time>
      </trkpt>
      <trkpt lat="64.09751" lon="10.5138">
        <ele>254.373882</ele>
        <time>2020-07-15T17:26:04.289Z</time>
      </trkpt>
      <trkpt lat="64.09746" lon="10.51402">
        <ele>253.422581</ele>
        <time>2020-07-15T17:26:05.393Z</time>
      </trkpt>
      <trkpt lat="64.09725" lon="10.51477">
        <ele>249.876545</ele>
        <time>2020-07-15T17:26:09.555Z</time>
      </trkpt>
      <trkpt lat="64.09608" lon="10.51804">
        <ele>239.000805</ele>
        <time>2020-07-15T17:26:31.595Z</time>
      </trkpt>
      <trkpt lat="64.09592" lon="10.51868">
        <ele>238.359399</ele>
        <time>2020-07-15T17:26:37.300Z</time>
      </trkpt>
      <trkpt lat="64.09578" lon="10.5196">
        <ele>237.498394</ele>
        <time>2020-07-15T17:26:45.806Z</time>
      </trkpt>
      <trkpt lat="64.09574" lon="10.5208">
        <ele>238.650467</ele>
        <time>2020-07-15T17:26:57.700Z</time>
      </trkpt>
      <trkpt lat="64.09589" lon="10.52218">
        <ele>242.00201</ele>
        <time>2020-07-15T17:27:15.197Z</time>
      </trkpt>
      <trkpt lat="64.09616" lon="10.52324">
        <ele>244.923427</ele>
        <time>2020-07-15T17:27:37.417Z</time>
      </trkpt>
      <trkpt lat="64.09663" lon="10.52421">
        <ele>250.224036</ele>
        <time>2020-07-15T17:28:07.531Z</time>
      </trkpt>
      <trkpt lat="64.09684" lon="10.52451">
        <ele>253.139732</ele>
        <time>2020-07-15T17:28:20.957Z</time>
      </trkpt>
      <trkpt lat="64.0971" lon="10.52486">
        <ele>256.799237</ele>
        <time>2020-07-15T17:28:38.798Z</time>
      </trkpt>
      <trkpt lat="64.0975" lon="10.52534">
        <ele>262.147356</ele>
        <time>2020-07-15T17:29:05.176Z</time>
      </trkpt>
      <trkpt lat="64.09826" lon="10.52625">
        <ele>271.632919</ele>
        <time>2020-07-15T17:29:58.133Z</time>
      </trkpt>
      <trkpt lat="64.09886" lon="10.52697">
        <ele>278.319621</ele>
        <time>2020-07-15T17:30:33.770Z</time>
      </trkpt>
      <trkpt lat="64.10013" lon="10.52852">
        <ele>288.273552</ele>
        <time>2020-07-15T17:31:32.483Z</time>
      </trkpt>
      <trkpt lat="64.10019" lon="10.52858">
        <ele>288.504935</ele>
        <time>2020-07-15T17:31:35.308Z</time>
      </trkpt>
      <trkpt lat="64.10097" lon="10.52951">
        <ele>291.499659</ele>
        <time>2020-07-15T17:31:55.078Z</time>
      </trkpt>
      <trkpt lat="64.10162" lon="10.5303">
        <ele>291.374415</ele>
        <time>2020-07-15T17:32:07.254Z</time>
      </trkpt>
      <trkpt lat="64.102" lon="10.53076">
        <ele>290.767357</ele>
        <time>2020-07-15T17:32:13.156Z</time>
      </trkpt>
      <trkpt lat="64.10302" lon="10.53199">
        <ele>289.046614</ele>
        <time>2020-07-15T17:32:29.364Z</time>
      </trkpt>
      <trkpt lat="64.10468" lon="10.534">
        <ele>285.455215</ele>
        <time>2020-07-15T17:32:56.991Z</time>
      </trkpt>
      <trkpt lat="64.10508" lon="10.53448">
        <ele>284.211993</ele>
        <time>2020-07-15T17:33:03.190Z</time>
      </trkpt>
      <trkpt lat="64.10556" lon="10.53506">
        <ele>282.708955</ele>
        <time>2020-07-15T17:33:10.448Z</time>
      </trkpt>
      <trkpt lat="64.1073" lon="10.53715">
        <ele>275.147656</ele>
        <time>2020-07-15T17:33:34.911Z</time>
      </trkpt>
      <trkpt lat="64.10809" lon="10.5381">
        <ele>272.865384</ele>
        <time>2020-07-15T17:33:46.215Z</time>
      </trkpt>
      <trkpt lat="64.10852" lon="10.53863">
        <ele>271.875633</ele>
        <time>2020-07-15T17:33:52.840Z</time>
      </trkpt>
      <trkpt lat="64.10956" lon="10.53988">
        <ele>272.250429</ele>
        <time>2020-07-15T17:34:13.751Z</time>
      </trkpt>
      <trkpt lat="64.11094" lon="10.5417">
        <ele>278.130115</ele>
        <time>2020-07-15T17:35:05.135Z</time>
      </trkpt>
      <trkpt lat="64.11167" lon="10.54276">
        <ele>283.211629</ele>
        <time>2020-07-15T17:35:39.757Z</time>
      </trkpt>
      <trkpt lat="64.11281" lon="10.54439">
        <ele>289.093083</ele>
        <time>2020-07-15T17:36:27.107Z</time>
      </trkpt>
      <trkpt lat="64.11336" lon="10.54516">
        <ele>291.145614</ele>
        <time>2020-07-15T17:36:43.849Z</time>
      </trkpt>
      <trkpt lat="64.11372" lon="10.54567">
        <ele>292.49062</ele>
        <time>2020-07-15T17:36:52.810Z</time>
      </trkpt>
      <trkpt lat="64.11401" lon="10.54605">
        <ele>292.316678</ele>
        <time>2020-07-15T17:36:58.747Z</time>
      </trkpt>
      <trkpt lat="64.11441" lon="10.54645">
        <ele>292.078269</ele>
        <time>2020-07-15T17:37:05.639Z</time>
      </trkpt>
      <trkpt lat="64.11454" lon="10.54654">
        <ele>292.009242</ele>
        <time>2020-07-15T17:37:07.538Z</time>
      </trkpt>
      <trkpt lat="64.11469" lon="10.54662">
        <ele>291.926124</ele>
        <time>2020-07-15T17:37:09.917Z</time>
      </trkpt>
      <trkpt lat="64.11479" lon="10.54667">
        <ele>291.868601</ele>
        <time>2020-07-15T17:37:11.537Z</time>
      </trkpt>
      <trkpt lat="64.11495" lon="10.54673">
        <ele>291.781694</ele>
        <time>2020-07-15T17:37:13.945Z</time>
      </trkpt>
      <trkpt lat="64.11514" lon="10.54677">
        <ele>291.677807</ele>
        <time>2020-07-15T17:37:16.994Z</time>
      </trkpt>
      <trkpt lat="64.11558" lon="10.54674">
        <ele>291.28972</ele>
        <time>2020-07-15T17:37:23.944Z</time>
      </trkpt>
      <trkpt lat="64.11613" lon="10.54652">
        <ele>290.450099</ele>
        <time>2020-07-15T17:37:33.473Z</time>
      </trkpt>
      <trkpt lat="64.11629" lon="10.54644">
        <ele>290.197484</ele>
        <time>2020-07-15T17:37:35.768Z</time>
      </trkpt>
      <trkpt lat="64.1167" lon="10.54622">
        <ele>289.560428</ele>
        <time>2020-07-15T17:37:41.839Z</time>
      </trkpt>
      <trkpt lat="64.11745" lon="10.54589">
        <ele>288.123217</ele>
        <time>2020-07-15T17:37:52.416Z</time>
      </trkpt>
      <trkpt lat="64.11757" lon="10.54587">
        <ele>287.813742</ele>
        <time>2020-07-15T17:37:54.225Z</time>
      </trkpt>
      <trkpt lat="64.11775" lon="10.54584">
        <ele>287.352311</ele>
        <time>2020-07-15T17:37:56.425Z</time>
      </trkpt>
      <trkpt lat="64.11894" lon="10.54587">
        <ele>284.25328</ele>
        <time>2020-07-15T17:38:12.249Z</time>
      </trkpt>
      <trkpt lat="64.11955" lon="10.54572">
        <ele>285.107543</ele>
        <time>2020-07-15T17:38:21.324Z</time>
      </trkpt>
      <trkpt lat="64.12025" lon="10.54546">
        <ele>286.276645</ele>
        <time>2020-07-15T17:38:37.569Z</time>
      </trkpt>
      <trkpt lat="64.12168" lon="10.54488">
        <ele>292.124427</ele>
        <time>2020-07-15T17:39:29.743Z</time>
      </trkpt>
      <trkpt lat="64.12217" lon="10.54471">
        <ele>294.716925</ele>
        <time>2020-07-15T17:39:48.384Z</time>
      </trkpt>
      <trkpt lat="64.12248" lon="10.54462">
        <ele>296.36478</ele>
        <time>2020-07-15T17:39:59.118Z</time>
      </trkpt>
      <trkpt lat="64.12352" lon="10.54446">
        <ele>298.121382</ele>
        <time>2020-07-15T17:40:29.071Z</time>
      </trkpt>
      <trkpt lat="64.12512" lon="10.54473">
        <ele>296.703516</ele>
        <time>2020-07-15T17:40:52.812Z</time>
      </trkpt>
      <trkpt lat="64.12536" lon="10.54474">
        <ele>295.892377</ele>
        <time>2020-07-15T17:40:56.026Z</time>
      </trkpt>
      <trkpt lat="64.12561" lon="10.54472">
        <ele>295.084517</ele>
        <time>2020-07-15T17:40:59.105Z</time>
      </trkpt>
      <trkpt lat="64.12697" lon="10.54445">
        <ele>287.262344</ele>
        <time>2020-07-15T17:41:15.317Z</time>
      </trkpt>
      <trkpt lat="64.12747" lon="10.54447">
        <ele>283.661093</ele>
        <time>2020-07-15T17:41:21.003Z</time>
      </trkpt>
      <trkpt lat="64.13047" lon="10.54547">
        <ele>256.697056</ele>
        <time>2020-07-15T17:41:54.242Z</time>
      </trkpt>
      <trkpt lat="64.13105" lon="10.54557">
        <ele>251.888291</ele>
        <time>2020-07-15T17:42:00.761Z</time>
      </trkpt>
      <trkpt lat="64.13166" lon="10.54539">
        <ele>248.036542</ele>
        <time>2020-07-15T17:42:07.749Z</time>
      </trkpt>
      <trkpt lat="64.13272" lon="10.54469">
        <ele>246.498561</ele>
        <time>2020-07-15T17:42:22.638Z</time>
      </trkpt>
      <trkpt lat="64.13279" lon="10.54464">
        <ele>246.393752</ele>
        <time>2020-07-15T17:42:23.561Z</time>
      </trkpt>
      <trkpt lat="64.133" lon="10.5445">
        <ele>246.09108</ele>
        <time>2020-07-15T17:42:29.657Z</time>
      </trkpt>
      <trkpt lat="64.13324" lon="10.54436">
        <ele>246.049659</ele>
        <time>2020-07-15T17:42:35.635Z</time>
      </trkpt>
      <trkpt lat="64.13337" lon="10.54429">
        <ele>247.183426</ele>
        <time>2020-07-15T17:42:40.603Z</time>
      </trkpt>
      <trkpt lat="64.13832" lon="10.54343">
        <ele>293.469943</ele>
        <time>2020-07-15T17:46:44.333Z</time>
      </trkpt>
      <trkpt lat="64.13892" lon="10.54317">
        <ele>299.797922</ele>
        <time>2020-07-15T17:47:14.380Z</time>
      </trkpt>
      <trkpt lat="64.14111" lon="10.54159">
        <ele>322.115968</ele>
        <time>2020-07-15T17:49:18.834Z</time>
      </trkpt>
      <trkpt lat="64.14208" lon="10.54089">
        <ele>328.895047</ele>
        <time>2020-07-15T17:49:55.995Z</time>
      </trkpt>
      <trkpt lat="64.14244" lon="10.54063">
        <ele>325.812171</ele>
        <time>2020-07-15T17:50:02.297Z</time>
      </trkpt>
      <trkpt lat="64.14314" lon="10.54035">
        <ele>320.027527</ele>
        <time>2020-07-15T17:50:10.572Z</time>
      </trkpt>
      <trkpt lat="64.14385" lon="10.54048">
        <ele>313.616835</ele>
        <time>2020-07-15T17:50:17.857Z</time>
      </trkpt>
      <trkpt lat="64.14428" lon="10.54087">
        <ele>303.79129</ele>
        <time>2020-07-15T17:50:22.563Z</time>
      </trkpt>
      <trkpt lat="64.14543" lon="10.5424">
        <ele>275.661633</ele>
        <time>2020-07-15T17:50:36.073Z</time>
      </trkpt>
      <trkpt lat="64.1459" lon="10.54287">
        <ele>266.945588</ele>
        <time>2020-07-15T17:50:41.228Z</time>
      </trkpt>
      <trkpt lat="64.14669" lon="10.54332">
        <ele>252.933577</ele>
        <time>2020-07-15T17:50:49.621Z</time>
      </trkpt>
      <trkpt lat="64.14732" lon="10.54338">
        <ele>245.712957</ele>
        <time>2020-07-15T17:50:56.348Z</time>
      </trkpt>
      <trkpt lat="64.14786" lon="10.54326">
        <ele>245.70953</ele>
        <time>2020-07-15T17:51:03.072Z</time>
      </trkpt>
      <trkpt lat="64.14832" lon="10.54299">
        <ele>245.706523</ele>
        <time>2020-07-15T17:51:12.729Z</time>
      </trkpt>
      <trkpt lat="64.15038" lon="10.54096">
        <ele>261.945226</ele>
        <time>2020-07-15T17:53:02.188Z</time>
      </trkpt>
      <trkpt lat="64.15164" lon="10.54001">
        <ele>272.944566</ele>
        <time>2020-07-15T17:54:11.904Z</time>
      </trkpt>
      <trkpt lat="64.1521" lon="10.53944">
        <ele>277.270496</ele>
        <time>2020-07-15T17:54:29.651Z</time>
      </trkpt>
      <trkpt lat="64.15217" lon="10.53933">
        <ele>277.881022</ele>
        <time>2020-07-15T17:54:33.255Z</time>
      </trkpt>
      <trkpt lat="64.15227" lon="10.53915">
        <ele>277.379372</ele>
        <time>2020-07-15T17:54:35.736Z</time>
      </trkpt>
      <trkpt lat="64.15255" lon="10.53854">
        <ele>275.841179</ele>
        <time>2020-07-15T17:54:43.332Z</time>
      </trkpt>
      <trkpt lat="64.15265" lon="10.53827">
        <ele>275.21999</ele>
        <time>2020-07-15T17:54:45.917Z</time>
      </trkpt>
      <trkpt lat="64.15282" lon="10.53782">
        <ele>274.215242</ele>
        <time>2020-07-15T17:54:49.156Z</time>
      </trkpt>
      <trkpt lat="64.15356" lon="10.53565">
        <ele>266.981429</ele>
        <time>2020-07-15T17:55:02.651Z</time>
      </trkpt>
      <trkpt lat="64.1538" lon="10.53477">
        <ele>261.860102</ele>
        <time>2020-07-15T17:55:07.358Z</time>
      </trkpt>
      <trkpt lat="64.15393" lon="10.53377">
        <ele>256.64847</ele>
        <time>2020-07-15T17:55:12.207Z</time>
      </trkpt>
      <trkpt lat="64.15394" lon="10.53258">
        <ele>250.757968</ele>
        <time>2020-07-15T17:55:17.784Z</time>
      </trkpt>
      <trkpt lat="64.15391" lon="10.5322">
        <ele>249.263385</ele>
        <time>2020-07-15T17:55:19.560Z</time>
      </trkpt>
      <trkpt lat="64.15389" lon="10.53197">
        <ele>248.430928</ele>
        <time>2020-07-15T17:55:20.694Z</time>
      </trkpt>
      <trkpt lat="64.15309" lon="10.52691">
        <ele>230.309314</ele>
        <time>2020-07-15T17:55:47.524Z</time>
      </trkpt>
      <trkpt lat="64.15299" lon="10.52548">
        <ele>225.970578</ele>
        <time>2020-07-15T17:55:54.896Z</time>
      </trkpt>
      <trkpt lat="64.15308" lon="10.52425">
        <ele>222.230845</ele>
        <time>2020-07-15T17:56:01.175Z</time>
      </trkpt>
      <trkpt lat="64.15349" lon="10.52183">
        <ele>214.468926</ele>
        <time>2020-07-15T17:56:14.183Z</time>
      </trkpt>
      <trkpt lat="64.15364" lon="10.51999">
        <ele>208.778269</ele>
        <time>2020-07-15T17:56:23.601Z</time>
      </trkpt>
      <trkpt lat="64.15376" lon="10.51902">
        <ele>205.578238</ele>
        <time>2020-07-15T17:56:28.754Z</time>
      </trkpt>
      <trkpt lat="64.15407" lon="10.51763">
        <ele>200.688567</ele>
        <time>2020-07-15T17:56:36.630Z</time>
      </trkpt>
      <trkpt lat="64.15513" lon="10.51444">
        <ele>185.016266</ele>
        <time>2020-07-15T17:56:56.140Z</time>
      </trkpt>
      <trkpt lat="64.1565" lon="10.51158">
        <ele>161.208619</ele>
        <time>2020-07-15T17:57:15.791Z</time>
      </trkpt>
      <trkpt lat="64.15752" lon="10.50923">
        <ele>136.989292</ele>
        <time>2020-07-15T17:57:30.585Z</time>
      </trkpt>
      <trkpt lat="64.15769" lon="10.50892">
        <ele>133.042669</ele>
        <time>2020-07-15T17:57:32.851Z</time>
      </trkpt>
      <trkpt lat="64.15787" lon="10.5086">
        <ele>129.077064</ele>
        <time>2020-07-15T17:57:35.153Z</time>
      </trkpt>
      <trkpt lat="64.15829" lon="10.50764">
        <ele>120.571052</ele>
        <time>2020-07-15T17:57:41.304Z</time>
      </trkpt>
      <trkpt lat="64.15885" lon="10.50531">
        <ele>107.425168</ele>
        <time>2020-07-15T17:57:53.780Z</time>
      </trkpt>
      <trkpt lat="64.15916" lon="10.50429">
        <ele>102.847249</ele>
        <time>2020-07-15T17:58:00.232Z</time>
      </trkpt>
      <trkpt lat="64.15943" lon="10.50364">
        <ele>101.162869</ele>
        <time>2020-07-15T17:58:05.006Z</time>
      </trkpt>
      <trkpt lat="64.16009" lon="10.50252">
        <ele>97.622119</ele>
        <time>2020-07-15T17:58:15.500Z</time>
      </trkpt>
      <trkpt lat="64.16021" lon="10.50232">
        <ele>96.989633</ele>
        <time>2020-07-15T17:58:17.476Z</time>
      </trkpt>
      <trkpt lat="64.1603" lon="10.50215">
        <ele>96.486619</ele>
        <time>2020-07-15T17:58:18.978Z</time>
      </trkpt>
      <trkpt lat="64.16067" lon="10.50126">
        <ele>94.415928</ele>
        <time>2020-07-15T17:58:26.179Z</time>
      </trkpt>
      <trkpt lat="64.16092" lon="10.50022">
        <ele>92.500893</ele>
        <time>2020-07-15T17:58:32.894Z</time>
      </trkpt>
      <trkpt lat="64.16102" lon="10.49934">
        <ele>91.04093</ele>
        <time>2020-07-15T17:58:37.892Z</time>
      </trkpt>
      <trkpt lat="64.16113" lon="10.49725">
        <ele>87.482574</ele>
        <time>2020-07-15T17:58:49.262Z</time>
      </trkpt>
      <trkpt lat="64.16157" lon="10.49553">
        <ele>83.973035</ele>
        <time>2020-07-15T17:59:00.084Z</time>
      </trkpt>
      <trkpt lat="64.16172" lon="10.49463">
        <ele>82.273309</ele>
        <time>2020-07-15T17:59:05.405Z</time>
      </trkpt>
      <trkpt lat="64.16182" lon="10.4923">
        <ele>79.864826</ele>
        <time>2020-07-15T17:59:19.058Z</time>
      </trkpt>
      <trkpt lat="64.16185" lon="10.49171">
        <ele>79.272943</ele>
        <time>2020-07-15T17:59:22.772Z</time>
      </trkpt>
      <trkpt lat="64.16188" lon="10.49138">
        <ele>78.945077</ele>
        <time>2020-07-15T17:59:24.815Z</time>
      </trkpt>
      <trkpt lat="64.16206" lon="10.49021">
        <ele>77.940878</ele>
        <time>2020-07-15T17:59:33.012Z</time>
      </trkpt>
      <trkpt lat="64.1627" lon="10.48814">
        <ele>77.494162</ele>
        <time>2020-07-15T17:59:51.030Z</time>
      </trkpt>
      <trkpt lat="64.16283" lon="10.4875">
        <ele>77.367885</ele>
        <time>2020-07-15T17:59:56.744Z</time>
      </trkpt>
      <trkpt lat="64.16289" lon="10.48642">
        <ele>77.397825</ele>
        <time>2020-07-15T18:00:05.652Z</time>
      </trkpt>
      <trkpt lat="64.16283" lon="10.48419">
        <ele>78.019503</ele>
        <time>2020-07-15T18:00:25.026Z</time>
      </trkpt>
      <trkpt lat="64.16292" lon="10.48254">
        <ele>78.557954</ele>
        <time>2020-07-15T18:00:39.665Z</time>
      </trkpt>
      <trkpt lat="64.16296" lon="10.48224">
        <ele>78.736245</ele>
        <time>2020-07-15T18:00:42.467Z</time>
      </trkpt>
      <trkpt lat="64.16297" lon="10.48212">
        <ele>78.807707</ele>
        <time>2020-07-15T18:00:43.646Z</time>
      </trkpt>
      <trkpt lat="64.16333" lon="10.48009">
        <ele>80.036146</ele>
        <time>2020-07-15T18:01:04.817Z</time>
      </trkpt>
      <trkpt lat="64.16355" lon="10.4792">
        <ele>80.614247</ele>
        <time>2020-07-15T18:01:15.353Z</time>
      </trkpt>
      <trkpt lat="64.16362" lon="10.479">
        <ele>80.747334</ele>
        <time>2020-07-15T18:01:17.756Z</time>
      </trkpt>
      <trkpt lat="64.16377" lon="10.47861">
        <ele>80.875221</ele>
        <time>2020-07-15T18:01:23.378Z</time>
      </trkpt>
      <trkpt lat="64.16413" lon="10.47796">
        <ele>81.133882</ele>
        <time>2020-07-15T18:01:32.651Z</time>
      </trkpt>
      <trkpt lat="64.16463" lon="10.47739">
        <ele>81.45226</ele>
        <time>2020-07-15T18:01:43.951Z</time>
      </trkpt>
      <trkpt lat="64.165" lon="10.47705">
        <ele>81.674126</ele>
        <time>2020-07-15T18:01:51.377Z</time>
      </trkpt>
      <trkpt lat="64.16528" lon="10.47681">
        <ele>81.516275</ele>
        <time>2020-07-15T18:01:56.186Z</time>
      </trkpt>
      <trkpt lat="64.1657" lon="10.47658">
        <ele>80.902277</ele>
        <time>2020-07-15T18:02:02.724Z</time>
      </trkpt>
      <trkpt lat="64.16608" lon="10.47656">
        <ele>80.364797</ele>
        <time>2020-07-15T18:02:08.055Z</time>
      </trkpt>
      <trkpt lat="64.16707" lon="10.47713">
        <ele>79.063299</ele>
        <time>2020-07-15T18:02:22.591Z</time>
      </trkpt>
      <trkpt lat="64.16717" lon="10.47717">
        <ele>78.997565</ele>
        <time>2020-07-15T18:02:24.000Z</time>
      </trkpt>
      <trkpt lat="64.16728" lon="10.47721">
        <ele>78.929089</ele>
        <time>2020-07-15T18:02:25.671Z</time>
      </trkpt>
      <trkpt lat="64.16739" lon="10.47722">
        <ele>78.855493</ele>
        <time>2020-07-15T18:02:27.582Z</time>
      </trkpt>
      <trkpt lat="64.16748" lon="10.47722">
        <ele>78.799222</ele>
        <time>2020-07-15T18:02:28.876Z</time>
      </trkpt>
      <trkpt lat="64.16757" lon="10.47721">
        <ele>78.740981</ele>
        <time>2020-07-15T18:02:30.260Z</time>
      </trkpt>
      <trkpt lat="64.16766" lon="10.4772">
        <ele>78.682698</ele>
        <time>2020-07-15T18:02:31.755Z</time>
      </trkpt>
      <trkpt lat="64.16771" lon="10.47718">
        <ele>78.651794</ele>
        <time>2020-07-15T18:02:32.712Z</time>
      </trkpt>
      <trkpt lat="64.16828" lon="10.4768">
        <ele>78.273946</ele>
        <time>2020-07-15T18:02:42.711Z</time>
      </trkpt>
      <trkpt lat="64.16875" lon="10.47606">
        <ele>78.141068</ele>
        <time>2020-07-15T18:02:53.439Z</time>
      </trkpt>
      <trkpt lat="64.16948" lon="10.47469">
        <ele>78.61268</ele>
        <time>2020-07-15T18:03:11.420Z</time>
      </trkpt>
      <trkpt lat="64.16966" lon="10.47436">
        <ele>78.724941</ele>
        <time>2020-07-15T18:03:15.347Z</time>
      </trkpt>
      <trkpt lat="64.17196" lon="10.47013">
        <ele>86.909535</ele>
        <time>2020-07-15T18:04:18.812Z</time>
      </trkpt>
      <trkpt lat="64.17208" lon="10.46997">
        <ele>88.068728</ele>
        <time>2020-07-15T18:04:24.734Z</time>
      </trkpt>
      <trkpt lat="64.17218" lon="10.46988">
        <ele>88.885013</ele>
        <time>2020-07-15T18:04:30.320Z</time>
      </trkpt>
      <trkpt lat="64.17259" lon="10.46964">
        <ele>92.407082</ele>
        <time>2020-07-15T18:04:53.907Z</time>
      </trkpt>
      <trkpt lat="64.17301" lon="10.46964">
        <ele>95.972512</ele>
        <time>2020-07-15T18:05:21.507Z</time>
      </trkpt>
      <trkpt lat="64.17334" lon="10.46984">
        <ele>101.27999</ele>
        <time>2020-07-15T18:05:46.178Z</time>
      </trkpt>
      <trkpt lat="64.17407" lon="10.47051">
        <ele>113.656609</ele>
        <time>2020-07-15T18:06:45.059Z</time>
      </trkpt>
      <trkpt lat="64.17438" lon="10.47061">
        <ele>118.68974</ele>
        <time>2020-07-15T18:07:07.282Z</time>
      </trkpt>
      <trkpt lat="64.1746" lon="10.4705">
        <ele>122.133337</ele>
        <time>2020-07-15T18:07:21.693Z</time>
      </trkpt>
      <trkpt lat="64.1748" lon="10.47024">
        <ele>124.566874</ele>
        <time>2020-07-15T18:07:36.130Z</time>
      </trkpt>
      <trkpt lat="64.17496" lon="10.4699">
        <ele>125.665342</ele>
        <time>2020-07-15T18:07:47.795Z</time>
      </trkpt>
      <trkpt lat="64.17506" lon="10.46944">
        <ele>126.800198</ele>
        <time>2020-07-15T18:07:58.281Z</time>
      </trkpt>
      <trkpt lat="64.17509" lon="10.4688">
        <ele>128.246269</ele>
        <time>2020-07-15T18:08:09.264Z</time>
      </trkpt>
      <trkpt lat="64.17488" lon="10.46725">
        <ele>131.877783</ele>
        <time>2020-07-15T18:08:25.054Z</time>
      </trkpt>
      <trkpt lat="64.17488" lon="10.46647">
        <ele>133.090104</ele>
        <time>2020-07-15T18:08:30.041Z</time>
      </trkpt>
      <trkpt lat="64.17502" lon="10.46575">
        <ele>132.718147</ele>
        <time>2020-07-15T18:08:35.130Z</time>
      </trkpt>
      <trkpt lat="64.17545" lon="10.46445">
        <ele>131.960975</ele>
        <time>2020-07-15T18:08:45.364Z</time>
      </trkpt>
      <trkpt lat="64.17551" lon="10.464">
        <ele>131.734292</ele>
        <time>2020-07-15T18:08:48.471Z</time>
      </trkpt>
      <trkpt lat="64.17552" lon="10.46357">
        <ele>131.535471</ele>
        <time>2020-07-15T18:08:51.234Z</time>
      </trkpt>
      <trkpt lat="64.17545" lon="10.46296">
        <ele>131.245406</ele>
        <time>2020-07-15T18:08:55.665Z</time>
      </trkpt>
      <trkpt lat="64.17422" lon="10.45693">
        <ele>128.693938</ele>
        <time>2020-07-15T18:09:48.801Z</time>
      </trkpt>
      <trkpt lat="64.17411" lon="10.4565">
        <ele>128.185619</ele>
        <time>2020-07-15T18:09:51.511Z</time>
      </trkpt>
      <trkpt lat="64.17369" lon="10.45486">
        <ele>124.43916</ele>
        <time>2020-07-15T18:10:01.137Z</time>
      </trkpt>
      <trkpt lat="64.17349" lon="10.45396">
        <ele>121.133348</ele>
        <time>2020-07-15T18:10:06.178Z</time>
      </trkpt>
      <trkpt lat="64.17331" lon="10.45274">
        <ele>116.917178</ele>
        <time>2020-07-15T18:10:12.442Z</time>
      </trkpt>
      <trkpt lat="64.17323" lon="10.45177">
        <ele>113.718796</ele>
        <time>2020-07-15T18:10:17.279Z</time>
      </trkpt>
      <trkpt lat="64.17322" lon="10.45015">
        <ele>108.171356</ele>
        <time>2020-07-15T18:10:25.288Z</time>
      </trkpt>
      <trkpt lat="64.17323" lon="10.4499">
        <ele>107.320026</ele>
        <time>2020-07-15T18:10:26.664Z</time>
      </trkpt>
      <trkpt lat="64.17324" lon="10.4497">
        <ele>106.606737</ele>
        <time>2020-07-15T18:10:27.621Z</time>
      </trkpt>
      <trkpt lat="64.17332" lon="10.44874">
        <ele>103.263136</ele>
        <time>2020-07-15T18:10:32.399Z</time>
      </trkpt>
      <trkpt lat="64.17353" lon="10.4474">
        <ele>98.454489</ele>
        <time>2020-07-15T18:10:39.442Z</time>
      </trkpt>
      <trkpt lat="64.1736" lon="10.447">
        <ele>97.065344</ele>
        <time>2020-07-15T18:10:41.529Z</time>
      </trkpt>
      <trkpt lat="64.17367" lon="10.44666">
        <ele>95.867983</ele>
        <time>2020-07-15T18:10:43.425Z</time>
      </trkpt>
      <trkpt lat="64.1746" lon="10.44361">
        <ele>84.70761</ele>
        <time>2020-07-15T18:11:01.935Z</time>
      </trkpt>
      <trkpt lat="64.1748" lon="10.44307">
        <ele>83.109858</ele>
        <time>2020-07-15T18:11:05.660Z</time>
      </trkpt>
      <trkpt lat="64.17513" lon="10.44244">
        <ele>80.840132</ele>
        <time>2020-07-15T18:11:10.929Z</time>
      </trkpt>
      <trkpt lat="64.17646" lon="10.44064">
        <ele>74.487126</ele>
        <time>2020-07-15T18:11:30.201Z</time>
      </trkpt>
      <trkpt lat="64.17704" lon="10.44002">
        <ele>72.49279</ele>
        <time>2020-07-15T18:11:38.876Z</time>
      </trkpt>
      <trkpt lat="64.17762" lon="10.43962">
        <ele>70.937902</ele>
        <time>2020-07-15T18:11:47.382Z</time>
      </trkpt>
      <trkpt lat="64.17881" lon="10.43923">
        <ele>68.762953</ele>
        <time>2020-07-15T18:12:04.915Z</time>
      </trkpt>
      <trkpt lat="64.17931" lon="10.43882">
        <ele>67.752301</ele>
        <time>2020-07-15T18:12:12.437Z</time>
      </trkpt>
      <trkpt lat="64.1813" lon="10.43547">
        <ele>63.398822</ele>
        <time>2020-07-15T18:12:46.968Z</time>
      </trkpt>
      <trkpt lat="64.18186" lon="10.4345">
        <ele>62.582118</ele>
        <time>2020-07-15T18:12:58.303Z</time>
      </trkpt>
      <trkpt lat="64.18237" lon="10.43363">
        <ele>62.50968</ele>
        <time>2020-07-15T18:13:09.991Z</time>
      </trkpt>
      <trkpt lat="64.18248" lon="10.43345">
        <ele>62.590084</ele>
        <time>2020-07-15T18:13:12.622Z</time>
      </trkpt>
      <trkpt lat="64.18303" lon="10.43251">
        <ele>62.99128</ele>
        <time>2020-07-15T18:13:26.803Z</time>
      </trkpt>
      <trkpt lat="64.18326" lon="10.4321">
        <ele>63.157665</ele>
        <time>2020-07-15T18:13:32.806Z</time>
      </trkpt>
      <trkpt lat="64.18359" lon="10.43135">
        <ele>63.349414</ele>
        <time>2020-07-15T18:13:42.197Z</time>
      </trkpt>
      <trkpt lat="64.18377" lon="10.43051">
        <ele>63.390441</ele>
        <time>2020-07-15T18:13:50.169Z</time>
      </trkpt>
      <trkpt lat="64.18383" lon="10.42989">
        <ele>63.417812</ele>
        <time>2020-07-15T18:13:55.251Z</time>
      </trkpt>
      <trkpt lat="64.18383" lon="10.42989">
        <ele>63.417812</ele>
        <time>2020-07-15T18:13:55.266Z</time>
      </trkpt>
      <trkpt lat="64.1839" lon="10.42929">
        <ele>63.445049</ele>
        <time>2020-07-15T18:14:00.160Z</time>
      </trkpt>
      <trkpt lat="64.18413" lon="10.42814">
        <ele>63.500383</ele>
        <time>2020-07-15T18:14:09.648Z</time>
      </trkpt>
      <trkpt lat="64.1849" lon="10.42589">
        <ele>62.544812</ele>
        <time>2020-07-15T18:14:29.638Z</time>
      </trkpt>
      <trkpt lat="64.18516" lon="10.42528">
        <ele>62.218916</ele>
        <time>2020-07-15T18:14:35.406Z</time>
      </trkpt>
      <trkpt lat="64.18625" lon="10.42323">
        <ele>60.474371</ele>
        <time>2020-07-15T18:14:56.347Z</time>
      </trkpt>
      <trkpt lat="64.1867" lon="10.42237">
        <ele>59.681468</ele>
        <time>2020-07-15T18:15:05.061Z</time>
      </trkpt>
      <trkpt lat="64.18685" lon="10.4221">
        <ele>59.543321</ele>
        <time>2020-07-15T18:15:07.769Z</time>
      </trkpt>
      <trkpt lat="64.18734" lon="10.42119">
        <ele>59.675849</ele>
        <time>2020-07-15T18:15:17.592Z</time>
      </trkpt>
      <trkpt lat="64.18744" lon="10.42101">
        <ele>59.703203</ele>
        <time>2020-07-15T18:15:19.650Z</time>
      </trkpt>
      <trkpt lat="64.18769" lon="10.42061">
        <ele>59.76806</ele>
        <time>2020-07-15T18:15:25.446Z</time>
      </trkpt>
      <trkpt lat="64.18779" lon="10.42045">
        <ele>59.793249</ele>
        <time>2020-07-15T18:15:28.241Z</time>
      </trkpt>
      <trkpt lat="64.18824" lon="10.41985">
        <ele>59.903183</ele>
        <time>2020-07-15T18:15:39.734Z</time>
      </trkpt>
      <trkpt lat="64.18866" lon="10.41932">
        <ele>61.412313</ele>
        <time>2020-07-15T18:15:51.272Z</time>
      </trkpt>
      <trkpt lat="64.18875" lon="10.4192">
        <ele>61.780413</ele>
        <time>2020-07-15T18:15:54.719Z</time>
      </trkpt>
      <trkpt lat="64.19045" lon="10.41711">
        <ele>68.172235</ele>
        <time>2020-07-15T18:16:53.422Z</time>
      </trkpt>
      <trkpt lat="64.1909" lon="10.41634">
        <ele>70.053204</ele>
        <time>2020-07-15T18:17:08.730Z</time>
      </trkpt>
      <trkpt lat="64.19095" lon="10.41624">
        <ele>70.273775</ele>
        <time>2020-07-15T18:17:11.246Z</time>
      </trkpt>
      <trkpt lat="64.19099" lon="10.41615">
        <ele>70.46333</ele>
        <time>2020-07-15T18:17:12.594Z</time>
      </trkpt>
      <trkpt lat="64.19114" lon="10.41567">
        <ele>71.312527</ele>
        <time>2020-07-15T18:17:19.193Z</time>
      </trkpt>
      <trkpt lat="64.1913" lon="10.41482">
        <ele>72.379309</ele>
        <time>2020-07-15T18:17:30.461Z</time>
      </trkpt>
      <trkpt lat="64.19161" lon="10.41307">
        <ele>74.115324</ele>
        <time>2020-07-15T18:17:50.442Z</time>
      </trkpt>
      <trkpt lat="64.19165" lon="10.41284">
        <ele>74.349139</ele>
        <time>2020-07-15T18:17:53.007Z</time>
      </trkpt>
      <trkpt lat="64.19188" lon="10.41151">
        <ele>75.665543</ele>
        <time>2020-07-15T18:18:06.992Z</time>
      </trkpt>
      <trkpt lat="64.19199" lon="10.41092">
        <ele>76.473092</ele>
        <time>2020-07-15T18:18:13.786Z</time>
      </trkpt>
      <trkpt lat="64.19224" lon="10.40951">
        <ele>78.399157</ele>
        <time>2020-07-15T18:18:31.363Z</time>
      </trkpt>
      <trkpt lat="64.19261" lon="10.40756">
        <ele>81.127239</ele>
        <time>2020-07-15T18:18:58.157Z</time>
      </trkpt>
      <trkpt lat="64.19292" lon="10.40657">
        <ele>82.929589</ele>
        <time>2020-07-15T18:19:14.581Z</time>
      </trkpt>
      <trkpt lat="64.19325" lon="10.40589">
        <ele>84.418074</ele>
        <time>2020-07-15T18:19:28.150Z</time>
      </trkpt>
      <trkpt lat="64.19361" lon="10.40539">
        <ele>85.851421</ele>
        <time>2020-07-15T18:19:40.513Z</time>
      </trkpt>
      <trkpt lat="64.194" lon="10.4051">
        <ele>87.173766</ele>
        <time>2020-07-15T18:19:51.143Z</time>
      </trkpt>
      <trkpt lat="64.19438" lon="10.40503">
        <ele>88.175969</ele>
        <time>2020-07-15T18:19:59.845Z</time>
      </trkpt>
      <trkpt lat="64.1949" lon="10.40514">
        <ele>89.547834</ele>
        <time>2020-07-15T18:20:09.684Z</time>
      </trkpt>
      <trkpt lat="64.19709" lon="10.40563">
        <ele>100.409285</ele>
        <time>2020-07-15T18:21:18.124Z</time>
      </trkpt>
      <trkpt lat="64.19739" lon="10.40571">
        <ele>102.273824</ele>
        <time>2020-07-15T18:21:36.133Z</time>
      </trkpt>
      <trkpt lat="64.19756" lon="10.40581">
        <ele>103.505475</ele>
        <time>2020-07-15T18:21:42.404Z</time>
      </trkpt>
      <trkpt lat="64.19762" lon="10.40586">
        <ele>104.094175</ele>
        <time>2020-07-15T18:21:47.978Z</time>
      </trkpt>
      <trkpt lat="64.1977" lon="10.40595">
        <ele>104.871932</ele>
        <time>2020-07-15T18:21:55.429Z</time>
      </trkpt>
      <trkpt lat="64.19809" lon="10.40671">
        <ele>109.522668</ele>
        <time>2020-07-15T18:22:22.240Z</time>
      </trkpt>
      <trkpt lat="64.19833" lon="10.4076">
        <ele>113.678968</ele>
        <time>2020-07-15T18:22:48.991Z</time>
      </trkpt>
      <trkpt lat="64.19845" lon="10.40932">
        <ele>118.992472</ele>
        <time>2020-07-15T18:23:19.989Z</time>
      </trkpt>
      <trkpt lat="64.19875" lon="10.41199">
        <ele>115.326996</ele>
        <time>2020-07-15T18:23:35.111Z</time>
      </trkpt>
      <trkpt lat="64.1994" lon="10.41503">
        <ele>108.335732</ele>
        <time>2020-07-15T18:23:51.951Z</time>
      </trkpt>
      <trkpt lat="64.19987" lon="10.41636">
        <ele>104.179013</ele>
        <time>2020-07-15T18:24:01.099Z</time>
      </trkpt>
      <trkpt lat="64.20088" lon="10.41798">
        <ele>103.235146</ele>
        <time>2020-07-15T18:24:19.270Z</time>
      </trkpt>
      <trkpt lat="64.20115" lon="10.41827">
        <ele>103.064166</ele>
        <time>2020-07-15T18:24:24.847Z</time>
      </trkpt>
      <trkpt lat="64.20144" lon="10.41834">
        <ele>102.901072</ele>
        <time>2020-07-15T18:24:31.473Z</time>
      </trkpt>
      <trkpt lat="64.20223" lon="10.41781">
        <ele>109.359255</ele>
        <time>2020-07-15T18:24:57.550Z</time>
      </trkpt>
      <trkpt lat="64.20242" lon="10.41776">
        <ele>110.924717</ele>
        <time>2020-07-15T18:25:05.241Z</time>
      </trkpt>
      <trkpt lat="64.20264" lon="10.41787">
        <ele>112.793814</ele>
        <time>2020-07-15T18:25:14.933Z</time>
      </trkpt>
      <trkpt lat="64.20439" lon="10.42057">
        <ele>141.883668</ele>
        <time>2020-07-15T18:27:33.227Z</time>
      </trkpt>
      <trkpt lat="64.20494" lon="10.42094">
        <ele>151.90902</ele>
        <time>2020-07-15T18:28:21.780Z</time>
      </trkpt>
      <trkpt lat="64.20622" lon="10.42104">
        <ele>176.140973</ele>
        <time>2020-07-15T18:30:06.753Z</time>
      </trkpt>
      <trkpt lat="64.20652" lon="10.42118">
        <ele>181.261463</ele>
        <time>2020-07-15T18:30:28.165Z</time>
      </trkpt>
      <trkpt lat="64.20682" lon="10.42156">
        <ele>185.529964</ele>
        <time>2020-07-15T18:30:50.524Z</time>
      </trkpt>
      <trkpt lat="64.20734" lon="10.42251">
        <ele>193.941508</ele>
        <time>2020-07-15T18:31:29.947Z</time>
      </trkpt>
      <trkpt lat="64.20812" lon="10.42341">
        <ele>203.996534</ele>
        <time>2020-07-15T18:32:13.306Z</time>
      </trkpt>
      <trkpt lat="64.20931" lon="10.42474">
        <ele>213.851554</ele>
        <time>2020-07-15T18:33:09.281Z</time>
      </trkpt>
      <trkpt lat="64.21056" lon="10.42577">
        <ele>219.998914</ele>
        <time>2020-07-15T18:33:54.188Z</time>
      </trkpt>
      <trkpt lat="64.21146" lon="10.42573">
        <ele>223.058653</ele>
        <time>2020-07-15T18:34:16.102Z</time>
      </trkpt>
      <trkpt lat="64.21241" lon="10.42588">
        <ele>224.27878</ele>
        <time>2020-07-15T18:34:36.484Z</time>
      </trkpt>
      <trkpt lat="64.21312" lon="10.42576">
        <ele>225.182555</ele>
        <time>2020-07-15T18:34:51.515Z</time>
      </trkpt>
      <trkpt lat="64.21439" lon="10.42505">
        <ele>227.048865</ele>
        <time>2020-07-15T18:35:20.423Z</time>
      </trkpt>
      <trkpt lat="64.21477" lon="10.42478">
        <ele>227.611716</ele>
        <time>2020-07-15T18:35:29.601Z</time>
      </trkpt>
      <trkpt lat="64.21546" lon="10.42402">
        <ele>229.199031</ele>
        <time>2020-07-15T18:35:47.828Z</time>
      </trkpt>
      <trkpt lat="64.21627" lon="10.42361">
        <ele>231.002179</ele>
        <time>2020-07-15T18:36:08.438Z</time>
      </trkpt>
      <trkpt lat="64.21658" lon="10.42309">
        <ele>231.849411</ele>
        <time>2020-07-15T18:36:18.649Z</time>
      </trkpt>
      <trkpt lat="64.2173" lon="10.42119">
        <ele>234.345617</ele>
        <time>2020-07-15T18:36:48.230Z</time>
      </trkpt>
      <trkpt lat="64.21792" lon="10.4201">
        <ele>235.757782</ele>
        <time>2020-07-15T18:37:07.197Z</time>
      </trkpt>
      <trkpt lat="64.21952" lon="10.41682">
        <ele>234.421563</ele>
        <time>2020-07-15T18:37:42.416Z</time>
      </trkpt>
      <trkpt lat="64.22028" lon="10.41528">
        <ele>232.095792</ele>
        <time>2020-07-15T18:37:56.021Z</time>
      </trkpt>
      <trkpt lat="64.22066" lon="10.41454">
        <ele>230.668944</ele>
        <time>2020-07-15T18:38:02.450Z</time>
      </trkpt>
      <trkpt lat="64.22234" lon="10.4112">
        <ele>220.809556</ele>
        <time>2020-07-15T18:38:30.586Z</time>
      </trkpt>
      <trkpt lat="64.2234" lon="10.40838">
        <ele>210.564218</ele>
        <time>2020-07-15T18:38:49.086Z</time>
      </trkpt>
      <trkpt lat="64.22376" lon="10.40727">
        <ele>206.486637</ele>
        <time>2020-07-15T18:38:55.920Z</time>
      </trkpt>
      <trkpt lat="64.22391" lon="10.40647">
        <ele>203.90896</ele>
        <time>2020-07-15T18:39:00.346Z</time>
      </trkpt>
      <trkpt lat="64.22396" lon="10.40571">
        <ele>201.653966</ele>
        <time>2020-07-15T18:39:04.297Z</time>
      </trkpt>
      <trkpt lat="64.22386" lon="10.40298">
        <ele>194.453042</ele>
        <time>2020-07-15T18:39:18.845Z</time>
      </trkpt>
      <trkpt lat="64.22387" lon="10.40241">
        <ele>192.964148</ele>
        <time>2020-07-15T18:39:21.794Z</time>
      </trkpt>
      <trkpt lat="64.22398" lon="10.40183">
        <ele>191.307696</ele>
        <time>2020-07-15T18:39:25.033Z</time>
      </trkpt>
      <trkpt lat="64.22417" lon="10.40139">
        <ele>188.461561</ele>
        <time>2020-07-15T18:39:28.036Z</time>
      </trkpt>
      <trkpt lat="64.22449" lon="10.40113">
        <ele>183.703435</ele>
        <time>2020-07-15T18:39:31.686Z</time>
      </trkpt>
      <trkpt lat="64.22531" lon="10.40115">
        <ele>172.013744</ele>
        <time>2020-07-15T18:39:40.326Z</time>
      </trkpt>
      <trkpt lat="64.22596" lon="10.40063">
        <ele>161.439733</ele>
        <time>2020-07-15T18:39:47.372Z</time>
      </trkpt>
      <trkpt lat="64.22627" lon="10.40052">
        <ele>155.788553</ele>
        <time>2020-07-15T18:39:50.508Z</time>
      </trkpt>
      <trkpt lat="64.22651" lon="10.40062">
        <ele>151.225035</ele>
        <time>2020-07-15T18:39:53.054Z</time>
      </trkpt>
      <trkpt lat="64.22706" lon="10.40137">
        <ele>139.64259</ele>
        <time>2020-07-15T18:39:59.523Z</time>
      </trkpt>
      <trkpt lat="64.2275" lon="10.40156">
        <ele>131.823651</ele>
        <time>2020-07-15T18:40:04.181Z</time>
      </trkpt>
      <trkpt lat="64.22798" lon="10.4016">
        <ele>127.090191</ele>
        <time>2020-07-15T18:40:09.186Z</time>
      </trkpt>
      <trkpt lat="64.22893" lon="10.40123">
        <ele>117.512564</ele>
        <time>2020-07-15T18:40:19.842Z</time>
      </trkpt>
      <trkpt lat="64.2291" lon="10.40121">
        <ele>115.741991</ele>
        <time>2020-07-15T18:40:21.949Z</time>
      </trkpt>
      <trkpt lat="64.22923" lon="10.40122">
        <ele>114.519065</ele>
        <time>2020-07-15T18:40:23.419Z</time>
      </trkpt>
      <trkpt lat="64.22953" lon="10.40132">
        <ele>113.661701</ele>
        <time>2020-07-15T18:40:27.221Z</time>
      </trkpt>
      <trkpt lat="64.23012" lon="10.4017">
        <ele>112.04484</ele>
        <time>2020-07-15T18:40:35.402Z</time>
      </trkpt>
      <trkpt lat="64.23086" lon="10.40195">
        <ele>110.080847</ele>
        <time>2020-07-15T18:40:46.140Z</time>
      </trkpt>
      <trkpt lat="64.23199" lon="10.40277">
        <ele>110.469866</ele>
        <time>2020-07-15T18:41:07.842Z</time>
      </trkpt>
      <trkpt lat="64.23227" lon="10.40284">
        <ele>110.680996</ele>
        <time>2020-07-15T18:41:14.026Z</time>
      </trkpt>
      <trkpt lat="64.23366" lon="10.40269">
        <ele>113.507263</ele>
        <time>2020-07-15T18:41:49.457Z</time>
      </trkpt>
      <trkpt lat="64.23445" lon="10.40224">
        <ele>115.71375</ele>
        <time>2020-07-15T18:42:12.399Z</time>
      </trkpt>
      <trkpt lat="64.2349" lon="10.40212">
        <ele>116.711709</ele>
        <time>2020-07-15T18:42:24.723Z</time>
      </trkpt>
      <trkpt lat="64.23589" lon="10.40214">
        <ele>118.818097</ele>
        <time>2020-07-15T18:42:49.677Z</time>
      </trkpt>
      <trkpt lat="64.23645" lon="10.40176">
        <ele>119.805809</ele>
        <time>2020-07-15T18:43:02.250Z</time>
      </trkpt>
      <trkpt lat="64.23705" lon="10.40112">
        <ele>120.147293</ele>
        <time>2020-07-15T18:43:14.877Z</time>
      </trkpt>
      <trkpt lat="64.23735" lon="10.401">
        <ele>120.305331</ele>
        <time>2020-07-15T18:43:20.552Z</time>
      </trkpt>
      <trkpt lat="64.238" lon="10.4011">
        <ele>120.643751</ele>
        <time>2020-07-15T18:43:32.799Z</time>
      </trkpt>
      <trkpt lat="64.23877" lon="10.40169">
        <ele>120.885354</ele>
        <time>2020-07-15T18:43:48.689Z</time>
      </trkpt>
      <trkpt lat="64.23942" lon="10.40189">
        <ele>121.073784</ele>
        <time>2020-07-15T18:44:01.622Z</time>
      </trkpt>
      <trkpt lat="64.24019" lon="10.40198">
        <ele>120.596054</ele>
        <time>2020-07-15T18:44:14.624Z</time>
      </trkpt>
      <trkpt lat="64.24065" lon="10.40185">
        <ele>119.974381</ele>
        <time>2020-07-15T18:44:21.543Z</time>
      </trkpt>
      <trkpt lat="64.24075" lon="10.4018">
        <ele>119.834349</ele>
        <time>2020-07-15T18:44:23.033Z</time>
      </trkpt>
      <trkpt lat="64.24136" lon="10.4014">
        <ele>118.96588</ele>
        <time>2020-07-15T18:44:32.060Z</time>
      </trkpt>
      <trkpt lat="64.24172" lon="10.40125">
        <ele>118.407396</ele>
        <time>2020-07-15T18:44:37.090Z</time>
      </trkpt>
      <trkpt lat="64.24208" lon="10.40128">
        <ele>117.795845</ele>
        <time>2020-07-15T18:44:41.999Z</time>
      </trkpt>
      <trkpt lat="64.2424" lon="10.40148">
        <ele>117.234772</ele>
        <time>2020-07-15T18:44:46.484Z</time>
      </trkpt>
      <trkpt lat="64.243" lon="10.4022">
        <ele>116.079922</ele>
        <time>2020-07-15T18:44:56.489Z</time>
      </trkpt>
      <trkpt lat="64.24323" lon="10.40238">
        <ele>115.66532</ele>
        <time>2020-07-15T18:45:00.379Z</time>
      </trkpt>
      <trkpt lat="64.2447" lon="10.40266">
        <ele>115.955933</ele>
        <time>2020-07-15T18:45:26.082Z</time>
      </trkpt>
      <trkpt lat="64.24627" lon="10.40364">
        <ele>118.971931</ele>
        <time>2020-07-15T18:46:04.183Z</time>
      </trkpt>
      <trkpt lat="64.24979" lon="10.40394">
        <ele>126.289716</ele>
        <time>2020-07-15T18:47:50.386Z</time>
      </trkpt>
      <trkpt lat="64.2506" lon="10.40424">
        <ele>122.233594</ele>
        <time>2020-07-15T18:47:59.646Z</time>
      </trkpt>
      <trkpt lat="64.25065" lon="10.40427">
        <ele>121.441287</ele>
        <time>2020-07-15T18:48:00.231Z</time>
      </trkpt>
      <trkpt lat="64.25067" lon="10.40429">
        <ele>121.155394</ele>
        <time>2020-07-15T18:48:00.438Z</time>
      </trkpt>
      <trkpt lat="64.2513" lon="10.40507">
        <ele>110.352526</ele>
        <time>2020-07-15T18:48:07.933Z</time>
      </trkpt>
      <trkpt lat="64.25144" lon="10.4053">
        <ele>107.821399</ele>
        <time>2020-07-15T18:48:09.698Z</time>
      </trkpt>
      <trkpt lat="64.25146" lon="10.40535">
        <ele>107.37964</ele>
        <time>2020-07-15T18:48:10.021Z</time>
      </trkpt>
      <trkpt lat="64.25182" lon="10.40615">
        <ele>99.841574</ele>
        <time>2020-07-15T18:48:15.152Z</time>
      </trkpt>
      <trkpt lat="64.25211" lon="10.40716">
        <ele>90.647403</ele>
        <time>2020-07-15T18:48:20.546Z</time>
      </trkpt>
      <trkpt lat="64.2528" lon="10.41051">
        <ele>64.599391</ele>
        <time>2020-07-15T18:48:37.118Z</time>
      </trkpt>
      <trkpt lat="64.25297" lon="10.41184">
        <ele>58.92925</ele>
        <time>2020-07-15T18:48:43.664Z</time>
      </trkpt>
      <trkpt lat="64.25302" lon="10.41349">
        <ele>52.182249</ele>
        <time>2020-07-15T18:48:51.923Z</time>
      </trkpt>
      <trkpt lat="64.25297" lon="10.41681">
        <ele>46.370566</ele>
        <time>2020-07-15T18:49:11.242Z</time>
      </trkpt>
      <trkpt lat="64.25263" lon="10.42028">
        <ele>40.143679</ele>
        <time>2020-07-15T18:49:31.744Z</time>
      </trkpt>
      <trkpt lat="64.25257" lon="10.42146">
        <ele>37.829519</ele>
        <time>2020-07-15T18:49:37.889Z</time>
      </trkpt>
      <trkpt lat="64.25261" lon="10.42298">
        <ele>34.242637</ele>
        <time>2020-07-15T18:49:45.529Z</time>
      </trkpt>
      <trkpt lat="64.25277" lon="10.42437">
        <ele>30.452322</ele>
        <time>2020-07-15T18:49:52.629Z</time>
      </trkpt>
      <trkpt lat="64.25297" lon="10.42513">
        <ele>28.076328</ele>
        <time>2020-07-15T18:49:57.127Z</time>
      </trkpt>
      <trkpt lat="64.25324" lon="10.42557">
        <ele>26.05084</ele>
        <time>2020-07-15T18:50:01.008Z</time>
      </trkpt>
      <trkpt lat="64.25555" lon="10.42708">
        <ele>20.577117</ele>
        <time>2020-07-15T18:50:34.133Z</time>
      </trkpt>
      <trkpt lat="64.25614" lon="10.42712">
        <ele>20.315317</ele>
        <time>2020-07-15T18:50:45.965Z</time>
      </trkpt>
      <trkpt lat="64.25646" lon="10.42695">
        <ele>20.172582</ele>
        <time>2020-07-15T18:50:52.534Z</time>
      </trkpt>
      <trkpt lat="64.25674" lon="10.42668">
        <ele>20.040108</ele>
        <time>2020-07-15T18:50:58.506Z</time>
      </trkpt>
      <trkpt lat="64.25782" lon="10.42513">
        <ele>18.3025</ele>
        <time>2020-07-15T18:51:19.211Z</time>
      </trkpt>
      <trkpt lat="64.25918" lon="10.42335">
        <ele>14.473001</ele>
        <time>2020-07-15T18:51:39.467Z</time>
      </trkpt>
      <trkpt lat="64.26021" lon="10.42152">
        <ele>11.88133</ele>
        <time>2020-07-15T18:51:56.698Z</time>
      </trkpt>
      <trkpt lat="64.26053" lon="10.42117">
        <ele>11.832992</ele>
        <time>2020-07-15T18:52:02.353Z</time>
      </trkpt>
      <trkpt lat="64.26083" lon="10.42114">
        <ele>11.792504</ele>
        <time>2020-07-15T18:52:08.044Z</time>
      </trkpt>
      <trkpt lat="64.26109" lon="10.42132">
        <ele>11.756821</ele>
        <time>2020-07-15T18:52:13.798Z</time>
      </trkpt>
      <trkpt lat="64.26185" lon="10.42259">
        <ele>13.649386</ele>
        <time>2020-07-15T18:52:38.493Z</time>
      </trkpt>
      <trkpt lat="64.26219" lon="10.42288">
        <ele>14.95474</ele>
        <time>2020-07-15T18:52:49.593Z</time>
      </trkpt>
      <trkpt lat="64.2632" lon="10.42306">
        <ele>18.353365</ele>
        <time>2020-07-15T18:53:21.724Z</time>
      </trkpt>
      <trkpt lat="64.26345" lon="10.42296">
        <ele>18.874757</ele>
        <time>2020-07-15T18:53:29.453Z</time>
      </trkpt>
      <trkpt lat="64.26368" lon="10.42269">
        <ele>19.408817</ele>
        <time>2020-07-15T18:53:36.739Z</time>
      </trkpt>
      <trkpt lat="64.26399" lon="10.42193">
        <ele>20.336906</ele>
        <time>2020-07-15T18:53:47.762Z</time>
      </trkpt>
      <trkpt lat="64.26437" lon="10.42014">
        <ele>21.452499</ele>
        <time>2020-07-15T18:54:05.073Z</time>
      </trkpt>
      <trkpt lat="64.26443" lon="10.41934">
        <ele>20.737887</ele>
        <time>2020-07-15T18:54:10.944Z</time>
      </trkpt>
      <trkpt lat="64.26433" lon="10.41728">
        <ele>18.935227</ele>
        <time>2020-07-15T18:54:23.278Z</time>
      </trkpt>
      <trkpt lat="64.26441" lon="10.41603">
        <ele>17.65475</ele>
        <time>2020-07-15T18:54:30.190Z</time>
      </trkpt>
      <trkpt lat="64.26458" lon="10.41518">
        <ele>16.384984</ele>
        <time>2020-07-15T18:54:35.321Z</time>
      </trkpt>
      <trkpt lat="64.26511" lon="10.41406">
        <ele>14.134499</ele>
        <time>2020-07-15T18:54:44.609Z</time>
      </trkpt>
      <trkpt lat="64.26523" lon="10.41363">
        <ele>13.445934</ele>
        <time>2020-07-15T18:54:47.520Z</time>
      </trkpt>
      <trkpt lat="64.2653" lon="10.41299">
        <ele>12.547339</ele>
        <time>2020-07-15T18:54:51.424Z</time>
      </trkpt>
      <trkpt lat="64.26528" lon="10.41151">
        <ele>12.993871</ele>
        <time>2020-07-15T18:55:01.295Z</time>
      </trkpt>
      <trkpt lat="64.2654" lon="10.41074">
        <ele>13.248317</ele>
        <time>2020-07-15T18:55:08.408Z</time>
      </trkpt>
      <trkpt lat="64.26555" lon="10.41032">
        <ele>13.422656</ele>
        <time>2020-07-15T18:55:14.140Z</time>
      </trkpt>
      <trkpt lat="64.26576" lon="10.40999">
        <ele>13.603192</ele>
        <time>2020-07-15T18:55:20.696Z</time>
      </trkpt>
      <trkpt lat="64.26732" lon="10.40846">
        <ele>16.882393</ele>
        <time>2020-07-15T18:56:07.728Z</time>
      </trkpt>
      <trkpt lat="64.26906" lon="10.40771">
        <ele>17.382183</ele>
        <time>2020-07-15T18:56:39.211Z</time>
      </trkpt>
      <trkpt lat="64.26943" lon="10.40774">
        <ele>17.266642</ele>
        <time>2020-07-15T18:56:44.593Z</time>
      </trkpt>
      <trkpt lat="64.26977" lon="10.40795">
        <ele>17.182815</ele>
        <time>2020-07-15T18:56:49.737Z</time>
      </trkpt>
      <trkpt lat="64.27006" lon="10.40834">
        <ele>17.107902</ele>
        <time>2020-07-15T18:56:54.816Z</time>
      </trkpt>
      <trkpt lat="64.27031" lon="10.40891">
        <ele>17.028501</ele>
        <time>2020-07-15T18:57:00.448Z</time>
      </trkpt>
      <trkpt lat="64.27093" lon="10.4115">
        <ele>17.51789</ele>
        <time>2020-07-15T18:57:26.396Z</time>
      </trkpt>
      <trkpt lat="64.27141" lon="10.41328">
        <ele>18.887936</ele>
        <time>2020-07-15T18:57:49.565Z</time>
      </trkpt>
      <trkpt lat="64.27233" lon="10.41572">
        <ele>18.542679</ele>
        <time>2020-07-15T18:58:18.198Z</time>
      </trkpt>
      <trkpt lat="64.27277" lon="10.41627">
        <ele>18.029106</ele>
        <time>2020-07-15T18:58:25.108Z</time>
      </trkpt>
      <trkpt lat="64.27316" lon="10.4164">
        <ele>17.463586</ele>
        <time>2020-07-15T18:58:30.057Z</time>
      </trkpt>
      <trkpt lat="64.27357" lon="10.4162">
        <ele>15.869082</ele>
        <time>2020-07-15T18:58:35.211Z</time>
      </trkpt>
      <trkpt lat="64.27405" lon="10.41549">
        <ele>13.679251</ele>
        <time>2020-07-15T18:58:42.365Z</time>
      </trkpt>
      <trkpt lat="64.27417" lon="10.41527">
        <ele>13.10828</ele>
        <time>2020-07-15T18:58:44.130Z</time>
      </trkpt>
      <trkpt lat="64.27427" lon="10.41507">
        <ele>12.598623</ele>
        <time>2020-07-15T18:58:45.875Z</time>
      </trkpt>
      <trkpt lat="64.2752" lon="10.41332">
        <ele>10.444299</ele>
        <time>2020-07-15T18:59:02.077Z</time>
      </trkpt>
      <trkpt lat="64.27589" lon="10.41203">
        <ele>9.986195</ele>
        <time>2020-07-15T18:59:19.888Z</time>
      </trkpt>
      <trkpt lat="64.27626" lon="10.41134">
        <ele>10.316735</ele>
        <time>2020-07-15T18:59:31.498Z</time>
      </trkpt>
      <trkpt lat="64.27683" lon="10.41027">
        <ele>11.335067</ele>
        <time>2020-07-15T18:59:49.956Z</time>
      </trkpt>
      <trkpt lat="64.27774" lon="10.40856">
        <ele>11.884294</ele>
        <time>2020-07-15T19:00:13.604Z</time>
      </trkpt>
      <trkpt lat="64.27826" lon="10.40758">
        <ele>11.035332</ele>
        <time>2020-07-15T19:00:23.984Z</time>
      </trkpt>
      <trkpt lat="64.27857" lon="10.40701">
        <ele>10.531126</ele>
        <time>2020-07-15T19:00:29.550Z</time>
      </trkpt>
      <trkpt lat="64.27891" lon="10.40662">
        <ele>10.014059</ele>
        <time>2020-07-15T19:00:34.503Z</time>
      </trkpt>
      <trkpt lat="64.27916" lon="10.40644">
        <ele>9.514221</ele>
        <time>2020-07-15T19:00:37.945Z</time>
      </trkpt>
      <trkpt lat="64.27963" lon="10.40631">
        <ele>8.637311</ele>
        <time>2020-07-15T19:00:44.212Z</time>
      </trkpt>
      <trkpt lat="64.2803" lon="10.40619">
        <ele>7.363179</ele>
        <time>2020-07-15T19:00:53.988Z</time>
      </trkpt>
      <trkpt lat="64.28035" lon="10.40618">
        <ele>7.278184</ele>
        <time>2020-07-15T19:00:54.667Z</time>
      </trkpt>
      <trkpt lat="64.28104" lon="10.40606">
        <ele>6.813863</ele>
        <time>2020-07-15T19:01:06.302Z</time>
      </trkpt>
      <trkpt lat="64.28165" lon="10.40607">
        <ele>6.922215</ele>
        <time>2020-07-15T19:01:17.961Z</time>
      </trkpt>
      <trkpt lat="64.28212" lon="10.40651">
        <ele>7.011053</ele>
        <time>2020-07-15T19:01:27.923Z</time>
      </trkpt>
      <trkpt lat="64.28245" lon="10.40699">
        <ele>7.147488</ele>
        <time>2020-07-15T19:01:35.070Z</time>
      </trkpt>
      <trkpt lat="64.28329" lon="10.40825">
        <ele>7.889604</ele>
        <time>2020-07-15T19:01:56.296Z</time>
      </trkpt>
      <trkpt lat="64.2835" lon="10.40851">
        <ele>8.067775</ele>
        <time>2020-07-15T19:02:01.430Z</time>
      </trkpt>
      <trkpt lat="64.28374" lon="10.40864">
        <ele>8.251759</ele>
        <time>2020-07-15T19:02:05.666Z</time>
      </trkpt>
      <trkpt lat="64.28378" lon="10.40864">
        <ele>8.284497</ele>
        <time>2020-07-15T19:02:06.285Z</time>
      </trkpt>
      <trkpt lat="64.28385" lon="10.40861">
        <ele>8.33271</ele>
        <time>2020-07-15T19:02:08.511Z</time>
      </trkpt>
      <trkpt lat="64.28412" lon="10.4082">
        <ele>8.425512</ele>
        <time>2020-07-15T19:02:14.018Z</time>
      </trkpt>
      <trkpt lat="64.28416" lon="10.4081">
        <ele>8.432961</ele>
        <time>2020-07-15T19:02:16.127Z</time>
      </trkpt>
      <trkpt lat="64.28419" lon="10.40797">
        <ele>8.441278</ele>
        <time>2020-07-15T19:02:17.162Z</time>
      </trkpt>
      <trkpt lat="64.28423" lon="10.4075">
        <ele>8.468479</ele>
        <time>2020-07-15T19:02:20.469Z</time>
      </trkpt>
      <trkpt lat="64.28424" lon="10.40713">
        <ele>8.488958</ele>
        <time>2020-07-15T19:02:24.559Z</time>
      </trkpt>
      <trkpt lat="64.28423" lon="10.40651">
        <ele>8.524167</ele>
        <time>2020-07-15T19:02:29.514Z</time>
      </trkpt>
      <trkpt lat="64.28432" lon="10.4056">
        <ele>8.576781</ele>
        <time>2020-07-15T19:02:37.185Z</time>
      </trkpt>
      <trkpt lat="64.28471" lon="10.40437">
        <ele>8.562357</ele>
        <time>2020-07-15T19:02:47.660Z</time>
      </trkpt>
      <trkpt lat="64.28494" lon="10.40385">
        <ele>8.488098</ele>
        <time>2020-07-15T19:02:52.686Z</time>
      </trkpt>
      <trkpt lat="64.28496" lon="10.40381">
        <ele>8.480946</ele>
        <time>2020-07-15T19:02:53.032Z</time>
      </trkpt>
      <trkpt lat="64.28565" lon="10.40259">
        <ele>8.277385</ele>
        <time>2020-07-15T19:03:07.275Z</time>
      </trkpt>
      <trkpt lat="64.28596" lon="10.4023">
        <ele>8.307336</ele>
        <time>2020-07-15T19:03:13.823Z</time>
      </trkpt>
      <trkpt lat="64.28611" lon="10.40234">
        <ele>8.951382</ele>
        <time>2020-07-15T19:03:17.355Z</time>
      </trkpt>
      <trkpt lat="64.28624" lon="10.40251">
        <ele>9.578679</ele>
        <time>2020-07-15T19:03:20.438Z</time>
      </trkpt>
      <trkpt lat="64.28661" lon="10.40343">
        <ele>11.88786</ele>
        <time>2020-07-15T19:03:35.967Z</time>
      </trkpt>
      <trkpt lat="64.28712" lon="10.40585">
        <ele>17.674781</ele>
        <time>2020-07-15T19:04:19.587Z</time>
      </trkpt>
      <trkpt lat="64.28846" lon="10.40956">
        <ele>32.318108</ele>
        <time>2020-07-15T19:05:51.681Z</time>
      </trkpt>
      <trkpt lat="64.28884" lon="10.41083">
        <ele>35.677705</ele>
        <time>2020-07-15T19:06:15.042Z</time>
      </trkpt>
      <trkpt lat="64.28907" lon="10.41186">
        <ele>38.215848</ele>
        <time>2020-07-15T19:06:28.759Z</time>
      </trkpt>
      <trkpt lat="64.28925" lon="10.41316">
        <ele>38.143204</ele>
        <time>2020-07-15T19:06:40.613Z</time>
      </trkpt>
      <trkpt lat="64.28933" lon="10.41443">
        <ele>37.546096</ele>
        <time>2020-07-15T19:06:48.759Z</time>
      </trkpt>
      <trkpt lat="64.28932" lon="10.41554">
        <ele>37.02508</ele>
        <time>2020-07-15T19:06:55.288Z</time>
      </trkpt>
      <trkpt lat="64.28923" lon="10.41719">
        <ele>36.449488</ele>
        <time>2020-07-15T19:07:04.977Z</time>
      </trkpt>
      <trkpt lat="64.28918" lon="10.4178">
        <ele>36.276435</ele>
        <time>2020-07-15T19:07:08.722Z</time>
      </trkpt>
      <trkpt lat="64.28904" lon="10.41932">
        <ele>35.84283</ele>
        <time>2020-07-15T19:07:19.457Z</time>
      </trkpt>
      <trkpt lat="64.28862" lon="10.42394">
        <ele>39.95874</ele>
        <time>2020-07-15T19:08:13.235Z</time>
      </trkpt>
      <trkpt lat="64.28854" lon="10.42549">
        <ele>41.497295</ele>
        <time>2020-07-15T19:08:32.928Z</time>
      </trkpt>
      <trkpt lat="64.28853" lon="10.42613">
        <ele>42.10011</ele>
        <time>2020-07-15T19:08:40.722Z</time>
      </trkpt>
      <trkpt lat="64.2885" lon="10.42771">
        <ele>43.583231</ele>
        <time>2020-07-15T19:08:57.902Z</time>
      </trkpt>
      <trkpt lat="64.28843" lon="10.43022">
        <ele>42.830142</ele>
        <time>2020-07-15T19:09:16.925Z</time>
      </trkpt>
      <trkpt lat="64.28842" lon="10.43112">
        <ele>42.134793</ele>
        <time>2020-07-15T19:09:22.366Z</time>
      </trkpt>
      <trkpt lat="64.28842" lon="10.43145">
        <ele>41.87185</ele>
        <time>2020-07-15T19:09:24.275Z</time>
      </trkpt>
      <trkpt lat="64.28844" lon="10.43229">
        <ele>41.220139</ele>
        <time>2020-07-15T19:09:29.067Z</time>
      </trkpt>
      <trkpt lat="64.28848" lon="10.43297">
        <ele>39.675203</ele>
        <time>2020-07-15T19:09:32.892Z</time>
      </trkpt>
      <trkpt lat="64.28849" lon="10.43314">
        <ele>39.145051</ele>
        <time>2020-07-15T19:09:33.749Z</time>
      </trkpt>
      <trkpt lat="64.28863" lon="10.43483">
        <ele>33.807067</ele>
        <time>2020-07-15T19:09:42.510Z</time>
      </trkpt>
      <trkpt lat="64.28872" lon="10.43597">
        <ele>30.196824</ele>
        <time>2020-07-15T19:09:48.167Z</time>
      </trkpt>
      <trkpt lat="64.28874" lon="10.43613">
        <ele>29.686452</ele>
        <time>2020-07-15T19:09:48.943Z</time>
      </trkpt>
      <trkpt lat="64.28893" lon="10.43844">
        <ele>20.187461</ele>
        <time>2020-07-15T19:09:59.908Z</time>
      </trkpt>
      <trkpt lat="64.289" lon="10.43938">
        <ele>16.067224</ele>
        <time>2020-07-15T19:10:04.385Z</time>
      </trkpt>
      <trkpt lat="64.28904" lon="10.43985">
        <ele>14.013466</ele>
        <time>2020-07-15T19:10:06.652Z</time>
      </trkpt>
      <trkpt lat="64.28907" lon="10.4402">
        <ele>12.450753</ele>
        <time>2020-07-15T19:10:08.353Z</time>
      </trkpt>
      <trkpt lat="64.28936" lon="10.44374">
        <ele>3.799338</ele>
        <time>2020-07-15T19:10:26.602Z</time>
      </trkpt>
      <trkpt lat="64.28938" lon="10.44393">
        <ele>3.395399</ele>
        <time>2020-07-15T19:10:27.917Z</time>
      </trkpt>
      <trkpt lat="64.28959" lon="10.44543">
        <ele>2.022684</ele>
        <time>2020-07-15T19:10:39.285Z</time>
      </trkpt>
      <trkpt lat="64.29049" lon="10.4496">
        <ele>7.581999</ele>
        <time>2020-07-15T19:11:28.034Z</time>
      </trkpt>
      <trkpt lat="64.29066" lon="10.45021">
        <ele>9.661209</ele>
        <time>2020-07-15T19:11:42.166Z</time>
      </trkpt>
      <trkpt lat="64.29088" lon="10.45063">
        <ele>11.592083</ele>
        <time>2020-07-15T19:11:55.335Z</time>
      </trkpt>
      <trkpt lat="64.29112" lon="10.45084">
        <ele>13.271926</ele>
        <time>2020-07-15T19:12:05.718Z</time>
      </trkpt>
      <trkpt lat="64.29143" lon="10.45089">
        <ele>15.379812</ele>
        <time>2020-07-15T19:12:20.261Z</time>
      </trkpt>
      <trkpt lat="64.29177" lon="10.45064">
        <ele>18.234906</ele>
        <time>2020-07-15T19:12:37.857Z</time>
      </trkpt>
      <trkpt lat="64.29186" lon="10.45052">
        <ele>19.063595</ele>
        <time>2020-07-15T19:12:44.043Z</time>
      </trkpt>
      <trkpt lat="64.29192" lon="10.45041">
        <ele>19.757771</ele>
        <time>2020-07-15T19:12:49.174Z</time>
      </trkpt>
      <trkpt lat="64.29214" lon="10.44982">
        <ele>22.599424</ele>
        <time>2020-07-15T19:13:05.970Z</time>
      </trkpt>
      <trkpt lat="64.29275" lon="10.44689">
        <ele>31.404337</ele>
        <time>2020-07-15T19:14:04.956Z</time>
      </trkpt>
      <trkpt lat="64.29307" lon="10.44612">
        <ele>31.685113</ele>
        <time>2020-07-15T19:14:14.700Z</time>
      </trkpt>
      <trkpt lat="64.29355" lon="10.44574">
        <ele>31.990468</ele>
        <time>2020-07-15T19:14:22.525Z</time>
      </trkpt>
      <trkpt lat="64.29481" lon="10.44517">
        <ele>27.70721</ele>
        <time>2020-07-15T19:14:38.215Z</time>
      </trkpt>
      <trkpt lat="64.29528" lon="10.44512">
        <ele>25.161553</ele>
        <time>2020-07-15T19:14:43.727Z</time>
      </trkpt>
      <trkpt lat="64.29578" lon="10.44529">
        <ele>22.484948</ele>
        <time>2020-07-15T19:14:49.575Z</time>
      </trkpt>
      <trkpt lat="64.29617" lon="10.44564">
        <ele>20.483676</ele>
        <time>2020-07-15T19:14:54.527Z</time>
      </trkpt>
      <trkpt lat="64.29759" lon="10.44725">
        <ele>13.543245</ele>
        <time>2020-07-15T19:15:14.180Z</time>
      </trkpt>
      <trkpt lat="64.29781" lon="10.44758">
        <ele>12.942722</ele>
        <time>2020-07-15T19:15:17.780Z</time>
      </trkpt>
      <trkpt lat="64.29792" lon="10.44787">
        <ele>12.569876</ele>
        <time>2020-07-15T19:15:20.058Z</time>
      </trkpt>
      <trkpt lat="64.298" lon="10.44847">
        <ele>11.944309</ele>
        <time>2020-07-15T19:15:23.960Z</time>
      </trkpt>
      <trkpt lat="64.29798" lon="10.44934">
        <ele>11.087879</ele>
        <time>2020-07-15T19:15:29.467Z</time>
      </trkpt>
      <trkpt lat="64.29759" lon="10.45202">
        <ele>8.293251</ele>
        <time>2020-07-15T19:15:47.603Z</time>
      </trkpt>
      <trkpt lat="64.29755" lon="10.45281">
        <ele>7.509537</ele>
        <time>2020-07-15T19:15:52.166Z</time>
      </trkpt>
      <trkpt lat="64.2976" lon="10.45335">
        <ele>6.953066</ele>
        <time>2020-07-15T19:15:55.705Z</time>
      </trkpt>
      <trkpt lat="64.29771" lon="10.45376">
        <ele>6.487533</ele>
        <time>2020-07-15T19:15:58.284Z</time>
      </trkpt>
      <trkpt lat="64.2979" lon="10.45416">
        <ele>5.888858</ele>
        <time>2020-07-15T19:16:01.657Z</time>
      </trkpt>
      <trkpt lat="64.29812" lon="10.45438">
        <ele>5.309714</ele>
        <time>2020-07-15T19:16:05.262Z</time>
      </trkpt>
      <trkpt lat="64.29819" lon="10.45441">
        <ele>5.145014</ele>
        <time>2020-07-15T19:16:06.006Z</time>
      </trkpt>
      <trkpt lat="64.29833" lon="10.45445">
        <ele>4.808121</ele>
        <time>2020-07-15T19:16:08.060Z</time>
      </trkpt>
      <trkpt lat="64.29982" lon="10.45466">
        <ele>1.481922</ele>
        <time>2020-07-15T19:16:28.414Z</time>
      </trkpt>
      <trkpt lat="64.2999" lon="10.45468">
        <ele>1.450172</ele>
        <time>2020-07-15T19:16:29.824Z</time>
      </trkpt>
      <trkpt lat="64.30012" lon="10.45471">
        <ele>1.358263</ele>
        <time>2020-07-15T19:16:33.646Z</time>
      </trkpt>
      <trkpt lat="64.30063" lon="10.45502">
        <ele>1.14145</ele>
        <time>2020-07-15T19:16:43.039Z</time>
      </trkpt>
      <trkpt lat="64.30111" lon="10.45552">
        <ele>0.925434</ele>
        <time>2020-07-15T19:16:52.442Z</time>
      </trkpt>
      <trkpt lat="64.30167" lon="10.45629">
        <ele>0.768402</ele>
        <time>2020-07-15T19:17:04.297Z</time>
      </trkpt>
      <trkpt lat="64.30191" lon="10.45666">
        <ele>0.743912</ele>
        <time>2020-07-15T19:17:09.436Z</time>
      </trkpt>
      <trkpt lat="64.30323" lon="10.45853">
        <ele>0.620788</ele>
        <time>2020-07-15T19:17:36.281Z</time>
      </trkpt>
      <trkpt lat="64.3037" lon="10.45921">
        <ele>0.584582</ele>
        <time>2020-07-15T19:17:45.896Z</time>
      </trkpt>
      <trkpt lat="64.30421" lon="10.46017">
        <ele>0.541912</ele>
        <time>2020-07-15T19:17:57.498Z</time>
      </trkpt>
      <trkpt lat="64.30456" lon="10.46108">
        <ele>0.774388</ele>
        <time>2020-07-15T19:18:07.044Z</time>
      </trkpt>
      <trkpt lat="64.30529" lon="10.46371">
        <ele>1.807007</ele>
        <time>2020-07-15T19:18:34.065Z</time>
      </trkpt>
      <trkpt lat="64.30557" lon="10.46505">
        <ele>3.377847</ele>
        <time>2020-07-15T19:18:49.741Z</time>
      </trkpt>
      <trkpt lat="64.30562" lon="10.4654">
        <ele>3.831428</ele>
        <time>2020-07-15T19:18:53.680Z</time>
      </trkpt>
      <trkpt lat="64.30567" lon="10.46592">
        <ele>4.497387</ele>
        <time>2020-07-15T19:19:00.881Z</time>
      </trkpt>
      <trkpt lat="64.3058" lon="10.46733">
        <ele>6.262258</ele>
        <time>2020-07-15T19:19:17.580Z</time>
      </trkpt>
      <trkpt lat="64.30581" lon="10.46749">
        <ele>6.459939</ele>
        <time>2020-07-15T19:19:20.471Z</time>
      </trkpt>
      <trkpt lat="64.30595" lon="10.46908">
        <ele>8.996558</ele>
        <time>2020-07-15T19:19:41.412Z</time>
      </trkpt>
      <trkpt lat="64.30595" lon="10.46915">
        <ele>9.126625</ele>
        <time>2020-07-15T19:19:43.338Z</time>
      </trkpt>
      <trkpt lat="64.30595" lon="10.46919">
        <ele>9.192649</ele>
        <time>2020-07-15T19:19:44.075Z</time>
      </trkpt>
      <trkpt lat="64.30534" lon="10.46976">
        <ele>11.751923</ele>
        <time>2020-07-15T19:20:03.281Z</time>
      </trkpt>
      <trkpt lat="64.30519" lon="10.46991">
        <ele>12.385714</ele>
        <time>2020-07-15T19:20:09.340Z</time>
      </trkpt>
      <trkpt lat="64.3051" lon="10.47">
        <ele>12.752103</ele>
        <time>2020-07-15T19:20:11.564Z</time>
      </trkpt>
      <trkpt lat="64.30442" lon="10.47066">
        <ele>15.236573</ele>
        <time>2020-07-15T19:20:33.423Z</time>
      </trkpt>
      <trkpt lat="64.30419" lon="10.47086">
        <ele>15.974783</ele>
        <time>2020-07-15T19:20:40.368Z</time>
      </trkpt>
      <trkpt lat="64.30374" lon="10.47109">
        <ele>17.35805</ele>
        <time>2020-07-15T19:20:52.753Z</time>
      </trkpt>
      <trkpt lat="64.30289" lon="10.47127">
        <ele>19.70528</ele>
        <time>2020-07-15T19:21:15.074Z</time>
      </trkpt>
      <trkpt lat="64.30258" lon="10.47144">
        <ele>20.306274</ele>
        <time>2020-07-15T19:21:23.020Z</time>
      </trkpt>
      <trkpt lat="64.30192" lon="10.47215">
        <ele>21.698747</ele>
        <time>2020-07-15T19:21:40.635Z</time>
      </trkpt>
      <trkpt lat="64.30148" lon="10.47294">
        <ele>22.744878</ele>
        <time>2020-07-15T19:21:53.253Z</time>
      </trkpt>
      <trkpt lat="64.30104" lon="10.47412">
        <ele>23.148599</ele>
        <time>2020-07-15T19:22:07.589Z</time>
      </trkpt>
      <trkpt lat="64.30092" lon="10.47477">
        <ele>23.324487</ele>
        <time>2020-07-15T19:22:13.814Z</time>
      </trkpt>
      <trkpt lat="64.30086" lon="10.4768">
        <ele>23.770909</ele>
        <time>2020-07-15T19:22:30.159Z</time>
      </trkpt>
      <trkpt lat="64.30089" lon="10.47872">
        <ele>23.316596</ele>
        <time>2020-07-15T19:22:43.567Z</time>
      </trkpt>
      <trkpt lat="64.30099" lon="10.47966">
        <ele>23.089065</ele>
        <time>2020-07-15T19:22:50.042Z</time>
      </trkpt>
      <trkpt lat="64.30114" lon="10.48053">
        <ele>22.866776</ele>
        <time>2020-07-15T19:22:56.338Z</time>
      </trkpt>
      <trkpt lat="64.30261" lon="10.48575">
        <ele>23.922971</ele>
        <time>2020-07-15T19:23:45.904Z</time>
      </trkpt>
      <trkpt lat="64.30294" lon="10.48663">
        <ele>24.56195</ele>
        <time>2020-07-15T19:23:59.189Z</time>
      </trkpt>
      <trkpt lat="64.30461" lon="10.49017">
        <ele>26.877133</ele>
        <time>2020-07-15T19:24:52.256Z</time>
      </trkpt>
      <trkpt lat="64.3049" lon="10.49095">
        <ele>25.034093</ele>
        <time>2020-07-15T19:24:57.771Z</time>
      </trkpt>
      <trkpt lat="64.30512" lon="10.49178">
        <ele>23.208883</ele>
        <time>2020-07-15T19:25:02.894Z</time>
      </trkpt>
      <trkpt lat="64.30526" lon="10.4927">
        <ele>21.366586</ele>
        <time>2020-07-15T19:25:07.935Z</time>
      </trkpt>
      <trkpt lat="64.30539" lon="10.49401">
        <ele>18.916231</ele>
        <time>2020-07-15T19:25:14.693Z</time>
      </trkpt>
      <trkpt lat="64.30585" lon="10.50095">
        <ele>10.433418</ele>
        <time>2020-07-15T19:25:55.624Z</time>
      </trkpt>
      <trkpt lat="64.30635" lon="10.50457">
        <ele>9.141746</ele>
        <time>2020-07-15T19:26:21.722Z</time>
      </trkpt>
      <trkpt lat="64.30646" lon="10.50593">
        <ele>9.024377</ele>
        <time>2020-07-15T19:26:32.445Z</time>
      </trkpt>
      <trkpt lat="64.30646" lon="10.50664">
        <ele>10.014593</ele>
        <time>2020-07-15T19:26:40.053Z</time>
      </trkpt>
      <trkpt lat="64.30646" lon="10.50902">
        <ele>13.916013</ele>
        <time>2020-07-15T19:27:10.154Z</time>
      </trkpt>
      <trkpt lat="64.30646" lon="10.50982">
        <ele>15.226386</ele>
        <time>2020-07-15T19:27:23.272Z</time>
      </trkpt>
      <trkpt lat="64.30637" lon="10.51141">
        <ele>18.362532</ele>
        <time>2020-07-15T19:27:49.157Z</time>
      </trkpt>
      <trkpt lat="64.30623" lon="10.51216">
        <ele>20.038159</ele>
        <time>2020-07-15T19:28:02.211Z</time>
      </trkpt>
      <trkpt lat="64.30607" lon="10.51268">
        <ele>21.335137</ele>
        <time>2020-07-15T19:28:11.816Z</time>
      </trkpt>
      <trkpt lat="64.30598" lon="10.51292">
        <ele>22.006175</ele>
        <time>2020-07-15T19:28:17.692Z</time>
      </trkpt>
      <trkpt lat="64.30592" lon="10.51305">
        <ele>22.373784</ele>
        <time>2020-07-15T19:28:19.969Z</time>
      </trkpt>
      <trkpt lat="64.30562" lon="10.51356">
        <ele>24.124092</ele>
        <time>2020-07-15T19:28:30.528Z</time>
      </trkpt>
      <trkpt lat="64.30519" lon="10.51393">
        <ele>23.760498</ele>
        <time>2020-07-15T19:28:39.237Z</time>
      </trkpt>
      <trkpt lat="64.30476" lon="10.51405">
        <ele>23.188355</ele>
        <time>2020-07-15T19:28:46.293Z</time>
      </trkpt>
      <trkpt lat="64.30417" lon="10.51397">
        <ele>22.414989</ele>
        <time>2020-07-15T19:28:54.311Z</time>
      </trkpt>
      <trkpt lat="64.304" lon="10.5139">
        <ele>22.193123</ele>
        <time>2020-07-15T19:28:56.374Z</time>
      </trkpt>
      <trkpt lat="64.30386" lon="10.51383">
        <ele>22.005706</ele>
        <time>2020-07-15T19:28:58.303Z</time>
      </trkpt>
      <trkpt lat="64.30374" lon="10.51378">
        <ele>21.701955</ele>
        <time>2020-07-15T19:28:59.760Z</time>
      </trkpt>
      <trkpt lat="64.3024" lon="10.51307">
        <ele>17.519082</ele>
        <time>2020-07-15T19:29:17.347Z</time>
      </trkpt>
      <trkpt lat="64.30167" lon="10.51267">
        <ele>16.30724</ele>
        <time>2020-07-15T19:29:28.810Z</time>
      </trkpt>
      <trkpt lat="64.3005" lon="10.51207">
        <ele>15.789902</ele>
        <time>2020-07-15T19:29:49.775Z</time>
      </trkpt>
      <trkpt lat="64.29974" lon="10.5114">
        <ele>14.993699</ele>
        <time>2020-07-15T19:30:05.186Z</time>
      </trkpt>
      <trkpt lat="64.29936" lon="10.51122">
        <ele>14.554872</ele>
        <time>2020-07-15T19:30:11.448Z</time>
      </trkpt>
      <trkpt lat="64.29932" lon="10.51122">
        <ele>14.513898</ele>
        <time>2020-07-15T19:30:11.949Z</time>
      </trkpt>
      <trkpt lat="64.29927" lon="10.51122">
        <ele>14.459281</ele>
        <time>2020-07-15T19:30:12.553Z</time>
      </trkpt>
      <trkpt lat="64.29879" lon="10.51134">
        <ele>13.901009</ele>
        <time>2020-07-15T19:30:19.461Z</time>
      </trkpt>
      <trkpt lat="64.29864" lon="10.51141">
        <ele>13.728242</ele>
        <time>2020-07-15T19:30:21.504Z</time>
      </trkpt>
      <trkpt lat="64.29857" lon="10.51143">
        <ele>13.65032</ele>
        <time>2020-07-15T19:30:22.269Z</time>
      </trkpt>
      <trkpt lat="64.29817" lon="10.51132">
        <ele>12.868413</ele>
        <time>2020-07-15T19:30:27.810Z</time>
      </trkpt>
      <trkpt lat="64.29778" lon="10.5107">
        <ele>11.975232</ele>
        <time>2020-07-15T19:30:34.277Z</time>
      </trkpt>
      <trkpt lat="64.29766" lon="10.51057">
        <ele>11.722235</ele>
        <time>2020-07-15T19:30:36.155Z</time>
      </trkpt>
      <trkpt lat="64.29759" lon="10.51051">
        <ele>11.574788</ele>
        <time>2020-07-15T19:30:37.077Z</time>
      </trkpt>
      <trkpt lat="64.29755" lon="10.51049">
        <ele>11.502276</ele>
        <time>2020-07-15T19:30:37.635Z</time>
      </trkpt>
      <trkpt lat="64.29751" lon="10.51048">
        <ele>11.422243</ele>
        <time>2020-07-15T19:30:38.271Z</time>
      </trkpt>
      <trkpt lat="64.29748" lon="10.51048">
        <ele>11.361341</ele>
        <time>2020-07-15T19:30:38.755Z</time>
      </trkpt>
      <trkpt lat="64.29724" lon="10.5107">
        <ele>10.882205</ele>
        <time>2020-07-15T19:30:42.181Z</time>
      </trkpt>
      <trkpt lat="64.29695" lon="10.51125">
        <ele>10.362455</ele>
        <time>2020-07-15T19:30:47.976Z</time>
      </trkpt>
      <trkpt lat="64.29671" lon="10.51183">
        <ele>11.542722</ele>
        <time>2020-07-15T19:30:55.759Z</time>
      </trkpt>
      <trkpt lat="64.29665" lon="10.51199">
        <ele>11.850549</ele>
        <time>2020-07-15T19:30:57.470Z</time>
      </trkpt>
      <trkpt lat="64.29655" lon="10.51229">
        <ele>12.391211</ele>
        <time>2020-07-15T19:31:01.340Z</time>
      </trkpt>
      <trkpt lat="64.29617" lon="10.51368">
        <ele>14.769532</ele>
        <time>2020-07-15T19:31:23.295Z</time>
      </trkpt>
      <trkpt lat="64.29599" lon="10.51413">
        <ele>15.645344</ele>
        <time>2020-07-15T19:31:31.800Z</time>
      </trkpt>
      <trkpt lat="64.2959" lon="10.51429">
        <ele>16.019951</ele>
        <time>2020-07-15T19:31:36.181Z</time>
      </trkpt>
      <trkpt lat="64.29586" lon="10.51436">
        <ele>16.193464</ele>
        <time>2020-07-15T19:31:38.998Z</time>
      </trkpt>
      <trkpt lat="64.29465" lon="10.5158">
        <ele>26.289049</ele>
        <time>2020-07-15T19:32:36.506Z</time>
      </trkpt>
      <trkpt lat="64.29445" lon="10.51613">
        <ele>28.073774</ele>
        <time>2020-07-15T19:32:47.303Z</time>
      </trkpt>
      <trkpt lat="64.29433" lon="10.51635">
        <ele>29.243625</ele>
        <time>2020-07-15T19:32:54.890Z</time>
      </trkpt>
      <trkpt lat="64.29365" lon="10.51761">
        <ele>34.510303</ele>
        <time>2020-07-15T19:33:29.661Z</time>
      </trkpt>
      <trkpt lat="64.29357" lon="10.51778">
        <ele>35.156475</ele>
        <time>2020-07-15T19:33:34.122Z</time>
      </trkpt>
      <trkpt lat="64.29349" lon="10.51793">
        <ele>35.759594</ele>
        <time>2020-07-15T19:33:38.528Z</time>
      </trkpt>
      <trkpt lat="64.29328" lon="10.51849">
        <ele>37.664336</ele>
        <time>2020-07-15T19:33:49.809Z</time>
      </trkpt>
      <trkpt lat="64.29322" lon="10.51871">
        <ele>38.348483</ele>
        <time>2020-07-15T19:33:53.673Z</time>
      </trkpt>
      <trkpt lat="64.29313" lon="10.51903">
        <ele>39.321639</ele>
        <time>2020-07-15T19:33:57.998Z</time>
      </trkpt>
      <trkpt lat="64.29291" lon="10.52021">
        <ele>40.977788</ele>
        <time>2020-07-15T19:34:14.147Z</time>
      </trkpt>
      <trkpt lat="64.29283" lon="10.52067">
        <ele>41.345094</ele>
        <time>2020-07-15T19:34:19.859Z</time>
      </trkpt>
      <trkpt lat="64.29281" lon="10.52081">
        <ele>41.453987</ele>
        <time>2020-07-15T19:34:21.953Z</time>
      </trkpt>
      <trkpt lat="64.29265" lon="10.5218">
        <ele>42.230102</ele>
        <time>2020-07-15T19:34:31.969Z</time>
      </trkpt>
      <trkpt lat="64.29262" lon="10.52197">
        <ele>42.364963</ele>
        <time>2020-07-15T19:34:33.375Z</time>
      </trkpt>
      <trkpt lat="64.29227" lon="10.52423">
        <ele>43.107022</ele>
        <time>2020-07-15T19:34:52.637Z</time>
      </trkpt>
      <trkpt lat="64.29198" lon="10.52605">
        <ele>42.61599</ele>
        <time>2020-07-15T19:35:06.789Z</time>
      </trkpt>
      <trkpt lat="64.29145" lon="10.52937">
        <ele>39.997231</ele>
        <time>2020-07-15T19:35:29.094Z</time>
      </trkpt>
      <trkpt lat="64.29125" lon="10.53064">
        <ele>38.67024</ele>
        <time>2020-07-15T19:35:36.954Z</time>
      </trkpt>
      <trkpt lat="64.29109" lon="10.53165">
        <ele>36.909677</ele>
        <time>2020-07-15T19:35:42.989Z</time>
      </trkpt>
      <trkpt lat="64.29096" lon="10.53281">
        <ele>34.443756</ele>
        <time>2020-07-15T19:35:49.576Z</time>
      </trkpt>
      <trkpt lat="64.29099" lon="10.53414">
        <ele>31.67205</ele>
        <time>2020-07-15T19:35:56.511Z</time>
      </trkpt>
      <trkpt lat="64.2912" lon="10.53527">
        <ele>29.03609</ele>
        <time>2020-07-15T19:36:02.707Z</time>
      </trkpt>
      <trkpt lat="64.29157" lon="10.53652">
        <ele>25.190277</ele>
        <time>2020-07-15T19:36:10.486Z</time>
      </trkpt>
      <trkpt lat="64.29162" lon="10.53674">
        <ele>24.552455</ele>
        <time>2020-07-15T19:36:11.675Z</time>
      </trkpt>
      <trkpt lat="64.29166" lon="10.5369">
        <ele>24.102695</ele>
        <time>2020-07-15T19:36:12.584Z</time>
      </trkpt>
      <trkpt lat="64.29177" lon="10.53786">
        <ele>21.613735</ele>
        <time>2020-07-15T19:36:17.714Z</time>
      </trkpt>
      <trkpt lat="64.29174" lon="10.53896">
        <ele>19.052503</ele>
        <time>2020-07-15T19:36:23.578Z</time>
      </trkpt>
      <trkpt lat="64.29172" lon="10.53913">
        <ele>18.882597</ele>
        <time>2020-07-15T19:36:24.404Z</time>
      </trkpt>
      <trkpt lat="64.29158" lon="10.54025">
        <ele>17.741672</ele>
        <time>2020-07-15T19:36:30.726Z</time>
      </trkpt>
      <trkpt lat="64.29148" lon="10.54164">
        <ele>16.349665</ele>
        <time>2020-07-15T19:36:40.233Z</time>
      </trkpt>
      <trkpt lat="64.29147" lon="10.54206">
        <ele>15.935684</ele>
        <time>2020-07-15T19:36:43.187Z</time>
      </trkpt>
      <trkpt lat="64.29147" lon="10.54252">
        <ele>15.485559</ele>
        <time>2020-07-15T19:36:46.309Z</time>
      </trkpt>
      <trkpt lat="64.29147" lon="10.54274">
        <ele>15.269373</ele>
        <time>2020-07-15T19:36:47.834Z</time>
      </trkpt>
      <trkpt lat="64.29147" lon="10.54366">
        <ele>15.067465</ele>
        <time>2020-07-15T19:36:54.519Z</time>
      </trkpt>
      <trkpt lat="64.29146" lon="10.54399">
        <ele>15.040557</ele>
        <time>2020-07-15T19:36:56.917Z</time>
      </trkpt>
      <trkpt lat="64.29145" lon="10.54428">
        <ele>15.017047</ele>
        <time>2020-07-15T19:36:59.350Z</time>
      </trkpt>
      <trkpt lat="64.29143" lon="10.54456">
        <ele>14.993823</ele>
        <time>2020-07-15T19:37:01.423Z</time>
      </trkpt>
      <trkpt lat="64.29138" lon="10.54507">
        <ele>14.951406</ele>
        <time>2020-07-15T19:37:05.491Z</time>
      </trkpt>
      <trkpt lat="64.29124" lon="10.54612">
        <ele>14.863083</ele>
        <time>2020-07-15T19:37:13.865Z</time>
      </trkpt>
      <trkpt lat="64.29122" lon="10.54637">
        <ele>14.842293</ele>
        <time>2020-07-15T19:37:15.711Z</time>
      </trkpt>
      <trkpt lat="64.29121" lon="10.54644">
        <ele>14.835706</ele>
        <time>2020-07-15T19:37:16.372Z</time>
      </trkpt>
      <trkpt lat="64.29119" lon="10.54699">
        <ele>14.795617</ele>
        <time>2020-07-15T19:37:20.760Z</time>
      </trkpt>
      <trkpt lat="64.29118" lon="10.5473">
        <ele>14.812466</ele>
        <time>2020-07-15T19:37:23.014Z</time>
      </trkpt>
      <trkpt lat="64.29118" lon="10.54775">
        <ele>14.836884</ele>
        <time>2020-07-15T19:37:26.547Z</time>
      </trkpt>
      <trkpt lat="64.29118" lon="10.54868">
        <ele>14.88718</ele>
        <time>2020-07-15T19:37:33.380Z</time>
      </trkpt>
      <trkpt lat="64.29118" lon="10.54932">
        <ele>14.922154</ele>
        <time>2020-07-15T19:37:38.275Z</time>
      </trkpt>
      <trkpt lat="64.29117" lon="10.5497">
        <ele>14.942412</ele>
        <time>2020-07-15T19:37:41.037Z</time>
      </trkpt>
      <trkpt lat="64.29114" lon="10.55038">
        <ele>14.979496</ele>
        <time>2020-07-15T19:37:46.874Z</time>
      </trkpt>
      <trkpt lat="64.29112" lon="10.5506">
        <ele>14.992064</ele>
        <time>2020-07-15T19:37:48.810Z</time>
      </trkpt>
      <trkpt lat="64.29107" lon="10.55104">
        <ele>15.016409</ele>
        <time>2020-07-15T19:37:52.772Z</time>
      </trkpt>
      <trkpt lat="64.29104" lon="10.55134">
        <ele>15.13905</ele>
        <time>2020-07-15T19:37:55.342Z</time>
      </trkpt>
      <trkpt lat="64.29102" lon="10.5515">
        <ele>15.208251</ele>
        <time>2020-07-15T19:37:57.007Z</time>
      </trkpt>
      <trkpt lat="64.29083" lon="10.55304">
        <ele>15.906816</ele>
        <time>2020-07-15T19:38:11.282Z</time>
      </trkpt>
      <trkpt lat="64.29082" lon="10.5531">
        <ele>15.932157</ele>
        <time>2020-07-15T19:38:12.077Z</time>
      </trkpt>
      <trkpt lat="64.29032" lon="10.55693">
        <ele>17.715165</ele>
        <time>2020-07-15T19:38:49.523Z</time>
      </trkpt>
      <trkpt lat="64.29021" lon="10.55744">
        <ele>17.971627</ele>
        <time>2020-07-15T19:38:54.560Z</time>
      </trkpt>
      <trkpt lat="64.29009" lon="10.55803">
        <ele>18.270813</ele>
        <time>2020-07-15T19:39:00.388Z</time>
      </trkpt>
      <trkpt lat="64.28978" lon="10.55971">
        <ele>19.461858</ele>
        <time>2020-07-15T19:39:17.048Z</time>
      </trkpt>
      <trkpt lat="64.28963" lon="10.56018">
        <ele>19.969227</ele>
        <time>2020-07-15T19:39:22.536Z</time>
      </trkpt>
      <trkpt lat="64.2892" lon="10.56078">
        <ele>20.985346</ele>
        <time>2020-07-15T19:39:34.039Z</time>
      </trkpt>
      <trkpt lat="64.28833" lon="10.56152">
        <ele>23.87396</ele>
        <time>2020-07-15T19:39:59.077Z</time>
      </trkpt>
      <trkpt lat="64.28814" lon="10.56197">
        <ele>25.531724</ele>
        <time>2020-07-15T19:40:07.938Z</time>
      </trkpt>
      <trkpt lat="64.28812" lon="10.56237">
        <ele>26.609233</ele>
        <time>2020-07-15T19:40:14.099Z</time>
      </trkpt>
      <trkpt lat="64.28818" lon="10.56351">
        <ele>29.664039</ele>
        <time>2020-07-15T19:40:33.492Z</time>
      </trkpt>
      <trkpt lat="64.28816" lon="10.56395">
        <ele>30.84275</ele>
        <time>2020-07-15T19:40:41.560Z</time>
      </trkpt>
      <trkpt lat="64.28807" lon="10.56449">
        <ele>32.373639</ele>
        <time>2020-07-15T19:40:52.480Z</time>
      </trkpt>
      <trkpt lat="64.28782" lon="10.56524">
        <ele>35.334319</ele>
        <time>2020-07-15T19:41:11.067Z</time>
      </trkpt>
      <trkpt lat="64.28779" lon="10.56557">
        <ele>36.510748</ele>
        <time>2020-07-15T19:41:17.965Z</time>
      </trkpt>
      <trkpt lat="64.28785" lon="10.5659">
        <ele>37.761197</ele>
        <time>2020-07-15T19:41:25.387Z</time>
      </trkpt>
      <trkpt lat="64.2882" lon="10.5666">
        <ele>41.49401</ele>
        <time>2020-07-15T19:41:47.093Z</time>
      </trkpt>
      <trkpt lat="64.28832" lon="10.5671">
        <ele>43.462605</ele>
        <time>2020-07-15T19:41:58.251Z</time>
      </trkpt>
      <trkpt lat="64.28842" lon="10.56816">
        <ele>47.232921</ele>
        <time>2020-07-15T19:42:18.101Z</time>
      </trkpt>
      <trkpt lat="64.28835" lon="10.56888">
        <ele>48.622715</ele>
        <time>2020-07-15T19:42:30.241Z</time>
      </trkpt>
      <trkpt lat="64.28775" lon="10.56993">
        <ele>51.11809</ele>
        <time>2020-07-15T19:42:53.188Z</time>
      </trkpt>
      <trkpt lat="64.28734" lon="10.57129">
        <ele>53.515966</ele>
        <time>2020-07-15T19:43:09.449Z</time>
      </trkpt>
      <trkpt lat="64.28718" lon="10.57163">
        <ele>53.806819</ele>
        <time>2020-07-15T19:43:13.631Z</time>
      </trkpt>
      <trkpt lat="64.28683" lon="10.57192">
        <ele>53.896712</ele>
        <time>2020-07-15T19:43:20.431Z</time>
      </trkpt>
      <trkpt lat="64.28649" lon="10.572">
        <ele>53.98085</ele>
        <time>2020-07-15T19:43:26.463Z</time>
      </trkpt>
      <trkpt lat="64.28634" lon="10.57199">
        <ele>54.017477</ele>
        <time>2020-07-15T19:43:28.956Z</time>
      </trkpt>
      <trkpt lat="64.28621" lon="10.57196">
        <ele>54.049873</ele>
        <time>2020-07-15T19:43:31.386Z</time>
      </trkpt>
      <trkpt lat="64.28586" lon="10.57202">
        <ele>54.13276</ele>
        <time>2020-07-15T19:43:37.359Z</time>
      </trkpt>
      <trkpt lat="64.28557" lon="10.57228">
        <ele>54.20983</ele>
        <time>2020-07-15T19:43:43.345Z</time>
      </trkpt>
      <trkpt lat="64.28492" lon="10.57315">
        <ele>54.379511</ele>
        <time>2020-07-15T19:43:58.318Z</time>
      </trkpt>
      <trkpt lat="64.28462" lon="10.57367">
        <ele>54.463471</ele>
        <time>2020-07-15T19:44:05.592Z</time>
      </trkpt>
      <trkpt lat="64.28439" lon="10.57414">
        <ele>54.534111</ele>
        <time>2020-07-15T19:44:11.437Z</time>
      </trkpt>
      <trkpt lat="64.28413" lon="10.57471">
        <ele>54.615832</ele>
        <time>2020-07-15T19:44:17.674Z</time>
      </trkpt>
      <trkpt lat="64.28385" lon="10.57518">
        <ele>53.918407</ele>
        <time>2020-07-15T19:44:23.255Z</time>
      </trkpt>
      <trkpt lat="64.28359" lon="10.57531">
        <ele>53.395811</ele>
        <time>2020-07-15T19:44:27.179Z</time>
      </trkpt>
      <trkpt lat="64.28296" lon="10.57534">
        <ele>52.118298</ele>
        <time>2020-07-15T19:44:36.260Z</time>
      </trkpt>
      <trkpt lat="64.28231" lon="10.57517">
        <ele>50.76662</ele>
        <time>2020-07-15T19:44:44.467Z</time>
      </trkpt>
      <trkpt lat="64.28142" lon="10.57538">
        <ele>48.689421</ele>
        <time>2020-07-15T19:44:56.171Z</time>
      </trkpt>
      <trkpt lat="64.28137" lon="10.57538">
        <ele>48.559202</ele>
        <time>2020-07-15T19:44:56.856Z</time>
      </trkpt>
      <trkpt lat="64.2813" lon="10.57538">
        <ele>48.396435</ele>
        <time>2020-07-15T19:44:57.699Z</time>
      </trkpt>
      <trkpt lat="64.28078" lon="10.57528">
        <ele>47.181213</ele>
        <time>2020-07-15T19:45:05.521Z</time>
      </trkpt>
      <trkpt lat="64.28048" lon="10.57551">
        <ele>47.224835</ele>
        <time>2020-07-15T19:45:10.628Z</time>
      </trkpt>
      <trkpt lat="64.27986" lon="10.57648">
        <ele>49.478688</ele>
        <time>2020-07-15T19:45:27.730Z</time>
      </trkpt>
      <trkpt lat="64.27936" lon="10.57777">
        <ele>51.752651</ele>
        <time>2020-07-15T19:45:53.295Z</time>
      </trkpt>
      <trkpt lat="64.27923" lon="10.57826">
        <ele>52.70173</ele>
        <time>2020-07-15T19:46:02.474Z</time>
      </trkpt>
      <trkpt lat="64.27913" lon="10.57896">
        <ele>54.375656</ele>
        <time>2020-07-15T19:46:14.731Z</time>
      </trkpt>
      <trkpt lat="64.27894" lon="10.58286">
        <ele>62.075786</ele>
        <time>2020-07-15T19:47:13.844Z</time>
      </trkpt>
      <trkpt lat="64.27883" lon="10.58392">
        <ele>62.71805</ele>
        <time>2020-07-15T19:47:25.462Z</time>
      </trkpt>
      <trkpt lat="64.27865" lon="10.58464">
        <ele>63.211133</ele>
        <time>2020-07-15T19:47:33.025Z</time>
      </trkpt>
      <trkpt lat="64.27772" lon="10.58731">
        <ele>62.598097</ele>
        <time>2020-07-15T19:47:55.305Z</time>
      </trkpt>
      <trkpt lat="64.27705" lon="10.58926">
        <ele>60.551527</ele>
        <time>2020-07-15T19:48:10.287Z</time>
      </trkpt>
      <trkpt lat="64.2769" lon="10.58973">
        <ele>59.849542</ele>
        <time>2020-07-15T19:48:13.931Z</time>
      </trkpt>
      <trkpt lat="64.27686" lon="10.58986">
        <ele>59.649883</ele>
        <time>2020-07-15T19:48:14.882Z</time>
      </trkpt>
      <trkpt lat="64.27668" lon="10.59054">
        <ele>58.681145</ele>
        <time>2020-07-15T19:48:19.603Z</time>
      </trkpt>
      <trkpt lat="64.27666" lon="10.59062">
        <ele>58.55427</ele>
        <time>2020-07-15T19:48:20.124Z</time>
      </trkpt>
      <trkpt lat="64.27634" lon="10.59173">
        <ele>56.934402</ele>
        <time>2020-07-15T19:48:27.850Z</time>
      </trkpt>
      <trkpt lat="64.276" lon="10.59244">
        <ele>55.545571</ele>
        <time>2020-07-15T19:48:33.902Z</time>
      </trkpt>
      <trkpt lat="64.27558" lon="10.59315">
        <ele>53.264906</ele>
        <time>2020-07-15T19:48:40.436Z</time>
      </trkpt>
      <trkpt lat="64.27546" lon="10.59334">
        <ele>52.642908</ele>
        <time>2020-07-15T19:48:42.206Z</time>
      </trkpt>
      <trkpt lat="64.27505" lon="10.59409">
        <ele>50.371764</ele>
        <time>2020-07-15T19:48:48.669Z</time>
      </trkpt>
      <trkpt lat="64.27493" lon="10.59436">
        <ele>49.634823</ele>
        <time>2020-07-15T19:48:50.734Z</time>
      </trkpt>
      <trkpt lat="64.27485" lon="10.59456">
        <ele>49.123292</ele>
        <time>2020-07-15T19:48:52.152Z</time>
      </trkpt>
      <trkpt lat="64.27308" lon="10.59992">
        <ele>36.667921</ele>
        <time>2020-07-15T19:49:27.996Z</time>
      </trkpt>
      <trkpt lat="64.27296" lon="10.60047">
        <ele>35.775314</ele>
        <time>2020-07-15T19:49:31.565Z</time>
      </trkpt>
      <trkpt lat="64.27289" lon="10.60154">
        <ele>34.203138</ele>
        <time>2020-07-15T19:49:38.078Z</time>
      </trkpt>
      <trkpt lat="64.27276" lon="10.60257">
        <ele>33.473326</ele>
        <time>2020-07-15T19:49:44.908Z</time>
      </trkpt>
      <trkpt lat="64.27252" lon="10.60393">
        <ele>33.273621</ele>
        <time>2020-07-15T19:49:55.247Z</time>
      </trkpt>
      <trkpt lat="64.2725" lon="10.60404">
        <ele>33.257076</ele>
        <time>2020-07-15T19:49:56.101Z</time>
      </trkpt>
      <trkpt lat="64.27228" lon="10.60563">
        <ele>33.03131</ele>
        <time>2020-07-15T19:50:09.592Z</time>
      </trkpt>
      <trkpt lat="64.27223" lon="10.60632">
        <ele>33.289132</ele>
        <time>2020-07-15T19:50:16.068Z</time>
      </trkpt>
      <trkpt lat="64.27222" lon="10.60646">
        <ele>33.384502</ele>
        <time>2020-07-15T19:50:17.357Z</time>
      </trkpt>
      <trkpt lat="64.27211" lon="10.60754">
        <ele>34.111359</ele>
        <time>2020-07-15T19:50:28.195Z</time>
      </trkpt>
      <trkpt lat="64.27207" lon="10.60783">
        <ele>34.312753</ele>
        <time>2020-07-15T19:50:31.147Z</time>
      </trkpt>
      <trkpt lat="64.27197" lon="10.60829">
        <ele>34.64828</ele>
        <time>2020-07-15T19:50:36.357Z</time>
      </trkpt>
      <trkpt lat="64.2719" lon="10.60858">
        <ele>34.868963</ele>
        <time>2020-07-15T19:50:39.635Z</time>
      </trkpt>
      <trkpt lat="64.27178" lon="10.60899">
        <ele>35.202487</ele>
        <time>2020-07-15T19:50:44.995Z</time>
      </trkpt>
      <trkpt lat="64.27145" lon="10.60969">
        <ele>35.926463</ele>
        <time>2020-07-15T19:50:55.505Z</time>
      </trkpt>
      <trkpt lat="64.27132" lon="10.60993">
        <ele>36.26696</ele>
        <time>2020-07-15T19:50:59.884Z</time>
      </trkpt>
      <trkpt lat="64.27104" lon="10.61036">
        <ele>36.955664</ele>
        <time>2020-07-15T19:51:08.237Z</time>
      </trkpt>
      <trkpt lat="64.27086" lon="10.61061">
        <ele>37.386811</ele>
        <time>2020-07-15T19:51:13.289Z</time>
      </trkpt>
      <trkpt lat="64.27072" lon="10.61081">
        <ele>37.737809</ele>
        <time>2020-07-15T19:51:17.976Z</time>
      </trkpt>
      <trkpt lat="64.27068" lon="10.61085">
        <ele>37.809824</ele>
        <time>2020-07-15T19:51:18.929Z</time>
      </trkpt>
      <trkpt lat="64.26993" lon="10.61169">
        <ele>39.464489</ele>
        <time>2020-07-15T19:51:38.925Z</time>
      </trkpt>
      <trkpt lat="64.26926" lon="10.61224">
        <ele>40.1209</ele>
        <time>2020-07-15T19:51:55.001Z</time>
      </trkpt>
      <trkpt lat="64.26679" lon="10.61257">
        <ele>40.792068</ele>
        <time>2020-07-15T19:52:42.220Z</time>
      </trkpt>
      <trkpt lat="64.26643" lon="10.61283">
        <ele>40.670341</ele>
        <time>2020-07-15T19:52:47.800Z</time>
      </trkpt>
      <trkpt lat="64.26629" lon="10.61301">
        <ele>40.350611</ele>
        <time>2020-07-15T19:52:49.851Z</time>
      </trkpt>
      <trkpt lat="64.26614" lon="10.61325">
        <ele>39.963153</ele>
        <time>2020-07-15T19:52:52.563Z</time>
      </trkpt>
      <trkpt lat="64.26531" lon="10.61446">
        <ele>37.899073</ele>
        <time>2020-07-15T19:53:05.879Z</time>
      </trkpt>
      <trkpt lat="64.26448" lon="10.61536">
        <ele>36.628005</ele>
        <time>2020-07-15T19:53:18.946Z</time>
      </trkpt>
      <trkpt lat="64.26431" lon="10.61552">
        <ele>36.499632</ele>
        <time>2020-07-15T19:53:21.805Z</time>
      </trkpt>
      <trkpt lat="64.26368" lon="10.61616">
        <ele>36.00313</ele>
        <time>2020-07-15T19:53:33.259Z</time>
      </trkpt>
      <trkpt lat="64.26349" lon="10.61638">
        <ele>35.852488</ele>
        <time>2020-07-15T19:53:36.996Z</time>
      </trkpt>
      <trkpt lat="64.26345" lon="10.61644">
        <ele>35.816996</ele>
        <time>2020-07-15T19:53:37.909Z</time>
      </trkpt>
      <trkpt lat="64.26335" lon="10.61659">
        <ele>35.736061</ele>
        <time>2020-07-15T19:53:39.976Z</time>
      </trkpt>
      <trkpt lat="64.26324" lon="10.61679">
        <ele>35.710083</ele>
        <time>2020-07-15T19:53:42.735Z</time>
      </trkpt>
      <trkpt lat="64.26275" lon="10.61774">
        <ele>36.055452</ele>
        <time>2020-07-15T19:53:55.206Z</time>
      </trkpt>
      <trkpt lat="64.26265" lon="10.61797">
        <ele>36.134927</ele>
        <time>2020-07-15T19:53:58.306Z</time>
      </trkpt>
      <trkpt lat="64.26222" lon="10.6191">
        <ele>36.490085</ele>
        <time>2020-07-15T19:54:11.273Z</time>
      </trkpt>
      <trkpt lat="64.26196" lon="10.61938">
        <ele>36.643607</ele>
        <time>2020-07-15T19:54:16.673Z</time>
      </trkpt>
      <trkpt lat="64.26188" lon="10.61943">
        <ele>36.68686</ele>
        <time>2020-07-15T19:54:18.686Z</time>
      </trkpt>
      <trkpt lat="64.26169" lon="10.61954">
        <ele>36.774078</ele>
        <time>2020-07-15T19:54:22.332Z</time>
      </trkpt>
      <trkpt lat="64.26146" lon="10.61999">
        <ele>36.913651</ele>
        <time>2020-07-15T19:54:28.487Z</time>
      </trkpt>
      <trkpt lat="64.26122" lon="10.6209">
        <ele>37.122008</ele>
        <time>2020-07-15T19:54:37.192Z</time>
      </trkpt>
      <trkpt lat="64.26115" lon="10.62132">
        <ele>37.212902</ele>
        <time>2020-07-15T19:54:41.116Z</time>
      </trkpt>
      <trkpt lat="64.26089" lon="10.62289">
        <ele>37.533005</ele>
        <time>2020-07-15T19:54:54.900Z</time>
      </trkpt>
      <trkpt lat="64.26066" lon="10.62384">
        <ele>37.7116</ele>
        <time>2020-07-15T19:55:03.818Z</time>
      </trkpt>
      <trkpt lat="64.26019" lon="10.62508">
        <ele>37.982444</ele>
        <time>2020-07-15T19:55:17.448Z</time>
      </trkpt>
      <trkpt lat="64.25982" lon="10.62623">
        <ele>38.221253</ele>
        <time>2020-07-15T19:55:29.297Z</time>
      </trkpt>
      <trkpt lat="64.25943" lon="10.62824">
        <ele>38.601188</ele>
        <time>2020-07-15T19:55:47.536Z</time>
      </trkpt>
      <trkpt lat="64.25909" lon="10.62869">
        <ele>38.756597</ele>
        <time>2020-07-15T19:55:55.037Z</time>
      </trkpt>
      <trkpt lat="64.25835" lon="10.62922">
        <ele>39.657793</ele>
        <time>2020-07-15T19:56:10.135Z</time>
      </trkpt>
      <trkpt lat="64.25823" lon="10.62925">
        <ele>39.839243</ele>
        <time>2020-07-15T19:56:12.233Z</time>
      </trkpt>
      <trkpt lat="64.25813" lon="10.62925">
        <ele>40.01313</ele>
        <time>2020-07-15T19:56:14.456Z</time>
      </trkpt>
      <trkpt lat="64.2579" lon="10.62914">
        <ele>40.382457</ele>
        <time>2020-07-15T19:56:18.896Z</time>
      </trkpt>
      <trkpt lat="64.25748" lon="10.62856">
        <ele>41.180351</ele>
        <time>2020-07-15T19:56:30.771Z</time>
      </trkpt>
      <trkpt lat="64.25691" lon="10.62811">
        <ele>42.876732</ele>
        <time>2020-07-15T19:56:47.384Z</time>
      </trkpt>
      <trkpt lat="64.25671" lon="10.6281">
        <ele>43.834201</ele>
        <time>2020-07-15T19:56:54.622Z</time>
      </trkpt>
      <trkpt lat="64.25651" lon="10.62828">
        <ele>44.826645</ele>
        <time>2020-07-15T19:57:00.967Z</time>
      </trkpt>
      <trkpt lat="64.25646" lon="10.62836">
        <ele>45.107699</ele>
        <time>2020-07-15T19:57:03.469Z</time>
      </trkpt>
      <trkpt lat="64.25644" lon="10.62839">
        <ele>45.232975</ele>
        <time>2020-07-15T19:57:04.704Z</time>
      </trkpt>
      <trkpt lat="64.2563" lon="10.62874">
        <ele>46.213988</ele>
        <time>2020-07-15T19:57:11.124Z</time>
      </trkpt>
      <trkpt lat="64.25627" lon="10.62883">
        <ele>46.445146</ele>
        <time>2020-07-15T19:57:12.573Z</time>
      </trkpt>
      <trkpt lat="64.25621" lon="10.62905">
        <ele>46.96927</ele>
        <time>2020-07-15T19:57:17.329Z</time>
      </trkpt>
      <trkpt lat="64.2561" lon="10.62953">
        <ele>48.11626</ele>
        <time>2020-07-15T19:57:24.944Z</time>
      </trkpt>
      <trkpt lat="64.25602" lon="10.62984">
        <ele>48.84522</ele>
        <time>2020-07-15T19:57:31.151Z</time>
      </trkpt>
      <trkpt lat="64.25594" lon="10.63011">
        <ele>49.528938</ele>
        <time>2020-07-15T19:57:36.070Z</time>
      </trkpt>
      <trkpt lat="64.25561" lon="10.63078">
        <ele>51.332976</ele>
        <time>2020-07-15T19:57:51.401Z</time>
      </trkpt>
      <trkpt lat="64.25457" lon="10.6318">
        <ele>55.636465</ele>
        <time>2020-07-15T19:58:28.358Z</time>
      </trkpt>
      <trkpt lat="64.25362" lon="10.6331">
        <ele>56.846015</ele>
        <time>2020-07-15T19:58:51.159Z</time>
      </trkpt>
      <trkpt lat="64.25321" lon="10.63338">
        <ele>56.677121</ele>
        <time>2020-07-15T19:58:57.621Z</time>
      </trkpt>
      <trkpt lat="64.25254" lon="10.63355">
        <ele>56.399404</ele>
        <time>2020-07-15T19:59:07.325Z</time>
      </trkpt>
      <trkpt lat="64.25234" lon="10.63356">
        <ele>56.136654</ele>
        <time>2020-07-15T19:59:10.018Z</time>
      </trkpt>
      <trkpt lat="64.25215" lon="10.63355">
        <ele>55.892076</ele>
        <time>2020-07-15T19:59:13.084Z</time>
      </trkpt>
      <trkpt lat="64.25201" lon="10.63352">
        <ele>55.700303</ele>
        <time>2020-07-15T19:59:15.001Z</time>
      </trkpt>
      <trkpt lat="64.25141" lon="10.63341">
        <ele>54.926595</ele>
        <time>2020-07-15T19:59:24.105Z</time>
      </trkpt>
      <trkpt lat="64.2513" lon="10.63342">
        <ele>54.772993</ele>
        <time>2020-07-15T19:59:25.663Z</time>
      </trkpt>
      <trkpt lat="64.25116" lon="10.63348">
        <ele>54.590862</ele>
        <time>2020-07-15T19:59:28.230Z</time>
      </trkpt>
      <trkpt lat="64.25097" lon="10.63359">
        <ele>54.337064</ele>
        <time>2020-07-15T19:59:31.012Z</time>
      </trkpt>
      <trkpt lat="64.24984" lon="10.63442">
        <ele>54.230766</ele>
        <time>2020-07-15T19:59:51.781Z</time>
      </trkpt>
      <trkpt lat="64.24945" lon="10.6347">
        <ele>54.295204</ele>
        <time>2020-07-15T19:59:59.959Z</time>
      </trkpt>
      <trkpt lat="64.24921" lon="10.63489">
        <ele>54.33573</ele>
        <time>2020-07-15T20:00:05.096Z</time>
      </trkpt>
      <trkpt lat="64.24913" lon="10.63498">
        <ele>54.350197</ele>
        <time>2020-07-15T20:00:06.865Z</time>
      </trkpt>
      <trkpt lat="64.24906" lon="10.63506">
        <ele>54.366663</ele>
        <time>2020-07-15T20:00:08.313Z</time>
      </trkpt>
      <trkpt lat="64.24881" lon="10.63552">
        <ele>54.567552</ele>
        <time>2020-07-15T20:00:14.698Z</time>
      </trkpt>
      <trkpt lat="64.24828" lon="10.63693">
        <ele>55.067981</ele>
        <time>2020-07-15T20:00:30.519Z</time>
      </trkpt>
      <trkpt lat="64.2479" lon="10.6378">
        <ele>55.404116</ele>
        <time>2020-07-15T20:00:41.406Z</time>
      </trkpt>
      <trkpt lat="64.24666" lon="10.64009">
        <ele>56.439671</ele>
        <time>2020-07-15T20:01:13.413Z</time>
      </trkpt>
      <trkpt lat="64.24625" lon="10.64065">
        <ele>56.729678</ele>
        <time>2020-07-15T20:01:22.565Z</time>
      </trkpt>
      <trkpt lat="64.24536" lon="10.64136">
        <ele>57.241197</ele>
        <time>2020-07-15T20:01:40.756Z</time>
      </trkpt>
      <trkpt lat="64.24529" lon="10.64142">
        <ele>57.281179</ele>
        <time>2020-07-15T20:01:42.188Z</time>
      </trkpt>
      <trkpt lat="64.24525" lon="10.64146">
        <ele>57.302345</ele>
        <time>2020-07-15T20:01:42.937Z</time>
      </trkpt>
      <trkpt lat="64.24493" lon="10.6418">
        <ele>57.495459</ele>
        <time>2020-07-15T20:01:49.819Z</time>
      </trkpt>
      <trkpt lat="64.24485" lon="10.64187">
        <ele>57.537981</ele>
        <time>2020-07-15T20:01:51.325Z</time>
      </trkpt>
      <trkpt lat="64.24389" lon="10.64287">
        <ele>58.89986</ele>
        <time>2020-07-15T20:02:13.474Z</time>
      </trkpt>
      <trkpt lat="64.2428" lon="10.64404">
        <ele>60.769698</ele>
        <time>2020-07-15T20:02:42.439Z</time>
      </trkpt>
      <trkpt lat="64.24262" lon="10.64424">
        <ele>61.161957</ele>
        <time>2020-07-15T20:02:47.889Z</time>
      </trkpt>
      <trkpt lat="64.2407" lon="10.64629">
        <ele>64.426358</ele>
        <time>2020-07-15T20:03:38.049Z</time>
      </trkpt>
      <trkpt lat="64.24051" lon="10.64643">
        <ele>64.614659</ele>
        <time>2020-07-15T20:03:42.006Z</time>
      </trkpt>
      <trkpt lat="64.24039" lon="10.64653">
        <ele>64.726793</ele>
        <time>2020-07-15T20:03:44.423Z</time>
      </trkpt>
      <trkpt lat="64.24016" lon="10.64689">
        <ele>64.978849</ele>
        <time>2020-07-15T20:03:49.541Z</time>
      </trkpt>
      <trkpt lat="64.23994" lon="10.64779">
        <ele>65.302642</ele>
        <time>2020-07-15T20:03:57.627Z</time>
      </trkpt>
      <trkpt lat="64.23988" lon="10.64799">
        <ele>65.287548</ele>
        <time>2020-07-15T20:03:59.343Z</time>
      </trkpt>
      <trkpt lat="64.23984" lon="10.6481">
        <ele>65.278118</ele>
        <time>2020-07-15T20:04:00.373Z</time>
      </trkpt>
      <trkpt lat="64.23953" lon="10.64893">
        <ele>65.206901</ele>
        <time>2020-07-15T20:04:08.264Z</time>
      </trkpt>
      <trkpt lat="64.23941" lon="10.64948">
        <ele>65.167158</ele>
        <time>2020-07-15T20:04:12.585Z</time>
      </trkpt>
      <trkpt lat="64.23937" lon="10.65011">
        <ele>65.125908</ele>
        <time>2020-07-15T20:04:17.489Z</time>
      </trkpt>
      <trkpt lat="64.23938" lon="10.65134">
        <ele>65.047507</ele>
        <time>2020-07-15T20:04:26.926Z</time>
      </trkpt>
      <trkpt lat="64.23941" lon="10.65204">
        <ele>65.138717</ele>
        <time>2020-07-15T20:04:32.591Z</time>
      </trkpt>
      <trkpt lat="64.23943" lon="10.65286">
        <ele>65.247213</ele>
        <time>2020-07-15T20:04:39.899Z</time>
      </trkpt>
      <trkpt lat="64.23945" lon="10.6533">
        <ele>65.304155</ele>
        <time>2020-07-15T20:04:43.443Z</time>
      </trkpt>
      <trkpt lat="64.23943" lon="10.65464">
        <ele>65.47872</ele>
        <time>2020-07-15T20:04:54.825Z</time>
      </trkpt>
      <trkpt lat="64.23926" lon="10.6557">
        <ele>65.5921</ele>
        <time>2020-07-15T20:05:03.667Z</time>
      </trkpt>
      <trkpt lat="64.23915" lon="10.65612">
        <ele>65.599691</ele>
        <time>2020-07-15T20:05:07.680Z</time>
      </trkpt>
      <trkpt lat="64.23909" lon="10.65636">
        <ele>65.6041</ele>
        <time>2020-07-15T20:05:09.638Z</time>
      </trkpt>
      <trkpt lat="64.23884" lon="10.65698">
        <ele>65.617287</ele>
        <time>2020-07-15T20:05:16.188Z</time>
      </trkpt>
      <trkpt lat="64.23854" lon="10.65744">
        <ele>65.630197</ele>
        <time>2020-07-15T20:05:22.595Z</time>
      </trkpt>
      <trkpt lat="64.23788" lon="10.65839">
        <ele>65.776388</ele>
        <time>2020-07-15T20:05:36.430Z</time>
      </trkpt>
      <trkpt lat="64.23778" lon="10.65855">
        <ele>65.86646</ele>
        <time>2020-07-15T20:05:38.877Z</time>
      </trkpt>
      <trkpt lat="64.23754" lon="10.6591">
        <ele>66.104195</ele>
        <time>2020-07-15T20:05:44.929Z</time>
      </trkpt>
      <trkpt lat="64.23751" lon="10.65971">
        <ele>66.295681</ele>
        <time>2020-07-15T20:05:50.164Z</time>
      </trkpt>
      <trkpt lat="64.2379" lon="10.66165">
        <ele>66.975288</ele>
        <time>2020-07-15T20:06:10.207Z</time>
      </trkpt>
      <trkpt lat="64.23805" lon="10.66224">
        <ele>67.349768</ele>
        <time>2020-07-15T20:06:16.797Z</time>
      </trkpt>
      <trkpt lat="64.23812" lon="10.66239">
        <ele>67.468355</ele>
        <time>2020-07-15T20:06:19.074Z</time>
      </trkpt>
      <trkpt lat="64.23818" lon="10.66252">
        <ele>67.576449</ele>
        <time>2020-07-15T20:06:20.865Z</time>
      </trkpt>
      <trkpt lat="64.2388" lon="10.66358">
        <ele>68.533645</ele>
        <time>2020-07-15T20:06:37.702Z</time>
      </trkpt>
      <trkpt lat="64.23883" lon="10.66368">
        <ele>68.602483</ele>
        <time>2020-07-15T20:06:38.878Z</time>
      </trkpt>
      <trkpt lat="64.23889" lon="10.66386">
        <ele>68.720904</ele>
        <time>2020-07-15T20:06:41.133Z</time>
      </trkpt>
      <trkpt lat="64.23899" lon="10.66433">
        <ele>69.007506</ele>
        <time>2020-07-15T20:06:46.002Z</time>
      </trkpt>
      <trkpt lat="64.23906" lon="10.66524">
        <ele>69.428039</ele>
        <time>2020-07-15T20:06:54.749Z</time>
      </trkpt>
      <trkpt lat="64.2391" lon="10.66665">
        <ele>69.998966</ele>
        <time>2020-07-15T20:07:07.544Z</time>
      </trkpt>
      <trkpt lat="64.23916" lon="10.66859">
        <ele>70.786123</ele>
        <time>2020-07-15T20:07:24.815Z</time>
      </trkpt>
      <trkpt lat="64.23925" lon="10.6723">
        <ele>72.052117</ele>
        <time>2020-07-15T20:07:57.912Z</time>
      </trkpt>
      <trkpt lat="64.23926" lon="10.67265">
        <ele>72.170149</ele>
        <time>2020-07-15T20:08:00.850Z</time>
      </trkpt>
      <trkpt lat="64.23925" lon="10.67284">
        <ele>72.235445</ele>
        <time>2020-07-15T20:08:02.811Z</time>
      </trkpt>
      <trkpt lat="64.23914" lon="10.67418">
        <ele>72.388525</ele>
        <time>2020-07-15T20:08:14.145Z</time>
      </trkpt>
      <trkpt lat="64.23914" lon="10.6749">
        <ele>72.460877</ele>
        <time>2020-07-15T20:08:20.082Z</time>
      </trkpt>
      <trkpt lat="64.23923" lon="10.67569">
        <ele>72.541862</ele>
        <time>2020-07-15T20:08:26.653Z</time>
      </trkpt>
      <trkpt lat="64.23943" lon="10.67651">
        <ele>72.635102</ele>
        <time>2020-07-15T20:08:34.010Z</time>
      </trkpt>
      <trkpt lat="64.23946" lon="10.67668">
        <ele>72.653428</ele>
        <time>2020-07-15T20:08:35.321Z</time>
      </trkpt>
      <trkpt lat="64.2396" lon="10.67715">
        <ele>72.6029</ele>
        <time>2020-07-15T20:08:39.475Z</time>
      </trkpt>
      <trkpt lat="64.24006" lon="10.67878">
        <ele>72.238499</ele>
        <time>2020-07-15T20:08:53.557Z</time>
      </trkpt>
      <trkpt lat="64.24015" lon="10.67918">
        <ele>72.155654</ele>
        <time>2020-07-15T20:08:56.704Z</time>
      </trkpt>
      <trkpt lat="64.2402" lon="10.67947">
        <ele>72.096621</ele>
        <time>2020-07-15T20:08:58.941Z</time>
      </trkpt>
      <trkpt lat="64.24061" lon="10.68234">
        <ele>71.804736</ele>
        <time>2020-07-15T20:09:20.775Z</time>
      </trkpt>
      <trkpt lat="64.24096" lon="10.68376">
        <ele>71.725291</ele>
        <time>2020-07-15T20:09:33.640Z</time>
      </trkpt>
      <trkpt lat="64.24099" lon="10.68393">
        <ele>71.716472</ele>
        <time>2020-07-15T20:09:34.908Z</time>
      </trkpt>
      <trkpt lat="64.24103" lon="10.68412">
        <ele>71.706272</ele>
        <time>2020-07-15T20:09:36.595Z</time>
      </trkpt>
      <trkpt lat="64.24112" lon="10.68478">
        <ele>71.855185</ele>
        <time>2020-07-15T20:09:42.228Z</time>
      </trkpt>
      <trkpt lat="64.24114" lon="10.68492">
        <ele>71.897679</ele>
        <time>2020-07-15T20:09:43.574Z</time>
      </trkpt>
      <trkpt lat="64.24117" lon="10.68521">
        <ele>71.983942</ele>
        <time>2020-07-15T20:09:46.444Z</time>
      </trkpt>
      <trkpt lat="64.24138" lon="10.68663">
        <ele>72.41595</ele>
        <time>2020-07-15T20:09:59.363Z</time>
      </trkpt>
      <trkpt lat="64.24162" lon="10.68795">
        <ele>72.829372</ele>
        <time>2020-07-15T20:10:12.047Z</time>
      </trkpt>
      <trkpt lat="64.24165" lon="10.68808">
        <ele>72.869775</ele>
        <time>2020-07-15T20:10:13.611Z</time>
      </trkpt>
      <trkpt lat="64.24166" lon="10.68815">
        <ele>72.889854</ele>
        <time>2020-07-15T20:10:14.263Z</time>
      </trkpt>
      <trkpt lat="64.24178" lon="10.68912">
        <ele>73.242087</ele>
        <time>2020-07-15T20:10:23.345Z</time>
      </trkpt>
      <trkpt lat="64.24186" lon="10.69024">
        <ele>73.64002</ele>
        <time>2020-07-15T20:10:33.361Z</time>
      </trkpt>
      <trkpt lat="64.24198" lon="10.69493">
        <ele>75.129541</ele>
        <time>2020-07-15T20:11:14.722Z</time>
      </trkpt>
      <trkpt lat="64.24203" lon="10.69728">
        <ele>75.736787</ele>
        <time>2020-07-15T20:11:34.776Z</time>
      </trkpt>
      <trkpt lat="64.24207" lon="10.69902">
        <ele>76.093254</ele>
        <time>2020-07-15T20:11:49.262Z</time>
      </trkpt>
      <trkpt lat="64.24211" lon="10.70112">
        <ele>76.576582</ele>
        <time>2020-07-15T20:12:06.964Z</time>
      </trkpt>
      <trkpt lat="64.24212" lon="10.7016">
        <ele>76.715297</ele>
        <time>2020-07-15T20:12:11.055Z</time>
      </trkpt>
      <trkpt lat="64.24213" lon="10.70185">
        <ele>76.785714</ele>
        <time>2020-07-15T20:12:13.061Z</time>
      </trkpt>
      <trkpt lat="64.24213" lon="10.70215">
        <ele>76.873411</ele>
        <time>2020-07-15T20:12:15.762Z</time>
      </trkpt>
      <trkpt lat="64.24218" lon="10.70434">
        <ele>77.504951</ele>
        <time>2020-07-15T20:12:34.803Z</time>
      </trkpt>
      <trkpt lat="64.24222" lon="10.7062">
        <ele>78.405235</ele>
        <time>2020-07-15T20:12:52.015Z</time>
      </trkpt>
      <trkpt lat="64.24263" lon="10.71249">
        <ele>82.319834</ele>
        <time>2020-07-15T20:13:53.316Z</time>
      </trkpt>
      <trkpt lat="64.24262" lon="10.71344">
        <ele>83.327809</ele>
        <time>2020-07-15T20:14:03.940Z</time>
      </trkpt>
      <trkpt lat="64.24252" lon="10.71454">
        <ele>84.744083</ele>
        <time>2020-07-15T20:14:16.894Z</time>
      </trkpt>
      <trkpt lat="64.24179" lon="10.71825">
        <ele>90.319151</ele>
        <time>2020-07-15T20:15:07.379Z</time>
      </trkpt>
      <trkpt lat="64.24146" lon="10.71961">
        <ele>92.68089</ele>
        <time>2020-07-15T20:15:27.097Z</time>
      </trkpt>
      <trkpt lat="64.24116" lon="10.72025">
        <ele>94.119955</ele>
        <time>2020-07-15T20:15:39.171Z</time>
      </trkpt>
      <trkpt lat="64.24024" lon="10.72188">
        <ele>98.352874</ele>
        <time>2020-07-15T20:16:13.758Z</time>
      </trkpt>
      <trkpt lat="64.23934" lon="10.72313">
        <ele>101.837355</ele>
        <time>2020-07-15T20:16:44.546Z</time>
      </trkpt>
      <trkpt lat="64.23912" lon="10.72374">
        <ele>102.832106</ele>
        <time>2020-07-15T20:16:54.478Z</time>
      </trkpt>
      <trkpt lat="64.23898" lon="10.72464">
        <ele>104.015097</ele>
        <time>2020-07-15T20:17:05.764Z</time>
      </trkpt>
      <trkpt lat="64.23896" lon="10.72562">
        <ele>105.229063</ele>
        <time>2020-07-15T20:17:16.673Z</time>
      </trkpt>
      <trkpt lat="64.23885" lon="10.72693">
        <ele>106.254071</ele>
        <time>2020-07-15T20:17:30.423Z</time>
      </trkpt>
      <trkpt lat="64.23879" lon="10.72841">
        <ele>107.064074</ele>
        <time>2020-07-15T20:17:44.432Z</time>
      </trkpt>
      <trkpt lat="64.23858" lon="10.72997">
        <ele>107.956089</ele>
        <time>2020-07-15T20:17:59.137Z</time>
      </trkpt>
      <trkpt lat="64.23852" lon="10.73079">
        <ele>108.269764</ele>
        <time>2020-07-15T20:18:06.440Z</time>
      </trkpt>
      <trkpt lat="64.23859" lon="10.73149">
        <ele>108.518166</ele>
        <time>2020-07-15T20:18:12.648Z</time>
      </trkpt>
      <trkpt lat="64.23892" lon="10.73255">
        <ele>108.973507</ele>
        <time>2020-07-15T20:18:24.163Z</time>
      </trkpt>
      <trkpt lat="64.23922" lon="10.73401">
        <ele>109.546462</ele>
        <time>2020-07-15T20:18:38.613Z</time>
      </trkpt>
      <trkpt lat="64.23944" lon="10.73436">
        <ele>109.794324</ele>
        <time>2020-07-15T20:18:44.241Z</time>
      </trkpt>
      <trkpt lat="64.24003" lon="10.73478">
        <ele>110.359317</ele>
        <time>2020-07-15T20:18:57.175Z</time>
      </trkpt>
      <trkpt lat="64.2405" lon="10.73551">
        <ele>110.882654</ele>
        <time>2020-07-15T20:19:08.918Z</time>
      </trkpt>
      <trkpt lat="64.24086" lon="10.73658">
        <ele>111.430316</ele>
        <time>2020-07-15T20:19:20.986Z</time>
      </trkpt>
      <trkpt lat="64.24107" lon="10.73801">
        <ele>112.042206</ele>
        <time>2020-07-15T20:19:34.524Z</time>
      </trkpt>
      <trkpt lat="64.2411" lon="10.73859">
        <ele>112.279921</ele>
        <time>2020-07-15T20:19:39.832Z</time>
      </trkpt>
      <trkpt lat="64.24105" lon="10.73909">
        <ele>112.488006</ele>
        <time>2020-07-15T20:19:44.529Z</time>
      </trkpt>
      <trkpt lat="64.24062" lon="10.74053">
        <ele>113.296582</ele>
        <time>2020-07-15T20:20:00.459Z</time>
      </trkpt>
      <trkpt lat="64.24052" lon="10.74113">
        <ele>113.627994</ele>
        <time>2020-07-15T20:20:06.518Z</time>
      </trkpt>
      <trkpt lat="64.24029" lon="10.74341">
        <ele>114.819228</ele>
        <time>2020-07-15T20:20:28.880Z</time>
      </trkpt>
      <trkpt lat="64.24018" lon="10.74495">
        <ele>115.708873</ele>
        <time>2020-07-15T20:20:43.740Z</time>
      </trkpt>
      <trkpt lat="64.24019" lon="10.74569">
        <ele>116.141958</ele>
        <time>2020-07-15T20:20:50.800Z</time>
      </trkpt>
      <trkpt lat="64.24027" lon="10.74632">
        <ele>116.522889</ele>
        <time>2020-07-15T20:20:56.988Z</time>
      </trkpt>
      <trkpt lat="64.24087" lon="10.7482">
        <ele>118.192531</ele>
        <time>2020-07-15T20:21:19.783Z</time>
      </trkpt>
      <trkpt lat="64.24098" lon="10.74875">
        <ele>118.74157</ele>
        <time>2020-07-15T20:21:25.921Z</time>
      </trkpt>
      <trkpt lat="64.24103" lon="10.74927">
        <ele>119.222016</ele>
        <time>2020-07-15T20:21:31.361Z</time>
      </trkpt>
      <trkpt lat="64.24092" lon="10.75483">
        <ele>124.991967</ele>
        <time>2020-07-15T20:22:34.361Z</time>
      </trkpt>
      <trkpt lat="64.24084" lon="10.75576">
        <ele>125.954581</ele>
        <time>2020-07-15T20:22:45.359Z</time>
      </trkpt>
      <trkpt lat="64.24065" lon="10.75705">
        <ele>127.081195</ele>
        <time>2020-07-15T20:23:00.413Z</time>
      </trkpt>
      <trkpt lat="64.24064" lon="10.75743">
        <ele>127.403015</ele>
        <time>2020-07-15T20:23:04.563Z</time>
      </trkpt>
      <trkpt lat="64.24073" lon="10.75812">
        <ele>128.004881</ele>
        <time>2020-07-15T20:23:12.096Z</time>
      </trkpt>
      <trkpt lat="64.24118" lon="10.75998">
        <ele>129.282145</ele>
        <time>2020-07-15T20:23:32.165Z</time>
      </trkpt>
      <trkpt lat="64.24129" lon="10.76081">
        <ele>129.473858</ele>
        <time>2020-07-15T20:23:39.599Z</time>
      </trkpt>
      <trkpt lat="64.24135" lon="10.76184">
        <ele>129.702465</ele>
        <time>2020-07-15T20:23:48.012Z</time>
      </trkpt>
      <trkpt lat="64.24131" lon="10.76552">
        <ele>130.517901</ele>
        <time>2020-07-15T20:24:17.484Z</time>
      </trkpt>
      <trkpt lat="64.24147" lon="10.76702">
        <ele>130.862058</ele>
        <time>2020-07-15T20:24:30.767Z</time>
      </trkpt>
      <trkpt lat="64.24177" lon="10.76838">
        <ele>131.788321</ele>
        <time>2020-07-15T20:24:45.646Z</time>
      </trkpt>
      <trkpt lat="64.24244" lon="10.76957">
        <ele>133.185907</ele>
        <time>2020-07-15T20:25:05.353Z</time>
      </trkpt>
      <trkpt lat="64.24251" lon="10.76972">
        <ele>133.336985</ele>
        <time>2020-07-15T20:25:07.658Z</time>
      </trkpt>
      <trkpt lat="64.24261" lon="10.77001">
        <ele>133.602475</ele>
        <time>2020-07-15T20:25:11.628Z</time>
      </trkpt>
      <trkpt lat="64.24283" lon="10.77102">
        <ele>134.385817</ele>
        <time>2020-07-15T20:25:23.584Z</time>
      </trkpt>
      <trkpt lat="64.24301" lon="10.77234">
        <ele>135.319045</ele>
        <time>2020-07-15T20:25:38.453Z</time>
      </trkpt>
      <trkpt lat="64.24333" lon="10.77495">
        <ele>136.800767</ele>
        <time>2020-07-15T20:26:03.538Z</time>
      </trkpt>
      <trkpt lat="64.24363" lon="10.77742">
        <ele>137.211988</ele>
        <time>2020-07-15T20:26:24.399Z</time>
      </trkpt>
      <trkpt lat="64.24379" lon="10.7795">
        <ele>137.624042</ele>
        <time>2020-07-15T20:26:40.690Z</time>
      </trkpt>
      <trkpt lat="64.2438" lon="10.7818">
        <ele>138.130112</ele>
        <time>2020-07-15T20:27:00.251Z</time>
      </trkpt>
      <trkpt lat="64.24377" lon="10.78241">
        <ele>138.267714</ele>
        <time>2020-07-15T20:27:05.923Z</time>
      </trkpt>
      <trkpt lat="64.24366" lon="10.78309">
        <ele>138.703101</ele>
        <time>2020-07-15T20:27:12.546Z</time>
      </trkpt>
      <trkpt lat="64.24348" lon="10.78364">
        <ele>139.138141</ele>
        <time>2020-07-15T20:27:19.277Z</time>
      </trkpt>
      <trkpt lat="64.24333" lon="10.7839">
        <ele>139.40442</ele>
        <time>2020-07-15T20:27:23.451Z</time>
      </trkpt>
      <trkpt lat="64.24305" lon="10.78412">
        <ele>139.827182</ele>
        <time>2020-07-15T20:27:30.169Z</time>
      </trkpt>
      <trkpt lat="64.24241" lon="10.78411">
        <ele>140.739564</ele>
        <time>2020-07-15T20:27:44.959Z</time>
      </trkpt>
      <trkpt lat="64.24201" lon="10.78426">
        <ele>141.47018</ele>
        <time>2020-07-15T20:27:54.529Z</time>
      </trkpt>
      <trkpt lat="64.24088" lon="10.78557">
        <ele>143.847881</ele>
        <time>2020-07-15T20:28:24.921Z</time>
      </trkpt>
      <trkpt lat="64.24041" lon="10.78587">
        <ele>144.790777</ele>
        <time>2020-07-15T20:28:36.589Z</time>
      </trkpt>
      <trkpt lat="64.23974" lon="10.78599">
        <ele>146.136129</ele>
        <time>2020-07-15T20:28:52.887Z</time>
      </trkpt>
      <trkpt lat="64.23848" lon="10.78599">
        <ele>148.598992</ele>
        <time>2020-07-15T20:29:23.402Z</time>
      </trkpt>
      <trkpt lat="64.23804" lon="10.78623">
        <ele>149.452079</ele>
        <time>2020-07-15T20:29:34.307Z</time>
      </trkpt>
      <trkpt lat="64.23552" lon="10.78836">
        <ele>154.529047</ele>
        <time>2020-07-15T20:30:37.794Z</time>
      </trkpt>
      <trkpt lat="64.23424" lon="10.79075">
        <ele>158.296865</ele>
        <time>2020-07-15T20:31:19.715Z</time>
      </trkpt>
      <trkpt lat="64.23374" lon="10.79129">
        <ele>159.378898</ele>
        <time>2020-07-15T20:31:33.567Z</time>
      </trkpt>
      <trkpt lat="64.23323" lon="10.79142">
        <ele>160.322402</ele>
        <time>2020-07-15T20:31:46.401Z</time>
      </trkpt>
      <trkpt lat="64.23067" lon="10.79133">
        <ele>164.141348</ele>
        <time>2020-07-15T20:32:43.556Z</time>
      </trkpt>
      <trkpt lat="64.22984" lon="10.7915">
        <ele>165.047858</ele>
        <time>2020-07-15T20:33:00.904Z</time>
      </trkpt>
      <trkpt lat="64.22904" lon="10.79192">
        <ele>165.895343</ele>
        <time>2020-07-15T20:33:18.022Z</time>
      </trkpt>
      <trkpt lat="64.22701" lon="10.79353">
        <ele>168.539601</ele>
        <time>2020-07-15T20:34:04.813Z</time>
      </trkpt>
      <trkpt lat="64.22675" lon="10.79382">
        <ele>168.987751</ele>
        <time>2020-07-15T20:34:11.275Z</time>
      </trkpt>
      <trkpt lat="64.22658" lon="10.79414">
        <ele>169.32686</ele>
        <time>2020-07-15T20:34:16.150Z</time>
      </trkpt>
      <trkpt lat="64.22642" lon="10.79465">
        <ele>169.750762</ele>
        <time>2020-07-15T20:34:22.238Z</time>
      </trkpt>
      <trkpt lat="64.22625" lon="10.79552">
        <ele>170.396855</ele>
        <time>2020-07-15T20:34:31.683Z</time>
      </trkpt>
      <trkpt lat="64.22618" lon="10.79667">
        <ele>171.183779</ele>
        <time>2020-07-15T20:34:43.622Z</time>
      </trkpt>
      <trkpt lat="64.22632" lon="10.79826">
        <ele>172.678988</ele>
        <time>2020-07-15T20:35:00.730Z</time>
      </trkpt>
      <trkpt lat="64.22641" lon="10.79931">
        <ele>173.691447</ele>
        <time>2020-07-15T20:35:12.302Z</time>
      </trkpt>
      <trkpt lat="64.22662" lon="10.8016">
        <ele>175.942421</ele>
        <time>2020-07-15T20:35:38.166Z</time>
      </trkpt>
      <trkpt lat="64.22676" lon="10.80277">
        <ele>177.149481</ele>
        <time>2020-07-15T20:35:51.836Z</time>
      </trkpt>
      <trkpt lat="64.22746" lon="10.80655">
        <ele>180.795734</ele>
        <time>2020-07-15T20:36:35.897Z</time>
      </trkpt>
      <trkpt lat="64.22759" lon="10.80925">
        <ele>182.704139</ele>
        <time>2020-07-15T20:37:02.942Z</time>
      </trkpt>
      <trkpt lat="64.22784" lon="10.81263">
        <ele>184.186768</ele>
        <time>2020-07-15T20:37:33.843Z</time>
      </trkpt>
      <trkpt lat="64.22829" lon="10.81504">
        <ele>184.970397</ele>
        <time>2020-07-15T20:37:56.336Z</time>
      </trkpt>
      <trkpt lat="64.22855" lon="10.81681">
        <ele>185.535739</ele>
        <time>2020-07-15T20:38:12.539Z</time>
      </trkpt>
      <trkpt lat="64.22881" lon="10.81781">
        <ele>186.014693</ele>
        <time>2020-07-15T20:38:22.903Z</time>
      </trkpt>
      <trkpt lat="64.22987" lon="10.82068">
        <ele>187.638866</ele>
        <time>2020-07-15T20:38:57.700Z</time>
      </trkpt>
      <trkpt lat="64.23139" lon="10.8261">
        <ele>191.058624</ele>
        <time>2020-07-15T20:39:58.136Z</time>
      </trkpt>
      <trkpt lat="64.23166" lon="10.82717">
        <ele>191.90095</ele>
        <time>2020-07-15T20:40:10.768Z</time>
      </trkpt>
      <trkpt lat="64.23172" lon="10.82781">
        <ele>192.482218</ele>
        <time>2020-07-15T20:40:17.539Z</time>
      </trkpt>
      <trkpt lat="64.2317" lon="10.82825">
        <ele>192.881291</ele>
        <time>2020-07-15T20:40:22.132Z</time>
      </trkpt>
      <trkpt lat="64.23168" lon="10.82853">
        <ele>193.135023</ele>
        <time>2020-07-15T20:40:25.214Z</time>
      </trkpt>
      <trkpt lat="64.23164" lon="10.82896">
        <ele>193.53099</ele>
        <time>2020-07-15T20:40:29.764Z</time>
      </trkpt>
      <trkpt lat="64.23162" lon="10.82912">
        <ele>193.679885</ele>
        <time>2020-07-15T20:40:31.576Z</time>
      </trkpt>
      <trkpt lat="64.23158" lon="10.82994">
        <ele>194.424007</ele>
        <time>2020-07-15T20:40:40.377Z</time>
      </trkpt>
      <trkpt lat="64.23158" lon="10.83027">
        <ele>194.713382</ele>
        <time>2020-07-15T20:40:43.891Z</time>
      </trkpt>
      <trkpt lat="64.23159" lon="10.83049">
        <ele>194.913911</ele>
        <time>2020-07-15T20:40:46.335Z</time>
      </trkpt>
      <trkpt lat="64.23189" lon="10.83302">
        <ele>197.942785</ele>
        <time>2020-07-15T20:41:16.087Z</time>
      </trkpt>
      <trkpt lat="64.23227" lon="10.83473">
        <ele>200.24398</ele>
        <time>2020-07-15T20:41:38.974Z</time>
      </trkpt>
      <trkpt lat="64.2329" lon="10.83842">
        <ele>205.328067</ele>
        <time>2020-07-15T20:42:27.290Z</time>
      </trkpt>
      <trkpt lat="64.23316" lon="10.84065">
        <ele>206.561693</ele>
        <time>2020-07-15T20:42:50.616Z</time>
      </trkpt>
      <trkpt lat="64.23372" lon="10.84282">
        <ele>207.69299</ele>
        <time>2020-07-15T20:43:10.753Z</time>
      </trkpt>
      <trkpt lat="64.23388" lon="10.845">
        <ele>208.405431</ele>
        <time>2020-07-15T20:43:29.074Z</time>
      </trkpt>
      <trkpt lat="64.23384" lon="10.84615">
        <ele>208.776929</ele>
        <time>2020-07-15T20:43:39.975Z</time>
      </trkpt>
      <trkpt lat="64.23364" lon="10.84731">
        <ele>209.921784</ele>
        <time>2020-07-15T20:43:52.690Z</time>
      </trkpt>
      <trkpt lat="64.2333" lon="10.8483">
        <ele>211.259593</ele>
        <time>2020-07-15T20:44:06.869Z</time>
      </trkpt>
      <trkpt lat="64.23229" lon="10.85054">
        <ele>214.839972</ele>
        <time>2020-07-15T20:44:45.203Z</time>
      </trkpt>
      <trkpt lat="64.23217" lon="10.85094">
        <ele>215.432283</ele>
        <time>2020-07-15T20:44:50.923Z</time>
      </trkpt>
      <trkpt lat="64.23205" lon="10.85166">
        <ele>216.354077</ele>
        <time>2020-07-15T20:44:59.771Z</time>
      </trkpt>
      <trkpt lat="64.23197" lon="10.85226">
        <ele>217.103578</ele>
        <time>2020-07-15T20:45:07.173Z</time>
      </trkpt>
      <trkpt lat="64.23195" lon="10.85249">
        <ele>217.383336</ele>
        <time>2020-07-15T20:45:09.646Z</time>
      </trkpt>
      <trkpt lat="64.23194" lon="10.85252">
        <ele>217.422767</ele>
        <time>2020-07-15T20:45:10.462Z</time>
      </trkpt>
      <trkpt lat="64.23159" lon="10.85432">
        <ele>219.133973</ele>
        <time>2020-07-15T20:45:32.015Z</time>
      </trkpt>
      <trkpt lat="64.23145" lon="10.85599">
        <ele>220.360456</ele>
        <time>2020-07-15T20:45:49.402Z</time>
      </trkpt>
      <trkpt lat="64.23127" lon="10.8571">
        <ele>221.144143</ele>
        <time>2020-07-15T20:45:59.889Z</time>
      </trkpt>
      <trkpt lat="64.23105" lon="10.85785">
        <ele>221.226172</ele>
        <time>2020-07-15T20:46:07.596Z</time>
      </trkpt>
      <trkpt lat="64.23014" lon="10.86005">
        <ele>221.501198</ele>
        <time>2020-07-15T20:46:31.276Z</time>
      </trkpt>
      <trkpt lat="64.22996" lon="10.86074">
        <ele>221.437921</ele>
        <time>2020-07-15T20:46:37.210Z</time>
      </trkpt>
      <trkpt lat="64.22988" lon="10.86137">
        <ele>221.370538</ele>
        <time>2020-07-15T20:46:42.037Z</time>
      </trkpt>
      <trkpt lat="64.23008" lon="10.86755">
        <ele>221.031437</ele>
        <time>2020-07-15T20:47:28.156Z</time>
      </trkpt>
      <trkpt lat="64.23029" lon="10.86921">
        <ele>221.745343</ele>
        <time>2020-07-15T20:47:42.828Z</time>
      </trkpt>
      <trkpt lat="64.23075" lon="10.8718">
        <ele>223.735533</ele>
        <time>2020-07-15T20:48:12.017Z</time>
      </trkpt>
      <trkpt lat="64.23085" lon="10.87298">
        <ele>224.920423</ele>
        <time>2020-07-15T20:48:26.161Z</time>
      </trkpt>
      <trkpt lat="64.23077" lon="10.87428">
        <ele>226.329089</ele>
        <time>2020-07-15T20:48:41.732Z</time>
      </trkpt>
      <trkpt lat="64.23039" lon="10.8771">
        <ele>228.995255</ele>
        <time>2020-07-15T20:49:14.179Z</time>
      </trkpt>
      <trkpt lat="64.23021" lon="10.87902">
        <ele>230.087239</ele>
        <time>2020-07-15T20:49:31.830Z</time>
      </trkpt>
      <trkpt lat="64.23015" lon="10.88098">
        <ele>231.144388</ele>
        <time>2020-07-15T20:49:49.210Z</time>
      </trkpt>
      <trkpt lat="64.2302" lon="10.88279">
        <ele>232.071338</ele>
        <time>2020-07-15T20:50:06.265Z</time>
      </trkpt>
      <trkpt lat="64.23044" lon="10.88495">
        <ele>233.083032</ele>
        <time>2020-07-15T20:50:28.364Z</time>
      </trkpt>
      <trkpt lat="64.23313" lon="10.90294">
        <ele>239.115503</ele>
        <time>2020-07-15T20:53:14.860Z</time>
      </trkpt>
      <trkpt lat="64.23337" lon="10.90387">
        <ele>239.362237</ele>
        <time>2020-07-15T20:53:23.705Z</time>
      </trkpt>
      <trkpt lat="64.2337" lon="10.90476">
        <ele>239.4229</ele>
        <time>2020-07-15T20:53:33.128Z</time>
      </trkpt>
      <trkpt lat="64.23395" lon="10.90524">
        <ele>239.461763</ele>
        <time>2020-07-15T20:53:39.096Z</time>
      </trkpt>
      <trkpt lat="64.23478" lon="10.90653">
        <ele>239.556702</ele>
        <time>2020-07-15T20:53:57.050Z</time>
      </trkpt>
      <trkpt lat="64.2352" lon="10.90751">
        <ele>239.469812</ele>
        <time>2020-07-15T20:54:07.540Z</time>
      </trkpt>
      <trkpt lat="64.23561" lon="10.90903">
        <ele>239.35749</ele>
        <time>2020-07-15T20:54:20.957Z</time>
      </trkpt>
      <trkpt lat="64.23604" lon="10.9117">
        <ele>239.157647</ele>
        <time>2020-07-15T20:54:42.299Z</time>
      </trkpt>
      <trkpt lat="64.23635" lon="10.91368">
        <ele>239.005588</ele>
        <time>2020-07-15T20:54:58.206Z</time>
      </trkpt>
      <trkpt lat="64.23716" lon="10.91879">
        <ele>238.560669</ele>
        <time>2020-07-15T20:55:39.962Z</time>
      </trkpt>
      <trkpt lat="64.23733" lon="10.92013">
        <ele>238.268507</ele>
        <time>2020-07-15T20:55:50.230Z</time>
      </trkpt>
      <trkpt lat="64.23732" lon="10.92155">
        <ele>237.959212</ele>
        <time>2020-07-15T20:56:00.226Z</time>
      </trkpt>
      <trkpt lat="64.23663" lon="10.92671">
        <ele>233.659823</ele>
        <time>2020-07-15T20:56:34.225Z</time>
      </trkpt>
      <trkpt lat="64.23615" lon="10.92995">
        <ele>229.442898</ele>
        <time>2020-07-15T20:56:53.705Z</time>
      </trkpt>
      <trkpt lat="64.23481" lon="10.93597">
        <ele>220.14329</ele>
        <time>2020-07-15T20:57:31.831Z</time>
      </trkpt>
      <trkpt lat="64.23449" lon="10.93786">
        <ele>218.186273</ele>
        <time>2020-07-15T20:57:44.560Z</time>
      </trkpt>
      <trkpt lat="64.23433" lon="10.93914">
        <ele>217.261</ele>
        <time>2020-07-15T20:57:53.316Z</time>
      </trkpt>
      <trkpt lat="64.23413" lon="10.94155">
        <ele>215.121777</ele>
        <time>2020-07-15T20:58:09.222Z</time>
      </trkpt>
      <trkpt lat="64.234" lon="10.94758">
        <ele>205.634125</ele>
        <time>2020-07-15T20:58:43.220Z</time>
      </trkpt>
      <trkpt lat="64.23385" lon="10.94919">
        <ele>202.288168</ele>
        <time>2020-07-15T20:58:51.614Z</time>
      </trkpt>
      <trkpt lat="64.23351" lon="10.95055">
        <ele>197.742484</ele>
        <time>2020-07-15T20:58:59.443Z</time>
      </trkpt>
      <trkpt lat="64.23326" lon="10.95117">
        <ele>195.296958</ele>
        <time>2020-07-15T20:59:03.611Z</time>
      </trkpt>
      <trkpt lat="64.23238" lon="10.95296">
        <ele>188.721449</ele>
        <time>2020-07-15T20:59:17.309Z</time>
      </trkpt>
      <trkpt lat="64.23199" lon="10.95415">
        <ele>186.071216</ele>
        <time>2020-07-15T20:59:25.362Z</time>
      </trkpt>
      <trkpt lat="64.23043" lon="10.96328">
        <ele>176.502954</ele>
        <time>2020-07-15T21:00:26.033Z</time>
      </trkpt>
      <trkpt lat="64.23028" lon="10.96391">
        <ele>176.041444</ele>
        <time>2020-07-15T21:00:30.532Z</time>
      </trkpt>
      <trkpt lat="64.22972" lon="10.96566">
        <ele>174.627428</ele>
        <time>2020-07-15T21:00:44.773Z</time>
      </trkpt>
      <trkpt lat="64.22954" lon="10.96642">
        <ele>174.064991</ele>
        <time>2020-07-15T21:00:50.350Z</time>
      </trkpt>
      <trkpt lat="64.22941" lon="10.96728">
        <ele>173.099359</ele>
        <time>2020-07-15T21:00:56.078Z</time>
      </trkpt>
      <trkpt lat="64.22934" lon="10.96826">
        <ele>171.746537</ele>
        <time>2020-07-15T21:01:02.307Z</time>
      </trkpt>
      <trkpt lat="64.22914" lon="10.97385">
        <ele>161.056504</ele>
        <time>2020-07-15T21:01:32.991Z</time>
      </trkpt>
      <trkpt lat="64.22896" lon="10.97499">
        <ele>158.00071</ele>
        <time>2020-07-15T21:01:38.947Z</time>
      </trkpt>
      <trkpt lat="64.22879" lon="10.97546">
        <ele>155.392764</ele>
        <time>2020-07-15T21:01:41.875Z</time>
      </trkpt>
      <trkpt lat="64.22853" lon="10.9758">
        <ele>152.469018</ele>
        <time>2020-07-15T21:01:45.142Z</time>
      </trkpt>
      <trkpt lat="64.22733" lon="10.9761">
        <ele>140.652125</ele>
        <time>2020-07-15T21:01:58.183Z</time>
      </trkpt>
      <trkpt lat="64.22696" lon="10.97645">
        <ele>138.73914</ele>
        <time>2020-07-15T21:02:02.602Z</time>
      </trkpt>
      <trkpt lat="64.22667" lon="10.97688">
        <ele>137.062641</ele>
        <time>2020-07-15T21:02:06.653Z</time>
      </trkpt>
      <trkpt lat="64.22637" lon="10.97737">
        <ele>135.290193</ele>
        <time>2020-07-15T21:02:11.164Z</time>
      </trkpt>
      <trkpt lat="64.22613" lon="10.97775">
        <ele>133.883395</ele>
        <time>2020-07-15T21:02:15.134Z</time>
      </trkpt>
      <trkpt lat="64.2256" lon="10.97868">
        <ele>132.462212</ele>
        <time>2020-07-15T21:02:25.869Z</time>
      </trkpt>
      <trkpt lat="64.22511" lon="10.97995">
        <ele>133.607131</ele>
        <time>2020-07-15T21:02:44.479Z</time>
      </trkpt>
      <trkpt lat="64.22487" lon="10.98084">
        <ele>134.312686</ele>
        <time>2020-07-15T21:02:57.360Z</time>
      </trkpt>
      <trkpt lat="64.22464" lon="10.98205">
        <ele>134.636004</ele>
        <time>2020-07-15T21:03:10.861Z</time>
      </trkpt>
      <trkpt lat="64.22451" lon="10.98313">
        <ele>134.287628</ele>
        <time>2020-07-15T21:03:20.294Z</time>
      </trkpt>
      <trkpt lat="64.22444" lon="10.98414">
        <ele>133.969218</ele>
        <time>2020-07-15T21:03:27.376Z</time>
      </trkpt>
      <trkpt lat="64.22439" lon="10.98896">
        <ele>129.586144</ele>
        <time>2020-07-15T21:03:55.200Z</time>
      </trkpt>
      <trkpt lat="64.22438" lon="10.99011">
        <ele>128.458044</ele>
        <time>2020-07-15T21:04:02.317Z</time>
      </trkpt>
      <trkpt lat="64.22438" lon="10.99035">
        <ele>128.297543</ele>
        <time>2020-07-15T21:04:03.906Z</time>
      </trkpt>
      <trkpt lat="64.22438" lon="10.9907">
        <ele>128.070627</ele>
        <time>2020-07-15T21:04:05.974Z</time>
      </trkpt>
      <trkpt lat="64.2244" lon="10.99151">
        <ele>127.538022</ele>
        <time>2020-07-15T21:04:11.129Z</time>
      </trkpt>
      <trkpt lat="64.22441" lon="10.99173">
        <ele>127.390324</ele>
        <time>2020-07-15T21:04:12.685Z</time>
      </trkpt>
      <trkpt lat="64.2245" lon="10.99267">
        <ele>126.755586</ele>
        <time>2020-07-15T21:04:18.913Z</time>
      </trkpt>
      <trkpt lat="64.22476" lon="10.99362">
        <ele>126.018886</ele>
        <time>2020-07-15T21:04:26.506Z</time>
      </trkpt>
      <trkpt lat="64.22504" lon="10.99417">
        <ele>125.357019</ele>
        <time>2020-07-15T21:04:32.257Z</time>
      </trkpt>
      <trkpt lat="64.22612" lon="10.99573">
        <ele>123.057505</ele>
        <time>2020-07-15T21:04:50.006Z</time>
      </trkpt>
      <trkpt lat="64.2265" lon="10.99657">
        <ele>122.877831</ele>
        <time>2020-07-15T21:04:57.479Z</time>
      </trkpt>
      <trkpt lat="64.227" lon="10.99789">
        <ele>123.100577</ele>
        <time>2020-07-15T21:05:10.482Z</time>
      </trkpt>
      <trkpt lat="64.22731" lon="10.99908">
        <ele>123.273889</ele>
        <time>2020-07-15T21:05:23.923Z</time>
      </trkpt>
      <trkpt lat="64.22782" lon="11.0017">
        <ele>127.331426</ele>
        <time>2020-07-15T21:06:01.230Z</time>
      </trkpt>
      <trkpt lat="64.22801" lon="11.00331">
        <ele>129.488744</ele>
        <time>2020-07-15T21:06:23.983Z</time>
      </trkpt>
      <trkpt lat="64.22809" lon="11.0057">
        <ele>130.14445</ele>
        <time>2020-07-15T21:06:48.522Z</time>
      </trkpt>
      <trkpt lat="64.22804" lon="11.00686">
        <ele>130.462661</ele>
        <time>2020-07-15T21:06:56.342Z</time>
      </trkpt>
      <trkpt lat="64.22771" lon="11.01077">
        <ele>124.91207</ele>
        <time>2020-07-15T21:07:18.263Z</time>
      </trkpt>
      <trkpt lat="64.22756" lon="11.01348">
        <ele>122.532586</ele>
        <time>2020-07-15T21:07:33.664Z</time>
      </trkpt>
      <trkpt lat="64.22741" lon="11.01723">
        <ele>123.286309</ele>
        <time>2020-07-15T21:08:05.219Z</time>
      </trkpt>
      <trkpt lat="64.22726" lon="11.02128">
        <ele>128.560775</ele>
        <time>2020-07-15T21:09:01.697Z</time>
      </trkpt>
      <trkpt lat="64.2272" lon="11.02279">
        <ele>130.857665</ele>
        <time>2020-07-15T21:09:21.280Z</time>
      </trkpt>
      <trkpt lat="64.22719" lon="11.02316">
        <ele>131.42255</ele>
        <time>2020-07-15T21:09:25.744Z</time>
      </trkpt>
      <trkpt lat="64.22711" lon="11.02508">
        <ele>131.87457</ele>
        <time>2020-07-15T21:09:43.757Z</time>
      </trkpt>
      <trkpt lat="64.22712" lon="11.0264">
        <ele>131.689115</ele>
        <time>2020-07-15T21:09:53.031Z</time>
      </trkpt>
      <trkpt lat="64.22725" lon="11.02769">
        <ele>131.504355</ele>
        <time>2020-07-15T21:10:01.086Z</time>
      </trkpt>
      <trkpt lat="64.22742" lon="11.02856">
        <ele>130.626199</ele>
        <time>2020-07-15T21:10:06.876Z</time>
      </trkpt>
      <trkpt lat="64.22834" lon="11.03127">
        <ele>127.501977</ele>
        <time>2020-07-15T21:10:27.765Z</time>
      </trkpt>
      <trkpt lat="64.23129" lon="11.04191">
        <ele>118.012946</ele>
        <time>2020-07-15T21:11:46.612Z</time>
      </trkpt>
      <trkpt lat="64.23276" lon="11.0477">
        <ele>115.593832</ele>
        <time>2020-07-15T21:12:33.379Z</time>
      </trkpt>
      <trkpt lat="64.23306" lon="11.04849">
        <ele>115.267772</ele>
        <time>2020-07-15T21:12:40.606Z</time>
      </trkpt>
      <trkpt lat="64.23361" lon="11.04958">
        <ele>114.786658</ele>
        <time>2020-07-15T21:12:52.103Z</time>
      </trkpt>
      <trkpt lat="64.2344" lon="11.05104">
        <ele>114.11591</ele>
        <time>2020-07-15T21:13:08.577Z</time>
      </trkpt>
      <trkpt lat="64.23484" lon="11.05184">
        <ele>114.083065</ele>
        <time>2020-07-15T21:13:17.888Z</time>
      </trkpt>
      <trkpt lat="64.23615" lon="11.05406">
        <ele>114.038367</ele>
        <time>2020-07-15T21:13:48.081Z</time>
      </trkpt>
      <trkpt lat="64.23682" lon="11.05572">
        <ele>113.700299</ele>
        <time>2020-07-15T21:14:07.076Z</time>
      </trkpt>
      <trkpt lat="64.23736" lon="11.05789">
        <ele>112.418949</ele>
        <time>2020-07-15T21:14:22.566Z</time>
      </trkpt>
      <trkpt lat="64.23756" lon="11.05824">
        <ele>111.931699</ele>
        <time>2020-07-15T21:14:25.922Z</time>
      </trkpt>
      <trkpt lat="64.23775" lon="11.05832">
        <ele>111.543783</ele>
        <time>2020-07-15T21:14:28.666Z</time>
      </trkpt>
      <trkpt lat="64.23781" lon="11.05832">
        <ele>111.435711</ele>
        <time>2020-07-15T21:14:29.357Z</time>
      </trkpt>
      <trkpt lat="64.23831" lon="11.05821">
        <ele>110.465091</ele>
        <time>2020-07-15T21:14:36.617Z</time>
      </trkpt>
      <trkpt lat="64.23839" lon="11.0582">
        <ele>110.312255</ele>
        <time>2020-07-15T21:14:37.764Z</time>
      </trkpt>
      <trkpt lat="64.23881" lon="11.0581">
        <ele>109.953313</ele>
        <time>2020-07-15T21:14:44.228Z</time>
      </trkpt>
      <trkpt lat="64.23898" lon="11.05807">
        <ele>109.895907</ele>
        <time>2020-07-15T21:14:46.911Z</time>
      </trkpt>
      <trkpt lat="64.23903" lon="11.05807">
        <ele>109.878109</ele>
        <time>2020-07-15T21:14:47.609Z</time>
      </trkpt>
      <trkpt lat="64.2391" lon="11.05807">
        <ele>109.851923</ele>
        <time>2020-07-15T21:14:48.740Z</time>
      </trkpt>
      <trkpt lat="64.23919" lon="11.0581">
        <ele>109.822284</ele>
        <time>2020-07-15T21:14:50.110Z</time>
      </trkpt>
      <trkpt lat="64.23928" lon="11.05814">
        <ele>109.788557</ele>
        <time>2020-07-15T21:14:51.434Z</time>
      </trkpt>
      <trkpt lat="64.23934" lon="11.05817">
        <ele>109.768459</ele>
        <time>2020-07-15T21:14:52.942Z</time>
      </trkpt>
      <trkpt lat="64.23957" lon="11.05838">
        <ele>109.683423</ele>
        <time>2020-07-15T21:14:56.642Z</time>
      </trkpt>
      <trkpt lat="64.23981" lon="11.05876">
        <ele>109.580288</ele>
        <time>2020-07-15T21:15:02.398Z</time>
      </trkpt>
      <trkpt lat="64.24001" lon="11.05923">
        <ele>109.481788</ele>
        <time>2020-07-15T21:15:08.772Z</time>
      </trkpt>
      <trkpt lat="64.24015" lon="11.05981">
        <ele>109.385651</ele>
        <time>2020-07-15T21:15:15.610Z</time>
      </trkpt>
      <trkpt lat="64.24243" lon="11.075">
        <ele>107.050881</ele>
        <time>2020-07-15T21:17:12.374Z</time>
      </trkpt>
      <trkpt lat="64.24343" lon="11.07946">
        <ele>106.128683</ele>
        <time>2020-07-15T21:17:47.995Z</time>
      </trkpt>
      <trkpt lat="64.2437" lon="11.08173">
        <ele>106.350492</ele>
        <time>2020-07-15T21:18:06.922Z</time>
      </trkpt>
      <trkpt lat="64.24389" lon="11.08278">
        <ele>106.472074</ele>
        <time>2020-07-15T21:18:16.974Z</time>
      </trkpt>
      <trkpt lat="64.24416" lon="11.08372">
        <ele>106.852146</ele>
        <time>2020-07-15T21:18:27.381Z</time>
      </trkpt>
      <trkpt lat="64.24507" lon="11.08571">
        <ele>107.821133</ele>
        <time>2020-07-15T21:18:53.699Z</time>
      </trkpt>
      <trkpt lat="64.24614" lon="11.08875">
        <ele>108.01392</ele>
        <time>2020-07-15T21:19:22.657Z</time>
      </trkpt>
      <trkpt lat="64.24631" lon="11.08923">
        <ele>108.658184</ele>
        <time>2020-07-15T21:19:27.871Z</time>
      </trkpt>
      <trkpt lat="64.24627" lon="11.08938">
        <ele>108.974187</ele>
        <time>2020-07-15T21:19:29.357Z</time>
      </trkpt>
      <trkpt lat="64.2464" lon="11.09033">
        <ele>110.861861</ele>
        <time>2020-07-15T21:19:39.855Z</time>
      </trkpt>
      <trkpt lat="64.24639" lon="11.09056">
        <ele>111.288706</ele>
        <time>2020-07-15T21:19:42.425Z</time>
      </trkpt>
      <trkpt lat="64.24636" lon="11.09071">
        <ele>111.60859</ele>
        <time>2020-07-15T21:19:43.822Z</time>
      </trkpt>
      <trkpt lat="64.24615" lon="11.09149">
        <ele>113.321748</ele>
        <time>2020-07-15T21:19:59.436Z</time>
      </trkpt>
      <trkpt lat="64.24606" lon="11.09184">
        <ele>114.104843</ele>
        <time>2020-07-15T21:20:06.522Z</time>
      </trkpt>
      <trkpt lat="64.24579" lon="11.09258">
        <ele>115.969812</ele>
        <time>2020-07-15T21:20:23.759Z</time>
      </trkpt>
      <trkpt lat="64.24539" lon="11.09288">
        <ele>119.27586</ele>
        <time>2020-07-15T21:20:43.461Z</time>
      </trkpt>
      <trkpt lat="64.24508" lon="11.09313">
        <ele>121.898389</ele>
        <time>2020-07-15T21:20:58.345Z</time>
      </trkpt>
      <trkpt lat="64.24505" lon="11.0932">
        <ele>122.222452</ele>
        <time>2020-07-15T21:21:02.121Z</time>
      </trkpt>
      <trkpt lat="64.24501" lon="11.09346">
        <ele>123.175761</ele>
        <time>2020-07-15T21:21:07.522Z</time>
      </trkpt>
      <trkpt lat="64.24504" lon="11.09455">
        <ele>126.940492</ele>
        <time>2020-07-15T21:21:29.074Z</time>
      </trkpt>
      <trkpt lat="64.24511" lon="11.09517">
        <ele>129.116479</ele>
        <time>2020-07-15T21:21:41.399Z</time>
      </trkpt>
      <trkpt lat="64.24533" lon="11.09579">
        <ele>130.644287</ele>
        <time>2020-07-15T21:21:55.363Z</time>
      </trkpt>
      <trkpt lat="64.24612" lon="11.09723">
        <ele>133.36679</ele>
        <time>2020-07-15T21:22:20.782Z</time>
      </trkpt>
      <trkpt lat="64.24667" lon="11.09911">
        <ele>135.020099</ele>
        <time>2020-07-15T21:22:41.333Z</time>
      </trkpt>
      <trkpt lat="64.24685" lon="11.10017">
        <ele>135.175758</ele>
        <time>2020-07-15T21:22:52.224Z</time>
      </trkpt>
      <trkpt lat="64.24683" lon="11.10069">
        <ele>135.247997</ele>
        <time>2020-07-15T21:22:57.412Z</time>
      </trkpt>
      <trkpt lat="64.2467" lon="11.10128">
        <ele>135.338731</ele>
        <time>2020-07-15T21:23:04.396Z</time>
      </trkpt>
      <trkpt lat="64.24603" lon="11.10291">
        <ele>131.867035</ele>
        <time>2020-07-15T21:23:18.878Z</time>
      </trkpt>
      <trkpt lat="64.24577" lon="11.10388">
        <ele>129.018933</ele>
        <time>2020-07-15T21:23:24.873Z</time>
      </trkpt>
      <trkpt lat="64.24572" lon="11.10422">
        <ele>128.084824</ele>
        <time>2020-07-15T21:23:26.898Z</time>
      </trkpt>
      <trkpt lat="64.24586" lon="11.10474">
        <ele>126.547984</ele>
        <time>2020-07-15T21:23:29.908Z</time>
      </trkpt>
      <trkpt lat="64.24609" lon="11.10551">
        <ele>123.758012</ele>
        <time>2020-07-15T21:23:34.563Z</time>
      </trkpt>
      <trkpt lat="64.24622" lon="11.10579">
        <ele>122.079183</ele>
        <time>2020-07-15T21:23:36.646Z</time>
      </trkpt>
      <trkpt lat="64.24634" lon="11.10586">
        <ele>121.011492</ele>
        <time>2020-07-15T21:23:37.951Z</time>
      </trkpt>
      <trkpt lat="64.24654" lon="11.10591">
        <ele>119.118069</ele>
        <time>2020-07-15T21:23:40.316Z</time>
      </trkpt>
      <trkpt lat="64.24702" lon="11.10553">
        <ele>114.54209</ele>
        <time>2020-07-15T21:23:45.910Z</time>
      </trkpt>
      <trkpt lat="64.24719" lon="11.1055">
        <ele>112.953845</ele>
        <time>2020-07-15T21:23:47.950Z</time>
      </trkpt>
      <trkpt lat="64.24801" lon="11.1058">
        <ele>108.850901</ele>
        <time>2020-07-15T21:23:58.362Z</time>
      </trkpt>
      <trkpt lat="64.24812" lon="11.10592">
        <ele>108.921814</ele>
        <time>2020-07-15T21:24:00.007Z</time>
      </trkpt>
      <trkpt lat="64.24817" lon="11.1064">
        <ele>109.054767</ele>
        <time>2020-07-15T21:24:03.204Z</time>
      </trkpt>
      <trkpt lat="64.24775" lon="11.10881">
        <ele>109.819502</ele>
        <time>2020-07-15T21:24:36.843Z</time>
      </trkpt>
      <trkpt lat="64.24776" lon="11.1097">
        <ele>111.574238</ele>
        <time>2020-07-15T21:24:50.977Z</time>
      </trkpt>
      <trkpt lat="64.24782" lon="11.11013">
        <ele>112.459157</ele>
        <time>2020-07-15T21:24:58.754Z</time>
      </trkpt>
      <trkpt lat="64.24785" lon="11.11039">
        <ele>112.995255</ele>
        <time>2020-07-15T21:25:02.926Z</time>
      </trkpt>
      <trkpt lat="64.24788" lon="11.11059">
        <ele>113.418361</ele>
        <time>2020-07-15T21:25:06.094Z</time>
      </trkpt>
      <trkpt lat="64.24799" lon="11.11145">
        <ele>115.173902</ele>
        <time>2020-07-15T21:25:20.003Z</time>
      </trkpt>
      <trkpt lat="64.24851" lon="11.11507">
        <ele>120.341302</ele>
        <time>2020-07-15T21:26:08.523Z</time>
      </trkpt>
      <trkpt lat="64.24877" lon="11.11716">
        <ele>122.026662</ele>
        <time>2020-07-15T21:26:28.875Z</time>
      </trkpt>
      <trkpt lat="64.24875" lon="11.11757">
        <ele>121.980071</ele>
        <time>2020-07-15T21:26:32.642Z</time>
      </trkpt>
      <trkpt lat="64.24861" lon="11.11851">
        <ele>121.869012</ele>
        <time>2020-07-15T21:26:41.216Z</time>
      </trkpt>
      <trkpt lat="64.2486" lon="11.11898">
        <ele>121.815867</ele>
        <time>2020-07-15T21:26:45.049Z</time>
      </trkpt>
      <trkpt lat="64.24902" lon="11.12079">
        <ele>121.284721</ele>
        <time>2020-07-15T21:26:59.518Z</time>
      </trkpt>
      <trkpt lat="64.24916" lon="11.12226">
        <ele>119.445848</ele>
        <time>2020-07-15T21:27:09.061Z</time>
      </trkpt>
      <trkpt lat="64.24945" lon="11.12351">
        <ele>117.710716</ele>
        <time>2020-07-15T21:27:17.475Z</time>
      </trkpt>
      <trkpt lat="64.24956" lon="11.1247">
        <ele>116.197943</ele>
        <time>2020-07-15T21:27:24.424Z</time>
      </trkpt>
      <trkpt lat="64.24959" lon="11.12612">
        <ele>114.343368</ele>
        <time>2020-07-15T21:27:32.572Z</time>
      </trkpt>
      <trkpt lat="64.24969" lon="11.12797">
        <ele>111.903202</ele>
        <time>2020-07-15T21:27:43.727Z</time>
      </trkpt>
      <trkpt lat="64.25006" lon="11.13033">
        <ele>112.3251</ele>
        <time>2020-07-15T21:28:02.039Z</time>
      </trkpt>
      <trkpt lat="64.25003" lon="11.13151">
        <ele>113.049099</ele>
        <time>2020-07-15T21:28:15.315Z</time>
      </trkpt>
      <trkpt lat="64.24991" lon="11.13239">
        <ele>113.624963</ele>
        <time>2020-07-15T21:28:27.978Z</time>
      </trkpt>
      <trkpt lat="64.2496" lon="11.13395">
        <ele>118.053797</ele>
        <time>2020-07-15T21:28:54.911Z</time>
      </trkpt>
      <trkpt lat="64.24939" lon="11.137">
        <ele>126.234576</ele>
        <time>2020-07-15T21:29:50.625Z</time>
      </trkpt>
      <trkpt lat="64.24915" lon="11.13866">
        <ele>130.300474</ele>
        <time>2020-07-15T21:30:21.781Z</time>
      </trkpt>
      <trkpt lat="64.24914" lon="11.14028">
        <ele>134.03755</ele>
        <time>2020-07-15T21:30:45.595Z</time>
      </trkpt>
      <trkpt lat="64.24928" lon="11.14192">
        <ele>131.503171</ele>
        <time>2020-07-15T21:31:00.094Z</time>
      </trkpt>
      <trkpt lat="64.24921" lon="11.14324">
        <ele>128.74293</ele>
        <time>2020-07-15T21:31:07.596Z</time>
      </trkpt>
      <trkpt lat="64.24929" lon="11.1438">
        <ele>127.532316</ele>
        <time>2020-07-15T21:31:10.620Z</time>
      </trkpt>
      <trkpt lat="64.25039" lon="11.14893">
        <ele>97.079801</ele>
        <time>2020-07-15T21:31:38.013Z</time>
      </trkpt>
      <trkpt lat="64.25071" lon="11.15093">
        <ele>85.80526</ele>
        <time>2020-07-15T21:31:48.188Z</time>
      </trkpt>
      <trkpt lat="64.25078" lon="11.15211">
        <ele>79.472794</ele>
        <time>2020-07-15T21:31:54.061Z</time>
      </trkpt>
      <trkpt lat="64.25079" lon="11.1544">
        <ele>74.528483</ele>
        <time>2020-07-15T21:32:06.110Z</time>
      </trkpt>
      <trkpt lat="64.25062" lon="11.15578">
        <ele>71.438743</ele>
        <time>2020-07-15T21:32:14.795Z</time>
      </trkpt>
      <trkpt lat="64.25013" lon="11.15868">
        <ele>71.377771</ele>
        <time>2020-07-15T21:32:42.860Z</time>
      </trkpt>
      <trkpt lat="64.25009" lon="11.15928">
        <ele>71.563849</ele>
        <time>2020-07-15T21:32:49.494Z</time>
      </trkpt>
      <trkpt lat="64.25011" lon="11.16094">
        <ele>71.634146</ele>
        <time>2020-07-15T21:33:06.544Z</time>
      </trkpt>
      <trkpt lat="64.24989" lon="11.16271">
        <ele>71.200598</ele>
        <time>2020-07-15T21:33:22.232Z</time>
      </trkpt>
      <trkpt lat="64.24988" lon="11.16326">
        <ele>71.070786</ele>
        <time>2020-07-15T21:33:25.923Z</time>
      </trkpt>
      <trkpt lat="64.24995" lon="11.1646">
        <ele>70.139175</ele>
        <time>2020-07-15T21:33:34.110Z</time>
      </trkpt>
      <trkpt lat="64.25003" lon="11.16532">
        <ele>68.874314</ele>
        <time>2020-07-15T21:33:38.397Z</time>
      </trkpt>
      <trkpt lat="64.25017" lon="11.16591">
        <ele>67.762427</ele>
        <time>2020-07-15T21:33:42.091Z</time>
      </trkpt>
      <trkpt lat="64.25042" lon="11.1665">
        <ele>66.369891</ele>
        <time>2020-07-15T21:33:46.637Z</time>
      </trkpt>
      <trkpt lat="64.25054" lon="11.16695">
        <ele>65.463541</ele>
        <time>2020-07-15T21:33:49.574Z</time>
      </trkpt>
      <trkpt lat="64.25111" lon="11.17016">
        <ele>63.038456</ele>
        <time>2020-07-15T21:34:10.521Z</time>
      </trkpt>
      <trkpt lat="64.25113" lon="11.17125">
        <ele>62.684442</ele>
        <time>2020-07-15T21:34:21.144Z</time>
      </trkpt>
      <trkpt lat="64.251" lon="11.1741">
        <ele>67.276384</ele>
        <time>2020-07-15T21:35:01.236Z</time>
      </trkpt>
      <trkpt lat="64.25116" lon="11.17523">
        <ele>69.720834</ele>
        <time>2020-07-15T21:35:21.245Z</time>
      </trkpt>
      <trkpt lat="64.25116" lon="11.17567">
        <ele>70.628927</ele>
        <time>2020-07-15T21:35:28.741Z</time>
      </trkpt>
      <trkpt lat="64.25108" lon="11.17649">
        <ele>71.871401</ele>
        <time>2020-07-15T21:35:42.538Z</time>
      </trkpt>
      <trkpt lat="64.25039" lon="11.17863">
        <ele>75.42623</ele>
        <time>2020-07-15T21:36:17.292Z</time>
      </trkpt>
      <trkpt lat="64.25017" lon="11.17918">
        <ele>76.420856</ele>
        <time>2020-07-15T21:36:23.821Z</time>
      </trkpt>
      <trkpt lat="64.25013" lon="11.17953">
        <ele>75.973283</ele>
        <time>2020-07-15T21:36:26.384Z</time>
      </trkpt>
      <trkpt lat="64.25015" lon="11.17963">
        <ele>75.78611</ele>
        <time>2020-07-15T21:36:27.414Z</time>
      </trkpt>
      <trkpt lat="64.25021" lon="11.1797">
        <ele>75.513422</ele>
        <time>2020-07-15T21:36:29.209Z</time>
      </trkpt>
      <trkpt lat="64.25014" lon="11.18001">
        <ele>74.878463</ele>
        <time>2020-07-15T21:36:31.177Z</time>
      </trkpt>
      <trkpt lat="64.24998" lon="11.18089">
        <ele>73.146885</ele>
        <time>2020-07-15T21:36:36.597Z</time>
      </trkpt>
      <trkpt lat="64.24984" lon="11.1821">
        <ele>70.861403</ele>
        <time>2020-07-15T21:36:43.197Z</time>
      </trkpt>
      <trkpt lat="64.24979" lon="11.18314">
        <ele>68.929298</ele>
        <time>2020-07-15T21:36:48.387Z</time>
      </trkpt>
      <trkpt lat="64.24981" lon="11.18419">
        <ele>65.055632</ele>
        <time>2020-07-15T21:36:53.589Z</time>
      </trkpt>
      <trkpt lat="64.24992" lon="11.18506">
        <ele>61.732863</ele>
        <time>2020-07-15T21:36:57.917Z</time>
      </trkpt>
      <trkpt lat="64.25007" lon="11.1857">
        <ele>59.066641</ele>
        <time>2020-07-15T21:37:01.388Z</time>
      </trkpt>
      <trkpt lat="64.25036" lon="11.18647">
        <ele>55.335555</ele>
        <time>2020-07-15T21:37:06.346Z</time>
      </trkpt>
      <trkpt lat="64.25069" lon="11.18703">
        <ele>51.927707</ele>
        <time>2020-07-15T21:37:10.936Z</time>
      </trkpt>
      <trkpt lat="64.25076" lon="11.18712">
        <ele>51.300922</ele>
        <time>2020-07-15T21:37:11.761Z</time>
      </trkpt>
      <trkpt lat="64.25081" lon="11.18718">
        <ele>50.837878</ele>
        <time>2020-07-15T21:37:12.418Z</time>
      </trkpt>
      <trkpt lat="64.25088" lon="11.18725">
        <ele>50.268503</ele>
        <time>2020-07-15T21:37:13.188Z</time>
      </trkpt>
      <trkpt lat="64.2513" lon="11.18753">
        <ele>46.754398</ele>
        <time>2020-07-15T21:37:18.116Z</time>
      </trkpt>
      <trkpt lat="64.25168" lon="11.18758">
        <ele>43.679859</ele>
        <time>2020-07-15T21:37:22.431Z</time>
      </trkpt>
      <trkpt lat="64.25179" lon="11.18756">
        <ele>42.751662</ele>
        <time>2020-07-15T21:37:23.688Z</time>
      </trkpt>
      <trkpt lat="64.25267" lon="11.18742">
        <ele>36.458101</ele>
        <time>2020-07-15T21:37:33.796Z</time>
      </trkpt>
      <trkpt lat="64.25321" lon="11.18746">
        <ele>33.104259</ele>
        <time>2020-07-15T21:37:39.976Z</time>
      </trkpt>
      <trkpt lat="64.25368" lon="11.18769">
        <ele>30.082507</ele>
        <time>2020-07-15T21:37:45.735Z</time>
      </trkpt>
      <trkpt lat="64.25407" lon="11.18793">
        <ele>27.766703</ele>
        <time>2020-07-15T21:37:50.627Z</time>
      </trkpt>
      <trkpt lat="64.25424" lon="11.18803">
        <ele>27.172227</ele>
        <time>2020-07-15T21:37:52.678Z</time>
      </trkpt>
      <trkpt lat="64.25476" lon="11.1883">
        <ele>25.295294</ele>
        <time>2020-07-15T21:37:59.424Z</time>
      </trkpt>
      <trkpt lat="64.2552" lon="11.18835">
        <ele>23.757787</ele>
        <time>2020-07-15T21:38:05.022Z</time>
      </trkpt>
      <trkpt lat="64.2555" lon="11.18821">
        <ele>22.655187</ele>
        <time>2020-07-15T21:38:09.147Z</time>
      </trkpt>
      <trkpt lat="64.2563" lon="11.18752">
        <ele>22.251537</ele>
        <time>2020-07-15T21:38:21.608Z</time>
      </trkpt>
      <trkpt lat="64.25655" lon="11.18751">
        <ele>22.481101</ele>
        <time>2020-07-15T21:38:25.800Z</time>
      </trkpt>
      <trkpt lat="64.25672" lon="11.18765">
        <ele>22.644184</ele>
        <time>2020-07-15T21:38:29.567Z</time>
      </trkpt>
      <trkpt lat="64.25678" lon="11.18772">
        <ele>22.705068</ele>
        <time>2020-07-15T21:38:30.764Z</time>
      </trkpt>
      <trkpt lat="64.25708" lon="11.18815">
        <ele>23.034953</ele>
        <time>2020-07-15T21:38:38.604Z</time>
      </trkpt>
      <trkpt lat="64.25718" lon="11.1883">
        <ele>23.141156</ele>
        <time>2020-07-15T21:38:41.137Z</time>
      </trkpt>
      <trkpt lat="64.25716" lon="11.18836">
        <ele>23.168785</ele>
        <time>2020-07-15T21:38:42.168Z</time>
      </trkpt>
      <trkpt lat="64.2572" lon="11.18858">
        <ele>23.261797</ele>
        <time>2020-07-15T21:38:44.783Z</time>
      </trkpt>
      <trkpt lat="64.25739" lon="11.18899">
        <ele>24.29486</ele>
        <time>2020-07-15T21:38:54.803Z</time>
      </trkpt>
      <trkpt lat="64.25806" lon="11.19033">
        <ele>29.977791</ele>
        <time>2020-07-15T21:39:32.884Z</time>
      </trkpt>
      <trkpt lat="64.2583" lon="11.19114">
        <ele>32.686706</ele>
        <time>2020-07-15T21:39:50.076Z</time>
      </trkpt>
      <trkpt lat="64.25834" lon="11.19138">
        <ele>33.403869</ele>
        <time>2020-07-15T21:39:55.692Z</time>
      </trkpt>
      <trkpt lat="64.25836" lon="11.19148">
        <ele>33.691549</ele>
        <time>2020-07-15T21:39:59.614Z</time>
      </trkpt>
      <trkpt lat="64.25852" lon="11.19311">
        <ele>34.182092</ele>
        <time>2020-07-15T21:40:23.314Z</time>
      </trkpt>
      <trkpt lat="64.25858" lon="11.19449">
        <ele>33.444783</ele>
        <time>2020-07-15T21:40:33.430Z</time>
      </trkpt>
      <trkpt lat="64.25865" lon="11.19511">
        <ele>33.105888</ele>
        <time>2020-07-15T21:40:37.428Z</time>
      </trkpt>
      <trkpt lat="64.25895" lon="11.19669">
        <ele>29.176168</ele>
        <time>2020-07-15T21:40:46.016Z</time>
      </trkpt>
      <trkpt lat="64.25934" lon="11.19806">
        <ele>22.613678</ele>
        <time>2020-07-15T21:40:54.083Z</time>
      </trkpt>
      <trkpt lat="64.25963" lon="11.19933">
        <ele>16.886761</ele>
        <time>2020-07-15T21:41:01.325Z</time>
      </trkpt>
      <trkpt lat="64.25964" lon="11.19935">
        <ele>16.76283</ele>
        <time>2020-07-15T21:41:01.479Z</time>
      </trkpt>
      <trkpt lat="64.25998" lon="11.19882">
        <ele>14.592664</ele>
        <time>2020-07-15T21:41:06.208Z</time>
      </trkpt>
      <trkpt lat="64.26022" lon="11.19851">
        <ele>13.395678</ele>
        <time>2020-07-15T21:41:09.565Z</time>
      </trkpt>
      <trkpt lat="64.26061" lon="11.19819">
        <ele>11.586002</ele>
        <time>2020-07-15T21:41:14.514Z</time>
      </trkpt>
      <trkpt lat="64.26133" lon="11.19784">
        <ele>8.394112</ele>
        <time>2020-07-15T21:41:25.058Z</time>
      </trkpt>
      <trkpt lat="64.26155" lon="11.19774">
        <ele>8.101471</ele>
        <time>2020-07-15T21:41:28.760Z</time>
      </trkpt>
      <trkpt lat="64.26176" lon="11.19764">
        <ele>7.957334</ele>
        <time>2020-07-15T21:41:32.246Z</time>
      </trkpt>
      <trkpt lat="64.26239" lon="11.19734">
        <ele>7.526165</ele>
        <time>2020-07-15T21:41:42.696Z</time>
      </trkpt>
      <trkpt lat="64.26281" lon="11.19715">
        <ele>7.238437</ele>
        <time>2020-07-15T21:41:49.709Z</time>
      </trkpt>
      <trkpt lat="64.26415" lon="11.19651">
        <ele>6.682259</ele>
        <time>2020-07-15T21:42:12.762Z</time>
      </trkpt>
      <trkpt lat="64.26667" lon="11.19531">
        <ele>5.662025</ele>
        <time>2020-07-15T21:42:56.287Z</time>
      </trkpt>
      <trkpt lat="64.27091" lon="11.19331">
        <ele>1.996277</ele>
        <time>2020-07-15T21:44:03.753Z</time>
      </trkpt>
      <trkpt lat="64.27108" lon="11.19325">
        <ele>1.900654</ele>
        <time>2020-07-15T21:44:06.585Z</time>
      </trkpt>
      <trkpt lat="64.27125" lon="11.19321">
        <ele>1.80504</ele>
        <time>2020-07-15T21:44:09.327Z</time>
      </trkpt>
      <trkpt lat="64.27156" lon="11.19314">
        <ele>1.634182</ele>
        <time>2020-07-15T21:44:14.390Z</time>
      </trkpt>
      <trkpt lat="64.27355" lon="11.19299">
        <ele>1.755073</ele>
        <time>2020-07-15T21:44:50.760Z</time>
      </trkpt>
      <trkpt lat="64.27368" lon="11.19302">
        <ele>1.783468</ele>
        <time>2020-07-15T21:44:53.345Z</time>
      </trkpt>
      <trkpt lat="64.27387" lon="11.19307">
        <ele>1.886553</ele>
        <time>2020-07-15T21:44:57.163Z</time>
      </trkpt>
      <trkpt lat="64.2742" lon="11.19318">
        <ele>2.131374</ele>
        <time>2020-07-15T21:45:03.941Z</time>
      </trkpt>
      <trkpt lat="64.27493" lon="11.19343">
        <ele>2.673092</ele>
        <time>2020-07-15T21:45:19.000Z</time>
      </trkpt>
      <trkpt lat="64.27545" lon="11.19359">
        <ele>3.051143</ele>
        <time>2020-07-15T21:45:29.558Z</time>
      </trkpt>
      <trkpt lat="64.27562" lon="11.19362">
        <ele>3.198435</ele>
        <time>2020-07-15T21:45:33.279Z</time>
      </trkpt>
      <trkpt lat="64.27667" lon="11.19364">
        <ele>4.139254</ele>
        <time>2020-07-15T21:45:54.448Z</time>
      </trkpt>
      <trkpt lat="64.27684" lon="11.19367">
        <ele>4.296673</ele>
        <time>2020-07-15T21:45:58.055Z</time>
      </trkpt>
      <trkpt lat="64.27693" lon="11.19369">
        <ele>4.376435</ele>
        <time>2020-07-15T21:45:59.965Z</time>
      </trkpt>
      <trkpt lat="64.27734" lon="11.19387">
        <ele>4.764469</ele>
        <time>2020-07-15T21:46:08.882Z</time>
      </trkpt>
      <trkpt lat="64.2775" lon="11.19396">
        <ele>4.984465</ele>
        <time>2020-07-15T21:46:12.411Z</time>
      </trkpt>
      <trkpt lat="64.27804" lon="11.19429">
        <ele>5.734944</ele>
        <time>2020-07-15T21:46:24.738Z</time>
      </trkpt>
      <trkpt lat="64.27937" lon="11.19485">
        <ele>7.329818</ele>
        <time>2020-07-15T21:46:55.418Z</time>
      </trkpt>
      <trkpt lat="64.28057" lon="11.19504">
        <ele>8.059889</ele>
        <time>2020-07-15T21:47:19.318Z</time>
      </trkpt>
      <trkpt lat="64.28073" lon="11.19501">
        <ele>8.157935</ele>
        <time>2020-07-15T21:47:22.314Z</time>
      </trkpt>
      <trkpt lat="64.28145" lon="11.19486">
        <ele>7.650883</ele>
        <time>2020-07-15T21:47:34.291Z</time>
      </trkpt>
      <trkpt lat="64.2831" lon="11.19456">
        <ele>6.193429</ele>
        <time>2020-07-15T21:47:58.711Z</time>
      </trkpt>
      <trkpt lat="64.28383" lon="11.19442">
        <ele>5.811516</ele>
        <time>2020-07-15T21:48:09.953Z</time>
      </trkpt>
      <trkpt lat="64.28475" lon="11.19426">
        <ele>6.203817</ele>
        <time>2020-07-15T21:48:28.323Z</time>
      </trkpt>
      <trkpt lat="64.28534" lon="11.19429">
        <ele>7.649968</ele>
        <time>2020-07-15T21:48:42.515Z</time>
      </trkpt>
      <trkpt lat="64.28562" lon="11.19436">
        <ele>8.332959</ele>
        <time>2020-07-15T21:48:50.194Z</time>
      </trkpt>
      <trkpt lat="64.28585" lon="11.19443">
        <ele>8.903301</ele>
        <time>2020-07-15T21:48:57.383Z</time>
      </trkpt>
      <trkpt lat="64.28694" lon="11.19494">
        <ele>11.641425</ele>
        <time>2020-07-15T21:49:29.993Z</time>
      </trkpt>
      <trkpt lat="64.28708" lon="11.19503">
        <ele>12.006964</ele>
        <time>2020-07-15T21:49:34.453Z</time>
      </trkpt>
      <trkpt lat="64.28716" lon="11.19509">
        <ele>12.197593</ele>
        <time>2020-07-15T21:49:36.899Z</time>
      </trkpt>
      <trkpt lat="64.28858" lon="11.1965">
        <ele>13.917912</ele>
        <time>2020-07-15T21:50:10.470Z</time>
      </trkpt>
      <trkpt lat="64.28902" lon="11.19678">
        <ele>13.655633</ele>
        <time>2020-07-15T21:50:17.341Z</time>
      </trkpt>
      <trkpt lat="64.29065" lon="11.19784">
        <ele>11.058739</ele>
        <time>2020-07-15T21:50:41.133Z</time>
      </trkpt>
      <trkpt lat="64.29309" lon="11.19945">
        <ele>5.483808</ele>
        <time>2020-07-15T21:51:16.192Z</time>
      </trkpt>
      <trkpt lat="64.29355" lon="11.19984">
        <ele>4.951826</ele>
        <time>2020-07-15T21:51:23.345Z</time>
      </trkpt>
      <trkpt lat="64.294" lon="11.20052">
        <ele>4.385866</ele>
        <time>2020-07-15T21:51:31.529Z</time>
      </trkpt>
      <trkpt lat="64.29475" lon="11.20188">
        <ele>3.544561</ele>
        <time>2020-07-15T21:51:47.104Z</time>
      </trkpt>
      <trkpt lat="64.29585" lon="11.204">
        <ele>3.437676</ele>
        <time>2020-07-15T21:52:12.649Z</time>
      </trkpt>
      <trkpt lat="64.2965" lon="11.2054">
        <ele>3.621554</ele>
        <time>2020-07-15T21:52:29.285Z</time>
      </trkpt>
      <trkpt lat="64.29733" lon="11.20719">
        <ele>3.937744</ele>
        <time>2020-07-15T21:52:50.722Z</time>
      </trkpt>
      <trkpt lat="64.29787" lon="11.20836">
        <ele>3.812291</ele>
        <time>2020-07-15T21:53:04.516Z</time>
      </trkpt>
      <trkpt lat="64.29858" lon="11.20987">
        <ele>3.65065</ele>
        <time>2020-07-15T21:53:20.789Z</time>
      </trkpt>
      <trkpt lat="64.299" lon="11.21077">
        <ele>3.174443</ele>
        <time>2020-07-15T21:53:29.901Z</time>
      </trkpt>
      <trkpt lat="64.29908" lon="11.21094">
        <ele>3.073517</ele>
        <time>2020-07-15T21:53:31.638Z</time>
      </trkpt>
      <trkpt lat="64.29932" lon="11.21136">
        <ele>2.799848</ele>
        <time>2020-07-15T21:53:36.298Z</time>
      </trkpt>
      <trkpt lat="64.2994" lon="11.21147">
        <ele>2.712776</ele>
        <time>2020-07-15T21:53:37.765Z</time>
      </trkpt>
      <trkpt lat="64.29943" lon="11.2115">
        <ele>2.687507</ele>
        <time>2020-07-15T21:53:38.124Z</time>
      </trkpt>
      <trkpt lat="64.29983" lon="11.21193">
        <ele>2.284746</ele>
        <time>2020-07-15T21:53:44.901Z</time>
      </trkpt>
      <trkpt lat="64.30106" lon="11.21313">
        <ele>1.307254</ele>
        <time>2020-07-15T21:54:05.738Z</time>
      </trkpt>
      <trkpt lat="64.30126" lon="11.21333">
        <ele>1.161553</ele>
        <time>2020-07-15T21:54:09.272Z</time>
      </trkpt>
      <trkpt lat="64.30131" lon="11.21339">
        <ele>1.120428</ele>
        <time>2020-07-15T21:54:10.269Z</time>
      </trkpt>
      <trkpt lat="64.3014" lon="11.21348">
        <ele>1.055388</ele>
        <time>2020-07-15T21:54:11.857Z</time>
      </trkpt>
      <trkpt lat="64.30147" lon="11.21357">
        <ele>1.002703</ele>
        <time>2020-07-15T21:54:13.150Z</time>
      </trkpt>
      <trkpt lat="64.30169" lon="11.21387">
        <ele>0.828986</ele>
        <time>2020-07-15T21:54:17.444Z</time>
      </trkpt>
      <trkpt lat="64.30174" lon="11.21395">
        <ele>0.786978</ele>
        <time>2020-07-15T21:54:18.502Z</time>
      </trkpt>
      <trkpt lat="64.30187" lon="11.21417">
        <ele>0.91592</ele>
        <time>2020-07-15T21:54:21.235Z</time>
      </trkpt>
      <trkpt lat="64.30271" lon="11.21551">
        <ele>1.752578</ele>
        <time>2020-07-15T21:54:40.692Z</time>
      </trkpt>
      <trkpt lat="64.30328" lon="11.21621">
        <ele>2.349473</ele>
        <time>2020-07-15T21:54:55.093Z</time>
      </trkpt>
      <trkpt lat="64.30498" lon="11.21828">
        <ele>8.787312</ele>
        <time>2020-07-15T21:55:49.016Z</time>
      </trkpt>
      <trkpt lat="64.30512" lon="11.21845">
        <ele>9.729337</ele>
        <time>2020-07-15T21:55:54.347Z</time>
      </trkpt>
      <trkpt lat="64.3063" lon="11.21989">
        <ele>17.63209</ele>
        <time>2020-07-15T21:56:44.300Z</time>
      </trkpt>
      <trkpt lat="64.30727" lon="11.22106">
        <ele>26.267889</ele>
        <time>2020-07-15T21:57:32.634Z</time>
      </trkpt>
      <trkpt lat="64.30741" lon="11.22123">
        <ele>27.595256</ele>
        <time>2020-07-15T21:57:40.344Z</time>
      </trkpt>
      <trkpt lat="64.30839" lon="11.22242">
        <ele>35.617624</ele>
        <time>2020-07-15T21:58:30.616Z</time>
      </trkpt>
      <trkpt lat="64.30878" lon="11.2229">
        <ele>38.009421</ele>
        <time>2020-07-15T21:58:48.397Z</time>
      </trkpt>
      <trkpt lat="64.30968" lon="11.22399">
        <ele>43.049068</ele>
        <time>2020-07-15T21:59:20.471Z</time>
      </trkpt>
      <trkpt lat="64.30984" lon="11.22418">
        <ele>42.701922</ele>
        <time>2020-07-15T21:59:24.613Z</time>
      </trkpt>
      <trkpt lat="64.31083" lon="11.22537">
        <ele>40.560403</ele>
        <time>2020-07-15T21:59:40.094Z</time>
      </trkpt>
      <trkpt lat="64.31109" lon="11.22569">
        <ele>39.98351</ele>
        <time>2020-07-15T21:59:43.771Z</time>
      </trkpt>
      <trkpt lat="64.31188" lon="11.22665">
        <ele>35.424828</ele>
        <time>2020-07-15T21:59:54.320Z</time>
      </trkpt>
      <trkpt lat="64.31244" lon="11.22753">
        <ele>31.584848</ele>
        <time>2020-07-15T22:00:02.156Z</time>
      </trkpt>
      <trkpt lat="64.31283" lon="11.22856">
        <ele>28.599361</ele>
        <time>2020-07-15T22:00:09.275Z</time>
      </trkpt>
      <trkpt lat="64.31363" lon="11.23131">
        <ele>23.067802</ele>
        <time>2020-07-15T22:00:28.033Z</time>
      </trkpt>
      <trkpt lat="64.31415" lon="11.23306">
        <ele>19.139224</ele>
        <time>2020-07-15T22:00:39.466Z</time>
      </trkpt>
      <trkpt lat="64.31444" lon="11.23388">
        <ele>17.116903</ele>
        <time>2020-07-15T22:00:45.270Z</time>
      </trkpt>
      <trkpt lat="64.31451" lon="11.23404">
        <ele>16.692411</ele>
        <time>2020-07-15T22:00:46.501Z</time>
      </trkpt>
      <trkpt lat="64.31459" lon="11.23422">
        <ele>16.21317</ele>
        <time>2020-07-15T22:00:47.752Z</time>
      </trkpt>
      <trkpt lat="64.31528" lon="11.23551">
        <ele>13.175006</ele>
        <time>2020-07-15T22:00:58.603Z</time>
      </trkpt>
      <trkpt lat="64.31621" lon="11.2367">
        <ele>10.168351</ele>
        <time>2020-07-15T22:01:12.431Z</time>
      </trkpt>
      <trkpt lat="64.31872" lon="11.23879">
        <ele>14.841927</ele>
        <time>2020-07-15T22:02:18.821Z</time>
      </trkpt>
      <trkpt lat="64.31941" lon="11.23911">
        <ele>16.921376</ele>
        <time>2020-07-15T22:02:39.212Z</time>
      </trkpt>
      <trkpt lat="64.31963" lon="11.23914">
        <ele>17.590443</ele>
        <time>2020-07-15T22:02:45.962Z</time>
      </trkpt>
      <trkpt lat="64.3202" lon="11.23914">
        <ele>19.24921</ele>
        <time>2020-07-15T22:03:01.929Z</time>
      </trkpt>
      <trkpt lat="64.32056" lon="11.23922">
        <ele>20.26433</ele>
        <time>2020-07-15T22:03:12.249Z</time>
      </trkpt>
      <trkpt lat="64.32091" lon="11.23943">
        <ele>21.290186</ele>
        <time>2020-07-15T22:03:22.566Z</time>
      </trkpt>
      <trkpt lat="64.3215" lon="11.24017">
        <ele>23.198421</ele>
        <time>2020-07-15T22:03:40.390Z</time>
      </trkpt>
      <trkpt lat="64.32181" lon="11.24072">
        <ele>23.217986</ele>
        <time>2020-07-15T22:03:48.787Z</time>
      </trkpt>
      <trkpt lat="64.32241" lon="11.24182">
        <ele>23.045443</ele>
        <time>2020-07-15T22:04:02.445Z</time>
      </trkpt>
      <trkpt lat="64.32259" lon="11.24211">
        <ele>22.997297</ele>
        <time>2020-07-15T22:04:06.441Z</time>
      </trkpt>
      <trkpt lat="64.3227" lon="11.24229">
        <ele>22.966893</ele>
        <time>2020-07-15T22:04:08.215Z</time>
      </trkpt>
      <trkpt lat="64.323" lon="11.24267">
        <ele>22.844434</ele>
        <time>2020-07-15T22:04:13.224Z</time>
      </trkpt>
      <trkpt lat="64.32391" lon="11.24347">
        <ele>20.619117</ele>
        <time>2020-07-15T22:04:26.151Z</time>
      </trkpt>
      <trkpt lat="64.32444" lon="11.24427">
        <ele>19.169108</ele>
        <time>2020-07-15T22:04:34.735Z</time>
      </trkpt>
      <trkpt lat="64.3248" lon="11.24488">
        <ele>18.767764</ele>
        <time>2020-07-15T22:04:41.747Z</time>
      </trkpt>
      <trkpt lat="64.32486" lon="11.24489">
        <ele>18.762874</ele>
        <time>2020-07-15T22:04:43.039Z</time>
      </trkpt>
      <trkpt lat="64.32502" lon="11.24503">
        <ele>18.749598</ele>
        <time>2020-07-15T22:04:45.485Z</time>
      </trkpt>
      <trkpt lat="64.32546" lon="11.24578">
        <ele>18.706354</ele>
        <time>2020-07-15T22:04:55.899Z</time>
      </trkpt>
      <trkpt lat="64.32565" lon="11.24634">
        <ele>18.681722</ele>
        <time>2020-07-15T22:05:01.661Z</time>
      </trkpt>
      <trkpt lat="64.32575" lon="11.2469">
        <ele>18.660621</ele>
        <time>2020-07-15T22:05:06.452Z</time>
      </trkpt>
      <trkpt lat="64.32574" lon="11.24706">
        <ele>18.655188</ele>
        <time>2020-07-15T22:05:08.533Z</time>
      </trkpt>
      <trkpt lat="64.32592" lon="11.24751">
        <ele>18.634134</ele>
        <time>2020-07-15T22:05:13.632Z</time>
      </trkpt>
      <trkpt lat="64.32632" lon="11.24828">
        <ele>18.59231</ele>
        <time>2020-07-15T22:05:24.324Z</time>
      </trkpt>
      <trkpt lat="64.3268" lon="11.24879">
        <ele>18.550457</ele>
        <time>2020-07-15T22:05:33.190Z</time>
      </trkpt>
      <trkpt lat="64.32917" lon="11.25026">
        <ele>17.326317</ele>
        <time>2020-07-15T22:06:12.046Z</time>
      </trkpt>
      <trkpt lat="64.33249" lon="11.25078">
        <ele>20.92386</ele>
        <time>2020-07-15T22:07:16.993Z</time>
      </trkpt>
      <trkpt lat="64.33362" lon="11.25076">
        <ele>30.550182</ele>
        <time>2020-07-15T22:08:05.303Z</time>
      </trkpt>
      <trkpt lat="64.33373" lon="11.25078">
        <ele>31.719678</ele>
        <time>2020-07-15T22:08:12.285Z</time>
      </trkpt>
      <trkpt lat="64.3339" lon="11.25085">
        <ele>33.437884</ele>
        <time>2020-07-15T22:08:23.063Z</time>
      </trkpt>
      <trkpt lat="64.33442" lon="11.25132">
        <ele>39.008506</ele>
        <time>2020-07-15T22:08:56.573Z</time>
      </trkpt>
      <trkpt lat="64.33479" lon="11.25206">
        <ele>43.683968</ele>
        <time>2020-07-15T22:09:26.415Z</time>
      </trkpt>
      <trkpt lat="64.33491" lon="11.2524">
        <ele>45.479846</ele>
        <time>2020-07-15T22:09:37.979Z</time>
      </trkpt>
      <trkpt lat="64.33503" lon="11.25277">
        <ele>47.416374</ele>
        <time>2020-07-15T22:09:50.561Z</time>
      </trkpt>
      <trkpt lat="64.33633" lon="11.25685">
        <ele>61.061202</ele>
        <time>2020-07-15T22:11:11.550Z</time>
      </trkpt>
      <trkpt lat="64.33661" lon="11.25733">
        <ele>62.349047</ele>
        <time>2020-07-15T22:11:17.887Z</time>
      </trkpt>
      <trkpt lat="64.33731" lon="11.25808">
        <ele>61.226161</ele>
        <time>2020-07-15T22:11:29.417Z</time>
      </trkpt>
      <trkpt lat="64.3375" lon="11.25847">
        <ele>60.349655</ele>
        <time>2020-07-15T22:11:32.802Z</time>
      </trkpt>
      <trkpt lat="64.33765" lon="11.25904">
        <ele>59.354059</ele>
        <time>2020-07-15T22:11:36.420Z</time>
      </trkpt>
      <trkpt lat="64.33798" lon="11.26087">
        <ele>55.981008</ele>
        <time>2020-07-15T22:11:46.713Z</time>
      </trkpt>
      <trkpt lat="64.33813" lon="11.26167">
        <ele>53.723881</ele>
        <time>2020-07-15T22:11:51.126Z</time>
      </trkpt>
      <trkpt lat="64.3383" lon="11.26252">
        <ele>51.282844</ele>
        <time>2020-07-15T22:11:55.849Z</time>
      </trkpt>
      <trkpt lat="64.33896" lon="11.26608">
        <ele>42.131288</ele>
        <time>2020-07-15T22:12:15.625Z</time>
      </trkpt>
      <trkpt lat="64.33908" lon="11.26679">
        <ele>40.501916</ele>
        <time>2020-07-15T22:12:19.774Z</time>
      </trkpt>
      <trkpt lat="64.33912" lon="11.26704">
        <ele>39.930324</ele>
        <time>2020-07-15T22:12:21.252Z</time>
      </trkpt>
      <trkpt lat="64.33914" lon="11.2672">
        <ele>39.588898</ele>
        <time>2020-07-15T22:12:22.113Z</time>
      </trkpt>
      <trkpt lat="64.33917" lon="11.26744">
        <ele>39.066757</ele>
        <time>2020-07-15T22:12:23.393Z</time>
      </trkpt>
      <trkpt lat="64.33935" lon="11.26997">
        <ele>34.914218</ele>
        <time>2020-07-15T22:12:37.603Z</time>
      </trkpt>
      <trkpt lat="64.3394" lon="11.2704">
        <ele>34.307759</ele>
        <time>2020-07-15T22:12:40.132Z</time>
      </trkpt>
      <trkpt lat="64.33944" lon="11.27089">
        <ele>33.613619</ele>
        <time>2020-07-15T22:12:42.913Z</time>
      </trkpt>
      <trkpt lat="64.33995" lon="11.27443">
        <ele>30.62086</ele>
        <time>2020-07-15T22:13:05.112Z</time>
      </trkpt>
      <trkpt lat="64.34001" lon="11.27481">
        <ele>30.448685</ele>
        <time>2020-07-15T22:13:07.760Z</time>
      </trkpt>
      <trkpt lat="64.34005" lon="11.27511">
        <ele>30.309305</ele>
        <time>2020-07-15T22:13:10.460Z</time>
      </trkpt>
      <trkpt lat="64.34012" lon="11.27632">
        <ele>29.885736</ele>
        <time>2020-07-15T22:13:20.331Z</time>
      </trkpt>
      <trkpt lat="64.33991" lon="11.28049">
        <ele>35.009795</ele>
        <time>2020-07-15T22:14:10.376Z</time>
      </trkpt>
      <trkpt lat="64.33989" lon="11.28111">
        <ele>36.060347</ele>
        <time>2020-07-15T22:14:19.286Z</time>
      </trkpt>
      <trkpt lat="64.33987" lon="11.2819">
        <ele>37.392444</ele>
        <time>2020-07-15T22:14:29.812Z</time>
      </trkpt>
      <trkpt lat="64.33987" lon="11.28207">
        <ele>37.679234</ele>
        <time>2020-07-15T22:14:31.616Z</time>
      </trkpt>
      <trkpt lat="64.33988" lon="11.28227">
        <ele>38.000121</ele>
        <time>2020-07-15T22:14:34.151Z</time>
      </trkpt>
      <trkpt lat="64.33989" lon="11.28256">
        <ele>38.50636</ele>
        <time>2020-07-15T22:14:38.513Z</time>
      </trkpt>
      <trkpt lat="64.33994" lon="11.28302">
        <ele>39.287344</ele>
        <time>2020-07-15T22:14:44.116Z</time>
      </trkpt>
      <trkpt lat="64.33997" lon="11.28327">
        <ele>39.732344</ele>
        <time>2020-07-15T22:14:47.949Z</time>
      </trkpt>
      <trkpt lat="64.34002" lon="11.28352">
        <ele>40.181722</ele>
        <time>2020-07-15T22:14:51.650Z</time>
      </trkpt>
      <trkpt lat="64.34017" lon="11.28413">
        <ele>41.3581</ele>
        <time>2020-07-15T22:15:00.993Z</time>
      </trkpt>
      <trkpt lat="64.34048" lon="11.28495">
        <ele>43.252036</ele>
        <time>2020-07-15T22:15:14.708Z</time>
      </trkpt>
      <trkpt lat="64.34085" lon="11.28578">
        <ele>45.374507</ele>
        <time>2020-07-15T22:15:31.358Z</time>
      </trkpt>
      <trkpt lat="64.34141" lon="11.28704">
        <ele>48.554915</ele>
        <time>2020-07-15T22:15:55.523Z</time>
      </trkpt>
      <trkpt lat="64.34163" lon="11.28754">
        <ele>49.683792</ele>
        <time>2020-07-15T22:16:05.141Z</time>
      </trkpt>
      <trkpt lat="64.34182" lon="11.28794">
        <ele>50.523144</ele>
        <time>2020-07-15T22:16:13.213Z</time>
      </trkpt>
      <trkpt lat="64.3423" lon="11.2887">
        <ele>52.472302</ele>
        <time>2020-07-15T22:16:30.894Z</time>
      </trkpt>
      <trkpt lat="64.34263" lon="11.289">
        <ele>53.644627</ele>
        <time>2020-07-15T22:16:40.913Z</time>
      </trkpt>
      <trkpt lat="64.34302" lon="11.28918">
        <ele>54.981648</ele>
        <time>2020-07-15T22:16:51.489Z</time>
      </trkpt>
      <trkpt lat="64.34365" lon="11.2892">
        <ele>55.467417</ele>
        <time>2020-07-15T22:17:05.141Z</time>
      </trkpt>
      <trkpt lat="64.34586" lon="11.2889">
        <ele>56.160248</ele>
        <time>2020-07-15T22:17:44.659Z</time>
      </trkpt>
      <trkpt lat="64.34605" lon="11.28889">
        <ele>56.152953</ele>
        <time>2020-07-15T22:17:47.727Z</time>
      </trkpt>
      <trkpt lat="64.3463" lon="11.2889">
        <ele>56.143096</ele>
        <time>2020-07-15T22:17:52.177Z</time>
      </trkpt>
      <trkpt lat="64.34693" lon="11.28917">
        <ele>56.169258</ele>
        <time>2020-07-15T22:18:03.543Z</time>
      </trkpt>
      <trkpt lat="64.34854" lon="11.2907">
        <ele>56.868444</ele>
        <time>2020-07-15T22:18:35.452Z</time>
      </trkpt>
      <trkpt lat="64.3491" lon="11.29145">
        <ele>58.274978</ele>
        <time>2020-07-15T22:18:47.797Z</time>
      </trkpt>
      <trkpt lat="64.35036" lon="11.29358">
        <ele>63.356894</ele>
        <time>2020-07-15T22:19:35.423Z</time>
      </trkpt>
      <trkpt lat="64.35045" lon="11.29373">
        <ele>63.915348</ele>
        <time>2020-07-15T22:19:38.839Z</time>
      </trkpt>
      <trkpt lat="64.35065" lon="11.294">
        <ele>65.025628</ele>
        <time>2020-07-15T22:19:47.894Z</time>
      </trkpt>
      <trkpt lat="64.35123" lon="11.29449">
        <ele>67.994574</ele>
        <time>2020-07-15T22:20:10.750Z</time>
      </trkpt>
      <trkpt lat="64.35277" lon="11.29513">
        <ele>72.369816</ele>
        <time>2020-07-15T22:20:58.444Z</time>
      </trkpt>
      <trkpt lat="64.35377" lon="11.2958">
        <ele>71.236437</ele>
        <time>2020-07-15T22:21:13.409Z</time>
      </trkpt>
      <trkpt lat="64.35591" lon="11.29689">
        <ele>62.952234</ele>
        <time>2020-07-15T22:21:40.024Z</time>
      </trkpt>
      <trkpt lat="64.35609" lon="11.29704">
        <ele>62.186451</ele>
        <time>2020-07-15T22:21:42.415Z</time>
      </trkpt>
      <trkpt lat="64.35612" lon="11.29706">
        <ele>62.054671</ele>
        <time>2020-07-15T22:21:42.941Z</time>
      </trkpt>
      <trkpt lat="64.35674" lon="11.29781">
        <ele>59.491089</ele>
        <time>2020-07-15T22:21:52.387Z</time>
      </trkpt>
      <trkpt lat="64.35719" lon="11.29864">
        <ele>58.235359</ele>
        <time>2020-07-15T22:22:00.543Z</time>
      </trkpt>
      <trkpt lat="64.35729" lon="11.29886">
        <ele>57.935916</ele>
        <time>2020-07-15T22:22:02.450Z</time>
      </trkpt>
      <trkpt lat="64.35738" lon="11.29909">
        <ele>57.640867</ele>
        <time>2020-07-15T22:22:04.616Z</time>
      </trkpt>
      <trkpt lat="64.35747" lon="11.29933">
        <ele>57.338854</ele>
        <time>2020-07-15T22:22:06.696Z</time>
      </trkpt>
      <trkpt lat="64.35757" lon="11.29962">
        <ele>56.993509</ele>
        <time>2020-07-15T22:22:09.120Z</time>
      </trkpt>
      <trkpt lat="64.35774" lon="11.30019">
        <ele>56.343257</ele>
        <time>2020-07-15T22:22:13.451Z</time>
      </trkpt>
      <trkpt lat="64.35887" lon="11.30422">
        <ele>49.440661</ele>
        <time>2020-07-15T22:22:40.247Z</time>
      </trkpt>
      <trkpt lat="64.35956" lon="11.30668">
        <ele>44.667435</ele>
        <time>2020-07-15T22:22:56.079Z</time>
      </trkpt>
      <trkpt lat="64.35974" lon="11.30731">
        <ele>43.450288</ele>
        <time>2020-07-15T22:23:00.261Z</time>
      </trkpt>
      <trkpt lat="64.35982" lon="11.30761">
        <ele>42.873096</ele>
        <time>2020-07-15T22:23:02.298Z</time>
      </trkpt>
      <trkpt lat="64.36" lon="11.30826">
        <ele>42.376648</ele>
        <time>2020-07-15T22:23:06.767Z</time>
      </trkpt>
      <trkpt lat="64.36045" lon="11.30983">
        <ele>41.157924</ele>
        <time>2020-07-15T22:23:18.696Z</time>
      </trkpt>
      <trkpt lat="64.36083" lon="11.31097">
        <ele>40.222442</ele>
        <time>2020-07-15T22:23:29.063Z</time>
      </trkpt>
      <trkpt lat="64.36125" lon="11.31194">
        <ele>39.998222</ele>
        <time>2020-07-15T22:23:39.451Z</time>
      </trkpt>
      <trkpt lat="64.36141" lon="11.31227">
        <ele>39.925629</ele>
        <time>2020-07-15T22:23:43.308Z</time>
      </trkpt>
      <trkpt lat="64.36147" lon="11.31238">
        <ele>39.901558</ele>
        <time>2020-07-15T22:23:44.578Z</time>
      </trkpt>
      <trkpt lat="64.36175" lon="11.31287">
        <ele>39.78322</ele>
        <time>2020-07-15T22:23:50.901Z</time>
      </trkpt>
      <trkpt lat="64.36233" lon="11.31384">
        <ele>39.271262</ele>
        <time>2020-07-15T22:24:03.127Z</time>
      </trkpt>
      <trkpt lat="64.36327" lon="11.31539">
        <ele>36.451778</ele>
        <time>2020-07-15T22:24:19.704Z</time>
      </trkpt>
      <trkpt lat="64.36492" lon="11.31813">
        <ele>27.805866</ele>
        <time>2020-07-15T22:24:44.580Z</time>
      </trkpt>
      <trkpt lat="64.36511" lon="11.31845">
        <ele>26.703891</ele>
        <time>2020-07-15T22:24:47.256Z</time>
      </trkpt>
      <trkpt lat="64.36545" lon="11.31927">
        <ele>24.587043</ele>
        <time>2020-07-15T22:24:53.202Z</time>
      </trkpt>
      <trkpt lat="64.36572" lon="11.32043">
        <ele>22.166298</ele>
        <time>2020-07-15T22:25:00.211Z</time>
      </trkpt>
      <trkpt lat="64.36577" lon="11.32083">
        <ele>21.412666</ele>
        <time>2020-07-15T22:25:02.425Z</time>
      </trkpt>
      <trkpt lat="64.36603" lon="11.32347">
        <ele>17.717859</ele>
        <time>2020-07-15T22:25:18.021Z</time>
      </trkpt>
      <trkpt lat="64.36609" lon="11.32415">
        <ele>17.120809</ele>
        <time>2020-07-15T22:25:22.139Z</time>
      </trkpt>
      <trkpt lat="64.36613" lon="11.32474">
        <ele>16.606696</ele>
        <time>2020-07-15T22:25:25.952Z</time>
      </trkpt>
      <trkpt lat="64.36616" lon="11.32562">
        <ele>15.849804</ele>
        <time>2020-07-15T22:25:31.647Z</time>
      </trkpt>
      <trkpt lat="64.36616" lon="11.32592">
        <ele>15.590675</ele>
        <time>2020-07-15T22:25:33.605Z</time>
      </trkpt>
      <trkpt lat="64.36615" lon="11.32625">
        <ele>15.3113</ele>
        <time>2020-07-15T22:25:35.789Z</time>
      </trkpt>
      <trkpt lat="64.36615" lon="11.32628">
        <ele>15.28368</ele>
        <time>2020-07-15T22:25:35.970Z</time>
      </trkpt>
      <trkpt lat="64.36611" lon="11.32705">
        <ele>15.197057</ele>
        <time>2020-07-15T22:25:41.171Z</time>
      </trkpt>
      <trkpt lat="64.36604" lon="11.32784">
        <ele>15.122439</ele>
        <time>2020-07-15T22:25:46.666Z</time>
      </trkpt>
      <trkpt lat="64.366" lon="11.32822">
        <ele>15.084978</ele>
        <time>2020-07-15T22:25:49.714Z</time>
      </trkpt>
      <trkpt lat="64.36581" lon="11.32937">
        <ele>14.971364</ele>
        <time>2020-07-15T22:25:59.127Z</time>
      </trkpt>
      <trkpt lat="64.3655" lon="11.33069">
        <ele>15.1941</ele>
        <time>2020-07-15T22:26:11.822Z</time>
      </trkpt>
      <trkpt lat="64.36541" lon="11.33102">
        <ele>15.422848</ele>
        <time>2020-07-15T22:26:15.095Z</time>
      </trkpt>
      <trkpt lat="64.36539" lon="11.33108">
        <ele>15.466266</ele>
        <time>2020-07-15T22:26:16.013Z</time>
      </trkpt>
      <trkpt lat="64.36429" lon="11.33502">
        <ele>19.2927</ele>
        <time>2020-07-15T22:27:02.968Z</time>
      </trkpt>
      <trkpt lat="64.36415" lon="11.33614">
        <ele>20.769001</ele>
        <time>2020-07-15T22:27:15.981Z</time>
      </trkpt>
      <trkpt lat="64.36414" lon="11.33729">
        <ele>22.236599</ele>
        <time>2020-07-15T22:27:29.580Z</time>
      </trkpt>
      <trkpt lat="64.36419" lon="11.34058">
        <ele>31.944243</ele>
        <time>2020-07-15T22:28:25.389Z</time>
      </trkpt>
      <trkpt lat="64.3642" lon="11.34102">
        <ele>33.315045</ele>
        <time>2020-07-15T22:28:34.949Z</time>
      </trkpt>
      <trkpt lat="64.36427" lon="11.34214">
        <ele>36.709407</ele>
        <time>2020-07-15T22:28:57.735Z</time>
      </trkpt>
      <trkpt lat="64.36439" lon="11.34319">
        <ele>39.708808</ele>
        <time>2020-07-15T22:29:22.510Z</time>
      </trkpt>
      <trkpt lat="64.3648" lon="11.34503">
        <ele>45.461624</ele>
        <time>2020-07-15T22:29:57.900Z</time>
      </trkpt>
      <trkpt lat="64.36504" lon="11.34579">
        <ele>46.251738</ele>
        <time>2020-07-15T22:30:06.817Z</time>
      </trkpt>
      <trkpt lat="64.36529" lon="11.34655">
        <ele>43.652001</ele>
        <time>2020-07-15T22:30:12.607Z</time>
      </trkpt>
      <trkpt lat="64.36544" lon="11.34696">
        <ele>42.240544</ele>
        <time>2020-07-15T22:30:15.406Z</time>
      </trkpt>
      <trkpt lat="64.3671" lon="11.35146">
        <ele>21.171287</ele>
        <time>2020-07-15T22:30:43.145Z</time>
      </trkpt>
      <trkpt lat="64.36767" lon="11.35301">
        <ele>16.224528</ele>
        <time>2020-07-15T22:30:53.548Z</time>
      </trkpt>
      <trkpt lat="64.36898" lon="11.35657">
        <ele>9.998065</ele>
        <time>2020-07-15T22:31:21.428Z</time>
      </trkpt>
      <trkpt lat="64.37013" lon="11.35977">
        <ele>7.468169</ele>
        <time>2020-07-15T22:31:48.077Z</time>
      </trkpt>
      <trkpt lat="64.37114" lon="11.36241">
        <ele>6.195512</ele>
        <time>2020-07-15T22:32:13.542Z</time>
      </trkpt>
      <trkpt lat="64.3715" lon="11.36339">
        <ele>5.783958</ele>
        <time>2020-07-15T22:32:22.661Z</time>
      </trkpt>
      <trkpt lat="64.37206" lon="11.36493">
        <ele>4.97473</ele>
        <time>2020-07-15T22:32:36.011Z</time>
      </trkpt>
      <trkpt lat="64.37247" lon="11.36602">
        <ele>4.025105</ele>
        <time>2020-07-15T22:32:45.260Z</time>
      </trkpt>
      <trkpt lat="64.37299" lon="11.36741">
        <ele>2.830043</ele>
        <time>2020-07-15T22:32:56.509Z</time>
      </trkpt>
      <trkpt lat="64.37402" lon="11.37012">
        <ele>1.05192</ele>
        <time>2020-07-15T22:33:19.955Z</time>
      </trkpt>
      <trkpt lat="64.37523" lon="11.3724">
        <ele>0.241054</ele>
        <time>2020-07-15T22:33:46.168Z</time>
      </trkpt>
      <trkpt lat="64.37535" lon="11.37268">
        <ele>0.188294</ele>
        <time>2020-07-15T22:33:49.119Z</time>
      </trkpt>
      <trkpt lat="64.37554" lon="11.37316">
        <ele>0.098398</ele>
        <time>2020-07-15T22:33:54.176Z</time>
      </trkpt>
      <trkpt lat="64.37632" lon="11.37511">
        <ele>0.119514</ele>
        <time>2020-07-15T22:34:14.482Z</time>
      </trkpt>
      <trkpt lat="64.37696" lon="11.37602">
        <ele>0.183963</ele>
        <time>2020-07-15T22:34:28.319Z</time>
      </trkpt>
      <trkpt lat="64.37709" lon="11.37614">
        <ele>0.20692</ele>
        <time>2020-07-15T22:34:30.969Z</time>
      </trkpt>
      <trkpt lat="64.37707" lon="11.37626">
        <ele>0.223644</ele>
        <time>2020-07-15T22:34:31.942Z</time>
      </trkpt>
      <trkpt lat="64.37754" lon="11.3768">
        <ele>0.393708</ele>
        <time>2020-07-15T22:34:41.955Z</time>
      </trkpt>
      <trkpt lat="64.37795" lon="11.37711">
        <ele>0.530541</ele>
        <time>2020-07-15T22:34:50.033Z</time>
      </trkpt>
      <trkpt lat="64.37835" lon="11.3772">
        <ele>0.660036</ele>
        <time>2020-07-15T22:34:57.679Z</time>
      </trkpt>
      <trkpt lat="64.37883" lon="11.3771">
        <ele>0.777557</ele>
        <time>2020-07-15T22:35:06.854Z</time>
      </trkpt>
      <trkpt lat="64.37906" lon="11.37719">
        <ele>0.789545</ele>
        <time>2020-07-15T22:35:11.282Z</time>
      </trkpt>
      <trkpt lat="64.37935" lon="11.37754">
        <ele>0.80631</ele>
        <time>2020-07-15T22:35:17.363Z</time>
      </trkpt>
      <trkpt lat="64.37965" lon="11.37815">
        <ele>0.826633</ele>
        <time>2020-07-15T22:35:24.521Z</time>
      </trkpt>
      <trkpt lat="64.37977" lon="11.37895">
        <ele>0.845411</ele>
        <time>2020-07-15T22:35:30.901Z</time>
      </trkpt>
      <trkpt lat="64.37974" lon="11.37975">
        <ele>0.860382</ele>
        <time>2020-07-15T22:35:36.814Z</time>
      </trkpt>
      <trkpt lat="64.37961" lon="11.38034">
        <ele>0.826418</ele>
        <time>2020-07-15T22:35:41.671Z</time>
      </trkpt>
      <trkpt lat="64.37927" lon="11.38125">
        <ele>0.76458</ele>
        <time>2020-07-15T22:35:50.499Z</time>
      </trkpt>
      <trkpt lat="64.37922" lon="11.38165">
        <ele>0.742842</ele>
        <time>2020-07-15T22:35:53.674Z</time>
      </trkpt>
      <trkpt lat="64.37925" lon="11.38207">
        <ele>0.720932</ele>
        <time>2020-07-15T22:35:56.818Z</time>
      </trkpt>
      <trkpt lat="64.37942" lon="11.38272">
        <ele>0.681236</ele>
        <time>2020-07-15T22:36:02.623Z</time>
      </trkpt>
      <trkpt lat="64.37944" lon="11.38284">
        <ele>0.674778</ele>
        <time>2020-07-15T22:36:03.545Z</time>
      </trkpt>
      <trkpt lat="64.37945" lon="11.38296">
        <ele>0.668369</ele>
        <time>2020-07-15T22:36:04.560Z</time>
      </trkpt>
      <trkpt lat="64.37944" lon="11.38333">
        <ele>0.649087</ele>
        <time>2020-07-15T22:36:07.376Z</time>
      </trkpt>
      <trkpt lat="64.37929" lon="11.38424">
        <ele>0.88298</ele>
        <time>2020-07-15T22:36:15.373Z</time>
      </trkpt>
      <trkpt lat="64.37911" lon="11.38593">
        <ele>1.318162</ele>
        <time>2020-07-15T22:36:30.527Z</time>
      </trkpt>
      <trkpt lat="64.37908" lon="11.38622">
        <ele>1.393334</ele>
        <time>2020-07-15T22:36:33.081Z</time>
      </trkpt>
      <trkpt lat="64.37899" lon="11.38703">
        <ele>1.600935</ele>
        <time>2020-07-15T22:36:40.520Z</time>
      </trkpt>
      <trkpt lat="64.379" lon="11.3871">
        <ele>1.617943</ele>
        <time>2020-07-15T22:36:41.105Z</time>
      </trkpt>
      <trkpt lat="64.379" lon="11.38713">
        <ele>1.625765</ele>
        <time>2020-07-15T22:36:41.806Z</time>
      </trkpt>
      <trkpt lat="64.37906" lon="11.38738">
        <ele>1.691051</ele>
        <time>2020-07-15T22:36:44.279Z</time>
      </trkpt>
      <trkpt lat="64.37916" lon="11.38748">
        <ele>1.716082</ele>
        <time>2020-07-15T22:36:46.347Z</time>
      </trkpt>
      <trkpt lat="64.38011" lon="11.38742">
        <ele>1.938399</ele>
        <time>2020-07-15T22:37:05.025Z</time>
      </trkpt>
      <trkpt lat="64.38048" lon="11.38762">
        <ele>2.026736</ele>
        <time>2020-07-15T22:37:11.716Z</time>
      </trkpt>
      <trkpt lat="64.3806" lon="11.38796">
        <ele>2.071217</ele>
        <time>2020-07-15T22:37:14.861Z</time>
      </trkpt>
      <trkpt lat="64.38078" lon="11.3895">
        <ele>1.763315</ele>
        <time>2020-07-15T22:37:26.140Z</time>
      </trkpt>
      <trkpt lat="64.38079" lon="11.38959">
        <ele>1.736802</ele>
        <time>2020-07-15T22:37:26.659Z</time>
      </trkpt>
      <trkpt lat="64.38079" lon="11.38964">
        <ele>1.724732</ele>
        <time>2020-07-15T22:37:26.909Z</time>
      </trkpt>
      <trkpt lat="64.38053" lon="11.39163">
        <ele>1.153482</ele>
        <time>2020-07-15T22:37:41.587Z</time>
      </trkpt>
      <trkpt lat="64.38054" lon="11.39218">
        <ele>1.003745</ele>
        <time>2020-07-15T22:37:45.303Z</time>
      </trkpt>
      <trkpt lat="64.38056" lon="11.39231">
        <ele>0.965884</ele>
        <time>2020-07-15T22:37:46.415Z</time>
      </trkpt>
      <trkpt lat="64.3806" lon="11.39251">
        <ele>0.944976</ele>
        <time>2020-07-15T22:37:48.316Z</time>
      </trkpt>
      <trkpt lat="64.38081" lon="11.39296">
        <ele>0.88326</ele>
        <time>2020-07-15T22:37:52.856Z</time>
      </trkpt>
      <trkpt lat="64.38166" lon="11.39377">
        <ele>0.687326</ele>
        <time>2020-07-15T22:38:08.765Z</time>
      </trkpt>
      <trkpt lat="64.38175" lon="11.39372">
        <ele>0.667869</ele>
        <time>2020-07-15T22:38:10.331Z</time>
      </trkpt>
      <trkpt lat="64.38182" lon="11.39357">
        <ele>0.64708</ele>
        <time>2020-07-15T22:38:12.267Z</time>
      </trkpt>
      <trkpt lat="64.38191" lon="11.39381">
        <ele>0.617545</ele>
        <time>2020-07-15T22:38:14.511Z</time>
      </trkpt>
      <trkpt lat="64.38233" lon="11.39479">
        <ele>0.517832</ele>
        <time>2020-07-15T22:38:25.301Z</time>
      </trkpt>
      <trkpt lat="64.38261" lon="11.39539">
        <ele>0.461771</ele>
        <time>2020-07-15T22:38:32.010Z</time>
      </trkpt>
      <trkpt lat="64.38257" lon="11.39548">
        <ele>0.453928</ele>
        <time>2020-07-15T22:38:33.108Z</time>
      </trkpt>
      <trkpt lat="64.38256" lon="11.39555">
        <ele>0.448863</ele>
        <time>2020-07-15T22:38:33.841Z</time>
      </trkpt>
      <trkpt lat="64.3826" lon="11.39564">
        <ele>0.440575</ele>
        <time>2020-07-15T22:38:35.456Z</time>
      </trkpt>
      <trkpt lat="64.38293" lon="11.39649">
        <ele>0.367438</ele>
        <time>2020-07-15T22:38:49.777Z</time>
      </trkpt>
      <trkpt lat="64.38299" lon="11.39663">
        <ele>0.354094</ele>
        <time>2020-07-15T22:38:52.416Z</time>
      </trkpt>
      <trkpt lat="64.38351" lon="11.39782">
        <ele>0.337752</ele>
        <time>2020-07-15T22:39:13.600Z</time>
      </trkpt>
      <trkpt lat="64.38353" lon="11.39787">
        <ele>0.339391</ele>
        <time>2020-07-15T22:39:14.502Z</time>
      </trkpt>
      <trkpt lat="64.38385" lon="11.39862">
        <ele>0.362215</ele>
        <time>2020-07-15T22:39:28.280Z</time>
      </trkpt>
      <trkpt lat="64.38388" lon="11.3987">
        <ele>0.364683</ele>
        <time>2020-07-15T22:39:29.777Z</time>
      </trkpt>
      <trkpt lat="64.38413" lon="11.39894">
        <ele>0.377998</ele>
        <time>2020-07-15T22:39:37.759Z</time>
      </trkpt>
      <trkpt lat="64.38438" lon="11.39907">
        <ele>0.391146</ele>
        <time>2020-07-15T22:39:45.726Z</time>
      </trkpt>
      <trkpt lat="64.3844" lon="11.39892">
        <ele>0.394613</ele>
        <time>2020-07-15T22:39:46.973Z</time>
      </trkpt>
      <trkpt lat="64.38449" lon="11.39898">
        <ele>0.399431</ele>
        <time>2020-07-15T22:39:48.783Z</time>
      </trkpt>
      <trkpt lat="64.38463" lon="11.39904">
        <ele>0.411287</ele>
        <time>2020-07-15T22:39:51.312Z</time>
      </trkpt>
      <trkpt lat="64.38481" lon="11.3991">
        <ele>0.458656</ele>
        <time>2020-07-15T22:39:54.599Z</time>
      </trkpt>
      <trkpt lat="64.38481" lon="11.39902">
        <ele>0.467028</ele>
        <time>2020-07-15T22:39:55.626Z</time>
      </trkpt>
      <trkpt lat="64.38481" lon="11.39894">
        <ele>0.476515</ele>
        <time>2020-07-15T22:39:56.708Z</time>
      </trkpt>
      <trkpt lat="64.38512" lon="11.39902">
        <ele>0.556284</ele>
        <time>2020-07-15T22:40:06.057Z</time>
      </trkpt>
      <trkpt lat="64.38571" lon="11.39914">
        <ele>0.710422</ele>
        <time>2020-07-15T22:40:24.299Z</time>
      </trkpt>
      <trkpt lat="64.38628" lon="11.39929">
        <ele>0.857656</ele>
        <time>2020-07-15T22:40:41.825Z</time>
      </trkpt>
      <trkpt lat="64.38641" lon="11.39933">
        <ele>0.989667</ele>
        <time>2020-07-15T22:40:45.736Z</time>
      </trkpt>
      <trkpt lat="64.3865" lon="11.39939">
        <ele>1.138498</ele>
        <time>2020-07-15T22:40:48.824Z</time>
      </trkpt>
      <trkpt lat="64.38653" lon="11.39941">
        <ele>1.181718</ele>
        <time>2020-07-15T22:40:49.712Z</time>
      </trkpt>
      <trkpt lat="64.38656" lon="11.39942">
        <ele>1.230284</ele>
        <time>2020-07-15T22:40:50.768Z</time>
      </trkpt>
      <trkpt lat="64.38667" lon="11.39944">
        <ele>1.381408</ele>
        <time>2020-07-15T22:40:54.007Z</time>
      </trkpt>
      <trkpt lat="64.38713" lon="11.39955">
        <ele>2.05592</ele>
        <time>2020-07-15T22:41:08.756Z</time>
      </trkpt>
      <trkpt lat="64.38716" lon="11.39956">
        <ele>2.105757</ele>
        <time>2020-07-15T22:41:09.876Z</time>
      </trkpt>
      <trkpt lat="64.38751" lon="11.39959">
        <ele>2.611812</ele>
        <time>2020-07-15T22:41:21.416Z</time>
      </trkpt>
      <trkpt lat="64.38796" lon="11.3997">
        <ele>3.277471</ele>
        <time>2020-07-15T22:41:37.845Z</time>
      </trkpt>
      <trkpt lat="64.38904" lon="11.39994">
        <ele>7.480322</ele>
        <time>2020-07-15T22:42:23.553Z</time>
      </trkpt>
      <trkpt lat="64.38975" lon="11.40009">
        <ele>10.512886</ele>
        <time>2020-07-15T22:42:56.552Z</time>
      </trkpt>
      <trkpt lat="64.39071" lon="11.40032">
        <ele>14.11353</ele>
        <time>2020-07-15T22:43:39.962Z</time>
      </trkpt>
      <trkpt lat="64.39163" lon="11.40054">
        <ele>17.496584</ele>
        <time>2020-07-15T22:44:16.855Z</time>
      </trkpt>
      <trkpt lat="64.39188" lon="11.40058">
        <ele>17.884149</ele>
        <time>2020-07-15T22:44:25.751Z</time>
      </trkpt>
      <trkpt lat="64.39187" lon="11.40077">
        <ele>17.952007</ele>
        <time>2020-07-15T22:44:28.657Z</time>
      </trkpt>
      <trkpt lat="64.3921" lon="11.40085">
        <ele>18.141377</ele>
        <time>2020-07-15T22:44:33.453Z</time>
      </trkpt>
      <trkpt lat="64.39223" lon="11.40092">
        <ele>18.248698</ele>
        <time>2020-07-15T22:44:36.037Z</time>
      </trkpt>
      <trkpt lat="64.39247" lon="11.40108">
        <ele>18.455042</ele>
        <time>2020-07-15T22:44:40.753Z</time>
      </trkpt>
      <trkpt lat="64.39255" lon="11.40113">
        <ele>18.519562</ele>
        <time>2020-07-15T22:44:42.278Z</time>
      </trkpt>
      <trkpt lat="64.39272" lon="11.40126">
        <ele>18.667411</ele>
        <time>2020-07-15T22:44:45.704Z</time>
      </trkpt>
      <trkpt lat="64.393" lon="11.40152">
        <ele>18.917257</ele>
        <time>2020-07-15T22:44:51.502Z</time>
      </trkpt>
      <trkpt lat="64.39314" lon="11.40164">
        <ele>19.041286</ele>
        <time>2020-07-15T22:44:54.321Z</time>
      </trkpt>
      <trkpt lat="64.39354" lon="11.40194">
        <ele>19.279347</ele>
        <time>2020-07-15T22:45:02.036Z</time>
      </trkpt>
      <trkpt lat="64.39366" lon="11.40201">
        <ele>19.32323</ele>
        <time>2020-07-15T22:45:04.277Z</time>
      </trkpt>
      <trkpt lat="64.3939" lon="11.40213">
        <ele>19.41065</ele>
        <time>2020-07-15T22:45:08.754Z</time>
      </trkpt>
      <trkpt lat="64.395" lon="11.40262">
        <ele>19.80555</ele>
        <time>2020-07-15T22:45:30.450Z</time>
      </trkpt>
      <trkpt lat="64.39552" lon="11.40309">
        <ele>19.832224</ele>
        <time>2020-07-15T22:45:41.348Z</time>
      </trkpt>
      <trkpt lat="64.39585" lon="11.40347">
        <ele>19.83005</ele>
        <time>2020-07-15T22:45:47.954Z</time>
      </trkpt>
      <trkpt lat="64.3966" lon="11.40437">
        <ele>19.825087</ele>
        <time>2020-07-15T22:46:02.356Z</time>
      </trkpt>
      <trkpt lat="64.39684" lon="11.40467">
        <ele>19.853459</ele>
        <time>2020-07-15T22:46:07.222Z</time>
      </trkpt>
      <trkpt lat="64.39687" lon="11.4047">
        <ele>19.857883</ele>
        <time>2020-07-15T22:46:07.539Z</time>
      </trkpt>
      <trkpt lat="64.39767" lon="11.40576">
        <ele>20.022008</ele>
        <time>2020-07-15T22:46:22.656Z</time>
      </trkpt>
      <trkpt lat="64.399" lon="11.40776">
        <ele>22.657126</ele>
        <time>2020-07-15T22:46:57.129Z</time>
      </trkpt>
      <trkpt lat="64.39908" lon="11.4079">
        <ele>22.94041</ele>
        <time>2020-07-15T22:47:00.398Z</time>
      </trkpt>
      <trkpt lat="64.39937" lon="11.40845">
        <ele>23.99464</ele>
        <time>2020-07-15T22:47:11.590Z</time>
      </trkpt>
      <trkpt lat="64.3997" lon="11.40928">
        <ele>25.528313</ele>
        <time>2020-07-15T22:47:27.192Z</time>
      </trkpt>
      <trkpt lat="64.39994" lon="11.41012">
        <ele>27.945607</ele>
        <time>2020-07-15T22:47:42.472Z</time>
      </trkpt>
      <trkpt lat="64.4001" lon="11.41101">
        <ele>30.248527</ele>
        <time>2020-07-15T22:47:57.892Z</time>
      </trkpt>
      <trkpt lat="64.40019" lon="11.41176">
        <ele>32.119525</ele>
        <time>2020-07-15T22:48:10.123Z</time>
      </trkpt>
      <trkpt lat="64.40025" lon="11.41282">
        <ele>34.654394</ele>
        <time>2020-07-15T22:48:27.195Z</time>
      </trkpt>
      <trkpt lat="64.40019" lon="11.41544">
        <ele>40.047359</ele>
        <time>2020-07-15T22:49:07.041Z</time>
      </trkpt>
      <trkpt lat="64.40019" lon="11.41589">
        <ele>40.955202</ele>
        <time>2020-07-15T22:49:13.286Z</time>
      </trkpt>
      <trkpt lat="64.4002" lon="11.41644">
        <ele>42.058827</ele>
        <time>2020-07-15T22:49:20.560Z</time>
      </trkpt>
      <trkpt lat="64.40034" lon="11.41802">
        <ele>44.183318</ele>
        <time>2020-07-15T22:49:40.400Z</time>
      </trkpt>
      <trkpt lat="64.40071" lon="11.42011">
        <ele>45.817944</ele>
        <time>2020-07-15T22:50:03.486Z</time>
      </trkpt>
      <trkpt lat="64.40203" lon="11.42738">
        <ele>45.320622</ele>
        <time>2020-07-15T22:51:01.888Z</time>
      </trkpt>
      <trkpt lat="64.40256" lon="11.43026">
        <ele>43.442842</ele>
        <time>2020-07-15T22:51:21.565Z</time>
      </trkpt>
      <trkpt lat="64.40284" lon="11.43153">
        <ele>42.249715</ele>
        <time>2020-07-15T22:51:30.168Z</time>
      </trkpt>
      <trkpt lat="64.40358" lon="11.43397">
        <ele>39.974704</ele>
        <time>2020-07-15T22:51:48.027Z</time>
      </trkpt>
      <trkpt lat="64.40381" lon="11.43495">
        <ele>39.165958</ele>
        <time>2020-07-15T22:51:55.087Z</time>
      </trkpt>
      <trkpt lat="64.40386" lon="11.43522">
        <ele>38.958694</ele>
        <time>2020-07-15T22:51:56.821Z</time>
      </trkpt>
      <trkpt lat="64.40406" lon="11.43655">
        <ele>38.356957</ele>
        <time>2020-07-15T22:52:06.325Z</time>
      </trkpt>
      <trkpt lat="64.40486" lon="11.44189">
        <ele>39.537491</ele>
        <time>2020-07-15T22:52:52.624Z</time>
      </trkpt>
      <trkpt lat="64.4052" lon="11.44421">
        <ele>41.150976</ele>
        <time>2020-07-15T22:53:18.486Z</time>
      </trkpt>
      <trkpt lat="64.40527" lon="11.44477">
        <ele>41.912155</ele>
        <time>2020-07-15T22:53:25.009Z</time>
      </trkpt>
      <trkpt lat="64.40531" lon="11.44529">
        <ele>42.614543</ele>
        <time>2020-07-15T22:53:31.250Z</time>
      </trkpt>
      <trkpt lat="64.40534" lon="11.4458">
        <ele>43.285401</ele>
        <time>2020-07-15T22:53:37.618Z</time>
      </trkpt>
      <trkpt lat="64.40536" lon="11.44632">
        <ele>43.983618</ele>
        <time>2020-07-15T22:53:43.951Z</time>
      </trkpt>
      <trkpt lat="64.40543" lon="11.44876">
        <ele>47.062628</ele>
        <time>2020-07-15T22:54:14.730Z</time>
      </trkpt>
      <trkpt lat="64.40551" lon="11.45131">
        <ele>49.984082</ele>
        <time>2020-07-15T22:54:44.594Z</time>
      </trkpt>
      <trkpt lat="64.40559" lon="11.45433">
        <ele>51.763643</ele>
        <time>2020-07-15T22:55:13.520Z</time>
      </trkpt>
      <trkpt lat="64.40573" lon="11.45914">
        <ele>52.892111</ele>
        <time>2020-07-15T22:55:52.482Z</time>
      </trkpt>
      <trkpt lat="64.40578" lon="11.46083">
        <ele>53.152017</ele>
        <time>2020-07-15T22:56:06.477Z</time>
      </trkpt>
      <trkpt lat="64.40578" lon="11.46229">
        <ele>53.461213</ele>
        <time>2020-07-15T22:56:18.793Z</time>
      </trkpt>
      <trkpt lat="64.40564" lon="11.46567">
        <ele>54.026553</ele>
        <time>2020-07-15T22:56:47.167Z</time>
      </trkpt>
      <trkpt lat="64.40567" lon="11.46649">
        <ele>54.08207</ele>
        <time>2020-07-15T22:56:53.774Z</time>
      </trkpt>
      <trkpt lat="64.40576" lon="11.46711">
        <ele>54.125836</ele>
        <time>2020-07-15T22:56:58.917Z</time>
      </trkpt>
      <trkpt lat="64.40593" lon="11.46787">
        <ele>54.183291</ele>
        <time>2020-07-15T22:57:05.572Z</time>
      </trkpt>
      <trkpt lat="64.40672" lon="11.47041">
        <ele>54.040715</ele>
        <time>2020-07-15T22:57:29.068Z</time>
      </trkpt>
      <trkpt lat="64.40761" lon="11.47322">
        <ele>53.761241</ele>
        <time>2020-07-15T22:57:54.856Z</time>
      </trkpt>
      <trkpt lat="64.4083" lon="11.47541">
        <ele>53.576279</ele>
        <time>2020-07-15T22:58:15.286Z</time>
      </trkpt>
      <trkpt lat="64.40832" lon="11.47548">
        <ele>53.579387</ele>
        <time>2020-07-15T22:58:15.873Z</time>
      </trkpt>
      <trkpt lat="64.40883" lon="11.47706">
        <ele>53.656188</ele>
        <time>2020-07-15T22:58:31.354Z</time>
      </trkpt>
      <trkpt lat="64.40912" lon="11.47776">
        <ele>53.693698</ele>
        <time>2020-07-15T22:58:38.961Z</time>
      </trkpt>
      <trkpt lat="64.40923" lon="11.47797">
        <ele>53.706402</ele>
        <time>2020-07-15T22:58:41.572Z</time>
      </trkpt>
      <trkpt lat="64.4094" lon="11.47829">
        <ele>53.726294</ele>
        <time>2020-07-15T22:58:45.599Z</time>
      </trkpt>
      <trkpt lat="64.40945" lon="11.47818">
        <ele>53.73796</ele>
        <time>2020-07-15T22:58:46.999Z</time>
      </trkpt>
      <trkpt lat="64.40955" lon="11.47836">
        <ele>53.76353</ele>
        <time>2020-07-15T22:58:49.403Z</time>
      </trkpt>
      <trkpt lat="64.40969" lon="11.47861">
        <ele>53.800712</ele>
        <time>2020-07-15T22:58:52.706Z</time>
      </trkpt>
      <trkpt lat="64.41122" lon="11.48144">
        <ele>54.213739</ele>
        <time>2020-07-15T22:59:29.024Z</time>
      </trkpt>
      <trkpt lat="64.41175" lon="11.4824">
        <ele>54.363465</ele>
        <time>2020-07-15T22:59:41.445Z</time>
      </trkpt>
      <trkpt lat="64.41199" lon="11.48281">
        <ele>54.430961</ele>
        <time>2020-07-15T22:59:47.043Z</time>
      </trkpt>
      <trkpt lat="64.41226" lon="11.48323">
        <ele>54.503398</ele>
        <time>2020-07-15T22:59:53.065Z</time>
      </trkpt>
      <trkpt lat="64.41301" lon="11.48433">
        <ele>54.708688</ele>
        <time>2020-07-15T23:00:09.667Z</time>
      </trkpt>
      <trkpt lat="64.41341" lon="11.48488">
        <ele>54.814484</ele>
        <time>2020-07-15T23:00:18.163Z</time>
      </trkpt>
      <trkpt lat="64.41472" lon="11.48677">
        <ele>55.230723</ele>
        <time>2020-07-15T23:00:47.132Z</time>
      </trkpt>
      <trkpt lat="64.41492" lon="11.48705">
        <ele>55.296669</ele>
        <time>2020-07-15T23:00:51.516Z</time>
      </trkpt>
      <trkpt lat="64.4161" lon="11.48875">
        <ele>55.754282</ele>
        <time>2020-07-15T23:01:17.503Z</time>
      </trkpt>
      <trkpt lat="64.41668" lon="11.48941">
        <ele>55.982846</ele>
        <time>2020-07-15T23:01:29.792Z</time>
      </trkpt>
      <trkpt lat="64.4172" lon="11.48962">
        <ele>56.279919</ele>
        <time>2020-07-15T23:01:39.874Z</time>
      </trkpt>
      <trkpt lat="64.41729" lon="11.48962">
        <ele>56.351836</ele>
        <time>2020-07-15T23:01:41.795Z</time>
      </trkpt>
      <trkpt lat="64.4189" lon="11.48957">
        <ele>57.607706</ele>
        <time>2020-07-15T23:02:14.468Z</time>
      </trkpt>
      <trkpt lat="64.42029" lon="11.48952">
        <ele>59.166236</ele>
        <time>2020-07-15T23:02:44.675Z</time>
      </trkpt>
      <trkpt lat="64.42089" lon="11.48971">
        <ele>59.801398</ele>
        <time>2020-07-15T23:02:58.057Z</time>
      </trkpt>
      <trkpt lat="64.42117" lon="11.4899">
        <ele>60.094491</ele>
        <time>2020-07-15T23:03:04.389Z</time>
      </trkpt>
      <trkpt lat="64.42178" lon="11.4903">
        <ele>60.735596</ele>
        <time>2020-07-15T23:03:17.847Z</time>
      </trkpt>
      <trkpt lat="64.42243" lon="11.49073">
        <ele>61.131747</ele>
        <time>2020-07-15T23:03:31.604Z</time>
      </trkpt>
      <trkpt lat="64.42288" lon="11.49076">
        <ele>60.937895</ele>
        <time>2020-07-15T23:03:39.588Z</time>
      </trkpt>
      <trkpt lat="64.42389" lon="11.49036">
        <ele>60.490359</ele>
        <time>2020-07-15T23:03:55.868Z</time>
      </trkpt>
      <trkpt lat="64.42414" lon="11.49027">
        <ele>60.241992</ele>
        <time>2020-07-15T23:03:59.641Z</time>
      </trkpt>
      <trkpt lat="64.42417" lon="11.4902">
        <ele>60.173032</ele>
        <time>2020-07-15T23:04:00.360Z</time>
      </trkpt>
      <trkpt lat="64.42419" lon="11.49014">
        <ele>60.123413</ele>
        <time>2020-07-15T23:04:00.827Z</time>
      </trkpt>
      <trkpt lat="64.42422" lon="11.49008">
        <ele>60.061687</ele>
        <time>2020-07-15T23:04:01.352Z</time>
      </trkpt>
      <trkpt lat="64.42465" lon="11.49006">
        <ele>59.404527</ele>
        <time>2020-07-15T23:04:07.758Z</time>
      </trkpt>
      <trkpt lat="64.42511" lon="11.48988">
        <ele>58.697379</ele>
        <time>2020-07-15T23:04:14.549Z</time>
      </trkpt>
      <trkpt lat="64.42518" lon="11.48984">
        <ele>58.581841</ele>
        <time>2020-07-15T23:04:15.639Z</time>
      </trkpt>
      <trkpt lat="64.42567" lon="11.48966">
        <ele>57.83401</ele>
        <time>2020-07-15T23:04:22.576Z</time>
      </trkpt>
      <trkpt lat="64.42616" lon="11.48945">
        <ele>56.979194</ele>
        <time>2020-07-15T23:04:29.991Z</time>
      </trkpt>
      <trkpt lat="64.42696" lon="11.48915">
        <ele>55.556513</ele>
        <time>2020-07-15T23:04:41.719Z</time>
      </trkpt>
      <trkpt lat="64.4279" lon="11.48888">
        <ele>53.729416</ele>
        <time>2020-07-15T23:04:55.335Z</time>
      </trkpt>
      <trkpt lat="64.42796" lon="11.48895">
        <ele>53.575755</ele>
        <time>2020-07-15T23:04:56.252Z</time>
      </trkpt>
      <trkpt lat="64.42801" lon="11.489">
        <ele>53.454439</ele>
        <time>2020-07-15T23:04:56.950Z</time>
      </trkpt>
      <trkpt lat="64.42842" lon="11.48925">
        <ele>52.496266</ele>
        <time>2020-07-15T23:05:02.880Z</time>
      </trkpt>
      <trkpt lat="64.42897" lon="11.48984">
        <ele>51.13934</ele>
        <time>2020-07-15T23:05:11.309Z</time>
      </trkpt>
      <trkpt lat="64.42918" lon="11.4901">
        <ele>50.58764</ele>
        <time>2020-07-15T23:05:14.652Z</time>
      </trkpt>
      <trkpt lat="64.42949" lon="11.49049">
        <ele>49.256199</ele>
        <time>2020-07-15T23:05:19.344Z</time>
      </trkpt>
      <trkpt lat="64.43013" lon="11.49159">
        <ele>46.08292</ele>
        <time>2020-07-15T23:05:29.538Z</time>
      </trkpt>
      <trkpt lat="64.43041" lon="11.49225">
        <ele>44.496227</ele>
        <time>2020-07-15T23:05:34.412Z</time>
      </trkpt>
      <trkpt lat="64.43063" lon="11.49276">
        <ele>43.205939</ele>
        <time>2020-07-15T23:05:38.141Z</time>
      </trkpt>
      <trkpt lat="64.43079" lon="11.49287">
        <ele>42.124707</ele>
        <time>2020-07-15T23:05:40.272Z</time>
      </trkpt>
      <trkpt lat="64.43084" lon="11.49301">
        <ele>41.647744</ele>
        <time>2020-07-15T23:05:41.175Z</time>
      </trkpt>
      <trkpt lat="64.43087" lon="11.49309">
        <ele>41.325975</ele>
        <time>2020-07-15T23:05:41.716Z</time>
      </trkpt>
      <trkpt lat="64.43093" lon="11.49353">
        <ele>40.075583</ele>
        <time>2020-07-15T23:05:44.130Z</time>
      </trkpt>
      <trkpt lat="64.43201" lon="11.49609">
        <ele>30.689174</ele>
        <time>2020-07-15T23:06:01.862Z</time>
      </trkpt>
      <trkpt lat="64.43256" lon="11.49677">
        <ele>27.683566</ele>
        <time>2020-07-15T23:06:09.298Z</time>
      </trkpt>
      <trkpt lat="64.4327" lon="11.49708">
        <ele>26.735094</ele>
        <time>2020-07-15T23:06:11.715Z</time>
      </trkpt>
      <trkpt lat="64.43292" lon="11.49817">
        <ele>24.265899</ele>
        <time>2020-07-15T23:06:18.238Z</time>
      </trkpt>
      <trkpt lat="64.43309" lon="11.49864">
        <ele>23.280726</ele>
        <time>2020-07-15T23:06:21.806Z</time>
      </trkpt>
      <trkpt lat="64.43364" lon="11.4997">
        <ele>23.076076</ele>
        <time>2020-07-15T23:06:32.503Z</time>
      </trkpt>
      <trkpt lat="64.43451" lon="11.50097">
        <ele>22.813475</ele>
        <time>2020-07-15T23:06:53.595Z</time>
      </trkpt>
      <trkpt lat="64.43525" lon="11.50194">
        <ele>25.155608</ele>
        <time>2020-07-15T23:07:13.791Z</time>
      </trkpt>
      <trkpt lat="64.43556" lon="11.50233">
        <ele>26.115776</ele>
        <time>2020-07-15T23:07:23.173Z</time>
      </trkpt>
      <trkpt lat="64.43626" lon="11.50331">
        <ele>29.118583</ele>
        <time>2020-07-15T23:07:49.084Z</time>
      </trkpt>
      <trkpt lat="64.43667" lon="11.50393">
        <ele>32.035026</ele>
        <time>2020-07-15T23:08:05.646Z</time>
      </trkpt>
      <trkpt lat="64.43685" lon="11.50423">
        <ele>33.318467</ele>
        <time>2020-07-15T23:08:14.159Z</time>
      </trkpt>
      <trkpt lat="64.4373" lon="11.50526">
        <ele>37.066345</ele>
        <time>2020-07-15T23:08:38.717Z</time>
      </trkpt>
      <trkpt lat="64.43789" lon="11.5077">
        <ele>44.756003</ele>
        <time>2020-07-15T23:09:28.871Z</time>
      </trkpt>
      <trkpt lat="64.43885" lon="11.5103">
        <ele>52.099631</ele>
        <time>2020-07-15T23:10:21.342Z</time>
      </trkpt>
      <trkpt lat="64.43898" lon="11.51074">
        <ele>52.821385</ele>
        <time>2020-07-15T23:10:28.003Z</time>
      </trkpt>
      <trkpt lat="64.43933" lon="11.51227">
        <ele>55.158168</ele>
        <time>2020-07-15T23:10:46.228Z</time>
      </trkpt>
      <trkpt lat="64.43944" lon="11.51251">
        <ele>55.622728</ele>
        <time>2020-07-15T23:10:49.133Z</time>
      </trkpt>
      <trkpt lat="64.43945" lon="11.51257">
        <ele>55.606565</ele>
        <time>2020-07-15T23:10:49.858Z</time>
      </trkpt>
      <trkpt lat="64.43947" lon="11.51265">
        <ele>55.554142</ele>
        <time>2020-07-15T23:10:50.473Z</time>
      </trkpt>
      <trkpt lat="64.43952" lon="11.51309">
        <ele>55.278064</ele>
        <time>2020-07-15T23:10:54.110Z</time>
      </trkpt>
      <trkpt lat="64.43985" lon="11.51455">
        <ele>54.289761</ele>
        <time>2020-07-15T23:11:04.831Z</time>
      </trkpt>
      <trkpt lat="64.44026" lon="11.5164">
        <ele>52.922296</ele>
        <time>2020-07-15T23:11:17.136Z</time>
      </trkpt>
      <trkpt lat="64.44047" lon="11.51713">
        <ele>51.829157</ele>
        <time>2020-07-15T23:11:22.082Z</time>
      </trkpt>
      <trkpt lat="64.44076" lon="11.5178">
        <ele>50.607765</ele>
        <time>2020-07-15T23:11:27.541Z</time>
      </trkpt>
      <trkpt lat="64.44267" lon="11.52078">
        <ele>44.24795</ele>
        <time>2020-07-15T23:11:58.046Z</time>
      </trkpt>
      <trkpt lat="64.44308" lon="11.5213">
        <ele>43.000979</ele>
        <time>2020-07-15T23:12:04.587Z</time>
      </trkpt>
      <trkpt lat="64.44339" lon="11.52142">
        <ele>42.165682</ele>
        <time>2020-07-15T23:12:09.058Z</time>
      </trkpt>
      <trkpt lat="64.44359" lon="11.5214">
        <ele>41.609291</ele>
        <time>2020-07-15T23:12:12.117Z</time>
      </trkpt>
      <trkpt lat="64.4444" lon="11.52097">
        <ele>39.412608</ele>
        <time>2020-07-15T23:12:23.697Z</time>
      </trkpt>
      <trkpt lat="64.44485" lon="11.52088">
        <ele>38.076667</ele>
        <time>2020-07-15T23:12:29.569Z</time>
      </trkpt>
      <trkpt lat="64.44502" lon="11.5206">
        <ele>36.689115</ele>
        <time>2020-07-15T23:12:32.001Z</time>
      </trkpt>
      <trkpt lat="64.44511" lon="11.52019">
        <ele>35.383145</ele>
        <time>2020-07-15T23:12:34.496Z</time>
      </trkpt>
      <trkpt lat="64.44515" lon="11.52002">
        <ele>34.82247</ele>
        <time>2020-07-15T23:12:35.488Z</time>
      </trkpt>
      <trkpt lat="64.44517" lon="11.51999">
        <ele>34.674899</ele>
        <time>2020-07-15T23:12:35.783Z</time>
      </trkpt>
      <trkpt lat="64.44519" lon="11.51999">
        <ele>34.522492</ele>
        <time>2020-07-15T23:12:36.016Z</time>
      </trkpt>
      <trkpt lat="64.44549" lon="11.52033">
        <ele>32.306574</ele>
        <time>2020-07-15T23:12:39.976Z</time>
      </trkpt>
      <trkpt lat="64.44559" lon="11.52056">
        <ele>31.362163</ele>
        <time>2020-07-15T23:12:41.573Z</time>
      </trkpt>
      <trkpt lat="64.44568" lon="11.52099">
        <ele>30.013684</ele>
        <time>2020-07-15T23:12:43.926Z</time>
      </trkpt>
      <trkpt lat="64.44569" lon="11.52132">
        <ele>29.065137</ele>
        <time>2020-07-15T23:12:45.516Z</time>
      </trkpt>
      <trkpt lat="64.4457" lon="11.52145">
        <ele>28.703045</ele>
        <time>2020-07-15T23:12:46.155Z</time>
      </trkpt>
      <trkpt lat="64.44571" lon="11.52169">
        <ele>28.01081</ele>
        <time>2020-07-15T23:12:47.364Z</time>
      </trkpt>
      <trkpt lat="64.44571" lon="11.52174">
        <ele>27.854307</ele>
        <time>2020-07-15T23:12:47.607Z</time>
      </trkpt>
      <trkpt lat="64.44577" lon="11.52201">
        <ele>27.027923</ele>
        <time>2020-07-15T23:12:48.996Z</time>
      </trkpt>
      <trkpt lat="64.44589" lon="11.52221">
        <ele>26.029485</ele>
        <time>2020-07-15T23:12:50.678Z</time>
      </trkpt>
      <trkpt lat="64.44619" lon="11.52217">
        <ele>23.837572</ele>
        <time>2020-07-15T23:12:54.127Z</time>
      </trkpt>
      <trkpt lat="64.44625" lon="11.52219">
        <ele>23.401947</ele>
        <time>2020-07-15T23:12:54.795Z</time>
      </trkpt>
      <trkpt lat="64.44703" lon="11.52295">
        <ele>17.356006</ele>
        <time>2020-07-15T23:13:04.770Z</time>
      </trkpt>
      <trkpt lat="64.44782" lon="11.52353">
        <ele>12.435355</ele>
        <time>2020-07-15T23:13:15.240Z</time>
      </trkpt>
      <trkpt lat="64.44793" lon="11.52357">
        <ele>11.994709</ele>
        <time>2020-07-15T23:13:16.738Z</time>
      </trkpt>
      <trkpt lat="64.44809" lon="11.52363">
        <ele>11.368263</ele>
        <time>2020-07-15T23:13:18.820Z</time>
      </trkpt>
      <trkpt lat="64.44873" lon="11.52368">
        <ele>8.884919</ele>
        <time>2020-07-15T23:13:27.440Z</time>
      </trkpt>
      <trkpt lat="64.44919" lon="11.52356">
        <ele>7.110701</ele>
        <time>2020-07-15T23:13:33.604Z</time>
      </trkpt>
      <trkpt lat="64.45082" lon="11.52243">
        <ele>3.030338</ele>
        <time>2020-07-15T23:13:58.139Z</time>
      </trkpt>
      <trkpt lat="64.45132" lon="11.52219">
        <ele>2.362579</ele>
        <time>2020-07-15T23:14:06.125Z</time>
      </trkpt>
      <trkpt lat="64.45156" lon="11.52227">
        <ele>2.233587</ele>
        <time>2020-07-15T23:14:10.060Z</time>
      </trkpt>
      <trkpt lat="64.45224" lon="11.52199">
        <ele>1.853065</ele>
        <time>2020-07-15T23:14:22.217Z</time>
      </trkpt>
      <trkpt lat="64.45251" lon="11.52166">
        <ele>1.686199</ele>
        <time>2020-07-15T23:14:27.980Z</time>
      </trkpt>
      <trkpt lat="64.45255" lon="11.52165">
        <ele>1.665204</ele>
        <time>2020-07-15T23:14:28.659Z</time>
      </trkpt>
      <trkpt lat="64.45281" lon="11.52159">
        <ele>1.533607</ele>
        <time>2020-07-15T23:14:33.554Z</time>
      </trkpt>
      <trkpt lat="64.45283" lon="11.52158">
        <ele>1.533078</ele>
        <time>2020-07-15T23:14:34.109Z</time>
      </trkpt>
      <trkpt lat="64.45371" lon="11.52213">
        <ele>1.509082</ele>
        <time>2020-07-15T23:14:50.562Z</time>
      </trkpt>
      <trkpt lat="64.45426" lon="11.52289">
        <ele>1.492053</ele>
        <time>2020-07-15T23:15:02.100Z</time>
      </trkpt>
      <trkpt lat="64.45455" lon="11.52353">
        <ele>1.407239</ele>
        <time>2020-07-15T23:15:08.803Z</time>
      </trkpt>
      <trkpt lat="64.45524" lon="11.5255">
        <ele>0.958543</ele>
        <time>2020-07-15T23:15:26.900Z</time>
      </trkpt>
      <trkpt lat="64.45545" lon="11.52585">
        <ele>0.852345</ele>
        <time>2020-07-15T23:15:31.163Z</time>
      </trkpt>
      <trkpt lat="64.4562" lon="11.52791">
        <ele>0.493127</ele>
        <time>2020-07-15T23:15:50.679Z</time>
      </trkpt>
      <trkpt lat="64.45622" lon="11.52799">
        <ele>0.48234</ele>
        <time>2020-07-15T23:15:51.300Z</time>
      </trkpt>
      <trkpt lat="64.45627" lon="11.52789">
        <ele>0.461765</ele>
        <time>2020-07-15T23:15:52.510Z</time>
      </trkpt>
      <trkpt lat="64.45631" lon="11.52779">
        <ele>0.446093</ele>
        <time>2020-07-15T23:15:53.491Z</time>
      </trkpt>
      <trkpt lat="64.45634" lon="11.52772">
        <ele>0.43413</ele>
        <time>2020-07-15T23:15:54.246Z</time>
      </trkpt>
      <trkpt lat="64.45637" lon="11.5277">
        <ele>0.425045</ele>
        <time>2020-07-15T23:15:54.798Z</time>
      </trkpt>
      <trkpt lat="64.45647" lon="11.5277">
        <ele>0.397243</ele>
        <time>2020-07-15T23:15:56.499Z</time>
      </trkpt>
      <trkpt lat="64.45657" lon="11.5277">
        <ele>0.368307</ele>
        <time>2020-07-15T23:15:58.202Z</time>
      </trkpt>
      <trkpt lat="64.45662" lon="11.52773">
        <ele>0.354881</ele>
        <time>2020-07-15T23:15:59.006Z</time>
      </trkpt>
      <trkpt lat="64.45664" lon="11.52781">
        <ele>0.343301</ele>
        <time>2020-07-15T23:15:59.752Z</time>
      </trkpt>
      <trkpt lat="64.45668" lon="11.5279">
        <ele>0.326972</ele>
        <time>2020-07-15T23:16:00.790Z</time>
      </trkpt>
      <trkpt lat="64.45675" lon="11.52805">
        <ele>0.301247</ele>
        <time>2020-07-15T23:16:02.408Z</time>
      </trkpt>
      <trkpt lat="64.45681" lon="11.52787">
        <ele>0.272683</ele>
        <time>2020-07-15T23:16:04.073Z</time>
      </trkpt>
      <trkpt lat="64.45805" lon="11.52521">
        <ele>0.085715</ele>
        <time>2020-07-15T23:16:33.851Z</time>
      </trkpt>
      <trkpt lat="64.45861" lon="11.52432">
        <ele>0.048541</ele>
        <time>2020-07-15T23:16:45.726Z</time>
      </trkpt>
      <trkpt lat="64.45911" lon="11.52373">
        <ele>0.029524</ele>
        <time>2020-07-15T23:16:55.518Z</time>
      </trkpt>
      <trkpt lat="64.45915" lon="11.52369">
        <ele>0.027826</ele>
        <time>2020-07-15T23:16:56.390Z</time>
      </trkpt>
      <trkpt lat="64.4595" lon="11.52338">
        <ele>0.015091</ele>
        <time>2020-07-15T23:17:02.987Z</time>
      </trkpt>
      <trkpt lat="64.45972" lon="11.52307">
        <ele>0.006286</ele>
        <time>2020-07-15T23:17:07.558Z</time>
      </trkpt>
      <trkpt lat="64.46015" lon="11.52268">
        <ele>0.010856</ele>
        <time>2020-07-15T23:17:15.875Z</time>
      </trkpt>
      <trkpt lat="64.4632" lon="11.52016">
        <ele>0.105631</ele>
        <time>2020-07-15T23:18:13.883Z</time>
      </trkpt>
      <trkpt lat="64.46324" lon="11.52013">
        <ele>0.115523</ele>
        <time>2020-07-15T23:18:14.523Z</time>
      </trkpt>
      <trkpt lat="64.46348" lon="11.5201">
        <ele>0.184731</ele>
        <time>2020-07-15T23:18:19.102Z</time>
      </trkpt>
      <trkpt lat="64.46357" lon="11.52007">
        <ele>0.211125</ele>
        <time>2020-07-15T23:18:20.817Z</time>
      </trkpt>
      <trkpt lat="64.46366" lon="11.52">
        <ele>0.240327</ele>
        <time>2020-07-15T23:18:22.739Z</time>
      </trkpt>
      <trkpt lat="64.46375" lon="11.51992">
        <ele>0.268387</ele>
        <time>2020-07-15T23:18:24.612Z</time>
      </trkpt>
      <trkpt lat="64.46396" lon="11.51971">
        <ele>0.334794</ele>
        <time>2020-07-15T23:18:29.013Z</time>
      </trkpt>
      <trkpt lat="64.46415" lon="11.51952">
        <ele>0.393149</ele>
        <time>2020-07-15T23:18:32.921Z</time>
      </trkpt>
      <trkpt lat="64.46475" lon="11.51865">
        <ele>0.599223</ele>
        <time>2020-07-15T23:18:47.259Z</time>
      </trkpt>
      <trkpt lat="64.46538" lon="11.51724">
        <ele>0.8906</ele>
        <time>2020-07-15T23:19:04.869Z</time>
      </trkpt>
      <trkpt lat="64.46546" lon="11.51699">
        <ele>0.935491</ele>
        <time>2020-07-15T23:19:07.502Z</time>
      </trkpt>
      <trkpt lat="64.46557" lon="11.51664">
        <ele>0.999066</ele>
        <time>2020-07-15T23:19:11.243Z</time>
      </trkpt>
      <trkpt lat="64.46585" lon="11.51549">
        <ele>1.191404</ele>
        <time>2020-07-15T23:19:22.260Z</time>
      </trkpt>
      <trkpt lat="64.46605" lon="11.51428">
        <ele>1.160419</ele>
        <time>2020-07-15T23:19:32.842Z</time>
      </trkpt>
      <trkpt lat="64.46618" lon="11.51298">
        <ele>1.060282</ele>
        <time>2020-07-15T23:19:43.073Z</time>
      </trkpt>
      <trkpt lat="64.46616" lon="11.51234">
        <ele>1.012359</ele>
        <time>2020-07-15T23:19:47.776Z</time>
      </trkpt>
      <trkpt lat="64.46624" lon="11.51125">
        <ele>0.930061</ele>
        <time>2020-07-15T23:19:56.271Z</time>
      </trkpt>
      <trkpt lat="64.46641" lon="11.51027">
        <ele>1.037442</ele>
        <time>2020-07-15T23:20:04.563Z</time>
      </trkpt>
      <trkpt lat="64.46645" lon="11.51017">
        <ele>1.052896</ele>
        <time>2020-07-15T23:20:05.482Z</time>
      </trkpt>
      <trkpt lat="64.46647" lon="11.51011">
        <ele>1.061573</ele>
        <time>2020-07-15T23:20:06.068Z</time>
      </trkpt>
      <trkpt lat="64.46655" lon="11.50995">
        <ele>1.093067</ele>
        <time>2020-07-15T23:20:08.207Z</time>
      </trkpt>
      <trkpt lat="64.46682" lon="11.50986">
        <ele>1.166126</ele>
        <time>2020-07-15T23:20:13.191Z</time>
      </trkpt>
      <trkpt lat="64.46685" lon="11.50982">
        <ele>1.178026</ele>
        <time>2020-07-15T23:20:14.020Z</time>
      </trkpt>
      <trkpt lat="64.4669" lon="11.50975">
        <ele>1.193086</ele>
        <time>2020-07-15T23:20:15.050Z</time>
      </trkpt>
      <trkpt lat="64.46693" lon="11.50971">
        <ele>1.203024</ele>
        <time>2020-07-15T23:20:15.887Z</time>
      </trkpt>
      <trkpt lat="64.46697" lon="11.50918">
        <ele>1.266912</ele>
        <time>2020-07-15T23:20:20.245Z</time>
      </trkpt>
      <trkpt lat="64.46722" lon="11.50896">
        <ele>1.339812</ele>
        <time>2020-07-15T23:20:25.882Z</time>
      </trkpt>
      <trkpt lat="64.46847" lon="11.5089">
        <ele>2.226842</ele>
        <time>2020-07-15T23:20:52.940Z</time>
      </trkpt>
      <trkpt lat="64.46849" lon="11.50891">
        <ele>2.246518</ele>
        <time>2020-07-15T23:20:53.750Z</time>
      </trkpt>
      <trkpt lat="64.46849" lon="11.50888">
        <ele>2.25779</ele>
        <time>2020-07-15T23:20:54.008Z</time>
      </trkpt>
      <trkpt lat="64.46849" lon="11.5088">
        <ele>2.288331</ele>
        <time>2020-07-15T23:20:54.727Z</time>
      </trkpt>
      <trkpt lat="64.46849" lon="11.50866">
        <ele>2.338143</ele>
        <time>2020-07-15T23:20:56.015Z</time>
      </trkpt>
      <trkpt lat="64.46848" lon="11.50854">
        <ele>2.380891</ele>
        <time>2020-07-15T23:20:56.990Z</time>
      </trkpt>
      <trkpt lat="64.46852" lon="11.50852">
        <ele>2.410659</ele>
        <time>2020-07-15T23:20:57.807Z</time>
      </trkpt>
      <trkpt lat="64.4687" lon="11.50819">
        <ele>2.602841</ele>
        <time>2020-07-15T23:21:02.602Z</time>
      </trkpt>
      <trkpt lat="64.46871" lon="11.50813">
        <ele>2.628375</ele>
        <time>2020-07-15T23:21:03.311Z</time>
      </trkpt>
      <trkpt lat="64.46877" lon="11.50729">
        <ele>2.937015</ele>
        <time>2020-07-15T23:21:10.790Z</time>
      </trkpt>
      <trkpt lat="64.4688" lon="11.50612">
        <ele>3.209364</ele>
        <time>2020-07-15T23:21:20.948Z</time>
      </trkpt>
      <trkpt lat="64.46874" lon="11.50435">
        <ele>3.619721</ele>
        <time>2020-07-15T23:21:35.732Z</time>
      </trkpt>
      <trkpt lat="64.4687" lon="11.50378">
        <ele>3.751779</ele>
        <time>2020-07-15T23:21:40.560Z</time>
      </trkpt>
      <trkpt lat="64.46868" lon="11.5035">
        <ele>3.818592</ele>
        <time>2020-07-15T23:21:43.209Z</time>
      </trkpt>
      <trkpt lat="64.46853" lon="11.50196">
        <ele>4.730122</ele>
        <time>2020-07-15T23:21:58.244Z</time>
      </trkpt>
      <trkpt lat="64.4685" lon="11.50174">
        <ele>4.889464</ele>
        <time>2020-07-15T23:22:00.616Z</time>
      </trkpt>
      <trkpt lat="64.46845" lon="11.50164">
        <ele>4.990541</ele>
        <time>2020-07-15T23:22:02.290Z</time>
      </trkpt>
      <trkpt lat="64.46842" lon="11.50157">
        <ele>5.058494</ele>
        <time>2020-07-15T23:22:03.192Z</time>
      </trkpt>
      <trkpt lat="64.46837" lon="11.50146">
        <ele>5.164137</ele>
        <time>2020-07-15T23:22:04.741Z</time>
      </trkpt>
      <trkpt lat="64.46833" lon="11.50125">
        <ele>5.325174</ele>
        <time>2020-07-15T23:22:07.101Z</time>
      </trkpt>
      <trkpt lat="64.46833" lon="11.50112">
        <ele>5.416276</ele>
        <time>2020-07-15T23:22:08.506Z</time>
      </trkpt>
      <trkpt lat="64.46836" lon="11.50082">
        <ele>5.626941</ele>
        <time>2020-07-15T23:22:11.808Z</time>
      </trkpt>
      <trkpt lat="64.46836" lon="11.50069">
        <ele>5.715867</ele>
        <time>2020-07-15T23:22:13.150Z</time>
      </trkpt>
      <trkpt lat="64.4684" lon="11.50066">
        <ele>5.789466</ele>
        <time>2020-07-15T23:22:14.250Z</time>
      </trkpt>
      <trkpt lat="64.46845" lon="11.50062">
        <ele>5.868458</ele>
        <time>2020-07-15T23:22:15.435Z</time>
      </trkpt>
      <trkpt lat="64.46849" lon="11.50058">
        <ele>5.945186</ele>
        <time>2020-07-15T23:22:16.629Z</time>
      </trkpt>
      <trkpt lat="64.46851" lon="11.50057">
        <ele>5.966922</ele>
        <time>2020-07-15T23:22:17.002Z</time>
      </trkpt>
      <trkpt lat="64.46845" lon="11.50035">
        <ele>6.14486</ele>
        <time>2020-07-15T23:22:20.020Z</time>
      </trkpt>
      <trkpt lat="64.46834" lon="11.49975">
        <ele>6.590243</ele>
        <time>2020-07-15T23:22:26.884Z</time>
      </trkpt>
      <trkpt lat="64.46832" lon="11.49964">
        <ele>6.670671</ele>
        <time>2020-07-15T23:22:28.448Z</time>
      </trkpt>
      <trkpt lat="64.4678" lon="11.49662">
        <ele>8.693493</ele>
        <time>2020-07-15T23:23:03.371Z</time>
      </trkpt>
      <trkpt lat="64.46777" lon="11.49648">
        <ele>8.78377</ele>
        <time>2020-07-15T23:23:04.870Z</time>
      </trkpt>
      <trkpt lat="64.46775" lon="11.49632">
        <ele>8.888194</ele>
        <time>2020-07-15T23:23:06.383Z</time>
      </trkpt>
      <trkpt lat="64.46773" lon="11.49619">
        <ele>8.975308</ele>
        <time>2020-07-15T23:23:07.489Z</time>
      </trkpt>
      <trkpt lat="64.46773" lon="11.49603">
        <ele>9.072368</ele>
        <time>2020-07-15T23:23:08.818Z</time>
      </trkpt>
      <trkpt lat="64.46773" lon="11.49591">
        <ele>9.150282</ele>
        <time>2020-07-15T23:23:09.905Z</time>
      </trkpt>
      <trkpt lat="64.46774" lon="11.49578">
        <ele>9.232748</ele>
        <time>2020-07-15T23:23:10.953Z</time>
      </trkpt>
      <trkpt lat="64.46778" lon="11.4955">
        <ele>9.282993</ele>
        <time>2020-07-15T23:23:13.271Z</time>
      </trkpt>
      <trkpt lat="64.46784" lon="11.49516">
        <ele>9.143287</ele>
        <time>2020-07-15T23:23:15.977Z</time>
      </trkpt>
      <trkpt lat="64.4679" lon="11.49489">
        <ele>9.029126</ele>
        <time>2020-07-15T23:23:18.164Z</time>
      </trkpt>
      <trkpt lat="64.46814" lon="11.49343">
        <ele>8.420317</ele>
        <time>2020-07-15T23:23:28.921Z</time>
      </trkpt>
      <trkpt lat="64.46829" lon="11.49257">
        <ele>8.064201</ele>
        <time>2020-07-15T23:23:34.927Z</time>
      </trkpt>
      <trkpt lat="64.4683" lon="11.49247">
        <ele>8.025065</ele>
        <time>2020-07-15T23:23:35.529Z</time>
      </trkpt>
      <trkpt lat="64.4683" lon="11.49241">
        <ele>8.000933</ele>
        <time>2020-07-15T23:23:35.905Z</time>
      </trkpt>
      <trkpt lat="64.46837" lon="11.49196">
        <ele>7.818169</ele>
        <time>2020-07-15T23:23:39.004Z</time>
      </trkpt>
      <trkpt lat="64.46833" lon="11.49194">
        <ele>7.78756</ele>
        <time>2020-07-15T23:23:39.507Z</time>
      </trkpt>
      <trkpt lat="64.46838" lon="11.49159">
        <ele>7.617767</ele>
        <time>2020-07-15T23:23:41.713Z</time>
      </trkpt>
      <trkpt lat="64.4684" lon="11.49158">
        <ele>7.600025</ele>
        <time>2020-07-15T23:23:41.923Z</time>
      </trkpt>
      <trkpt lat="64.46843" lon="11.49153">
        <ele>7.548512</ele>
        <time>2020-07-15T23:23:42.520Z</time>
      </trkpt>
      <trkpt lat="64.46845" lon="11.49146">
        <ele>7.502181</ele>
        <time>2020-07-15T23:23:43.045Z</time>
      </trkpt>
      <trkpt lat="64.46847" lon="11.49131">
        <ele>7.41877</ele>
        <time>2020-07-15T23:23:44.042Z</time>
      </trkpt>
      <trkpt lat="64.46846" lon="11.49124">
        <ele>7.384199</ele>
        <time>2020-07-15T23:23:44.438Z</time>
      </trkpt>
      <trkpt lat="64.46846" lon="11.49116">
        <ele>7.337863</ele>
        <time>2020-07-15T23:23:44.985Z</time>
      </trkpt>
      <trkpt lat="64.46848" lon="11.49095">
        <ele>7.228767</ele>
        <time>2020-07-15T23:23:46.223Z</time>
      </trkpt>
      <trkpt lat="64.46851" lon="11.49083">
        <ele>7.156013</ele>
        <time>2020-07-15T23:23:47.115Z</time>
      </trkpt>
      <trkpt lat="64.46854" lon="11.4907">
        <ele>7.079897</ele>
        <time>2020-07-15T23:23:48.015Z</time>
      </trkpt>
      <trkpt lat="64.46865" lon="11.49011">
        <ele>6.737597</ele>
        <time>2020-07-15T23:23:52.157Z</time>
      </trkpt>
      <trkpt lat="64.46869" lon="11.48982">
        <ele>6.576665</ele>
        <time>2020-07-15T23:23:54.195Z</time>
      </trkpt>
      <trkpt lat="64.46873" lon="11.48956">
        <ele>6.430188</ele>
        <time>2020-07-15T23:23:56.116Z</time>
      </trkpt>
      <trkpt lat="64.4687" lon="11.48952">
        <ele>6.381822</ele>
        <time>2020-07-15T23:23:56.718Z</time>
      </trkpt>
      <trkpt lat="64.46868" lon="11.4895">
        <ele>6.360951</ele>
        <time>2020-07-15T23:23:56.976Z</time>
      </trkpt>
      <trkpt lat="64.46883" lon="11.48864">
        <ele>5.875589</ele>
        <time>2020-07-15T23:24:03.704Z</time>
      </trkpt>
      <trkpt lat="64.46889" lon="11.48829">
        <ele>5.677325</ele>
        <time>2020-07-15T23:24:06.488Z</time>
      </trkpt>
      <trkpt lat="64.46913" lon="11.4869">
        <ele>5.182406</ele>
        <time>2020-07-15T23:24:17.130Z</time>
      </trkpt>
      <trkpt lat="64.46927" lon="11.48611">
        <ele>4.938504</ele>
        <time>2020-07-15T23:24:23.089Z</time>
      </trkpt>
      <trkpt lat="64.4694" lon="11.48538">
        <ele>4.715147</ele>
        <time>2020-07-15T23:24:28.678Z</time>
      </trkpt>
      <trkpt lat="64.46941" lon="11.48506">
        <ele>4.623928</ele>
        <time>2020-07-15T23:24:30.794Z</time>
      </trkpt>
      <trkpt lat="64.4695" lon="11.48503">
        <ele>4.569618</ele>
        <time>2020-07-15T23:24:32.252Z</time>
      </trkpt>
      <trkpt lat="64.46956" lon="11.4845">
        <ele>4.412619</ele>
        <time>2020-07-15T23:24:35.708Z</time>
      </trkpt>
      <trkpt lat="64.46962" lon="11.48393">
        <ele>4.849675</ele>
        <time>2020-07-15T23:24:41.214Z</time>
      </trkpt>
      <trkpt lat="64.46964" lon="11.48369">
        <ele>5.217223</ele>
        <time>2020-07-15T23:24:42.754Z</time>
      </trkpt>
      <trkpt lat="64.46967" lon="11.48337">
        <ele>5.712227</ele>
        <time>2020-07-15T23:24:46.703Z</time>
      </trkpt>
      <trkpt lat="64.46968" lon="11.48241">
        <ele>7.160333</ele>
        <time>2020-07-15T23:24:56.139Z</time>
      </trkpt>
      <trkpt lat="64.46964" lon="11.48189">
        <ele>7.955421</ele>
        <time>2020-07-15T23:25:02.054Z</time>
      </trkpt>
      <trkpt lat="64.4696" lon="11.48139">
        <ele>8.714262</ele>
        <time>2020-07-15T23:25:07.996Z</time>
      </trkpt>
      <trkpt lat="64.4696" lon="11.48123">
        <ele>8.954083</ele>
        <time>2020-07-15T23:25:09.508Z</time>
      </trkpt>
      <trkpt lat="64.4696" lon="11.48106">
        <ele>9.221003</ele>
        <time>2020-07-15T23:25:13.001Z</time>
      </trkpt>
      <trkpt lat="64.46964" lon="11.47988">
        <ele>11.756426</ele>
        <time>2020-07-15T23:25:33.807Z</time>
      </trkpt>
      <trkpt lat="64.46965" lon="11.47967">
        <ele>12.72414</ele>
        <time>2020-07-15T23:25:37.503Z</time>
      </trkpt>
      <trkpt lat="64.4697" lon="11.47832">
        <ele>18.994544</ele>
        <time>2020-07-15T23:26:08.978Z</time>
      </trkpt>
      <trkpt lat="64.46974" lon="11.47714">
        <ele>24.447897</ele>
        <time>2020-07-15T23:26:39.645Z</time>
      </trkpt>
      <trkpt lat="64.46976" lon="11.47692">
        <ele>25.449614</ele>
        <time>2020-07-15T23:26:43.674Z</time>
      </trkpt>
      <trkpt lat="64.46978" lon="11.47669">
        <ele>26.554482</ele>
        <time>2020-07-15T23:26:49.830Z</time>
      </trkpt>
      <trkpt lat="64.46981" lon="11.47652">
        <ele>27.39602</ele>
        <time>2020-07-15T23:26:55.713Z</time>
      </trkpt>
      <trkpt lat="64.46994" lon="11.47588">
        <ele>30.395722</ele>
        <time>2020-07-15T23:27:10.863Z</time>
      </trkpt>
      <trkpt lat="64.46998" lon="11.47574">
        <ele>30.915206</ele>
        <time>2020-07-15T23:27:16.271Z</time>
      </trkpt>
      <trkpt lat="64.47013" lon="11.47525">
        <ele>32.803541</ele>
        <time>2020-07-15T23:27:28.210Z</time>
      </trkpt>
      <trkpt lat="64.47078" lon="11.47313">
        <ele>40.843371</ele>
        <time>2020-07-15T23:28:15.618Z</time>
      </trkpt>
      <trkpt lat="64.47088" lon="11.47261">
        <ele>42.604493</ele>
        <time>2020-07-15T23:28:22.742Z</time>
      </trkpt>
      <trkpt lat="64.47094" lon="11.47174">
        <ele>42.755742</ele>
        <time>2020-07-15T23:28:29.823Z</time>
      </trkpt>
      <trkpt lat="64.47104" lon="11.47096">
        <ele>42.72719</ele>
        <time>2020-07-15T23:28:35.747Z</time>
      </trkpt>
      <trkpt lat="64.47113" lon="11.47057">
        <ele>42.712109</ele>
        <time>2020-07-15T23:28:38.723Z</time>
      </trkpt>
      <trkpt lat="64.47133" lon="11.47009">
        <ele>42.688835</ele>
        <time>2020-07-15T23:28:43.558Z</time>
      </trkpt>
      <trkpt lat="64.47154" lon="11.46969">
        <ele>42.667123</ele>
        <time>2020-07-15T23:28:47.757Z</time>
      </trkpt>
      <trkpt lat="64.47165" lon="11.46945">
        <ele>42.654753</ele>
        <time>2020-07-15T23:28:49.944Z</time>
      </trkpt>
      <trkpt lat="64.47193" lon="11.4689">
        <ele>42.29412</ele>
        <time>2020-07-15T23:28:55.189Z</time>
      </trkpt>
      <trkpt lat="64.47199" lon="11.46877">
        <ele>42.124345</ele>
        <time>2020-07-15T23:28:56.297Z</time>
      </trkpt>
      <trkpt lat="64.47216" lon="11.46844">
        <ele>41.668494</ele>
        <time>2020-07-15T23:28:59.479Z</time>
      </trkpt>
      <trkpt lat="64.47251" lon="11.46775">
        <ele>40.73961</ele>
        <time>2020-07-15T23:29:05.654Z</time>
      </trkpt>
      <trkpt lat="64.47255" lon="11.46767">
        <ele>40.632669</ele>
        <time>2020-07-15T23:29:06.320Z</time>
      </trkpt>
      <trkpt lat="64.47266" lon="11.46744">
        <ele>40.341989</ele>
        <time>2020-07-15T23:29:08.416Z</time>
      </trkpt>
      <trkpt lat="64.4728" lon="11.46713">
        <ele>39.944902</ele>
        <time>2020-07-15T23:29:11.100Z</time>
      </trkpt>
      <trkpt lat="64.47299" lon="11.46676">
        <ele>39.435098</ele>
        <time>2020-07-15T23:29:14.926Z</time>
      </trkpt>
      <trkpt lat="64.47308" lon="11.46663">
        <ele>39.222438</ele>
        <time>2020-07-15T23:29:16.366Z</time>
      </trkpt>
      <trkpt lat="64.47312" lon="11.46659">
        <ele>39.138144</ele>
        <time>2020-07-15T23:29:16.921Z</time>
      </trkpt>
      <trkpt lat="64.47353" lon="11.46636">
        <ele>37.85495</ele>
        <time>2020-07-15T23:29:23.241Z</time>
      </trkpt>
      <trkpt lat="64.47384" lon="11.46625">
        <ele>36.798695</ele>
        <time>2020-07-15T23:29:27.716Z</time>
      </trkpt>
      <trkpt lat="64.47406" lon="11.46618">
        <ele>36.091339</ele>
        <time>2020-07-15T23:29:30.845Z</time>
      </trkpt>
      <trkpt lat="64.47425" lon="11.46613">
        <ele>35.46571</ele>
        <time>2020-07-15T23:29:33.270Z</time>
      </trkpt>
      <trkpt lat="64.47508" lon="11.46631">
        <ele>32.654342</ele>
        <time>2020-07-15T23:29:43.452Z</time>
      </trkpt>
      <trkpt lat="64.47517" lon="11.46635">
        <ele>32.283193</ele>
        <time>2020-07-15T23:29:44.534Z</time>
      </trkpt>
      <trkpt lat="64.47531" lon="11.46647">
        <ele>31.676863</ele>
        <time>2020-07-15T23:29:46.287Z</time>
      </trkpt>
      <trkpt lat="64.47557" lon="11.46673">
        <ele>30.557534</ele>
        <time>2020-07-15T23:29:49.647Z</time>
      </trkpt>
      <trkpt lat="64.47595" lon="11.46714">
        <ele>28.871623</ele>
        <time>2020-07-15T23:29:54.826Z</time>
      </trkpt>
      <trkpt lat="64.47611" lon="11.46729">
        <ele>28.176548</ele>
        <time>2020-07-15T23:29:57.430Z</time>
      </trkpt>
      <trkpt lat="64.47622" lon="11.46738">
        <ele>27.717198</ele>
        <time>2020-07-15T23:29:58.740Z</time>
      </trkpt>
      <trkpt lat="64.4767" lon="11.46773">
        <ele>26.019697</ele>
        <time>2020-07-15T23:30:05.676Z</time>
      </trkpt>
      <trkpt lat="64.47692" lon="11.46796">
        <ele>26.544342</ele>
        <time>2020-07-15T23:30:08.980Z</time>
      </trkpt>
      <trkpt lat="64.47709" lon="11.46833">
        <ele>27.065328</ele>
        <time>2020-07-15T23:30:14.468Z</time>
      </trkpt>
      <trkpt lat="64.47718" lon="11.4685">
        <ele>27.31334</ele>
        <time>2020-07-15T23:30:15.843Z</time>
      </trkpt>
      <trkpt lat="64.4774" lon="11.46891">
        <ele>27.930954</ele>
        <time>2020-07-15T23:30:23.587Z</time>
      </trkpt>
      <trkpt lat="64.4778" lon="11.46947">
        <ele>28.967701</ele>
        <time>2020-07-15T23:30:37.746Z</time>
      </trkpt>
      <trkpt lat="64.47794" lon="11.46961">
        <ele>29.292857</ele>
        <time>2020-07-15T23:30:43.273Z</time>
      </trkpt>
      <trkpt lat="64.47799" lon="11.46966">
        <ele>29.41096</ele>
        <time>2020-07-15T23:30:45.358Z</time>
      </trkpt>
      <trkpt lat="64.47866" lon="11.47023">
        <ele>33.122869</ele>
        <time>2020-07-15T23:31:10.733Z</time>
      </trkpt>
      <trkpt lat="64.47891" lon="11.47048">
        <ele>34.870047</ele>
        <time>2020-07-15T23:31:22.243Z</time>
      </trkpt>
      <trkpt lat="64.47902" lon="11.47061">
        <ele>35.716526</ele>
        <time>2020-07-15T23:31:27.214Z</time>
      </trkpt>
      <trkpt lat="64.47944" lon="11.47126">
        <ele>38.94161</ele>
        <time>2020-07-15T23:31:46.677Z</time>
      </trkpt>
      <trkpt lat="64.47972" lon="11.47183">
        <ele>41.324998</ele>
        <time>2020-07-15T23:32:01.130Z</time>
      </trkpt>
      <trkpt lat="64.47976" lon="11.47194">
        <ele>41.601475</ele>
        <time>2020-07-15T23:32:05.835Z</time>
      </trkpt>
      <trkpt lat="64.47982" lon="11.47208">
        <ele>41.928837</ele>
        <time>2020-07-15T23:32:08.898Z</time>
      </trkpt>
      <trkpt lat="64.47995" lon="11.47248">
        <ele>42.737505</ele>
        <time>2020-07-15T23:32:15.514Z</time>
      </trkpt>
      <trkpt lat="64.47998" lon="11.47256">
        <ele>42.89993</ele>
        <time>2020-07-15T23:32:19.513Z</time>
      </trkpt>
      <trkpt lat="64.48031" lon="11.4742">
        <ele>45.811828</ele>
        <time>2020-07-15T23:32:45.467Z</time>
      </trkpt>
      <trkpt lat="64.48054" lon="11.47485">
        <ele>47.181087</ele>
        <time>2020-07-15T23:32:55.508Z</time>
      </trkpt>
      <trkpt lat="64.48085" lon="11.47536">
        <ele>47.37733</ele>
        <time>2020-07-15T23:33:02.792Z</time>
      </trkpt>
      <trkpt lat="64.48168" lon="11.47634">
        <ele>41.346079</ele>
        <time>2020-07-15T23:33:13.769Z</time>
      </trkpt>
      <trkpt lat="64.48278" lon="11.47865">
        <ele>30.25756</ele>
        <time>2020-07-15T23:33:29.901Z</time>
      </trkpt>
      <trkpt lat="64.48296" lon="11.47889">
        <ele>28.494866</ele>
        <time>2020-07-15T23:33:32.163Z</time>
      </trkpt>
      <trkpt lat="64.48332" lon="11.47915">
        <ele>25.306129</ele>
        <time>2020-07-15T23:33:36.306Z</time>
      </trkpt>
      <trkpt lat="64.48468" lon="11.47966">
        <ele>18.040461</ele>
        <time>2020-07-15T23:33:52.817Z</time>
      </trkpt>
      <trkpt lat="64.48471" lon="11.47971">
        <ele>17.907554</ele>
        <time>2020-07-15T23:33:53.286Z</time>
      </trkpt>
      <trkpt lat="64.48472" lon="11.47977">
        <ele>17.808709</ele>
        <time>2020-07-15T23:33:53.676Z</time>
      </trkpt>
      <trkpt lat="64.48476" lon="11.47991">
        <ele>17.565684</ele>
        <time>2020-07-15T23:33:54.665Z</time>
      </trkpt>
      <trkpt lat="64.48478" lon="11.48006">
        <ele>17.334633</ele>
        <time>2020-07-15T23:33:55.610Z</time>
      </trkpt>
      <trkpt lat="64.48479" lon="11.48015">
        <ele>17.180624</ele>
        <time>2020-07-15T23:33:56.233Z</time>
      </trkpt>
      <trkpt lat="64.48547" lon="11.47943">
        <ele>14.875612</ele>
        <time>2020-07-15T23:34:07.265Z</time>
      </trkpt>
      <trkpt lat="64.48645" lon="11.47841">
        <ele>14.918964</ele>
        <time>2020-07-15T23:34:25.770Z</time>
      </trkpt>
      <trkpt lat="64.48757" lon="11.47782">
        <ele>15.949897</ele>
        <time>2020-07-15T23:34:49.530Z</time>
      </trkpt>
      <trkpt lat="64.48906" lon="11.47653">
        <ele>19.024299</ele>
        <time>2020-07-15T23:35:30.658Z</time>
      </trkpt>
      <trkpt lat="64.48922" lon="11.47631">
        <ele>19.347581</ele>
        <time>2020-07-15T23:35:34.970Z</time>
      </trkpt>
      <trkpt lat="64.48927" lon="11.47623">
        <ele>19.459136</ele>
        <time>2020-07-15T23:35:36.356Z</time>
      </trkpt>
      <trkpt lat="64.48931" lon="11.47615">
        <ele>19.546817</ele>
        <time>2020-07-15T23:35:37.431Z</time>
      </trkpt>
      <trkpt lat="64.48934" lon="11.47607">
        <ele>19.632679</ele>
        <time>2020-07-15T23:35:39.511Z</time>
      </trkpt>
      <trkpt lat="64.49007" lon="11.47395">
        <ele>21.647678</ele>
        <time>2020-07-15T23:36:06.572Z</time>
      </trkpt>
      <trkpt lat="64.49027" lon="11.47303">
        <ele>21.30496</ele>
        <time>2020-07-15T23:36:14.977Z</time>
      </trkpt>
      <trkpt lat="64.4907" lon="11.47045">
        <ele>20.371303</ele>
        <time>2020-07-15T23:36:32.835Z</time>
      </trkpt>
      <trkpt lat="64.4908" lon="11.47009">
        <ele>20.188801</ele>
        <time>2020-07-15T23:36:35.448Z</time>
      </trkpt>
      <trkpt lat="64.491" lon="11.46965">
        <ele>19.688255</ele>
        <time>2020-07-15T23:36:39.425Z</time>
      </trkpt>
      <trkpt lat="64.49121" lon="11.46941">
        <ele>19.279626</ele>
        <time>2020-07-15T23:36:42.674Z</time>
      </trkpt>
      <trkpt lat="64.49176" lon="11.46927">
        <ele>18.286194</ele>
        <time>2020-07-15T23:36:50.578Z</time>
      </trkpt>
      <trkpt lat="64.49335" lon="11.46943">
        <ele>15.281257</ele>
        <time>2020-07-15T23:37:13.348Z</time>
      </trkpt>
      <trkpt lat="64.49408" lon="11.46952">
        <ele>13.842789</ele>
        <time>2020-07-15T23:37:23.608Z</time>
      </trkpt>
      <trkpt lat="64.49444" lon="11.46958">
        <ele>13.225845</ele>
        <time>2020-07-15T23:37:28.654Z</time>
      </trkpt>
      <trkpt lat="64.49464" lon="11.46959">
        <ele>12.927434</ele>
        <time>2020-07-15T23:37:31.539Z</time>
      </trkpt>
      <trkpt lat="64.49474" lon="11.46961">
        <ele>12.780571</ele>
        <time>2020-07-15T23:37:32.847Z</time>
      </trkpt>
      <trkpt lat="64.49702" lon="11.46988">
        <ele>10.602067</ele>
        <time>2020-07-15T23:38:07.524Z</time>
      </trkpt>
      <trkpt lat="64.49728" lon="11.46991">
        <ele>10.535311</ele>
        <time>2020-07-15T23:38:12.435Z</time>
      </trkpt>
      <trkpt lat="64.49858" lon="11.47007">
        <ele>11.232809</ele>
        <time>2020-07-15T23:38:39.619Z</time>
      </trkpt>
      <trkpt lat="64.49903" lon="11.47024">
        <ele>11.757819</ele>
        <time>2020-07-15T23:38:49.716Z</time>
      </trkpt>
      <trkpt lat="64.49923" lon="11.47036">
        <ele>11.991041</ele>
        <time>2020-07-15T23:38:54.236Z</time>
      </trkpt>
      <trkpt lat="64.49946" lon="11.47051">
        <ele>12.273214</ele>
        <time>2020-07-15T23:38:59.607Z</time>
      </trkpt>
      <trkpt lat="64.49998" lon="11.47071">
        <ele>12.860506</ele>
        <time>2020-07-15T23:39:10.839Z</time>
      </trkpt>
      <trkpt lat="64.50097" lon="11.47058">
        <ele>13.976784</ele>
        <time>2020-07-15T23:39:32.243Z</time>
      </trkpt>
      <trkpt lat="64.50111" lon="11.47059">
        <ele>14.132702</ele>
        <time>2020-07-15T23:39:35.096Z</time>
      </trkpt>
      <trkpt lat="64.50116" lon="11.47059">
        <ele>14.186537</ele>
        <time>2020-07-15T23:39:36.096Z</time>
      </trkpt>
      <trkpt lat="64.50142" lon="11.47065">
        <ele>14.50185</ele>
        <time>2020-07-15T23:39:41.622Z</time>
      </trkpt>
      <trkpt lat="64.50153" lon="11.47069">
        <ele>14.724677</ele>
        <time>2020-07-15T23:39:43.696Z</time>
      </trkpt>
      <trkpt lat="64.50169" lon="11.47076">
        <ele>15.082683</ele>
        <time>2020-07-15T23:39:47.063Z</time>
      </trkpt>
      <trkpt lat="64.50228" lon="11.47123">
        <ele>16.433549</ele>
        <time>2020-07-15T23:40:01.938Z</time>
      </trkpt>
      <trkpt lat="64.5024" lon="11.47137">
        <ele>16.720249</ele>
        <time>2020-07-15T23:40:05.104Z</time>
      </trkpt>
      <trkpt lat="64.50244" lon="11.47141">
        <ele>16.819563</ele>
        <time>2020-07-15T23:40:06.238Z</time>
      </trkpt>
      <trkpt lat="64.50297" lon="11.47221">
        <ele>18.17118</ele>
        <time>2020-07-15T23:40:23.344Z</time>
      </trkpt>
      <trkpt lat="64.50313" lon="11.47255">
        <ele>18.846544</ele>
        <time>2020-07-15T23:40:29.122Z</time>
      </trkpt>
      <trkpt lat="64.50317" lon="11.47262">
        <ele>19.023883</ele>
        <time>2020-07-15T23:40:31.109Z</time>
      </trkpt>
      <trkpt lat="64.50347" lon="11.4734">
        <ele>20.646213</ele>
        <time>2020-07-15T23:40:44.341Z</time>
      </trkpt>
      <trkpt lat="64.50376" lon="11.47444">
        <ele>22.592985</ele>
        <time>2020-07-15T23:41:00.918Z</time>
      </trkpt>
      <trkpt lat="64.50554" lon="11.48263">
        <ele>34.834229</ele>
        <time>2020-07-15T23:42:55.194Z</time>
      </trkpt>
      <trkpt lat="64.50581" lon="11.4837">
        <ele>35.242294</ele>
        <time>2020-07-15T23:43:03.483Z</time>
      </trkpt>
      <trkpt lat="64.50605" lon="11.48433">
        <ele>34.851031</ele>
        <time>2020-07-15T23:43:08.692Z</time>
      </trkpt>
      <trkpt lat="64.50632" lon="11.48487">
        <ele>34.459669</ele>
        <time>2020-07-15T23:43:13.661Z</time>
      </trkpt>
      <trkpt lat="64.50811" lon="11.48765">
        <ele>32.824749</ele>
        <time>2020-07-15T23:43:46.831Z</time>
      </trkpt>
      <trkpt lat="64.50853" lon="11.48798">
        <ele>32.578186</ele>
        <time>2020-07-15T23:43:56.067Z</time>
      </trkpt>
      <trkpt lat="64.50889" lon="11.48802">
        <ele>32.352038</ele>
        <time>2020-07-15T23:44:03.431Z</time>
      </trkpt>
      <trkpt lat="64.51057" lon="11.48733">
        <ele>30.505379</ele>
        <time>2020-07-15T23:44:30.570Z</time>
      </trkpt>
      <trkpt lat="64.51105" lon="11.48691">
        <ele>28.516268</ele>
        <time>2020-07-15T23:44:37.161Z</time>
      </trkpt>
      <trkpt lat="64.51272" lon="11.48487">
        <ele>20.982093</ele>
        <time>2020-07-15T23:45:00.040Z</time>
      </trkpt>
      <trkpt lat="64.51317" lon="11.48461">
        <ele>19.042214</ele>
        <time>2020-07-15T23:45:05.911Z</time>
      </trkpt>
      <trkpt lat="64.51331" lon="11.4846">
        <ele>18.449312</ele>
        <time>2020-07-15T23:45:07.707Z</time>
      </trkpt>
      <trkpt lat="64.51331" lon="11.48477">
        <ele>18.143992</ele>
        <time>2020-07-15T23:45:09.038Z</time>
      </trkpt>
      <trkpt lat="64.51334" lon="11.48477">
        <ele>18.006151</ele>
        <time>2020-07-15T23:45:09.437Z</time>
      </trkpt>
      <trkpt lat="64.51372" lon="11.48494">
        <ele>16.755956</ele>
        <time>2020-07-15T23:45:14.478Z</time>
      </trkpt>
      <trkpt lat="64.51397" lon="11.48523">
        <ele>16.282853</ele>
        <time>2020-07-15T23:45:18.370Z</time>
      </trkpt>
      <trkpt lat="64.51432" lon="11.48588">
        <ele>15.539459</ele>
        <time>2020-07-15T23:45:24.666Z</time>
      </trkpt>
      <trkpt lat="64.51476" lon="11.48692">
        <ele>14.494311</ele>
        <time>2020-07-15T23:45:34.248Z</time>
      </trkpt>
      <trkpt lat="64.51497" lon="11.48751">
        <ele>13.960511</ele>
        <time>2020-07-15T23:45:39.705Z</time>
      </trkpt>
      <trkpt lat="64.51518" lon="11.48808">
        <ele>13.679101</ele>
        <time>2020-07-15T23:45:45.065Z</time>
      </trkpt>
      <trkpt lat="64.5157" lon="11.48918">
        <ele>13.070799</ele>
        <time>2020-07-15T23:45:56.278Z</time>
      </trkpt>
      <trkpt lat="64.5159" lon="11.48989">
        <ele>12.752553</ele>
        <time>2020-07-15T23:46:01.985Z</time>
      </trkpt>
      <trkpt lat="64.51602" lon="11.4907">
        <ele>12.434647</ele>
        <time>2020-07-15T23:46:07.616Z</time>
      </trkpt>
      <trkpt lat="64.51631" lon="11.49374">
        <ele>11.135193</ele>
        <time>2020-07-15T23:46:27.850Z</time>
      </trkpt>
      <trkpt lat="64.51666" lon="11.49577">
        <ele>11.548124</ele>
        <time>2020-07-15T23:46:43.253Z</time>
      </trkpt>
      <trkpt lat="64.51671" lon="11.49632">
        <ele>12.000771</ele>
        <time>2020-07-15T23:46:48.086Z</time>
      </trkpt>
      <trkpt lat="64.51668" lon="11.49734">
        <ele>12.831887</ele>
        <time>2020-07-15T23:46:59.735Z</time>
      </trkpt>
      <trkpt lat="64.51648" lon="11.49948">
        <ele>15.282691</ele>
        <time>2020-07-15T23:47:27.270Z</time>
      </trkpt>
      <trkpt lat="64.51639" lon="11.50005">
        <ele>16.369069</ele>
        <time>2020-07-15T23:47:35.595Z</time>
      </trkpt>
      <trkpt lat="64.51633" lon="11.50039">
        <ele>17.040974</ele>
        <time>2020-07-15T23:47:40.916Z</time>
      </trkpt>
      <trkpt lat="64.51608" lon="11.50149">
        <ele>19.291162</ele>
        <time>2020-07-15T23:47:58.470Z</time>
      </trkpt>
      <trkpt lat="64.51539" lon="11.50382">
        <ele>22.962118</ele>
        <time>2020-07-15T23:48:36.205Z</time>
      </trkpt>
      <trkpt lat="64.51512" lon="11.50444">
        <ele>23.726856</ele>
        <time>2020-07-15T23:48:45.447Z</time>
      </trkpt>
      <trkpt lat="64.5144" lon="11.50566">
        <ele>24.812766</ele>
        <time>2020-07-15T23:49:03.093Z</time>
      </trkpt>
      <trkpt lat="64.51414" lon="11.50627">
        <ele>23.64832</ele>
        <time>2020-07-15T23:49:08.911Z</time>
      </trkpt>
      <trkpt lat="64.51331" lon="11.50896">
        <ele>18.888848</ele>
        <time>2020-07-15T23:49:26.654Z</time>
      </trkpt>
      <trkpt lat="64.5131" lon="11.50979">
        <ele>16.715535</ele>
        <time>2020-07-15T23:49:31.508Z</time>
      </trkpt>
      <trkpt lat="64.51304" lon="11.51018">
        <ele>15.782492</ele>
        <time>2020-07-15T23:49:33.768Z</time>
      </trkpt>
      <trkpt lat="64.51302" lon="11.51046">
        <ele>15.161524</ele>
        <time>2020-07-15T23:49:35.090Z</time>
      </trkpt>
      <trkpt lat="64.51301" lon="11.51056">
        <ele>14.924248</ele>
        <time>2020-07-15T23:49:35.594Z</time>
      </trkpt>
      <trkpt lat="64.513" lon="11.51136">
        <ele>13.11366</ele>
        <time>2020-07-15T23:49:39.698Z</time>
      </trkpt>
      <trkpt lat="64.51315" lon="11.51266">
        <ele>10.125029</ele>
        <time>2020-07-15T23:49:46.840Z</time>
      </trkpt>
      <trkpt lat="64.51324" lon="11.51329">
        <ele>9.536621</ele>
        <time>2020-07-15T23:49:50.242Z</time>
      </trkpt>
      <trkpt lat="64.51341" lon="11.51432">
        <ele>8.532455</ele>
        <time>2020-07-15T23:49:56.542Z</time>
      </trkpt>
      <trkpt lat="64.5135" lon="11.51473">
        <ele>8.123751</ele>
        <time>2020-07-15T23:49:59.421Z</time>
      </trkpt>
      <trkpt lat="64.51354" lon="11.51489">
        <ele>7.949829</ele>
        <time>2020-07-15T23:50:00.741Z</time>
      </trkpt>
      <trkpt lat="64.5136" lon="11.5151">
        <ele>7.719018</ele>
        <time>2020-07-15T23:50:02.480Z</time>
      </trkpt>
      <trkpt lat="64.51362" lon="11.51517">
        <ele>7.644399</ele>
        <time>2020-07-15T23:50:03.020Z</time>
      </trkpt>
      <trkpt lat="64.51366" lon="11.51528">
        <ele>7.51728</ele>
        <time>2020-07-15T23:50:03.936Z</time>
      </trkpt>
      <trkpt lat="64.51376" lon="11.51545">
        <ele>7.261582</ele>
        <time>2020-07-15T23:50:05.851Z</time>
      </trkpt>
      <trkpt lat="64.51392" lon="11.51574">
        <ele>6.82703</ele>
        <time>2020-07-15T23:50:09.220Z</time>
      </trkpt>
      <trkpt lat="64.51407" lon="11.51618">
        <ele>6.407878</ele>
        <time>2020-07-15T23:50:13.267Z</time>
      </trkpt>
      <trkpt lat="64.51443" lon="11.51798">
        <ele>6.831918</ele>
        <time>2020-07-15T23:50:29.631Z</time>
      </trkpt>
      <trkpt lat="64.51473" lon="11.51912">
        <ele>7.119444</ele>
        <time>2020-07-15T23:50:41.213Z</time>
      </trkpt>
      <trkpt lat="64.51511" lon="11.51968">
        <ele>7.429945</ele>
        <time>2020-07-15T23:50:50.600Z</time>
      </trkpt>
      <trkpt lat="64.51524" lon="11.51977">
        <ele>7.601946</ele>
        <time>2020-07-15T23:50:53.659Z</time>
      </trkpt>
      <trkpt lat="64.51532" lon="11.5198">
        <ele>7.712613</ele>
        <time>2020-07-15T23:50:55.129Z</time>
      </trkpt>
      <trkpt lat="64.51585" lon="11.5199">
        <ele>8.393596</ele>
        <time>2020-07-15T23:51:06.588Z</time>
      </trkpt>
      <trkpt lat="64.51619" lon="11.5203">
        <ele>8.895739</ele>
        <time>2020-07-15T23:51:15.209Z</time>
      </trkpt>
      <trkpt lat="64.51702" lon="11.5222">
        <ele>10.473371</ele>
        <time>2020-07-15T23:51:42.033Z</time>
      </trkpt>
      <trkpt lat="64.51736" lon="11.52338">
        <ele>11.330063</ele>
        <time>2020-07-15T23:51:55.875Z</time>
      </trkpt>
      <trkpt lat="64.51745" lon="11.52402">
        <ele>11.74213</ele>
        <time>2020-07-15T23:52:02.271Z</time>
      </trkpt>
      <trkpt lat="64.51749" lon="11.52473">
        <ele>12.160401</ele>
        <time>2020-07-15T23:52:08.866Z</time>
      </trkpt>
      <trkpt lat="64.51742" lon="11.52685">
        <ele>12.616641</ele>
        <time>2020-07-15T23:52:27.377Z</time>
      </trkpt>
      <trkpt lat="64.51731" lon="11.52834">
        <ele>12.943077</ele>
        <time>2020-07-15T23:52:39.628Z</time>
      </trkpt>
      <trkpt lat="64.51695" lon="11.53103">
        <ele>12.521785</ele>
        <time>2020-07-15T23:53:00.878Z</time>
      </trkpt>
      <trkpt lat="64.51696" lon="11.53237">
        <ele>12.216047</ele>
        <time>2020-07-15T23:53:10.231Z</time>
      </trkpt>
      <trkpt lat="64.5178" lon="11.53752">
        <ele>7.948356</ele>
        <time>2020-07-15T23:53:44.026Z</time>
      </trkpt>
      <trkpt lat="64.51797" lon="11.53797">
        <ele>7.325147</ele>
        <time>2020-07-15T23:53:47.568Z</time>
      </trkpt>
      <trkpt lat="64.51817" lon="11.5383">
        <ele>6.71505</ele>
        <time>2020-07-15T23:53:50.835Z</time>
      </trkpt>
      <trkpt lat="64.51838" lon="11.53849">
        <ele>6.171735</ele>
        <time>2020-07-15T23:53:53.740Z</time>
      </trkpt>
      <trkpt lat="64.51865" lon="11.53857">
        <ele>5.504514</ele>
        <time>2020-07-15T23:53:57.594Z</time>
      </trkpt>
      <trkpt lat="64.51868" lon="11.5386">
        <ele>5.43475</ele>
        <time>2020-07-15T23:53:57.916Z</time>
      </trkpt>
      <trkpt lat="64.51874" lon="11.53869">
        <ele>5.247759</ele>
        <time>2020-07-15T23:53:58.898Z</time>
      </trkpt>
      <trkpt lat="64.51885" lon="11.53871">
        <ele>4.989901</ele>
        <time>2020-07-15T23:54:00.426Z</time>
      </trkpt>
      <trkpt lat="64.51899" lon="11.53836">
        <ele>4.474908</ele>
        <time>2020-07-15T23:54:03.231Z</time>
      </trkpt>
      <trkpt lat="64.51947" lon="11.53759">
        <ele>3.707816</ele>
        <time>2020-07-15T23:54:11.366Z</time>
      </trkpt>
      <trkpt lat="64.52027" lon="11.53653">
        <ele>2.552764</ele>
        <time>2020-07-15T23:54:25.152Z</time>
      </trkpt>
      <trkpt lat="64.52046" lon="11.53638">
        <ele>2.303551</ele>
        <time>2020-07-15T23:54:28.580Z</time>
      </trkpt>
      <trkpt lat="64.52106" lon="11.53609">
        <ele>2.584274</ele>
        <time>2020-07-15T23:54:40.812Z</time>
      </trkpt>
      <trkpt lat="64.52133" lon="11.53613">
        <ele>2.828524</ele>
        <time>2020-07-15T23:54:46.603Z</time>
      </trkpt>
      <trkpt lat="64.52153" lon="11.53628">
        <ele>3.019637</ele>
        <time>2020-07-15T23:54:51.207Z</time>
      </trkpt>
      <trkpt lat="64.52186" lon="11.53698">
        <ele>3.423915</ele>
        <time>2020-07-15T23:55:01.143Z</time>
      </trkpt>
      <trkpt lat="64.52197" lon="11.53725">
        <ele>3.567915</ele>
        <time>2020-07-15T23:55:04.857Z</time>
      </trkpt>
      <trkpt lat="64.52216" lon="11.53773">
        <ele>3.778686</ele>
        <time>2020-07-15T23:55:10.889Z</time>
      </trkpt>
      <trkpt lat="64.52251" lon="11.53869">
        <ele>3.778328</ele>
        <time>2020-07-15T23:55:21.710Z</time>
      </trkpt>
      <trkpt lat="64.5227" lon="11.53901">
        <ele>3.778174</ele>
        <time>2020-07-15T23:55:26.215Z</time>
      </trkpt>
      <trkpt lat="64.52279" lon="11.53912">
        <ele>3.778108</ele>
        <time>2020-07-15T23:55:28.546Z</time>
      </trkpt>
      <trkpt lat="64.52281" lon="11.53914">
        <ele>3.778091</ele>
        <time>2020-07-15T23:55:28.851Z</time>
      </trkpt>
      <trkpt lat="64.52307" lon="11.53929">
        <ele>3.777914</ele>
        <time>2020-07-15T23:55:33.926Z</time>
      </trkpt>
      <trkpt lat="64.52356" lon="11.53926">
        <ele>3.777591</ele>
        <time>2020-07-15T23:55:41.594Z</time>
      </trkpt>
      <trkpt lat="64.52465" lon="11.53824">
        <ele>2.541427</ele>
        <time>2020-07-15T23:55:58.730Z</time>
      </trkpt>
      <trkpt lat="64.52533" lon="11.53818">
        <ele>1.757373</ele>
        <time>2020-07-15T23:56:09.218Z</time>
      </trkpt>
      <trkpt lat="64.5257" lon="11.5383">
        <ele>2.201658</ele>
        <time>2020-07-15T23:56:15.715Z</time>
      </trkpt>
      <trkpt lat="64.52582" lon="11.53839">
        <ele>2.379822</ele>
        <time>2020-07-15T23:56:17.991Z</time>
      </trkpt>
      <trkpt lat="64.52615" lon="11.53862">
        <ele>2.859824</ele>
        <time>2020-07-15T23:56:25.076Z</time>
      </trkpt>
      <trkpt lat="64.52626" lon="11.53868">
        <ele>3.015677</ele>
        <time>2020-07-15T23:56:27.317Z</time>
      </trkpt>
      <trkpt lat="64.52641" lon="11.53874">
        <ele>3.227118</ele>
        <time>2020-07-15T23:56:31.129Z</time>
      </trkpt>
      <trkpt lat="64.52654" lon="11.53874">
        <ele>3.411422</ele>
        <time>2020-07-15T23:56:34.033Z</time>
      </trkpt>
      <trkpt lat="64.52692" lon="11.53877">
        <ele>3.937975</ele>
        <time>2020-07-15T23:56:43.421Z</time>
      </trkpt>
      <trkpt lat="64.52703" lon="11.53879">
        <ele>4.08632</ele>
        <time>2020-07-15T23:56:45.999Z</time>
      </trkpt>
      <trkpt lat="64.52704" lon="11.53879">
        <ele>4.100333</ele>
        <time>2020-07-15T23:56:46.839Z</time>
      </trkpt>
      <trkpt lat="64.52843" lon="11.5398">
        <ele>9.444128</ele>
        <time>2020-07-15T23:57:32.657Z</time>
      </trkpt>
      <trkpt lat="64.52942" lon="11.54024">
        <ele>13.161025</ele>
        <time>2020-07-15T23:58:04.015Z</time>
      </trkpt>
      <trkpt lat="64.52953" lon="11.54025">
        <ele>13.532167</ele>
        <time>2020-07-15T23:58:07.784Z</time>
      </trkpt>
      <trkpt lat="64.52958" lon="11.54036">
        <ele>13.794094</ele>
        <time>2020-07-15T23:58:09.625Z</time>
      </trkpt>
      <trkpt lat="64.52981" lon="11.54041">
        <ele>14.600809</ele>
        <time>2020-07-15T23:58:16.741Z</time>
      </trkpt>
      <trkpt lat="64.52986" lon="11.54042">
        <ele>14.788657</ele>
        <time>2020-07-15T23:58:18.653Z</time>
      </trkpt>
      <trkpt lat="64.52994" lon="11.54041">
        <ele>15.084132</ele>
        <time>2020-07-15T23:58:20.771Z</time>
      </trkpt>
      <trkpt lat="64.53047" lon="11.54071">
        <ele>17.034324</ele>
        <time>2020-07-15T23:58:36.898Z</time>
      </trkpt>
      <trkpt lat="64.5305" lon="11.54073">
        <ele>17.160216</ele>
        <time>2020-07-15T23:58:37.978Z</time>
      </trkpt>
      <trkpt lat="64.53071" lon="11.5408">
        <ele>17.746356</ele>
        <time>2020-07-15T23:58:43.703Z</time>
      </trkpt>
      <trkpt lat="64.53074" lon="11.5408">
        <ele>17.79626</ele>
        <time>2020-07-15T23:58:45.293Z</time>
      </trkpt>
      <trkpt lat="64.53355" lon="11.54014">
        <ele>22.285691</ele>
        <time>2020-07-15T23:59:50.626Z</time>
      </trkpt>
      <trkpt lat="64.53379" lon="11.54015">
        <ele>22.59505</ele>
        <time>2020-07-15T23:59:54.843Z</time>
      </trkpt>
      <trkpt lat="64.5346" lon="11.54046">
        <ele>24.198239</ele>
        <time>2020-07-16T00:00:14.130Z</time>
      </trkpt>
      <trkpt lat="64.53468" lon="11.54037">
        <ele>24.418087</ele>
        <time>2020-07-16T00:00:16.901Z</time>
      </trkpt>
      <trkpt lat="64.53469" lon="11.5403">
        <ele>24.499672</ele>
        <time>2020-07-16T00:00:17.750Z</time>
      </trkpt>
      <trkpt lat="64.53491" lon="11.54048">
        <ele>25.094582</ele>
        <time>2020-07-16T00:00:23.748Z</time>
      </trkpt>
      <trkpt lat="64.53548" lon="11.54108">
        <ele>26.702116</ele>
        <time>2020-07-16T00:00:40.834Z</time>
      </trkpt>
      <trkpt lat="64.53572" lon="11.54132">
        <ele>27.366641</ele>
        <time>2020-07-16T00:00:49.102Z</time>
      </trkpt>
      <trkpt lat="64.53645" lon="11.5418">
        <ele>28.052297</ele>
        <time>2020-07-16T00:01:09.264Z</time>
      </trkpt>
      <trkpt lat="64.5371" lon="11.54182">
        <ele>28.408451</ele>
        <time>2020-07-16T00:01:24.359Z</time>
      </trkpt>
      <trkpt lat="64.53763" lon="11.54156">
        <ele>28.650135</ele>
        <time>2020-07-16T00:01:31.572Z</time>
      </trkpt>
      <trkpt lat="64.53887" lon="11.54047">
        <ele>23.858981</ele>
        <time>2020-07-16T00:01:47.927Z</time>
      </trkpt>
      <trkpt lat="64.53952" lon="11.54037">
        <ele>22.230385</ele>
        <time>2020-07-16T00:01:56.446Z</time>
      </trkpt>
      <trkpt lat="64.53988" lon="11.54043">
        <ele>22.32023</ele>
        <time>2020-07-16T00:02:01.993Z</time>
      </trkpt>
      <trkpt lat="64.54004" lon="11.54043">
        <ele>22.358334</ele>
        <time>2020-07-16T00:02:05.148Z</time>
      </trkpt>
      <trkpt lat="64.5406" lon="11.54026">
        <ele>22.49999</ele>
        <time>2020-07-16T00:02:17.328Z</time>
      </trkpt>
      <trkpt lat="64.54089" lon="11.54007">
        <ele>22.574453</ele>
        <time>2020-07-16T00:02:24.863Z</time>
      </trkpt>
      <trkpt lat="64.54151" lon="11.53963">
        <ele>22.433621</ele>
        <time>2020-07-16T00:02:41.762Z</time>
      </trkpt>
      <trkpt lat="64.542" lon="11.53925">
        <ele>22.195164</ele>
        <time>2020-07-16T00:02:51.694Z</time>
      </trkpt>
      <trkpt lat="64.54276" lon="11.53869">
        <ele>21.825707</ele>
        <time>2020-07-16T00:03:03.444Z</time>
      </trkpt>
      <trkpt lat="64.54307" lon="11.53847">
        <ele>20.236273</ele>
        <time>2020-07-16T00:03:07.479Z</time>
      </trkpt>
      <trkpt lat="64.54354" lon="11.53828">
        <ele>17.552927</ele>
        <time>2020-07-16T00:03:13.024Z</time>
      </trkpt>
      <trkpt lat="64.54402" lon="11.53833">
        <ele>14.7592</ele>
        <time>2020-07-16T00:03:18.621Z</time>
      </trkpt>
      <trkpt lat="64.54525" lon="11.5392">
        <ele>8.175041</ele>
        <time>2020-07-16T00:03:33.487Z</time>
      </trkpt>
      <trkpt lat="64.5456" lon="11.53931">
        <ele>6.520885</ele>
        <time>2020-07-16T00:03:37.841Z</time>
      </trkpt>
      <trkpt lat="64.546" lon="11.53928">
        <ele>4.627821</ele>
        <time>2020-07-16T00:03:43.010Z</time>
      </trkpt>
      <trkpt lat="64.54647" lon="11.53903">
        <ele>2.919781</ele>
        <time>2020-07-16T00:03:49.520Z</time>
      </trkpt>
      <trkpt lat="64.54656" lon="11.53895">
        <ele>2.81351</ele>
        <time>2020-07-16T00:03:50.838Z</time>
      </trkpt>
      <trkpt lat="64.54665" lon="11.53887">
        <ele>2.711186</ele>
        <time>2020-07-16T00:03:52.157Z</time>
      </trkpt>
      <trkpt lat="64.5472" lon="11.53807">
        <ele>1.993584</ele>
        <time>2020-07-16T00:04:02.063Z</time>
      </trkpt>
      <trkpt lat="64.54788" lon="11.53635">
        <ele>1.079281</ele>
        <time>2020-07-16T00:04:19.188Z</time>
      </trkpt>
      <trkpt lat="64.54825" lon="11.53508">
        <ele>1.005137</ele>
        <time>2020-07-16T00:04:30.911Z</time>
      </trkpt>
      <trkpt lat="64.54917" lon="11.53131">
        <ele>0.750448</ele>
        <time>2020-07-16T00:05:03.717Z</time>
      </trkpt>
      <trkpt lat="64.54952" lon="11.53019">
        <ele>0.654408</ele>
        <time>2020-07-16T00:05:13.957Z</time>
      </trkpt>
      <trkpt lat="64.54969" lon="11.52973">
        <ele>0.612947</ele>
        <time>2020-07-16T00:05:18.384Z</time>
      </trkpt>
      <trkpt lat="64.54981" lon="11.52945">
        <ele>0.572071</ele>
        <time>2020-07-16T00:05:21.241Z</time>
      </trkpt>
      <trkpt lat="64.55029" lon="11.5285">
        <ele>0.414301</ele>
        <time>2020-07-16T00:05:31.945Z</time>
      </trkpt>
      <trkpt lat="64.55072" lon="11.52787">
        <ele>0.287119</ele>
        <time>2020-07-16T00:05:40.554Z</time>
      </trkpt>
      <trkpt lat="64.55123" lon="11.52729">
        <ele>0.166896</ele>
        <time>2020-07-16T00:05:50.310Z</time>
      </trkpt>
      <trkpt lat="64.55168" lon="11.52693">
        <ele>0.245923</ele>
        <time>2020-07-16T00:05:58.858Z</time>
      </trkpt>
      <trkpt lat="64.55246" lon="11.52661">
        <ele>0.376467</ele>
        <time>2020-07-16T00:06:13.325Z</time>
      </trkpt>
      <trkpt lat="64.55446" lon="11.5263">
        <ele>1.124207</ele>
        <time>2020-07-16T00:06:52.202Z</time>
      </trkpt>
      <trkpt lat="64.55481" lon="11.52614">
        <ele>1.247978</ele>
        <time>2020-07-16T00:06:58.805Z</time>
      </trkpt>
      <trkpt lat="64.55495" lon="11.52603">
        <ele>1.260852</ele>
        <time>2020-07-16T00:07:01.771Z</time>
      </trkpt>
      <trkpt lat="64.55503" lon="11.52596">
        <ele>1.268572</ele>
        <time>2020-07-16T00:07:03.243Z</time>
      </trkpt>
      <trkpt lat="64.55531" lon="11.52545">
        <ele>1.300342</ele>
        <time>2020-07-16T00:07:09.815Z</time>
      </trkpt>
      <trkpt lat="64.55558" lon="11.52448">
        <ele>1.344161</ele>
        <time>2020-07-16T00:07:18.705Z</time>
      </trkpt>
      <trkpt lat="64.55568" lon="11.524">
        <ele>1.364431</ele>
        <time>2020-07-16T00:07:22.985Z</time>
      </trkpt>
      <trkpt lat="64.55571" lon="11.52388">
        <ele>1.369477</ele>
        <time>2020-07-16T00:07:23.837Z</time>
      </trkpt>
      <trkpt lat="64.55584" lon="11.52338">
        <ele>1.391748</ele>
        <time>2020-07-16T00:07:28.642Z</time>
      </trkpt>
      <trkpt lat="64.55591" lon="11.52321">
        <ele>1.411355</ele>
        <time>2020-07-16T00:07:30.153Z</time>
      </trkpt>
      <trkpt lat="64.556" lon="11.52302">
        <ele>1.513364</ele>
        <time>2020-07-16T00:07:32.416Z</time>
      </trkpt>
      <trkpt lat="64.55657" lon="11.52217">
        <ele>2.08235</ele>
        <time>2020-07-16T00:07:44.109Z</time>
      </trkpt>
      <trkpt lat="64.55662" lon="11.52204">
        <ele>2.147273</ele>
        <time>2020-07-16T00:07:46.295Z</time>
      </trkpt>
      <trkpt lat="64.55669" lon="11.52185">
        <ele>2.236663</ele>
        <time>2020-07-16T00:07:48.188Z</time>
      </trkpt>
      <trkpt lat="64.55722" lon="11.52019">
        <ele>3.108652</ele>
        <time>2020-07-16T00:08:08.295Z</time>
      </trkpt>
      <trkpt lat="64.55728" lon="11.52003">
        <ele>3.312821</ele>
        <time>2020-07-16T00:08:11.310Z</time>
      </trkpt>
      <trkpt lat="64.55751" lon="11.51959">
        <ele>3.974246</ele>
        <time>2020-07-16T00:08:18.548Z</time>
      </trkpt>
      <trkpt lat="64.55778" lon="11.51926">
        <ele>4.635631</ele>
        <time>2020-07-16T00:08:26.007Z</time>
      </trkpt>
      <trkpt lat="64.55852" lon="11.51884">
        <ele>6.338224</ele>
        <time>2020-07-16T00:08:45.706Z</time>
      </trkpt>
      <trkpt lat="64.55896" lon="11.51846">
        <ele>7.237205</ele>
        <time>2020-07-16T00:08:57.586Z</time>
      </trkpt>
      <trkpt lat="64.55933" lon="11.51784">
        <ele>7.936448</ele>
        <time>2020-07-16T00:09:08.234Z</time>
      </trkpt>
      <trkpt lat="64.55956" lon="11.51716">
        <ele>8.515398</ele>
        <time>2020-07-16T00:09:16.643Z</time>
      </trkpt>
      <trkpt lat="64.5597" lon="11.51653">
        <ele>8.986803</ele>
        <time>2020-07-16T00:09:23.202Z</time>
      </trkpt>
      <trkpt lat="64.55991" lon="11.51447">
        <ele>10.434672</ele>
        <time>2020-07-16T00:09:42.413Z</time>
      </trkpt>
      <trkpt lat="64.55998" lon="11.51407">
        <ele>10.745095</ele>
        <time>2020-07-16T00:09:46.690Z</time>
      </trkpt>
      <trkpt lat="64.56081" lon="11.51178">
        <ele>12.600064</ele>
        <time>2020-07-16T00:10:18.192Z</time>
      </trkpt>
      <trkpt lat="64.56103" lon="11.51081">
        <ele>12.449972</ele>
        <time>2020-07-16T00:10:28.274Z</time>
      </trkpt>
      <trkpt lat="64.56107" lon="11.5102">
        <ele>12.365623</ele>
        <time>2020-07-16T00:10:33.269Z</time>
      </trkpt>
      <trkpt lat="64.56105" lon="11.50958">
        <ele>12.280128</ele>
        <time>2020-07-16T00:10:37.882Z</time>
      </trkpt>
      <trkpt lat="64.5608" lon="11.50808">
        <ele>12.022861</ele>
        <time>2020-07-16T00:10:47.717Z</time>
      </trkpt>
      <trkpt lat="64.56076" lon="11.50729">
        <ele>11.396562</ele>
        <time>2020-07-16T00:10:52.223Z</time>
      </trkpt>
      <trkpt lat="64.56086" lon="11.50648">
        <ele>10.737824</ele>
        <time>2020-07-16T00:10:56.888Z</time>
      </trkpt>
      <trkpt lat="64.56111" lon="11.50578">
        <ele>10.017812</ele>
        <time>2020-07-16T00:11:02.257Z</time>
      </trkpt>
      <trkpt lat="64.5612" lon="11.50562">
        <ele>9.818353</ele>
        <time>2020-07-16T00:11:03.531Z</time>
      </trkpt>
      <trkpt lat="64.56131" lon="11.50546">
        <ele>9.586246</ele>
        <time>2020-07-16T00:11:06.835Z</time>
      </trkpt>
      <trkpt lat="64.56219" lon="11.50414">
        <ele>8.873896</ele>
        <time>2020-07-16T00:11:26.343Z</time>
      </trkpt>
      <trkpt lat="64.56226" lon="11.50401">
        <ele>8.885912</ele>
        <time>2020-07-16T00:11:29.419Z</time>
      </trkpt>
      <trkpt lat="64.56238" lon="11.50372">
        <ele>8.908694</ele>
        <time>2020-07-16T00:11:31.709Z</time>
      </trkpt>
      <trkpt lat="64.56244" lon="11.50355">
        <ele>8.9203</ele>
        <time>2020-07-16T00:11:34.268Z</time>
      </trkpt>
      <trkpt lat="64.5625" lon="11.50328">
        <ele>8.937595</ele>
        <time>2020-07-16T00:11:38.024Z</time>
      </trkpt>
      <trkpt lat="64.56263" lon="11.50221">
        <ele>8.999423</ele>
        <time>2020-07-16T00:11:46.787Z</time>
      </trkpt>
      <trkpt lat="64.56256" lon="11.50118">
        <ele>8.439848</ele>
        <time>2020-07-16T00:11:54.035Z</time>
      </trkpt>
      <trkpt lat="64.5625" lon="11.50087">
        <ele>8.061022</ele>
        <time>2020-07-16T00:11:56.326Z</time>
      </trkpt>
      <trkpt lat="64.562" lon="11.49884">
        <ele>5.43391</ele>
        <time>2020-07-16T00:12:09.713Z</time>
      </trkpt>
      <trkpt lat="64.56195" lon="11.49867">
        <ele>5.212702</ele>
        <time>2020-07-16T00:12:10.665Z</time>
      </trkpt>
      <trkpt lat="64.56187" lon="11.49841">
        <ele>4.851129</ele>
        <time>2020-07-16T00:12:12.565Z</time>
      </trkpt>
      <trkpt lat="64.56162" lon="11.49782">
        <ele>4.051404</ele>
        <time>2020-07-16T00:12:17.067Z</time>
      </trkpt>
      <trkpt lat="64.56132" lon="11.49738">
        <ele>3.414562</ele>
        <time>2020-07-16T00:12:21.644Z</time>
      </trkpt>
      <trkpt lat="64.56113" lon="11.49719">
        <ele>3.045213</ele>
        <time>2020-07-16T00:12:24.329Z</time>
      </trkpt>
      <trkpt lat="64.561" lon="11.49708">
        <ele>2.804265</ele>
        <time>2020-07-16T00:12:26.264Z</time>
      </trkpt>
      <trkpt lat="64.55996" lon="11.49638">
        <ele>1.119764</ele>
        <time>2020-07-16T00:12:44.119Z</time>
      </trkpt>
      <trkpt lat="64.55954" lon="11.49592">
        <ele>1.150311</ele>
        <time>2020-07-16T00:12:52.336Z</time>
      </trkpt>
      <trkpt lat="64.55927" lon="11.49542">
        <ele>1.172983</ele>
        <time>2020-07-16T00:12:58.464Z</time>
      </trkpt>
      <trkpt lat="64.55867" lon="11.49372">
        <ele>1.318505</ele>
        <time>2020-07-16T00:13:16.245Z</time>
      </trkpt>
      <trkpt lat="64.55832" lon="11.49309">
        <ele>1.69663</ele>
        <time>2020-07-16T00:13:25.033Z</time>
      </trkpt>
      <trkpt lat="64.558" lon="11.49282">
        <ele>1.984253</ele>
        <time>2020-07-16T00:13:31.827Z</time>
      </trkpt>
      <trkpt lat="64.5572" lon="11.49269">
        <ele>2.675248</ele>
        <time>2020-07-16T00:13:48.819Z</time>
      </trkpt>
      <trkpt lat="64.55681" lon="11.49242">
        <ele>3.210898</ele>
        <time>2020-07-16T00:13:57.741Z</time>
      </trkpt>
      <trkpt lat="64.55649" lon="11.49198">
        <ele>3.76978</ele>
        <time>2020-07-16T00:14:06.174Z</time>
      </trkpt>
      <trkpt lat="64.55585" lon="11.49067">
        <ele>5.043801</ele>
        <time>2020-07-16T00:14:25.590Z</time>
      </trkpt>
      <trkpt lat="64.55516" lon="11.48993">
        <ele>6.681836</ele>
        <time>2020-07-16T00:14:43.473Z</time>
      </trkpt>
      <trkpt lat="64.55484" lon="11.48947">
        <ele>7.628585</ele>
        <time>2020-07-16T00:14:52.908Z</time>
      </trkpt>
      <trkpt lat="64.55459" lon="11.48885">
        <ele>8.555656</ele>
        <time>2020-07-16T00:15:02.572Z</time>
      </trkpt>
      <trkpt lat="64.55443" lon="11.48821">
        <ele>9.357475</ele>
        <time>2020-07-16T00:15:11.242Z</time>
      </trkpt>
      <trkpt lat="64.55438" lon="11.48776">
        <ele>9.865512</ele>
        <time>2020-07-16T00:15:16.893Z</time>
      </trkpt>
      <trkpt lat="64.55421" lon="11.48424">
        <ele>14.617023</ele>
        <time>2020-07-16T00:16:01.304Z</time>
      </trkpt>
      <trkpt lat="64.55412" lon="11.48379">
        <ele>15.291713</ele>
        <time>2020-07-16T00:16:07.321Z</time>
      </trkpt>
      <trkpt lat="64.55385" lon="11.48298">
        <ele>15.611315</ele>
        <time>2020-07-16T00:16:17.781Z</time>
      </trkpt>
      <trkpt lat="64.55369" lon="11.48256">
        <ele>15.551813</ele>
        <time>2020-07-16T00:16:23.306Z</time>
      </trkpt>
      <trkpt lat="64.55355" lon="11.48222">
        <ele>15.502801</ele>
        <time>2020-07-16T00:16:26.900Z</time>
      </trkpt>
      <trkpt lat="64.55302" lon="11.48136">
        <ele>15.345815</ele>
        <time>2020-07-16T00:16:37.304Z</time>
      </trkpt>
      <trkpt lat="64.55152" lon="11.48004">
        <ele>12.585993</ele>
        <time>2020-07-16T00:16:58.708Z</time>
      </trkpt>
      <trkpt lat="64.55118" lon="11.47963">
        <ele>11.728713</ele>
        <time>2020-07-16T00:17:04.083Z</time>
      </trkpt>
      <trkpt lat="64.5507" lon="11.4787">
        <ele>11.884156</ele>
        <time>2020-07-16T00:17:13.812Z</time>
      </trkpt>
      <trkpt lat="64.55032" lon="11.47746">
        <ele>12.819472</ele>
        <time>2020-07-16T00:17:27.947Z</time>
      </trkpt>
      <trkpt lat="64.55022" lon="11.47674">
        <ele>13.28262</ele>
        <time>2020-07-16T00:17:36.560Z</time>
      </trkpt>
      <trkpt lat="64.55016" lon="11.47571">
        <ele>13.984221</ele>
        <time>2020-07-16T00:17:49.749Z</time>
      </trkpt>
      <trkpt lat="64.55029" lon="11.47336">
        <ele>16.844101</ele>
        <time>2020-07-16T00:18:20.820Z</time>
      </trkpt>
      <trkpt lat="64.55028" lon="11.47234">
        <ele>18.0806</ele>
        <time>2020-07-16T00:18:32.425Z</time>
      </trkpt>
      <trkpt lat="64.55018" lon="11.4713">
        <ele>18.648057</ele>
        <time>2020-07-16T00:18:42.650Z</time>
      </trkpt>
      <trkpt lat="64.54978" lon="11.46844">
        <ele>16.502012</ele>
        <time>2020-07-16T00:19:01.720Z</time>
      </trkpt>
      <trkpt lat="64.54972" lon="11.46779">
        <ele>16.023208</ele>
        <time>2020-07-16T00:19:05.291Z</time>
      </trkpt>
      <trkpt lat="64.54975" lon="11.46665">
        <ele>14.143838</ele>
        <time>2020-07-16T00:19:11.263Z</time>
      </trkpt>
      <trkpt lat="64.54985" lon="11.46536">
        <ele>11.804309</ele>
        <time>2020-07-16T00:19:18.216Z</time>
      </trkpt>
      <trkpt lat="64.5499" lon="11.46499">
        <ele>11.120992</ele>
        <time>2020-07-16T00:19:20.237Z</time>
      </trkpt>
      <trkpt lat="64.54997" lon="11.46454">
        <ele>10.263632</ele>
        <time>2020-07-16T00:19:22.829Z</time>
      </trkpt>
      <trkpt lat="64.55011" lon="11.46382">
        <ele>8.85686</ele>
        <time>2020-07-16T00:19:27.127Z</time>
      </trkpt>
      <trkpt lat="64.55042" lon="11.46267">
        <ele>8.110432</ele>
        <time>2020-07-16T00:19:34.700Z</time>
      </trkpt>
      <trkpt lat="64.55099" lon="11.46103">
        <ele>7.422885</ele>
        <time>2020-07-16T00:19:48.808Z</time>
      </trkpt>
      <trkpt lat="64.55141" lon="11.46043">
        <ele>7.655167</ele>
        <time>2020-07-16T00:20:00.513Z</time>
      </trkpt>
      <trkpt lat="64.55171" lon="11.46018">
        <ele>9.603813</ele>
        <time>2020-07-16T00:20:09.849Z</time>
      </trkpt>
      <trkpt lat="64.55204" lon="11.46006">
        <ele>11.642879</ele>
        <time>2020-07-16T00:20:20.839Z</time>
      </trkpt>
      <trkpt lat="64.55239" lon="11.46009">
        <ele>13.760846</ele>
        <time>2020-07-16T00:20:33.547Z</time>
      </trkpt>
      <trkpt lat="64.55266" lon="11.46023">
        <ele>15.482859</ele>
        <time>2020-07-16T00:20:45.122Z</time>
      </trkpt>
      <trkpt lat="64.55383" lon="11.46133">
        <ele>28.423377</ele>
        <time>2020-07-16T00:21:49.367Z</time>
      </trkpt>
      <trkpt lat="64.55437" lon="11.46159">
        <ele>35.168509</ele>
        <time>2020-07-16T00:22:22.921Z</time>
      </trkpt>
      <trkpt lat="64.55482" lon="11.46152">
        <ele>40.910545</ele>
        <time>2020-07-16T00:22:52.628Z</time>
      </trkpt>
      <trkpt lat="64.55652" lon="11.46078">
        <ele>66.937033</ele>
        <time>2020-07-16T00:24:50.862Z</time>
      </trkpt>
      <trkpt lat="64.55809" lon="11.46067">
        <ele>84.060709</ele>
        <time>2020-07-16T00:26:19.731Z</time>
      </trkpt>
      <trkpt lat="64.55941" lon="11.45985">
        <ele>87.684922</ele>
        <time>2020-07-16T00:27:01.223Z</time>
      </trkpt>
      <trkpt lat="64.56155" lon="11.4594">
        <ele>79.193177</ele>
        <time>2020-07-16T00:27:26.864Z</time>
      </trkpt>
      <trkpt lat="64.56207" lon="11.45952">
        <ele>76.052374</ele>
        <time>2020-07-16T00:27:32.611Z</time>
      </trkpt>
      <trkpt lat="64.56321" lon="11.46006">
        <ele>69.314479</ele>
        <time>2020-07-16T00:27:45.907Z</time>
      </trkpt>
      <trkpt lat="64.56463" lon="11.46001">
        <ele>67.075206</ele>
        <time>2020-07-16T00:28:07.742Z</time>
      </trkpt>
      <trkpt lat="64.5663" lon="11.4604">
        <ele>66.352363</ele>
        <time>2020-07-16T00:28:50.602Z</time>
      </trkpt>
      <trkpt lat="64.56673" lon="11.46035">
        <ele>65.830699</ele>
        <time>2020-07-16T00:28:56.463Z</time>
      </trkpt>
      <trkpt lat="64.56773" lon="11.45998">
        <ele>62.574127</ele>
        <time>2020-07-16T00:29:08.612Z</time>
      </trkpt>
      <trkpt lat="64.5682" lon="11.45997">
        <ele>60.091719</ele>
        <time>2020-07-16T00:29:13.831Z</time>
      </trkpt>
      <trkpt lat="64.56978" lon="11.46065">
        <ele>57.127445</ele>
        <time>2020-07-16T00:29:34.359Z</time>
      </trkpt>
      <trkpt lat="64.57036" lon="11.46078">
        <ele>58.259969</ele>
        <time>2020-07-16T00:29:52.655Z</time>
      </trkpt>
      <trkpt lat="64.57282" lon="11.46038">
        <ele>72.886639</ele>
        <time>2020-07-16T00:31:39.817Z</time>
      </trkpt>
      <trkpt lat="64.57347" lon="11.46065">
        <ele>73.742944</ele>
        <time>2020-07-16T00:31:56.517Z</time>
      </trkpt>
      <trkpt lat="64.57413" lon="11.46127">
        <ele>74.651459</ele>
        <time>2020-07-16T00:32:07.928Z</time>
      </trkpt>
      <trkpt lat="64.57439" lon="11.4615">
        <ele>74.606239</ele>
        <time>2020-07-16T00:32:11.686Z</time>
      </trkpt>
      <trkpt lat="64.57449" lon="11.46158">
        <ele>74.122892</ele>
        <time>2020-07-16T00:32:12.923Z</time>
      </trkpt>
      <trkpt lat="64.57518" lon="11.46202">
        <ele>70.828953</ele>
        <time>2020-07-16T00:32:21.838Z</time>
      </trkpt>
      <trkpt lat="64.57624" lon="11.46293">
        <ele>65.150732</ele>
        <time>2020-07-16T00:32:35.427Z</time>
      </trkpt>
      <trkpt lat="64.57687" lon="11.4631">
        <ele>60.99021</ele>
        <time>2020-07-16T00:32:42.763Z</time>
      </trkpt>
      <trkpt lat="64.57722" lon="11.46308">
        <ele>58.731581</ele>
        <time>2020-07-16T00:32:46.724Z</time>
      </trkpt>
      <trkpt lat="64.57808" lon="11.4631">
        <ele>53.186924</ele>
        <time>2020-07-16T00:32:56.623Z</time>
      </trkpt>
      <trkpt lat="64.58166" lon="11.46404">
        <ele>31.835092</ele>
        <time>2020-07-16T00:33:39.140Z</time>
      </trkpt>
      <trkpt lat="64.58212" lon="11.46425">
        <ele>29.324739</ele>
        <time>2020-07-16T00:33:44.665Z</time>
      </trkpt>
      <trkpt lat="64.58286" lon="11.46486">
        <ele>25.102885</ele>
        <time>2020-07-16T00:33:54.136Z</time>
      </trkpt>
      <trkpt lat="64.58347" lon="11.46511">
        <ele>22.69187</ele>
        <time>2020-07-16T00:34:01.704Z</time>
      </trkpt>
      <trkpt lat="64.58463" lon="11.46499">
        <ele>19.353334</ele>
        <time>2020-07-16T00:34:17.364Z</time>
      </trkpt>
      <trkpt lat="64.58574" lon="11.46539">
        <ele>17.552876</ele>
        <time>2020-07-16T00:34:34.305Z</time>
      </trkpt>
      <trkpt lat="64.58649" lon="11.46545">
        <ele>16.664591</ele>
        <time>2020-07-16T00:34:45.856Z</time>
      </trkpt>
      <trkpt lat="64.58696" lon="11.46532">
        <ele>16.226218</ele>
        <time>2020-07-16T00:34:53.196Z</time>
      </trkpt>
      <trkpt lat="64.5875" lon="11.46502">
        <ele>15.821571</ele>
        <time>2020-07-16T00:35:02.029Z</time>
      </trkpt>
      <trkpt lat="64.58849" lon="11.46385">
        <ele>15.124458</ele>
        <time>2020-07-16T00:35:19.932Z</time>
      </trkpt>
      <trkpt lat="64.58972" lon="11.46268">
        <ele>15.275295</ele>
        <time>2020-07-16T00:35:43.542Z</time>
      </trkpt>
      <trkpt lat="64.59012" lon="11.46205">
        <ele>15.613137</ele>
        <time>2020-07-16T00:35:53.146Z</time>
      </trkpt>
      <trkpt lat="64.59048" lon="11.46126">
        <ele>16.715103</ele>
        <time>2020-07-16T00:36:04.245Z</time>
      </trkpt>
      <trkpt lat="64.59091" lon="11.46001">
        <ele>18.238289</ele>
        <time>2020-07-16T00:36:21.520Z</time>
      </trkpt>
      <trkpt lat="64.59158" lon="11.45735">
        <ele>22.188495</ele>
        <time>2020-07-16T00:37:00.540Z</time>
      </trkpt>
      <trkpt lat="64.59278" lon="11.45363">
        <ele>26.920781</ele>
        <time>2020-07-16T00:37:57.494Z</time>
      </trkpt>
      <trkpt lat="64.59306" lon="11.45224">
        <ele>27.84415</ele>
        <time>2020-07-16T00:38:08.508Z</time>
      </trkpt>
      <trkpt lat="64.59311" lon="11.4512">
        <ele>26.561502</ele>
        <time>2020-07-16T00:38:14.755Z</time>
      </trkpt>
      <trkpt lat="64.59303" lon="11.45029">
        <ele>24.952027</ele>
        <time>2020-07-16T00:38:19.852Z</time>
      </trkpt>
      <trkpt lat="64.59261" lon="11.44834">
        <ele>21.173546</ele>
        <time>2020-07-16T00:38:31.133Z</time>
      </trkpt>
      <trkpt lat="64.5925" lon="11.44756">
        <ele>19.579529</ele>
        <time>2020-07-16T00:38:35.356Z</time>
      </trkpt>
      <trkpt lat="64.59247" lon="11.44642">
        <ele>17.269482</ele>
        <time>2020-07-16T00:38:41.253Z</time>
      </trkpt>
      <trkpt lat="64.59259" lon="11.44528">
        <ele>14.882551</ele>
        <time>2020-07-16T00:38:47.437Z</time>
      </trkpt>
      <trkpt lat="64.59286" lon="11.44429">
        <ele>12.505525</ele>
        <time>2020-07-16T00:38:53.711Z</time>
      </trkpt>
      <trkpt lat="64.59331" lon="11.44307">
        <ele>10.335157</ele>
        <time>2020-07-16T00:39:02.612Z</time>
      </trkpt>
      <trkpt lat="64.59361" lon="11.44246">
        <ele>9.164637</ele>
        <time>2020-07-16T00:39:07.825Z</time>
      </trkpt>
      <trkpt lat="64.59417" lon="11.44166">
        <ele>7.2042</ele>
        <time>2020-07-16T00:39:16.859Z</time>
      </trkpt>
      <trkpt lat="64.59441" lon="11.4412">
        <ele>6.616347</ele>
        <time>2020-07-16T00:39:21.217Z</time>
      </trkpt>
      <trkpt lat="64.59457" lon="11.44071">
        <ele>6.282814</ele>
        <time>2020-07-16T00:39:24.782Z</time>
      </trkpt>
      <trkpt lat="64.59502" lon="11.43886">
        <ele>5.143239</ele>
        <time>2020-07-16T00:39:38.262Z</time>
      </trkpt>
      <trkpt lat="64.59522" lon="11.43847">
        <ele>4.812191</ele>
        <time>2020-07-16T00:39:42.713Z</time>
      </trkpt>
      <trkpt lat="64.59551" lon="11.43817">
        <ele>4.826449</ele>
        <time>2020-07-16T00:39:48.317Z</time>
      </trkpt>
      <trkpt lat="64.5966" lon="11.43808">
        <ele>6.412011</ele>
        <time>2020-07-16T00:40:12.017Z</time>
      </trkpt>
      <trkpt lat="64.59701" lon="11.43784">
        <ele>7.028567</ele>
        <time>2020-07-16T00:40:22.729Z</time>
      </trkpt>
      <trkpt lat="64.59789" lon="11.43686">
        <ele>9.883932</ele>
        <time>2020-07-16T00:40:50.490Z</time>
      </trkpt>
      <trkpt lat="64.59831" lon="11.43657">
        <ele>11.269405</ele>
        <time>2020-07-16T00:41:02.755Z</time>
      </trkpt>
      <trkpt lat="64.59855" lon="11.4365">
        <ele>12.006425</ele>
        <time>2020-07-16T00:41:09.233Z</time>
      </trkpt>
      <trkpt lat="64.59963" lon="11.43655">
        <ele>16.121253</ele>
        <time>2020-07-16T00:41:40.480Z</time>
      </trkpt>
      <trkpt lat="64.6001" lon="11.43644">
        <ele>17.98823</ele>
        <time>2020-07-16T00:41:54.874Z</time>
      </trkpt>
      <trkpt lat="64.60105" lon="11.43595">
        <ele>22.398861</ele>
        <time>2020-07-16T00:42:27.557Z</time>
      </trkpt>
      <trkpt lat="64.60174" lon="11.43545">
        <ele>26.036127</ele>
        <time>2020-07-16T00:42:52.636Z</time>
      </trkpt>
      <trkpt lat="64.60209" lon="11.43494">
        <ele>28.140273</ele>
        <time>2020-07-16T00:43:07.347Z</time>
      </trkpt>
      <trkpt lat="64.60307" lon="11.43256">
        <ele>34.369098</ele>
        <time>2020-07-16T00:43:53.024Z</time>
      </trkpt>
      <trkpt lat="64.60406" lon="11.42927">
        <ele>42.715423</ele>
        <time>2020-07-16T00:44:43.735Z</time>
      </trkpt>
      <trkpt lat="64.60458" lon="11.42727">
        <ele>49.052032</ele>
        <time>2020-07-16T00:45:25.656Z</time>
      </trkpt>
      <trkpt lat="64.6046" lon="11.42718">
        <ele>49.433355</ele>
        <time>2020-07-16T00:45:27.633Z</time>
      </trkpt>
      <trkpt lat="64.60492" lon="11.42602">
        <ele>54.53694</ele>
        <time>2020-07-16T00:45:55.319Z</time>
      </trkpt>
      <trkpt lat="64.6052" lon="11.42523">
        <ele>58.379285</ele>
        <time>2020-07-16T00:46:16.133Z</time>
      </trkpt>
      <trkpt lat="64.60543" lon="11.42488">
        <ele>60.737993</ele>
        <time>2020-07-16T00:46:29.733Z</time>
      </trkpt>
      <trkpt lat="64.60574" lon="11.4246">
        <ele>62.926427</ele>
        <time>2020-07-16T00:46:45.738Z</time>
      </trkpt>
      <trkpt lat="64.60611" lon="11.42448">
        <ele>65.002286</ele>
        <time>2020-07-16T00:47:02.234Z</time>
      </trkpt>
      <trkpt lat="64.60725" lon="11.42464">
        <ele>71.276309</ele>
        <time>2020-07-16T00:47:40.399Z</time>
      </trkpt>
      <trkpt lat="64.60746" lon="11.42453">
        <ele>70.673702</ele>
        <time>2020-07-16T00:47:46.519Z</time>
      </trkpt>
      <trkpt lat="64.608" lon="11.424">
        <ele>66.812993</ele>
        <time>2020-07-16T00:47:54.418Z</time>
      </trkpt>
      <trkpt lat="64.6083" lon="11.42385">
        <ele>64.760646</ele>
        <time>2020-07-16T00:47:58.097Z</time>
      </trkpt>
      <trkpt lat="64.60859" lon="11.42389">
        <ele>62.8123</ele>
        <time>2020-07-16T00:48:01.296Z</time>
      </trkpt>
      <trkpt lat="64.609" lon="11.42431">
        <ele>59.843921</ele>
        <time>2020-07-16T00:48:06.069Z</time>
      </trkpt>
      <trkpt lat="64.60905" lon="11.42438">
        <ele>59.029348</ele>
        <time>2020-07-16T00:48:06.660Z</time>
      </trkpt>
      <trkpt lat="64.61136" lon="11.42825">
        <ele>13.894153</ele>
        <time>2020-07-16T00:48:35.798Z</time>
      </trkpt>
      <trkpt lat="64.61156" lon="11.42859">
        <ele>10.547755</ele>
        <time>2020-07-16T00:48:38.523Z</time>
      </trkpt>
      <trkpt lat="64.61187" lon="11.42904">
        <ele>5.567521</ele>
        <time>2020-07-16T00:48:42.703Z</time>
      </trkpt>
      <trkpt lat="64.61225" lon="11.42916">
        <ele>3.780042</ele>
        <time>2020-07-16T00:48:47.217Z</time>
      </trkpt>
      <trkpt lat="64.61363" lon="11.42831">
        <ele>1.38778</ele>
        <time>2020-07-16T00:49:10.670Z</time>
      </trkpt>
      <trkpt lat="64.61378" lon="11.42821">
        <ele>1.325522</ele>
        <time>2020-07-16T00:49:13.826Z</time>
      </trkpt>
      <trkpt lat="64.61466" lon="11.42768">
        <ele>2.656206</ele>
        <time>2020-07-16T00:49:33.013Z</time>
      </trkpt>
      <trkpt lat="64.61524" lon="11.42757">
        <ele>3.5087</ele>
        <time>2020-07-16T00:49:46.215Z</time>
      </trkpt>
      <trkpt lat="64.61682" lon="11.42843">
        <ele>9.006651</ele>
        <time>2020-07-16T00:50:33.170Z</time>
      </trkpt>
      <trkpt lat="64.61766" lon="11.42879">
        <ele>12.718814</ele>
        <time>2020-07-16T00:51:01.927Z</time>
      </trkpt>
      <trkpt lat="64.61885" lon="11.42892">
        <ele>18.602009</ele>
        <time>2020-07-16T00:51:42.627Z</time>
      </trkpt>
      <trkpt lat="64.61919" lon="11.42918">
        <ele>20.466097</ele>
        <time>2020-07-16T00:51:54.474Z</time>
      </trkpt>
      <trkpt lat="64.61943" lon="11.42948">
        <ele>21.943714</ele>
        <time>2020-07-16T00:52:03.334Z</time>
      </trkpt>
      <trkpt lat="64.61986" lon="11.43045">
        <ele>25.180827</ele>
        <time>2020-07-16T00:52:23.120Z</time>
      </trkpt>
      <trkpt lat="64.62075" lon="11.43294">
        <ele>33.560513</ele>
        <time>2020-07-16T00:53:15.772Z</time>
      </trkpt>
      <trkpt lat="64.62093" lon="11.43357">
        <ele>35.761189</ele>
        <time>2020-07-16T00:53:30.035Z</time>
      </trkpt>
      <trkpt lat="64.62104" lon="11.43409">
        <ele>37.435976</ele>
        <time>2020-07-16T00:53:40.420Z</time>
      </trkpt>
      <trkpt lat="64.6211" lon="11.43477">
        <ele>39.45545</ele>
        <time>2020-07-16T00:53:52.277Z</time>
      </trkpt>
      <trkpt lat="64.62109" lon="11.4354">
        <ele>41.271087</ele>
        <time>2020-07-16T00:54:02.369Z</time>
      </trkpt>
      <trkpt lat="64.62102" lon="11.43588">
        <ele>42.168308</ele>
        <time>2020-07-16T00:54:11.486Z</time>
      </trkpt>
      <trkpt lat="64.62092" lon="11.43631">
        <ele>43.023933</ele>
        <time>2020-07-16T00:54:18.751Z</time>
      </trkpt>
      <trkpt lat="64.62067" lon="11.4369">
        <ele>44.447552</ele>
        <time>2020-07-16T00:54:31.207Z</time>
      </trkpt>
      <trkpt lat="64.61905" lon="11.43955">
        <ele>50.348013</ele>
        <time>2020-07-16T00:55:21.983Z</time>
      </trkpt>
      <trkpt lat="64.61854" lon="11.44067">
        <ele>51.681127</ele>
        <time>2020-07-16T00:55:37.225Z</time>
      </trkpt>
      <trkpt lat="64.61833" lon="11.44147">
        <ele>52.357832</ele>
        <time>2020-07-16T00:55:46.221Z</time>
      </trkpt>
      <trkpt lat="64.61819" lon="11.44244">
        <ele>53.034493</ele>
        <time>2020-07-16T00:55:56.147Z</time>
      </trkpt>
      <trkpt lat="64.618" lon="11.44604">
        <ele>55.326855</ele>
        <time>2020-07-16T00:56:32.058Z</time>
      </trkpt>
      <trkpt lat="64.61788" lon="11.4471">
        <ele>55.940572</ele>
        <time>2020-07-16T00:56:42.689Z</time>
      </trkpt>
      <trkpt lat="64.61771" lon="11.44798">
        <ele>56.487137</ele>
        <time>2020-07-16T00:56:51.876Z</time>
      </trkpt>
      <trkpt lat="64.61743" lon="11.44898">
        <ele>57.1167</ele>
        <time>2020-07-16T00:57:02.737Z</time>
      </trkpt>
      <trkpt lat="64.61718" lon="11.44961">
        <ele>57.291989</ele>
        <time>2020-07-16T00:57:10.206Z</time>
      </trkpt>
      <trkpt lat="64.61677" lon="11.45033">
        <ele>57.535629</ele>
        <time>2020-07-16T00:57:20.180Z</time>
      </trkpt>
      <trkpt lat="64.61589" lon="11.45165">
        <ele>57.979571</ele>
        <time>2020-07-16T00:57:39.655Z</time>
      </trkpt>
      <trkpt lat="64.61569" lon="11.45219">
        <ele>58.02413</ele>
        <time>2020-07-16T00:57:45.135Z</time>
      </trkpt>
      <trkpt lat="64.61558" lon="11.45283">
        <ele>58.067588</ele>
        <time>2020-07-16T00:57:50.460Z</time>
      </trkpt>
      <trkpt lat="64.61554" lon="11.45378">
        <ele>58.127269</ele>
        <time>2020-07-16T00:57:57.828Z</time>
      </trkpt>
      <trkpt lat="64.61558" lon="11.45437">
        <ele>58.165023</ele>
        <time>2020-07-16T00:58:02.517Z</time>
      </trkpt>
      <trkpt lat="64.61569" lon="11.45492">
        <ele>58.20282</ele>
        <time>2020-07-16T00:58:07.249Z</time>
      </trkpt>
      <trkpt lat="64.61601" lon="11.45567">
        <ele>58.730639</ele>
        <time>2020-07-16T00:58:15.644Z</time>
      </trkpt>
      <trkpt lat="64.61699" lon="11.45682">
        <ele>60.295594</ele>
        <time>2020-07-16T00:58:38.378Z</time>
      </trkpt>
      <trkpt lat="64.61733" lon="11.45748">
        <ele>61.398512</ele>
        <time>2020-07-16T00:58:50.732Z</time>
      </trkpt>
      <trkpt lat="64.61756" lon="11.45837">
        <ele>64.162322</ele>
        <time>2020-07-16T00:59:05.187Z</time>
      </trkpt>
      <trkpt lat="64.61763" lon="11.45868">
        <ele>65.073074</ele>
        <time>2020-07-16T00:59:10.399Z</time>
      </trkpt>
      <trkpt lat="64.61841" lon="11.46264">
        <ele>77.09766</ele>
        <time>2020-07-16T01:00:29.548Z</time>
      </trkpt>
      <trkpt lat="64.61875" lon="11.4637">
        <ele>80.951621</ele>
        <time>2020-07-16T01:00:52.827Z</time>
      </trkpt>
      <trkpt lat="64.61905" lon="11.46429">
        <ele>83.632742</ele>
        <time>2020-07-16T01:01:07.324Z</time>
      </trkpt>
      <trkpt lat="64.61933" lon="11.46466">
        <ele>84.76626</ele>
        <time>2020-07-16T01:01:18.065Z</time>
      </trkpt>
      <trkpt lat="64.61961" lon="11.46489">
        <ele>85.492573</ele>
        <time>2020-07-16T01:01:27.325Z</time>
      </trkpt>
      <trkpt lat="64.61965" lon="11.46493">
        <ele>85.618545</ele>
        <time>2020-07-16T01:01:28.459Z</time>
      </trkpt>
      <trkpt lat="64.62005" lon="11.46507">
        <ele>86.595421</ele>
        <time>2020-07-16T01:01:39.264Z</time>
      </trkpt>
      <trkpt lat="64.62284" lon="11.46492">
        <ele>88.43948</ele>
        <time>2020-07-16T01:02:33.443Z</time>
      </trkpt>
      <trkpt lat="64.62373" lon="11.46469">
        <ele>85.671761</ele>
        <time>2020-07-16T01:02:45.250Z</time>
      </trkpt>
      <trkpt lat="64.62768" lon="11.46272">
        <ele>70.368441</ele>
        <time>2020-07-16T01:03:34.616Z</time>
      </trkpt>
      <trkpt lat="64.6282" lon="11.46239">
        <ele>71.298266</ele>
        <time>2020-07-16T01:03:49.066Z</time>
      </trkpt>
      <trkpt lat="64.62879" lon="11.46183">
        <ele>75.50827</ele>
        <time>2020-07-16T01:04:12.615Z</time>
      </trkpt>
      <trkpt lat="64.62929" lon="11.46121">
        <ele>79.313201</ele>
        <time>2020-07-16T01:04:40.073Z</time>
      </trkpt>
      <trkpt lat="64.62981" lon="11.46041">
        <ele>83.493697</ele>
        <time>2020-07-16T01:05:11.830Z</time>
      </trkpt>
      <trkpt lat="64.63069" lon="11.45885">
        <ele>90.983939</ele>
        <time>2020-07-16T01:05:58.846Z</time>
      </trkpt>
      <trkpt lat="64.63216" lon="11.45596">
        <ele>96.709556</ele>
        <time>2020-07-16T01:06:46.841Z</time>
      </trkpt>
      <trkpt lat="64.63278" lon="11.45496">
        <ele>96.892132</ele>
        <time>2020-07-16T01:07:00.327Z</time>
      </trkpt>
      <trkpt lat="64.63348" lon="11.45423">
        <ele>96.304879</ele>
        <time>2020-07-16T01:07:13.650Z</time>
      </trkpt>
      <trkpt lat="64.63494" lon="11.45336">
        <ele>92.98116</ele>
        <time>2020-07-16T01:07:34.141Z</time>
      </trkpt>
      <trkpt lat="64.63534" lon="11.45292">
        <ele>91.641061</ele>
        <time>2020-07-16T01:07:39.664Z</time>
      </trkpt>
      <trkpt lat="64.6357" lon="11.45227">
        <ele>90.399632</ele>
        <time>2020-07-16T01:07:45.323Z</time>
      </trkpt>
      <trkpt lat="64.63645" lon="11.45045">
        <ele>90.382313</ele>
        <time>2020-07-16T01:08:00.435Z</time>
      </trkpt>
      <trkpt lat="64.63694" lon="11.44942">
        <ele>90.371736</ele>
        <time>2020-07-16T01:08:18.299Z</time>
      </trkpt>
      <trkpt lat="64.6375" lon="11.44864">
        <ele>95.723629</ele>
        <time>2020-07-16T01:08:43.412Z</time>
      </trkpt>
      <trkpt lat="64.638" lon="11.44834">
        <ele>100.011498</ele>
        <time>2020-07-16T01:09:07.458Z</time>
      </trkpt>
      <trkpt lat="64.63975" lon="11.44844">
        <ele>116.477873</ele>
        <time>2020-07-16T01:10:40.966Z</time>
      </trkpt>
      <trkpt lat="64.64083" lon="11.44806">
        <ele>125.569646</ele>
        <time>2020-07-16T01:11:31.613Z</time>
      </trkpt>
      <trkpt lat="64.6418" lon="11.4476">
        <ele>130.72847</ele>
        <time>2020-07-16T01:12:05.479Z</time>
      </trkpt>
      <trkpt lat="64.64233" lon="11.44758">
        <ele>132.928432</ele>
        <time>2020-07-16T01:12:19.261Z</time>
      </trkpt>
      <trkpt lat="64.64357" lon="11.44818">
        <ele>133.575005</ele>
        <time>2020-07-16T01:12:41.861Z</time>
      </trkpt>
      <trkpt lat="64.64436" lon="11.4482">
        <ele>134.622275</ele>
        <time>2020-07-16T01:12:54.738Z</time>
      </trkpt>
      <trkpt lat="64.64823" lon="11.44645">
        <ele>149.837735</ele>
        <time>2020-07-16T01:14:44.766Z</time>
      </trkpt>
      <trkpt lat="64.64984" lon="11.44513">
        <ele>166.543656</ele>
        <time>2020-07-16T01:16:24.013Z</time>
      </trkpt>
      <trkpt lat="64.65048" lon="11.44485">
        <ele>174.116645</ele>
        <time>2020-07-16T01:17:03.009Z</time>
      </trkpt>
      <trkpt lat="64.65093" lon="11.44489">
        <ele>179.24795</ele>
        <time>2020-07-16T01:17:25.971Z</time>
      </trkpt>
      <trkpt lat="64.65138" lon="11.44507">
        <ele>181.521899</ele>
        <time>2020-07-16T01:17:46.364Z</time>
      </trkpt>
      <trkpt lat="64.65255" lon="11.44585">
        <ele>186.151334</ele>
        <time>2020-07-16T01:18:19.566Z</time>
      </trkpt>
      <trkpt lat="64.65287" lon="11.44591">
        <ele>186.457356</ele>
        <time>2020-07-16T01:18:24.798Z</time>
      </trkpt>
      <trkpt lat="64.65358" lon="11.44583">
        <ele>184.070843</ele>
        <time>2020-07-16T01:18:34.791Z</time>
      </trkpt>
      <trkpt lat="64.65434" lon="11.44582">
        <ele>181.554333</ele>
        <time>2020-07-16T01:18:44.116Z</time>
      </trkpt>
      <trkpt lat="64.65482" lon="11.44604">
        <ele>178.373165</ele>
        <time>2020-07-16T01:18:49.730Z</time>
      </trkpt>
      <trkpt lat="64.65522" lon="11.44639">
        <ele>174.629197</ele>
        <time>2020-07-16T01:18:54.632Z</time>
      </trkpt>
      <trkpt lat="64.65644" lon="11.44785">
        <ele>161.593092</ele>
        <time>2020-07-16T01:19:09.601Z</time>
      </trkpt>
      <trkpt lat="64.65736" lon="11.44846">
        <ele>150.072166</ele>
        <time>2020-07-16T01:19:19.720Z</time>
      </trkpt>
      <trkpt lat="64.65834" lon="11.44862">
        <ele>138.710039</ele>
        <time>2020-07-16T01:19:30.124Z</time>
      </trkpt>
      <trkpt lat="64.66009" lon="11.44832">
        <ele>120.645448</ele>
        <time>2020-07-16T01:19:49.173Z</time>
      </trkpt>
      <trkpt lat="64.66109" lon="11.44788">
        <ele>112.489273</ele>
        <time>2020-07-16T01:20:00.767Z</time>
      </trkpt>
      <trkpt lat="64.66355" lon="11.44589">
        <ele>96.574516</ele>
        <time>2020-07-16T01:20:31.343Z</time>
      </trkpt>
      <trkpt lat="64.66597" lon="11.44441">
        <ele>87.992085</ele>
        <time>2020-07-16T01:21:02.267Z</time>
      </trkpt>
      <trkpt lat="64.66631" lon="11.4442">
        <ele>87.405406</ele>
        <time>2020-07-16T01:21:09.068Z</time>
      </trkpt>
      <trkpt lat="64.66756" lon="11.44376">
        <ele>92.018127</ele>
        <time>2020-07-16T01:21:48.484Z</time>
      </trkpt>
      <trkpt lat="64.66999" lon="11.4433">
        <ele>108.444719</ele>
        <time>2020-07-16T01:23:30.998Z</time>
      </trkpt>
      <trkpt lat="64.67038" lon="11.44315">
        <ele>109.788805</ele>
        <time>2020-07-16T01:23:47.752Z</time>
      </trkpt>
      <trkpt lat="64.67075" lon="11.44284">
        <ele>109.093934</ele>
        <time>2020-07-16T01:24:02.180Z</time>
      </trkpt>
      <trkpt lat="64.67102" lon="11.44246">
        <ele>108.53094</ele>
        <time>2020-07-16T01:24:09.967Z</time>
      </trkpt>
      <trkpt lat="64.67124" lon="11.44196">
        <ele>107.975433</ele>
        <time>2020-07-16T01:24:14.589Z</time>
      </trkpt>
      <trkpt lat="64.6715" lon="11.44097">
        <ele>107.085408</ele>
        <time>2020-07-16T01:24:20.198Z</time>
      </trkpt>
      <trkpt lat="64.67158" lon="11.44046">
        <ele>104.688084</ele>
        <time>2020-07-16T01:24:22.656Z</time>
      </trkpt>
      <trkpt lat="64.67179" lon="11.43845">
        <ele>87.646513</ele>
        <time>2020-07-16T01:24:31.752Z</time>
      </trkpt>
      <trkpt lat="64.67197" lon="11.43736">
        <ele>78.062031</ele>
        <time>2020-07-16T01:24:36.806Z</time>
      </trkpt>
      <trkpt lat="64.67212" lon="11.43671">
        <ele>72.017682</ele>
        <time>2020-07-16T01:24:40.028Z</time>
      </trkpt>
      <trkpt lat="64.67253" lon="11.43564">
        <ele>62.267768</ele>
        <time>2020-07-16T01:24:46.271Z</time>
      </trkpt>
      <trkpt lat="64.67282" lon="11.43509">
        <ele>56.352786</ele>
        <time>2020-07-16T01:24:50.099Z</time>
      </trkpt>
      <trkpt lat="64.67355" lon="11.43418">
        <ele>43.65983</ele>
        <time>2020-07-16T01:24:59.111Z</time>
      </trkpt>
      <trkpt lat="64.6739" lon="11.43399">
        <ele>42.232572</ele>
        <time>2020-07-16T01:25:03.285Z</time>
      </trkpt>
      <trkpt lat="64.67415" lon="11.43388">
        <ele>41.240007</ele>
        <time>2020-07-16T01:25:06.332Z</time>
      </trkpt>
      <trkpt lat="64.67455" lon="11.43391">
        <ele>39.616855</ele>
        <time>2020-07-16T01:25:11.674Z</time>
      </trkpt>
      <trkpt lat="64.67533" lon="11.43434">
        <ele>36.637252</ele>
        <time>2020-07-16T01:25:23.201Z</time>
      </trkpt>
      <trkpt lat="64.67581" lon="11.43487">
        <ele>36.768946</ele>
        <time>2020-07-16T01:25:31.294Z</time>
      </trkpt>
      <trkpt lat="64.6767" lon="11.43623">
        <ele>37.038975</ele>
        <time>2020-07-16T01:25:51.593Z</time>
      </trkpt>
      <trkpt lat="64.67725" lon="11.43693">
        <ele>39.860726</ele>
        <time>2020-07-16T01:26:08.208Z</time>
      </trkpt>
      <trkpt lat="64.67761" lon="11.43715">
        <ele>42.015437</ele>
        <time>2020-07-16T01:26:20.261Z</time>
      </trkpt>
      <trkpt lat="64.67808" lon="11.43721">
        <ele>44.811234</ele>
        <time>2020-07-16T01:26:39.061Z</time>
      </trkpt>
      <trkpt lat="64.6787" lon="11.43694">
        <ele>49.218811</ele>
        <time>2020-07-16T01:27:08.765Z</time>
      </trkpt>
      <trkpt lat="64.67912" lon="11.43652">
        <ele>54.054185</ele>
        <time>2020-07-16T01:27:32.737Z</time>
      </trkpt>
      <trkpt lat="64.67951" lon="11.4359">
        <ele>59.137095</ele>
        <time>2020-07-16T01:27:59.562Z</time>
      </trkpt>
      <trkpt lat="64.6805" lon="11.43398">
        <ele>70.125929</ele>
        <time>2020-07-16T01:29:06.566Z</time>
      </trkpt>
      <trkpt lat="64.68081" lon="11.43353">
        <ele>72.302133</ele>
        <time>2020-07-16T01:29:21.462Z</time>
      </trkpt>
      <trkpt lat="64.68128" lon="11.43309">
        <ele>75.236789</ele>
        <time>2020-07-16T01:29:37.465Z</time>
      </trkpt>
      <trkpt lat="64.6816" lon="11.43294">
        <ele>77.176307</ele>
        <time>2020-07-16T01:29:45.643Z</time>
      </trkpt>
      <trkpt lat="64.68214" lon="11.43287">
        <ele>73.845648</ele>
        <time>2020-07-16T01:29:54.805Z</time>
      </trkpt>
      <trkpt lat="64.68387" lon="11.43355">
        <ele>57.100761</ele>
        <time>2020-07-16T01:30:13.889Z</time>
      </trkpt>
      <trkpt lat="64.68387" lon="11.43355">
        <ele>57.100761</ele>
        <time>2020-07-16T01:30:13.973Z</time>
      </trkpt>
      <trkpt lat="64.68463" lon="11.43314">
        <ele>44.061712</ele>
        <time>2020-07-16T01:30:22.030Z</time>
      </trkpt>
      <trkpt lat="64.68469" lon="11.43309">
        <ele>42.987955</ele>
        <time>2020-07-16T01:30:22.692Z</time>
      </trkpt>
      <trkpt lat="64.68557" lon="11.43226">
        <ele>28.855902</ele>
        <time>2020-07-16T01:30:32.389Z</time>
      </trkpt>
      <trkpt lat="64.6861" lon="11.43201">
        <ele>21.913196</ele>
        <time>2020-07-16T01:30:37.899Z</time>
      </trkpt>
      <trkpt lat="64.68643" lon="11.43206">
        <ele>17.551609</ele>
        <time>2020-07-16T01:30:41.538Z</time>
      </trkpt>
      <trkpt lat="64.6869" lon="11.43248">
        <ele>11.261061</ele>
        <time>2020-07-16T01:30:47.233Z</time>
      </trkpt>
      <trkpt lat="64.687" lon="11.43264">
        <ele>11.066721</ele>
        <time>2020-07-16T01:30:48.689Z</time>
      </trkpt>
      <trkpt lat="64.68734" lon="11.43338">
        <ele>10.328472</ele>
        <time>2020-07-16T01:30:54.677Z</time>
      </trkpt>
      <trkpt lat="64.68746" lon="11.43372">
        <ele>10.021657</ele>
        <time>2020-07-16T01:30:57.491Z</time>
      </trkpt>
      <trkpt lat="64.68779" lon="11.43469">
        <ele>9.169744</ele>
        <time>2020-07-16T01:31:06.800Z</time>
      </trkpt>
      <trkpt lat="64.68832" lon="11.43607">
        <ele>8.972448</ele>
        <time>2020-07-16T01:31:24.508Z</time>
      </trkpt>
      <trkpt lat="64.68862" lon="11.43663">
        <ele>9.649667</ele>
        <time>2020-07-16T01:31:34.082Z</time>
      </trkpt>
      <trkpt lat="64.68975" lon="11.43826">
        <ele>11.979847</ele>
        <time>2020-07-16T01:32:05.680Z</time>
      </trkpt>
      <trkpt lat="64.69091" lon="11.43969">
        <ele>14.320519</ele>
        <time>2020-07-16T01:32:36.229Z</time>
      </trkpt>
      <trkpt lat="64.69132" lon="11.44062">
        <ele>15.313915</ele>
        <time>2020-07-16T01:32:50.203Z</time>
      </trkpt>
      <trkpt lat="64.69157" lon="11.44164">
        <ele>16.176442</ele>
        <time>2020-07-16T01:33:02.383Z</time>
      </trkpt>
      <trkpt lat="64.69195" lon="11.44347">
        <ele>17.673487</ele>
        <time>2020-07-16T01:33:22.480Z</time>
      </trkpt>
      <trkpt lat="64.69235" lon="11.44462">
        <ele>17.817437</ele>
        <time>2020-07-16T01:33:35.943Z</time>
      </trkpt>
      <trkpt lat="64.69517" lon="11.45128">
        <ele>16.848442</ele>
        <time>2020-07-16T01:34:43.959Z</time>
      </trkpt>
      <trkpt lat="64.69571" lon="11.45227">
        <ele>16.293027</ele>
        <time>2020-07-16T01:34:54.280Z</time>
      </trkpt>
      <trkpt lat="64.69598" lon="11.45252">
        <ele>16.006842</ele>
        <time>2020-07-16T01:34:58.499Z</time>
      </trkpt>
      <trkpt lat="64.69627" lon="11.4526">
        <ele>15.628963</ele>
        <time>2020-07-16T01:35:02.818Z</time>
      </trkpt>
      <trkpt lat="64.69655" lon="11.45252">
        <ele>15.271254</ele>
        <time>2020-07-16T01:35:06.992Z</time>
      </trkpt>
      <trkpt lat="64.69681" lon="11.45227">
        <ele>14.913695</ele>
        <time>2020-07-16T01:35:11.082Z</time>
      </trkpt>
      <trkpt lat="64.69687" lon="11.45218">
        <ele>14.812327</ele>
        <time>2020-07-16T01:35:12.296Z</time>
      </trkpt>
      <trkpt lat="64.69692" lon="11.4521">
        <ele>14.73678</ele>
        <time>2020-07-16T01:35:13.114Z</time>
      </trkpt>
      <trkpt lat="64.69739" lon="11.45118">
        <ele>13.956193</ele>
        <time>2020-07-16T01:35:22.469Z</time>
      </trkpt>
      <trkpt lat="64.69751" lon="11.45094">
        <ele>13.826602</ele>
        <time>2020-07-16T01:35:25.031Z</time>
      </trkpt>
      <trkpt lat="64.69773" lon="11.45049">
        <ele>13.750784</ele>
        <time>2020-07-16T01:35:29.674Z</time>
      </trkpt>
      <trkpt lat="64.69816" lon="11.44969">
        <ele>13.607659</ele>
        <time>2020-07-16T01:35:38.724Z</time>
      </trkpt>
      <trkpt lat="64.69847" lon="11.44932">
        <ele>13.514624</ele>
        <time>2020-07-16T01:35:45.035Z</time>
      </trkpt>
      <trkpt lat="64.69883" lon="11.44914">
        <ele>13.419146</ele>
        <time>2020-07-16T01:35:51.712Z</time>
      </trkpt>
      <trkpt lat="64.69887" lon="11.44913">
        <ele>13.409685</ele>
        <time>2020-07-16T01:35:52.371Z</time>
      </trkpt>
      <trkpt lat="64.69959" lon="11.44919">
        <ele>15.25986</ele>
        <time>2020-07-16T01:36:05.930Z</time>
      </trkpt>
      <trkpt lat="64.69991" lon="11.44899">
        <ele>16.316254</ele>
        <time>2020-07-16T01:36:13.247Z</time>
      </trkpt>
      <trkpt lat="64.70073" lon="11.44765">
        <ele>20.240595</ele>
        <time>2020-07-16T01:36:47.972Z</time>
      </trkpt>
      <trkpt lat="64.701" lon="11.44704">
        <ele>23.540637</ele>
        <time>2020-07-16T01:37:04.601Z</time>
      </trkpt>
      <trkpt lat="64.70113" lon="11.44641">
        <ele>26.189913</ele>
        <time>2020-07-16T01:37:19.546Z</time>
      </trkpt>
      <trkpt lat="64.70132" lon="11.44486">
        <ele>32.278816</ele>
        <time>2020-07-16T01:37:53.515Z</time>
      </trkpt>
      <trkpt lat="64.70148" lon="11.44426">
        <ele>34.974996</ele>
        <time>2020-07-16T01:38:08.548Z</time>
      </trkpt>
      <trkpt lat="64.70162" lon="11.44391">
        <ele>36.255567</ele>
        <time>2020-07-16T01:38:19.870Z</time>
      </trkpt>
      <trkpt lat="64.70184" lon="11.44356">
        <ele>37.79982</ele>
        <time>2020-07-16T01:38:32.504Z</time>
      </trkpt>
      <trkpt lat="64.70258" lon="11.44255">
        <ele>42.948765</ele>
        <time>2020-07-16T01:39:04.206Z</time>
      </trkpt>
      <trkpt lat="64.70332" lon="11.44158">
        <ele>45.795106</ele>
        <time>2020-07-16T01:39:25.621Z</time>
      </trkpt>
      <trkpt lat="64.70369" lon="11.44124">
        <ele>45.814694</ele>
        <time>2020-07-16T01:39:33.035Z</time>
      </trkpt>
      <trkpt lat="64.70401" lon="11.44122">
        <ele>45.830785</ele>
        <time>2020-07-16T01:39:38.628Z</time>
      </trkpt>
      <trkpt lat="64.70437" lon="11.44157">
        <ele>45.850736</ele>
        <time>2020-07-16T01:39:45.002Z</time>
      </trkpt>
      <trkpt lat="64.70508" lon="11.44324">
        <ele>43.627134</ele>
        <time>2020-07-16T01:39:58.812Z</time>
      </trkpt>
      <trkpt lat="64.70528" lon="11.44389">
        <ele>42.52174</ele>
        <time>2020-07-16T01:40:03.175Z</time>
      </trkpt>
      <trkpt lat="64.70544" lon="11.44473">
        <ele>41.24638</ele>
        <time>2020-07-16T01:40:08.144Z</time>
      </trkpt>
      <trkpt lat="64.70548" lon="11.44493">
        <ele>40.947658</ele>
        <time>2020-07-16T01:40:09.221Z</time>
      </trkpt>
      <trkpt lat="64.7067" lon="11.45282">
        <ele>29.273679</ele>
        <time>2020-07-16T01:40:54.944Z</time>
      </trkpt>
      <trkpt lat="64.7072" lon="11.45544">
        <ele>30.750832</ele>
        <time>2020-07-16T01:41:21.765Z</time>
      </trkpt>
      <trkpt lat="64.70782" lon="11.45826">
        <ele>34.653262</ele>
        <time>2020-07-16T01:42:04.446Z</time>
      </trkpt>
      <trkpt lat="64.70815" lon="11.45945">
        <ele>36.869702</ele>
        <time>2020-07-16T01:42:23.725Z</time>
      </trkpt>
      <trkpt lat="64.70891" lon="11.4612">
        <ele>40.280702</ele>
        <time>2020-07-16T01:42:52.139Z</time>
      </trkpt>
      <trkpt lat="64.70974" lon="11.46238">
        <ele>42.538711</ele>
        <time>2020-07-16T01:43:15.900Z</time>
      </trkpt>
      <trkpt lat="64.71025" lon="11.463">
        <ele>43.821387</ele>
        <time>2020-07-16T01:43:30.510Z</time>
      </trkpt>
      <trkpt lat="64.71107" lon="11.46406">
        <ele>45.573748</ele>
        <time>2020-07-16T01:43:54.054Z</time>
      </trkpt>
      <trkpt lat="64.71154" lon="11.46485">
        <ele>46.646238</ele>
        <time>2020-07-16T01:44:07.796Z</time>
      </trkpt>
      <trkpt lat="64.7123" lon="11.4666">
        <ele>46.758217</ele>
        <time>2020-07-16T01:44:28.504Z</time>
      </trkpt>
      <trkpt lat="64.71297" lon="11.46857">
        <ele>46.315845</ele>
        <time>2020-07-16T01:44:45.085Z</time>
      </trkpt>
      <trkpt lat="64.71432" lon="11.4712">
        <ele>44.044897</ele>
        <time>2020-07-16T01:45:11.029Z</time>
      </trkpt>
      <trkpt lat="64.71466" lon="11.47172">
        <ele>43.736111</ele>
        <time>2020-07-16T01:45:17.275Z</time>
      </trkpt>
      <trkpt lat="64.71793" lon="11.47571">
        <ele>41.815886</ele>
        <time>2020-07-16T01:46:18.206Z</time>
      </trkpt>
      <trkpt lat="64.71824" lon="11.47617">
        <ele>41.758597</ele>
        <time>2020-07-16T01:46:24.524Z</time>
      </trkpt>
      <trkpt lat="64.71855" lon="11.47691">
        <ele>41.687759</ele>
        <time>2020-07-16T01:46:32.475Z</time>
      </trkpt>
      <trkpt lat="64.72053" lon="11.48241">
        <ele>41.088733</ele>
        <time>2020-07-16T01:47:27.882Z</time>
      </trkpt>
      <trkpt lat="64.72088" lon="11.48368">
        <ele>40.62073</ele>
        <time>2020-07-16T01:47:37.737Z</time>
      </trkpt>
      <trkpt lat="64.7211" lon="11.48483">
        <ele>39.864957</ele>
        <time>2020-07-16T01:47:45.445Z</time>
      </trkpt>
      <trkpt lat="64.7221" lon="11.49127">
        <ele>34.543988</ele>
        <time>2020-07-16T01:48:26.560Z</time>
      </trkpt>
      <trkpt lat="64.72238" lon="11.4937">
        <ele>32.987525</ele>
        <time>2020-07-16T01:48:44.623Z</time>
      </trkpt>
      <trkpt lat="64.72261" lon="11.49504">
        <ele>32.149188</ele>
        <time>2020-07-16T01:48:54.725Z</time>
      </trkpt>
      <trkpt lat="64.72538" lon="11.50706">
        <ele>15.074792</ele>
        <time>2020-07-16T01:50:10.792Z</time>
      </trkpt>
      <trkpt lat="64.72573" lon="11.50838">
        <ele>16.093532</ele>
        <time>2020-07-16T01:50:22.702Z</time>
      </trkpt>
      <trkpt lat="64.72679" lon="11.51171">
        <ele>21.308991</ele>
        <time>2020-07-16T01:51:13.871Z</time>
      </trkpt>
      <trkpt lat="64.72712" lon="11.51301">
        <ele>24.589005</ele>
        <time>2020-07-16T01:51:37.438Z</time>
      </trkpt>
      <trkpt lat="64.72795" lon="11.51752">
        <ele>35.478063</ele>
        <time>2020-07-16T01:52:54.679Z</time>
      </trkpt>
      <trkpt lat="64.72819" lon="11.51888">
        <ele>36.828723</ele>
        <time>2020-07-16T01:53:12.382Z</time>
      </trkpt>
      <trkpt lat="64.72837" lon="11.51962">
        <ele>36.767683</ele>
        <time>2020-07-16T01:53:20.551Z</time>
      </trkpt>
      <trkpt lat="64.72864" lon="11.52033">
        <ele>36.699966</ele>
        <time>2020-07-16T01:53:27.119Z</time>
      </trkpt>
      <trkpt lat="64.72936" lon="11.52187">
        <ele>34.966737</ele>
        <time>2020-07-16T01:53:40.099Z</time>
      </trkpt>
      <trkpt lat="64.72949" lon="11.52216">
        <ele>33.99008</ele>
        <time>2020-07-16T01:53:42.320Z</time>
      </trkpt>
      <trkpt lat="64.73055" lon="11.52436">
        <ele>26.447254</ele>
        <time>2020-07-16T01:53:58.883Z</time>
      </trkpt>
      <trkpt lat="64.73092" lon="11.52489">
        <ele>23.919801</ele>
        <time>2020-07-16T01:54:03.951Z</time>
      </trkpt>
      <trkpt lat="64.7314" lon="11.52528">
        <ele>21.007219</ele>
        <time>2020-07-16T01:54:09.809Z</time>
      </trkpt>
      <trkpt lat="64.73209" lon="11.52536">
        <ele>17.006935</ele>
        <time>2020-07-16T01:54:17.994Z</time>
      </trkpt>
      <trkpt lat="64.73338" lon="11.52444">
        <ele>13.609488</ele>
        <time>2020-07-16T01:54:35.724Z</time>
      </trkpt>
      <trkpt lat="64.73362" lon="11.52426">
        <ele>13.023564</ele>
        <time>2020-07-16T01:54:39.961Z</time>
      </trkpt>
      <trkpt lat="64.73417" lon="11.52393">
        <ele>13.167236</ele>
        <time>2020-07-16T01:54:51.266Z</time>
      </trkpt>
      <trkpt lat="64.73461" lon="11.52403">
        <ele>14.237349</ele>
        <time>2020-07-16T01:55:01.459Z</time>
      </trkpt>
      <trkpt lat="64.73503" lon="11.52463">
        <ele>15.423956</ele>
        <time>2020-07-16T01:55:14.192Z</time>
      </trkpt>
      <trkpt lat="64.73565" lon="11.52694">
        <ele>21.69506</ele>
        <time>2020-07-16T01:55:50.358Z</time>
      </trkpt>
      <trkpt lat="64.73638" lon="11.52857">
        <ele>29.859528</ele>
        <time>2020-07-16T01:56:38.940Z</time>
      </trkpt>
      <trkpt lat="64.73666" lon="11.52939">
        <ele>34.776151</ele>
        <time>2020-07-16T01:57:02.839Z</time>
      </trkpt>
      <trkpt lat="64.73669" lon="11.52951">
        <ele>35.527952</ele>
        <time>2020-07-16T01:57:08.178Z</time>
      </trkpt>
      <trkpt lat="64.73746" lon="11.53251">
        <ele>54.906907</ele>
        <time>2020-07-16T01:58:40.640Z</time>
      </trkpt>
      <trkpt lat="64.73881" lon="11.53686">
        <ele>78.267588</ele>
        <time>2020-07-16T02:00:46.591Z</time>
      </trkpt>
      <trkpt lat="64.73915" lon="11.53776">
        <ele>80.795868</ele>
        <time>2020-07-16T02:01:04.998Z</time>
      </trkpt>
      <trkpt lat="64.73956" lon="11.53852">
        <ele>83.380637</ele>
        <time>2020-07-16T02:01:19.090Z</time>
      </trkpt>
      <trkpt lat="64.73989" lon="11.53906">
        <ele>83.495577</ele>
        <time>2020-07-16T02:01:25.593Z</time>
      </trkpt>
      <trkpt lat="64.74079" lon="11.54104">
        <ele>74.007081</ele>
        <time>2020-07-16T02:01:39.691Z</time>
      </trkpt>
      <trkpt lat="64.74115" lon="11.54158">
        <ele>70.616217</ele>
        <time>2020-07-16T02:01:44.219Z</time>
      </trkpt>
      <trkpt lat="64.74147" lon="11.54186">
        <ele>66.042087</ele>
        <time>2020-07-16T02:01:47.785Z</time>
      </trkpt>
      <trkpt lat="64.74159" lon="11.54192">
        <ele>64.340259</ele>
        <time>2020-07-16T02:01:49.097Z</time>
      </trkpt>
      <trkpt lat="64.74183" lon="11.54204">
        <ele>61.046226</ele>
        <time>2020-07-16T02:01:51.656Z</time>
      </trkpt>
      <trkpt lat="64.74272" lon="11.54225">
        <ele>48.940176</ele>
        <time>2020-07-16T02:02:00.969Z</time>
      </trkpt>
      <trkpt lat="64.74401" lon="11.54287">
        <ele>36.541348</ele>
        <time>2020-07-16T02:02:15.099Z</time>
      </trkpt>
      <trkpt lat="64.74435" lon="11.54289">
        <ele>33.626981</ele>
        <time>2020-07-16T02:02:19.049Z</time>
      </trkpt>
      <trkpt lat="64.74448" lon="11.54286">
        <ele>32.469927</ele>
        <time>2020-07-16T02:02:20.524Z</time>
      </trkpt>
      <trkpt lat="64.74456" lon="11.54283">
        <ele>31.740058</ele>
        <time>2020-07-16T02:02:21.981Z</time>
      </trkpt>
      <trkpt lat="64.74591" lon="11.54201">
        <ele>33.57626</ele>
        <time>2020-07-16T02:02:51.019Z</time>
      </trkpt>
      <trkpt lat="64.74624" lon="11.5419">
        <ele>34.294809</ele>
        <time>2020-07-16T02:03:04.741Z</time>
      </trkpt>
      <trkpt lat="64.74659" lon="11.54193">
        <ele>35.566081</ele>
        <time>2020-07-16T02:03:19.001Z</time>
      </trkpt>
      <trkpt lat="64.74712" lon="11.54218">
        <ele>38.286257</ele>
        <time>2020-07-16T02:03:40.863Z</time>
      </trkpt>
      <trkpt lat="64.74894" lon="11.54347">
        <ele>42.307688</ele>
        <time>2020-07-16T02:04:39.055Z</time>
      </trkpt>
      <trkpt lat="64.75027" lon="11.5442">
        <ele>37.057574</ele>
        <time>2020-07-16T02:04:54.880Z</time>
      </trkpt>
      <trkpt lat="64.75045" lon="11.5443">
        <ele>35.383914</ele>
        <time>2020-07-16T02:04:56.895Z</time>
      </trkpt>
      <trkpt lat="64.75061" lon="11.54444">
        <ele>33.835564</ele>
        <time>2020-07-16T02:04:58.762Z</time>
      </trkpt>
      <trkpt lat="64.75111" lon="11.54501">
        <ele>28.74358</ele>
        <time>2020-07-16T02:05:04.836Z</time>
      </trkpt>
      <trkpt lat="64.75157" lon="11.5458">
        <ele>23.791083</ele>
        <time>2020-07-16T02:05:11.039Z</time>
      </trkpt>
      <trkpt lat="64.75209" lon="11.54692">
        <ele>19.784708</ele>
        <time>2020-07-16T02:05:19.024Z</time>
      </trkpt>
      <trkpt lat="64.75217" lon="11.54709">
        <ele>19.136933</ele>
        <time>2020-07-16T02:05:20.349Z</time>
      </trkpt>
      <trkpt lat="64.75264" lon="11.54813">
        <ele>15.443393</ele>
        <time>2020-07-16T02:05:28.397Z</time>
      </trkpt>
      <trkpt lat="64.7528" lon="11.54864">
        <ele>13.915182</ele>
        <time>2020-07-16T02:05:31.899Z</time>
      </trkpt>
      <trkpt lat="64.75289" lon="11.54914">
        <ele>14.019359</ele>
        <time>2020-07-16T02:05:34.992Z</time>
      </trkpt>
      <trkpt lat="64.75291" lon="11.54987">
        <ele>14.201726</ele>
        <time>2020-07-16T02:05:39.773Z</time>
      </trkpt>
      <trkpt lat="64.75286" lon="11.55046">
        <ele>14.353</ele>
        <time>2020-07-16T02:05:45.212Z</time>
      </trkpt>
      <trkpt lat="64.75276" lon="11.55095">
        <ele>14.489272</ele>
        <time>2020-07-16T02:05:50.530Z</time>
      </trkpt>
      <trkpt lat="64.7526" lon="11.55143">
        <ele>14.643416</ele>
        <time>2020-07-16T02:05:56.821Z</time>
      </trkpt>
      <trkpt lat="64.75222" lon="11.55232">
        <ele>14.995243</ele>
        <time>2020-07-16T02:06:10.466Z</time>
      </trkpt>
      <trkpt lat="64.752" lon="11.55286">
        <ele>15.802568</ele>
        <time>2020-07-16T02:06:19.380Z</time>
      </trkpt>
      <trkpt lat="64.75165" lon="11.55385">
        <ele>17.162034</ele>
        <time>2020-07-16T02:06:35.001Z</time>
      </trkpt>
      <trkpt lat="64.75085" lon="11.55663">
        <ele>19.980304</ele>
        <time>2020-07-16T02:07:09.724Z</time>
      </trkpt>
      <trkpt lat="64.75052" lon="11.55842">
        <ele>20.876797</ele>
        <time>2020-07-16T02:07:25.837Z</time>
      </trkpt>
      <trkpt lat="64.7504" lon="11.55898">
        <ele>21.16308</ele>
        <time>2020-07-16T02:07:31.056Z</time>
      </trkpt>
      <trkpt lat="64.7503" lon="11.5593">
        <ele>21.350196</ele>
        <time>2020-07-16T02:07:34.616Z</time>
      </trkpt>
      <trkpt lat="64.74957" lon="11.56094">
        <ele>22.158725</ele>
        <time>2020-07-16T02:07:56.903Z</time>
      </trkpt>
      <trkpt lat="64.74929" lon="11.56199">
        <ele>22.583225</ele>
        <time>2020-07-16T02:08:10.356Z</time>
      </trkpt>
      <trkpt lat="64.74896" lon="11.56406">
        <ele>19.534411</ele>
        <time>2020-07-16T02:08:23.921Z</time>
      </trkpt>
      <trkpt lat="64.74893" lon="11.56495">
        <ele>17.715658</ele>
        <time>2020-07-16T02:08:28.403Z</time>
      </trkpt>
      <trkpt lat="64.74902" lon="11.56555">
        <ele>16.439294</ele>
        <time>2020-07-16T02:08:31.532Z</time>
      </trkpt>
      <trkpt lat="64.74908" lon="11.5658">
        <ele>15.846822</ele>
        <time>2020-07-16T02:08:32.898Z</time>
      </trkpt>
      <trkpt lat="64.74925" lon="11.56625">
        <ele>14.625389</ele>
        <time>2020-07-16T02:08:35.842Z</time>
      </trkpt>
      <trkpt lat="64.74934" lon="11.56647">
        <ele>13.90325</ele>
        <time>2020-07-16T02:08:37.307Z</time>
      </trkpt>
      <trkpt lat="64.74941" lon="11.56659">
        <ele>13.357909</ele>
        <time>2020-07-16T02:08:38.212Z</time>
      </trkpt>
      <trkpt lat="64.75037" lon="11.56856">
        <ele>4.823827</ele>
        <time>2020-07-16T02:08:52.525Z</time>
      </trkpt>
      <trkpt lat="64.75046" lon="11.56876">
        <ele>3.965545</ele>
        <time>2020-07-16T02:08:53.996Z</time>
      </trkpt>
      <trkpt lat="64.75098" lon="11.56967">
        <ele>1.734989</ele>
        <time>2020-07-16T02:09:03.234Z</time>
      </trkpt>
      <trkpt lat="64.75196" lon="11.57087">
        <ele>0.525192</ele>
        <time>2020-07-16T02:09:21.517Z</time>
      </trkpt>
      <trkpt lat="64.75218" lon="11.57124">
        <ele>0.226023</ele>
        <time>2020-07-16T02:09:26.286Z</time>
      </trkpt>
      <trkpt lat="64.75227" lon="11.57141">
        <ele>0.167427</ele>
        <time>2020-07-16T02:09:28.371Z</time>
      </trkpt>
      <trkpt lat="64.75401" lon="11.57455">
        <ele>0.066511</ele>
        <time>2020-07-16T02:10:07.164Z</time>
      </trkpt>
      <trkpt lat="64.75411" lon="11.57474">
        <ele>0.078469</ele>
        <time>2020-07-16T02:10:09.481Z</time>
      </trkpt>
      <trkpt lat="64.7544" lon="11.57548">
        <ele>0.118156</ele>
        <time>2020-07-16T02:10:17.174Z</time>
      </trkpt>
      <trkpt lat="64.75482" lon="11.57697">
        <ele>0.188376</ele>
        <time>2020-07-16T02:10:31.191Z</time>
      </trkpt>
      <trkpt lat="64.7551" lon="11.57761">
        <ele>0.528468</ele>
        <time>2020-07-16T02:10:38.711Z</time>
      </trkpt>
      <trkpt lat="64.75545" lon="11.57816">
        <ele>0.900016</ele>
        <time>2020-07-16T02:10:46.927Z</time>
      </trkpt>
      <trkpt lat="64.75683" lon="11.57981">
        <ele>2.353613</ele>
        <time>2020-07-16T02:11:20.707Z</time>
      </trkpt>
      <trkpt lat="64.75709" lon="11.58024">
        <ele>2.682965</ele>
        <time>2020-07-16T02:11:27.894Z</time>
      </trkpt>
      <trkpt lat="64.75737" lon="11.58091">
        <ele>3.094729</ele>
        <time>2020-07-16T02:11:36.552Z</time>
      </trkpt>
      <trkpt lat="64.75764" lon="11.58196">
        <ele>3.634479</ele>
        <time>2020-07-16T02:11:47.400Z</time>
      </trkpt>
      <trkpt lat="64.75775" lon="11.58269">
        <ele>3.539125</ele>
        <time>2020-07-16T02:11:53.881Z</time>
      </trkpt>
      <trkpt lat="64.75798" lon="11.58615">
        <ele>3.098663</ele>
        <time>2020-07-16T02:12:18.108Z</time>
      </trkpt>
      <trkpt lat="64.75809" lon="11.58712">
        <ele>3.369627</ele>
        <time>2020-07-16T02:12:24.540Z</time>
      </trkpt>
      <trkpt lat="64.75867" lon="11.58988">
        <ele>4.203358</ele>
        <time>2020-07-16T02:12:50.317Z</time>
      </trkpt>
      <trkpt lat="64.75898" lon="11.59087">
        <ele>7.065418</ele>
        <time>2020-07-16T02:13:05.528Z</time>
      </trkpt>
      <trkpt lat="64.76076" lon="11.59552">
        <ele>24.163321</ele>
        <time>2020-07-16T02:14:56.078Z</time>
      </trkpt>
      <trkpt lat="64.76092" lon="11.59612">
        <ele>26.26681</ele>
        <time>2020-07-16T02:15:07.681Z</time>
      </trkpt>
      <trkpt lat="64.76126" lon="11.59787">
        <ele>30.833724</ele>
        <time>2020-07-16T02:15:36.297Z</time>
      </trkpt>
      <trkpt lat="64.76143" lon="11.59838">
        <ele>32.291719</ele>
        <time>2020-07-16T02:15:45.431Z</time>
      </trkpt>
      <trkpt lat="64.76167" lon="11.59906">
        <ele>34.288887</ele>
        <time>2020-07-16T02:15:57.982Z</time>
      </trkpt>
      <trkpt lat="64.76204" lon="11.60016">
        <ele>37.55217</ele>
        <time>2020-07-16T02:16:18.064Z</time>
      </trkpt>
      <trkpt lat="64.76367" lon="11.60494">
        <ele>51.909984</ele>
        <time>2020-07-16T02:17:57.227Z</time>
      </trkpt>
      <trkpt lat="64.76395" lon="11.60561">
        <ele>53.691716</ele>
        <time>2020-07-16T02:18:09.433Z</time>
      </trkpt>
      <trkpt lat="64.76436" lon="11.6063">
        <ele>55.75446</ele>
        <time>2020-07-16T02:18:22.811Z</time>
      </trkpt>
      <trkpt lat="64.76469" lon="11.60662">
        <ele>55.607636</ele>
        <time>2020-07-16T02:18:29.713Z</time>
      </trkpt>
      <trkpt lat="64.76585" lon="11.60746">
        <ele>55.102505</ele>
        <time>2020-07-16T02:18:48.579Z</time>
      </trkpt>
      <trkpt lat="64.76592" lon="11.60755">
        <ele>55.06957</ele>
        <time>2020-07-16T02:18:49.606Z</time>
      </trkpt>
      <trkpt lat="64.76601" lon="11.60766">
        <ele>55.027935</ele>
        <time>2020-07-16T02:18:51.029Z</time>
      </trkpt>
      <trkpt lat="64.76644" lon="11.60842">
        <ele>54.393535</ele>
        <time>2020-07-16T02:18:58.980Z</time>
      </trkpt>
      <trkpt lat="64.76668" lon="11.60905">
        <ele>53.967569</ele>
        <time>2020-07-16T02:19:04.291Z</time>
      </trkpt>
      <trkpt lat="64.76687" lon="11.60976">
        <ele>53.54124</ele>
        <time>2020-07-16T02:19:09.696Z</time>
      </trkpt>
      <trkpt lat="64.76707" lon="11.61085">
        <ele>52.941043</ele>
        <time>2020-07-16T02:19:17.561Z</time>
      </trkpt>
      <trkpt lat="64.76737" lon="11.6127">
        <ele>52.528196</ele>
        <time>2020-07-16T02:19:31.679Z</time>
      </trkpt>
      <trkpt lat="64.76758" lon="11.61397">
        <ele>52.265637</ele>
        <time>2020-07-16T02:19:41.554Z</time>
      </trkpt>
      <trkpt lat="64.76768" lon="11.61485">
        <ele>52.089734</ele>
        <time>2020-07-16T02:19:48.241Z</time>
      </trkpt>
      <trkpt lat="64.76771" lon="11.61521">
        <ele>51.740246</ele>
        <time>2020-07-16T02:19:50.792Z</time>
      </trkpt>
      <trkpt lat="64.76772" lon="11.61564">
        <ele>51.261331</ele>
        <time>2020-07-16T02:19:53.984Z</time>
      </trkpt>
      <trkpt lat="64.76771" lon="11.61635">
        <ele>50.469417</ele>
        <time>2020-07-16T02:19:59.009Z</time>
      </trkpt>
      <trkpt lat="64.7677" lon="11.61651">
        <ele>50.297198</ele>
        <time>2020-07-16T02:20:00.122Z</time>
      </trkpt>
      <trkpt lat="64.76768" lon="11.61682">
        <ele>49.941757</ele>
        <time>2020-07-16T02:20:01.783Z</time>
      </trkpt>
      <trkpt lat="64.76755" lon="11.61824">
        <ele>48.321416</ele>
        <time>2020-07-16T02:20:10.252Z</time>
      </trkpt>
      <trkpt lat="64.76751" lon="11.61878">
        <ele>47.720811</ele>
        <time>2020-07-16T02:20:13.097Z</time>
      </trkpt>
      <trkpt lat="64.76751" lon="11.61969">
        <ele>44.968713</ele>
        <time>2020-07-16T02:20:17.964Z</time>
      </trkpt>
      <trkpt lat="64.76752" lon="11.61988">
        <ele>44.211231</ele>
        <time>2020-07-16T02:20:18.962Z</time>
      </trkpt>
      <trkpt lat="64.76754" lon="11.62009">
        <ele>43.357325</ele>
        <time>2020-07-16T02:20:19.967Z</time>
      </trkpt>
      <trkpt lat="64.76811" lon="11.62268">
        <ele>31.927967</ele>
        <time>2020-07-16T02:20:33.453Z</time>
      </trkpt>
      <trkpt lat="64.76833" lon="11.62363">
        <ele>27.028436</ele>
        <time>2020-07-16T02:20:38.337Z</time>
      </trkpt>
      <trkpt lat="64.76858" lon="11.62459">
        <ele>21.735882</ele>
        <time>2020-07-16T02:20:45.018Z</time>
      </trkpt>
      <trkpt lat="64.76903" lon="11.62576">
        <ele>14.245783</ele>
        <time>2020-07-16T02:20:54.462Z</time>
      </trkpt>
      <trkpt lat="64.76989" lon="11.62634">
        <ele>7.909496</ele>
        <time>2020-07-16T02:21:06.934Z</time>
      </trkpt>
      <trkpt lat="64.77073" lon="11.62647">
        <ele>3.732011</ele>
        <time>2020-07-16T02:21:18.705Z</time>
      </trkpt>
      <trkpt lat="64.77272" lon="11.62584">
        <ele>0.389417</ele>
        <time>2020-07-16T02:21:46.725Z</time>
      </trkpt>
      <trkpt lat="64.8071" lon="11.60974">
        <ele>0.001246</ele>
        <time>2020-07-16T02:29:55.255Z</time>
      </trkpt>
      <trkpt lat="64.80883" lon="11.60746">
        <time>2020-07-16T02:30:22.883Z</time>
      </trkpt>
      <trkpt lat="64.80961" lon="11.60321">
        <time>2020-07-16T02:30:50.414Z</time>
      </trkpt>
      <trkpt lat="64.8102" lon="11.59378">
        <time>2020-07-16T02:31:47.004Z</time>
      </trkpt>
      <trkpt lat="64.81126" lon="11.59149">
        <time>2020-07-16T02:32:07.152Z</time>
      </trkpt>
      <trkpt lat="64.81293" lon="11.59129">
        <time>2020-07-16T02:32:30.355Z</time>
      </trkpt>
      <trkpt lat="64.82559" lon="11.61628">
        <time>2020-07-16T02:36:20.902Z</time>
      </trkpt>
      <trkpt lat="64.82672" lon="11.61543">
        <ele>0.005981</ele>
        <time>2020-07-16T02:36:37.470Z</time>
      </trkpt>
      <trkpt lat="64.82744" lon="11.61266">
        <ele>0.076632</ele>
        <time>2020-07-16T02:36:56.755Z</time>
      </trkpt>
      <trkpt lat="64.82747" lon="11.6123">
        <ele>0.102875</ele>
        <time>2020-07-16T02:36:59.558Z</time>
      </trkpt>
      <trkpt lat="64.8275" lon="11.61209">
        <ele>0.11913</ele>
        <time>2020-07-16T02:37:01.298Z</time>
      </trkpt>
      <trkpt lat="64.82755" lon="11.61196">
        <ele>0.131665</ele>
        <time>2020-07-16T02:37:02.644Z</time>
      </trkpt>
      <trkpt lat="64.82763" lon="11.61171">
        <ele>0.154334</ele>
        <time>2020-07-16T02:37:05.089Z</time>
      </trkpt>
      <trkpt lat="64.82764" lon="11.6116">
        <ele>0.1628</ele>
        <time>2020-07-16T02:37:05.997Z</time>
      </trkpt>
      <trkpt lat="64.82775" lon="11.61074">
        <ele>0.227717</ele>
        <time>2020-07-16T02:37:13.034Z</time>
      </trkpt>
      <trkpt lat="64.82776" lon="11.61007">
        <ele>0.276604</ele>
        <time>2020-07-16T02:37:18.360Z</time>
      </trkpt>
      <trkpt lat="64.82775" lon="11.60969">
        <ele>0.304358</ele>
        <time>2020-07-16T02:37:21.395Z</time>
      </trkpt>
      <trkpt lat="64.8277" lon="11.60887">
        <ele>0.35131</ele>
        <time>2020-07-16T02:37:28.010Z</time>
      </trkpt>
      <trkpt lat="64.8273" lon="11.60687">
        <ele>0.463528</ele>
        <time>2020-07-16T02:37:45.494Z</time>
      </trkpt>
      <trkpt lat="64.82722" lon="11.60469">
        <ele>0.474921</ele>
        <time>2020-07-16T02:38:01.981Z</time>
      </trkpt>
      <trkpt lat="64.8272" lon="11.60445">
        <ele>0.45581</ele>
        <time>2020-07-16T02:38:03.846Z</time>
      </trkpt>
      <trkpt lat="64.82719" lon="11.60432">
        <ele>0.445603</ele>
        <time>2020-07-16T02:38:04.705Z</time>
      </trkpt>
      <trkpt lat="64.82711" lon="11.60376">
        <ele>0.399085</ele>
        <time>2020-07-16T02:38:09.191Z</time>
      </trkpt>
      <trkpt lat="64.82699" lon="11.60296">
        <ele>0.332475</ele>
        <time>2020-07-16T02:38:15.419Z</time>
      </trkpt>
      <trkpt lat="64.82695" lon="11.60271">
        <ele>0.311876</ele>
        <time>2020-07-16T02:38:17.250Z</time>
      </trkpt>
      <trkpt lat="64.82641" lon="11.59911">
        <ele>0.094949</ele>
        <time>2020-07-16T02:38:45.257Z</time>
      </trkpt>
      <trkpt lat="64.82608" lon="11.59655">
        <ele>0.051093</ele>
        <time>2020-07-16T02:39:05.619Z</time>
      </trkpt>
      <trkpt lat="64.82594" lon="11.59531">
        <ele>0.103724</ele>
        <time>2020-07-16T02:39:15.594Z</time>
      </trkpt>
      <trkpt lat="64.82581" lon="11.59402">
        <ele>0.157969</ele>
        <time>2020-07-16T02:39:26.016Z</time>
      </trkpt>
      <trkpt lat="64.8258" lon="11.59393">
        <ele>0.161508</ele>
        <time>2020-07-16T02:39:26.729Z</time>
      </trkpt>
      <trkpt lat="64.82561" lon="11.59191">
        <ele>0.196516</ele>
        <time>2020-07-16T02:39:42.596Z</time>
      </trkpt>
      <trkpt lat="64.82554" lon="11.59077">
        <ele>0.203686</ele>
        <time>2020-07-16T02:39:51.343Z</time>
      </trkpt>
      <trkpt lat="64.82541" lon="11.58872">
        <ele>0.194918</ele>
        <time>2020-07-16T02:40:06.932Z</time>
      </trkpt>
      <trkpt lat="64.8254" lon="11.58851">
        <ele>0.18553</ele>
        <time>2020-07-16T02:40:08.513Z</time>
      </trkpt>
      <trkpt lat="64.82539" lon="11.58835">
        <ele>0.178072</ele>
        <time>2020-07-16T02:40:09.779Z</time>
      </trkpt>
      <trkpt lat="64.82534" lon="11.58737">
        <ele>0.13416</ele>
        <time>2020-07-16T02:40:17.077Z</time>
      </trkpt>
      <trkpt lat="64.82532" lon="11.58685">
        <ele>0.110557</ele>
        <time>2020-07-16T02:40:20.931Z</time>
      </trkpt>
      <trkpt lat="64.82523" lon="11.58514">
        <ele>0.033625</ele>
        <time>2020-07-16T02:40:33.768Z</time>
      </trkpt>
      <trkpt lat="64.82521" lon="11.5848">
        <ele>0.024245</ele>
        <time>2020-07-16T02:40:36.350Z</time>
      </trkpt>
      <trkpt lat="64.82517" lon="11.58416">
        <ele>0.02042</ele>
        <time>2020-07-16T02:40:41.247Z</time>
      </trkpt>
      <trkpt lat="64.82511" lon="11.58348">
        <ele>0.016277</ele>
        <time>2020-07-16T02:40:46.565Z</time>
      </trkpt>
      <trkpt lat="64.82503" lon="11.58262">
        <ele>0.011056</ele>
        <time>2020-07-16T02:40:53.241Z</time>
      </trkpt>
      <trkpt lat="64.82481" lon="11.58091">
        <ele>0.000477</ele>
        <time>2020-07-16T02:41:06.765Z</time>
      </trkpt>
      <trkpt lat="64.82471" lon="11.58024">
        <ele>0.006271</ele>
        <time>2020-07-16T02:41:12.214Z</time>
      </trkpt>
      <trkpt lat="64.82464" lon="11.5798">
        <ele>0.010858</ele>
        <time>2020-07-16T02:41:15.760Z</time>
      </trkpt>
      <trkpt lat="64.82456" lon="11.57935">
        <ele>0.015704</ele>
        <time>2020-07-16T02:41:19.493Z</time>
      </trkpt>
      <trkpt lat="64.82438" lon="11.57826">
        <ele>0.0272</ele>
        <time>2020-07-16T02:41:28.387Z</time>
      </trkpt>
      <trkpt lat="64.82426" lon="11.57749">
        <ele>0.035254</ele>
        <time>2020-07-16T02:41:34.648Z</time>
      </trkpt>
      <trkpt lat="64.82422" lon="11.57719">
        <ele>0.038391</ele>
        <time>2020-07-16T02:41:37.090Z</time>
      </trkpt>
      <trkpt lat="64.82405" lon="11.57589">
        <ele>0.11094</ele>
        <time>2020-07-16T02:41:47.550Z</time>
      </trkpt>
      <trkpt lat="64.82384" lon="11.57422">
        <ele>0.226836</ele>
        <time>2020-07-16T02:42:00.926Z</time>
      </trkpt>
      <trkpt lat="64.82295" lon="11.56713">
        <ele>2.442337</ele>
        <time>2020-07-16T02:43:00.629Z</time>
      </trkpt>
      <trkpt lat="64.82272" lon="11.56529">
        <ele>4.090929</ele>
        <time>2020-07-16T02:43:21.808Z</time>
      </trkpt>
      <trkpt lat="64.82266" lon="11.56479">
        <ele>4.543546</ele>
        <time>2020-07-16T02:43:27.947Z</time>
      </trkpt>
      <trkpt lat="64.82264" lon="11.56464">
        <ele>4.806726</ele>
        <time>2020-07-16T02:43:29.870Z</time>
      </trkpt>
      <trkpt lat="64.8226" lon="11.56437">
        <ele>5.480514</ele>
        <time>2020-07-16T02:43:34.408Z</time>
      </trkpt>
      <trkpt lat="64.8224" lon="11.5632">
        <ele>8.481895</ele>
        <time>2020-07-16T02:43:52.662Z</time>
      </trkpt>
      <trkpt lat="64.82204" lon="11.56165">
        <ele>12.649681</ele>
        <time>2020-07-16T02:44:21.202Z</time>
      </trkpt>
      <trkpt lat="64.82186" lon="11.56088">
        <ele>14.732181</ele>
        <time>2020-07-16T02:44:36.302Z</time>
      </trkpt>
      <trkpt lat="64.82175" lon="11.5603">
        <ele>16.107506</ele>
        <time>2020-07-16T02:44:46.147Z</time>
      </trkpt>
      <trkpt lat="64.82169" lon="11.55997">
        <ele>16.879394</ele>
        <time>2020-07-16T02:44:51.504Z</time>
      </trkpt>
      <trkpt lat="64.82164" lon="11.55965">
        <ele>17.604467</ele>
        <time>2020-07-16T02:44:56.682Z</time>
      </trkpt>
      <trkpt lat="64.82158" lon="11.55919">
        <ele>18.658491</ele>
        <time>2020-07-16T02:45:03.831Z</time>
      </trkpt>
      <trkpt lat="64.82148" lon="11.55829">
        <ele>20.67619</ele>
        <time>2020-07-16T02:45:17.403Z</time>
      </trkpt>
      <trkpt lat="64.82143" lon="11.55777">
        <ele>21.818312</ele>
        <time>2020-07-16T02:45:25.202Z</time>
      </trkpt>
      <trkpt lat="64.82143" lon="11.55774">
        <ele>21.886096</ele>
        <time>2020-07-16T02:45:25.906Z</time>
      </trkpt>
      <trkpt lat="64.82138" lon="11.55576">
        <ele>25.501174</ele>
        <time>2020-07-16T02:45:50.410Z</time>
      </trkpt>
      <trkpt lat="64.8214" lon="11.55515">
        <ele>26.43739</ele>
        <time>2020-07-16T02:45:57.543Z</time>
      </trkpt>
      <trkpt lat="64.82144" lon="11.5543">
        <ele>27.754266</ele>
        <time>2020-07-16T02:46:07.466Z</time>
      </trkpt>
      <trkpt lat="64.82156" lon="11.55198">
        <ele>31.421243</ele>
        <time>2020-07-16T02:46:37.993Z</time>
      </trkpt>
      <trkpt lat="64.82156" lon="11.55084">
        <ele>33.273461</ele>
        <time>2020-07-16T02:46:53.400Z</time>
      </trkpt>
      <trkpt lat="64.82154" lon="11.55014">
        <ele>34.414368</ele>
        <time>2020-07-16T02:47:02.806Z</time>
      </trkpt>
      <trkpt lat="64.82149" lon="11.54937">
        <ele>35.679744</ele>
        <time>2020-07-16T02:47:12.972Z</time>
      </trkpt>
      <trkpt lat="64.82126" lon="11.54748">
        <ele>37.607756</ele>
        <time>2020-07-16T02:47:36.265Z</time>
      </trkpt>
      <trkpt lat="64.82087" lon="11.54565">
        <ele>38.45327</ele>
        <time>2020-07-16T02:47:54.119Z</time>
      </trkpt>
      <trkpt lat="64.82061" lon="11.54468">
        <ele>38.918734</ele>
        <time>2020-07-16T02:48:01.929Z</time>
      </trkpt>
      <trkpt lat="64.82043" lon="11.54403">
        <ele>38.292276</ele>
        <time>2020-07-16T02:48:06.919Z</time>
      </trkpt>
      <trkpt lat="64.82014" lon="11.5428">
        <ele>37.140104</ele>
        <time>2020-07-16T02:48:15.914Z</time>
      </trkpt>
      <trkpt lat="64.81984" lon="11.54115">
        <ele>35.67937</ele>
        <time>2020-07-16T02:48:26.383Z</time>
      </trkpt>
      <trkpt lat="64.81971" lon="11.54031">
        <ele>34.219608</ele>
        <time>2020-07-16T02:48:31.277Z</time>
      </trkpt>
      <trkpt lat="64.81956" lon="11.53933">
        <ele>32.180792</ele>
        <time>2020-07-16T02:48:36.864Z</time>
      </trkpt>
      <trkpt lat="64.81941" lon="11.53826">
        <ele>29.972044</ele>
        <time>2020-07-16T02:48:42.767Z</time>
      </trkpt>
      <trkpt lat="64.81924" lon="11.53704">
        <ele>27.452639</ele>
        <time>2020-07-16T02:48:49.301Z</time>
      </trkpt>
      <trkpt lat="64.81887" lon="11.53419">
        <ele>20.375566</ele>
        <time>2020-07-16T02:49:04.122Z</time>
      </trkpt>
      <trkpt lat="64.81869" lon="11.53215">
        <ele>16.296946</ele>
        <time>2020-07-16T02:49:14.951Z</time>
      </trkpt>
      <trkpt lat="64.81865" lon="11.53144">
        <ele>15.486686</ele>
        <time>2020-07-16T02:49:18.855Z</time>
      </trkpt>
      <trkpt lat="64.81864" lon="11.53104">
        <ele>15.03808</ele>
        <time>2020-07-16T02:49:21.063Z</time>
      </trkpt>
      <trkpt lat="64.81863" lon="11.5293">
        <ele>13.076478</ele>
        <time>2020-07-16T02:49:31.452Z</time>
      </trkpt>
      <trkpt lat="64.81865" lon="11.52872">
        <ele>12.424494</ele>
        <time>2020-07-16T02:49:35.190Z</time>
      </trkpt>
      <trkpt lat="64.81867" lon="11.52806">
        <ele>12.600316</ele>
        <time>2020-07-16T02:49:39.752Z</time>
      </trkpt>
      <trkpt lat="64.8187" lon="11.52748">
        <ele>12.879127</ele>
        <time>2020-07-16T02:49:44.457Z</time>
      </trkpt>
      <trkpt lat="64.81878" lon="11.52641">
        <ele>13.390897</ele>
        <time>2020-07-16T02:49:54.272Z</time>
      </trkpt>
      <trkpt lat="64.81898" lon="11.52466">
        <ele>14.247226</ele>
        <time>2020-07-16T02:50:13.402Z</time>
      </trkpt>
      <trkpt lat="64.8192" lon="11.52306">
        <ele>15.844263</ele>
        <time>2020-07-16T02:50:32.356Z</time>
      </trkpt>
      <trkpt lat="64.81927" lon="11.52246">
        <ele>16.47581</ele>
        <time>2020-07-16T02:50:39.274Z</time>
      </trkpt>
      <trkpt lat="64.81934" lon="11.52182">
        <ele>17.137504</ele>
        <time>2020-07-16T02:50:46.401Z</time>
      </trkpt>
      <trkpt lat="64.8194" lon="11.5211">
        <ele>17.874538</ele>
        <time>2020-07-16T02:50:54.165Z</time>
      </trkpt>
      <trkpt lat="64.81946" lon="11.51922">
        <ele>19.809909</ele>
        <time>2020-07-16T02:51:13.663Z</time>
      </trkpt>
      <trkpt lat="64.81945" lon="11.51721">
        <ele>21.90822</ele>
        <time>2020-07-16T02:51:35.068Z</time>
      </trkpt>
      <trkpt lat="64.81946" lon="11.51667">
        <ele>22.477504</ele>
        <time>2020-07-16T02:51:41.247Z</time>
      </trkpt>
      <trkpt lat="64.81949" lon="11.51578">
        <ele>23.874941</ele>
        <time>2020-07-16T02:51:51.770Z</time>
      </trkpt>
      <trkpt lat="64.81951" lon="11.51537">
        <ele>24.769103</ele>
        <time>2020-07-16T02:51:56.858Z</time>
      </trkpt>
      <trkpt lat="64.81955" lon="11.51473">
        <ele>26.173175</ele>
        <time>2020-07-16T02:52:05.212Z</time>
      </trkpt>
      <trkpt lat="64.81981" lon="11.5126">
        <ele>30.990178</ele>
        <time>2020-07-16T02:52:38.239Z</time>
      </trkpt>
      <trkpt lat="64.82019" lon="11.51077">
        <ele>36.942692</ele>
        <time>2020-07-16T02:53:15.236Z</time>
      </trkpt>
      <trkpt lat="64.82045" lon="11.50974">
        <ele>40.724138</ele>
        <time>2020-07-16T02:53:37.260Z</time>
      </trkpt>
      <trkpt lat="64.82067" lon="11.50885">
        <ele>44.019323</ele>
        <time>2020-07-16T02:53:56.107Z</time>
      </trkpt>
      <trkpt lat="64.82112" lon="11.50711">
        <ele>48.543119</ele>
        <time>2020-07-16T02:54:31.371Z</time>
      </trkpt>
      <trkpt lat="64.8219" lon="11.50401">
        <ele>53.61318</ele>
        <time>2020-07-16T02:55:14.087Z</time>
      </trkpt>
      <trkpt lat="64.82296" lon="11.49904">
        <ele>51.641603</ele>
        <time>2020-07-16T02:55:49.775Z</time>
      </trkpt>
      <trkpt lat="64.82347" lon="11.49701">
        <ele>49.798931</ele>
        <time>2020-07-16T02:56:03.412Z</time>
      </trkpt>
      <trkpt lat="64.82359" lon="11.49662">
        <ele>49.44472</ele>
        <time>2020-07-16T02:56:06.107Z</time>
      </trkpt>
      <trkpt lat="64.82411" lon="11.49739">
        <ele>48.366353</ele>
        <time>2020-07-16T02:56:14.635Z</time>
      </trkpt>
      <trkpt lat="64.82606" lon="11.49985">
        <ele>46.488956</ele>
        <time>2020-07-16T02:56:49.224Z</time>
      </trkpt>
      <trkpt lat="64.82863" lon="11.50426">
        <ele>50.716644</ele>
        <time>2020-07-16T02:58:01.017Z</time>
      </trkpt>
      <trkpt lat="64.8299" lon="11.50629">
        <ele>53.721349</ele>
        <time>2020-07-16T02:58:39.988Z</time>
      </trkpt>
      <trkpt lat="64.83037" lon="11.50671">
        <ele>54.742212</ele>
        <time>2020-07-16T02:58:52.582Z</time>
      </trkpt>
      <trkpt lat="64.83143" lon="11.50705">
        <ele>56.289355</ele>
        <time>2020-07-16T02:59:16.885Z</time>
      </trkpt>
      <trkpt lat="64.83199" lon="11.50773">
        <ele>56.77241</ele>
        <time>2020-07-16T02:59:29.784Z</time>
      </trkpt>
      <trkpt lat="64.83308" lon="11.5095">
        <ele>57.272998</ele>
        <time>2020-07-16T02:59:53.935Z</time>
      </trkpt>
      <trkpt lat="64.83399" lon="11.51175">
        <ele>57.225425</ele>
        <time>2020-07-16T03:00:17.048Z</time>
      </trkpt>
      <trkpt lat="64.83435" lon="11.51236">
        <ele>57.175004</ele>
        <time>2020-07-16T03:00:24.838Z</time>
      </trkpt>
      <trkpt lat="64.83785" lon="11.51509">
        <ele>55.963664</ele>
        <time>2020-07-16T03:01:29.115Z</time>
      </trkpt>
      <trkpt lat="64.83893" lon="11.51603">
        <ele>54.524536</ele>
        <time>2020-07-16T03:01:45.878Z</time>
      </trkpt>
      <trkpt lat="64.83938" lon="11.51671">
        <ele>52.979485</ele>
        <time>2020-07-16T03:01:53.049Z</time>
      </trkpt>
      <trkpt lat="64.84003" lon="11.51838">
        <ele>50.160873</ele>
        <time>2020-07-16T03:02:05.810Z</time>
      </trkpt>
      <trkpt lat="64.84033" lon="11.51877">
        <ele>48.925637</ele>
        <time>2020-07-16T03:02:10.286Z</time>
      </trkpt>
      <trkpt lat="64.84063" lon="11.51886">
        <ele>47.288579</ele>
        <time>2020-07-16T03:02:14.058Z</time>
      </trkpt>
      <trkpt lat="64.84097" lon="11.51868">
        <ele>45.435938</ele>
        <time>2020-07-16T03:02:18.253Z</time>
      </trkpt>
      <trkpt lat="64.8413" lon="11.51824">
        <ele>43.393378</ele>
        <time>2020-07-16T03:02:22.817Z</time>
      </trkpt>
      <trkpt lat="64.84178" lon="11.51737">
        <ele>40.100276</ele>
        <time>2020-07-16T03:02:29.951Z</time>
      </trkpt>
      <trkpt lat="64.84179" lon="11.51735">
        <ele>40.040775</ele>
        <time>2020-07-16T03:02:30.062Z</time>
      </trkpt>
      <trkpt lat="64.84231" lon="11.51643">
        <ele>35.319953</ele>
        <time>2020-07-16T03:02:37.467Z</time>
      </trkpt>
      <trkpt lat="64.84273" lon="11.51578">
        <ele>31.579442</ele>
        <time>2020-07-16T03:02:43.135Z</time>
      </trkpt>
      <trkpt lat="64.84285" lon="11.51564">
        <ele>30.55194</ele>
        <time>2020-07-16T03:02:44.680Z</time>
      </trkpt>
      <trkpt lat="64.84297" lon="11.51553">
        <ele>29.5669</ele>
        <time>2020-07-16T03:02:46.163Z</time>
      </trkpt>
      <trkpt lat="64.8434" lon="11.51537">
        <ele>26.369761</ele>
        <time>2020-07-16T03:02:51.004Z</time>
      </trkpt>
      <trkpt lat="64.84384" lon="11.51551">
        <ele>24.292226</ele>
        <time>2020-07-16T03:02:56.154Z</time>
      </trkpt>
      <trkpt lat="64.84479" lon="11.51614">
        <ele>19.716712</ele>
        <time>2020-07-16T03:03:08.203Z</time>
      </trkpt>
      <trkpt lat="64.84505" lon="11.51631">
        <ele>18.473763</ele>
        <time>2020-07-16T03:03:11.994Z</time>
      </trkpt>
      <trkpt lat="64.84521" lon="11.51641">
        <ele>17.985263</ele>
        <time>2020-07-16T03:03:14.408Z</time>
      </trkpt>
      <trkpt lat="64.84591" lon="11.51668">
        <ele>17.961492</ele>
        <time>2020-07-16T03:03:25.589Z</time>
      </trkpt>
      <trkpt lat="64.84623" lon="11.51697">
        <ele>17.949895</ele>
        <time>2020-07-16T03:03:32.059Z</time>
      </trkpt>
      <trkpt lat="64.84632" lon="11.51709">
        <ele>17.946505</ele>
        <time>2020-07-16T03:03:34.069Z</time>
      </trkpt>
      <trkpt lat="64.84643" lon="11.51728">
        <ele>17.941973</ele>
        <time>2020-07-16T03:03:37.116Z</time>
      </trkpt>
      <trkpt lat="64.84655" lon="11.51761">
        <ele>17.935762</ele>
        <time>2020-07-16T03:03:41.130Z</time>
      </trkpt>
      <trkpt lat="64.84662" lon="11.51798">
        <ele>17.930119</ele>
        <time>2020-07-16T03:03:45.217Z</time>
      </trkpt>
      <trkpt lat="64.8467" lon="11.5208">
        <ele>19.63328</ele>
        <time>2020-07-16T03:04:13.146Z</time>
      </trkpt>
      <trkpt lat="64.84671" lon="11.52101">
        <ele>19.774062</ele>
        <time>2020-07-16T03:04:15.439Z</time>
      </trkpt>
      <trkpt lat="64.84673" lon="11.52138">
        <ele>20.011605</ele>
        <time>2020-07-16T03:04:18.824Z</time>
      </trkpt>
      <trkpt lat="64.84717" lon="11.52468">
        <ele>21.707356</ele>
        <time>2020-07-16T03:04:50.642Z</time>
      </trkpt>
      <trkpt lat="64.8474" lon="11.52572">
        <ele>22.202294</ele>
        <time>2020-07-16T03:05:00.630Z</time>
      </trkpt>
      <trkpt lat="64.84793" lon="11.52774">
        <ele>23.163766</ele>
        <time>2020-07-16T03:05:21.591Z</time>
      </trkpt>
      <trkpt lat="64.84814" lon="11.52984">
        <ele>24.017993</ele>
        <time>2020-07-16T03:05:41.332Z</time>
      </trkpt>
      <trkpt lat="64.84842" lon="11.53148">
        <ele>23.862175</ele>
        <time>2020-07-16T03:05:55.978Z</time>
      </trkpt>
      <trkpt lat="64.84855" lon="11.53198">
        <ele>23.748955</ele>
        <time>2020-07-16T03:06:00.296Z</time>
      </trkpt>
      <trkpt lat="64.84858" lon="11.53204">
        <ele>23.729882</ele>
        <time>2020-07-16T03:06:01.431Z</time>
      </trkpt>
      <trkpt lat="64.84863" lon="11.53212">
        <ele>23.703418</ele>
        <time>2020-07-16T03:06:02.224Z</time>
      </trkpt>
      <trkpt lat="64.84904" lon="11.53255">
        <ele>23.498296</ele>
        <time>2020-07-16T03:06:09.214Z</time>
      </trkpt>
      <trkpt lat="64.84981" lon="11.53306">
        <ele>22.573573</ele>
        <time>2020-07-16T03:06:20.835Z</time>
      </trkpt>
      <trkpt lat="64.85033" lon="11.53341">
        <ele>21.602133</ele>
        <time>2020-07-16T03:06:28.195Z</time>
      </trkpt>
      <trkpt lat="64.85131" lon="11.53401">
        <ele>20.219111</ele>
        <time>2020-07-16T03:06:42.707Z</time>
      </trkpt>
      <trkpt lat="64.85174" lon="11.53444">
        <ele>20.5755</ele>
        <time>2020-07-16T03:06:50.299Z</time>
      </trkpt>
      <trkpt lat="64.85182" lon="11.53459">
        <ele>20.658791</ele>
        <time>2020-07-16T03:06:51.989Z</time>
      </trkpt>
      <trkpt lat="64.85189" lon="11.53471">
        <ele>20.724743</ele>
        <time>2020-07-16T03:06:54.118Z</time>
      </trkpt>
      <trkpt lat="64.85291" lon="11.53743">
        <ele>23.116109</ele>
        <time>2020-07-16T03:07:31.721Z</time>
      </trkpt>
      <trkpt lat="64.85313" lon="11.53779">
        <ele>23.899254</ele>
        <time>2020-07-16T03:07:39.715Z</time>
      </trkpt>
      <trkpt lat="64.85379" lon="11.5386">
        <ele>26.061513</ele>
        <time>2020-07-16T03:08:00.954Z</time>
      </trkpt>
      <trkpt lat="64.85392" lon="11.53882">
        <ele>26.533655</ele>
        <time>2020-07-16T03:08:05.570Z</time>
      </trkpt>
      <trkpt lat="64.85402" lon="11.53904">
        <ele>26.869787</ele>
        <time>2020-07-16T03:08:09.580Z</time>
      </trkpt>
      <trkpt lat="64.85433" lon="11.54003">
        <ele>27.922016</ele>
        <time>2020-07-16T03:08:23.743Z</time>
      </trkpt>
      <trkpt lat="64.85529" lon="11.54492">
        <ele>31.37032</ele>
        <time>2020-07-16T03:09:15.111Z</time>
      </trkpt>
      <trkpt lat="64.85549" lon="11.54575">
        <ele>31.759106</ele>
        <time>2020-07-16T03:09:22.615Z</time>
      </trkpt>
      <trkpt lat="64.85574" lon="11.54645">
        <ele>32.106938</ele>
        <time>2020-07-16T03:09:29.739Z</time>
      </trkpt>
      <trkpt lat="64.85599" lon="11.54693">
        <ele>32.326886</ele>
        <time>2020-07-16T03:09:35.608Z</time>
      </trkpt>
      <trkpt lat="64.85721" lon="11.54847">
        <ele>33.279839</ele>
        <time>2020-07-16T03:10:03.538Z</time>
      </trkpt>
      <trkpt lat="64.8575" lon="11.54906">
        <ele>33.32245</ele>
        <time>2020-07-16T03:10:12.568Z</time>
      </trkpt>
      <trkpt lat="64.85765" lon="11.54963">
        <ele>33.352527</ele>
        <time>2020-07-16T03:10:19.059Z</time>
      </trkpt>
      <trkpt lat="64.85803" lon="11.55214">
        <ele>33.473457</ele>
        <time>2020-07-16T03:10:39.338Z</time>
      </trkpt>
      <trkpt lat="64.85818" lon="11.55287">
        <ele>32.040496</ele>
        <time>2020-07-16T03:10:44.265Z</time>
      </trkpt>
      <trkpt lat="64.85948" lon="11.55701">
        <ele>22.256787</ele>
        <time>2020-07-16T03:11:10.639Z</time>
      </trkpt>
      <trkpt lat="64.85974" lon="11.55799">
        <ele>19.78796</ele>
        <time>2020-07-16T03:11:16.389Z</time>
      </trkpt>
      <trkpt lat="64.86047" lon="11.56088">
        <ele>13.991957</ele>
        <time>2020-07-16T03:11:34.071Z</time>
      </trkpt>
      <trkpt lat="64.86097" lon="11.5629">
        <ele>10.745566</ele>
        <time>2020-07-16T03:11:47.689Z</time>
      </trkpt>
      <trkpt lat="64.86122" lon="11.56366">
        <ele>10.200893</ele>
        <time>2020-07-16T03:11:53.436Z</time>
      </trkpt>
      <trkpt lat="64.86146" lon="11.56415">
        <ele>9.777753</ele>
        <time>2020-07-16T03:11:58.018Z</time>
      </trkpt>
      <trkpt lat="64.86206" lon="11.56506">
        <ele>8.817225</ele>
        <time>2020-07-16T03:12:08.822Z</time>
      </trkpt>
      <trkpt lat="64.86242" lon="11.56589">
        <ele>8.545937</ele>
        <time>2020-07-16T03:12:17.201Z</time>
      </trkpt>
      <trkpt lat="64.86309" lon="11.56758">
        <ele>9.314252</ele>
        <time>2020-07-16T03:12:36.629Z</time>
      </trkpt>
      <trkpt lat="64.86319" lon="11.56783">
        <ele>9.427352</ele>
        <time>2020-07-16T03:12:39.911Z</time>
      </trkpt>
      <trkpt lat="64.86344" lon="11.56847">
        <ele>9.713324</ele>
        <time>2020-07-16T03:12:47.940Z</time>
      </trkpt>
      <trkpt lat="64.86383" lon="11.56928">
        <ele>11.227517</ele>
        <time>2020-07-16T03:13:00.393Z</time>
      </trkpt>
      <trkpt lat="64.86388" lon="11.56934">
        <ele>11.411849</ele>
        <time>2020-07-16T03:13:02.036Z</time>
      </trkpt>
      <trkpt lat="64.864" lon="11.56947">
        <ele>11.855201</ele>
        <time>2020-07-16T03:13:05.797Z</time>
      </trkpt>
      <trkpt lat="64.86433" lon="11.56967">
        <ele>13.041908</ele>
        <time>2020-07-16T03:13:15.790Z</time>
      </trkpt>
      <trkpt lat="64.86494" lon="11.56969">
        <ele>15.142834</ele>
        <time>2020-07-16T03:13:34.475Z</time>
      </trkpt>
      <trkpt lat="64.86496" lon="11.56967">
        <ele>15.242201</ele>
        <time>2020-07-16T03:13:35.460Z</time>
      </trkpt>
      <trkpt lat="64.8652" lon="11.57089">
        <ele>17.913284</ele>
        <time>2020-07-16T03:13:54.436Z</time>
      </trkpt>
      <trkpt lat="64.8666" lon="11.57814">
        <ele>37.045804</ele>
        <time>2020-07-16T03:15:57.184Z</time>
      </trkpt>
      <trkpt lat="64.86698" lon="11.58179">
        <ele>46.646107</ele>
        <time>2020-07-16T03:16:55.561Z</time>
      </trkpt>
      <trkpt lat="64.86748" lon="11.58522">
        <ele>57.176755</ele>
        <time>2020-07-16T03:17:58.524Z</time>
      </trkpt>
      <trkpt lat="64.86751" lon="11.58548">
        <ele>57.970671</ele>
        <time>2020-07-16T03:18:04.111Z</time>
      </trkpt>
      <trkpt lat="64.86754" lon="11.58583">
        <ele>59.008657</ele>
        <time>2020-07-16T03:18:09.295Z</time>
      </trkpt>
      <trkpt lat="64.86759" lon="11.5866">
        <ele>60.632639</ele>
        <time>2020-07-16T03:18:21.567Z</time>
      </trkpt>
      <trkpt lat="64.86761" lon="11.58716">
        <ele>61.7091</ele>
        <time>2020-07-16T03:18:30.728Z</time>
      </trkpt>
      <trkpt lat="64.86767" lon="11.58716">
        <ele>61.994233</ele>
        <time>2020-07-16T03:18:32.723Z</time>
      </trkpt>
      <trkpt lat="64.86771" lon="11.58716">
        <ele>62.159104</ele>
        <time>2020-07-16T03:18:33.897Z</time>
      </trkpt>
      <trkpt lat="64.86771" lon="11.58777">
        <ele>63.315253</ele>
        <time>2020-07-16T03:18:43.197Z</time>
      </trkpt>
      <trkpt lat="64.86756" lon="11.59015">
        <ele>67.647424</ele>
        <time>2020-07-16T03:19:12.316Z</time>
      </trkpt>
      <trkpt lat="64.86724" lon="11.59195">
        <ele>69.305235</ele>
        <time>2020-07-16T03:19:32.640Z</time>
      </trkpt>
      <trkpt lat="64.86706" lon="11.59292">
        <ele>70.201285</ele>
        <time>2020-07-16T03:19:43.266Z</time>
      </trkpt>
      <trkpt lat="64.86684" lon="11.59408">
        <ele>71.166466</ele>
        <time>2020-07-16T03:19:55.250Z</time>
      </trkpt>
      <trkpt lat="64.86682" lon="11.59445">
        <ele>71.320109</ele>
        <time>2020-07-16T03:19:58.638Z</time>
      </trkpt>
      <trkpt lat="64.8668" lon="11.59453">
        <ele>71.357418</ele>
        <time>2020-07-16T03:19:59.683Z</time>
      </trkpt>
      <trkpt lat="64.86678" lon="11.5947">
        <ele>71.432343</ele>
        <time>2020-07-16T03:20:01.322Z</time>
      </trkpt>
      <trkpt lat="64.86677" lon="11.59484">
        <ele>71.492927</ele>
        <time>2020-07-16T03:20:02.509Z</time>
      </trkpt>
      <trkpt lat="64.86607" lon="11.59616">
        <ele>72.370686</ele>
        <time>2020-07-16T03:20:21.126Z</time>
      </trkpt>
      <trkpt lat="64.86606" lon="11.59628">
        <ele>72.422432</ele>
        <time>2020-07-16T03:20:22.388Z</time>
      </trkpt>
      <trkpt lat="64.86599" lon="11.59637">
        <ele>72.500452</ele>
        <time>2020-07-16T03:20:23.974Z</time>
      </trkpt>
      <trkpt lat="64.86592" lon="11.59648">
        <ele>72.581974</ele>
        <time>2020-07-16T03:20:25.509Z</time>
      </trkpt>
      <trkpt lat="64.8658" lon="11.59669">
        <ele>72.728547</ele>
        <time>2020-07-16T03:20:28.745Z</time>
      </trkpt>
      <trkpt lat="64.86556" lon="11.59731">
        <ele>73.169821</ele>
        <time>2020-07-16T03:20:36.309Z</time>
      </trkpt>
      <trkpt lat="64.8655" lon="11.59771">
        <ele>73.398322</ele>
        <time>2020-07-16T03:20:39.557Z</time>
      </trkpt>
      <trkpt lat="64.86547" lon="11.59859">
        <ele>73.891322</ele>
        <time>2020-07-16T03:20:47.454Z</time>
      </trkpt>
      <trkpt lat="64.86546" lon="11.59886">
        <ele>74.038208</ele>
        <time>2020-07-16T03:20:50.125Z</time>
      </trkpt>
      <trkpt lat="64.86544" lon="11.59902">
        <ele>74.132947</ele>
        <time>2020-07-16T03:20:51.698Z</time>
      </trkpt>
      <trkpt lat="64.86542" lon="11.59964">
        <ele>74.474859</ele>
        <time>2020-07-16T03:20:57.878Z</time>
      </trkpt>
      <trkpt lat="64.86543" lon="11.59983">
        <ele>74.582056</ele>
        <time>2020-07-16T03:20:59.968Z</time>
      </trkpt>
      <trkpt lat="64.86549" lon="11.60043">
        <ele>74.924186</ele>
        <time>2020-07-16T03:21:06.356Z</time>
      </trkpt>
      <trkpt lat="64.86553" lon="11.60101">
        <ele>75.227813</ele>
        <time>2020-07-16T03:21:12.551Z</time>
      </trkpt>
      <trkpt lat="64.86555" lon="11.60119">
        <ele>75.304371</ele>
        <time>2020-07-16T03:21:15.063Z</time>
      </trkpt>
      <trkpt lat="64.8656" lon="11.60135">
        <ele>75.381633</ele>
        <time>2020-07-16T03:21:17.558Z</time>
      </trkpt>
      <trkpt lat="64.8657" lon="11.60157">
        <ele>75.511256</ele>
        <time>2020-07-16T03:21:21.201Z</time>
      </trkpt>
      <trkpt lat="64.86574" lon="11.60161">
        <ele>75.551409</ele>
        <time>2020-07-16T03:21:21.979Z</time>
      </trkpt>
      <trkpt lat="64.86582" lon="11.60168">
        <ele>75.634256</ele>
        <time>2020-07-16T03:21:24.310Z</time>
      </trkpt>
      <trkpt lat="64.86614" lon="11.60165">
        <ele>75.930484</ele>
        <time>2020-07-16T03:21:32.208Z</time>
      </trkpt>
      <trkpt lat="64.86618" lon="11.60158">
        <ele>75.981107</ele>
        <time>2020-07-16T03:21:33.874Z</time>
      </trkpt>
      <trkpt lat="64.86623" lon="11.60175">
        <ele>76.062404</ele>
        <time>2020-07-16T03:21:36.313Z</time>
      </trkpt>
      <trkpt lat="64.86624" lon="11.6018">
        <ele>76.081537</ele>
        <time>2020-07-16T03:21:37.114Z</time>
      </trkpt>
      <trkpt lat="64.86634" lon="11.60203">
        <ele>76.213029</ele>
        <time>2020-07-16T03:21:40.009Z</time>
      </trkpt>
      <trkpt lat="64.86648" lon="11.60224">
        <ele>76.369319</ele>
        <time>2020-07-16T03:21:42.727Z</time>
      </trkpt>
      <trkpt lat="64.86652" lon="11.60229">
        <ele>76.412173</ele>
        <time>2020-07-16T03:21:44.157Z</time>
      </trkpt>
      <trkpt lat="64.86677" lon="11.60239">
        <ele>76.64605</ele>
        <time>2020-07-16T03:21:48.233Z</time>
      </trkpt>
      <trkpt lat="64.867" lon="11.60238">
        <ele>76.865022</ele>
        <time>2020-07-16T03:21:52.569Z</time>
      </trkpt>
      <trkpt lat="64.86701" lon="11.60259">
        <ele>76.526417</ele>
        <time>2020-07-16T03:21:53.865Z</time>
      </trkpt>
      <trkpt lat="64.86715" lon="11.60415">
        <ele>73.88599</ele>
        <time>2020-07-16T03:22:03.433Z</time>
      </trkpt>
      <trkpt lat="64.86717" lon="11.60425">
        <ele>73.711389</ele>
        <time>2020-07-16T03:22:03.990Z</time>
      </trkpt>
      <trkpt lat="64.86714" lon="11.60433">
        <ele>73.547465</ele>
        <time>2020-07-16T03:22:04.473Z</time>
      </trkpt>
      <trkpt lat="64.86705" lon="11.60469">
        <ele>72.846911</ele>
        <time>2020-07-16T03:22:06.814Z</time>
      </trkpt>
      <trkpt lat="64.86712" lon="11.60478">
        <ele>72.519577</ele>
        <time>2020-07-16T03:22:08.022Z</time>
      </trkpt>
      <trkpt lat="64.86719" lon="11.60491">
        <ele>72.164813</ele>
        <time>2020-07-16T03:22:09.042Z</time>
      </trkpt>
      <trkpt lat="64.86732" lon="11.60517">
        <ele>71.518713</ele>
        <time>2020-07-16T03:22:10.990Z</time>
      </trkpt>
      <trkpt lat="64.86742" lon="11.60546">
        <ele>70.898345</ele>
        <time>2020-07-16T03:22:13.013Z</time>
      </trkpt>
      <trkpt lat="64.86748" lon="11.60566">
        <ele>70.504788</ele>
        <time>2020-07-16T03:22:14.126Z</time>
      </trkpt>
      <trkpt lat="64.8675" lon="11.60574">
        <ele>70.334544</ele>
        <time>2020-07-16T03:22:14.613Z</time>
      </trkpt>
      <trkpt lat="64.86761" lon="11.60621">
        <ele>69.782069</ele>
        <time>2020-07-16T03:22:17.461Z</time>
      </trkpt>
      <trkpt lat="64.86762" lon="11.60625">
        <ele>69.770837</ele>
        <time>2020-07-16T03:22:17.622Z</time>
      </trkpt>
      <trkpt lat="64.86768" lon="11.6067">
        <ele>69.62526</ele>
        <time>2020-07-16T03:22:19.930Z</time>
      </trkpt>
      <trkpt lat="64.86786" lon="11.60875">
        <ele>68.98576</ele>
        <time>2020-07-16T03:22:33.523Z</time>
      </trkpt>
      <trkpt lat="64.8681" lon="11.60968">
        <ele>68.655987</ele>
        <time>2020-07-16T03:22:44.926Z</time>
      </trkpt>
      <trkpt lat="64.86816" lon="11.60982">
        <ele>68.595939</ele>
        <time>2020-07-16T03:22:46.247Z</time>
      </trkpt>
      <trkpt lat="64.86827" lon="11.61006">
        <ele>69.139318</ele>
        <time>2020-07-16T03:22:53.187Z</time>
      </trkpt>
      <trkpt lat="64.86847" lon="11.61043">
        <ele>70.426183</ele>
        <time>2020-07-16T03:23:00.645Z</time>
      </trkpt>
      <trkpt lat="64.86852" lon="11.61052">
        <ele>70.774166</ele>
        <time>2020-07-16T03:23:04.601Z</time>
      </trkpt>
      <trkpt lat="64.8689" lon="11.61115">
        <ele>73.154659</ele>
        <time>2020-07-16T03:23:22.692Z</time>
      </trkpt>
      <trkpt lat="64.86943" lon="11.61212">
        <ele>76.551012</ele>
        <time>2020-07-16T03:23:46.964Z</time>
      </trkpt>
      <trkpt lat="64.86972" lon="11.61304">
        <ele>77.685803</ele>
        <time>2020-07-16T03:24:02.816Z</time>
      </trkpt>
      <trkpt lat="64.86976" lon="11.61318">
        <ele>77.6702</ele>
        <time>2020-07-16T03:24:05.128Z</time>
      </trkpt>
      <trkpt lat="64.86982" lon="11.6135">
        <ele>77.63663</ele>
        <time>2020-07-16T03:24:08.105Z</time>
      </trkpt>
      <trkpt lat="64.86992" lon="11.61398">
        <ele>77.585883</ele>
        <time>2020-07-16T03:24:13.282Z</time>
      </trkpt>
      <trkpt lat="64.86996" lon="11.6142">
        <ele>77.562577</ele>
        <time>2020-07-16T03:24:14.685Z</time>
      </trkpt>
      <trkpt lat="64.87029" lon="11.61544">
        <ele>77.423472</ele>
        <time>2020-07-16T03:24:24.558Z</time>
      </trkpt>
      <trkpt lat="64.87141" lon="11.61803">
        <ele>71.055207</ele>
        <time>2020-07-16T03:24:43.729Z</time>
      </trkpt>
      <trkpt lat="64.87149" lon="11.61828">
        <ele>70.371829</ele>
        <time>2020-07-16T03:24:45.405Z</time>
      </trkpt>
      <trkpt lat="64.87156" lon="11.61851">
        <ele>69.756858</ele>
        <time>2020-07-16T03:24:46.722Z</time>
      </trkpt>
      <trkpt lat="64.87176" lon="11.61974">
        <ele>67.029673</ele>
        <time>2020-07-16T03:24:53.188Z</time>
      </trkpt>
      <trkpt lat="64.87179" lon="11.6209">
        <ele>64.930859</ele>
        <time>2020-07-16T03:24:59.046Z</time>
      </trkpt>
      <trkpt lat="64.87178" lon="11.62101">
        <ele>64.745822</ele>
        <time>2020-07-16T03:24:59.499Z</time>
      </trkpt>
      <trkpt lat="64.87177" lon="11.62122">
        <ele>64.365606</ele>
        <time>2020-07-16T03:25:00.528Z</time>
      </trkpt>
      <trkpt lat="64.87164" lon="11.62277">
        <ele>61.523022</ele>
        <time>2020-07-16T03:25:08.752Z</time>
      </trkpt>
      <trkpt lat="64.87166" lon="11.6236">
        <ele>60.674562</ele>
        <time>2020-07-16T03:25:15.100Z</time>
      </trkpt>
      <trkpt lat="64.87186" lon="11.62471">
        <ele>63.712595</ele>
        <time>2020-07-16T03:25:30.269Z</time>
      </trkpt>
      <trkpt lat="64.87225" lon="11.62584">
        <ele>67.360985</ele>
        <time>2020-07-16T03:25:54.508Z</time>
      </trkpt>
      <trkpt lat="64.87226" lon="11.6259">
        <ele>67.539485</ele>
        <time>2020-07-16T03:25:57.199Z</time>
      </trkpt>
      <trkpt lat="64.87258" lon="11.62681">
        <ele>70.506486</ele>
        <time>2020-07-16T03:26:20.039Z</time>
      </trkpt>
      <trkpt lat="64.87308" lon="11.62823">
        <ele>77.190474</ele>
        <time>2020-07-16T03:26:58.534Z</time>
      </trkpt>
      <trkpt lat="64.87378" lon="11.62985">
        <ele>85.914782</ele>
        <time>2020-07-16T03:27:45.403Z</time>
      </trkpt>
      <trkpt lat="64.87523" lon="11.63279">
        <ele>97.447862</ele>
        <time>2020-07-16T03:28:56.042Z</time>
      </trkpt>
      <trkpt lat="64.87544" lon="11.63321">
        <ele>97.694634</ele>
        <time>2020-07-16T03:29:03.832Z</time>
      </trkpt>
      <trkpt lat="64.87577" lon="11.63396">
        <ele>98.105559</ele>
        <time>2020-07-16T03:29:15.054Z</time>
      </trkpt>
      <trkpt lat="64.87611" lon="11.63504">
        <ele>98.618915</ele>
        <time>2020-07-16T03:29:25.504Z</time>
      </trkpt>
      <trkpt lat="64.87645" lon="11.63651">
        <ele>98.466586</ele>
        <time>2020-07-16T03:29:35.793Z</time>
      </trkpt>
      <trkpt lat="64.87659" lon="11.63712">
        <ele>97.673731</ele>
        <time>2020-07-16T03:29:39.784Z</time>
      </trkpt>
      <trkpt lat="64.87696" lon="11.63821">
        <ele>96.069131</ele>
        <time>2020-07-16T03:29:47.739Z</time>
      </trkpt>
      <trkpt lat="64.87787" lon="11.63972">
        <ele>92.862066</ele>
        <time>2020-07-16T03:30:02.152Z</time>
      </trkpt>
      <trkpt lat="64.87817" lon="11.64035">
        <ele>91.56621</ele>
        <time>2020-07-16T03:30:07.429Z</time>
      </trkpt>
      <trkpt lat="64.87841" lon="11.64134">
        <ele>89.987446</ele>
        <time>2020-07-16T03:30:13.832Z</time>
      </trkpt>
      <trkpt lat="64.87851" lon="11.64236">
        <ele>88.557776</ele>
        <time>2020-07-16T03:30:19.623Z</time>
      </trkpt>
      <trkpt lat="64.87845" lon="11.64362">
        <ele>86.609853</ele>
        <time>2020-07-16T03:30:26.630Z</time>
      </trkpt>
      <trkpt lat="64.87823" lon="11.64464">
        <ele>84.8319</ele>
        <time>2020-07-16T03:30:32.922Z</time>
      </trkpt>
      <trkpt lat="64.87792" lon="11.64537">
        <ele>83.234036</ele>
        <time>2020-07-16T03:30:38.521Z</time>
      </trkpt>
      <trkpt lat="64.87713" lon="11.64653">
        <ele>79.20611</ele>
        <time>2020-07-16T03:30:50.157Z</time>
      </trkpt>
      <trkpt lat="64.87689" lon="11.64697">
        <ele>77.773336</ele>
        <time>2020-07-16T03:30:53.804Z</time>
      </trkpt>
      <trkpt lat="64.87666" lon="11.64771">
        <ele>75.876716</ele>
        <time>2020-07-16T03:30:58.599Z</time>
      </trkpt>
      <trkpt lat="64.87654" lon="11.64853">
        <ele>74.100276</ele>
        <time>2020-07-16T03:31:03.051Z</time>
      </trkpt>
      <trkpt lat="64.87651" lon="11.64922">
        <ele>72.590286</ele>
        <time>2020-07-16T03:31:06.541Z</time>
      </trkpt>
      <trkpt lat="64.87656" lon="11.65009">
        <ele>70.384631</ele>
        <time>2020-07-16T03:31:10.989Z</time>
      </trkpt>
      <trkpt lat="64.87725" lon="11.65733">
        <ele>51.317327</ele>
        <time>2020-07-16T03:31:48.013Z</time>
      </trkpt>
      <trkpt lat="64.87727" lon="11.65755">
        <ele>50.808189</ele>
        <time>2020-07-16T03:31:49.054Z</time>
      </trkpt>
      <trkpt lat="64.8773" lon="11.65772">
        <ele>50.382476</ele>
        <time>2020-07-16T03:31:49.997Z</time>
      </trkpt>
      <trkpt lat="64.87738" lon="11.65814">
        <ele>49.325875</ele>
        <time>2020-07-16T03:31:52.322Z</time>
      </trkpt>
      <trkpt lat="64.87776" lon="11.65951">
        <ele>45.575143</ele>
        <time>2020-07-16T03:32:00.560Z</time>
      </trkpt>
      <trkpt lat="64.87786" lon="11.65979">
        <ele>44.722924</ele>
        <time>2020-07-16T03:32:02.392Z</time>
      </trkpt>
      <trkpt lat="64.87804" lon="11.66021">
        <ele>43.332734</ele>
        <time>2020-07-16T03:32:05.525Z</time>
      </trkpt>
      <trkpt lat="64.87849" lon="11.66111">
        <ele>40.574504</ele>
        <time>2020-07-16T03:32:12.942Z</time>
      </trkpt>
      <trkpt lat="64.87898" lon="11.66184">
        <ele>38.29989</ele>
        <time>2020-07-16T03:32:20.206Z</time>
      </trkpt>
      <trkpt lat="64.87956" lon="11.66262">
        <ele>35.668228</ele>
        <time>2020-07-16T03:32:28.776Z</time>
      </trkpt>
      <trkpt lat="64.88018" lon="11.66343">
        <ele>33.167157</ele>
        <time>2020-07-16T03:32:37.825Z</time>
      </trkpt>
      <trkpt lat="64.88294" lon="11.66715">
        <ele>24.027032</ele>
        <time>2020-07-16T03:33:19.654Z</time>
      </trkpt>
      <trkpt lat="64.88313" lon="11.66746">
        <ele>24.450459</ele>
        <time>2020-07-16T03:33:23.450Z</time>
      </trkpt>
      <trkpt lat="64.88327" lon="11.6677">
        <ele>24.767038</ele>
        <time>2020-07-16T03:33:26.850Z</time>
      </trkpt>
      <trkpt lat="64.88398" lon="11.66899">
        <ele>26.424259</ele>
        <time>2020-07-16T03:33:48.315Z</time>
      </trkpt>
      <trkpt lat="64.88447" lon="11.66969">
        <ele>27.874326</ele>
        <time>2020-07-16T03:34:06.800Z</time>
      </trkpt>
      <trkpt lat="64.88538" lon="11.67059">
        <ele>33.287043</ele>
        <time>2020-07-16T03:34:42.865Z</time>
      </trkpt>
      <trkpt lat="64.88649" lon="11.67191">
        <ele>39.114834</ele>
        <time>2020-07-16T03:35:28.346Z</time>
      </trkpt>
      <trkpt lat="64.88791" lon="11.67332">
        <ele>44.340024</ele>
        <time>2020-07-16T03:36:09.680Z</time>
      </trkpt>
      <trkpt lat="64.8886" lon="11.6737">
        <ele>46.107342</ele>
        <time>2020-07-16T03:36:22.418Z</time>
      </trkpt>
      <trkpt lat="64.8899" lon="11.67373">
        <ele>51.130429</ele>
        <time>2020-07-16T03:37:02.399Z</time>
      </trkpt>
      <trkpt lat="64.88998" lon="11.67376">
        <ele>51.662475</ele>
        <time>2020-07-16T03:37:05.049Z</time>
      </trkpt>
      <trkpt lat="64.89026" lon="11.67393">
        <ele>53.434121</ele>
        <time>2020-07-16T03:37:16.368Z</time>
      </trkpt>
      <trkpt lat="64.89085" lon="11.67445">
        <ele>57.252717</ele>
        <time>2020-07-16T03:37:42.296Z</time>
      </trkpt>
      <trkpt lat="64.89376" lon="11.67776">
        <ele>79.638385</ele>
        <time>2020-07-16T03:39:55.768Z</time>
      </trkpt>
      <trkpt lat="64.8945" lon="11.67906">
        <ele>85.465406</ele>
        <time>2020-07-16T03:40:27.681Z</time>
      </trkpt>
      <trkpt lat="64.89495" lon="11.68026">
        <ele>89.382043</ele>
        <time>2020-07-16T03:40:51.235Z</time>
      </trkpt>
      <trkpt lat="64.89528" lon="11.68136">
        <ele>92.655756</ele>
        <time>2020-07-16T03:41:11.552Z</time>
      </trkpt>
      <trkpt lat="64.89606" lon="11.68438">
        <ele>103.311255</ele>
        <time>2020-07-16T03:42:12.598Z</time>
      </trkpt>
      <trkpt lat="64.89631" lon="11.68553">
        <ele>107.366882</ele>
        <time>2020-07-16T03:42:36.585Z</time>
      </trkpt>
      <trkpt lat="64.89645" lon="11.68674">
        <ele>111.9255</ele>
        <time>2020-07-16T03:43:00.538Z</time>
      </trkpt>
      <trkpt lat="64.89683" lon="11.69111">
        <ele>126.965264</ele>
        <time>2020-07-16T03:44:28.351Z</time>
      </trkpt>
      <trkpt lat="64.89742" lon="11.69443">
        <ele>133.623254</ele>
        <time>2020-07-16T03:45:25.116Z</time>
      </trkpt>
      <trkpt lat="64.89849" lon="11.70193">
        <ele>111.312312</ele>
        <time>2020-07-16T03:46:04.318Z</time>
      </trkpt>
      <trkpt lat="64.89895" lon="11.70359">
        <ele>89.692697</ele>
        <time>2020-07-16T03:46:12.915Z</time>
      </trkpt>
      <trkpt lat="64.90041" lon="11.70734">
        <ele>35.257746</ele>
        <time>2020-07-16T03:46:35.135Z</time>
      </trkpt>
      <trkpt lat="64.90074" lon="11.70841">
        <ele>21.894496</ele>
        <time>2020-07-16T03:46:40.968Z</time>
      </trkpt>
      <trkpt lat="64.90186" lon="11.71382">
        <ele>7.997216</ele>
        <time>2020-07-16T03:47:12.310Z</time>
      </trkpt>
      <trkpt lat="64.90261" lon="11.71824">
        <ele>3.800044</ele>
        <time>2020-07-16T03:47:42.078Z</time>
      </trkpt>
      <trkpt lat="64.90309" lon="11.72168">
        <ele>2.359851</ele>
        <time>2020-07-16T03:48:05.896Z</time>
      </trkpt>
      <trkpt lat="64.90327" lon="11.7224">
        <ele>2.15889</ele>
        <time>2020-07-16T03:48:11.800Z</time>
      </trkpt>
      <trkpt lat="64.90371" lon="11.72353">
        <ele>1.788288</ele>
        <time>2020-07-16T03:48:22.927Z</time>
      </trkpt>
      <trkpt lat="64.90441" lon="11.725">
        <ele>1.748054</ele>
        <time>2020-07-16T03:48:39.493Z</time>
      </trkpt>
      <trkpt lat="64.90486" lon="11.72595">
        <ele>1.738726</ele>
        <time>2020-07-16T03:48:50.305Z</time>
      </trkpt>
      <trkpt lat="64.90511" lon="11.72646">
        <ele>1.743079</ele>
        <time>2020-07-16T03:48:56.309Z</time>
      </trkpt>
      <trkpt lat="64.90547" lon="11.72734">
        <ele>1.922595</ele>
        <time>2020-07-16T03:49:05.807Z</time>
      </trkpt>
      <trkpt lat="64.90575" lon="11.72822">
        <ele>2.083047</ele>
        <time>2020-07-16T03:49:14.339Z</time>
      </trkpt>
      <trkpt lat="64.90739" lon="11.73452">
        <ele>3.718758</ele>
        <time>2020-07-16T03:50:17.241Z</time>
      </trkpt>
      <trkpt lat="64.90771" lon="11.73561">
        <ele>3.839299</ele>
        <time>2020-07-16T03:50:28.144Z</time>
      </trkpt>
      <trkpt lat="64.90773" lon="11.73558">
        <ele>3.844448</ele>
        <time>2020-07-16T03:50:28.471Z</time>
      </trkpt>
      <trkpt lat="64.90803" lon="11.73487">
        <ele>3.933921</ele>
        <time>2020-07-16T03:50:35.861Z</time>
      </trkpt>
      <trkpt lat="64.90813" lon="11.73424">
        <ele>3.936349</ele>
        <time>2020-07-16T03:50:40.852Z</time>
      </trkpt>
      <trkpt lat="64.90812" lon="11.73345">
        <ele>3.61438</ele>
        <time>2020-07-16T03:50:46.470Z</time>
      </trkpt>
      <trkpt lat="64.90801" lon="11.73205">
        <ele>3.037099</ele>
        <time>2020-07-16T03:50:55.563Z</time>
      </trkpt>
      <trkpt lat="64.90808" lon="11.73142">
        <ele>2.773362</ele>
        <time>2020-07-16T03:50:59.667Z</time>
      </trkpt>
      <trkpt lat="64.90823" lon="11.73103">
        <ele>2.553829</ele>
        <time>2020-07-16T03:51:03.106Z</time>
      </trkpt>
      <trkpt lat="64.90882" lon="11.73031">
        <ele>1.995482</ele>
        <time>2020-07-16T03:51:13.164Z</time>
      </trkpt>
      <trkpt lat="64.90892" lon="11.72993">
        <ele>1.851918</ele>
        <time>2020-07-16T03:51:16.152Z</time>
      </trkpt>
      <trkpt lat="64.90897" lon="11.72946">
        <ele>1.696531</ele>
        <time>2020-07-16T03:51:19.413Z</time>
      </trkpt>
      <trkpt lat="64.90892" lon="11.72881">
        <ele>1.486011</ele>
        <time>2020-07-16T03:51:23.893Z</time>
      </trkpt>
      <trkpt lat="64.90849" lon="11.72678">
        <ele>0.85908</ele>
        <time>2020-07-16T03:51:39.696Z</time>
      </trkpt>
      <trkpt lat="64.90772" lon="11.72078">
        <ele>0.363483</ele>
        <time>2020-07-16T03:52:25.645Z</time>
      </trkpt>
      <trkpt lat="64.9077" lon="11.7195">
        <ele>0.32531</ele>
        <time>2020-07-16T03:52:35.444Z</time>
      </trkpt>
      <trkpt lat="64.90793" lon="11.71716">
        <ele>0.373366</ele>
        <time>2020-07-16T03:52:53.966Z</time>
      </trkpt>
      <trkpt lat="64.90788" lon="11.71508">
        <ele>0.441107</ele>
        <time>2020-07-16T03:53:10.090Z</time>
      </trkpt>
      <trkpt lat="64.90792" lon="11.71303">
        <ele>0.45021</ele>
        <time>2020-07-16T03:53:25.509Z</time>
      </trkpt>
      <trkpt lat="64.90777" lon="11.71179">
        <ele>0.451359</ele>
        <time>2020-07-16T03:53:35.045Z</time>
      </trkpt>
      <trkpt lat="64.90733" lon="11.7101">
        <ele>0.875449</ele>
        <time>2020-07-16T03:53:50.187Z</time>
      </trkpt>
      <trkpt lat="64.90719" lon="11.70937">
        <ele>1.277076</ele>
        <time>2020-07-16T03:53:56.738Z</time>
      </trkpt>
      <trkpt lat="64.90707" lon="11.70775">
        <ele>2.099546</ele>
        <time>2020-07-16T03:54:11.518Z</time>
      </trkpt>
      <trkpt lat="64.90714" lon="11.70522">
        <ele>5.437271</ele>
        <time>2020-07-16T03:54:40.535Z</time>
      </trkpt>
      <trkpt lat="64.90746" lon="11.70258">
        <ele>10.377422</ele>
        <time>2020-07-16T03:55:19.652Z</time>
      </trkpt>
      <trkpt lat="64.90772" lon="11.7015">
        <ele>12.93653</ele>
        <time>2020-07-16T03:55:40.473Z</time>
      </trkpt>
      <trkpt lat="64.90831" lon="11.69973">
        <ele>17.568824</ele>
        <time>2020-07-16T03:56:12.391Z</time>
      </trkpt>
      <trkpt lat="64.90841" lon="11.69955">
        <ele>18.1592</ele>
        <time>2020-07-16T03:56:16.849Z</time>
      </trkpt>
      <trkpt lat="64.90852" lon="11.69938">
        <ele>18.805571</ele>
        <time>2020-07-16T03:56:20.187Z</time>
      </trkpt>
      <trkpt lat="64.90878" lon="11.69917">
        <ele>19.230822</ele>
        <time>2020-07-16T03:56:27.745Z</time>
      </trkpt>
      <trkpt lat="64.90897" lon="11.69914">
        <ele>19.477291</ele>
        <time>2020-07-16T03:56:32.137Z</time>
      </trkpt>
      <trkpt lat="64.9094" lon="11.69933">
        <ele>20.013519</ele>
        <time>2020-07-16T03:56:42.506Z</time>
      </trkpt>
      <trkpt lat="64.90948" lon="11.69937">
        <ele>20.115815</ele>
        <time>2020-07-16T03:56:44.387Z</time>
      </trkpt>
      <trkpt lat="64.90961" lon="11.69941">
        <ele>20.286719</ele>
        <time>2020-07-16T03:56:46.731Z</time>
      </trkpt>
      <trkpt lat="64.90989" lon="11.69942">
        <ele>20.632073</ele>
        <time>2020-07-16T03:56:52.483Z</time>
      </trkpt>
      <trkpt lat="64.91007" lon="11.69937">
        <ele>20.85378</ele>
        <time>2020-07-16T03:56:55.320Z</time>
      </trkpt>
      <trkpt lat="64.9102" lon="11.69931">
        <ele>21.021251</ele>
        <time>2020-07-16T03:56:57.527Z</time>
      </trkpt>
      <trkpt lat="64.91023" lon="11.69933">
        <ele>21.061502</ele>
        <time>2020-07-16T03:56:58.042Z</time>
      </trkpt>
      <trkpt lat="64.91027" lon="11.69935">
        <ele>21.103546</ele>
        <time>2020-07-16T03:56:58.549Z</time>
      </trkpt>
      <trkpt lat="64.91032" lon="11.69942">
        <ele>21.142869</ele>
        <time>2020-07-16T03:56:59.514Z</time>
      </trkpt>
      <trkpt lat="64.91104" lon="11.70219">
        <ele>20.327968</ele>
        <time>2020-07-16T03:57:21.771Z</time>
      </trkpt>
      <trkpt lat="64.91197" lon="11.70493">
        <ele>19.203437</ele>
        <time>2020-07-16T03:57:46.101Z</time>
      </trkpt>
      <trkpt lat="64.91322" lon="11.70823">
        <ele>17.140297</ele>
        <time>2020-07-16T03:58:14.526Z</time>
      </trkpt>
      <trkpt lat="64.91503" lon="11.71201">
        <ele>13.970758</ele>
        <time>2020-07-16T03:58:50.620Z</time>
      </trkpt>
      <trkpt lat="64.91574" lon="11.71349">
        <ele>13.231642</ele>
        <time>2020-07-16T03:59:05.322Z</time>
      </trkpt>
      <trkpt lat="64.91596" lon="11.71394">
        <ele>13.010529</ele>
        <time>2020-07-16T03:59:09.913Z</time>
      </trkpt>
      <trkpt lat="64.91639" lon="11.71468">
        <ele>12.597997</ele>
        <time>2020-07-16T03:59:18.754Z</time>
      </trkpt>
      <trkpt lat="64.91694" lon="11.71506">
        <ele>12.757575</ele>
        <time>2020-07-16T03:59:28.863Z</time>
      </trkpt>
      <trkpt lat="64.91699" lon="11.71509">
        <ele>12.774561</ele>
        <time>2020-07-16T03:59:29.703Z</time>
      </trkpt>
      <trkpt lat="64.91711" lon="11.71522">
        <ele>12.822678</ele>
        <time>2020-07-16T03:59:32.204Z</time>
      </trkpt>
      <trkpt lat="64.9174" lon="11.71558">
        <ele>12.937854</ele>
        <time>2020-07-16T03:59:38.324Z</time>
      </trkpt>
      <trkpt lat="64.91788" lon="11.71625">
        <ele>13.1383</ele>
        <time>2020-07-16T03:59:49.370Z</time>
      </trkpt>
      <trkpt lat="64.91977" lon="11.71893">
        <ele>15.853739</ele>
        <time>2020-07-16T04:00:36.808Z</time>
      </trkpt>
      <trkpt lat="64.92016" lon="11.71977">
        <ele>17.29209</ele>
        <time>2020-07-16T04:00:49.740Z</time>
      </trkpt>
      <trkpt lat="64.92088" lon="11.72183">
        <ele>20.42359</ele>
        <time>2020-07-16T04:01:21.766Z</time>
      </trkpt>
      <trkpt lat="64.92112" lon="11.72236">
        <ele>21.626954</ele>
        <time>2020-07-16T04:01:31.916Z</time>
      </trkpt>
      <trkpt lat="64.92133" lon="11.7226">
        <ele>22.511545</ele>
        <time>2020-07-16T04:01:39.665Z</time>
      </trkpt>
      <trkpt lat="64.92192" lon="11.72301">
        <ele>24.762714</ele>
        <time>2020-07-16T04:01:58.605Z</time>
      </trkpt>
      <trkpt lat="64.92222" lon="11.72348">
        <ele>26.104331</ele>
        <time>2020-07-16T04:02:09.360Z</time>
      </trkpt>
      <trkpt lat="64.92256" lon="11.72453">
        <ele>27.212603</ele>
        <time>2020-07-16T04:02:24.987Z</time>
      </trkpt>
      <trkpt lat="64.92363" lon="11.72855">
        <ele>28.325395</ele>
        <time>2020-07-16T04:03:03.211Z</time>
      </trkpt>
      <trkpt lat="64.9237" lon="11.72888">
        <ele>28.213707</ele>
        <time>2020-07-16T04:03:05.422Z</time>
      </trkpt>
      <trkpt lat="64.92383" lon="11.72953">
        <ele>27.996131</ele>
        <time>2020-07-16T04:03:10.348Z</time>
      </trkpt>
      <trkpt lat="64.92409" lon="11.73098">
        <ele>27.515238</ele>
        <time>2020-07-16T04:03:20.485Z</time>
      </trkpt>
      <trkpt lat="64.92428" lon="11.73284">
        <ele>26.340635</ele>
        <time>2020-07-16T04:03:32.138Z</time>
      </trkpt>
      <trkpt lat="64.92433" lon="11.7331">
        <ele>26.150468</ele>
        <time>2020-07-16T04:03:34.070Z</time>
      </trkpt>
      <trkpt lat="64.92448" lon="11.73381">
        <ele>25.629998</ele>
        <time>2020-07-16T04:03:38.987Z</time>
      </trkpt>
      <trkpt lat="64.92531" lon="11.73737">
        <ele>23.705423</ele>
        <time>2020-07-16T04:04:04.374Z</time>
      </trkpt>
      <trkpt lat="64.92565" lon="11.73841">
        <ele>23.221788</ele>
        <time>2020-07-16T04:04:13.986Z</time>
      </trkpt>
      <trkpt lat="64.92588" lon="11.73889">
        <ele>23.044079</ele>
        <time>2020-07-16T04:04:19.897Z</time>
      </trkpt>
      <trkpt lat="64.926" lon="11.73914">
        <ele>22.994099</ele>
        <time>2020-07-16T04:04:23.222Z</time>
      </trkpt>
      <trkpt lat="64.92626" lon="11.73979">
        <ele>22.873938</ele>
        <time>2020-07-16T04:04:30.220Z</time>
      </trkpt>
      <trkpt lat="64.92646" lon="11.74066">
        <ele>22.740899</ele>
        <time>2020-07-16T04:04:37.496Z</time>
      </trkpt>
      <trkpt lat="64.9267" lon="11.742">
        <ele>22.546547</ele>
        <time>2020-07-16T04:04:47.492Z</time>
      </trkpt>
      <trkpt lat="64.92713" lon="11.74439">
        <ele>21.222697</ele>
        <time>2020-07-16T04:05:03.637Z</time>
      </trkpt>
      <trkpt lat="64.92724" lon="11.74498">
        <ele>20.875753</ele>
        <time>2020-07-16T04:05:07.756Z</time>
      </trkpt>
      <trkpt lat="64.92734" lon="11.74538">
        <ele>20.632356</ele>
        <time>2020-07-16T04:05:10.480Z</time>
      </trkpt>
      <trkpt lat="64.92738" lon="11.74556">
        <ele>20.520714</ele>
        <time>2020-07-16T04:05:11.920Z</time>
      </trkpt>
      <trkpt lat="64.92767" lon="11.74651">
        <ele>20.254624</ele>
        <time>2020-07-16T04:05:19.499Z</time>
      </trkpt>
      <trkpt lat="64.92827" lon="11.74814">
        <ele>20.195475</ele>
        <time>2020-07-16T04:05:36.266Z</time>
      </trkpt>
      <trkpt lat="64.92903" lon="11.7494">
        <ele>20.503699</ele>
        <time>2020-07-16T04:05:54.058Z</time>
      </trkpt>
      <trkpt lat="64.92925" lon="11.74984">
        <ele>20.797936</ele>
        <time>2020-07-16T04:05:59.698Z</time>
      </trkpt>
      <trkpt lat="64.92957" lon="11.75045">
        <ele>21.217162</ele>
        <time>2020-07-16T04:06:07.579Z</time>
      </trkpt>
      <trkpt lat="64.92989" lon="11.75109">
        <ele>21.648856</ele>
        <time>2020-07-16T04:06:16.424Z</time>
      </trkpt>
      <trkpt lat="64.9301" lon="11.75152">
        <ele>21.929007</ele>
        <time>2020-07-16T04:06:22.820Z</time>
      </trkpt>
      <trkpt lat="64.93027" lon="11.75189">
        <ele>22.579593</ele>
        <time>2020-07-16T04:06:29.206Z</time>
      </trkpt>
      <trkpt lat="64.93067" lon="11.75295">
        <ele>24.618372</ele>
        <time>2020-07-16T04:06:45.777Z</time>
      </trkpt>
      <trkpt lat="64.931" lon="11.75403">
        <ele>26.518293</ele>
        <time>2020-07-16T04:07:02.040Z</time>
      </trkpt>
      <trkpt lat="64.93107" lon="11.75428">
        <ele>26.950241</ele>
        <time>2020-07-16T04:07:06.798Z</time>
      </trkpt>
      <trkpt lat="64.9315" lon="11.75531">
        <ele>29.089133</ele>
        <time>2020-07-16T04:07:26.391Z</time>
      </trkpt>
      <trkpt lat="64.93275" lon="11.75769">
        <ele>34.701442</ele>
        <time>2020-07-16T04:08:14.001Z</time>
      </trkpt>
      <trkpt lat="64.93403" lon="11.76263">
        <ele>38.354985</ele>
        <time>2020-07-16T04:09:08.153Z</time>
      </trkpt>
      <trkpt lat="64.93426" lon="11.7633">
        <ele>38.723241</ele>
        <time>2020-07-16T04:09:15.391Z</time>
      </trkpt>
      <trkpt lat="64.93503" lon="11.76435">
        <ele>39.863547</ele>
        <time>2020-07-16T04:09:33.445Z</time>
      </trkpt>
      <trkpt lat="64.93546" lon="11.7657">
        <ele>41.436793</ele>
        <time>2020-07-16T04:09:49.327Z</time>
      </trkpt>
      <trkpt lat="64.93565" lon="11.76612">
        <ele>42.009177</ele>
        <time>2020-07-16T04:09:56.051Z</time>
      </trkpt>
      <trkpt lat="64.9359" lon="11.76636">
        <ele>42.592392</ele>
        <time>2020-07-16T04:10:03.515Z</time>
      </trkpt>
      <trkpt lat="64.93637" lon="11.76656">
        <ele>43.818501</ele>
        <time>2020-07-16T04:10:17.632Z</time>
      </trkpt>
      <trkpt lat="64.93672" lon="11.76669">
        <ele>45.105273</ele>
        <time>2020-07-16T04:10:28.408Z</time>
      </trkpt>
      <trkpt lat="64.93747" lon="11.76696">
        <ele>47.820482</ele>
        <time>2020-07-16T04:10:51.817Z</time>
      </trkpt>
      <trkpt lat="64.94007" lon="11.76792">
        <ele>55.470017</ele>
        <time>2020-07-16T04:12:04.261Z</time>
      </trkpt>
      <trkpt lat="64.94046" lon="11.76808">
        <ele>56.00912</ele>
        <time>2020-07-16T04:12:13.065Z</time>
      </trkpt>
      <trkpt lat="64.94069" lon="11.76815">
        <ele>56.314437</ele>
        <time>2020-07-16T04:12:17.889Z</time>
      </trkpt>
      <trkpt lat="64.94112" lon="11.76816">
        <ele>56.903727</ele>
        <time>2020-07-16T04:12:26.974Z</time>
      </trkpt>
      <trkpt lat="64.94235" lon="11.76741">
        <ele>58.103178</ele>
        <time>2020-07-16T04:12:51.922Z</time>
      </trkpt>
      <trkpt lat="64.94295" lon="11.76723">
        <ele>58.530639</ele>
        <time>2020-07-16T04:13:04.167Z</time>
      </trkpt>
      <trkpt lat="64.94326" lon="11.76729">
        <ele>58.746271</ele>
        <time>2020-07-16T04:13:10.412Z</time>
      </trkpt>
      <trkpt lat="64.94459" lon="11.76793">
        <ele>59.913069</ele>
        <time>2020-07-16T04:13:38.398Z</time>
      </trkpt>
      <trkpt lat="64.94549" lon="11.76794">
        <ele>60.907701</ele>
        <time>2020-07-16T04:13:57.198Z</time>
      </trkpt>
      <trkpt lat="64.94581" lon="11.76823">
        <ele>61.387918</ele>
        <time>2020-07-16T04:14:04.158Z</time>
      </trkpt>
      <trkpt lat="64.94611" lon="11.76884">
        <ele>61.955192</ele>
        <time>2020-07-16T04:14:13.343Z</time>
      </trkpt>
      <trkpt lat="64.94657" lon="11.77026">
        <ele>63.087612</ele>
        <time>2020-07-16T04:14:31.302Z</time>
      </trkpt>
      <trkpt lat="64.9467" lon="11.77107">
        <ele>63.877249</ele>
        <time>2020-07-16T04:14:40.220Z</time>
      </trkpt>
      <trkpt lat="64.94673" lon="11.77136">
        <ele>64.154243</ele>
        <time>2020-07-16T04:14:43.302Z</time>
      </trkpt>
      <trkpt lat="64.94675" lon="11.77157">
        <ele>64.344408</ele>
        <time>2020-07-16T04:14:45.377Z</time>
      </trkpt>
      <trkpt lat="64.94677" lon="11.77173">
        <ele>64.499039</ele>
        <time>2020-07-16T04:14:47.546Z</time>
      </trkpt>
      <trkpt lat="64.94688" lon="11.77227">
        <ele>65.045258</ele>
        <time>2020-07-16T04:14:53.536Z</time>
      </trkpt>
      <trkpt lat="64.94729" lon="11.77339">
        <ele>66.394458</ele>
        <time>2020-07-16T04:15:09.565Z</time>
      </trkpt>
      <trkpt lat="64.94797" lon="11.7756">
        <ele>68.78574</ele>
        <time>2020-07-16T04:15:38.392Z</time>
      </trkpt>
      <trkpt lat="64.94821" lon="11.77616">
        <ele>69.467161</ele>
        <time>2020-07-16T04:15:46.223Z</time>
      </trkpt>
      <trkpt lat="64.9487" lon="11.77697">
        <ele>70.665735</ele>
        <time>2020-07-16T04:16:00.527Z</time>
      </trkpt>
      <trkpt lat="64.94916" lon="11.77773">
        <ele>71.70776</ele>
        <time>2020-07-16T04:16:13.977Z</time>
      </trkpt>
      <trkpt lat="64.94942" lon="11.77815">
        <ele>72.284047</ele>
        <time>2020-07-16T04:16:21.321Z</time>
      </trkpt>
      <trkpt lat="64.94956" lon="11.77837">
        <ele>72.594187</ele>
        <time>2020-07-16T04:16:25.208Z</time>
      </trkpt>
      <trkpt lat="64.94973" lon="11.77862">
        <ele>72.964988</ele>
        <time>2020-07-16T04:16:30.017Z</time>
      </trkpt>
      <trkpt lat="64.95014" lon="11.77906">
        <ele>73.798432</ele>
        <time>2020-07-16T04:16:40.643Z</time>
      </trkpt>
      <trkpt lat="64.95122" lon="11.77967">
        <ele>75.616059</ele>
        <time>2020-07-16T04:17:07.053Z</time>
      </trkpt>
      <trkpt lat="64.9517" lon="11.78033">
        <ele>76.529941</ele>
        <time>2020-07-16T04:17:19.508Z</time>
      </trkpt>
      <trkpt lat="64.95186" lon="11.78061">
        <ele>76.817355</ele>
        <time>2020-07-16T04:17:24.066Z</time>
      </trkpt>
      <trkpt lat="64.95273" lon="11.78214">
        <ele>77.976783</ele>
        <time>2020-07-16T04:17:47.672Z</time>
      </trkpt>
      <trkpt lat="64.95324" lon="11.78295">
        <ele>78.628027</ele>
        <time>2020-07-16T04:18:00.205Z</time>
      </trkpt>
      <trkpt lat="64.95346" lon="11.78312">
        <ele>78.703223</ele>
        <time>2020-07-16T04:18:04.805Z</time>
      </trkpt>
      <trkpt lat="64.95372" lon="11.78312">
        <ele>78.750192</ele>
        <time>2020-07-16T04:18:09.754Z</time>
      </trkpt>
      <trkpt lat="64.95388" lon="11.78292">
        <ele>78.784242</ele>
        <time>2020-07-16T04:18:13.264Z</time>
      </trkpt>
      <trkpt lat="64.95402" lon="11.78245">
        <ele>78.829095</ele>
        <time>2020-07-16T04:18:17.835Z</time>
      </trkpt>
      <trkpt lat="64.95422" lon="11.78078">
        <ele>78.964099</ele>
        <time>2020-07-16T04:18:31.048Z</time>
      </trkpt>
      <trkpt lat="64.95439" lon="11.78029">
        <ele>78.928528</ele>
        <time>2020-07-16T04:18:35.684Z</time>
      </trkpt>
      <trkpt lat="64.95455" lon="11.78015">
        <ele>78.787032</ele>
        <time>2020-07-16T04:18:38.518Z</time>
      </trkpt>
      <trkpt lat="64.95472" lon="11.78014">
        <ele>78.645566</ele>
        <time>2020-07-16T04:18:41.299Z</time>
      </trkpt>
      <trkpt lat="64.95558" lon="11.78034">
        <ele>77.937387</ele>
        <time>2020-07-16T04:18:54.647Z</time>
      </trkpt>
      <trkpt lat="64.95586" lon="11.78051">
        <ele>77.695861</ele>
        <time>2020-07-16T04:18:59.091Z</time>
      </trkpt>
      <trkpt lat="64.95634" lon="11.78089">
        <ele>77.3278</ele>
        <time>2020-07-16T04:19:06.700Z</time>
      </trkpt>
      <trkpt lat="64.95763" lon="11.78189">
        <ele>76.457063</ele>
        <time>2020-07-16T04:19:28.215Z</time>
      </trkpt>
      <trkpt lat="64.95802" lon="11.78221">
        <ele>76.511569</ele>
        <time>2020-07-16T04:19:36.140Z</time>
      </trkpt>
      <trkpt lat="64.95837" lon="11.78258">
        <ele>76.741154</ele>
        <time>2020-07-16T04:19:43.898Z</time>
      </trkpt>
      <trkpt lat="64.95878" lon="11.78323">
        <ele>77.041964</ele>
        <time>2020-07-16T04:19:54.255Z</time>
      </trkpt>
      <trkpt lat="64.95946" lon="11.78445">
        <ele>77.326712</ele>
        <time>2020-07-16T04:20:11.789Z</time>
      </trkpt>
      <trkpt lat="64.95989" lon="11.78524">
        <ele>76.967342</ele>
        <time>2020-07-16T04:20:21.690Z</time>
      </trkpt>
      <trkpt lat="64.96019" lon="11.7856">
        <ele>76.748595</ele>
        <time>2020-07-16T04:20:27.166Z</time>
      </trkpt>
      <trkpt lat="64.9609" lon="11.78598">
        <ele>76.268007</ele>
        <time>2020-07-16T04:20:37.940Z</time>
      </trkpt>
      <trkpt lat="64.96135" lon="11.78647">
        <ele>75.171884</ele>
        <time>2020-07-16T04:20:44.647Z</time>
      </trkpt>
      <trkpt lat="64.96157" lon="11.7869">
        <ele>74.520221</ele>
        <time>2020-07-16T04:20:48.562Z</time>
      </trkpt>
      <trkpt lat="64.96258" lon="11.78934">
        <ele>72.05485</ele>
        <time>2020-07-16T04:21:08.449Z</time>
      </trkpt>
      <trkpt lat="64.96271" lon="11.78969">
        <ele>71.964133</ele>
        <time>2020-07-16T04:21:11.451Z</time>
      </trkpt>
      <trkpt lat="64.96279" lon="11.78992">
        <ele>71.909374</ele>
        <time>2020-07-16T04:21:13.496Z</time>
      </trkpt>
      <trkpt lat="64.96292" lon="11.79061">
        <ele>71.763388</ele>
        <time>2020-07-16T04:21:18.909Z</time>
      </trkpt>
      <trkpt lat="64.963" lon="11.79173">
        <ele>71.54681</ele>
        <time>2020-07-16T04:21:28.109Z</time>
      </trkpt>
      <trkpt lat="64.96311" lon="11.79234">
        <ele>71.482803</ele>
        <time>2020-07-16T04:21:34.097Z</time>
      </trkpt>
      <trkpt lat="64.96344" lon="11.79336">
        <ele>72.499279</ele>
        <time>2020-07-16T04:21:46.937Z</time>
      </trkpt>
      <trkpt lat="64.96379" lon="11.79479">
        <ele>73.803162</ele>
        <time>2020-07-16T04:22:04.305Z</time>
      </trkpt>
      <trkpt lat="64.9644" lon="11.7961">
        <ele>75.161576</ele>
        <time>2020-07-16T04:22:24.562Z</time>
      </trkpt>
      <trkpt lat="64.96518" lon="11.79825">
        <ele>76.605995</ele>
        <time>2020-07-16T04:22:50.703Z</time>
      </trkpt>
      <trkpt lat="64.96554" lon="11.80008">
        <ele>76.611242</ele>
        <time>2020-07-16T04:23:07.068Z</time>
      </trkpt>
      <trkpt lat="64.96597" lon="11.80183">
        <ele>76.048189</ele>
        <time>2020-07-16T04:23:20.470Z</time>
      </trkpt>
      <trkpt lat="64.96624" lon="11.80298">
        <ele>75.449815</ele>
        <time>2020-07-16T04:23:28.602Z</time>
      </trkpt>
      <trkpt lat="64.96633" lon="11.80335">
        <ele>75.071913</ele>
        <time>2020-07-16T04:23:31.112Z</time>
      </trkpt>
      <trkpt lat="64.96658" lon="11.80443">
        <ele>73.974433</ele>
        <time>2020-07-16T04:23:38.408Z</time>
      </trkpt>
      <trkpt lat="64.9677" lon="11.80908">
        <ele>69.773721</ele>
        <time>2020-07-16T04:24:09.625Z</time>
      </trkpt>
      <trkpt lat="64.96786" lon="11.80965">
        <ele>69.280328</ele>
        <time>2020-07-16T04:24:14.417Z</time>
      </trkpt>
      <trkpt lat="64.96803" lon="11.81001">
        <ele>69.02303</ele>
        <time>2020-07-16T04:24:18.282Z</time>
      </trkpt>
      <trkpt lat="64.96852" lon="11.81046">
        <ele>69.453814</ele>
        <time>2020-07-16T04:24:28.381Z</time>
      </trkpt>
      <trkpt lat="64.96868" lon="11.81055">
        <ele>69.594475</ele>
        <time>2020-07-16T04:24:32.184Z</time>
      </trkpt>
      <trkpt lat="64.96925" lon="11.81089">
        <ele>70.079008</ele>
        <time>2020-07-16T04:24:44.624Z</time>
      </trkpt>
      <trkpt lat="64.96961" lon="11.81095">
        <ele>70.368211</ele>
        <time>2020-07-16T04:24:52.415Z</time>
      </trkpt>
      <trkpt lat="64.96968" lon="11.81091">
        <ele>70.429145</ele>
        <time>2020-07-16T04:24:54.638Z</time>
      </trkpt>
      <trkpt lat="64.96974" lon="11.81083">
        <ele>70.517336</ele>
        <time>2020-07-16T04:24:55.979Z</time>
      </trkpt>
      <trkpt lat="64.96993" lon="11.81027">
        <ele>71.04843</ele>
        <time>2020-07-16T04:25:03.171Z</time>
      </trkpt>
      <trkpt lat="64.97006" lon="11.80843">
        <ele>72.429225</ele>
        <time>2020-07-16T04:25:20.604Z</time>
      </trkpt>
      <trkpt lat="64.97026" lon="11.80747">
        <ele>73.215805</ele>
        <time>2020-07-16T04:25:31.850Z</time>
      </trkpt>
      <trkpt lat="64.97052" lon="11.80686">
        <ele>73.831523</ele>
        <time>2020-07-16T04:25:40.952Z</time>
      </trkpt>
      <trkpt lat="64.97103" lon="11.80619">
        <ele>74.746305</ele>
        <time>2020-07-16T04:25:55.504Z</time>
      </trkpt>
      <trkpt lat="64.97113" lon="11.80611">
        <ele>74.920583</ele>
        <time>2020-07-16T04:25:58.562Z</time>
      </trkpt>
      <trkpt lat="64.9713" lon="11.80596">
        <ele>75.205866</ele>
        <time>2020-07-16T04:26:02.903Z</time>
      </trkpt>
      <trkpt lat="64.97178" lon="11.80561">
        <ele>76.00021</ele>
        <time>2020-07-16T04:26:14.707Z</time>
      </trkpt>
      <trkpt lat="64.97214" lon="11.80519">
        <ele>76.0539</ele>
        <time>2020-07-16T04:26:23.218Z</time>
      </trkpt>
      <trkpt lat="64.97306" lon="11.80314">
        <ele>71.83308</ele>
        <time>2020-07-16T04:26:40.970Z</time>
      </trkpt>
      <trkpt lat="64.97387" lon="11.80189">
        <ele>64.253787</ele>
        <time>2020-07-16T04:26:51.684Z</time>
      </trkpt>
      <trkpt lat="64.97404" lon="11.80122">
        <ele>60.453415</ele>
        <time>2020-07-16T04:26:55.296Z</time>
      </trkpt>
      <trkpt lat="64.97426" lon="11.79878">
        <ele>48.296336</ele>
        <time>2020-07-16T04:27:06.419Z</time>
      </trkpt>
      <trkpt lat="64.9744" lon="11.79831">
        <ele>45.154623</ele>
        <time>2020-07-16T04:27:08.950Z</time>
      </trkpt>
      <trkpt lat="64.97456" lon="11.7981">
        <ele>42.723524</ele>
        <time>2020-07-16T04:27:10.909Z</time>
      </trkpt>
      <trkpt lat="64.9758" lon="11.79777">
        <ele>26.676194</ele>
        <time>2020-07-16T04:27:24.046Z</time>
      </trkpt>
      <trkpt lat="64.9763" lon="11.79781">
        <ele>22.692035</ele>
        <time>2020-07-16T04:27:29.467Z</time>
      </trkpt>
      <trkpt lat="64.97681" lon="11.79814">
        <ele>18.449681</ele>
        <time>2020-07-16T04:27:35.374Z</time>
      </trkpt>
      <trkpt lat="64.9777" lon="11.79911">
        <ele>11.858102</ele>
        <time>2020-07-16T04:27:47.008Z</time>
      </trkpt>
      <trkpt lat="64.97812" lon="11.79947">
        <ele>10.806188</ele>
        <time>2020-07-16T04:27:52.936Z</time>
      </trkpt>
      <trkpt lat="64.9786" lon="11.79961">
        <ele>9.697258</ele>
        <time>2020-07-16T04:27:59.689Z</time>
      </trkpt>
      <trkpt lat="64.9798" lon="11.79956">
        <ele>8.401533</ele>
        <time>2020-07-16T04:28:19.767Z</time>
      </trkpt>
      <trkpt lat="64.9806" lon="11.80004">
        <ele>8.723016</ele>
        <time>2020-07-16T04:28:35.790Z</time>
      </trkpt>
      <trkpt lat="64.98082" lon="11.79998">
        <ele>8.809546</ele>
        <time>2020-07-16T04:28:40.641Z</time>
      </trkpt>
      <trkpt lat="64.98106" lon="11.79966">
        <ele>9.011685</ele>
        <time>2020-07-16T04:28:46.566Z</time>
      </trkpt>
      <trkpt lat="64.98166" lon="11.79788">
        <ele>10.644751</ele>
        <time>2020-07-16T04:29:07.921Z</time>
      </trkpt>
      <trkpt lat="64.98172" lon="11.79777">
        <ele>10.774441</ele>
        <time>2020-07-16T04:29:10.126Z</time>
      </trkpt>
      <trkpt lat="64.98176" lon="11.79769">
        <ele>10.873535</ele>
        <time>2020-07-16T04:29:11.322Z</time>
      </trkpt>
      <trkpt lat="64.98227" lon="11.79704">
        <ele>11.855105</ele>
        <time>2020-07-16T04:29:25.135Z</time>
      </trkpt>
      <trkpt lat="64.98247" lon="11.7966">
        <ele>12.529243</ele>
        <time>2020-07-16T04:29:32.191Z</time>
      </trkpt>
      <trkpt lat="64.98263" lon="11.79581">
        <ele>13.522135</ele>
        <time>2020-07-16T04:29:42.144Z</time>
      </trkpt>
      <trkpt lat="64.98263" lon="11.79488">
        <ele>14.575445</ele>
        <time>2020-07-16T04:29:53.034Z</time>
      </trkpt>
      <trkpt lat="64.98236" lon="11.79195">
        <ele>17.967841</ele>
        <time>2020-07-16T04:30:26.647Z</time>
      </trkpt>
      <trkpt lat="64.98196" lon="11.78997">
        <ele>20.420742</ele>
        <time>2020-07-16T04:30:50.107Z</time>
      </trkpt>
      <trkpt lat="64.98183" lon="11.78894">
        <ele>21.718402</ele>
        <time>2020-07-16T04:31:01.176Z</time>
      </trkpt>
      <trkpt lat="64.98179" lon="11.78517">
        <ele>29.787513</ele>
        <time>2020-07-16T04:31:52.917Z</time>
      </trkpt>
      <trkpt lat="64.98174" lon="11.78423">
        <ele>32.790255</ele>
        <time>2020-07-16T04:32:11.268Z</time>
      </trkpt>
      <trkpt lat="64.9811" lon="11.78112">
        <ele>46.328205</ele>
        <time>2020-07-16T04:33:27.604Z</time>
      </trkpt>
      <trkpt lat="64.98047" lon="11.77744">
        <ele>53.525218</ele>
        <time>2020-07-16T04:34:29.593Z</time>
      </trkpt>
      <trkpt lat="64.98012" lon="11.77457">
        <ele>44.920626</ele>
        <time>2020-07-16T04:34:44.218Z</time>
      </trkpt>
      <trkpt lat="64.97999" lon="11.77292">
        <ele>38.41941</ele>
        <time>2020-07-16T04:34:51.701Z</time>
      </trkpt>
      <trkpt lat="64.98002" lon="11.77201">
        <ele>33.388176</ele>
        <time>2020-07-16T04:34:55.704Z</time>
      </trkpt>
      <trkpt lat="64.98015" lon="11.77118">
        <ele>28.271429</ele>
        <time>2020-07-16T04:34:59.599Z</time>
      </trkpt>
      <trkpt lat="64.98098" lon="11.76856">
        <ele>11.511901</ele>
        <time>2020-07-16T04:35:14.290Z</time>
      </trkpt>
      <trkpt lat="64.98111" lon="11.76827">
        <ele>10.387551</ele>
        <time>2020-07-16T04:35:16.182Z</time>
      </trkpt>
      <trkpt lat="64.98113" lon="11.76823">
        <ele>10.21076</ele>
        <time>2020-07-16T04:35:16.490Z</time>
      </trkpt>
      <trkpt lat="64.98204" lon="11.7669">
        <ele>3.152245</ele>
        <time>2020-07-16T04:35:29.396Z</time>
      </trkpt>
      <trkpt lat="64.98226" lon="11.76648">
        <ele>1.660143</ele>
        <time>2020-07-16T04:35:33.272Z</time>
      </trkpt>
      <trkpt lat="64.98235" lon="11.76625">
        <ele>1.559421</ele>
        <time>2020-07-16T04:35:35.273Z</time>
      </trkpt>
      <trkpt lat="64.98241" lon="11.76609">
        <ele>1.488734</ele>
        <time>2020-07-16T04:35:36.816Z</time>
      </trkpt>
      <trkpt lat="64.98247" lon="11.76594">
        <ele>1.427437</ele>
        <time>2020-07-16T04:35:38.179Z</time>
      </trkpt>
      <trkpt lat="64.98253" lon="11.76573">
        <ele>1.340914</ele>
        <time>2020-07-16T04:35:40.145Z</time>
      </trkpt>
      <trkpt lat="64.98262" lon="11.76536">
        <ele>1.203926</ele>
        <time>2020-07-16T04:35:43.190Z</time>
      </trkpt>
      <trkpt lat="64.983" lon="11.76373">
        <ele>0.600959</ele>
        <time>2020-07-16T04:35:56.655Z</time>
      </trkpt>
      <trkpt lat="64.98316" lon="11.76307">
        <ele>0.358376</ele>
        <time>2020-07-16T04:36:02.066Z</time>
      </trkpt>
      <trkpt lat="64.98377" lon="11.76107">
        <ele>1.256734</ele>
        <time>2020-07-16T04:36:21.556Z</time>
      </trkpt>
      <trkpt lat="64.98404" lon="11.75921">
        <ele>2.248511</ele>
        <time>2020-07-16T04:36:39.859Z</time>
      </trkpt>
      <trkpt lat="64.98409" lon="11.75906">
        <ele>2.767605</ele>
        <time>2020-07-16T04:36:41.680Z</time>
      </trkpt>
      <trkpt lat="64.98412" lon="11.759">
        <ele>3.015059</ele>
        <time>2020-07-16T04:36:42.904Z</time>
      </trkpt>
      <trkpt lat="64.98433" lon="11.75874">
        <ele>4.539482</ele>
        <time>2020-07-16T04:36:48.566Z</time>
      </trkpt>
      <trkpt lat="64.98465" lon="11.75855">
        <ele>6.662433</ele>
        <time>2020-07-16T04:37:01.235Z</time>
      </trkpt>
      <trkpt lat="64.98543" lon="11.75861">
        <ele>11.621154</ele>
        <time>2020-07-16T04:37:33.236Z</time>
      </trkpt>
      <trkpt lat="64.98577" lon="11.75851">
        <ele>14.079871</ele>
        <time>2020-07-16T04:37:48.892Z</time>
      </trkpt>
      <trkpt lat="64.98594" lon="11.7585">
        <ele>16.27066</ele>
        <time>2020-07-16T04:37:58.041Z</time>
      </trkpt>
      <trkpt lat="64.98606" lon="11.75851">
        <ele>17.786513</ele>
        <time>2020-07-16T04:38:06.229Z</time>
      </trkpt>
      <trkpt lat="64.98627" lon="11.75867">
        <ele>20.581836</ele>
        <time>2020-07-16T04:38:17.924Z</time>
      </trkpt>
      <trkpt lat="64.98655" lon="11.75926">
        <ele>25.370442</ele>
        <time>2020-07-16T04:38:41.129Z</time>
      </trkpt>
      <trkpt lat="64.98666" lon="11.75965">
        <ele>27.858891</ele>
        <time>2020-07-16T04:38:53.654Z</time>
      </trkpt>
      <trkpt lat="64.98677" lon="11.76047">
        <ele>32.536677</ele>
        <time>2020-07-16T04:39:17.040Z</time>
      </trkpt>
      <trkpt lat="64.98681" lon="11.76103">
        <ele>35.584295</ele>
        <time>2020-07-16T04:39:33.741Z</time>
      </trkpt>
      <trkpt lat="64.98687" lon="11.762">
        <ele>40.074553</ele>
        <time>2020-07-16T04:39:57.168Z</time>
      </trkpt>
      <trkpt lat="64.987" lon="11.76351">
        <ele>46.924879</ele>
        <time>2020-07-16T04:40:32.491Z</time>
      </trkpt>
      <trkpt lat="64.98716" lon="11.76417">
        <ele>50.323094</ele>
        <time>2020-07-16T04:40:49.120Z</time>
      </trkpt>
      <trkpt lat="64.98738" lon="11.76453">
        <ele>53.126285</ele>
        <time>2020-07-16T04:41:01.216Z</time>
      </trkpt>
      <trkpt lat="64.98798" lon="11.76524">
        <ele>57.725172</ele>
        <time>2020-07-16T04:41:26.993Z</time>
      </trkpt>
      <trkpt lat="64.98815" lon="11.76563">
        <ele>59.02207</ele>
        <time>2020-07-16T04:41:35.590Z</time>
      </trkpt>
      <trkpt lat="64.98842" lon="11.76659">
        <ele>61.60452</ele>
        <time>2020-07-16T04:41:51.927Z</time>
      </trkpt>
      <trkpt lat="64.98859" lon="11.76732">
        <ele>63.502998</ele>
        <time>2020-07-16T04:42:03.208Z</time>
      </trkpt>
      <trkpt lat="64.98867" lon="11.76762">
        <ele>64.296135</ele>
        <time>2020-07-16T04:42:07.788Z</time>
      </trkpt>
      <trkpt lat="64.98925" lon="11.7701">
        <ele>68.636693</ele>
        <time>2020-07-16T04:42:43.276Z</time>
      </trkpt>
      <trkpt lat="64.98938" lon="11.77063">
        <ele>69.5279</ele>
        <time>2020-07-16T04:42:50.444Z</time>
      </trkpt>
      <trkpt lat="64.9895" lon="11.77119">
        <ele>70.435586</ele>
        <time>2020-07-16T04:42:57.644Z</time>
      </trkpt>
      <trkpt lat="64.98954" lon="11.77137">
        <ele>70.739839</ele>
        <time>2020-07-16T04:43:00.024Z</time>
      </trkpt>
      <trkpt lat="64.98956" lon="11.77148">
        <ele>70.917512</ele>
        <time>2020-07-16T04:43:01.380Z</time>
      </trkpt>
      <trkpt lat="64.98956" lon="11.77151">
        <ele>70.956541</ele>
        <time>2020-07-16T04:43:01.716Z</time>
      </trkpt>
      <trkpt lat="64.98958" lon="11.77164">
        <ele>71.141206</ele>
        <time>2020-07-16T04:43:03.420Z</time>
      </trkpt>
      <trkpt lat="64.99091" lon="11.7786">
        <ele>80.077927</ele>
        <time>2020-07-16T04:44:30.379Z</time>
      </trkpt>
      <trkpt lat="64.99106" lon="11.77972">
        <ele>81.006431</ele>
        <time>2020-07-16T04:44:43.252Z</time>
      </trkpt>
      <trkpt lat="64.99105" lon="11.78024">
        <ele>81.034337</ele>
        <time>2020-07-16T04:44:48.451Z</time>
      </trkpt>
      <trkpt lat="64.99084" lon="11.78185">
        <ele>81.126317</ele>
        <time>2020-07-16T04:45:03.479Z</time>
      </trkpt>
      <trkpt lat="64.99077" lon="11.78308">
        <ele>81.193688</ele>
        <time>2020-07-16T04:45:11.783Z</time>
      </trkpt>
      <trkpt lat="64.9905" lon="11.78468">
        <ele>78.112621</ele>
        <time>2020-07-16T04:45:21.312Z</time>
      </trkpt>
      <trkpt lat="64.99035" lon="11.78657">
        <ele>73.479878</ele>
        <time>2020-07-16T04:45:30.869Z</time>
      </trkpt>
      <trkpt lat="64.99036" lon="11.78727">
        <ele>71.781604</ele>
        <time>2020-07-16T04:45:34.236Z</time>
      </trkpt>
      <trkpt lat="64.99049" lon="11.78806">
        <ele>68.687223</ele>
        <time>2020-07-16T04:45:38.200Z</time>
      </trkpt>
      <trkpt lat="64.99069" lon="11.78869">
        <ele>65.05079</ele>
        <time>2020-07-16T04:45:41.908Z</time>
      </trkpt>
      <trkpt lat="64.9913" lon="11.78982">
        <ele>56.844576</ele>
        <time>2020-07-16T04:45:50.158Z</time>
      </trkpt>
      <trkpt lat="64.99172" lon="11.791">
        <ele>49.733978</ele>
        <time>2020-07-16T04:45:57.186Z</time>
      </trkpt>
      <trkpt lat="64.99222" lon="11.79205">
        <ele>42.454228</ele>
        <time>2020-07-16T04:46:04.257Z</time>
      </trkpt>
      <trkpt lat="64.99252" lon="11.79343">
        <ele>35.245189</ele>
        <time>2020-07-16T04:46:11.365Z</time>
      </trkpt>
      <trkpt lat="64.99267" lon="11.79388">
        <ele>32.588551</ele>
        <time>2020-07-16T04:46:14.020Z</time>
      </trkpt>
      <trkpt lat="64.9929" lon="11.79425">
        <ele>30.748857</ele>
        <time>2020-07-16T04:46:17.115Z</time>
      </trkpt>
      <trkpt lat="64.99347" lon="11.7947">
        <ele>27.426869</ele>
        <time>2020-07-16T04:46:24.048Z</time>
      </trkpt>
      <trkpt lat="64.99396" lon="11.79522">
        <ele>24.495637</ele>
        <time>2020-07-16T04:46:30.456Z</time>
      </trkpt>
      <trkpt lat="64.99524" lon="11.79729">
        <ele>21.340494</ele>
        <time>2020-07-16T04:46:53.405Z</time>
      </trkpt>
      <trkpt lat="64.99538" lon="11.7975">
        <ele>21.234536</ele>
        <time>2020-07-16T04:46:55.853Z</time>
      </trkpt>
      <trkpt lat="64.99545" lon="11.79761">
        <ele>21.17942</ele>
        <time>2020-07-16T04:46:58.669Z</time>
      </trkpt>
      <trkpt lat="64.99649" lon="11.7986">
        <ele>21.414835</ele>
        <time>2020-07-16T04:47:22.329Z</time>
      </trkpt>
      <trkpt lat="64.99733" lon="11.79892">
        <ele>22.07018</ele>
        <time>2020-07-16T04:47:40.107Z</time>
      </trkpt>
      <trkpt lat="64.99752" lon="11.79893">
        <ele>22.216414</ele>
        <time>2020-07-16T04:47:43.574Z</time>
      </trkpt>
      <trkpt lat="64.9978" lon="11.79895">
        <ele>22.218194</ele>
        <time>2020-07-16T04:47:48.728Z</time>
      </trkpt>
      <trkpt lat="64.99846" lon="11.79902">
        <ele>22.03656</ele>
        <time>2020-07-16T04:48:00.029Z</time>
      </trkpt>
      <trkpt lat="64.99891" lon="11.79894">
        <ele>21.912418</ele>
        <time>2020-07-16T04:48:07.118Z</time>
      </trkpt>
      <trkpt lat="64.99905" lon="11.79889">
        <ele>21.873458</ele>
        <time>2020-07-16T04:48:09.448Z</time>
      </trkpt>
      <trkpt lat="64.99925" lon="11.79878">
        <ele>21.819226</ele>
        <time>2020-07-16T04:48:12.512Z</time>
      </trkpt>
      <trkpt lat="65.00078" lon="11.79741">
        <ele>22.564531</ele>
        <time>2020-07-16T04:48:42.363Z</time>
      </trkpt>
      <trkpt lat="65.00111" lon="11.79721">
        <ele>22.943019</ele>
        <time>2020-07-16T04:48:49.734Z</time>
      </trkpt>
      <trkpt lat="65.00139" lon="11.79728">
        <ele>24.577159</ele>
        <time>2020-07-16T04:48:56.966Z</time>
      </trkpt>
      <trkpt lat="65.00207" lon="11.79827">
        <ele>29.082905</ele>
        <time>2020-07-16T04:49:23.015Z</time>
      </trkpt>
      <trkpt lat="65.0024" lon="11.79851">
        <ele>31.063539</ele>
        <time>2020-07-16T04:49:37.629Z</time>
      </trkpt>
      <trkpt lat="65.00258" lon="11.79844">
        <ele>32.078353</ele>
        <time>2020-07-16T04:49:45.790Z</time>
      </trkpt>
      <trkpt lat="65.00338" lon="11.7976">
        <ele>41.163425</ele>
        <time>2020-07-16T04:50:32.347Z</time>
      </trkpt>
      <trkpt lat="65.0039" lon="11.79733">
        <ele>47.19025</ele>
        <time>2020-07-16T04:51:05.389Z</time>
      </trkpt>
      <trkpt lat="65.00408" lon="11.7974">
        <ele>49.318701</ele>
        <time>2020-07-16T04:51:17.836Z</time>
      </trkpt>
      <trkpt lat="65.00543" lon="11.79928">
        <ele>58.230834</ele>
        <time>2020-07-16T04:52:31.590Z</time>
      </trkpt>
      <trkpt lat="65.00712" lon="11.80264">
        <ele>49.110842</ele>
        <time>2020-07-16T04:52:57.209Z</time>
      </trkpt>
      <trkpt lat="65.0075" lon="11.80329">
        <ele>45.033683</ele>
        <time>2020-07-16T04:53:02.276Z</time>
      </trkpt>
      <trkpt lat="65.00919" lon="11.80554">
        <ele>28.669869</ele>
        <time>2020-07-16T04:53:23.547Z</time>
      </trkpt>
      <trkpt lat="65.01006" lon="11.80629">
        <ele>24.380388</ele>
        <time>2020-07-16T04:53:35.147Z</time>
      </trkpt>
      <trkpt lat="65.01039" lon="11.8067">
        <ele>22.613029</ele>
        <time>2020-07-16T04:53:40.615Z</time>
      </trkpt>
      <trkpt lat="65.01047" lon="11.80688">
        <ele>22.289835</ele>
        <time>2020-07-16T04:53:42.257Z</time>
      </trkpt>
      <trkpt lat="65.01053" lon="11.80706">
        <ele>22.293903</ele>
        <time>2020-07-16T04:53:43.857Z</time>
      </trkpt>
      <trkpt lat="65.01105" lon="11.80964">
        <ele>22.345183</ele>
        <time>2020-07-16T04:54:05.608Z</time>
      </trkpt>
      <trkpt lat="65.0116" lon="11.81198">
        <ele>24.136288</ele>
        <time>2020-07-16T04:54:29.797Z</time>
      </trkpt>
      <trkpt lat="65.01238" lon="11.8143">
        <ele>27.775934</ele>
        <time>2020-07-16T04:55:05.143Z</time>
      </trkpt>
      <trkpt lat="65.01295" lon="11.81633">
        <ele>33.351951</ele>
        <time>2020-07-16T04:55:42.126Z</time>
      </trkpt>
      <trkpt lat="65.01318" lon="11.81691">
        <ele>35.189982</ele>
        <time>2020-07-16T04:55:55.126Z</time>
      </trkpt>
      <trkpt lat="65.0142" lon="11.81866">
        <ele>41.514528</ele>
        <time>2020-07-16T04:56:41.410Z</time>
      </trkpt>
      <trkpt lat="65.01497" lon="11.82167">
        <ele>46.141936</ele>
        <time>2020-07-16T04:57:26.348Z</time>
      </trkpt>
      <trkpt lat="65.01595" lon="11.82429">
        <ele>45.313332</ele>
        <time>2020-07-16T04:57:50.145Z</time>
      </trkpt>
      <trkpt lat="65.0165" lon="11.82652">
        <ele>39.484172</ele>
        <time>2020-07-16T04:58:03.168Z</time>
      </trkpt>
      <trkpt lat="65.01726" lon="11.82844">
        <ele>31.557222</ele>
        <time>2020-07-16T04:58:15.483Z</time>
      </trkpt>
      <trkpt lat="65.0174" lon="11.82941">
        <ele>28.052547</ele>
        <time>2020-07-16T04:58:20.274Z</time>
      </trkpt>
      <trkpt lat="65.01751" lon="11.83252">
        <ele>21.055042</ele>
        <time>2020-07-16T04:58:35.396Z</time>
      </trkpt>
      <trkpt lat="65.01768" lon="11.83376">
        <ele>19.566648</ele>
        <time>2020-07-16T04:58:42.873Z</time>
      </trkpt>
      <trkpt lat="65.01774" lon="11.83408">
        <ele>19.163156</ele>
        <time>2020-07-16T04:58:45.077Z</time>
      </trkpt>
      <trkpt lat="65.01783" lon="11.83446">
        <ele>18.671435</ele>
        <time>2020-07-16T04:58:48.231Z</time>
      </trkpt>
      <trkpt lat="65.01799" lon="11.83512">
        <ele>18.639753</ele>
        <time>2020-07-16T04:58:55.647Z</time>
      </trkpt>
      <trkpt lat="65.01864" lon="11.83711">
        <ele>26.43297</ele>
        <time>2020-07-16T04:59:38.467Z</time>
      </trkpt>
      <trkpt lat="65.01906" lon="11.83813">
        <ele>30.80987</ele>
        <time>2020-07-16T05:00:09.755Z</time>
      </trkpt>
      <trkpt lat="65.0194" lon="11.83894">
        <ele>34.067169</ele>
        <time>2020-07-16T05:00:35.257Z</time>
      </trkpt>
      <trkpt lat="65.02027" lon="11.84109">
        <ele>42.500707</ele>
        <time>2020-07-16T05:01:28.556Z</time>
      </trkpt>
      <trkpt lat="65.02207" lon="11.84382">
        <ele>36.101799</ele>
        <time>2020-07-16T05:01:55.933Z</time>
      </trkpt>
      <trkpt lat="65.02326" lon="11.84634">
        <ele>23.615849</ele>
        <time>2020-07-16T05:02:13.519Z</time>
      </trkpt>
      <trkpt lat="65.02381" lon="11.84739">
        <ele>22.022311</ele>
        <time>2020-07-16T05:02:21.860Z</time>
      </trkpt>
      <trkpt lat="65.02432" lon="11.84833">
        <ele>20.553156</ele>
        <time>2020-07-16T05:02:31.595Z</time>
      </trkpt>
      <trkpt lat="65.02462" lon="11.8489">
        <ele>19.685025</ele>
        <time>2020-07-16T05:02:40.823Z</time>
      </trkpt>
      <trkpt lat="65.02597" lon="11.85149">
        <ele>28.672835</ele>
        <time>2020-07-16T05:03:44.565Z</time>
      </trkpt>
      <trkpt lat="65.02732" lon="11.85405">
        <ele>38.313905</ele>
        <time>2020-07-16T05:04:48.287Z</time>
      </trkpt>
      <trkpt lat="65.02812" lon="11.85558">
        <ele>41.122185</ele>
        <time>2020-07-16T05:05:19.625Z</time>
      </trkpt>
      <trkpt lat="65.02854" lon="11.85643">
        <ele>42.329673</ele>
        <time>2020-07-16T05:05:32.814Z</time>
      </trkpt>
      <trkpt lat="65.02933" lon="11.85799">
        <ele>41.166913</ele>
        <time>2020-07-16T05:05:48.208Z</time>
      </trkpt>
      <trkpt lat="65.0307" lon="11.86068">
        <ele>35.360328</ele>
        <time>2020-07-16T05:06:10.354Z</time>
      </trkpt>
      <trkpt lat="65.0311" lon="11.86144">
        <ele>33.582118</ele>
        <time>2020-07-16T05:06:16.778Z</time>
      </trkpt>
      <trkpt lat="65.03183" lon="11.86287">
        <ele>31.001265</ele>
        <time>2020-07-16T05:06:29.663Z</time>
      </trkpt>
      <trkpt lat="65.03227" lon="11.86377">
        <ele>30.457158</ele>
        <time>2020-07-16T05:06:38.393Z</time>
      </trkpt>
      <trkpt lat="65.03251" lon="11.86423">
        <ele>30.171601</ele>
        <time>2020-07-16T05:06:43.591Z</time>
      </trkpt>
      <trkpt lat="65.03284" lon="11.86488">
        <ele>29.777096</ele>
        <time>2020-07-16T05:06:50.960Z</time>
      </trkpt>
      <trkpt lat="65.03298" lon="11.86516">
        <ele>29.600532</ele>
        <time>2020-07-16T05:06:54.651Z</time>
      </trkpt>
      <trkpt lat="65.0333" lon="11.86581">
        <ele>30.122235</ele>
        <time>2020-07-16T05:07:02.499Z</time>
      </trkpt>
      <trkpt lat="65.03342" lon="11.86605">
        <ele>30.322146</ele>
        <time>2020-07-16T05:07:05.518Z</time>
      </trkpt>
      <trkpt lat="65.03346" lon="11.86612">
        <ele>30.379744</ele>
        <time>2020-07-16T05:07:06.397Z</time>
      </trkpt>
      <trkpt lat="65.03352" lon="11.86625">
        <ele>30.489999</ele>
        <time>2020-07-16T05:07:08.603Z</time>
      </trkpt>
      <trkpt lat="65.03437" lon="11.86792">
        <ele>31.906975</ele>
        <time>2020-07-16T05:07:34.040Z</time>
      </trkpt>
      <trkpt lat="65.03484" lon="11.86905">
        <ele>33.673046</ele>
        <time>2020-07-16T05:07:51.331Z</time>
      </trkpt>
      <trkpt lat="65.03504" lon="11.86969">
        <ele>34.557148</ele>
        <time>2020-07-16T05:08:00.022Z</time>
      </trkpt>
      <trkpt lat="65.03566" lon="11.87226">
        <ele>37.735089</ele>
        <time>2020-07-16T05:08:34.865Z</time>
      </trkpt>
      <trkpt lat="65.03611" lon="11.87359">
        <ele>39.446353</ele>
        <time>2020-07-16T05:08:53.493Z</time>
      </trkpt>
      <trkpt lat="65.03626" lon="11.87396">
        <ele>39.954801</ele>
        <time>2020-07-16T05:08:59.148Z</time>
      </trkpt>
      <trkpt lat="65.03666" lon="11.87501">
        <ele>41.070477</ele>
        <time>2020-07-16T05:09:12.783Z</time>
      </trkpt>
      <trkpt lat="65.03885" lon="11.88066">
        <ele>43.79573</ele>
        <time>2020-07-16T05:10:16.616Z</time>
      </trkpt>
      <trkpt lat="65.0393" lon="11.88184">
        <ele>45.383184</ele>
        <time>2020-07-16T05:10:33.227Z</time>
      </trkpt>
      <trkpt lat="65.03936" lon="11.88197">
        <ele>45.601561</ele>
        <time>2020-07-16T05:10:34.995Z</time>
      </trkpt>
      <trkpt lat="65.03938" lon="11.88203">
        <ele>45.703154</ele>
        <time>2020-07-16T05:10:36.420Z</time>
      </trkpt>
      <trkpt lat="65.04059" lon="11.88523">
        <ele>50.000167</ele>
        <time>2020-07-16T05:11:28.203Z</time>
      </trkpt>
      <trkpt lat="65.04081" lon="11.88578">
        <ele>50.479794</ele>
        <time>2020-07-16T05:11:36.109Z</time>
      </trkpt>
      <trkpt lat="65.04092" lon="11.88607">
        <ele>50.738257</ele>
        <time>2020-07-16T05:11:40.286Z</time>
      </trkpt>
      <trkpt lat="65.04203" lon="11.88893">
        <ele>49.494157</ele>
        <time>2020-07-16T05:12:06.509Z</time>
      </trkpt>
      <trkpt lat="65.0432" lon="11.89104">
        <ele>45.166813</ele>
        <time>2020-07-16T05:12:24.834Z</time>
      </trkpt>
      <trkpt lat="65.04385" lon="11.89281">
        <ele>41.497719</ele>
        <time>2020-07-16T05:12:37.397Z</time>
      </trkpt>
      <trkpt lat="65.04411" lon="11.89321">
        <ele>40.563975</ele>
        <time>2020-07-16T05:12:41.671Z</time>
      </trkpt>
      <trkpt lat="65.04416" lon="11.89325">
        <ele>40.454786</ele>
        <time>2020-07-16T05:12:42.344Z</time>
      </trkpt>
      <trkpt lat="65.04425" lon="11.89331">
        <ele>40.261359</ele>
        <time>2020-07-16T05:12:43.748Z</time>
      </trkpt>
      <trkpt lat="65.04448" lon="11.89333">
        <ele>39.781863</ele>
        <time>2020-07-16T05:12:46.989Z</time>
      </trkpt>
      <trkpt lat="65.04536" lon="11.89296">
        <ele>37.962869</ele>
        <time>2020-07-16T05:12:59.914Z</time>
      </trkpt>
      <trkpt lat="65.04567" lon="11.89292">
        <ele>37.331428</ele>
        <time>2020-07-16T05:13:04.382Z</time>
      </trkpt>
      <trkpt lat="65.0461" lon="11.89311">
        <ele>36.227915</ele>
        <time>2020-07-16T05:13:10.542Z</time>
      </trkpt>
      <trkpt lat="65.04648" lon="11.89373">
        <ele>34.986499</ele>
        <time>2020-07-16T05:13:16.835Z</time>
      </trkpt>
      <trkpt lat="65.04745" lon="11.89655">
        <ele>31.727237</ele>
        <time>2020-07-16T05:13:37.060Z</time>
      </trkpt>
      <trkpt lat="65.04844" lon="11.89984">
        <ele>31.956327</ele>
        <time>2020-07-16T05:14:05.073Z</time>
      </trkpt>
      <trkpt lat="65.04995" lon="11.90567">
        <ele>46.524771</ele>
        <time>2020-07-16T05:15:46.284Z</time>
      </trkpt>
      <trkpt lat="65.05092" lon="11.90918">
        <ele>61.32055</ele>
        <time>2020-07-16T05:17:12.149Z</time>
      </trkpt>
      <trkpt lat="65.05363" lon="11.91476">
        <ele>86.649752</ele>
        <time>2020-07-16T05:19:36.020Z</time>
      </trkpt>
      <trkpt lat="65.05397" lon="11.91571">
        <ele>89.498699</ele>
        <time>2020-07-16T05:19:55.579Z</time>
      </trkpt>
      <trkpt lat="65.05437" lon="11.91737">
        <ele>92.686346</ele>
        <time>2020-07-16T05:20:23.801Z</time>
      </trkpt>
      <trkpt lat="65.05499" lon="11.91909">
        <ele>94.998815</ele>
        <time>2020-07-16T05:20:47.641Z</time>
      </trkpt>
      <trkpt lat="65.05546" lon="11.92026">
        <ele>92.802819</ele>
        <time>2020-07-16T05:20:57.718Z</time>
      </trkpt>
      <trkpt lat="65.05654" lon="11.92251">
        <ele>86.523824</ele>
        <time>2020-07-16T05:21:14.579Z</time>
      </trkpt>
      <trkpt lat="65.05665" lon="11.92303">
        <ele>84.977665</ele>
        <time>2020-07-16T05:21:17.305Z</time>
      </trkpt>
      <trkpt lat="65.05669" lon="11.92368">
        <ele>83.225867</ele>
        <time>2020-07-16T05:21:20.418Z</time>
      </trkpt>
      <trkpt lat="65.05646" lon="11.92589">
        <ele>77.920174</ele>
        <time>2020-07-16T05:21:31.693Z</time>
      </trkpt>
      <trkpt lat="65.05637" lon="11.92736">
        <ele>76.445415</ele>
        <time>2020-07-16T05:21:39.864Z</time>
      </trkpt>
      <trkpt lat="65.05639" lon="11.93004">
        <ele>73.511786</ele>
        <time>2020-07-16T05:21:58.760Z</time>
      </trkpt>
      <trkpt lat="65.05644" lon="11.93111">
        <ele>71.632655</ele>
        <time>2020-07-16T05:22:05.810Z</time>
      </trkpt>
      <trkpt lat="65.05663" lon="11.93228">
        <ele>69.437588</ele>
        <time>2020-07-16T05:22:13.026Z</time>
      </trkpt>
      <trkpt lat="65.05735" lon="11.93506">
        <ele>59.533438</ele>
        <time>2020-07-16T05:22:28.367Z</time>
      </trkpt>
      <trkpt lat="65.05772" lon="11.93589">
        <ele>54.391155</ele>
        <time>2020-07-16T05:22:33.811Z</time>
      </trkpt>
      <trkpt lat="65.05842" lon="11.93705">
        <ele>47.133187</ele>
        <time>2020-07-16T05:22:43.085Z</time>
      </trkpt>
      <trkpt lat="65.05867" lon="11.93772">
        <ele>45.070038</ele>
        <time>2020-07-16T05:22:47.295Z</time>
      </trkpt>
      <trkpt lat="65.05875" lon="11.93816">
        <ele>43.963122</ele>
        <time>2020-07-16T05:22:49.625Z</time>
      </trkpt>
      <trkpt lat="65.05916" lon="11.94452">
        <ele>34.742746</ele>
        <time>2020-07-16T05:23:27.325Z</time>
      </trkpt>
      <trkpt lat="65.05912" lon="11.94547">
        <ele>33.369412</ele>
        <time>2020-07-16T05:23:32.753Z</time>
      </trkpt>
      <trkpt lat="65.05884" lon="11.94758">
        <ele>30.134635</ele>
        <time>2020-07-16T05:23:44.908Z</time>
      </trkpt>
      <trkpt lat="65.05882" lon="11.94878">
        <ele>28.313213</ele>
        <time>2020-07-16T05:23:51.193Z</time>
      </trkpt>
      <trkpt lat="65.05893" lon="11.94984">
        <ele>25.596253</ele>
        <time>2020-07-16T05:23:56.848Z</time>
      </trkpt>
      <trkpt lat="65.05916" lon="11.95075">
        <ele>22.94408</ele>
        <time>2020-07-16T05:24:02.208Z</time>
      </trkpt>
      <trkpt lat="65.05956" lon="11.95167">
        <ele>19.67825</ele>
        <time>2020-07-16T05:24:08.648Z</time>
      </trkpt>
      <trkpt lat="65.06025" lon="11.95271">
        <ele>14.530753</ele>
        <time>2020-07-16T05:24:17.980Z</time>
      </trkpt>
      <trkpt lat="65.06095" lon="11.95339">
        <ele>9.616509</ele>
        <time>2020-07-16T05:24:26.612Z</time>
      </trkpt>
      <trkpt lat="65.06202" lon="11.95411">
        <ele>4.764889</ele>
        <time>2020-07-16T05:24:40.166Z</time>
      </trkpt>
      <trkpt lat="65.06286" lon="11.95441">
        <ele>2.745372</ele>
        <time>2020-07-16T05:24:52.445Z</time>
      </trkpt>
      <trkpt lat="65.06351" lon="11.95438">
        <ele>2.096492</ele>
        <time>2020-07-16T05:25:03.688Z</time>
      </trkpt>
      <trkpt lat="65.06418" lon="11.9541">
        <ele>2.64616</ele>
        <time>2020-07-16T05:25:17.858Z</time>
      </trkpt>
      <trkpt lat="65.06491" lon="11.95356">
        <ele>3.269044</ele>
        <time>2020-07-16T05:25:34.532Z</time>
      </trkpt>
      <trkpt lat="65.0656" lon="11.95299">
        <ele>4.714149</ele>
        <time>2020-07-16T05:25:51.340Z</time>
      </trkpt>
      <trkpt lat="65.06653" lon="11.95222">
        <ele>6.819334</ele>
        <time>2020-07-16T05:26:16.937Z</time>
      </trkpt>
      <trkpt lat="65.06665" lon="11.95211">
        <ele>7.08944</ele>
        <time>2020-07-16T05:26:19.878Z</time>
      </trkpt>
      <trkpt lat="65.06679" lon="11.95201">
        <ele>7.395255</ele>
        <time>2020-07-16T05:26:24.269Z</time>
      </trkpt>
      <trkpt lat="65.06872" lon="11.95052">
        <ele>11.601444</ele>
        <time>2020-07-16T05:27:13.697Z</time>
      </trkpt>
      <trkpt lat="65.06926" lon="11.95031">
        <ele>12.657637</ele>
        <time>2020-07-16T05:27:25.381Z</time>
      </trkpt>
      <trkpt lat="65.07034" lon="11.95019">
        <ele>15.062755</ele>
        <time>2020-07-16T05:27:51.991Z</time>
      </trkpt>
      <trkpt lat="65.07058" lon="11.95025">
        <ele>15.90041</ele>
        <time>2020-07-16T05:27:58.636Z</time>
      </trkpt>
      <trkpt lat="65.07089" lon="11.9505">
        <ele>17.065113</ele>
        <time>2020-07-16T05:28:08.583Z</time>
      </trkpt>
      <trkpt lat="65.07162" lon="11.95175">
        <ele>20.278183</ele>
        <time>2020-07-16T05:28:38.483Z</time>
      </trkpt>
      <trkpt lat="65.07197" lon="11.95217">
        <ele>20.961682</ele>
        <time>2020-07-16T05:28:48.317Z</time>
      </trkpt>
      <trkpt lat="65.07261" lon="11.95249">
        <ele>21.392831</ele>
        <time>2020-07-16T05:29:03.701Z</time>
      </trkpt>
      <trkpt lat="65.07301" lon="11.95267">
        <ele>21.658752</ele>
        <time>2020-07-16T05:29:10.101Z</time>
      </trkpt>
      <trkpt lat="65.07303" lon="11.95268">
        <ele>21.670845</ele>
        <time>2020-07-16T05:29:10.290Z</time>
      </trkpt>
      <trkpt lat="65.07394" lon="11.95325">
        <ele>22.566629</ele>
        <time>2020-07-16T05:29:25.776Z</time>
      </trkpt>
      <trkpt lat="65.07406" lon="11.95338">
        <ele>22.726576</ele>
        <time>2020-07-16T05:29:27.396Z</time>
      </trkpt>
      <trkpt lat="65.07418" lon="11.95351">
        <ele>22.887878</ele>
        <time>2020-07-16T05:29:29.695Z</time>
      </trkpt>
      <trkpt lat="65.07453" lon="11.95411">
        <ele>23.430447</ele>
        <time>2020-07-16T05:29:38.034Z</time>
      </trkpt>
      <trkpt lat="65.0747" lon="11.9546">
        <ele>23.763805</ele>
        <time>2020-07-16T05:29:44.360Z</time>
      </trkpt>
      <trkpt lat="65.07485" lon="11.95525">
        <ele>24.150346</ele>
        <time>2020-07-16T05:29:53.216Z</time>
      </trkpt>
      <trkpt lat="65.07493" lon="11.95606">
        <ele>26.050108</ele>
        <time>2020-07-16T05:30:07.348Z</time>
      </trkpt>
      <trkpt lat="65.07501" lon="11.95816">
        <ele>31.620074</ele>
        <time>2020-07-16T05:30:44.644Z</time>
      </trkpt>
      <trkpt lat="65.07509" lon="11.95904">
        <ele>34.023371</ele>
        <time>2020-07-16T05:30:59.735Z</time>
      </trkpt>
      <trkpt lat="65.0751" lon="11.95914">
        <ele>34.304272</ele>
        <time>2020-07-16T05:31:03.829Z</time>
      </trkpt>
      <trkpt lat="65.07518" lon="11.95956">
        <ele>35.499303</ele>
        <time>2020-07-16T05:31:09.063Z</time>
      </trkpt>
      <trkpt lat="65.07604" lon="11.96278">
        <ele>40.967256</ele>
        <time>2020-07-16T05:31:54.687Z</time>
      </trkpt>
      <trkpt lat="65.07617" lon="11.96322">
        <ele>41.730598</ele>
        <time>2020-07-16T05:31:58.397Z</time>
      </trkpt>
      <trkpt lat="65.07625" lon="11.9635">
        <ele>42.212859</ele>
        <time>2020-07-16T05:32:02.241Z</time>
      </trkpt>
      <trkpt lat="65.0769" lon="11.96535">
        <ele>45.612436</ele>
        <time>2020-07-16T05:32:28.356Z</time>
      </trkpt>
      <trkpt lat="65.07718" lon="11.96635">
        <ele>47.303242</ele>
        <time>2020-07-16T05:32:45.180Z</time>
      </trkpt>
      <trkpt lat="65.07793" lon="11.97">
        <ele>56.476535</ele>
        <time>2020-07-16T05:33:47.578Z</time>
      </trkpt>
      <trkpt lat="65.07816" lon="11.97109">
        <ele>58.603357</ele>
        <time>2020-07-16T05:34:04.761Z</time>
      </trkpt>
      <trkpt lat="65.07835" lon="11.97207">
        <ele>60.116218</ele>
        <time>2020-07-16T05:34:18.875Z</time>
      </trkpt>
      <trkpt lat="65.07937" lon="11.9771">
        <ele>66.148879</ele>
        <time>2020-07-16T05:35:18.443Z</time>
      </trkpt>
      <trkpt lat="65.07961" lon="11.9783">
        <ele>67.089881</ele>
        <time>2020-07-16T05:35:30.659Z</time>
      </trkpt>
      <trkpt lat="65.07966" lon="11.9785">
        <ele>67.118281</ele>
        <time>2020-07-16T05:35:32.681Z</time>
      </trkpt>
      <trkpt lat="65.07976" lon="11.97904">
        <ele>67.191667</ele>
        <time>2020-07-16T05:35:37.939Z</time>
      </trkpt>
      <trkpt lat="65.08005" lon="11.9804">
        <ele>67.382033</ele>
        <time>2020-07-16T05:35:50.248Z</time>
      </trkpt>
      <trkpt lat="65.08008" lon="11.98053">
        <ele>67.399782</ele>
        <time>2020-07-16T05:35:51.432Z</time>
      </trkpt>
      <trkpt lat="65.08011" lon="11.98065">
        <ele>67.417273</ele>
        <time>2020-07-16T05:35:52.659Z</time>
      </trkpt>
      <trkpt lat="65.08034" lon="11.98188">
        <ele>67.585153</ele>
        <time>2020-07-16T05:36:02.242Z</time>
      </trkpt>
      <trkpt lat="65.08041" lon="11.98219">
        <ele>67.427888</ele>
        <time>2020-07-16T05:36:04.939Z</time>
      </trkpt>
      <trkpt lat="65.08044" lon="11.98233">
        <ele>67.33849</ele>
        <time>2020-07-16T05:36:05.864Z</time>
      </trkpt>
      <trkpt lat="65.08116" lon="11.9859">
        <ele>64.937914</ele>
        <time>2020-07-16T05:36:30.470Z</time>
      </trkpt>
      <trkpt lat="65.0813" lon="11.98661">
        <ele>64.141491</ele>
        <time>2020-07-16T05:36:34.979Z</time>
      </trkpt>
      <trkpt lat="65.0814" lon="11.98713">
        <ele>63.56529</ele>
        <time>2020-07-16T05:36:38.189Z</time>
      </trkpt>
      <trkpt lat="65.0815" lon="11.98759">
        <ele>63.045342</ele>
        <time>2020-07-16T05:36:41.140Z</time>
      </trkpt>
      <trkpt lat="65.08154" lon="11.98776">
        <ele>62.846538</ele>
        <time>2020-07-16T05:36:42.216Z</time>
      </trkpt>
      <trkpt lat="65.08168" lon="11.98841">
        <ele>62.108192</ele>
        <time>2020-07-16T05:36:46.261Z</time>
      </trkpt>
      <trkpt lat="65.08218" lon="11.99091">
        <ele>60.445259</ele>
        <time>2020-07-16T05:37:02.624Z</time>
      </trkpt>
      <trkpt lat="65.08239" lon="11.99201">
        <ele>60.182264</ele>
        <time>2020-07-16T05:37:11.009Z</time>
      </trkpt>
      <trkpt lat="65.08254" lon="11.99277">
        <ele>59.9996</ele>
        <time>2020-07-16T05:37:17.867Z</time>
      </trkpt>
      <trkpt lat="65.08344" lon="11.99708">
        <ele>61.587236</ele>
        <time>2020-07-16T05:38:02.129Z</time>
      </trkpt>
      <trkpt lat="65.0836" lon="11.99789">
        <ele>61.598153</ele>
        <time>2020-07-16T05:38:09.177Z</time>
      </trkpt>
      <trkpt lat="65.08382" lon="11.99895">
        <ele>61.414186</ele>
        <time>2020-07-16T05:38:17.928Z</time>
      </trkpt>
      <trkpt lat="65.08402" lon="11.99993">
        <ele>61.244492</ele>
        <time>2020-07-16T05:38:25.616Z</time>
      </trkpt>
      <trkpt lat="65.08411" lon="12.00037">
        <ele>61.168214</ele>
        <time>2020-07-16T05:38:28.851Z</time>
      </trkpt>
      <trkpt lat="65.08468" lon="12.00322">
        <ele>59.159608</ele>
        <time>2020-07-16T05:38:48.756Z</time>
      </trkpt>
      <trkpt lat="65.08675" lon="12.01339">
        <ele>47.070437</ele>
        <time>2020-07-16T05:39:52.784Z</time>
      </trkpt>
      <trkpt lat="65.08683" lon="12.01379">
        <ele>46.679989</ele>
        <time>2020-07-16T05:39:55.176Z</time>
      </trkpt>
      <trkpt lat="65.08701" lon="12.01464">
        <ele>45.833224</ele>
        <time>2020-07-16T05:40:00.764Z</time>
      </trkpt>
      <trkpt lat="65.08703" lon="12.01478">
        <ele>45.697002</ele>
        <time>2020-07-16T05:40:01.735Z</time>
      </trkpt>
      <trkpt lat="65.08704" lon="12.01487">
        <ele>45.611693</ele>
        <time>2020-07-16T05:40:02.420Z</time>
      </trkpt>
      <trkpt lat="65.08713" lon="12.01552">
        <ele>45.00429</ele>
        <time>2020-07-16T05:40:06.398Z</time>
      </trkpt>
      <trkpt lat="65.08715" lon="12.01569">
        <ele>44.851493</ele>
        <time>2020-07-16T05:40:07.605Z</time>
      </trkpt>
      <trkpt lat="65.08717" lon="12.01583">
        <ele>44.721829</ele>
        <time>2020-07-16T05:40:08.460Z</time>
      </trkpt>
      <trkpt lat="65.08725" lon="12.01681">
        <ele>43.851302</ele>
        <time>2020-07-16T05:40:14.530Z</time>
      </trkpt>
      <trkpt lat="65.08727" lon="12.01709">
        <ele>43.629381</ele>
        <time>2020-07-16T05:40:16.267Z</time>
      </trkpt>
      <trkpt lat="65.08728" lon="12.01734">
        <ele>43.440861</ele>
        <time>2020-07-16T05:40:18.068Z</time>
      </trkpt>
      <trkpt lat="65.08727" lon="12.01919">
        <ele>42.019658</ele>
        <time>2020-07-16T05:40:30.147Z</time>
      </trkpt>
      <trkpt lat="65.08712" lon="12.02102">
        <ele>40.542205</ele>
        <time>2020-07-16T05:40:40.831Z</time>
      </trkpt>
      <trkpt lat="65.08707" lon="12.02136">
        <ele>40.128612</ele>
        <time>2020-07-16T05:40:42.707Z</time>
      </trkpt>
      <trkpt lat="65.087" lon="12.02184">
        <ele>39.521438</ele>
        <time>2020-07-16T05:40:45.636Z</time>
      </trkpt>
      <trkpt lat="65.08689" lon="12.02252">
        <ele>38.679843</ele>
        <time>2020-07-16T05:40:49.697Z</time>
      </trkpt>
      <trkpt lat="65.08678" lon="12.02331">
        <ele>37.695809</ele>
        <time>2020-07-16T05:40:54.465Z</time>
      </trkpt>
      <trkpt lat="65.08665" lon="12.02408">
        <ele>36.727223</ele>
        <time>2020-07-16T05:40:59.180Z</time>
      </trkpt>
      <trkpt lat="65.08655" lon="12.02472">
        <ele>35.945638</ele>
        <time>2020-07-16T05:41:02.932Z</time>
      </trkpt>
      <trkpt lat="65.08642" lon="12.02557">
        <ele>34.669839</ele>
        <time>2020-07-16T05:41:08.360Z</time>
      </trkpt>
      <trkpt lat="65.08591" lon="12.02889">
        <ele>29.474396</ele>
        <time>2020-07-16T05:41:27.606Z</time>
      </trkpt>
      <trkpt lat="65.08582" lon="12.02948">
        <ele>27.851337</ele>
        <time>2020-07-16T05:41:30.829Z</time>
      </trkpt>
      <trkpt lat="65.08576" lon="12.02987">
        <ele>26.731417</ele>
        <time>2020-07-16T05:41:32.835Z</time>
      </trkpt>
      <trkpt lat="65.08551" lon="12.03099">
        <ele>23.3269</ele>
        <time>2020-07-16T05:41:39.119Z</time>
      </trkpt>
      <trkpt lat="65.08529" lon="12.0316">
        <ele>21.174174</ele>
        <time>2020-07-16T05:41:42.961Z</time>
      </trkpt>
      <trkpt lat="65.0849" lon="12.03241">
        <ele>17.88688</ele>
        <time>2020-07-16T05:41:48.765Z</time>
      </trkpt>
      <trkpt lat="65.08449" lon="12.033">
        <ele>15.498416</ele>
        <time>2020-07-16T05:41:54.337Z</time>
      </trkpt>
      <trkpt lat="65.08374" lon="12.03363">
        <ele>11.482901</ele>
        <time>2020-07-16T05:42:03.964Z</time>
      </trkpt>
      <trkpt lat="65.08069" lon="12.03496">
        <ele>2.830805</ele>
        <time>2020-07-16T05:42:45.678Z</time>
      </trkpt>
      <trkpt lat="65.08029" lon="12.0352">
        <ele>2.254706</ele>
        <time>2020-07-16T05:42:52.004Z</time>
      </trkpt>
      <trkpt lat="65.07974" lon="12.03591">
        <ele>1.467141</ele>
        <time>2020-07-16T05:43:02.697Z</time>
      </trkpt>
      <trkpt lat="65.07936" lon="12.0367">
        <ele>2.313285</ele>
        <time>2020-07-16T05:43:12.381Z</time>
      </trkpt>
      <trkpt lat="65.079" lon="12.03768">
        <ele>3.248496</ele>
        <time>2020-07-16T05:43:24.417Z</time>
      </trkpt>
      <trkpt lat="65.07869" lon="12.03819">
        <ele>3.885644</ele>
        <time>2020-07-16T05:43:34.283Z</time>
      </trkpt>
      <trkpt lat="65.07834" lon="12.03855">
        <ele>4.592833</ele>
        <time>2020-07-16T05:43:45.120Z</time>
      </trkpt>
      <trkpt lat="65.07774" lon="12.03877">
        <ele>6.748135</ele>
        <time>2020-07-16T05:44:03.938Z</time>
      </trkpt>
      <trkpt lat="65.07751" lon="12.0388">
        <ele>7.56449</ele>
        <time>2020-07-16T05:44:11.575Z</time>
      </trkpt>
      <trkpt lat="65.07701" lon="12.03887">
        <ele>9.296421</ele>
        <time>2020-07-16T05:44:25.841Z</time>
      </trkpt>
      <trkpt lat="65.07655" lon="12.03897">
        <ele>10.800611</ele>
        <time>2020-07-16T05:44:38.629Z</time>
      </trkpt>
      <trkpt lat="65.07641" lon="12.03906">
        <ele>10.89077</ele>
        <time>2020-07-16T05:44:43.245Z</time>
      </trkpt>
      <trkpt lat="65.07633" lon="12.03912">
        <ele>10.940686</ele>
        <time>2020-07-16T05:44:44.903Z</time>
      </trkpt>
      <trkpt lat="65.07615" lon="12.03938">
        <ele>11.073204</ele>
        <time>2020-07-16T05:44:50.615Z</time>
      </trkpt>
      <trkpt lat="65.07598" lon="12.03981">
        <ele>11.226762</ele>
        <time>2020-07-16T05:44:56.022Z</time>
      </trkpt>
      <trkpt lat="65.07579" lon="12.04078">
        <ele>11.502404</ele>
        <time>2020-07-16T05:45:04.719Z</time>
      </trkpt>
      <trkpt lat="65.07553" lon="12.04311">
        <ele>11.355181</ele>
        <time>2020-07-16T05:45:19.727Z</time>
      </trkpt>
      <trkpt lat="65.07555" lon="12.04477">
        <ele>10.440873</ele>
        <time>2020-07-16T05:45:29.773Z</time>
      </trkpt>
      <trkpt lat="65.07563" lon="12.04679">
        <ele>9.621563</ele>
        <time>2020-07-16T05:45:43.036Z</time>
      </trkpt>
      <trkpt lat="65.07565" lon="12.04718">
        <ele>9.717889</ele>
        <time>2020-07-16T05:45:45.994Z</time>
      </trkpt>
      <trkpt lat="65.07566" lon="12.0474">
        <ele>9.771669</ele>
        <time>2020-07-16T05:45:47.542Z</time>
      </trkpt>
      <trkpt lat="65.07566" lon="12.04751">
        <ele>9.79697</ele>
        <time>2020-07-16T05:45:48.233Z</time>
      </trkpt>
      <trkpt lat="65.07566" lon="12.04765">
        <ele>9.833243</ele>
        <time>2020-07-16T05:45:49.328Z</time>
      </trkpt>
      <trkpt lat="65.07564" lon="12.04789">
        <ele>9.891051</ele>
        <time>2020-07-16T05:45:51.268Z</time>
      </trkpt>
      <trkpt lat="65.07562" lon="12.04797">
        <ele>9.916012</ele>
        <time>2020-07-16T05:45:52.049Z</time>
      </trkpt>
      <trkpt lat="65.07557" lon="12.04804">
        <ele>9.946334</ele>
        <time>2020-07-16T05:45:53.136Z</time>
      </trkpt>
      <trkpt lat="65.07542" lon="12.04819">
        <ele>10.04118</ele>
        <time>2020-07-16T05:45:55.985Z</time>
      </trkpt>
      <trkpt lat="65.07539" lon="12.04823">
        <ele>10.062098</ele>
        <time>2020-07-16T05:45:56.890Z</time>
      </trkpt>
      <trkpt lat="65.07542" lon="12.04832">
        <ele>10.086441</ele>
        <time>2020-07-16T05:45:57.674Z</time>
      </trkpt>
      <trkpt lat="65.07544" lon="12.04843">
        <ele>10.118776</ele>
        <time>2020-07-16T05:45:58.750Z</time>
      </trkpt>
      <trkpt lat="65.07549" lon="12.04861">
        <ele>10.171204</ele>
        <time>2020-07-16T05:46:00.609Z</time>
      </trkpt>
      <trkpt lat="65.07563" lon="12.04937">
        <ele>10.374272</ele>
        <time>2020-07-16T05:46:08.114Z</time>
      </trkpt>
      <trkpt lat="65.07566" lon="12.04954">
        <ele>10.417279</ele>
        <time>2020-07-16T05:46:09.589Z</time>
      </trkpt>
      <trkpt lat="65.07572" lon="12.05003">
        <ele>10.545563</ele>
        <time>2020-07-16T05:46:14.915Z</time>
      </trkpt>
      <trkpt lat="65.07584" lon="12.05212">
        <ele>12.769999</ele>
        <time>2020-07-16T05:46:37.282Z</time>
      </trkpt>
      <trkpt lat="65.07593" lon="12.05883">
        <ele>20.69827</ele>
        <time>2020-07-16T05:47:55.911Z</time>
      </trkpt>
      <trkpt lat="65.07621" lon="12.06168">
        <ele>22.186907</ele>
        <time>2020-07-16T05:48:24.740Z</time>
      </trkpt>
      <trkpt lat="65.07647" lon="12.06307">
        <ele>22.566693</ele>
        <time>2020-07-16T05:48:35.246Z</time>
      </trkpt>
      <trkpt lat="65.07663" lon="12.06358">
        <ele>22.169081</ele>
        <time>2020-07-16T05:48:39.811Z</time>
      </trkpt>
      <trkpt lat="65.07665" lon="12.06366">
        <ele>22.105388</ele>
        <time>2020-07-16T05:48:40.301Z</time>
      </trkpt>
      <trkpt lat="65.07698" lon="12.06476">
        <ele>21.23822</ele>
        <time>2020-07-16T05:48:49.053Z</time>
      </trkpt>
      <trkpt lat="65.07704" lon="12.06505">
        <ele>21.034581</ele>
        <time>2020-07-16T05:48:50.786Z</time>
      </trkpt>
      <trkpt lat="65.0771" lon="12.06539">
        <ele>20.794654</ele>
        <time>2020-07-16T05:48:53.125Z</time>
      </trkpt>
      <trkpt lat="65.07712" lon="12.06549">
        <ele>20.727874</ele>
        <time>2020-07-16T05:48:53.783Z</time>
      </trkpt>
      <trkpt lat="65.07718" lon="12.06582">
        <ele>20.502156</ele>
        <time>2020-07-16T05:48:55.754Z</time>
      </trkpt>
      <trkpt lat="65.07727" lon="12.06641">
        <ele>20.095959</ele>
        <time>2020-07-16T05:48:59.580Z</time>
      </trkpt>
      <trkpt lat="65.07732" lon="12.06669">
        <ele>19.964901</ele>
        <time>2020-07-16T05:49:01.182Z</time>
      </trkpt>
      <trkpt lat="65.07745" lon="12.06752">
        <ele>19.627906</ele>
        <time>2020-07-16T05:49:06.387Z</time>
      </trkpt>
      <trkpt lat="65.07759" lon="12.0684">
        <ele>19.270451</ele>
        <time>2020-07-16T05:49:12.072Z</time>
      </trkpt>
      <trkpt lat="65.07765" lon="12.06876">
        <ele>19.120889</ele>
        <time>2020-07-16T05:49:14.563Z</time>
      </trkpt>
      <trkpt lat="65.07773" lon="12.06932">
        <ele>18.894388</ele>
        <time>2020-07-16T05:49:19.319Z</time>
      </trkpt>
      <trkpt lat="65.07778" lon="12.06966">
        <ele>18.758071</ele>
        <time>2020-07-16T05:49:21.697Z</time>
      </trkpt>
      <trkpt lat="65.0778" lon="12.06982">
        <ele>18.693537</ele>
        <time>2020-07-16T05:49:22.983Z</time>
      </trkpt>
      <trkpt lat="65.07786" lon="12.07033">
        <ele>18.493595</ele>
        <time>2020-07-16T05:49:27.224Z</time>
      </trkpt>
      <trkpt lat="65.07787" lon="12.0705">
        <ele>18.431305</ele>
        <time>2020-07-16T05:49:28.404Z</time>
      </trkpt>
      <trkpt lat="65.07788" lon="12.07068">
        <ele>18.599896</ele>
        <time>2020-07-16T05:49:30.118Z</time>
      </trkpt>
      <trkpt lat="65.0779" lon="12.0712">
        <ele>19.074073</ele>
        <time>2020-07-16T05:49:35.193Z</time>
      </trkpt>
      <trkpt lat="65.0779" lon="12.07159">
        <ele>19.424711</ele>
        <time>2020-07-16T05:49:39.060Z</time>
      </trkpt>
      <trkpt lat="65.07789" lon="12.07176">
        <ele>19.581569</ele>
        <time>2020-07-16T05:49:41.134Z</time>
      </trkpt>
      <trkpt lat="65.07786" lon="12.0722">
        <ele>19.981487</ele>
        <time>2020-07-16T05:49:45.497Z</time>
      </trkpt>
      <trkpt lat="65.07785" lon="12.07234">
        <ele>20.107129</ele>
        <time>2020-07-16T05:49:46.953Z</time>
      </trkpt>
      <trkpt lat="65.07783" lon="12.07252">
        <ele>20.280463</ele>
        <time>2020-07-16T05:49:48.901Z</time>
      </trkpt>
      <trkpt lat="65.07782" lon="12.07262">
        <ele>20.370701</ele>
        <time>2020-07-16T05:49:50.479Z</time>
      </trkpt>
      <trkpt lat="65.07762" lon="12.07376">
        <ele>21.484063</ele>
        <time>2020-07-16T05:50:04.128Z</time>
      </trkpt>
      <trkpt lat="65.07748" lon="12.07437">
        <ele>22.115717</ele>
        <time>2020-07-16T05:50:12.268Z</time>
      </trkpt>
      <trkpt lat="65.07745" lon="12.07451">
        <ele>22.262518</ele>
        <time>2020-07-16T05:50:14.278Z</time>
      </trkpt>
      <trkpt lat="65.07683" lon="12.07718">
        <ele>24.832339</ele>
        <time>2020-07-16T05:50:47.249Z</time>
      </trkpt>
      <trkpt lat="65.07657" lon="12.07874">
        <ele>26.115498</ele>
        <time>2020-07-16T05:51:02.082Z</time>
      </trkpt>
      <trkpt lat="65.07635" lon="12.08128">
        <ele>27.464142</ele>
        <time>2020-07-16T05:51:23.285Z</time>
      </trkpt>
      <trkpt lat="65.07593" lon="12.08479">
        <ele>33.082879</ele>
        <time>2020-07-16T05:52:02.976Z</time>
      </trkpt>
      <trkpt lat="65.07587" lon="12.0857">
        <ele>35.000461</ele>
        <time>2020-07-16T05:52:17.747Z</time>
      </trkpt>
      <trkpt lat="65.0759" lon="12.08636">
        <ele>36.367741</ele>
        <time>2020-07-16T05:52:29.507Z</time>
      </trkpt>
      <trkpt lat="65.07604" lon="12.08731">
        <ele>40.66762</ele>
        <time>2020-07-16T05:52:49.370Z</time>
      </trkpt>
      <trkpt lat="65.0767" lon="12.08992">
        <ele>56.344618</ele>
        <time>2020-07-16T05:54:05.607Z</time>
      </trkpt>
      <trkpt lat="65.07713" lon="12.09142">
        <ele>65.456912</ele>
        <time>2020-07-16T05:54:55.563Z</time>
      </trkpt>
      <trkpt lat="65.07732" lon="12.09185">
        <ele>68.50807</ele>
        <time>2020-07-16T05:55:11.533Z</time>
      </trkpt>
      <trkpt lat="65.07769" lon="12.09236">
        <ele>73.627458</ele>
        <time>2020-07-16T05:55:36.856Z</time>
      </trkpt>
      <trkpt lat="65.07807" lon="12.09256">
        <ele>78.138481</ele>
        <time>2020-07-16T05:55:56.123Z</time>
      </trkpt>
      <trkpt lat="65.07841" lon="12.09255">
        <ele>80.560534</ele>
        <time>2020-07-16T05:56:10.564Z</time>
      </trkpt>
      <trkpt lat="65.07899" lon="12.09219">
        <ele>82.030022</ele>
        <time>2020-07-16T05:56:29.893Z</time>
      </trkpt>
      <trkpt lat="65.08036" lon="12.09099">
        <ele>85.170049</ele>
        <time>2020-07-16T05:56:53.735Z</time>
      </trkpt>
      <trkpt lat="65.08135" lon="12.08933">
        <ele>86.947829</ele>
        <time>2020-07-16T05:57:17.338Z</time>
      </trkpt>
      <trkpt lat="65.08163" lon="12.08898">
        <ele>88.577918</ele>
        <time>2020-07-16T05:57:28.412Z</time>
      </trkpt>
      <trkpt lat="65.08218" lon="12.08871">
        <ele>93.252743</ele>
        <time>2020-07-16T05:57:57.485Z</time>
      </trkpt>
      <trkpt lat="65.083" lon="12.08882">
        <ele>100.217261</ele>
        <time>2020-07-16T05:58:39.087Z</time>
      </trkpt>
      <trkpt lat="65.08333" lon="12.08885">
        <ele>102.539464</ele>
        <time>2020-07-16T05:58:52.521Z</time>
      </trkpt>
      <trkpt lat="65.08336" lon="12.08886">
        <ele>102.660408</ele>
        <time>2020-07-16T05:58:55.556Z</time>
      </trkpt>
      <trkpt lat="65.0837" lon="12.08879">
        <ele>103.695067</ele>
        <time>2020-07-16T05:59:07.943Z</time>
      </trkpt>
      <trkpt lat="65.08379" lon="12.08874">
        <ele>103.994554</ele>
        <time>2020-07-16T05:59:13.719Z</time>
      </trkpt>
      <trkpt lat="65.08387" lon="12.08869">
        <ele>104.258787</ele>
        <time>2020-07-16T05:59:14.745Z</time>
      </trkpt>
      <trkpt lat="65.08423" lon="12.08831">
        <ele>105.458952</ele>
        <time>2020-07-16T05:59:27.157Z</time>
      </trkpt>
      <trkpt lat="65.08493" lon="12.08729">
        <ele>107.765269</ele>
        <time>2020-07-16T05:59:42.021Z</time>
      </trkpt>
      <trkpt lat="65.08632" lon="12.08616">
        <ele>104.067988</ele>
        <time>2020-07-16T06:00:01.127Z</time>
      </trkpt>
      <trkpt lat="65.0866" lon="12.08565">
        <ele>103.418733</ele>
        <time>2020-07-16T06:00:05.976Z</time>
      </trkpt>
      <trkpt lat="65.08703" lon="12.08443">
        <ele>104.042031</ele>
        <time>2020-07-16T06:00:16.073Z</time>
      </trkpt>
      <trkpt lat="65.08728" lon="12.0839">
        <ele>104.352254</ele>
        <time>2020-07-16T06:00:22.256Z</time>
      </trkpt>
      <trkpt lat="65.08769" lon="12.08338">
        <ele>104.779094</ele>
        <time>2020-07-16T06:00:33.438Z</time>
      </trkpt>
      <trkpt lat="65.08812" lon="12.08311">
        <ele>107.190952</ele>
        <time>2020-07-16T06:00:47.636Z</time>
      </trkpt>
      <trkpt lat="65.08862" lon="12.08305">
        <ele>113.271732</ele>
        <time>2020-07-16T06:01:09.214Z</time>
      </trkpt>
      <trkpt lat="65.08917" lon="12.08331">
        <ele>120.085365</ele>
        <time>2020-07-16T06:01:41.762Z</time>
      </trkpt>
      <trkpt lat="65.08969" lon="12.08381">
        <ele>126.831446</ele>
        <time>2020-07-16T06:02:22.404Z</time>
      </trkpt>
      <trkpt lat="65.09108" lon="12.08556">
        <ele>160.242663</ele>
        <time>2020-07-16T06:04:44.866Z</time>
      </trkpt>
      <trkpt lat="65.09243" lon="12.08646">
        <ele>181.795939</ele>
        <time>2020-07-16T06:06:37.154Z</time>
      </trkpt>
      <trkpt lat="65.09263" lon="12.08654">
        <ele>184.707705</ele>
        <time>2020-07-16T06:06:50.014Z</time>
      </trkpt>
      <trkpt lat="65.09277" lon="12.08658">
        <ele>186.708189</ele>
        <time>2020-07-16T06:06:55.544Z</time>
      </trkpt>
      <trkpt lat="65.0948" lon="12.08698">
        <ele>190.111772</ele>
        <time>2020-07-16T06:07:31.648Z</time>
      </trkpt>
      <trkpt lat="65.09544" lon="12.08709">
        <ele>186.469006</ele>
        <time>2020-07-16T06:07:38.868Z</time>
      </trkpt>
      <trkpt lat="65.09649" lon="12.0873">
        <ele>180.123723</ele>
        <time>2020-07-16T06:07:50.970Z</time>
      </trkpt>
      <trkpt lat="65.09712" lon="12.08751">
        <ele>177.718005</ele>
        <time>2020-07-16T06:07:58.628Z</time>
      </trkpt>
      <trkpt lat="65.09747" lon="12.08783">
        <ele>176.513897</ele>
        <time>2020-07-16T06:08:03.711Z</time>
      </trkpt>
      <trkpt lat="65.09787" lon="12.08848">
        <ele>174.984643</ele>
        <time>2020-07-16T06:08:10.549Z</time>
      </trkpt>
      <trkpt lat="65.09846" lon="12.08987">
        <ele>172.313362</ele>
        <time>2020-07-16T06:08:22.623Z</time>
      </trkpt>
      <trkpt lat="65.0986" lon="12.09016">
        <ele>171.692736</ele>
        <time>2020-07-16T06:08:26.058Z</time>
      </trkpt>
      <trkpt lat="65.09872" lon="12.09037">
        <ele>171.208902</ele>
        <time>2020-07-16T06:08:27.949Z</time>
      </trkpt>
      <trkpt lat="65.09978" lon="12.09186">
        <ele>166.747803</ele>
        <time>2020-07-16T06:08:43.514Z</time>
      </trkpt>
      <trkpt lat="65.10022" lon="12.09224">
        <ele>163.858478</ele>
        <time>2020-07-16T06:08:48.917Z</time>
      </trkpt>
      <trkpt lat="65.10055" lon="12.0924">
        <ele>161.828433</ele>
        <time>2020-07-16T06:08:52.711Z</time>
      </trkpt>
      <trkpt lat="65.10071" lon="12.09244">
        <ele>160.826946</ele>
        <time>2020-07-16T06:08:54.597Z</time>
      </trkpt>
      <trkpt lat="65.10088" lon="12.09247">
        <ele>159.791225</ele>
        <time>2020-07-16T06:08:56.507Z</time>
      </trkpt>
      <trkpt lat="65.10326" lon="12.09271">
        <ele>144.914395</ele>
        <time>2020-07-16T06:09:24.971Z</time>
      </trkpt>
      <trkpt lat="65.10385" lon="12.09266">
        <ele>138.999093</ele>
        <time>2020-07-16T06:09:31.330Z</time>
      </trkpt>
      <trkpt lat="65.10403" lon="12.09258">
        <ele>137.217694</ele>
        <time>2020-07-16T06:09:33.395Z</time>
      </trkpt>
      <trkpt lat="65.10414" lon="12.09252">
        <ele>136.057892</ele>
        <time>2020-07-16T06:09:34.592Z</time>
      </trkpt>
      <trkpt lat="65.10458" lon="12.09202">
        <ele>131.181959</ele>
        <time>2020-07-16T06:09:39.865Z</time>
      </trkpt>
      <trkpt lat="65.10471" lon="12.09179">
        <ele>129.603344</ele>
        <time>2020-07-16T06:09:41.607Z</time>
      </trkpt>
      <trkpt lat="65.10482" lon="12.09155">
        <ele>128.06695</ele>
        <time>2020-07-16T06:09:43.208Z</time>
      </trkpt>
      <trkpt lat="65.10525" lon="12.09062">
        <ele>125.187859</ele>
        <time>2020-07-16T06:09:49.613Z</time>
      </trkpt>
      <trkpt lat="65.10556" lon="12.0902">
        <ele>123.520339</ele>
        <time>2020-07-16T06:09:53.610Z</time>
      </trkpt>
      <trkpt lat="65.10602" lon="12.09008">
        <ele>121.406205</ele>
        <time>2020-07-16T06:09:58.974Z</time>
      </trkpt>
      <trkpt lat="65.10633" lon="12.09033">
        <ele>119.862838</ele>
        <time>2020-07-16T06:10:07.224Z</time>
      </trkpt>
      <trkpt lat="65.10659" lon="12.09086">
        <ele>121.926866</ele>
        <time>2020-07-16T06:10:20.031Z</time>
      </trkpt>
      <trkpt lat="65.10676" lon="12.09144">
        <ele>125.147673</ele>
        <time>2020-07-16T06:10:33.569Z</time>
      </trkpt>
      <trkpt lat="65.10721" lon="12.09376">
        <ele>136.698615</ele>
        <time>2020-07-16T06:11:39.315Z</time>
      </trkpt>
      <trkpt lat="65.1074" lon="12.09503">
        <ele>142.880215</ele>
        <time>2020-07-16T06:12:14.061Z</time>
      </trkpt>
      <trkpt lat="65.10744" lon="12.09546">
        <ele>144.89712</ele>
        <time>2020-07-16T06:12:24.927Z</time>
      </trkpt>
      <trkpt lat="65.10746" lon="12.09563">
        <ele>145.748972</ele>
        <time>2020-07-16T06:12:30.118Z</time>
      </trkpt>
      <trkpt lat="65.10769" lon="12.09799">
        <ele>156.986185</ele>
        <time>2020-07-16T06:13:22.505Z</time>
      </trkpt>
      <trkpt lat="65.10787" lon="12.09887">
        <ele>159.529035</ele>
        <time>2020-07-16T06:13:41.313Z</time>
      </trkpt>
      <trkpt lat="65.10802" lon="12.09936">
        <ele>160.457808</ele>
        <time>2020-07-16T06:13:49.214Z</time>
      </trkpt>
      <trkpt lat="65.10835" lon="12.10009">
        <ele>162.06949</ele>
        <time>2020-07-16T06:14:03.065Z</time>
      </trkpt>
      <trkpt lat="65.10953" lon="12.10227">
        <ele>159.932256</ele>
        <time>2020-07-16T06:14:33.474Z</time>
      </trkpt>
      <trkpt lat="65.11043" lon="12.10367">
        <ele>151.780216</ele>
        <time>2020-07-16T06:14:45.191Z</time>
      </trkpt>
      <trkpt lat="65.11172" lon="12.10532">
        <ele>120.577523</ele>
        <time>2020-07-16T06:15:00.047Z</time>
      </trkpt>
      <trkpt lat="65.11181" lon="12.10545">
        <ele>118.204593</ele>
        <time>2020-07-16T06:15:01.179Z</time>
      </trkpt>
      <trkpt lat="65.11221" lon="12.10606">
        <ele>108.182071</ele>
        <time>2020-07-16T06:15:05.964Z</time>
      </trkpt>
      <trkpt lat="65.11296" lon="12.10752">
        <ele>88.273566</ele>
        <time>2020-07-16T06:15:15.786Z</time>
      </trkpt>
      <trkpt lat="65.11413" lon="12.11009">
        <ele>63.820022</ele>
        <time>2020-07-16T06:15:32.365Z</time>
      </trkpt>
      <trkpt lat="65.11455" lon="12.11123">
        <ele>56.080303</ele>
        <time>2020-07-16T06:15:39.390Z</time>
      </trkpt>
      <trkpt lat="65.11515" lon="12.11304">
        <ele>52.352219</ele>
        <time>2020-07-16T06:15:50.873Z</time>
      </trkpt>
      <trkpt lat="65.11552" lon="12.1144">
        <ele>51.123573</ele>
        <time>2020-07-16T06:16:01.609Z</time>
      </trkpt>
      <trkpt lat="65.11607" lon="12.11771">
        <ele>58.28855</ele>
        <time>2020-07-16T06:16:54.270Z</time>
      </trkpt>
      <trkpt lat="65.11622" lon="12.11838">
        <ele>60.442064</ele>
        <time>2020-07-16T06:17:08.506Z</time>
      </trkpt>
      <trkpt lat="65.11629" lon="12.11871">
        <ele>61.486263</ele>
        <time>2020-07-16T06:17:15.920Z</time>
      </trkpt>
      <trkpt lat="65.11646" lon="12.11969">
        <ele>66.09322</ele>
        <time>2020-07-16T06:17:38.067Z</time>
      </trkpt>
      <trkpt lat="65.11655" lon="12.12065">
        <ele>71.337103</ele>
        <time>2020-07-16T06:18:03.759Z</time>
      </trkpt>
      <trkpt lat="65.1166" lon="12.12184">
        <ele>77.658953</ele>
        <time>2020-07-16T06:18:35.763Z</time>
      </trkpt>
      <trkpt lat="65.11658" lon="12.1228">
        <ele>82.799043</ele>
        <time>2020-07-16T06:18:59.969Z</time>
      </trkpt>
      <trkpt lat="65.11655" lon="12.12329">
        <ele>85.392794</ele>
        <time>2020-07-16T06:19:13.314Z</time>
      </trkpt>
      <trkpt lat="65.11647" lon="12.12421">
        <ele>88.519828</ele>
        <time>2020-07-16T06:19:36.013Z</time>
      </trkpt>
      <trkpt lat="65.11644" lon="12.12548">
        <ele>92.709865</ele>
        <time>2020-07-16T06:20:03.305Z</time>
      </trkpt>
      <trkpt lat="65.1165" lon="12.12695">
        <ele>97.610865</ele>
        <time>2020-07-16T06:20:29.730Z</time>
      </trkpt>
      <trkpt lat="65.11665" lon="12.12815">
        <ele>97.256401</ele>
        <time>2020-07-16T06:20:39.020Z</time>
      </trkpt>
      <trkpt lat="65.11692" lon="12.12944">
        <ele>92.468817</ele>
        <time>2020-07-16T06:20:46.151Z</time>
      </trkpt>
      <trkpt lat="65.11727" lon="12.13058">
        <ele>87.752794</ele>
        <time>2020-07-16T06:20:52.602Z</time>
      </trkpt>
      <trkpt lat="65.1176" lon="12.13136">
        <ele>82.770848</ele>
        <time>2020-07-16T06:20:57.493Z</time>
      </trkpt>
      <trkpt lat="65.11796" lon="12.13201">
        <ele>75.663107</ele>
        <time>2020-07-16T06:21:02.100Z</time>
      </trkpt>
      <trkpt lat="65.11835" lon="12.13254">
        <ele>68.535519</ele>
        <time>2020-07-16T06:21:06.749Z</time>
      </trkpt>
      <trkpt lat="65.11882" lon="12.13296">
        <ele>60.666451</ele>
        <time>2020-07-16T06:21:11.911Z</time>
      </trkpt>
      <trkpt lat="65.11889" lon="12.13301">
        <ele>59.47057</ele>
        <time>2020-07-16T06:21:12.679Z</time>
      </trkpt>
      <trkpt lat="65.11938" lon="12.13345">
        <ele>53.248215</ele>
        <time>2020-07-16T06:21:18.203Z</time>
      </trkpt>
      <trkpt lat="65.11978" lon="12.13399">
        <ele>48.551219</ele>
        <time>2020-07-16T06:21:23.190Z</time>
      </trkpt>
      <trkpt lat="65.12014" lon="12.13468">
        <ele>43.915953</ele>
        <time>2020-07-16T06:21:28.169Z</time>
      </trkpt>
      <trkpt lat="65.12046" lon="12.13552">
        <ele>39.044671</ele>
        <time>2020-07-16T06:21:34.010Z</time>
      </trkpt>
      <trkpt lat="65.12166" lon="12.13996">
        <ele>23.684865</ele>
        <time>2020-07-16T06:21:59.511Z</time>
      </trkpt>
      <trkpt lat="65.12195" lon="12.14141">
        <ele>19.118071</ele>
        <time>2020-07-16T06:22:07.106Z</time>
      </trkpt>
      <trkpt lat="65.12205" lon="12.14238">
        <ele>16.267042</ele>
        <time>2020-07-16T06:22:11.979Z</time>
      </trkpt>
      <trkpt lat="65.12207" lon="12.14349">
        <ele>13.767897</ele>
        <time>2020-07-16T06:22:17.577Z</time>
      </trkpt>
      <trkpt lat="65.12201" lon="12.14453">
        <ele>12.904189</ele>
        <time>2020-07-16T06:22:23.126Z</time>
      </trkpt>
      <trkpt lat="65.12162" lon="12.14817">
        <ele>10.895118</ele>
        <time>2020-07-16T06:22:49.023Z</time>
      </trkpt>
      <trkpt lat="65.12164" lon="12.14899">
        <ele>11.253314</ele>
        <time>2020-07-16T06:22:56.390Z</time>
      </trkpt>
      <trkpt lat="65.12183" lon="12.15091">
        <ele>12.115604</ele>
        <time>2020-07-16T06:23:14.956Z</time>
      </trkpt>
      <trkpt lat="65.12187" lon="12.15202">
        <ele>12.985727</ele>
        <time>2020-07-16T06:23:25.842Z</time>
      </trkpt>
      <trkpt lat="65.12171" lon="12.15819">
        <ele>21.096788</ele>
        <time>2020-07-16T06:24:38.741Z</time>
      </trkpt>
      <trkpt lat="65.12173" lon="12.16213">
        <ele>26.420435</ele>
        <time>2020-07-16T06:25:28.942Z</time>
      </trkpt>
      <trkpt lat="65.12165" lon="12.16311">
        <ele>27.667096</ele>
        <time>2020-07-16T06:25:41.833Z</time>
      </trkpt>
      <trkpt lat="65.12151" lon="12.16399">
        <ele>28.837715</ele>
        <time>2020-07-16T06:25:52.071Z</time>
      </trkpt>
      <trkpt lat="65.12103" lon="12.16607">
        <ele>26.885759</ele>
        <time>2020-07-16T06:26:07.944Z</time>
      </trkpt>
      <trkpt lat="65.12097" lon="12.16635">
        <ele>26.549607</ele>
        <time>2020-07-16T06:26:10.431Z</time>
      </trkpt>
      <trkpt lat="65.1209" lon="12.1668">
        <ele>26.012891</ele>
        <time>2020-07-16T06:26:12.930Z</time>
      </trkpt>
      <trkpt lat="65.12084" lon="12.1674">
        <ele>25.350355</ele>
        <time>2020-07-16T06:26:16.237Z</time>
      </trkpt>
      <trkpt lat="65.12085" lon="12.168">
        <ele>24.697034</ele>
        <time>2020-07-16T06:26:19.146Z</time>
      </trkpt>
      <trkpt lat="65.12089" lon="12.16839">
        <ele>23.824292</ele>
        <time>2020-07-16T06:26:21.102Z</time>
      </trkpt>
      <trkpt lat="65.12105" lon="12.16899">
        <ele>21.747034</ele>
        <time>2020-07-16T06:26:24.492Z</time>
      </trkpt>
      <trkpt lat="65.12126" lon="12.16941">
        <ele>19.813053</ele>
        <time>2020-07-16T06:26:27.615Z</time>
      </trkpt>
      <trkpt lat="65.12146" lon="12.16961">
        <ele>18.322042</ele>
        <time>2020-07-16T06:26:29.956Z</time>
      </trkpt>
      <trkpt lat="65.12181" lon="12.16965">
        <ele>15.916177</ele>
        <time>2020-07-16T06:26:33.968Z</time>
      </trkpt>
      <trkpt lat="65.12183" lon="12.16964">
        <ele>15.760236</ele>
        <time>2020-07-16T06:26:34.202Z</time>
      </trkpt>
      <trkpt lat="65.12188" lon="12.16962">
        <ele>15.398835</ele>
        <time>2020-07-16T06:26:34.806Z</time>
      </trkpt>
      <trkpt lat="65.12224" lon="12.16917">
        <ele>12.553965</ele>
        <time>2020-07-16T06:26:39.616Z</time>
      </trkpt>
      <trkpt lat="65.1224" lon="12.16882">
        <ele>11.627115</ele>
        <time>2020-07-16T06:26:42.395Z</time>
      </trkpt>
      <trkpt lat="65.1225" lon="12.16861">
        <ele>11.279489</ele>
        <time>2020-07-16T06:26:43.849Z</time>
      </trkpt>
      <trkpt lat="65.12258" lon="12.16845">
        <ele>10.994822</ele>
        <time>2020-07-16T06:26:45.295Z</time>
      </trkpt>
      <trkpt lat="65.12293" lon="12.16769">
        <ele>9.729633</ele>
        <time>2020-07-16T06:26:51.490Z</time>
      </trkpt>
      <trkpt lat="65.12335" lon="12.16697">
        <ele>8.337515</ele>
        <time>2020-07-16T06:26:58.987Z</time>
      </trkpt>
      <trkpt lat="65.12367" lon="12.16664">
        <ele>7.406886</ele>
        <time>2020-07-16T06:27:04.896Z</time>
      </trkpt>
      <trkpt lat="65.1241" lon="12.16631">
        <ele>6.865859</ele>
        <time>2020-07-16T06:27:12.372Z</time>
      </trkpt>
      <trkpt lat="65.12429" lon="12.16615">
        <ele>6.697613</ele>
        <time>2020-07-16T06:27:15.532Z</time>
      </trkpt>
      <trkpt lat="65.1247" lon="12.16576">
        <ele>6.320681</ele>
        <time>2020-07-16T06:27:22.375Z</time>
      </trkpt>
      <trkpt lat="65.12491" lon="12.16541">
        <ele>6.099497</ele>
        <time>2020-07-16T06:27:26.250Z</time>
      </trkpt>
      <trkpt lat="65.12499" lon="12.16523">
        <ele>6.006423</ele>
        <time>2020-07-16T06:27:28.075Z</time>
      </trkpt>
      <trkpt lat="65.12506" lon="12.16503">
        <ele>5.914393</ele>
        <time>2020-07-16T06:27:29.603Z</time>
      </trkpt>
      <trkpt lat="65.12518" lon="12.16459">
        <ele>5.726333</ele>
        <time>2020-07-16T06:27:33.232Z</time>
      </trkpt>
      <trkpt lat="65.12523" lon="12.16436">
        <ele>5.670014</ele>
        <time>2020-07-16T06:27:34.746Z</time>
      </trkpt>
      <trkpt lat="65.12527" lon="12.16414">
        <ele>5.781074</ele>
        <time>2020-07-16T06:27:36.236Z</time>
      </trkpt>
      <trkpt lat="65.1253" lon="12.16388">
        <ele>5.902139</ele>
        <time>2020-07-16T06:27:38.603Z</time>
      </trkpt>
      <trkpt lat="65.12539" lon="12.16315">
        <ele>6.248157</ele>
        <time>2020-07-16T06:27:44.065Z</time>
      </trkpt>
      <trkpt lat="65.12541" lon="12.16298">
        <ele>6.326517</ele>
        <time>2020-07-16T06:27:45.626Z</time>
      </trkpt>
      <trkpt lat="65.12557" lon="12.16206">
        <ele>6.779533</ele>
        <time>2020-07-16T06:27:53.792Z</time>
      </trkpt>
      <trkpt lat="65.12588" lon="12.16112">
        <ele>7.320867</ele>
        <time>2020-07-16T06:28:05.760Z</time>
      </trkpt>
      <trkpt lat="65.12594" lon="12.16101">
        <ele>7.399962</ele>
        <time>2020-07-16T06:28:07.755Z</time>
      </trkpt>
      <trkpt lat="65.12614" lon="12.1607">
        <ele>7.736251</ele>
        <time>2020-07-16T06:28:15.316Z</time>
      </trkpt>
      <trkpt lat="65.12656" lon="12.16032">
        <ele>8.751332</ele>
        <time>2020-07-16T06:28:28.159Z</time>
      </trkpt>
      <trkpt lat="65.12677" lon="12.16021">
        <ele>9.236289</ele>
        <time>2020-07-16T06:28:34.854Z</time>
      </trkpt>
      <trkpt lat="65.12688" lon="12.16017">
        <ele>9.475269</ele>
        <time>2020-07-16T06:28:37.323Z</time>
      </trkpt>
      <trkpt lat="65.12707" lon="12.1601">
        <ele>9.905549</ele>
        <time>2020-07-16T06:28:42.765Z</time>
      </trkpt>
      <trkpt lat="65.12714" lon="12.16007">
        <ele>10.070807</ele>
        <time>2020-07-16T06:28:44.867Z</time>
      </trkpt>
      <trkpt lat="65.12732" lon="12.15996">
        <ele>10.480133</ele>
        <time>2020-07-16T06:28:48.952Z</time>
      </trkpt>
      <trkpt lat="65.12739" lon="12.15991">
        <ele>10.645024</ele>
        <time>2020-07-16T06:28:51.177Z</time>
      </trkpt>
      <trkpt lat="65.12755" lon="12.15973">
        <ele>11.051843</ele>
        <time>2020-07-16T06:28:55.306Z</time>
      </trkpt>
      <trkpt lat="65.12774" lon="12.15949">
        <ele>11.531849</ele>
        <time>2020-07-16T06:28:59.696Z</time>
      </trkpt>
      <trkpt lat="65.12797" lon="12.15899">
        <ele>11.045909</ele>
        <time>2020-07-16T06:29:05.157Z</time>
      </trkpt>
      <trkpt lat="65.12842" lon="12.15737">
        <ele>9.218528</ele>
        <time>2020-07-16T06:29:16.692Z</time>
      </trkpt>
      <trkpt lat="65.12853" lon="12.15662">
        <ele>8.481879</ele>
        <time>2020-07-16T06:29:20.866Z</time>
      </trkpt>
      <trkpt lat="65.12851" lon="12.15571">
        <ele>7.621549</ele>
        <time>2020-07-16T06:29:25.696Z</time>
      </trkpt>
      <trkpt lat="65.12835" lon="12.15465">
        <ele>6.500519</ele>
        <time>2020-07-16T06:29:31.766Z</time>
      </trkpt>
      <trkpt lat="65.12787" lon="12.15267">
        <ele>4.23429</ele>
        <time>2020-07-16T06:29:44.930Z</time>
      </trkpt>
      <trkpt lat="65.12763" lon="12.15146">
        <ele>3.416913</ele>
        <time>2020-07-16T06:29:53.846Z</time>
      </trkpt>
      <trkpt lat="65.12706" lon="12.14716">
        <ele>3.784761</ele>
        <time>2020-07-16T06:30:30.474Z</time>
      </trkpt>
      <trkpt lat="65.12622" lon="12.14322">
        <ele>4.711701</ele>
        <time>2020-07-16T06:31:06.180Z</time>
      </trkpt>
      <trkpt lat="65.12612" lon="12.14278">
        <ele>4.869359</ele>
        <time>2020-07-16T06:31:09.978Z</time>
      </trkpt>
      <trkpt lat="65.12595" lon="12.14196">
        <ele>5.159467</ele>
        <time>2020-07-16T06:31:17.918Z</time>
      </trkpt>
      <trkpt lat="65.12573" lon="12.14073">
        <ele>5.581723</ele>
        <time>2020-07-16T06:31:29.435Z</time>
      </trkpt>
      <trkpt lat="65.12567" lon="12.14016">
        <ele>5.767485</ele>
        <time>2020-07-16T06:31:35.015Z</time>
      </trkpt>
      <trkpt lat="65.12562" lon="12.13948">
        <ele>5.974163</ele>
        <time>2020-07-16T06:31:41.129Z</time>
      </trkpt>
      <trkpt lat="65.1255" lon="12.13791">
        <ele>6.439545</ele>
        <time>2020-07-16T06:31:55.221Z</time>
      </trkpt>
      <trkpt lat="65.12547" lon="12.13747">
        <ele>6.56961</ele>
        <time>2020-07-16T06:31:58.772Z</time>
      </trkpt>
      <trkpt lat="65.12544" lon="12.13696">
        <ele>6.722412</ele>
        <time>2020-07-16T06:32:03.153Z</time>
      </trkpt>
      <trkpt lat="65.12541" lon="12.13606">
        <ele>6.987594</ele>
        <time>2020-07-16T06:32:09.940Z</time>
      </trkpt>
      <trkpt lat="65.12539" lon="12.13522">
        <ele>7.189688</ele>
        <time>2020-07-16T06:32:16.674Z</time>
      </trkpt>
      <trkpt lat="65.12537" lon="12.13463">
        <ele>7.319519</ele>
        <time>2020-07-16T06:32:21.427Z</time>
      </trkpt>
      <trkpt lat="65.12535" lon="12.13413">
        <ele>7.432735</ele>
        <time>2020-07-16T06:32:25.540Z</time>
      </trkpt>
      <trkpt lat="65.12533" lon="12.13391">
        <ele>7.480919</ele>
        <time>2020-07-16T06:32:27.337Z</time>
      </trkpt>
      <trkpt lat="65.12532" lon="12.13375">
        <ele>7.516925</ele>
        <time>2020-07-16T06:32:28.853Z</time>
      </trkpt>
      <trkpt lat="65.12518" lon="12.1325">
        <ele>7.805841</ele>
        <time>2020-07-16T06:32:39.484Z</time>
      </trkpt>
      <trkpt lat="65.1248" lon="12.13018">
        <ele>8.682337</ele>
        <time>2020-07-16T06:33:00.883Z</time>
      </trkpt>
      <trkpt lat="65.12467" lon="12.1289">
        <ele>9.239864</ele>
        <time>2020-07-16T06:33:12.385Z</time>
      </trkpt>
      <trkpt lat="65.12454" lon="12.12315">
        <ele>13.020328</ele>
        <time>2020-07-16T06:34:06.401Z</time>
      </trkpt>
      <trkpt lat="65.12423" lon="12.12006">
        <ele>18.802266</ele>
        <time>2020-07-16T06:34:45.928Z</time>
      </trkpt>
      <trkpt lat="65.12424" lon="12.11949">
        <ele>19.843066</ele>
        <time>2020-07-16T06:34:55.994Z</time>
      </trkpt>
      <trkpt lat="65.12436" lon="12.11853">
        <ele>22.232889</ele>
        <time>2020-07-16T06:35:12.664Z</time>
      </trkpt>
      <trkpt lat="65.12439" lon="12.11839">
        <ele>22.672865</ele>
        <time>2020-07-16T06:35:16.028Z</time>
      </trkpt>
      <trkpt lat="65.12443" lon="12.11823">
        <ele>23.179286</ele>
        <time>2020-07-16T06:35:20.441Z</time>
      </trkpt>
      <trkpt lat="65.12463" lon="12.11763">
        <ele>25.27353</ele>
        <time>2020-07-16T06:35:33.083Z</time>
      </trkpt>
      <trkpt lat="65.12484" lon="12.11722">
        <ele>27.049563</ele>
        <time>2020-07-16T06:35:43.128Z</time>
      </trkpt>
      <trkpt lat="65.12495" lon="12.11706">
        <ele>27.891381</ele>
        <time>2020-07-16T06:35:50.182Z</time>
      </trkpt>
      <trkpt lat="65.12512" lon="12.1169">
        <ele>29.059997</ele>
        <time>2020-07-16T06:35:56.218Z</time>
      </trkpt>
      <trkpt lat="65.12552" lon="12.11679">
        <ele>31.740379</ele>
        <time>2020-07-16T06:36:12.555Z</time>
      </trkpt>
      <trkpt lat="65.12614" lon="12.11681">
        <ele>32.434527</ele>
        <time>2020-07-16T06:36:32.446Z</time>
      </trkpt>
      <trkpt lat="65.12681" lon="12.11659">
        <ele>32.616644</ele>
        <time>2020-07-16T06:36:44.240Z</time>
      </trkpt>
      <trkpt lat="65.1272" lon="12.11644">
        <ele>32.721594</ele>
        <time>2020-07-16T06:36:49.487Z</time>
      </trkpt>
      <trkpt lat="65.12727" lon="12.11641">
        <ele>32.740244</ele>
        <time>2020-07-16T06:36:50.250Z</time>
      </trkpt>
      <trkpt lat="65.12775" lon="12.11617">
        <ele>31.015579</ele>
        <time>2020-07-16T06:36:56.434Z</time>
      </trkpt>
      <trkpt lat="65.12814" lon="12.11617">
        <ele>29.130862</ele>
        <time>2020-07-16T06:37:01.164Z</time>
      </trkpt>
      <trkpt lat="65.12851" lon="12.11644">
        <ele>27.292989</ele>
        <time>2020-07-16T06:37:05.684Z</time>
      </trkpt>
      <trkpt lat="65.12936" lon="12.11742">
        <ele>23.309982</ele>
        <time>2020-07-16T06:37:17.217Z</time>
      </trkpt>
      <trkpt lat="65.12993" lon="12.1179">
        <ele>21.63564</ele>
        <time>2020-07-16T06:37:24.990Z</time>
      </trkpt>
      <trkpt lat="65.13072" lon="12.1182">
        <ele>19.3879</ele>
        <time>2020-07-16T06:37:36.338Z</time>
      </trkpt>
      <trkpt lat="65.13144" lon="12.11814">
        <ele>19.68992</ele>
        <time>2020-07-16T06:37:48.206Z</time>
      </trkpt>
      <trkpt lat="65.13271" lon="12.11783">
        <ele>21.136649</ele>
        <time>2020-07-16T06:38:17.742Z</time>
      </trkpt>
      <trkpt lat="65.13294" lon="12.11777">
        <ele>21.977298</ele>
        <time>2020-07-16T06:38:24.396Z</time>
      </trkpt>
      <trkpt lat="65.13673" lon="12.11681">
        <ele>32.8737</ele>
        <time>2020-07-16T06:40:20.456Z</time>
      </trkpt>
      <trkpt lat="65.13699" lon="12.11677">
        <ele>32.288132</ele>
        <time>2020-07-16T06:40:25.070Z</time>
      </trkpt>
      <trkpt lat="65.1371" lon="12.11676">
        <ele>32.044605</ele>
        <time>2020-07-16T06:40:26.297Z</time>
      </trkpt>
      <trkpt lat="65.13832" lon="12.1169">
        <ele>27.203201</ele>
        <time>2020-07-16T06:40:40.734Z</time>
      </trkpt>
      <trkpt lat="65.13857" lon="12.11699">
        <ele>24.972402</ele>
        <time>2020-07-16T06:40:43.566Z</time>
      </trkpt>
      <trkpt lat="65.13949" lon="12.11728">
        <ele>17.086496</ele>
        <time>2020-07-16T06:40:53.648Z</time>
      </trkpt>
      <trkpt lat="65.14024" lon="12.11754">
        <ele>12.319639</ele>
        <time>2020-07-16T06:41:02.129Z</time>
      </trkpt>
      <trkpt lat="65.14062" lon="12.11766">
        <ele>10.482219</ele>
        <time>2020-07-16T06:41:06.671Z</time>
      </trkpt>
      <trkpt lat="65.14129" lon="12.11788">
        <ele>7.234277</ele>
        <time>2020-07-16T06:41:15.466Z</time>
      </trkpt>
      <trkpt lat="65.14157" lon="12.11795">
        <ele>5.969573</ele>
        <time>2020-07-16T06:41:19.522Z</time>
      </trkpt>
      <trkpt lat="65.14177" lon="12.11798">
        <ele>6.424686</ele>
        <time>2020-07-16T06:41:22.456Z</time>
      </trkpt>
      <trkpt lat="65.14196" lon="12.118">
        <ele>6.871787</ele>
        <time>2020-07-16T06:41:25.853Z</time>
      </trkpt>
      <trkpt lat="65.14269" lon="12.11785">
        <ele>8.559388</ele>
        <time>2020-07-16T06:41:44.205Z</time>
      </trkpt>
      <trkpt lat="65.14354" lon="12.11727">
        <ele>11.132309</ele>
        <time>2020-07-16T06:42:13.442Z</time>
      </trkpt>
      <trkpt lat="65.14383" lon="12.11703">
        <ele>12.61024</ele>
        <time>2020-07-16T06:42:25.465Z</time>
      </trkpt>
      <trkpt lat="65.1443" lon="12.11665">
        <ele>14.97904</ele>
        <time>2020-07-16T06:42:43.319Z</time>
      </trkpt>
      <trkpt lat="65.14499" lon="12.11622">
        <ele>18.373776</ele>
        <time>2020-07-16T06:43:06.946Z</time>
      </trkpt>
      <trkpt lat="65.1452" lon="12.11615">
        <ele>18.647965</ele>
        <time>2020-07-16T06:43:13.771Z</time>
      </trkpt>
      <trkpt lat="65.14529" lon="12.11612">
        <ele>18.640361</ele>
        <time>2020-07-16T06:43:16.346Z</time>
      </trkpt>
      <trkpt lat="65.14899" lon="12.11553">
        <ele>15.49825</ele>
        <time>2020-07-16T06:44:12.540Z</time>
      </trkpt>
      <trkpt lat="65.14965" lon="12.11556">
        <ele>14.124043</ele>
        <time>2020-07-16T06:44:21.644Z</time>
      </trkpt>
      <trkpt lat="65.15004" lon="12.11569">
        <ele>13.292196</ele>
        <time>2020-07-16T06:44:27.198Z</time>
      </trkpt>
      <trkpt lat="65.15057" lon="12.11602">
        <ele>12.102398</ele>
        <time>2020-07-16T06:44:34.489Z</time>
      </trkpt>
      <trkpt lat="65.15161" lon="12.11714">
        <ele>9.291089</ele>
        <time>2020-07-16T06:44:49.813Z</time>
      </trkpt>
      <trkpt lat="65.15171" lon="12.11726">
        <ele>9.007054</ele>
        <time>2020-07-16T06:44:51.265Z</time>
      </trkpt>
      <trkpt lat="65.15209" lon="12.11772">
        <ele>8.049414</ele>
        <time>2020-07-16T06:44:57.284Z</time>
      </trkpt>
      <trkpt lat="65.15267" lon="12.1183">
        <ele>7.860137</ele>
        <time>2020-07-16T06:45:06.884Z</time>
      </trkpt>
      <trkpt lat="65.15354" lon="12.11897">
        <ele>7.586596</ele>
        <time>2020-07-16T06:45:24.062Z</time>
      </trkpt>
      <trkpt lat="65.1544" lon="12.12006">
        <ele>7.67013</ele>
        <time>2020-07-16T06:45:44.632Z</time>
      </trkpt>
      <trkpt lat="65.15475" lon="12.12033">
        <ele>7.741671</ele>
        <time>2020-07-16T06:45:51.902Z</time>
      </trkpt>
      <trkpt lat="65.15739" lon="12.12119">
        <ele>5.965958</ele>
        <time>2020-07-16T06:46:33.620Z</time>
      </trkpt>
      <trkpt lat="65.15799" lon="12.12112">
        <ele>5.267049</ele>
        <time>2020-07-16T06:46:42.499Z</time>
      </trkpt>
      <trkpt lat="65.15865" lon="12.12066">
        <ele>4.45406</ele>
        <time>2020-07-16T06:46:52.978Z</time>
      </trkpt>
      <trkpt lat="65.15869" lon="12.12061">
        <ele>4.407466</ele>
        <time>2020-07-16T06:46:53.573Z</time>
      </trkpt>
      <trkpt lat="65.1589" lon="12.12038">
        <ele>4.139696</ele>
        <time>2020-07-16T06:46:57.062Z</time>
      </trkpt>
      <trkpt lat="65.15988" lon="12.11921">
        <ele>3.859658</ele>
        <time>2020-07-16T06:47:14.715Z</time>
      </trkpt>
      <trkpt lat="65.16061" lon="12.11872">
        <ele>3.712747</ele>
        <time>2020-07-16T06:47:28.580Z</time>
      </trkpt>
      <trkpt lat="65.16332" lon="12.11839">
        <ele>7.461212</ele>
        <time>2020-07-16T06:48:29.818Z</time>
      </trkpt>
      <trkpt lat="65.16393" lon="12.11832">
        <ele>8.406141</ele>
        <time>2020-07-16T06:48:44.275Z</time>
      </trkpt>
      <trkpt lat="65.16397" lon="12.11832">
        <ele>8.456917</ele>
        <time>2020-07-16T06:48:45.015Z</time>
      </trkpt>
      <trkpt lat="65.16507" lon="12.11821">
        <ele>10.008842</ele>
        <time>2020-07-16T06:49:09.901Z</time>
      </trkpt>
      <trkpt lat="65.16523" lon="12.11818">
        <ele>10.219991</ele>
        <time>2020-07-16T06:49:13.380Z</time>
      </trkpt>
      <trkpt lat="65.16526" lon="12.11817">
        <ele>10.259733</ele>
        <time>2020-07-16T06:49:13.932Z</time>
      </trkpt>
      <trkpt lat="65.16588" lon="12.11787">
        <ele>11.133866</ele>
        <time>2020-07-16T06:49:27.549Z</time>
      </trkpt>
      <trkpt lat="65.16702" lon="12.1171">
        <ele>13.177946</ele>
        <time>2020-07-16T06:49:54.779Z</time>
      </trkpt>
      <trkpt lat="65.16742" lon="12.11701">
        <ele>13.878179</ele>
        <time>2020-07-16T06:50:04.857Z</time>
      </trkpt>
      <trkpt lat="65.16843" lon="12.11703">
        <ele>15.226506</ele>
        <time>2020-07-16T06:50:29.015Z</time>
      </trkpt>
      <trkpt lat="65.16884" lon="12.11688">
        <ele>15.709064</ele>
        <time>2020-07-16T06:50:37.776Z</time>
      </trkpt>
      <trkpt lat="65.16895" lon="12.11681">
        <ele>15.837696</ele>
        <time>2020-07-16T06:50:40.767Z</time>
      </trkpt>
      <trkpt lat="65.16925" lon="12.11655">
        <ele>16.21033</ele>
        <time>2020-07-16T06:50:46.563Z</time>
      </trkpt>
      <trkpt lat="65.16995" lon="12.11588">
        <ele>16.393148</ele>
        <time>2020-07-16T06:51:00.404Z</time>
      </trkpt>
      <trkpt lat="65.17057" lon="12.11574">
        <ele>16.271849</ele>
        <time>2020-07-16T06:51:10.340Z</time>
      </trkpt>
      <trkpt lat="65.17085" lon="12.11579">
        <ele>16.218549</ele>
        <time>2020-07-16T06:51:14.675Z</time>
      </trkpt>
      <trkpt lat="65.17091" lon="12.1158">
        <ele>16.205822</ele>
        <time>2020-07-16T06:51:16.088Z</time>
      </trkpt>
      <trkpt lat="65.17188" lon="12.11593">
        <ele>16.564224</ele>
        <time>2020-07-16T06:51:33.870Z</time>
      </trkpt>
      <trkpt lat="65.17306" lon="12.11553">
        <ele>17.334382</ele>
        <time>2020-07-16T06:51:59.037Z</time>
      </trkpt>
      <trkpt lat="65.17367" lon="12.1157">
        <ele>17.619103</ele>
        <time>2020-07-16T06:52:11.500Z</time>
      </trkpt>
      <trkpt lat="65.1744" lon="12.1164">
        <ele>17.988081</ele>
        <time>2020-07-16T06:52:26.808Z</time>
      </trkpt>
      <trkpt lat="65.17792" lon="12.1202">
        <ele>17.647489</ele>
        <time>2020-07-16T06:53:33.194Z</time>
      </trkpt>
      <trkpt lat="65.17827" lon="12.12057">
        <ele>17.837469</ele>
        <time>2020-07-16T06:53:40.768Z</time>
      </trkpt>
      <trkpt lat="65.17878" lon="12.12113">
        <ele>18.2161</ele>
        <time>2020-07-16T06:53:52.799Z</time>
      </trkpt>
      <trkpt lat="65.17946" lon="12.12186">
        <ele>18.715794</ele>
        <time>2020-07-16T06:54:08.181Z</time>
      </trkpt>
      <trkpt lat="65.17953" lon="12.12193">
        <ele>18.765253</ele>
        <time>2020-07-16T06:54:09.605Z</time>
      </trkpt>
      <trkpt lat="65.17959" lon="12.122">
        <ele>18.811793</ele>
        <time>2020-07-16T06:54:11.135Z</time>
      </trkpt>
      <trkpt lat="65.18016" lon="12.12261">
        <ele>18.683088</ele>
        <time>2020-07-16T06:54:22.496Z</time>
      </trkpt>
      <trkpt lat="65.18083" lon="12.12334">
        <ele>18.465614</ele>
        <time>2020-07-16T06:54:34.838Z</time>
      </trkpt>
      <trkpt lat="65.18115" lon="12.12368">
        <ele>18.360947</ele>
        <time>2020-07-16T06:54:40.557Z</time>
      </trkpt>
      <trkpt lat="65.18125" lon="12.12378">
        <ele>18.331229</ele>
        <time>2020-07-16T06:54:42.007Z</time>
      </trkpt>
      <trkpt lat="65.1814" lon="12.1239">
        <ele>18.216351</ele>
        <time>2020-07-16T06:54:44.458Z</time>
      </trkpt>
      <trkpt lat="65.18181" lon="12.12417">
        <ele>17.853586</ele>
        <time>2020-07-16T06:54:51.120Z</time>
      </trkpt>
      <trkpt lat="65.18232" lon="12.12434">
        <ele>17.410662</ele>
        <time>2020-07-16T06:54:59.279Z</time>
      </trkpt>
      <trkpt lat="65.18305" lon="12.12421">
        <ele>16.784498</ele>
        <time>2020-07-16T06:55:11.284Z</time>
      </trkpt>
      <trkpt lat="65.18312" lon="12.12418">
        <ele>16.646827</ele>
        <time>2020-07-16T06:55:12.396Z</time>
      </trkpt>
      <trkpt lat="65.18319" lon="12.12414">
        <ele>16.485618</ele>
        <time>2020-07-16T06:55:13.513Z</time>
      </trkpt>
      <trkpt lat="65.18334" lon="12.12405">
        <ele>16.162225</ele>
        <time>2020-07-16T06:55:15.933Z</time>
      </trkpt>
      <trkpt lat="65.18353" lon="12.12389">
        <ele>15.746163</ele>
        <time>2020-07-16T06:55:18.843Z</time>
      </trkpt>
      <trkpt lat="65.1837" lon="12.12369">
        <ele>15.340756</ele>
        <time>2020-07-16T06:55:21.763Z</time>
      </trkpt>
      <trkpt lat="65.18386" lon="12.12347">
        <ele>14.956384</ele>
        <time>2020-07-16T06:55:24.369Z</time>
      </trkpt>
      <trkpt lat="65.18402" lon="12.12317">
        <ele>14.532046</ele>
        <time>2020-07-16T06:55:27.269Z</time>
      </trkpt>
      <trkpt lat="65.18415" lon="12.12283">
        <ele>14.12433</ele>
        <time>2020-07-16T06:55:30.022Z</time>
      </trkpt>
      <trkpt lat="65.18423" lon="12.12257">
        <ele>13.830725</ele>
        <time>2020-07-16T06:55:32.009Z</time>
      </trkpt>
      <trkpt lat="65.1843" lon="12.12231">
        <ele>13.566368</ele>
        <time>2020-07-16T06:55:33.584Z</time>
      </trkpt>
      <trkpt lat="65.18443" lon="12.12157">
        <ele>12.701543</ele>
        <time>2020-07-16T06:55:37.858Z</time>
      </trkpt>
      <trkpt lat="65.18449" lon="12.12078">
        <ele>11.267867</ele>
        <time>2020-07-16T06:55:42.024Z</time>
      </trkpt>
      <trkpt lat="65.18447" lon="12.12002">
        <ele>9.900515</ele>
        <time>2020-07-16T06:55:45.963Z</time>
      </trkpt>
      <trkpt lat="65.1844" lon="12.11927">
        <ele>8.51562</ele>
        <time>2020-07-16T06:55:49.934Z</time>
      </trkpt>
      <trkpt lat="65.18435" lon="12.11894">
        <ele>7.896066</ele>
        <time>2020-07-16T06:55:51.625Z</time>
      </trkpt>
      <trkpt lat="65.18418" lon="12.11779">
        <ele>5.69737</ele>
        <time>2020-07-16T06:55:58.100Z</time>
      </trkpt>
      <trkpt lat="65.18404" lon="12.11692">
        <ele>4.532117</ele>
        <time>2020-07-16T06:56:03.080Z</time>
      </trkpt>
      <trkpt lat="65.18389" lon="12.11597">
        <ele>3.423571</ele>
        <time>2020-07-16T06:56:08.559Z</time>
      </trkpt>
      <trkpt lat="65.18386" lon="12.1158">
        <ele>3.220497</ele>
        <time>2020-07-16T06:56:09.542Z</time>
      </trkpt>
      <trkpt lat="65.18382" lon="12.1156">
        <ele>2.975893</ele>
        <time>2020-07-16T06:56:10.769Z</time>
      </trkpt>
      <trkpt lat="65.18378" lon="12.1154">
        <ele>2.738242</ele>
        <time>2020-07-16T06:56:11.980Z</time>
      </trkpt>
      <trkpt lat="65.18371" lon="12.11512">
        <ele>2.375245</ele>
        <time>2020-07-16T06:56:13.926Z</time>
      </trkpt>
      <trkpt lat="65.18347" lon="12.11437">
        <ele>1.339032</ele>
        <time>2020-07-16T06:56:19.665Z</time>
      </trkpt>
      <trkpt lat="65.18304" lon="12.11353">
        <ele>0.541891</ele>
        <time>2020-07-16T06:56:28.339Z</time>
      </trkpt>
      <trkpt lat="65.183" lon="12.11347">
        <ele>0.52787</ele>
        <time>2020-07-16T06:56:29.142Z</time>
      </trkpt>
      <trkpt lat="65.18295" lon="12.11342">
        <ele>0.51398</ele>
        <time>2020-07-16T06:56:29.937Z</time>
      </trkpt>
      <trkpt lat="65.18289" lon="12.11333">
        <ele>0.493701</ele>
        <time>2020-07-16T06:56:31.110Z</time>
      </trkpt>
      <trkpt lat="65.18278" lon="12.11324">
        <ele>0.458548</ele>
        <time>2020-07-16T06:56:33.132Z</time>
      </trkpt>
      <trkpt lat="65.18274" lon="12.11321">
        <ele>0.448065</ele>
        <time>2020-07-16T06:56:33.735Z</time>
      </trkpt>
      <trkpt lat="65.18267" lon="12.1132">
        <ele>0.425011</ele>
        <time>2020-07-16T06:56:35.110Z</time>
      </trkpt>
      <trkpt lat="65.18246" lon="12.11325">
        <ele>0.364139</ele>
        <time>2020-07-16T06:56:38.015Z</time>
      </trkpt>
      <trkpt lat="65.182" lon="12.11336">
        <ele>0.229331</ele>
        <time>2020-07-16T06:56:44.470Z</time>
      </trkpt>
      <trkpt lat="65.18139" lon="12.11303">
        <ele>0.098693</ele>
        <time>2020-07-16T06:56:53.106Z</time>
      </trkpt>
      <trkpt lat="65.1809" lon="12.11202">
        <ele>0.09384</ele>
        <time>2020-07-16T06:57:02.193Z</time>
      </trkpt>
      <trkpt lat="65.18044" lon="12.11079">
        <ele>0.088713</ele>
        <time>2020-07-16T06:57:11.810Z</time>
      </trkpt>
      <trkpt lat="65.18024" lon="12.10931">
        <ele>0.068575</ele>
        <time>2020-07-16T06:57:20.968Z</time>
      </trkpt>
      <trkpt lat="65.1802" lon="12.10795">
        <ele>0.041119</ele>
        <time>2020-07-16T06:57:28.933Z</time>
      </trkpt>
      <trkpt lat="65.18029" lon="12.10651">
        <ele>0.011629</ele>
        <time>2020-07-16T06:57:37.489Z</time>
      </trkpt>
      <trkpt lat="65.1806" lon="12.10427">
        <ele>6.2E-5</ele>
        <time>2020-07-16T06:57:51.268Z</time>
      </trkpt>
      <trkpt lat="65.18123" lon="12.10125">
        <time>2020-07-16T06:58:10.981Z</time>
      </trkpt>
      <trkpt lat="65.18228" lon="12.09799">
        <time>2020-07-16T06:58:35.086Z</time>
      </trkpt>
      <trkpt lat="65.20031" lon="12.06071">
        <time>2020-07-16T07:04:07.844Z</time>
      </trkpt>
      <trkpt lat="65.20798" lon="12.04728">
        <time>2020-07-16T07:06:20.547Z</time>
      </trkpt>
      <trkpt lat="65.20992" lon="12.04525">
        <ele>0.015428</ele>
        <time>2020-07-16T07:06:50.075Z</time>
      </trkpt>
      <trkpt lat="65.21343" lon="12.0419">
        <ele>0.213661</ele>
        <time>2020-07-16T07:07:42.799Z</time>
      </trkpt>
      <trkpt lat="65.21429" lon="12.04125">
        <ele>0.464453</ele>
        <time>2020-07-16T07:07:55.450Z</time>
      </trkpt>
      <trkpt lat="65.21507" lon="12.04093">
        <ele>0.682916</ele>
        <time>2020-07-16T07:08:06.474Z</time>
      </trkpt>
      <trkpt lat="65.21601" lon="12.04073">
        <ele>2.11073</ele>
        <time>2020-07-16T07:08:19.559Z</time>
      </trkpt>
      <trkpt lat="65.21613" lon="12.04071">
        <ele>2.317457</ele>
        <time>2020-07-16T07:08:22.610Z</time>
      </trkpt>
      <trkpt lat="65.21626" lon="12.04073">
        <ele>2.537444</ele>
        <time>2020-07-16T07:08:26.086Z</time>
      </trkpt>
      <trkpt lat="65.21632" lon="12.04099">
        <ele>2.739586</ele>
        <time>2020-07-16T07:08:28.847Z</time>
      </trkpt>
      <trkpt lat="65.21613" lon="12.04175">
        <ele>3.357852</ele>
        <time>2020-07-16T07:08:38.366Z</time>
      </trkpt>
      <trkpt lat="65.2161" lon="12.04191">
        <ele>3.480672</ele>
        <time>2020-07-16T07:08:40.282Z</time>
      </trkpt>
      <trkpt lat="65.21609" lon="12.04209">
        <ele>3.604657</ele>
        <time>2020-07-16T07:08:42.659Z</time>
      </trkpt>
      <trkpt lat="65.2161" lon="12.04251">
        <ele>4.086405</ele>
        <time>2020-07-16T07:08:47.277Z</time>
      </trkpt>
      <trkpt lat="65.2161" lon="12.04259">
        <ele>4.19965</ele>
        <time>2020-07-16T07:08:48.234Z</time>
      </trkpt>
      <trkpt lat="65.21612" lon="12.04289">
        <ele>4.608629</ele>
        <time>2020-07-16T07:08:52.087Z</time>
      </trkpt>
      <trkpt lat="65.21625" lon="12.04357">
        <ele>5.626546</ele>
        <time>2020-07-16T07:09:00.761Z</time>
      </trkpt>
      <trkpt lat="65.21632" lon="12.04379">
        <ele>5.989017</ele>
        <time>2020-07-16T07:09:04.370Z</time>
      </trkpt>
      <trkpt lat="65.21642" lon="12.04402">
        <ele>6.448284</ele>
        <time>2020-07-16T07:09:08.050Z</time>
      </trkpt>
      <trkpt lat="65.21653" lon="12.04422">
        <ele>6.894571</ele>
        <time>2020-07-16T07:09:12.272Z</time>
      </trkpt>
      <trkpt lat="65.2168" lon="12.04459">
        <ele>7.922455</ele>
        <time>2020-07-16T07:09:21.216Z</time>
      </trkpt>
      <trkpt lat="65.21719" lon="12.04507">
        <ele>9.327487</ele>
        <time>2020-07-16T07:09:34.176Z</time>
      </trkpt>
      <trkpt lat="65.21734" lon="12.04529">
        <ele>9.748967</ele>
        <time>2020-07-16T07:09:38.969Z</time>
      </trkpt>
      <trkpt lat="65.21748" lon="12.04551">
        <ele>10.066285</ele>
        <time>2020-07-16T07:09:43.496Z</time>
      </trkpt>
      <trkpt lat="65.21775" lon="12.04604">
        <ele>10.714691</ele>
        <time>2020-07-16T07:09:52.987Z</time>
      </trkpt>
      <trkpt lat="65.21796" lon="12.04668">
        <ele>11.348716</ele>
        <time>2020-07-16T07:10:01.419Z</time>
      </trkpt>
      <trkpt lat="65.21833" lon="12.04835">
        <ele>12.829888</ele>
        <time>2020-07-16T07:10:18.185Z</time>
      </trkpt>
      <trkpt lat="65.21837" lon="12.04851">
        <ele>12.862011</ele>
        <time>2020-07-16T07:10:19.686Z</time>
      </trkpt>
      <trkpt lat="65.21845" lon="12.04882">
        <ele>12.738623</ele>
        <time>2020-07-16T07:10:22.676Z</time>
      </trkpt>
      <trkpt lat="65.21874" lon="12.04972">
        <ele>12.35872</ele>
        <time>2020-07-16T07:10:30.810Z</time>
      </trkpt>
      <trkpt lat="65.21909" lon="12.05028">
        <ele>12.019776</ele>
        <time>2020-07-16T07:10:37.752Z</time>
      </trkpt>
      <trkpt lat="65.21959" lon="12.05077">
        <ele>11.587212</ele>
        <time>2020-07-16T07:10:45.818Z</time>
      </trkpt>
      <trkpt lat="65.22043" lon="12.05127">
        <ele>9.901077</ele>
        <time>2020-07-16T07:10:57.359Z</time>
      </trkpt>
      <trkpt lat="65.22064" lon="12.0516">
        <ele>9.346083</ele>
        <time>2020-07-16T07:11:00.889Z</time>
      </trkpt>
      <trkpt lat="65.22068" lon="12.05172">
        <ele>9.192414</ele>
        <time>2020-07-16T07:11:01.713Z</time>
      </trkpt>
      <trkpt lat="65.22073" lon="12.05188">
        <ele>8.999098</ele>
        <time>2020-07-16T07:11:03.055Z</time>
      </trkpt>
      <trkpt lat="65.22076" lon="12.052">
        <ele>8.878798</ele>
        <time>2020-07-16T07:11:03.795Z</time>
      </trkpt>
      <trkpt lat="65.22085" lon="12.05266">
        <ele>8.222673</ele>
        <time>2020-07-16T07:11:07.860Z</time>
      </trkpt>
      <trkpt lat="65.22088" lon="12.05296">
        <ele>7.936165</ele>
        <time>2020-07-16T07:11:09.713Z</time>
      </trkpt>
      <trkpt lat="65.22089" lon="12.05309">
        <ele>7.81424</ele>
        <time>2020-07-16T07:11:10.479Z</time>
      </trkpt>
      <trkpt lat="65.22105" lon="12.05546">
        <ele>6.582579</ele>
        <time>2020-07-16T07:11:24.943Z</time>
      </trkpt>
      <trkpt lat="65.22126" lon="12.05758">
        <ele>5.648041</ele>
        <time>2020-07-16T07:11:39.983Z</time>
      </trkpt>
      <trkpt lat="65.22141" lon="12.05898">
        <ele>6.380954</ele>
        <time>2020-07-16T07:11:51.041Z</time>
      </trkpt>
      <trkpt lat="65.22168" lon="12.06153">
        <ele>7.913842</ele>
        <time>2020-07-16T07:12:16.684Z</time>
      </trkpt>
      <trkpt lat="65.22171" lon="12.06166">
        <ele>7.997212</ele>
        <time>2020-07-16T07:12:18.255Z</time>
      </trkpt>
      <trkpt lat="65.22179" lon="12.06217">
        <ele>8.720804</ele>
        <time>2020-07-16T07:12:24.774Z</time>
      </trkpt>
      <trkpt lat="65.22213" lon="12.06353">
        <ele>11.41203</ele>
        <time>2020-07-16T07:12:44.080Z</time>
      </trkpt>
      <trkpt lat="65.22217" lon="12.06366">
        <ele>11.699103</ele>
        <time>2020-07-16T07:12:46.654Z</time>
      </trkpt>
      <trkpt lat="65.22231" lon="12.06405">
        <ele>12.547325</ele>
        <time>2020-07-16T07:12:53.175Z</time>
      </trkpt>
      <trkpt lat="65.22265" lon="12.06489">
        <ele>14.560316</ele>
        <time>2020-07-16T07:13:09.572Z</time>
      </trkpt>
      <trkpt lat="65.2228" lon="12.06508">
        <ele>15.259803</ele>
        <time>2020-07-16T07:13:15.473Z</time>
      </trkpt>
      <trkpt lat="65.22337" lon="12.0653">
        <ele>18.141422</ele>
        <time>2020-07-16T07:13:35.552Z</time>
      </trkpt>
      <trkpt lat="65.22409" lon="12.06545">
        <ele>21.853475</ele>
        <time>2020-07-16T07:14:00.342Z</time>
      </trkpt>
      <trkpt lat="65.22425" lon="12.06552">
        <ele>22.652878</ele>
        <time>2020-07-16T07:14:05.916Z</time>
      </trkpt>
      <trkpt lat="65.22441" lon="12.06562">
        <ele>23.539633</ele>
        <time>2020-07-16T07:14:11.857Z</time>
      </trkpt>
      <trkpt lat="65.22459" lon="12.0658">
        <ele>24.506036</ele>
        <time>2020-07-16T07:14:18.262Z</time>
      </trkpt>
      <trkpt lat="65.22472" lon="12.06597">
        <ele>25.102324</ele>
        <time>2020-07-16T07:14:23.366Z</time>
      </trkpt>
      <trkpt lat="65.22527" lon="12.06701">
        <ele>27.783135</ele>
        <time>2020-07-16T07:14:45.961Z</time>
      </trkpt>
      <trkpt lat="65.22549" lon="12.06743">
        <ele>28.867651</ele>
        <time>2020-07-16T07:14:54.768Z</time>
      </trkpt>
      <trkpt lat="65.22569" lon="12.06779">
        <ele>29.82368</ele>
        <time>2020-07-16T07:15:01.808Z</time>
      </trkpt>
      <trkpt lat="65.22718" lon="12.07106">
        <ele>35.007377</ele>
        <time>2020-07-16T07:15:53.584Z</time>
      </trkpt>
      <trkpt lat="65.22741" lon="12.07162">
        <ele>35.396617</ele>
        <time>2020-07-16T07:16:01.088Z</time>
      </trkpt>
      <trkpt lat="65.22798" lon="12.07302">
        <ele>34.91846</ele>
        <time>2020-07-16T07:16:17.630Z</time>
      </trkpt>
      <trkpt lat="65.22805" lon="12.07318">
        <ele>34.861256</ele>
        <time>2020-07-16T07:16:19.211Z</time>
      </trkpt>
      <trkpt lat="65.22863" lon="12.07483">
        <ele>33.721929</ele>
        <time>2020-07-16T07:16:31.888Z</time>
      </trkpt>
      <trkpt lat="65.22882" lon="12.07526">
        <ele>32.358803</ele>
        <time>2020-07-16T07:16:35.199Z</time>
      </trkpt>
      <trkpt lat="65.23014" lon="12.07634">
        <ele>25.222371</ele>
        <time>2020-07-16T07:16:51.534Z</time>
      </trkpt>
      <trkpt lat="65.23045" lon="12.07682">
        <ele>23.910395</ele>
        <time>2020-07-16T07:16:56.002Z</time>
      </trkpt>
      <trkpt lat="65.23062" lon="12.07734">
        <ele>22.957776</ele>
        <time>2020-07-16T07:16:59.337Z</time>
      </trkpt>
      <trkpt lat="65.23072" lon="12.0781">
        <ele>21.77644</ele>
        <time>2020-07-16T07:17:03.569Z</time>
      </trkpt>
      <trkpt lat="65.23091" lon="12.08082">
        <ele>19.280299</ele>
        <time>2020-07-16T07:17:19.897Z</time>
      </trkpt>
      <trkpt lat="65.23094" lon="12.08135">
        <ele>19.530954</ele>
        <time>2020-07-16T07:17:23.997Z</time>
      </trkpt>
      <trkpt lat="65.23113" lon="12.08415">
        <ele>20.859986</ele>
        <time>2020-07-16T07:17:52.446Z</time>
      </trkpt>
      <trkpt lat="65.23123" lon="12.08556">
        <ele>22.915861</ele>
        <time>2020-07-16T07:18:10.702Z</time>
      </trkpt>
      <trkpt lat="65.23134" lon="12.0864">
        <ele>24.271985</ele>
        <time>2020-07-16T07:18:22.056Z</time>
      </trkpt>
      <trkpt lat="65.23143" lon="12.08677">
        <ele>24.941042</ele>
        <time>2020-07-16T07:18:26.988Z</time>
      </trkpt>
      <trkpt lat="65.23147" lon="12.08692">
        <ele>25.214331</ele>
        <time>2020-07-16T07:18:29.879Z</time>
      </trkpt>
      <trkpt lat="65.23152" lon="12.08706">
        <ele>25.476728</ele>
        <time>2020-07-16T07:18:32.437Z</time>
      </trkpt>
      <trkpt lat="65.23176" lon="12.08785">
        <ele>26.997807</ele>
        <time>2020-07-16T07:18:45.522Z</time>
      </trkpt>
      <trkpt lat="65.23225" lon="12.08982">
        <ele>28.70607</ele>
        <time>2020-07-16T07:19:11.766Z</time>
      </trkpt>
      <trkpt lat="65.23251" lon="12.09057">
        <ele>29.296733</ele>
        <time>2020-07-16T07:19:20.179Z</time>
      </trkpt>
      <trkpt lat="65.23266" lon="12.09089">
        <ele>29.58862</ele>
        <time>2020-07-16T07:19:24.267Z</time>
      </trkpt>
      <trkpt lat="65.23286" lon="12.09128">
        <ele>29.969492</ele>
        <time>2020-07-16T07:19:28.464Z</time>
      </trkpt>
      <trkpt lat="65.23351" lon="12.09235">
        <ele>28.618725</ele>
        <time>2020-07-16T07:19:40.230Z</time>
      </trkpt>
      <trkpt lat="65.23416" lon="12.09319">
        <ele>26.939776</ele>
        <time>2020-07-16T07:19:50.146Z</time>
      </trkpt>
      <trkpt lat="65.23426" lon="12.09331">
        <ele>26.683014</ele>
        <time>2020-07-16T07:19:51.580Z</time>
      </trkpt>
      <trkpt lat="65.23439" lon="12.09352">
        <ele>26.335075</ele>
        <time>2020-07-16T07:19:53.633Z</time>
      </trkpt>
      <trkpt lat="65.23447" lon="12.09369">
        <ele>26.086113</ele>
        <time>2020-07-16T07:19:55.112Z</time>
      </trkpt>
      <trkpt lat="65.23455" lon="12.09388">
        <ele>25.663301</ele>
        <time>2020-07-16T07:19:56.551Z</time>
      </trkpt>
      <trkpt lat="65.23465" lon="12.0941">
        <ele>25.153703</ele>
        <time>2020-07-16T07:19:58.301Z</time>
      </trkpt>
      <trkpt lat="65.23492" lon="12.0949">
        <ele>23.505975</ele>
        <time>2020-07-16T07:20:03.886Z</time>
      </trkpt>
      <trkpt lat="65.23512" lon="12.09571">
        <ele>22.005069</ele>
        <time>2020-07-16T07:20:08.887Z</time>
      </trkpt>
      <trkpt lat="65.23569" lon="12.09947">
        <ele>15.447646</ele>
        <time>2020-07-16T07:20:29.663Z</time>
      </trkpt>
      <trkpt lat="65.23574" lon="12.10014">
        <ele>14.300012</ele>
        <time>2020-07-16T07:20:33.273Z</time>
      </trkpt>
      <trkpt lat="65.23581" lon="12.10123">
        <ele>12.458347</ele>
        <time>2020-07-16T07:20:39.264Z</time>
      </trkpt>
      <trkpt lat="65.23589" lon="12.10205">
        <ele>11.561551</ele>
        <time>2020-07-16T07:20:43.804Z</time>
      </trkpt>
      <trkpt lat="65.23596" lon="12.10236">
        <ele>11.278752</ele>
        <time>2020-07-16T07:20:45.768Z</time>
      </trkpt>
      <trkpt lat="65.23613" lon="12.10273">
        <ele>10.839568</ele>
        <time>2020-07-16T07:20:48.834Z</time>
      </trkpt>
      <trkpt lat="65.23644" lon="12.1031">
        <ele>10.188111</ele>
        <time>2020-07-16T07:20:53.581Z</time>
      </trkpt>
      <trkpt lat="65.23701" lon="12.10351">
        <ele>9.053186</ele>
        <time>2020-07-16T07:21:03.033Z</time>
      </trkpt>
      <trkpt lat="65.23711" lon="12.10357">
        <ele>8.859699</ele>
        <time>2020-07-16T07:21:04.548Z</time>
      </trkpt>
      <trkpt lat="65.23715" lon="12.10359">
        <ele>8.770065</ele>
        <time>2020-07-16T07:21:05.271Z</time>
      </trkpt>
      <trkpt lat="65.23754" lon="12.10401">
        <ele>8.599965</ele>
        <time>2020-07-16T07:21:12.257Z</time>
      </trkpt>
      <trkpt lat="65.23787" lon="12.10478">
        <ele>8.599917</ele>
        <time>2020-07-16T07:21:20.515Z</time>
      </trkpt>
      <trkpt lat="65.23811" lon="12.10573">
        <ele>8.599869</ele>
        <time>2020-07-16T07:21:28.847Z</time>
      </trkpt>
      <trkpt lat="65.23838" lon="12.10735">
        <ele>8.699219</ele>
        <time>2020-07-16T07:21:43.036Z</time>
      </trkpt>
      <trkpt lat="65.23849" lon="12.10829">
        <ele>8.908463</ele>
        <time>2020-07-16T07:21:50.994Z</time>
      </trkpt>
      <trkpt lat="65.23853" lon="12.10827">
        <ele>8.928447</ele>
        <time>2020-07-16T07:21:52.165Z</time>
      </trkpt>
      <trkpt lat="65.23857" lon="12.10825">
        <ele>8.952572</ele>
        <time>2020-07-16T07:21:53.588Z</time>
      </trkpt>
      <trkpt lat="65.23862" lon="12.10875">
        <ele>9.062848</ele>
        <time>2020-07-16T07:21:58.094Z</time>
      </trkpt>
      <trkpt lat="65.23878" lon="12.111">
        <ele>9.598211</ele>
        <time>2020-07-16T07:22:17.497Z</time>
      </trkpt>
      <trkpt lat="65.23881" lon="12.11177">
        <ele>9.999855</ele>
        <time>2020-07-16T07:22:23.985Z</time>
      </trkpt>
      <trkpt lat="65.23874" lon="12.11177">
        <ele>10.086119</ele>
        <time>2020-07-16T07:22:25.703Z</time>
      </trkpt>
      <trkpt lat="65.23874" lon="12.11191">
        <ele>10.163455</ele>
        <time>2020-07-16T07:22:27.363Z</time>
      </trkpt>
      <trkpt lat="65.23876" lon="12.11337">
        <ele>10.926339</ele>
        <time>2020-07-16T07:22:39.928Z</time>
      </trkpt>
      <trkpt lat="65.23876" lon="12.11349">
        <ele>10.987654</ele>
        <time>2020-07-16T07:22:41.027Z</time>
      </trkpt>
      <trkpt lat="65.23881" lon="12.11415">
        <ele>11.340619</ele>
        <time>2020-07-16T07:22:47.544Z</time>
      </trkpt>
      <trkpt lat="65.23891" lon="12.11466">
        <ele>11.630915</ele>
        <time>2020-07-16T07:22:53.340Z</time>
      </trkpt>
      <trkpt lat="65.23906" lon="12.1151">
        <ele>11.998101</ele>
        <time>2020-07-16T07:22:59.096Z</time>
      </trkpt>
      <trkpt lat="65.23907" lon="12.11513">
        <ele>12.029853</ele>
        <time>2020-07-16T07:22:59.874Z</time>
      </trkpt>
      <trkpt lat="65.23911" lon="12.1152">
        <ele>12.113278</ele>
        <time>2020-07-16T07:23:01.108Z</time>
      </trkpt>
      <trkpt lat="65.23921" lon="12.11539">
        <ele>12.342364</ele>
        <time>2020-07-16T07:23:04.172Z</time>
      </trkpt>
      <trkpt lat="65.23947" lon="12.11584">
        <ele>12.893159</ele>
        <time>2020-07-16T07:23:12.164Z</time>
      </trkpt>
      <trkpt lat="65.24054" lon="12.11772">
        <ele>14.891857</ele>
        <time>2020-07-16T07:23:43.449Z</time>
      </trkpt>
      <trkpt lat="65.24164" lon="12.11968">
        <ele>14.593005</ele>
        <time>2020-07-16T07:24:07.321Z</time>
      </trkpt>
      <trkpt lat="65.24232" lon="12.12075">
        <ele>13.045737</ele>
        <time>2020-07-16T07:24:18.847Z</time>
      </trkpt>
      <trkpt lat="65.24238" lon="12.12084">
        <ele>12.863865</ele>
        <time>2020-07-16T07:24:19.786Z</time>
      </trkpt>
      <trkpt lat="65.24242" lon="12.1209">
        <ele>12.727994</ele>
        <time>2020-07-16T07:24:20.515Z</time>
      </trkpt>
      <trkpt lat="65.24255" lon="12.12104">
        <ele>12.35158</ele>
        <time>2020-07-16T07:24:22.365Z</time>
      </trkpt>
      <trkpt lat="65.24333" lon="12.12195">
        <ele>10.062622</ele>
        <time>2020-07-16T07:24:33.679Z</time>
      </trkpt>
      <trkpt lat="65.24384" lon="12.12225">
        <ele>8.768088</ele>
        <time>2020-07-16T07:24:40.564Z</time>
      </trkpt>
      <trkpt lat="65.24402" lon="12.1223">
        <ele>8.34653</ele>
        <time>2020-07-16T07:24:42.875Z</time>
      </trkpt>
      <trkpt lat="65.2442" lon="12.12234">
        <ele>7.906291</ele>
        <time>2020-07-16T07:24:45.418Z</time>
      </trkpt>
      <trkpt lat="65.24565" lon="12.12254">
        <ele>5.275913</ele>
        <time>2020-07-16T07:25:05.853Z</time>
      </trkpt>
      <trkpt lat="65.24599" lon="12.1226">
        <ele>5.122987</ele>
        <time>2020-07-16T07:25:11.566Z</time>
      </trkpt>
      <trkpt lat="65.24743" lon="12.12283">
        <ele>4.904892</ele>
        <time>2020-07-16T07:25:38.307Z</time>
      </trkpt>
      <trkpt lat="65.24826" lon="12.12278">
        <ele>5.390525</ele>
        <time>2020-07-16T07:25:55.520Z</time>
      </trkpt>
      <trkpt lat="65.24844" lon="12.12272">
        <ele>5.499527</ele>
        <time>2020-07-16T07:25:59.355Z</time>
      </trkpt>
      <trkpt lat="65.24866" lon="12.12263">
        <ele>5.627659</ele>
        <time>2020-07-16T07:26:03.615Z</time>
      </trkpt>
      <trkpt lat="65.24943" lon="12.12225">
        <ele>5.607602</ele>
        <time>2020-07-16T07:26:18.600Z</time>
      </trkpt>
      <trkpt lat="65.24952" lon="12.12221">
        <ele>5.593078</ele>
        <time>2020-07-16T07:26:20.192Z</time>
      </trkpt>
      <trkpt lat="65.24981" lon="12.12206">
        <ele>5.543905</ele>
        <time>2020-07-16T07:26:25.227Z</time>
      </trkpt>
      <trkpt lat="65.25029" lon="12.12195">
        <ele>5.463639</ele>
        <time>2020-07-16T07:26:33.178Z</time>
      </trkpt>
      <trkpt lat="65.2508" lon="12.12218">
        <ele>5.227066</ele>
        <time>2020-07-16T07:26:41.482Z</time>
      </trkpt>
      <trkpt lat="65.25091" lon="12.12227">
        <ele>5.138515</ele>
        <time>2020-07-16T07:26:43.201Z</time>
      </trkpt>
      <trkpt lat="65.25111" lon="12.12242">
        <ele>4.965645</ele>
        <time>2020-07-16T07:26:46.538Z</time>
      </trkpt>
      <trkpt lat="65.25151" lon="12.12287">
        <ele>4.612502</ele>
        <time>2020-07-16T07:26:53.343Z</time>
      </trkpt>
      <trkpt lat="65.25277" lon="12.12468">
        <ele>3.909343</ele>
        <time>2020-07-16T07:27:17.058Z</time>
      </trkpt>
      <trkpt lat="65.25295" lon="12.12493">
        <ele>3.891689</ele>
        <time>2020-07-16T07:27:20.662Z</time>
      </trkpt>
      <trkpt lat="65.25313" lon="12.12515">
        <ele>3.874669</ele>
        <time>2020-07-16T07:27:24.219Z</time>
      </trkpt>
      <trkpt lat="65.25487" lon="12.12675">
        <ele>4.189922</ele>
        <time>2020-07-16T07:28:00.027Z</time>
      </trkpt>
      <trkpt lat="65.25507" lon="12.12713">
        <ele>4.273426</ele>
        <time>2020-07-16T07:28:04.786Z</time>
      </trkpt>
      <trkpt lat="65.25527" lon="12.12798">
        <ele>4.401776</ele>
        <time>2020-07-16T07:28:12.526Z</time>
      </trkpt>
      <trkpt lat="65.25529" lon="12.12815">
        <ele>4.377189</ele>
        <time>2020-07-16T07:28:14.103Z</time>
      </trkpt>
      <trkpt lat="65.25538" lon="12.12882">
        <ele>4.277709</ele>
        <time>2020-07-16T07:28:19.229Z</time>
      </trkpt>
      <trkpt lat="65.25613" lon="12.13532">
        <ele>3.195566</ele>
        <time>2020-07-16T07:29:05.849Z</time>
      </trkpt>
      <trkpt lat="65.25627" lon="12.13621">
        <ele>3.026729</ele>
        <time>2020-07-16T07:29:12.411Z</time>
      </trkpt>
      <trkpt lat="65.25658" lon="12.13722">
        <ele>3.309383</ele>
        <time>2020-07-16T07:29:21.795Z</time>
      </trkpt>
      <trkpt lat="65.25682" lon="12.13765">
        <ele>3.468808</ele>
        <time>2020-07-16T07:29:27.346Z</time>
      </trkpt>
      <trkpt lat="65.2571" lon="12.13795">
        <ele>3.637186</ele>
        <time>2020-07-16T07:29:33.436Z</time>
      </trkpt>
      <trkpt lat="65.25749" lon="12.13828">
        <ele>3.86075</ele>
        <time>2020-07-16T07:29:41.910Z</time>
      </trkpt>
      <trkpt lat="65.25775" lon="12.1385">
        <ele>4.032882</ele>
        <time>2020-07-16T07:29:47.858Z</time>
      </trkpt>
      <trkpt lat="65.25854" lon="12.13922">
        <ele>5.427855</ele>
        <time>2020-07-16T07:30:07.443Z</time>
      </trkpt>
      <trkpt lat="65.25913" lon="12.13982">
        <ele>6.487211</ele>
        <time>2020-07-16T07:30:22.899Z</time>
      </trkpt>
      <trkpt lat="65.25956" lon="12.14029">
        <ele>7.254886</ele>
        <time>2020-07-16T07:30:33.908Z</time>
      </trkpt>
      <trkpt lat="65.25982" lon="12.14063">
        <ele>7.736474</ele>
        <time>2020-07-16T07:30:40.874Z</time>
      </trkpt>
      <trkpt lat="65.26245" lon="12.14418">
        <ele>12.664916</ele>
        <time>2020-07-16T07:31:49.838Z</time>
      </trkpt>
      <trkpt lat="65.26256" lon="12.14429">
        <ele>12.850896</ele>
        <time>2020-07-16T07:31:52.692Z</time>
      </trkpt>
      <trkpt lat="65.26267" lon="12.14441">
        <ele>13.039855</ele>
        <time>2020-07-16T07:31:55.982Z</time>
      </trkpt>
      <trkpt lat="65.26335" lon="12.14494">
        <ele>14.103039</ele>
        <time>2020-07-16T07:32:13.099Z</time>
      </trkpt>
      <trkpt lat="65.26397" lon="12.14516">
        <ele>15.037746</ele>
        <time>2020-07-16T07:32:27.344Z</time>
      </trkpt>
      <trkpt lat="65.26417" lon="12.14519">
        <ele>15.330654</ele>
        <time>2020-07-16T07:32:31.769Z</time>
      </trkpt>
      <trkpt lat="65.26519" lon="12.14532">
        <ele>15.354794</ele>
        <time>2020-07-16T07:32:50.585Z</time>
      </trkpt>
      <trkpt lat="65.26562" lon="12.14537">
        <ele>15.284617</ele>
        <time>2020-07-16T07:32:57.733Z</time>
      </trkpt>
      <trkpt lat="65.26653" lon="12.14548">
        <ele>14.769575</ele>
        <time>2020-07-16T07:33:11.776Z</time>
      </trkpt>
      <trkpt lat="65.26723" lon="12.14557">
        <ele>14.086001</ele>
        <time>2020-07-16T07:33:22.555Z</time>
      </trkpt>
      <trkpt lat="65.26747" lon="12.1456">
        <ele>13.845743</ele>
        <time>2020-07-16T07:33:26.367Z</time>
      </trkpt>
      <trkpt lat="65.26862" lon="12.14573">
        <ele>13.020284</ele>
        <time>2020-07-16T07:33:44.414Z</time>
      </trkpt>
      <trkpt lat="65.26919" lon="12.14577">
        <ele>12.69217</ele>
        <time>2020-07-16T07:33:53.757Z</time>
      </trkpt>
      <trkpt lat="65.26923" lon="12.14577">
        <ele>12.664254</ele>
        <time>2020-07-16T07:33:54.500Z</time>
      </trkpt>
      <trkpt lat="65.26943" lon="12.14577">
        <ele>12.550272</ele>
        <time>2020-07-16T07:33:57.862Z</time>
      </trkpt>
      <trkpt lat="65.26954" lon="12.14575">
        <ele>12.487402</ele>
        <time>2020-07-16T07:33:59.724Z</time>
      </trkpt>
      <trkpt lat="65.26969" lon="12.14573">
        <ele>12.413384</ele>
        <time>2020-07-16T07:34:02.344Z</time>
      </trkpt>
      <trkpt lat="65.26988" lon="12.1457">
        <ele>12.44583</ele>
        <time>2020-07-16T07:34:05.560Z</time>
      </trkpt>
      <trkpt lat="65.26997" lon="12.14567">
        <ele>12.462536</ele>
        <time>2020-07-16T07:34:07.109Z</time>
      </trkpt>
      <trkpt lat="65.27003" lon="12.14566">
        <ele>12.47296</ele>
        <time>2020-07-16T07:34:08.140Z</time>
      </trkpt>
      <trkpt lat="65.27032" lon="12.14559">
        <ele>12.525951</ele>
        <time>2020-07-16T07:34:13.355Z</time>
      </trkpt>
      <trkpt lat="65.27196" lon="12.1451">
        <ele>13.074231</ele>
        <time>2020-07-16T07:34:44.882Z</time>
      </trkpt>
      <trkpt lat="65.27252" lon="12.14515">
        <ele>13.453379</ele>
        <time>2020-07-16T07:34:56.216Z</time>
      </trkpt>
      <trkpt lat="65.2726" lon="12.14518">
        <ele>13.505985</ele>
        <time>2020-07-16T07:34:57.847Z</time>
      </trkpt>
      <trkpt lat="65.27274" lon="12.14523">
        <ele>13.599612</ele>
        <time>2020-07-16T07:35:00.716Z</time>
      </trkpt>
      <trkpt lat="65.273" lon="12.14534">
        <ele>13.780529</ele>
        <time>2020-07-16T07:35:06.156Z</time>
      </trkpt>
      <trkpt lat="65.27352" lon="12.1456">
        <ele>14.195467</ele>
        <time>2020-07-16T07:35:17.100Z</time>
      </trkpt>
      <trkpt lat="65.27367" lon="12.14568">
        <ele>14.332625</ele>
        <time>2020-07-16T07:35:20.380Z</time>
      </trkpt>
      <trkpt lat="65.27371" lon="12.1457">
        <ele>14.363</ele>
        <time>2020-07-16T07:35:21.117Z</time>
      </trkpt>
      <trkpt lat="65.27383" lon="12.14576">
        <ele>14.474579</ele>
        <time>2020-07-16T07:35:23.790Z</time>
      </trkpt>
      <trkpt lat="65.27451" lon="12.14612">
        <ele>15.080213</ele>
        <time>2020-07-16T07:35:38.249Z</time>
      </trkpt>
      <trkpt lat="65.27514" lon="12.14645">
        <ele>15.594553</ele>
        <time>2020-07-16T07:35:51.531Z</time>
      </trkpt>
      <trkpt lat="65.27661" lon="12.14725">
        <ele>16.42568</ele>
        <time>2020-07-16T07:36:21.322Z</time>
      </trkpt>
      <trkpt lat="65.27817" lon="12.14809">
        <ele>16.428147</ele>
        <time>2020-07-16T07:36:49.945Z</time>
      </trkpt>
      <trkpt lat="65.27865" lon="12.14834">
        <ele>16.331588</ele>
        <time>2020-07-16T07:36:58.201Z</time>
      </trkpt>
      <trkpt lat="65.27901" lon="12.1485">
        <ele>16.142489</ele>
        <time>2020-07-16T07:37:04.160Z</time>
      </trkpt>
      <trkpt lat="65.27906" lon="12.14852">
        <ele>16.115809</ele>
        <time>2020-07-16T07:37:04.988Z</time>
      </trkpt>
      <trkpt lat="65.27965" lon="12.14872">
        <ele>15.803521</ele>
        <time>2020-07-16T07:37:14.691Z</time>
      </trkpt>
      <trkpt lat="65.28048" lon="12.14903">
        <ele>15.398014</ele>
        <time>2020-07-16T07:37:28.220Z</time>
      </trkpt>
      <trkpt lat="65.28107" lon="12.14925">
        <ele>15.183767</ele>
        <time>2020-07-16T07:37:38.161Z</time>
      </trkpt>
      <trkpt lat="65.28148" lon="12.14943">
        <ele>15.036284</ele>
        <time>2020-07-16T07:37:45.224Z</time>
      </trkpt>
      <trkpt lat="65.28159" lon="12.14949">
        <ele>14.998068</ele>
        <time>2020-07-16T07:37:47.071Z</time>
      </trkpt>
      <trkpt lat="65.28173" lon="12.14957">
        <ele>14.94835</ele>
        <time>2020-07-16T07:37:49.475Z</time>
      </trkpt>
      <trkpt lat="65.28244" lon="12.15007">
        <ele>14.897524</ele>
        <time>2020-07-16T07:38:02.573Z</time>
      </trkpt>
      <trkpt lat="65.2827" lon="12.15026">
        <ele>14.941962</ele>
        <time>2020-07-16T07:38:07.524Z</time>
      </trkpt>
      <trkpt lat="65.28355" lon="12.15089">
        <ele>15.089093</ele>
        <time>2020-07-16T07:38:24.309Z</time>
      </trkpt>
      <trkpt lat="65.28638" lon="12.15293">
        <ele>16.361425</ele>
        <time>2020-07-16T07:39:20.967Z</time>
      </trkpt>
      <trkpt lat="65.28737" lon="12.15366">
        <ele>16.900198</ele>
        <time>2020-07-16T07:39:41.360Z</time>
      </trkpt>
      <trkpt lat="65.28805" lon="12.15415">
        <ele>17.320229</ele>
        <time>2020-07-16T07:39:55.443Z</time>
      </trkpt>
      <trkpt lat="65.28877" lon="12.15468">
        <ele>17.768831</ele>
        <time>2020-07-16T07:40:10.312Z</time>
      </trkpt>
      <trkpt lat="65.28986" lon="12.15547">
        <ele>18.313985</ele>
        <time>2020-07-16T07:40:32.656Z</time>
      </trkpt>
      <trkpt lat="65.29085" lon="12.15621">
        <ele>18.727373</ele>
        <time>2020-07-16T07:40:52.272Z</time>
      </trkpt>
      <trkpt lat="65.29132" lon="12.15654">
        <ele>18.805792</ele>
        <time>2020-07-16T07:41:01.365Z</time>
      </trkpt>
      <trkpt lat="65.29228" lon="12.15726">
        <ele>18.96784</ele>
        <time>2020-07-16T07:41:19.834Z</time>
      </trkpt>
      <trkpt lat="65.29452" lon="12.1589">
        <ele>18.989655</ele>
        <time>2020-07-16T07:42:01.530Z</time>
      </trkpt>
      <trkpt lat="65.29459" lon="12.15895">
        <ele>18.987935</ele>
        <time>2020-07-16T07:42:02.869Z</time>
      </trkpt>
      <trkpt lat="65.29559" lon="12.15968">
        <ele>18.963925</ele>
        <time>2020-07-16T07:42:21.530Z</time>
      </trkpt>
      <trkpt lat="65.29582" lon="12.15986">
        <ele>18.955701</ele>
        <time>2020-07-16T07:42:25.808Z</time>
      </trkpt>
      <trkpt lat="65.29683" lon="12.16059">
        <ele>18.756818</ele>
        <time>2020-07-16T07:42:44.109Z</time>
      </trkpt>
      <trkpt lat="65.29691" lon="12.16065">
        <ele>18.740275</ele>
        <time>2020-07-16T07:42:45.610Z</time>
      </trkpt>
      <trkpt lat="65.29901" lon="12.16198">
        <ele>18.205654</ele>
        <time>2020-07-16T07:43:22.491Z</time>
      </trkpt>
      <trkpt lat="65.29935" lon="12.16217">
        <ele>18.112605</ele>
        <time>2020-07-16T07:43:28.533Z</time>
      </trkpt>
      <trkpt lat="65.30104" lon="12.16324">
        <ele>17.675004</ele>
        <time>2020-07-16T07:43:58.528Z</time>
      </trkpt>
      <trkpt lat="65.30191" lon="12.16378">
        <ele>17.3833</ele>
        <time>2020-07-16T07:44:13.747Z</time>
      </trkpt>
      <trkpt lat="65.30226" lon="12.164">
        <ele>17.268613</ele>
        <time>2020-07-16T07:44:19.728Z</time>
      </trkpt>
      <trkpt lat="65.30292" lon="12.16441">
        <ele>17.059377</ele>
        <time>2020-07-16T07:44:31.219Z</time>
      </trkpt>
      <trkpt lat="65.30337" lon="12.1647">
        <ele>16.940059</ele>
        <time>2020-07-16T07:44:39.299Z</time>
      </trkpt>
      <trkpt lat="65.30389" lon="12.16504">
        <ele>16.805028</ele>
        <time>2020-07-16T07:44:48.521Z</time>
      </trkpt>
      <trkpt lat="65.30509" lon="12.16579">
        <ele>16.544444</ele>
        <time>2020-07-16T07:45:09.666Z</time>
      </trkpt>
      <trkpt lat="65.30547" lon="12.16602">
        <ele>16.47919</ele>
        <time>2020-07-16T07:45:16.298Z</time>
      </trkpt>
      <trkpt lat="65.30558" lon="12.1661">
        <ele>16.458937</ele>
        <time>2020-07-16T07:45:18.376Z</time>
      </trkpt>
      <trkpt lat="65.30652" lon="12.16669">
        <ele>16.507088</ele>
        <time>2020-07-16T07:45:35.560Z</time>
      </trkpt>
      <trkpt lat="65.30688" lon="12.16691">
        <ele>16.708637</ele>
        <time>2020-07-16T07:45:42.585Z</time>
      </trkpt>
      <trkpt lat="65.30695" lon="12.16694">
        <ele>16.743509</ele>
        <time>2020-07-16T07:45:43.871Z</time>
      </trkpt>
      <trkpt lat="65.30722" lon="12.16708">
        <ele>16.893732</ele>
        <time>2020-07-16T07:45:49.167Z</time>
      </trkpt>
      <trkpt lat="65.3073" lon="12.16711">
        <ele>16.935771</ele>
        <time>2020-07-16T07:45:50.793Z</time>
      </trkpt>
      <trkpt lat="65.30745" lon="12.16716">
        <ele>17.0217</ele>
        <time>2020-07-16T07:45:54.027Z</time>
      </trkpt>
      <trkpt lat="65.30767" lon="12.16722">
        <ele>17.140255</ele>
        <time>2020-07-16T07:45:58.490Z</time>
      </trkpt>
      <trkpt lat="65.30767" lon="12.16729">
        <ele>17.156977</ele>
        <time>2020-07-16T07:45:59.133Z</time>
      </trkpt>
      <trkpt lat="65.30767" lon="12.16741">
        <ele>17.18231</ele>
        <time>2020-07-16T07:46:00.197Z</time>
      </trkpt>
      <trkpt lat="65.3077" lon="12.16741">
        <ele>17.199562</ele>
        <time>2020-07-16T07:46:01.045Z</time>
      </trkpt>
      <trkpt lat="65.30784" lon="12.16743">
        <ele>17.274011</ele>
        <time>2020-07-16T07:46:03.837Z</time>
      </trkpt>
      <trkpt lat="65.30786" lon="12.16743">
        <ele>17.288554</ele>
        <time>2020-07-16T07:46:04.472Z</time>
      </trkpt>
      <trkpt lat="65.30813" lon="12.16744">
        <ele>17.607002</ele>
        <time>2020-07-16T07:46:10.462Z</time>
      </trkpt>
      <trkpt lat="65.30824" lon="12.16744">
        <ele>17.753114</ele>
        <time>2020-07-16T07:46:12.846Z</time>
      </trkpt>
      <trkpt lat="65.30835" lon="12.16744">
        <ele>17.903212</ele>
        <time>2020-07-16T07:46:15.402Z</time>
      </trkpt>
      <trkpt lat="65.30863" lon="12.16746">
        <ele>18.268614</ele>
        <time>2020-07-16T07:46:21.646Z</time>
      </trkpt>
      <trkpt lat="65.3087" lon="12.16746">
        <ele>18.360326</ele>
        <time>2020-07-16T07:46:23.237Z</time>
      </trkpt>
      <trkpt lat="65.30872" lon="12.16745">
        <ele>18.392225</ele>
        <time>2020-07-16T07:46:23.853Z</time>
      </trkpt>
      <trkpt lat="65.30909" lon="12.16747">
        <ele>18.886402</ele>
        <time>2020-07-16T07:46:32.513Z</time>
      </trkpt>
      <trkpt lat="65.30912" lon="12.16747">
        <ele>18.918325</ele>
        <time>2020-07-16T07:46:33.267Z</time>
      </trkpt>
      <trkpt lat="65.30986" lon="12.16749">
        <ele>19.818566</ele>
        <time>2020-07-16T07:46:50.349Z</time>
      </trkpt>
      <trkpt lat="65.31022" lon="12.16749">
        <ele>20.101371</ele>
        <time>2020-07-16T07:46:58.541Z</time>
      </trkpt>
      <trkpt lat="65.31025" lon="12.16749">
        <ele>20.124048</ele>
        <time>2020-07-16T07:46:59.178Z</time>
      </trkpt>
      <trkpt lat="65.31054" lon="12.16751">
        <ele>20.349128</ele>
        <time>2020-07-16T07:47:05.275Z</time>
      </trkpt>
      <trkpt lat="65.31113" lon="12.16751">
        <ele>20.815526</ele>
        <time>2020-07-16T07:47:17.812Z</time>
      </trkpt>
      <trkpt lat="65.31142" lon="12.16753">
        <ele>21.042122</ele>
        <time>2020-07-16T07:47:23.533Z</time>
      </trkpt>
      <trkpt lat="65.31164" lon="12.16753">
        <ele>21.010815</ele>
        <time>2020-07-16T07:47:27.814Z</time>
      </trkpt>
      <trkpt lat="65.31168" lon="12.16753">
        <ele>20.987425</ele>
        <time>2020-07-16T07:47:28.421Z</time>
      </trkpt>
      <trkpt lat="65.31191" lon="12.16753">
        <ele>20.816518</ele>
        <time>2020-07-16T07:47:32.785Z</time>
      </trkpt>
      <trkpt lat="65.31245" lon="12.16754">
        <ele>20.422119</ele>
        <time>2020-07-16T07:47:41.825Z</time>
      </trkpt>
      <trkpt lat="65.31248" lon="12.16754">
        <ele>20.402399</ele>
        <time>2020-07-16T07:47:42.265Z</time>
      </trkpt>
      <trkpt lat="65.31254" lon="12.16753">
        <ele>20.357113</ele>
        <time>2020-07-16T07:47:43.326Z</time>
      </trkpt>
      <trkpt lat="65.31257" lon="12.16754">
        <ele>20.336642</ele>
        <time>2020-07-16T07:47:43.740Z</time>
      </trkpt>
      <trkpt lat="65.31265" lon="12.16754">
        <ele>20.273074</ele>
        <time>2020-07-16T07:47:45.103Z</time>
      </trkpt>
      <trkpt lat="65.31341" lon="12.16786">
        <ele>19.616217</ele>
        <time>2020-07-16T07:47:57.164Z</time>
      </trkpt>
      <trkpt lat="65.3135" lon="12.16792">
        <ele>19.471593</ele>
        <time>2020-07-16T07:47:58.605Z</time>
      </trkpt>
      <trkpt lat="65.31354" lon="12.16794">
        <ele>19.412561</ele>
        <time>2020-07-16T07:47:59.200Z</time>
      </trkpt>
      <trkpt lat="65.31359" lon="12.16796">
        <ele>19.3316</ele>
        <time>2020-07-16T07:48:00.058Z</time>
      </trkpt>
      <trkpt lat="65.31362" lon="12.16795">
        <ele>19.294398</ele>
        <time>2020-07-16T07:48:00.422Z</time>
      </trkpt>
      <trkpt lat="65.31363" lon="12.16794">
        <ele>19.265365</ele>
        <time>2020-07-16T07:48:00.672Z</time>
      </trkpt>
      <trkpt lat="65.31387" lon="12.16789">
        <ele>18.89796</ele>
        <time>2020-07-16T07:48:04.374Z</time>
      </trkpt>
      <trkpt lat="65.31403" lon="12.16796">
        <ele>18.64713</ele>
        <time>2020-07-16T07:48:06.821Z</time>
      </trkpt>
      <trkpt lat="65.31477" lon="12.16829">
        <ele>17.486814</ele>
        <time>2020-07-16T07:48:18.248Z</time>
      </trkpt>
      <trkpt lat="65.31553" lon="12.16872">
        <ele>16.458768</ele>
        <time>2020-07-16T07:48:30.382Z</time>
      </trkpt>
      <trkpt lat="65.31577" lon="12.16898">
        <ele>16.150367</ele>
        <time>2020-07-16T07:48:34.598Z</time>
      </trkpt>
      <trkpt lat="65.31583" lon="12.16904">
        <ele>16.07227</ele>
        <time>2020-07-16T07:48:35.622Z</time>
      </trkpt>
      <trkpt lat="65.31587" lon="12.16881">
        <ele>15.952874</ele>
        <time>2020-07-16T07:48:37.308Z</time>
      </trkpt>
      <trkpt lat="65.31588" lon="12.16875">
        <ele>15.923473</ele>
        <time>2020-07-16T07:48:37.709Z</time>
      </trkpt>
      <trkpt lat="65.31592" lon="12.16879">
        <ele>15.865014</ele>
        <time>2020-07-16T07:48:38.505Z</time>
      </trkpt>
      <trkpt lat="65.317" lon="12.1695">
        <ele>14.54405</ele>
        <time>2020-07-16T07:48:55.802Z</time>
      </trkpt>
      <trkpt lat="65.31707" lon="12.16954">
        <ele>14.458515</ele>
        <time>2020-07-16T07:48:56.836Z</time>
      </trkpt>
      <trkpt lat="65.31803" lon="12.17017">
        <ele>13.277426</ele>
        <time>2020-07-16T07:49:11.899Z</time>
      </trkpt>
      <trkpt lat="65.31935" lon="12.17104">
        <ele>11.856499</ele>
        <time>2020-07-16T07:49:32.502Z</time>
      </trkpt>
      <trkpt lat="65.32043" lon="12.17174">
        <ele>11.066355</ele>
        <time>2020-07-16T07:49:50.202Z</time>
      </trkpt>
      <trkpt lat="65.32213" lon="12.17289">
        <ele>11.708734</ele>
        <time>2020-07-16T07:50:23.023Z</time>
      </trkpt>
      <trkpt lat="65.3241" lon="12.17457">
        <ele>16.137039</ele>
        <time>2020-07-16T07:51:14.972Z</time>
      </trkpt>
      <trkpt lat="65.32644" lon="12.17659">
        <ele>22.407293</ele>
        <time>2020-07-16T07:52:25.918Z</time>
      </trkpt>
      <trkpt lat="65.32712" lon="12.17717">
        <ele>23.322219</ele>
        <time>2020-07-16T07:52:39.749Z</time>
      </trkpt>
      <trkpt lat="65.32817" lon="12.17809">
        <ele>20.850213</ele>
        <time>2020-07-16T07:52:55.056Z</time>
      </trkpt>
      <trkpt lat="65.32846" lon="12.17837">
        <ele>20.159994</ele>
        <time>2020-07-16T07:52:59.104Z</time>
      </trkpt>
      <trkpt lat="65.32874" lon="12.1787">
        <ele>19.399735</ele>
        <time>2020-07-16T07:53:03.176Z</time>
      </trkpt>
      <trkpt lat="65.32963" lon="12.18021">
        <ele>16.146544</ele>
        <time>2020-07-16T07:53:17.122Z</time>
      </trkpt>
      <trkpt lat="65.33024" lon="12.18126">
        <ele>14.093072</ele>
        <time>2020-07-16T07:53:27.462Z</time>
      </trkpt>
      <trkpt lat="65.33055" lon="12.1818">
        <ele>13.607243</ele>
        <time>2020-07-16T07:53:32.988Z</time>
      </trkpt>
      <trkpt lat="65.33211" lon="12.18448">
        <ele>11.838996</ele>
        <time>2020-07-16T07:54:03.173Z</time>
      </trkpt>
      <trkpt lat="65.33523" lon="12.18983">
        <ele>11.697487</ele>
        <time>2020-07-16T07:55:13.730Z</time>
      </trkpt>
      <trkpt lat="65.33585" lon="12.19061">
        <ele>11.562323</ele>
        <time>2020-07-16T07:55:25.390Z</time>
      </trkpt>
      <trkpt lat="65.337" lon="12.19171">
        <ele>10.704703</ele>
        <time>2020-07-16T07:55:44.958Z</time>
      </trkpt>
      <trkpt lat="65.33831" lon="12.19338">
        <ele>9.783951</ele>
        <time>2020-07-16T07:56:08.321Z</time>
      </trkpt>
      <trkpt lat="65.33849" lon="12.19361">
        <ele>9.700419</ele>
        <time>2020-07-16T07:56:11.718Z</time>
      </trkpt>
      <trkpt lat="65.3389" lon="12.19414">
        <ele>9.514834</ele>
        <time>2020-07-16T07:56:19.612Z</time>
      </trkpt>
      <trkpt lat="65.3397" lon="12.1952">
        <ele>9.522496</ele>
        <time>2020-07-16T07:56:36.196Z</time>
      </trkpt>
      <trkpt lat="65.33989" lon="12.19549">
        <ele>9.613669</ele>
        <time>2020-07-16T07:56:40.552Z</time>
      </trkpt>
      <trkpt lat="65.34005" lon="12.1957">
        <ele>9.686805</ele>
        <time>2020-07-16T07:56:44.123Z</time>
      </trkpt>
      <trkpt lat="65.34061" lon="12.19656">
        <ele>9.952159</ele>
        <time>2020-07-16T07:56:57.047Z</time>
      </trkpt>
      <trkpt lat="65.34075" lon="12.19681">
        <ele>10.018548</ele>
        <time>2020-07-16T07:57:00.434Z</time>
      </trkpt>
      <trkpt lat="65.34076" lon="12.19677">
        <ele>10.027494</ele>
        <time>2020-07-16T07:57:00.834Z</time>
      </trkpt>
      <trkpt lat="65.34099" lon="12.19538">
        <ele>10.533014</ele>
        <time>2020-07-16T07:57:13.362Z</time>
      </trkpt>
      <trkpt lat="65.34104" lon="12.1951">
        <ele>10.641642</ele>
        <time>2020-07-16T07:57:16.134Z</time>
      </trkpt>
      <trkpt lat="65.34127" lon="12.19361">
        <ele>11.211723</ele>
        <time>2020-07-16T07:57:30.041Z</time>
      </trkpt>
      <trkpt lat="65.34158" lon="12.19211">
        <ele>11.761365</ele>
        <time>2020-07-16T07:57:44.283Z</time>
      </trkpt>
      <trkpt lat="65.34161" lon="12.19205">
        <ele>11.787893</ele>
        <time>2020-07-16T07:57:45.245Z</time>
      </trkpt>
      <trkpt lat="65.3417" lon="12.19197">
        <ele>11.85058</ele>
        <time>2020-07-16T07:57:47.336Z</time>
      </trkpt>
      <trkpt lat="65.34258" lon="12.19183">
        <ele>12.442947</ele>
        <time>2020-07-16T07:58:05.038Z</time>
      </trkpt>
      <trkpt lat="65.34382" lon="12.19144">
        <ele>13.216666</ele>
        <time>2020-07-16T07:58:29.143Z</time>
      </trkpt>
      <trkpt lat="65.34393" lon="12.1914">
        <ele>13.282035</ele>
        <time>2020-07-16T07:58:31.112Z</time>
      </trkpt>
      <trkpt lat="65.34409" lon="12.19135">
        <ele>13.375423</ele>
        <time>2020-07-16T07:58:34.192Z</time>
      </trkpt>
      <trkpt lat="65.34438" lon="12.19127">
        <ele>13.542425</ele>
        <time>2020-07-16T07:58:39.527Z</time>
      </trkpt>
      <trkpt lat="65.34454" lon="12.19122">
        <ele>13.635052</ele>
        <time>2020-07-16T07:58:42.668Z</time>
      </trkpt>
      <trkpt lat="65.34488" lon="12.19118">
        <ele>13.833559</ele>
        <time>2020-07-16T07:58:49.897Z</time>
      </trkpt>
      <trkpt lat="65.34558" lon="12.19144">
        <ele>14.692118</ele>
        <time>2020-07-16T07:59:05.758Z</time>
      </trkpt>
      <trkpt lat="65.34592" lon="12.19132">
        <ele>15.107079</ele>
        <time>2020-07-16T07:59:13.733Z</time>
      </trkpt>
      <trkpt lat="65.34609" lon="12.19119">
        <ele>15.324174</ele>
        <time>2020-07-16T07:59:17.849Z</time>
      </trkpt>
      <trkpt lat="65.34632" lon="12.19098">
        <ele>15.625348</ele>
        <time>2020-07-16T07:59:23.546Z</time>
      </trkpt>
      <trkpt lat="65.34673" lon="12.19058">
        <ele>16.021738</ele>
        <time>2020-07-16T07:59:32.150Z</time>
      </trkpt>
      <trkpt lat="65.3468" lon="12.1905">
        <ele>16.018902</ele>
        <time>2020-07-16T07:59:33.971Z</time>
      </trkpt>
      <trkpt lat="65.347" lon="12.19019">
        <ele>16.010461</ele>
        <time>2020-07-16T07:59:38.422Z</time>
      </trkpt>
      <trkpt lat="65.34721" lon="12.18986">
        <ele>16.00122</ele>
        <time>2020-07-16T07:59:43.425Z</time>
      </trkpt>
      <trkpt lat="65.3476" lon="12.18949">
        <ele>15.986246</ele>
        <time>2020-07-16T07:59:50.829Z</time>
      </trkpt>
      <trkpt lat="65.34764" lon="12.18948">
        <ele>15.98487</ele>
        <time>2020-07-16T07:59:51.330Z</time>
      </trkpt>
      <trkpt lat="65.34777" lon="12.18934">
        <ele>15.979515</ele>
        <time>2020-07-16T07:59:53.854Z</time>
      </trkpt>
      <trkpt lat="65.34816" lon="12.18897">
        <ele>15.964402</ele>
        <time>2020-07-16T08:00:00.651Z</time>
      </trkpt>
      <trkpt lat="65.34852" lon="12.18843">
        <ele>15.966138</ele>
        <time>2020-07-16T08:00:07.220Z</time>
      </trkpt>
      <trkpt lat="65.3486" lon="12.18826">
        <ele>15.967826</ele>
        <time>2020-07-16T08:00:08.736Z</time>
      </trkpt>
      <trkpt lat="65.34864" lon="12.18818">
        <ele>15.968592</ele>
        <time>2020-07-16T08:00:09.477Z</time>
      </trkpt>
      <trkpt lat="65.35035" lon="12.18474">
        <ele>17.547893</ele>
        <time>2020-07-16T08:00:52.484Z</time>
      </trkpt>
      <trkpt lat="65.35061" lon="12.18402">
        <ele>18.230559</ele>
        <time>2020-07-16T08:01:02.320Z</time>
      </trkpt>
      <trkpt lat="65.35085" lon="12.18317">
        <ele>18.955137</ele>
        <time>2020-07-16T08:01:14.461Z</time>
      </trkpt>
      <trkpt lat="65.35094" lon="12.18289">
        <ele>19.419569</ele>
        <time>2020-07-16T08:01:19.136Z</time>
      </trkpt>
      <trkpt lat="65.35141" lon="12.18131">
        <ele>22.634667</ele>
        <time>2020-07-16T08:01:43.515Z</time>
      </trkpt>
      <trkpt lat="65.35156" lon="12.18081">
        <ele>23.674888</ele>
        <time>2020-07-16T08:01:52.282Z</time>
      </trkpt>
      <trkpt lat="65.35284" lon="12.17663">
        <ele>31.400848</ele>
        <time>2020-07-16T08:02:58.359Z</time>
      </trkpt>
      <trkpt lat="65.35567" lon="12.17338">
        <ele>34.748481</ele>
        <time>2020-07-16T08:04:06.630Z</time>
      </trkpt>
      <trkpt lat="65.35749" lon="12.1732">
        <ele>31.820976</ele>
        <time>2020-07-16T08:04:32.609Z</time>
      </trkpt>
      <trkpt lat="65.3593" lon="12.17402">
        <ele>25.960905</ele>
        <time>2020-07-16T08:04:55.887Z</time>
      </trkpt>
      <trkpt lat="65.36075" lon="12.17491">
        <ele>21.451986</ele>
        <time>2020-07-16T08:05:15.727Z</time>
      </trkpt>
      <trkpt lat="65.36173" lon="12.17523">
        <ele>18.870656</ele>
        <time>2020-07-16T08:05:29.630Z</time>
      </trkpt>
      <trkpt lat="65.36192" lon="12.17519">
        <ele>18.223307</ele>
        <time>2020-07-16T08:05:32.185Z</time>
      </trkpt>
      <trkpt lat="65.36204" lon="12.17505">
        <ele>17.747222</ele>
        <time>2020-07-16T08:05:34.035Z</time>
      </trkpt>
      <trkpt lat="65.36227" lon="12.17462">
        <ele>16.764487</ele>
        <time>2020-07-16T08:05:37.745Z</time>
      </trkpt>
      <trkpt lat="65.36247" lon="12.17406">
        <ele>15.695002</ele>
        <time>2020-07-16T08:05:41.849Z</time>
      </trkpt>
      <trkpt lat="65.36281" lon="12.1728">
        <ele>13.562025</ele>
        <time>2020-07-16T08:05:49.715Z</time>
      </trkpt>
      <trkpt lat="65.36289" lon="12.17249">
        <ele>13.030628</ele>
        <time>2020-07-16T08:05:51.615Z</time>
      </trkpt>
      <trkpt lat="65.36298" lon="12.17215">
        <ele>12.493702</ele>
        <time>2020-07-16T08:05:53.703Z</time>
      </trkpt>
      <trkpt lat="65.36303" lon="12.17195">
        <ele>12.190172</ele>
        <time>2020-07-16T08:05:54.986Z</time>
      </trkpt>
      <trkpt lat="65.36304" lon="12.17191">
        <ele>12.12366</ele>
        <time>2020-07-16T08:05:55.218Z</time>
      </trkpt>
      <trkpt lat="65.36332" lon="12.1712">
        <ele>10.873748</ele>
        <time>2020-07-16T08:06:00.271Z</time>
      </trkpt>
      <trkpt lat="65.3634" lon="12.17119">
        <ele>10.64506</ele>
        <time>2020-07-16T08:06:01.219Z</time>
      </trkpt>
      <trkpt lat="65.36341" lon="12.1712">
        <ele>10.591644</ele>
        <time>2020-07-16T08:06:01.400Z</time>
      </trkpt>
      <trkpt lat="65.36428" lon="12.17251">
        <ele>7.433008</ele>
        <time>2020-07-16T08:06:15.111Z</time>
      </trkpt>
      <trkpt lat="65.36441" lon="12.17278">
        <ele>7.265049</ele>
        <time>2020-07-16T08:06:17.408Z</time>
      </trkpt>
      <trkpt lat="65.36443" lon="12.17287">
        <ele>7.2881</ele>
        <time>2020-07-16T08:06:18.194Z</time>
      </trkpt>
      <trkpt lat="65.36446" lon="12.17301">
        <ele>7.320712</ele>
        <time>2020-07-16T08:06:19.306Z</time>
      </trkpt>
      <trkpt lat="65.36449" lon="12.17318">
        <ele>7.361983</ele>
        <time>2020-07-16T08:06:21.380Z</time>
      </trkpt>
      <trkpt lat="65.3647" lon="12.17505">
        <ele>7.786115</ele>
        <time>2020-07-16T08:06:37.477Z</time>
      </trkpt>
      <trkpt lat="65.3649" lon="12.17629">
        <ele>8.077815</ele>
        <time>2020-07-16T08:06:49.330Z</time>
      </trkpt>
      <trkpt lat="65.36496" lon="12.17658">
        <ele>8.148424</ele>
        <time>2020-07-16T08:06:53.426Z</time>
      </trkpt>
      <trkpt lat="65.36508" lon="12.17726">
        <ele>8.524623</ele>
        <time>2020-07-16T08:07:00.636Z</time>
      </trkpt>
      <trkpt lat="65.36537" lon="12.17863">
        <ele>9.3352</ele>
        <time>2020-07-16T08:07:15.212Z</time>
      </trkpt>
      <trkpt lat="65.36596" lon="12.18085">
        <ele>10.413716</ele>
        <time>2020-07-16T08:07:38.351Z</time>
      </trkpt>
      <trkpt lat="65.36648" lon="12.18291">
        <ele>10.333185</ele>
        <time>2020-07-16T08:07:56.076Z</time>
      </trkpt>
      <trkpt lat="65.36658" lon="12.18329">
        <ele>10.318579</ele>
        <time>2020-07-16T08:07:59.128Z</time>
      </trkpt>
      <trkpt lat="65.36691" lon="12.18466">
        <ele>9.931083</ele>
        <time>2020-07-16T08:08:09.864Z</time>
      </trkpt>
      <trkpt lat="65.36748" lon="12.18658">
        <ele>8.673802</ele>
        <time>2020-07-16T08:08:24.528Z</time>
      </trkpt>
      <trkpt lat="65.36761" lon="12.18742">
        <ele>8.205148</ele>
        <time>2020-07-16T08:08:29.973Z</time>
      </trkpt>
      <trkpt lat="65.36762" lon="12.1882">
        <ele>7.623364</ele>
        <time>2020-07-16T08:08:34.873Z</time>
      </trkpt>
      <trkpt lat="65.36763" lon="12.18878">
        <ele>7.081696</ele>
        <time>2020-07-16T08:08:38.422Z</time>
      </trkpt>
      <trkpt lat="65.36764" lon="12.18916">
        <ele>6.722214</ele>
        <time>2020-07-16T08:08:40.581Z</time>
      </trkpt>
      <trkpt lat="65.36764" lon="12.18927">
        <ele>6.61746</ele>
        <time>2020-07-16T08:08:41.201Z</time>
      </trkpt>
      <trkpt lat="65.36764" lon="12.18934">
        <ele>6.553307</ele>
        <time>2020-07-16T08:08:41.586Z</time>
      </trkpt>
      <trkpt lat="65.36764" lon="12.1899">
        <ele>6.019649</ele>
        <time>2020-07-16T08:08:44.777Z</time>
      </trkpt>
      <trkpt lat="65.36765" lon="12.19023">
        <ele>5.708925</ele>
        <time>2020-07-16T08:08:46.597Z</time>
      </trkpt>
      <trkpt lat="65.36759" lon="12.19166">
        <ele>4.360172</ele>
        <time>2020-07-16T08:08:54.613Z</time>
      </trkpt>
      <trkpt lat="65.36754" lon="12.19196">
        <ele>4.05028</ele>
        <time>2020-07-16T08:08:56.514Z</time>
      </trkpt>
      <trkpt lat="65.36749" lon="12.19223">
        <ele>3.848519</ele>
        <time>2020-07-16T08:08:58.211Z</time>
      </trkpt>
      <trkpt lat="65.36745" lon="12.19241">
        <ele>3.748536</ele>
        <time>2020-07-16T08:08:59.376Z</time>
      </trkpt>
      <trkpt lat="65.36742" lon="12.19254">
        <ele>3.670319</ele>
        <time>2020-07-16T08:09:00.231Z</time>
      </trkpt>
      <trkpt lat="65.36731" lon="12.19296">
        <ele>3.426635</ele>
        <time>2020-07-16T08:09:03.160Z</time>
      </trkpt>
      <trkpt lat="65.3673" lon="12.193">
        <ele>3.40235</ele>
        <time>2020-07-16T08:09:03.468Z</time>
      </trkpt>
      <trkpt lat="65.36733" lon="12.19305">
        <ele>3.36004</ele>
        <time>2020-07-16T08:09:03.969Z</time>
      </trkpt>
      <trkpt lat="65.36716" lon="12.19368">
        <ele>2.987125</ele>
        <time>2020-07-16T08:09:08.728Z</time>
      </trkpt>
      <trkpt lat="65.36698" lon="12.19433">
        <ele>2.599032</ele>
        <time>2020-07-16T08:09:13.943Z</time>
      </trkpt>
      <trkpt lat="65.36688" lon="12.19484">
        <ele>2.318105</ele>
        <time>2020-07-16T08:09:18.041Z</time>
      </trkpt>
      <trkpt lat="65.36689" lon="12.19526">
        <ele>2.110858</ele>
        <time>2020-07-16T08:09:20.752Z</time>
      </trkpt>
      <trkpt lat="65.36691" lon="12.19545">
        <ele>2.011994</ele>
        <time>2020-07-16T08:09:22.273Z</time>
      </trkpt>
      <trkpt lat="65.36693" lon="12.19561">
        <ele>1.929217</ele>
        <time>2020-07-16T08:09:23.492Z</time>
      </trkpt>
      <trkpt lat="65.36697" lon="12.19576">
        <ele>1.841418</ele>
        <time>2020-07-16T08:09:24.920Z</time>
      </trkpt>
      <trkpt lat="65.36703" lon="12.19599">
        <ele>1.81634</ele>
        <time>2020-07-16T08:09:26.660Z</time>
      </trkpt>
      <trkpt lat="65.36716" lon="12.19642">
        <ele>1.949497</ele>
        <time>2020-07-16T08:09:31.632Z</time>
      </trkpt>
      <trkpt lat="65.36723" lon="12.19662">
        <ele>2.01092</ele>
        <time>2020-07-16T08:09:33.557Z</time>
      </trkpt>
      <trkpt lat="65.36733" lon="12.19659">
        <ele>2.072616</ele>
        <time>2020-07-16T08:09:35.366Z</time>
      </trkpt>
      <trkpt lat="65.36734" lon="12.19665">
        <ele>2.089376</ele>
        <time>2020-07-16T08:09:36.359Z</time>
      </trkpt>
      <trkpt lat="65.3674" lon="12.197">
        <ele>2.182273</ele>
        <time>2020-07-16T08:09:40.218Z</time>
      </trkpt>
      <trkpt lat="65.36748" lon="12.19736">
        <ele>2.281799</ele>
        <time>2020-07-16T08:09:43.070Z</time>
      </trkpt>
      <trkpt lat="65.3675" lon="12.19744">
        <ele>2.306716</ele>
        <time>2020-07-16T08:09:44.528Z</time>
      </trkpt>
      <trkpt lat="65.36752" lon="12.19749">
        <ele>2.322517</ele>
        <time>2020-07-16T08:09:45.280Z</time>
      </trkpt>
      <trkpt lat="65.36761" lon="12.19759">
        <ele>2.38139</ele>
        <time>2020-07-16T08:09:47.547Z</time>
      </trkpt>
      <trkpt lat="65.36762" lon="12.19757">
        <ele>2.393246</ele>
        <time>2020-07-16T08:09:48.122Z</time>
      </trkpt>
      <trkpt lat="65.36765" lon="12.19753">
        <ele>2.41186</ele>
        <time>2020-07-16T08:09:48.588Z</time>
      </trkpt>
      <trkpt lat="65.36801" lon="12.19712">
        <ele>2.648713</ele>
        <time>2020-07-16T08:09:57.122Z</time>
      </trkpt>
      <trkpt lat="65.3681" lon="12.19704">
        <ele>2.703683</ele>
        <time>2020-07-16T08:09:58.695Z</time>
      </trkpt>
      <trkpt lat="65.36817" lon="12.19699">
        <ele>2.750052</ele>
        <time>2020-07-16T08:10:00.922Z</time>
      </trkpt>
      <trkpt lat="65.36846" lon="12.19695">
        <ele>2.809959</ele>
        <time>2020-07-16T08:10:06.362Z</time>
      </trkpt>
      <trkpt lat="65.36868" lon="12.19707">
        <ele>2.737876</ele>
        <time>2020-07-16T08:10:11.349Z</time>
      </trkpt>
      <trkpt lat="65.36916" lon="12.19743">
        <ele>2.577261</ele>
        <time>2020-07-16T08:10:20.048Z</time>
      </trkpt>
      <trkpt lat="65.36921" lon="12.19746">
        <ele>2.561206</ele>
        <time>2020-07-16T08:10:20.835Z</time>
      </trkpt>
      <trkpt lat="65.36975" lon="12.19787">
        <ele>2.380393</ele>
        <time>2020-07-16T08:10:30.446Z</time>
      </trkpt>
      <trkpt lat="65.36986" lon="12.19796">
        <ele>2.344152</ele>
        <time>2020-07-16T08:10:32.300Z</time>
      </trkpt>
      <trkpt lat="65.36997" lon="12.19806">
        <ele>2.307221</ele>
        <time>2020-07-16T08:10:34.173Z</time>
      </trkpt>
      <trkpt lat="65.37032" lon="12.1984">
        <ele>2.107639</ele>
        <time>2020-07-16T08:10:40.629Z</time>
      </trkpt>
      <trkpt lat="65.37043" lon="12.19832">
        <ele>2.043894</ele>
        <time>2020-07-16T08:10:42.540Z</time>
      </trkpt>
      <trkpt lat="65.37045" lon="12.19839">
        <ele>2.020445</ele>
        <time>2020-07-16T08:10:43.145Z</time>
      </trkpt>
      <trkpt lat="65.3705" lon="12.1985">
        <ele>1.983921</ele>
        <time>2020-07-16T08:10:44.158Z</time>
      </trkpt>
      <trkpt lat="65.37057" lon="12.19862">
        <ele>1.929039</ele>
        <time>2020-07-16T08:10:45.542Z</time>
      </trkpt>
      <trkpt lat="65.371" lon="12.19906">
        <ele>1.65623</ele>
        <time>2020-07-16T08:10:53.053Z</time>
      </trkpt>
      <trkpt lat="65.37124" lon="12.19932">
        <ele>1.500058</ele>
        <time>2020-07-16T08:10:57.295Z</time>
      </trkpt>
      <trkpt lat="65.37151" lon="12.19959">
        <ele>1.323663</ele>
        <time>2020-07-16T08:11:02.335Z</time>
      </trkpt>
      <trkpt lat="65.37167" lon="12.19975">
        <ele>1.226228</ele>
        <time>2020-07-16T08:11:05.145Z</time>
      </trkpt>
      <trkpt lat="65.37183" lon="12.19992">
        <ele>1.19096</ele>
        <time>2020-07-16T08:11:08.125Z</time>
      </trkpt>
      <trkpt lat="65.37188" lon="12.19998">
        <ele>1.182385</ele>
        <time>2020-07-16T08:11:09.218Z</time>
      </trkpt>
      <trkpt lat="65.37343" lon="12.20149">
        <ele>0.941192</ele>
        <time>2020-07-16T08:11:39.848Z</time>
      </trkpt>
      <trkpt lat="65.37349" lon="12.20134">
        <ele>0.919987</ele>
        <time>2020-07-16T08:11:41.370Z</time>
      </trkpt>
      <trkpt lat="65.37351" lon="12.20131">
        <ele>0.913569</ele>
        <time>2020-07-16T08:11:41.828Z</time>
      </trkpt>
      <trkpt lat="65.37361" lon="12.20143">
        <ele>0.886077</ele>
        <time>2020-07-16T08:11:43.820Z</time>
      </trkpt>
      <trkpt lat="65.37375" lon="12.20191">
        <ele>0.824326</ele>
        <time>2020-07-16T08:11:48.228Z</time>
      </trkpt>
      <trkpt lat="65.37396" lon="12.20211">
        <ele>0.76852</ele>
        <time>2020-07-16T08:11:52.208Z</time>
      </trkpt>
      <trkpt lat="65.37416" lon="12.20232">
        <ele>0.714664</ele>
        <time>2020-07-16T08:11:55.948Z</time>
      </trkpt>
      <trkpt lat="65.37438" lon="12.20255">
        <ele>0.652341</ele>
        <time>2020-07-16T08:12:00.355Z</time>
      </trkpt>
      <trkpt lat="65.37444" lon="12.20261">
        <ele>0.6375</ele>
        <time>2020-07-16T08:12:01.388Z</time>
      </trkpt>
      <trkpt lat="65.37466" lon="12.20284">
        <ele>0.575235</ele>
        <time>2020-07-16T08:12:05.821Z</time>
      </trkpt>
      <trkpt lat="65.3748" lon="12.20297">
        <ele>0.539495</ele>
        <time>2020-07-16T08:12:08.277Z</time>
      </trkpt>
      <trkpt lat="65.37493" lon="12.20306">
        <ele>0.508127</ele>
        <time>2020-07-16T08:12:10.739Z</time>
      </trkpt>
      <trkpt lat="65.37504" lon="12.20297">
        <ele>0.494192</ele>
        <time>2020-07-16T08:12:12.906Z</time>
      </trkpt>
      <trkpt lat="65.37506" lon="12.20298">
        <ele>0.492558</ele>
        <time>2020-07-16T08:12:13.120Z</time>
      </trkpt>
      <trkpt lat="65.37507" lon="12.203">
        <ele>0.490849</ele>
        <time>2020-07-16T08:12:13.381Z</time>
      </trkpt>
      <trkpt lat="65.37509" lon="12.20304">
        <ele>0.487963</ele>
        <time>2020-07-16T08:12:13.827Z</time>
      </trkpt>
      <trkpt lat="65.37509" lon="12.20307">
        <ele>0.486408</ele>
        <time>2020-07-16T08:12:14.063Z</time>
      </trkpt>
      <trkpt lat="65.3751" lon="12.20313">
        <ele>0.483645</ele>
        <time>2020-07-16T08:12:14.489Z</time>
      </trkpt>
      <trkpt lat="65.37509" lon="12.20317">
        <ele>0.481357</ele>
        <time>2020-07-16T08:12:14.846Z</time>
      </trkpt>
      <trkpt lat="65.37512" lon="12.20318">
        <ele>0.478222</ele>
        <time>2020-07-16T08:12:15.298Z</time>
      </trkpt>
      <trkpt lat="65.37545" lon="12.20329">
        <ele>0.439785</ele>
        <time>2020-07-16T08:12:21.224Z</time>
      </trkpt>
      <trkpt lat="65.37603" lon="12.20344">
        <ele>0.372549</ele>
        <time>2020-07-16T08:12:31.354Z</time>
      </trkpt>
      <trkpt lat="65.37655" lon="12.20362">
        <ele>0.312217</ele>
        <time>2020-07-16T08:12:41.086Z</time>
      </trkpt>
      <trkpt lat="65.37676" lon="12.20367">
        <ele>0.368989</ele>
        <time>2020-07-16T08:12:44.976Z</time>
      </trkpt>
      <trkpt lat="65.37706" lon="12.20373">
        <ele>0.515864</ele>
        <time>2020-07-16T08:12:50.643Z</time>
      </trkpt>
      <trkpt lat="65.37719" lon="12.20374">
        <ele>0.580542</ele>
        <time>2020-07-16T08:12:53.129Z</time>
      </trkpt>
      <trkpt lat="65.37727" lon="12.20374">
        <ele>0.622153</ele>
        <time>2020-07-16T08:12:54.815Z</time>
      </trkpt>
      <trkpt lat="65.37748" lon="12.20368">
        <ele>0.726672</ele>
        <time>2020-07-16T08:12:58.812Z</time>
      </trkpt>
      <trkpt lat="65.37763" lon="12.20361">
        <ele>0.798324</ele>
        <time>2020-07-16T08:13:01.680Z</time>
      </trkpt>
      <trkpt lat="65.3777" lon="12.20357">
        <ele>0.834889</ele>
        <time>2020-07-16T08:13:03.086Z</time>
      </trkpt>
      <trkpt lat="65.37774" lon="12.20354">
        <ele>0.854671</ele>
        <time>2020-07-16T08:13:03.866Z</time>
      </trkpt>
      <trkpt lat="65.3778" lon="12.20348">
        <ele>0.887417</ele>
        <time>2020-07-16T08:13:05.140Z</time>
      </trkpt>
      <trkpt lat="65.37829" lon="12.20255">
        <ele>1.205996</ele>
        <time>2020-07-16T08:13:17.499Z</time>
      </trkpt>
      <trkpt lat="65.3787" lon="12.20133">
        <ele>2.101612</ele>
        <time>2020-07-16T08:13:31.364Z</time>
      </trkpt>
      <trkpt lat="65.37902" lon="12.20026">
        <ele>2.855972</ele>
        <time>2020-07-16T08:13:43.527Z</time>
      </trkpt>
      <trkpt lat="65.37934" lon="12.19916">
        <ele>3.619043</ele>
        <time>2020-07-16T08:13:56.653Z</time>
      </trkpt>
      <trkpt lat="65.37972" lon="12.19789">
        <ele>5.175044</ele>
        <time>2020-07-16T08:14:12.975Z</time>
      </trkpt>
      <trkpt lat="65.38041" lon="12.19555">
        <ele>8.058759</ele>
        <time>2020-07-16T08:14:44.665Z</time>
      </trkpt>
      <trkpt lat="65.38057" lon="12.19502">
        <ele>8.570093</ele>
        <time>2020-07-16T08:14:51.704Z</time>
      </trkpt>
      <trkpt lat="65.38099" lon="12.1936">
        <ele>9.927497</ele>
        <time>2020-07-16T08:15:09.778Z</time>
      </trkpt>
      <trkpt lat="65.38113" lon="12.19311">
        <ele>10.39695</ele>
        <time>2020-07-16T08:15:15.786Z</time>
      </trkpt>
      <trkpt lat="65.38319" lon="12.18625">
        <ele>14.304902</ele>
        <time>2020-07-16T08:16:29.786Z</time>
      </trkpt>
      <trkpt lat="65.38382" lon="12.18472">
        <ele>15.004901</ele>
        <time>2020-07-16T08:16:48.004Z</time>
      </trkpt>
      <trkpt lat="65.38456" lon="12.18348">
        <ele>15.475474</ele>
        <time>2020-07-16T08:17:05.980Z</time>
      </trkpt>
      <trkpt lat="65.38466" lon="12.18332">
        <ele>15.536051</ele>
        <time>2020-07-16T08:17:08.246Z</time>
      </trkpt>
      <trkpt lat="65.38469" lon="12.18325">
        <ele>15.560925</ele>
        <time>2020-07-16T08:17:09.270Z</time>
      </trkpt>
      <trkpt lat="65.38499" lon="12.18274">
        <ele>15.753567</ele>
        <time>2020-07-16T08:17:16.080Z</time>
      </trkpt>
      <trkpt lat="65.38532" lon="12.18222">
        <ele>15.691986</ele>
        <time>2020-07-16T08:17:22.925Z</time>
      </trkpt>
      <trkpt lat="65.3863" lon="12.18062">
        <ele>15.333057</ele>
        <time>2020-07-16T08:17:43.011Z</time>
      </trkpt>
      <trkpt lat="65.38637" lon="12.18042">
        <ele>15.300541</ele>
        <time>2020-07-16T08:17:44.776Z</time>
      </trkpt>
      <trkpt lat="65.3864" lon="12.18037">
        <ele>15.290315</ele>
        <time>2020-07-16T08:17:45.228Z</time>
      </trkpt>
      <trkpt lat="65.38645" lon="12.18059">
        <ele>15.258054</ele>
        <time>2020-07-16T08:17:47.293Z</time>
      </trkpt>
      <trkpt lat="65.38688" lon="12.17994">
        <ele>15.168202</ele>
        <time>2020-07-16T08:17:55.526Z</time>
      </trkpt>
      <trkpt lat="65.38726" lon="12.17944">
        <ele>15.097413</ele>
        <time>2020-07-16T08:18:02.678Z</time>
      </trkpt>
      <trkpt lat="65.38753" lon="12.17907">
        <ele>15.045322</ele>
        <time>2020-07-16T08:18:08.157Z</time>
      </trkpt>
      <trkpt lat="65.38834" lon="12.17807">
        <ele>15.081353</ele>
        <time>2020-07-16T08:18:24.965Z</time>
      </trkpt>
      <trkpt lat="65.38863" lon="12.1777">
        <ele>15.216698</ele>
        <time>2020-07-16T08:18:31.152Z</time>
      </trkpt>
      <trkpt lat="65.39038" lon="12.17568">
        <ele>15.841245</ele>
        <time>2020-07-16T08:19:09.139Z</time>
      </trkpt>
      <trkpt lat="65.3904" lon="12.17566">
        <ele>15.845926</ele>
        <time>2020-07-16T08:19:09.881Z</time>
      </trkpt>
      <trkpt lat="65.3908" lon="12.17529">
        <ele>15.923588</ele>
        <time>2020-07-16T08:19:17.583Z</time>
      </trkpt>
      <trkpt lat="65.391" lon="12.17523">
        <ele>15.961948</ele>
        <time>2020-07-16T08:19:21.131Z</time>
      </trkpt>
      <trkpt lat="65.39151" lon="12.17543">
        <ele>15.913341</ele>
        <time>2020-07-16T08:19:30.141Z</time>
      </trkpt>
      <trkpt lat="65.39476" lon="12.17783">
        <ele>13.625961</ele>
        <time>2020-07-16T08:20:23.923Z</time>
      </trkpt>
      <trkpt lat="65.39534" lon="12.17826">
        <ele>13.426687</ele>
        <time>2020-07-16T08:20:35.169Z</time>
      </trkpt>
      <trkpt lat="65.3961" lon="12.1788">
        <ele>13.184455</ele>
        <time>2020-07-16T08:20:49.612Z</time>
      </trkpt>
      <trkpt lat="65.40116" lon="12.18256">
        <ele>8.254243</ele>
        <time>2020-07-16T08:22:10.801Z</time>
      </trkpt>
      <trkpt lat="65.4035" lon="12.18479">
        <ele>8.149749</ele>
        <time>2020-07-16T08:22:56.116Z</time>
      </trkpt>
      <trkpt lat="65.40447" lon="12.18546">
        <ele>8.970215</ele>
        <time>2020-07-16T08:23:16.508Z</time>
      </trkpt>
      <trkpt lat="65.4058" lon="12.18618">
        <ele>10.368373</ele>
        <time>2020-07-16T08:23:46.561Z</time>
      </trkpt>
      <trkpt lat="65.40688" lon="12.18711">
        <ele>11.655523</ele>
        <time>2020-07-16T08:24:11.745Z</time>
      </trkpt>
      <trkpt lat="65.41002" lon="12.19242">
        <ele>13.075587</ele>
        <time>2020-07-16T08:25:25.086Z</time>
      </trkpt>
      <trkpt lat="65.41028" lon="12.1932">
        <ele>12.921165</ele>
        <time>2020-07-16T08:25:32.117Z</time>
      </trkpt>
      <trkpt lat="65.41058" lon="12.19441">
        <ele>12.703926</ele>
        <time>2020-07-16T08:25:41.728Z</time>
      </trkpt>
      <trkpt lat="65.41102" lon="12.19647">
        <ele>12.2489</ele>
        <time>2020-07-16T08:25:56.926Z</time>
      </trkpt>
      <trkpt lat="65.41322" lon="12.20408">
        <ele>12.182883</ele>
        <time>2020-07-16T08:27:01.101Z</time>
      </trkpt>
      <trkpt lat="65.41331" lon="12.20437">
        <ele>12.46094</ele>
        <time>2020-07-16T08:27:04.814Z</time>
      </trkpt>
      <trkpt lat="65.41356" lon="12.20523">
        <ele>13.260872</ele>
        <time>2020-07-16T08:27:16.162Z</time>
      </trkpt>
      <trkpt lat="65.41411" lon="12.20704">
        <ele>16.990647</ele>
        <time>2020-07-16T08:27:46.161Z</time>
      </trkpt>
      <trkpt lat="65.41437" lon="12.20781">
        <ele>19.460472</ele>
        <time>2020-07-16T08:28:01.997Z</time>
      </trkpt>
      <trkpt lat="65.41456" lon="12.2082">
        <ele>20.925261</ele>
        <time>2020-07-16T08:28:11.497Z</time>
      </trkpt>
      <trkpt lat="65.41466" lon="12.20837">
        <ele>21.639024</ele>
        <time>2020-07-16T08:28:16.295Z</time>
      </trkpt>
      <trkpt lat="65.41473" lon="12.20849">
        <ele>22.163187</ele>
        <time>2020-07-16T08:28:20.422Z</time>
      </trkpt>
      <trkpt lat="65.41514" lon="12.2091">
        <ele>24.885077</ele>
        <time>2020-07-16T08:28:40.573Z</time>
      </trkpt>
      <trkpt lat="65.41606" lon="12.21036">
        <ele>28.775124</ele>
        <time>2020-07-16T08:29:17.629Z</time>
      </trkpt>
      <trkpt lat="65.41607" lon="12.21038">
        <ele>28.833455</ele>
        <time>2020-07-16T08:29:18.744Z</time>
      </trkpt>
      <trkpt lat="65.41656" lon="12.21103">
        <ele>30.876037</ele>
        <time>2020-07-16T08:29:30.733Z</time>
      </trkpt>
      <trkpt lat="65.41741" lon="12.21212">
        <ele>28.378842</ele>
        <time>2020-07-16T08:29:44.643Z</time>
      </trkpt>
      <trkpt lat="65.41789" lon="12.21295">
        <ele>26.317354</ele>
        <time>2020-07-16T08:29:51.787Z</time>
      </trkpt>
      <trkpt lat="65.41874" lon="12.21482">
        <ele>21.434382</ele>
        <time>2020-07-16T08:30:05.453Z</time>
      </trkpt>
      <trkpt lat="65.41904" lon="12.21532">
        <ele>19.758159</ele>
        <time>2020-07-16T08:30:09.990Z</time>
      </trkpt>
      <trkpt lat="65.41941" lon="12.21587">
        <ele>17.776969</ele>
        <time>2020-07-16T08:30:15.467Z</time>
      </trkpt>
      <trkpt lat="65.41984" lon="12.21648">
        <ele>16.033621</ele>
        <time>2020-07-16T08:30:22.007Z</time>
      </trkpt>
      <trkpt lat="65.4207" lon="12.21795">
        <ele>13.193753</ele>
        <time>2020-07-16T08:30:36.199Z</time>
      </trkpt>
      <trkpt lat="65.42368" lon="12.22375">
        <ele>5.166132</ele>
        <time>2020-07-16T08:31:29.888Z</time>
      </trkpt>
      <trkpt lat="65.42467" lon="12.22584">
        <ele>4.217868</ele>
        <time>2020-07-16T08:31:50.485Z</time>
      </trkpt>
      <trkpt lat="65.42646" lon="12.22957">
        <ele>4.613225</ele>
        <time>2020-07-16T08:32:35.716Z</time>
      </trkpt>
      <trkpt lat="65.42687" lon="12.23046">
        <ele>5.097979</ele>
        <time>2020-07-16T08:32:47.027Z</time>
      </trkpt>
      <trkpt lat="65.42692" lon="12.23059">
        <ele>5.170929</ele>
        <time>2020-07-16T08:32:48.519Z</time>
      </trkpt>
      <trkpt lat="65.42729" lon="12.2315">
        <ele>5.703513</ele>
        <time>2020-07-16T08:32:59.431Z</time>
      </trkpt>
      <trkpt lat="65.42792" lon="12.23379">
        <ele>7.171247</ele>
        <time>2020-07-16T08:33:24.370Z</time>
      </trkpt>
      <trkpt lat="65.42829" lon="12.23476">
        <ele>8.18157</ele>
        <time>2020-07-16T08:33:37.178Z</time>
      </trkpt>
      <trkpt lat="65.42873" lon="12.23619">
        <ele>9.549683</ele>
        <time>2020-07-16T08:33:55.740Z</time>
      </trkpt>
      <trkpt lat="65.42975" lon="12.24161">
        <ele>13.531026</ele>
        <time>2020-07-16T08:34:57.889Z</time>
      </trkpt>
      <trkpt lat="65.43017" lon="12.24329">
        <ele>13.179231</ele>
        <time>2020-07-16T08:35:10.615Z</time>
      </trkpt>
      <trkpt lat="65.43104" lon="12.24627">
        <ele>9.871681</ele>
        <time>2020-07-16T08:35:30.731Z</time>
      </trkpt>
      <trkpt lat="65.43135" lon="12.24809">
        <ele>7.526584</ele>
        <time>2020-07-16T08:35:41.386Z</time>
      </trkpt>
      <trkpt lat="65.43198" lon="12.25214">
        <ele>3.183377</ele>
        <time>2020-07-16T08:36:06.043Z</time>
      </trkpt>
      <trkpt lat="65.43229" lon="12.2541">
        <ele>2.142166</ele>
        <time>2020-07-16T08:36:18.889Z</time>
      </trkpt>
      <trkpt lat="65.43248" lon="12.25518">
        <ele>1.555756</ele>
        <time>2020-07-16T08:36:26.619Z</time>
      </trkpt>
      <trkpt lat="65.4328" lon="12.25682">
        <ele>1.334817</ele>
        <time>2020-07-16T08:36:39.369Z</time>
      </trkpt>
      <trkpt lat="65.43299" lon="12.25781">
        <ele>1.555164</ele>
        <time>2020-07-16T08:36:47.752Z</time>
      </trkpt>
      <trkpt lat="65.43324" lon="12.25907">
        <ele>1.837001</ele>
        <time>2020-07-16T08:36:59.158Z</time>
      </trkpt>
      <trkpt lat="65.4337" lon="12.26156">
        <ele>3.735647</ele>
        <time>2020-07-16T08:37:25.030Z</time>
      </trkpt>
      <trkpt lat="65.43395" lon="12.26294">
        <ele>5.123476</ele>
        <time>2020-07-16T08:37:40.967Z</time>
      </trkpt>
      <trkpt lat="65.43462" lon="12.26698">
        <ele>10.630557</ele>
        <time>2020-07-16T08:38:32.731Z</time>
      </trkpt>
      <trkpt lat="65.43481" lon="12.26805">
        <ele>12.172898</ele>
        <time>2020-07-16T08:38:46.677Z</time>
      </trkpt>
      <trkpt lat="65.43598" lon="12.27317">
        <ele>18.877029</ele>
        <time>2020-07-16T08:39:52.142Z</time>
      </trkpt>
      <trkpt lat="65.43635" lon="12.27486">
        <ele>20.787329</ele>
        <time>2020-07-16T08:40:12.043Z</time>
      </trkpt>
      <trkpt lat="65.43647" lon="12.27561">
        <ele>21.545394</ele>
        <time>2020-07-16T08:40:20.194Z</time>
      </trkpt>
      <trkpt lat="65.43741" lon="12.28293">
        <ele>25.484539</ele>
        <time>2020-07-16T08:41:32.799Z</time>
      </trkpt>
      <trkpt lat="65.43752" lon="12.28355">
        <ele>25.70094</ele>
        <time>2020-07-16T08:41:37.696Z</time>
      </trkpt>
      <trkpt lat="65.43925" lon="12.28983">
        <ele>17.882684</ele>
        <time>2020-07-16T08:42:19.946Z</time>
      </trkpt>
      <trkpt lat="65.43948" lon="12.29063">
        <ele>16.701864</ele>
        <time>2020-07-16T08:42:25.097Z</time>
      </trkpt>
      <trkpt lat="65.44053" lon="12.29446">
        <ele>10.4904</ele>
        <time>2020-07-16T08:42:49.788Z</time>
      </trkpt>
      <trkpt lat="65.44087" lon="12.29568">
        <ele>9.522964</ele>
        <time>2020-07-16T08:42:58.200Z</time>
      </trkpt>
      <trkpt lat="65.44116" lon="12.29674">
        <ele>8.740114</ele>
        <time>2020-07-16T08:43:05.869Z</time>
      </trkpt>
      <trkpt lat="65.44205" lon="12.29997">
        <ele>8.203995</ele>
        <time>2020-07-16T08:43:33.161Z</time>
      </trkpt>
      <trkpt lat="65.44234" lon="12.3011">
        <ele>8.511581</ele>
        <time>2020-07-16T08:43:44.644Z</time>
      </trkpt>
      <trkpt lat="65.44239" lon="12.30129">
        <ele>8.562206</ele>
        <time>2020-07-16T08:43:46.621Z</time>
      </trkpt>
      <trkpt lat="65.44286" lon="12.30314">
        <ele>10.298512</ele>
        <time>2020-07-16T08:44:09.072Z</time>
      </trkpt>
      <trkpt lat="65.44305" lon="12.30383">
        <ele>11.128824</ele>
        <time>2020-07-16T08:44:18.223Z</time>
      </trkpt>
      <trkpt lat="65.44316" lon="12.30422">
        <ele>11.601564</ele>
        <time>2020-07-16T08:44:23.146Z</time>
      </trkpt>
      <trkpt lat="65.44328" lon="12.30458">
        <ele>12.061444</ele>
        <time>2020-07-16T08:44:28.652Z</time>
      </trkpt>
      <trkpt lat="65.44367" lon="12.30552">
        <ele>13.231467</ele>
        <time>2020-07-16T08:44:43.302Z</time>
      </trkpt>
      <trkpt lat="65.44374" lon="12.3057">
        <ele>13.364825</ele>
        <time>2020-07-16T08:44:46.298Z</time>
      </trkpt>
      <trkpt lat="65.44466" lon="12.30776">
        <ele>14.98878</ele>
        <time>2020-07-16T08:45:14.650Z</time>
      </trkpt>
      <trkpt lat="65.44549" lon="12.30962">
        <ele>14.44139</ele>
        <time>2020-07-16T08:45:32.856Z</time>
      </trkpt>
      <trkpt lat="65.447" lon="12.31307">
        <ele>12.032836</ele>
        <time>2020-07-16T08:46:02.985Z</time>
      </trkpt>
      <trkpt lat="65.44843" lon="12.31853">
        <ele>10.895533</ele>
        <time>2020-07-16T08:46:47.744Z</time>
      </trkpt>
      <trkpt lat="65.44856" lon="12.31891">
        <ele>11.15989</ele>
        <time>2020-07-16T08:46:51.982Z</time>
      </trkpt>
      <trkpt lat="65.45" lon="12.32246">
        <ele>14.117985</ele>
        <time>2020-07-16T08:47:40.129Z</time>
      </trkpt>
      <trkpt lat="65.45065" lon="12.3241">
        <ele>15.786747</ele>
        <time>2020-07-16T08:48:02.819Z</time>
      </trkpt>
      <trkpt lat="65.45092" lon="12.32476">
        <ele>16.292381</ele>
        <time>2020-07-16T08:48:11.636Z</time>
      </trkpt>
      <trkpt lat="65.45142" lon="12.32574">
        <ele>16.877087</ele>
        <time>2020-07-16T08:48:26.005Z</time>
      </trkpt>
      <trkpt lat="65.45282" lon="12.32811">
        <ele>17.737828</ele>
        <time>2020-07-16T08:48:58.476Z</time>
      </trkpt>
      <trkpt lat="65.45324" lon="12.32883">
        <ele>17.743377</ele>
        <time>2020-07-16T08:49:07.363Z</time>
      </trkpt>
      <trkpt lat="65.45335" lon="12.32902">
        <ele>17.744852</ele>
        <time>2020-07-16T08:49:09.733Z</time>
      </trkpt>
      <trkpt lat="65.4549" lon="12.33217">
        <ele>16.940359</ele>
        <time>2020-07-16T08:49:43.928Z</time>
      </trkpt>
      <trkpt lat="65.45621" lon="12.33525">
        <ele>14.367995</ele>
        <time>2020-07-16T08:50:11.633Z</time>
      </trkpt>
      <trkpt lat="65.4586" lon="12.34073">
        <ele>5.148636</ele>
        <time>2020-07-16T08:50:54.872Z</time>
      </trkpt>
      <trkpt lat="65.45938" lon="12.34255">
        <ele>3.658979</ele>
        <time>2020-07-16T08:51:11.272Z</time>
      </trkpt>
      <trkpt lat="65.46038" lon="12.34471">
        <ele>2.969317</ele>
        <time>2020-07-16T08:51:35.204Z</time>
      </trkpt>
      <trkpt lat="65.46109" lon="12.34563">
        <ele>2.819153</ele>
        <time>2020-07-16T08:51:49.182Z</time>
      </trkpt>
      <trkpt lat="65.46114" lon="12.34569">
        <ele>2.808745</ele>
        <time>2020-07-16T08:51:50.076Z</time>
      </trkpt>
      <trkpt lat="65.4618" lon="12.34636">
        <ele>2.675601</ele>
        <time>2020-07-16T08:52:02.180Z</time>
      </trkpt>
      <trkpt lat="65.46277" lon="12.34743">
        <ele>2.37717</ele>
        <time>2020-07-16T08:52:20.158Z</time>
      </trkpt>
      <trkpt lat="65.46326" lon="12.34823">
        <ele>2.213234</ele>
        <time>2020-07-16T08:52:30.283Z</time>
      </trkpt>
      <trkpt lat="65.46361" lon="12.34889">
        <ele>2.240481</ele>
        <time>2020-07-16T08:52:38.145Z</time>
      </trkpt>
      <trkpt lat="65.46406" lon="12.34977">
        <ele>2.37774</ele>
        <time>2020-07-16T08:52:48.638Z</time>
      </trkpt>
      <trkpt lat="65.46482" lon="12.35112">
        <ele>2.615367</ele>
        <time>2020-07-16T08:53:06.544Z</time>
      </trkpt>
      <trkpt lat="65.46624" lon="12.35303">
        <ele>3.957817</ele>
        <time>2020-07-16T08:53:39.832Z</time>
      </trkpt>
      <trkpt lat="65.46685" lon="12.35427">
        <ele>4.577938</ele>
        <time>2020-07-16T08:53:57.419Z</time>
      </trkpt>
      <trkpt lat="65.46733" lon="12.35499">
        <ele>5.010216</ele>
        <time>2020-07-16T08:54:08.663Z</time>
      </trkpt>
      <trkpt lat="65.46742" lon="12.35506">
        <ele>5.083421</ele>
        <time>2020-07-16T08:54:10.926Z</time>
      </trkpt>
      <trkpt lat="65.46754" lon="12.35515">
        <ele>5.177386</ele>
        <time>2020-07-16T08:54:13.063Z</time>
      </trkpt>
      <trkpt lat="65.46763" lon="12.35518">
        <ele>5.245366</ele>
        <time>2020-07-16T08:54:14.638Z</time>
      </trkpt>
      <trkpt lat="65.46773" lon="12.35521">
        <ele>5.325126</ele>
        <time>2020-07-16T08:54:16.852Z</time>
      </trkpt>
      <trkpt lat="65.4679" lon="12.3552">
        <ele>5.455464</ele>
        <time>2020-07-16T08:54:19.907Z</time>
      </trkpt>
      <trkpt lat="65.46823" lon="12.35505">
        <ele>5.614261</ele>
        <time>2020-07-16T08:54:26.141Z</time>
      </trkpt>
      <trkpt lat="65.46924" lon="12.35445">
        <ele>6.113095</ele>
        <time>2020-07-16T08:54:45.092Z</time>
      </trkpt>
      <trkpt lat="65.47122" lon="12.35329">
        <ele>8.85446</ele>
        <time>2020-07-16T08:55:30.041Z</time>
      </trkpt>
      <trkpt lat="65.47139" lon="12.35318">
        <ele>9.127644</ele>
        <time>2020-07-16T08:55:34.783Z</time>
      </trkpt>
      <trkpt lat="65.47193" lon="12.35287">
        <ele>10.948908</ele>
        <time>2020-07-16T08:55:49.955Z</time>
      </trkpt>
      <trkpt lat="65.47234" lon="12.35262">
        <ele>12.379127</ele>
        <time>2020-07-16T08:56:02.337Z</time>
      </trkpt>
      <trkpt lat="65.47263" lon="12.35245">
        <ele>13.364021</ele>
        <time>2020-07-16T08:56:11.039Z</time>
      </trkpt>
      <trkpt lat="65.47336" lon="12.35202">
        <ele>16.103452</ele>
        <time>2020-07-16T08:56:33.621Z</time>
      </trkpt>
      <trkpt lat="65.47359" lon="12.35188">
        <ele>17.093002</ele>
        <time>2020-07-16T08:56:41.281Z</time>
      </trkpt>
      <trkpt lat="65.47385" lon="12.35173">
        <ele>18.211138</ele>
        <time>2020-07-16T08:56:49.414Z</time>
      </trkpt>
      <trkpt lat="65.47414" lon="12.35154">
        <ele>19.481478</ele>
        <time>2020-07-16T08:56:57.773Z</time>
      </trkpt>
      <trkpt lat="65.47435" lon="12.35134">
        <ele>20.422413</ele>
        <time>2020-07-16T08:57:04.728Z</time>
      </trkpt>
      <trkpt lat="65.4747" lon="12.35071">
        <ele>22.273203</ele>
        <time>2020-07-16T08:57:18.603Z</time>
      </trkpt>
      <trkpt lat="65.47476" lon="12.35056">
        <ele>22.623074</ele>
        <time>2020-07-16T08:57:21.609Z</time>
      </trkpt>
      <trkpt lat="65.47477" lon="12.35051">
        <ele>22.728025</ele>
        <time>2020-07-16T08:57:23.078Z</time>
      </trkpt>
      <trkpt lat="65.47505" lon="12.34958">
        <ele>25.907442</ele>
        <time>2020-07-16T08:57:39.841Z</time>
      </trkpt>
      <trkpt lat="65.47534" lon="12.34861">
        <ele>29.22027</ele>
        <time>2020-07-16T08:57:58.232Z</time>
      </trkpt>
      <trkpt lat="65.47588" lon="12.34684">
        <ele>35.2727</ele>
        <time>2020-07-16T08:58:37.351Z</time>
      </trkpt>
      <trkpt lat="65.4761" lon="12.34597">
        <ele>38.140792</ele>
        <time>2020-07-16T08:58:56.376Z</time>
      </trkpt>
      <trkpt lat="65.47623" lon="12.34489">
        <ele>41.290907</ele>
        <time>2020-07-16T08:59:16.434Z</time>
      </trkpt>
      <trkpt lat="65.47635" lon="12.34374">
        <ele>44.603267</ele>
        <time>2020-07-16T08:59:35.752Z</time>
      </trkpt>
      <trkpt lat="65.47652" lon="12.342">
        <ele>47.850736</ele>
        <time>2020-07-16T08:59:59.449Z</time>
      </trkpt>
      <trkpt lat="65.47679" lon="12.33956">
        <ele>50.384248</ele>
        <time>2020-07-16T09:00:24.179Z</time>
      </trkpt>
      <trkpt lat="65.47702" lon="12.33867">
        <ele>51.315747</ele>
        <time>2020-07-16T09:00:33.137Z</time>
      </trkpt>
      <trkpt lat="65.47713" lon="12.33844">
        <ele>51.472439</ele>
        <time>2020-07-16T09:00:35.189Z</time>
      </trkpt>
      <trkpt lat="65.47717" lon="12.33834">
        <ele>51.539093</ele>
        <time>2020-07-16T09:00:37.504Z</time>
      </trkpt>
      <trkpt lat="65.4775" lon="12.33782">
        <ele>51.9734</ele>
        <time>2020-07-16T09:00:47.644Z</time>
      </trkpt>
      <trkpt lat="65.47765" lon="12.33769">
        <ele>52.146592</ele>
        <time>2020-07-16T09:00:50.173Z</time>
      </trkpt>
      <trkpt lat="65.47835" lon="12.33739">
        <ele>52.921746</ele>
        <time>2020-07-16T09:01:06.065Z</time>
      </trkpt>
      <trkpt lat="65.47879" lon="12.33742">
        <ele>52.692826</ele>
        <time>2020-07-16T09:01:15.006Z</time>
      </trkpt>
      <trkpt lat="65.47892" lon="12.33746">
        <ele>52.359664</ele>
        <time>2020-07-16T09:01:18.429Z</time>
      </trkpt>
      <trkpt lat="65.47898" lon="12.33748">
        <ele>52.208583</ele>
        <time>2020-07-16T09:01:19.136Z</time>
      </trkpt>
      <trkpt lat="65.47951" lon="12.33777">
        <ele>50.825307</ele>
        <time>2020-07-16T09:01:26.875Z</time>
      </trkpt>
      <trkpt lat="65.47991" lon="12.338">
        <ele>49.77052</ele>
        <time>2020-07-16T09:01:32.346Z</time>
      </trkpt>
      <trkpt lat="65.48007" lon="12.33809">
        <ele>49.36417</ele>
        <time>2020-07-16T09:01:34.243Z</time>
      </trkpt>
      <trkpt lat="65.4802" lon="12.33817">
        <ele>49.014955</ele>
        <time>2020-07-16T09:01:35.956Z</time>
      </trkpt>
      <trkpt lat="65.48061" lon="12.33842">
        <ele>47.100172</ele>
        <time>2020-07-16T09:01:40.974Z</time>
      </trkpt>
      <trkpt lat="65.48084" lon="12.33856">
        <ele>45.760104</ele>
        <time>2020-07-16T09:01:43.711Z</time>
      </trkpt>
      <trkpt lat="65.48188" lon="12.3392">
        <ele>39.680908</ele>
        <time>2020-07-16T09:01:56.324Z</time>
      </trkpt>
      <trkpt lat="65.48238" lon="12.33958">
        <ele>37.193126</ele>
        <time>2020-07-16T09:02:02.632Z</time>
      </trkpt>
      <trkpt lat="65.4828" lon="12.33995">
        <ele>35.298018</ele>
        <time>2020-07-16T09:02:08.369Z</time>
      </trkpt>
      <trkpt lat="65.48327" lon="12.34038">
        <ele>33.197233</ele>
        <time>2020-07-16T09:02:14.722Z</time>
      </trkpt>
      <trkpt lat="65.48352" lon="12.34061">
        <ele>32.069992</ele>
        <time>2020-07-16T09:02:18.083Z</time>
      </trkpt>
      <trkpt lat="65.48395" lon="12.34108">
        <ele>29.830166</ele>
        <time>2020-07-16T09:02:24.222Z</time>
      </trkpt>
      <trkpt lat="65.48543" lon="12.34239">
        <ele>21.38881</ele>
        <time>2020-07-16T09:02:43.083Z</time>
      </trkpt>
      <trkpt lat="65.4857" lon="12.34262">
        <ele>19.598548</ele>
        <time>2020-07-16T09:02:46.294Z</time>
      </trkpt>
      <trkpt lat="65.48586" lon="12.3427">
        <ele>18.52736</ele>
        <time>2020-07-16T09:02:48.184Z</time>
      </trkpt>
      <trkpt lat="65.48599" lon="12.34276">
        <ele>17.697141</ele>
        <time>2020-07-16T09:02:49.700Z</time>
      </trkpt>
      <trkpt lat="65.48612" lon="12.3428">
        <ele>16.87251</ele>
        <time>2020-07-16T09:02:51.186Z</time>
      </trkpt>
      <trkpt lat="65.48624" lon="12.34277">
        <ele>16.064558</ele>
        <time>2020-07-16T09:02:52.607Z</time>
      </trkpt>
      <trkpt lat="65.4866" lon="12.34265">
        <ele>13.800692</ele>
        <time>2020-07-16T09:02:56.695Z</time>
      </trkpt>
      <trkpt lat="65.48698" lon="12.34244">
        <ele>11.256514</ele>
        <time>2020-07-16T09:03:01.353Z</time>
      </trkpt>
      <trkpt lat="65.48713" lon="12.34238">
        <ele>10.317008</ele>
        <time>2020-07-16T09:03:03.095Z</time>
      </trkpt>
      <trkpt lat="65.48741" lon="12.34239">
        <ele>9.249209</ele>
        <time>2020-07-16T09:03:06.501Z</time>
      </trkpt>
      <trkpt lat="65.48765" lon="12.34256">
        <ele>8.590565</ele>
        <time>2020-07-16T09:03:09.561Z</time>
      </trkpt>
      <trkpt lat="65.48851" lon="12.34388">
        <ele>5.951286</ele>
        <time>2020-07-16T09:03:23.580Z</time>
      </trkpt>
      <trkpt lat="65.48885" lon="12.34424">
        <ele>5.093238</ele>
        <time>2020-07-16T09:03:30.111Z</time>
      </trkpt>
      <trkpt lat="65.48901" lon="12.34434">
        <ele>5.207983</ele>
        <time>2020-07-16T09:03:33.422Z</time>
      </trkpt>
      <trkpt lat="65.48916" lon="12.34437">
        <ele>5.306439</ele>
        <time>2020-07-16T09:03:36.067Z</time>
      </trkpt>
      <trkpt lat="65.48931" lon="12.34434">
        <ele>5.408268</ele>
        <time>2020-07-16T09:03:39.044Z</time>
      </trkpt>
      <trkpt lat="65.48946" lon="12.3443">
        <ele>5.505695</ele>
        <time>2020-07-16T09:03:41.807Z</time>
      </trkpt>
      <trkpt lat="65.48978" lon="12.34419">
        <ele>5.724217</ele>
        <time>2020-07-16T09:03:48.260Z</time>
      </trkpt>
      <trkpt lat="65.48993" lon="12.34416">
        <ele>5.824191</ele>
        <time>2020-07-16T09:03:51.339Z</time>
      </trkpt>
      <trkpt lat="65.49006" lon="12.34415">
        <ele>5.90972</ele>
        <time>2020-07-16T09:03:54.174Z</time>
      </trkpt>
      <trkpt lat="65.49025" lon="12.34417">
        <ele>6.03813</ele>
        <time>2020-07-16T09:03:58.341Z</time>
      </trkpt>
      <trkpt lat="65.49042" lon="12.3442">
        <ele>6.149213</ele>
        <time>2020-07-16T09:04:02.194Z</time>
      </trkpt>
      <trkpt lat="65.49116" lon="12.3445">
        <ele>7.081006</ele>
        <time>2020-07-16T09:04:19.067Z</time>
      </trkpt>
      <trkpt lat="65.49138" lon="12.34466">
        <ele>7.397763</ele>
        <time>2020-07-16T09:04:24.121Z</time>
      </trkpt>
      <trkpt lat="65.49186" lon="12.34508">
        <ele>8.118159</ele>
        <time>2020-07-16T09:04:35.623Z</time>
      </trkpt>
      <trkpt lat="65.49272" lon="12.34587">
        <ele>9.49241</ele>
        <time>2020-07-16T09:04:56.069Z</time>
      </trkpt>
      <trkpt lat="65.49339" lon="12.34634">
        <ele>10.580217</ele>
        <time>2020-07-16T09:05:12.309Z</time>
      </trkpt>
      <trkpt lat="65.49364" lon="12.34649">
        <ele>10.978422</ele>
        <time>2020-07-16T09:05:18.124Z</time>
      </trkpt>
      <trkpt lat="65.49372" lon="12.34653">
        <ele>11.112864</ele>
        <time>2020-07-16T09:05:19.986Z</time>
      </trkpt>
      <trkpt lat="65.4938" lon="12.34658">
        <ele>11.241582</ele>
        <time>2020-07-16T09:05:21.797Z</time>
      </trkpt>
      <trkpt lat="65.49401" lon="12.34671">
        <ele>11.58858</ele>
        <time>2020-07-16T09:05:26.961Z</time>
      </trkpt>
      <trkpt lat="65.49443" lon="12.3469">
        <ele>12.312899</ele>
        <time>2020-07-16T09:05:36.498Z</time>
      </trkpt>
      <trkpt lat="65.49616" lon="12.34753">
        <ele>15.191824</ele>
        <time>2020-07-16T09:06:17.807Z</time>
      </trkpt>
      <trkpt lat="65.49644" lon="12.34769">
        <ele>15.579727</ele>
        <time>2020-07-16T09:06:24.448Z</time>
      </trkpt>
      <trkpt lat="65.49674" lon="12.34791">
        <ele>16.003949</ele>
        <time>2020-07-16T09:06:31.573Z</time>
      </trkpt>
      <trkpt lat="65.49709" lon="12.34808">
        <ele>16.474791</ele>
        <time>2020-07-16T09:06:39.258Z</time>
      </trkpt>
      <trkpt lat="65.49736" lon="12.34797">
        <ele>16.838897</ele>
        <time>2020-07-16T09:06:44.806Z</time>
      </trkpt>
      <trkpt lat="65.49743" lon="12.34784">
        <ele>16.952961</ele>
        <time>2020-07-16T09:06:46.932Z</time>
      </trkpt>
      <trkpt lat="65.49748" lon="12.34767">
        <ele>17.071393</ele>
        <time>2020-07-16T09:06:48.623Z</time>
      </trkpt>
      <trkpt lat="65.49754" lon="12.34667">
        <ele>17.33657</ele>
        <time>2020-07-16T09:06:57.434Z</time>
      </trkpt>
      <trkpt lat="65.49747" lon="12.34578">
        <ele>17.544815</ele>
        <time>2020-07-16T09:07:05.087Z</time>
      </trkpt>
      <trkpt lat="65.49724" lon="12.34453">
        <ele>17.859026</ele>
        <time>2020-07-16T09:07:16.255Z</time>
      </trkpt>
      <trkpt lat="65.49722" lon="12.3441">
        <ele>17.958748</ele>
        <time>2020-07-16T09:07:19.747Z</time>
      </trkpt>
      <trkpt lat="65.49726" lon="12.34375">
        <ele>18.042027</ele>
        <time>2020-07-16T09:07:22.318Z</time>
      </trkpt>
      <trkpt lat="65.4973" lon="12.34357">
        <ele>18.090289</ele>
        <time>2020-07-16T09:07:23.837Z</time>
      </trkpt>
      <trkpt lat="65.49735" lon="12.34342">
        <ele>18.115332</ele>
        <time>2020-07-16T09:07:25.520Z</time>
      </trkpt>
      <trkpt lat="65.49768" lon="12.34272">
        <ele>17.945647</ele>
        <time>2020-07-16T09:07:33.166Z</time>
      </trkpt>
      <trkpt lat="65.49798" lon="12.34174">
        <ele>17.748704</ele>
        <time>2020-07-16T09:07:41.733Z</time>
      </trkpt>
      <trkpt lat="65.49805" lon="12.34138">
        <ele>17.68404</ele>
        <time>2020-07-16T09:07:44.728Z</time>
      </trkpt>
      <trkpt lat="65.49818" lon="12.3407">
        <ele>17.561409</ele>
        <time>2020-07-16T09:07:49.948Z</time>
      </trkpt>
      <trkpt lat="65.49882" lon="12.33709">
        <ele>15.78166</ele>
        <time>2020-07-16T09:08:14.696Z</time>
      </trkpt>
      <trkpt lat="65.49908" lon="12.33597">
        <ele>15.093923</ele>
        <time>2020-07-16T09:08:22.421Z</time>
      </trkpt>
      <trkpt lat="65.4992" lon="12.33556">
        <ele>14.754868</ele>
        <time>2020-07-16T09:08:25.428Z</time>
      </trkpt>
      <trkpt lat="65.49941" lon="12.33494">
        <ele>14.216394</ele>
        <time>2020-07-16T09:08:30.242Z</time>
      </trkpt>
      <trkpt lat="65.49983" lon="12.33378">
        <ele>13.194894</ele>
        <time>2020-07-16T09:08:39.380Z</time>
      </trkpt>
      <trkpt lat="65.5003" lon="12.33244">
        <ele>12.112812</ele>
        <time>2020-07-16T09:08:49.983Z</time>
      </trkpt>
      <trkpt lat="65.50096" lon="12.33059">
        <ele>11.343516</ele>
        <time>2020-07-16T09:09:05.800Z</time>
      </trkpt>
      <trkpt lat="65.50137" lon="12.32941">
        <ele>10.859131</ele>
        <time>2020-07-16T09:09:16.552Z</time>
      </trkpt>
      <trkpt lat="65.50156" lon="12.32857">
        <ele>11.104801</ele>
        <time>2020-07-16T09:09:23.619Z</time>
      </trkpt>
      <trkpt lat="65.50167" lon="12.32781">
        <ele>11.363926</ele>
        <time>2020-07-16T09:09:30.188Z</time>
      </trkpt>
      <trkpt lat="65.50185" lon="12.32505">
        <ele>12.299827</ele>
        <time>2020-07-16T09:09:54.956Z</time>
      </trkpt>
      <trkpt lat="65.50188" lon="12.32466">
        <ele>12.559371</ele>
        <time>2020-07-16T09:09:58.676Z</time>
      </trkpt>
      <trkpt lat="65.50191" lon="12.32437">
        <ele>12.755406</ele>
        <time>2020-07-16T09:10:01.566Z</time>
      </trkpt>
      <trkpt lat="65.50418" lon="12.3165">
        <ele>18.325844</ele>
        <time>2020-07-16T09:11:34.014Z</time>
      </trkpt>
      <trkpt lat="65.50434" lon="12.31593">
        <ele>18.424363</ele>
        <time>2020-07-16T09:11:39.498Z</time>
      </trkpt>
      <trkpt lat="65.50492" lon="12.31398">
        <ele>18.426143</ele>
        <time>2020-07-16T09:11:55.341Z</time>
      </trkpt>
      <trkpt lat="65.50534" lon="12.31242">
        <ele>17.342566</ele>
        <time>2020-07-16T09:12:06.622Z</time>
      </trkpt>
      <trkpt lat="65.50541" lon="12.31206">
        <ele>17.111737</ele>
        <time>2020-07-16T09:12:08.899Z</time>
      </trkpt>
      <trkpt lat="65.50546" lon="12.31169">
        <ele>16.883338</ele>
        <time>2020-07-16T09:12:11.313Z</time>
      </trkpt>
      <trkpt lat="65.50552" lon="12.31073">
        <ele>16.322083</ele>
        <time>2020-07-16T09:12:17.190Z</time>
      </trkpt>
      <trkpt lat="65.50549" lon="12.30771">
        <ele>15.171412</ele>
        <time>2020-07-16T09:12:36.489Z</time>
      </trkpt>
      <trkpt lat="65.50544" lon="12.30366">
        <ele>13.665609</ele>
        <time>2020-07-16T09:13:04.499Z</time>
      </trkpt>
      <trkpt lat="65.50544" lon="12.30357">
        <ele>13.633723</ele>
        <time>2020-07-16T09:13:05.010Z</time>
      </trkpt>
      <trkpt lat="65.50541" lon="12.30288">
        <ele>13.37329</ele>
        <time>2020-07-16T09:13:09.448Z</time>
      </trkpt>
      <trkpt lat="65.50521" lon="12.30164">
        <ele>12.767655</ele>
        <time>2020-07-16T09:13:17.534Z</time>
      </trkpt>
      <trkpt lat="65.50412" lon="12.29735">
        <ele>9.370212</ele>
        <time>2020-07-16T09:13:47.021Z</time>
      </trkpt>
      <trkpt lat="65.50368" lon="12.29591">
        <ele>8.946761</ele>
        <time>2020-07-16T09:13:58.990Z</time>
      </trkpt>
      <trkpt lat="65.50291" lon="12.29404">
        <ele>9.042773</ele>
        <time>2020-07-16T09:14:20.002Z</time>
      </trkpt>
      <trkpt lat="65.50245" lon="12.29243">
        <ele>9.911224</ele>
        <time>2020-07-16T09:14:37.991Z</time>
      </trkpt>
      <trkpt lat="65.50211" lon="12.29195">
        <ele>10.335858</ele>
        <time>2020-07-16T09:14:46.728Z</time>
      </trkpt>
      <trkpt lat="65.50145" lon="12.29139">
        <ele>11.315279</ele>
        <time>2020-07-16T09:15:02.148Z</time>
      </trkpt>
      <trkpt lat="65.50086" lon="12.29046">
        <ele>12.351854</ele>
        <time>2020-07-16T09:15:17.918Z</time>
      </trkpt>
      <trkpt lat="65.50013" lon="12.28884">
        <ele>13.695111</ele>
        <time>2020-07-16T09:15:41.366Z</time>
      </trkpt>
      <trkpt lat="65.49863" lon="12.28617">
        <ele>14.605928</ele>
        <time>2020-07-16T09:16:20.907Z</time>
      </trkpt>
      <trkpt lat="65.4974" lon="12.28347">
        <ele>11.579329</ele>
        <time>2020-07-16T09:16:43.741Z</time>
      </trkpt>
      <trkpt lat="65.49656" lon="12.28197">
        <ele>8.026406</ele>
        <time>2020-07-16T09:16:56.918Z</time>
      </trkpt>
      <trkpt lat="65.49565" lon="12.27986">
        <ele>5.424034</ele>
        <time>2020-07-16T09:17:13.627Z</time>
      </trkpt>
      <trkpt lat="65.49536" lon="12.27902">
        <ele>4.752795</ele>
        <time>2020-07-16T09:17:20.455Z</time>
      </trkpt>
      <trkpt lat="65.49376" lon="12.27275">
        <ele>7.078675</ele>
        <time>2020-07-16T09:18:26.095Z</time>
      </trkpt>
      <trkpt lat="65.49282" lon="12.2683">
        <ele>9.273849</ele>
        <time>2020-07-16T09:19:13.137Z</time>
      </trkpt>
      <trkpt lat="65.49267" lon="12.26709">
        <ele>9.678413</ele>
        <time>2020-07-16T09:19:21.942Z</time>
      </trkpt>
      <trkpt lat="65.49266" lon="12.2667">
        <ele>9.801716</ele>
        <time>2020-07-16T09:19:24.847Z</time>
      </trkpt>
      <trkpt lat="65.49259" lon="12.2642">
        <ele>9.83194</ele>
        <time>2020-07-16T09:19:42.312Z</time>
      </trkpt>
      <trkpt lat="65.49262" lon="12.26328">
        <ele>9.828967</ele>
        <time>2020-07-16T09:19:49.131Z</time>
      </trkpt>
      <trkpt lat="65.4928" lon="12.26276">
        <ele>9.826781</ele>
        <time>2020-07-16T09:19:54.051Z</time>
      </trkpt>
      <trkpt lat="65.49343" lon="12.26277">
        <ele>10.501114</ele>
        <time>2020-07-16T09:20:07.399Z</time>
      </trkpt>
      <trkpt lat="65.49391" lon="12.26254">
        <ele>11.188961</ele>
        <time>2020-07-16T09:20:19.647Z</time>
      </trkpt>
      <trkpt lat="65.49433" lon="12.26256">
        <ele>11.768397</ele>
        <time>2020-07-16T09:20:29.432Z</time>
      </trkpt>
      <trkpt lat="65.49454" lon="12.26246">
        <ele>12.074099</ele>
        <time>2020-07-16T09:20:34.224Z</time>
      </trkpt>
      <trkpt lat="65.49493" lon="12.26204">
        <ele>12.368686</ele>
        <time>2020-07-16T09:20:43.597Z</time>
      </trkpt>
      <trkpt lat="65.49511" lon="12.26161">
        <ele>12.401692</ele>
        <time>2020-07-16T09:20:48.524Z</time>
      </trkpt>
      <trkpt lat="65.49518" lon="12.26125">
        <ele>12.423681</ele>
        <time>2020-07-16T09:20:52.051Z</time>
      </trkpt>
      <trkpt lat="65.4952" lon="12.26104">
        <ele>12.435275</ele>
        <time>2020-07-16T09:20:53.466Z</time>
      </trkpt>
      <trkpt lat="65.49522" lon="12.26073">
        <ele>12.452731</ele>
        <time>2020-07-16T09:20:56.003Z</time>
      </trkpt>
      <trkpt lat="65.49523" lon="12.26043">
        <ele>12.469516</ele>
        <time>2020-07-16T09:20:58.512Z</time>
      </trkpt>
      <trkpt lat="65.49523" lon="12.26002">
        <ele>12.491874</ele>
        <time>2020-07-16T09:21:01.207Z</time>
      </trkpt>
      <trkpt lat="65.4952" lon="12.25865">
        <ele>12.567413</ele>
        <time>2020-07-16T09:21:10.587Z</time>
      </trkpt>
      <trkpt lat="65.49517" lon="12.25759">
        <ele>12.266709</ele>
        <time>2020-07-16T09:21:17.200Z</time>
      </trkpt>
      <trkpt lat="65.49515" lon="12.25668">
        <ele>11.959113</ele>
        <time>2020-07-16T09:21:23.101Z</time>
      </trkpt>
      <trkpt lat="65.49514" lon="12.25491">
        <ele>11.36168</ele>
        <time>2020-07-16T09:21:34.826Z</time>
      </trkpt>
      <trkpt lat="65.4952" lon="12.25364">
        <ele>10.926318</ele>
        <time>2020-07-16T09:21:43.484Z</time>
      </trkpt>
      <trkpt lat="65.49522" lon="12.25352">
        <ele>10.884978</ele>
        <time>2020-07-16T09:21:44.278Z</time>
      </trkpt>
      <trkpt lat="65.49531" lon="12.25274">
        <ele>10.6046</ele>
        <time>2020-07-16T09:21:49.851Z</time>
      </trkpt>
      <trkpt lat="65.49537" lon="12.25227">
        <ele>10.436149</ele>
        <time>2020-07-16T09:21:53.112Z</time>
      </trkpt>
      <trkpt lat="65.49552" lon="12.25112">
        <ele>10.02421</ele>
        <time>2020-07-16T09:22:01.062Z</time>
      </trkpt>
      <trkpt lat="65.49562" lon="12.25009">
        <ele>9.663795</ele>
        <time>2020-07-16T09:22:07.622Z</time>
      </trkpt>
      <trkpt lat="65.49566" lon="12.24968">
        <ele>9.52738</ele>
        <time>2020-07-16T09:22:10.372Z</time>
      </trkpt>
      <trkpt lat="65.49568" lon="12.2493">
        <ele>9.407109</ele>
        <time>2020-07-16T09:22:12.800Z</time>
      </trkpt>
      <trkpt lat="65.49575" lon="12.24929">
        <ele>9.36072</ele>
        <time>2020-07-16T09:22:13.687Z</time>
      </trkpt>
      <trkpt lat="65.49581" lon="12.24873">
        <ele>9.176366</ele>
        <time>2020-07-16T09:22:17.660Z</time>
      </trkpt>
      <trkpt lat="65.49582" lon="12.24852">
        <ele>9.11146</ele>
        <time>2020-07-16T09:22:18.883Z</time>
      </trkpt>
      <trkpt lat="65.49583" lon="12.24795">
        <ele>8.93207</ele>
        <time>2020-07-16T09:22:22.780Z</time>
      </trkpt>
      <trkpt lat="65.49583" lon="12.24785">
        <ele>8.900701</ele>
        <time>2020-07-16T09:22:23.465Z</time>
      </trkpt>
      <trkpt lat="65.49585" lon="12.24779">
        <ele>8.876753</ele>
        <time>2020-07-16T09:22:23.914Z</time>
      </trkpt>
      <trkpt lat="65.49594" lon="12.24793">
        <ele>8.79101</ele>
        <time>2020-07-16T09:22:25.623Z</time>
      </trkpt>
      <trkpt lat="65.49603" lon="12.2481">
        <ele>8.706872</ele>
        <time>2020-07-16T09:22:27.557Z</time>
      </trkpt>
      <trkpt lat="65.49618" lon="12.24843">
        <ele>8.553863</ele>
        <time>2020-07-16T09:22:30.691Z</time>
      </trkpt>
      <trkpt lat="65.49666" lon="12.24925">
        <ele>8.309277</ele>
        <time>2020-07-16T09:22:40.718Z</time>
      </trkpt>
      <trkpt lat="65.49681" lon="12.24954">
        <ele>8.351011</ele>
        <time>2020-07-16T09:22:43.800Z</time>
      </trkpt>
      <trkpt lat="65.49681" lon="12.24954">
        <ele>8.351104</ele>
        <time>2020-07-16T09:22:43.807Z</time>
      </trkpt>
      <trkpt lat="65.49675" lon="12.2497">
        <ele>8.370616</ele>
        <time>2020-07-16T09:22:45.463Z</time>
      </trkpt>
      <trkpt lat="65.49722" lon="12.25069">
        <ele>8.509996</ele>
        <time>2020-07-16T09:22:56.946Z</time>
      </trkpt>
      <trkpt lat="65.49779" lon="12.25189">
        <ele>8.685588</ele>
        <time>2020-07-16T09:23:11.987Z</time>
      </trkpt>
      <trkpt lat="65.49794" lon="12.25222">
        <ele>8.749666</ele>
        <time>2020-07-16T09:23:16.046Z</time>
      </trkpt>
      <trkpt lat="65.49827" lon="12.25295">
        <ele>8.894457</ele>
        <time>2020-07-16T09:23:25.071Z</time>
      </trkpt>
      <trkpt lat="65.4992" lon="12.25481">
        <ele>9.243307</ele>
        <time>2020-07-16T09:23:47.251Z</time>
      </trkpt>
      <trkpt lat="65.49954" lon="12.25534">
        <ele>9.257845</ele>
        <time>2020-07-16T09:23:54.194Z</time>
      </trkpt>
      <trkpt lat="65.49979" lon="12.25567">
        <ele>9.268306</ele>
        <time>2020-07-16T09:23:59.239Z</time>
      </trkpt>
      <trkpt lat="65.50005" lon="12.25598">
        <ele>9.278869</ele>
        <time>2020-07-16T09:24:04.316Z</time>
      </trkpt>
      <trkpt lat="65.50029" lon="12.25627">
        <ele>9.288521</ele>
        <time>2020-07-16T09:24:09.011Z</time>
      </trkpt>
      <trkpt lat="65.50071" lon="12.25679">
        <ele>9.341285</ele>
        <time>2020-07-16T09:24:17.720Z</time>
      </trkpt>
      <trkpt lat="65.50127" lon="12.25749">
        <ele>9.890099</ele>
        <time>2020-07-16T09:24:29.575Z</time>
      </trkpt>
      <trkpt lat="65.50174" lon="12.25808">
        <ele>10.349934</ele>
        <time>2020-07-16T09:24:40.522Z</time>
      </trkpt>
      <trkpt lat="65.50213" lon="12.25858">
        <ele>10.734319</ele>
        <time>2020-07-16T09:24:50.305Z</time>
      </trkpt>
      <trkpt lat="65.50319" lon="12.25991">
        <ele>12.73225</ele>
        <time>2020-07-16T09:25:18.563Z</time>
      </trkpt>
      <trkpt lat="65.50353" lon="12.26037">
        <ele>13.429917</ele>
        <time>2020-07-16T09:25:27.995Z</time>
      </trkpt>
      <trkpt lat="65.50368" lon="12.26059">
        <ele>13.745199</ele>
        <time>2020-07-16T09:25:32.258Z</time>
      </trkpt>
      <trkpt lat="65.5038" lon="12.26077">
        <ele>13.986244</ele>
        <time>2020-07-16T09:25:35.483Z</time>
      </trkpt>
      <trkpt lat="65.50393" lon="12.26102">
        <ele>14.261239</ele>
        <time>2020-07-16T09:25:39.592Z</time>
      </trkpt>
      <trkpt lat="65.50409" lon="12.26132">
        <ele>14.557392</ele>
        <time>2020-07-16T09:25:44.343Z</time>
      </trkpt>
      <trkpt lat="65.50514" lon="12.26346">
        <ele>16.606284</ele>
        <time>2020-07-16T09:26:15.463Z</time>
      </trkpt>
      <trkpt lat="65.50548" lon="12.26403">
        <ele>16.944631</ele>
        <time>2020-07-16T09:26:24.067Z</time>
      </trkpt>
      <trkpt lat="65.50562" lon="12.26421">
        <ele>17.032138</ele>
        <time>2020-07-16T09:26:27.334Z</time>
      </trkpt>
      <trkpt lat="65.50575" lon="12.26435">
        <ele>17.111526</ele>
        <time>2020-07-16T09:26:30.088Z</time>
      </trkpt>
      <trkpt lat="65.50616" lon="12.26466">
        <ele>17.350078</ele>
        <time>2020-07-16T09:26:38.462Z</time>
      </trkpt>
      <trkpt lat="65.50739" lon="12.26519">
        <ele>17.868286</ele>
        <time>2020-07-16T09:27:01.590Z</time>
      </trkpt>
      <trkpt lat="65.50785" lon="12.26571">
        <ele>17.970953</ele>
        <time>2020-07-16T09:27:10.735Z</time>
      </trkpt>
      <trkpt lat="65.50848" lon="12.26663">
        <ele>18.119818</ele>
        <time>2020-07-16T09:27:24.559Z</time>
      </trkpt>
      <trkpt lat="65.50899" lon="12.26736">
        <ele>18.208209</ele>
        <time>2020-07-16T09:27:35.623Z</time>
      </trkpt>
      <trkpt lat="65.50964" lon="12.2683">
        <ele>18.317852</ele>
        <time>2020-07-16T09:27:49.931Z</time>
      </trkpt>
      <trkpt lat="65.51115" lon="12.27022">
        <ele>17.857717</ele>
        <time>2020-07-16T09:28:19.552Z</time>
      </trkpt>
      <trkpt lat="65.51282" lon="12.27136">
        <ele>16.631212</ele>
        <time>2020-07-16T09:28:46.477Z</time>
      </trkpt>
      <trkpt lat="65.51342" lon="12.27146">
        <ele>16.118685</ele>
        <time>2020-07-16T09:28:55.929Z</time>
      </trkpt>
      <trkpt lat="65.51523" lon="12.27089">
        <ele>15.410031</ele>
        <time>2020-07-16T09:29:26.554Z</time>
      </trkpt>
      <trkpt lat="65.51578" lon="12.27085">
        <ele>15.551611</ele>
        <time>2020-07-16T09:29:36.557Z</time>
      </trkpt>
      <trkpt lat="65.51649" lon="12.27125">
        <ele>15.772485</ele>
        <time>2020-07-16T09:29:50.334Z</time>
      </trkpt>
      <trkpt lat="65.51803" lon="12.27274">
        <ele>16.795078</ele>
        <time>2020-07-16T09:30:23.397Z</time>
      </trkpt>
      <trkpt lat="65.51835" lon="12.27304">
        <ele>17.061101</ele>
        <time>2020-07-16T09:30:31.286Z</time>
      </trkpt>
      <trkpt lat="65.51856" lon="12.27324">
        <ele>17.229539</ele>
        <time>2020-07-16T09:30:35.751Z</time>
      </trkpt>
      <trkpt lat="65.51868" lon="12.27337">
        <ele>17.329375</ele>
        <time>2020-07-16T09:30:38.762Z</time>
      </trkpt>
      <trkpt lat="65.51881" lon="12.27349">
        <ele>17.27094</ele>
        <time>2020-07-16T09:30:41.317Z</time>
      </trkpt>
      <trkpt lat="65.51896" lon="12.27368">
        <ele>17.196681</ele>
        <time>2020-07-16T09:30:44.788Z</time>
      </trkpt>
      <trkpt lat="65.51912" lon="12.27392">
        <ele>17.115704</ele>
        <time>2020-07-16T09:30:48.194Z</time>
      </trkpt>
      <trkpt lat="65.51943" lon="12.27444">
        <ele>16.952537</ele>
        <time>2020-07-16T09:30:54.777Z</time>
      </trkpt>
      <trkpt lat="65.51956" lon="12.2747">
        <ele>16.877372</ele>
        <time>2020-07-16T09:30:57.917Z</time>
      </trkpt>
      <trkpt lat="65.51974" lon="12.275">
        <ele>16.783898</ele>
        <time>2020-07-16T09:31:01.241Z</time>
      </trkpt>
      <trkpt lat="65.51999" lon="12.27527">
        <ele>16.663774</ele>
        <time>2020-07-16T09:31:05.638Z</time>
      </trkpt>
      <trkpt lat="65.52029" lon="12.2753">
        <ele>16.469358</ele>
        <time>2020-07-16T09:31:09.902Z</time>
      </trkpt>
      <trkpt lat="65.52152" lon="12.2742">
        <ele>13.414923</ele>
        <time>2020-07-16T09:31:27.742Z</time>
      </trkpt>
      <trkpt lat="65.52167" lon="12.27411">
        <ele>13.067374</ele>
        <time>2020-07-16T09:31:29.674Z</time>
      </trkpt>
      <trkpt lat="65.52183" lon="12.27403">
        <ele>12.680864</ele>
        <time>2020-07-16T09:31:32.087Z</time>
      </trkpt>
      <trkpt lat="65.52202" lon="12.27398">
        <ele>12.34109</ele>
        <time>2020-07-16T09:31:34.707Z</time>
      </trkpt>
      <trkpt lat="65.52246" lon="12.27393">
        <ele>12.092462</ele>
        <time>2020-07-16T09:31:41.177Z</time>
      </trkpt>
      <trkpt lat="65.52294" lon="12.27375">
        <ele>11.818496</ele>
        <time>2020-07-16T09:31:48.828Z</time>
      </trkpt>
      <trkpt lat="65.52346" lon="12.27305">
        <ele>11.478326</ele>
        <time>2020-07-16T09:31:59.845Z</time>
      </trkpt>
      <trkpt lat="65.52361" lon="12.27276">
        <ele>11.37298</ele>
        <time>2020-07-16T09:32:03.660Z</time>
      </trkpt>
      <trkpt lat="65.52371" lon="12.27253">
        <ele>11.436384</ele>
        <time>2020-07-16T09:32:06.833Z</time>
      </trkpt>
      <trkpt lat="65.52395" lon="12.27202">
        <ele>11.650549</ele>
        <time>2020-07-16T09:32:13.605Z</time>
      </trkpt>
      <trkpt lat="65.52433" lon="12.27144">
        <ele>11.956231</ele>
        <time>2020-07-16T09:32:23.076Z</time>
      </trkpt>
      <trkpt lat="65.52505" lon="12.27053">
        <ele>12.501172</ele>
        <time>2020-07-16T09:32:39.224Z</time>
      </trkpt>
      <trkpt lat="65.52527" lon="12.27026">
        <ele>12.469447</ele>
        <time>2020-07-16T09:32:43.735Z</time>
      </trkpt>
      <trkpt lat="65.5259" lon="12.26946">
        <ele>12.001132</ele>
        <time>2020-07-16T09:32:56.006Z</time>
      </trkpt>
      <trkpt lat="65.52651" lon="12.26886">
        <ele>11.56872</ele>
        <time>2020-07-16T09:33:06.120Z</time>
      </trkpt>
      <trkpt lat="65.527" lon="12.26869">
        <ele>10.975777</ele>
        <time>2020-07-16T09:33:13.368Z</time>
      </trkpt>
      <trkpt lat="65.53172" lon="12.26812">
        <ele>2.088549</ele>
        <time>2020-07-16T09:34:20.214Z</time>
      </trkpt>
      <trkpt lat="65.53281" lon="12.26825">
        <ele>0.903579</ele>
        <time>2020-07-16T09:34:36.962Z</time>
      </trkpt>
      <trkpt lat="65.53377" lon="12.26847">
        <ele>0.295754</ele>
        <time>2020-07-16T09:34:53.029Z</time>
      </trkpt>
      <trkpt lat="65.53438" lon="12.26861">
        <ele>0.154598</ele>
        <time>2020-07-16T09:35:03.753Z</time>
      </trkpt>
      <trkpt lat="65.53483" lon="12.26872">
        <ele>0.13671</ele>
        <time>2020-07-16T09:35:11.887Z</time>
      </trkpt>
      <trkpt lat="65.53521" lon="12.2688">
        <ele>0.121645</ele>
        <time>2020-07-16T09:35:18.765Z</time>
      </trkpt>
      <trkpt lat="65.53548" lon="12.26886">
        <ele>0.110917</ele>
        <time>2020-07-16T09:35:23.658Z</time>
      </trkpt>
      <trkpt lat="65.53583" lon="12.26895">
        <ele>0.101554</ele>
        <time>2020-07-16T09:35:29.861Z</time>
      </trkpt>
      <trkpt lat="65.53627" lon="12.26905">
        <ele>0.111375</ele>
        <time>2020-07-16T09:35:37.810Z</time>
      </trkpt>
      <trkpt lat="65.53668" lon="12.26914">
        <ele>0.120376</ele>
        <time>2020-07-16T09:35:45.092Z</time>
      </trkpt>
      <trkpt lat="65.53697" lon="12.2692">
        <ele>0.126677</ele>
        <time>2020-07-16T09:35:50.200Z</time>
      </trkpt>
      <trkpt lat="65.53736" lon="12.2693">
        <ele>0.135463</ele>
        <time>2020-07-16T09:35:57.260Z</time>
      </trkpt>
      <trkpt lat="65.53768" lon="12.2694">
        <ele>0.362718</ele>
        <time>2020-07-16T09:36:02.966Z</time>
      </trkpt>
      <trkpt lat="65.53807" lon="12.26952">
        <ele>0.998555</ele>
        <time>2020-07-16T09:36:10.085Z</time>
      </trkpt>
      <trkpt lat="65.53846" lon="12.26967">
        <ele>1.656171</ele>
        <time>2020-07-16T09:36:18.346Z</time>
      </trkpt>
      <trkpt lat="65.53934" lon="12.26996">
        <ele>3.12326</ele>
        <time>2020-07-16T09:36:39.784Z</time>
      </trkpt>
      <trkpt lat="65.54419" lon="12.27166">
        <ele>30.216637</ele>
        <time>2020-07-16T09:39:36.196Z</time>
      </trkpt>
      <trkpt lat="65.54456" lon="12.27188">
        <ele>32.445447</ele>
        <time>2020-07-16T09:39:51.366Z</time>
      </trkpt>
      <trkpt lat="65.545" lon="12.27213">
        <ele>34.071064</ele>
        <time>2020-07-16T09:40:08.019Z</time>
      </trkpt>
      <trkpt lat="65.54585" lon="12.27265">
        <ele>36.721074</ele>
        <time>2020-07-16T09:40:35.701Z</time>
      </trkpt>
      <trkpt lat="65.54652" lon="12.27304">
        <ele>38.010594</ele>
        <time>2020-07-16T09:40:48.075Z</time>
      </trkpt>
      <trkpt lat="65.54719" lon="12.27344">
        <ele>35.427144</ele>
        <time>2020-07-16T09:40:57.169Z</time>
      </trkpt>
      <trkpt lat="65.54833" lon="12.27415">
        <ele>30.997107</ele>
        <time>2020-07-16T09:41:11.319Z</time>
      </trkpt>
      <trkpt lat="65.54881" lon="12.27466">
        <ele>28.965241</ele>
        <time>2020-07-16T09:41:17.508Z</time>
      </trkpt>
      <trkpt lat="65.55017" lon="12.2771">
        <ele>25.248949</ele>
        <time>2020-07-16T09:41:40.123Z</time>
      </trkpt>
      <trkpt lat="65.55087" lon="12.27853">
        <ele>26.023728</ele>
        <time>2020-07-16T09:42:03.315Z</time>
      </trkpt>
      <trkpt lat="65.55106" lon="12.27899">
        <ele>26.248877</ele>
        <time>2020-07-16T09:42:11.390Z</time>
      </trkpt>
      <trkpt lat="65.55123" lon="12.27945">
        <ele>26.780202</ele>
        <time>2020-07-16T09:42:19.119Z</time>
      </trkpt>
      <trkpt lat="65.55136" lon="12.27983">
        <ele>27.206828</ele>
        <time>2020-07-16T09:42:24.536Z</time>
      </trkpt>
      <trkpt lat="65.55147" lon="12.28018">
        <ele>27.598191</ele>
        <time>2020-07-16T09:42:30.771Z</time>
      </trkpt>
      <trkpt lat="65.55164" lon="12.28075">
        <ele>28.210046</ele>
        <time>2020-07-16T09:42:39.011Z</time>
      </trkpt>
      <trkpt lat="65.55268" lon="12.2845">
        <ele>29.955726</ele>
        <time>2020-07-16T09:43:16.316Z</time>
      </trkpt>
      <trkpt lat="65.55294" lon="12.28578">
        <ele>29.893336</ele>
        <time>2020-07-16T09:43:25.250Z</time>
      </trkpt>
      <trkpt lat="65.55303" lon="12.28631">
        <ele>29.854735</ele>
        <time>2020-07-16T09:43:28.898Z</time>
      </trkpt>
      <trkpt lat="65.55329" lon="12.28777">
        <ele>29.35288</ele>
        <time>2020-07-16T09:43:39.277Z</time>
      </trkpt>
      <trkpt lat="65.55379" lon="12.2904">
        <ele>28.41247</ele>
        <time>2020-07-16T09:43:58.700Z</time>
      </trkpt>
      <trkpt lat="65.55411" lon="12.29136">
        <ele>27.81713</ele>
        <time>2020-07-16T09:44:06.844Z</time>
      </trkpt>
      <trkpt lat="65.55425" lon="12.29171">
        <ele>27.578726</ele>
        <time>2020-07-16T09:44:10.039Z</time>
      </trkpt>
      <trkpt lat="65.55495" lon="12.29328">
        <ele>26.469693</ele>
        <time>2020-07-16T09:44:24.324Z</time>
      </trkpt>
      <trkpt lat="65.55551" lon="12.29441">
        <ele>24.724913</ele>
        <time>2020-07-16T09:44:34.842Z</time>
      </trkpt>
      <trkpt lat="65.55712" lon="12.29703">
        <ele>18.756207</ele>
        <time>2020-07-16T09:45:00.551Z</time>
      </trkpt>
      <trkpt lat="65.5573" lon="12.29726">
        <ele>17.96178</ele>
        <time>2020-07-16T09:45:03.101Z</time>
      </trkpt>
      <trkpt lat="65.55746" lon="12.29743">
        <ele>17.283766</ele>
        <time>2020-07-16T09:45:05.235Z</time>
      </trkpt>
      <trkpt lat="65.55793" lon="12.29779">
        <ele>15.363818</ele>
        <time>2020-07-16T09:45:11.296Z</time>
      </trkpt>
      <trkpt lat="65.55821" lon="12.298">
        <ele>14.186132</ele>
        <time>2020-07-16T09:45:14.854Z</time>
      </trkpt>
      <trkpt lat="65.55838" lon="12.29812">
        <ele>13.466454</ele>
        <time>2020-07-16T09:45:16.920Z</time>
      </trkpt>
      <trkpt lat="65.55864" lon="12.29839">
        <ele>12.337991</ele>
        <time>2020-07-16T09:45:20.315Z</time>
      </trkpt>
      <trkpt lat="65.55911" lon="12.29917">
        <ele>10.016005</ele>
        <time>2020-07-16T09:45:27.447Z</time>
      </trkpt>
      <trkpt lat="65.55927" lon="12.29945">
        <ele>9.214978</ele>
        <time>2020-07-16T09:45:29.859Z</time>
      </trkpt>
      <trkpt lat="65.55998" lon="12.30076">
        <ele>7.151509</ele>
        <time>2020-07-16T09:45:42.129Z</time>
      </trkpt>
      <trkpt lat="65.56047" lon="12.30151">
        <ele>6.598212</ele>
        <time>2020-07-16T09:45:50.794Z</time>
      </trkpt>
      <trkpt lat="65.5613" lon="12.30217">
        <ele>6.10266</ele>
        <time>2020-07-16T09:46:07.843Z</time>
      </trkpt>
      <trkpt lat="65.56158" lon="12.30269">
        <ele>6.497906</ele>
        <time>2020-07-16T09:46:15.394Z</time>
      </trkpt>
      <trkpt lat="65.56213" lon="12.30392">
        <ele>7.341656</ele>
        <time>2020-07-16T09:46:32.099Z</time>
      </trkpt>
      <trkpt lat="65.56275" lon="12.30531">
        <ele>8.064324</ele>
        <time>2020-07-16T09:46:50.603Z</time>
      </trkpt>
      <trkpt lat="65.56302" lon="12.30586">
        <ele>8.204789</ele>
        <time>2020-07-16T09:46:57.816Z</time>
      </trkpt>
      <trkpt lat="65.56334" lon="12.30627">
        <ele>8.349661</ele>
        <time>2020-07-16T09:47:04.838Z</time>
      </trkpt>
      <trkpt lat="65.56342" lon="12.30635">
        <ele>8.383255</ele>
        <time>2020-07-16T09:47:06.641Z</time>
      </trkpt>
      <trkpt lat="65.56352" lon="12.30643">
        <ele>8.425685</ele>
        <time>2020-07-16T09:47:08.364Z</time>
      </trkpt>
      <trkpt lat="65.56415" lon="12.30664">
        <ele>8.624118</ele>
        <time>2020-07-16T09:47:19.483Z</time>
      </trkpt>
      <trkpt lat="65.56453" lon="12.3065">
        <ele>8.397415</ele>
        <time>2020-07-16T09:47:25.669Z</time>
      </trkpt>
      <trkpt lat="65.56678" lon="12.30441">
        <ele>7.443522</ele>
        <time>2020-07-16T09:48:04.470Z</time>
      </trkpt>
      <trkpt lat="65.56714" lon="12.30423">
        <ele>7.389733</ele>
        <time>2020-07-16T09:48:11.376Z</time>
      </trkpt>
      <trkpt lat="65.56739" lon="12.30424">
        <ele>7.352788</ele>
        <time>2020-07-16T09:48:16.311Z</time>
      </trkpt>
      <trkpt lat="65.56752" lon="12.30429">
        <ele>7.334077</ele>
        <time>2020-07-16T09:48:18.823Z</time>
      </trkpt>
      <trkpt lat="65.56768" lon="12.30438">
        <ele>7.502364</ele>
        <time>2020-07-16T09:48:22.318Z</time>
      </trkpt>
      <trkpt lat="65.56809" lon="12.3048">
        <ele>7.957605</ele>
        <time>2020-07-16T09:48:31.458Z</time>
      </trkpt>
      <trkpt lat="65.56849" lon="12.30541">
        <ele>8.44252</ele>
        <time>2020-07-16T09:48:41.651Z</time>
      </trkpt>
      <trkpt lat="65.56862" lon="12.30561">
        <ele>8.601798</ele>
        <time>2020-07-16T09:48:45.150Z</time>
      </trkpt>
      <trkpt lat="65.56929" lon="12.30666">
        <ele>9.426677</ele>
        <time>2020-07-16T09:49:02.600Z</time>
      </trkpt>
      <trkpt lat="65.56963" lon="12.30707">
        <ele>9.810757</ele>
        <time>2020-07-16T09:49:10.604Z</time>
      </trkpt>
      <trkpt lat="65.5701" lon="12.30732">
        <ele>10.308573</ele>
        <time>2020-07-16T09:49:20.721Z</time>
      </trkpt>
      <trkpt lat="65.5704" lon="12.30732">
        <ele>10.615888</ele>
        <time>2020-07-16T09:49:26.905Z</time>
      </trkpt>
      <trkpt lat="65.57084" lon="12.30706">
        <ele>11.07837</ele>
        <time>2020-07-16T09:49:36.376Z</time>
      </trkpt>
      <trkpt lat="65.57155" lon="12.30648">
        <ele>11.723075</ele>
        <time>2020-07-16T09:49:51.672Z</time>
      </trkpt>
      <trkpt lat="65.57186" lon="12.30621">
        <ele>12.015144</ele>
        <time>2020-07-16T09:49:58.615Z</time>
      </trkpt>
      <trkpt lat="65.57293" lon="12.30531">
        <ele>13.022304</ele>
        <time>2020-07-16T09:50:22.049Z</time>
      </trkpt>
      <trkpt lat="65.57592" lon="12.3028">
        <ele>15.92338</ele>
        <time>2020-07-16T09:51:28.070Z</time>
      </trkpt>
      <trkpt lat="65.57709" lon="12.30179">
        <ele>16.617112</ele>
        <time>2020-07-16T09:51:52.715Z</time>
      </trkpt>
      <trkpt lat="65.5774" lon="12.30153">
        <ele>16.801067</ele>
        <time>2020-07-16T09:51:58.975Z</time>
      </trkpt>
      <trkpt lat="65.57777" lon="12.30122">
        <ele>16.830422</ele>
        <time>2020-07-16T09:52:06.242Z</time>
      </trkpt>
      <trkpt lat="65.57801" lon="12.30101">
        <ele>16.729962</ele>
        <time>2020-07-16T09:52:10.942Z</time>
      </trkpt>
      <trkpt lat="65.57835" lon="12.30074">
        <ele>16.58837</ele>
        <time>2020-07-16T09:52:17.483Z</time>
      </trkpt>
      <trkpt lat="65.57868" lon="12.30047">
        <ele>16.451572</ele>
        <time>2020-07-16T09:52:23.481Z</time>
      </trkpt>
      <trkpt lat="65.57915" lon="12.30029">
        <ele>16.265618</ele>
        <time>2020-07-16T09:52:30.846Z</time>
      </trkpt>
      <trkpt lat="65.57952" lon="12.30031">
        <ele>15.506959</ele>
        <time>2020-07-16T09:52:36.375Z</time>
      </trkpt>
      <trkpt lat="65.57998" lon="12.30044">
        <ele>13.918548</ele>
        <time>2020-07-16T09:52:43.048Z</time>
      </trkpt>
      <trkpt lat="65.58056" lon="12.30061">
        <ele>11.892802</ele>
        <time>2020-07-16T09:52:50.465Z</time>
      </trkpt>
      <trkpt lat="65.58134" lon="12.30082">
        <ele>9.015424</ele>
        <time>2020-07-16T09:52:59.899Z</time>
      </trkpt>
      <trkpt lat="65.58157" lon="12.30087">
        <ele>8.048193</ele>
        <time>2020-07-16T09:53:02.711Z</time>
      </trkpt>
      <trkpt lat="65.58172" lon="12.301">
        <ele>7.386752</ele>
        <time>2020-07-16T09:53:04.541Z</time>
      </trkpt>
      <trkpt lat="65.58188" lon="12.30114">
        <ele>6.650774</ele>
        <time>2020-07-16T09:53:06.783Z</time>
      </trkpt>
      <trkpt lat="65.582" lon="12.30124">
        <ele>6.111772</ele>
        <time>2020-07-16T09:53:08.292Z</time>
      </trkpt>
      <trkpt lat="65.58208" lon="12.30128">
        <ele>5.758893</ele>
        <time>2020-07-16T09:53:09.309Z</time>
      </trkpt>
      <trkpt lat="65.58252" lon="12.30134">
        <ele>3.898362</ele>
        <time>2020-07-16T09:53:14.898Z</time>
      </trkpt>
      <trkpt lat="65.58288" lon="12.30138">
        <ele>2.403322</ele>
        <time>2020-07-16T09:53:19.458Z</time>
      </trkpt>
      <trkpt lat="65.58298" lon="12.30141">
        <ele>2.281748</ele>
        <time>2020-07-16T09:53:20.860Z</time>
      </trkpt>
      <trkpt lat="65.58302" lon="12.30144">
        <ele>2.231049</ele>
        <time>2020-07-16T09:53:21.387Z</time>
      </trkpt>
      <trkpt lat="65.58305" lon="12.3015">
        <ele>2.184141</ele>
        <time>2020-07-16T09:53:21.881Z</time>
      </trkpt>
      <trkpt lat="65.58314" lon="12.30187">
        <ele>1.982373</ele>
        <time>2020-07-16T09:53:24.379Z</time>
      </trkpt>
      <trkpt lat="65.58321" lon="12.3022">
        <ele>1.803817</ele>
        <time>2020-07-16T09:53:26.607Z</time>
      </trkpt>
      <trkpt lat="65.58338" lon="12.30297">
        <ele>1.389865</ele>
        <time>2020-07-16T09:53:31.620Z</time>
      </trkpt>
      <trkpt lat="65.58353" lon="12.30366">
        <ele>1.018062</ele>
        <time>2020-07-16T09:53:36.123Z</time>
      </trkpt>
      <trkpt lat="65.5842" lon="12.30547">
        <ele>0.289481</ele>
        <time>2020-07-16T09:53:50.083Z</time>
      </trkpt>
      <trkpt lat="65.58445" lon="12.3065">
        <ele>0.228249</ele>
        <time>2020-07-16T09:53:57.027Z</time>
      </trkpt>
      <trkpt lat="65.58473" lon="12.30852">
        <ele>0.120259</ele>
        <time>2020-07-16T09:54:09.279Z</time>
      </trkpt>
      <trkpt lat="65.58502" lon="12.31771">
        <ele>0.007855</ele>
        <time>2020-07-16T09:55:02.438Z</time>
      </trkpt>
      <trkpt lat="65.58455" lon="12.32471">
        <time>2020-07-16T09:55:43.353Z</time>
      </trkpt>
      <trkpt lat="65.57672" lon="12.37661">
        <time>2020-07-16T10:01:02.090Z</time>
      </trkpt>
      <trkpt lat="65.57562" lon="12.3866">
        <time>2020-07-16T10:02:01.701Z</time>
      </trkpt>
      <trkpt lat="65.57557" lon="12.3898">
        <time>2020-07-16T10:02:20.178Z</time>
      </trkpt>
      <trkpt lat="65.57571" lon="12.39205">
        <ele>0.035753</ele>
        <time>2020-07-16T10:02:33.273Z</time>
      </trkpt>
      <trkpt lat="65.57599" lon="12.39379">
        <ele>0.233634</ele>
        <time>2020-07-16T10:02:44.025Z</time>
      </trkpt>
      <trkpt lat="65.57642" lon="12.39481">
        <ele>0.389693</ele>
        <time>2020-07-16T10:02:52.491Z</time>
      </trkpt>
      <trkpt lat="65.5768" lon="12.39537">
        <ele>0.705546</ele>
        <time>2020-07-16T10:02:58.627Z</time>
      </trkpt>
      <trkpt lat="65.57736" lon="12.39554">
        <ele>1.58441</ele>
        <time>2020-07-16T10:03:06.571Z</time>
      </trkpt>
      <trkpt lat="65.57778" lon="12.3951">
        <ele>2.281166</ele>
        <time>2020-07-16T10:03:12.876Z</time>
      </trkpt>
      <trkpt lat="65.578" lon="12.39415">
        <ele>2.978002</ele>
        <time>2020-07-16T10:03:19.187Z</time>
      </trkpt>
      <trkpt lat="65.57816" lon="12.39194">
        <ele>4.268449</ele>
        <time>2020-07-16T10:03:32.153Z</time>
      </trkpt>
      <trkpt lat="65.5782" lon="12.39158">
        <ele>4.478084</ele>
        <time>2020-07-16T10:03:35.700Z</time>
      </trkpt>
      <trkpt lat="65.57822" lon="12.39124">
        <ele>4.671399</ele>
        <time>2020-07-16T10:03:39.185Z</time>
      </trkpt>
      <trkpt lat="65.57842" lon="12.38849">
        <ele>5.271324</ele>
        <time>2020-07-16T10:04:01.256Z</time>
      </trkpt>
      <trkpt lat="65.5787" lon="12.38608">
        <ele>4.265272</ele>
        <time>2020-07-16T10:04:16.411Z</time>
      </trkpt>
      <trkpt lat="65.5788" lon="12.38552">
        <ele>4.022991</ele>
        <time>2020-07-16T10:04:20.022Z</time>
      </trkpt>
      <trkpt lat="65.57882" lon="12.38541">
        <ele>3.973695</ele>
        <time>2020-07-16T10:04:20.793Z</time>
      </trkpt>
      <trkpt lat="65.57914" lon="12.38404">
        <ele>3.878717</ele>
        <time>2020-07-16T10:04:30.971Z</time>
      </trkpt>
      <trkpt lat="65.57933" lon="12.38356">
        <ele>3.856198</ele>
        <time>2020-07-16T10:04:35.958Z</time>
      </trkpt>
      <trkpt lat="65.57978" lon="12.38305">
        <ele>3.815129</ele>
        <time>2020-07-16T10:04:45.262Z</time>
      </trkpt>
      <trkpt lat="65.58035" lon="12.38281">
        <ele>3.771234</ele>
        <time>2020-07-16T10:04:57.143Z</time>
      </trkpt>
      <trkpt lat="65.58097" lon="12.38267">
        <ele>3.73437</ele>
        <time>2020-07-16T10:05:10.033Z</time>
      </trkpt>
      <trkpt lat="65.58107" lon="12.38262">
        <ele>3.728517</ele>
        <time>2020-07-16T10:05:11.470Z</time>
      </trkpt>
      <trkpt lat="65.58127" lon="12.38232">
        <ele>3.714349</ele>
        <time>2020-07-16T10:05:16.228Z</time>
      </trkpt>
      <trkpt lat="65.58138" lon="12.38191">
        <ele>3.702602</ele>
        <time>2020-07-16T10:05:19.341Z</time>
      </trkpt>
      <trkpt lat="65.5814" lon="12.38148">
        <ele>3.691984</ele>
        <time>2020-07-16T10:05:22.595Z</time>
      </trkpt>
      <trkpt lat="65.58129" lon="12.38047">
        <ele>3.500015</ele>
        <time>2020-07-16T10:05:29.105Z</time>
      </trkpt>
      <trkpt lat="65.58128" lon="12.37987">
        <ele>3.165062</ele>
        <time>2020-07-16T10:05:32.823Z</time>
      </trkpt>
      <trkpt lat="65.58137" lon="12.37884">
        <ele>2.573611</ele>
        <time>2020-07-16T10:05:38.909Z</time>
      </trkpt>
      <trkpt lat="65.58155" lon="12.37768">
        <ele>1.875603</ele>
        <time>2020-07-16T10:05:46.464Z</time>
      </trkpt>
      <trkpt lat="65.58178" lon="12.37659">
        <ele>1.228062</ele>
        <time>2020-07-16T10:05:54.220Z</time>
      </trkpt>
      <trkpt lat="65.58193" lon="12.37608">
        <ele>1.166188</ele>
        <time>2020-07-16T10:05:58.321Z</time>
      </trkpt>
      <trkpt lat="65.58217" lon="12.37554">
        <ele>1.087759</ele>
        <time>2020-07-16T10:06:03.704Z</time>
      </trkpt>
      <trkpt lat="65.58241" lon="12.37517">
        <ele>1.017943</ele>
        <time>2020-07-16T10:06:08.700Z</time>
      </trkpt>
      <trkpt lat="65.58283" lon="12.37499">
        <ele>0.917348</ele>
        <time>2020-07-16T10:06:16.278Z</time>
      </trkpt>
      <trkpt lat="65.58386" lon="12.37523">
        <ele>0.98878</ele>
        <time>2020-07-16T10:06:35.622Z</time>
      </trkpt>
      <trkpt lat="65.58421" lon="12.37517">
        <ele>1.101763</ele>
        <time>2020-07-16T10:06:42.016Z</time>
      </trkpt>
      <trkpt lat="65.58468" lon="12.37463">
        <ele>1.270712</ele>
        <time>2020-07-16T10:06:51.422Z</time>
      </trkpt>
      <trkpt lat="65.58581" lon="12.37277">
        <ele>3.113415</ele>
        <time>2020-07-16T10:07:19.511Z</time>
      </trkpt>
      <trkpt lat="65.5862" lon="12.37249">
        <ele>3.808358</ele>
        <time>2020-07-16T10:07:29.582Z</time>
      </trkpt>
      <trkpt lat="65.5867" lon="12.37233">
        <ele>4.811847</ele>
        <time>2020-07-16T10:07:43.373Z</time>
      </trkpt>
      <trkpt lat="65.58708" lon="12.37227">
        <ele>5.949546</ele>
        <time>2020-07-16T10:07:54.944Z</time>
      </trkpt>
      <trkpt lat="65.58732" lon="12.37235">
        <ele>6.643192</ele>
        <time>2020-07-16T10:08:02.912Z</time>
      </trkpt>
      <trkpt lat="65.58807" lon="12.37361">
        <ele>9.321505</ele>
        <time>2020-07-16T10:08:28.265Z</time>
      </trkpt>
      <trkpt lat="65.58843" lon="12.37385">
        <ele>9.495203</ele>
        <time>2020-07-16T10:08:36.885Z</time>
      </trkpt>
      <trkpt lat="65.58847" lon="12.37385">
        <ele>9.449456</ele>
        <time>2020-07-16T10:08:39.287Z</time>
      </trkpt>
      <trkpt lat="65.58862" lon="12.37379">
        <ele>9.279419</ele>
        <time>2020-07-16T10:08:41.363Z</time>
      </trkpt>
      <trkpt lat="65.59043" lon="12.3721">
        <ele>6.363931</ele>
        <time>2020-07-16T10:09:08.324Z</time>
      </trkpt>
      <trkpt lat="65.59084" lon="12.37196">
        <ele>5.364629</ele>
        <time>2020-07-16T10:09:13.736Z</time>
      </trkpt>
      <trkpt lat="65.59179" lon="12.37183">
        <ele>3.256806</ele>
        <time>2020-07-16T10:09:26.794Z</time>
      </trkpt>
      <trkpt lat="65.59466" lon="12.37006">
        <ele>1.022727</ele>
        <time>2020-07-16T10:10:13.984Z</time>
      </trkpt>
      <trkpt lat="65.59499" lon="12.36993">
        <ele>0.88262</ele>
        <time>2020-07-16T10:10:20.018Z</time>
      </trkpt>
      <trkpt lat="65.59605" lon="12.36982">
        <ele>1.423396</ele>
        <time>2020-07-16T10:10:40.887Z</time>
      </trkpt>
      <trkpt lat="65.59677" lon="12.36995">
        <ele>1.912787</ele>
        <time>2020-07-16T10:10:55.937Z</time>
      </trkpt>
      <trkpt lat="65.59708" lon="12.37025">
        <ele>2.11176</ele>
        <time>2020-07-16T10:11:03.048Z</time>
      </trkpt>
      <trkpt lat="65.59779" lon="12.37147">
        <ele>2.517767</ele>
        <time>2020-07-16T10:11:20.949Z</time>
      </trkpt>
      <trkpt lat="65.59805" lon="12.37164">
        <ele>2.643077</ele>
        <time>2020-07-16T10:11:26.074Z</time>
      </trkpt>
      <trkpt lat="65.59831" lon="12.37161">
        <ele>2.762406</ele>
        <time>2020-07-16T10:11:30.765Z</time>
      </trkpt>
      <trkpt lat="65.59883" lon="12.371">
        <ele>2.648797</ele>
        <time>2020-07-16T10:11:40.656Z</time>
      </trkpt>
      <trkpt lat="65.59981" lon="12.36942">
        <ele>1.823318</ele>
        <time>2020-07-16T10:11:59.056Z</time>
      </trkpt>
      <trkpt lat="65.60024" lon="12.36894">
        <ele>1.537352</ele>
        <time>2020-07-16T10:12:06.460Z</time>
      </trkpt>
      <trkpt lat="65.60073" lon="12.36858">
        <ele>1.319476</ele>
        <time>2020-07-16T10:12:14.554Z</time>
      </trkpt>
      <trkpt lat="65.60348" lon="12.36689">
        <ele>0.675597</ele>
        <time>2020-07-16T10:13:03.992Z</time>
      </trkpt>
      <trkpt lat="65.60469" lon="12.36614">
        <ele>0.916174</ele>
        <time>2020-07-16T10:13:26.793Z</time>
      </trkpt>
      <trkpt lat="65.60551" lon="12.36571">
        <ele>1.249535</ele>
        <time>2020-07-16T10:13:42.752Z</time>
      </trkpt>
      <trkpt lat="65.60596" lon="12.36566">
        <ele>1.670005</ele>
        <time>2020-07-16T10:13:51.697Z</time>
      </trkpt>
      <trkpt lat="65.60613" lon="12.36564">
        <ele>1.82733</ele>
        <time>2020-07-16T10:13:55.081Z</time>
      </trkpt>
      <trkpt lat="65.60646" lon="12.36562">
        <ele>2.128064</ele>
        <time>2020-07-16T10:14:01.677Z</time>
      </trkpt>
      <trkpt lat="65.60944" lon="12.36559">
        <ele>7.696043</ele>
        <time>2020-07-16T10:15:09.936Z</time>
      </trkpt>
      <trkpt lat="65.61008" lon="12.36578">
        <ele>10.100058</ele>
        <time>2020-07-16T10:15:28.788Z</time>
      </trkpt>
      <trkpt lat="65.61242" lon="12.36683">
        <ele>22.681299</ele>
        <time>2020-07-16T10:16:56.935Z</time>
      </trkpt>
      <trkpt lat="65.61289" lon="12.36705">
        <ele>24.141808</ele>
        <time>2020-07-16T10:17:13.746Z</time>
      </trkpt>
      <trkpt lat="65.61405" lon="12.36757">
        <ele>27.560125</ele>
        <time>2020-07-16T10:17:44.990Z</time>
      </trkpt>
      <trkpt lat="65.61569" lon="12.3683">
        <ele>27.415772</ele>
        <time>2020-07-16T10:18:11.204Z</time>
      </trkpt>
      <trkpt lat="65.61701" lon="12.36891">
        <ele>26.723268</ele>
        <time>2020-07-16T10:18:34.179Z</time>
      </trkpt>
      <trkpt lat="65.61746" lon="12.36912">
        <ele>26.471186</ele>
        <time>2020-07-16T10:18:42.189Z</time>
      </trkpt>
      <trkpt lat="65.61789" lon="12.3693">
        <ele>25.784656</ele>
        <time>2020-07-16T10:18:48.912Z</time>
      </trkpt>
      <trkpt lat="65.61865" lon="12.3694">
        <ele>23.01028</ele>
        <time>2020-07-16T10:18:59.366Z</time>
      </trkpt>
      <trkpt lat="65.61981" lon="12.36917">
        <ele>18.099969</ele>
        <time>2020-07-16T10:19:13.402Z</time>
      </trkpt>
      <trkpt lat="65.62027" lon="12.36881">
        <ele>15.223389</ele>
        <time>2020-07-16T10:19:18.898Z</time>
      </trkpt>
      <trkpt lat="65.6214" lon="12.36746">
        <ele>8.270675</ele>
        <time>2020-07-16T10:19:33.688Z</time>
      </trkpt>
      <trkpt lat="65.62189" lon="12.36718">
        <ele>6.753182</ele>
        <time>2020-07-16T10:19:39.983Z</time>
      </trkpt>
      <trkpt lat="65.62265" lon="12.36725">
        <ele>4.472401</ele>
        <time>2020-07-16T10:19:50.278Z</time>
      </trkpt>
      <trkpt lat="65.62541" lon="12.36807">
        <ele>4.344041</ele>
        <time>2020-07-16T10:20:41.805Z</time>
      </trkpt>
      <trkpt lat="65.62768" lon="12.36871">
        <ele>7.609485</ele>
        <time>2020-07-16T10:21:33.511Z</time>
      </trkpt>
      <trkpt lat="65.62794" lon="12.36878">
        <ele>8.089745</ele>
        <time>2020-07-16T10:21:40.313Z</time>
      </trkpt>
      <trkpt lat="65.62828" lon="12.3689">
        <ele>8.726106</ele>
        <time>2020-07-16T10:21:49.326Z</time>
      </trkpt>
      <trkpt lat="65.62867" lon="12.36905">
        <ele>9.311555</ele>
        <time>2020-07-16T10:21:59.786Z</time>
      </trkpt>
      <trkpt lat="65.6331" lon="12.37172">
        <ele>14.674603</ele>
        <time>2020-07-16T10:23:39.932Z</time>
      </trkpt>
      <trkpt lat="65.63339" lon="12.3719">
        <ele>14.826465</ele>
        <time>2020-07-16T10:23:44.509Z</time>
      </trkpt>
      <trkpt lat="65.63395" lon="12.37224">
        <ele>14.143797</ele>
        <time>2020-07-16T10:23:53.130Z</time>
      </trkpt>
      <trkpt lat="65.63765" lon="12.37457">
        <ele>6.826239</ele>
        <time>2020-07-16T10:24:46.048Z</time>
      </trkpt>
      <trkpt lat="65.64133" lon="12.37739">
        <ele>5.117381</ele>
        <time>2020-07-16T10:25:53.835Z</time>
      </trkpt>
      <trkpt lat="65.6434" lon="12.37798">
        <ele>3.303467</ele>
        <time>2020-07-16T10:26:25.644Z</time>
      </trkpt>
      <trkpt lat="65.64609" lon="12.37946">
        <ele>1.189431</ele>
        <time>2020-07-16T10:27:08.874Z</time>
      </trkpt>
      <trkpt lat="65.64651" lon="12.37968">
        <ele>1.328662</ele>
        <time>2020-07-16T10:27:16.422Z</time>
      </trkpt>
      <trkpt lat="65.64755" lon="12.38026">
        <ele>1.738247</ele>
        <time>2020-07-16T10:27:37.827Z</time>
      </trkpt>
      <trkpt lat="65.64773" lon="12.38036">
        <ele>2.254209</ele>
        <time>2020-07-16T10:27:42.182Z</time>
      </trkpt>
      <trkpt lat="65.64822" lon="12.38064">
        <ele>3.620783</ele>
        <time>2020-07-16T10:27:54.428Z</time>
      </trkpt>
      <trkpt lat="65.64905" lon="12.38111">
        <ele>5.919754</ele>
        <time>2020-07-16T10:28:18.055Z</time>
      </trkpt>
      <trkpt lat="65.64976" lon="12.3815">
        <ele>8.519085</ele>
        <time>2020-07-16T10:28:40.947Z</time>
      </trkpt>
      <trkpt lat="65.65063" lon="12.382">
        <ele>12.085513</ele>
        <time>2020-07-16T10:29:10.393Z</time>
      </trkpt>
      <trkpt lat="65.65121" lon="12.38223">
        <ele>13.784682</ele>
        <time>2020-07-16T10:29:26.992Z</time>
      </trkpt>
      <trkpt lat="65.65202" lon="12.38238">
        <ele>14.301881</ele>
        <time>2020-07-16T10:29:45.643Z</time>
      </trkpt>
      <trkpt lat="65.65251" lon="12.38247">
        <ele>14.612507</ele>
        <time>2020-07-16T10:29:53.559Z</time>
      </trkpt>
      <trkpt lat="65.65306" lon="12.38269">
        <ele>14.11315</ele>
        <time>2020-07-16T10:30:01.665Z</time>
      </trkpt>
      <trkpt lat="65.65351" lon="12.38304">
        <ele>12.759968</ele>
        <time>2020-07-16T10:30:07.940Z</time>
      </trkpt>
      <trkpt lat="65.65625" lon="12.3861">
        <ele>4.061139</ele>
        <time>2020-07-16T10:30:47.293Z</time>
      </trkpt>
      <trkpt lat="65.65888" lon="12.38902">
        <ele>1.322004</ele>
        <time>2020-07-16T10:31:32.802Z</time>
      </trkpt>
      <trkpt lat="65.65908" lon="12.38925">
        <ele>1.206288</ele>
        <time>2020-07-16T10:31:36.647Z</time>
      </trkpt>
      <trkpt lat="65.66062" lon="12.39129">
        <ele>1.571022</ele>
        <time>2020-07-16T10:32:09.250Z</time>
      </trkpt>
      <trkpt lat="65.66274" lon="12.39463">
        <ele>3.814965</ele>
        <time>2020-07-16T10:33:01.962Z</time>
      </trkpt>
      <trkpt lat="65.66353" lon="12.39588">
        <ele>4.951911</ele>
        <time>2020-07-16T10:33:22.580Z</time>
      </trkpt>
      <trkpt lat="65.66407" lon="12.39666">
        <ele>5.737574</ele>
        <time>2020-07-16T10:33:36.524Z</time>
      </trkpt>
      <trkpt lat="65.66463" lon="12.39745">
        <ele>6.654226</ele>
        <time>2020-07-16T10:33:50.860Z</time>
      </trkpt>
      <trkpt lat="65.66687" lon="12.4006">
        <ele>10.64083</ele>
        <time>2020-07-16T10:34:49.393Z</time>
      </trkpt>
      <trkpt lat="65.66842" lon="12.40279">
        <ele>14.336987</ele>
        <time>2020-07-16T10:35:34.102Z</time>
      </trkpt>
      <trkpt lat="65.66846" lon="12.40284">
        <ele>14.438748</ele>
        <time>2020-07-16T10:35:35.318Z</time>
      </trkpt>
      <trkpt lat="65.66994" lon="12.40494">
        <ele>17.367111</ele>
        <time>2020-07-16T10:36:16.803Z</time>
      </trkpt>
      <trkpt lat="65.6713" lon="12.40686">
        <ele>17.61825</ele>
        <time>2020-07-16T10:36:46.870Z</time>
      </trkpt>
      <trkpt lat="65.67212" lon="12.40799">
        <ele>16.376585</ele>
        <time>2020-07-16T10:37:00.520Z</time>
      </trkpt>
      <trkpt lat="65.67239" lon="12.40832">
        <ele>15.558953</ele>
        <time>2020-07-16T10:37:04.623Z</time>
      </trkpt>
      <trkpt lat="65.67311" lon="12.40882">
        <ele>13.520098</ele>
        <time>2020-07-16T10:37:14.552Z</time>
      </trkpt>
      <trkpt lat="65.67416" lon="12.409">
        <ele>10.225838</ele>
        <time>2020-07-16T10:37:27.915Z</time>
      </trkpt>
      <trkpt lat="65.67516" lon="12.40905">
        <ele>6.905175</ele>
        <time>2020-07-16T10:37:40.876Z</time>
      </trkpt>
      <trkpt lat="65.67646" lon="12.40887">
        <ele>3.893439</ele>
        <time>2020-07-16T10:37:58.688Z</time>
      </trkpt>
      <trkpt lat="65.67663" lon="12.4089">
        <ele>3.510262</ele>
        <time>2020-07-16T10:38:01.081Z</time>
      </trkpt>
      <trkpt lat="65.67673" lon="12.40891">
        <ele>3.293979</ele>
        <time>2020-07-16T10:38:02.545Z</time>
      </trkpt>
      <trkpt lat="65.67675" lon="12.40892">
        <ele>3.248561</ele>
        <time>2020-07-16T10:38:02.838Z</time>
      </trkpt>
      <trkpt lat="65.67726" lon="12.40923">
        <ele>2.436937</ele>
        <time>2020-07-16T10:38:10.755Z</time>
      </trkpt>
      <trkpt lat="65.67764" lon="12.40967">
        <ele>2.125567</ele>
        <time>2020-07-16T10:38:17.078Z</time>
      </trkpt>
      <trkpt lat="65.67788" lon="12.41002">
        <ele>1.914994</ele>
        <time>2020-07-16T10:38:21.561Z</time>
      </trkpt>
      <trkpt lat="65.67838" lon="12.4108">
        <ele>1.46355</ele>
        <time>2020-07-16T10:38:31.670Z</time>
      </trkpt>
      <trkpt lat="65.67863" lon="12.41117">
        <ele>1.262183</ele>
        <time>2020-07-16T10:38:36.752Z</time>
      </trkpt>
      <trkpt lat="65.67882" lon="12.41147">
        <ele>1.195265</ele>
        <time>2020-07-16T10:38:40.616Z</time>
      </trkpt>
      <trkpt lat="65.67925" lon="12.41212">
        <ele>1.043403</ele>
        <time>2020-07-16T10:38:49.271Z</time>
      </trkpt>
      <trkpt lat="65.67998" lon="12.41322">
        <ele>0.78778</ele>
        <time>2020-07-16T10:39:03.681Z</time>
      </trkpt>
      <trkpt lat="65.68139" lon="12.41533">
        <ele>0.332788</ele>
        <time>2020-07-16T10:39:31.701Z</time>
      </trkpt>
      <trkpt lat="65.68195" lon="12.41617">
        <ele>0.426135</ele>
        <time>2020-07-16T10:39:43.375Z</time>
      </trkpt>
      <trkpt lat="65.68213" lon="12.41644">
        <ele>0.534418</ele>
        <time>2020-07-16T10:39:47.233Z</time>
      </trkpt>
      <trkpt lat="65.68253" lon="12.41701">
        <ele>0.773479</ele>
        <time>2020-07-16T10:39:56.063Z</time>
      </trkpt>
      <trkpt lat="65.68274" lon="12.41725">
        <ele>0.888381</ele>
        <time>2020-07-16T10:40:00.351Z</time>
      </trkpt>
      <trkpt lat="65.68293" lon="12.41746">
        <ele>0.995838</ele>
        <time>2020-07-16T10:40:04.699Z</time>
      </trkpt>
      <trkpt lat="65.68417" lon="12.41858">
        <ele>2.892536</ele>
        <time>2020-07-16T10:40:34.183Z</time>
      </trkpt>
      <trkpt lat="65.68433" lon="12.41874">
        <ele>3.199075</ele>
        <time>2020-07-16T10:40:38.561Z</time>
      </trkpt>
      <trkpt lat="65.68439" lon="12.4188">
        <ele>3.318346</ele>
        <time>2020-07-16T10:40:40.185Z</time>
      </trkpt>
      <trkpt lat="65.68446" lon="12.41887">
        <ele>3.447623</ele>
        <time>2020-07-16T10:40:41.939Z</time>
      </trkpt>
      <trkpt lat="65.68471" lon="12.41919">
        <ele>3.941648</ele>
        <time>2020-07-16T10:40:48.938Z</time>
      </trkpt>
      <trkpt lat="65.68508" lon="12.41971">
        <ele>4.877582</ele>
        <time>2020-07-16T10:40:59.693Z</time>
      </trkpt>
      <trkpt lat="65.68655" lon="12.42192">
        <ele>9.380473</ele>
        <time>2020-07-16T10:41:45.511Z</time>
      </trkpt>
      <trkpt lat="65.68707" lon="12.42278">
        <ele>10.961152</ele>
        <time>2020-07-16T10:42:02.611Z</time>
      </trkpt>
      <trkpt lat="65.68729" lon="12.42318">
        <ele>11.639872</ele>
        <time>2020-07-16T10:42:09.872Z</time>
      </trkpt>
      <trkpt lat="65.68731" lon="12.42321">
        <ele>11.684191</ele>
        <time>2020-07-16T10:42:10.333Z</time>
      </trkpt>
      <trkpt lat="65.68803" lon="12.42459">
        <ele>13.631984</ele>
        <time>2020-07-16T10:42:33.143Z</time>
      </trkpt>
      <trkpt lat="65.68859" lon="12.42546">
        <ele>14.13392</ele>
        <time>2020-07-16T10:42:47.991Z</time>
      </trkpt>
      <trkpt lat="65.68918" lon="12.42619">
        <ele>14.639143</ele>
        <time>2020-07-16T10:43:01.177Z</time>
      </trkpt>
      <trkpt lat="65.68921" lon="12.42607">
        <ele>14.680623</ele>
        <time>2020-07-16T10:43:02.341Z</time>
      </trkpt>
      <trkpt lat="65.68926" lon="12.42614">
        <ele>14.724634</ele>
        <time>2020-07-16T10:43:03.444Z</time>
      </trkpt>
      <trkpt lat="65.68984" lon="12.42689">
        <ele>13.81963</ele>
        <time>2020-07-16T10:43:13.839Z</time>
      </trkpt>
      <trkpt lat="65.69021" lon="12.42754">
        <ele>12.860218</ele>
        <time>2020-07-16T10:43:20.870Z</time>
      </trkpt>
      <trkpt lat="65.69051" lon="12.42815">
        <ele>12.059585</ele>
        <time>2020-07-16T10:43:26.487Z</time>
      </trkpt>
      <trkpt lat="65.69054" lon="12.42821">
        <ele>11.973874</ele>
        <time>2020-07-16T10:43:26.979Z</time>
      </trkpt>
      <trkpt lat="65.69125" lon="12.42947">
        <ele>9.498533</ele>
        <time>2020-07-16T10:43:38.869Z</time>
      </trkpt>
      <trkpt lat="65.69182" lon="12.43002">
        <ele>7.352669</ele>
        <time>2020-07-16T10:43:46.975Z</time>
      </trkpt>
      <trkpt lat="65.69195" lon="12.43004">
        <ele>6.88375</ele>
        <time>2020-07-16T10:43:48.734Z</time>
      </trkpt>
      <trkpt lat="65.69196" lon="12.42996">
        <ele>6.771959</ele>
        <time>2020-07-16T10:43:49.212Z</time>
      </trkpt>
      <trkpt lat="65.692" lon="12.42999">
        <ele>6.638432</ele>
        <time>2020-07-16T10:43:49.693Z</time>
      </trkpt>
      <trkpt lat="65.69273" lon="12.4307">
        <ele>4.276028</ele>
        <time>2020-07-16T10:44:00.612Z</time>
      </trkpt>
      <trkpt lat="65.69284" lon="12.43078">
        <ele>4.036438</ele>
        <time>2020-07-16T10:44:02.201Z</time>
      </trkpt>
      <trkpt lat="65.69286" lon="12.4308">
        <ele>3.991376</ele>
        <time>2020-07-16T10:44:02.496Z</time>
      </trkpt>
      <trkpt lat="65.69289" lon="12.43085">
        <ele>3.908238</ele>
        <time>2020-07-16T10:44:03.051Z</time>
      </trkpt>
      <trkpt lat="65.6935" lon="12.43154">
        <ele>2.510283</ele>
        <time>2020-07-16T10:44:12.770Z</time>
      </trkpt>
      <trkpt lat="65.69372" lon="12.43176">
        <ele>2.023096</ele>
        <time>2020-07-16T10:44:16.660Z</time>
      </trkpt>
      <trkpt lat="65.6938" lon="12.43185">
        <ele>1.838783</ele>
        <time>2020-07-16T10:44:17.943Z</time>
      </trkpt>
      <trkpt lat="65.69386" lon="12.43193">
        <ele>1.702136</ele>
        <time>2020-07-16T10:44:19.007Z</time>
      </trkpt>
      <trkpt lat="65.69397" lon="12.43218">
        <ele>1.397293</ele>
        <time>2020-07-16T10:44:21.468Z</time>
      </trkpt>
      <trkpt lat="65.69397" lon="12.43229">
        <ele>1.298403</ele>
        <time>2020-07-16T10:44:22.267Z</time>
      </trkpt>
      <trkpt lat="65.694" lon="12.43232">
        <ele>1.229663</ele>
        <time>2020-07-16T10:44:22.722Z</time>
      </trkpt>
      <trkpt lat="65.69398" lon="12.43241">
        <ele>1.14627</ele>
        <time>2020-07-16T10:44:23.313Z</time>
      </trkpt>
      <trkpt lat="65.69394" lon="12.43261">
        <ele>1.06552</ele>
        <time>2020-07-16T10:44:24.776Z</time>
      </trkpt>
      <trkpt lat="65.69394" lon="12.43266">
        <ele>1.05504</ele>
        <time>2020-07-16T10:44:25.103Z</time>
      </trkpt>
      <trkpt lat="65.69395" lon="12.43271">
        <ele>1.043496</ele>
        <time>2020-07-16T10:44:25.427Z</time>
      </trkpt>
      <trkpt lat="65.69399" lon="12.4328">
        <ele>1.011118</ele>
        <time>2020-07-16T10:44:26.478Z</time>
      </trkpt>
      <trkpt lat="65.69424" lon="12.43305">
        <ele>0.864423</ele>
        <time>2020-07-16T10:44:31.060Z</time>
      </trkpt>
      <trkpt lat="65.69488" lon="12.43365">
        <ele>0.49697</ele>
        <time>2020-07-16T10:44:42.746Z</time>
      </trkpt>
      <trkpt lat="65.6951" lon="12.43389">
        <ele>0.365234</ele>
        <time>2020-07-16T10:44:47.034Z</time>
      </trkpt>
      <trkpt lat="65.69518" lon="12.43395">
        <ele>0.318568</ele>
        <time>2020-07-16T10:44:48.585Z</time>
      </trkpt>
      <trkpt lat="65.69594" lon="12.43462">
        <ele>0.098135</ele>
        <time>2020-07-16T10:45:03.025Z</time>
      </trkpt>
      <trkpt lat="65.69617" lon="12.43497">
        <ele>0.078013</ele>
        <time>2020-07-16T10:45:08.060Z</time>
      </trkpt>
      <trkpt lat="65.69632" lon="12.43523">
        <ele>0.064521</ele>
        <time>2020-07-16T10:45:11.453Z</time>
      </trkpt>
      <trkpt lat="65.69639" lon="12.43538">
        <ele>0.057487</ele>
        <time>2020-07-16T10:45:13.219Z</time>
      </trkpt>
      <trkpt lat="65.69681" lon="12.43571">
        <ele>0.025699</ele>
        <time>2020-07-16T10:45:21.306Z</time>
      </trkpt>
      <trkpt lat="65.69799" lon="12.43751">
        <ele>8.5</ele>
        <time>2020-07-16T10:45:47.325Z</time>
      </trkpt>
      <trkpt lat="65.69825" lon="12.43786">
        <ele>7.2</ele>
        <time>2020-07-16T10:45:52.819Z</time>
      </trkpt>
      <trkpt lat="65.69879" lon="12.43861">
        <ele>6.4</ele>
        <time>2020-07-16T10:46:04.404Z</time>
      </trkpt>
      <trkpt lat="65.69902" lon="12.43892">
        <ele>6.6</ele>
        <time>2020-07-16T10:46:09.180Z</time>
      </trkpt>
      <trkpt lat="65.6997" lon="12.44003">
        <ele>8.4</ele>
        <time>2020-07-16T10:46:24.495Z</time>
      </trkpt>
      <trkpt lat="65.69975" lon="12.44006">
        <ele>8.3</ele>
        <time>2020-07-16T10:46:25.395Z</time>
      </trkpt>
      <trkpt lat="65.69979" lon="12.44012">
        <ele>8.5</ele>
        <time>2020-07-16T10:46:26.253Z</time>
      </trkpt>
      <trkpt lat="65.70014" lon="12.44078">
        <ele>9.3</ele>
        <time>2020-07-16T10:46:34.438Z</time>
      </trkpt>
      <trkpt lat="65.70042" lon="12.44132">
        <ele>9.4</ele>
        <time>2020-07-16T10:46:41.142Z</time>
      </trkpt>
      <trkpt lat="65.70071" lon="12.44183">
        <ele>9.3</ele>
        <time>2020-07-16T10:46:47.862Z</time>
      </trkpt>
      <trkpt lat="65.7009" lon="12.44211">
        <ele>9.5</ele>
        <time>2020-07-16T10:46:51.881Z</time>
      </trkpt>
      <trkpt lat="65.70137" lon="12.4428">
        <ele>10.1</ele>
        <time>2020-07-16T10:47:02.077Z</time>
      </trkpt>
      <trkpt lat="65.70162" lon="12.44317">
        <ele>11.8</ele>
        <time>2020-07-16T10:47:07.658Z</time>
      </trkpt>
      <trkpt lat="65.70255" lon="12.44449">
        <ele>0.005289</ele>
        <time>2020-07-16T10:47:27.678Z</time>
      </trkpt>
      <trkpt lat="65.70298" lon="12.44518">
        <ele>0.00787</ele>
        <time>2020-07-16T10:47:37.242Z</time>
      </trkpt>
      <trkpt lat="65.70314" lon="12.44549">
        <ele>0.0089</ele>
        <time>2020-07-16T10:47:41.068Z</time>
      </trkpt>
      <trkpt lat="65.70351" lon="12.44616">
        <ele>0.066944</ele>
        <time>2020-07-16T10:47:49.745Z</time>
      </trkpt>
      <trkpt lat="65.70402" lon="12.44721">
        <ele>0.156577</ele>
        <time>2020-07-16T10:48:02.506Z</time>
      </trkpt>
      <trkpt lat="65.70471" lon="12.44867">
        <ele>0.343464</ele>
        <time>2020-07-16T10:48:19.880Z</time>
      </trkpt>
      <trkpt lat="65.70513" lon="12.44956">
        <ele>0.588695</ele>
        <time>2020-07-16T10:48:30.711Z</time>
      </trkpt>
      <trkpt lat="65.70553" lon="12.45039">
        <ele>0.822633</ele>
        <time>2020-07-16T10:48:41.133Z</time>
      </trkpt>
      <trkpt lat="65.70575" lon="12.45082">
        <ele>0.94642</ele>
        <time>2020-07-16T10:48:46.767Z</time>
      </trkpt>
      <trkpt lat="65.70591" lon="12.45114">
        <ele>1.039549</ele>
        <time>2020-07-16T10:48:50.993Z</time>
      </trkpt>
      <trkpt lat="65.70595" lon="12.4512">
        <ele>1.09928</ele>
        <time>2020-07-16T10:48:51.988Z</time>
      </trkpt>
      <trkpt lat="65.70614" lon="12.45154">
        <ele>1.486388</ele>
        <time>2020-07-16T10:48:56.969Z</time>
      </trkpt>
      <trkpt lat="65.70707" lon="12.45319">
        <ele>3.381494</ele>
        <time>2020-07-16T10:49:24.544Z</time>
      </trkpt>
      <trkpt lat="65.7075" lon="12.45395">
        <ele>4.321319</ele>
        <time>2020-07-16T10:49:38.480Z</time>
      </trkpt>
      <trkpt lat="65.70808" lon="12.45496">
        <ele>5.839488</ele>
        <time>2020-07-16T10:49:57.535Z</time>
      </trkpt>
      <trkpt lat="65.70883" lon="12.45606">
        <ele>7.720728</ele>
        <time>2020-07-16T10:50:20.331Z</time>
      </trkpt>
      <trkpt lat="65.70931" lon="12.45657">
        <ele>7.826873</ele>
        <time>2020-07-16T10:50:31.427Z</time>
      </trkpt>
      <trkpt lat="65.70982" lon="12.45694">
        <ele>7.825508</ele>
        <time>2020-07-16T10:50:41.239Z</time>
      </trkpt>
      <trkpt lat="65.71053" lon="12.45735">
        <ele>7.823675</ele>
        <time>2020-07-16T10:50:53.383Z</time>
      </trkpt>
      <trkpt lat="65.71053" lon="12.45726">
        <ele>7.823578</ele>
        <time>2020-07-16T10:50:53.955Z</time>
      </trkpt>
      <trkpt lat="65.71054" lon="12.45718">
        <ele>7.823503</ele>
        <time>2020-07-16T10:50:54.415Z</time>
      </trkpt>
      <trkpt lat="65.71082" lon="12.45734">
        <ele>7.823503</ele>
        <time>2020-07-16T10:50:58.939Z</time>
      </trkpt>
      <trkpt lat="65.71094" lon="12.45762">
        <ele>7.823503</ele>
        <time>2020-07-16T10:51:01.469Z</time>
      </trkpt>
      <trkpt lat="65.71225" lon="12.45914">
        <ele>7.823503</ele>
        <time>2020-07-16T10:51:23.219Z</time>
      </trkpt>
      <trkpt lat="65.71238" lon="12.45909">
        <ele>7.823503</ele>
        <time>2020-07-16T10:51:25.449Z</time>
      </trkpt>
      <trkpt lat="65.71248" lon="12.45898">
        <ele>7.823503</ele>
        <time>2020-07-16T10:51:27.024Z</time>
      </trkpt>
      <trkpt lat="65.71248" lon="12.45898">
        <ele>7.823503</ele>
        <time>2020-07-16T10:51:27.027Z</time>
      </trkpt>
    </trkseg>
  </trk>
  <trk>
    <name><![CDATA[4_Tjøtta-Bodø: 378km]]></name>
    <trkseg>
      <trkpt lat="65.82184" lon="12.42994">
        <ele>3.281812</ele>
        <time>2020-07-15T10:56:40.479Z</time>
      </trkpt>
      <trkpt lat="65.82189" lon="12.42988">
        <ele>3.281812</ele>
        <time>2020-07-15T10:56:41.780Z</time>
      </trkpt>
      <trkpt lat="65.82213" lon="12.42967">
        <ele>3.281812</ele>
        <time>2020-07-15T10:56:48.024Z</time>
      </trkpt>
      <trkpt lat="65.82218" lon="12.4296">
        <ele>3.281812</ele>
        <time>2020-07-15T10:56:49.561Z</time>
      </trkpt>
      <trkpt lat="65.82231" lon="12.4294">
        <ele>3.281812</ele>
        <time>2020-07-15T10:56:53.390Z</time>
      </trkpt>
      <trkpt lat="65.82245" lon="12.42912">
        <ele>3.281812</ele>
        <time>2020-07-15T10:56:58.287Z</time>
      </trkpt>
      <trkpt lat="65.82253" lon="12.42893">
        <ele>3.281812</ele>
        <time>2020-07-15T10:57:01.210Z</time>
      </trkpt>
      <trkpt lat="65.82254" lon="12.42881">
        <ele>3.281812</ele>
        <time>2020-07-15T10:57:02.840Z</time>
      </trkpt>
      <trkpt lat="65.82255" lon="12.42862">
        <ele>3.43447</ele>
        <time>2020-07-15T10:57:05.075Z</time>
      </trkpt>
      <trkpt lat="65.82255" lon="12.42845">
        <ele>3.672023</ele>
        <time>2020-07-15T10:57:07.087Z</time>
      </trkpt>
      <trkpt lat="65.82259" lon="12.4283">
        <ele>3.917898</ele>
        <time>2020-07-15T10:57:09.099Z</time>
      </trkpt>
      <trkpt lat="65.82263" lon="12.42815">
        <ele>4.174087</ele>
        <time>2020-07-15T10:57:11.144Z</time>
      </trkpt>
      <trkpt lat="65.82269" lon="12.42794">
        <ele>4.520036</ele>
        <time>2020-07-15T10:57:14.226Z</time>
      </trkpt>
      <trkpt lat="65.82293" lon="12.42711">
        <ele>5.962453</ele>
        <time>2020-07-15T10:57:26.817Z</time>
      </trkpt>
      <trkpt lat="65.82314" lon="12.42635">
        <ele>7.244346</ele>
        <time>2020-07-15T10:57:38.165Z</time>
      </trkpt>
      <trkpt lat="65.82321" lon="12.4261">
        <ele>7.660702</ele>
        <time>2020-07-15T10:57:41.714Z</time>
      </trkpt>
      <trkpt lat="65.82323" lon="12.42599">
        <ele>7.831532</ele>
        <time>2020-07-15T10:57:43.145Z</time>
      </trkpt>
      <trkpt lat="65.82327" lon="12.42583">
        <ele>8.097335</ele>
        <time>2020-07-15T10:57:45.608Z</time>
      </trkpt>
      <trkpt lat="65.82334" lon="12.4256">
        <ele>8.486901</ele>
        <time>2020-07-15T10:57:49.078Z</time>
      </trkpt>
      <trkpt lat="65.8235" lon="12.42494">
        <ele>9.513675</ele>
        <time>2020-07-15T10:57:58.183Z</time>
      </trkpt>
      <trkpt lat="65.82434" lon="12.4215">
        <ele>12.896775</ele>
        <time>2020-07-15T10:58:38.715Z</time>
      </trkpt>
      <trkpt lat="65.82459" lon="12.42048">
        <ele>13.096829</ele>
        <time>2020-07-15T10:58:48.220Z</time>
      </trkpt>
      <trkpt lat="65.82492" lon="12.41917">
        <ele>13.029073</ele>
        <time>2020-07-15T10:58:59.766Z</time>
      </trkpt>
      <trkpt lat="65.82494" lon="12.41906">
        <ele>13.023234</ele>
        <time>2020-07-15T10:59:00.712Z</time>
      </trkpt>
      <trkpt lat="65.82551" lon="12.41686">
        <ele>12.297841</ele>
        <time>2020-07-15T10:59:17.489Z</time>
      </trkpt>
      <trkpt lat="65.82598" lon="12.41538">
        <ele>10.730607</ele>
        <time>2020-07-15T10:59:28.179Z</time>
      </trkpt>
      <trkpt lat="65.82613" lon="12.41496">
        <ele>10.261501</ele>
        <time>2020-07-15T10:59:31.298Z</time>
      </trkpt>
      <trkpt lat="65.82668" lon="12.41343">
        <ele>8.40356</ele>
        <time>2020-07-15T10:59:42.501Z</time>
      </trkpt>
      <trkpt lat="65.82784" lon="12.41024">
        <ele>4.405505</ele>
        <time>2020-07-15T11:00:06.262Z</time>
      </trkpt>
      <trkpt lat="65.82944" lon="12.4058">
        <ele>1.798092</ele>
        <time>2020-07-15T11:00:43.816Z</time>
      </trkpt>
      <trkpt lat="65.82989" lon="12.40473">
        <ele>1.37808</ele>
        <time>2020-07-15T11:00:54.401Z</time>
      </trkpt>
      <trkpt lat="65.83054" lon="12.40376">
        <ele>1.159479</ele>
        <time>2020-07-15T11:01:07.496Z</time>
      </trkpt>
      <trkpt lat="65.83217" lon="12.40179">
        <ele>1.022011</ele>
        <time>2020-07-15T11:01:39.719Z</time>
      </trkpt>
      <trkpt lat="65.83251" lon="12.40137">
        <ele>1.015363</ele>
        <time>2020-07-15T11:01:46.577Z</time>
      </trkpt>
      <trkpt lat="65.83499" lon="12.39831">
        <ele>1</ele>
        <time>2020-07-15T11:02:36.106Z</time>
      </trkpt>
      <trkpt lat="65.83523" lon="12.39802">
        <ele>1</ele>
        <time>2020-07-15T11:02:40.872Z</time>
      </trkpt>
      <trkpt lat="65.83567" lon="12.39749">
        <ele>1</ele>
        <time>2020-07-15T11:02:49.603Z</time>
      </trkpt>
      <trkpt lat="65.83626" lon="12.39689">
        <ele>1</ele>
        <time>2020-07-15T11:03:00.991Z</time>
      </trkpt>
      <trkpt lat="65.83673" lon="12.39658">
        <ele>1</ele>
        <time>2020-07-15T11:03:09.728Z</time>
      </trkpt>
      <trkpt lat="65.84174" lon="12.39422">
        <ele>1</ele>
        <time>2020-07-15T11:04:40.771Z</time>
      </trkpt>
      <trkpt lat="65.84248" lon="12.3942">
        <ele>1</ele>
        <time>2020-07-15T11:04:53.931Z</time>
      </trkpt>
      <trkpt lat="65.84405" lon="12.39495">
        <ele>1</ele>
        <time>2020-07-15T11:05:22.478Z</time>
      </trkpt>
      <trkpt lat="65.84481" lon="12.39532">
        <ele>1</ele>
        <time>2020-07-15T11:05:36.320Z</time>
      </trkpt>
      <trkpt lat="65.84519" lon="12.3955">
        <ele>1</ele>
        <time>2020-07-15T11:05:43.258Z</time>
      </trkpt>
      <trkpt lat="65.84554" lon="12.3957">
        <ele>1</ele>
        <time>2020-07-15T11:05:49.620Z</time>
      </trkpt>
      <trkpt lat="65.84564" lon="12.39575">
        <ele>1</ele>
        <time>2020-07-15T11:05:51.525Z</time>
      </trkpt>
      <trkpt lat="65.84602" lon="12.39605">
        <ele>1</ele>
        <time>2020-07-15T11:05:58.541Z</time>
      </trkpt>
      <trkpt lat="65.84646" lon="12.39657">
        <ele>1</ele>
        <time>2020-07-15T11:06:07.257Z</time>
      </trkpt>
      <trkpt lat="65.84674" lon="12.39703">
        <ele>1</ele>
        <time>2020-07-15T11:06:13.314Z</time>
      </trkpt>
      <trkpt lat="65.84703" lon="12.39769">
        <ele>1</ele>
        <time>2020-07-15T11:06:20.435Z</time>
      </trkpt>
      <trkpt lat="65.84728" lon="12.39852">
        <ele>1</ele>
        <time>2020-07-15T11:06:27.945Z</time>
      </trkpt>
      <trkpt lat="65.84841" lon="12.40332">
        <ele>1</ele>
        <time>2020-07-15T11:07:08.373Z</time>
      </trkpt>
      <trkpt lat="65.84873" lon="12.40448">
        <ele>1</ele>
        <time>2020-07-15T11:07:18.597Z</time>
      </trkpt>
      <trkpt lat="65.85382" lon="12.41966">
        <ele>0.978721</ele>
        <time>2020-07-15T11:09:41.927Z</time>
      </trkpt>
      <trkpt lat="65.85427" lon="12.42075">
        <ele>0.954705</ele>
        <time>2020-07-15T11:09:53.294Z</time>
      </trkpt>
      <trkpt lat="65.85493" lon="12.42187">
        <ele>0.894825</ele>
        <time>2020-07-15T11:10:07.380Z</time>
      </trkpt>
      <trkpt lat="65.85509" lon="12.4221">
        <ele>0.859916</ele>
        <time>2020-07-15T11:10:10.704Z</time>
      </trkpt>
      <trkpt lat="65.85521" lon="12.42228">
        <ele>0.834513</ele>
        <time>2020-07-15T11:10:13.078Z</time>
      </trkpt>
      <trkpt lat="65.85569" lon="12.42296">
        <ele>0.730857</ele>
        <time>2020-07-15T11:10:22.807Z</time>
      </trkpt>
      <trkpt lat="65.8559" lon="12.42328">
        <ele>0.685575</ele>
        <time>2020-07-15T11:10:26.998Z</time>
      </trkpt>
      <trkpt lat="65.85628" lon="12.42418">
        <ele>0.590706</ele>
        <time>2020-07-15T11:10:36.023Z</time>
      </trkpt>
      <trkpt lat="65.85642" lon="12.42478">
        <ele>0.55018</ele>
        <time>2020-07-15T11:10:40.875Z</time>
      </trkpt>
      <trkpt lat="65.85656" lon="12.42573">
        <ele>0.491645</ele>
        <time>2020-07-15T11:10:47.922Z</time>
      </trkpt>
      <trkpt lat="65.85679" lon="12.42784">
        <ele>0.365376</ele>
        <time>2020-07-15T11:11:03.476Z</time>
      </trkpt>
      <trkpt lat="65.85684" lon="12.42829">
        <ele>0.35115</ele>
        <time>2020-07-15T11:11:06.854Z</time>
      </trkpt>
      <trkpt lat="65.85687" lon="12.42863">
        <ele>0.373393</ele>
        <time>2020-07-15T11:11:09.439Z</time>
      </trkpt>
      <trkpt lat="65.85702" lon="12.4297">
        <ele>0.44529</ele>
        <time>2020-07-15T11:11:17.921Z</time>
      </trkpt>
      <trkpt lat="65.85719" lon="12.43046">
        <ele>0.500617</ele>
        <time>2020-07-15T11:11:24.518Z</time>
      </trkpt>
      <trkpt lat="65.85766" lon="12.43159">
        <ele>0.603422</ele>
        <time>2020-07-15T11:11:36.907Z</time>
      </trkpt>
      <trkpt lat="65.85789" lon="12.43196">
        <ele>0.650744</ele>
        <time>2020-07-15T11:11:42.104Z</time>
      </trkpt>
      <trkpt lat="65.85799" lon="12.43212">
        <ele>0.672636</ele>
        <time>2020-07-15T11:11:44.268Z</time>
      </trkpt>
      <trkpt lat="65.85923" lon="12.43415">
        <ele>0.950506</ele>
        <time>2020-07-15T11:12:11.695Z</time>
      </trkpt>
      <trkpt lat="65.86152" lon="12.43966">
        <ele>1</ele>
        <time>2020-07-15T11:13:09.024Z</time>
      </trkpt>
      <trkpt lat="65.86384" lon="12.44604">
        <ele>1</ele>
        <time>2020-07-15T11:14:11.394Z</time>
      </trkpt>
      <trkpt lat="65.86444" lon="12.44769">
        <ele>1</ele>
        <time>2020-07-15T11:14:27.495Z</time>
      </trkpt>
      <trkpt lat="65.86573" lon="12.45126">
        <ele>1</ele>
        <time>2020-07-15T11:15:02.273Z</time>
      </trkpt>
      <trkpt lat="65.86706" lon="12.4549">
        <ele>1.02373</ele>
        <time>2020-07-15T11:15:37.935Z</time>
      </trkpt>
      <trkpt lat="65.86712" lon="12.45506">
        <ele>1.026695</ele>
        <time>2020-07-15T11:15:39.524Z</time>
      </trkpt>
      <trkpt lat="65.86729" lon="12.45551">
        <ele>1.034966</ele>
        <time>2020-07-15T11:15:43.970Z</time>
      </trkpt>
      <trkpt lat="65.86818" lon="12.45796">
        <ele>1.182545</ele>
        <time>2020-07-15T11:16:08.223Z</time>
      </trkpt>
      <trkpt lat="65.86882" lon="12.45969">
        <ele>1.380212</ele>
        <time>2020-07-15T11:16:25.961Z</time>
      </trkpt>
      <trkpt lat="65.86941" lon="12.46153">
        <ele>1.799362</ele>
        <time>2020-07-15T11:16:44.240Z</time>
      </trkpt>
      <trkpt lat="65.86948" lon="12.46181">
        <ele>1.868793</ele>
        <time>2020-07-15T11:16:46.824Z</time>
      </trkpt>
      <trkpt lat="65.86955" lon="12.46211">
        <ele>1.941769</ele>
        <time>2020-07-15T11:16:49.559Z</time>
      </trkpt>
      <trkpt lat="65.86991" lon="12.46438">
        <ele>2.476288</ele>
        <time>2020-07-15T11:17:09.443Z</time>
      </trkpt>
      <trkpt lat="65.8701" lon="12.46581">
        <ele>2.84943</ele>
        <time>2020-07-15T11:17:21.840Z</time>
      </trkpt>
      <trkpt lat="65.87039" lon="12.46792">
        <ele>3.398448</ele>
        <time>2020-07-15T11:17:39.703Z</time>
      </trkpt>
      <trkpt lat="65.87058" lon="12.46939">
        <ele>3.595791</ele>
        <time>2020-07-15T11:17:52.040Z</time>
      </trkpt>
      <trkpt lat="65.87107" lon="12.47297">
        <ele>3.859547</ele>
        <time>2020-07-15T11:18:20.143Z</time>
      </trkpt>
      <trkpt lat="65.87108" lon="12.47303">
        <ele>3.853483</ele>
        <time>2020-07-15T11:18:20.615Z</time>
      </trkpt>
      <trkpt lat="65.87142" lon="12.47548">
        <ele>3.611879</ele>
        <time>2020-07-15T11:18:38.887Z</time>
      </trkpt>
      <trkpt lat="65.87157" lon="12.47649">
        <ele>3.51164</ele>
        <time>2020-07-15T11:18:46.247Z</time>
      </trkpt>
      <trkpt lat="65.87167" lon="12.47714">
        <ele>3.376444</ele>
        <time>2020-07-15T11:18:50.922Z</time>
      </trkpt>
      <trkpt lat="65.87181" lon="12.47788">
        <ele>3.218173</ele>
        <time>2020-07-15T11:18:56.393Z</time>
      </trkpt>
      <trkpt lat="65.87192" lon="12.47842">
        <ele>3.100337</ele>
        <time>2020-07-15T11:19:00.457Z</time>
      </trkpt>
      <trkpt lat="65.87218" lon="12.47944">
        <ele>2.868351</ele>
        <time>2020-07-15T11:19:08.492Z</time>
      </trkpt>
      <trkpt lat="65.87234" lon="12.48001">
        <ele>2.733397</ele>
        <time>2020-07-15T11:19:13.223Z</time>
      </trkpt>
      <trkpt lat="65.87238" lon="12.48014">
        <ele>2.701964</ele>
        <time>2020-07-15T11:19:14.296Z</time>
      </trkpt>
      <trkpt lat="65.8728" lon="12.48154">
        <ele>2.485385</ele>
        <time>2020-07-15T11:19:26.221Z</time>
      </trkpt>
      <trkpt lat="65.87365" lon="12.48438">
        <ele>2.105795</ele>
        <time>2020-07-15T11:19:50.934Z</time>
      </trkpt>
      <trkpt lat="65.8759" lon="12.49151">
        <ele>1.40124</ele>
        <time>2020-07-15T11:20:54.504Z</time>
      </trkpt>
      <trkpt lat="65.87647" lon="12.49348">
        <ele>1.22005</ele>
        <time>2020-07-15T11:21:11.587Z</time>
      </trkpt>
      <trkpt lat="65.87716" lon="12.49634">
        <ele>1.067555</ele>
        <time>2020-07-15T11:21:35.412Z</time>
      </trkpt>
      <trkpt lat="65.87784" lon="12.49915">
        <ele>1</ele>
        <time>2020-07-15T11:21:59.053Z</time>
      </trkpt>
      <trkpt lat="65.87838" lon="12.50114">
        <ele>1</ele>
        <time>2020-07-15T11:22:16.540Z</time>
      </trkpt>
      <trkpt lat="65.87873" lon="12.50218">
        <ele>1</ele>
        <time>2020-07-15T11:22:26.412Z</time>
      </trkpt>
      <trkpt lat="65.87897" lon="12.50279">
        <ele>1</ele>
        <time>2020-07-15T11:22:32.520Z</time>
      </trkpt>
      <trkpt lat="65.87916" lon="12.50324">
        <ele>1</ele>
        <time>2020-07-15T11:22:37.231Z</time>
      </trkpt>
      <trkpt lat="65.87984" lon="12.50461">
        <ele>1</ele>
        <time>2020-07-15T11:22:53.035Z</time>
      </trkpt>
      <trkpt lat="65.88084" lon="12.50627">
        <ele>1</ele>
        <time>2020-07-15T11:23:14.478Z</time>
      </trkpt>
      <trkpt lat="65.88233" lon="12.50872">
        <ele>1</ele>
        <time>2020-07-15T11:23:46.577Z</time>
      </trkpt>
      <trkpt lat="65.88401" lon="12.51145">
        <ele>1</ele>
        <time>2020-07-15T11:24:22.639Z</time>
      </trkpt>
      <trkpt lat="65.88452" lon="12.51215">
        <ele>1</ele>
        <time>2020-07-15T11:24:32.962Z</time>
      </trkpt>
      <trkpt lat="65.88503" lon="12.51265">
        <ele>1</ele>
        <time>2020-07-15T11:24:42.826Z</time>
      </trkpt>
      <trkpt lat="65.88663" lon="12.51351">
        <ele>1</ele>
        <time>2020-07-15T11:25:12.070Z</time>
      </trkpt>
      <trkpt lat="65.88729" lon="12.51404">
        <ele>1</ele>
        <time>2020-07-15T11:25:24.476Z</time>
      </trkpt>
      <trkpt lat="65.88795" lon="12.51491">
        <ele>1</ele>
        <time>2020-07-15T11:25:37.746Z</time>
      </trkpt>
      <trkpt lat="65.88889" lon="12.51677">
        <ele>1</ele>
        <time>2020-07-15T11:25:59.406Z</time>
      </trkpt>
      <trkpt lat="65.88951" lon="12.5182">
        <ele>1</ele>
        <time>2020-07-15T11:26:14.613Z</time>
      </trkpt>
      <trkpt lat="65.88998" lon="12.51951">
        <ele>1</ele>
        <time>2020-07-15T11:26:27.389Z</time>
      </trkpt>
      <trkpt lat="65.89109" lon="12.5234">
        <ele>1</ele>
        <time>2020-07-15T11:27:01.955Z</time>
      </trkpt>
      <trkpt lat="65.89389" lon="12.53244">
        <ele>1.016388</ele>
        <time>2020-07-15T11:28:24.628Z</time>
      </trkpt>
      <trkpt lat="65.89427" lon="12.53336">
        <ele>1.03645</ele>
        <time>2020-07-15T11:28:34.172Z</time>
      </trkpt>
      <trkpt lat="65.89478" lon="12.53413">
        <ele>1.058707</ele>
        <time>2020-07-15T11:28:44.744Z</time>
      </trkpt>
      <trkpt lat="65.89674" lon="12.53601">
        <ele>1.740833</ele>
        <time>2020-07-15T11:29:23.818Z</time>
      </trkpt>
      <trkpt lat="65.89714" lon="12.53623">
        <ele>2.540644</ele>
        <time>2020-07-15T11:29:32.773Z</time>
      </trkpt>
      <trkpt lat="65.89758" lon="12.5362">
        <ele>3.366332</ele>
        <time>2020-07-15T11:29:42.759Z</time>
      </trkpt>
      <trkpt lat="65.89787" lon="12.536">
        <ele>3.94884</ele>
        <time>2020-07-15T11:29:50.193Z</time>
      </trkpt>
      <trkpt lat="65.8982" lon="12.5356">
        <ele>4.646791</ele>
        <time>2020-07-15T11:29:59.601Z</time>
      </trkpt>
      <trkpt lat="65.90077" lon="12.53177">
        <ele>15.22621</ele>
        <time>2020-07-15T11:31:28.982Z</time>
      </trkpt>
      <trkpt lat="65.90091" lon="12.53151">
        <ele>15.860372</ele>
        <time>2020-07-15T11:31:34.654Z</time>
      </trkpt>
      <trkpt lat="65.90101" lon="12.5313">
        <ele>16.34681</ele>
        <time>2020-07-15T11:31:38.335Z</time>
      </trkpt>
      <trkpt lat="65.90108" lon="12.53114">
        <ele>16.684591</ele>
        <time>2020-07-15T11:31:40.974Z</time>
      </trkpt>
      <trkpt lat="65.90114" lon="12.53098">
        <ele>16.999738</ele>
        <time>2020-07-15T11:31:43.557Z</time>
      </trkpt>
      <trkpt lat="65.90117" lon="12.53088">
        <ele>17.202648</ele>
        <time>2020-07-15T11:31:45.677Z</time>
      </trkpt>
      <trkpt lat="65.90138" lon="12.53009">
        <ele>18.260179</ele>
        <time>2020-07-15T11:31:56.880Z</time>
      </trkpt>
      <trkpt lat="65.90152" lon="12.52929">
        <ele>18.704011</ele>
        <time>2020-07-15T11:32:06.720Z</time>
      </trkpt>
      <trkpt lat="65.90187" lon="12.52688">
        <ele>20.027514</ele>
        <time>2020-07-15T11:32:29.009Z</time>
      </trkpt>
      <trkpt lat="65.90188" lon="12.52682">
        <ele>20.06147</ele>
        <time>2020-07-15T11:32:29.430Z</time>
      </trkpt>
      <trkpt lat="65.90204" lon="12.52576">
        <ele>19.664158</ele>
        <time>2020-07-15T11:32:36.429Z</time>
      </trkpt>
      <trkpt lat="65.9021" lon="12.52539">
        <ele>19.185152</ele>
        <time>2020-07-15T11:32:38.793Z</time>
      </trkpt>
      <trkpt lat="65.90221" lon="12.52468">
        <ele>18.267447</ele>
        <time>2020-07-15T11:32:43.038Z</time>
      </trkpt>
      <trkpt lat="65.90263" lon="12.5216">
        <ele>14.331462</ele>
        <time>2020-07-15T11:32:59.708Z</time>
      </trkpt>
      <trkpt lat="65.90267" lon="12.52029">
        <ele>12.721055</ele>
        <time>2020-07-15T11:33:06.412Z</time>
      </trkpt>
      <trkpt lat="65.90261" lon="12.51896">
        <ele>11.086226</ele>
        <time>2020-07-15T11:33:13.823Z</time>
      </trkpt>
      <trkpt lat="65.90258" lon="12.51863">
        <ele>10.674431</ele>
        <time>2020-07-15T11:33:15.570Z</time>
      </trkpt>
      <trkpt lat="65.90252" lon="12.51804">
        <ele>9.929751</ele>
        <time>2020-07-15T11:33:19.306Z</time>
      </trkpt>
      <trkpt lat="65.90225" lon="12.51581">
        <ele>9.54703</ele>
        <time>2020-07-15T11:33:33.994Z</time>
      </trkpt>
      <trkpt lat="65.90211" lon="12.51301">
        <ele>9.862874</ele>
        <time>2020-07-15T11:33:57.452Z</time>
      </trkpt>
      <trkpt lat="65.90197" lon="12.50922">
        <ele>12.998189</ele>
        <time>2020-07-15T11:34:35.643Z</time>
      </trkpt>
      <trkpt lat="65.90205" lon="12.50642">
        <ele>15.951825</ele>
        <time>2020-07-15T11:35:08.226Z</time>
      </trkpt>
      <trkpt lat="65.90204" lon="12.50507">
        <ele>17.386343</ele>
        <time>2020-07-15T11:35:23.642Z</time>
      </trkpt>
      <trkpt lat="65.90163" lon="12.49808">
        <ele>16.395198</ele>
        <time>2020-07-15T11:36:16.637Z</time>
      </trkpt>
      <trkpt lat="65.90145" lon="12.49418">
        <ele>11.622241</ele>
        <time>2020-07-15T11:36:36.144Z</time>
      </trkpt>
      <trkpt lat="65.90146" lon="12.49406">
        <ele>11.426884</ele>
        <time>2020-07-15T11:36:36.692Z</time>
      </trkpt>
      <trkpt lat="65.90143" lon="12.49369">
        <ele>10.845756</ele>
        <time>2020-07-15T11:36:38.603Z</time>
      </trkpt>
      <trkpt lat="65.90106" lon="12.48733">
        <ele>4.394744</ele>
        <time>2020-07-15T11:37:15.116Z</time>
      </trkpt>
      <trkpt lat="65.90095" lon="12.48566">
        <ele>4.859468</ele>
        <time>2020-07-15T11:37:28.904Z</time>
      </trkpt>
      <trkpt lat="65.90085" lon="12.48404">
        <ele>5.377278</ele>
        <time>2020-07-15T11:37:43.628Z</time>
      </trkpt>
      <trkpt lat="65.90081" lon="12.48355">
        <ele>5.530939</ele>
        <time>2020-07-15T11:37:48.198Z</time>
      </trkpt>
      <trkpt lat="65.90078" lon="12.48328">
        <ele>5.61819</ele>
        <time>2020-07-15T11:37:50.735Z</time>
      </trkpt>
      <trkpt lat="65.90077" lon="12.48268">
        <ele>5.833336</ele>
        <time>2020-07-15T11:37:56.470Z</time>
      </trkpt>
      <trkpt lat="65.90057" lon="12.48052">
        <ele>6.766082</ele>
        <time>2020-07-15T11:38:16.860Z</time>
      </trkpt>
      <trkpt lat="65.90031" lon="12.47893">
        <ele>7.486376</ele>
        <time>2020-07-15T11:38:31.433Z</time>
      </trkpt>
      <trkpt lat="65.89957" lon="12.47526">
        <ele>6.850762</ele>
        <time>2020-07-15T11:38:59.190Z</time>
      </trkpt>
      <trkpt lat="65.89859" lon="12.46998">
        <ele>4.48882</ele>
        <time>2020-07-15T11:39:35.087Z</time>
      </trkpt>
      <trkpt lat="65.89698" lon="12.463">
        <ele>2.31331</ele>
        <time>2020-07-15T11:40:28.158Z</time>
      </trkpt>
      <trkpt lat="65.8968" lon="12.46184">
        <ele>2.236652</ele>
        <time>2020-07-15T11:40:36.875Z</time>
      </trkpt>
      <trkpt lat="65.89674" lon="12.46102">
        <ele>2.184576</ele>
        <time>2020-07-15T11:40:42.942Z</time>
      </trkpt>
      <trkpt lat="65.89673" lon="12.4609">
        <ele>2.177325</ele>
        <time>2020-07-15T11:40:43.727Z</time>
      </trkpt>
      <trkpt lat="65.89673" lon="12.46073">
        <ele>2.166146</ele>
        <time>2020-07-15T11:40:45.212Z</time>
      </trkpt>
      <trkpt lat="65.89675" lon="12.45907">
        <ele>2.06289</ele>
        <time>2020-07-15T11:40:57.355Z</time>
      </trkpt>
      <trkpt lat="65.897" lon="12.45532">
        <ele>1.807657</ele>
        <time>2020-07-15T11:41:24.165Z</time>
      </trkpt>
      <trkpt lat="65.89704" lon="12.45374">
        <ele>2.115204</ele>
        <time>2020-07-15T11:41:35.065Z</time>
      </trkpt>
      <trkpt lat="65.89702" lon="12.4533">
        <ele>2.363729</ele>
        <time>2020-07-15T11:41:38.033Z</time>
      </trkpt>
      <trkpt lat="65.89698" lon="12.45227">
        <ele>2.951497</ele>
        <time>2020-07-15T11:41:47.020Z</time>
      </trkpt>
      <trkpt lat="65.89696" lon="12.45168">
        <ele>3.282504</ele>
        <time>2020-07-15T11:41:52.302Z</time>
      </trkpt>
      <trkpt lat="65.89697" lon="12.45029">
        <ele>4.070833</ele>
        <time>2020-07-15T11:42:06.703Z</time>
      </trkpt>
      <trkpt lat="65.89706" lon="12.44938">
        <ele>5.256401</ele>
        <time>2020-07-15T11:42:17.113Z</time>
      </trkpt>
      <trkpt lat="65.8971" lon="12.44913">
        <ele>5.687386</ele>
        <time>2020-07-15T11:42:20.443Z</time>
      </trkpt>
      <trkpt lat="65.89712" lon="12.44888">
        <ele>6.092649</ele>
        <time>2020-07-15T11:42:24.088Z</time>
      </trkpt>
      <trkpt lat="65.89767" lon="12.44598">
        <ele>11.167506</ele>
        <time>2020-07-15T11:43:05.567Z</time>
      </trkpt>
      <trkpt lat="65.89794" lon="12.44412">
        <ele>12.904153</ele>
        <time>2020-07-15T11:43:28.647Z</time>
      </trkpt>
      <trkpt lat="65.898" lon="12.44315">
        <ele>13.7611</ele>
        <time>2020-07-15T11:43:38.275Z</time>
      </trkpt>
      <trkpt lat="65.89799" lon="12.44211">
        <ele>14.661302</ele>
        <time>2020-07-15T11:43:47.239Z</time>
      </trkpt>
      <trkpt lat="65.89786" lon="12.44064">
        <ele>14.500389</ele>
        <time>2020-07-15T11:43:58.079Z</time>
      </trkpt>
      <trkpt lat="65.89755" lon="12.43911">
        <ele>13.601103</ele>
        <time>2020-07-15T11:44:08.489Z</time>
      </trkpt>
      <trkpt lat="65.8971" lon="12.43782">
        <ele>12.675025</ele>
        <time>2020-07-15T11:44:18.184Z</time>
      </trkpt>
      <trkpt lat="65.8966" lon="12.43687">
        <ele>11.231987</ele>
        <time>2020-07-15T11:44:26.633Z</time>
      </trkpt>
      <trkpt lat="65.89515" lon="12.43442">
        <ele>8.139321</ele>
        <time>2020-07-15T11:44:51.139Z</time>
      </trkpt>
      <trkpt lat="65.89481" lon="12.43373">
        <ele>7.811004</ele>
        <time>2020-07-15T11:44:58.225Z</time>
      </trkpt>
      <trkpt lat="65.89451" lon="12.43295">
        <ele>7.486395</ele>
        <time>2020-07-15T11:45:05.997Z</time>
      </trkpt>
      <trkpt lat="65.8942" lon="12.43172">
        <ele>7.610894</ele>
        <time>2020-07-15T11:45:18.067Z</time>
      </trkpt>
      <trkpt lat="65.89358" lon="12.4279">
        <ele>9.564431</ele>
        <time>2020-07-15T11:45:55.957Z</time>
      </trkpt>
      <trkpt lat="65.8932" lon="12.42655">
        <ele>10.060002</ele>
        <time>2020-07-15T11:46:09.572Z</time>
      </trkpt>
      <trkpt lat="65.89252" lon="12.42452">
        <ele>10.921105</ele>
        <time>2020-07-15T11:46:30.272Z</time>
      </trkpt>
      <trkpt lat="65.89228" lon="12.42355">
        <ele>11.50397</ele>
        <time>2020-07-15T11:46:39.034Z</time>
      </trkpt>
      <trkpt lat="65.89111" lon="12.4159">
        <ele>17.092666</ele>
        <time>2020-07-15T11:47:56.544Z</time>
      </trkpt>
      <trkpt lat="65.89096" lon="12.41455">
        <ele>18.675243</ele>
        <time>2020-07-15T11:48:13.049Z</time>
      </trkpt>
      <trkpt lat="65.89089" lon="12.41339">
        <ele>19.989114</ele>
        <time>2020-07-15T11:48:26.613Z</time>
      </trkpt>
      <trkpt lat="65.89089" lon="12.41222">
        <ele>21.211936</ele>
        <time>2020-07-15T11:48:39.934Z</time>
      </trkpt>
      <trkpt lat="65.89104" lon="12.41081">
        <ele>21.547084</ele>
        <time>2020-07-15T11:48:54.473Z</time>
      </trkpt>
      <trkpt lat="65.89137" lon="12.40938">
        <ele>21.929098</ele>
        <time>2020-07-15T11:49:06.743Z</time>
      </trkpt>
      <trkpt lat="65.89183" lon="12.40828">
        <ele>21.893192</ele>
        <time>2020-07-15T11:49:16.718Z</time>
      </trkpt>
      <trkpt lat="65.89196" lon="12.40807">
        <ele>21.581565</ele>
        <time>2020-07-15T11:49:18.870Z</time>
      </trkpt>
      <trkpt lat="65.8922" lon="12.40778">
        <ele>21.054764</ele>
        <time>2020-07-15T11:49:22.720Z</time>
      </trkpt>
      <trkpt lat="65.89276" lon="12.40738">
        <ele>19.896581</ele>
        <time>2020-07-15T11:49:30.888Z</time>
      </trkpt>
      <trkpt lat="65.89446" lon="12.40699">
        <ele>15.57947</ele>
        <time>2020-07-15T11:49:54.231Z</time>
      </trkpt>
      <trkpt lat="65.89494" lon="12.40676">
        <ele>14.196037</ele>
        <time>2020-07-15T11:50:00.643Z</time>
      </trkpt>
      <trkpt lat="65.89503" lon="12.40668">
        <ele>13.921888</ele>
        <time>2020-07-15T11:50:01.814Z</time>
      </trkpt>
      <trkpt lat="65.89518" lon="12.40656">
        <ele>13.468418</ele>
        <time>2020-07-15T11:50:03.821Z</time>
      </trkpt>
      <trkpt lat="65.89562" lon="12.40605">
        <ele>11.797642</ele>
        <time>2020-07-15T11:50:10.166Z</time>
      </trkpt>
      <trkpt lat="65.89592" lon="12.40565">
        <ele>10.624422</ele>
        <time>2020-07-15T11:50:14.559Z</time>
      </trkpt>
      <trkpt lat="65.89603" lon="12.4055">
        <ele>10.191993</ele>
        <time>2020-07-15T11:50:16.077Z</time>
      </trkpt>
      <trkpt lat="65.89735" lon="12.40384">
        <ele>5.954815</ele>
        <time>2020-07-15T11:50:35.566Z</time>
      </trkpt>
      <trkpt lat="65.89778" lon="12.40342">
        <ele>4.981023</ele>
        <time>2020-07-15T11:50:42.027Z</time>
      </trkpt>
      <trkpt lat="65.89822" lon="12.40319">
        <ele>4.01354</ele>
        <time>2020-07-15T11:50:48.626Z</time>
      </trkpt>
      <trkpt lat="65.89888" lon="12.40314">
        <ele>3.453447</ele>
        <time>2020-07-15T11:50:58.701Z</time>
      </trkpt>
      <trkpt lat="65.89915" lon="12.40324">
        <ele>3.415199</ele>
        <time>2020-07-15T11:51:03.071Z</time>
      </trkpt>
      <trkpt lat="65.89935" lon="12.40336">
        <ele>3.385631</ele>
        <time>2020-07-15T11:51:06.592Z</time>
      </trkpt>
      <trkpt lat="65.90003" lon="12.40399">
        <ele>3.283988</ele>
        <time>2020-07-15T11:51:20.063Z</time>
      </trkpt>
      <trkpt lat="65.90009" lon="12.40405">
        <ele>3.274487</ele>
        <time>2020-07-15T11:51:21.490Z</time>
      </trkpt>
      <trkpt lat="65.90025" lon="12.40422">
        <ele>3.392302</ele>
        <time>2020-07-15T11:51:25.019Z</time>
      </trkpt>
      <trkpt lat="65.90118" lon="12.40513">
        <ele>5.290244</ele>
        <time>2020-07-15T11:51:48.700Z</time>
      </trkpt>
      <trkpt lat="65.90124" lon="12.40515">
        <ele>5.392206</ele>
        <time>2020-07-15T11:51:50.076Z</time>
      </trkpt>
      <trkpt lat="65.9014" lon="12.40532">
        <ele>5.716743</ele>
        <time>2020-07-15T11:51:54.647Z</time>
      </trkpt>
      <trkpt lat="65.90207" lon="12.406">
        <ele>7.230909</ele>
        <time>2020-07-15T11:52:13.431Z</time>
      </trkpt>
      <trkpt lat="65.90236" lon="12.4064">
        <ele>8.057068</ele>
        <time>2020-07-15T11:52:22.253Z</time>
      </trkpt>
      <trkpt lat="65.90338" lon="12.40846">
        <ele>11.3146</ele>
        <time>2020-07-15T11:52:56.150Z</time>
      </trkpt>
      <trkpt lat="65.90388" lon="12.40926">
        <ele>12.681706</ele>
        <time>2020-07-15T11:53:11.195Z</time>
      </trkpt>
      <trkpt lat="65.90442" lon="12.40989">
        <ele>14.035625</ele>
        <time>2020-07-15T11:53:25.675Z</time>
      </trkpt>
      <trkpt lat="65.90472" lon="12.41037">
        <ele>14.843639</ele>
        <time>2020-07-15T11:53:34.065Z</time>
      </trkpt>
      <trkpt lat="65.90588" lon="12.41282">
        <ele>19.711466</ele>
        <time>2020-07-15T11:54:16.712Z</time>
      </trkpt>
      <trkpt lat="65.9059" lon="12.41285">
        <ele>19.790598</ele>
        <time>2020-07-15T11:54:17.635Z</time>
      </trkpt>
      <trkpt lat="65.90605" lon="12.41315">
        <ele>20.421917</ele>
        <time>2020-07-15T11:54:23.453Z</time>
      </trkpt>
      <trkpt lat="65.90665" lon="12.41418">
        <ele>22.811183</ele>
        <time>2020-07-15T11:54:46.252Z</time>
      </trkpt>
      <trkpt lat="65.90997" lon="12.41907">
        <ele>31.208993</ele>
        <time>2020-07-15T11:56:30.983Z</time>
      </trkpt>
      <trkpt lat="65.9105" lon="12.42007">
        <ele>30.497731</ele>
        <time>2020-07-15T11:56:39.487Z</time>
      </trkpt>
      <trkpt lat="65.91126" lon="12.42232">
        <ele>26.56796</ele>
        <time>2020-07-15T11:56:53.980Z</time>
      </trkpt>
      <trkpt lat="65.91131" lon="12.42242">
        <ele>26.325773</ele>
        <time>2020-07-15T11:56:54.598Z</time>
      </trkpt>
      <trkpt lat="65.9114" lon="12.4228">
        <ele>25.571546</ele>
        <time>2020-07-15T11:56:57.189Z</time>
      </trkpt>
      <trkpt lat="65.91185" lon="12.42425">
        <ele>22.683461</ele>
        <time>2020-07-15T11:57:06.899Z</time>
      </trkpt>
      <trkpt lat="65.91236" lon="12.42549">
        <ele>21.803845</ele>
        <time>2020-07-15T11:57:17.219Z</time>
      </trkpt>
      <trkpt lat="65.91423" lon="12.42868">
        <ele>20.291248</ele>
        <time>2020-07-15T11:57:54.988Z</time>
      </trkpt>
      <trkpt lat="65.91452" lon="12.42936">
        <ele>20.208462</ele>
        <time>2020-07-15T11:58:02.134Z</time>
      </trkpt>
      <trkpt lat="65.91481" lon="12.43021">
        <ele>20.488792</ele>
        <time>2020-07-15T11:58:10.806Z</time>
      </trkpt>
      <trkpt lat="65.91586" lon="12.43271">
        <ele>21.938127</ele>
        <time>2020-07-15T11:58:42.562Z</time>
      </trkpt>
      <trkpt lat="65.91812" lon="12.43635">
        <ele>24.77502</ele>
        <time>2020-07-15T11:59:42.621Z</time>
      </trkpt>
      <trkpt lat="65.91877" lon="12.43773">
        <ele>25.14537</ele>
        <time>2020-07-15T11:59:57.259Z</time>
      </trkpt>
      <trkpt lat="65.91905" lon="12.43869">
        <ele>24.732117</ele>
        <time>2020-07-15T12:00:04.836Z</time>
      </trkpt>
      <trkpt lat="65.91933" lon="12.43993">
        <ele>24.13615</ele>
        <time>2020-07-15T12:00:13.500Z</time>
      </trkpt>
      <trkpt lat="65.9199" lon="12.44339">
        <ele>22.69074</ele>
        <time>2020-07-15T12:00:36.846Z</time>
      </trkpt>
      <trkpt lat="65.92006" lon="12.44457">
        <ele>22.256789</ele>
        <time>2020-07-15T12:00:44.906Z</time>
      </trkpt>
      <trkpt lat="65.92012" lon="12.4454">
        <ele>21.959904</ele>
        <time>2020-07-15T12:00:50.434Z</time>
      </trkpt>
      <trkpt lat="65.92019" lon="12.44702">
        <ele>21.445118</ele>
        <time>2020-07-15T12:01:01.313Z</time>
      </trkpt>
      <trkpt lat="65.92028" lon="12.44822">
        <ele>21.07888</ele>
        <time>2020-07-15T12:01:09.369Z</time>
      </trkpt>
      <trkpt lat="65.92032" lon="12.44847">
        <ele>20.99909</ele>
        <time>2020-07-15T12:01:11.151Z</time>
      </trkpt>
      <trkpt lat="65.92037" lon="12.44887">
        <ele>20.872832</ele>
        <time>2020-07-15T12:01:13.762Z</time>
      </trkpt>
      <trkpt lat="65.92051" lon="12.44961">
        <ele>20.627428</ele>
        <time>2020-07-15T12:01:19.551Z</time>
      </trkpt>
      <trkpt lat="65.92078" lon="12.45066">
        <ele>19.784578</ele>
        <time>2020-07-15T12:01:27.765Z</time>
      </trkpt>
      <trkpt lat="65.92151" lon="12.45306">
        <ele>16.691868</ele>
        <time>2020-07-15T12:01:44.359Z</time>
      </trkpt>
      <trkpt lat="65.92175" lon="12.45368">
        <ele>15.755258</ele>
        <time>2020-07-15T12:01:48.758Z</time>
      </trkpt>
      <trkpt lat="65.92187" lon="12.45391">
        <ele>15.102478</ele>
        <time>2020-07-15T12:01:50.613Z</time>
      </trkpt>
      <trkpt lat="65.92196" lon="12.45411">
        <ele>14.582816</ele>
        <time>2020-07-15T12:01:52.042Z</time>
      </trkpt>
      <trkpt lat="65.92265" lon="12.45524">
        <ele>10.999574</ele>
        <time>2020-07-15T12:02:02.347Z</time>
      </trkpt>
      <trkpt lat="65.9229" lon="12.45552">
        <ele>9.805817</ele>
        <time>2020-07-15T12:02:05.644Z</time>
      </trkpt>
      <trkpt lat="65.92308" lon="12.45569">
        <ele>8.946505</ele>
        <time>2020-07-15T12:02:08.139Z</time>
      </trkpt>
      <trkpt lat="65.92315" lon="12.45575">
        <ele>8.637624</ele>
        <time>2020-07-15T12:02:08.960Z</time>
      </trkpt>
      <trkpt lat="65.92383" lon="12.45633">
        <ele>6.45023</ele>
        <time>2020-07-15T12:02:18.147Z</time>
      </trkpt>
      <trkpt lat="65.92396" lon="12.45645">
        <ele>6.06582</ele>
        <time>2020-07-15T12:02:19.920Z</time>
      </trkpt>
      <trkpt lat="65.924" lon="12.4565">
        <ele>5.923376</ele>
        <time>2020-07-15T12:02:20.650Z</time>
      </trkpt>
      <trkpt lat="65.92407" lon="12.45657">
        <ele>5.731071</ele>
        <time>2020-07-15T12:02:21.603Z</time>
      </trkpt>
      <trkpt lat="65.92412" lon="12.45663">
        <ele>5.581708</ele>
        <time>2020-07-15T12:02:22.281Z</time>
      </trkpt>
      <trkpt lat="65.92427" lon="12.45682">
        <ele>5.110507</ele>
        <time>2020-07-15T12:02:24.461Z</time>
      </trkpt>
      <trkpt lat="65.92429" lon="12.45669">
        <ele>4.950883</ele>
        <time>2020-07-15T12:02:25.332Z</time>
      </trkpt>
      <trkpt lat="65.92429" lon="12.45666">
        <ele>4.916407</ele>
        <time>2020-07-15T12:02:25.531Z</time>
      </trkpt>
      <trkpt lat="65.92432" lon="12.45635">
        <ele>4.551346</ele>
        <time>2020-07-15T12:02:27.471Z</time>
      </trkpt>
      <trkpt lat="65.92433" lon="12.45627">
        <ele>4.454523</ele>
        <time>2020-07-15T12:02:27.953Z</time>
      </trkpt>
      <trkpt lat="65.92438" lon="12.45638">
        <ele>4.252869</ele>
        <time>2020-07-15T12:02:28.954Z</time>
      </trkpt>
      <trkpt lat="65.9248" lon="12.45747">
        <ele>3.055464</ele>
        <time>2020-07-15T12:02:38.506Z</time>
      </trkpt>
      <trkpt lat="65.92614" lon="12.4603">
        <ele>2.81459</ele>
        <time>2020-07-15T12:03:10.606Z</time>
      </trkpt>
      <trkpt lat="65.92666" lon="12.46133">
        <ele>3.60795</ele>
        <time>2020-07-15T12:03:25.793Z</time>
      </trkpt>
      <trkpt lat="65.92756" lon="12.46286">
        <ele>4.765549</ele>
        <time>2020-07-15T12:03:52.247Z</time>
      </trkpt>
      <trkpt lat="65.92762" lon="12.46295">
        <ele>4.777009</ele>
        <time>2020-07-15T12:03:54.018Z</time>
      </trkpt>
      <trkpt lat="65.92781" lon="12.46324">
        <ele>4.814125</ele>
        <time>2020-07-15T12:03:58.786Z</time>
      </trkpt>
      <trkpt lat="65.92783" lon="12.46328">
        <ele>4.818176</ele>
        <time>2020-07-15T12:03:59.171Z</time>
      </trkpt>
      <trkpt lat="65.92789" lon="12.46342">
        <ele>4.831679</ele>
        <time>2020-07-15T12:04:00.829Z</time>
      </trkpt>
      <trkpt lat="65.92792" lon="12.46358">
        <ele>4.843046</ele>
        <time>2020-07-15T12:04:02.554Z</time>
      </trkpt>
      <trkpt lat="65.92793" lon="12.46374">
        <ele>4.854195</ele>
        <time>2020-07-15T12:04:04.208Z</time>
      </trkpt>
      <trkpt lat="65.92793" lon="12.46379">
        <ele>4.857512</ele>
        <time>2020-07-15T12:04:04.684Z</time>
      </trkpt>
      <trkpt lat="65.92807" lon="12.46397">
        <ele>4.882984</ele>
        <time>2020-07-15T12:04:07.156Z</time>
      </trkpt>
      <trkpt lat="65.92812" lon="12.46404">
        <ele>4.892351</ele>
        <time>2020-07-15T12:04:08.460Z</time>
      </trkpt>
      <trkpt lat="65.92831" lon="12.46425">
        <ele>4.9265</ele>
        <time>2020-07-15T12:04:12.847Z</time>
      </trkpt>
      <trkpt lat="65.92844" lon="12.46436">
        <ele>4.948576</ele>
        <time>2020-07-15T12:04:14.858Z</time>
      </trkpt>
      <trkpt lat="65.92861" lon="12.46455">
        <ele>4.979006</ele>
        <time>2020-07-15T12:04:18.856Z</time>
      </trkpt>
      <trkpt lat="65.92868" lon="12.46463">
        <ele>4.992169</ele>
        <time>2020-07-15T12:04:19.998Z</time>
      </trkpt>
      <trkpt lat="65.92894" lon="12.46495">
        <ele>5.010516</ele>
        <time>2020-07-15T12:04:25.413Z</time>
      </trkpt>
      <trkpt lat="65.92898" lon="12.465">
        <ele>4.954525</ele>
        <time>2020-07-15T12:04:26.003Z</time>
      </trkpt>
      <trkpt lat="65.92901" lon="12.46504">
        <ele>4.907498</ele>
        <time>2020-07-15T12:04:26.458Z</time>
      </trkpt>
      <trkpt lat="65.92951" lon="12.4656">
        <ele>4.192971</ele>
        <time>2020-07-15T12:04:34.768Z</time>
      </trkpt>
      <trkpt lat="65.92966" lon="12.46562">
        <ele>3.996965</ele>
        <time>2020-07-15T12:04:37.015Z</time>
      </trkpt>
      <trkpt lat="65.9297" lon="12.4656">
        <ele>3.938555</ele>
        <time>2020-07-15T12:04:37.573Z</time>
      </trkpt>
      <trkpt lat="65.92991" lon="12.46544">
        <ele>3.648592</ele>
        <time>2020-07-15T12:04:41.194Z</time>
      </trkpt>
      <trkpt lat="65.92995" lon="12.46542">
        <ele>3.600559</ele>
        <time>2020-07-15T12:04:41.831Z</time>
      </trkpt>
      <trkpt lat="65.93052" lon="12.46564">
        <ele>2.838064</ele>
        <time>2020-07-15T12:04:50.685Z</time>
      </trkpt>
      <trkpt lat="65.93137" lon="12.46564">
        <ele>2.381813</ele>
        <time>2020-07-15T12:05:05.231Z</time>
      </trkpt>
      <trkpt lat="65.9314" lon="12.46555">
        <ele>2.363806</ele>
        <time>2020-07-15T12:05:06.054Z</time>
      </trkpt>
      <trkpt lat="65.93142" lon="12.46552">
        <ele>2.354056</ele>
        <time>2020-07-15T12:05:06.484Z</time>
      </trkpt>
      <trkpt lat="65.93145" lon="12.46551">
        <ele>2.343768</ele>
        <time>2020-07-15T12:05:06.944Z</time>
      </trkpt>
      <trkpt lat="65.93191" lon="12.46546">
        <ele>2.157857</ele>
        <time>2020-07-15T12:05:15.409Z</time>
      </trkpt>
      <trkpt lat="65.93305" lon="12.46527">
        <ele>1.981618</ele>
        <time>2020-07-15T12:05:36.266Z</time>
      </trkpt>
      <trkpt lat="65.93382" lon="12.46514">
        <ele>2.015804</ele>
        <time>2020-07-15T12:05:50.663Z</time>
      </trkpt>
      <trkpt lat="65.93461" lon="12.46499">
        <ele>2.213153</ele>
        <time>2020-07-15T12:06:05.864Z</time>
      </trkpt>
      <trkpt lat="65.93504" lon="12.46491">
        <ele>2.411712</ele>
        <time>2020-07-15T12:06:14.592Z</time>
      </trkpt>
      <trkpt lat="65.93599" lon="12.46457">
        <ele>2.85355</ele>
        <time>2020-07-15T12:06:34.302Z</time>
      </trkpt>
      <trkpt lat="65.93617" lon="12.46446">
        <ele>2.97793</ele>
        <time>2020-07-15T12:06:38.034Z</time>
      </trkpt>
      <trkpt lat="65.93641" lon="12.46428">
        <ele>3.15541</ele>
        <time>2020-07-15T12:06:43.209Z</time>
      </trkpt>
      <trkpt lat="65.93725" lon="12.46331">
        <ele>3.815645</ele>
        <time>2020-07-15T12:07:02.817Z</time>
      </trkpt>
      <trkpt lat="65.93804" lon="12.46201">
        <ele>4.393445</ele>
        <time>2020-07-15T12:07:22.696Z</time>
      </trkpt>
      <trkpt lat="65.93811" lon="12.46187">
        <ele>4.444364</ele>
        <time>2020-07-15T12:07:24.704Z</time>
      </trkpt>
      <trkpt lat="65.93824" lon="12.46164">
        <ele>4.528443</ele>
        <time>2020-07-15T12:07:27.957Z</time>
      </trkpt>
      <trkpt lat="65.93831" lon="12.46154">
        <ele>4.571061</ele>
        <time>2020-07-15T12:07:29.569Z</time>
      </trkpt>
      <trkpt lat="65.93854" lon="12.46115">
        <ele>4.720111</ele>
        <time>2020-07-15T12:07:35.307Z</time>
      </trkpt>
      <trkpt lat="65.93975" lon="12.45917">
        <ele>5.287929</ele>
        <time>2020-07-15T12:08:03.587Z</time>
      </trkpt>
      <trkpt lat="65.94022" lon="12.45863">
        <ele>5.427049</ele>
        <time>2020-07-15T12:08:13.471Z</time>
      </trkpt>
      <trkpt lat="65.94059" lon="12.45838">
        <ele>5.529183</ele>
        <time>2020-07-15T12:08:20.916Z</time>
      </trkpt>
      <trkpt lat="65.94073" lon="12.45831">
        <ele>5.585609</ele>
        <time>2020-07-15T12:08:23.517Z</time>
      </trkpt>
      <trkpt lat="65.94093" lon="12.45826">
        <ele>5.833971</ele>
        <time>2020-07-15T12:08:27.844Z</time>
      </trkpt>
      <trkpt lat="65.94142" lon="12.45827">
        <ele>6.414843</ele>
        <time>2020-07-15T12:08:37.438Z</time>
      </trkpt>
      <trkpt lat="65.94212" lon="12.45837">
        <ele>7.263534</ele>
        <time>2020-07-15T12:08:52.925Z</time>
      </trkpt>
      <trkpt lat="65.94286" lon="12.45849">
        <ele>9.232403</ele>
        <time>2020-07-15T12:09:12.435Z</time>
      </trkpt>
      <trkpt lat="65.94312" lon="12.45853">
        <ele>10.318873</ele>
        <time>2020-07-15T12:09:20.811Z</time>
      </trkpt>
      <trkpt lat="65.94335" lon="12.45858">
        <ele>11.285817</ele>
        <time>2020-07-15T12:09:27.387Z</time>
      </trkpt>
      <trkpt lat="65.94402" lon="12.45899">
        <ele>14.212338</ele>
        <time>2020-07-15T12:09:51.401Z</time>
      </trkpt>
      <trkpt lat="65.94412" lon="12.45913">
        <ele>14.705553</ele>
        <time>2020-07-15T12:09:55.545Z</time>
      </trkpt>
      <trkpt lat="65.94414" lon="12.45917">
        <ele>14.826155</ele>
        <time>2020-07-15T12:09:57.618Z</time>
      </trkpt>
      <trkpt lat="65.94618" lon="12.46102">
        <ele>24.468192</ele>
        <time>2020-07-15T12:11:15.414Z</time>
      </trkpt>
      <trkpt lat="65.94625" lon="12.46101">
        <ele>24.469082</ele>
        <time>2020-07-15T12:11:18.906Z</time>
      </trkpt>
      <trkpt lat="65.94626" lon="12.46093">
        <ele>24.469536</ele>
        <time>2020-07-15T12:11:19.469Z</time>
      </trkpt>
      <trkpt lat="65.94628" lon="12.46078">
        <ele>24.470418</ele>
        <time>2020-07-15T12:11:20.713Z</time>
      </trkpt>
      <trkpt lat="65.94863" lon="12.4629">
        <ele>22.126032</ele>
        <time>2020-07-15T12:11:56.993Z</time>
      </trkpt>
      <trkpt lat="65.94934" lon="12.46355">
        <ele>20.58684</ele>
        <time>2020-07-15T12:12:07.065Z</time>
      </trkpt>
      <trkpt lat="65.94982" lon="12.46402">
        <ele>19.807973</ele>
        <time>2020-07-15T12:12:14.136Z</time>
      </trkpt>
      <trkpt lat="65.94994" lon="12.46413">
        <ele>19.612309</ele>
        <time>2020-07-15T12:12:15.932Z</time>
      </trkpt>
      <trkpt lat="65.95026" lon="12.46447">
        <ele>19.081515</ele>
        <time>2020-07-15T12:12:21.158Z</time>
      </trkpt>
      <trkpt lat="65.95063" lon="12.46481">
        <ele>18.485377</ele>
        <time>2020-07-15T12:12:27.353Z</time>
      </trkpt>
      <trkpt lat="65.95109" lon="12.46531">
        <ele>18.036992</ele>
        <time>2020-07-15T12:12:35.778Z</time>
      </trkpt>
      <trkpt lat="65.95139" lon="12.46565">
        <ele>18.1019</ele>
        <time>2020-07-15T12:12:41.666Z</time>
      </trkpt>
      <trkpt lat="65.95169" lon="12.46595">
        <ele>18.164241</ele>
        <time>2020-07-15T12:12:47.691Z</time>
      </trkpt>
      <trkpt lat="65.95235" lon="12.46669">
        <ele>18.307689</ele>
        <time>2020-07-15T12:13:02.044Z</time>
      </trkpt>
      <trkpt lat="65.95245" lon="12.46681">
        <ele>18.32905</ele>
        <time>2020-07-15T12:13:04.300Z</time>
      </trkpt>
      <trkpt lat="65.95276" lon="12.46714">
        <ele>18.297212</ele>
        <time>2020-07-15T12:13:10.879Z</time>
      </trkpt>
      <trkpt lat="65.95283" lon="12.46722">
        <ele>18.276543</ele>
        <time>2020-07-15T12:13:12.434Z</time>
      </trkpt>
      <trkpt lat="65.95291" lon="12.46732">
        <ele>18.251919</ele>
        <time>2020-07-15T12:13:13.967Z</time>
      </trkpt>
      <trkpt lat="65.95467" lon="12.46927">
        <ele>17.677679</ele>
        <time>2020-07-15T12:13:45.749Z</time>
      </trkpt>
      <trkpt lat="65.95574" lon="12.47075">
        <ele>17.218922</ele>
        <time>2020-07-15T12:14:06.196Z</time>
      </trkpt>
      <trkpt lat="65.95836" lon="12.47532">
        <ele>17.178891</ele>
        <time>2020-07-15T12:15:04.093Z</time>
      </trkpt>
      <trkpt lat="65.9594" lon="12.47686">
        <ele>17.034876</ele>
        <time>2020-07-15T12:15:25.002Z</time>
      </trkpt>
      <trkpt lat="65.95952" lon="12.47696">
        <ele>17.013506</ele>
        <time>2020-07-15T12:15:26.886Z</time>
      </trkpt>
      <trkpt lat="65.95966" lon="12.47716">
        <ele>16.984937</ele>
        <time>2020-07-15T12:15:30.129Z</time>
      </trkpt>
      <trkpt lat="65.95989" lon="12.47738">
        <ele>16.943626</ele>
        <time>2020-07-15T12:15:34.054Z</time>
      </trkpt>
      <trkpt lat="65.9601" lon="12.47761">
        <ele>16.90478</ele>
        <time>2020-07-15T12:15:38.203Z</time>
      </trkpt>
      <trkpt lat="65.96014" lon="12.47766">
        <ele>16.896217</ele>
        <time>2020-07-15T12:15:38.955Z</time>
      </trkpt>
      <trkpt lat="65.9602" lon="12.47768">
        <ele>16.88647</ele>
        <time>2020-07-15T12:15:39.901Z</time>
      </trkpt>
      <trkpt lat="65.96034" lon="12.47783">
        <ele>16.859836</ele>
        <time>2020-07-15T12:15:42.986Z</time>
      </trkpt>
      <trkpt lat="65.96063" lon="12.47813">
        <ele>17.022969</ele>
        <time>2020-07-15T12:15:48.556Z</time>
      </trkpt>
      <trkpt lat="65.96225" lon="12.48019">
        <ele>18.754562</ele>
        <time>2020-07-15T12:16:24.501Z</time>
      </trkpt>
      <trkpt lat="65.96241" lon="12.48047">
        <ele>19.312312</ele>
        <time>2020-07-15T12:16:28.887Z</time>
      </trkpt>
      <trkpt lat="65.9625" lon="12.48065">
        <ele>19.651822</ele>
        <time>2020-07-15T12:16:31.872Z</time>
      </trkpt>
      <trkpt lat="65.96294" lon="12.48175">
        <ele>21.438843</ele>
        <time>2020-07-15T12:16:48.098Z</time>
      </trkpt>
      <trkpt lat="65.96469" lon="12.48722">
        <ele>36.006436</ele>
        <time>2020-07-15T12:18:27.689Z</time>
      </trkpt>
      <trkpt lat="65.96494" lon="12.48819">
        <ele>39.09142</ele>
        <time>2020-07-15T12:18:47.265Z</time>
      </trkpt>
      <trkpt lat="65.96513" lon="12.48926">
        <ele>42.236171</ele>
        <time>2020-07-15T12:19:06.563Z</time>
      </trkpt>
      <trkpt lat="65.96517" lon="12.48965">
        <ele>43.329284</ele>
        <time>2020-07-15T12:19:13.693Z</time>
      </trkpt>
      <trkpt lat="65.96521" lon="12.49009">
        <ele>44.524947</ele>
        <time>2020-07-15T12:19:20.679Z</time>
      </trkpt>
      <trkpt lat="65.96524" lon="12.49184">
        <ele>48.231388</ele>
        <time>2020-07-15T12:19:48.649Z</time>
      </trkpt>
      <trkpt lat="65.96503" lon="12.49488">
        <ele>54.142364</ele>
        <time>2020-07-15T12:20:29.098Z</time>
      </trkpt>
      <trkpt lat="65.96501" lon="12.49579">
        <ele>54.778023</ele>
        <time>2020-07-15T12:20:38.150Z</time>
      </trkpt>
      <trkpt lat="65.96501" lon="12.49596">
        <ele>54.893687</ele>
        <time>2020-07-15T12:20:40.006Z</time>
      </trkpt>
      <trkpt lat="65.96503" lon="12.49648">
        <ele>55.259037</ele>
        <time>2020-07-15T12:20:44.666Z</time>
      </trkpt>
      <trkpt lat="65.96513" lon="12.49764">
        <ele>56.084029</ele>
        <time>2020-07-15T12:20:55.225Z</time>
      </trkpt>
      <trkpt lat="65.96536" lon="12.49901">
        <ele>56.895827</ele>
        <time>2020-07-15T12:21:06.839Z</time>
      </trkpt>
      <trkpt lat="65.96564" lon="12.49997">
        <ele>56.828788</ele>
        <time>2020-07-15T12:21:15.393Z</time>
      </trkpt>
      <trkpt lat="65.96606" lon="12.50103">
        <ele>56.745019</ele>
        <time>2020-07-15T12:21:25.711Z</time>
      </trkpt>
      <trkpt lat="65.96735" lon="12.50399">
        <ele>55.852946</ele>
        <time>2020-07-15T12:21:55.143Z</time>
      </trkpt>
      <trkpt lat="65.96764" lon="12.50465">
        <ele>55.581395</ele>
        <time>2020-07-15T12:22:01.154Z</time>
      </trkpt>
      <trkpt lat="65.96805" lon="12.50571">
        <ele>55.10274</ele>
        <time>2020-07-15T12:22:10.141Z</time>
      </trkpt>
      <trkpt lat="65.96841" lon="12.50689">
        <ele>54.578968</ele>
        <time>2020-07-15T12:22:19.292Z</time>
      </trkpt>
      <trkpt lat="65.96848" lon="12.50716">
        <ele>54.467007</ele>
        <time>2020-07-15T12:22:21.177Z</time>
      </trkpt>
      <trkpt lat="65.9686" lon="12.50763">
        <ele>54.270519</ele>
        <time>2020-07-15T12:22:24.722Z</time>
      </trkpt>
      <trkpt lat="65.96943" lon="12.51092">
        <ele>54.779945</ele>
        <time>2020-07-15T12:22:52.138Z</time>
      </trkpt>
      <trkpt lat="65.9698" lon="12.51202">
        <ele>55.271398</ele>
        <time>2020-07-15T12:23:05.688Z</time>
      </trkpt>
      <trkpt lat="65.97022" lon="12.51298">
        <ele>57.997979</ele>
        <time>2020-07-15T12:23:21.478Z</time>
      </trkpt>
      <trkpt lat="65.97078" lon="12.51407">
        <ele>62.188526</ele>
        <time>2020-07-15T12:23:46.910Z</time>
      </trkpt>
      <trkpt lat="65.97112" lon="12.51472">
        <ele>64.709826</ele>
        <time>2020-07-15T12:24:04.924Z</time>
      </trkpt>
      <trkpt lat="65.97408" lon="12.52034">
        <ele>98.538993</ele>
        <time>2020-07-15T12:27:10.888Z</time>
      </trkpt>
      <trkpt lat="65.9744" lon="12.52097">
        <ele>98.144831</ele>
        <time>2020-07-15T12:27:21.305Z</time>
      </trkpt>
      <trkpt lat="65.97471" lon="12.52154">
        <ele>97.129902</ele>
        <time>2020-07-15T12:27:27.952Z</time>
      </trkpt>
      <trkpt lat="65.97658" lon="12.52508">
        <ele>86.169469</ele>
        <time>2020-07-15T12:27:55.197Z</time>
      </trkpt>
      <trkpt lat="65.9766" lon="12.52512">
        <ele>86.018183</ele>
        <time>2020-07-15T12:27:55.463Z</time>
      </trkpt>
      <trkpt lat="65.97725" lon="12.52634">
        <ele>82.11819</ele>
        <time>2020-07-15T12:28:05.209Z</time>
      </trkpt>
      <trkpt lat="65.97755" lon="12.52694">
        <ele>81.070313</ele>
        <time>2020-07-15T12:28:10.248Z</time>
      </trkpt>
      <trkpt lat="65.97773" lon="12.52733">
        <ele>80.435404</ele>
        <time>2020-07-15T12:28:13.498Z</time>
      </trkpt>
      <trkpt lat="65.9778" lon="12.5275">
        <ele>80.172198</ele>
        <time>2020-07-15T12:28:14.842Z</time>
      </trkpt>
      <trkpt lat="65.97794" lon="12.52788">
        <ele>79.611487</ele>
        <time>2020-07-15T12:28:17.887Z</time>
      </trkpt>
      <trkpt lat="65.97814" lon="12.52852">
        <ele>78.720672</ele>
        <time>2020-07-15T12:28:22.965Z</time>
      </trkpt>
      <trkpt lat="65.97868" lon="12.53033">
        <ele>77.870316</ele>
        <time>2020-07-15T12:28:39.505Z</time>
      </trkpt>
      <trkpt lat="65.97888" lon="12.53093">
        <ele>77.721908</ele>
        <time>2020-07-15T12:28:44.812Z</time>
      </trkpt>
      <trkpt lat="65.97976" lon="12.53323">
        <ele>77.228351</ele>
        <time>2020-07-15T12:29:05.097Z</time>
      </trkpt>
      <trkpt lat="65.98026" lon="12.53452">
        <ele>77.04964</ele>
        <time>2020-07-15T12:29:17.054Z</time>
      </trkpt>
      <trkpt lat="65.98046" lon="12.53508">
        <ele>76.974124</ele>
        <time>2020-07-15T12:29:22.548Z</time>
      </trkpt>
      <trkpt lat="65.98216" lon="12.54014">
        <ele>80.158498</ele>
        <time>2020-07-15T12:30:19.519Z</time>
      </trkpt>
      <trkpt lat="65.98245" lon="12.54094">
        <ele>81.139935</ele>
        <time>2020-07-15T12:30:30.246Z</time>
      </trkpt>
      <trkpt lat="65.98324" lon="12.5432">
        <ele>83.960207</ele>
        <time>2020-07-15T12:31:04.724Z</time>
      </trkpt>
      <trkpt lat="65.98404" lon="12.54545">
        <ele>86.88502</ele>
        <time>2020-07-15T12:31:36.928Z</time>
      </trkpt>
      <trkpt lat="65.98452" lon="12.54672">
        <ele>85.936162</ele>
        <time>2020-07-15T12:31:49.605Z</time>
      </trkpt>
      <trkpt lat="65.98535" lon="12.54834">
        <ele>83.821732</ele>
        <time>2020-07-15T12:32:03.357Z</time>
      </trkpt>
      <trkpt lat="65.98576" lon="12.54903">
        <ele>82.608871</ele>
        <time>2020-07-15T12:32:09.600Z</time>
      </trkpt>
      <trkpt lat="65.98579" lon="12.54908">
        <ele>82.514657</ele>
        <time>2020-07-15T12:32:10.066Z</time>
      </trkpt>
      <trkpt lat="65.98595" lon="12.54934">
        <ele>82.016505</ele>
        <time>2020-07-15T12:32:12.553Z</time>
      </trkpt>
      <trkpt lat="65.9867" lon="12.5508">
        <ele>79.529739</ele>
        <time>2020-07-15T12:32:25.205Z</time>
      </trkpt>
      <trkpt lat="65.9873" lon="12.55231">
        <ele>79.640301</ele>
        <time>2020-07-15T12:32:40.599Z</time>
      </trkpt>
      <trkpt lat="65.98763" lon="12.55328">
        <ele>80.304067</ele>
        <time>2020-07-15T12:32:51.724Z</time>
      </trkpt>
      <trkpt lat="65.98861" lon="12.55615">
        <ele>84.628458</ele>
        <time>2020-07-15T12:33:33.860Z</time>
      </trkpt>
      <trkpt lat="65.98948" lon="12.55872">
        <ele>90.287475</ele>
        <time>2020-07-15T12:34:20.018Z</time>
      </trkpt>
      <trkpt lat="65.99049" lon="12.56145">
        <ele>96.500765</ele>
        <time>2020-07-15T12:35:09.276Z</time>
      </trkpt>
      <trkpt lat="65.99174" lon="12.56409">
        <ele>97.797857</ele>
        <time>2020-07-15T12:35:42.474Z</time>
      </trkpt>
      <trkpt lat="65.99198" lon="12.56456">
        <ele>96.787521</ele>
        <time>2020-07-15T12:35:46.676Z</time>
      </trkpt>
      <trkpt lat="65.99261" lon="12.5658">
        <ele>93.66103</ele>
        <time>2020-07-15T12:35:56.655Z</time>
      </trkpt>
      <trkpt lat="65.99296" lon="12.5666">
        <ele>91.786497</ele>
        <time>2020-07-15T12:36:02.464Z</time>
      </trkpt>
      <trkpt lat="65.99326" lon="12.56746">
        <ele>90.093828</ele>
        <time>2020-07-15T12:36:08.002Z</time>
      </trkpt>
      <trkpt lat="65.9934" lon="12.56796">
        <ele>89.248875</ele>
        <time>2020-07-15T12:36:11.000Z</time>
      </trkpt>
      <trkpt lat="65.99378" lon="12.56937">
        <ele>86.926164</ele>
        <time>2020-07-15T12:36:19.684Z</time>
      </trkpt>
      <trkpt lat="65.9937" lon="12.56952">
        <ele>86.591825</ele>
        <time>2020-07-15T12:36:21.583Z</time>
      </trkpt>
      <trkpt lat="65.99369" lon="12.56985">
        <ele>86.126047</ele>
        <time>2020-07-15T12:36:24.114Z</time>
      </trkpt>
      <trkpt lat="65.99393" lon="12.57047">
        <ele>84.967146</ele>
        <time>2020-07-15T12:36:30.848Z</time>
      </trkpt>
      <trkpt lat="65.99371" lon="12.57105">
        <ele>84.83254</ele>
        <time>2020-07-15T12:36:37.674Z</time>
      </trkpt>
      <trkpt lat="65.99362" lon="12.57126">
        <ele>84.884866</ele>
        <time>2020-07-15T12:36:40.587Z</time>
      </trkpt>
      <trkpt lat="65.99371" lon="12.57105">
        <ele>84.937192</ele>
        <time>2020-07-15T12:36:44.082Z</time>
      </trkpt>
      <trkpt lat="65.99393" lon="12.57047">
        <ele>85.067002</ele>
        <time>2020-07-15T12:36:52.095Z</time>
      </trkpt>
      <trkpt lat="65.99369" lon="12.56985">
        <ele>85.206528</ele>
        <time>2020-07-15T12:37:00.789Z</time>
      </trkpt>
      <trkpt lat="65.9937" lon="12.56952">
        <ele>85.262605</ele>
        <time>2020-07-15T12:37:04.601Z</time>
      </trkpt>
      <trkpt lat="65.99378" lon="12.56937">
        <ele>85.302858</ele>
        <time>2020-07-15T12:37:07.230Z</time>
      </trkpt>
      <trkpt lat="65.99408" lon="12.57047">
        <ele>85.580397</ele>
        <time>2020-07-15T12:37:19.319Z</time>
      </trkpt>
      <trkpt lat="65.99423" lon="12.57098">
        <ele>85.788498</ele>
        <time>2020-07-15T12:37:25.316Z</time>
      </trkpt>
      <trkpt lat="65.99628" lon="12.57694">
        <ele>87.890739</ele>
        <time>2020-07-15T12:38:28.133Z</time>
      </trkpt>
      <trkpt lat="65.99675" lon="12.57833">
        <ele>87.898045</ele>
        <time>2020-07-15T12:38:41.471Z</time>
      </trkpt>
      <trkpt lat="65.99677" lon="12.57828">
        <ele>87.89783</ele>
        <time>2020-07-15T12:38:42.087Z</time>
      </trkpt>
      <trkpt lat="65.99687" lon="12.57812">
        <ele>87.896922</ele>
        <time>2020-07-15T12:38:44.333Z</time>
      </trkpt>
      <trkpt lat="65.99697" lon="12.57815">
        <ele>87.89618</ele>
        <time>2020-07-15T12:38:46.151Z</time>
      </trkpt>
      <trkpt lat="65.99704" lon="12.5788">
        <ele>87.894142</ele>
        <time>2020-07-15T12:38:51.141Z</time>
      </trkpt>
      <trkpt lat="65.99712" lon="12.57915">
        <ele>87.892884</ele>
        <time>2020-07-15T12:38:54.161Z</time>
      </trkpt>
      <trkpt lat="65.99728" lon="12.57962">
        <ele>87.891015</ele>
        <time>2020-07-15T12:38:58.490Z</time>
      </trkpt>
      <trkpt lat="65.99757" lon="12.58046">
        <ele>87.632002</ele>
        <time>2020-07-15T12:39:06.407Z</time>
      </trkpt>
      <trkpt lat="65.99768" lon="12.58077">
        <ele>87.489319</ele>
        <time>2020-07-15T12:39:09.340Z</time>
      </trkpt>
      <trkpt lat="65.99873" lon="12.58374">
        <ele>85.898456</ele>
        <time>2020-07-15T12:39:35.386Z</time>
      </trkpt>
      <trkpt lat="65.99932" lon="12.58529">
        <ele>84.487789</ele>
        <time>2020-07-15T12:39:47.996Z</time>
      </trkpt>
      <trkpt lat="65.99934" lon="12.58557">
        <ele>84.303821</ele>
        <time>2020-07-15T12:39:49.724Z</time>
      </trkpt>
      <trkpt lat="65.99932" lon="12.58561">
        <ele>84.259616</ele>
        <time>2020-07-15T12:39:50.067Z</time>
      </trkpt>
      <trkpt lat="65.99984" lon="12.58699">
        <ele>83.380886</ele>
        <time>2020-07-15T12:40:01.519Z</time>
      </trkpt>
      <trkpt lat="66.00039" lon="12.5884">
        <ele>83.318954</ele>
        <time>2020-07-15T12:40:14.691Z</time>
      </trkpt>
      <trkpt lat="66.00126" lon="12.59081">
        <ele>82.967119</ele>
        <time>2020-07-15T12:40:41.797Z</time>
      </trkpt>
      <trkpt lat="66.00202" lon="12.59337">
        <ele>82.132374</ele>
        <time>2020-07-15T12:41:03.156Z</time>
      </trkpt>
      <trkpt lat="66.00256" lon="12.59561">
        <ele>77.25509</ele>
        <time>2020-07-15T12:41:16.221Z</time>
      </trkpt>
      <trkpt lat="66.00283" lon="12.59672">
        <ele>74.831724</ele>
        <time>2020-07-15T12:41:22.380Z</time>
      </trkpt>
      <trkpt lat="66.00336" lon="12.59885">
        <ele>70.030396</ele>
        <time>2020-07-15T12:41:34.393Z</time>
      </trkpt>
      <trkpt lat="66.00339" lon="12.59896">
        <ele>69.777538</ele>
        <time>2020-07-15T12:41:35.034Z</time>
      </trkpt>
      <trkpt lat="66.00347" lon="12.59926">
        <ele>69.08404</ele>
        <time>2020-07-15T12:41:36.785Z</time>
      </trkpt>
      <trkpt lat="66.00403" lon="12.60106">
        <ele>65.109782</ele>
        <time>2020-07-15T12:41:48.509Z</time>
      </trkpt>
      <trkpt lat="66.00438" lon="12.60193">
        <ele>64.08458</ele>
        <time>2020-07-15T12:41:55.466Z</time>
      </trkpt>
      <trkpt lat="66.00457" lon="12.60237">
        <ele>63.539258</ele>
        <time>2020-07-15T12:41:59.295Z</time>
      </trkpt>
      <trkpt lat="66.00549" lon="12.60411">
        <ele>61.254053</ele>
        <time>2020-07-15T12:42:16.318Z</time>
      </trkpt>
      <trkpt lat="66.00585" lon="12.60466">
        <ele>60.593206</ele>
        <time>2020-07-15T12:42:22.318Z</time>
      </trkpt>
      <trkpt lat="66.00621" lon="12.60515">
        <ele>59.94045</ele>
        <time>2020-07-15T12:42:28.318Z</time>
      </trkpt>
      <trkpt lat="66.00621" lon="12.60525">
        <ele>59.87946</ele>
        <time>2020-07-15T12:42:28.880Z</time>
      </trkpt>
      <trkpt lat="66.00619" lon="12.60568">
        <ele>59.600102</ele>
        <time>2020-07-15T12:42:31.723Z</time>
      </trkpt>
      <trkpt lat="66.0062" lon="12.60582">
        <ele>59.507326</ele>
        <time>2020-07-15T12:42:32.627Z</time>
      </trkpt>
      <trkpt lat="66.00621" lon="12.60596">
        <ele>59.417164</ele>
        <time>2020-07-15T12:42:33.437Z</time>
      </trkpt>
      <trkpt lat="66.00628" lon="12.60628">
        <ele>59.182812</ele>
        <time>2020-07-15T12:42:35.750Z</time>
      </trkpt>
      <trkpt lat="66.00666" lon="12.60714">
        <ele>58.578786</ele>
        <time>2020-07-15T12:42:43.910Z</time>
      </trkpt>
      <trkpt lat="66.00678" lon="12.60745">
        <ele>58.425544</ele>
        <time>2020-07-15T12:42:46.550Z</time>
      </trkpt>
      <trkpt lat="66.00686" lon="12.60762">
        <ele>58.326435</ele>
        <time>2020-07-15T12:42:48.442Z</time>
      </trkpt>
      <trkpt lat="66.00704" lon="12.60804">
        <ele>58.10205</ele>
        <time>2020-07-15T12:42:52.376Z</time>
      </trkpt>
      <trkpt lat="66.00716" lon="12.60776">
        <ele>57.953418</ele>
        <time>2020-07-15T12:42:55.191Z</time>
      </trkpt>
      <trkpt lat="66.00728" lon="12.60747">
        <ele>57.807997</ele>
        <time>2020-07-15T12:42:57.752Z</time>
      </trkpt>
      <trkpt lat="66.0074" lon="12.60752">
        <ele>57.696179</ele>
        <time>2020-07-15T12:42:59.887Z</time>
      </trkpt>
      <trkpt lat="66.00815" lon="12.6092">
        <ele>57.1081</ele>
        <time>2020-07-15T12:43:17.532Z</time>
      </trkpt>
      <trkpt lat="66.00831" lon="12.60935">
        <ele>57.060852</ele>
        <time>2020-07-15T12:43:20.846Z</time>
      </trkpt>
      <trkpt lat="66.00837" lon="12.6093">
        <ele>57.046138</ele>
        <time>2020-07-15T12:43:21.846Z</time>
      </trkpt>
      <trkpt lat="66.00849" lon="12.60896">
        <ele>56.997562</ele>
        <time>2020-07-15T12:43:25.223Z</time>
      </trkpt>
      <trkpt lat="66.00859" lon="12.60888">
        <ele>56.968781</ele>
        <time>2020-07-15T12:43:27.227Z</time>
      </trkpt>
      <trkpt lat="66.00901" lon="12.60971">
        <ele>56.825911</ele>
        <time>2020-07-15T12:43:36.954Z</time>
      </trkpt>
      <trkpt lat="66.00916" lon="12.60991">
        <ele>56.781974</ele>
        <time>2020-07-15T12:43:39.952Z</time>
      </trkpt>
      <trkpt lat="66.00918" lon="12.60998">
        <ele>56.772392</ele>
        <time>2020-07-15T12:43:40.590Z</time>
      </trkpt>
      <trkpt lat="66.00918" lon="12.61013">
        <ele>56.743961</ele>
        <time>2020-07-15T12:43:41.632Z</time>
      </trkpt>
      <trkpt lat="66.00947" lon="12.61117">
        <ele>56.463493</ele>
        <time>2020-07-15T12:43:50.693Z</time>
      </trkpt>
      <trkpt lat="66.00948" lon="12.61138">
        <ele>56.416065</ele>
        <time>2020-07-15T12:43:52.214Z</time>
      </trkpt>
      <trkpt lat="66.00939" lon="12.6122">
        <ele>56.225774</ele>
        <time>2020-07-15T12:43:58.182Z</time>
      </trkpt>
      <trkpt lat="66.00927" lon="12.61249">
        <ele>56.133376</ele>
        <time>2020-07-15T12:44:00.949Z</time>
      </trkpt>
      <trkpt lat="66.00931" lon="12.61284">
        <ele>56.054</ele>
        <time>2020-07-15T12:44:03.486Z</time>
      </trkpt>
      <trkpt lat="66.00948" lon="12.61374">
        <ele>55.83126</ele>
        <time>2020-07-15T12:44:10.341Z</time>
      </trkpt>
      <trkpt lat="66.00946" lon="12.61386">
        <ele>55.804102</ele>
        <time>2020-07-15T12:44:11.125Z</time>
      </trkpt>
      <trkpt lat="66.00956" lon="12.61415">
        <ele>55.612933</ele>
        <time>2020-07-15T12:44:13.659Z</time>
      </trkpt>
      <trkpt lat="66.00962" lon="12.61426">
        <ele>55.49288</ele>
        <time>2020-07-15T12:44:15.002Z</time>
      </trkpt>
      <trkpt lat="66.00966" lon="12.61439">
        <ele>55.395349</ele>
        <time>2020-07-15T12:44:16.094Z</time>
      </trkpt>
      <trkpt lat="66.00974" lon="12.61459">
        <ele>55.211652</ele>
        <time>2020-07-15T12:44:17.903Z</time>
      </trkpt>
      <trkpt lat="66.0101" lon="12.61546">
        <ele>54.432548</ele>
        <time>2020-07-15T12:44:25.935Z</time>
      </trkpt>
      <trkpt lat="66.01075" lon="12.61669">
        <ele>53.167174</ele>
        <time>2020-07-15T12:44:38.123Z</time>
      </trkpt>
      <trkpt lat="66.01087" lon="12.6169">
        <ele>52.890216</ele>
        <time>2020-07-15T12:44:40.149Z</time>
      </trkpt>
      <trkpt lat="66.011" lon="12.61712">
        <ele>52.445483</ele>
        <time>2020-07-15T12:44:42.530Z</time>
      </trkpt>
      <trkpt lat="66.01126" lon="12.61761">
        <ele>51.51869</ele>
        <time>2020-07-15T12:44:47.290Z</time>
      </trkpt>
      <trkpt lat="66.01135" lon="12.6178">
        <ele>51.190189</ele>
        <time>2020-07-15T12:44:48.995Z</time>
      </trkpt>
      <trkpt lat="66.0114" lon="12.61791">
        <ele>50.992863</ele>
        <time>2020-07-15T12:44:49.906Z</time>
      </trkpt>
      <trkpt lat="66.0119" lon="12.6194">
        <ele>48.775953</ele>
        <time>2020-07-15T12:45:00.821Z</time>
      </trkpt>
      <trkpt lat="66.0123" lon="12.61995">
        <ele>47.153551</ele>
        <time>2020-07-15T12:45:07.021Z</time>
      </trkpt>
      <trkpt lat="66.01251" lon="12.62037">
        <ele>45.778244</ele>
        <time>2020-07-15T12:45:10.784Z</time>
      </trkpt>
      <trkpt lat="66.0126" lon="12.6205">
        <ele>45.255959</ele>
        <time>2020-07-15T12:45:12.126Z</time>
      </trkpt>
      <trkpt lat="66.01264" lon="12.62045">
        <ele>45.037499</ele>
        <time>2020-07-15T12:45:12.744Z</time>
      </trkpt>
      <trkpt lat="66.01285" lon="12.62019">
        <ele>43.867251</ele>
        <time>2020-07-15T12:45:15.963Z</time>
      </trkpt>
      <trkpt lat="66.01314" lon="12.62105">
        <ele>41.572439</ele>
        <time>2020-07-15T12:45:21.350Z</time>
      </trkpt>
      <trkpt lat="66.01328" lon="12.62146">
        <ele>40.468713</ele>
        <time>2020-07-15T12:45:24.018Z</time>
      </trkpt>
      <trkpt lat="66.01365" lon="12.62244">
        <ele>37.193528</ele>
        <time>2020-07-15T12:45:30.171Z</time>
      </trkpt>
      <trkpt lat="66.01375" lon="12.62268">
        <ele>36.191476</ele>
        <time>2020-07-15T12:45:31.752Z</time>
      </trkpt>
      <trkpt lat="66.01399" lon="12.6233">
        <ele>33.583082</ele>
        <time>2020-07-15T12:45:35.727Z</time>
      </trkpt>
      <trkpt lat="66.01412" lon="12.62363">
        <ele>32.207338</ele>
        <time>2020-07-15T12:45:37.768Z</time>
      </trkpt>
      <trkpt lat="66.01475" lon="12.62525">
        <ele>25.40341</ele>
        <time>2020-07-15T12:45:48.115Z</time>
      </trkpt>
      <trkpt lat="66.01571" lon="12.62762">
        <ele>17.219918</ele>
        <time>2020-07-15T12:46:04.043Z</time>
      </trkpt>
      <trkpt lat="66.01652" lon="12.62921">
        <ele>12.52231</ele>
        <time>2020-07-15T12:46:16.645Z</time>
      </trkpt>
      <trkpt lat="66.0166" lon="12.62937">
        <ele>12.156614</ele>
        <time>2020-07-15T12:46:17.920Z</time>
      </trkpt>
      <trkpt lat="66.01707" lon="12.63018">
        <ele>10.200682</ele>
        <time>2020-07-15T12:46:25.243Z</time>
      </trkpt>
      <trkpt lat="66.01707" lon="12.63019">
        <ele>10.180873</ele>
        <time>2020-07-15T12:46:25.299Z</time>
      </trkpt>
      <trkpt lat="66.0175" lon="12.63096">
        <ele>8.477354</ele>
        <time>2020-07-15T12:46:33.171Z</time>
      </trkpt>
      <trkpt lat="66.01755" lon="12.6311">
        <ele>8.641367</ele>
        <time>2020-07-15T12:46:34.416Z</time>
      </trkpt>
      <trkpt lat="66.01769" lon="12.63151">
        <ele>9.102206</ele>
        <time>2020-07-15T12:46:37.736Z</time>
      </trkpt>
      <trkpt lat="66.01772" lon="12.63182">
        <ele>9.382771</ele>
        <time>2020-07-15T12:46:40.221Z</time>
      </trkpt>
      <trkpt lat="66.01772" lon="12.63185">
        <ele>9.410305</ele>
        <time>2020-07-15T12:46:40.412Z</time>
      </trkpt>
      <trkpt lat="66.01772" lon="12.63192">
        <ele>9.467323</ele>
        <time>2020-07-15T12:46:40.855Z</time>
      </trkpt>
      <trkpt lat="66.01771" lon="12.632">
        <ele>9.548923</ele>
        <time>2020-07-15T12:46:41.858Z</time>
      </trkpt>
      <trkpt lat="66.0176" lon="12.63291">
        <ele>10.37755</ele>
        <time>2020-07-15T12:46:50.168Z</time>
      </trkpt>
      <trkpt lat="66.0176" lon="12.63303">
        <ele>10.482157</ele>
        <time>2020-07-15T12:46:51.053Z</time>
      </trkpt>
      <trkpt lat="66.01758" lon="12.63328">
        <ele>10.698629</ele>
        <time>2020-07-15T12:46:53.375Z</time>
      </trkpt>
      <trkpt lat="66.01755" lon="12.6335">
        <ele>10.901059</ele>
        <time>2020-07-15T12:46:56.284Z</time>
      </trkpt>
      <trkpt lat="66.01725" lon="12.63541">
        <ele>13.452334</ele>
        <time>2020-07-15T12:47:23.806Z</time>
      </trkpt>
      <trkpt lat="66.01713" lon="12.63586">
        <ele>14.845463</ele>
        <time>2020-07-15T12:47:32.698Z</time>
      </trkpt>
      <trkpt lat="66.01685" lon="12.63691">
        <ele>18.062623</ele>
        <time>2020-07-15T12:47:52.915Z</time>
      </trkpt>
      <trkpt lat="66.01672" lon="12.63745">
        <ele>19.693633</ele>
        <time>2020-07-15T12:48:02.330Z</time>
      </trkpt>
      <trkpt lat="66.01664" lon="12.63777">
        <ele>20.660936</ele>
        <time>2020-07-15T12:48:08.574Z</time>
      </trkpt>
      <trkpt lat="66.01654" lon="12.63831">
        <ele>22.193508</ele>
        <time>2020-07-15T12:48:18.107Z</time>
      </trkpt>
      <trkpt lat="66.0165" lon="12.63858">
        <ele>22.926956</ele>
        <time>2020-07-15T12:48:22.863Z</time>
      </trkpt>
      <trkpt lat="66.01645" lon="12.63837">
        <ele>23.555271</ele>
        <time>2020-07-15T12:48:27.640Z</time>
      </trkpt>
      <trkpt lat="66.0164" lon="12.63881">
        <ele>24.673674</ele>
        <time>2020-07-15T12:48:35.362Z</time>
      </trkpt>
      <trkpt lat="66.01635" lon="12.63947">
        <ele>26.317753</ele>
        <time>2020-07-15T12:48:46.087Z</time>
      </trkpt>
      <trkpt lat="66.0163" lon="12.64075">
        <ele>29.455539</ele>
        <time>2020-07-15T12:49:08.159Z</time>
      </trkpt>
      <trkpt lat="66.01627" lon="12.64124">
        <ele>30.647331</ele>
        <time>2020-07-15T12:49:15.307Z</time>
      </trkpt>
      <trkpt lat="66.01618" lon="12.64326">
        <ele>34.848466</ele>
        <time>2020-07-15T12:49:43.837Z</time>
      </trkpt>
      <trkpt lat="66.01618" lon="12.64345">
        <ele>35.006939</ele>
        <time>2020-07-15T12:49:47.216Z</time>
      </trkpt>
      <trkpt lat="66.01627" lon="12.64347">
        <ele>35.185755</ele>
        <time>2020-07-15T12:49:49.543Z</time>
      </trkpt>
      <trkpt lat="66.01625" lon="12.6437">
        <ele>35.373821</ele>
        <time>2020-07-15T12:49:52.291Z</time>
      </trkpt>
      <trkpt lat="66.0162" lon="12.64514">
        <ele>36.553077</ele>
        <time>2020-07-15T12:50:07.471Z</time>
      </trkpt>
      <trkpt lat="66.01617" lon="12.64607">
        <ele>37.317176</ele>
        <time>2020-07-15T12:50:15.103Z</time>
      </trkpt>
      <trkpt lat="66.01616" lon="12.64621">
        <ele>37.427208</ele>
        <time>2020-07-15T12:50:15.918Z</time>
      </trkpt>
      <trkpt lat="66.01618" lon="12.64679">
        <ele>37.902338</ele>
        <time>2020-07-15T12:50:20.929Z</time>
      </trkpt>
      <trkpt lat="66.01631" lon="12.64803">
        <ele>37.694611</ele>
        <time>2020-07-15T12:50:28.586Z</time>
      </trkpt>
      <trkpt lat="66.0166" lon="12.65071">
        <ele>36.703885</ele>
        <time>2020-07-15T12:50:45.318Z</time>
      </trkpt>
      <trkpt lat="66.01675" lon="12.65206">
        <ele>37.17673</ele>
        <time>2020-07-15T12:50:55.405Z</time>
      </trkpt>
      <trkpt lat="66.01678" lon="12.65237">
        <ele>37.4494</ele>
        <time>2020-07-15T12:50:58.051Z</time>
      </trkpt>
      <trkpt lat="66.01697" lon="12.65411">
        <ele>38.955325</ele>
        <time>2020-07-15T12:51:15.318Z</time>
      </trkpt>
      <trkpt lat="66.01721" lon="12.65581">
        <ele>40.828366</ele>
        <time>2020-07-15T12:51:37.442Z</time>
      </trkpt>
      <trkpt lat="66.01756" lon="12.65747">
        <ele>44.544453</ele>
        <time>2020-07-15T12:52:03.865Z</time>
      </trkpt>
      <trkpt lat="66.01842" lon="12.66093">
        <ele>49.683414</ele>
        <time>2020-07-15T12:53:00.103Z</time>
      </trkpt>
      <trkpt lat="66.01877" lon="12.66233">
        <ele>50.280926</ele>
        <time>2020-07-15T12:53:13.854Z</time>
      </trkpt>
      <trkpt lat="66.02003" lon="12.66738">
        <ele>39.171512</ele>
        <time>2020-07-15T12:53:42.429Z</time>
      </trkpt>
      <trkpt lat="66.02079" lon="12.67045">
        <ele>29.694888</ele>
        <time>2020-07-15T12:53:59.179Z</time>
      </trkpt>
      <trkpt lat="66.02137" lon="12.67276">
        <ele>24.960886</ele>
        <time>2020-07-15T12:54:12.659Z</time>
      </trkpt>
      <trkpt lat="66.0219" lon="12.67491">
        <ele>21.189218</ele>
        <time>2020-07-15T12:54:26.352Z</time>
      </trkpt>
      <trkpt lat="66.02267" lon="12.67826">
        <ele>17.468199</ele>
        <time>2020-07-15T12:54:48.679Z</time>
      </trkpt>
      <trkpt lat="66.02335" lon="12.68183">
        <ele>10.999416</ele>
        <time>2020-07-15T12:55:08.715Z</time>
      </trkpt>
      <trkpt lat="66.02358" lon="12.68307">
        <ele>8.735772</ele>
        <time>2020-07-15T12:55:15.445Z</time>
      </trkpt>
      <trkpt lat="66.02379" lon="12.6842">
        <ele>6.695546</ele>
        <time>2020-07-15T12:55:21.589Z</time>
      </trkpt>
      <trkpt lat="66.024" lon="12.68536">
        <ele>4.589793</ele>
        <time>2020-07-15T12:55:28.059Z</time>
      </trkpt>
      <trkpt lat="66.02428" lon="12.68699">
        <ele>2.463544</ele>
        <time>2020-07-15T12:55:37.525Z</time>
      </trkpt>
      <trkpt lat="66.02433" lon="12.68731">
        <ele>2.310127</ele>
        <time>2020-07-15T12:55:39.462Z</time>
      </trkpt>
      <trkpt lat="66.02443" lon="12.68817">
        <ele>1.90226</ele>
        <time>2020-07-15T12:55:45.084Z</time>
      </trkpt>
      <trkpt lat="66.02481" lon="12.69203">
        <ele>0.702169</ele>
        <time>2020-07-15T12:56:12.749Z</time>
      </trkpt>
      <trkpt lat="66.02511" lon="12.69335">
        <ele>0.650254</ele>
        <time>2020-07-15T12:56:23.690Z</time>
      </trkpt>
      <trkpt lat="66.02542" lon="12.69409">
        <ele>0.61372</ele>
        <time>2020-07-15T12:56:31.386Z</time>
      </trkpt>
      <trkpt lat="66.02581" lon="12.69463">
        <ele>0.571103</ele>
        <time>2020-07-15T12:56:39.494Z</time>
      </trkpt>
      <trkpt lat="66.02629" lon="12.69492">
        <ele>0.522729</ele>
        <time>2020-07-15T12:56:48.166Z</time>
      </trkpt>
      <trkpt lat="66.02745" lon="12.69479">
        <ele>0.400103</ele>
        <time>2020-07-15T12:57:08.479Z</time>
      </trkpt>
      <trkpt lat="66.02789" lon="12.69497">
        <ele>0.332135</ele>
        <time>2020-07-15T12:57:16.059Z</time>
      </trkpt>
      <trkpt lat="66.02827" lon="12.69537">
        <ele>0.267695</ele>
        <time>2020-07-15T12:57:23.279Z</time>
      </trkpt>
      <trkpt lat="66.02851" lon="12.69577">
        <ele>0.22308</ele>
        <time>2020-07-15T12:57:28.283Z</time>
      </trkpt>
      <trkpt lat="66.02878" lon="12.69642">
        <ele>0.164446</ele>
        <time>2020-07-15T12:57:34.889Z</time>
      </trkpt>
      <trkpt lat="66.02906" lon="12.69736">
        <ele>0.122813</ele>
        <time>2020-07-15T12:57:43.110Z</time>
      </trkpt>
      <trkpt lat="66.0292" lon="12.69794">
        <ele>0.105493</ele>
        <time>2020-07-15T12:57:47.929Z</time>
      </trkpt>
      <trkpt lat="66.02998" lon="12.70148">
        <ele>0.02325</ele>
        <time>2020-07-15T12:58:16.898Z</time>
      </trkpt>
      <trkpt lat="66.03144" lon="12.70822">
        <ele>2.3</ele>
        <time>2020-07-15T12:59:12.353Z</time>
      </trkpt>
      <trkpt lat="66.0324" lon="12.71267">
        <ele>1.8</ele>
        <time>2020-07-15T12:59:48.892Z</time>
      </trkpt>
      <trkpt lat="66.03259" lon="12.71388">
        <ele>1.7</ele>
        <time>2020-07-15T12:59:58.305Z</time>
      </trkpt>
      <trkpt lat="66.0327" lon="12.71482">
        <ele>2</ele>
        <time>2020-07-15T13:00:05.430Z</time>
      </trkpt>
      <trkpt lat="66.03277" lon="12.71609">
        <ele>4</ele>
        <time>2020-07-15T13:00:14.665Z</time>
      </trkpt>
      <trkpt lat="66.03278" lon="12.71919">
        <ele>7.9</ele>
        <time>2020-07-15T13:00:37.198Z</time>
      </trkpt>
      <trkpt lat="66.03284" lon="12.71976">
        <ele>7.8</ele>
        <time>2020-07-15T13:00:41.482Z</time>
      </trkpt>
      <trkpt lat="66.033" lon="12.72054">
        <ele>9.9</ele>
        <time>2020-07-15T13:00:47.829Z</time>
      </trkpt>
      <trkpt lat="66.03309" lon="12.72083">
        <ele>10.1</ele>
        <time>2020-07-15T13:00:50.495Z</time>
      </trkpt>
      <trkpt lat="66.03321" lon="12.72111">
        <ele>5.8</ele>
        <time>2020-07-15T13:00:53.365Z</time>
      </trkpt>
      <trkpt lat="66.03346" lon="12.72158">
        <ele>1.7</ele>
        <time>2020-07-15T13:00:58.983Z</time>
      </trkpt>
      <trkpt lat="66.03378" lon="12.72192">
        <ele>1</ele>
        <time>2020-07-15T13:01:05.172Z</time>
      </trkpt>
      <trkpt lat="66.0341" lon="12.72207">
        <ele>1</ele>
        <time>2020-07-15T13:01:11.010Z</time>
      </trkpt>
      <trkpt lat="66.0344" lon="12.72204">
        <ele>1</ele>
        <time>2020-07-15T13:01:16.399Z</time>
      </trkpt>
      <trkpt lat="66.03454" lon="12.72198">
        <ele>1</ele>
        <time>2020-07-15T13:01:18.928Z</time>
      </trkpt>
      <trkpt lat="66.03783" lon="12.72027">
        <ele>0.045459</ele>
        <time>2020-07-15T13:02:18.998Z</time>
      </trkpt>
      <trkpt lat="66.03938" lon="12.71946">
        <ele>1.572785</ele>
        <time>2020-07-15T13:02:47.775Z</time>
      </trkpt>
      <trkpt lat="66.04152" lon="12.71833">
        <ele>10.166726</ele>
        <time>2020-07-15T13:03:51.032Z</time>
      </trkpt>
      <trkpt lat="66.04169" lon="12.71825">
        <ele>10.997145</ele>
        <time>2020-07-15T13:03:59.628Z</time>
      </trkpt>
      <trkpt lat="66.04198" lon="12.71815">
        <ele>14.02084</ele>
        <time>2020-07-15T13:04:16.608Z</time>
      </trkpt>
      <trkpt lat="66.04241" lon="12.71819">
        <ele>18.639797</ele>
        <time>2020-07-15T13:04:40.611Z</time>
      </trkpt>
      <trkpt lat="66.04276" lon="12.71836">
        <ele>22.487245</ele>
        <time>2020-07-15T13:05:01.077Z</time>
      </trkpt>
      <trkpt lat="66.04309" lon="12.71873">
        <ele>26.35925</ele>
        <time>2020-07-15T13:05:21.836Z</time>
      </trkpt>
      <trkpt lat="66.04313" lon="12.71878">
        <ele>26.850604</ele>
        <time>2020-07-15T13:05:26.035Z</time>
      </trkpt>
      <trkpt lat="66.04319" lon="12.71887">
        <ele>27.65796</ele>
        <time>2020-07-15T13:05:30.149Z</time>
      </trkpt>
      <trkpt lat="66.04368" lon="12.71986">
        <ele>31.893863</ele>
        <time>2020-07-15T13:05:57.346Z</time>
      </trkpt>
      <trkpt lat="66.04398" lon="12.72098">
        <ele>33.943242</ele>
        <time>2020-07-15T13:06:18.573Z</time>
      </trkpt>
      <trkpt lat="66.04529" lon="12.72915">
        <ele>35.970053</ele>
        <time>2020-07-15T13:07:16.780Z</time>
      </trkpt>
      <trkpt lat="66.04554" lon="12.73027">
        <ele>35.825295</ele>
        <time>2020-07-15T13:07:25.314Z</time>
      </trkpt>
      <trkpt lat="66.04589" lon="12.7314">
        <ele>35.689279</ele>
        <time>2020-07-15T13:07:36.391Z</time>
      </trkpt>
      <trkpt lat="66.04598" lon="12.73162">
        <ele>35.673459</ele>
        <time>2020-07-15T13:07:38.941Z</time>
      </trkpt>
      <trkpt lat="66.04613" lon="12.73195">
        <ele>35.648863</ele>
        <time>2020-07-15T13:07:42.757Z</time>
      </trkpt>
      <trkpt lat="66.04622" lon="12.73213">
        <ele>35.634157</ele>
        <time>2020-07-15T13:07:44.984Z</time>
      </trkpt>
      <trkpt lat="66.04646" lon="12.73257">
        <ele>35.596429</ele>
        <time>2020-07-15T13:07:50.624Z</time>
      </trkpt>
      <trkpt lat="66.0466" lon="12.73278">
        <ele>35.576132</ele>
        <time>2020-07-15T13:07:53.940Z</time>
      </trkpt>
      <trkpt lat="66.04712" lon="12.7334">
        <ele>35.502857</ele>
        <time>2020-07-15T13:08:04.333Z</time>
      </trkpt>
      <trkpt lat="66.04852" lon="12.73414">
        <ele>31.910653</ele>
        <time>2020-07-15T13:08:24.238Z</time>
      </trkpt>
      <trkpt lat="66.04925" lon="12.73486">
        <ele>29.548776</ele>
        <time>2020-07-15T13:08:33.826Z</time>
      </trkpt>
      <trkpt lat="66.04957" lon="12.73537">
        <ele>28.232114</ele>
        <time>2020-07-15T13:08:38.554Z</time>
      </trkpt>
      <trkpt lat="66.04998" lon="12.73626">
        <ele>26.372011</ele>
        <time>2020-07-15T13:08:45.434Z</time>
      </trkpt>
      <trkpt lat="66.05032" lon="12.73728">
        <ele>24.553021</ele>
        <time>2020-07-15T13:08:52.750Z</time>
      </trkpt>
      <trkpt lat="66.05062" lon="12.7385">
        <ele>24.602742</ele>
        <time>2020-07-15T13:09:02.236Z</time>
      </trkpt>
      <trkpt lat="66.05127" lon="12.74149">
        <ele>25.339404</ele>
        <time>2020-07-15T13:09:32.219Z</time>
      </trkpt>
      <trkpt lat="66.0513" lon="12.74161">
        <ele>25.415811</ele>
        <time>2020-07-15T13:09:33.446Z</time>
      </trkpt>
      <trkpt lat="66.05174" lon="12.74366">
        <ele>26.757642</ele>
        <time>2020-07-15T13:09:54.196Z</time>
      </trkpt>
      <trkpt lat="66.05188" lon="12.7444">
        <ele>27.230309</ele>
        <time>2020-07-15T13:10:01.179Z</time>
      </trkpt>
      <trkpt lat="66.05224" lon="12.7462">
        <ele>29.381937</ele>
        <time>2020-07-15T13:10:20.470Z</time>
      </trkpt>
      <trkpt lat="66.05246" lon="12.74774">
        <ele>31.827518</ele>
        <time>2020-07-15T13:10:39.941Z</time>
      </trkpt>
      <trkpt lat="66.05276" lon="12.75011">
        <ele>35.757275</ele>
        <time>2020-07-15T13:11:14.421Z</time>
      </trkpt>
      <trkpt lat="66.05281" lon="12.75055">
        <ele>36.577922</ele>
        <time>2020-07-15T13:11:21.417Z</time>
      </trkpt>
      <trkpt lat="66.05288" lon="12.75096">
        <ele>37.35738</ele>
        <time>2020-07-15T13:11:26.960Z</time>
      </trkpt>
      <trkpt lat="66.05293" lon="12.75127">
        <ele>37.969673</ele>
        <time>2020-07-15T13:11:32.245Z</time>
      </trkpt>
      <trkpt lat="66.05314" lon="12.75232">
        <ele>40.057511</ele>
        <time>2020-07-15T13:11:47.727Z</time>
      </trkpt>
      <trkpt lat="66.05369" lon="12.75494">
        <ele>43.348781</ele>
        <time>2020-07-15T13:12:20.225Z</time>
      </trkpt>
      <trkpt lat="66.05407" lon="12.75667">
        <ele>44.573226</ele>
        <time>2020-07-15T13:12:37.159Z</time>
      </trkpt>
      <trkpt lat="66.05447" lon="12.75857">
        <ele>44.158039</ele>
        <time>2020-07-15T13:12:52.591Z</time>
      </trkpt>
      <trkpt lat="66.05481" lon="12.76016">
        <ele>43.001113</ele>
        <time>2020-07-15T13:13:03.375Z</time>
      </trkpt>
      <trkpt lat="66.05504" lon="12.76139">
        <ele>42.010972</ele>
        <time>2020-07-15T13:13:10.699Z</time>
      </trkpt>
      <trkpt lat="66.05543" lon="12.76392">
        <ele>37.392609</ele>
        <time>2020-07-15T13:13:24.130Z</time>
      </trkpt>
      <trkpt lat="66.05561" lon="12.76514">
        <ele>35.181714</ele>
        <time>2020-07-15T13:13:30.569Z</time>
      </trkpt>
      <trkpt lat="66.05584" lon="12.76657">
        <ele>34.061991</ele>
        <time>2020-07-15T13:13:38.693Z</time>
      </trkpt>
      <trkpt lat="66.05599" lon="12.7675">
        <ele>33.600177</ele>
        <time>2020-07-15T13:13:44.294Z</time>
      </trkpt>
      <trkpt lat="66.05609" lon="12.76804">
        <ele>33.324181</ele>
        <time>2020-07-15T13:13:47.787Z</time>
      </trkpt>
      <trkpt lat="66.0561" lon="12.76806">
        <ele>33.313873</ele>
        <time>2020-07-15T13:13:48.380Z</time>
      </trkpt>
      <trkpt lat="66.05662" lon="12.77042">
        <ele>33.766821</ele>
        <time>2020-07-15T13:14:13.028Z</time>
      </trkpt>
      <trkpt lat="66.05754" lon="12.77527">
        <ele>38.58364</ele>
        <time>2020-07-15T13:15:14.051Z</time>
      </trkpt>
      <trkpt lat="66.05804" lon="12.77867">
        <ele>39.928337</ele>
        <time>2020-07-15T13:15:40.642Z</time>
      </trkpt>
      <trkpt lat="66.05819" lon="12.77948">
        <ele>39.865158</ele>
        <time>2020-07-15T13:15:46.168Z</time>
      </trkpt>
      <trkpt lat="66.05852" lon="12.78095">
        <ele>39.748263</ele>
        <time>2020-07-15T13:15:57.331Z</time>
      </trkpt>
      <trkpt lat="66.05889" lon="12.78256">
        <ele>40.304075</ele>
        <time>2020-07-15T13:16:12.447Z</time>
      </trkpt>
      <trkpt lat="66.0592" lon="12.78406">
        <ele>41.159771</ele>
        <time>2020-07-15T13:16:27.921Z</time>
      </trkpt>
      <trkpt lat="66.05937" lon="12.78527">
        <ele>41.813637</ele>
        <time>2020-07-15T13:16:42.135Z</time>
      </trkpt>
      <trkpt lat="66.05991" lon="12.79118">
        <ele>42.000635</ele>
        <time>2020-07-15T13:17:26.734Z</time>
      </trkpt>
      <trkpt lat="66.06004" lon="12.79257">
        <ele>41.490734</ele>
        <time>2020-07-15T13:17:34.851Z</time>
      </trkpt>
      <trkpt lat="66.06016" lon="12.79377">
        <ele>41.045677</ele>
        <time>2020-07-15T13:17:42.553Z</time>
      </trkpt>
      <trkpt lat="66.06043" lon="12.7958">
        <ele>42.309196</ele>
        <time>2020-07-15T13:17:56.464Z</time>
      </trkpt>
      <trkpt lat="66.06171" lon="12.80263">
        <ele>52.430512</ele>
        <time>2020-07-15T13:19:28.884Z</time>
      </trkpt>
      <trkpt lat="66.06203" lon="12.80468">
        <ele>56.215295</ele>
        <time>2020-07-15T13:20:00.765Z</time>
      </trkpt>
      <trkpt lat="66.06213" lon="12.80543">
        <ele>57.561226</ele>
        <time>2020-07-15T13:20:11.362Z</time>
      </trkpt>
      <trkpt lat="66.06278" lon="12.81105">
        <ele>63.74551</ele>
        <time>2020-07-15T13:21:10.619Z</time>
      </trkpt>
      <trkpt lat="66.06308" lon="12.81354">
        <ele>65.309746</ele>
        <time>2020-07-15T13:21:35.819Z</time>
      </trkpt>
      <trkpt lat="66.06317" lon="12.81426">
        <ele>65.764286</ele>
        <time>2020-07-15T13:21:43.341Z</time>
      </trkpt>
      <trkpt lat="66.06369" lon="12.81727">
        <ele>64.027554</ele>
        <time>2020-07-15T13:22:06.161Z</time>
      </trkpt>
      <trkpt lat="66.06393" lon="12.8186">
        <ele>62.759155</ele>
        <time>2020-07-15T13:22:13.588Z</time>
      </trkpt>
      <trkpt lat="66.06443" lon="12.82137">
        <ele>56.197774</ele>
        <time>2020-07-15T13:22:28.050Z</time>
      </trkpt>
      <trkpt lat="66.06526" lon="12.82545">
        <ele>47.60831</ele>
        <time>2020-07-15T13:22:49.863Z</time>
      </trkpt>
      <trkpt lat="66.06552" lon="12.82901">
        <ele>45.412237</ele>
        <time>2020-07-15T13:23:15.103Z</time>
      </trkpt>
      <trkpt lat="66.06567" lon="12.83179">
        <ele>45.98472</ele>
        <time>2020-07-15T13:23:40.389Z</time>
      </trkpt>
      <trkpt lat="66.06578" lon="12.83376">
        <ele>45.932187</ele>
        <time>2020-07-15T13:23:56.046Z</time>
      </trkpt>
      <trkpt lat="66.0661" lon="12.83819">
        <ele>45.320429</ele>
        <time>2020-07-15T13:24:24.669Z</time>
      </trkpt>
      <trkpt lat="66.06637" lon="12.84141">
        <ele>44.156244</ele>
        <time>2020-07-15T13:24:47.738Z</time>
      </trkpt>
      <trkpt lat="66.06652" lon="12.84327">
        <ele>43.093834</ele>
        <time>2020-07-15T13:24:59.376Z</time>
      </trkpt>
      <trkpt lat="66.06671" lon="12.84593">
        <ele>41.769177</ele>
        <time>2020-07-15T13:25:14.170Z</time>
      </trkpt>
      <trkpt lat="66.0668" lon="12.84704">
        <ele>41.294375</ele>
        <time>2020-07-15T13:25:20.872Z</time>
      </trkpt>
      <trkpt lat="66.0669" lon="12.84842">
        <ele>40.711224</ele>
        <time>2020-07-15T13:25:30.400Z</time>
      </trkpt>
      <trkpt lat="66.06695" lon="12.84912">
        <ele>40.589416</ele>
        <time>2020-07-15T13:25:35.982Z</time>
      </trkpt>
      <trkpt lat="66.06713" lon="12.85157">
        <ele>42.586826</ele>
        <time>2020-07-15T13:26:00.230Z</time>
      </trkpt>
      <trkpt lat="66.06755" lon="12.8577">
        <ele>48.671567</ele>
        <time>2020-07-15T13:27:07.529Z</time>
      </trkpt>
      <trkpt lat="66.06812" lon="12.86457">
        <ele>52.480856</ele>
        <time>2020-07-15T13:28:10.383Z</time>
      </trkpt>
      <trkpt lat="66.0683" lon="12.86682">
        <ele>53.400427</ele>
        <time>2020-07-15T13:28:28.951Z</time>
      </trkpt>
      <trkpt lat="66.06834" lon="12.86747">
        <ele>53.617553</ele>
        <time>2020-07-15T13:28:34.257Z</time>
      </trkpt>
      <trkpt lat="66.06837" lon="12.86811">
        <ele>53.830447</ele>
        <time>2020-07-15T13:28:39.383Z</time>
      </trkpt>
      <trkpt lat="66.06838" lon="12.86835">
        <ele>53.909928</ele>
        <time>2020-07-15T13:28:41.370Z</time>
      </trkpt>
      <trkpt lat="66.06838" lon="12.86979">
        <ele>54.382942</ele>
        <time>2020-07-15T13:28:52.925Z</time>
      </trkpt>
      <trkpt lat="66.06833" lon="12.87461">
        <ele>57.059418</ele>
        <time>2020-07-15T13:29:36.522Z</time>
      </trkpt>
      <trkpt lat="66.06831" lon="12.87572">
        <ele>57.828539</ele>
        <time>2020-07-15T13:29:47.625Z</time>
      </trkpt>
      <trkpt lat="66.06828" lon="12.8789">
        <ele>60.363762</ele>
        <time>2020-07-15T13:30:19.512Z</time>
      </trkpt>
      <trkpt lat="66.06824" lon="12.88187">
        <ele>62.105771</ele>
        <time>2020-07-15T13:30:47.407Z</time>
      </trkpt>
      <trkpt lat="66.06823" lon="12.88224">
        <ele>62.294775</ele>
        <time>2020-07-15T13:30:50.684Z</time>
      </trkpt>
      <trkpt lat="66.06822" lon="12.88351">
        <ele>62.944297</ele>
        <time>2020-07-15T13:31:01.577Z</time>
      </trkpt>
      <trkpt lat="66.06822" lon="12.88442">
        <ele>63.238604</ele>
        <time>2020-07-15T13:31:09.174Z</time>
      </trkpt>
      <trkpt lat="66.06823" lon="12.88755">
        <ele>63.047618</ele>
        <time>2020-07-15T13:31:32.164Z</time>
      </trkpt>
      <trkpt lat="66.06824" lon="12.89293">
        <ele>60.652555</ele>
        <time>2020-07-15T13:32:04.919Z</time>
      </trkpt>
      <trkpt lat="66.06824" lon="12.89303">
        <ele>60.591835</ele>
        <time>2020-07-15T13:32:05.477Z</time>
      </trkpt>
      <trkpt lat="66.06825" lon="12.89516">
        <ele>59.094451</ele>
        <time>2020-07-15T13:32:17.845Z</time>
      </trkpt>
      <trkpt lat="66.06825" lon="12.89613">
        <ele>58.40594</ele>
        <time>2020-07-15T13:32:23.515Z</time>
      </trkpt>
      <trkpt lat="66.06825" lon="12.89722">
        <ele>57.643518</ele>
        <time>2020-07-15T13:32:29.817Z</time>
      </trkpt>
      <trkpt lat="66.06822" lon="12.89871">
        <ele>56.708974</ele>
        <time>2020-07-15T13:32:38.716Z</time>
      </trkpt>
      <trkpt lat="66.06819" lon="12.89919">
        <ele>56.418786</ele>
        <time>2020-07-15T13:32:41.496Z</time>
      </trkpt>
      <trkpt lat="66.06809" lon="12.90125">
        <ele>55.153562</ele>
        <time>2020-07-15T13:32:54.014Z</time>
      </trkpt>
      <trkpt lat="66.06798" lon="12.90343">
        <ele>54.072364</ele>
        <time>2020-07-15T13:33:07.356Z</time>
      </trkpt>
      <trkpt lat="66.06784" lon="12.9063">
        <ele>52.79771</ele>
        <time>2020-07-15T13:33:25.565Z</time>
      </trkpt>
      <trkpt lat="66.06776" lon="12.90777">
        <ele>52.493455</ele>
        <time>2020-07-15T13:33:35.262Z</time>
      </trkpt>
      <trkpt lat="66.06749" lon="12.91285">
        <ele>51.693147</ele>
        <time>2020-07-15T13:34:10.402Z</time>
      </trkpt>
      <trkpt lat="66.06729" lon="12.9168">
        <ele>51.079247</ele>
        <time>2020-07-15T13:34:38.597Z</time>
      </trkpt>
      <trkpt lat="66.06709" lon="12.92079">
        <ele>48.801891</ele>
        <time>2020-07-15T13:35:04.578Z</time>
      </trkpt>
      <trkpt lat="66.06708" lon="12.92097">
        <ele>48.586435</ele>
        <time>2020-07-15T13:35:05.549Z</time>
      </trkpt>
      <trkpt lat="66.06701" lon="12.92224">
        <ele>47.02934</ele>
        <time>2020-07-15T13:35:12.482Z</time>
      </trkpt>
      <trkpt lat="66.06693" lon="12.92369">
        <ele>45.255999</ele>
        <time>2020-07-15T13:35:19.876Z</time>
      </trkpt>
      <trkpt lat="66.06652" lon="12.92905">
        <ele>31.666061</ele>
        <time>2020-07-15T13:35:45.647Z</time>
      </trkpt>
      <trkpt lat="66.0664" lon="12.93009">
        <ele>28.871156</ele>
        <time>2020-07-15T13:35:50.703Z</time>
      </trkpt>
      <trkpt lat="66.06617" lon="12.93133">
        <ele>25.382502</ele>
        <time>2020-07-15T13:35:57.159Z</time>
      </trkpt>
      <trkpt lat="66.06589" lon="12.93263">
        <ele>21.8652</ele>
        <time>2020-07-15T13:36:04.151Z</time>
      </trkpt>
      <trkpt lat="66.06582" lon="12.93255">
        <ele>21.49237</ele>
        <time>2020-07-15T13:36:05.172Z</time>
      </trkpt>
      <trkpt lat="66.0658" lon="12.93268">
        <ele>21.213164</ele>
        <time>2020-07-15T13:36:05.909Z</time>
      </trkpt>
      <trkpt lat="66.06543" lon="12.93422">
        <ele>17.863978</ele>
        <time>2020-07-15T13:36:15.131Z</time>
      </trkpt>
      <trkpt lat="66.06537" lon="12.93439">
        <ele>17.432156</ele>
        <time>2020-07-15T13:36:16.321Z</time>
      </trkpt>
      <trkpt lat="66.06535" lon="12.93461">
        <ele>16.996065</ele>
        <time>2020-07-15T13:36:17.514Z</time>
      </trkpt>
      <trkpt lat="66.06525" lon="12.93528">
        <ele>15.67135</ele>
        <time>2020-07-15T13:36:21.308Z</time>
      </trkpt>
      <trkpt lat="66.06509" lon="12.93607">
        <ele>14.071512</ele>
        <time>2020-07-15T13:36:26.223Z</time>
      </trkpt>
      <trkpt lat="66.06474" lon="12.93768">
        <ele>11.906507</ele>
        <time>2020-07-15T13:36:36.396Z</time>
      </trkpt>
      <trkpt lat="66.06466" lon="12.93809">
        <ele>11.369548</ele>
        <time>2020-07-15T13:36:38.902Z</time>
      </trkpt>
      <trkpt lat="66.06455" lon="12.93857">
        <ele>10.708585</ele>
        <time>2020-07-15T13:36:42.126Z</time>
      </trkpt>
      <trkpt lat="66.06443" lon="12.93917">
        <ele>9.906961</ele>
        <time>2020-07-15T13:36:46.011Z</time>
      </trkpt>
      <trkpt lat="66.06433" lon="12.93972">
        <ele>9.197613</ele>
        <time>2020-07-15T13:36:49.445Z</time>
      </trkpt>
      <trkpt lat="66.06417" lon="12.94091">
        <ele>8.322667</ele>
        <time>2020-07-15T13:36:56.913Z</time>
      </trkpt>
      <trkpt lat="66.06413" lon="12.94135">
        <ele>8.049277</ele>
        <time>2020-07-15T13:36:59.564Z</time>
      </trkpt>
      <trkpt lat="66.06402" lon="12.9425">
        <ele>7.345311</ele>
        <time>2020-07-15T13:37:06.860Z</time>
      </trkpt>
      <trkpt lat="66.06399" lon="12.94286">
        <ele>7.123458</ele>
        <time>2020-07-15T13:37:09.191Z</time>
      </trkpt>
      <trkpt lat="66.06398" lon="12.94309">
        <ele>6.98403</ele>
        <time>2020-07-15T13:37:10.604Z</time>
      </trkpt>
      <trkpt lat="66.06402" lon="12.94307">
        <ele>6.929418</ele>
        <time>2020-07-15T13:37:11.281Z</time>
      </trkpt>
      <trkpt lat="66.06405" lon="12.94307">
        <ele>6.880523</ele>
        <time>2020-07-15T13:37:11.924Z</time>
      </trkpt>
      <trkpt lat="66.06404" lon="12.94329">
        <ele>6.746225</ele>
        <time>2020-07-15T13:37:13.420Z</time>
      </trkpt>
      <trkpt lat="66.06401" lon="12.94371">
        <ele>6.493746</ele>
        <time>2020-07-15T13:37:16.066Z</time>
      </trkpt>
      <trkpt lat="66.06401" lon="12.94421">
        <ele>6.308347</ele>
        <time>2020-07-15T13:37:19.562Z</time>
      </trkpt>
      <trkpt lat="66.06402" lon="12.94448">
        <ele>6.352148</ele>
        <time>2020-07-15T13:37:21.338Z</time>
      </trkpt>
      <trkpt lat="66.06402" lon="12.94466">
        <ele>6.381599</ele>
        <time>2020-07-15T13:37:22.483Z</time>
      </trkpt>
      <trkpt lat="66.06403" lon="12.94493">
        <ele>6.425804</ele>
        <time>2020-07-15T13:37:24.692Z</time>
      </trkpt>
      <trkpt lat="66.06404" lon="12.94504">
        <ele>6.442867</ele>
        <time>2020-07-15T13:37:25.420Z</time>
      </trkpt>
      <trkpt lat="66.06407" lon="12.94542">
        <ele>6.505879</ele>
        <time>2020-07-15T13:37:28.274Z</time>
      </trkpt>
      <trkpt lat="66.06407" lon="12.94552">
        <ele>6.520571</ele>
        <time>2020-07-15T13:37:28.873Z</time>
      </trkpt>
      <trkpt lat="66.0641" lon="12.94583">
        <ele>6.573078</ele>
        <time>2020-07-15T13:37:31.607Z</time>
      </trkpt>
      <trkpt lat="66.06427" lon="12.9468">
        <ele>6.743099</ele>
        <time>2020-07-15T13:37:40.053Z</time>
      </trkpt>
      <trkpt lat="66.06454" lon="12.94789">
        <ele>6.948605</ele>
        <time>2020-07-15T13:37:50.762Z</time>
      </trkpt>
      <trkpt lat="66.06517" lon="12.9503">
        <ele>7.782017</ele>
        <time>2020-07-15T13:38:15.484Z</time>
      </trkpt>
      <trkpt lat="66.06519" lon="12.95036">
        <ele>7.802152</ele>
        <time>2020-07-15T13:38:16.055Z</time>
      </trkpt>
      <trkpt lat="66.06593" lon="12.95317">
        <ele>8.445567</ele>
        <time>2020-07-15T13:38:41.904Z</time>
      </trkpt>
      <trkpt lat="66.06624" lon="12.95438">
        <ele>8.529497</ele>
        <time>2020-07-15T13:38:52.070Z</time>
      </trkpt>
      <trkpt lat="66.06627" lon="12.95449">
        <ele>8.537298</ele>
        <time>2020-07-15T13:38:53.018Z</time>
      </trkpt>
      <trkpt lat="66.06682" lon="12.95684">
        <ele>8.798054</ele>
        <time>2020-07-15T13:39:13.311Z</time>
      </trkpt>
      <trkpt lat="66.06707" lon="12.95802">
        <ele>8.975367</ele>
        <time>2020-07-15T13:39:23.512Z</time>
      </trkpt>
      <trkpt lat="66.06709" lon="12.95813">
        <ele>8.990959</ele>
        <time>2020-07-15T13:39:24.432Z</time>
      </trkpt>
      <trkpt lat="66.06715" lon="12.95841">
        <ele>9.031748</ele>
        <time>2020-07-15T13:39:26.832Z</time>
      </trkpt>
      <trkpt lat="66.06732" lon="12.95939">
        <ele>9.173394</ele>
        <time>2020-07-15T13:39:35.130Z</time>
      </trkpt>
      <trkpt lat="66.06773" lon="12.9619">
        <ele>10.352285</ele>
        <time>2020-07-15T13:39:56.815Z</time>
      </trkpt>
      <trkpt lat="66.0679" lon="12.96299">
        <ele>10.894328</ele>
        <time>2020-07-15T13:40:07.077Z</time>
      </trkpt>
      <trkpt lat="66.06829" lon="12.96549">
        <ele>13.297075</ele>
        <time>2020-07-15T13:40:35.366Z</time>
      </trkpt>
      <trkpt lat="66.06861" lon="12.96749">
        <ele>15.590391</ele>
        <time>2020-07-15T13:40:59.092Z</time>
      </trkpt>
      <trkpt lat="66.06877" lon="12.96855">
        <ele>16.517004</ele>
        <time>2020-07-15T13:41:11.260Z</time>
      </trkpt>
      <trkpt lat="66.06895" lon="12.96998">
        <ele>17.56193</ele>
        <time>2020-07-15T13:41:26.848Z</time>
      </trkpt>
      <trkpt lat="66.06902" lon="12.97073">
        <ele>18.104289</ele>
        <time>2020-07-15T13:41:34.026Z</time>
      </trkpt>
      <trkpt lat="66.06944" lon="12.97626">
        <ele>19.618492</ele>
        <time>2020-07-15T13:42:17.746Z</time>
      </trkpt>
      <trkpt lat="66.06951" lon="12.97751">
        <ele>18.888579</ele>
        <time>2020-07-15T13:42:26.663Z</time>
      </trkpt>
      <trkpt lat="66.06953" lon="12.97841">
        <ele>18.24046</ele>
        <time>2020-07-15T13:42:32.613Z</time>
      </trkpt>
      <trkpt lat="66.06955" lon="12.9811">
        <ele>16.0353</ele>
        <time>2020-07-15T13:42:47.426Z</time>
      </trkpt>
      <trkpt lat="66.06957" lon="12.98245">
        <ele>13.377818</ele>
        <time>2020-07-15T13:42:54.136Z</time>
      </trkpt>
      <trkpt lat="66.06959" lon="12.98312">
        <ele>12.057898</ele>
        <time>2020-07-15T13:42:57.370Z</time>
      </trkpt>
      <trkpt lat="66.06965" lon="12.98438">
        <ele>9.567352</ele>
        <time>2020-07-15T13:43:03.533Z</time>
      </trkpt>
      <trkpt lat="66.06971" lon="12.98526">
        <ele>7.81095</ele>
        <time>2020-07-15T13:43:07.848Z</time>
      </trkpt>
      <trkpt lat="66.06982" lon="12.98633">
        <ele>6.213358</ele>
        <time>2020-07-15T13:43:13.177Z</time>
      </trkpt>
      <trkpt lat="66.06995" lon="12.98738">
        <ele>4.636426</ele>
        <time>2020-07-15T13:43:18.766Z</time>
      </trkpt>
      <trkpt lat="66.07005" lon="12.98809">
        <ele>3.561946</ele>
        <time>2020-07-15T13:43:22.730Z</time>
      </trkpt>
      <trkpt lat="66.07027" lon="12.98937">
        <ele>1.576231</ele>
        <time>2020-07-15T13:43:30.654Z</time>
      </trkpt>
      <trkpt lat="66.07036" lon="12.9898">
        <ele>1.310103</ele>
        <time>2020-07-15T13:43:33.519Z</time>
      </trkpt>
      <trkpt lat="66.07047" lon="12.9903">
        <ele>1.192472</ele>
        <time>2020-07-15T13:43:37.247Z</time>
      </trkpt>
      <trkpt lat="66.07066" lon="12.99126">
        <ele>0.977115</ele>
        <time>2020-07-15T13:43:44.186Z</time>
      </trkpt>
      <trkpt lat="66.0712" lon="12.99493">
        <ele>0.747474</ele>
        <time>2020-07-15T13:44:12.592Z</time>
      </trkpt>
      <trkpt lat="66.07233" lon="12.99935">
        <ele>2.054353</ele>
        <time>2020-07-15T13:44:55.036Z</time>
      </trkpt>
      <trkpt lat="66.07244" lon="12.99987">
        <ele>2.254499</ele>
        <time>2020-07-15T13:45:00.277Z</time>
      </trkpt>
      <trkpt lat="66.07249" lon="13.00011">
        <ele>2.344696</ele>
        <time>2020-07-15T13:45:02.718Z</time>
      </trkpt>
      <trkpt lat="66.07255" lon="13.00045">
        <ele>2.467459</ele>
        <time>2020-07-15T13:45:05.221Z</time>
      </trkpt>
      <trkpt lat="66.07255" lon="13.00046">
        <ele>2.4734</ele>
        <time>2020-07-15T13:45:05.852Z</time>
      </trkpt>
      <trkpt lat="66.07289" lon="13.0027">
        <ele>3.071254</ele>
        <time>2020-07-15T13:45:25.678Z</time>
      </trkpt>
      <trkpt lat="66.07296" lon="13.00316">
        <ele>3.165671</ele>
        <time>2020-07-15T13:45:29.782Z</time>
      </trkpt>
      <trkpt lat="66.07313" lon="13.00411">
        <ele>3.364314</ele>
        <time>2020-07-15T13:45:37.964Z</time>
      </trkpt>
      <trkpt lat="66.07327" lon="13.00489">
        <ele>3.530102</ele>
        <time>2020-07-15T13:45:44.540Z</time>
      </trkpt>
      <trkpt lat="66.07337" lon="13.0054">
        <ele>3.637613</ele>
        <time>2020-07-15T13:45:48.513Z</time>
      </trkpt>
      <trkpt lat="66.07361" lon="13.00667">
        <ele>3.569918</ele>
        <time>2020-07-15T13:45:58.082Z</time>
      </trkpt>
      <trkpt lat="66.07431" lon="13.01034">
        <ele>4.126809</ele>
        <time>2020-07-15T13:46:26.546Z</time>
      </trkpt>
      <trkpt lat="66.07449" lon="13.0116">
        <ele>5.136053</ele>
        <time>2020-07-15T13:46:38.768Z</time>
      </trkpt>
      <trkpt lat="66.07455" lon="13.01211">
        <ele>5.532607</ele>
        <time>2020-07-15T13:46:43.860Z</time>
      </trkpt>
      <trkpt lat="66.07461" lon="13.01288">
        <ele>6.124619</ele>
        <time>2020-07-15T13:46:52.370Z</time>
      </trkpt>
      <trkpt lat="66.07472" lon="13.0139">
        <ele>7.239176</ele>
        <time>2020-07-15T13:47:04.819Z</time>
      </trkpt>
      <trkpt lat="66.07489" lon="13.01466">
        <ele>9.001475</ele>
        <time>2020-07-15T13:47:15.891Z</time>
      </trkpt>
      <trkpt lat="66.07573" lon="13.01704">
        <ele>15.444689</ele>
        <time>2020-07-15T13:48:01.624Z</time>
      </trkpt>
      <trkpt lat="66.07596" lon="13.01787">
        <ele>17.533556</ele>
        <time>2020-07-15T13:48:15.764Z</time>
      </trkpt>
      <trkpt lat="66.07601" lon="13.01812">
        <ele>18.138109</ele>
        <time>2020-07-15T13:48:20.760Z</time>
      </trkpt>
      <trkpt lat="66.07625" lon="13.01939">
        <ele>21.106569</ele>
        <time>2020-07-15T13:48:39.229Z</time>
      </trkpt>
      <trkpt lat="66.07639" lon="13.02006">
        <ele>22.73199</ele>
        <time>2020-07-15T13:48:49.657Z</time>
      </trkpt>
      <trkpt lat="66.07649" lon="13.02045">
        <ele>23.702266</ele>
        <time>2020-07-15T13:48:56.734Z</time>
      </trkpt>
      <trkpt lat="66.07725" lon="13.02318">
        <ele>30.275408</ele>
        <time>2020-07-15T13:49:42.246Z</time>
      </trkpt>
      <trkpt lat="66.07771" lon="13.02481">
        <ele>34.020422</ele>
        <time>2020-07-15T13:50:08.988Z</time>
      </trkpt>
      <trkpt lat="66.07773" lon="13.02489">
        <ele>34.140102</ele>
        <time>2020-07-15T13:50:10.376Z</time>
      </trkpt>
      <trkpt lat="66.07847" lon="13.02753">
        <ele>37.815717</ele>
        <time>2020-07-15T13:50:46.841Z</time>
      </trkpt>
      <trkpt lat="66.07901" lon="13.02952">
        <ele>39.259572</ele>
        <time>2020-07-15T13:51:06.918Z</time>
      </trkpt>
      <trkpt lat="66.07927" lon="13.0308">
        <ele>39.57663</ele>
        <time>2020-07-15T13:51:18.020Z</time>
      </trkpt>
      <trkpt lat="66.07936" lon="13.03143">
        <ele>39.725296</ele>
        <time>2020-07-15T13:51:23.072Z</time>
      </trkpt>
      <trkpt lat="66.07959" lon="13.03316">
        <ele>39.961701</ele>
        <time>2020-07-15T13:51:36.440Z</time>
      </trkpt>
      <trkpt lat="66.08008" lon="13.03691">
        <ele>40.111276</ele>
        <time>2020-07-15T13:52:05.318Z</time>
      </trkpt>
      <trkpt lat="66.08015" lon="13.03742">
        <ele>40.127452</ele>
        <time>2020-07-15T13:52:09.404Z</time>
      </trkpt>
      <trkpt lat="66.08033" lon="13.03832">
        <ele>40.157357</ele>
        <time>2020-07-15T13:52:16.962Z</time>
      </trkpt>
      <trkpt lat="66.08045" lon="13.03869">
        <ele>40.171215</ele>
        <time>2020-07-15T13:52:20.466Z</time>
      </trkpt>
      <trkpt lat="66.08054" lon="13.0389">
        <ele>40.180099</ele>
        <time>2020-07-15T13:52:22.819Z</time>
      </trkpt>
      <trkpt lat="66.08131" lon="13.04024">
        <ele>40.148849</ele>
        <time>2020-07-15T13:52:39.680Z</time>
      </trkpt>
      <trkpt lat="66.08189" lon="13.04115">
        <ele>39.923045</ele>
        <time>2020-07-15T13:52:50.989Z</time>
      </trkpt>
      <trkpt lat="66.08298" lon="13.04286">
        <ele>39.852347</ele>
        <time>2020-07-15T13:53:12.492Z</time>
      </trkpt>
      <trkpt lat="66.08573" lon="13.04725">
        <ele>41.992684</ele>
        <time>2020-07-15T13:54:19.615Z</time>
      </trkpt>
      <trkpt lat="66.08617" lon="13.04795">
        <ele>42.139108</ele>
        <time>2020-07-15T13:54:29.816Z</time>
      </trkpt>
      <trkpt lat="66.08645" lon="13.04839">
        <ele>42.231636</ele>
        <time>2020-07-15T13:54:35.969Z</time>
      </trkpt>
      <trkpt lat="66.08689" lon="13.04911">
        <ele>42.380265</ele>
        <time>2020-07-15T13:54:45.455Z</time>
      </trkpt>
      <trkpt lat="66.0872" lon="13.0496">
        <ele>42.482806</ele>
        <time>2020-07-15T13:54:51.944Z</time>
      </trkpt>
      <trkpt lat="66.08794" lon="13.05078">
        <ele>42.741117</ele>
        <time>2020-07-15T13:55:07.754Z</time>
      </trkpt>
      <trkpt lat="66.08893" lon="13.05234">
        <ele>43.296633</ele>
        <time>2020-07-15T13:55:30.839Z</time>
      </trkpt>
      <trkpt lat="66.09109" lon="13.05578">
        <ele>45.817715</ele>
        <time>2020-07-15T13:56:25.577Z</time>
      </trkpt>
      <trkpt lat="66.09157" lon="13.05647">
        <ele>46.383605</ele>
        <time>2020-07-15T13:56:37.166Z</time>
      </trkpt>
      <trkpt lat="66.09219" lon="13.05707">
        <ele>47.015345</ele>
        <time>2020-07-15T13:56:50.834Z</time>
      </trkpt>
      <trkpt lat="66.0992" lon="13.06182">
        <ele>54.034925</ele>
        <time>2020-07-15T13:59:22.449Z</time>
      </trkpt>
      <trkpt lat="66.09991" lon="13.06241">
        <ele>55.018131</ele>
        <time>2020-07-15T13:59:39.994Z</time>
      </trkpt>
      <trkpt lat="66.10064" lon="13.06327">
        <ele>55.796574</ele>
        <time>2020-07-15T13:59:57.967Z</time>
      </trkpt>
      <trkpt lat="66.1022" lon="13.06551">
        <ele>56.515103</ele>
        <time>2020-07-15T14:00:31.641Z</time>
      </trkpt>
      <trkpt lat="66.10496" lon="13.06948">
        <ele>55.808265</ele>
        <time>2020-07-15T14:01:26.424Z</time>
      </trkpt>
      <trkpt lat="66.10533" lon="13.07">
        <ele>55.56502</ele>
        <time>2020-07-15T14:01:33.460Z</time>
      </trkpt>
      <trkpt lat="66.10567" lon="13.07044">
        <ele>55.34076</ele>
        <time>2020-07-15T14:01:39.307Z</time>
      </trkpt>
      <trkpt lat="66.10652" lon="13.07142">
        <ele>54.782023</ele>
        <time>2020-07-15T14:01:54.648Z</time>
      </trkpt>
      <trkpt lat="66.10693" lon="13.07188">
        <ele>54.778326</ele>
        <time>2020-07-15T14:02:01.868Z</time>
      </trkpt>
      <trkpt lat="66.10709" lon="13.07201">
        <ele>54.80378</ele>
        <time>2020-07-15T14:02:04.821Z</time>
      </trkpt>
      <trkpt lat="66.10744" lon="13.07222">
        <ele>54.860637</ele>
        <time>2020-07-15T14:02:11.392Z</time>
      </trkpt>
      <trkpt lat="66.10881" lon="13.07252">
        <ele>55.324697</ele>
        <time>2020-07-15T14:02:38.633Z</time>
      </trkpt>
      <trkpt lat="66.10935" lon="13.07278">
        <ele>55.706334</ele>
        <time>2020-07-15T14:02:49.724Z</time>
      </trkpt>
      <trkpt lat="66.10972" lon="13.07315">
        <ele>55.986328</ele>
        <time>2020-07-15T14:02:57.724Z</time>
      </trkpt>
      <trkpt lat="66.11101" lon="13.0749">
        <ele>57.105086</ele>
        <time>2020-07-15T14:03:27.178Z</time>
      </trkpt>
      <trkpt lat="66.11195" lon="13.07574">
        <ele>58.19221</ele>
        <time>2020-07-15T14:03:48.003Z</time>
      </trkpt>
      <trkpt lat="66.11277" lon="13.0764">
        <ele>59.805455</ele>
        <time>2020-07-15T14:04:06.253Z</time>
      </trkpt>
      <trkpt lat="66.11313" lon="13.07667">
        <ele>60.507494</ele>
        <time>2020-07-15T14:04:16.434Z</time>
      </trkpt>
      <trkpt lat="66.11343" lon="13.07677">
        <ele>61.133834</ele>
        <time>2020-07-15T14:04:25.441Z</time>
      </trkpt>
      <trkpt lat="66.1137" lon="13.07667">
        <ele>62.224858</ele>
        <time>2020-07-15T14:04:33.846Z</time>
      </trkpt>
      <trkpt lat="66.11395" lon="13.07631">
        <ele>63.412454</ele>
        <time>2020-07-15T14:04:41.887Z</time>
      </trkpt>
      <trkpt lat="66.11411" lon="13.07577">
        <ele>64.503468</ele>
        <time>2020-07-15T14:04:49.939Z</time>
      </trkpt>
      <trkpt lat="66.11413" lon="13.07561">
        <ele>64.789067</ele>
        <time>2020-07-15T14:04:52.166Z</time>
      </trkpt>
      <trkpt lat="66.11416" lon="13.07542">
        <ele>65.129865</ele>
        <time>2020-07-15T14:04:55.936Z</time>
      </trkpt>
      <trkpt lat="66.11422" lon="13.07447">
        <ele>66.707487</ele>
        <time>2020-07-15T14:05:08.859Z</time>
      </trkpt>
      <trkpt lat="66.11425" lon="13.07251">
        <ele>69.56535</ele>
        <time>2020-07-15T14:05:32.710Z</time>
      </trkpt>
      <trkpt lat="66.11436" lon="13.07147">
        <ele>70.930534</ele>
        <time>2020-07-15T14:05:45.734Z</time>
      </trkpt>
      <trkpt lat="66.11444" lon="13.07107">
        <ele>71.497949</ele>
        <time>2020-07-15T14:05:51.027Z</time>
      </trkpt>
      <trkpt lat="66.11451" lon="13.07077">
        <ele>71.937612</ele>
        <time>2020-07-15T14:05:53.857Z</time>
      </trkpt>
      <trkpt lat="66.11491" lon="13.0697">
        <ele>73.792728</ele>
        <time>2020-07-15T14:06:08.749Z</time>
      </trkpt>
      <trkpt lat="66.11758" lon="13.06481">
        <ele>84.57733</ele>
        <time>2020-07-15T14:07:38.336Z</time>
      </trkpt>
      <trkpt lat="66.11804" lon="13.06419">
        <ele>87.022746</ele>
        <time>2020-07-15T14:07:59.402Z</time>
      </trkpt>
      <trkpt lat="66.11851" lon="13.0638">
        <ele>90.052945</ele>
        <time>2020-07-15T14:08:19.948Z</time>
      </trkpt>
      <trkpt lat="66.11921" lon="13.0636">
        <ele>94.34227</ele>
        <time>2020-07-15T14:08:48.915Z</time>
      </trkpt>
      <trkpt lat="66.12022" lon="13.06393">
        <ele>97.550402</ele>
        <time>2020-07-15T14:09:19.626Z</time>
      </trkpt>
      <trkpt lat="66.12149" lon="13.06513">
        <ele>98.831001</ele>
        <time>2020-07-15T14:09:42.688Z</time>
      </trkpt>
      <trkpt lat="66.12186" lon="13.06535">
        <ele>98.531668</ele>
        <time>2020-07-15T14:09:48.247Z</time>
      </trkpt>
      <trkpt lat="66.12483" lon="13.06606">
        <ele>96.246164</ele>
        <time>2020-07-15T14:10:36.391Z</time>
      </trkpt>
      <trkpt lat="66.12546" lon="13.06601">
        <ele>95.055522</ele>
        <time>2020-07-15T14:10:45.831Z</time>
      </trkpt>
      <trkpt lat="66.12916" lon="13.065">
        <ele>86.70677</ele>
        <time>2020-07-15T14:11:36.508Z</time>
      </trkpt>
      <trkpt lat="66.12957" lon="13.06509">
        <ele>85.956779</ele>
        <time>2020-07-15T14:11:42.250Z</time>
      </trkpt>
      <trkpt lat="66.13308" lon="13.06656">
        <ele>82.366761</ele>
        <time>2020-07-15T14:12:37.984Z</time>
      </trkpt>
      <trkpt lat="66.13515" lon="13.06644">
        <ele>81.219029</ele>
        <time>2020-07-15T14:13:13.083Z</time>
      </trkpt>
      <trkpt lat="66.13557" lon="13.0665">
        <ele>81.009241</ele>
        <time>2020-07-15T14:13:19.575Z</time>
      </trkpt>
      <trkpt lat="66.13589" lon="13.06679">
        <ele>81.008835</ele>
        <time>2020-07-15T14:13:24.893Z</time>
      </trkpt>
      <trkpt lat="66.13623" lon="13.06737">
        <ele>81.03651</ele>
        <time>2020-07-15T14:13:31.186Z</time>
      </trkpt>
      <trkpt lat="66.13745" lon="13.0707">
        <ele>82.29451</ele>
        <time>2020-07-15T14:14:08.321Z</time>
      </trkpt>
      <trkpt lat="66.13776" lon="13.07212">
        <ele>83.346027</ele>
        <time>2020-07-15T14:14:26.558Z</time>
      </trkpt>
      <trkpt lat="66.13778" lon="13.07228">
        <ele>83.456886</ele>
        <time>2020-07-15T14:14:28.965Z</time>
      </trkpt>
      <trkpt lat="66.1378" lon="13.07246">
        <ele>83.574292</ele>
        <time>2020-07-15T14:14:32.314Z</time>
      </trkpt>
      <trkpt lat="66.13828" lon="13.07888">
        <ele>75.484439</ele>
        <time>2020-07-15T14:15:15.202Z</time>
      </trkpt>
      <trkpt lat="66.1384" lon="13.07944">
        <ele>72.148846</ele>
        <time>2020-07-15T14:15:17.853Z</time>
      </trkpt>
      <trkpt lat="66.13855" lon="13.07988">
        <ele>69.061661</ele>
        <time>2020-07-15T14:15:20.287Z</time>
      </trkpt>
      <trkpt lat="66.13876" lon="13.08025">
        <ele>65.683394</ele>
        <time>2020-07-15T14:15:22.939Z</time>
      </trkpt>
      <trkpt lat="66.13906" lon="13.08052">
        <ele>61.580307</ele>
        <time>2020-07-15T14:15:26.127Z</time>
      </trkpt>
      <trkpt lat="66.13956" lon="13.08082">
        <ele>51.692617</ele>
        <time>2020-07-15T14:15:31.376Z</time>
      </trkpt>
      <trkpt lat="66.13963" lon="13.08086">
        <ele>50.112058</ele>
        <time>2020-07-15T14:15:32.108Z</time>
      </trkpt>
      <trkpt lat="66.1406" lon="13.08144">
        <ele>28.487642</ele>
        <time>2020-07-15T14:15:42.196Z</time>
      </trkpt>
      <trkpt lat="66.14119" lon="13.08184">
        <ele>18.12523</ele>
        <time>2020-07-15T14:15:48.502Z</time>
      </trkpt>
      <trkpt lat="66.1415" lon="13.08218">
        <ele>14.991489</ele>
        <time>2020-07-15T14:15:52.088Z</time>
      </trkpt>
      <trkpt lat="66.1416" lon="13.08232">
        <ele>13.894882</ele>
        <time>2020-07-15T14:15:53.316Z</time>
      </trkpt>
      <trkpt lat="66.14178" lon="13.08265">
        <ele>11.797606</ele>
        <time>2020-07-15T14:15:55.868Z</time>
      </trkpt>
      <trkpt lat="66.14263" lon="13.08475">
        <ele>3.116163</ele>
        <time>2020-07-15T14:16:10.354Z</time>
      </trkpt>
      <trkpt lat="66.14395" lon="13.08849">
        <ele>1.234179</ele>
        <time>2020-07-15T14:16:45.151Z</time>
      </trkpt>
      <trkpt lat="66.14437" lon="13.08935">
        <ele>1.350819</ele>
        <time>2020-07-15T14:16:55.140Z</time>
      </trkpt>
      <trkpt lat="66.14493" lon="13.09003">
        <ele>1.48495</ele>
        <time>2020-07-15T14:17:06.792Z</time>
      </trkpt>
      <trkpt lat="66.14693" lon="13.09172">
        <ele>4.30075</ele>
        <time>2020-07-15T14:17:50.987Z</time>
      </trkpt>
      <trkpt lat="66.14733" lon="13.09196">
        <ele>6.081495</ele>
        <time>2020-07-15T14:18:01.878Z</time>
      </trkpt>
      <trkpt lat="66.14883" lon="13.09247">
        <ele>14.082223</ele>
        <time>2020-07-15T14:18:55.587Z</time>
      </trkpt>
      <trkpt lat="66.14935" lon="13.09289">
        <ele>18.714423</ele>
        <time>2020-07-15T14:19:20.805Z</time>
      </trkpt>
      <trkpt lat="66.14999" lon="13.09365">
        <ele>24.785505</ele>
        <time>2020-07-15T14:19:55.676Z</time>
      </trkpt>
      <trkpt lat="66.15042" lon="13.09437">
        <ele>29.277068</ele>
        <time>2020-07-15T14:20:22.724Z</time>
      </trkpt>
      <trkpt lat="66.15245" lon="13.09856">
        <ele>46.625308</ele>
        <time>2020-07-15T14:22:19.179Z</time>
      </trkpt>
      <trkpt lat="66.15362" lon="13.10139">
        <ele>42.170187</ele>
        <time>2020-07-15T14:22:40.152Z</time>
      </trkpt>
      <trkpt lat="66.15383" lon="13.10189">
        <ele>40.147856</ele>
        <time>2020-07-15T14:22:43.429Z</time>
      </trkpt>
      <trkpt lat="66.15391" lon="13.10208">
        <ele>39.407127</ele>
        <time>2020-07-15T14:22:44.544Z</time>
      </trkpt>
      <trkpt lat="66.15395" lon="13.10196">
        <ele>38.97595</ele>
        <time>2020-07-15T14:22:45.206Z</time>
      </trkpt>
      <trkpt lat="66.15402" lon="13.10156">
        <ele>37.743049</ele>
        <time>2020-07-15T14:22:47.315Z</time>
      </trkpt>
      <trkpt lat="66.15403" lon="13.10144">
        <ele>37.390765</ele>
        <time>2020-07-15T14:22:47.847Z</time>
      </trkpt>
      <trkpt lat="66.15405" lon="13.10133">
        <ele>37.080738</ele>
        <time>2020-07-15T14:22:48.309Z</time>
      </trkpt>
      <trkpt lat="66.15431" lon="13.09806">
        <ele>21.792965</ele>
        <time>2020-07-15T14:23:02.642Z</time>
      </trkpt>
      <trkpt lat="66.15434" lon="13.09758">
        <ele>19.520681</ele>
        <time>2020-07-15T14:23:04.683Z</time>
      </trkpt>
      <trkpt lat="66.15444" lon="13.09629">
        <ele>14.533373</ele>
        <time>2020-07-15T14:23:10.742Z</time>
      </trkpt>
      <trkpt lat="66.15458" lon="13.09445">
        <ele>9.788996</ele>
        <time>2020-07-15T14:23:19.422Z</time>
      </trkpt>
      <trkpt lat="66.15462" lon="13.09399">
        <ele>8.595326</ele>
        <time>2020-07-15T14:23:21.577Z</time>
      </trkpt>
      <trkpt lat="66.15474" lon="13.09241">
        <ele>4.588739</ele>
        <time>2020-07-15T14:23:29.857Z</time>
      </trkpt>
      <trkpt lat="66.15482" lon="13.09102">
        <ele>3.447748</ele>
        <time>2020-07-15T14:23:37.536Z</time>
      </trkpt>
      <trkpt lat="66.15482" lon="13.09068">
        <ele>3.172099</ele>
        <time>2020-07-15T14:23:39.292Z</time>
      </trkpt>
      <trkpt lat="66.15482" lon="13.0906">
        <ele>3.101982</ele>
        <time>2020-07-15T14:23:39.759Z</time>
      </trkpt>
      <trkpt lat="66.15481" lon="13.08983">
        <ele>2.478256</ele>
        <time>2020-07-15T14:23:44.188Z</time>
      </trkpt>
      <trkpt lat="66.15477" lon="13.08886">
        <ele>1.678586</ele>
        <time>2020-07-15T14:23:50.167Z</time>
      </trkpt>
      <trkpt lat="66.15464" lon="13.0877">
        <ele>0.946383</ele>
        <time>2020-07-15T14:23:57.855Z</time>
      </trkpt>
      <trkpt lat="66.1539" lon="13.08328">
        <ele>0.287112</ele>
        <time>2020-07-15T14:24:30.894Z</time>
      </trkpt>
      <trkpt lat="66.15374" lon="13.08236">
        <ele>0.239461</ele>
        <time>2020-07-15T14:24:37.958Z</time>
      </trkpt>
      <trkpt lat="66.15365" lon="13.08191">
        <ele>0.215006</ele>
        <time>2020-07-15T14:24:41.581Z</time>
      </trkpt>
      <trkpt lat="66.15337" lon="13.08057">
        <ele>0.142732</ele>
        <time>2020-07-15T14:24:52.303Z</time>
      </trkpt>
      <trkpt lat="66.1533" lon="13.07944">
        <ele>0.098028</ele>
        <time>2020-07-15T14:25:00.418Z</time>
      </trkpt>
      <trkpt lat="66.15323" lon="13.07897">
        <ele>0.08588</ele>
        <time>2020-07-15T14:25:04.011Z</time>
      </trkpt>
      <trkpt lat="66.15313" lon="13.0786">
        <ele>0.075156</ele>
        <time>2020-07-15T14:25:07.186Z</time>
      </trkpt>
      <trkpt lat="66.153" lon="13.07768">
        <ele>0.051394</ele>
        <time>2020-07-15T14:25:12.714Z</time>
      </trkpt>
      <trkpt lat="66.15301" lon="13.07696">
        <ele>0.033877</ele>
        <time>2020-07-15T14:25:16.789Z</time>
      </trkpt>
      <trkpt lat="66.15322" lon="13.07629">
        <ele>0.013518</ele>
        <time>2020-07-15T14:25:21.522Z</time>
      </trkpt>
      <trkpt lat="66.15336" lon="13.07601">
        <ele>0.002509</ele>
        <time>2020-07-15T14:25:24.077Z</time>
      </trkpt>
      <trkpt lat="66.15359" lon="13.07582">
        <ele>0.000126</ele>
        <time>2020-07-15T14:25:27.396Z</time>
      </trkpt>
      <trkpt lat="66.15381" lon="13.07581">
        <ele>0.000109</ele>
        <time>2020-07-15T14:25:30.443Z</time>
      </trkpt>
      <trkpt lat="66.15688" lon="13.07788">
        <time>2020-07-15T14:26:14.870Z</time>
      </trkpt>
      <trkpt lat="66.15763" lon="13.07823">
        <time>2020-07-15T14:26:25.493Z</time>
      </trkpt>
      <trkpt lat="66.15823" lon="13.07819">
        <time>2020-07-15T14:26:33.858Z</time>
      </trkpt>
      <trkpt lat="66.15883" lon="13.07753">
        <time>2020-07-15T14:26:42.976Z</time>
      </trkpt>
      <trkpt lat="66.15954" lon="13.07565">
        <time>2020-07-15T14:26:57.524Z</time>
      </trkpt>
      <trkpt lat="66.16135" lon="13.06588">
        <time>2020-07-15T14:27:58.120Z</time>
      </trkpt>
      <trkpt lat="66.16271" lon="13.05905">
        <time>2020-07-15T14:28:41.017Z</time>
      </trkpt>
      <trkpt lat="66.16413" lon="13.05258">
        <time>2020-07-15T14:29:22.524Z</time>
      </trkpt>
      <trkpt lat="66.16637" lon="13.04185">
        <time>2020-07-15T14:30:30.653Z</time>
      </trkpt>
      <trkpt lat="66.168" lon="13.03354">
        <time>2020-07-15T14:31:22.675Z</time>
      </trkpt>
      <trkpt lat="66.17109" lon="13.01513">
        <time>2020-07-15T14:33:15.090Z</time>
      </trkpt>
      <trkpt lat="66.17279" lon="13.00644">
        <time>2020-07-15T14:34:09.506Z</time>
      </trkpt>
      <trkpt lat="66.17331" lon="13.00498">
        <time>2020-07-15T14:34:20.534Z</time>
      </trkpt>
      <trkpt lat="66.1739" lon="13.0042">
        <time>2020-07-15T14:34:29.858Z</time>
      </trkpt>
      <trkpt lat="66.17489" lon="13.00363">
        <time>2020-07-15T14:34:43.949Z</time>
      </trkpt>
      <trkpt lat="66.17668" lon="13.00295">
        <time>2020-07-15T14:35:09.175Z</time>
      </trkpt>
      <trkpt lat="66.17908" lon="13.0018">
        <time>2020-07-15T14:35:43.286Z</time>
      </trkpt>
      <trkpt lat="66.18362" lon="13.00026">
        <time>2020-07-15T14:36:47.221Z</time>
      </trkpt>
      <trkpt lat="66.1877" lon="12.99902">
        <time>2020-07-15T14:37:44.502Z</time>
      </trkpt>
      <trkpt lat="66.18978" lon="12.99903">
        <time>2020-07-15T14:38:13.435Z</time>
      </trkpt>
      <trkpt lat="66.19295" lon="13.00029">
        <time>2020-07-15T14:38:58.238Z</time>
      </trkpt>
      <trkpt lat="66.19705" lon="13.00254">
        <time>2020-07-15T14:39:56.754Z</time>
      </trkpt>
      <trkpt lat="66.19859" lon="13.0036">
        <time>2020-07-15T14:40:18.954Z</time>
      </trkpt>
      <trkpt lat="66.20004" lon="13.00489">
        <ele>0.034313</ele>
        <time>2020-07-15T14:40:40.502Z</time>
      </trkpt>
      <trkpt lat="66.20053" lon="13.00551">
        <ele>0.054509</ele>
        <time>2020-07-15T14:40:48.086Z</time>
      </trkpt>
      <trkpt lat="66.20084" lon="13.00612">
        <ele>0.080691</ele>
        <time>2020-07-15T14:40:53.645Z</time>
      </trkpt>
      <trkpt lat="66.20098" lon="13.00648">
        <ele>0.12154</ele>
        <time>2020-07-15T14:40:56.473Z</time>
      </trkpt>
      <trkpt lat="66.20112" lon="13.00723">
        <ele>0.189313</ele>
        <time>2020-07-15T14:41:01.154Z</time>
      </trkpt>
      <trkpt lat="66.20113" lon="13.00846">
        <ele>0.289989</ele>
        <time>2020-07-15T14:41:08.119Z</time>
      </trkpt>
      <trkpt lat="66.20108" lon="13.00923">
        <ele>0.353165</ele>
        <time>2020-07-15T14:41:12.484Z</time>
      </trkpt>
      <trkpt lat="66.20097" lon="13.01001">
        <ele>0.420817</ele>
        <time>2020-07-15T14:41:17.164Z</time>
      </trkpt>
      <trkpt lat="66.20072" lon="13.01131">
        <ele>0.50352</ele>
        <time>2020-07-15T14:41:25.274Z</time>
      </trkpt>
      <trkpt lat="66.2006" lon="13.01183">
        <ele>0.536142</ele>
        <time>2020-07-15T14:41:29.614Z</time>
      </trkpt>
      <trkpt lat="66.20058" lon="13.01196">
        <ele>0.544525</ele>
        <time>2020-07-15T14:41:30.750Z</time>
      </trkpt>
      <trkpt lat="66.20025" lon="13.01398">
        <ele>0.665118</ele>
        <time>2020-07-15T14:41:46.766Z</time>
      </trkpt>
      <trkpt lat="66.20009" lon="13.01414">
        <ele>0.663414</ele>
        <time>2020-07-15T14:41:49.800Z</time>
      </trkpt>
      <trkpt lat="66.19998" lon="13.01491">
        <ele>0.610061</ele>
        <time>2020-07-15T14:41:55.648Z</time>
      </trkpt>
      <trkpt lat="66.19995" lon="13.01572">
        <ele>0.557259</ele>
        <time>2020-07-15T14:42:01.337Z</time>
      </trkpt>
      <trkpt lat="66.20014" lon="13.01803">
        <ele>0.404206</ele>
        <time>2020-07-15T14:42:17.604Z</time>
      </trkpt>
      <trkpt lat="66.20015" lon="13.01821">
        <ele>0.39255</ele>
        <time>2020-07-15T14:42:18.787Z</time>
      </trkpt>
      <trkpt lat="66.20013" lon="13.01895">
        <ele>0.340613</ele>
        <time>2020-07-15T14:42:24.007Z</time>
      </trkpt>
      <trkpt lat="66.19997" lon="13.0198">
        <ele>0.274483</ele>
        <time>2020-07-15T14:42:30.530Z</time>
      </trkpt>
      <trkpt lat="66.19986" lon="13.02063">
        <ele>0.212555</ele>
        <time>2020-07-15T14:42:36.661Z</time>
      </trkpt>
      <trkpt lat="66.19996" lon="13.022">
        <ele>0.114691</ele>
        <time>2020-07-15T14:42:46.344Z</time>
      </trkpt>
      <trkpt lat="66.20008" lon="13.02334">
        <ele>0.060575</ele>
        <time>2020-07-15T14:42:56.055Z</time>
      </trkpt>
      <trkpt lat="66.20014" lon="13.02397">
        <ele>0.049771</ele>
        <time>2020-07-15T14:43:00.769Z</time>
      </trkpt>
      <trkpt lat="66.2002" lon="13.02462">
        <ele>0.03892</ele>
        <time>2020-07-15T14:43:05.504Z</time>
      </trkpt>
      <trkpt lat="66.20027" lon="13.02574">
        <ele>0.020186</ele>
        <time>2020-07-15T14:43:13.688Z</time>
      </trkpt>
      <trkpt lat="66.2003" lon="13.02829">
        <ele>0.000492</ele>
        <time>2020-07-15T14:43:32.078Z</time>
      </trkpt>
      <trkpt lat="66.2003" lon="13.02844">
        <ele>0.000548</ele>
        <time>2020-07-15T14:43:33.163Z</time>
      </trkpt>
      <trkpt lat="66.20032" lon="13.02974">
        <ele>0.001032</ele>
        <time>2020-07-15T14:43:42.560Z</time>
      </trkpt>
      <trkpt lat="66.20026" lon="13.02976">
        <ele>0.001087</ele>
        <time>2020-07-15T14:43:43.665Z</time>
      </trkpt>
      <trkpt lat="66.20027" lon="13.02989">
        <ele>0.001135</ele>
        <time>2020-07-15T14:43:44.642Z</time>
      </trkpt>
      <trkpt lat="66.20037" lon="13.03199">
        <ele>0.019363</ele>
        <time>2020-07-15T14:44:00.497Z</time>
      </trkpt>
      <trkpt lat="66.2005" lon="13.03294">
        <ele>0.04428</ele>
        <time>2020-07-15T14:44:08.092Z</time>
      </trkpt>
      <trkpt lat="66.20081" lon="13.03452">
        <ele>0.087839</ele>
        <time>2020-07-15T14:44:21.451Z</time>
      </trkpt>
      <trkpt lat="66.20085" lon="13.03444">
        <ele>0.090876</ele>
        <time>2020-07-15T14:44:22.382Z</time>
      </trkpt>
      <trkpt lat="66.20092" lon="13.03431">
        <ele>0.096585</ele>
        <time>2020-07-15T14:44:24.137Z</time>
      </trkpt>
      <trkpt lat="66.2013" lon="13.03517">
        <ele>0.153374</ele>
        <time>2020-07-15T14:44:33.474Z</time>
      </trkpt>
      <trkpt lat="66.20346" lon="13.03867">
        <ele>0.563194</ele>
        <time>2020-07-15T14:45:20.972Z</time>
      </trkpt>
      <trkpt lat="66.20351" lon="13.03875">
        <ele>0.572588</ele>
        <time>2020-07-15T14:45:22.094Z</time>
      </trkpt>
      <trkpt lat="66.20568" lon="13.04192">
        <ele>0.862744</ele>
        <time>2020-07-15T14:46:08.012Z</time>
      </trkpt>
      <trkpt lat="66.20604" lon="13.04261">
        <ele>0.835934</ele>
        <time>2020-07-15T14:46:16.056Z</time>
      </trkpt>
      <trkpt lat="66.20652" lon="13.04374">
        <ele>0.796947</ele>
        <time>2020-07-15T14:46:27.699Z</time>
      </trkpt>
      <trkpt lat="66.20658" lon="13.0439">
        <ele>0.791442</ele>
        <time>2020-07-15T14:46:29.301Z</time>
      </trkpt>
      <trkpt lat="66.20848" lon="13.04861">
        <ele>0.701757</ele>
        <time>2020-07-15T14:47:16.456Z</time>
      </trkpt>
      <trkpt lat="66.20895" lon="13.05025">
        <ele>0.851709</ele>
        <time>2020-07-15T14:47:31.522Z</time>
      </trkpt>
      <trkpt lat="66.20918" lon="13.05087">
        <ele>0.9143</ele>
        <time>2020-07-15T14:47:37.949Z</time>
      </trkpt>
      <trkpt lat="66.2097" lon="13.05161">
        <ele>1.083103</ele>
        <time>2020-07-15T14:47:49.403Z</time>
      </trkpt>
      <trkpt lat="66.21177" lon="13.05388">
        <ele>1.775574</ele>
        <time>2020-07-15T14:48:32.606Z</time>
      </trkpt>
      <trkpt lat="66.2141" lon="13.05692">
        <ele>1.778697</ele>
        <time>2020-07-15T14:49:18.773Z</time>
      </trkpt>
      <trkpt lat="66.21456" lon="13.05758">
        <ele>1.792274</ele>
        <time>2020-07-15T14:49:28.433Z</time>
      </trkpt>
      <trkpt lat="66.21488" lon="13.05832">
        <ele>1.832111</ele>
        <time>2020-07-15T14:49:36.377Z</time>
      </trkpt>
      <trkpt lat="66.21507" lon="13.05906">
        <ele>1.864767</ele>
        <time>2020-07-15T14:49:42.922Z</time>
      </trkpt>
      <trkpt lat="66.21547" lon="13.06116">
        <ele>1.883156</ele>
        <time>2020-07-15T14:49:59.896Z</time>
      </trkpt>
      <trkpt lat="66.21572" lon="13.062">
        <ele>1.799375</ele>
        <time>2020-07-15T14:50:07.150Z</time>
      </trkpt>
      <trkpt lat="66.21707" lon="13.06462">
        <ele>1.4951</ele>
        <time>2020-07-15T14:50:36.347Z</time>
      </trkpt>
      <trkpt lat="66.2174" lon="13.06571">
        <ele>1.423956</ele>
        <time>2020-07-15T14:50:45.798Z</time>
      </trkpt>
      <trkpt lat="66.21846" lon="13.0702">
        <ele>1.434452</ele>
        <time>2020-07-15T14:51:23.646Z</time>
      </trkpt>
      <trkpt lat="66.21861" lon="13.07116">
        <ele>1.470345</ele>
        <time>2020-07-15T14:51:31.250Z</time>
      </trkpt>
      <trkpt lat="66.21896" lon="13.07424">
        <ele>1.827704</ele>
        <time>2020-07-15T14:51:55.486Z</time>
      </trkpt>
      <trkpt lat="66.21917" lon="13.07529">
        <ele>1.958859</ele>
        <time>2020-07-15T14:52:04.427Z</time>
      </trkpt>
      <trkpt lat="66.21947" lon="13.07622">
        <ele>2.08086</ele>
        <time>2020-07-15T14:52:13.512Z</time>
      </trkpt>
      <trkpt lat="66.22152" lon="13.08144">
        <ele>2.811875</ele>
        <time>2020-07-15T14:53:07.954Z</time>
      </trkpt>
      <trkpt lat="66.22185" lon="13.08232">
        <ele>3.005757</ele>
        <time>2020-07-15T14:53:17.094Z</time>
      </trkpt>
      <trkpt lat="66.2219" lon="13.08247">
        <ele>3.045227</ele>
        <time>2020-07-15T14:53:18.617Z</time>
      </trkpt>
      <trkpt lat="66.2244" lon="13.08922">
        <ele>5.295769</ele>
        <time>2020-07-15T14:54:31.584Z</time>
      </trkpt>
      <trkpt lat="66.22498" lon="13.09081">
        <ele>6.116994</ele>
        <time>2020-07-15T14:54:49.892Z</time>
      </trkpt>
      <trkpt lat="66.2255" lon="13.09212">
        <ele>6.89612</ele>
        <time>2020-07-15T14:55:05.930Z</time>
      </trkpt>
      <trkpt lat="66.22618" lon="13.09352">
        <ele>7.951849</ele>
        <time>2020-07-15T14:55:24.940Z</time>
      </trkpt>
      <trkpt lat="66.22749" lon="13.09568">
        <ele>9.932751</ele>
        <time>2020-07-15T14:55:59.241Z</time>
      </trkpt>
      <trkpt lat="66.23069" lon="13.10077">
        <ele>14.442265</ele>
        <time>2020-07-15T14:57:23.476Z</time>
      </trkpt>
      <trkpt lat="66.23075" lon="13.10088">
        <ele>14.509471</ele>
        <time>2020-07-15T14:57:24.939Z</time>
      </trkpt>
      <trkpt lat="66.23081" lon="13.10097">
        <ele>14.571025</ele>
        <time>2020-07-15T14:57:26.275Z</time>
      </trkpt>
      <trkpt lat="66.23085" lon="13.10103">
        <ele>14.610729</ele>
        <time>2020-07-15T14:57:26.994Z</time>
      </trkpt>
      <trkpt lat="66.2315" lon="13.10216">
        <ele>15.10328</ele>
        <time>2020-07-15T14:57:41.246Z</time>
      </trkpt>
      <trkpt lat="66.23236" lon="13.10434">
        <ele>15.492963</ele>
        <time>2020-07-15T14:58:03.999Z</time>
      </trkpt>
      <trkpt lat="66.2328" lon="13.10514">
        <ele>15.893228</ele>
        <time>2020-07-15T14:58:15.107Z</time>
      </trkpt>
      <trkpt lat="66.2338" lon="13.10672">
        <ele>17.148196</ele>
        <time>2020-07-15T14:58:40.617Z</time>
      </trkpt>
      <trkpt lat="66.23457" lon="13.10763">
        <ele>18.344433</ele>
        <time>2020-07-15T14:58:59.420Z</time>
      </trkpt>
      <trkpt lat="66.2351" lon="13.10839">
        <ele>19.338425</ele>
        <time>2020-07-15T14:59:13.726Z</time>
      </trkpt>
      <trkpt lat="66.23548" lon="13.10947">
        <ele>20.270334</ele>
        <time>2020-07-15T14:59:27.663Z</time>
      </trkpt>
      <trkpt lat="66.23628" lon="13.11289">
        <ele>22.172946</ele>
        <time>2020-07-15T15:00:04.435Z</time>
      </trkpt>
      <trkpt lat="66.23854" lon="13.12006">
        <ele>18.958546</ele>
        <time>2020-07-15T15:01:02.326Z</time>
      </trkpt>
      <trkpt lat="66.23921" lon="13.1216">
        <ele>16.035425</ele>
        <time>2020-07-15T15:01:13.917Z</time>
      </trkpt>
      <trkpt lat="66.23964" lon="13.12225">
        <ele>14.178565</ele>
        <time>2020-07-15T15:01:20.275Z</time>
      </trkpt>
      <trkpt lat="66.24009" lon="13.12273">
        <ele>12.382244</ele>
        <time>2020-07-15T15:01:26.391Z</time>
      </trkpt>
      <trkpt lat="66.24055" lon="13.12334">
        <ele>11.018327</ele>
        <time>2020-07-15T15:01:33.075Z</time>
      </trkpt>
      <trkpt lat="66.24085" lon="13.12423">
        <ele>9.878682</ele>
        <time>2020-07-15T15:01:39.213Z</time>
      </trkpt>
      <trkpt lat="66.24166" lon="13.1282">
        <ele>7.275618</ele>
        <time>2020-07-15T15:02:06.145Z</time>
      </trkpt>
      <trkpt lat="66.24201" lon="13.13077">
        <ele>6.938596</ele>
        <time>2020-07-15T15:02:26.789Z</time>
      </trkpt>
      <trkpt lat="66.24227" lon="13.1326">
        <ele>7.296841</ele>
        <time>2020-07-15T15:02:42.100Z</time>
      </trkpt>
      <trkpt lat="66.24244" lon="13.13342">
        <ele>7.467003</ele>
        <time>2020-07-15T15:02:49.378Z</time>
      </trkpt>
      <trkpt lat="66.24271" lon="13.13424">
        <ele>7.663792</ele>
        <time>2020-07-15T15:02:57.686Z</time>
      </trkpt>
      <trkpt lat="66.2439" lon="13.13661">
        <ele>8.303184</ele>
        <time>2020-07-15T15:03:26.203Z</time>
      </trkpt>
      <trkpt lat="66.24446" lon="13.13805">
        <ele>8.852079</ele>
        <time>2020-07-15T15:03:42.497Z</time>
      </trkpt>
      <trkpt lat="66.24508" lon="13.13964">
        <ele>9.582321</ele>
        <time>2020-07-15T15:04:01.278Z</time>
      </trkpt>
      <trkpt lat="66.24659" lon="13.14278">
        <ele>11.005485</ele>
        <time>2020-07-15T15:04:41.327Z</time>
      </trkpt>
      <trkpt lat="66.24734" lon="13.14457">
        <ele>10.970437</ele>
        <time>2020-07-15T15:05:00.817Z</time>
      </trkpt>
      <trkpt lat="66.24809" lon="13.14691">
        <ele>10.48169</ele>
        <time>2020-07-15T15:05:20.388Z</time>
      </trkpt>
      <trkpt lat="66.24938" lon="13.15192">
        <ele>7.937596</ele>
        <time>2020-07-15T15:05:56.379Z</time>
      </trkpt>
      <trkpt lat="66.24948" lon="13.15231">
        <ele>7.776486</ele>
        <time>2020-07-15T15:05:59.263Z</time>
      </trkpt>
      <trkpt lat="66.2499" lon="13.15404">
        <ele>7.070633</ele>
        <time>2020-07-15T15:06:12.649Z</time>
      </trkpt>
      <trkpt lat="66.25023" lon="13.15498">
        <ele>6.934581</ele>
        <time>2020-07-15T15:06:21.376Z</time>
      </trkpt>
      <trkpt lat="66.25113" lon="13.15705">
        <ele>6.600181</ele>
        <time>2020-07-15T15:06:42.594Z</time>
      </trkpt>
      <trkpt lat="66.25234" lon="13.15942">
        <ele>5.709253</ele>
        <time>2020-07-15T15:07:07.632Z</time>
      </trkpt>
      <trkpt lat="66.25297" lon="13.16113">
        <ele>5.50186</ele>
        <time>2020-07-15T15:07:22.520Z</time>
      </trkpt>
      <trkpt lat="66.25303" lon="13.16129">
        <ele>5.498061</ele>
        <time>2020-07-15T15:07:23.913Z</time>
      </trkpt>
      <trkpt lat="66.25357" lon="13.16277">
        <ele>5.462618</ele>
        <time>2020-07-15T15:07:38.195Z</time>
      </trkpt>
      <trkpt lat="66.25535" lon="13.1677">
        <ele>7.999301</ele>
        <time>2020-07-15T15:08:35.772Z</time>
      </trkpt>
      <trkpt lat="66.25638" lon="13.17056">
        <ele>9.239161</ele>
        <time>2020-07-15T15:09:08.267Z</time>
      </trkpt>
      <trkpt lat="66.25712" lon="13.17259">
        <ele>9.353061</ele>
        <time>2020-07-15T15:09:28.601Z</time>
      </trkpt>
      <trkpt lat="66.25756" lon="13.1738">
        <ele>9.028118</ele>
        <time>2020-07-15T15:09:39.054Z</time>
      </trkpt>
      <trkpt lat="66.25807" lon="13.17515">
        <ele>8.103452</ele>
        <time>2020-07-15T15:09:50.176Z</time>
      </trkpt>
      <trkpt lat="66.25879" lon="13.17652">
        <ele>7.019587</ele>
        <time>2020-07-15T15:10:03.463Z</time>
      </trkpt>
      <trkpt lat="66.25924" lon="13.17763">
        <ele>6.344955</ele>
        <time>2020-07-15T15:10:13.067Z</time>
      </trkpt>
      <trkpt lat="66.25977" lon="13.1789">
        <ele>5.568592</ele>
        <time>2020-07-15T15:10:24.420Z</time>
      </trkpt>
      <trkpt lat="66.25998" lon="13.17931">
        <ele>5.280894</ele>
        <time>2020-07-15T15:10:28.769Z</time>
      </trkpt>
      <trkpt lat="66.26019" lon="13.17966">
        <ele>5.220758</ele>
        <time>2020-07-15T15:10:32.842Z</time>
      </trkpt>
      <trkpt lat="66.26046" lon="13.18005">
        <ele>5.156254</ele>
        <time>2020-07-15T15:10:38.192Z</time>
      </trkpt>
      <trkpt lat="66.26074" lon="13.1804">
        <ele>5.093594</ele>
        <time>2020-07-15T15:10:43.557Z</time>
      </trkpt>
      <trkpt lat="66.26159" lon="13.18139">
        <ele>4.908932</ele>
        <time>2020-07-15T15:10:59.662Z</time>
      </trkpt>
      <trkpt lat="66.2616" lon="13.1814">
        <ele>4.917558</ele>
        <time>2020-07-15T15:10:59.849Z</time>
      </trkpt>
      <trkpt lat="66.26274" lon="13.18269">
        <ele>6.014213</ele>
        <time>2020-07-15T15:11:25.117Z</time>
      </trkpt>
      <trkpt lat="66.2631" lon="13.18311">
        <ele>6.363148</ele>
        <time>2020-07-15T15:11:34.103Z</time>
      </trkpt>
      <trkpt lat="66.2637" lon="13.18394">
        <ele>7.663196</ele>
        <time>2020-07-15T15:11:50.141Z</time>
      </trkpt>
      <trkpt lat="66.26483" lon="13.18613">
        <ele>10.868088</ele>
        <time>2020-07-15T15:12:26.041Z</time>
      </trkpt>
      <trkpt lat="66.26597" lon="13.18885">
        <ele>15.603912</ele>
        <time>2020-07-15T15:13:10.835Z</time>
      </trkpt>
      <trkpt lat="66.26621" lon="13.18942">
        <ele>16.238927</ele>
        <time>2020-07-15T15:13:19.850Z</time>
      </trkpt>
      <trkpt lat="66.26683" lon="13.19053">
        <ele>17.608052</ele>
        <time>2020-07-15T15:13:38.787Z</time>
      </trkpt>
      <trkpt lat="66.2669" lon="13.19066">
        <ele>17.762583</ele>
        <time>2020-07-15T15:13:40.820Z</time>
      </trkpt>
      <trkpt lat="66.26695" lon="13.19075">
        <ele>17.864362</ele>
        <time>2020-07-15T15:13:42.089Z</time>
      </trkpt>
      <trkpt lat="66.26733" lon="13.1916">
        <ele>18.773082</ele>
        <time>2020-07-15T15:13:53.276Z</time>
      </trkpt>
      <trkpt lat="66.26828" lon="13.19478">
        <ele>18.722489</ele>
        <time>2020-07-15T15:14:20.669Z</time>
      </trkpt>
      <trkpt lat="66.26876" lon="13.19604">
        <ele>18.386762</ele>
        <time>2020-07-15T15:14:32.086Z</time>
      </trkpt>
      <trkpt lat="66.26941" lon="13.19775">
        <ele>17.710484</ele>
        <time>2020-07-15T15:14:47.363Z</time>
      </trkpt>
      <trkpt lat="66.27007" lon="13.20093">
        <ele>16.57857</ele>
        <time>2020-07-15T15:15:09.965Z</time>
      </trkpt>
      <trkpt lat="66.27039" lon="13.20168">
        <ele>16.223308</ele>
        <time>2020-07-15T15:15:16.800Z</time>
      </trkpt>
      <trkpt lat="66.27241" lon="13.20553">
        <ele>15.555581</ele>
        <time>2020-07-15T15:15:58.337Z</time>
      </trkpt>
      <trkpt lat="66.27258" lon="13.20599">
        <ele>15.910376</ele>
        <time>2020-07-15T15:16:03.244Z</time>
      </trkpt>
      <trkpt lat="66.27272" lon="13.20659">
        <ele>16.304532</ele>
        <time>2020-07-15T15:16:08.922Z</time>
      </trkpt>
      <trkpt lat="66.27279" lon="13.20732">
        <ele>16.731778</ele>
        <time>2020-07-15T15:16:15.388Z</time>
      </trkpt>
      <trkpt lat="66.27279" lon="13.20799">
        <ele>17.114757</ele>
        <time>2020-07-15T15:16:21.440Z</time>
      </trkpt>
      <trkpt lat="66.27239" lon="13.21533">
        <ele>33.554346</ele>
        <time>2020-07-15T15:18:01.652Z</time>
      </trkpt>
      <trkpt lat="66.27222" lon="13.21792">
        <ele>42.987668</ele>
        <time>2020-07-15T15:18:59.604Z</time>
      </trkpt>
      <trkpt lat="66.27205" lon="13.21863">
        <ele>46.966073</ele>
        <time>2020-07-15T15:19:20.264Z</time>
      </trkpt>
      <trkpt lat="66.27153" lon="13.22007">
        <ele>56.307693</ele>
        <time>2020-07-15T15:20:08.263Z</time>
      </trkpt>
      <trkpt lat="66.27137" lon="13.22063">
        <ele>59.540003</ele>
        <time>2020-07-15T15:20:23.242Z</time>
      </trkpt>
      <trkpt lat="66.27109" lon="13.22256">
        <ele>66.726685</ele>
        <time>2020-07-15T15:21:00.384Z</time>
      </trkpt>
      <trkpt lat="66.271" lon="13.22373">
        <ele>70.164701</ele>
        <time>2020-07-15T15:21:20.264Z</time>
      </trkpt>
      <trkpt lat="66.27104" lon="13.22456">
        <ele>72.561748</ele>
        <time>2020-07-15T15:21:32.912Z</time>
      </trkpt>
      <trkpt lat="66.27128" lon="13.22681">
        <ele>78.705128</ele>
        <time>2020-07-15T15:22:05.123Z</time>
      </trkpt>
      <trkpt lat="66.27128" lon="13.22893">
        <ele>83.841559</ele>
        <time>2020-07-15T15:22:35.630Z</time>
      </trkpt>
      <trkpt lat="66.27132" lon="13.22916">
        <ele>84.421473</ele>
        <time>2020-07-15T15:22:40.153Z</time>
      </trkpt>
      <trkpt lat="66.27138" lon="13.22942">
        <ele>85.135866</ele>
        <time>2020-07-15T15:22:44.822Z</time>
      </trkpt>
      <trkpt lat="66.27143" lon="13.22956">
        <ele>85.607223</ele>
        <time>2020-07-15T15:22:47.272Z</time>
      </trkpt>
      <trkpt lat="66.27151" lon="13.22968">
        <ele>86.145322</ele>
        <time>2020-07-15T15:22:50.642Z</time>
      </trkpt>
      <trkpt lat="66.2716" lon="13.22976">
        <ele>86.869492</ele>
        <time>2020-07-15T15:22:55.877Z</time>
      </trkpt>
      <trkpt lat="66.27182" lon="13.22982">
        <ele>88.795857</ele>
        <time>2020-07-15T15:23:03.952Z</time>
      </trkpt>
      <trkpt lat="66.27242" lon="13.22954">
        <ele>94.123743</ele>
        <time>2020-07-15T15:23:31.979Z</time>
      </trkpt>
      <trkpt lat="66.27264" lon="13.22928">
        <ele>96.248391</ele>
        <time>2020-07-15T15:23:44.371Z</time>
      </trkpt>
      <trkpt lat="66.27304" lon="13.22854">
        <ele>100.551771</ele>
        <time>2020-07-15T15:24:08.428Z</time>
      </trkpt>
      <trkpt lat="66.27326" lon="13.22841">
        <ele>102.588107</ele>
        <time>2020-07-15T15:24:19.043Z</time>
      </trkpt>
      <trkpt lat="66.27342" lon="13.22849">
        <ele>104.070864</ele>
        <time>2020-07-15T15:24:26.638Z</time>
      </trkpt>
      <trkpt lat="66.27361" lon="13.22884">
        <ele>106.186258</ele>
        <time>2020-07-15T15:24:37.573Z</time>
      </trkpt>
      <trkpt lat="66.27398" lon="13.23056">
        <ele>113.274206</ele>
        <time>2020-07-15T15:25:14.836Z</time>
      </trkpt>
      <trkpt lat="66.27476" lon="13.23287">
        <ele>123.503812</ele>
        <time>2020-07-15T15:26:10.535Z</time>
      </trkpt>
      <trkpt lat="66.27498" lon="13.23326">
        <ele>125.655423</ele>
        <time>2020-07-15T15:26:22.369Z</time>
      </trkpt>
      <trkpt lat="66.2754" lon="13.23361">
        <ele>129.114323</ele>
        <time>2020-07-15T15:26:40.807Z</time>
      </trkpt>
      <trkpt lat="66.27553" lon="13.23395">
        <ele>130.599126</ele>
        <time>2020-07-15T15:26:48.564Z</time>
      </trkpt>
      <trkpt lat="66.27553" lon="13.23436">
        <ele>131.905935</ele>
        <time>2020-07-15T15:26:55.340Z</time>
      </trkpt>
      <trkpt lat="66.27538" lon="13.23466">
        <ele>133.334609</ele>
        <time>2020-07-15T15:27:02.985Z</time>
      </trkpt>
      <trkpt lat="66.27439" lon="13.23504">
        <ele>140.550916</ele>
        <time>2020-07-15T15:27:42.474Z</time>
      </trkpt>
      <trkpt lat="66.27408" lon="13.23533">
        <ele>142.931775</ele>
        <time>2020-07-15T15:27:55.836Z</time>
      </trkpt>
      <trkpt lat="66.27383" lon="13.23602">
        <ele>145.642072</ele>
        <time>2020-07-15T15:28:11.575Z</time>
      </trkpt>
      <trkpt lat="66.27368" lon="13.23692">
        <ele>149.497131</ele>
        <time>2020-07-15T15:28:29.046Z</time>
      </trkpt>
      <trkpt lat="66.27368" lon="13.23844">
        <ele>155.518051</ele>
        <time>2020-07-15T15:28:58.542Z</time>
      </trkpt>
      <trkpt lat="66.27354" lon="13.23974">
        <ele>160.828382</ele>
        <time>2020-07-15T15:29:26.625Z</time>
      </trkpt>
      <trkpt lat="66.27352" lon="13.24057">
        <ele>164.378392</ele>
        <time>2020-07-15T15:29:45.094Z</time>
      </trkpt>
      <trkpt lat="66.27371" lon="13.24201">
        <ele>171.94319</ele>
        <time>2020-07-15T15:30:19.903Z</time>
      </trkpt>
      <trkpt lat="66.27429" lon="13.24465">
        <ele>186.892838</ele>
        <time>2020-07-15T15:31:31.835Z</time>
      </trkpt>
      <trkpt lat="66.27444" lon="13.24562">
        <ele>191.374997</ele>
        <time>2020-07-15T15:31:56.384Z</time>
      </trkpt>
      <trkpt lat="66.27446" lon="13.24656">
        <ele>195.403533</ele>
        <time>2020-07-15T15:32:18.100Z</time>
      </trkpt>
      <trkpt lat="66.27433" lon="13.24878">
        <ele>204.986099</ele>
        <time>2020-07-15T15:33:01.783Z</time>
      </trkpt>
      <trkpt lat="66.27438" lon="13.24917">
        <ele>205.818708</ele>
        <time>2020-07-15T15:33:08.203Z</time>
      </trkpt>
      <trkpt lat="66.27441" lon="13.24928">
        <ele>206.090164</ele>
        <time>2020-07-15T15:33:12.952Z</time>
      </trkpt>
      <trkpt lat="66.27446" lon="13.24935">
        <ele>206.35457</ele>
        <time>2020-07-15T15:33:13.621Z</time>
      </trkpt>
      <trkpt lat="66.27461" lon="13.24944">
        <ele>207.137528</ele>
        <time>2020-07-15T15:33:18.827Z</time>
      </trkpt>
      <trkpt lat="66.27527" lon="13.24904">
        <ele>210.51218</ele>
        <time>2020-07-15T15:33:41.263Z</time>
      </trkpt>
      <trkpt lat="66.27603" lon="13.24898">
        <ele>214.342294</ele>
        <time>2020-07-15T15:34:03.051Z</time>
      </trkpt>
      <trkpt lat="66.2763" lon="13.24904">
        <ele>215.67976</ele>
        <time>2020-07-15T15:34:09.589Z</time>
      </trkpt>
      <trkpt lat="66.2769" lon="13.24945">
        <ele>218.895687</ele>
        <time>2020-07-15T15:34:27.280Z</time>
      </trkpt>
      <trkpt lat="66.27718" lon="13.24947">
        <ele>220.303994</ele>
        <time>2020-07-15T15:34:36.661Z</time>
      </trkpt>
      <trkpt lat="66.27743" lon="13.24929">
        <ele>221.618876</ele>
        <time>2020-07-15T15:34:47.752Z</time>
      </trkpt>
      <trkpt lat="66.27766" lon="13.24894">
        <ele>222.987848</ele>
        <time>2020-07-15T15:34:59.784Z</time>
      </trkpt>
      <trkpt lat="66.27783" lon="13.24846">
        <ele>225.349314</ele>
        <time>2020-07-15T15:35:12.044Z</time>
      </trkpt>
      <trkpt lat="66.27798" lon="13.24779">
        <ele>228.193989</ele>
        <time>2020-07-15T15:35:26.809Z</time>
      </trkpt>
      <trkpt lat="66.27808" lon="13.24704">
        <ele>231.14316</ele>
        <time>2020-07-15T15:35:42.487Z</time>
      </trkpt>
      <trkpt lat="66.27821" lon="13.24618">
        <ele>234.591325</ele>
        <time>2020-07-15T15:36:00.708Z</time>
      </trkpt>
      <trkpt lat="66.27832" lon="13.24589">
        <ele>236.039468</ele>
        <time>2020-07-15T15:36:08.288Z</time>
      </trkpt>
      <trkpt lat="66.27851" lon="13.24577">
        <ele>237.871155</ele>
        <time>2020-07-15T15:36:17.727Z</time>
      </trkpt>
      <trkpt lat="66.27863" lon="13.24589">
        <ele>239.069175</ele>
        <time>2020-07-15T15:36:23.937Z</time>
      </trkpt>
      <trkpt lat="66.27871" lon="13.24622">
        <ele>240.37988</ele>
        <time>2020-07-15T15:36:31.452Z</time>
      </trkpt>
      <trkpt lat="66.27864" lon="13.24777">
        <ele>245.096613</ele>
        <time>2020-07-15T15:37:01.158Z</time>
      </trkpt>
      <trkpt lat="66.27866" lon="13.24987">
        <ele>251.456177</ele>
        <time>2020-07-15T15:37:33.252Z</time>
      </trkpt>
      <trkpt lat="66.27857" lon="13.25232">
        <ele>259.306205</ele>
        <time>2020-07-15T15:38:11.088Z</time>
      </trkpt>
      <trkpt lat="66.27869" lon="13.25328">
        <ele>262.59755</ele>
        <time>2020-07-15T15:38:30.191Z</time>
      </trkpt>
      <trkpt lat="66.2791" lon="13.25482">
        <ele>268.719416</ele>
        <time>2020-07-15T15:39:05.889Z</time>
      </trkpt>
      <trkpt lat="66.2793" lon="13.25587">
        <ele>272.994469</ele>
        <time>2020-07-15T15:39:28.782Z</time>
      </trkpt>
      <trkpt lat="66.2794" lon="13.25647">
        <ele>275.364587</ele>
        <time>2020-07-15T15:39:41.286Z</time>
      </trkpt>
      <trkpt lat="66.27954" lon="13.25705">
        <ele>277.838805</ele>
        <time>2020-07-15T15:39:54.328Z</time>
      </trkpt>
      <trkpt lat="66.27976" lon="13.25767">
        <ele>280.932715</ele>
        <time>2020-07-15T15:40:10.517Z</time>
      </trkpt>
      <trkpt lat="66.2812" lon="13.26089">
        <ele>297.295283</ele>
        <time>2020-07-15T15:41:35.799Z</time>
      </trkpt>
      <trkpt lat="66.28136" lon="13.26142">
        <ele>299.506349</ele>
        <time>2020-07-15T15:41:47.506Z</time>
      </trkpt>
      <trkpt lat="66.28147" lon="13.26189">
        <ele>301.441599</ele>
        <time>2020-07-15T15:41:57.469Z</time>
      </trkpt>
      <trkpt lat="66.28164" lon="13.26305">
        <ele>305.927127</ele>
        <time>2020-07-15T15:42:19.855Z</time>
      </trkpt>
      <trkpt lat="66.28173" lon="13.26458">
        <ele>311.530677</ele>
        <time>2020-07-15T15:42:50.067Z</time>
      </trkpt>
      <trkpt lat="66.28169" lon="13.26549">
        <ele>314.811961</ele>
        <time>2020-07-15T15:43:08.407Z</time>
      </trkpt>
      <trkpt lat="66.28157" lon="13.26616">
        <ele>317.194313</ele>
        <time>2020-07-15T15:43:21.970Z</time>
      </trkpt>
      <trkpt lat="66.28111" lon="13.26757">
        <ele>322.913468</ele>
        <time>2020-07-15T15:43:54.551Z</time>
      </trkpt>
      <trkpt lat="66.28093" lon="13.26818">
        <ele>325.32386</ele>
        <time>2020-07-15T15:44:07.730Z</time>
      </trkpt>
      <trkpt lat="66.28085" lon="13.26858">
        <ele>326.717454</ele>
        <time>2020-07-15T15:44:14.965Z</time>
      </trkpt>
      <trkpt lat="66.28078" lon="13.26929">
        <ele>329.008456</ele>
        <time>2020-07-15T15:44:26.612Z</time>
      </trkpt>
      <trkpt lat="66.28082" lon="13.26986">
        <ele>330.167779</ele>
        <time>2020-07-15T15:44:35.754Z</time>
      </trkpt>
      <trkpt lat="66.28093" lon="13.2704">
        <ele>331.183747</ele>
        <time>2020-07-15T15:44:44.658Z</time>
      </trkpt>
      <trkpt lat="66.28293" lon="13.27654">
        <ele>342.482124</ele>
        <time>2020-07-15T15:46:14.467Z</time>
      </trkpt>
      <trkpt lat="66.2837" lon="13.27987">
        <ele>344.996565</ele>
        <time>2020-07-15T15:46:51.319Z</time>
      </trkpt>
      <trkpt lat="66.28412" lon="13.28175">
        <ele>344.163272</ele>
        <time>2020-07-15T15:47:06.813Z</time>
      </trkpt>
      <trkpt lat="66.28511" lon="13.28598">
        <ele>337.227875</ele>
        <time>2020-07-15T15:47:32.417Z</time>
      </trkpt>
      <trkpt lat="66.28541" lon="13.287">
        <ele>334.289311</ele>
        <time>2020-07-15T15:47:38.258Z</time>
      </trkpt>
      <trkpt lat="66.2859" lon="13.288">
        <ele>330.172675</ele>
        <time>2020-07-15T15:47:45.413Z</time>
      </trkpt>
      <trkpt lat="66.28681" lon="13.28893">
        <ele>321.210106</ele>
        <time>2020-07-15T15:47:56.330Z</time>
      </trkpt>
      <trkpt lat="66.28706" lon="13.28939">
        <ele>318.410766</ele>
        <time>2020-07-15T15:47:59.732Z</time>
      </trkpt>
      <trkpt lat="66.28735" lon="13.29027">
        <ele>314.045107</ele>
        <time>2020-07-15T15:48:04.752Z</time>
      </trkpt>
      <trkpt lat="66.28758" lon="13.29124">
        <ele>308.735957</ele>
        <time>2020-07-15T15:48:09.710Z</time>
      </trkpt>
      <trkpt lat="66.28775" lon="13.29239">
        <ele>302.982027</ele>
        <time>2020-07-15T15:48:15.047Z</time>
      </trkpt>
      <trkpt lat="66.28778" lon="13.2931">
        <ele>299.600811</ele>
        <time>2020-07-15T15:48:18.164Z</time>
      </trkpt>
      <trkpt lat="66.28769" lon="13.29574">
        <ele>285.86758</ele>
        <time>2020-07-15T15:48:29.265Z</time>
      </trkpt>
      <trkpt lat="66.28772" lon="13.2963">
        <ele>282.726573</ele>
        <time>2020-07-15T15:48:31.616Z</time>
      </trkpt>
      <trkpt lat="66.28788" lon="13.29724">
        <ele>277.052598</ele>
        <time>2020-07-15T15:48:35.907Z</time>
      </trkpt>
      <trkpt lat="66.28801" lon="13.29774">
        <ele>273.782028</ele>
        <time>2020-07-15T15:48:38.361Z</time>
      </trkpt>
      <trkpt lat="66.28823" lon="13.2987">
        <ele>268.727913</ele>
        <time>2020-07-15T15:48:43.210Z</time>
      </trkpt>
      <trkpt lat="66.28859" lon="13.30023">
        <ele>266.612485</ele>
        <time>2020-07-15T15:48:51.248Z</time>
      </trkpt>
      <trkpt lat="66.28916" lon="13.30263">
        <ele>264.686111</ele>
        <time>2020-07-15T15:49:15.691Z</time>
      </trkpt>
      <trkpt lat="66.29137" lon="13.31226">
        <ele>296.506761</ele>
        <time>2020-07-15T15:52:27.778Z</time>
      </trkpt>
      <trkpt lat="66.29159" lon="13.31344">
        <ele>299.943427</ele>
        <time>2020-07-15T15:52:46.784Z</time>
      </trkpt>
      <trkpt lat="66.2917" lon="13.31472">
        <ele>302.458986</ele>
        <time>2020-07-15T15:53:04.108Z</time>
      </trkpt>
      <trkpt lat="66.29165" lon="13.31787">
        <ele>306.072178</ele>
        <time>2020-07-15T15:53:37.171Z</time>
      </trkpt>
      <trkpt lat="66.29174" lon="13.31907">
        <ele>307.271714</ele>
        <time>2020-07-15T15:53:47.860Z</time>
      </trkpt>
      <trkpt lat="66.29227" lon="13.32261">
        <ele>310.17771</ele>
        <time>2020-07-15T15:54:23.666Z</time>
      </trkpt>
      <trkpt lat="66.29283" lon="13.3248">
        <ele>312.813556</ele>
        <time>2020-07-15T15:54:51.956Z</time>
      </trkpt>
      <trkpt lat="66.29296" lon="13.32549">
        <ele>313.599739</ele>
        <time>2020-07-15T15:55:00.665Z</time>
      </trkpt>
      <trkpt lat="66.2938" lon="13.3312">
        <ele>318.435796</ele>
        <time>2020-07-15T15:56:00.544Z</time>
      </trkpt>
      <trkpt lat="66.29444" lon="13.33458">
        <ele>318.975977</ele>
        <time>2020-07-15T15:56:27.554Z</time>
      </trkpt>
      <trkpt lat="66.29504" lon="13.33863">
        <ele>319.160124</ele>
        <time>2020-07-15T15:56:58.905Z</time>
      </trkpt>
      <trkpt lat="66.29625" lon="13.35054">
        <ele>317.35792</ele>
        <time>2020-07-15T15:58:27.061Z</time>
      </trkpt>
      <trkpt lat="66.29688" lon="13.35598">
        <ele>309.906818</ele>
        <time>2020-07-15T15:58:55.679Z</time>
      </trkpt>
      <trkpt lat="66.29775" lon="13.36272">
        <ele>298.642041</ele>
        <time>2020-07-15T15:59:31.565Z</time>
      </trkpt>
      <trkpt lat="66.29788" lon="13.36422">
        <ele>296.28585</ele>
        <time>2020-07-15T15:59:39.528Z</time>
      </trkpt>
      <trkpt lat="66.2979" lon="13.36641">
        <ele>292.209249</ele>
        <time>2020-07-15T15:59:50.695Z</time>
      </trkpt>
      <trkpt lat="66.29769" lon="13.37209">
        <ele>279.481589</ele>
        <time>2020-07-15T16:00:17.892Z</time>
      </trkpt>
      <trkpt lat="66.29784" lon="13.37518">
        <ele>271.713597</ele>
        <time>2020-07-15T16:00:32.438Z</time>
      </trkpt>
      <trkpt lat="66.29793" lon="13.37891">
        <ele>261.908414</ele>
        <time>2020-07-15T16:00:49.970Z</time>
      </trkpt>
      <trkpt lat="66.29785" lon="13.38288">
        <ele>250.610202</ele>
        <time>2020-07-15T16:01:08.397Z</time>
      </trkpt>
      <trkpt lat="66.29812" lon="13.40207">
        <ele>180.694248</ele>
        <time>2020-07-15T16:02:33.975Z</time>
      </trkpt>
      <trkpt lat="66.29825" lon="13.40349">
        <ele>174.282935</ele>
        <time>2020-07-15T16:02:40.250Z</time>
      </trkpt>
      <trkpt lat="66.29846" lon="13.40471">
        <ele>168.430647</ele>
        <time>2020-07-15T16:02:45.945Z</time>
      </trkpt>
      <trkpt lat="66.29958" lon="13.40844">
        <ele>148.521938</ele>
        <time>2020-07-15T16:03:06.148Z</time>
      </trkpt>
      <trkpt lat="66.29978" lon="13.40923">
        <ele>146.078266</ele>
        <time>2020-07-15T16:03:10.359Z</time>
      </trkpt>
      <trkpt lat="66.29993" lon="13.41015">
        <ele>144.035603</ele>
        <time>2020-07-15T16:03:15.022Z</time>
      </trkpt>
      <trkpt lat="66.30004" lon="13.41119">
        <ele>141.822148</ele>
        <time>2020-07-15T16:03:20.284Z</time>
      </trkpt>
      <trkpt lat="66.30009" lon="13.41231">
        <ele>139.48806</ele>
        <time>2020-07-15T16:03:26.166Z</time>
      </trkpt>
      <trkpt lat="66.30007" lon="13.41634">
        <ele>135.596834</ele>
        <time>2020-07-15T16:03:49.376Z</time>
      </trkpt>
      <trkpt lat="66.29986" lon="13.41895">
        <ele>133.217613</ele>
        <time>2020-07-15T16:04:04.865Z</time>
      </trkpt>
      <trkpt lat="66.2994" lon="13.42212">
        <ele>129.249817</ele>
        <time>2020-07-15T16:04:23.252Z</time>
      </trkpt>
      <trkpt lat="66.2991" lon="13.42388">
        <ele>124.805402</ele>
        <time>2020-07-15T16:04:32.679Z</time>
      </trkpt>
      <trkpt lat="66.29876" lon="13.42508">
        <ele>121.394908</ele>
        <time>2020-07-15T16:04:39.496Z</time>
      </trkpt>
      <trkpt lat="66.29844" lon="13.42574">
        <ele>118.053486</ele>
        <time>2020-07-15T16:04:44.141Z</time>
      </trkpt>
      <trkpt lat="66.29803" lon="13.42624">
        <ele>113.076005</ele>
        <time>2020-07-15T16:04:49.130Z</time>
      </trkpt>
      <trkpt lat="66.2977" lon="13.42643">
        <ele>109.358584</ele>
        <time>2020-07-15T16:04:52.797Z</time>
      </trkpt>
      <trkpt lat="66.2966" lon="13.42669">
        <ele>97.878625</ele>
        <time>2020-07-15T16:05:04.418Z</time>
      </trkpt>
      <trkpt lat="66.2962" lon="13.42703">
        <ele>93.996982</ele>
        <time>2020-07-15T16:05:09.080Z</time>
      </trkpt>
      <trkpt lat="66.29586" lon="13.4275">
        <ele>90.561426</ele>
        <time>2020-07-15T16:05:13.310Z</time>
      </trkpt>
      <trkpt lat="66.29577" lon="13.42766">
        <ele>89.549208</ele>
        <time>2020-07-15T16:05:14.509Z</time>
      </trkpt>
      <trkpt lat="66.29563" lon="13.42796">
        <ele>87.905468</ele>
        <time>2020-07-15T16:05:16.726Z</time>
      </trkpt>
      <trkpt lat="66.29559" lon="13.42807">
        <ele>87.33716</ele>
        <time>2020-07-15T16:05:17.476Z</time>
      </trkpt>
      <trkpt lat="66.29543" lon="13.42851">
        <ele>85.192632</ele>
        <time>2020-07-15T16:05:20.228Z</time>
      </trkpt>
      <trkpt lat="66.29537" lon="13.42872">
        <ele>84.271957</ele>
        <time>2020-07-15T16:05:21.503Z</time>
      </trkpt>
      <trkpt lat="66.29532" lon="13.42892">
        <ele>84.012807</ele>
        <time>2020-07-15T16:05:22.608Z</time>
      </trkpt>
      <trkpt lat="66.29523" lon="13.42927">
        <ele>83.693254</ele>
        <time>2020-07-15T16:05:24.791Z</time>
      </trkpt>
      <trkpt lat="66.29515" lon="13.42981">
        <ele>83.25824</ele>
        <time>2020-07-15T16:05:27.545Z</time>
      </trkpt>
      <trkpt lat="66.29509" lon="13.43128">
        <ele>82.121891</ele>
        <time>2020-07-15T16:05:36.513Z</time>
      </trkpt>
      <trkpt lat="66.29515" lon="13.43275">
        <ele>80.989916</ele>
        <time>2020-07-15T16:05:48.726Z</time>
      </trkpt>
      <trkpt lat="66.2953" lon="13.43403">
        <ele>80.619009</ele>
        <time>2020-07-15T16:05:57.480Z</time>
      </trkpt>
      <trkpt lat="66.29573" lon="13.43607">
        <ele>80.330942</ele>
        <time>2020-07-15T16:06:13.664Z</time>
      </trkpt>
      <trkpt lat="66.29581" lon="13.43645">
        <ele>80.277169</ele>
        <time>2020-07-15T16:06:16.208Z</time>
      </trkpt>
      <trkpt lat="66.29584" lon="13.43657">
        <ele>80.260505</ele>
        <time>2020-07-15T16:06:17.496Z</time>
      </trkpt>
      <trkpt lat="66.29596" lon="13.43732">
        <ele>79.893771</ele>
        <time>2020-07-15T16:06:22.635Z</time>
      </trkpt>
      <trkpt lat="66.29603" lon="13.4381">
        <ele>78.84931</ele>
        <time>2020-07-15T16:06:27.641Z</time>
      </trkpt>
      <trkpt lat="66.29605" lon="13.43904">
        <ele>77.621046</ele>
        <time>2020-07-15T16:06:33.461Z</time>
      </trkpt>
      <trkpt lat="66.29599" lon="13.43994">
        <ele>76.429315</ele>
        <time>2020-07-15T16:06:39.013Z</time>
      </trkpt>
      <trkpt lat="66.29579" lon="13.44113">
        <ele>74.740164</ele>
        <time>2020-07-15T16:06:45.361Z</time>
      </trkpt>
      <trkpt lat="66.29517" lon="13.4433">
        <ele>63.541271</ele>
        <time>2020-07-15T16:06:57.068Z</time>
      </trkpt>
      <trkpt lat="66.29512" lon="13.44358">
        <ele>62.151284</ele>
        <time>2020-07-15T16:06:58.359Z</time>
      </trkpt>
      <trkpt lat="66.2951" lon="13.44374">
        <ele>61.363936</ele>
        <time>2020-07-15T16:06:59.114Z</time>
      </trkpt>
      <trkpt lat="66.29508" lon="13.44388">
        <ele>60.729225</ele>
        <time>2020-07-15T16:06:59.681Z</time>
      </trkpt>
      <trkpt lat="66.29505" lon="13.44507">
        <ele>55.262817</ele>
        <time>2020-07-15T16:07:04.773Z</time>
      </trkpt>
      <trkpt lat="66.29518" lon="13.44616">
        <ele>50.062548</ele>
        <time>2020-07-15T16:07:09.601Z</time>
      </trkpt>
      <trkpt lat="66.29543" lon="13.44699">
        <ele>45.419498</ele>
        <time>2020-07-15T16:07:13.936Z</time>
      </trkpt>
      <trkpt lat="66.29611" lon="13.44827">
        <ele>35.936704</ele>
        <time>2020-07-15T16:07:23.160Z</time>
      </trkpt>
      <trkpt lat="66.29632" lon="13.44882">
        <ele>33.399515</ele>
        <time>2020-07-15T16:07:26.704Z</time>
      </trkpt>
      <trkpt lat="66.29647" lon="13.44959">
        <ele>32.307582</ele>
        <time>2020-07-15T16:07:30.886Z</time>
      </trkpt>
      <trkpt lat="66.29671" lon="13.45173">
        <ele>29.461911</ele>
        <time>2020-07-15T16:07:43.224Z</time>
      </trkpt>
      <trkpt lat="66.29696" lon="13.45266">
        <ele>28.027469</ele>
        <time>2020-07-15T16:07:50.545Z</time>
      </trkpt>
      <trkpt lat="66.2973" lon="13.45331">
        <ele>26.606076</ele>
        <time>2020-07-15T16:07:57.816Z</time>
      </trkpt>
      <trkpt lat="66.29768" lon="13.45367">
        <ele>25.268832</ele>
        <time>2020-07-15T16:08:03.178Z</time>
      </trkpt>
      <trkpt lat="66.29893" lon="13.45382">
        <ele>20.437106</ele>
        <time>2020-07-15T16:08:18.610Z</time>
      </trkpt>
      <trkpt lat="66.29901" lon="13.45385">
        <ele>19.952889</ele>
        <time>2020-07-15T16:08:19.510Z</time>
      </trkpt>
      <trkpt lat="66.29909" lon="13.4539">
        <ele>19.475158</ele>
        <time>2020-07-15T16:08:20.419Z</time>
      </trkpt>
      <trkpt lat="66.29941" lon="13.45427">
        <ele>17.352666</ele>
        <time>2020-07-15T16:08:24.607Z</time>
      </trkpt>
      <trkpt lat="66.29963" lon="13.45479">
        <ele>15.570381</ele>
        <time>2020-07-15T16:08:28.122Z</time>
      </trkpt>
      <trkpt lat="66.29979" lon="13.4555">
        <ele>13.649766</ele>
        <time>2020-07-15T16:08:31.918Z</time>
      </trkpt>
      <trkpt lat="66.2999" lon="13.45648">
        <ele>11.381142</ele>
        <time>2020-07-15T16:08:36.678Z</time>
      </trkpt>
      <trkpt lat="66.30003" lon="13.45792">
        <ele>9.90348</ele>
        <time>2020-07-15T16:08:44.224Z</time>
      </trkpt>
      <trkpt lat="66.30003" lon="13.45793">
        <ele>9.889208</ele>
        <time>2020-07-15T16:08:44.286Z</time>
      </trkpt>
      <trkpt lat="66.30027" lon="13.4605">
        <ele>7.243725</ele>
        <time>2020-07-15T16:08:59.676Z</time>
      </trkpt>
      <trkpt lat="66.3003" lon="13.46106">
        <ele>7.181517</ele>
        <time>2020-07-15T16:09:03.406Z</time>
      </trkpt>
      <trkpt lat="66.30034" lon="13.4617">
        <ele>7.541321</ele>
        <time>2020-07-15T16:09:08.351Z</time>
      </trkpt>
      <trkpt lat="66.30035" lon="13.46214">
        <ele>7.787528</ele>
        <time>2020-07-15T16:09:12.884Z</time>
      </trkpt>
      <trkpt lat="66.30038" lon="13.46513">
        <ele>9.457384</ele>
        <time>2020-07-15T16:09:41.755Z</time>
      </trkpt>
      <trkpt lat="66.30039" lon="13.46534">
        <ele>9.608811</ele>
        <time>2020-07-15T16:09:44.240Z</time>
      </trkpt>
      <trkpt lat="66.30041" lon="13.46553">
        <ele>9.767236</ele>
        <time>2020-07-15T16:09:46.586Z</time>
      </trkpt>
      <trkpt lat="66.30056" lon="13.46688">
        <ele>10.902494</ele>
        <time>2020-07-15T16:10:00.140Z</time>
      </trkpt>
      <trkpt lat="66.30116" lon="13.47064">
        <ele>14.370392</ele>
        <time>2020-07-15T16:10:39.259Z</time>
      </trkpt>
      <trkpt lat="66.30153" lon="13.4738">
        <ele>17.497402</ele>
        <time>2020-07-15T16:11:13.629Z</time>
      </trkpt>
      <trkpt lat="66.30176" lon="13.47578">
        <ele>19.347582</ele>
        <time>2020-07-15T16:11:35.588Z</time>
      </trkpt>
      <trkpt lat="66.30189" lon="13.47684">
        <ele>20.333801</ele>
        <time>2020-07-15T16:11:46.638Z</time>
      </trkpt>
      <trkpt lat="66.30201" lon="13.47789">
        <ele>21.31057</ele>
        <time>2020-07-15T16:11:57.141Z</time>
      </trkpt>
      <trkpt lat="66.30207" lon="13.47834">
        <ele>21.46444</ele>
        <time>2020-07-15T16:12:01.502Z</time>
      </trkpt>
      <trkpt lat="66.30216" lon="13.4789">
        <ele>21.580765</ele>
        <time>2020-07-15T16:12:06.659Z</time>
      </trkpt>
      <trkpt lat="66.30226" lon="13.47955">
        <ele>21.716306</ele>
        <time>2020-07-15T16:12:12.358Z</time>
      </trkpt>
      <trkpt lat="66.3024" lon="13.48048">
        <ele>21.910114</ele>
        <time>2020-07-15T16:12:19.999Z</time>
      </trkpt>
      <trkpt lat="66.30269" lon="13.48332">
        <ele>21.971028</ele>
        <time>2020-07-15T16:12:40.343Z</time>
      </trkpt>
      <trkpt lat="66.30274" lon="13.48393">
        <ele>21.809804</ele>
        <time>2020-07-15T16:12:44.620Z</time>
      </trkpt>
      <trkpt lat="66.30275" lon="13.48402">
        <ele>21.786231</ele>
        <time>2020-07-15T16:12:45.234Z</time>
      </trkpt>
      <trkpt lat="66.3029" lon="13.48587">
        <ele>21.302056</ele>
        <time>2020-07-15T16:12:57.439Z</time>
      </trkpt>
      <trkpt lat="66.3029" lon="13.48593">
        <ele>21.285543</ele>
        <time>2020-07-15T16:12:57.790Z</time>
      </trkpt>
      <trkpt lat="66.30341" lon="13.49127">
        <ele>18.262182</ele>
        <time>2020-07-15T16:13:30.502Z</time>
      </trkpt>
      <trkpt lat="66.30357" lon="13.49289">
        <ele>16.910555</ele>
        <time>2020-07-15T16:13:40.151Z</time>
      </trkpt>
      <trkpt lat="66.30358" lon="13.49294">
        <ele>16.868074</ele>
        <time>2020-07-15T16:13:40.388Z</time>
      </trkpt>
      <trkpt lat="66.30401" lon="13.49733">
        <ele>13.801732</ele>
        <time>2020-07-15T16:14:05.736Z</time>
      </trkpt>
      <trkpt lat="66.30403" lon="13.49763">
        <ele>13.641378</ele>
        <time>2020-07-15T16:14:07.512Z</time>
      </trkpt>
      <trkpt lat="66.30404" lon="13.49771">
        <ele>13.598372</ele>
        <time>2020-07-15T16:14:08.008Z</time>
      </trkpt>
      <trkpt lat="66.30409" lon="13.49833">
        <ele>13.262372</ele>
        <time>2020-07-15T16:14:12.050Z</time>
      </trkpt>
      <trkpt lat="66.30416" lon="13.49951">
        <ele>12.633475</ele>
        <time>2020-07-15T16:14:19.861Z</time>
      </trkpt>
      <trkpt lat="66.3041" lon="13.50046">
        <ele>12.794083</ele>
        <time>2020-07-15T16:14:26.743Z</time>
      </trkpt>
      <trkpt lat="66.30405" lon="13.50072">
        <ele>12.884672</ele>
        <time>2020-07-15T16:14:28.795Z</time>
      </trkpt>
      <trkpt lat="66.30401" lon="13.50096">
        <ele>12.966729</ele>
        <time>2020-07-15T16:14:30.901Z</time>
      </trkpt>
      <trkpt lat="66.30389" lon="13.50155">
        <ele>13.178027</ele>
        <time>2020-07-15T16:14:35.971Z</time>
      </trkpt>
      <trkpt lat="66.30375" lon="13.5022">
        <ele>13.412241</ele>
        <time>2020-07-15T16:14:42.477Z</time>
      </trkpt>
      <trkpt lat="66.30328" lon="13.50453">
        <ele>14.385358</ele>
        <time>2020-07-15T16:15:06.189Z</time>
      </trkpt>
      <trkpt lat="66.30311" lon="13.50542">
        <ele>14.864208</ele>
        <time>2020-07-15T16:15:15.142Z</time>
      </trkpt>
      <trkpt lat="66.30288" lon="13.50691">
        <ele>15.634984</ele>
        <time>2020-07-15T16:15:28.920Z</time>
      </trkpt>
      <trkpt lat="66.30264" lon="13.50979">
        <ele>16.719639</ele>
        <time>2020-07-15T16:15:53.191Z</time>
      </trkpt>
      <trkpt lat="66.30249" lon="13.51088">
        <ele>17.073622</ele>
        <time>2020-07-15T16:16:02.382Z</time>
      </trkpt>
      <trkpt lat="66.30198" lon="13.51336">
        <ele>17.924732</ele>
        <time>2020-07-15T16:16:25.153Z</time>
      </trkpt>
      <trkpt lat="66.30168" lon="13.51447">
        <ele>18.325064</ele>
        <time>2020-07-15T16:16:35.958Z</time>
      </trkpt>
      <trkpt lat="66.30161" lon="13.51469">
        <ele>18.413076</ele>
        <time>2020-07-15T16:16:38.358Z</time>
      </trkpt>
      <trkpt lat="66.30154" lon="13.51486">
        <ele>18.484385</ele>
        <time>2020-07-15T16:16:40.332Z</time>
      </trkpt>
      <trkpt lat="66.30133" lon="13.51536">
        <ele>18.700651</ele>
        <time>2020-07-15T16:16:46.127Z</time>
      </trkpt>
      <trkpt lat="66.30126" lon="13.51553">
        <ele>18.773543</ele>
        <time>2020-07-15T16:16:48.110Z</time>
      </trkpt>
      <trkpt lat="66.30106" lon="13.51601">
        <ele>18.963476</ele>
        <time>2020-07-15T16:16:53.849Z</time>
      </trkpt>
      <trkpt lat="66.30057" lon="13.51728">
        <ele>19.397019</ele>
        <time>2020-07-15T16:17:08.130Z</time>
      </trkpt>
      <trkpt lat="66.30016" lon="13.51863">
        <ele>19.812632</ele>
        <time>2020-07-15T16:17:21.433Z</time>
      </trkpt>
      <trkpt lat="66.30003" lon="13.5191">
        <ele>19.953177</ele>
        <time>2020-07-15T16:17:25.810Z</time>
      </trkpt>
      <trkpt lat="66.29991" lon="13.5196">
        <ele>20.020899</ele>
        <time>2020-07-15T16:17:30.216Z</time>
      </trkpt>
      <trkpt lat="66.2995" lon="13.52143">
        <ele>20.250987</ele>
        <time>2020-07-15T16:17:46.082Z</time>
      </trkpt>
      <trkpt lat="66.29926" lon="13.52252">
        <ele>20.387927</ele>
        <time>2020-07-15T16:17:55.469Z</time>
      </trkpt>
      <trkpt lat="66.29921" lon="13.52275">
        <ele>20.416838</ele>
        <time>2020-07-15T16:17:57.408Z</time>
      </trkpt>
      <trkpt lat="66.29888" lon="13.52427">
        <ele>20.409234</ele>
        <time>2020-07-15T16:18:09.970Z</time>
      </trkpt>
      <trkpt lat="66.29859" lon="13.52552">
        <ele>20.364979</ele>
        <time>2020-07-15T16:18:20.198Z</time>
      </trkpt>
      <trkpt lat="66.29849" lon="13.52588">
        <ele>20.352001</ele>
        <time>2020-07-15T16:18:23.135Z</time>
      </trkpt>
      <trkpt lat="66.29832" lon="13.52649">
        <ele>20.328929</ele>
        <time>2020-07-15T16:18:28.387Z</time>
      </trkpt>
      <trkpt lat="66.29817" lon="13.52701">
        <ele>20.278413</ele>
        <time>2020-07-15T16:18:32.731Z</time>
      </trkpt>
      <trkpt lat="66.29797" lon="13.52799">
        <ele>20.061769</ele>
        <time>2020-07-15T16:18:40.337Z</time>
      </trkpt>
      <trkpt lat="66.29795" lon="13.52815">
        <ele>20.02932</ele>
        <time>2020-07-15T16:18:41.441Z</time>
      </trkpt>
      <trkpt lat="66.29786" lon="13.52809">
        <ele>19.985525</ele>
        <time>2020-07-15T16:18:43.034Z</time>
      </trkpt>
      <trkpt lat="66.29786" lon="13.52816">
        <ele>19.972065</ele>
        <time>2020-07-15T16:18:43.515Z</time>
      </trkpt>
      <trkpt lat="66.29783" lon="13.52924">
        <ele>19.760108</ele>
        <time>2020-07-15T16:18:51.002Z</time>
      </trkpt>
      <trkpt lat="66.29782" lon="13.53176">
        <ele>18.997061</ele>
        <time>2020-07-15T16:19:08.085Z</time>
      </trkpt>
      <trkpt lat="66.29781" lon="13.53244">
        <ele>18.656095</ele>
        <time>2020-07-15T16:19:12.416Z</time>
      </trkpt>
      <trkpt lat="66.29774" lon="13.53471">
        <ele>17.510281</ele>
        <time>2020-07-15T16:19:26.713Z</time>
      </trkpt>
      <trkpt lat="66.29773" lon="13.53482">
        <ele>17.452482</ele>
        <time>2020-07-15T16:19:27.366Z</time>
      </trkpt>
      <trkpt lat="66.29767" lon="13.53539">
        <ele>17.153155</ele>
        <time>2020-07-15T16:19:30.964Z</time>
      </trkpt>
      <trkpt lat="66.29706" lon="13.54002">
        <ele>14.677087</ele>
        <time>2020-07-15T16:20:01.230Z</time>
      </trkpt>
      <trkpt lat="66.29626" lon="13.54625">
        <ele>15.005021</ele>
        <time>2020-07-15T16:20:51.158Z</time>
      </trkpt>
      <trkpt lat="66.29591" lon="13.54903">
        <ele>15.901231</ele>
        <time>2020-07-15T16:21:17.047Z</time>
      </trkpt>
      <trkpt lat="66.29586" lon="13.54957">
        <ele>16.171122</ele>
        <time>2020-07-15T16:21:22.235Z</time>
      </trkpt>
      <trkpt lat="66.29587" lon="13.54961">
        <ele>16.19909</ele>
        <time>2020-07-15T16:21:22.756Z</time>
      </trkpt>
      <trkpt lat="66.2959" lon="13.54964">
        <ele>16.232407</ele>
        <time>2020-07-15T16:21:23.378Z</time>
      </trkpt>
      <trkpt lat="66.29598" lon="13.54971">
        <ele>16.330067</ele>
        <time>2020-07-15T16:21:25.200Z</time>
      </trkpt>
      <trkpt lat="66.29599" lon="13.54962">
        <ele>16.374347</ele>
        <time>2020-07-15T16:21:26.221Z</time>
      </trkpt>
      <trkpt lat="66.29605" lon="13.54935">
        <ele>16.525581</ele>
        <time>2020-07-15T16:21:29.072Z</time>
      </trkpt>
      <trkpt lat="66.29614" lon="13.54925">
        <ele>16.640084</ele>
        <time>2020-07-15T16:21:31.232Z</time>
      </trkpt>
      <trkpt lat="66.29683" lon="13.5493">
        <ele>17.466453</ele>
        <time>2020-07-15T16:21:46.888Z</time>
      </trkpt>
      <trkpt lat="66.29756" lon="13.54938">
        <ele>17.983546</ele>
        <time>2020-07-15T16:22:02.740Z</time>
      </trkpt>
      <trkpt lat="66.29779" lon="13.54942">
        <ele>18.133982</ele>
        <time>2020-07-15T16:22:07.562Z</time>
      </trkpt>
      <trkpt lat="66.29788" lon="13.54945">
        <ele>18.188215</ele>
        <time>2020-07-15T16:22:09.333Z</time>
      </trkpt>
      <trkpt lat="66.29788" lon="13.54933">
        <ele>18.217439</ele>
        <time>2020-07-15T16:22:10.472Z</time>
      </trkpt>
      <trkpt lat="66.29788" lon="13.54926">
        <ele>18.235202</ele>
        <time>2020-07-15T16:22:11.142Z</time>
      </trkpt>
      <trkpt lat="66.29803" lon="13.54931">
        <ele>18.326727</ele>
        <time>2020-07-15T16:22:13.961Z</time>
      </trkpt>
      <trkpt lat="66.29813" lon="13.54935">
        <ele>18.391457</ele>
        <time>2020-07-15T16:22:15.967Z</time>
      </trkpt>
      <trkpt lat="66.29823" lon="13.5494">
        <ele>18.454325</ele>
        <time>2020-07-15T16:22:17.859Z</time>
      </trkpt>
      <trkpt lat="66.29871" lon="13.54969">
        <ele>18.700868</ele>
        <time>2020-07-15T16:22:27.254Z</time>
      </trkpt>
      <trkpt lat="66.29933" lon="13.55024">
        <ele>18.454752</ele>
        <time>2020-07-15T16:22:39.359Z</time>
      </trkpt>
      <trkpt lat="66.30296" lon="13.55435">
        <ele>15.544975</ele>
        <time>2020-07-15T16:23:44.747Z</time>
      </trkpt>
      <trkpt lat="66.30304" lon="13.55446">
        <ele>15.390413</ele>
        <time>2020-07-15T16:23:46.134Z</time>
      </trkpt>
      <trkpt lat="66.30318" lon="13.55462">
        <ele>15.136603</ele>
        <time>2020-07-15T16:23:48.006Z</time>
      </trkpt>
      <trkpt lat="66.30325" lon="13.55473">
        <ele>15.002742</ele>
        <time>2020-07-15T16:23:49.145Z</time>
      </trkpt>
      <trkpt lat="66.30331" lon="13.55482">
        <ele>14.886775</ele>
        <time>2020-07-15T16:23:50.177Z</time>
      </trkpt>
      <trkpt lat="66.30337" lon="13.55493">
        <ele>14.760345</ele>
        <time>2020-07-15T16:23:51.242Z</time>
      </trkpt>
      <trkpt lat="66.30346" lon="13.55513">
        <ele>14.564119</ele>
        <time>2020-07-15T16:23:52.643Z</time>
      </trkpt>
      <trkpt lat="66.30366" lon="13.55577">
        <ele>14.075892</ele>
        <time>2020-07-15T16:23:56.839Z</time>
      </trkpt>
      <trkpt lat="66.30381" lon="13.55682">
        <ele>13.422867</ele>
        <time>2020-07-15T16:24:02.606Z</time>
      </trkpt>
      <trkpt lat="66.30383" lon="13.55766">
        <ele>12.927681</ele>
        <time>2020-07-15T16:24:07.377Z</time>
      </trkpt>
      <trkpt lat="66.30379" lon="13.56004">
        <ele>12.185235</ele>
        <time>2020-07-15T16:24:24.908Z</time>
      </trkpt>
      <trkpt lat="66.30379" lon="13.56025">
        <ele>12.360258</ele>
        <time>2020-07-15T16:24:26.642Z</time>
      </trkpt>
      <trkpt lat="66.30379" lon="13.56078">
        <ele>12.817071</ele>
        <time>2020-07-15T16:24:32.417Z</time>
      </trkpt>
      <trkpt lat="66.30372" lon="13.56402">
        <ele>15.588664</ele>
        <time>2020-07-15T16:25:08.023Z</time>
      </trkpt>
      <trkpt lat="66.30377" lon="13.56503">
        <ele>15.71438</ele>
        <time>2020-07-15T16:25:17.280Z</time>
      </trkpt>
      <trkpt lat="66.3039" lon="13.56574">
        <ele>15.791511</ele>
        <time>2020-07-15T16:25:23.073Z</time>
      </trkpt>
      <trkpt lat="66.30411" lon="13.56635">
        <ele>15.869813</ele>
        <time>2020-07-15T16:25:28.654Z</time>
      </trkpt>
      <trkpt lat="66.30438" lon="13.56682">
        <ele>15.948654</ele>
        <time>2020-07-15T16:25:34.029Z</time>
      </trkpt>
      <trkpt lat="66.30462" lon="13.56704">
        <ele>16.012298</ele>
        <time>2020-07-15T16:25:38.731Z</time>
      </trkpt>
      <trkpt lat="66.30465" lon="13.56705">
        <ele>16.018728</ele>
        <time>2020-07-15T16:25:39.024Z</time>
      </trkpt>
      <trkpt lat="66.30479" lon="13.56709">
        <ele>16.052894</ele>
        <time>2020-07-15T16:25:41.278Z</time>
      </trkpt>
      <trkpt lat="66.30509" lon="13.56707">
        <ele>15.735245</ele>
        <time>2020-07-15T16:25:46.031Z</time>
      </trkpt>
      <trkpt lat="66.30552" lon="13.56681">
        <ele>15.250713</ele>
        <time>2020-07-15T16:25:52.678Z</time>
      </trkpt>
      <trkpt lat="66.30626" lon="13.56621">
        <ele>14.387663</ele>
        <time>2020-07-15T16:26:04.666Z</time>
      </trkpt>
      <trkpt lat="66.30712" lon="13.56551">
        <ele>12.281088</ele>
        <time>2020-07-15T16:26:18.359Z</time>
      </trkpt>
      <trkpt lat="66.30772" lon="13.56487">
        <ele>10.397408</ele>
        <time>2020-07-15T16:26:26.565Z</time>
      </trkpt>
      <trkpt lat="66.30779" lon="13.56477">
        <ele>10.167002</ele>
        <time>2020-07-15T16:26:27.608Z</time>
      </trkpt>
      <trkpt lat="66.30793" lon="13.56454">
        <ele>9.701849</ele>
        <time>2020-07-15T16:26:29.597Z</time>
      </trkpt>
      <trkpt lat="66.30823" lon="13.56391">
        <ele>8.668485</ele>
        <time>2020-07-15T16:26:34.692Z</time>
      </trkpt>
      <trkpt lat="66.30837" lon="13.56356">
        <ele>8.289066</ele>
        <time>2020-07-15T16:26:37.325Z</time>
      </trkpt>
      <trkpt lat="66.30849" lon="13.56319">
        <ele>7.920376</ele>
        <time>2020-07-15T16:26:39.801Z</time>
      </trkpt>
      <trkpt lat="66.30855" lon="13.56299">
        <ele>7.731142</ele>
        <time>2020-07-15T16:26:41.184Z</time>
      </trkpt>
      <trkpt lat="66.3086" lon="13.56281">
        <ele>7.562088</ele>
        <time>2020-07-15T16:26:42.315Z</time>
      </trkpt>
      <trkpt lat="66.30869" lon="13.56248">
        <ele>7.253571</ele>
        <time>2020-07-15T16:26:44.459Z</time>
      </trkpt>
      <trkpt lat="66.30873" lon="13.56231">
        <ele>7.108597</ele>
        <time>2020-07-15T16:26:45.510Z</time>
      </trkpt>
      <trkpt lat="66.30876" lon="13.5622">
        <ele>7.003066</ele>
        <time>2020-07-15T16:26:46.262Z</time>
      </trkpt>
      <trkpt lat="66.30877" lon="13.56214">
        <ele>6.951411</ele>
        <time>2020-07-15T16:26:46.838Z</time>
      </trkpt>
      <trkpt lat="66.30899" lon="13.56086">
        <ele>5.883175</ele>
        <time>2020-07-15T16:26:54.726Z</time>
      </trkpt>
      <trkpt lat="66.30928" lon="13.55788">
        <ele>6.887576</ele>
        <time>2020-07-15T16:27:22.879Z</time>
      </trkpt>
      <trkpt lat="66.30952" lon="13.55652">
        <ele>7.749519</ele>
        <time>2020-07-15T16:27:37.528Z</time>
      </trkpt>
      <trkpt lat="66.30958" lon="13.55625">
        <ele>7.926426</ele>
        <time>2020-07-15T16:27:40.767Z</time>
      </trkpt>
      <trkpt lat="66.30968" lon="13.55585">
        <ele>8.110362</ele>
        <time>2020-07-15T16:27:45.149Z</time>
      </trkpt>
      <trkpt lat="66.31047" lon="13.5532">
        <ele>8.919963</ele>
        <time>2020-07-15T16:28:12.662Z</time>
      </trkpt>
      <trkpt lat="66.31049" lon="13.55314">
        <ele>8.93811</ele>
        <time>2020-07-15T16:28:13.333Z</time>
      </trkpt>
      <trkpt lat="66.31057" lon="13.5527">
        <ele>9.059212</ele>
        <time>2020-07-15T16:28:16.393Z</time>
      </trkpt>
      <trkpt lat="66.31083" lon="13.55081">
        <ele>8.504851</ele>
        <time>2020-07-15T16:28:28.703Z</time>
      </trkpt>
      <trkpt lat="66.31096" lon="13.54964">
        <ele>8.040111</ele>
        <time>2020-07-15T16:28:36.076Z</time>
      </trkpt>
      <trkpt lat="66.31105" lon="13.54884">
        <ele>7.719816</ele>
        <time>2020-07-15T16:28:41.099Z</time>
      </trkpt>
      <trkpt lat="66.31128" lon="13.54751">
        <ele>7.472613</ele>
        <time>2020-07-15T16:28:50.382Z</time>
      </trkpt>
      <trkpt lat="66.31162" lon="13.54652">
        <ele>7.569364</ele>
        <time>2020-07-15T16:28:59.049Z</time>
      </trkpt>
      <trkpt lat="66.31246" lon="13.54452">
        <ele>7.849493</ele>
        <time>2020-07-15T16:29:22.898Z</time>
      </trkpt>
      <trkpt lat="66.31308" lon="13.54306">
        <ele>8.344612</ele>
        <time>2020-07-15T16:29:40.493Z</time>
      </trkpt>
      <trkpt lat="66.31323" lon="13.54269">
        <ele>8.467005</ele>
        <time>2020-07-15T16:29:44.854Z</time>
      </trkpt>
      <trkpt lat="66.31334" lon="13.54243">
        <ele>8.552784</ele>
        <time>2020-07-15T16:29:47.587Z</time>
      </trkpt>
      <trkpt lat="66.31372" lon="13.54123">
        <ele>8.763824</ele>
        <time>2020-07-15T16:29:58.874Z</time>
      </trkpt>
      <trkpt lat="66.31413" lon="13.53919">
        <ele>8.599495</ele>
        <time>2020-07-15T16:30:14.520Z</time>
      </trkpt>
      <trkpt lat="66.31435" lon="13.53792">
        <ele>8.499368</ele>
        <time>2020-07-15T16:30:23.623Z</time>
      </trkpt>
      <trkpt lat="66.31438" lon="13.53773">
        <ele>8.484603</ele>
        <time>2020-07-15T16:30:25.207Z</time>
      </trkpt>
      <trkpt lat="66.31463" lon="13.53618">
        <ele>8.751602</ele>
        <time>2020-07-15T16:30:37.210Z</time>
      </trkpt>
      <trkpt lat="66.31476" lon="13.5344">
        <ele>9.078723</ele>
        <time>2020-07-15T16:30:51.299Z</time>
      </trkpt>
      <trkpt lat="66.31479" lon="13.53403">
        <ele>9.146968</ele>
        <time>2020-07-15T16:30:54.581Z</time>
      </trkpt>
      <trkpt lat="66.31484" lon="13.53362">
        <ele>9.22337</ele>
        <time>2020-07-15T16:30:57.947Z</time>
      </trkpt>
      <trkpt lat="66.31583" lon="13.52849">
        <ele>13.652234</ele>
        <time>2020-07-15T16:31:48.766Z</time>
      </trkpt>
      <trkpt lat="66.31614" lon="13.5272">
        <ele>16.799303</ele>
        <time>2020-07-15T16:32:06.211Z</time>
      </trkpt>
      <trkpt lat="66.31653" lon="13.52616">
        <ele>19.808186</ele>
        <time>2020-07-15T16:32:30.185Z</time>
      </trkpt>
      <trkpt lat="66.31719" lon="13.52518">
        <ele>25.597413</ele>
        <time>2020-07-15T16:33:06.806Z</time>
      </trkpt>
      <trkpt lat="66.31754" lon="13.52477">
        <ele>28.944125</ele>
        <time>2020-07-15T16:33:25.877Z</time>
      </trkpt>
      <trkpt lat="66.31779" lon="13.52449">
        <ele>31.322726</ele>
        <time>2020-07-15T16:33:40.125Z</time>
      </trkpt>
      <trkpt lat="66.31905" lon="13.523">
        <ele>38.086211</ele>
        <time>2020-07-15T16:34:37.318Z</time>
      </trkpt>
      <trkpt lat="66.31947" lon="13.52227">
        <ele>38.876257</ele>
        <time>2020-07-15T16:34:46.298Z</time>
      </trkpt>
      <trkpt lat="66.31952" lon="13.52215">
        <ele>38.982544</ele>
        <time>2020-07-15T16:34:47.283Z</time>
      </trkpt>
      <trkpt lat="66.31962" lon="13.52186">
        <ele>39.217083</ele>
        <time>2020-07-15T16:34:49.288Z</time>
      </trkpt>
      <trkpt lat="66.31981" lon="13.52111">
        <ele>39.28502</ele>
        <time>2020-07-15T16:34:53.824Z</time>
      </trkpt>
      <trkpt lat="66.31994" lon="13.52003">
        <ele>35.92055</ele>
        <time>2020-07-15T16:34:59.003Z</time>
      </trkpt>
      <trkpt lat="66.31995" lon="13.51891">
        <ele>32.54499</ele>
        <time>2020-07-15T16:35:04.050Z</time>
      </trkpt>
      <trkpt lat="66.31986" lon="13.5177">
        <ele>28.868357</ele>
        <time>2020-07-15T16:35:09.508Z</time>
      </trkpt>
      <trkpt lat="66.3198" lon="13.51711">
        <ele>27.046283</ele>
        <time>2020-07-15T16:35:12.240Z</time>
      </trkpt>
      <trkpt lat="66.31972" lon="13.51623">
        <ele>24.665558</ele>
        <time>2020-07-15T16:35:16.396Z</time>
      </trkpt>
      <trkpt lat="66.31968" lon="13.51534">
        <ele>22.456427</ele>
        <time>2020-07-15T16:35:20.517Z</time>
      </trkpt>
      <trkpt lat="66.31968" lon="13.51497">
        <ele>21.525146</ele>
        <time>2020-07-15T16:35:22.227Z</time>
      </trkpt>
      <trkpt lat="66.3197" lon="13.51464">
        <ele>20.712148</ele>
        <time>2020-07-15T16:35:23.771Z</time>
      </trkpt>
      <trkpt lat="66.31982" lon="13.51371">
        <ele>18.282983</ele>
        <time>2020-07-15T16:35:28.339Z</time>
      </trkpt>
      <trkpt lat="66.32007" lon="13.51276">
        <ele>15.466375</ele>
        <time>2020-07-15T16:35:33.970Z</time>
      </trkpt>
      <trkpt lat="66.32008" lon="13.51271">
        <ele>15.320984</ele>
        <time>2020-07-15T16:35:34.260Z</time>
      </trkpt>
      <trkpt lat="66.32012" lon="13.51258">
        <ele>15.007878</ele>
        <time>2020-07-15T16:35:35.050Z</time>
      </trkpt>
      <trkpt lat="66.32018" lon="13.51238">
        <ele>14.633654</ele>
        <time>2020-07-15T16:35:36.515Z</time>
      </trkpt>
      <trkpt lat="66.32023" lon="13.51216">
        <ele>14.262422</ele>
        <time>2020-07-15T16:35:37.904Z</time>
      </trkpt>
      <trkpt lat="66.32028" lon="13.51192">
        <ele>13.854004</ele>
        <time>2020-07-15T16:35:39.217Z</time>
      </trkpt>
      <trkpt lat="66.32056" lon="13.50941">
        <ele>9.963513</ele>
        <time>2020-07-15T16:35:52.568Z</time>
      </trkpt>
      <trkpt lat="66.32086" lon="13.50801">
        <ele>7.966571</ele>
        <time>2020-07-15T16:36:00.868Z</time>
      </trkpt>
      <trkpt lat="66.32088" lon="13.50786">
        <ele>7.827645</ele>
        <time>2020-07-15T16:36:01.668Z</time>
      </trkpt>
      <trkpt lat="66.32091" lon="13.50771">
        <ele>7.695828</ele>
        <time>2020-07-15T16:36:02.494Z</time>
      </trkpt>
      <trkpt lat="66.321" lon="13.50686">
        <ele>6.950457</ele>
        <time>2020-07-15T16:36:07.319Z</time>
      </trkpt>
      <trkpt lat="66.32102" lon="13.50665">
        <ele>6.771343</ele>
        <time>2020-07-15T16:36:08.498Z</time>
      </trkpt>
      <trkpt lat="66.32103" lon="13.50641">
        <ele>6.572931</ele>
        <time>2020-07-15T16:36:09.943Z</time>
      </trkpt>
      <trkpt lat="66.32103" lon="13.50567">
        <ele>5.951633</ele>
        <time>2020-07-15T16:36:14.025Z</time>
      </trkpt>
      <trkpt lat="66.32102" lon="13.50477">
        <ele>5.192318</ele>
        <time>2020-07-15T16:36:19.223Z</time>
      </trkpt>
      <trkpt lat="66.32101" lon="13.50383">
        <ele>5.261742</ele>
        <time>2020-07-15T16:36:24.826Z</time>
      </trkpt>
      <trkpt lat="66.32103" lon="13.50203">
        <ele>8.271359</ele>
        <time>2020-07-15T16:36:41.862Z</time>
      </trkpt>
      <trkpt lat="66.32111" lon="13.50107">
        <ele>9.903956</ele>
        <time>2020-07-15T16:36:52.034Z</time>
      </trkpt>
      <trkpt lat="66.32124" lon="13.50017">
        <ele>11.496228</ele>
        <time>2020-07-15T16:37:07.185Z</time>
      </trkpt>
      <trkpt lat="66.32127" lon="13.50005">
        <ele>11.734072</ele>
        <time>2020-07-15T16:37:10.002Z</time>
      </trkpt>
      <trkpt lat="66.32134" lon="13.49974">
        <ele>12.916486</ele>
        <time>2020-07-15T16:37:18.620Z</time>
      </trkpt>
      <trkpt lat="66.32165" lon="13.49873">
        <ele>22.986778</ele>
        <time>2020-07-15T16:37:50.313Z</time>
      </trkpt>
      <trkpt lat="66.32197" lon="13.49806">
        <ele>31.159201</ele>
        <time>2020-07-15T16:38:22.393Z</time>
      </trkpt>
      <trkpt lat="66.3221" lon="13.49784">
        <ele>34.336661</ele>
        <time>2020-07-15T16:38:37.149Z</time>
      </trkpt>
      <trkpt lat="66.32235" lon="13.49755">
        <ele>39.769884</ele>
        <time>2020-07-15T16:39:02.449Z</time>
      </trkpt>
      <trkpt lat="66.32304" lon="13.4971">
        <ele>55.346941</ele>
        <time>2020-07-15T16:40:07.134Z</time>
      </trkpt>
      <trkpt lat="66.32345" lon="13.49695">
        <ele>65.819953</ele>
        <time>2020-07-15T16:40:45.575Z</time>
      </trkpt>
      <trkpt lat="66.32455" lon="13.49679">
        <ele>93.207825</ele>
        <time>2020-07-15T16:42:26.992Z</time>
      </trkpt>
      <trkpt lat="66.34414" lon="13.49643">
        <ele>297.482958</ele>
        <time>2020-07-15T16:59:43.061Z</time>
      </trkpt>
      <trkpt lat="66.34496" lon="13.49616">
        <ele>262.863647</ele>
        <time>2020-07-15T16:59:51.695Z</time>
      </trkpt>
      <trkpt lat="66.34535" lon="13.49583">
        <ele>241.198901</ele>
        <time>2020-07-15T16:59:56.227Z</time>
      </trkpt>
      <trkpt lat="66.34586" lon="13.49531">
        <ele>212.431053</ele>
        <time>2020-07-15T17:00:02.912Z</time>
      </trkpt>
      <trkpt lat="66.34663" lon="13.49395">
        <ele>150.143405</ele>
        <time>2020-07-15T17:00:14.260Z</time>
      </trkpt>
      <trkpt lat="66.34681" lon="13.49359">
        <ele>134.108872</ele>
        <time>2020-07-15T17:00:17.021Z</time>
      </trkpt>
      <trkpt lat="66.34691" lon="13.49331">
        <ele>123.804495</ele>
        <time>2020-07-15T17:00:18.768Z</time>
      </trkpt>
      <trkpt lat="66.34712" lon="13.49262">
        <ele>99.767119</ele>
        <time>2020-07-15T17:00:22.766Z</time>
      </trkpt>
      <trkpt lat="66.34729" lon="13.4917">
        <ele>76.242613</ele>
        <time>2020-07-15T17:00:27.309Z</time>
      </trkpt>
      <trkpt lat="66.34735" lon="13.49012">
        <ele>56.669592</ele>
        <time>2020-07-15T17:00:34.137Z</time>
      </trkpt>
      <trkpt lat="66.34734" lon="13.48991">
        <ele>54.077119</ele>
        <time>2020-07-15T17:00:35.032Z</time>
      </trkpt>
      <trkpt lat="66.34733" lon="13.48965">
        <ele>50.898841</ele>
        <time>2020-07-15T17:00:36.122Z</time>
      </trkpt>
      <trkpt lat="66.3472" lon="13.48874">
        <ele>39.060138</ele>
        <time>2020-07-15T17:00:40.129Z</time>
      </trkpt>
      <trkpt lat="66.34709" lon="13.48813">
        <ele>30.871467</ele>
        <time>2020-07-15T17:00:42.900Z</time>
      </trkpt>
      <trkpt lat="66.34702" lon="13.48777">
        <ele>25.970461</ele>
        <time>2020-07-15T17:00:44.674Z</time>
      </trkpt>
      <trkpt lat="66.34693" lon="13.48714">
        <ele>23.169858</ele>
        <time>2020-07-15T17:00:47.483Z</time>
      </trkpt>
      <trkpt lat="66.34692" lon="13.48702">
        <ele>22.841494</ele>
        <time>2020-07-15T17:00:48.052Z</time>
      </trkpt>
      <trkpt lat="66.34691" lon="13.48691">
        <ele>22.526047</ele>
        <time>2020-07-15T17:00:48.599Z</time>
      </trkpt>
      <trkpt lat="66.34685" lon="13.48431">
        <ele>15.532456</ele>
        <time>2020-07-15T17:01:01.006Z</time>
      </trkpt>
      <trkpt lat="66.34678" lon="13.48347">
        <ele>13.234248</ele>
        <time>2020-07-15T17:01:05.495Z</time>
      </trkpt>
      <trkpt lat="66.34658" lon="13.48241">
        <ele>11.497643</ele>
        <time>2020-07-15T17:01:11.560Z</time>
      </trkpt>
      <trkpt lat="66.34605" lon="13.48033">
        <ele>8.506042</ele>
        <time>2020-07-15T17:01:24.668Z</time>
      </trkpt>
      <trkpt lat="66.34598" lon="13.4801">
        <ele>8.153318</ele>
        <time>2020-07-15T17:01:26.266Z</time>
      </trkpt>
      <trkpt lat="66.34592" lon="13.47993">
        <ele>7.892196</ele>
        <time>2020-07-15T17:01:27.587Z</time>
      </trkpt>
      <trkpt lat="66.3459" lon="13.47987">
        <ele>7.800772</ele>
        <time>2020-07-15T17:01:27.924Z</time>
      </trkpt>
      <trkpt lat="66.34471" lon="13.47688">
        <ele>4.300686</ele>
        <time>2020-07-15T17:01:51.639Z</time>
      </trkpt>
      <trkpt lat="66.34432" lon="13.47559">
        <ele>3.534793</ele>
        <time>2020-07-15T17:02:01.601Z</time>
      </trkpt>
      <trkpt lat="66.34405" lon="13.47419">
        <ele>3.205109</ele>
        <time>2020-07-15T17:02:11.647Z</time>
      </trkpt>
      <trkpt lat="66.3431" lon="13.46849">
        <ele>3.024467</ele>
        <time>2020-07-15T17:02:55.462Z</time>
      </trkpt>
      <trkpt lat="66.34307" lon="13.46824">
        <ele>3.040992</ele>
        <time>2020-07-15T17:02:57.778Z</time>
      </trkpt>
      <trkpt lat="66.34306" lon="13.46821">
        <ele>3.043021</ele>
        <time>2020-07-15T17:02:57.928Z</time>
      </trkpt>
      <trkpt lat="66.3429" lon="13.46646">
        <ele>4.192723</ele>
        <time>2020-07-15T17:03:13.892Z</time>
      </trkpt>
      <trkpt lat="66.34291" lon="13.46518">
        <ele>5.035001</ele>
        <time>2020-07-15T17:03:26.386Z</time>
      </trkpt>
      <trkpt lat="66.34294" lon="13.46476">
        <ele>5.323207</ele>
        <time>2020-07-15T17:03:31.072Z</time>
      </trkpt>
      <trkpt lat="66.34305" lon="13.46383">
        <ele>5.963772</ele>
        <time>2020-07-15T17:03:40.674Z</time>
      </trkpt>
      <trkpt lat="66.34333" lon="13.4626">
        <ele>6.573954</ele>
        <time>2020-07-15T17:03:54.037Z</time>
      </trkpt>
      <trkpt lat="66.34356" lon="13.46194">
        <ele>6.937933</ele>
        <time>2020-07-15T17:04:02.044Z</time>
      </trkpt>
      <trkpt lat="66.34366" lon="13.4617">
        <ele>7.086347</ele>
        <time>2020-07-15T17:04:05.342Z</time>
      </trkpt>
      <trkpt lat="66.34391" lon="13.46123">
        <ele>7.407191</ele>
        <time>2020-07-15T17:04:12.124Z</time>
      </trkpt>
      <trkpt lat="66.34405" lon="13.46098">
        <ele>7.591253</ele>
        <time>2020-07-15T17:04:15.083Z</time>
      </trkpt>
      <trkpt lat="66.34435" lon="13.4605">
        <ele>7.785242</ele>
        <time>2020-07-15T17:04:21.054Z</time>
      </trkpt>
      <trkpt lat="66.34447" lon="13.46032">
        <ele>7.585985</ele>
        <time>2020-07-15T17:04:23.377Z</time>
      </trkpt>
      <trkpt lat="66.34462" lon="13.46005">
        <ele>7.303028</ele>
        <time>2020-07-15T17:04:26.257Z</time>
      </trkpt>
      <trkpt lat="66.34471" lon="13.45988">
        <ele>7.1356</ele>
        <time>2020-07-15T17:04:28.136Z</time>
      </trkpt>
      <trkpt lat="66.3448" lon="13.45968">
        <ele>6.962108</ele>
        <time>2020-07-15T17:04:29.917Z</time>
      </trkpt>
      <trkpt lat="66.34499" lon="13.45917">
        <ele>6.543826</ele>
        <time>2020-07-15T17:04:33.911Z</time>
      </trkpt>
      <trkpt lat="66.34504" lon="13.45897">
        <ele>6.403974</ele>
        <time>2020-07-15T17:04:35.344Z</time>
      </trkpt>
      <trkpt lat="66.34509" lon="13.45877">
        <ele>6.263447</ele>
        <time>2020-07-15T17:04:36.592Z</time>
      </trkpt>
      <trkpt lat="66.34544" lon="13.4566">
        <ele>4.828343</ele>
        <time>2020-07-15T17:04:49.824Z</time>
      </trkpt>
      <trkpt lat="66.34555" lon="13.45545">
        <ele>4.030458</ele>
        <time>2020-07-15T17:04:56.454Z</time>
      </trkpt>
      <trkpt lat="66.34556" lon="13.45516">
        <ele>3.838545</ele>
        <time>2020-07-15T17:04:58.312Z</time>
      </trkpt>
      <trkpt lat="66.34556" lon="13.45491">
        <ele>3.667733</ele>
        <time>2020-07-15T17:04:59.664Z</time>
      </trkpt>
      <trkpt lat="66.34548" lon="13.45388">
        <ele>2.962583</ele>
        <time>2020-07-15T17:05:05.751Z</time>
      </trkpt>
      <trkpt lat="66.34519" lon="13.45238">
        <ele>2.164784</ele>
        <time>2020-07-15T17:05:16.005Z</time>
      </trkpt>
      <trkpt lat="66.34517" lon="13.45227">
        <ele>2.155137</ele>
        <time>2020-07-15T17:05:16.632Z</time>
      </trkpt>
      <trkpt lat="66.34512" lon="13.45195">
        <ele>2.127387</ele>
        <time>2020-07-15T17:05:19.282Z</time>
      </trkpt>
      <trkpt lat="66.34505" lon="13.45108">
        <ele>2.055965</ele>
        <time>2020-07-15T17:05:24.937Z</time>
      </trkpt>
      <trkpt lat="66.34506" lon="13.45006">
        <ele>1.973579</ele>
        <time>2020-07-15T17:05:32.301Z</time>
      </trkpt>
      <trkpt lat="66.3451" lon="13.44924">
        <ele>1.907022</ele>
        <time>2020-07-15T17:05:38.466Z</time>
      </trkpt>
      <trkpt lat="66.34514" lon="13.44862">
        <ele>1.856359</ele>
        <time>2020-07-15T17:05:43.168Z</time>
      </trkpt>
      <trkpt lat="66.34522" lon="13.44772">
        <ele>2.081387</ele>
        <time>2020-07-15T17:05:50.873Z</time>
      </trkpt>
      <trkpt lat="66.34538" lon="13.44672">
        <ele>2.393154</ele>
        <time>2020-07-15T17:05:59.674Z</time>
      </trkpt>
      <trkpt lat="66.34612" lon="13.44411">
        <ele>3.419897</ele>
        <time>2020-07-15T17:06:25.515Z</time>
      </trkpt>
      <trkpt lat="66.34633" lon="13.44306">
        <ele>3.948763</ele>
        <time>2020-07-15T17:06:35.199Z</time>
      </trkpt>
      <trkpt lat="66.34645" lon="13.4423">
        <ele>4.319581</ele>
        <time>2020-07-15T17:06:42.029Z</time>
      </trkpt>
      <trkpt lat="66.34648" lon="13.44213">
        <ele>4.403379</ele>
        <time>2020-07-15T17:06:43.969Z</time>
      </trkpt>
      <trkpt lat="66.34675" lon="13.44098">
        <ele>5.004088</ele>
        <time>2020-07-15T17:06:55.539Z</time>
      </trkpt>
      <trkpt lat="66.34712" lon="13.44007">
        <ele>5.862209</ele>
        <time>2020-07-15T17:07:07.550Z</time>
      </trkpt>
      <trkpt lat="66.34757" lon="13.43938">
        <ele>6.837328</ele>
        <time>2020-07-15T17:07:20.535Z</time>
      </trkpt>
      <trkpt lat="66.34863" lon="13.43813">
        <ele>8.64025</ele>
        <time>2020-07-15T17:07:49.318Z</time>
      </trkpt>
      <trkpt lat="66.34891" lon="13.43777">
        <ele>8.77735</ele>
        <time>2020-07-15T17:07:55.850Z</time>
      </trkpt>
      <trkpt lat="66.34901" lon="13.43764">
        <ele>8.826979</ele>
        <time>2020-07-15T17:07:58.243Z</time>
      </trkpt>
      <trkpt lat="66.3492" lon="13.43734">
        <ele>8.923807</ele>
        <time>2020-07-15T17:08:02.483Z</time>
      </trkpt>
      <trkpt lat="66.34926" lon="13.43723">
        <ele>8.954337</ele>
        <time>2020-07-15T17:08:04.145Z</time>
      </trkpt>
      <trkpt lat="66.34934" lon="13.43706">
        <ele>9.001437</ele>
        <time>2020-07-15T17:08:05.879Z</time>
      </trkpt>
      <trkpt lat="66.3496" lon="13.43639">
        <ele>9.162951</ele>
        <time>2020-07-15T17:08:12.330Z</time>
      </trkpt>
      <trkpt lat="66.34985" lon="13.43525">
        <ele>8.972385</ele>
        <time>2020-07-15T17:08:20.692Z</time>
      </trkpt>
      <trkpt lat="66.34995" lon="13.43418">
        <ele>8.22024</ele>
        <time>2020-07-15T17:08:27.326Z</time>
      </trkpt>
      <trkpt lat="66.34996" lon="13.43321">
        <ele>7.563695</ele>
        <time>2020-07-15T17:08:32.779Z</time>
      </trkpt>
      <trkpt lat="66.34995" lon="13.43288">
        <ele>7.341378</ele>
        <time>2020-07-15T17:08:34.611Z</time>
      </trkpt>
      <trkpt lat="66.34991" lon="13.43218">
        <ele>6.857073</ele>
        <time>2020-07-15T17:08:38.650Z</time>
      </trkpt>
      <trkpt lat="66.34977" lon="13.43042">
        <ele>5.528551</ele>
        <time>2020-07-15T17:08:48.560Z</time>
      </trkpt>
      <trkpt lat="66.34951" lon="13.42912">
        <ele>4.352255</ele>
        <time>2020-07-15T17:08:56.885Z</time>
      </trkpt>
      <trkpt lat="66.34947" lon="13.42896">
        <ele>4.193702</ele>
        <time>2020-07-15T17:08:57.925Z</time>
      </trkpt>
      <trkpt lat="66.34939" lon="13.42871">
        <ele>3.942189</ele>
        <time>2020-07-15T17:08:59.677Z</time>
      </trkpt>
      <trkpt lat="66.34929" lon="13.42845">
        <ele>3.654969</ele>
        <time>2020-07-15T17:09:01.930Z</time>
      </trkpt>
      <trkpt lat="66.3492" lon="13.42823">
        <ele>3.403684</ele>
        <time>2020-07-15T17:09:03.621Z</time>
      </trkpt>
      <trkpt lat="66.34917" lon="13.42815">
        <ele>3.312306</ele>
        <time>2020-07-15T17:09:04.224Z</time>
      </trkpt>
      <trkpt lat="66.34882" lon="13.42752">
        <ele>2.524079</ele>
        <time>2020-07-15T17:09:10.559Z</time>
      </trkpt>
      <trkpt lat="66.34849" lon="13.42712">
        <ele>2.104613</ele>
        <time>2020-07-15T17:09:15.822Z</time>
      </trkpt>
      <trkpt lat="66.34828" lon="13.42688">
        <ele>1.844331</ele>
        <time>2020-07-15T17:09:19.090Z</time>
      </trkpt>
      <trkpt lat="66.34741" lon="13.42595">
        <ele>0.759688</ele>
        <time>2020-07-15T17:09:33.853Z</time>
      </trkpt>
      <trkpt lat="66.34733" lon="13.42587">
        <ele>0.660755</ele>
        <time>2020-07-15T17:09:35.261Z</time>
      </trkpt>
      <trkpt lat="66.34554" lon="13.42384">
        <ele>0.109563</ele>
        <time>2020-07-15T17:10:09.070Z</time>
      </trkpt>
      <trkpt lat="66.34535" lon="13.42361">
        <ele>0.132394</ele>
        <time>2020-07-15T17:10:12.835Z</time>
      </trkpt>
      <trkpt lat="66.34512" lon="13.42331">
        <ele>0.160896</ele>
        <time>2020-07-15T17:10:17.570Z</time>
      </trkpt>
      <trkpt lat="66.34422" lon="13.42192">
        <ele>0.276009</ele>
        <time>2020-07-15T17:10:37.044Z</time>
      </trkpt>
      <trkpt lat="66.34129" lon="13.4159">
        <ele>1.375807</ele>
        <time>2020-07-15T17:11:48.748Z</time>
      </trkpt>
      <trkpt lat="66.34123" lon="13.41575">
        <ele>1.354534</ele>
        <time>2020-07-15T17:11:50.406Z</time>
      </trkpt>
      <trkpt lat="66.34109" lon="13.4154">
        <ele>1.304849</ele>
        <time>2020-07-15T17:11:53.895Z</time>
      </trkpt>
      <trkpt lat="66.33925" lon="13.41063">
        <ele>0.905954</ele>
        <time>2020-07-15T17:12:38.574Z</time>
      </trkpt>
      <trkpt lat="66.33762" lon="13.40753">
        <ele>2.29824</ele>
        <time>2020-07-15T17:13:18.919Z</time>
      </trkpt>
      <trkpt lat="66.33746" lon="13.40718">
        <ele>2.509892</ele>
        <time>2020-07-15T17:13:23.884Z</time>
      </trkpt>
      <trkpt lat="66.3374" lon="13.40704">
        <ele>2.591069</ele>
        <time>2020-07-15T17:13:26.267Z</time>
      </trkpt>
      <trkpt lat="66.337" lon="13.40579">
        <ele>3.992919</ele>
        <time>2020-07-15T17:13:42.422Z</time>
      </trkpt>
      <trkpt lat="66.33671" lon="13.40418">
        <ele>5.659627</ele>
        <time>2020-07-15T17:14:01.643Z</time>
      </trkpt>
      <trkpt lat="66.33568" lon="13.39255">
        <ele>14.607813</ele>
        <time>2020-07-15T17:15:57.174Z</time>
      </trkpt>
      <trkpt lat="66.33568" lon="13.39157">
        <ele>14.98142</ele>
        <time>2020-07-15T17:16:04.947Z</time>
      </trkpt>
      <trkpt lat="66.33573" lon="13.3906">
        <ele>15.356015</ele>
        <time>2020-07-15T17:16:12.466Z</time>
      </trkpt>
      <trkpt lat="66.3365" lon="13.38427">
        <ele>14.849806</ele>
        <time>2020-07-15T17:17:00.702Z</time>
      </trkpt>
      <trkpt lat="66.3366" lon="13.38251">
        <ele>13.542599</ele>
        <time>2020-07-15T17:17:10.682Z</time>
      </trkpt>
      <trkpt lat="66.33661" lon="13.38115">
        <ele>12.542</ele>
        <time>2020-07-15T17:17:17.909Z</time>
      </trkpt>
      <trkpt lat="66.33662" lon="13.38026">
        <ele>11.301923</ele>
        <time>2020-07-15T17:17:22.506Z</time>
      </trkpt>
      <trkpt lat="66.33662" lon="13.37972">
        <ele>10.500372</ele>
        <time>2020-07-15T17:17:25.227Z</time>
      </trkpt>
      <trkpt lat="66.33662" lon="13.37972">
        <ele>10.497403</ele>
        <time>2020-07-15T17:17:25.239Z</time>
      </trkpt>
      <trkpt lat="66.33661" lon="13.37931">
        <ele>9.881986</ele>
        <time>2020-07-15T17:17:27.473Z</time>
      </trkpt>
      <trkpt lat="66.33659" lon="13.37875">
        <ele>9.048095</ele>
        <time>2020-07-15T17:17:30.247Z</time>
      </trkpt>
      <trkpt lat="66.33647" lon="13.37628">
        <ele>5.550117</ele>
        <time>2020-07-15T17:17:42.746Z</time>
      </trkpt>
      <trkpt lat="66.33644" lon="13.37145">
        <ele>2.00512</ele>
        <time>2020-07-15T17:18:10.510Z</time>
      </trkpt>
      <trkpt lat="66.33644" lon="13.37072">
        <ele>2.039595</ele>
        <time>2020-07-15T17:18:15.155Z</time>
      </trkpt>
      <trkpt lat="66.33643" lon="13.37022">
        <ele>2.062928</ele>
        <time>2020-07-15T17:18:19.332Z</time>
      </trkpt>
      <trkpt lat="66.33633" lon="13.36904">
        <ele>2.119756</ele>
        <time>2020-07-15T17:18:28.446Z</time>
      </trkpt>
      <trkpt lat="66.33629" lon="13.3688">
        <ele>2.131879</ele>
        <time>2020-07-15T17:18:30.335Z</time>
      </trkpt>
      <trkpt lat="66.33624" lon="13.36853">
        <ele>2.145762</ele>
        <time>2020-07-15T17:18:33.347Z</time>
      </trkpt>
      <trkpt lat="66.33619" lon="13.36831">
        <ele>2.157516</ele>
        <time>2020-07-15T17:18:35.272Z</time>
      </trkpt>
      <trkpt lat="66.33617" lon="13.36823">
        <ele>2.162001</ele>
        <time>2020-07-15T17:18:35.981Z</time>
      </trkpt>
      <trkpt lat="66.33615" lon="13.36812">
        <ele>2.168264</ele>
        <time>2020-07-15T17:18:36.965Z</time>
      </trkpt>
      <trkpt lat="66.33608" lon="13.36785">
        <ele>2.183565</ele>
        <time>2020-07-15T17:18:39.988Z</time>
      </trkpt>
      <trkpt lat="66.33587" lon="13.36723">
        <ele>2.645821</ele>
        <time>2020-07-15T17:18:47.117Z</time>
      </trkpt>
      <trkpt lat="66.33585" lon="13.36718">
        <ele>2.684271</ele>
        <time>2020-07-15T17:18:47.947Z</time>
      </trkpt>
      <trkpt lat="66.33581" lon="13.36709">
        <ele>2.764007</ele>
        <time>2020-07-15T17:18:49.723Z</time>
      </trkpt>
      <trkpt lat="66.33539" lon="13.36637">
        <ele>3.524194</ele>
        <time>2020-07-15T17:19:01.327Z</time>
      </trkpt>
      <trkpt lat="66.33471" lon="13.36566">
        <ele>4.612586</ele>
        <time>2020-07-15T17:19:18.084Z</time>
      </trkpt>
      <trkpt lat="66.33444" lon="13.3654">
        <ele>4.995039</ele>
        <time>2020-07-15T17:19:24.786Z</time>
      </trkpt>
      <trkpt lat="66.33392" lon="13.3649">
        <ele>5.60707</ele>
        <time>2020-07-15T17:19:36.147Z</time>
      </trkpt>
      <trkpt lat="66.33324" lon="13.36423">
        <ele>6.421434</ele>
        <time>2020-07-15T17:19:51.977Z</time>
      </trkpt>
      <trkpt lat="66.3327" lon="13.36372">
        <ele>7.051226</ele>
        <time>2020-07-15T17:20:03.841Z</time>
      </trkpt>
      <trkpt lat="66.33227" lon="13.36328">
        <ele>7.571067</ele>
        <time>2020-07-15T17:20:13.903Z</time>
      </trkpt>
      <trkpt lat="66.3317" lon="13.36273">
        <ele>8.244156</ele>
        <time>2020-07-15T17:20:27.694Z</time>
      </trkpt>
      <trkpt lat="66.33099" lon="13.3618">
        <ele>8.914258</ele>
        <time>2020-07-15T17:20:44.625Z</time>
      </trkpt>
      <trkpt lat="66.3308" lon="13.36143">
        <ele>8.98986</ele>
        <time>2020-07-15T17:20:49.245Z</time>
      </trkpt>
      <trkpt lat="66.33064" lon="13.36111">
        <ele>9.053309</ele>
        <time>2020-07-15T17:20:52.807Z</time>
      </trkpt>
      <trkpt lat="66.32994" lon="13.35962">
        <ele>9.340261</ele>
        <time>2020-07-15T17:21:09.585Z</time>
      </trkpt>
      <trkpt lat="66.32958" lon="13.35882">
        <ele>9.545038</ele>
        <time>2020-07-15T17:21:18.209Z</time>
      </trkpt>
      <trkpt lat="66.32949" lon="13.3586">
        <ele>9.607202</ele>
        <time>2020-07-15T17:21:20.562Z</time>
      </trkpt>
      <trkpt lat="66.32928" lon="13.35809">
        <ele>9.746687</ele>
        <time>2020-07-15T17:21:25.686Z</time>
      </trkpt>
      <trkpt lat="66.32921" lon="13.35791">
        <ele>9.795143</ele>
        <time>2020-07-15T17:21:27.655Z</time>
      </trkpt>
      <trkpt lat="66.32858" lon="13.35595">
        <ele>10.36337</ele>
        <time>2020-07-15T17:21:47.424Z</time>
      </trkpt>
      <trkpt lat="66.32815" lon="13.35416">
        <ele>11.995891</ele>
        <time>2020-07-15T17:22:07.260Z</time>
      </trkpt>
      <trkpt lat="66.32803" lon="13.35356">
        <ele>12.523101</ele>
        <time>2020-07-15T17:22:14.094Z</time>
      </trkpt>
      <trkpt lat="66.32784" lon="13.3525">
        <ele>13.440844</ele>
        <time>2020-07-15T17:22:25.984Z</time>
      </trkpt>
      <trkpt lat="66.32764" lon="13.35136">
        <ele>14.490122</ele>
        <time>2020-07-15T17:22:38.999Z</time>
      </trkpt>
      <trkpt lat="66.32762" lon="13.35126">
        <ele>14.587526</ele>
        <time>2020-07-15T17:22:40.410Z</time>
      </trkpt>
      <trkpt lat="66.32435" lon="13.3324">
        <ele>32.045773</ele>
        <time>2020-07-15T17:26:04.314Z</time>
      </trkpt>
      <trkpt lat="66.3241" lon="13.33126">
        <ele>32.729849</ele>
        <time>2020-07-15T17:26:15.593Z</time>
      </trkpt>
      <trkpt lat="66.3238" lon="13.33023">
        <ele>32.743156</ele>
        <time>2020-07-15T17:26:25.362Z</time>
      </trkpt>
      <trkpt lat="66.32317" lon="13.32867">
        <ele>32.766185</ele>
        <time>2020-07-15T17:26:41.402Z</time>
      </trkpt>
      <trkpt lat="66.32301" lon="13.32835">
        <ele>32.771598</ele>
        <time>2020-07-15T17:26:44.585Z</time>
      </trkpt>
      <trkpt lat="66.32284" lon="13.32803">
        <ele>32.302251</ele>
        <time>2020-07-15T17:26:47.786Z</time>
      </trkpt>
      <trkpt lat="66.32248" lon="13.32736">
        <ele>31.024116</ele>
        <time>2020-07-15T17:26:54.237Z</time>
      </trkpt>
      <trkpt lat="66.32207" lon="13.32652">
        <ele>29.537884</ele>
        <time>2020-07-15T17:27:01.262Z</time>
      </trkpt>
      <trkpt lat="66.32167" lon="13.32547">
        <ele>27.887596</ele>
        <time>2020-07-15T17:27:08.712Z</time>
      </trkpt>
      <trkpt lat="66.32142" lon="13.32468">
        <ele>26.215332</ele>
        <time>2020-07-15T17:27:13.650Z</time>
      </trkpt>
      <trkpt lat="66.32102" lon="13.32303">
        <ele>22.771973</ele>
        <time>2020-07-15T17:27:23.041Z</time>
      </trkpt>
      <trkpt lat="66.32066" lon="13.32109">
        <ele>19.293052</ele>
        <time>2020-07-15T17:27:33.645Z</time>
      </trkpt>
      <trkpt lat="66.31901" lon="13.31084">
        <ele>9.415819</ele>
        <time>2020-07-15T17:28:35.043Z</time>
      </trkpt>
      <trkpt lat="66.31893" lon="13.31019">
        <ele>9.04167</ele>
        <time>2020-07-15T17:28:39.219Z</time>
      </trkpt>
      <trkpt lat="66.31875" lon="13.30869">
        <ele>8.406987</ele>
        <time>2020-07-15T17:28:49.976Z</time>
      </trkpt>
      <trkpt lat="66.31831" lon="13.30564">
        <ele>9.272535</ele>
        <time>2020-07-15T17:29:16.839Z</time>
      </trkpt>
      <trkpt lat="66.31784" lon="13.30302">
        <ele>9.554045</ele>
        <time>2020-07-15T17:29:40.592Z</time>
      </trkpt>
      <trkpt lat="66.31721" lon="13.30014">
        <ele>9.295849</ele>
        <time>2020-07-15T17:30:02.219Z</time>
      </trkpt>
      <trkpt lat="66.31606" lon="13.29559">
        <ele>7.419124</ele>
        <time>2020-07-15T17:30:35.147Z</time>
      </trkpt>
      <trkpt lat="66.31558" lon="13.29323">
        <ele>6.852304</ele>
        <time>2020-07-15T17:30:53.097Z</time>
      </trkpt>
      <trkpt lat="66.31455" lon="13.28687">
        <ele>7.711773</ele>
        <time>2020-07-15T17:31:46.636Z</time>
      </trkpt>
      <trkpt lat="66.31435" lon="13.28568">
        <ele>7.803474</ele>
        <time>2020-07-15T17:31:56.325Z</time>
      </trkpt>
      <trkpt lat="66.31416" lon="13.28462">
        <ele>7.81632</ele>
        <time>2020-07-15T17:32:04.215Z</time>
      </trkpt>
      <trkpt lat="66.31397" lon="13.28367">
        <ele>7.346911</ele>
        <time>2020-07-15T17:32:11.075Z</time>
      </trkpt>
      <trkpt lat="66.31378" lon="13.28269">
        <ele>6.860911</ele>
        <time>2020-07-15T17:32:17.900Z</time>
      </trkpt>
      <trkpt lat="66.31359" lon="13.28176">
        <ele>6.394659</ele>
        <time>2020-07-15T17:32:24.066Z</time>
      </trkpt>
      <trkpt lat="66.31322" lon="13.2798">
        <ele>5.450114</ele>
        <time>2020-07-15T17:32:36.672Z</time>
      </trkpt>
      <trkpt lat="66.31289" lon="13.27761">
        <ele>4.458524</ele>
        <time>2020-07-15T17:32:50.873Z</time>
      </trkpt>
      <trkpt lat="66.31034" lon="13.25877">
        <ele>2.593026</ele>
        <time>2020-07-15T17:35:09.410Z</time>
      </trkpt>
      <trkpt lat="66.30912" lon="13.25039">
        <ele>1.915011</ele>
        <time>2020-07-15T17:36:11.117Z</time>
      </trkpt>
      <trkpt lat="66.30896" lon="13.24928">
        <ele>1.818864</ele>
        <time>2020-07-15T17:36:19.562Z</time>
      </trkpt>
      <trkpt lat="66.30894" lon="13.24911">
        <ele>1.804668</ele>
        <time>2020-07-15T17:36:20.821Z</time>
      </trkpt>
      <trkpt lat="66.30891" lon="13.24893">
        <ele>1.788948</ele>
        <time>2020-07-15T17:36:22.093Z</time>
      </trkpt>
      <trkpt lat="66.30733" lon="13.23816">
        <ele>0.90971</ele>
        <time>2020-07-15T17:37:41.417Z</time>
      </trkpt>
      <trkpt lat="66.30627" lon="13.22713">
        <ele>2.093548</ele>
        <time>2020-07-15T17:39:04.841Z</time>
      </trkpt>
      <trkpt lat="66.30611" lon="13.22466">
        <ele>3.041374</ele>
        <time>2020-07-15T17:39:27.688Z</time>
      </trkpt>
      <trkpt lat="66.30601" lon="13.22227">
        <ele>4.485937</ele>
        <time>2020-07-15T17:39:50.362Z</time>
      </trkpt>
      <trkpt lat="66.30561" lon="13.20902">
        <ele>13.536063</ele>
        <time>2020-07-15T17:41:44.936Z</time>
      </trkpt>
      <trkpt lat="66.30561" lon="13.20749">
        <ele>16.239793</ele>
        <time>2020-07-15T17:42:09.262Z</time>
      </trkpt>
      <trkpt lat="66.30563" lon="13.20688">
        <ele>20.045134</ele>
        <time>2020-07-15T17:42:21.311Z</time>
      </trkpt>
      <trkpt lat="66.30567" lon="13.20639">
        <ele>23.087438</ele>
        <time>2020-07-15T17:42:31.830Z</time>
      </trkpt>
      <trkpt lat="66.30577" lon="13.20546">
        <ele>29.081628</ele>
        <time>2020-07-15T17:42:54.811Z</time>
      </trkpt>
      <trkpt lat="66.30581" lon="13.20515">
        <ele>31.063845</ele>
        <time>2020-07-15T17:43:03.472Z</time>
      </trkpt>
      <trkpt lat="66.30632" lon="13.20143">
        <ele>63.684202</ele>
        <time>2020-07-15T17:45:20.075Z</time>
      </trkpt>
      <trkpt lat="66.30728" lon="13.196">
        <ele>132.786471</ele>
        <time>2020-07-15T17:48:59.994Z</time>
      </trkpt>
      <trkpt lat="66.30805" lon="13.1926">
        <ele>192.32132</ele>
        <time>2020-07-15T17:51:27.891Z</time>
      </trkpt>
      <trkpt lat="66.309" lon="13.18846">
        <ele>279.253861</ele>
        <time>2020-07-15T17:54:32.682Z</time>
      </trkpt>
      <trkpt lat="66.31088" lon="13.18105">
        <ele>451.932339</ele>
        <time>2020-07-15T18:00:20.020Z</time>
      </trkpt>
      <trkpt lat="66.31319" lon="13.17415">
        <ele>557.25943</ele>
        <time>2020-07-15T18:05:53.687Z</time>
      </trkpt>
      <trkpt lat="66.31563" lon="13.16866">
        <ele>543.683195</ele>
        <time>2020-07-15T18:06:46.495Z</time>
      </trkpt>
      <trkpt lat="66.31751" lon="13.16482">
        <ele>427.01067</ele>
        <time>2020-07-15T18:07:13.311Z</time>
      </trkpt>
      <trkpt lat="66.31874" lon="13.16347">
        <ele>326.622864</ele>
        <time>2020-07-15T18:07:29.825Z</time>
      </trkpt>
      <trkpt lat="66.32017" lon="13.16254">
        <ele>221.096083</ele>
        <time>2020-07-15T18:07:47.713Z</time>
      </trkpt>
      <trkpt lat="66.3215" lon="13.16214">
        <ele>141.0731</ele>
        <time>2020-07-15T18:08:02.593Z</time>
      </trkpt>
      <trkpt lat="66.32393" lon="13.16188">
        <ele>49.19851</ele>
        <time>2020-07-15T18:08:28.088Z</time>
      </trkpt>
      <trkpt lat="66.32456" lon="13.16178">
        <ele>29.990664</ele>
        <time>2020-07-15T18:08:34.474Z</time>
      </trkpt>
      <trkpt lat="66.32475" lon="13.16176">
        <ele>23.982523</ele>
        <time>2020-07-15T18:08:36.462Z</time>
      </trkpt>
      <trkpt lat="66.32519" lon="13.16183">
        <ele>18.405826</ele>
        <time>2020-07-15T18:08:40.923Z</time>
      </trkpt>
      <trkpt lat="66.32569" lon="13.16214">
        <ele>12.917731</ele>
        <time>2020-07-15T18:08:46.330Z</time>
      </trkpt>
      <trkpt lat="66.32603" lon="13.16253">
        <ele>8.849148</ele>
        <time>2020-07-15T18:08:50.663Z</time>
      </trkpt>
      <trkpt lat="66.32677" lon="13.16364">
        <ele>2.898544</ele>
        <time>2020-07-15T18:09:02.622Z</time>
      </trkpt>
      <trkpt lat="66.32687" lon="13.16375">
        <ele>2.773006</ele>
        <time>2020-07-15T18:09:04.232Z</time>
      </trkpt>
      <trkpt lat="66.32689" lon="13.16377">
        <ele>2.74437</ele>
        <time>2020-07-15T18:09:04.577Z</time>
      </trkpt>
      <trkpt lat="66.32706" lon="13.16393">
        <ele>2.528739</ele>
        <time>2020-07-15T18:09:07.226Z</time>
      </trkpt>
      <trkpt lat="66.32734" lon="13.16412">
        <ele>2.17397</ele>
        <time>2020-07-15T18:09:11.817Z</time>
      </trkpt>
      <trkpt lat="66.32743" lon="13.16415">
        <ele>2.067162</ele>
        <time>2020-07-15T18:09:13.194Z</time>
      </trkpt>
      <trkpt lat="66.32767" lon="13.1642">
        <ele>1.78524</ele>
        <time>2020-07-15T18:09:17.067Z</time>
      </trkpt>
      <trkpt lat="66.32772" lon="13.1642">
        <ele>1.721612</ele>
        <time>2020-07-15T18:09:17.882Z</time>
      </trkpt>
      <trkpt lat="66.32794" lon="13.16417">
        <ele>1.455999</ele>
        <time>2020-07-15T18:09:21.608Z</time>
      </trkpt>
      <trkpt lat="66.32815" lon="13.16409">
        <ele>1.198202</ele>
        <time>2020-07-15T18:09:25.136Z</time>
      </trkpt>
      <trkpt lat="66.32825" lon="13.16403">
        <ele>1.151739</ele>
        <time>2020-07-15T18:09:27.036Z</time>
      </trkpt>
      <trkpt lat="66.32876" lon="13.16351">
        <ele>1.107468</ele>
        <time>2020-07-15T18:09:36.401Z</time>
      </trkpt>
      <trkpt lat="66.3292" lon="13.16278">
        <ele>1.064616</ele>
        <time>2020-07-15T18:09:45.705Z</time>
      </trkpt>
      <trkpt lat="66.32945" lon="13.16231">
        <ele>1.039002</ele>
        <time>2020-07-15T18:09:51.380Z</time>
      </trkpt>
      <trkpt lat="66.33058" lon="13.16017">
        <ele>1.07862</ele>
        <time>2020-07-15T18:10:17.121Z</time>
      </trkpt>
      <trkpt lat="66.3314" lon="13.1585">
        <ele>1.107879</ele>
        <time>2020-07-15T18:10:36.271Z</time>
      </trkpt>
      <trkpt lat="66.33154" lon="13.15817">
        <ele>1.098864</ele>
        <time>2020-07-15T18:10:39.684Z</time>
      </trkpt>
      <trkpt lat="66.33167" lon="13.15786">
        <ele>1.090433</ele>
        <time>2020-07-15T18:10:42.880Z</time>
      </trkpt>
      <trkpt lat="66.33222" lon="13.15634">
        <ele>1.051228</ele>
        <time>2020-07-15T18:10:57.590Z</time>
      </trkpt>
      <trkpt lat="66.33281" lon="13.15429">
        <ele>0.85951</ele>
        <time>2020-07-15T18:11:14.910Z</time>
      </trkpt>
      <trkpt lat="66.333" lon="13.15349">
        <ele>0.76905</ele>
        <time>2020-07-15T18:11:21.289Z</time>
      </trkpt>
      <trkpt lat="66.33313" lon="13.15287">
        <ele>0.70202</ele>
        <time>2020-07-15T18:11:25.954Z</time>
      </trkpt>
      <trkpt lat="66.33334" lon="13.15166">
        <ele>0.714146</ele>
        <time>2020-07-15T18:11:34.958Z</time>
      </trkpt>
      <trkpt lat="66.33353" lon="13.15009">
        <ele>1.238126</ele>
        <time>2020-07-15T18:11:46.601Z</time>
      </trkpt>
      <trkpt lat="66.33355" lon="13.14979">
        <ele>1.336746</ele>
        <time>2020-07-15T18:11:48.699Z</time>
      </trkpt>
      <trkpt lat="66.3336" lon="13.14908">
        <ele>1.568003</ele>
        <time>2020-07-15T18:11:54.151Z</time>
      </trkpt>
      <trkpt lat="66.33362" lon="13.14842">
        <ele>1.779104</ele>
        <time>2020-07-15T18:11:59.226Z</time>
      </trkpt>
      <trkpt lat="66.33363" lon="13.14777">
        <ele>1.987806</ele>
        <time>2020-07-15T18:12:06.340Z</time>
      </trkpt>
      <trkpt lat="66.33363" lon="13.14749">
        <ele>2.2533</ele>
        <time>2020-07-15T18:12:08.828Z</time>
      </trkpt>
      <trkpt lat="66.33353" lon="13.14575">
        <ele>5.787321</ele>
        <time>2020-07-15T18:12:31.110Z</time>
      </trkpt>
      <trkpt lat="66.33347" lon="13.14533">
        <ele>6.680215</ele>
        <time>2020-07-15T18:12:38.575Z</time>
      </trkpt>
      <trkpt lat="66.33346" lon="13.14522">
        <ele>6.90927</ele>
        <time>2020-07-15T18:12:40.225Z</time>
      </trkpt>
      <trkpt lat="66.33337" lon="13.14475">
        <ele>7.939723</ele>
        <time>2020-07-15T18:12:47.349Z</time>
      </trkpt>
      <trkpt lat="66.33336" lon="13.1447">
        <ele>8.066595</ele>
        <time>2020-07-15T18:12:49.677Z</time>
      </trkpt>
      <trkpt lat="66.33292" lon="13.14323">
        <ele>11.519959</ele>
        <time>2020-07-15T18:13:16.323Z</time>
      </trkpt>
      <trkpt lat="66.33272" lon="13.14278">
        <ele>12.458214</ele>
        <time>2020-07-15T18:13:24.889Z</time>
      </trkpt>
      <trkpt lat="66.33242" lon="13.14222">
        <ele>13.755168</ele>
        <time>2020-07-15T18:13:37.459Z</time>
      </trkpt>
      <trkpt lat="66.33182" lon="13.14113">
        <ele>16.322253</ele>
        <time>2020-07-15T18:13:58.582Z</time>
      </trkpt>
      <trkpt lat="66.33058" lon="13.13884">
        <ele>18.743411</ele>
        <time>2020-07-15T18:14:26.527Z</time>
      </trkpt>
      <trkpt lat="66.33039" lon="13.13845">
        <ele>19.036461</ele>
        <time>2020-07-15T18:14:32.043Z</time>
      </trkpt>
      <trkpt lat="66.33015" lon="13.13793">
        <ele>19.561672</ele>
        <time>2020-07-15T18:14:39.813Z</time>
      </trkpt>
      <trkpt lat="66.32641" lon="13.12918">
        <ele>44.110772</ele>
        <time>2020-07-15T18:17:35.768Z</time>
      </trkpt>
      <trkpt lat="66.326" lon="13.12807">
        <ele>44.985871</ele>
        <time>2020-07-15T18:17:51.290Z</time>
      </trkpt>
      <trkpt lat="66.32587" lon="13.1276">
        <ele>44.897521</ele>
        <time>2020-07-15T18:17:56.765Z</time>
      </trkpt>
      <trkpt lat="66.32577" lon="13.12718">
        <ele>44.823123</ele>
        <time>2020-07-15T18:18:00.409Z</time>
      </trkpt>
      <trkpt lat="66.32558" lon="13.12595">
        <ele>44.622762</ele>
        <time>2020-07-15T18:18:08.377Z</time>
      </trkpt>
      <trkpt lat="66.32543" lon="13.12379">
        <ele>42.482144</ele>
        <time>2020-07-15T18:18:19.737Z</time>
      </trkpt>
      <trkpt lat="66.32536" lon="13.12294">
        <ele>40.859791</ele>
        <time>2020-07-15T18:18:23.941Z</time>
      </trkpt>
      <trkpt lat="66.32532" lon="13.12245">
        <ele>39.908836</ele>
        <time>2020-07-15T18:18:26.359Z</time>
      </trkpt>
      <trkpt lat="66.32511" lon="13.12093">
        <ele>36.886797</ele>
        <time>2020-07-15T18:18:34.075Z</time>
      </trkpt>
      <trkpt lat="66.32445" lon="13.11689">
        <ele>29.355454</ele>
        <time>2020-07-15T18:18:55.516Z</time>
      </trkpt>
      <trkpt lat="66.32431" lon="13.11515">
        <ele>27.699341</ele>
        <time>2020-07-15T18:19:05.413Z</time>
      </trkpt>
      <trkpt lat="66.32427" lon="13.11136">
        <ele>25.529287</ele>
        <time>2020-07-15T18:19:29.714Z</time>
      </trkpt>
      <trkpt lat="66.32421" lon="13.11029">
        <ele>24.742024</ele>
        <time>2020-07-15T18:19:36.575Z</time>
      </trkpt>
      <trkpt lat="66.32402" lon="13.10881">
        <ele>23.605626</ele>
        <time>2020-07-15T18:19:45.309Z</time>
      </trkpt>
      <trkpt lat="66.32371" lon="13.10756">
        <ele>22.525043</ele>
        <time>2020-07-15T18:19:53.290Z</time>
      </trkpt>
      <trkpt lat="66.32329" lon="13.10623">
        <ele>21.128435</ele>
        <time>2020-07-15T18:20:02.468Z</time>
      </trkpt>
      <trkpt lat="66.32235" lon="13.10324">
        <ele>18.613245</ele>
        <time>2020-07-15T18:20:24.401Z</time>
      </trkpt>
      <trkpt lat="66.32196" lon="13.10181">
        <ele>18.15486</ele>
        <time>2020-07-15T18:20:35.947Z</time>
      </trkpt>
      <trkpt lat="66.32166" lon="13.10048">
        <ele>17.756233</ele>
        <time>2020-07-15T18:20:46.427Z</time>
      </trkpt>
      <trkpt lat="66.32128" lon="13.0986">
        <ele>19.160294</ele>
        <time>2020-07-15T18:21:02.702Z</time>
      </trkpt>
      <trkpt lat="66.32045" lon="13.09459">
        <ele>23.990141</ele>
        <time>2020-07-15T18:21:52.737Z</time>
      </trkpt>
      <trkpt lat="66.31991" lon="13.09194">
        <ele>28.00048</ele>
        <time>2020-07-15T18:22:32.119Z</time>
      </trkpt>
      <trkpt lat="66.31918" lon="13.08838">
        <ele>30.54177</ele>
        <time>2020-07-15T18:23:08.907Z</time>
      </trkpt>
      <trkpt lat="66.31855" lon="13.08538">
        <ele>27.369628</ele>
        <time>2020-07-15T18:23:26.919Z</time>
      </trkpt>
      <trkpt lat="66.31817" lon="13.08337">
        <ele>25.623267</ele>
        <time>2020-07-15T18:23:38.699Z</time>
      </trkpt>
      <trkpt lat="66.3181" lon="13.08275">
        <ele>25.199385</ele>
        <time>2020-07-15T18:23:42.371Z</time>
      </trkpt>
      <trkpt lat="66.31805" lon="13.08216">
        <ele>24.806515</ele>
        <time>2020-07-15T18:23:46.009Z</time>
      </trkpt>
      <trkpt lat="66.31805" lon="13.08046">
        <ele>23.698971</ele>
        <time>2020-07-15T18:23:57.033Z</time>
      </trkpt>
      <trkpt lat="66.31839" lon="13.07503">
        <ele>20.929536</ele>
        <time>2020-07-15T18:24:32.037Z</time>
      </trkpt>
      <trkpt lat="66.31873" lon="13.07004">
        <ele>14.729523</ele>
        <time>2020-07-15T18:24:58.235Z</time>
      </trkpt>
      <trkpt lat="66.31895" lon="13.0684">
        <ele>12.351644</ele>
        <time>2020-07-15T18:25:07.098Z</time>
      </trkpt>
      <trkpt lat="66.31928" lon="13.06708">
        <ele>10.250945</ele>
        <time>2020-07-15T18:25:15.270Z</time>
      </trkpt>
      <trkpt lat="66.3197" lon="13.06602">
        <ele>9.060264</ele>
        <time>2020-07-15T18:25:23.260Z</time>
      </trkpt>
      <trkpt lat="66.32147" lon="13.06288">
        <ele>6.725734</ele>
        <time>2020-07-15T18:25:55.486Z</time>
      </trkpt>
      <trkpt lat="66.32213" lon="13.06219">
        <ele>6.724756</ele>
        <time>2020-07-15T18:26:11.436Z</time>
      </trkpt>
      <trkpt lat="66.32249" lon="13.06191">
        <ele>7.657311</ele>
        <time>2020-07-15T18:26:20.929Z</time>
      </trkpt>
      <trkpt lat="66.32252" lon="13.06188">
        <ele>7.759351</ele>
        <time>2020-07-15T18:26:21.818Z</time>
      </trkpt>
      <trkpt lat="66.32262" lon="13.06178">
        <ele>8.096221</ele>
        <time>2020-07-15T18:26:24.396Z</time>
      </trkpt>
      <trkpt lat="66.32273" lon="13.06161">
        <ele>8.504562</ele>
        <time>2020-07-15T18:26:27.607Z</time>
      </trkpt>
      <trkpt lat="66.32275" lon="13.06158">
        <ele>8.585045</ele>
        <time>2020-07-15T18:26:28.833Z</time>
      </trkpt>
      <trkpt lat="66.32365" lon="13.05886">
        <ele>13.056599</ele>
        <time>2020-07-15T18:27:10.834Z</time>
      </trkpt>
      <trkpt lat="66.32384" lon="13.05795">
        <ele>14.32538</ele>
        <time>2020-07-15T18:27:22.980Z</time>
      </trkpt>
      <trkpt lat="66.32398" lon="13.05684">
        <ele>15.749523</ele>
        <time>2020-07-15T18:27:35.955Z</time>
      </trkpt>
      <trkpt lat="66.3244" lon="13.05132">
        <ele>21.295633</ele>
        <time>2020-07-15T18:28:34.106Z</time>
      </trkpt>
      <trkpt lat="66.32464" lon="13.04989">
        <ele>22.022621</ele>
        <time>2020-07-15T18:28:47.637Z</time>
      </trkpt>
      <trkpt lat="66.32495" lon="13.0488">
        <ele>22.263256</ele>
        <time>2020-07-15T18:28:58.455Z</time>
      </trkpt>
      <trkpt lat="66.32606" lon="13.046">
        <ele>22.412979</ele>
        <time>2020-07-15T18:29:25.631Z</time>
      </trkpt>
      <trkpt lat="66.3265" lon="13.04494">
        <ele>22.182242</ele>
        <time>2020-07-15T18:29:35.735Z</time>
      </trkpt>
      <trkpt lat="66.32683" lon="13.04412">
        <ele>22.007769</ele>
        <time>2020-07-15T18:29:43.466Z</time>
      </trkpt>
      <trkpt lat="66.32789" lon="13.04148">
        <ele>21.406987</ele>
        <time>2020-07-15T18:30:08.645Z</time>
      </trkpt>
      <trkpt lat="66.32905" lon="13.03798">
        <ele>20.640913</ele>
        <time>2020-07-15T18:30:39.023Z</time>
      </trkpt>
      <trkpt lat="66.32983" lon="13.03556">
        <ele>19.96419</ele>
        <time>2020-07-15T18:30:59.425Z</time>
      </trkpt>
      <trkpt lat="66.33014" lon="13.03461">
        <ele>19.679751</ele>
        <time>2020-07-15T18:31:07.405Z</time>
      </trkpt>
      <trkpt lat="66.33056" lon="13.03353">
        <ele>19.33391</ele>
        <time>2020-07-15T18:31:17.202Z</time>
      </trkpt>
      <trkpt lat="66.33099" lon="13.03269">
        <ele>19.024602</ele>
        <time>2020-07-15T18:31:26.134Z</time>
      </trkpt>
      <trkpt lat="66.33246" lon="13.03069">
        <ele>18.175396</ele>
        <time>2020-07-15T18:31:53.481Z</time>
      </trkpt>
      <trkpt lat="66.33281" lon="13.03007">
        <ele>17.990851</ele>
        <time>2020-07-15T18:32:00.782Z</time>
      </trkpt>
      <trkpt lat="66.33308" lon="13.02946">
        <ele>17.836792</ele>
        <time>2020-07-15T18:32:06.927Z</time>
      </trkpt>
      <trkpt lat="66.33344" lon="13.02839">
        <ele>17.604537</ele>
        <time>2020-07-15T18:32:16.428Z</time>
      </trkpt>
      <trkpt lat="66.33374" lon="13.02739">
        <ele>17.401537</ele>
        <time>2020-07-15T18:32:25.140Z</time>
      </trkpt>
      <trkpt lat="66.33506" lon="13.02293">
        <ele>15.924867</ele>
        <time>2020-07-15T18:33:01.927Z</time>
      </trkpt>
      <trkpt lat="66.3356" lon="13.02126">
        <ele>15.006641</ele>
        <time>2020-07-15T18:33:14.499Z</time>
      </trkpt>
      <trkpt lat="66.33574" lon="13.02088">
        <ele>14.67723</ele>
        <time>2020-07-15T18:33:17.526Z</time>
      </trkpt>
      <trkpt lat="66.3358" lon="13.02072">
        <ele>14.544344</ele>
        <time>2020-07-15T18:33:18.641Z</time>
      </trkpt>
      <trkpt lat="66.3361" lon="13.01991">
        <ele>13.835671</ele>
        <time>2020-07-15T18:33:25.064Z</time>
      </trkpt>
      <trkpt lat="66.33659" lon="13.01866">
        <ele>12.722531</ele>
        <time>2020-07-15T18:33:35.048Z</time>
      </trkpt>
      <trkpt lat="66.33768" lon="13.01587">
        <ele>11.29305</ele>
        <time>2020-07-15T18:34:00.037Z</time>
      </trkpt>
      <trkpt lat="66.33805" lon="13.01491">
        <ele>10.827377</ele>
        <time>2020-07-15T18:34:08.649Z</time>
      </trkpt>
      <trkpt lat="66.33817" lon="13.0146">
        <ele>10.664198</ele>
        <time>2020-07-15T18:34:11.285Z</time>
      </trkpt>
      <trkpt lat="66.33828" lon="13.01432">
        <ele>10.512749</ele>
        <time>2020-07-15T18:34:13.741Z</time>
      </trkpt>
      <trkpt lat="66.33848" lon="13.01383">
        <ele>10.247557</ele>
        <time>2020-07-15T18:34:18.038Z</time>
      </trkpt>
      <trkpt lat="66.33867" lon="13.01335">
        <ele>9.990086</ele>
        <time>2020-07-15T18:34:22.152Z</time>
      </trkpt>
      <trkpt lat="66.33914" lon="13.01173">
        <ele>9.235262</ele>
        <time>2020-07-15T18:34:34.380Z</time>
      </trkpt>
      <trkpt lat="66.33976" lon="13.00812">
        <ele>9.44056</ele>
        <time>2020-07-15T18:35:01.400Z</time>
      </trkpt>
      <trkpt lat="66.33992" lon="13.00761">
        <ele>9.613227</ele>
        <time>2020-07-15T18:35:07.799Z</time>
      </trkpt>
      <trkpt lat="66.3401" lon="13.00741">
        <ele>10.138068</ele>
        <time>2020-07-15T18:35:12.734Z</time>
      </trkpt>
      <trkpt lat="66.34064" lon="13.00714">
        <ele>11.625626</ele>
        <time>2020-07-15T18:35:27.638Z</time>
      </trkpt>
      <trkpt lat="66.34163" lon="13.00632">
        <ele>14.376565</ele>
        <time>2020-07-15T18:35:57.484Z</time>
      </trkpt>
      <trkpt lat="66.34246" lon="13.00578">
        <ele>15.517677</ele>
        <time>2020-07-15T18:36:18.757Z</time>
      </trkpt>
      <trkpt lat="66.34294" lon="13.00549">
        <ele>16.179564</ele>
        <time>2020-07-15T18:36:29.022Z</time>
      </trkpt>
      <trkpt lat="66.34318" lon="13.00535">
        <ele>16.512427</ele>
        <time>2020-07-15T18:36:33.489Z</time>
      </trkpt>
      <trkpt lat="66.34357" lon="13.00494">
        <ele>16.463457</ele>
        <time>2020-07-15T18:36:40.272Z</time>
      </trkpt>
      <trkpt lat="66.34396" lon="13.00424">
        <ele>16.014083</ele>
        <time>2020-07-15T18:36:47.662Z</time>
      </trkpt>
      <trkpt lat="66.34445" lon="13.00331">
        <ele>15.439853</ele>
        <time>2020-07-15T18:36:56.934Z</time>
      </trkpt>
      <trkpt lat="66.34477" lon="13.00268">
        <ele>15.058111</ele>
        <time>2020-07-15T18:37:03.186Z</time>
      </trkpt>
      <trkpt lat="66.34514" lon="13.00209">
        <ele>14.821496</ele>
        <time>2020-07-15T18:37:10.005Z</time>
      </trkpt>
      <trkpt lat="66.34538" lon="13.00188">
        <ele>14.689602</ele>
        <time>2020-07-15T18:37:14.003Z</time>
      </trkpt>
      <trkpt lat="66.34661" lon="13.00157">
        <ele>14.122051</ele>
        <time>2020-07-15T18:37:35.103Z</time>
      </trkpt>
      <trkpt lat="66.34701" lon="13.00158">
        <ele>14.173513</ele>
        <time>2020-07-15T18:37:42.371Z</time>
      </trkpt>
      <trkpt lat="66.34877" lon="13.00201">
        <ele>14.619814</ele>
        <time>2020-07-15T18:38:14.993Z</time>
      </trkpt>
      <trkpt lat="66.34959" lon="13.00219">
        <ele>15.099267</ele>
        <time>2020-07-15T18:38:31.163Z</time>
      </trkpt>
      <trkpt lat="66.35017" lon="13.00233">
        <ele>15.484211</ele>
        <time>2020-07-15T18:38:43.217Z</time>
      </trkpt>
      <trkpt lat="66.35113" lon="13.00258">
        <ele>16.555382</ele>
        <time>2020-07-15T18:39:04.016Z</time>
      </trkpt>
      <trkpt lat="66.35282" lon="13.00295">
        <ele>18.56574</ele>
        <time>2020-07-15T18:39:40.752Z</time>
      </trkpt>
      <trkpt lat="66.35333" lon="13.00282">
        <ele>19.213775</ele>
        <time>2020-07-15T18:39:51.629Z</time>
      </trkpt>
      <trkpt lat="66.35387" lon="13.0024">
        <ele>20.406072</ele>
        <time>2020-07-15T18:40:04.008Z</time>
      </trkpt>
      <trkpt lat="66.35434" lon="13.00205">
        <ele>22.071157</ele>
        <time>2020-07-15T18:40:15.956Z</time>
      </trkpt>
      <trkpt lat="66.35499" lon="13.00175">
        <ele>24.303591</ele>
        <time>2020-07-15T18:40:34.840Z</time>
      </trkpt>
      <trkpt lat="66.35544" lon="13.00195">
        <ele>25.989334</ele>
        <time>2020-07-15T18:40:49.635Z</time>
      </trkpt>
      <trkpt lat="66.3567" lon="13.00377">
        <ele>37.473038</ele>
        <time>2020-07-15T18:41:52.914Z</time>
      </trkpt>
      <trkpt lat="66.35694" lon="13.00441">
        <ele>40.210466</ele>
        <time>2020-07-15T18:42:10.992Z</time>
      </trkpt>
      <trkpt lat="66.35712" lon="13.00508">
        <ele>42.434595</ele>
        <time>2020-07-15T18:42:26.518Z</time>
      </trkpt>
      <trkpt lat="66.35725" lon="13.00561">
        <ele>44.131619</ele>
        <time>2020-07-15T18:42:38.472Z</time>
      </trkpt>
      <trkpt lat="66.3576" lon="13.00704">
        <ele>48.745993</ele>
        <time>2020-07-15T18:43:05.993Z</time>
      </trkpt>
      <trkpt lat="66.35815" lon="13.00928">
        <ele>52.247306</ele>
        <time>2020-07-15T18:43:37.669Z</time>
      </trkpt>
      <trkpt lat="66.35833" lon="13.01023">
        <ele>52.246572</ele>
        <time>2020-07-15T18:43:44.679Z</time>
      </trkpt>
      <trkpt lat="66.35849" lon="13.01275">
        <ele>51.630239</ele>
        <time>2020-07-15T18:43:58.661Z</time>
      </trkpt>
      <trkpt lat="66.35868" lon="13.01468">
        <ele>49.03809</ele>
        <time>2020-07-15T18:44:09.070Z</time>
      </trkpt>
      <trkpt lat="66.35878" lon="13.01642">
        <ele>46.74053</ele>
        <time>2020-07-15T18:44:18.294Z</time>
      </trkpt>
      <trkpt lat="66.35885" lon="13.01702">
        <ele>45.725406</ele>
        <time>2020-07-15T18:44:21.464Z</time>
      </trkpt>
      <trkpt lat="66.35955" lon="13.01943">
        <ele>40.175884</ele>
        <time>2020-07-15T18:44:36.128Z</time>
      </trkpt>
      <trkpt lat="66.36015" lon="13.02179">
        <ele>33.996328</ele>
        <time>2020-07-15T18:44:49.548Z</time>
      </trkpt>
      <trkpt lat="66.36034" lon="13.0223">
        <ele>32.292167</ele>
        <time>2020-07-15T18:44:52.782Z</time>
      </trkpt>
      <trkpt lat="66.36057" lon="13.02273">
        <ele>30.511001</ele>
        <time>2020-07-15T18:44:56.118Z</time>
      </trkpt>
      <trkpt lat="66.36227" lon="13.02473">
        <ele>20.78347</ele>
        <time>2020-07-15T18:45:18.095Z</time>
      </trkpt>
      <trkpt lat="66.36354" lon="13.0269">
        <ele>17.807291</ele>
        <time>2020-07-15T18:45:40.602Z</time>
      </trkpt>
      <trkpt lat="66.36394" lon="13.02776">
        <ele>17.510006</ele>
        <time>2020-07-15T18:45:51.824Z</time>
      </trkpt>
      <trkpt lat="66.36433" lon="13.02895">
        <ele>17.671537</ele>
        <time>2020-07-15T18:46:05.470Z</time>
      </trkpt>
      <trkpt lat="66.36527" lon="13.03227">
        <ele>18.497515</ele>
        <time>2020-07-15T18:46:38.524Z</time>
      </trkpt>
      <trkpt lat="66.36743" lon="13.03896">
        <ele>15.07742</ele>
        <time>2020-07-15T18:47:30.641Z</time>
      </trkpt>
      <trkpt lat="66.36843" lon="13.04309">
        <ele>13.960169</ele>
        <time>2020-07-15T18:48:02.298Z</time>
      </trkpt>
      <trkpt lat="66.36871" lon="13.0443">
        <ele>13.774387</ele>
        <time>2020-07-15T18:48:11.854Z</time>
      </trkpt>
      <trkpt lat="66.36926" lon="13.04663">
        <ele>13.4329</ele>
        <time>2020-07-15T18:48:30.376Z</time>
      </trkpt>
      <trkpt lat="66.3698" lon="13.04898">
        <ele>13.429039</ele>
        <time>2020-07-15T18:48:49.023Z</time>
      </trkpt>
      <trkpt lat="66.37024" lon="13.05084">
        <ele>13.568539</ele>
        <time>2020-07-15T18:49:05.254Z</time>
      </trkpt>
      <trkpt lat="66.3708" lon="13.05319">
        <ele>14.327499</ele>
        <time>2020-07-15T18:49:27.367Z</time>
      </trkpt>
      <trkpt lat="66.37085" lon="13.0534">
        <ele>14.395747</ele>
        <time>2020-07-15T18:49:29.446Z</time>
      </trkpt>
      <trkpt lat="66.37145" lon="13.05596">
        <ele>15.072314</ele>
        <time>2020-07-15T18:49:54.025Z</time>
      </trkpt>
      <trkpt lat="66.37286" lon="13.06199">
        <ele>15.699543</ele>
        <time>2020-07-15T18:50:45.683Z</time>
      </trkpt>
      <trkpt lat="66.37323" lon="13.06358">
        <ele>15.107999</ele>
        <time>2020-07-15T18:50:57.501Z</time>
      </trkpt>
      <trkpt lat="66.37384" lon="13.06617">
        <ele>14.204922</ele>
        <time>2020-07-15T18:51:15.942Z</time>
      </trkpt>
      <trkpt lat="66.37418" lon="13.06777">
        <ele>14.064622</ele>
        <time>2020-07-15T18:51:27.554Z</time>
      </trkpt>
      <trkpt lat="66.37445" lon="13.06932">
        <ele>13.932903</ele>
        <time>2020-07-15T18:51:39.772Z</time>
      </trkpt>
      <trkpt lat="66.37497" lon="13.07225">
        <ele>15.070148</ele>
        <time>2020-07-15T18:52:06.822Z</time>
      </trkpt>
      <trkpt lat="66.37578" lon="13.07678">
        <ele>17.039805</ele>
        <time>2020-07-15T18:52:51.884Z</time>
      </trkpt>
      <trkpt lat="66.37603" lon="13.0779">
        <ele>17.493303</ele>
        <time>2020-07-15T18:53:01.722Z</time>
      </trkpt>
      <trkpt lat="66.3769" lon="13.08184">
        <ele>15.195623</ele>
        <time>2020-07-15T18:53:28.849Z</time>
      </trkpt>
      <trkpt lat="66.37711" lon="13.08277">
        <ele>14.165646</ele>
        <time>2020-07-15T18:53:34.456Z</time>
      </trkpt>
      <trkpt lat="66.37729" lon="13.08354">
        <ele>13.236752</ele>
        <time>2020-07-15T18:53:39.125Z</time>
      </trkpt>
      <trkpt lat="66.37731" lon="13.08362">
        <ele>13.137176</ele>
        <time>2020-07-15T18:53:39.595Z</time>
      </trkpt>
      <trkpt lat="66.3774" lon="13.08397">
        <ele>12.696118</ele>
        <time>2020-07-15T18:53:41.853Z</time>
      </trkpt>
      <trkpt lat="66.37789" lon="13.08586">
        <ele>10.375321</ele>
        <time>2020-07-15T18:53:53.808Z</time>
      </trkpt>
      <trkpt lat="66.37928" lon="13.09139">
        <ele>7.652599</ele>
        <time>2020-07-15T18:54:34.432Z</time>
      </trkpt>
      <trkpt lat="66.37987" lon="13.09305">
        <ele>7.071391</ele>
        <time>2020-07-15T18:54:49.485Z</time>
      </trkpt>
      <trkpt lat="66.38012" lon="13.09359">
        <ele>6.836452</ele>
        <time>2020-07-15T18:54:54.926Z</time>
      </trkpt>
      <trkpt lat="66.38038" lon="13.0941">
        <ele>6.593266</ele>
        <time>2020-07-15T18:55:00.373Z</time>
      </trkpt>
      <trkpt lat="66.38132" lon="13.09576">
        <ele>5.74586</ele>
        <time>2020-07-15T18:55:18.536Z</time>
      </trkpt>
      <trkpt lat="66.38203" lon="13.09696">
        <ele>5.069105</ele>
        <time>2020-07-15T18:55:31.742Z</time>
      </trkpt>
      <trkpt lat="66.38284" lon="13.09836">
        <ele>4.283546</ele>
        <time>2020-07-15T18:55:47.505Z</time>
      </trkpt>
      <trkpt lat="66.38513" lon="13.10245">
        <ele>3.321996</ele>
        <time>2020-07-15T18:56:35.068Z</time>
      </trkpt>
      <trkpt lat="66.38546" lon="13.10338">
        <ele>3.205146</ele>
        <time>2020-07-15T18:56:43.873Z</time>
      </trkpt>
      <trkpt lat="66.38569" lon="13.10451">
        <ele>3.116293</ele>
        <time>2020-07-15T18:56:52.776Z</time>
      </trkpt>
      <trkpt lat="66.38576" lon="13.10495">
        <ele>3.099296</ele>
        <time>2020-07-15T18:56:56.111Z</time>
      </trkpt>
      <trkpt lat="66.38594" lon="13.10619">
        <ele>3.051802</ele>
        <time>2020-07-15T18:57:05.268Z</time>
      </trkpt>
      <trkpt lat="66.38612" lon="13.10742">
        <ele>3.004346</ele>
        <time>2020-07-15T18:57:14.593Z</time>
      </trkpt>
      <trkpt lat="66.38633" lon="13.10885">
        <ele>2.93519</ele>
        <time>2020-07-15T18:57:25.407Z</time>
      </trkpt>
      <trkpt lat="66.38644" lon="13.10955">
        <ele>2.892815</ele>
        <time>2020-07-15T18:57:30.565Z</time>
      </trkpt>
      <trkpt lat="66.38662" lon="13.11084">
        <ele>2.813965</ele>
        <time>2020-07-15T18:57:40.166Z</time>
      </trkpt>
      <trkpt lat="66.3868" lon="13.11198">
        <ele>2.744196</ele>
        <time>2020-07-15T18:57:48.607Z</time>
      </trkpt>
      <trkpt lat="66.38703" lon="13.11348">
        <ele>2.550424</ele>
        <time>2020-07-15T18:57:59.708Z</time>
      </trkpt>
      <trkpt lat="66.38763" lon="13.11616">
        <ele>2.092992</ele>
        <time>2020-07-15T18:58:20.335Z</time>
      </trkpt>
      <trkpt lat="66.38841" lon="13.1192">
        <ele>1.535614</ele>
        <time>2020-07-15T18:58:44.277Z</time>
      </trkpt>
      <trkpt lat="66.3885" lon="13.11948">
        <ele>1.47966</ele>
        <time>2020-07-15T18:58:46.742Z</time>
      </trkpt>
      <trkpt lat="66.38857" lon="13.11968">
        <ele>1.439029</ele>
        <time>2020-07-15T18:58:48.462Z</time>
      </trkpt>
      <trkpt lat="66.38907" lon="13.12072">
        <ele>1.268114</ele>
        <time>2020-07-15T18:58:59.666Z</time>
      </trkpt>
      <trkpt lat="66.39027" lon="13.12273">
        <ele>1.000422</ele>
        <time>2020-07-15T18:59:24.677Z</time>
      </trkpt>
      <trkpt lat="66.39069" lon="13.12346">
        <ele>0.970512</ele>
        <time>2020-07-15T18:59:33.724Z</time>
      </trkpt>
      <trkpt lat="66.39101" lon="13.12395">
        <ele>0.948827</ele>
        <time>2020-07-15T18:59:40.308Z</time>
      </trkpt>
      <trkpt lat="66.39116" lon="13.12416">
        <ele>0.938818</ele>
        <time>2020-07-15T18:59:43.367Z</time>
      </trkpt>
      <trkpt lat="66.39132" lon="13.12436">
        <ele>0.928453</ele>
        <time>2020-07-15T18:59:46.528Z</time>
      </trkpt>
      <trkpt lat="66.39145" lon="13.12451">
        <ele>0.92007</ele>
        <time>2020-07-15T18:59:49.106Z</time>
      </trkpt>
      <trkpt lat="66.39211" lon="13.12519">
        <ele>0.905592</ele>
        <time>2020-07-15T19:00:01.866Z</time>
      </trkpt>
      <trkpt lat="66.39269" lon="13.12578">
        <ele>0.915104</ele>
        <time>2020-07-15T19:00:13.063Z</time>
      </trkpt>
      <trkpt lat="66.39293" lon="13.12604">
        <ele>0.918998</ele>
        <time>2020-07-15T19:00:17.683Z</time>
      </trkpt>
      <trkpt lat="66.3931" lon="13.12628">
        <ele>0.922085</ele>
        <time>2020-07-15T19:00:21.360Z</time>
      </trkpt>
      <trkpt lat="66.39443" lon="13.1284">
        <ele>0.975708</ele>
        <time>2020-07-15T19:00:49.749Z</time>
      </trkpt>
      <trkpt lat="66.39501" lon="13.12919">
        <ele>1.002395</ele>
        <time>2020-07-15T19:01:01.489Z</time>
      </trkpt>
      <trkpt lat="66.39553" lon="13.12984">
        <ele>1.030243</ele>
        <time>2020-07-15T19:01:11.779Z</time>
      </trkpt>
      <trkpt lat="66.39606" lon="13.13049">
        <ele>1.058772</ele>
        <time>2020-07-15T19:01:22.282Z</time>
      </trkpt>
      <trkpt lat="66.39636" lon="13.13086">
        <ele>1.075084</ele>
        <time>2020-07-15T19:01:28.400Z</time>
      </trkpt>
      <trkpt lat="66.39657" lon="13.13114">
        <ele>1.100337</ele>
        <time>2020-07-15T19:01:32.788Z</time>
      </trkpt>
      <trkpt lat="66.39701" lon="13.13184">
        <ele>1.307168</ele>
        <time>2020-07-15T19:01:42.577Z</time>
      </trkpt>
      <trkpt lat="66.39714" lon="13.13211">
        <ele>1.373568</ele>
        <time>2020-07-15T19:01:45.846Z</time>
      </trkpt>
      <trkpt lat="66.39731" lon="13.13251">
        <ele>1.466396</ele>
        <time>2020-07-15T19:01:50.292Z</time>
      </trkpt>
      <trkpt lat="66.3975" lon="13.13302">
        <ele>1.579801</ele>
        <time>2020-07-15T19:01:55.805Z</time>
      </trkpt>
      <trkpt lat="66.39765" lon="13.13346">
        <ele>1.670135</ele>
        <time>2020-07-15T19:02:00.266Z</time>
      </trkpt>
      <trkpt lat="66.39774" lon="13.13377">
        <ele>1.731553</ele>
        <time>2020-07-15T19:02:03.221Z</time>
      </trkpt>
      <trkpt lat="66.39787" lon="13.13435">
        <ele>1.845397</ele>
        <time>2020-07-15T19:02:08.476Z</time>
      </trkpt>
      <trkpt lat="66.39794" lon="13.13471">
        <ele>1.918936</ele>
        <time>2020-07-15T19:02:11.507Z</time>
      </trkpt>
      <trkpt lat="66.39798" lon="13.13497">
        <ele>1.972519</ele>
        <time>2020-07-15T19:02:13.808Z</time>
      </trkpt>
      <trkpt lat="66.39854" lon="13.13847">
        <ele>2.673817</ele>
        <time>2020-07-15T19:02:42.991Z</time>
      </trkpt>
      <trkpt lat="66.39857" lon="13.13864">
        <ele>2.703086</ele>
        <time>2020-07-15T19:02:44.438Z</time>
      </trkpt>
      <trkpt lat="66.39864" lon="13.13899">
        <ele>2.762067</ele>
        <time>2020-07-15T19:02:47.358Z</time>
      </trkpt>
      <trkpt lat="66.39881" lon="13.13972">
        <ele>2.889318</ele>
        <time>2020-07-15T19:02:53.735Z</time>
      </trkpt>
      <trkpt lat="66.39988" lon="13.14438">
        <ele>3.622036</ele>
        <time>2020-07-15T19:03:34.705Z</time>
      </trkpt>
      <trkpt lat="66.39999" lon="13.14491">
        <ele>3.691647</ele>
        <time>2020-07-15T19:03:39.024Z</time>
      </trkpt>
      <trkpt lat="66.40028" lon="13.14695">
        <ele>3.932979</ele>
        <time>2020-07-15T19:03:55.068Z</time>
      </trkpt>
      <trkpt lat="66.40035" lon="13.14807">
        <ele>4.0481</ele>
        <time>2020-07-15T19:04:03.703Z</time>
      </trkpt>
      <trkpt lat="66.40035" lon="13.14869">
        <ele>4.110201</ele>
        <time>2020-07-15T19:04:08.423Z</time>
      </trkpt>
      <trkpt lat="66.40035" lon="13.14933">
        <ele>4.175146</ele>
        <time>2020-07-15T19:04:13.523Z</time>
      </trkpt>
      <trkpt lat="66.40034" lon="13.14979">
        <ele>4.221598</ele>
        <time>2020-07-15T19:04:16.765Z</time>
      </trkpt>
      <trkpt lat="66.40037" lon="13.15078">
        <ele>4.286759</ele>
        <time>2020-07-15T19:04:24.169Z</time>
      </trkpt>
      <trkpt lat="66.40041" lon="13.1515">
        <ele>4.133795</ele>
        <time>2020-07-15T19:04:29.229Z</time>
      </trkpt>
      <trkpt lat="66.40054" lon="13.15238">
        <ele>3.936191</ele>
        <time>2020-07-15T19:04:35.797Z</time>
      </trkpt>
      <trkpt lat="66.40059" lon="13.15267">
        <ele>3.869237</ele>
        <time>2020-07-15T19:04:38.300Z</time>
      </trkpt>
      <trkpt lat="66.40066" lon="13.15305">
        <ele>3.780998</ele>
        <time>2020-07-15T19:04:40.878Z</time>
      </trkpt>
      <trkpt lat="66.401" lon="13.15478">
        <ele>3.376093</ele>
        <time>2020-07-15T19:04:52.945Z</time>
      </trkpt>
      <trkpt lat="66.40137" lon="13.15613">
        <ele>2.599514</ele>
        <time>2020-07-15T19:05:02.674Z</time>
      </trkpt>
      <trkpt lat="66.40149" lon="13.15645">
        <ele>2.381073</ele>
        <time>2020-07-15T19:05:05.278Z</time>
      </trkpt>
      <trkpt lat="66.40155" lon="13.15659">
        <ele>2.281995</ele>
        <time>2020-07-15T19:05:06.586Z</time>
      </trkpt>
      <trkpt lat="66.40165" lon="13.1568">
        <ele>2.127191</ele>
        <time>2020-07-15T19:05:08.460Z</time>
      </trkpt>
      <trkpt lat="66.4019" lon="13.1572">
        <ele>1.757191</ele>
        <time>2020-07-15T19:05:13.073Z</time>
      </trkpt>
      <trkpt lat="66.40216" lon="13.15744">
        <ele>1.429661</ele>
        <time>2020-07-15T19:05:17.178Z</time>
      </trkpt>
      <trkpt lat="66.40242" lon="13.1576">
        <ele>1.142081</ele>
        <time>2020-07-15T19:05:21.229Z</time>
      </trkpt>
      <trkpt lat="66.40268" lon="13.15775">
        <ele>0.981782</ele>
        <time>2020-07-15T19:05:25.442Z</time>
      </trkpt>
      <trkpt lat="66.40377" lon="13.15843">
        <ele>0.315748</ele>
        <time>2020-07-15T19:05:43.771Z</time>
      </trkpt>
      <trkpt lat="66.40465" lon="13.15895">
        <ele>0.074999</ele>
        <time>2020-07-15T19:05:59.623Z</time>
      </trkpt>
      <trkpt lat="66.40479" lon="13.15904">
        <ele>0.066097</ele>
        <time>2020-07-15T19:06:02.209Z</time>
      </trkpt>
      <trkpt lat="66.40489" lon="13.1591">
        <ele>0.059868</ele>
        <time>2020-07-15T19:06:04.025Z</time>
      </trkpt>
      <trkpt lat="66.40496" lon="13.15914">
        <ele>0.055635</ele>
        <time>2020-07-15T19:06:05.257Z</time>
      </trkpt>
      <trkpt lat="66.40499" lon="13.15916">
        <ele>0.053886</ele>
        <time>2020-07-15T19:06:05.773Z</time>
      </trkpt>
      <trkpt lat="66.4055" lon="13.15946">
        <ele>0.022196</ele>
        <time>2020-07-15T19:06:15.068Z</time>
      </trkpt>
      <trkpt lat="66.40641" lon="13.16016">
        <ele>7.1</ele>
        <time>2020-07-15T19:06:32.199Z</time>
      </trkpt>
      <trkpt lat="66.40656" lon="13.16029">
        <ele>7.3</ele>
        <time>2020-07-15T19:06:35.013Z</time>
      </trkpt>
      <trkpt lat="66.40666" lon="13.16036">
        <ele>7</ele>
        <time>2020-07-15T19:06:36.764Z</time>
      </trkpt>
      <trkpt lat="66.40694" lon="13.16047">
        <ele>7.1</ele>
        <time>2020-07-15T19:06:41.846Z</time>
      </trkpt>
      <trkpt lat="66.40711" lon="13.16049">
        <ele>7.7</ele>
        <time>2020-07-15T19:06:44.902Z</time>
      </trkpt>
      <trkpt lat="66.40712" lon="13.16049">
        <ele>7.8</ele>
        <time>2020-07-15T19:06:45.085Z</time>
      </trkpt>
      <trkpt lat="66.40746" lon="13.16039">
        <ele>8</ele>
        <time>2020-07-15T19:06:51.104Z</time>
      </trkpt>
      <trkpt lat="66.40771" lon="13.16019">
        <ele>8.3</ele>
        <time>2020-07-15T19:06:55.809Z</time>
      </trkpt>
      <trkpt lat="66.40845" lon="13.15897">
        <ele>10.1</ele>
        <time>2020-07-15T19:07:11.605Z</time>
      </trkpt>
      <trkpt lat="66.40867" lon="13.15874">
        <ele>10</ele>
        <time>2020-07-15T19:07:15.952Z</time>
      </trkpt>
      <trkpt lat="66.4093" lon="13.15859">
        <ele>6.3</ele>
        <time>2020-07-15T19:07:27.190Z</time>
      </trkpt>
      <trkpt lat="66.41004" lon="13.15859">
        <ele>4.8</ele>
        <time>2020-07-15T19:07:40.427Z</time>
      </trkpt>
      <trkpt lat="66.4108" lon="13.15864">
        <ele>5.3</ele>
        <time>2020-07-15T19:07:53.958Z</time>
      </trkpt>
      <trkpt lat="66.41102" lon="13.15864">
        <ele>5.4</ele>
        <time>2020-07-15T19:07:57.919Z</time>
      </trkpt>
      <trkpt lat="66.41139" lon="13.15853">
        <ele>5.8</ele>
        <time>2020-07-15T19:08:04.552Z</time>
      </trkpt>
      <trkpt lat="66.41165" lon="13.15832">
        <ele>5.7</ele>
        <time>2020-07-15T19:08:09.371Z</time>
      </trkpt>
      <trkpt lat="66.41283" lon="13.15691">
        <ele>6.5</ele>
        <time>2020-07-15T19:08:32.794Z</time>
      </trkpt>
      <trkpt lat="66.41412" lon="13.1546">
        <ele>8</ele>
        <time>2020-07-15T19:09:01.135Z</time>
      </trkpt>
      <trkpt lat="66.41518" lon="13.15332">
        <ele>6.8</ele>
        <time>2020-07-15T19:09:22.185Z</time>
      </trkpt>
      <trkpt lat="66.41611" lon="13.15313">
        <ele>6.6</ele>
        <time>2020-07-15T19:09:38.698Z</time>
      </trkpt>
      <trkpt lat="66.41767" lon="13.15228">
        <ele>8.8</ele>
        <time>2020-07-15T19:10:07.267Z</time>
      </trkpt>
      <trkpt lat="66.41905" lon="13.15186">
        <ele>7.9</ele>
        <time>2020-07-15T19:10:32.116Z</time>
      </trkpt>
      <trkpt lat="66.42002" lon="13.15133">
        <ele>0.001057</ele>
        <time>2020-07-15T19:10:49.780Z</time>
      </trkpt>
      <trkpt lat="66.42041" lon="13.1513">
        <ele>0.001704</ele>
        <time>2020-07-15T19:10:56.795Z</time>
      </trkpt>
      <trkpt lat="66.42083" lon="13.15146">
        <ele>0.0024</ele>
        <time>2020-07-15T19:11:04.333Z</time>
      </trkpt>
      <trkpt lat="66.42093" lon="13.15149">
        <ele>0.002563</ele>
        <time>2020-07-15T19:11:06.087Z</time>
      </trkpt>
      <trkpt lat="66.42097" lon="13.15149">
        <ele>0.002639</ele>
        <time>2020-07-15T19:11:06.925Z</time>
      </trkpt>
      <trkpt lat="66.42117" lon="13.15141">
        <ele>0.002968</ele>
        <time>2020-07-15T19:11:10.495Z</time>
      </trkpt>
      <trkpt lat="66.42139" lon="13.15111">
        <ele>0.029189</ele>
        <time>2020-07-15T19:11:15.003Z</time>
      </trkpt>
      <trkpt lat="66.42151" lon="13.15087">
        <ele>0.045498</ele>
        <time>2020-07-15T19:11:17.794Z</time>
      </trkpt>
      <trkpt lat="66.42167" lon="13.15062">
        <ele>0.065007</ele>
        <time>2020-07-15T19:11:21.154Z</time>
      </trkpt>
      <trkpt lat="66.4225" lon="13.14982">
        <ele>0.158638</ele>
        <time>2020-07-15T19:11:37.347Z</time>
      </trkpt>
      <trkpt lat="66.42381" lon="13.14751">
        <ele>0.458546</ele>
        <time>2020-07-15T19:12:07.023Z</time>
      </trkpt>
      <trkpt lat="66.42457" lon="13.14691">
        <ele>0.575639</ele>
        <time>2020-07-15T19:12:21.693Z</time>
      </trkpt>
      <trkpt lat="66.42504" lon="13.14613">
        <ele>0.598285</ele>
        <time>2020-07-15T19:12:32.059Z</time>
      </trkpt>
      <trkpt lat="66.42584" lon="13.14527">
        <ele>0.632881</ele>
        <time>2020-07-15T19:12:47.518Z</time>
      </trkpt>
      <trkpt lat="66.42728" lon="13.14318">
        <ele>0.333258</ele>
        <time>2020-07-15T19:13:16.120Z</time>
      </trkpt>
      <trkpt lat="66.42806" lon="13.14265">
        <ele>0.298094</ele>
        <time>2020-07-15T19:13:30.183Z</time>
      </trkpt>
      <trkpt lat="66.42887" lon="13.14236">
        <ele>0.306743</ele>
        <time>2020-07-15T19:13:44.717Z</time>
      </trkpt>
      <trkpt lat="66.4291" lon="13.14224">
        <ele>0.309216</ele>
        <time>2020-07-15T19:13:48.970Z</time>
      </trkpt>
      <trkpt lat="66.42922" lon="13.14218">
        <ele>0.31058</ele>
        <time>2020-07-15T19:13:51.356Z</time>
      </trkpt>
      <trkpt lat="66.42945" lon="13.14213">
        <ele>0.412265</ele>
        <time>2020-07-15T19:13:55.555Z</time>
      </trkpt>
      <trkpt lat="66.42987" lon="13.14235">
        <ele>0.633017</ele>
        <time>2020-07-15T19:14:03.846Z</time>
      </trkpt>
      <trkpt lat="66.43076" lon="13.14345">
        <ele>1.13725</ele>
        <time>2020-07-15T19:14:23.494Z</time>
      </trkpt>
      <trkpt lat="66.4316" lon="13.14417">
        <ele>1.605036</ele>
        <time>2020-07-15T19:14:41.468Z</time>
      </trkpt>
      <trkpt lat="66.43274" lon="13.1465">
        <ele>2.138092</ele>
        <time>2020-07-15T19:15:09.856Z</time>
      </trkpt>
      <trkpt lat="66.43313" lon="13.14716">
        <ele>2.087092</ele>
        <time>2020-07-15T19:15:18.148Z</time>
      </trkpt>
      <trkpt lat="66.43592" lon="13.15093">
        <ele>1.923708</ele>
        <time>2020-07-15T19:16:10.935Z</time>
      </trkpt>
      <trkpt lat="66.43696" lon="13.15228">
        <ele>3.577866</ele>
        <time>2020-07-15T19:16:37.964Z</time>
      </trkpt>
      <trkpt lat="66.43792" lon="13.1535">
        <ele>7.597151</ele>
        <time>2020-07-15T19:17:09.266Z</time>
      </trkpt>
      <trkpt lat="66.43896" lon="13.15471">
        <ele>13.033704</ele>
        <time>2020-07-15T19:17:48.715Z</time>
      </trkpt>
      <trkpt lat="66.43944" lon="13.15505">
        <ele>16.268103</ele>
        <time>2020-07-15T19:18:06.726Z</time>
      </trkpt>
      <trkpt lat="66.43973" lon="13.15505">
        <ele>18.187328</ele>
        <time>2020-07-15T19:18:17.867Z</time>
      </trkpt>
      <trkpt lat="66.43978" lon="13.15503">
        <ele>18.540866</ele>
        <time>2020-07-15T19:18:20.209Z</time>
      </trkpt>
      <trkpt lat="66.43998" lon="13.15491">
        <ele>19.893232</ele>
        <time>2020-07-15T19:18:28.915Z</time>
      </trkpt>
      <trkpt lat="66.44051" lon="13.15435">
        <ele>23.836022</ele>
        <time>2020-07-15T19:18:52.475Z</time>
      </trkpt>
      <trkpt lat="66.44059" lon="13.15422">
        <ele>24.729365</ele>
        <time>2020-07-15T19:18:57.158Z</time>
      </trkpt>
      <trkpt lat="66.44074" lon="13.15394">
        <ele>26.480648</ele>
        <time>2020-07-15T19:19:04.777Z</time>
      </trkpt>
      <trkpt lat="66.44087" lon="13.15364">
        <ele>28.157982</ele>
        <time>2020-07-15T19:19:13.055Z</time>
      </trkpt>
      <trkpt lat="66.44126" lon="13.15266">
        <ele>33.420472</ele>
        <time>2020-07-15T19:19:38.642Z</time>
      </trkpt>
      <trkpt lat="66.44224" lon="13.15033">
        <ele>46.220351</ele>
        <time>2020-07-15T19:20:51.137Z</time>
      </trkpt>
      <trkpt lat="66.44241" lon="13.14997">
        <ele>48.304299</ele>
        <time>2020-07-15T19:21:01.937Z</time>
      </trkpt>
      <trkpt lat="66.44244" lon="13.14992">
        <ele>48.64283</ele>
        <time>2020-07-15T19:21:03.343Z</time>
      </trkpt>
      <trkpt lat="66.44246" lon="13.14989">
        <ele>48.816909</ele>
        <time>2020-07-15T19:21:05.045Z</time>
      </trkpt>
      <trkpt lat="66.44286" lon="13.14919">
        <ele>53.432403</ele>
        <time>2020-07-15T19:21:26.725Z</time>
      </trkpt>
      <trkpt lat="66.44321" lon="13.14894">
        <ele>56.924392</ele>
        <time>2020-07-15T19:21:43.068Z</time>
      </trkpt>
      <trkpt lat="66.44363" lon="13.14895">
        <ele>59.170358</ele>
        <time>2020-07-15T19:22:00.500Z</time>
      </trkpt>
      <trkpt lat="66.44399" lon="13.14936">
        <ele>61.14968</ele>
        <time>2020-07-15T19:22:14.994Z</time>
      </trkpt>
      <trkpt lat="66.4442" lon="13.14986">
        <ele>62.595143</ele>
        <time>2020-07-15T19:22:23.443Z</time>
      </trkpt>
      <trkpt lat="66.44479" lon="13.1517">
        <ele>66.911408</ele>
        <time>2020-07-15T19:22:50.532Z</time>
      </trkpt>
      <trkpt lat="66.44585" lon="13.15355">
        <ele>71.083762</ele>
        <time>2020-07-15T19:23:27.318Z</time>
      </trkpt>
      <trkpt lat="66.44642" lon="13.15492">
        <ele>72.904299</ele>
        <time>2020-07-15T19:23:48.855Z</time>
      </trkpt>
      <trkpt lat="66.44669" lon="13.15574">
        <ele>73.629534</ele>
        <time>2020-07-15T19:23:59.758Z</time>
      </trkpt>
      <trkpt lat="66.44751" lon="13.15878">
        <ele>74.520378</ele>
        <time>2020-07-15T19:24:29.241Z</time>
      </trkpt>
      <trkpt lat="66.44812" lon="13.16039">
        <ele>73.550967</ele>
        <time>2020-07-15T19:24:42.444Z</time>
      </trkpt>
      <trkpt lat="66.44823" lon="13.16119">
        <ele>73.176517</ele>
        <time>2020-07-15T19:24:46.992Z</time>
      </trkpt>
      <trkpt lat="66.44829" lon="13.16314">
        <ele>70.648021</ele>
        <time>2020-07-15T19:24:57.035Z</time>
      </trkpt>
      <trkpt lat="66.44871" lon="13.16649">
        <ele>66.590029</ele>
        <time>2020-07-15T19:25:15.285Z</time>
      </trkpt>
      <trkpt lat="66.44874" lon="13.16704">
        <ele>66.160232</ele>
        <time>2020-07-15T19:25:18.234Z</time>
      </trkpt>
      <trkpt lat="66.44864" lon="13.16783">
        <ele>65.507499</ele>
        <time>2020-07-15T19:25:22.828Z</time>
      </trkpt>
      <trkpt lat="66.44811" lon="13.16963">
        <ele>63.850862</ele>
        <time>2020-07-15T19:25:36.313Z</time>
      </trkpt>
      <trkpt lat="66.44797" lon="13.17087">
        <ele>64.246304</ele>
        <time>2020-07-15T19:25:45.558Z</time>
      </trkpt>
      <trkpt lat="66.44795" lon="13.17295">
        <ele>64.881429</ele>
        <time>2020-07-15T19:26:02.055Z</time>
      </trkpt>
      <trkpt lat="66.44798" lon="13.17396">
        <ele>65.188705</ele>
        <time>2020-07-15T19:26:11.795Z</time>
      </trkpt>
      <trkpt lat="66.44808" lon="13.17452">
        <ele>66.076362</ele>
        <time>2020-07-15T19:26:18.281Z</time>
      </trkpt>
      <trkpt lat="66.44827" lon="13.17502">
        <ele>67.103531</ele>
        <time>2020-07-15T19:26:25.818Z</time>
      </trkpt>
      <trkpt lat="66.44883" lon="13.1761">
        <ele>69.718893</ele>
        <time>2020-07-15T19:26:46.721Z</time>
      </trkpt>
      <trkpt lat="66.44905" lon="13.17652">
        <ele>70.750964</ele>
        <time>2020-07-15T19:26:55.910Z</time>
      </trkpt>
      <trkpt lat="66.44961" lon="13.17784">
        <ele>74.432149</ele>
        <time>2020-07-15T19:27:22.308Z</time>
      </trkpt>
      <trkpt lat="66.45076" lon="13.18236">
        <ele>86.775199</ele>
        <time>2020-07-15T19:28:39.327Z</time>
      </trkpt>
      <trkpt lat="66.45085" lon="13.18323">
        <ele>88.987267</ele>
        <time>2020-07-15T19:28:51.605Z</time>
      </trkpt>
      <trkpt lat="66.45087" lon="13.18573">
        <ele>96.202341</ele>
        <time>2020-07-15T19:29:33.006Z</time>
      </trkpt>
      <trkpt lat="66.45108" lon="13.18726">
        <ele>101.984368</ele>
        <time>2020-07-15T19:30:02.564Z</time>
      </trkpt>
      <trkpt lat="66.4511" lon="13.18745">
        <ele>102.669581</ele>
        <time>2020-07-15T19:30:06.939Z</time>
      </trkpt>
      <trkpt lat="66.45129" lon="13.18894">
        <ele>108.281197</ele>
        <time>2020-07-15T19:30:37.922Z</time>
      </trkpt>
      <trkpt lat="66.45168" lon="13.1921">
        <ele>116.92992</ele>
        <time>2020-07-15T19:31:43.350Z</time>
      </trkpt>
      <trkpt lat="66.45181" lon="13.19299">
        <ele>119.346364</ele>
        <time>2020-07-15T19:31:55.501Z</time>
      </trkpt>
      <trkpt lat="66.45184" lon="13.19319">
        <ele>119.879294</ele>
        <time>2020-07-15T19:31:58.075Z</time>
      </trkpt>
      <trkpt lat="66.45338" lon="13.20199">
        <ele>96.532758</ele>
        <time>2020-07-15T19:32:42.621Z</time>
      </trkpt>
      <trkpt lat="66.45342" lon="13.20221">
        <ele>95.650934</ele>
        <time>2020-07-15T19:32:43.606Z</time>
      </trkpt>
      <trkpt lat="66.45346" lon="13.20245">
        <ele>94.697217</ele>
        <time>2020-07-15T19:32:44.702Z</time>
      </trkpt>
      <trkpt lat="66.45376" lon="13.20339">
        <ele>90.339483</ele>
        <time>2020-07-15T19:32:49.896Z</time>
      </trkpt>
      <trkpt lat="66.45399" lon="13.20381">
        <ele>87.66385</ele>
        <time>2020-07-15T19:32:53.006Z</time>
      </trkpt>
      <trkpt lat="66.45438" lon="13.20427">
        <ele>83.739382</ele>
        <time>2020-07-15T19:32:57.688Z</time>
      </trkpt>
      <trkpt lat="66.45725" lon="13.2071">
        <ele>65.826274</ele>
        <time>2020-07-15T19:33:35.027Z</time>
      </trkpt>
      <trkpt lat="66.45756" lon="13.2073">
        <ele>63.995596</ele>
        <time>2020-07-15T19:33:38.845Z</time>
      </trkpt>
      <trkpt lat="66.45822" lon="13.20742">
        <ele>59.851074</ele>
        <time>2020-07-15T19:33:46.495Z</time>
      </trkpt>
      <trkpt lat="66.45829" lon="13.20753">
        <ele>59.278818</ele>
        <time>2020-07-15T19:33:47.366Z</time>
      </trkpt>
      <trkpt lat="66.45832" lon="13.20761">
        <ele>58.962171</ele>
        <time>2020-07-15T19:33:47.849Z</time>
      </trkpt>
      <trkpt lat="66.45835" lon="13.2079">
        <ele>58.075553</ele>
        <time>2020-07-15T19:33:49.252Z</time>
      </trkpt>
      <trkpt lat="66.45835" lon="13.20803">
        <ele>57.691318</ele>
        <time>2020-07-15T19:33:49.843Z</time>
      </trkpt>
      <trkpt lat="66.45824" lon="13.21086">
        <ele>49.354623</ele>
        <time>2020-07-15T19:34:02.764Z</time>
      </trkpt>
      <trkpt lat="66.45817" lon="13.21226">
        <ele>45.710926</ele>
        <time>2020-07-15T19:34:09.148Z</time>
      </trkpt>
      <trkpt lat="66.4582" lon="13.21317">
        <ele>43.461492</ele>
        <time>2020-07-15T19:34:13.376Z</time>
      </trkpt>
      <trkpt lat="66.45832" lon="13.21414">
        <ele>40.934694</ele>
        <time>2020-07-15T19:34:18.240Z</time>
      </trkpt>
      <trkpt lat="66.45859" lon="13.21532">
        <ele>37.597313</ele>
        <time>2020-07-15T19:34:24.809Z</time>
      </trkpt>
      <trkpt lat="66.459" lon="13.21669">
        <ele>33.274297</ele>
        <time>2020-07-15T19:34:33.006Z</time>
      </trkpt>
      <trkpt lat="66.45977" lon="13.21909">
        <ele>25.460131</ele>
        <time>2020-07-15T19:34:47.241Z</time>
      </trkpt>
      <trkpt lat="66.45981" lon="13.2192">
        <ele>25.152672</ele>
        <time>2020-07-15T19:34:47.826Z</time>
      </trkpt>
      <trkpt lat="66.45999" lon="13.21979">
        <ele>23.486129</ele>
        <time>2020-07-15T19:34:51.357Z</time>
      </trkpt>
      <trkpt lat="66.46002" lon="13.21986">
        <ele>23.265987</ele>
        <time>2020-07-15T19:34:51.779Z</time>
      </trkpt>
      <trkpt lat="66.46005" lon="13.21998">
        <ele>22.928812</ele>
        <time>2020-07-15T19:34:52.421Z</time>
      </trkpt>
      <trkpt lat="66.46081" lon="13.22239">
        <ele>16.098223</ele>
        <time>2020-07-15T19:35:06.983Z</time>
      </trkpt>
      <trkpt lat="66.46144" lon="13.22365">
        <ele>15.40175</ele>
        <time>2020-07-15T19:35:18.482Z</time>
      </trkpt>
      <trkpt lat="66.46146" lon="13.22369">
        <ele>15.394008</ele>
        <time>2020-07-15T19:35:18.867Z</time>
      </trkpt>
      <trkpt lat="66.46149" lon="13.22375">
        <ele>15.382629</ele>
        <time>2020-07-15T19:35:19.976Z</time>
      </trkpt>
      <trkpt lat="66.46182" lon="13.22463">
        <ele>15.236776</ele>
        <time>2020-07-15T19:35:29.368Z</time>
      </trkpt>
      <trkpt lat="66.46187" lon="13.22477">
        <ele>15.215445</ele>
        <time>2020-07-15T19:35:30.716Z</time>
      </trkpt>
      <trkpt lat="66.46188" lon="13.22482">
        <ele>15.208177</ele>
        <time>2020-07-15T19:35:31.300Z</time>
      </trkpt>
      <trkpt lat="66.46192" lon="13.22496">
        <ele>15.186842</ele>
        <time>2020-07-15T19:35:32.905Z</time>
      </trkpt>
      <trkpt lat="66.46196" lon="13.22507">
        <ele>15.168719</ele>
        <time>2020-07-15T19:35:34.434Z</time>
      </trkpt>
      <trkpt lat="66.46202" lon="13.22525">
        <ele>15.141724</ele>
        <time>2020-07-15T19:35:36.600Z</time>
      </trkpt>
      <trkpt lat="66.46206" lon="13.2254">
        <ele>15.119069</ele>
        <time>2020-07-15T19:35:38.024Z</time>
      </trkpt>
      <trkpt lat="66.46211" lon="13.22556">
        <ele>15.094809</ele>
        <time>2020-07-15T19:35:39.972Z</time>
      </trkpt>
      <trkpt lat="66.46213" lon="13.22561">
        <ele>15.086783</ele>
        <time>2020-07-15T19:35:40.648Z</time>
      </trkpt>
      <trkpt lat="66.46216" lon="13.22572">
        <ele>15.162816</ele>
        <time>2020-07-15T19:35:41.808Z</time>
      </trkpt>
      <trkpt lat="66.46219" lon="13.22582">
        <ele>15.353342</ele>
        <time>2020-07-15T19:35:43.626Z</time>
      </trkpt>
      <trkpt lat="66.46231" lon="13.22625">
        <ele>16.112133</ele>
        <time>2020-07-15T19:35:48.549Z</time>
      </trkpt>
      <trkpt lat="66.46237" lon="13.22644">
        <ele>16.44855</ele>
        <time>2020-07-15T19:35:50.908Z</time>
      </trkpt>
      <trkpt lat="66.4624" lon="13.22657">
        <ele>16.677958</ele>
        <time>2020-07-15T19:35:53.124Z</time>
      </trkpt>
      <trkpt lat="66.46268" lon="13.22743">
        <ele>18.279002</ele>
        <time>2020-07-15T19:36:07.409Z</time>
      </trkpt>
      <trkpt lat="66.46296" lon="13.228">
        <ele>19.597925</ele>
        <time>2020-07-15T19:36:19.605Z</time>
      </trkpt>
      <trkpt lat="66.46333" lon="13.22838">
        <ele>21.064087</ele>
        <time>2020-07-15T19:36:31.984Z</time>
      </trkpt>
      <trkpt lat="66.46379" lon="13.22849">
        <ele>22.369878</ele>
        <time>2020-07-15T19:36:44.314Z</time>
      </trkpt>
      <trkpt lat="66.46383" lon="13.22849">
        <ele>22.467484</ele>
        <time>2020-07-15T19:36:45.989Z</time>
      </trkpt>
      <trkpt lat="66.46387" lon="13.22849">
        <ele>22.570095</ele>
        <time>2020-07-15T19:36:48.111Z</time>
      </trkpt>
      <trkpt lat="66.4643" lon="13.22858">
        <ele>23.65476</ele>
        <time>2020-07-15T19:36:58.472Z</time>
      </trkpt>
      <trkpt lat="66.46468" lon="13.2289">
        <ele>24.652299</ele>
        <time>2020-07-15T19:37:06.624Z</time>
      </trkpt>
      <trkpt lat="66.46574" lon="13.2306">
        <ele>28.785117</ele>
        <time>2020-07-15T19:37:40.187Z</time>
      </trkpt>
      <trkpt lat="66.4659" lon="13.23082">
        <ele>29.505672</ele>
        <time>2020-07-15T19:37:44.428Z</time>
      </trkpt>
      <trkpt lat="66.46612" lon="13.2311">
        <ele>30.474653</ele>
        <time>2020-07-15T19:37:52.575Z</time>
      </trkpt>
      <trkpt lat="66.46676" lon="13.23174">
        <ele>33.199524</ele>
        <time>2020-07-15T19:38:16.221Z</time>
      </trkpt>
      <trkpt lat="66.46871" lon="13.23277">
        <ele>44.520697</ele>
        <time>2020-07-15T19:39:32.236Z</time>
      </trkpt>
      <trkpt lat="66.46955" lon="13.23377">
        <ele>47.353115</ele>
        <time>2020-07-15T19:39:58.284Z</time>
      </trkpt>
      <trkpt lat="66.47023" lon="13.23489">
        <ele>49.41383</ele>
        <time>2020-07-15T19:40:17.224Z</time>
      </trkpt>
      <trkpt lat="66.47148" lon="13.23699">
        <ele>49.30503</ele>
        <time>2020-07-15T19:40:44.647Z</time>
      </trkpt>
      <trkpt lat="66.47189" lon="13.23755">
        <ele>47.423999</ele>
        <time>2020-07-15T19:40:51.312Z</time>
      </trkpt>
      <trkpt lat="66.4722" lon="13.23777">
        <ele>45.541758</ele>
        <time>2020-07-15T19:40:55.477Z</time>
      </trkpt>
      <trkpt lat="66.47324" lon="13.23774">
        <ele>39.39207</ele>
        <time>2020-07-15T19:41:07.372Z</time>
      </trkpt>
      <trkpt lat="66.47357" lon="13.23803">
        <ele>36.268882</ele>
        <time>2020-07-15T19:41:11.124Z</time>
      </trkpt>
      <trkpt lat="66.47418" lon="13.2389">
        <ele>28.763768</ele>
        <time>2020-07-15T19:41:18.625Z</time>
      </trkpt>
      <trkpt lat="66.47426" lon="13.239">
        <ele>27.769808</ele>
        <time>2020-07-15T19:41:19.588Z</time>
      </trkpt>
      <trkpt lat="66.47442" lon="13.23917">
        <ele>25.91489</ele>
        <time>2020-07-15T19:41:21.439Z</time>
      </trkpt>
      <trkpt lat="66.47511" lon="13.2397">
        <ele>18.995739</ele>
        <time>2020-07-15T19:41:29.238Z</time>
      </trkpt>
      <trkpt lat="66.47595" lon="13.24001">
        <ele>16.005201</ele>
        <time>2020-07-15T19:41:38.979Z</time>
      </trkpt>
      <trkpt lat="66.47675" lon="13.24108">
        <ele>13.494862</ele>
        <time>2020-07-15T19:41:57.981Z</time>
      </trkpt>
      <trkpt lat="66.47721" lon="13.24141">
        <ele>16.373603</ele>
        <time>2020-07-15T19:42:13.269Z</time>
      </trkpt>
      <trkpt lat="66.47766" lon="13.24147">
        <ele>19.059158</ele>
        <time>2020-07-15T19:42:30.720Z</time>
      </trkpt>
      <trkpt lat="66.47943" lon="13.24126">
        <ele>30.800686</ele>
        <time>2020-07-15T19:43:47.909Z</time>
      </trkpt>
      <trkpt lat="66.47981" lon="13.24136">
        <ele>33.526805</ele>
        <time>2020-07-15T19:44:03.354Z</time>
      </trkpt>
      <trkpt lat="66.48018" lon="13.24173">
        <ele>36.372736</ele>
        <time>2020-07-15T19:44:18.547Z</time>
      </trkpt>
      <trkpt lat="66.48116" lon="13.24321">
        <ele>41.132195</ele>
        <time>2020-07-15T19:44:56.122Z</time>
      </trkpt>
      <trkpt lat="66.48181" lon="13.24369">
        <ele>43.867336</ele>
        <time>2020-07-15T19:45:15.156Z</time>
      </trkpt>
      <trkpt lat="66.48299" lon="13.24384">
        <ele>44.744498</ele>
        <time>2020-07-15T19:45:40.606Z</time>
      </trkpt>
      <trkpt lat="66.4835" lon="13.24376">
        <ele>45.098126</ele>
        <time>2020-07-15T19:45:48.870Z</time>
      </trkpt>
      <trkpt lat="66.48398" lon="13.24333">
        <ele>45.263027</ele>
        <time>2020-07-15T19:45:56.518Z</time>
      </trkpt>
      <trkpt lat="66.48445" lon="13.2425">
        <ele>45.385809</ele>
        <time>2020-07-15T19:46:06.429Z</time>
      </trkpt>
      <trkpt lat="66.48455" lon="13.24224">
        <ele>45.415629</ele>
        <time>2020-07-15T19:46:08.558Z</time>
      </trkpt>
      <trkpt lat="66.48508" lon="13.24077">
        <ele>45.892844</ele>
        <time>2020-07-15T19:46:25.411Z</time>
      </trkpt>
      <trkpt lat="66.48553" lon="13.23985">
        <ele>47.883221</ele>
        <time>2020-07-15T19:46:40.963Z</time>
      </trkpt>
      <trkpt lat="66.48659" lon="13.23876">
        <ele>51.688954</ele>
        <time>2020-07-15T19:47:18.728Z</time>
      </trkpt>
      <trkpt lat="66.48682" lon="13.2384">
        <ele>51.045206</ele>
        <time>2020-07-15T19:47:26.553Z</time>
      </trkpt>
      <trkpt lat="66.48701" lon="13.23796">
        <ele>50.438291</ele>
        <time>2020-07-15T19:47:33.428Z</time>
      </trkpt>
      <trkpt lat="66.48722" lon="13.23738">
        <ele>49.703683</ele>
        <time>2020-07-15T19:47:37.997Z</time>
      </trkpt>
      <trkpt lat="66.48723" lon="13.23736">
        <ele>49.680742</ele>
        <time>2020-07-15T19:47:38.102Z</time>
      </trkpt>
      <trkpt lat="66.48768" lon="13.23611">
        <ele>48.09162</ele>
        <time>2020-07-15T19:47:46.361Z</time>
      </trkpt>
      <trkpt lat="66.48771" lon="13.23603">
        <ele>47.993788</ele>
        <time>2020-07-15T19:47:46.874Z</time>
      </trkpt>
      <trkpt lat="66.48777" lon="13.23588">
        <ele>47.791939</ele>
        <time>2020-07-15T19:47:47.753Z</time>
      </trkpt>
      <trkpt lat="66.48795" lon="13.23539">
        <ele>46.202231</ele>
        <time>2020-07-15T19:47:51.133Z</time>
      </trkpt>
      <trkpt lat="66.48798" lon="13.2353">
        <ele>45.765804</ele>
        <time>2020-07-15T19:47:51.657Z</time>
      </trkpt>
      <trkpt lat="66.48799" lon="13.23527">
        <ele>45.644852</ele>
        <time>2020-07-15T19:47:51.821Z</time>
      </trkpt>
      <trkpt lat="66.48818" lon="13.23462">
        <ele>42.771889</ele>
        <time>2020-07-15T19:47:55.558Z</time>
      </trkpt>
      <trkpt lat="66.48828" lon="13.23382">
        <ele>39.784669</ele>
        <time>2020-07-15T19:47:59.156Z</time>
      </trkpt>
      <trkpt lat="66.48827" lon="13.23295">
        <ele>36.641723</ele>
        <time>2020-07-15T19:48:02.927Z</time>
      </trkpt>
      <trkpt lat="66.48816" lon="13.23212">
        <ele>33.52076</ele>
        <time>2020-07-15T19:48:06.677Z</time>
      </trkpt>
      <trkpt lat="66.48803" lon="13.23162">
        <ele>31.354128</ele>
        <time>2020-07-15T19:48:09.254Z</time>
      </trkpt>
      <trkpt lat="66.48783" lon="13.23116">
        <ele>30.369064</ele>
        <time>2020-07-15T19:48:12.477Z</time>
      </trkpt>
      <trkpt lat="66.48725" lon="13.23055">
        <ele>28.157526</ele>
        <time>2020-07-15T19:48:20.673Z</time>
      </trkpt>
      <trkpt lat="66.487" lon="13.23011">
        <ele>27.076111</ele>
        <time>2020-07-15T19:48:25.560Z</time>
      </trkpt>
      <trkpt lat="66.48684" lon="13.2296">
        <ele>26.161328</ele>
        <time>2020-07-15T19:48:30.518Z</time>
      </trkpt>
      <trkpt lat="66.48674" lon="13.229">
        <ele>25.245529</ele>
        <time>2020-07-15T19:48:34.540Z</time>
      </trkpt>
      <trkpt lat="66.48672" lon="13.22815">
        <ele>23.495211</ele>
        <time>2020-07-15T19:48:39.060Z</time>
      </trkpt>
      <trkpt lat="66.48678" lon="13.22754">
        <ele>22.057345</ele>
        <time>2020-07-15T19:48:42.119Z</time>
      </trkpt>
      <trkpt lat="66.48706" lon="13.22649">
        <ele>19.177524</ele>
        <time>2020-07-15T19:48:48.250Z</time>
      </trkpt>
      <trkpt lat="66.48716" lon="13.22627">
        <ele>18.431019</ele>
        <time>2020-07-15T19:48:49.693Z</time>
      </trkpt>
      <trkpt lat="66.4872" lon="13.22626">
        <ele>18.178685</ele>
        <time>2020-07-15T19:48:50.146Z</time>
      </trkpt>
      <trkpt lat="66.48744" lon="13.22632">
        <ele>16.825915</ele>
        <time>2020-07-15T19:48:53.028Z</time>
      </trkpt>
      <trkpt lat="66.48751" lon="13.22634">
        <ele>16.433717</ele>
        <time>2020-07-15T19:48:53.767Z</time>
      </trkpt>
      <trkpt lat="66.48757" lon="13.22636">
        <ele>16.053461</ele>
        <time>2020-07-15T19:48:54.473Z</time>
      </trkpt>
      <trkpt lat="66.48808" lon="13.22649">
        <ele>12.760715</ele>
        <time>2020-07-15T19:49:00.378Z</time>
      </trkpt>
      <trkpt lat="66.48816" lon="13.22652">
        <ele>12.211343</ele>
        <time>2020-07-15T19:49:01.204Z</time>
      </trkpt>
      <trkpt lat="66.48826" lon="13.22659">
        <ele>11.444353</ele>
        <time>2020-07-15T19:49:02.348Z</time>
      </trkpt>
      <trkpt lat="66.48834" lon="13.22663">
        <ele>10.907611</ele>
        <time>2020-07-15T19:49:03.283Z</time>
      </trkpt>
      <trkpt lat="66.48843" lon="13.22671">
        <ele>10.229865</ele>
        <time>2020-07-15T19:49:04.461Z</time>
      </trkpt>
      <trkpt lat="66.48848" lon="13.22679">
        <ele>9.79712</ele>
        <time>2020-07-15T19:49:05.117Z</time>
      </trkpt>
      <trkpt lat="66.48878" lon="13.22716">
        <ele>7.453561</ele>
        <time>2020-07-15T19:49:08.773Z</time>
      </trkpt>
      <trkpt lat="66.48889" lon="13.22718">
        <ele>6.644722</ele>
        <time>2020-07-15T19:49:09.996Z</time>
      </trkpt>
      <trkpt lat="66.48894" lon="13.22728">
        <ele>6.176948</ele>
        <time>2020-07-15T19:49:10.782Z</time>
      </trkpt>
      <trkpt lat="66.48903" lon="13.22744">
        <ele>5.398953</ele>
        <time>2020-07-15T19:49:12.166Z</time>
      </trkpt>
      <trkpt lat="66.48947" lon="13.22813">
        <ele>1.952625</ele>
        <time>2020-07-15T19:49:19.393Z</time>
      </trkpt>
      <trkpt lat="66.48985" lon="13.22878">
        <ele>1.446156</ele>
        <time>2020-07-15T19:49:25.799Z</time>
      </trkpt>
      <trkpt lat="66.49056" lon="13.22918">
        <ele>0.641565</ele>
        <time>2020-07-15T19:49:35.961Z</time>
      </trkpt>
      <trkpt lat="66.49394" lon="13.22952">
        <time>2020-07-15T19:50:23.005Z</time>
      </trkpt>
      <trkpt lat="66.506" lon="13.23042">
        <time>2020-07-15T19:53:11.249Z</time>
      </trkpt>
      <trkpt lat="66.51257" lon="13.23135">
        <time>2020-07-15T19:54:42.925Z</time>
      </trkpt>
      <trkpt lat="66.51703" lon="13.23038">
        <time>2020-07-15T19:55:45.412Z</time>
      </trkpt>
      <trkpt lat="66.51984" lon="13.22868">
        <time>2020-07-15T19:56:25.629Z</time>
      </trkpt>
      <trkpt lat="66.52808" lon="13.22167">
        <time>2020-07-15T19:58:26.927Z</time>
      </trkpt>
      <trkpt lat="66.54806" lon="13.20352">
        <time>2020-07-15T20:03:23.169Z</time>
      </trkpt>
      <trkpt lat="66.55422" lon="13.19694">
        <time>2020-07-15T20:04:56.528Z</time>
      </trkpt>
      <trkpt lat="66.55729" lon="13.19313">
        <time>2020-07-15T20:05:44.231Z</time>
      </trkpt>
      <trkpt lat="66.56242" lon="13.18625">
        <time>2020-07-15T20:07:05.250Z</time>
      </trkpt>
      <trkpt lat="66.56774" lon="13.17969">
        <time>2020-07-15T20:08:27.826Z</time>
      </trkpt>
      <trkpt lat="66.57032" lon="13.17581">
        <time>2020-07-15T20:09:09.731Z</time>
      </trkpt>
      <trkpt lat="66.57243" lon="13.17436">
        <time>2020-07-15T20:09:40.286Z</time>
      </trkpt>
      <trkpt lat="66.57416" lon="13.17443">
        <time>2020-07-15T20:10:04.451Z</time>
      </trkpt>
      <trkpt lat="66.57684" lon="13.17727">
        <time>2020-07-15T20:10:44.903Z</time>
      </trkpt>
      <trkpt lat="66.59331" lon="13.19635">
        <time>2020-07-15T20:14:57.682Z</time>
      </trkpt>
      <trkpt lat="66.60174" lon="13.20677">
        <time>2020-07-15T20:17:08.729Z</time>
      </trkpt>
      <trkpt lat="66.61198" lon="13.21789">
        <time>2020-07-15T20:19:44.195Z</time>
      </trkpt>
      <trkpt lat="66.6136" lon="13.22076">
        <time>2020-07-15T20:20:11.811Z</time>
      </trkpt>
      <trkpt lat="66.61973" lon="13.23444">
        <time>2020-07-15T20:22:05.926Z</time>
      </trkpt>
      <trkpt lat="66.62672" lon="13.25238">
        <time>2020-07-15T20:24:25.058Z</time>
      </trkpt>
      <trkpt lat="66.62731" lon="13.25514">
        <time>2020-07-15T20:24:42.426Z</time>
      </trkpt>
      <trkpt lat="66.62764" lon="13.25776">
        <time>2020-07-15T20:24:57.639Z</time>
      </trkpt>
      <trkpt lat="66.62781" lon="13.26033">
        <time>2020-07-15T20:25:12.099Z</time>
      </trkpt>
      <trkpt lat="66.6277" lon="13.26237">
        <time>2020-07-15T20:25:23.498Z</time>
      </trkpt>
      <trkpt lat="66.62727" lon="13.26509">
        <time>2020-07-15T20:25:39.686Z</time>
      </trkpt>
      <trkpt lat="66.6251" lon="13.27485">
        <ele>0.122921</ele>
        <time>2020-07-15T20:26:41.588Z</time>
      </trkpt>
      <trkpt lat="66.62438" lon="13.27784">
        <ele>0.586741</ele>
        <time>2020-07-15T20:27:00.953Z</time>
      </trkpt>
      <trkpt lat="66.62405" lon="13.28253">
        <ele>2.292811</ele>
        <time>2020-07-15T20:27:27.323Z</time>
      </trkpt>
      <trkpt lat="66.62414" lon="13.2837">
        <ele>2.825529</ele>
        <time>2020-07-15T20:27:33.920Z</time>
      </trkpt>
      <trkpt lat="66.62428" lon="13.28508">
        <ele>3.461553</ele>
        <time>2020-07-15T20:27:41.799Z</time>
      </trkpt>
      <trkpt lat="66.62434" lon="13.28584">
        <ele>3.807391</ele>
        <time>2020-07-15T20:27:48.553Z</time>
      </trkpt>
      <trkpt lat="66.62437" lon="13.28623">
        <ele>3.785857</ele>
        <time>2020-07-15T20:27:51.191Z</time>
      </trkpt>
      <trkpt lat="66.62438" lon="13.28634">
        <ele>3.780185</ele>
        <time>2020-07-15T20:27:52.193Z</time>
      </trkpt>
      <trkpt lat="66.62435" lon="13.28665">
        <ele>3.762973</ele>
        <time>2020-07-15T20:27:54.842Z</time>
      </trkpt>
      <trkpt lat="66.62431" lon="13.28695">
        <ele>3.745601</ele>
        <time>2020-07-15T20:27:56.871Z</time>
      </trkpt>
      <trkpt lat="66.62427" lon="13.28893">
        <ele>3.638326</ele>
        <time>2020-07-15T20:28:09.768Z</time>
      </trkpt>
      <trkpt lat="66.62433" lon="13.28933">
        <ele>3.615124</ele>
        <time>2020-07-15T20:28:13.003Z</time>
      </trkpt>
      <trkpt lat="66.62418" lon="13.28931">
        <ele>3.594501</ele>
        <time>2020-07-15T20:28:15.226Z</time>
      </trkpt>
      <trkpt lat="66.62384" lon="13.28933">
        <ele>3.688969</ele>
        <time>2020-07-15T20:28:20.977Z</time>
      </trkpt>
      <trkpt lat="66.62374" lon="13.28935">
        <ele>3.802199</ele>
        <time>2020-07-15T20:28:22.307Z</time>
      </trkpt>
      <trkpt lat="66.62374" lon="13.28927">
        <ele>3.841931</ele>
        <time>2020-07-15T20:28:24.673Z</time>
      </trkpt>
      <trkpt lat="66.62363" lon="13.2893">
        <ele>3.966067</ele>
        <time>2020-07-15T20:28:27.182Z</time>
      </trkpt>
      <trkpt lat="66.62311" lon="13.28964">
        <ele>4.609434</ele>
        <time>2020-07-15T20:28:36.570Z</time>
      </trkpt>
      <trkpt lat="66.62274" lon="13.29008">
        <ele>5.094677</ele>
        <time>2020-07-15T20:28:45.115Z</time>
      </trkpt>
      <trkpt lat="66.62239" lon="13.2907">
        <ele>5.599495</ele>
        <time>2020-07-15T20:28:56.447Z</time>
      </trkpt>
      <trkpt lat="66.6217" lon="13.29226">
        <ele>11.158618</ele>
        <time>2020-07-15T20:29:26.509Z</time>
      </trkpt>
      <trkpt lat="66.62162" lon="13.29243">
        <ele>11.810678</ele>
        <time>2020-07-15T20:29:29.889Z</time>
      </trkpt>
      <trkpt lat="66.62166" lon="13.29245">
        <ele>12.040375</ele>
        <time>2020-07-15T20:29:30.979Z</time>
      </trkpt>
      <trkpt lat="66.62159" lon="13.2926">
        <ele>12.629953</ele>
        <time>2020-07-15T20:29:33.961Z</time>
      </trkpt>
      <trkpt lat="66.62122" lon="13.29328">
        <ele>15.578292</ele>
        <time>2020-07-15T20:29:57.645Z</time>
      </trkpt>
      <trkpt lat="66.62121" lon="13.29329">
        <ele>15.636892</ele>
        <time>2020-07-15T20:29:58.349Z</time>
      </trkpt>
      <trkpt lat="66.62113" lon="13.29339">
        <ele>16.188582</ele>
        <time>2020-07-15T20:30:01.456Z</time>
      </trkpt>
      <trkpt lat="66.62104" lon="13.29352">
        <ele>16.874919</ele>
        <time>2020-07-15T20:30:04.907Z</time>
      </trkpt>
      <trkpt lat="66.62098" lon="13.29361">
        <ele>17.357343</ele>
        <time>2020-07-15T20:30:07.647Z</time>
      </trkpt>
      <trkpt lat="66.62096" lon="13.29364">
        <ele>17.679608</ele>
        <time>2020-07-15T20:30:09.888Z</time>
      </trkpt>
      <trkpt lat="66.62069" lon="13.29422">
        <ele>21.965773</ele>
        <time>2020-07-15T20:30:26.898Z</time>
      </trkpt>
      <trkpt lat="66.62055" lon="13.29494">
        <ele>25.833354</ele>
        <time>2020-07-15T20:30:44.562Z</time>
      </trkpt>
      <trkpt lat="66.62053" lon="13.29508">
        <ele>26.534032</ele>
        <time>2020-07-15T20:30:48.694Z</time>
      </trkpt>
      <trkpt lat="66.62053" lon="13.29521">
        <ele>27.176416</ele>
        <time>2020-07-15T20:30:53.587Z</time>
      </trkpt>
      <trkpt lat="66.62054" lon="13.29618">
        <ele>31.84223</ele>
        <time>2020-07-15T20:31:16.507Z</time>
      </trkpt>
      <trkpt lat="66.6207" lon="13.29814">
        <ele>40.78125</ele>
        <time>2020-07-15T20:32:01.851Z</time>
      </trkpt>
      <trkpt lat="66.62073" lon="13.29849">
        <ele>41.971567</ele>
        <time>2020-07-15T20:32:09.275Z</time>
      </trkpt>
      <trkpt lat="66.62074" lon="13.29868">
        <ele>42.583351</ele>
        <time>2020-07-15T20:32:13.844Z</time>
      </trkpt>
      <trkpt lat="66.62074" lon="13.29876">
        <ele>42.873919</ele>
        <time>2020-07-15T20:32:17.142Z</time>
      </trkpt>
      <trkpt lat="66.62074" lon="13.30006">
        <ele>47.177911</ele>
        <time>2020-07-15T20:32:40.179Z</time>
      </trkpt>
      <trkpt lat="66.62062" lon="13.30103">
        <ele>50.494077</ele>
        <time>2020-07-15T20:32:57.188Z</time>
      </trkpt>
      <trkpt lat="66.62045" lon="13.30185">
        <ele>53.593043</ele>
        <time>2020-07-15T20:33:11.236Z</time>
      </trkpt>
      <trkpt lat="66.61993" lon="13.30341">
        <ele>53.742787</ele>
        <time>2020-07-15T20:33:29.009Z</time>
      </trkpt>
      <trkpt lat="66.61984" lon="13.30408">
        <ele>53.588856</ele>
        <time>2020-07-15T20:33:33.260Z</time>
      </trkpt>
      <trkpt lat="66.61985" lon="13.30495">
        <ele>53.401867</ele>
        <time>2020-07-15T20:33:38.046Z</time>
      </trkpt>
      <trkpt lat="66.62008" lon="13.30697">
        <ele>51.577281</ele>
        <time>2020-07-15T20:33:48.521Z</time>
      </trkpt>
      <trkpt lat="66.62007" lon="13.30872">
        <ele>48.822645</ele>
        <time>2020-07-15T20:33:57.310Z</time>
      </trkpt>
      <trkpt lat="66.62007" lon="13.3088">
        <ele>48.692534</ele>
        <time>2020-07-15T20:33:57.651Z</time>
      </trkpt>
      <trkpt lat="66.62006" lon="13.30897">
        <ele>48.431199</ele>
        <time>2020-07-15T20:33:58.560Z</time>
      </trkpt>
      <trkpt lat="66.61998" lon="13.31215">
        <ele>42.317459</ele>
        <time>2020-07-15T20:34:14.678Z</time>
      </trkpt>
      <trkpt lat="66.62" lon="13.31328">
        <ele>39.763594</ele>
        <time>2020-07-15T20:34:19.970Z</time>
      </trkpt>
      <trkpt lat="66.62016" lon="13.31446">
        <ele>36.978266</ele>
        <time>2020-07-15T20:34:25.780Z</time>
      </trkpt>
      <trkpt lat="66.62058" lon="13.31612">
        <ele>30.841244</ele>
        <time>2020-07-15T20:34:34.633Z</time>
      </trkpt>
      <trkpt lat="66.62059" lon="13.31619">
        <ele>30.575645</ele>
        <time>2020-07-15T20:34:34.948Z</time>
      </trkpt>
      <trkpt lat="66.62066" lon="13.31642">
        <ele>29.621353</ele>
        <time>2020-07-15T20:34:36.141Z</time>
      </trkpt>
      <trkpt lat="66.62163" lon="13.32023">
        <ele>15.958119</ele>
        <time>2020-07-15T20:34:56.138Z</time>
      </trkpt>
      <trkpt lat="66.62166" lon="13.32036">
        <ele>15.566768</ele>
        <time>2020-07-15T20:34:56.841Z</time>
      </trkpt>
      <trkpt lat="66.62176" lon="13.32073">
        <ele>14.51933</ele>
        <time>2020-07-15T20:34:58.962Z</time>
      </trkpt>
      <trkpt lat="66.62192" lon="13.32139">
        <ele>12.620137</ele>
        <time>2020-07-15T20:35:02.740Z</time>
      </trkpt>
      <trkpt lat="66.62198" lon="13.32163">
        <ele>11.929523</ele>
        <time>2020-07-15T20:35:04.167Z</time>
      </trkpt>
      <trkpt lat="66.62207" lon="13.32198">
        <ele>10.88979</ele>
        <time>2020-07-15T20:35:06.195Z</time>
      </trkpt>
      <trkpt lat="66.62249" lon="13.32355">
        <ele>8.812299</ele>
        <time>2020-07-15T20:35:15.900Z</time>
      </trkpt>
      <trkpt lat="66.6229" lon="13.32453">
        <ele>8.179255</ele>
        <time>2020-07-15T20:35:24.778Z</time>
      </trkpt>
      <trkpt lat="66.62298" lon="13.32468">
        <ele>8.066615</ele>
        <time>2020-07-15T20:35:26.754Z</time>
      </trkpt>
      <trkpt lat="66.62306" lon="13.32482">
        <ele>7.961366</ele>
        <time>2020-07-15T20:35:28.340Z</time>
      </trkpt>
      <trkpt lat="66.62311" lon="13.32491">
        <ele>7.89142</ele>
        <time>2020-07-15T20:35:29.420Z</time>
      </trkpt>
      <trkpt lat="66.62314" lon="13.32497">
        <ele>7.844959</ele>
        <time>2020-07-15T20:35:30.191Z</time>
      </trkpt>
      <trkpt lat="66.62378" lon="13.32606">
        <ele>7.818089</ele>
        <time>2020-07-15T20:35:45.811Z</time>
      </trkpt>
      <trkpt lat="66.6238" lon="13.32609">
        <ele>7.854106</ele>
        <time>2020-07-15T20:35:46.376Z</time>
      </trkpt>
      <trkpt lat="66.62387" lon="13.3262">
        <ele>7.963313</ele>
        <time>2020-07-15T20:35:48.446Z</time>
      </trkpt>
      <trkpt lat="66.62434" lon="13.32696">
        <ele>8.730941</ele>
        <time>2020-07-15T20:36:00.615Z</time>
      </trkpt>
      <trkpt lat="66.62469" lon="13.32725">
        <ele>9.240304</ele>
        <time>2020-07-15T20:36:09.432Z</time>
      </trkpt>
      <trkpt lat="66.62626" lon="13.32747">
        <ele>11.833727</ele>
        <time>2020-07-15T20:36:45.945Z</time>
      </trkpt>
      <trkpt lat="66.62678" lon="13.32736">
        <ele>12.748142</ele>
        <time>2020-07-15T20:36:57.855Z</time>
      </trkpt>
      <trkpt lat="66.62705" lon="13.32709">
        <ele>13.481759</ele>
        <time>2020-07-15T20:37:04.897Z</time>
      </trkpt>
      <trkpt lat="66.62741" lon="13.32657">
        <ele>14.777747</ele>
        <time>2020-07-15T20:37:15.161Z</time>
      </trkpt>
      <trkpt lat="66.62742" lon="13.32656">
        <ele>14.804109</ele>
        <time>2020-07-15T20:37:15.517Z</time>
      </trkpt>
      <trkpt lat="66.6275" lon="13.32644">
        <ele>15.090615</ele>
        <time>2020-07-15T20:37:18.210Z</time>
      </trkpt>
      <trkpt lat="66.62824" lon="13.32534">
        <ele>17.758563</ele>
        <time>2020-07-15T20:37:42.172Z</time>
      </trkpt>
      <trkpt lat="66.62878" lon="13.32474">
        <ele>20.206531</ele>
        <time>2020-07-15T20:38:01.541Z</time>
      </trkpt>
      <trkpt lat="66.63061" lon="13.32386">
        <ele>28.315013</ele>
        <time>2020-07-15T20:39:06.168Z</time>
      </trkpt>
      <trkpt lat="66.63067" lon="13.32385">
        <ele>28.4337</ele>
        <time>2020-07-15T20:39:09.544Z</time>
      </trkpt>
      <trkpt lat="66.63074" lon="13.32386">
        <ele>28.569409</ele>
        <time>2020-07-15T20:39:11.325Z</time>
      </trkpt>
      <trkpt lat="66.63128" lon="13.32416">
        <ele>29.629035</ele>
        <time>2020-07-15T20:39:24.299Z</time>
      </trkpt>
      <trkpt lat="66.6325" lon="13.32566">
        <ele>29.645662</ele>
        <time>2020-07-15T20:39:46.471Z</time>
      </trkpt>
      <trkpt lat="66.63281" lon="13.3262">
        <ele>28.841301</ele>
        <time>2020-07-15T20:39:51.399Z</time>
      </trkpt>
      <trkpt lat="66.63308" lon="13.32699">
        <ele>27.963186</ele>
        <time>2020-07-15T20:39:56.796Z</time>
      </trkpt>
      <trkpt lat="66.63327" lon="13.32795">
        <ele>26.999191</ele>
        <time>2020-07-15T20:40:02.447Z</time>
      </trkpt>
      <trkpt lat="66.63333" lon="13.32901">
        <ele>25.660936</ele>
        <time>2020-07-15T20:40:08.098Z</time>
      </trkpt>
      <trkpt lat="66.63312" lon="13.3328">
        <ele>21.033987</ele>
        <time>2020-07-15T20:40:27.972Z</time>
      </trkpt>
      <trkpt lat="66.6331" lon="13.33303">
        <ele>20.803306</ele>
        <time>2020-07-15T20:40:29.037Z</time>
      </trkpt>
      <trkpt lat="66.6331" lon="13.3331">
        <ele>20.729204</ele>
        <time>2020-07-15T20:40:29.770Z</time>
      </trkpt>
      <trkpt lat="66.63301" lon="13.33444">
        <ele>19.389775</ele>
        <time>2020-07-15T20:40:37.235Z</time>
      </trkpt>
      <trkpt lat="66.633" lon="13.33472">
        <ele>19.109539</ele>
        <time>2020-07-15T20:40:38.696Z</time>
      </trkpt>
      <trkpt lat="66.63297" lon="13.33506">
        <ele>18.777257</ele>
        <time>2020-07-15T20:40:40.537Z</time>
      </trkpt>
      <trkpt lat="66.63267" lon="13.3399">
        <ele>14.458286</ele>
        <time>2020-07-15T20:41:08.143Z</time>
      </trkpt>
      <trkpt lat="66.63267" lon="13.34114">
        <ele>13.432785</ele>
        <time>2020-07-15T20:41:14.988Z</time>
      </trkpt>
      <trkpt lat="66.63268" lon="13.34141">
        <ele>13.206023</ele>
        <time>2020-07-15T20:41:16.539Z</time>
      </trkpt>
      <trkpt lat="66.63271" lon="13.34166">
        <ele>12.988129</ele>
        <time>2020-07-15T20:41:17.826Z</time>
      </trkpt>
      <trkpt lat="66.63283" lon="13.34233">
        <ele>12.351094</ele>
        <time>2020-07-15T20:41:21.928Z</time>
      </trkpt>
      <trkpt lat="66.63321" lon="13.34373">
        <ele>10.895701</ele>
        <time>2020-07-15T20:41:31.193Z</time>
      </trkpt>
      <trkpt lat="66.63336" lon="13.34453">
        <ele>10.138116</ele>
        <time>2020-07-15T20:41:36.077Z</time>
      </trkpt>
      <trkpt lat="66.63341" lon="13.34546">
        <ele>9.385359</ele>
        <time>2020-07-15T20:41:41.350Z</time>
      </trkpt>
      <trkpt lat="66.63335" lon="13.34657">
        <ele>9.01753</ele>
        <time>2020-07-15T20:41:47.964Z</time>
      </trkpt>
      <trkpt lat="66.63334" lon="13.34665">
        <ele>8.991801</ele>
        <time>2020-07-15T20:41:48.374Z</time>
      </trkpt>
      <trkpt lat="66.63332" lon="13.34681">
        <ele>8.938234</ele>
        <time>2020-07-15T20:41:49.560Z</time>
      </trkpt>
      <trkpt lat="66.63262" lon="13.3511">
        <ele>8.045775</ele>
        <time>2020-07-15T20:42:20.200Z</time>
      </trkpt>
      <trkpt lat="66.6326" lon="13.35131">
        <ele>8.061231</ele>
        <time>2020-07-15T20:42:21.527Z</time>
      </trkpt>
      <trkpt lat="66.63257" lon="13.35153">
        <ele>8.077595</ele>
        <time>2020-07-15T20:42:23.728Z</time>
      </trkpt>
      <trkpt lat="66.63247" lon="13.35264">
        <ele>8.156039</ele>
        <time>2020-07-15T20:42:32.519Z</time>
      </trkpt>
      <trkpt lat="66.63241" lon="13.35406">
        <ele>8.271024</ele>
        <time>2020-07-15T20:42:43.635Z</time>
      </trkpt>
      <trkpt lat="66.63245" lon="13.35993">
        <ele>11.358665</ele>
        <time>2020-07-15T20:43:31.163Z</time>
      </trkpt>
      <trkpt lat="66.63254" lon="13.36158">
        <ele>13.29184</ele>
        <time>2020-07-15T20:43:49.536Z</time>
      </trkpt>
      <trkpt lat="66.63278" lon="13.36387">
        <ele>16.865269</ele>
        <time>2020-07-15T20:44:19.245Z</time>
      </trkpt>
      <trkpt lat="66.63279" lon="13.36392">
        <ele>16.974039</ele>
        <time>2020-07-15T20:44:19.640Z</time>
      </trkpt>
      <trkpt lat="66.63281" lon="13.36408">
        <ele>17.324648</ele>
        <time>2020-07-15T20:44:24.177Z</time>
      </trkpt>
      <trkpt lat="66.63312" lon="13.36618">
        <ele>21.960388</ele>
        <time>2020-07-15T20:44:58.269Z</time>
      </trkpt>
      <trkpt lat="66.63379" lon="13.36916">
        <ele>23.751499</ele>
        <time>2020-07-15T20:45:37.723Z</time>
      </trkpt>
      <trkpt lat="66.63386" lon="13.37002">
        <ele>23.499798</ele>
        <time>2020-07-15T20:45:42.368Z</time>
      </trkpt>
      <trkpt lat="66.63386" lon="13.37084">
        <ele>23.262785</ele>
        <time>2020-07-15T20:45:46.427Z</time>
      </trkpt>
      <trkpt lat="66.63385" lon="13.37101">
        <ele>23.214607</ele>
        <time>2020-07-15T20:45:47.232Z</time>
      </trkpt>
      <trkpt lat="66.63385" lon="13.37106">
        <ele>23.199408</ele>
        <time>2020-07-15T20:45:47.458Z</time>
      </trkpt>
      <trkpt lat="66.63372" lon="13.37191">
        <ele>21.622628</ele>
        <time>2020-07-15T20:45:51.659Z</time>
      </trkpt>
      <trkpt lat="66.63353" lon="13.37259">
        <ele>19.380065</ele>
        <time>2020-07-15T20:45:55.672Z</time>
      </trkpt>
      <trkpt lat="66.63269" lon="13.37413">
        <ele>12.275229</ele>
        <time>2020-07-15T20:46:07.379Z</time>
      </trkpt>
      <trkpt lat="66.6325" lon="13.37463">
        <ele>10.627873</ele>
        <time>2020-07-15T20:46:10.705Z</time>
      </trkpt>
      <trkpt lat="66.63241" lon="13.37509">
        <ele>9.870841</ele>
        <time>2020-07-15T20:46:13.225Z</time>
      </trkpt>
      <trkpt lat="66.63239" lon="13.37518">
        <ele>9.726436</ele>
        <time>2020-07-15T20:46:13.792Z</time>
      </trkpt>
      <trkpt lat="66.63237" lon="13.37541">
        <ele>9.37022</ele>
        <time>2020-07-15T20:46:14.974Z</time>
      </trkpt>
      <trkpt lat="66.63235" lon="13.37602">
        <ele>8.477993</ele>
        <time>2020-07-15T20:46:17.887Z</time>
      </trkpt>
      <trkpt lat="66.63235" lon="13.37607">
        <ele>8.398241</ele>
        <time>2020-07-15T20:46:18.300Z</time>
      </trkpt>
      <trkpt lat="66.63235" lon="13.37623">
        <ele>8.166145</ele>
        <time>2020-07-15T20:46:19.049Z</time>
      </trkpt>
      <trkpt lat="66.63248" lon="13.37747">
        <ele>6.267323</ele>
        <time>2020-07-15T20:46:25.559Z</time>
      </trkpt>
      <trkpt lat="66.63275" lon="13.37885">
        <ele>4.17373</ele>
        <time>2020-07-15T20:46:34.211Z</time>
      </trkpt>
      <trkpt lat="66.63281" lon="13.37906">
        <ele>4.16089</ele>
        <time>2020-07-15T20:46:35.590Z</time>
      </trkpt>
      <trkpt lat="66.63291" lon="13.37934">
        <ele>4.142674</ele>
        <time>2020-07-15T20:46:37.993Z</time>
      </trkpt>
      <trkpt lat="66.63297" lon="13.37952">
        <ele>4.130685</ele>
        <time>2020-07-15T20:46:39.349Z</time>
      </trkpt>
      <trkpt lat="66.63301" lon="13.37961">
        <ele>4.124202</ele>
        <time>2020-07-15T20:46:40.090Z</time>
      </trkpt>
      <trkpt lat="66.6332" lon="13.38004">
        <ele>4.091905</ele>
        <time>2020-07-15T20:46:43.961Z</time>
      </trkpt>
      <trkpt lat="66.63376" lon="13.38096">
        <ele>4.009218</ele>
        <time>2020-07-15T20:46:54.619Z</time>
      </trkpt>
      <trkpt lat="66.63379" lon="13.38101">
        <ele>4.004558</ele>
        <time>2020-07-15T20:46:55.555Z</time>
      </trkpt>
      <trkpt lat="66.63386" lon="13.38113">
        <ele>3.993923</ele>
        <time>2020-07-15T20:46:58.283Z</time>
      </trkpt>
      <trkpt lat="66.63435" lon="13.38205">
        <ele>5.573396</ele>
        <time>2020-07-15T20:47:13.214Z</time>
      </trkpt>
      <trkpt lat="66.6348" lon="13.3833">
        <ele>9.173595</ele>
        <time>2020-07-15T20:47:35.903Z</time>
      </trkpt>
      <trkpt lat="66.63486" lon="13.3835">
        <ele>9.671598</ele>
        <time>2020-07-15T20:47:40.863Z</time>
      </trkpt>
      <trkpt lat="66.63491" lon="13.38369">
        <ele>10.180028</ele>
        <time>2020-07-15T20:47:45.488Z</time>
      </trkpt>
      <trkpt lat="66.63512" lon="13.3846">
        <ele>12.406138</ele>
        <time>2020-07-15T20:48:00.993Z</time>
      </trkpt>
      <trkpt lat="66.63532" lon="13.38574">
        <ele>15.269348</ele>
        <time>2020-07-15T20:48:19.485Z</time>
      </trkpt>
      <trkpt lat="66.63532" lon="13.38576">
        <ele>15.310248</ele>
        <time>2020-07-15T20:48:20.157Z</time>
      </trkpt>
      <trkpt lat="66.63536" lon="13.38606">
        <ele>16.093088</ele>
        <time>2020-07-15T20:48:26.673Z</time>
      </trkpt>
      <trkpt lat="66.63551" lon="13.3882">
        <ele>21.397145</ele>
        <time>2020-07-15T20:48:59.950Z</time>
      </trkpt>
      <trkpt lat="66.63547" lon="13.39016">
        <ele>25.135776</ele>
        <time>2020-07-15T20:49:26.711Z</time>
      </trkpt>
      <trkpt lat="66.63536" lon="13.39135">
        <ele>26.098699</ele>
        <time>2020-07-15T20:49:39.003Z</time>
      </trkpt>
      <trkpt lat="66.63497" lon="13.39413">
        <ele>28.326267</ele>
        <time>2020-07-15T20:50:02.895Z</time>
      </trkpt>
      <trkpt lat="66.63468" lon="13.3972">
        <ele>29.50916</ele>
        <time>2020-07-15T20:50:26.192Z</time>
      </trkpt>
      <trkpt lat="66.63464" lon="13.39743">
        <ele>29.600793</ele>
        <time>2020-07-15T20:50:27.626Z</time>
      </trkpt>
      <trkpt lat="66.63459" lon="13.39774">
        <ele>29.729149</ele>
        <time>2020-07-15T20:50:31.141Z</time>
      </trkpt>
      <trkpt lat="66.63357" lon="13.4016">
        <ele>35.827565</ele>
        <time>2020-07-15T20:51:23.099Z</time>
      </trkpt>
      <trkpt lat="66.63329" lon="13.4024">
        <ele>38.313455</ele>
        <time>2020-07-15T20:51:39.055Z</time>
      </trkpt>
      <trkpt lat="66.63295" lon="13.40305">
        <ele>41.419277</ele>
        <time>2020-07-15T20:51:55.980Z</time>
      </trkpt>
      <trkpt lat="66.63258" lon="13.40349">
        <ele>44.374114</ele>
        <time>2020-07-15T20:52:13.015Z</time>
      </trkpt>
      <trkpt lat="66.63216" lon="13.40377">
        <ele>47.566234</ele>
        <time>2020-07-15T20:52:32.322Z</time>
      </trkpt>
      <trkpt lat="66.63099" lon="13.40376">
        <ele>56.57974</ele>
        <time>2020-07-15T20:53:26.533Z</time>
      </trkpt>
      <trkpt lat="66.63062" lon="13.40389">
        <ele>59.581296</ele>
        <time>2020-07-15T20:53:44.259Z</time>
      </trkpt>
      <trkpt lat="66.63019" lon="13.40425">
        <ele>63.122156</ele>
        <time>2020-07-15T20:54:02.140Z</time>
      </trkpt>
      <trkpt lat="66.62974" lon="13.40496">
        <ele>64.029602</ele>
        <time>2020-07-15T20:54:19.735Z</time>
      </trkpt>
      <trkpt lat="66.62971" lon="13.40503">
        <ele>64.056517</ele>
        <time>2020-07-15T20:54:23.544Z</time>
      </trkpt>
      <trkpt lat="66.62885" lon="13.4089">
        <ele>60.825285</ele>
        <time>2020-07-15T20:54:50.713Z</time>
      </trkpt>
      <trkpt lat="66.62795" lon="13.41301">
        <ele>45.23041</ele>
        <time>2020-07-15T20:55:11.565Z</time>
      </trkpt>
      <trkpt lat="66.62794" lon="13.41311">
        <ele>44.958033</ele>
        <time>2020-07-15T20:55:11.988Z</time>
      </trkpt>
      <trkpt lat="66.62792" lon="13.41341">
        <ele>44.102307</ele>
        <time>2020-07-15T20:55:13.468Z</time>
      </trkpt>
      <trkpt lat="66.62789" lon="13.41381">
        <ele>43.002469</ele>
        <time>2020-07-15T20:55:15.495Z</time>
      </trkpt>
      <trkpt lat="66.62789" lon="13.41387">
        <ele>42.821788</ele>
        <time>2020-07-15T20:55:15.765Z</time>
      </trkpt>
      <trkpt lat="66.62788" lon="13.41414">
        <ele>42.081062</ele>
        <time>2020-07-15T20:55:16.878Z</time>
      </trkpt>
      <trkpt lat="66.62787" lon="13.41431">
        <ele>41.611709</ele>
        <time>2020-07-15T20:55:17.975Z</time>
      </trkpt>
      <trkpt lat="66.6277" lon="13.41666">
        <ele>37.54832</ele>
        <time>2020-07-15T20:55:30.156Z</time>
      </trkpt>
      <trkpt lat="66.62747" lon="13.41812">
        <ele>41.320048</ele>
        <time>2020-07-15T20:55:52.407Z</time>
      </trkpt>
      <trkpt lat="66.62529" lon="13.42696">
        <ele>65.951063</ele>
        <time>2020-07-15T20:58:42.352Z</time>
      </trkpt>
      <trkpt lat="66.62487" lon="13.42897">
        <ele>68.675226</ele>
        <time>2020-07-15T20:59:04.925Z</time>
      </trkpt>
      <trkpt lat="66.62461" lon="13.43114">
        <ele>68.887578</ele>
        <time>2020-07-15T20:59:19.803Z</time>
      </trkpt>
      <trkpt lat="66.62444" lon="13.43467">
        <ele>69.170944</ele>
        <time>2020-07-15T20:59:41.484Z</time>
      </trkpt>
      <trkpt lat="66.62443" lon="13.43496">
        <ele>69.192843</ele>
        <time>2020-07-15T20:59:43.329Z</time>
      </trkpt>
      <trkpt lat="66.62442" lon="13.43526">
        <ele>69.214855</ele>
        <time>2020-07-15T20:59:45.505Z</time>
      </trkpt>
      <trkpt lat="66.62424" lon="13.44059">
        <ele>73.594842</ele>
        <time>2020-07-15T21:00:38.618Z</time>
      </trkpt>
      <trkpt lat="66.62423" lon="13.44065">
        <ele>73.660821</ele>
        <time>2020-07-15T21:00:39.823Z</time>
      </trkpt>
      <trkpt lat="66.62422" lon="13.44098">
        <ele>74.032921</ele>
        <time>2020-07-15T21:00:43.842Z</time>
      </trkpt>
      <trkpt lat="66.62421" lon="13.44133">
        <ele>74.478919</ele>
        <time>2020-07-15T21:00:47.612Z</time>
      </trkpt>
      <trkpt lat="66.6242" lon="13.44169">
        <ele>75.477871</ele>
        <time>2020-07-15T21:00:52.781Z</time>
      </trkpt>
      <trkpt lat="66.62404" lon="13.44371">
        <ele>81.136055</ele>
        <time>2020-07-15T21:01:22.318Z</time>
      </trkpt>
      <trkpt lat="66.62366" lon="13.44594">
        <ele>88.247038</ele>
        <time>2020-07-15T21:02:06.795Z</time>
      </trkpt>
      <trkpt lat="66.62361" lon="13.4462">
        <ele>89.380769</ele>
        <time>2020-07-15T21:02:11.329Z</time>
      </trkpt>
      <trkpt lat="66.62354" lon="13.44654">
        <ele>90.857278</ele>
        <time>2020-07-15T21:02:21.507Z</time>
      </trkpt>
      <trkpt lat="66.62313" lon="13.44857">
        <ele>99.807408</ele>
        <time>2020-07-15T21:03:05.707Z</time>
      </trkpt>
      <trkpt lat="66.6231" lon="13.44875">
        <ele>100.582029</ele>
        <time>2020-07-15T21:03:11.628Z</time>
      </trkpt>
      <trkpt lat="66.62306" lon="13.44892">
        <ele>101.330705</ele>
        <time>2020-07-15T21:03:16.958Z</time>
      </trkpt>
      <trkpt lat="66.62209" lon="13.4538">
        <ele>119.151491</ele>
        <time>2020-07-15T21:04:53.080Z</time>
      </trkpt>
      <trkpt lat="66.62206" lon="13.45402">
        <ele>119.47287</ele>
        <time>2020-07-15T21:04:56.991Z</time>
      </trkpt>
      <trkpt lat="66.62202" lon="13.45428">
        <ele>119.852444</ele>
        <time>2020-07-15T21:04:59.374Z</time>
      </trkpt>
      <trkpt lat="66.6219" lon="13.4555">
        <ele>121.560566</ele>
        <time>2020-07-15T21:05:13.982Z</time>
      </trkpt>
      <trkpt lat="66.62189" lon="13.45672">
        <ele>123.208818</ele>
        <time>2020-07-15T21:05:28.113Z</time>
      </trkpt>
      <trkpt lat="66.6219" lon="13.45684">
        <ele>123.375708</ele>
        <time>2020-07-15T21:05:28.785Z</time>
      </trkpt>
      <trkpt lat="66.62191" lon="13.45702">
        <ele>123.623923</ele>
        <time>2020-07-15T21:05:30.109Z</time>
      </trkpt>
      <trkpt lat="66.62192" lon="13.45717">
        <ele>123.837474</ele>
        <time>2020-07-15T21:05:31.811Z</time>
      </trkpt>
      <trkpt lat="66.62194" lon="13.45739">
        <ele>124.139141</ele>
        <time>2020-07-15T21:05:34.692Z</time>
      </trkpt>
      <trkpt lat="66.62213" lon="13.45877">
        <ele>125.364546</ele>
        <time>2020-07-15T21:05:46.522Z</time>
      </trkpt>
      <trkpt lat="66.62216" lon="13.45891">
        <ele>125.402414</ele>
        <time>2020-07-15T21:05:48.589Z</time>
      </trkpt>
      <trkpt lat="66.6398" lon="13.51644">
        <ele>129.697855</ele>
        <time>2020-07-15T21:15:39.152Z</time>
      </trkpt>
      <trkpt lat="66.63986" lon="13.51666">
        <ele>127.110138</ele>
        <time>2020-07-15T21:15:40.318Z</time>
      </trkpt>
      <trkpt lat="66.64067" lon="13.51935">
        <ele>94.052645</ele>
        <time>2020-07-15T21:15:54.126Z</time>
      </trkpt>
      <trkpt lat="66.64072" lon="13.51953">
        <ele>91.898491</ele>
        <time>2020-07-15T21:15:55.127Z</time>
      </trkpt>
      <trkpt lat="66.64074" lon="13.5196">
        <ele>90.959216</ele>
        <time>2020-07-15T21:15:55.513Z</time>
      </trkpt>
      <trkpt lat="66.6408" lon="13.51979">
        <ele>88.714689</ele>
        <time>2020-07-15T21:15:56.450Z</time>
      </trkpt>
      <trkpt lat="66.64081" lon="13.51982">
        <ele>88.370484</ele>
        <time>2020-07-15T21:15:56.601Z</time>
      </trkpt>
      <trkpt lat="66.64087" lon="13.52003">
        <ele>85.705868</ele>
        <time>2020-07-15T21:15:57.704Z</time>
      </trkpt>
      <trkpt lat="66.64088" lon="13.52007">
        <ele>85.232559</ele>
        <time>2020-07-15T21:15:57.933Z</time>
      </trkpt>
      <trkpt lat="66.64128" lon="13.52127">
        <ele>70.091638</ele>
        <time>2020-07-15T21:16:04.210Z</time>
      </trkpt>
      <trkpt lat="66.64158" lon="13.52196">
        <ele>60.024908</ele>
        <time>2020-07-15T21:16:08.369Z</time>
      </trkpt>
      <trkpt lat="66.6416" lon="13.52198">
        <ele>59.603395</ele>
        <time>2020-07-15T21:16:08.561Z</time>
      </trkpt>
      <trkpt lat="66.64167" lon="13.52212">
        <ele>57.30224</ele>
        <time>2020-07-15T21:16:09.543Z</time>
      </trkpt>
      <trkpt lat="66.64213" lon="13.52272">
        <ele>49.270246</ele>
        <time>2020-07-15T21:16:15.031Z</time>
      </trkpt>
      <trkpt lat="66.64291" lon="13.52321">
        <ele>44.162914</ele>
        <time>2020-07-15T21:16:24.934Z</time>
      </trkpt>
      <trkpt lat="66.64301" lon="13.52326">
        <ele>43.492912</ele>
        <time>2020-07-15T21:16:26.098Z</time>
      </trkpt>
      <trkpt lat="66.64311" lon="13.52331">
        <ele>42.809404</ele>
        <time>2020-07-15T21:16:27.601Z</time>
      </trkpt>
      <trkpt lat="66.64447" lon="13.52408">
        <ele>36.893203</ele>
        <time>2020-07-15T21:16:47.340Z</time>
      </trkpt>
      <trkpt lat="66.6448" lon="13.52447">
        <ele>35.798662</ele>
        <time>2020-07-15T21:16:52.296Z</time>
      </trkpt>
      <trkpt lat="66.64523" lon="13.52525">
        <ele>34.248427</ele>
        <time>2020-07-15T21:16:58.992Z</time>
      </trkpt>
      <trkpt lat="66.64553" lon="13.52613">
        <ele>31.558216</ele>
        <time>2020-07-15T21:17:04.608Z</time>
      </trkpt>
      <trkpt lat="66.64578" lon="13.52719">
        <ele>28.533587</ele>
        <time>2020-07-15T21:17:10.359Z</time>
      </trkpt>
      <trkpt lat="66.64639" lon="13.531">
        <ele>19.819226</ele>
        <time>2020-07-15T21:17:29.065Z</time>
      </trkpt>
      <trkpt lat="66.64642" lon="13.53123">
        <ele>19.395965</ele>
        <time>2020-07-15T21:17:30.149Z</time>
      </trkpt>
      <trkpt lat="66.64646" lon="13.53153">
        <ele>18.853515</ele>
        <time>2020-07-15T21:17:31.708Z</time>
      </trkpt>
      <trkpt lat="66.64653" lon="13.53241">
        <ele>17.295259</ele>
        <time>2020-07-15T21:17:36.151Z</time>
      </trkpt>
      <trkpt lat="66.64654" lon="13.53356">
        <ele>15.293253</ele>
        <time>2020-07-15T21:17:43.129Z</time>
      </trkpt>
      <trkpt lat="66.64644" lon="13.53487">
        <ele>16.465182</ele>
        <time>2020-07-15T21:17:52.383Z</time>
      </trkpt>
      <trkpt lat="66.64628" lon="13.53578">
        <ele>17.5</ele>
        <time>2020-07-15T21:18:03.323Z</time>
      </trkpt>
      <trkpt lat="66.64625" lon="13.53594">
        <ele>17.698313</ele>
        <time>2020-07-15T21:18:05.520Z</time>
      </trkpt>
      <trkpt lat="66.64619" lon="13.53619">
        <ele>17.99777</ele>
        <time>2020-07-15T21:18:09.520Z</time>
      </trkpt>
      <trkpt lat="66.6452" lon="13.5391">
        <ele>22.237503</ele>
        <time>2020-07-15T21:18:58.348Z</time>
      </trkpt>
      <trkpt lat="66.64494" lon="13.54019">
        <ele>23.687977</ele>
        <time>2020-07-15T21:19:10.674Z</time>
      </trkpt>
      <trkpt lat="66.6448" lon="13.54108">
        <ele>24.789962</ele>
        <time>2020-07-15T21:19:19.535Z</time>
      </trkpt>
      <trkpt lat="66.64474" lon="13.54145">
        <ele>25.17155</ele>
        <time>2020-07-15T21:19:23.606Z</time>
      </trkpt>
      <trkpt lat="66.6447" lon="13.54177">
        <ele>25.294288</ele>
        <time>2020-07-15T21:19:25.805Z</time>
      </trkpt>
      <trkpt lat="66.64453" lon="13.54365">
        <ele>26.002596</ele>
        <time>2020-07-15T21:19:41.217Z</time>
      </trkpt>
      <trkpt lat="66.64443" lon="13.54583">
        <ele>26.819976</ele>
        <time>2020-07-15T21:19:58.235Z</time>
      </trkpt>
      <trkpt lat="66.64445" lon="13.54813">
        <ele>28.381204</ele>
        <time>2020-07-15T21:20:20.474Z</time>
      </trkpt>
      <trkpt lat="66.64457" lon="13.55012">
        <ele>29.746153</ele>
        <time>2020-07-15T21:20:40.262Z</time>
      </trkpt>
      <trkpt lat="66.64473" lon="13.55171">
        <ele>29.481289</ele>
        <time>2020-07-15T21:20:53.958Z</time>
      </trkpt>
      <trkpt lat="66.64495" lon="13.55323">
        <ele>29.035401</ele>
        <time>2020-07-15T21:21:04.542Z</time>
      </trkpt>
      <trkpt lat="66.64613" lon="13.56006">
        <ele>22.68488</ele>
        <time>2020-07-15T21:21:43.808Z</time>
      </trkpt>
      <trkpt lat="66.64614" lon="13.56014">
        <ele>22.639715</ele>
        <time>2020-07-15T21:21:44.189Z</time>
      </trkpt>
      <trkpt lat="66.64616" lon="13.56033">
        <ele>22.523641</ele>
        <time>2020-07-15T21:21:45.403Z</time>
      </trkpt>
      <trkpt lat="66.64618" lon="13.56043">
        <ele>22.463211</ele>
        <time>2020-07-15T21:21:46.304Z</time>
      </trkpt>
      <trkpt lat="66.64622" lon="13.56072">
        <ele>22.289851</ele>
        <time>2020-07-15T21:21:48.480Z</time>
      </trkpt>
      <trkpt lat="66.64631" lon="13.56145">
        <ele>21.859458</ele>
        <time>2020-07-15T21:21:53.688Z</time>
      </trkpt>
      <trkpt lat="66.64631" lon="13.5615">
        <ele>21.830334</ele>
        <time>2020-07-15T21:21:54.003Z</time>
      </trkpt>
      <trkpt lat="66.64635" lon="13.56187">
        <ele>21.613558</ele>
        <time>2020-07-15T21:21:56.441Z</time>
      </trkpt>
      <trkpt lat="66.64648" lon="13.56299">
        <ele>20.956957</ele>
        <time>2020-07-15T21:22:03.604Z</time>
      </trkpt>
      <trkpt lat="66.64649" lon="13.56308">
        <ele>20.873728</ele>
        <time>2020-07-15T21:22:04.880Z</time>
      </trkpt>
      <trkpt lat="66.64651" lon="13.56336">
        <ele>20.546934</ele>
        <time>2020-07-15T21:22:06.453Z</time>
      </trkpt>
      <trkpt lat="66.64676" lon="13.56487">
        <ele>18.664505</ele>
        <time>2020-07-15T21:22:17.014Z</time>
      </trkpt>
      <trkpt lat="66.6468" lon="13.56502">
        <ele>18.462324</ele>
        <time>2020-07-15T21:22:17.966Z</time>
      </trkpt>
      <trkpt lat="66.64683" lon="13.56511">
        <ele>18.335176</ele>
        <time>2020-07-15T21:22:18.458Z</time>
      </trkpt>
      <trkpt lat="66.64695" lon="13.56552">
        <ele>17.739413</ele>
        <time>2020-07-15T21:22:21.248Z</time>
      </trkpt>
      <trkpt lat="66.647" lon="13.56564">
        <ele>17.558351</ele>
        <time>2020-07-15T21:22:22.179Z</time>
      </trkpt>
      <trkpt lat="66.64703" lon="13.56574">
        <ele>17.407926</ele>
        <time>2020-07-15T21:22:22.810Z</time>
      </trkpt>
      <trkpt lat="66.6474" lon="13.56656">
        <ele>15.969961</ele>
        <time>2020-07-15T21:22:28.786Z</time>
      </trkpt>
      <trkpt lat="66.64793" lon="13.56721">
        <ele>12.952842</ele>
        <time>2020-07-15T21:22:35.777Z</time>
      </trkpt>
      <trkpt lat="66.648" lon="13.56725">
        <ele>12.581119</ele>
        <time>2020-07-15T21:22:36.503Z</time>
      </trkpt>
      <trkpt lat="66.64809" lon="13.56731">
        <ele>12.045556</ele>
        <time>2020-07-15T21:22:37.614Z</time>
      </trkpt>
      <trkpt lat="66.64862" lon="13.56741">
        <ele>9.121297</ele>
        <time>2020-07-15T21:22:43.928Z</time>
      </trkpt>
      <trkpt lat="66.64908" lon="13.56715">
        <ele>6.511184</ele>
        <time>2020-07-15T21:22:49.513Z</time>
      </trkpt>
      <trkpt lat="66.64941" lon="13.56676">
        <ele>5.179919</ele>
        <time>2020-07-15T21:22:53.915Z</time>
      </trkpt>
      <trkpt lat="66.65014" lon="13.56553">
        <ele>2.886992</ele>
        <time>2020-07-15T21:23:05.797Z</time>
      </trkpt>
      <trkpt lat="66.65019" lon="13.56544">
        <ele>2.709296</ele>
        <time>2020-07-15T21:23:06.744Z</time>
      </trkpt>
      <trkpt lat="66.65024" lon="13.56536">
        <ele>2.566473</ele>
        <time>2020-07-15T21:23:07.551Z</time>
      </trkpt>
      <trkpt lat="66.65035" lon="13.56516">
        <ele>2.220257</ele>
        <time>2020-07-15T21:23:09.532Z</time>
      </trkpt>
      <trkpt lat="66.65036" lon="13.56514">
        <ele>2.179876</ele>
        <time>2020-07-15T21:23:09.754Z</time>
      </trkpt>
      <trkpt lat="66.65045" lon="13.56499">
        <ele>1.898146</ele>
        <time>2020-07-15T21:23:11.332Z</time>
      </trkpt>
      <trkpt lat="66.65051" lon="13.56488">
        <ele>1.708333</ele>
        <time>2020-07-15T21:23:12.390Z</time>
      </trkpt>
      <trkpt lat="66.65054" lon="13.56481">
        <ele>1.591308</ele>
        <time>2020-07-15T21:23:13.077Z</time>
      </trkpt>
      <trkpt lat="66.65061" lon="13.56468">
        <ele>1.363666</ele>
        <time>2020-07-15T21:23:14.432Z</time>
      </trkpt>
      <trkpt lat="66.65066" lon="13.56456">
        <ele>1.179442</ele>
        <time>2020-07-15T21:23:15.521Z</time>
      </trkpt>
      <trkpt lat="66.65072" lon="13.56443">
        <ele>1.066084</ele>
        <time>2020-07-15T21:23:16.630Z</time>
      </trkpt>
      <trkpt lat="66.65075" lon="13.56435">
        <ele>1.046089</ele>
        <time>2020-07-15T21:23:17.285Z</time>
      </trkpt>
      <trkpt lat="66.65076" lon="13.56432">
        <ele>1.037795</ele>
        <time>2020-07-15T21:23:17.532Z</time>
      </trkpt>
      <trkpt lat="66.65095" lon="13.56364">
        <ele>0.88802</ele>
        <time>2020-07-15T21:23:22.777Z</time>
      </trkpt>
      <trkpt lat="66.65106" lon="13.56299">
        <ele>0.758846</ele>
        <time>2020-07-15T21:23:27.442Z</time>
      </trkpt>
      <trkpt lat="66.6511" lon="13.56277">
        <ele>0.715767</ele>
        <time>2020-07-15T21:23:28.938Z</time>
      </trkpt>
      <trkpt lat="66.65112" lon="13.56257">
        <ele>0.677152</ele>
        <time>2020-07-15T21:23:30.394Z</time>
      </trkpt>
      <trkpt lat="66.65174" lon="13.55687">
        <ele>0.215152</ele>
        <time>2020-07-15T21:24:11.728Z</time>
      </trkpt>
      <trkpt lat="66.65208" lon="13.55519">
        <ele>0.212574</ele>
        <time>2020-07-15T21:24:25.070Z</time>
      </trkpt>
      <trkpt lat="66.65243" lon="13.55393">
        <ele>0.227433</ele>
        <time>2020-07-15T21:24:36.025Z</time>
      </trkpt>
      <trkpt lat="66.65283" lon="13.55289">
        <ele>0.241457</ele>
        <time>2020-07-15T21:24:46.365Z</time>
      </trkpt>
      <trkpt lat="66.65335" lon="13.55186">
        <ele>0.272099</ele>
        <time>2020-07-15T21:24:58.363Z</time>
      </trkpt>
      <trkpt lat="66.65555" lon="13.54834">
        <ele>0.369253</ele>
        <time>2020-07-15T21:25:45.097Z</time>
      </trkpt>
      <trkpt lat="66.65556" lon="13.54832">
        <ele>0.3694</ele>
        <time>2020-07-15T21:25:45.284Z</time>
      </trkpt>
      <trkpt lat="66.65565" lon="13.54813">
        <ele>0.371065</ele>
        <time>2020-07-15T21:25:47.476Z</time>
      </trkpt>
      <trkpt lat="66.65586" lon="13.54772">
        <ele>0.37457</ele>
        <time>2020-07-15T21:25:52.170Z</time>
      </trkpt>
      <trkpt lat="66.65591" lon="13.54762">
        <ele>0.37541</ele>
        <time>2020-07-15T21:25:53.271Z</time>
      </trkpt>
      <trkpt lat="66.65604" lon="13.54736">
        <ele>0.381802</ele>
        <time>2020-07-15T21:25:56.263Z</time>
      </trkpt>
      <trkpt lat="66.65653" lon="13.5464">
        <ele>0.430928</ele>
        <time>2020-07-15T21:26:07.440Z</time>
      </trkpt>
      <trkpt lat="66.65663" lon="13.54622">
        <ele>0.440296</ele>
        <time>2020-07-15T21:26:09.496Z</time>
      </trkpt>
      <trkpt lat="66.65666" lon="13.54616">
        <ele>0.443275</ele>
        <time>2020-07-15T21:26:10.270Z</time>
      </trkpt>
      <trkpt lat="66.65713" lon="13.54537">
        <ele>0.488541</ele>
        <time>2020-07-15T21:26:20.532Z</time>
      </trkpt>
      <trkpt lat="66.65751" lon="13.54491">
        <ele>0.528185</ele>
        <time>2020-07-15T21:26:28.255Z</time>
      </trkpt>
      <trkpt lat="66.65987" lon="13.54311">
        <ele>1.407638</ele>
        <time>2020-07-15T21:27:14.512Z</time>
      </trkpt>
      <trkpt lat="66.66182" lon="13.54041">
        <ele>2.942652</ele>
        <time>2020-07-15T21:27:59.459Z</time>
      </trkpt>
      <trkpt lat="66.66248" lon="13.53973">
        <ele>3.517499</ele>
        <time>2020-07-15T21:28:14.173Z</time>
      </trkpt>
      <trkpt lat="66.6629" lon="13.53949">
        <ele>3.889091</ele>
        <time>2020-07-15T21:28:23.096Z</time>
      </trkpt>
      <trkpt lat="66.66336" lon="13.53941">
        <ele>4.284785</ele>
        <time>2020-07-15T21:28:32.642Z</time>
      </trkpt>
      <trkpt lat="66.66524" lon="13.5399">
        <ele>5.406273</ele>
        <time>2020-07-15T21:29:11.441Z</time>
      </trkpt>
      <trkpt lat="66.66585" lon="13.53989">
        <ele>5.625315</ele>
        <time>2020-07-15T21:29:22.675Z</time>
      </trkpt>
      <trkpt lat="66.66717" lon="13.53915">
        <ele>4.310714</ele>
        <time>2020-07-15T21:29:43.980Z</time>
      </trkpt>
      <trkpt lat="66.6678" lon="13.53856">
        <ele>3.512015</ele>
        <time>2020-07-15T21:29:53.384Z</time>
      </trkpt>
      <trkpt lat="66.66867" lon="13.53756">
        <ele>2.124014</ele>
        <time>2020-07-15T21:30:07.436Z</time>
      </trkpt>
      <trkpt lat="66.66877" lon="13.53746">
        <ele>1.976885</ele>
        <time>2020-07-15T21:30:08.786Z</time>
      </trkpt>
      <trkpt lat="66.66882" lon="13.5374">
        <ele>1.893792</ele>
        <time>2020-07-15T21:30:09.711Z</time>
      </trkpt>
      <trkpt lat="66.6691" lon="13.53709">
        <ele>1.450327</ele>
        <time>2020-07-15T21:30:14.268Z</time>
      </trkpt>
      <trkpt lat="66.6692" lon="13.53697">
        <ele>1.291928</ele>
        <time>2020-07-15T21:30:16.077Z</time>
      </trkpt>
      <trkpt lat="66.66923" lon="13.53693">
        <ele>1.248906</ele>
        <time>2020-07-15T21:30:16.657Z</time>
      </trkpt>
      <trkpt lat="66.66972" lon="13.53616">
        <ele>0.959481</ele>
        <time>2020-07-15T21:30:25.707Z</time>
      </trkpt>
      <trkpt lat="66.66983" lon="13.53594">
        <ele>0.949784</ele>
        <time>2020-07-15T21:30:28.270Z</time>
      </trkpt>
      <trkpt lat="66.66986" lon="13.53589">
        <ele>0.947418</ele>
        <time>2020-07-15T21:30:28.888Z</time>
      </trkpt>
      <trkpt lat="66.67025" lon="13.53493">
        <ele>0.909142</ele>
        <time>2020-07-15T21:30:38.608Z</time>
      </trkpt>
      <trkpt lat="66.67031" lon="13.53478">
        <ele>0.903527</ele>
        <time>2020-07-15T21:30:40.092Z</time>
      </trkpt>
      <trkpt lat="66.67037" lon="13.53462">
        <ele>0.897499</ele>
        <time>2020-07-15T21:30:41.856Z</time>
      </trkpt>
      <trkpt lat="66.67085" lon="13.53343">
        <ele>0.983088</ele>
        <time>2020-07-15T21:30:54.916Z</time>
      </trkpt>
      <trkpt lat="66.67093" lon="13.53318">
        <ele>1.07933</ele>
        <time>2020-07-15T21:30:57.534Z</time>
      </trkpt>
      <trkpt lat="66.67096" lon="13.53309">
        <ele>1.113621</ele>
        <time>2020-07-15T21:30:58.500Z</time>
      </trkpt>
      <trkpt lat="66.67128" lon="13.53205">
        <ele>1.49328</ele>
        <time>2020-07-15T21:31:08.773Z</time>
      </trkpt>
      <trkpt lat="66.67163" lon="13.53047">
        <ele>2.015568</ele>
        <time>2020-07-15T21:31:23.576Z</time>
      </trkpt>
      <trkpt lat="66.67186" lon="13.52892">
        <ele>2.37003</ele>
        <time>2020-07-15T21:31:37.058Z</time>
      </trkpt>
      <trkpt lat="66.672" lon="13.52741">
        <ele>2.645358</ele>
        <time>2020-07-15T21:31:48.953Z</time>
      </trkpt>
      <trkpt lat="66.67201" lon="13.52715">
        <ele>2.691099</ele>
        <time>2020-07-15T21:31:51.085Z</time>
      </trkpt>
      <trkpt lat="66.67202" lon="13.52695">
        <ele>2.726839</ele>
        <time>2020-07-15T21:31:52.552Z</time>
      </trkpt>
      <trkpt lat="66.67205" lon="13.52523">
        <ele>2.956732</ele>
        <time>2020-07-15T21:32:05.369Z</time>
      </trkpt>
      <trkpt lat="66.67205" lon="13.5249">
        <ele>2.930306</ele>
        <time>2020-07-15T21:32:07.647Z</time>
      </trkpt>
      <trkpt lat="66.67205" lon="13.52488">
        <ele>2.928695</ele>
        <time>2020-07-15T21:32:07.770Z</time>
      </trkpt>
      <trkpt lat="66.67203" lon="13.52119">
        <ele>2.631118</ele>
        <time>2020-07-15T21:32:32.564Z</time>
      </trkpt>
      <trkpt lat="66.67202" lon="13.52092">
        <ele>2.608789</ele>
        <time>2020-07-15T21:32:34.353Z</time>
      </trkpt>
      <trkpt lat="66.67202" lon="13.52085">
        <ele>2.601394</ele>
        <time>2020-07-15T21:32:34.889Z</time>
      </trkpt>
      <trkpt lat="66.67202" lon="13.52072">
        <ele>2.58955</ele>
        <time>2020-07-15T21:32:35.746Z</time>
      </trkpt>
      <trkpt lat="66.67202" lon="13.52053">
        <ele>2.571162</ele>
        <time>2020-07-15T21:32:36.935Z</time>
      </trkpt>
      <trkpt lat="66.67203" lon="13.51879">
        <ele>2.407011</ele>
        <time>2020-07-15T21:32:48.531Z</time>
      </trkpt>
      <trkpt lat="66.67204" lon="13.51869">
        <ele>2.397296</ele>
        <time>2020-07-15T21:32:49.133Z</time>
      </trkpt>
      <trkpt lat="66.67206" lon="13.51846">
        <ele>2.374648</ele>
        <time>2020-07-15T21:32:50.824Z</time>
      </trkpt>
      <trkpt lat="66.67241" lon="13.51546">
        <ele>2.739958</ele>
        <time>2020-07-15T21:33:12.427Z</time>
      </trkpt>
      <trkpt lat="66.67266" lon="13.51426">
        <ele>3.41814</ele>
        <time>2020-07-15T21:33:23.331Z</time>
      </trkpt>
      <trkpt lat="66.67296" lon="13.51337">
        <ele>4.002896</ele>
        <time>2020-07-15T21:33:33.707Z</time>
      </trkpt>
      <trkpt lat="66.67386" lon="13.51121">
        <ele>7.577075</ele>
        <time>2020-07-15T21:34:08.530Z</time>
      </trkpt>
      <trkpt lat="66.67469" lon="13.50983">
        <ele>10.95459</ele>
        <time>2020-07-15T21:34:39.882Z</time>
      </trkpt>
      <trkpt lat="66.67495" lon="13.50919">
        <ele>11.718061</ele>
        <time>2020-07-15T21:34:51.128Z</time>
      </trkpt>
      <trkpt lat="66.67588" lon="13.50501">
        <ele>13.556983</ele>
        <time>2020-07-15T21:35:33.488Z</time>
      </trkpt>
      <trkpt lat="66.67617" lon="13.50318">
        <ele>12.09658</ele>
        <time>2020-07-15T21:35:43.944Z</time>
      </trkpt>
      <trkpt lat="66.67629" lon="13.50163">
        <ele>10.619051</ele>
        <time>2020-07-15T21:35:51.749Z</time>
      </trkpt>
      <trkpt lat="66.67653" lon="13.49697">
        <ele>4.088176</ele>
        <time>2020-07-15T21:36:15.025Z</time>
      </trkpt>
      <trkpt lat="66.67781" lon="13.48227">
        <ele>0.395115</ele>
        <time>2020-07-15T21:37:53.783Z</time>
      </trkpt>
      <trkpt lat="66.67783" lon="13.48052">
        <ele>0.331132</ele>
        <time>2020-07-15T21:38:06.055Z</time>
      </trkpt>
      <trkpt lat="66.67771" lon="13.47736">
        <ele>1.269459</ele>
        <time>2020-07-15T21:38:30.671Z</time>
      </trkpt>
      <trkpt lat="66.67762" lon="13.47637">
        <ele>1.687387</ele>
        <time>2020-07-15T21:38:39.366Z</time>
      </trkpt>
      <trkpt lat="66.67738" lon="13.47445">
        <ele>3.127158</ele>
        <time>2020-07-15T21:38:58.356Z</time>
      </trkpt>
      <trkpt lat="66.67734" lon="13.47363">
        <ele>4.082546</ele>
        <time>2020-07-15T21:39:06.884Z</time>
      </trkpt>
      <trkpt lat="66.67737" lon="13.47263">
        <ele>5.236471</ele>
        <time>2020-07-15T21:39:17.692Z</time>
      </trkpt>
      <trkpt lat="66.67754" lon="13.47065">
        <ele>7.621792</ele>
        <time>2020-07-15T21:39:40.276Z</time>
      </trkpt>
      <trkpt lat="66.67757" lon="13.46851">
        <ele>10.808657</ele>
        <time>2020-07-15T21:40:08.270Z</time>
      </trkpt>
      <trkpt lat="66.67779" lon="13.46702">
        <ele>13.15655</ele>
        <time>2020-07-15T21:40:26.484Z</time>
      </trkpt>
      <trkpt lat="66.67779" lon="13.46701">
        <ele>13.177632</ele>
        <time>2020-07-15T21:40:27.006Z</time>
      </trkpt>
      <trkpt lat="66.67784" lon="13.46674">
        <ele>13.616011</ele>
        <time>2020-07-15T21:40:30.679Z</time>
      </trkpt>
      <trkpt lat="66.67817" lon="13.46518">
        <ele>14.568071</ele>
        <time>2020-07-15T21:40:48.066Z</time>
      </trkpt>
      <trkpt lat="66.67821" lon="13.46501">
        <ele>14.624852</ele>
        <time>2020-07-15T21:40:50.188Z</time>
      </trkpt>
      <trkpt lat="66.67823" lon="13.46492">
        <ele>14.655344</ele>
        <time>2020-07-15T21:40:50.747Z</time>
      </trkpt>
      <trkpt lat="66.67858" lon="13.4641">
        <ele>15.004449</ele>
        <time>2020-07-15T21:41:00.361Z</time>
      </trkpt>
      <trkpt lat="66.67897" lon="13.4637">
        <ele>15.313982</ele>
        <time>2020-07-15T21:41:08.137Z</time>
      </trkpt>
      <trkpt lat="66.679" lon="13.46368">
        <ele>15.339445</ele>
        <time>2020-07-15T21:41:08.560Z</time>
      </trkpt>
      <trkpt lat="66.67907" lon="13.46365">
        <ele>15.390267</ele>
        <time>2020-07-15T21:41:09.732Z</time>
      </trkpt>
      <trkpt lat="66.68018" lon="13.46389">
        <ele>13.527789</ele>
        <time>2020-07-15T21:41:25.201Z</time>
      </trkpt>
      <trkpt lat="66.68058" lon="13.46376">
        <ele>12.737686</ele>
        <time>2020-07-15T21:41:30.617Z</time>
      </trkpt>
      <trkpt lat="66.68107" lon="13.46317">
        <ele>11.868044</ele>
        <time>2020-07-15T21:41:38.400Z</time>
      </trkpt>
      <trkpt lat="66.68182" lon="13.46175">
        <ele>11.461411</ele>
        <time>2020-07-15T21:41:52.430Z</time>
      </trkpt>
      <trkpt lat="66.68227" lon="13.46143">
        <ele>11.2604</ele>
        <time>2020-07-15T21:42:01.722Z</time>
      </trkpt>
      <trkpt lat="66.68251" lon="13.46149">
        <ele>11.154769</ele>
        <time>2020-07-15T21:42:06.707Z</time>
      </trkpt>
      <trkpt lat="66.68272" lon="13.46172">
        <ele>11.646572</ele>
        <time>2020-07-15T21:42:12.272Z</time>
      </trkpt>
      <trkpt lat="66.68297" lon="13.46225">
        <ele>12.388314</ele>
        <time>2020-07-15T21:42:20.450Z</time>
      </trkpt>
      <trkpt lat="66.68329" lon="13.46318">
        <ele>13.50673</ele>
        <time>2020-07-15T21:42:32.858Z</time>
      </trkpt>
      <trkpt lat="66.68332" lon="13.46328">
        <ele>13.628619</ele>
        <time>2020-07-15T21:42:34.826Z</time>
      </trkpt>
      <trkpt lat="66.68337" lon="13.46343">
        <ele>13.799827</ele>
        <time>2020-07-15T21:42:37.221Z</time>
      </trkpt>
      <trkpt lat="66.68412" lon="13.46556">
        <ele>16.114596</ele>
        <time>2020-07-15T21:43:06.123Z</time>
      </trkpt>
      <trkpt lat="66.68416" lon="13.46568">
        <ele>16.230065</ele>
        <time>2020-07-15T21:43:08.041Z</time>
      </trkpt>
      <trkpt lat="66.68421" lon="13.4658">
        <ele>16.349911</ele>
        <time>2020-07-15T21:43:09.107Z</time>
      </trkpt>
      <trkpt lat="66.68451" lon="13.46637">
        <ele>16.99085</ele>
        <time>2020-07-15T21:43:18.432Z</time>
      </trkpt>
      <trkpt lat="66.68473" lon="13.4666">
        <ele>17.400991</ele>
        <time>2020-07-15T21:43:23.443Z</time>
      </trkpt>
      <trkpt lat="66.68486" lon="13.46669">
        <ele>17.632998</ele>
        <time>2020-07-15T21:43:26.120Z</time>
      </trkpt>
      <trkpt lat="66.68499" lon="13.46676">
        <ele>17.860444</ele>
        <time>2020-07-15T21:43:28.703Z</time>
      </trkpt>
      <trkpt lat="66.68525" lon="13.46685">
        <ele>18.324398</ele>
        <time>2020-07-15T21:43:34.789Z</time>
      </trkpt>
      <trkpt lat="66.68528" lon="13.46685">
        <ele>18.366012</ele>
        <time>2020-07-15T21:43:35.241Z</time>
      </trkpt>
      <trkpt lat="66.68539" lon="13.46688">
        <ele>18.626522</ele>
        <time>2020-07-15T21:43:37.744Z</time>
      </trkpt>
      <trkpt lat="66.68545" lon="13.46688">
        <ele>18.757366</ele>
        <time>2020-07-15T21:43:39.405Z</time>
      </trkpt>
      <trkpt lat="66.6855" lon="13.46689">
        <ele>18.867944</ele>
        <time>2020-07-15T21:43:40.604Z</time>
      </trkpt>
      <trkpt lat="66.6857" lon="13.46689">
        <ele>19.31652</ele>
        <time>2020-07-15T21:43:44.164Z</time>
      </trkpt>
      <trkpt lat="66.68572" lon="13.4669">
        <ele>19.355004</ele>
        <time>2020-07-15T21:43:44.620Z</time>
      </trkpt>
      <trkpt lat="66.68587" lon="13.46693">
        <ele>19.712669</ele>
        <time>2020-07-15T21:43:48.149Z</time>
      </trkpt>
      <trkpt lat="66.68621" lon="13.46699">
        <ele>20.467058</ele>
        <time>2020-07-15T21:43:55.913Z</time>
      </trkpt>
      <trkpt lat="66.68634" lon="13.46701">
        <ele>20.762774</ele>
        <time>2020-07-15T21:43:59.051Z</time>
      </trkpt>
      <trkpt lat="66.68638" lon="13.46701">
        <ele>20.846293</ele>
        <time>2020-07-15T21:44:00.341Z</time>
      </trkpt>
      <trkpt lat="66.68642" lon="13.46702">
        <ele>20.952536</ele>
        <time>2020-07-15T21:44:01.793Z</time>
      </trkpt>
      <trkpt lat="66.68657" lon="13.46704">
        <ele>21.28436</ele>
        <time>2020-07-15T21:44:05.706Z</time>
      </trkpt>
      <trkpt lat="66.68744" lon="13.46718">
        <ele>23.953829</ele>
        <time>2020-07-15T21:44:31.031Z</time>
      </trkpt>
      <trkpt lat="66.68748" lon="13.46718">
        <ele>24.096323</ele>
        <time>2020-07-15T21:44:32.387Z</time>
      </trkpt>
      <trkpt lat="66.68763" lon="13.4672">
        <ele>24.737696</ele>
        <time>2020-07-15T21:44:36.465Z</time>
      </trkpt>
      <trkpt lat="66.68775" lon="13.46722">
        <ele>25.240555</ele>
        <time>2020-07-15T21:44:39.659Z</time>
      </trkpt>
      <trkpt lat="66.68781" lon="13.46723">
        <ele>25.491939</ele>
        <time>2020-07-15T21:44:42.021Z</time>
      </trkpt>
      <trkpt lat="66.68928" lon="13.46751">
        <ele>31.388137</ele>
        <time>2020-07-15T21:45:30.369Z</time>
      </trkpt>
      <trkpt lat="66.68932" lon="13.46753">
        <ele>31.527151</ele>
        <time>2020-07-15T21:45:32.142Z</time>
      </trkpt>
      <trkpt lat="66.6894" lon="13.46758">
        <ele>31.819682</ele>
        <time>2020-07-15T21:45:34.868Z</time>
      </trkpt>
      <trkpt lat="66.69064" lon="13.46865">
        <ele>36.265044</ele>
        <time>2020-07-15T21:46:10.805Z</time>
      </trkpt>
      <trkpt lat="66.69123" lon="13.46882">
        <ele>36.714882</ele>
        <time>2020-07-15T21:46:25.289Z</time>
      </trkpt>
      <trkpt lat="66.69171" lon="13.46864">
        <ele>37.080835</ele>
        <time>2020-07-15T21:46:34.690Z</time>
      </trkpt>
      <trkpt lat="66.69298" lon="13.46769">
        <ele>36.917158</ele>
        <time>2020-07-15T21:46:56.376Z</time>
      </trkpt>
      <trkpt lat="66.69302" lon="13.46766">
        <ele>36.876254</ele>
        <time>2020-07-15T21:46:56.898Z</time>
      </trkpt>
      <trkpt lat="66.6931" lon="13.4676">
        <ele>36.788909</ele>
        <time>2020-07-15T21:46:58.023Z</time>
      </trkpt>
      <trkpt lat="66.69553" lon="13.46581">
        <ele>34.214122</ele>
        <time>2020-07-15T21:47:36.371Z</time>
      </trkpt>
      <trkpt lat="66.69598" lon="13.46569">
        <ele>33.93874</ele>
        <time>2020-07-15T21:47:44.194Z</time>
      </trkpt>
      <trkpt lat="66.69688" lon="13.46568">
        <ele>34.008001</ele>
        <time>2020-07-15T21:48:01.036Z</time>
      </trkpt>
      <trkpt lat="66.69796" lon="13.46544">
        <ele>33.684108</ele>
        <time>2020-07-15T21:48:20.923Z</time>
      </trkpt>
      <trkpt lat="66.69844" lon="13.46558">
        <ele>33.135141</ele>
        <time>2020-07-15T21:48:28.882Z</time>
      </trkpt>
      <trkpt lat="66.69946" lon="13.46632">
        <ele>31.815762</ele>
        <time>2020-07-15T21:48:44.221Z</time>
      </trkpt>
      <trkpt lat="66.70138" lon="13.46718">
        <ele>27.083802</ele>
        <time>2020-07-15T21:49:10.290Z</time>
      </trkpt>
      <trkpt lat="66.70149" lon="13.46723">
        <ele>26.9427</ele>
        <time>2020-07-15T21:49:11.792Z</time>
      </trkpt>
      <trkpt lat="66.70194" lon="13.46747">
        <ele>26.388691</ele>
        <time>2020-07-15T21:49:18.504Z</time>
      </trkpt>
      <trkpt lat="66.70241" lon="13.46805">
        <ele>25.747211</ele>
        <time>2020-07-15T21:49:26.799Z</time>
      </trkpt>
      <trkpt lat="66.70373" lon="13.47024">
        <ele>24.788178</ele>
        <time>2020-07-15T21:49:54.929Z</time>
      </trkpt>
      <trkpt lat="66.70402" lon="13.47059">
        <ele>24.672861</ele>
        <time>2020-07-15T21:50:00.108Z</time>
      </trkpt>
      <trkpt lat="66.70434" lon="13.4708">
        <ele>24.55462</ele>
        <time>2020-07-15T21:50:05.308Z</time>
      </trkpt>
      <trkpt lat="66.7048" lon="13.47085">
        <ele>24.114851</ele>
        <time>2020-07-15T21:50:12.482Z</time>
      </trkpt>
      <trkpt lat="66.7051" lon="13.47071">
        <ele>23.816282</ele>
        <time>2020-07-15T21:50:17.062Z</time>
      </trkpt>
      <trkpt lat="66.70528" lon="13.4706">
        <ele>23.625451</ele>
        <time>2020-07-15T21:50:19.970Z</time>
      </trkpt>
      <trkpt lat="66.70552" lon="13.47034">
        <ele>23.369523</ele>
        <time>2020-07-15T21:50:23.894Z</time>
      </trkpt>
      <trkpt lat="66.70573" lon="13.47003">
        <ele>23.124398</ele>
        <time>2020-07-15T21:50:27.661Z</time>
      </trkpt>
      <trkpt lat="66.70595" lon="13.46963">
        <ele>22.856738</ele>
        <time>2020-07-15T21:50:31.808Z</time>
      </trkpt>
      <trkpt lat="66.70611" lon="13.46919">
        <ele>22.834861</ele>
        <time>2020-07-15T21:50:35.563Z</time>
      </trkpt>
      <trkpt lat="66.70629" lon="13.46849">
        <ele>23.041627</ele>
        <time>2020-07-15T21:50:40.851Z</time>
      </trkpt>
      <trkpt lat="66.70656" lon="13.46758">
        <ele>23.320677</ele>
        <time>2020-07-15T21:50:48.879Z</time>
      </trkpt>
      <trkpt lat="66.70693" lon="13.46682">
        <ele>23.624501</ele>
        <time>2020-07-15T21:50:58.974Z</time>
      </trkpt>
      <trkpt lat="66.70741" lon="13.46635">
        <ele>24.240152</ele>
        <time>2020-07-15T21:51:11.468Z</time>
      </trkpt>
      <trkpt lat="66.70763" lon="13.46627">
        <ele>24.979659</ele>
        <time>2020-07-15T21:51:17.303Z</time>
      </trkpt>
      <trkpt lat="66.70785" lon="13.46632">
        <ele>25.754386</ele>
        <time>2020-07-15T21:51:23.726Z</time>
      </trkpt>
      <trkpt lat="66.70828" lon="13.46653">
        <ele>27.221451</ele>
        <time>2020-07-15T21:51:36.967Z</time>
      </trkpt>
      <trkpt lat="66.7084" lon="13.4666">
        <ele>27.633839</ele>
        <time>2020-07-15T21:51:40.875Z</time>
      </trkpt>
      <trkpt lat="66.70888" lon="13.46685">
        <ele>29.324616</ele>
        <time>2020-07-15T21:51:55.871Z</time>
      </trkpt>
      <trkpt lat="66.70942" lon="13.46696">
        <ele>30.650146</ele>
        <time>2020-07-15T21:52:11.593Z</time>
      </trkpt>
      <trkpt lat="66.70979" lon="13.46692">
        <ele>31.372959</ele>
        <time>2020-07-15T21:52:21.805Z</time>
      </trkpt>
      <trkpt lat="66.71011" lon="13.46677">
        <ele>32.010316</ele>
        <time>2020-07-15T21:52:29.902Z</time>
      </trkpt>
      <trkpt lat="66.71069" lon="13.46632">
        <ele>33.198534</ele>
        <time>2020-07-15T21:52:42.655Z</time>
      </trkpt>
      <trkpt lat="66.71087" lon="13.4663">
        <ele>33.489581</ele>
        <time>2020-07-15T21:52:46.269Z</time>
      </trkpt>
      <trkpt lat="66.71197" lon="13.46648">
        <ele>33.089805</ele>
        <time>2020-07-15T21:53:04.531Z</time>
      </trkpt>
      <trkpt lat="66.71227" lon="13.46651">
        <ele>32.982394</ele>
        <time>2020-07-15T21:53:09.458Z</time>
      </trkpt>
      <trkpt lat="66.7127" lon="13.46642">
        <ele>32.709038</ele>
        <time>2020-07-15T21:53:16.567Z</time>
      </trkpt>
      <trkpt lat="66.71361" lon="13.46573">
        <ele>30.692104</ele>
        <time>2020-07-15T21:53:31.107Z</time>
      </trkpt>
      <trkpt lat="66.71388" lon="13.46573">
        <ele>30.12281</ele>
        <time>2020-07-15T21:53:34.579Z</time>
      </trkpt>
      <trkpt lat="66.71426" lon="13.46615">
        <ele>29.242585</ele>
        <time>2020-07-15T21:53:39.934Z</time>
      </trkpt>
      <trkpt lat="66.71454" lon="13.46698">
        <ele>27.584529</ele>
        <time>2020-07-15T21:53:45.447Z</time>
      </trkpt>
      <trkpt lat="66.7146" lon="13.46727">
        <ele>27.01378</ele>
        <time>2020-07-15T21:53:46.997Z</time>
      </trkpt>
      <trkpt lat="66.71472" lon="13.46789">
        <ele>25.820747</ele>
        <time>2020-07-15T21:53:50.387Z</time>
      </trkpt>
      <trkpt lat="66.71491" lon="13.46875">
        <ele>24.109935</ele>
        <time>2020-07-15T21:53:55.185Z</time>
      </trkpt>
      <trkpt lat="66.71531" lon="13.46985">
        <ele>21.524886</ele>
        <time>2020-07-15T21:54:02.471Z</time>
      </trkpt>
      <trkpt lat="66.71563" lon="13.4704">
        <ele>20.221997</ele>
        <time>2020-07-15T21:54:07.138Z</time>
      </trkpt>
      <trkpt lat="66.71629" lon="13.47124">
        <ele>17.94712</ele>
        <time>2020-07-15T21:54:16.827Z</time>
      </trkpt>
      <trkpt lat="66.71656" lon="13.47155">
        <ele>17.041999</ele>
        <time>2020-07-15T21:54:20.746Z</time>
      </trkpt>
      <trkpt lat="66.7166" lon="13.4716">
        <ele>16.906003</ele>
        <time>2020-07-15T21:54:21.348Z</time>
      </trkpt>
      <trkpt lat="66.7169" lon="13.47197">
        <ele>15.870255</ele>
        <time>2020-07-15T21:54:25.967Z</time>
      </trkpt>
      <trkpt lat="66.71729" lon="13.47232">
        <ele>15.146978</ele>
        <time>2020-07-15T21:54:32.079Z</time>
      </trkpt>
      <trkpt lat="66.71741" lon="13.47238">
        <ele>14.972203</ele>
        <time>2020-07-15T21:54:33.818Z</time>
      </trkpt>
      <trkpt lat="66.71745" lon="13.4724">
        <ele>14.90578</ele>
        <time>2020-07-15T21:54:34.609Z</time>
      </trkpt>
      <trkpt lat="66.71784" lon="13.47229">
        <ele>14.349956</ele>
        <time>2020-07-15T21:54:40.832Z</time>
      </trkpt>
      <trkpt lat="66.71818" lon="13.47198">
        <ele>13.845213</ele>
        <time>2020-07-15T21:54:46.046Z</time>
      </trkpt>
      <trkpt lat="66.71831" lon="13.47181">
        <ele>13.636648</ele>
        <time>2020-07-15T21:54:48.571Z</time>
      </trkpt>
      <trkpt lat="66.71865" lon="13.47136">
        <ele>13.087034</ele>
        <time>2020-07-15T21:54:54.296Z</time>
      </trkpt>
      <trkpt lat="66.71903" lon="13.47086">
        <ele>11.982531</ele>
        <time>2020-07-15T21:55:00.386Z</time>
      </trkpt>
      <trkpt lat="66.71926" lon="13.47059">
        <ele>11.295528</ele>
        <time>2020-07-15T21:55:04.226Z</time>
      </trkpt>
      <trkpt lat="66.71934" lon="13.47095">
        <ele>10.865625</ele>
        <time>2020-07-15T21:55:06.340Z</time>
      </trkpt>
      <trkpt lat="66.71938" lon="13.47154">
        <ele>10.227957</ele>
        <time>2020-07-15T21:55:09.685Z</time>
      </trkpt>
      <trkpt lat="66.71936" lon="13.47283">
        <ele>8.85767</ele>
        <time>2020-07-15T21:55:16.191Z</time>
      </trkpt>
      <trkpt lat="66.71925" lon="13.4749">
        <ele>6.341241</ele>
        <time>2020-07-15T21:55:26.589Z</time>
      </trkpt>
      <trkpt lat="66.71925" lon="13.47553">
        <ele>5.540824</ele>
        <time>2020-07-15T21:55:29.810Z</time>
      </trkpt>
      <trkpt lat="66.71926" lon="13.47585">
        <ele>5.140277</ele>
        <time>2020-07-15T21:55:31.453Z</time>
      </trkpt>
      <trkpt lat="66.71951" lon="13.4764">
        <ele>4.075656</ele>
        <time>2020-07-15T21:55:35.866Z</time>
      </trkpt>
      <trkpt lat="66.71965" lon="13.4765">
        <ele>3.61644</ele>
        <time>2020-07-15T21:55:37.791Z</time>
      </trkpt>
      <trkpt lat="66.72002" lon="13.47646">
        <ele>2.473759</ele>
        <time>2020-07-15T21:55:42.749Z</time>
      </trkpt>
      <trkpt lat="66.72017" lon="13.4763">
        <ele>2.29262</ele>
        <time>2020-07-15T21:55:45.005Z</time>
      </trkpt>
      <trkpt lat="66.72025" lon="13.4762">
        <ele>2.187946</ele>
        <time>2020-07-15T21:55:46.326Z</time>
      </trkpt>
      <trkpt lat="66.72043" lon="13.47603">
        <ele>1.975049</ele>
        <time>2020-07-15T21:55:49.007Z</time>
      </trkpt>
      <trkpt lat="66.72103" lon="13.47606">
        <ele>1.309885</ele>
        <time>2020-07-15T21:55:57.386Z</time>
      </trkpt>
      <trkpt lat="66.72234" lon="13.47733">
        <ele>0.459233</ele>
        <time>2020-07-15T21:56:16.917Z</time>
      </trkpt>
      <trkpt lat="66.72934" lon="13.49525">
        <ele>0.005821</ele>
        <time>2020-07-15T21:58:35.744Z</time>
      </trkpt>
      <trkpt lat="66.73169" lon="13.5">
        <time>2020-07-15T21:59:17.681Z</time>
      </trkpt>
      <trkpt lat="66.73819" lon="13.51265">
        <time>2020-07-15T22:01:12.017Z</time>
      </trkpt>
      <trkpt lat="66.73857" lon="13.51375">
        <ele>1</ele>
        <time>2020-07-15T22:01:20.045Z</time>
      </trkpt>
      <trkpt lat="66.73857" lon="13.51375">
        <ele>1</ele>
        <time>2020-07-15T22:01:20.046Z</time>
      </trkpt>
      <trkpt lat="66.73872" lon="13.51412">
        <ele>1.5</ele>
        <time>2020-07-15T22:01:23.878Z</time>
      </trkpt>
      <trkpt lat="66.73892" lon="13.51481">
        <ele>2.2</ele>
        <time>2020-07-15T22:01:29.928Z</time>
      </trkpt>
      <trkpt lat="66.73901" lon="13.51562">
        <ele>3.9</ele>
        <time>2020-07-15T22:01:35.810Z</time>
      </trkpt>
      <trkpt lat="66.73899" lon="13.51598">
        <ele>4.3</ele>
        <time>2020-07-15T22:01:38.377Z</time>
      </trkpt>
      <trkpt lat="66.73896" lon="13.51652">
        <ele>5.3</ele>
        <time>2020-07-15T22:01:42.242Z</time>
      </trkpt>
      <trkpt lat="66.73896" lon="13.517">
        <ele>5.3</ele>
        <time>2020-07-15T22:01:45.644Z</time>
      </trkpt>
      <trkpt lat="66.73905" lon="13.51725">
        <ele>6.1</ele>
        <time>2020-07-15T22:01:47.934Z</time>
      </trkpt>
      <trkpt lat="66.73911" lon="13.51734">
        <ele>6.7</ele>
        <time>2020-07-15T22:01:49.280Z</time>
      </trkpt>
      <trkpt lat="66.73918" lon="13.51742">
        <ele>7.8</ele>
        <time>2020-07-15T22:01:50.550Z</time>
      </trkpt>
      <trkpt lat="66.73923" lon="13.51753">
        <ele>8.2</ele>
        <time>2020-07-15T22:01:51.789Z</time>
      </trkpt>
      <trkpt lat="66.73927" lon="13.51768">
        <ele>8.2</ele>
        <time>2020-07-15T22:01:53.011Z</time>
      </trkpt>
      <trkpt lat="66.73946" lon="13.52032">
        <ele>9.3</ele>
        <time>2020-07-15T22:02:11.960Z</time>
      </trkpt>
      <trkpt lat="66.73979" lon="13.52366">
        <ele>7.4</ele>
        <time>2020-07-15T22:02:36.242Z</time>
      </trkpt>
      <trkpt lat="66.7398" lon="13.52408">
        <ele>6.9</ele>
        <time>2020-07-15T22:02:39.234Z</time>
      </trkpt>
      <trkpt lat="66.73982" lon="13.5249">
        <ele>6.8</ele>
        <time>2020-07-15T22:02:45.035Z</time>
      </trkpt>
      <trkpt lat="66.73974" lon="13.52653">
        <ele>9.2</ele>
        <time>2020-07-15T22:02:56.588Z</time>
      </trkpt>
      <trkpt lat="66.73945" lon="13.52941">
        <ele>13.2</ele>
        <time>2020-07-15T22:03:17.551Z</time>
      </trkpt>
      <trkpt lat="66.73921" lon="13.53264">
        <ele>14.6</ele>
        <time>2020-07-15T22:03:40.721Z</time>
      </trkpt>
      <trkpt lat="66.73928" lon="13.53484">
        <ele>11.6</ele>
        <time>2020-07-15T22:03:56.274Z</time>
      </trkpt>
      <trkpt lat="66.73958" lon="13.53798">
        <ele>10.4</ele>
        <time>2020-07-15T22:04:19.113Z</time>
      </trkpt>
      <trkpt lat="66.7398" lon="13.53933">
        <ele>13</ele>
        <time>2020-07-15T22:04:29.352Z</time>
      </trkpt>
      <trkpt lat="66.74009" lon="13.5406">
        <ele>12</ele>
        <time>2020-07-15T22:04:39.739Z</time>
      </trkpt>
      <trkpt lat="66.74066" lon="13.54247">
        <ele>8.7</ele>
        <time>2020-07-15T22:04:56.305Z</time>
      </trkpt>
      <trkpt lat="66.74141" lon="13.54441">
        <ele>5.3</ele>
        <time>2020-07-15T22:05:15.517Z</time>
      </trkpt>
      <trkpt lat="66.74188" lon="13.54566">
        <ele>0.012937</ele>
        <time>2020-07-15T22:05:27.634Z</time>
      </trkpt>
      <trkpt lat="66.74206" lon="13.54634">
        <ele>0.027347</ele>
        <time>2020-07-15T22:05:33.383Z</time>
      </trkpt>
      <trkpt lat="66.74213" lon="13.54664">
        <ele>0.033616</ele>
        <time>2020-07-15T22:05:35.889Z</time>
      </trkpt>
      <trkpt lat="66.74233" lon="13.54748">
        <ele>0.050995</ele>
        <time>2020-07-15T22:05:42.853Z</time>
      </trkpt>
      <trkpt lat="66.7426" lon="13.54876">
        <ele>0.076752</ele>
        <time>2020-07-15T22:05:53.269Z</time>
      </trkpt>
      <trkpt lat="66.74275" lon="13.54946">
        <ele>0.239723</ele>
        <time>2020-07-15T22:05:58.907Z</time>
      </trkpt>
      <trkpt lat="66.74287" lon="13.54996">
        <ele>0.405339</ele>
        <time>2020-07-15T22:06:03.197Z</time>
      </trkpt>
      <trkpt lat="66.74293" lon="13.55026">
        <ele>0.497223</ele>
        <time>2020-07-15T22:06:05.580Z</time>
      </trkpt>
      <trkpt lat="66.74305" lon="13.55085">
        <ele>0.681313</ele>
        <time>2020-07-15T22:06:10.396Z</time>
      </trkpt>
      <trkpt lat="66.74309" lon="13.55134">
        <ele>0.821096</ele>
        <time>2020-07-15T22:06:14.104Z</time>
      </trkpt>
      <trkpt lat="66.74317" lon="13.55247">
        <ele>1.139097</ele>
        <time>2020-07-15T22:06:23.109Z</time>
      </trkpt>
      <trkpt lat="66.74322" lon="13.55356">
        <ele>1.759598</ele>
        <time>2020-07-15T22:06:33.489Z</time>
      </trkpt>
      <trkpt lat="66.74323" lon="13.55366">
        <ele>1.888872</ele>
        <time>2020-07-15T22:06:34.668Z</time>
      </trkpt>
      <trkpt lat="66.74331" lon="13.55499">
        <ele>3.493596</ele>
        <time>2020-07-15T22:06:48.691Z</time>
      </trkpt>
      <trkpt lat="66.74333" lon="13.55538">
        <ele>3.958169</ele>
        <time>2020-07-15T22:06:52.661Z</time>
      </trkpt>
      <trkpt lat="66.74336" lon="13.55597">
        <ele>4.668422</ele>
        <time>2020-07-15T22:06:59.423Z</time>
      </trkpt>
      <trkpt lat="66.74329" lon="13.55601">
        <ele>4.881577</ele>
        <time>2020-07-15T22:07:01.172Z</time>
      </trkpt>
      <trkpt lat="66.74332" lon="13.55646">
        <ele>5.420052</ele>
        <time>2020-07-15T22:07:06.795Z</time>
      </trkpt>
      <trkpt lat="66.74346" lon="13.55952">
        <ele>9.376213</ele>
        <time>2020-07-15T22:07:43.951Z</time>
      </trkpt>
      <trkpt lat="66.74337" lon="13.56374">
        <ele>13.993459</ele>
        <time>2020-07-15T22:08:29.900Z</time>
      </trkpt>
      <trkpt lat="66.74338" lon="13.56461">
        <ele>14.600112</ele>
        <time>2020-07-15T22:08:37.923Z</time>
      </trkpt>
      <trkpt lat="66.74339" lon="13.56506">
        <ele>14.91545</ele>
        <time>2020-07-15T22:08:41.896Z</time>
      </trkpt>
      <trkpt lat="66.74337" lon="13.56639">
        <ele>15.841694</ele>
        <time>2020-07-15T22:08:52.902Z</time>
      </trkpt>
      <trkpt lat="66.74321" lon="13.56827">
        <ele>15.777918</ele>
        <time>2020-07-15T22:09:06.664Z</time>
      </trkpt>
      <trkpt lat="66.74316" lon="13.56891">
        <ele>15.670491</ele>
        <time>2020-07-15T22:09:10.870Z</time>
      </trkpt>
      <trkpt lat="66.74315" lon="13.56937">
        <ele>15.595218</ele>
        <time>2020-07-15T22:09:14.675Z</time>
      </trkpt>
      <trkpt lat="66.74314" lon="13.56956">
        <ele>15.564319</ele>
        <time>2020-07-15T22:09:15.840Z</time>
      </trkpt>
      <trkpt lat="66.74322" lon="13.57072">
        <ele>15.372693</ele>
        <time>2020-07-15T22:09:23.211Z</time>
      </trkpt>
      <trkpt lat="66.74323" lon="13.57087">
        <ele>15.349055</ele>
        <time>2020-07-15T22:09:24.067Z</time>
      </trkpt>
      <trkpt lat="66.74328" lon="13.57121">
        <ele>15.317249</ele>
        <time>2020-07-15T22:09:26.258Z</time>
      </trkpt>
      <trkpt lat="66.74334" lon="13.57182">
        <ele>15.443571</ele>
        <time>2020-07-15T22:09:30.193Z</time>
      </trkpt>
      <trkpt lat="66.74337" lon="13.57203">
        <ele>15.488384</ele>
        <time>2020-07-15T22:09:31.615Z</time>
      </trkpt>
      <trkpt lat="66.74346" lon="13.57286">
        <ele>15.659362</ele>
        <time>2020-07-15T22:09:37.260Z</time>
      </trkpt>
      <trkpt lat="66.74367" lon="13.57472">
        <ele>16.046083</ele>
        <time>2020-07-15T22:09:52.769Z</time>
      </trkpt>
      <trkpt lat="66.74373" lon="13.57518">
        <ele>16.141887</ele>
        <time>2020-07-15T22:09:56.948Z</time>
      </trkpt>
      <trkpt lat="66.74379" lon="13.57518">
        <ele>16.174292</ele>
        <time>2020-07-15T22:09:58.717Z</time>
      </trkpt>
      <trkpt lat="66.74386" lon="13.57573">
        <ele>16.818712</ele>
        <time>2020-07-15T22:10:04.581Z</time>
      </trkpt>
      <trkpt lat="66.74391" lon="13.57623">
        <ele>17.637523</ele>
        <time>2020-07-15T22:10:10.045Z</time>
      </trkpt>
      <trkpt lat="66.74395" lon="13.57657">
        <ele>18.197296</ele>
        <time>2020-07-15T22:10:13.507Z</time>
      </trkpt>
      <trkpt lat="66.74398" lon="13.57655">
        <ele>18.306176</ele>
        <time>2020-07-15T22:10:14.436Z</time>
      </trkpt>
      <trkpt lat="66.74411" lon="13.57766">
        <ele>20.136854</ele>
        <time>2020-07-15T22:10:26.903Z</time>
      </trkpt>
      <trkpt lat="66.74412" lon="13.57777">
        <ele>20.323066</ele>
        <time>2020-07-15T22:10:28.391Z</time>
      </trkpt>
      <trkpt lat="66.74413" lon="13.57786">
        <ele>20.470985</ele>
        <time>2020-07-15T22:10:29.969Z</time>
      </trkpt>
      <trkpt lat="66.7446" lon="13.58187">
        <ele>29.264941</ele>
        <time>2020-07-15T22:11:30.454Z</time>
      </trkpt>
      <trkpt lat="66.74461" lon="13.58195">
        <ele>29.454884</ele>
        <time>2020-07-15T22:11:32.514Z</time>
      </trkpt>
      <trkpt lat="66.74462" lon="13.582">
        <ele>29.586317</ele>
        <time>2020-07-15T22:11:34.317Z</time>
      </trkpt>
      <trkpt lat="66.74479" lon="13.58312">
        <ele>32.599828</ele>
        <time>2020-07-15T22:11:51.573Z</time>
      </trkpt>
      <trkpt lat="66.74516" lon="13.58493">
        <ele>37.932903</ele>
        <time>2020-07-15T22:12:23.097Z</time>
      </trkpt>
      <trkpt lat="66.74634" lon="13.58926">
        <ele>52.571173</ele>
        <time>2020-07-15T22:13:46.518Z</time>
      </trkpt>
      <trkpt lat="66.74638" lon="13.58939">
        <ele>53.062146</ele>
        <time>2020-07-15T22:13:50.274Z</time>
      </trkpt>
      <trkpt lat="66.74636" lon="13.58942">
        <ele>53.248402</ele>
        <time>2020-07-15T22:13:51.126Z</time>
      </trkpt>
      <trkpt lat="66.74654" lon="13.59009">
        <ele>55.602272</ele>
        <time>2020-07-15T22:14:03.905Z</time>
      </trkpt>
      <trkpt lat="66.74684" lon="13.59114">
        <ele>59.380293</ele>
        <time>2020-07-15T22:14:25.462Z</time>
      </trkpt>
      <trkpt lat="66.74686" lon="13.59121">
        <ele>59.639827</ele>
        <time>2020-07-15T22:14:27.642Z</time>
      </trkpt>
      <trkpt lat="66.7474" lon="13.59308">
        <ele>66.065894</ele>
        <time>2020-07-15T22:15:06.360Z</time>
      </trkpt>
      <trkpt lat="66.74771" lon="13.59423">
        <ele>69.885715</ele>
        <time>2020-07-15T22:15:28.769Z</time>
      </trkpt>
      <trkpt lat="66.74804" lon="13.59533">
        <ele>73.332408</ele>
        <time>2020-07-15T22:15:48.570Z</time>
      </trkpt>
      <trkpt lat="66.74856" lon="13.59674">
        <ele>75.961177</ele>
        <time>2020-07-15T22:16:14.313Z</time>
      </trkpt>
      <trkpt lat="66.74888" lon="13.59749">
        <ele>77.466706</ele>
        <time>2020-07-15T22:16:25.955Z</time>
      </trkpt>
      <trkpt lat="66.74905" lon="13.59777">
        <ele>78.176429</ele>
        <time>2020-07-15T22:16:30.801Z</time>
      </trkpt>
      <trkpt lat="66.7494" lon="13.59839">
        <ele>79.201417</ele>
        <time>2020-07-15T22:16:40.270Z</time>
      </trkpt>
      <trkpt lat="66.75089" lon="13.60067">
        <ele>79.221854</ele>
        <time>2020-07-15T22:17:10.386Z</time>
      </trkpt>
      <trkpt lat="66.75116" lon="13.60125">
        <ele>78.957673</ele>
        <time>2020-07-15T22:17:15.931Z</time>
      </trkpt>
      <trkpt lat="66.75154" lon="13.60248">
        <ele>78.495122</ele>
        <time>2020-07-15T22:17:25.526Z</time>
      </trkpt>
      <trkpt lat="66.75188" lon="13.60414">
        <ele>77.938511</ele>
        <time>2020-07-15T22:17:37.193Z</time>
      </trkpt>
      <trkpt lat="66.75201" lon="13.6053">
        <ele>77.895115</ele>
        <time>2020-07-15T22:17:44.734Z</time>
      </trkpt>
      <trkpt lat="66.75323" lon="13.62147">
        <ele>77.803905</ele>
        <time>2020-07-15T22:19:41.288Z</time>
      </trkpt>
      <trkpt lat="66.75348" lon="13.62483">
        <ele>78.800058</ele>
        <time>2020-07-15T22:20:08.097Z</time>
      </trkpt>
      <trkpt lat="66.75374" lon="13.62816">
        <ele>80.595114</ele>
        <time>2020-07-15T22:20:37.485Z</time>
      </trkpt>
      <trkpt lat="66.75423" lon="13.63477">
        <ele>85.91326</ele>
        <time>2020-07-15T22:21:43.502Z</time>
      </trkpt>
      <trkpt lat="66.75436" lon="13.63639">
        <ele>86.749896</ele>
        <time>2020-07-15T22:21:59.579Z</time>
      </trkpt>
      <trkpt lat="66.75456" lon="13.63905">
        <ele>87.394539</ele>
        <time>2020-07-15T22:22:22.189Z</time>
      </trkpt>
      <trkpt lat="66.75497" lon="13.64663">
        <ele>82.239801</ele>
        <time>2020-07-15T22:23:05.609Z</time>
      </trkpt>
      <trkpt lat="66.75528" lon="13.65246">
        <ele>75.512905</ele>
        <time>2020-07-15T22:23:35.284Z</time>
      </trkpt>
      <trkpt lat="66.75534" lon="13.6537">
        <ele>74.279943</ele>
        <time>2020-07-15T22:23:42.154Z</time>
      </trkpt>
      <trkpt lat="66.75557" lon="13.65827">
        <ele>75.435656</ele>
        <time>2020-07-15T22:24:18.324Z</time>
      </trkpt>
      <trkpt lat="66.75582" lon="13.66283">
        <ele>81.680352</ele>
        <time>2020-07-15T22:25:13.198Z</time>
      </trkpt>
      <trkpt lat="66.75619" lon="13.66979">
        <ele>90.555693</ele>
        <time>2020-07-15T22:26:39.352Z</time>
      </trkpt>
      <trkpt lat="66.75621" lon="13.67068">
        <ele>91.185722</ele>
        <time>2020-07-15T22:26:45.029Z</time>
      </trkpt>
      <trkpt lat="66.75616" lon="13.67265">
        <ele>90.661505</ele>
        <time>2020-07-15T22:26:56.089Z</time>
      </trkpt>
      <trkpt lat="66.75611" lon="13.67317">
        <ele>90.055385</ele>
        <time>2020-07-15T22:26:58.776Z</time>
      </trkpt>
      <trkpt lat="66.75611" lon="13.67322">
        <ele>90.002597</ele>
        <time>2020-07-15T22:26:59.028Z</time>
      </trkpt>
      <trkpt lat="66.75602" lon="13.674">
        <ele>89.073638</ele>
        <time>2020-07-15T22:27:03.126Z</time>
      </trkpt>
      <trkpt lat="66.75592" lon="13.67475">
        <ele>88.169228</ele>
        <time>2020-07-15T22:27:07.162Z</time>
      </trkpt>
      <trkpt lat="66.75576" lon="13.67593">
        <ele>86.746943</ele>
        <time>2020-07-15T22:27:13.590Z</time>
      </trkpt>
      <trkpt lat="66.7557" lon="13.67697">
        <ele>85.908406</ele>
        <time>2020-07-15T22:27:19.054Z</time>
      </trkpt>
      <trkpt lat="66.75575" lon="13.6823">
        <ele>83.471002</ele>
        <time>2020-07-15T22:27:50.034Z</time>
      </trkpt>
      <trkpt lat="66.75574" lon="13.68283">
        <ele>83.570542</ele>
        <time>2020-07-15T22:27:53.394Z</time>
      </trkpt>
      <trkpt lat="66.75573" lon="13.68341">
        <ele>83.676889</ele>
        <time>2020-07-15T22:27:57.690Z</time>
      </trkpt>
      <trkpt lat="66.75566" lon="13.68421">
        <ele>83.82866</ele>
        <time>2020-07-15T22:28:04.776Z</time>
      </trkpt>
      <trkpt lat="66.75562" lon="13.68462">
        <ele>83.906424</ele>
        <time>2020-07-15T22:28:08.627Z</time>
      </trkpt>
      <trkpt lat="66.75555" lon="13.68529">
        <ele>84.684906</ele>
        <time>2020-07-15T22:28:16.451Z</time>
      </trkpt>
      <trkpt lat="66.75538" lon="13.68706">
        <ele>90.280384</ele>
        <time>2020-07-15T22:28:42.092Z</time>
      </trkpt>
      <trkpt lat="66.75536" lon="13.68726">
        <ele>90.92581</ele>
        <time>2020-07-15T22:28:45.520Z</time>
      </trkpt>
      <trkpt lat="66.75515" lon="13.68929">
        <ele>97.331417</ele>
        <time>2020-07-15T22:29:26.634Z</time>
      </trkpt>
      <trkpt lat="66.75436" lon="13.69405">
        <ele>120.935811</ele>
        <time>2020-07-15T22:31:26.292Z</time>
      </trkpt>
      <trkpt lat="66.75392" lon="13.69749">
        <ele>131.511565</ele>
        <time>2020-07-15T22:32:31.523Z</time>
      </trkpt>
      <trkpt lat="66.75381" lon="13.69914">
        <ele>129.76084</ele>
        <time>2020-07-15T22:32:41.933Z</time>
      </trkpt>
      <trkpt lat="66.75382" lon="13.69988">
        <ele>127.592909</ele>
        <time>2020-07-15T22:32:45.502Z</time>
      </trkpt>
      <trkpt lat="66.7539" lon="13.70134">
        <ele>123.274747</ele>
        <time>2020-07-15T22:32:51.898Z</time>
      </trkpt>
      <trkpt lat="66.75395" lon="13.70343">
        <ele>113.640454</ele>
        <time>2020-07-15T22:33:00.526Z</time>
      </trkpt>
      <trkpt lat="66.75378" lon="13.70652">
        <ele>92.119614</ele>
        <time>2020-07-15T22:33:13.171Z</time>
      </trkpt>
      <trkpt lat="66.75379" lon="13.70817">
        <ele>80.518254</ele>
        <time>2020-07-15T22:33:19.845Z</time>
      </trkpt>
      <trkpt lat="66.75386" lon="13.70978">
        <ele>69.026406</ele>
        <time>2020-07-15T22:33:26.395Z</time>
      </trkpt>
      <trkpt lat="66.75429" lon="13.7149">
        <ele>35.790836</ele>
        <time>2020-07-15T22:33:47.723Z</time>
      </trkpt>
      <trkpt lat="66.75432" lon="13.71797">
        <ele>22.78845</ele>
        <time>2020-07-15T22:34:00.811Z</time>
      </trkpt>
      <trkpt lat="66.75427" lon="13.71919">
        <ele>18.894623</ele>
        <time>2020-07-15T22:34:06.383Z</time>
      </trkpt>
      <trkpt lat="66.75418" lon="13.72058">
        <ele>14.409859</ele>
        <time>2020-07-15T22:34:13.138Z</time>
      </trkpt>
      <trkpt lat="66.75413" lon="13.72215">
        <ele>12.680629</ele>
        <time>2020-07-15T22:34:20.917Z</time>
      </trkpt>
      <trkpt lat="66.75417" lon="13.72462">
        <ele>9.989349</ele>
        <time>2020-07-15T22:34:34.785Z</time>
      </trkpt>
      <trkpt lat="66.75418" lon="13.72504">
        <ele>9.537824</ele>
        <time>2020-07-15T22:34:37.147Z</time>
      </trkpt>
      <trkpt lat="66.7542" lon="13.72585">
        <ele>9.232269</ele>
        <time>2020-07-15T22:34:42.034Z</time>
      </trkpt>
      <trkpt lat="66.75421" lon="13.72698">
        <ele>8.928323</ele>
        <time>2020-07-15T22:34:49.016Z</time>
      </trkpt>
      <trkpt lat="66.75416" lon="13.72778">
        <ele>8.711978</ele>
        <time>2020-07-15T22:34:54.113Z</time>
      </trkpt>
      <trkpt lat="66.75404" lon="13.72856">
        <ele>8.487025</ele>
        <time>2020-07-15T22:34:59.623Z</time>
      </trkpt>
      <trkpt lat="66.75365" lon="13.72996">
        <ele>8.244576</ele>
        <time>2020-07-15T22:35:11.815Z</time>
      </trkpt>
      <trkpt lat="66.75349" lon="13.7307">
        <ele>8.301122</ele>
        <time>2020-07-15T22:35:17.907Z</time>
      </trkpt>
      <trkpt lat="66.75337" lon="13.73148">
        <ele>8.357219</ele>
        <time>2020-07-15T22:35:23.931Z</time>
      </trkpt>
      <trkpt lat="66.75332" lon="13.73211">
        <ele>8.400159</ele>
        <time>2020-07-15T22:35:28.768Z</time>
      </trkpt>
      <trkpt lat="66.7533" lon="13.73225">
        <ele>8.409925</ele>
        <time>2020-07-15T22:35:29.701Z</time>
      </trkpt>
      <trkpt lat="66.75327" lon="13.73309">
        <ele>8.466266</ele>
        <time>2020-07-15T22:35:35.964Z</time>
      </trkpt>
      <trkpt lat="66.75327" lon="13.7333">
        <ele>8.480629</ele>
        <time>2020-07-15T22:35:37.403Z</time>
      </trkpt>
      <trkpt lat="66.75325" lon="13.73425">
        <ele>8.772022</ele>
        <time>2020-07-15T22:35:44.508Z</time>
      </trkpt>
      <trkpt lat="66.75322" lon="13.7356">
        <ele>9.413213</ele>
        <time>2020-07-15T22:35:54.965Z</time>
      </trkpt>
      <trkpt lat="66.75315" lon="13.73882">
        <ele>11.288531</ele>
        <time>2020-07-15T22:36:24.149Z</time>
      </trkpt>
      <trkpt lat="66.75311" lon="13.7407">
        <ele>13.318212</ele>
        <time>2020-07-15T22:36:45.348Z</time>
      </trkpt>
      <trkpt lat="66.75306" lon="13.74316">
        <ele>15.537699</ele>
        <time>2020-07-15T22:37:12.694Z</time>
      </trkpt>
      <trkpt lat="66.75302" lon="13.74512">
        <ele>15.349047</ele>
        <time>2020-07-15T22:37:28.792Z</time>
      </trkpt>
      <trkpt lat="66.75303" lon="13.74598">
        <ele>15.265809</ele>
        <time>2020-07-15T22:37:34.161Z</time>
      </trkpt>
      <trkpt lat="66.7531" lon="13.74681">
        <ele>15.184628</ele>
        <time>2020-07-15T22:37:38.891Z</time>
      </trkpt>
      <trkpt lat="66.75312" lon="13.74698">
        <ele>15.167364</ele>
        <time>2020-07-15T22:37:39.800Z</time>
      </trkpt>
      <trkpt lat="66.75319" lon="13.74738">
        <ele>15.009578</ele>
        <time>2020-07-15T22:37:41.966Z</time>
      </trkpt>
      <trkpt lat="66.75326" lon="13.74782">
        <ele>14.377253</ele>
        <time>2020-07-15T22:37:44.531Z</time>
      </trkpt>
      <trkpt lat="66.75331" lon="13.74806">
        <ele>14.006731</ele>
        <time>2020-07-15T22:37:45.864Z</time>
      </trkpt>
      <trkpt lat="66.75354" lon="13.74885">
        <ele>12.733845</ele>
        <time>2020-07-15T22:37:50.660Z</time>
      </trkpt>
      <trkpt lat="66.75422" lon="13.75076">
        <ele>9.35521</ele>
        <time>2020-07-15T22:38:03.628Z</time>
      </trkpt>
      <trkpt lat="66.75438" lon="13.75131">
        <ele>8.874636</ele>
        <time>2020-07-15T22:38:07.425Z</time>
      </trkpt>
      <trkpt lat="66.75445" lon="13.75153">
        <ele>8.740221</ele>
        <time>2020-07-15T22:38:09.021Z</time>
      </trkpt>
      <trkpt lat="66.75453" lon="13.75192">
        <ele>8.521093</ele>
        <time>2020-07-15T22:38:11.574Z</time>
      </trkpt>
      <trkpt lat="66.75476" lon="13.75334">
        <ele>7.752718</ele>
        <time>2020-07-15T22:38:20.889Z</time>
      </trkpt>
      <trkpt lat="66.75506" lon="13.75609">
        <ele>6.39295</ele>
        <time>2020-07-15T22:38:39.719Z</time>
      </trkpt>
      <trkpt lat="66.75529" lon="13.75811">
        <ele>5.472279</ele>
        <time>2020-07-15T22:38:52.565Z</time>
      </trkpt>
      <trkpt lat="66.75547" lon="13.7592">
        <ele>4.953811</ele>
        <time>2020-07-15T22:38:59.348Z</time>
      </trkpt>
      <trkpt lat="66.75566" lon="13.75985">
        <ele>4.441643</ele>
        <time>2020-07-15T22:39:03.889Z</time>
      </trkpt>
      <trkpt lat="66.75582" lon="13.76031">
        <ele>4.014157</ele>
        <time>2020-07-15T22:39:07.282Z</time>
      </trkpt>
      <trkpt lat="66.75592" lon="13.76053">
        <ele>3.776382</ele>
        <time>2020-07-15T22:39:09.121Z</time>
      </trkpt>
      <trkpt lat="66.75596" lon="13.76063">
        <ele>3.669923</ele>
        <time>2020-07-15T22:39:09.981Z</time>
      </trkpt>
      <trkpt lat="66.75618" lon="13.76102">
        <ele>3.197343</ele>
        <time>2020-07-15T22:39:13.667Z</time>
      </trkpt>
      <trkpt lat="66.75638" lon="13.76131">
        <ele>2.788341</ele>
        <time>2020-07-15T22:39:16.894Z</time>
      </trkpt>
      <trkpt lat="66.7569" lon="13.76171">
        <ele>1.816011</ele>
        <time>2020-07-15T22:39:24.790Z</time>
      </trkpt>
      <trkpt lat="66.75705" lon="13.76176">
        <ele>1.638244</ele>
        <time>2020-07-15T22:39:26.958Z</time>
      </trkpt>
      <trkpt lat="66.75713" lon="13.76178">
        <ele>1.594577</ele>
        <time>2020-07-15T22:39:28.236Z</time>
      </trkpt>
      <trkpt lat="66.7574" lon="13.76176">
        <ele>1.448836</ele>
        <time>2020-07-15T22:39:32.459Z</time>
      </trkpt>
      <trkpt lat="66.75767" lon="13.7617">
        <ele>1.304611</ele>
        <time>2020-07-15T22:39:37.078Z</time>
      </trkpt>
      <trkpt lat="66.75796" lon="13.76155">
        <ele>1.147232</ele>
        <time>2020-07-15T22:39:42.110Z</time>
      </trkpt>
      <trkpt lat="66.75832" lon="13.76137">
        <ele>0.957493</ele>
        <time>2020-07-15T22:39:48.186Z</time>
      </trkpt>
      <trkpt lat="66.75853" lon="13.7612">
        <ele>0.836706</ele>
        <time>2020-07-15T22:39:51.969Z</time>
      </trkpt>
      <trkpt lat="66.75868" lon="13.76103">
        <ele>0.750316</ele>
        <time>2020-07-15T22:39:54.962Z</time>
      </trkpt>
      <trkpt lat="66.75883" lon="13.76079">
        <ele>0.707515</ele>
        <time>2020-07-15T22:39:58.144Z</time>
      </trkpt>
      <trkpt lat="66.75894" lon="13.76058">
        <ele>0.694435</ele>
        <time>2020-07-15T22:40:00.576Z</time>
      </trkpt>
      <trkpt lat="66.75908" lon="13.7602">
        <ele>0.674456</ele>
        <time>2020-07-15T22:40:04.307Z</time>
      </trkpt>
      <trkpt lat="66.75914" lon="13.76001">
        <ele>0.664679</ele>
        <time>2020-07-15T22:40:06.022Z</time>
      </trkpt>
      <trkpt lat="66.7593" lon="13.7592">
        <ele>0.62951</ele>
        <time>2020-07-15T22:40:12.524Z</time>
      </trkpt>
      <trkpt lat="66.75936" lon="13.75852">
        <ele>0.602898</ele>
        <time>2020-07-15T22:40:17.434Z</time>
      </trkpt>
      <trkpt lat="66.75953" lon="13.75239">
        <ele>0.164321</ele>
        <time>2020-07-15T22:40:59.010Z</time>
      </trkpt>
      <trkpt lat="66.75991" lon="13.74451">
        <ele>0.176078</ele>
        <time>2020-07-15T22:41:55.097Z</time>
      </trkpt>
      <trkpt lat="66.76031" lon="13.73643">
        <ele>0.113947</ele>
        <time>2020-07-15T22:42:52.070Z</time>
      </trkpt>
      <trkpt lat="66.76055" lon="13.73146">
        <ele>0.065892</ele>
        <time>2020-07-15T22:43:27.454Z</time>
      </trkpt>
      <trkpt lat="66.76072" lon="13.7285">
        <ele>0.032861</ele>
        <time>2020-07-15T22:43:48.407Z</time>
      </trkpt>
      <trkpt lat="66.76081" lon="13.72654">
        <ele>0.012785</ele>
        <time>2020-07-15T22:44:02.221Z</time>
      </trkpt>
      <trkpt lat="66.76121" lon="13.71825">
        <ele>13</ele>
        <time>2020-07-15T22:45:01.029Z</time>
      </trkpt>
      <trkpt lat="66.76123" lon="13.71577">
        <ele>10.7</ele>
        <time>2020-07-15T22:45:18.556Z</time>
      </trkpt>
      <trkpt lat="66.76123" lon="13.71432">
        <ele>10</ele>
        <time>2020-07-15T22:45:28.756Z</time>
      </trkpt>
      <trkpt lat="66.76123" lon="13.7111">
        <ele>10.7</ele>
        <time>2020-07-15T22:45:51.439Z</time>
      </trkpt>
      <trkpt lat="66.76124" lon="13.7101">
        <ele>10.5</ele>
        <time>2020-07-15T22:45:58.505Z</time>
      </trkpt>
      <trkpt lat="66.76128" lon="13.70808">
        <ele>10.5</ele>
        <time>2020-07-15T22:46:12.751Z</time>
      </trkpt>
      <trkpt lat="66.76143" lon="13.7061">
        <ele>0.000428</ele>
        <time>2020-07-15T22:46:26.940Z</time>
      </trkpt>
      <trkpt lat="66.76157" lon="13.70493">
        <ele>0.000929</ele>
        <time>2020-07-15T22:46:35.592Z</time>
      </trkpt>
      <trkpt lat="66.76185" lon="13.70326">
        <ele>0.00167</ele>
        <time>2020-07-15T22:46:48.409Z</time>
      </trkpt>
      <trkpt lat="66.7622" lon="13.70182">
        <ele>0.014985</ele>
        <time>2020-07-15T22:47:00.415Z</time>
      </trkpt>
      <trkpt lat="66.76393" lon="13.69693">
        <ele>0.142571</ele>
        <time>2020-07-15T22:47:47.034Z</time>
      </trkpt>
      <trkpt lat="66.76415" lon="13.69579">
        <ele>0.178504</ele>
        <time>2020-07-15T22:47:55.981Z</time>
      </trkpt>
      <trkpt lat="66.76433" lon="13.69219">
        <ele>0.320588</ele>
        <time>2020-07-15T22:48:22.039Z</time>
      </trkpt>
      <trkpt lat="66.7645" lon="13.69038">
        <ele>0.383778</ele>
        <time>2020-07-15T22:48:35.494Z</time>
      </trkpt>
      <trkpt lat="66.76471" lon="13.68883">
        <ele>0.429447</ele>
        <time>2020-07-15T22:48:47.309Z</time>
      </trkpt>
      <trkpt lat="66.76481" lon="13.68755">
        <ele>0.465739</ele>
        <time>2020-07-15T22:48:56.618Z</time>
      </trkpt>
      <trkpt lat="66.7648" lon="13.68622">
        <ele>0.455358</ele>
        <time>2020-07-15T22:49:05.899Z</time>
      </trkpt>
      <trkpt lat="66.76468" lon="13.68384">
        <ele>0.326739</ele>
        <time>2020-07-15T22:49:22.348Z</time>
      </trkpt>
      <trkpt lat="66.76466" lon="13.68093">
        <ele>0.180214</ele>
        <time>2020-07-15T22:49:42.251Z</time>
      </trkpt>
      <trkpt lat="66.76486" lon="13.67645">
        <ele>0.022218</ele>
        <time>2020-07-15T22:50:13.571Z</time>
      </trkpt>
      <trkpt lat="66.76494" lon="13.67571">
        <ele>0.01707</ele>
        <time>2020-07-15T22:50:18.907Z</time>
      </trkpt>
      <trkpt lat="66.76504" lon="13.67505">
        <ele>0.012272</ele>
        <time>2020-07-15T22:50:23.881Z</time>
      </trkpt>
      <trkpt lat="66.76572" lon="13.67205">
        <ele>5.8</ele>
        <time>2020-07-15T22:50:48.277Z</time>
      </trkpt>
      <trkpt lat="66.76575" lon="13.67187">
        <ele>5.9</ele>
        <time>2020-07-15T22:50:49.685Z</time>
      </trkpt>
      <trkpt lat="66.76587" lon="13.67118">
        <ele>5.7</ele>
        <time>2020-07-15T22:50:54.969Z</time>
      </trkpt>
      <trkpt lat="66.766" lon="13.67018">
        <ele>6</ele>
        <time>2020-07-15T22:51:02.364Z</time>
      </trkpt>
      <trkpt lat="66.76625" lon="13.66843">
        <ele>7.2</ele>
        <time>2020-07-15T22:51:15.454Z</time>
      </trkpt>
      <trkpt lat="66.76632" lon="13.66806">
        <ele>6.3</ele>
        <time>2020-07-15T22:51:18.391Z</time>
      </trkpt>
      <trkpt lat="66.7664" lon="13.66773">
        <ele>7</ele>
        <time>2020-07-15T22:51:21.116Z</time>
      </trkpt>
      <trkpt lat="66.76651" lon="13.66739">
        <ele>7.1</ele>
        <time>2020-07-15T22:51:24.219Z</time>
      </trkpt>
      <trkpt lat="66.76692" lon="13.66643">
        <ele>5.2</ele>
        <time>2020-07-15T22:51:34.097Z</time>
      </trkpt>
      <trkpt lat="66.76702" lon="13.6662">
        <ele>4.8</ele>
        <time>2020-07-15T22:51:36.602Z</time>
      </trkpt>
      <trkpt lat="66.76707" lon="13.66608">
        <ele>4.8</ele>
        <time>2020-07-15T22:51:37.836Z</time>
      </trkpt>
      <trkpt lat="66.76724" lon="13.66564">
        <ele>6</ele>
        <time>2020-07-15T22:51:42.137Z</time>
      </trkpt>
      <trkpt lat="66.76801" lon="13.66269">
        <ele>8.6</ele>
        <time>2020-07-15T22:52:07.008Z</time>
      </trkpt>
      <trkpt lat="66.7682" lon="13.6619">
        <ele>0.001324</ele>
        <time>2020-07-15T22:52:13.533Z</time>
      </trkpt>
      <trkpt lat="66.7683" lon="13.66135">
        <ele>0.011529</ele>
        <time>2020-07-15T22:52:17.867Z</time>
      </trkpt>
      <trkpt lat="66.76841" lon="13.66065">
        <ele>0.024041</ele>
        <time>2020-07-15T22:52:23.169Z</time>
      </trkpt>
      <trkpt lat="66.76858" lon="13.65915">
        <ele>0.050173</ele>
        <time>2020-07-15T22:52:34.289Z</time>
      </trkpt>
      <trkpt lat="66.76866" lon="13.65845">
        <ele>0.062307</ele>
        <time>2020-07-15T22:52:39.488Z</time>
      </trkpt>
      <trkpt lat="66.76876" lon="13.65735">
        <ele>0.077572</ele>
        <time>2020-07-15T22:52:47.478Z</time>
      </trkpt>
      <trkpt lat="66.7688" lon="13.65598">
        <ele>0.084832</ele>
        <time>2020-07-15T22:52:57.295Z</time>
      </trkpt>
      <trkpt lat="66.76887" lon="13.65494">
        <ele>0.090392</ele>
        <time>2020-07-15T22:53:04.799Z</time>
      </trkpt>
      <trkpt lat="66.76895" lon="13.65392">
        <ele>0.095867</ele>
        <time>2020-07-15T22:53:12.155Z</time>
      </trkpt>
      <trkpt lat="66.76917" lon="13.65086">
        <ele>0.110326</ele>
        <time>2020-07-15T22:53:33.939Z</time>
      </trkpt>
      <trkpt lat="66.76924" lon="13.64784">
        <ele>0.137418</ele>
        <time>2020-07-15T22:53:55.365Z</time>
      </trkpt>
      <trkpt lat="66.76928" lon="13.64672">
        <ele>0.161751</ele>
        <time>2020-07-15T22:54:03.385Z</time>
      </trkpt>
      <trkpt lat="66.76935" lon="13.64554">
        <ele>0.187406</ele>
        <time>2020-07-15T22:54:11.887Z</time>
      </trkpt>
      <trkpt lat="66.77005" lon="13.63764">
        <ele>0.232541</ele>
        <time>2020-07-15T22:55:09.166Z</time>
      </trkpt>
      <trkpt lat="66.77025" lon="13.63578">
        <ele>0.194233</ele>
        <time>2020-07-15T22:55:22.494Z</time>
      </trkpt>
      <trkpt lat="66.77054" lon="13.6333">
        <ele>0.12822</ele>
        <time>2020-07-15T22:55:40.342Z</time>
      </trkpt>
      <trkpt lat="66.77079" lon="13.6312">
        <ele>0.068762</ele>
        <time>2020-07-15T22:55:55.726Z</time>
      </trkpt>
      <trkpt lat="66.77091" lon="13.62967">
        <ele>0.043736</ele>
        <time>2020-07-15T22:56:06.650Z</time>
      </trkpt>
      <trkpt lat="66.77102" lon="13.62734">
        <ele>0.012978</ele>
        <time>2020-07-15T22:56:23.062Z</time>
      </trkpt>
      <trkpt lat="66.77106" lon="13.62676">
        <ele>0.005214</ele>
        <time>2020-07-15T22:56:27.214Z</time>
      </trkpt>
      <trkpt lat="66.77114" lon="13.62565">
        <ele>13.7</ele>
        <time>2020-07-15T22:56:35.177Z</time>
      </trkpt>
      <trkpt lat="66.77165" lon="13.62091">
        <ele>7.9</ele>
        <time>2020-07-15T22:57:09.724Z</time>
      </trkpt>
      <trkpt lat="66.77166" lon="13.61972">
        <ele>7.9</ele>
        <time>2020-07-15T22:57:18.163Z</time>
      </trkpt>
      <trkpt lat="66.77157" lon="13.61801">
        <ele>7.6</ele>
        <time>2020-07-15T22:57:30.301Z</time>
      </trkpt>
      <trkpt lat="66.77147" lon="13.61631">
        <ele>7</ele>
        <time>2020-07-15T22:57:42.410Z</time>
      </trkpt>
      <trkpt lat="66.77124" lon="13.61159">
        <ele>8.5</ele>
        <time>2020-07-15T22:58:15.876Z</time>
      </trkpt>
      <trkpt lat="66.77115" lon="13.60992">
        <ele>9.8</ele>
        <time>2020-07-15T22:58:27.737Z</time>
      </trkpt>
      <trkpt lat="66.77116" lon="13.60531">
        <ele>7.9</ele>
        <time>2020-07-15T22:59:00.240Z</time>
      </trkpt>
      <trkpt lat="66.77118" lon="13.6033">
        <ele>6.2</ele>
        <time>2020-07-15T22:59:14.408Z</time>
      </trkpt>
      <trkpt lat="66.77118" lon="13.60201">
        <ele>5.6</ele>
        <time>2020-07-15T22:59:23.506Z</time>
      </trkpt>
      <trkpt lat="66.77106" lon="13.59868">
        <ele>6.2</ele>
        <time>2020-07-15T22:59:47.025Z</time>
      </trkpt>
      <trkpt lat="66.77098" lon="13.5974">
        <ele>5.7</ele>
        <time>2020-07-15T22:59:56.170Z</time>
      </trkpt>
      <trkpt lat="66.77096" lon="13.59721">
        <ele>5.3</ele>
        <time>2020-07-15T22:59:57.589Z</time>
      </trkpt>
      <trkpt lat="66.77089" lon="13.59649">
        <ele>5.9</ele>
        <time>2020-07-15T23:00:02.792Z</time>
      </trkpt>
      <trkpt lat="66.77062" lon="13.59417">
        <ele>5.1</ele>
        <time>2020-07-15T23:00:19.820Z</time>
      </trkpt>
      <trkpt lat="66.7705" lon="13.59301">
        <ele>5</ele>
        <time>2020-07-15T23:00:28.288Z</time>
      </trkpt>
      <trkpt lat="66.77021" lon="13.59048">
        <ele>5.5</ele>
        <time>2020-07-15T23:00:46.796Z</time>
      </trkpt>
      <trkpt lat="66.77016" lon="13.58995">
        <ele>9.3E-5</ele>
        <time>2020-07-15T23:00:50.676Z</time>
      </trkpt>
      <trkpt lat="66.76962" lon="13.58512">
        <ele>0.048589</ele>
        <time>2020-07-15T23:01:26.081Z</time>
      </trkpt>
      <trkpt lat="66.76958" lon="13.58415">
        <ele>0.095733</ele>
        <time>2020-07-15T23:01:32.966Z</time>
      </trkpt>
      <trkpt lat="66.76952" lon="13.58274">
        <ele>0.164356</ele>
        <time>2020-07-15T23:01:43.054Z</time>
      </trkpt>
      <trkpt lat="66.76935" lon="13.57966">
        <ele>0.826559</ele>
        <time>2020-07-15T23:02:06.154Z</time>
      </trkpt>
      <trkpt lat="66.76922" lon="13.57713">
        <ele>1.627756</ele>
        <time>2020-07-15T23:02:27.105Z</time>
      </trkpt>
      <trkpt lat="66.7691" lon="13.57462">
        <ele>3.749095</ele>
        <time>2020-07-15T23:02:51.198Z</time>
      </trkpt>
      <trkpt lat="66.76879" lon="13.56907">
        <ele>8.694829</ele>
        <time>2020-07-15T23:03:49.785Z</time>
      </trkpt>
      <trkpt lat="66.76851" lon="13.5635">
        <ele>11.801207</ele>
        <time>2020-07-15T23:04:37.112Z</time>
      </trkpt>
      <trkpt lat="66.76824" lon="13.55825">
        <ele>15.356017</ele>
        <time>2020-07-15T23:05:24.682Z</time>
      </trkpt>
      <trkpt lat="66.76824" lon="13.55662">
        <ele>16.985806</ele>
        <time>2020-07-15T23:05:42.401Z</time>
      </trkpt>
      <trkpt lat="66.76834" lon="13.55408">
        <ele>19.35729</ele>
        <time>2020-07-15T23:06:09.432Z</time>
      </trkpt>
      <trkpt lat="66.76836" lon="13.55353">
        <ele>19.601479</ele>
        <time>2020-07-15T23:06:14.951Z</time>
      </trkpt>
      <trkpt lat="66.76837" lon="13.5534">
        <ele>19.658837</ele>
        <time>2020-07-15T23:06:16.261Z</time>
      </trkpt>
      <trkpt lat="66.76841" lon="13.55245">
        <ele>20.078577</ele>
        <time>2020-07-15T23:06:25.309Z</time>
      </trkpt>
      <trkpt lat="66.76855" lon="13.55108">
        <ele>20.697559</ele>
        <time>2020-07-15T23:06:37.056Z</time>
      </trkpt>
      <trkpt lat="66.76903" lon="13.54779">
        <ele>20.283519</ele>
        <time>2020-07-15T23:06:59.517Z</time>
      </trkpt>
      <trkpt lat="66.76935" lon="13.54559">
        <ele>19.302252</ele>
        <time>2020-07-15T23:07:13.334Z</time>
      </trkpt>
      <trkpt lat="66.76947" lon="13.54508">
        <ele>18.745554</ele>
        <time>2020-07-15T23:07:16.656Z</time>
      </trkpt>
      <trkpt lat="66.76968" lon="13.54489">
        <ele>18.241574</ele>
        <time>2020-07-15T23:07:19.774Z</time>
      </trkpt>
      <trkpt lat="66.77071" lon="13.54563">
        <ele>15.745965</ele>
        <time>2020-07-15T23:07:34.714Z</time>
      </trkpt>
      <trkpt lat="66.77084" lon="13.54577">
        <ele>15.425646</ele>
        <time>2020-07-15T23:07:36.455Z</time>
      </trkpt>
      <trkpt lat="66.77087" lon="13.54581">
        <ele>15.343208</ele>
        <time>2020-07-15T23:07:36.897Z</time>
      </trkpt>
      <trkpt lat="66.77099" lon="13.54601">
        <ele>14.864876</ele>
        <time>2020-07-15T23:07:38.766Z</time>
      </trkpt>
      <trkpt lat="66.77143" lon="13.54707">
        <ele>12.512179</ele>
        <time>2020-07-15T23:07:46.515Z</time>
      </trkpt>
      <trkpt lat="66.77146" lon="13.54716">
        <ele>12.31597</ele>
        <time>2020-07-15T23:07:47.141Z</time>
      </trkpt>
      <trkpt lat="66.77185" lon="13.54809">
        <ele>10.233018</ele>
        <time>2020-07-15T23:07:53.926Z</time>
      </trkpt>
      <trkpt lat="66.77197" lon="13.54833">
        <ele>9.633398</ele>
        <time>2020-07-15T23:07:55.724Z</time>
      </trkpt>
      <trkpt lat="66.77219" lon="13.54847">
        <ele>8.758539</ele>
        <time>2020-07-15T23:07:58.615Z</time>
      </trkpt>
      <trkpt lat="66.7724" lon="13.54831">
        <ele>7.942393</ele>
        <time>2020-07-15T23:08:01.287Z</time>
      </trkpt>
      <trkpt lat="66.7727" lon="13.54704">
        <ele>5.890703</ele>
        <time>2020-07-15T23:08:08.633Z</time>
      </trkpt>
      <trkpt lat="66.77296" lon="13.54605">
        <ele>4.251663</ele>
        <time>2020-07-15T23:08:14.485Z</time>
      </trkpt>
      <trkpt lat="66.77301" lon="13.54583">
        <ele>3.896278</ele>
        <time>2020-07-15T23:08:15.844Z</time>
      </trkpt>
      <trkpt lat="66.77319" lon="13.54522">
        <ele>2.845325</ele>
        <time>2020-07-15T23:08:19.867Z</time>
      </trkpt>
      <trkpt lat="66.77343" lon="13.54445">
        <ele>1.868405</ele>
        <time>2020-07-15T23:08:25.172Z</time>
      </trkpt>
      <trkpt lat="66.77368" lon="13.54372">
        <ele>1.668254</ele>
        <time>2020-07-15T23:08:30.688Z</time>
      </trkpt>
      <trkpt lat="66.77439" lon="13.54163">
        <ele>1.103138</ele>
        <time>2020-07-15T23:08:49.928Z</time>
      </trkpt>
      <trkpt lat="66.77466" lon="13.54082">
        <ele>1.337906</ele>
        <time>2020-07-15T23:08:58.271Z</time>
      </trkpt>
      <trkpt lat="66.77508" lon="13.53967">
        <ele>2.300441</ele>
        <time>2020-07-15T23:09:11.538Z</time>
      </trkpt>
      <trkpt lat="66.77532" lon="13.53897">
        <ele>2.871874</ele>
        <time>2020-07-15T23:09:20.073Z</time>
      </trkpt>
      <trkpt lat="66.77554" lon="13.53819">
        <ele>3.464287</ele>
        <time>2020-07-15T23:09:29.181Z</time>
      </trkpt>
      <trkpt lat="66.77587" lon="13.53696">
        <ele>4.770405</ele>
        <time>2020-07-15T23:09:45.181Z</time>
      </trkpt>
      <trkpt lat="66.77597" lon="13.53663">
        <ele>5.198578</ele>
        <time>2020-07-15T23:09:49.678Z</time>
      </trkpt>
      <trkpt lat="66.77608" lon="13.53636">
        <ele>5.605142</ele>
        <time>2020-07-15T23:09:54.373Z</time>
      </trkpt>
      <trkpt lat="66.77631" lon="13.53601">
        <ele>6.295641</ele>
        <time>2020-07-15T23:10:01.463Z</time>
      </trkpt>
      <trkpt lat="66.77652" lon="13.53584">
        <ele>6.884464</ele>
        <time>2020-07-15T23:10:07.151Z</time>
      </trkpt>
      <trkpt lat="66.77659" lon="13.53582">
        <ele>7.058348</ele>
        <time>2020-07-15T23:10:09.017Z</time>
      </trkpt>
      <trkpt lat="66.77667" lon="13.53579">
        <ele>7.278469</ele>
        <time>2020-07-15T23:10:11.665Z</time>
      </trkpt>
      <trkpt lat="66.777" lon="13.5359">
        <ele>8.132725</ele>
        <time>2020-07-15T23:10:19.865Z</time>
      </trkpt>
      <trkpt lat="66.77719" lon="13.5361">
        <ele>8.599951</ele>
        <time>2020-07-15T23:10:24.927Z</time>
      </trkpt>
      <trkpt lat="66.77734" lon="13.53624">
        <ele>8.794011</ele>
        <time>2020-07-15T23:10:28.720Z</time>
      </trkpt>
      <trkpt lat="66.77747" lon="13.53635">
        <ele>8.966792</ele>
        <time>2020-07-15T23:10:31.994Z</time>
      </trkpt>
      <trkpt lat="66.77757" lon="13.53638">
        <ele>9.102875</ele>
        <time>2020-07-15T23:10:33.906Z</time>
      </trkpt>
      <trkpt lat="66.77777" lon="13.5363">
        <ele>9.355534</ele>
        <time>2020-07-15T23:10:38.572Z</time>
      </trkpt>
      <trkpt lat="66.77807" lon="13.53597">
        <ele>9.764327</ele>
        <time>2020-07-15T23:10:45.566Z</time>
      </trkpt>
      <trkpt lat="66.77866" lon="13.53521">
        <ele>10.601411</ele>
        <time>2020-07-15T23:10:58.797Z</time>
      </trkpt>
      <trkpt lat="66.77869" lon="13.53517">
        <ele>10.645</ele>
        <time>2020-07-15T23:10:59.520Z</time>
      </trkpt>
      <trkpt lat="66.77869" lon="13.53517">
        <ele>10.645</ele>
        <time>2020-07-15T23:10:59.523Z</time>
      </trkpt>
      <trkpt lat="66.77919" lon="13.53467">
        <ele>11.588238</ele>
        <time>2020-07-15T23:11:10.764Z</time>
      </trkpt>
      <trkpt lat="66.77964" lon="13.53426">
        <ele>12.472262</ele>
        <time>2020-07-15T23:11:21.765Z</time>
      </trkpt>
      <trkpt lat="66.78002" lon="13.53391">
        <ele>13.219666</ele>
        <time>2020-07-15T23:11:31.768Z</time>
      </trkpt>
      <trkpt lat="66.78039" lon="13.53357">
        <ele>13.959564</ele>
        <time>2020-07-15T23:11:42.216Z</time>
      </trkpt>
      <trkpt lat="66.78038" lon="13.53347">
        <ele>14.034055</ele>
        <time>2020-07-15T23:11:43.380Z</time>
      </trkpt>
      <trkpt lat="66.78046" lon="13.5334">
        <ele>14.196852</ele>
        <time>2020-07-15T23:11:46.404Z</time>
      </trkpt>
      <trkpt lat="66.78073" lon="13.53315">
        <ele>14.775514</ele>
        <time>2020-07-15T23:11:53.644Z</time>
      </trkpt>
      <trkpt lat="66.78075" lon="13.53313">
        <ele>14.813088</ele>
        <time>2020-07-15T23:11:54.443Z</time>
      </trkpt>
      <trkpt lat="66.7808" lon="13.53309">
        <ele>14.906042</ele>
        <time>2020-07-15T23:11:56.194Z</time>
      </trkpt>
      <trkpt lat="66.78285" lon="13.53141">
        <ele>18.015399</ele>
        <time>2020-07-15T23:12:45.916Z</time>
      </trkpt>
      <trkpt lat="66.78298" lon="13.53131">
        <ele>18.077055</ele>
        <time>2020-07-15T23:12:48.698Z</time>
      </trkpt>
      <trkpt lat="66.78304" lon="13.53126">
        <ele>18.106723</ele>
        <time>2020-07-15T23:12:50.006Z</time>
      </trkpt>
      <trkpt lat="66.78386" lon="13.53068">
        <ele>18.481412</ele>
        <time>2020-07-15T23:13:04.806Z</time>
      </trkpt>
      <trkpt lat="66.78386" lon="13.53073">
        <ele>18.436344</ele>
        <time>2020-07-15T23:13:05.185Z</time>
      </trkpt>
      <trkpt lat="66.78391" lon="13.5307">
        <ele>18.323093</ele>
        <time>2020-07-15T23:13:05.995Z</time>
      </trkpt>
      <trkpt lat="66.78392" lon="13.53078">
        <ele>18.240621</ele>
        <time>2020-07-15T23:13:06.784Z</time>
      </trkpt>
      <trkpt lat="66.78397" lon="13.53075">
        <ele>18.134038</ele>
        <time>2020-07-15T23:13:07.361Z</time>
      </trkpt>
      <trkpt lat="66.7848" lon="13.53009">
        <ele>16.116263</ele>
        <time>2020-07-15T23:13:19.418Z</time>
      </trkpt>
      <trkpt lat="66.78484" lon="13.53003">
        <ele>16.00384</ele>
        <time>2020-07-15T23:13:20.196Z</time>
      </trkpt>
      <trkpt lat="66.78485" lon="13.53001">
        <ele>15.968127</ele>
        <time>2020-07-15T23:13:20.429Z</time>
      </trkpt>
      <trkpt lat="66.78492" lon="13.52984">
        <ele>15.742945</ele>
        <time>2020-07-15T23:13:21.870Z</time>
      </trkpt>
      <trkpt lat="66.78494" lon="13.52978">
        <ele>15.677657</ele>
        <time>2020-07-15T23:13:22.319Z</time>
      </trkpt>
      <trkpt lat="66.78496" lon="13.5297">
        <ele>15.587213</ele>
        <time>2020-07-15T23:13:22.735Z</time>
      </trkpt>
      <trkpt lat="66.78512" lon="13.52881">
        <ele>14.695519</ele>
        <time>2020-07-15T23:13:27.867Z</time>
      </trkpt>
      <trkpt lat="66.78586" lon="13.52211">
        <ele>6.418765</ele>
        <time>2020-07-15T23:14:03.542Z</time>
      </trkpt>
      <trkpt lat="66.78589" lon="13.52183">
        <ele>6.125696</ele>
        <time>2020-07-15T23:14:05.327Z</time>
      </trkpt>
      <trkpt lat="66.78591" lon="13.52168">
        <ele>5.962371</ele>
        <time>2020-07-15T23:14:06.074Z</time>
      </trkpt>
      <trkpt lat="66.78639" lon="13.51869">
        <ele>3.520945</ele>
        <time>2020-07-15T23:14:24.363Z</time>
      </trkpt>
      <trkpt lat="66.78643" lon="13.51849">
        <ele>3.457453</ele>
        <time>2020-07-15T23:14:26.097Z</time>
      </trkpt>
      <trkpt lat="66.78647" lon="13.51827">
        <ele>3.389983</ele>
        <time>2020-07-15T23:14:27.317Z</time>
      </trkpt>
      <trkpt lat="66.78666" lon="13.51744">
        <ele>3.122233</ele>
        <time>2020-07-15T23:14:33.587Z</time>
      </trkpt>
      <trkpt lat="66.78688" lon="13.51678">
        <ele>2.880386</ele>
        <time>2020-07-15T23:14:39.541Z</time>
      </trkpt>
      <trkpt lat="66.7877" lon="13.515">
        <ele>2.505943</ele>
        <time>2020-07-15T23:14:59.090Z</time>
      </trkpt>
      <trkpt lat="66.78778" lon="13.51483">
        <ele>2.497762</ele>
        <time>2020-07-15T23:15:01.251Z</time>
      </trkpt>
      <trkpt lat="66.78786" lon="13.51466">
        <ele>2.490164</ele>
        <time>2020-07-15T23:15:02.973Z</time>
      </trkpt>
      <trkpt lat="66.78846" lon="13.51329">
        <ele>2.428218</ele>
        <time>2020-07-15T23:15:16.937Z</time>
      </trkpt>
      <trkpt lat="66.78869" lon="13.51247">
        <ele>2.597897</ele>
        <time>2020-07-15T23:15:23.348Z</time>
      </trkpt>
      <trkpt lat="66.78877" lon="13.51167">
        <ele>2.858901</ele>
        <time>2020-07-15T23:15:29.477Z</time>
      </trkpt>
      <trkpt lat="66.78879" lon="13.50984">
        <ele>3.437834</ele>
        <time>2020-07-15T23:15:43.192Z</time>
      </trkpt>
      <trkpt lat="66.78877" lon="13.50984">
        <ele>3.45706</ele>
        <time>2020-07-15T23:15:43.499Z</time>
      </trkpt>
      <trkpt lat="66.78877" lon="13.50977">
        <ele>3.479807</ele>
        <time>2020-07-15T23:15:44.109Z</time>
      </trkpt>
      <trkpt lat="66.78877" lon="13.50943">
        <ele>3.585625</ele>
        <time>2020-07-15T23:15:47.352Z</time>
      </trkpt>
      <trkpt lat="66.78886" lon="13.50818">
        <ele>4.643249</ele>
        <time>2020-07-15T23:15:59.765Z</time>
      </trkpt>
      <trkpt lat="66.78907" lon="13.50701">
        <ele>7.070071</ele>
        <time>2020-07-15T23:16:14.327Z</time>
      </trkpt>
      <trkpt lat="66.78929" lon="13.50633">
        <ele>8.767221</ele>
        <time>2020-07-15T23:16:26.120Z</time>
      </trkpt>
      <trkpt lat="66.78956" lon="13.50585">
        <ele>10.332609</ele>
        <time>2020-07-15T23:16:38.330Z</time>
      </trkpt>
      <trkpt lat="66.79007" lon="13.50539">
        <ele>13.077729</ele>
        <time>2020-07-15T23:17:00.217Z</time>
      </trkpt>
      <trkpt lat="66.7916" lon="13.50499">
        <ele>22.349475</ele>
        <time>2020-07-15T23:18:02.308Z</time>
      </trkpt>
      <trkpt lat="66.79177" lon="13.50488">
        <ele>23.362012</ele>
        <time>2020-07-15T23:18:08.180Z</time>
      </trkpt>
      <trkpt lat="66.79182" lon="13.50486">
        <ele>23.215734</ele>
        <time>2020-07-15T23:18:09.347Z</time>
      </trkpt>
      <trkpt lat="66.79261" lon="13.50442">
        <ele>20.878201</ele>
        <time>2020-07-15T23:18:23.494Z</time>
      </trkpt>
      <trkpt lat="66.79435" lon="13.50424">
        <ele>13.682323</ele>
        <time>2020-07-15T23:18:43.402Z</time>
      </trkpt>
      <trkpt lat="66.79496" lon="13.50396">
        <ele>10.174772</ele>
        <time>2020-07-15T23:18:50.593Z</time>
      </trkpt>
      <trkpt lat="66.79526" lon="13.50366">
        <ele>8.403221</ele>
        <time>2020-07-15T23:18:54.737Z</time>
      </trkpt>
      <trkpt lat="66.79546" lon="13.50349">
        <ele>8.61534</ele>
        <time>2020-07-15T23:18:58.379Z</time>
      </trkpt>
      <trkpt lat="66.79571" lon="13.50327">
        <ele>9.544097</ele>
        <time>2020-07-15T23:19:03.107Z</time>
      </trkpt>
      <trkpt lat="66.79594" lon="13.50322">
        <ele>10.319392</ele>
        <time>2020-07-15T23:19:06.685Z</time>
      </trkpt>
      <trkpt lat="66.79604" lon="13.50321">
        <ele>10.663097</ele>
        <time>2020-07-15T23:19:09.094Z</time>
      </trkpt>
      <trkpt lat="66.79616" lon="13.50326">
        <ele>11.083317</ele>
        <time>2020-07-15T23:19:13.132Z</time>
      </trkpt>
      <trkpt lat="66.79639" lon="13.50343">
        <ele>11.870678</ele>
        <time>2020-07-15T23:19:18.573Z</time>
      </trkpt>
      <trkpt lat="66.79642" lon="13.50346">
        <ele>11.983078</ele>
        <time>2020-07-15T23:19:20.947Z</time>
      </trkpt>
      <trkpt lat="66.79801" lon="13.50503">
        <ele>23.337543</ele>
        <time>2020-07-15T23:20:37.892Z</time>
      </trkpt>
      <trkpt lat="66.79871" lon="13.50574">
        <ele>29.874671</ele>
        <time>2020-07-15T23:21:13.740Z</time>
      </trkpt>
      <trkpt lat="66.79929" lon="13.5063">
        <ele>34.099652</ele>
        <time>2020-07-15T23:21:41.520Z</time>
      </trkpt>
      <trkpt lat="66.80001" lon="13.507">
        <ele>39.358768</ele>
        <time>2020-07-15T23:22:12.965Z</time>
      </trkpt>
      <trkpt lat="66.80093" lon="13.50806">
        <ele>41.821118</ele>
        <time>2020-07-15T23:22:43.603Z</time>
      </trkpt>
      <trkpt lat="66.80138" lon="13.50905">
        <ele>41.538194</ele>
        <time>2020-07-15T23:22:53.237Z</time>
      </trkpt>
      <trkpt lat="66.80155" lon="13.50966">
        <ele>41.402418</ele>
        <time>2020-07-15T23:22:56.859Z</time>
      </trkpt>
      <trkpt lat="66.80161" lon="13.50987">
        <ele>41.354546</ele>
        <time>2020-07-15T23:22:58.250Z</time>
      </trkpt>
      <trkpt lat="66.80171" lon="13.51042">
        <ele>40.94223</ele>
        <time>2020-07-15T23:23:01.082Z</time>
      </trkpt>
      <trkpt lat="66.80181" lon="13.51108">
        <ele>39.102418</ele>
        <time>2020-07-15T23:23:04.412Z</time>
      </trkpt>
      <trkpt lat="66.80189" lon="13.51178">
        <ele>37.187719</ele>
        <time>2020-07-15T23:23:07.787Z</time>
      </trkpt>
      <trkpt lat="66.80196" lon="13.51237">
        <ele>35.568223</ele>
        <time>2020-07-15T23:23:10.554Z</time>
      </trkpt>
      <trkpt lat="66.80201" lon="13.51288">
        <ele>34.181273</ele>
        <time>2020-07-15T23:23:12.905Z</time>
      </trkpt>
      <trkpt lat="66.80203" lon="13.51369">
        <ele>32.05504</ele>
        <time>2020-07-15T23:23:16.516Z</time>
      </trkpt>
      <trkpt lat="66.80203" lon="13.514">
        <ele>31.241361</ele>
        <time>2020-07-15T23:23:17.834Z</time>
      </trkpt>
      <trkpt lat="66.80198" lon="13.51452">
        <ele>29.823734</ele>
        <time>2020-07-15T23:23:20.316Z</time>
      </trkpt>
      <trkpt lat="66.80188" lon="13.51523">
        <ele>28.72458</ele>
        <time>2020-07-15T23:23:23.675Z</time>
      </trkpt>
      <trkpt lat="66.80186" lon="13.51538">
        <ele>28.562878</ele>
        <time>2020-07-15T23:23:24.420Z</time>
      </trkpt>
      <trkpt lat="66.80182" lon="13.51567">
        <ele>28.267017</ele>
        <time>2020-07-15T23:23:25.753Z</time>
      </trkpt>
      <trkpt lat="66.80161" lon="13.51715">
        <ele>26.71049</ele>
        <time>2020-07-15T23:23:33.553Z</time>
      </trkpt>
      <trkpt lat="66.80111" lon="13.52074">
        <ele>27.158623</ele>
        <time>2020-07-15T23:24:07.878Z</time>
      </trkpt>
      <trkpt lat="66.80108" lon="13.52119">
        <ele>27.768342</ele>
        <time>2020-07-15T23:24:13.058Z</time>
      </trkpt>
      <trkpt lat="66.80106" lon="13.52154">
        <ele>28.242633</ele>
        <time>2020-07-15T23:24:16.702Z</time>
      </trkpt>
      <trkpt lat="66.80106" lon="13.52166">
        <ele>28.394532</ele>
        <time>2020-07-15T23:24:19.497Z</time>
      </trkpt>
      <trkpt lat="66.80115" lon="13.52281">
        <ele>29.961634</ele>
        <time>2020-07-15T23:24:34.626Z</time>
      </trkpt>
      <trkpt lat="66.8016" lon="13.52501">
        <ele>32.320973</ele>
        <time>2020-07-15T23:25:07.544Z</time>
      </trkpt>
      <trkpt lat="66.80164" lon="13.52541">
        <ele>32.655028</ele>
        <time>2020-07-15T23:25:11.453Z</time>
      </trkpt>
      <trkpt lat="66.80165" lon="13.52562">
        <ele>32.829458</ele>
        <time>2020-07-15T23:25:13.593Z</time>
      </trkpt>
      <trkpt lat="66.80156" lon="13.52699">
        <ele>33.970016</ele>
        <time>2020-07-15T23:25:25.593Z</time>
      </trkpt>
      <trkpt lat="66.80093" lon="13.53202">
        <ele>30.432594</ele>
        <time>2020-07-15T23:25:54.295Z</time>
      </trkpt>
      <trkpt lat="66.80091" lon="13.53229">
        <ele>30.396823</ele>
        <time>2020-07-15T23:25:55.583Z</time>
      </trkpt>
      <trkpt lat="66.8009" lon="13.53269">
        <ele>30.363545</ele>
        <time>2020-07-15T23:25:57.587Z</time>
      </trkpt>
      <trkpt lat="66.8009" lon="13.53304">
        <ele>30.334372</ele>
        <time>2020-07-15T23:25:59.564Z</time>
      </trkpt>
      <trkpt lat="66.80092" lon="13.5334">
        <ele>30.304354</ele>
        <time>2020-07-15T23:26:01.307Z</time>
      </trkpt>
      <trkpt lat="66.80094" lon="13.53366">
        <ele>30.282722</ele>
        <time>2020-07-15T23:26:02.715Z</time>
      </trkpt>
      <trkpt lat="66.80097" lon="13.53387">
        <ele>30.26382</ele>
        <time>2020-07-15T23:26:04.186Z</time>
      </trkpt>
      <trkpt lat="66.801" lon="13.53406">
        <ele>30.247088</ele>
        <time>2020-07-15T23:26:05.130Z</time>
      </trkpt>
      <trkpt lat="66.80109" lon="13.53481">
        <ele>30.181344</ele>
        <time>2020-07-15T23:26:10.256Z</time>
      </trkpt>
      <trkpt lat="66.80127" lon="13.53615">
        <ele>30.064649</ele>
        <time>2020-07-15T23:26:22.092Z</time>
      </trkpt>
      <trkpt lat="66.80146" lon="13.53753">
        <ele>34.051651</ele>
        <time>2020-07-15T23:26:43.650Z</time>
      </trkpt>
      <trkpt lat="66.80164" lon="13.53888">
        <ele>38.940765</ele>
        <time>2020-07-15T23:27:10.228Z</time>
      </trkpt>
      <trkpt lat="66.80185" lon="13.54042">
        <ele>44.555917</ele>
        <time>2020-07-15T23:27:45.612Z</time>
      </trkpt>
      <trkpt lat="66.80209" lon="13.54221">
        <ele>50.418348</ele>
        <time>2020-07-15T23:28:25.173Z</time>
      </trkpt>
      <trkpt lat="66.80223" lon="13.54316">
        <ele>53.487411</ele>
        <time>2020-07-15T23:28:43.025Z</time>
      </trkpt>
      <trkpt lat="66.80237" lon="13.54409">
        <ele>56.508079</ele>
        <time>2020-07-15T23:28:57.835Z</time>
      </trkpt>
      <trkpt lat="66.8025" lon="13.54471">
        <ele>58.634675</ele>
        <time>2020-07-15T23:29:06.649Z</time>
      </trkpt>
      <trkpt lat="66.80266" lon="13.5454">
        <ele>59.542995</ele>
        <time>2020-07-15T23:29:16.427Z</time>
      </trkpt>
      <trkpt lat="66.80287" lon="13.54624">
        <ele>59.462734</ele>
        <time>2020-07-15T23:29:26.534Z</time>
      </trkpt>
      <trkpt lat="66.803" lon="13.54697">
        <ele>59.397211</ele>
        <time>2020-07-15T23:29:32.117Z</time>
      </trkpt>
      <trkpt lat="66.80307" lon="13.5491">
        <ele>59.223628</ele>
        <time>2020-07-15T23:29:43.963Z</time>
      </trkpt>
      <trkpt lat="66.80404" lon="13.56179">
        <ele>35.532147</ele>
        <time>2020-07-15T23:30:45.689Z</time>
      </trkpt>
      <trkpt lat="66.80435" lon="13.56955">
        <ele>29.905342</ele>
        <time>2020-07-15T23:31:30.767Z</time>
      </trkpt>
      <trkpt lat="66.80447" lon="13.58144">
        <ele>25.606298</ele>
        <time>2020-07-15T23:32:46.411Z</time>
      </trkpt>
      <trkpt lat="66.80449" lon="13.58239">
        <ele>24.343079</ele>
        <time>2020-07-15T23:32:51.545Z</time>
      </trkpt>
      <trkpt lat="66.80451" lon="13.58277">
        <ele>23.836677</ele>
        <time>2020-07-15T23:32:53.629Z</time>
      </trkpt>
      <trkpt lat="66.80455" lon="13.58322">
        <ele>23.233902</ele>
        <time>2020-07-15T23:32:55.924Z</time>
      </trkpt>
      <trkpt lat="66.80464" lon="13.584">
        <ele>22.15028</ele>
        <time>2020-07-15T23:33:00.089Z</time>
      </trkpt>
      <trkpt lat="66.80477" lon="13.58461">
        <ele>21.2318</ele>
        <time>2020-07-15T23:33:03.559Z</time>
      </trkpt>
      <trkpt lat="66.80586" lon="13.58791">
        <ele>11.933906</ele>
        <time>2020-07-15T23:33:23.436Z</time>
      </trkpt>
      <trkpt lat="66.80608" lon="13.58861">
        <ele>9.85018</ele>
        <time>2020-07-15T23:33:27.546Z</time>
      </trkpt>
      <trkpt lat="66.80613" lon="13.58872">
        <ele>9.467564</ele>
        <time>2020-07-15T23:33:28.356Z</time>
      </trkpt>
      <trkpt lat="66.80624" lon="13.58895">
        <ele>8.877139</ele>
        <time>2020-07-15T23:33:30.059Z</time>
      </trkpt>
      <trkpt lat="66.80638" lon="13.58904">
        <ele>8.265333</ele>
        <time>2020-07-15T23:33:31.834Z</time>
      </trkpt>
      <trkpt lat="66.8065" lon="13.58897">
        <ele>7.775103</ele>
        <time>2020-07-15T23:33:33.221Z</time>
      </trkpt>
      <trkpt lat="66.80669" lon="13.5887">
        <ele>6.884252</ele>
        <time>2020-07-15T23:33:35.823Z</time>
      </trkpt>
      <trkpt lat="66.80701" lon="13.58848">
        <ele>5.479566</ele>
        <time>2020-07-15T23:33:40.526Z</time>
      </trkpt>
      <trkpt lat="66.80735" lon="13.58847">
        <ele>4.053362</ele>
        <time>2020-07-15T23:33:45.313Z</time>
      </trkpt>
      <trkpt lat="66.80787" lon="13.58902">
        <ele>2.006486</ele>
        <time>2020-07-15T23:33:53.072Z</time>
      </trkpt>
      <trkpt lat="66.80924" lon="13.59145">
        <ele>0.392011</ele>
        <time>2020-07-15T23:34:16.378Z</time>
      </trkpt>
      <trkpt lat="66.81333" lon="13.60177">
        <ele>0.011823</ele>
        <time>2020-07-15T23:35:36.753Z</time>
      </trkpt>
      <trkpt lat="66.81579" lon="13.60986">
        <time>2020-07-15T23:36:32.921Z</time>
      </trkpt>
      <trkpt lat="66.81877" lon="13.61887">
        <time>2020-07-15T23:37:37.586Z</time>
      </trkpt>
      <trkpt lat="66.82859" lon="13.65577">
        <time>2020-07-15T23:41:42.112Z</time>
      </trkpt>
      <trkpt lat="66.83176" lon="13.66494">
        <time>2020-07-15T23:42:49.097Z</time>
      </trkpt>
      <trkpt lat="66.83512" lon="13.67421">
        <time>2020-07-15T23:43:58.221Z</time>
      </trkpt>
      <trkpt lat="66.83791" lon="13.67924">
        <time>2020-07-15T23:44:45.943Z</time>
      </trkpt>
      <trkpt lat="66.83966" lon="13.68139">
        <time>2020-07-15T23:45:13.068Z</time>
      </trkpt>
      <trkpt lat="66.84147" lon="13.6834">
        <time>2020-07-15T23:45:40.652Z</time>
      </trkpt>
      <trkpt lat="66.84328" lon="13.68503">
        <time>2020-07-15T23:46:07.349Z</time>
      </trkpt>
      <trkpt lat="66.84532" lon="13.68655">
        <time>2020-07-15T23:46:37.044Z</time>
      </trkpt>
      <trkpt lat="66.84827" lon="13.68826">
        <time>2020-07-15T23:47:19.227Z</time>
      </trkpt>
      <trkpt lat="66.85152" lon="13.68987">
        <time>2020-07-15T23:48:05.380Z</time>
      </trkpt>
      <trkpt lat="66.8526" lon="13.69029">
        <time>2020-07-15T23:48:20.620Z</time>
      </trkpt>
      <trkpt lat="66.85496" lon="13.69153">
        <time>2020-07-15T23:48:54.162Z</time>
      </trkpt>
      <trkpt lat="66.85787" lon="13.69352">
        <time>2020-07-15T23:49:36.209Z</time>
      </trkpt>
      <trkpt lat="66.86087" lon="13.69627">
        <time>2020-07-15T23:50:20.691Z</time>
      </trkpt>
      <trkpt lat="66.86317" lon="13.69856">
        <time>2020-07-15T23:50:55.043Z</time>
      </trkpt>
      <trkpt lat="66.86564" lon="13.70085">
        <time>2020-07-15T23:51:31.718Z</time>
      </trkpt>
      <trkpt lat="66.86667" lon="13.70289">
        <time>2020-07-15T23:51:49.935Z</time>
      </trkpt>
      <trkpt lat="66.86747" lon="13.70397">
        <ele>0.079397</ele>
        <time>2020-07-15T23:52:02.534Z</time>
      </trkpt>
      <trkpt lat="66.86763" lon="13.70415">
        <ele>0.095665</ele>
        <time>2020-07-15T23:52:05.708Z</time>
      </trkpt>
      <trkpt lat="66.86768" lon="13.70414">
        <ele>0.100088</ele>
        <time>2020-07-15T23:52:06.581Z</time>
      </trkpt>
      <trkpt lat="66.86771" lon="13.70413">
        <ele>0.103127</ele>
        <time>2020-07-15T23:52:07.174Z</time>
      </trkpt>
      <trkpt lat="66.86776" lon="13.70427">
        <ele>0.109747</ele>
        <time>2020-07-15T23:52:08.488Z</time>
      </trkpt>
      <trkpt lat="66.86797" lon="13.70434">
        <ele>0.129658</ele>
        <time>2020-07-15T23:52:12.473Z</time>
      </trkpt>
      <trkpt lat="66.86815" lon="13.70421">
        <ele>0.146212</ele>
        <time>2020-07-15T23:52:15.838Z</time>
      </trkpt>
      <trkpt lat="66.86821" lon="13.70407">
        <ele>0.153968</ele>
        <time>2020-07-15T23:52:17.400Z</time>
      </trkpt>
      <trkpt lat="66.86822" lon="13.70389">
        <ele>0.160446</ele>
        <time>2020-07-15T23:52:19.111Z</time>
      </trkpt>
      <trkpt lat="66.86825" lon="13.70373">
        <ele>0.168872</ele>
        <time>2020-07-15T23:52:20.800Z</time>
      </trkpt>
      <trkpt lat="66.86825" lon="13.70371">
        <ele>0.171158</ele>
        <time>2020-07-15T23:52:21.056Z</time>
      </trkpt>
      <trkpt lat="66.86829" lon="13.70358">
        <ele>0.184824</ele>
        <time>2020-07-15T23:52:22.304Z</time>
      </trkpt>
      <trkpt lat="66.86834" lon="13.7035">
        <ele>0.196836</ele>
        <time>2020-07-15T23:52:23.382Z</time>
      </trkpt>
      <trkpt lat="66.86844" lon="13.7035">
        <ele>0.220343</ele>
        <time>2020-07-15T23:52:25.484Z</time>
      </trkpt>
      <trkpt lat="66.86879" lon="13.70392">
        <ele>0.302944</ele>
        <time>2020-07-15T23:52:32.948Z</time>
      </trkpt>
      <trkpt lat="66.86888" lon="13.70408">
        <ele>0.325762</ele>
        <time>2020-07-15T23:52:35.022Z</time>
      </trkpt>
      <trkpt lat="66.86902" lon="13.7044">
        <ele>0.367576</ele>
        <time>2020-07-15T23:52:38.813Z</time>
      </trkpt>
      <trkpt lat="66.86921" lon="13.70478">
        <ele>0.418764</ele>
        <time>2020-07-15T23:52:43.434Z</time>
      </trkpt>
      <trkpt lat="66.86972" lon="13.70583">
        <ele>0.547961</ele>
        <time>2020-07-15T23:52:56.045Z</time>
      </trkpt>
      <trkpt lat="66.87026" lon="13.70634">
        <ele>0.470915</ele>
        <time>2020-07-15T23:53:06.603Z</time>
      </trkpt>
      <trkpt lat="66.87041" lon="13.70642">
        <ele>0.449951</ele>
        <time>2020-07-15T23:53:09.581Z</time>
      </trkpt>
      <trkpt lat="66.87052" lon="13.70647">
        <ele>0.434014</ele>
        <time>2020-07-15T23:53:11.494Z</time>
      </trkpt>
      <trkpt lat="66.87152" lon="13.70676">
        <ele>0.296691</ele>
        <time>2020-07-15T23:53:28.711Z</time>
      </trkpt>
      <trkpt lat="66.87151" lon="13.70692">
        <ele>0.286701</ele>
        <time>2020-07-15T23:53:29.676Z</time>
      </trkpt>
      <trkpt lat="66.8715" lon="13.70712">
        <ele>0.273888</ele>
        <time>2020-07-15T23:53:31.057Z</time>
      </trkpt>
      <trkpt lat="66.87159" lon="13.70718">
        <ele>0.258136</ele>
        <time>2020-07-15T23:53:32.781Z</time>
      </trkpt>
      <trkpt lat="66.87197" lon="13.70723">
        <ele>0.19788</ele>
        <time>2020-07-15T23:53:39.117Z</time>
      </trkpt>
      <trkpt lat="66.87233" lon="13.70705">
        <ele>0.138154</ele>
        <time>2020-07-15T23:53:45.545Z</time>
      </trkpt>
      <trkpt lat="66.8724" lon="13.70699">
        <ele>0.126305</ele>
        <time>2020-07-15T23:53:46.839Z</time>
      </trkpt>
      <trkpt lat="66.87253" lon="13.70688">
        <ele>0.103777</ele>
        <time>2020-07-15T23:53:49.221Z</time>
      </trkpt>
      <trkpt lat="66.87289" lon="13.7066">
        <ele>0.043991</ele>
        <time>2020-07-15T23:53:55.736Z</time>
      </trkpt>
      <trkpt lat="66.87306" lon="13.7067">
        <ele>0.020976</ele>
        <time>2020-07-15T23:53:58.891Z</time>
      </trkpt>
      <trkpt lat="66.87314" lon="13.70661">
        <ele>0.026947</ele>
        <time>2020-07-15T23:54:00.532Z</time>
      </trkpt>
      <trkpt lat="66.8732" lon="13.70654">
        <ele>0.031103</ele>
        <time>2020-07-15T23:54:01.683Z</time>
      </trkpt>
      <trkpt lat="66.87327" lon="13.70644">
        <ele>0.036175</ele>
        <time>2020-07-15T23:54:03.089Z</time>
      </trkpt>
      <trkpt lat="66.87335" lon="13.70608">
        <ele>0.046869</ele>
        <time>2020-07-15T23:54:06.043Z</time>
      </trkpt>
      <trkpt lat="66.8734" lon="13.70602">
        <ele>0.050077</ele>
        <time>2020-07-15T23:54:06.928Z</time>
      </trkpt>
      <trkpt lat="66.8735" lon="13.70589">
        <ele>0.057521</ele>
        <time>2020-07-15T23:54:08.993Z</time>
      </trkpt>
      <trkpt lat="66.87439" lon="13.70415">
        <ele>0.130336</ele>
        <time>2020-07-15T23:54:29.302Z</time>
      </trkpt>
      <trkpt lat="66.87532" lon="13.70301">
        <ele>0.283012</ele>
        <time>2020-07-15T23:54:48.492Z</time>
      </trkpt>
      <trkpt lat="66.8754" lon="13.7029">
        <ele>0.296495</ele>
        <time>2020-07-15T23:54:50.053Z</time>
      </trkpt>
      <trkpt lat="66.87581" lon="13.70218">
        <ele>0.373978</ele>
        <time>2020-07-15T23:54:59.209Z</time>
      </trkpt>
      <trkpt lat="66.87592" lon="13.70195">
        <ele>0.395787</ele>
        <time>2020-07-15T23:55:01.737Z</time>
      </trkpt>
      <trkpt lat="66.87595" lon="13.70176">
        <ele>0.408867</ele>
        <time>2020-07-15T23:55:03.234Z</time>
      </trkpt>
      <trkpt lat="66.87598" lon="13.70154">
        <ele>0.41393</ele>
        <time>2020-07-15T23:55:04.856Z</time>
      </trkpt>
      <trkpt lat="66.87615" lon="13.70071">
        <ele>0.401764</ele>
        <time>2020-07-15T23:55:11.538Z</time>
      </trkpt>
      <trkpt lat="66.87627" lon="13.6997">
        <ele>0.388237</ele>
        <time>2020-07-15T23:55:18.957Z</time>
      </trkpt>
      <trkpt lat="66.87628" lon="13.69834">
        <ele>0.37067</ele>
        <time>2020-07-15T23:55:28.381Z</time>
      </trkpt>
      <trkpt lat="66.87627" lon="13.69802">
        <ele>0.36663</ele>
        <time>2020-07-15T23:55:30.481Z</time>
      </trkpt>
      <trkpt lat="66.87624" lon="13.69689">
        <ele>0.352182</ele>
        <time>2020-07-15T23:55:38.195Z</time>
      </trkpt>
      <trkpt lat="66.87623" lon="13.69331">
        <ele>0.308047</ele>
        <time>2020-07-15T23:56:03.312Z</time>
      </trkpt>
      <trkpt lat="66.87629" lon="13.6923">
        <ele>0.291945</ele>
        <time>2020-07-15T23:56:10.499Z</time>
      </trkpt>
      <trkpt lat="66.87634" lon="13.6913">
        <ele>0.269986</ele>
        <time>2020-07-15T23:56:17.531Z</time>
      </trkpt>
      <trkpt lat="66.87644" lon="13.68952">
        <ele>0.230924</ele>
        <time>2020-07-15T23:56:30.004Z</time>
      </trkpt>
      <trkpt lat="66.87646" lon="13.68904">
        <ele>0.220195</ele>
        <time>2020-07-15T23:56:33.384Z</time>
      </trkpt>
      <trkpt lat="66.8765" lon="13.68776">
        <ele>0.20336</ele>
        <time>2020-07-15T23:56:42.177Z</time>
      </trkpt>
      <trkpt lat="66.87664" lon="13.68617">
        <ele>0.2178</ele>
        <time>2020-07-15T23:56:53.290Z</time>
      </trkpt>
      <trkpt lat="66.87681" lon="13.68543">
        <ele>0.225397</ele>
        <time>2020-07-15T23:56:59.209Z</time>
      </trkpt>
      <trkpt lat="66.8769" lon="13.68513">
        <ele>0.22884</ele>
        <time>2020-07-15T23:57:01.941Z</time>
      </trkpt>
      <trkpt lat="66.8773" lon="13.68437">
        <ele>0.240044</ele>
        <time>2020-07-15T23:57:10.969Z</time>
      </trkpt>
      <trkpt lat="66.87756" lon="13.68421">
        <ele>0.378409</ele>
        <time>2020-07-15T23:57:16.067Z</time>
      </trkpt>
      <trkpt lat="66.87792" lon="13.68386">
        <ele>0.608076</ele>
        <time>2020-07-15T23:57:23.825Z</time>
      </trkpt>
      <trkpt lat="66.87811" lon="13.68351">
        <ele>0.74285</ele>
        <time>2020-07-15T23:57:28.788Z</time>
      </trkpt>
      <trkpt lat="66.87831" lon="13.68324">
        <ele>0.874979</ele>
        <time>2020-07-15T23:57:33.762Z</time>
      </trkpt>
      <trkpt lat="66.87842" lon="13.68312">
        <ele>0.945565</ele>
        <time>2020-07-15T23:57:36.421Z</time>
      </trkpt>
      <trkpt lat="66.8787" lon="13.68289">
        <ele>1.121636</ele>
        <time>2020-07-15T23:57:42.664Z</time>
      </trkpt>
      <trkpt lat="66.87889" lon="13.68271">
        <ele>1.23621</ele>
        <time>2020-07-15T23:57:46.380Z</time>
      </trkpt>
      <trkpt lat="66.87937" lon="13.68214">
        <ele>1.265437</ele>
        <time>2020-07-15T23:57:56.947Z</time>
      </trkpt>
      <trkpt lat="66.87954" lon="13.68184">
        <ele>1.250914</ele>
        <time>2020-07-15T23:58:00.716Z</time>
      </trkpt>
      <trkpt lat="66.87962" lon="13.68162">
        <ele>1.242525</ele>
        <time>2020-07-15T23:58:03.146Z</time>
      </trkpt>
      <trkpt lat="66.87971" lon="13.68145">
        <ele>1.234625</ele>
        <time>2020-07-15T23:58:05.068Z</time>
      </trkpt>
      <trkpt lat="66.87979" lon="13.6811">
        <ele>1.223117</ele>
        <time>2020-07-15T23:58:08.185Z</time>
      </trkpt>
      <trkpt lat="66.8798" lon="13.68071">
        <ele>1.212323</ele>
        <time>2020-07-15T23:58:10.919Z</time>
      </trkpt>
      <trkpt lat="66.88005" lon="13.67993">
        <ele>1.184141</ele>
        <time>2020-07-15T23:58:17.741Z</time>
      </trkpt>
      <trkpt lat="66.88066" lon="13.67687">
        <ele>0.588813</ele>
        <time>2020-07-15T23:58:39.284Z</time>
      </trkpt>
      <trkpt lat="66.88132" lon="13.67452">
        <ele>0.191205</ele>
        <time>2020-07-15T23:58:58.744Z</time>
      </trkpt>
      <trkpt lat="66.88136" lon="13.67427">
        <ele>0.179645</ele>
        <time>2020-07-15T23:59:00.550Z</time>
      </trkpt>
      <trkpt lat="66.88142" lon="13.67387">
        <ele>0.160477</ele>
        <time>2020-07-15T23:59:03.526Z</time>
      </trkpt>
      <trkpt lat="66.88156" lon="13.67201">
        <ele>0.076837</ele>
        <time>2020-07-15T23:59:16.668Z</time>
      </trkpt>
      <trkpt lat="66.88158" lon="13.67158">
        <ele>0.057532</ele>
        <time>2020-07-15T23:59:19.714Z</time>
      </trkpt>
      <trkpt lat="66.88162" lon="13.6704">
        <ele>0.063514</ele>
        <time>2020-07-15T23:59:27.988Z</time>
      </trkpt>
      <trkpt lat="66.88163" lon="13.66988">
        <ele>0.077808</ele>
        <time>2020-07-15T23:59:31.609Z</time>
      </trkpt>
      <trkpt lat="66.88163" lon="13.6698">
        <ele>0.079968</ele>
        <time>2020-07-15T23:59:32.158Z</time>
      </trkpt>
      <trkpt lat="66.88153" lon="13.66766">
        <ele>0.139679</ele>
        <time>2020-07-15T23:59:47.484Z</time>
      </trkpt>
      <trkpt lat="66.88157" lon="13.66609">
        <ele>0.184024</ele>
        <time>2020-07-15T23:59:58.973Z</time>
      </trkpt>
      <trkpt lat="66.88177" lon="13.66465">
        <ele>0.228121</ele>
        <time>2020-07-16T00:00:09.790Z</time>
      </trkpt>
      <trkpt lat="66.88213" lon="13.66341">
        <ele>0.272635</ele>
        <time>2020-07-16T00:00:20.613Z</time>
      </trkpt>
      <trkpt lat="66.88223" lon="13.66303">
        <ele>0.286132</ele>
        <time>2020-07-16T00:00:24.094Z</time>
      </trkpt>
      <trkpt lat="66.88234" lon="13.66264">
        <ele>0.299913</ele>
        <time>2020-07-16T00:00:27.331Z</time>
      </trkpt>
      <trkpt lat="66.88243" lon="13.66214">
        <ele>0.292567</ele>
        <time>2020-07-16T00:00:31.340Z</time>
      </trkpt>
      <trkpt lat="66.8825" lon="13.66167">
        <ele>0.285702</ele>
        <time>2020-07-16T00:00:34.753Z</time>
      </trkpt>
      <trkpt lat="66.88261" lon="13.66087">
        <ele>0.274158</ele>
        <time>2020-07-16T00:00:40.619Z</time>
      </trkpt>
      <trkpt lat="66.88266" lon="13.66041">
        <ele>0.267635</ele>
        <time>2020-07-16T00:00:44.067Z</time>
      </trkpt>
      <trkpt lat="66.88289" lon="13.65951">
        <ele>0.252915</ele>
        <time>2020-07-16T00:00:51.387Z</time>
      </trkpt>
      <trkpt lat="66.88301" lon="13.65906">
        <ele>0.245457</ele>
        <time>2020-07-16T00:00:55.104Z</time>
      </trkpt>
      <trkpt lat="66.88307" lon="13.65868">
        <ele>0.239786</ele>
        <time>2020-07-16T00:00:58.000Z</time>
      </trkpt>
      <trkpt lat="66.88328" lon="13.65719">
        <ele>0.648653</ele>
        <time>2020-07-16T00:01:09.542Z</time>
      </trkpt>
      <trkpt lat="66.88345" lon="13.6566">
        <ele>0.861783</ele>
        <time>2020-07-16T00:01:15.669Z</time>
      </trkpt>
      <trkpt lat="66.88378" lon="13.65613">
        <ele>1.144538</ele>
        <time>2020-07-16T00:01:23.857Z</time>
      </trkpt>
      <trkpt lat="66.88412" lon="13.65598">
        <ele>1.400225</ele>
        <time>2020-07-16T00:01:31.498Z</time>
      </trkpt>
      <trkpt lat="66.88441" lon="13.65592">
        <ele>1.645889</ele>
        <time>2020-07-16T00:01:38.195Z</time>
      </trkpt>
      <trkpt lat="66.88471" lon="13.65591">
        <ele>2.042437</ele>
        <time>2020-07-16T00:01:44.767Z</time>
      </trkpt>
      <trkpt lat="66.88478" lon="13.6559">
        <ele>2.135045</ele>
        <time>2020-07-16T00:01:46.873Z</time>
      </trkpt>
      <trkpt lat="66.88576" lon="13.65613">
        <ele>3.41301</ele>
        <time>2020-07-16T00:02:09.087Z</time>
      </trkpt>
      <trkpt lat="66.88613" lon="13.65609">
        <ele>3.897242</ele>
        <time>2020-07-16T00:02:17.338Z</time>
      </trkpt>
      <trkpt lat="66.88693" lon="13.65543">
        <ele>3.882146</ele>
        <time>2020-07-16T00:02:32.675Z</time>
      </trkpt>
      <trkpt lat="66.88734" lon="13.65489">
        <ele>3.858497</ele>
        <time>2020-07-16T00:02:40.127Z</time>
      </trkpt>
      <trkpt lat="66.88776" lon="13.65432">
        <ele>3.83365</ele>
        <time>2020-07-16T00:02:48.040Z</time>
      </trkpt>
      <trkpt lat="66.88797" lon="13.65402">
        <ele>3.725105</ele>
        <time>2020-07-16T00:02:52.305Z</time>
      </trkpt>
      <trkpt lat="66.88813" lon="13.65381">
        <ele>3.629806</ele>
        <time>2020-07-16T00:02:55.302Z</time>
      </trkpt>
      <trkpt lat="66.88829" lon="13.6536">
        <ele>3.537136</ele>
        <time>2020-07-16T00:02:58.453Z</time>
      </trkpt>
      <trkpt lat="66.88859" lon="13.65323">
        <ele>3.361428</ele>
        <time>2020-07-16T00:03:03.602Z</time>
      </trkpt>
      <trkpt lat="66.88862" lon="13.65318">
        <ele>3.338592</ele>
        <time>2020-07-16T00:03:04.436Z</time>
      </trkpt>
      <trkpt lat="66.88961" lon="13.65222">
        <ele>2.845782</ele>
        <time>2020-07-16T00:03:21.529Z</time>
      </trkpt>
      <trkpt lat="66.88967" lon="13.65217">
        <ele>2.834379</ele>
        <time>2020-07-16T00:03:22.406Z</time>
      </trkpt>
      <trkpt lat="66.8904" lon="13.65143">
        <ele>2.692047</ele>
        <time>2020-07-16T00:03:36.405Z</time>
      </trkpt>
      <trkpt lat="66.89072" lon="13.65116">
        <ele>2.63074</ele>
        <time>2020-07-16T00:03:42.301Z</time>
      </trkpt>
      <trkpt lat="66.89092" lon="13.65099">
        <ele>2.592876</ele>
        <time>2020-07-16T00:03:46.525Z</time>
      </trkpt>
      <trkpt lat="66.89138" lon="13.65084">
        <ele>2.510335</ele>
        <time>2020-07-16T00:03:54.134Z</time>
      </trkpt>
      <trkpt lat="66.89192" lon="13.65083">
        <ele>2.41317</ele>
        <time>2020-07-16T00:04:03.942Z</time>
      </trkpt>
      <trkpt lat="66.89224" lon="13.65082">
        <ele>2.356446</ele>
        <time>2020-07-16T00:04:09.485Z</time>
      </trkpt>
      <trkpt lat="66.89234" lon="13.65083">
        <ele>2.337655</ele>
        <time>2020-07-16T00:04:11.525Z</time>
      </trkpt>
      <trkpt lat="66.89321" lon="13.65086">
        <ele>1.997856</ele>
        <time>2020-07-16T00:04:26.115Z</time>
      </trkpt>
      <trkpt lat="66.89349" lon="13.65086">
        <ele>1.764718</ele>
        <time>2020-07-16T00:04:30.491Z</time>
      </trkpt>
      <trkpt lat="66.89374" lon="13.65081">
        <ele>1.550301</ele>
        <time>2020-07-16T00:04:34.432Z</time>
      </trkpt>
      <trkpt lat="66.89395" lon="13.65074">
        <ele>1.374373</ele>
        <time>2020-07-16T00:04:37.598Z</time>
      </trkpt>
      <trkpt lat="66.89428" lon="13.65062">
        <ele>1.090481</ele>
        <time>2020-07-16T00:04:42.730Z</time>
      </trkpt>
      <trkpt lat="66.89491" lon="13.65029">
        <ele>0.642465</ele>
        <time>2020-07-16T00:04:52.753Z</time>
      </trkpt>
      <trkpt lat="66.89504" lon="13.65022">
        <ele>0.595605</ele>
        <time>2020-07-16T00:04:54.768Z</time>
      </trkpt>
      <trkpt lat="66.8965" lon="13.64942">
        <ele>0.047338</ele>
        <time>2020-07-16T00:05:20.483Z</time>
      </trkpt>
      <trkpt lat="66.8974" lon="13.64894">
        <ele>0.026905</ele>
        <time>2020-07-16T00:05:36.874Z</time>
      </trkpt>
      <trkpt lat="66.8983" lon="13.64846">
        <ele>0.012371</ele>
        <time>2020-07-16T00:05:53.246Z</time>
      </trkpt>
      <trkpt lat="66.89845" lon="13.64839">
        <ele>0.022653</ele>
        <time>2020-07-16T00:05:56.014Z</time>
      </trkpt>
      <trkpt lat="66.90002" lon="13.64757">
        <ele>0.132385</ele>
        <time>2020-07-16T00:06:25.003Z</time>
      </trkpt>
      <trkpt lat="66.90054" lon="13.64741">
        <ele>0.23552</ele>
        <time>2020-07-16T00:06:34.552Z</time>
      </trkpt>
      <trkpt lat="66.90274" lon="13.64746">
        <ele>0.607718</ele>
        <time>2020-07-16T00:07:15.473Z</time>
      </trkpt>
      <trkpt lat="66.90309" lon="13.64733">
        <ele>0.654249</ele>
        <time>2020-07-16T00:07:22.023Z</time>
      </trkpt>
      <trkpt lat="66.90345" lon="13.64702">
        <ele>0.702883</ele>
        <time>2020-07-16T00:07:28.726Z</time>
      </trkpt>
      <trkpt lat="66.90365" lon="13.64678">
        <ele>0.696677</ele>
        <time>2020-07-16T00:07:32.648Z</time>
      </trkpt>
      <trkpt lat="66.90385" lon="13.64648">
        <ele>0.651225</ele>
        <time>2020-07-16T00:07:36.626Z</time>
      </trkpt>
      <trkpt lat="66.90393" lon="13.64636">
        <ele>0.63302</ele>
        <time>2020-07-16T00:07:38.190Z</time>
      </trkpt>
      <trkpt lat="66.9045" lon="13.64553">
        <ele>0.502276</ele>
        <time>2020-07-16T00:07:49.496Z</time>
      </trkpt>
      <trkpt lat="66.90501" lon="13.64476">
        <ele>0.384057</ele>
        <time>2020-07-16T00:07:59.651Z</time>
      </trkpt>
      <trkpt lat="66.90536" lon="13.64419">
        <ele>0.326054</ele>
        <time>2020-07-16T00:08:06.882Z</time>
      </trkpt>
      <trkpt lat="66.90606" lon="13.64313">
        <ele>0.233682</ele>
        <time>2020-07-16T00:08:20.857Z</time>
      </trkpt>
      <trkpt lat="66.90662" lon="13.64229">
        <ele>0.160157</ele>
        <time>2020-07-16T00:08:32.345Z</time>
      </trkpt>
      <trkpt lat="66.907" lon="13.6417">
        <ele>0.232002</ele>
        <time>2020-07-16T00:08:40.514Z</time>
      </trkpt>
      <trkpt lat="66.90745" lon="13.64102">
        <ele>0.330037</ele>
        <time>2020-07-16T00:08:50.177Z</time>
      </trkpt>
      <trkpt lat="66.9076" lon="13.6408">
        <ele>0.361727</ele>
        <time>2020-07-16T00:08:53.314Z</time>
      </trkpt>
      <trkpt lat="66.90787" lon="13.64041">
        <ele>0.421392</ele>
        <time>2020-07-16T00:08:59.252Z</time>
      </trkpt>
      <trkpt lat="66.90797" lon="13.64025">
        <ele>0.442372</ele>
        <time>2020-07-16T00:09:01.346Z</time>
      </trkpt>
      <trkpt lat="66.90806" lon="13.64009">
        <ele>0.463229</ele>
        <time>2020-07-16T00:09:03.429Z</time>
      </trkpt>
      <trkpt lat="66.90803" lon="13.63997">
        <ele>0.473562</ele>
        <time>2020-07-16T00:09:04.535Z</time>
      </trkpt>
      <trkpt lat="66.90825" lon="13.63959">
        <ele>0.531183</ele>
        <time>2020-07-16T00:09:09.693Z</time>
      </trkpt>
      <trkpt lat="66.90843" lon="13.63935">
        <ele>0.578843</ele>
        <time>2020-07-16T00:09:13.631Z</time>
      </trkpt>
      <trkpt lat="66.90877" lon="13.63886">
        <ele>0.671264</ele>
        <time>2020-07-16T00:09:21.247Z</time>
      </trkpt>
      <trkpt lat="66.90917" lon="13.63824">
        <ele>0.782671</ele>
        <time>2020-07-16T00:09:30.352Z</time>
      </trkpt>
      <trkpt lat="66.90927" lon="13.63811">
        <ele>0.807598</ele>
        <time>2020-07-16T00:09:32.405Z</time>
      </trkpt>
      <trkpt lat="66.90941" lon="13.63788">
        <ele>0.846921</ele>
        <time>2020-07-16T00:09:35.591Z</time>
      </trkpt>
      <trkpt lat="66.90955" lon="13.63754">
        <ele>0.893911</ele>
        <time>2020-07-16T00:09:39.384Z</time>
      </trkpt>
      <trkpt lat="66.9098" lon="13.63687">
        <ele>0.930088</ele>
        <time>2020-07-16T00:09:46.192Z</time>
      </trkpt>
      <trkpt lat="66.90984" lon="13.63674">
        <ele>0.933</ele>
        <time>2020-07-16T00:09:47.412Z</time>
      </trkpt>
      <trkpt lat="66.90989" lon="13.63686">
        <ele>0.93611</ele>
        <time>2020-07-16T00:09:48.704Z</time>
      </trkpt>
      <trkpt lat="66.90996" lon="13.63661">
        <ele>0.941586</ele>
        <time>2020-07-16T00:09:50.877Z</time>
      </trkpt>
      <trkpt lat="66.91003" lon="13.63633">
        <ele>0.947401</ele>
        <time>2020-07-16T00:09:53.191Z</time>
      </trkpt>
      <trkpt lat="66.91023" lon="13.63559">
        <ele>0.963563</ele>
        <time>2020-07-16T00:09:59.590Z</time>
      </trkpt>
      <trkpt lat="66.91032" lon="13.63536">
        <ele>0.969135</ele>
        <time>2020-07-16T00:10:01.771Z</time>
      </trkpt>
      <trkpt lat="66.91047" lon="13.6349">
        <ele>0.97991</ele>
        <time>2020-07-16T00:10:06.029Z</time>
      </trkpt>
      <trkpt lat="66.91074" lon="13.6342">
        <ele>0.9974</ele>
        <time>2020-07-16T00:10:12.922Z</time>
      </trkpt>
      <trkpt lat="66.91128" lon="13.633">
        <ele>1.008841</ele>
        <time>2020-07-16T00:10:25.670Z</time>
      </trkpt>
      <trkpt lat="66.91171" lon="13.63206">
        <ele>1.016525</ele>
        <time>2020-07-16T00:10:35.928Z</time>
      </trkpt>
      <trkpt lat="66.91218" lon="13.63118">
        <ele>1.024571</ele>
        <time>2020-07-16T00:10:46.367Z</time>
      </trkpt>
      <trkpt lat="66.91296" lon="13.62997">
        <ele>1.06295</ele>
        <time>2020-07-16T00:11:02.775Z</time>
      </trkpt>
      <trkpt lat="66.91391" lon="13.62856">
        <ele>1.083957</ele>
        <time>2020-07-16T00:11:22.494Z</time>
      </trkpt>
      <trkpt lat="66.91477" lon="13.6273">
        <ele>1.010331</ele>
        <time>2020-07-16T00:11:40.073Z</time>
      </trkpt>
      <trkpt lat="66.91637" lon="13.62497">
        <ele>0.678232</ele>
        <time>2020-07-16T00:12:11.789Z</time>
      </trkpt>
      <trkpt lat="66.91832" lon="13.62209">
        <ele>0.168494</ele>
        <time>2020-07-16T00:12:50.390Z</time>
      </trkpt>
      <trkpt lat="66.91858" lon="13.62173">
        <ele>0.163664</ele>
        <time>2020-07-16T00:12:55.572Z</time>
      </trkpt>
      <trkpt lat="66.91898" lon="13.62129">
        <ele>0.194704</ele>
        <time>2020-07-16T00:13:03.302Z</time>
      </trkpt>
      <trkpt lat="66.91916" lon="13.62122">
        <ele>0.207164</ele>
        <time>2020-07-16T00:13:06.423Z</time>
      </trkpt>
      <trkpt lat="66.91942" lon="13.6212">
        <ele>0.225978</ele>
        <time>2020-07-16T00:13:11.210Z</time>
      </trkpt>
      <trkpt lat="66.91956" lon="13.62123">
        <ele>0.23541</ele>
        <time>2020-07-16T00:13:13.655Z</time>
      </trkpt>
      <trkpt lat="66.92026" lon="13.62169">
        <ele>0.420556</ele>
        <time>2020-07-16T00:13:27.167Z</time>
      </trkpt>
      <trkpt lat="66.9205" lon="13.62193">
        <ele>0.663631</ele>
        <time>2020-07-16T00:13:31.962Z</time>
      </trkpt>
      <trkpt lat="66.9212" lon="13.62275">
        <ele>1.398011</ele>
        <time>2020-07-16T00:13:47.552Z</time>
      </trkpt>
      <trkpt lat="66.92143" lon="13.62298">
        <ele>1.632826</ele>
        <time>2020-07-16T00:13:53.036Z</time>
      </trkpt>
      <trkpt lat="66.92157" lon="13.62307">
        <ele>1.777482</ele>
        <time>2020-07-16T00:13:56.403Z</time>
      </trkpt>
      <trkpt lat="66.92177" lon="13.62307">
        <ele>1.965228</ele>
        <time>2020-07-16T00:14:01.186Z</time>
      </trkpt>
      <trkpt lat="66.92184" lon="13.62306">
        <ele>2.074652</ele>
        <time>2020-07-16T00:14:02.856Z</time>
      </trkpt>
      <trkpt lat="66.92198" lon="13.62302">
        <ele>2.392797</ele>
        <time>2020-07-16T00:14:06.349Z</time>
      </trkpt>
      <trkpt lat="66.92224" lon="13.62293">
        <ele>2.966198</ele>
        <time>2020-07-16T00:14:13.241Z</time>
      </trkpt>
      <trkpt lat="66.92269" lon="13.62265">
        <ele>3.958024</ele>
        <time>2020-07-16T00:14:24.830Z</time>
      </trkpt>
      <trkpt lat="66.92287" lon="13.62251">
        <ele>4.374576</ele>
        <time>2020-07-16T00:14:30.041Z</time>
      </trkpt>
      <trkpt lat="66.92336" lon="13.6221">
        <ele>5.482418</ele>
        <time>2020-07-16T00:14:43.313Z</time>
      </trkpt>
      <trkpt lat="66.92436" lon="13.62098">
        <ele>7.30668</ele>
        <time>2020-07-16T00:15:11.312Z</time>
      </trkpt>
      <trkpt lat="66.92474" lon="13.62044">
        <ele>8.000734</ele>
        <time>2020-07-16T00:15:21.417Z</time>
      </trkpt>
      <trkpt lat="66.92482" lon="13.62032">
        <ele>8.136085</ele>
        <time>2020-07-16T00:15:23.275Z</time>
      </trkpt>
      <trkpt lat="66.92508" lon="13.61991">
        <ele>8.623825</ele>
        <time>2020-07-16T00:15:29.918Z</time>
      </trkpt>
      <trkpt lat="66.92525" lon="13.61966">
        <ele>8.640314</ele>
        <time>2020-07-16T00:15:33.779Z</time>
      </trkpt>
      <trkpt lat="66.92559" lon="13.61913">
        <ele>8.428839</ele>
        <time>2020-07-16T00:15:41.813Z</time>
      </trkpt>
      <trkpt lat="66.92635" lon="13.61789">
        <ele>7.950411</ele>
        <time>2020-07-16T00:15:57.143Z</time>
      </trkpt>
      <trkpt lat="66.92691" lon="13.61703">
        <ele>7.080147</ele>
        <time>2020-07-16T00:16:06.960Z</time>
      </trkpt>
      <trkpt lat="66.92784" lon="13.61552">
        <ele>4.477252</ele>
        <time>2020-07-16T00:16:22.749Z</time>
      </trkpt>
      <trkpt lat="66.92862" lon="13.61425">
        <ele>2.679295</ele>
        <time>2020-07-16T00:16:35.811Z</time>
      </trkpt>
      <trkpt lat="66.92884" lon="13.61385">
        <ele>2.233751</ele>
        <time>2020-07-16T00:16:39.829Z</time>
      </trkpt>
      <trkpt lat="66.92918" lon="13.61333">
        <ele>1.587723</ele>
        <time>2020-07-16T00:16:45.879Z</time>
      </trkpt>
      <trkpt lat="66.92928" lon="13.6132">
        <ele>1.403836</ele>
        <time>2020-07-16T00:16:47.652Z</time>
      </trkpt>
      <trkpt lat="66.93002" lon="13.61196">
        <ele>0.548179</ele>
        <time>2020-07-16T00:17:02.527Z</time>
      </trkpt>
      <trkpt lat="66.93544" lon="13.60327">
        <ele>0.122003</ele>
        <time>2020-07-16T00:18:56.451Z</time>
      </trkpt>
      <trkpt lat="66.93735" lon="13.60023">
        <ele>0.184233</ele>
        <time>2020-07-16T00:19:36.845Z</time>
      </trkpt>
      <trkpt lat="66.94155" lon="13.59337">
        <ele>0.260628</ele>
        <time>2020-07-16T00:21:05.671Z</time>
      </trkpt>
      <trkpt lat="66.94212" lon="13.59259">
        <ele>0.819115</ele>
        <time>2020-07-16T00:21:17.505Z</time>
      </trkpt>
      <trkpt lat="66.94311" lon="13.59169">
        <ele>2.769678</ele>
        <time>2020-07-16T00:21:40.772Z</time>
      </trkpt>
      <trkpt lat="66.94359" lon="13.59157">
        <ele>3.711381</ele>
        <time>2020-07-16T00:21:53.849Z</time>
      </trkpt>
      <trkpt lat="66.94395" lon="13.59162">
        <ele>5.655927</ele>
        <time>2020-07-16T00:22:06.379Z</time>
      </trkpt>
      <trkpt lat="66.94426" lon="13.59176">
        <ele>7.394055</ele>
        <time>2020-07-16T00:22:18.094Z</time>
      </trkpt>
      <trkpt lat="66.94474" lon="13.59218">
        <ele>10.157666</ele>
        <time>2020-07-16T00:22:37.089Z</time>
      </trkpt>
      <trkpt lat="66.9449" lon="13.59237">
        <ele>11.131236</ele>
        <time>2020-07-16T00:22:44.474Z</time>
      </trkpt>
      <trkpt lat="66.94519" lon="13.59277">
        <ele>12.911141</ele>
        <time>2020-07-16T00:22:57.717Z</time>
      </trkpt>
      <trkpt lat="66.94915" lon="13.59985">
        <ele>32.144857</ele>
        <time>2020-07-16T00:25:30.106Z</time>
      </trkpt>
      <trkpt lat="66.94951" lon="13.6006">
        <ele>33.305297</ele>
        <time>2020-07-16T00:25:38.699Z</time>
      </trkpt>
      <trkpt lat="66.95015" lon="13.60237">
        <ele>32.073305</ele>
        <time>2020-07-16T00:25:52.925Z</time>
      </trkpt>
      <trkpt lat="66.95054" lon="13.60403">
        <ele>30.368558</ele>
        <time>2020-07-16T00:26:02.930Z</time>
      </trkpt>
      <trkpt lat="66.95128" lon="13.60797">
        <ele>25.039027</ele>
        <time>2020-07-16T00:26:24.917Z</time>
      </trkpt>
      <trkpt lat="66.95153" lon="13.60995">
        <ele>23.16868</ele>
        <time>2020-07-16T00:26:35.931Z</time>
      </trkpt>
      <trkpt lat="66.95158" lon="13.61089">
        <ele>22.636269</ele>
        <time>2020-07-16T00:26:41.214Z</time>
      </trkpt>
      <trkpt lat="66.95154" lon="13.61318">
        <ele>21.338711</ele>
        <time>2020-07-16T00:26:55.226Z</time>
      </trkpt>
      <trkpt lat="66.95101" lon="13.62328">
        <ele>22.773373</ele>
        <time>2020-07-16T00:28:08.816Z</time>
      </trkpt>
      <trkpt lat="66.95097" lon="13.6242">
        <ele>23.846571</ele>
        <time>2020-07-16T00:28:18.086Z</time>
      </trkpt>
      <trkpt lat="66.95092" lon="13.62505">
        <ele>24.833716</ele>
        <time>2020-07-16T00:28:27.634Z</time>
      </trkpt>
      <trkpt lat="66.95077" lon="13.62706">
        <ele>27.182238</ele>
        <time>2020-07-16T00:28:53.810Z</time>
      </trkpt>
      <trkpt lat="66.9504" lon="13.63113">
        <ele>32.08633</ele>
        <time>2020-07-16T00:29:42.470Z</time>
      </trkpt>
      <trkpt lat="66.95029" lon="13.63215">
        <ele>32.000869</ele>
        <time>2020-07-16T00:29:50.044Z</time>
      </trkpt>
      <trkpt lat="66.94993" lon="13.63575">
        <ele>28.847517</ele>
        <time>2020-07-16T00:30:09.473Z</time>
      </trkpt>
      <trkpt lat="66.9494" lon="13.64144">
        <ele>20.574059</ele>
        <time>2020-07-16T00:30:37.920Z</time>
      </trkpt>
      <trkpt lat="66.94934" lon="13.64321">
        <ele>19.503728</ele>
        <time>2020-07-16T00:30:46.854Z</time>
      </trkpt>
      <trkpt lat="66.94926" lon="13.64535">
        <ele>19.548168</ele>
        <time>2020-07-16T00:31:01.916Z</time>
      </trkpt>
      <trkpt lat="66.94908" lon="13.6513">
        <ele>41.285309</ele>
        <time>2020-07-16T00:32:53.950Z</time>
      </trkpt>
      <trkpt lat="66.94907" lon="13.65333">
        <ele>51.540143</ele>
        <time>2020-07-16T00:33:46.219Z</time>
      </trkpt>
      <trkpt lat="66.94941" lon="13.6604">
        <ele>88.506783</ele>
        <time>2020-07-16T00:36:55.678Z</time>
      </trkpt>
      <trkpt lat="66.94927" lon="13.66625">
        <ele>89.774487</ele>
        <time>2020-07-16T00:37:55.320Z</time>
      </trkpt>
      <trkpt lat="66.94925" lon="13.6729">
        <ele>45.34548</ele>
        <time>2020-07-16T00:38:21.765Z</time>
      </trkpt>
      <trkpt lat="66.9492" lon="13.67431">
        <ele>37.294159</ele>
        <time>2020-07-16T00:38:27.427Z</time>
      </trkpt>
      <trkpt lat="66.94918" lon="13.67467">
        <ele>35.199744</ele>
        <time>2020-07-16T00:38:28.888Z</time>
      </trkpt>
      <trkpt lat="66.94915" lon="13.67509">
        <ele>32.798134</ele>
        <time>2020-07-16T00:38:30.652Z</time>
      </trkpt>
      <trkpt lat="66.94911" lon="13.6754">
        <ele>30.952735</ele>
        <time>2020-07-16T00:38:31.958Z</time>
      </trkpt>
      <trkpt lat="66.94903" lon="13.67597">
        <ele>27.482356</ele>
        <time>2020-07-16T00:38:34.499Z</time>
      </trkpt>
      <trkpt lat="66.94794" lon="13.68122">
        <ele>13.556702</ele>
        <time>2020-07-16T00:39:03.355Z</time>
      </trkpt>
      <trkpt lat="66.94744" lon="13.68364">
        <ele>11.971172</ele>
        <time>2020-07-16T00:39:20.407Z</time>
      </trkpt>
      <trkpt lat="66.94719" lon="13.68479">
        <ele>11.211015</ele>
        <time>2020-07-16T00:39:28.458Z</time>
      </trkpt>
      <trkpt lat="66.94695" lon="13.68628">
        <ele>10.474472</ele>
        <time>2020-07-16T00:39:38.171Z</time>
      </trkpt>
      <trkpt lat="66.9469" lon="13.68658">
        <ele>10.336005</ele>
        <time>2020-07-16T00:39:40.102Z</time>
      </trkpt>
      <trkpt lat="66.94676" lon="13.6876">
        <ele>9.864642</ele>
        <time>2020-07-16T00:39:46.627Z</time>
      </trkpt>
      <trkpt lat="66.94663" lon="13.68869">
        <ele>9.365665</ele>
        <time>2020-07-16T00:39:53.362Z</time>
      </trkpt>
      <trkpt lat="66.94665" lon="13.68874">
        <ele>9.338099</ele>
        <time>2020-07-16T00:39:53.746Z</time>
      </trkpt>
      <trkpt lat="66.94669" lon="13.68884">
        <ele>9.279122</ele>
        <time>2020-07-16T00:39:54.510Z</time>
      </trkpt>
      <trkpt lat="66.94645" lon="13.69121">
        <ele>7.865363</ele>
        <time>2020-07-16T00:40:09.612Z</time>
      </trkpt>
      <trkpt lat="66.94641" lon="13.69141">
        <ele>7.720024</ele>
        <time>2020-07-16T00:40:11.003Z</time>
      </trkpt>
      <trkpt lat="66.94635" lon="13.69178">
        <ele>7.476785</ele>
        <time>2020-07-16T00:40:13.346Z</time>
      </trkpt>
      <trkpt lat="66.94613" lon="13.69375">
        <ele>6.236864</ele>
        <time>2020-07-16T00:40:25.507Z</time>
      </trkpt>
      <trkpt lat="66.94609" lon="13.69416">
        <ele>6.035219</ele>
        <time>2020-07-16T00:40:27.937Z</time>
      </trkpt>
      <trkpt lat="66.94605" lon="13.69453">
        <ele>5.851478</ele>
        <time>2020-07-16T00:40:30.275Z</time>
      </trkpt>
      <trkpt lat="66.946" lon="13.69493">
        <ele>5.655577</ele>
        <time>2020-07-16T00:40:32.671Z</time>
      </trkpt>
      <trkpt lat="66.94595" lon="13.69535">
        <ele>5.447162</ele>
        <time>2020-07-16T00:40:35.270Z</time>
      </trkpt>
      <trkpt lat="66.94593" lon="13.69555">
        <ele>5.34765</ele>
        <time>2020-07-16T00:40:36.592Z</time>
      </trkpt>
      <trkpt lat="66.94591" lon="13.6957">
        <ele>5.271926</ele>
        <time>2020-07-16T00:40:37.475Z</time>
      </trkpt>
      <trkpt lat="66.94478" lon="13.7056">
        <ele>0.863835</ele>
        <time>2020-07-16T00:41:42.670Z</time>
      </trkpt>
      <trkpt lat="66.94475" lon="13.70703">
        <ele>0.414555</ele>
        <time>2020-07-16T00:41:52.369Z</time>
      </trkpt>
      <trkpt lat="66.94487" lon="13.71313">
        <ele>0.052669</ele>
        <time>2020-07-16T00:42:35.962Z</time>
      </trkpt>
      <trkpt lat="66.94487" lon="13.71348">
        <ele>0.046557</ele>
        <time>2020-07-16T00:42:38.505Z</time>
      </trkpt>
      <trkpt lat="66.94487" lon="13.71352">
        <ele>0.045805</ele>
        <time>2020-07-16T00:42:38.822Z</time>
      </trkpt>
      <trkpt lat="66.9449" lon="13.71474">
        <ele>0.0245</ele>
        <time>2020-07-16T00:42:47.698Z</time>
      </trkpt>
      <trkpt lat="66.94492" lon="13.71488">
        <ele>0.021835</ele>
        <time>2020-07-16T00:42:48.814Z</time>
      </trkpt>
      <trkpt lat="66.94493" lon="13.71493">
        <ele>0.020941</ele>
        <time>2020-07-16T00:42:49.179Z</time>
      </trkpt>
      <trkpt lat="66.94494" lon="13.71498">
        <ele>0.019999</ele>
        <time>2020-07-16T00:42:49.568Z</time>
      </trkpt>
      <trkpt lat="66.94495" lon="13.71503">
        <ele>0.019105</ele>
        <time>2020-07-16T00:42:49.949Z</time>
      </trkpt>
      <trkpt lat="66.94492" lon="13.71603">
        <ele>0.001619</ele>
        <time>2020-07-16T00:42:57.236Z</time>
      </trkpt>
      <trkpt lat="66.94503" lon="13.72212">
        <ele>9.6</ele>
        <time>2020-07-16T00:43:41.668Z</time>
      </trkpt>
      <trkpt lat="66.94504" lon="13.72252">
        <ele>9.9</ele>
        <time>2020-07-16T00:43:44.582Z</time>
      </trkpt>
      <trkpt lat="66.94505" lon="13.72293">
        <ele>9.8</ele>
        <time>2020-07-16T00:43:47.600Z</time>
      </trkpt>
      <trkpt lat="66.9451" lon="13.72617">
        <ele>12</ele>
        <time>2020-07-16T00:44:11.198Z</time>
      </trkpt>
      <trkpt lat="66.9451" lon="13.72619">
        <ele>12</ele>
        <time>2020-07-16T00:44:11.370Z</time>
      </trkpt>
      <trkpt lat="66.94511" lon="13.72656">
        <ele>12</ele>
        <time>2020-07-16T00:44:14.095Z</time>
      </trkpt>
      <trkpt lat="66.94513" lon="13.72818">
        <ele>12.5</ele>
        <time>2020-07-16T00:44:25.905Z</time>
      </trkpt>
      <trkpt lat="66.94513" lon="13.72826">
        <ele>12.5</ele>
        <time>2020-07-16T00:44:26.465Z</time>
      </trkpt>
      <trkpt lat="66.94514" lon="13.7286">
        <ele>12</ele>
        <time>2020-07-16T00:44:28.940Z</time>
      </trkpt>
      <trkpt lat="66.94515" lon="13.72899">
        <ele>11.8</ele>
        <time>2020-07-16T00:44:31.807Z</time>
      </trkpt>
      <trkpt lat="66.94516" lon="13.72945">
        <ele>11.4</ele>
        <time>2020-07-16T00:44:35.146Z</time>
      </trkpt>
      <trkpt lat="66.94517" lon="13.72982">
        <ele>11.4</ele>
        <time>2020-07-16T00:44:37.826Z</time>
      </trkpt>
      <trkpt lat="66.94522" lon="13.73191">
        <ele>11</ele>
        <time>2020-07-16T00:44:53.092Z</time>
      </trkpt>
      <trkpt lat="66.94522" lon="13.73207">
        <ele>10.5</ele>
        <time>2020-07-16T00:44:54.261Z</time>
      </trkpt>
      <trkpt lat="66.94523" lon="13.73231">
        <ele>9.6</ele>
        <time>2020-07-16T00:44:56.005Z</time>
      </trkpt>
      <trkpt lat="66.94524" lon="13.73254">
        <ele>8.6</ele>
        <time>2020-07-16T00:44:57.695Z</time>
      </trkpt>
      <trkpt lat="66.94524" lon="13.7327">
        <ele>7.6</ele>
        <time>2020-07-16T00:44:58.881Z</time>
      </trkpt>
      <trkpt lat="66.94525" lon="13.73284">
        <ele>7.6</ele>
        <time>2020-07-16T00:44:59.925Z</time>
      </trkpt>
      <trkpt lat="66.94525" lon="13.7331">
        <ele>9.3</ele>
        <time>2020-07-16T00:45:01.776Z</time>
      </trkpt>
      <trkpt lat="66.94529" lon="13.73407">
        <ele>9.8</ele>
        <time>2020-07-16T00:45:08.912Z</time>
      </trkpt>
      <trkpt lat="66.94536" lon="13.73463">
        <ele>10.5</ele>
        <time>2020-07-16T00:45:13.174Z</time>
      </trkpt>
      <trkpt lat="66.94575" lon="13.73635">
        <ele>9</ele>
        <time>2020-07-16T00:45:27.609Z</time>
      </trkpt>
      <trkpt lat="66.94577" lon="13.73647">
        <ele>9</ele>
        <time>2020-07-16T00:45:28.538Z</time>
      </trkpt>
      <trkpt lat="66.94573" lon="13.73656">
        <ele>9</ele>
        <time>2020-07-16T00:45:29.472Z</time>
      </trkpt>
      <trkpt lat="66.94572" lon="13.73657">
        <ele>9</ele>
        <time>2020-07-16T00:45:29.620Z</time>
      </trkpt>
      <trkpt lat="66.94572" lon="13.73657">
        <ele>9</ele>
        <time>2020-07-16T00:45:29.742Z</time>
      </trkpt>
      <trkpt lat="66.94568" lon="13.73666">
        <ele>9</ele>
        <time>2020-07-16T00:45:30.653Z</time>
      </trkpt>
      <trkpt lat="66.94563" lon="13.73676">
        <ele>9.2</ele>
        <time>2020-07-16T00:45:31.841Z</time>
      </trkpt>
      <trkpt lat="66.94562" lon="13.73678">
        <ele>9.3</ele>
        <time>2020-07-16T00:45:32.199Z</time>
      </trkpt>
      <trkpt lat="66.94568" lon="13.73691">
        <ele>9.5</ele>
        <time>2020-07-16T00:45:33.645Z</time>
      </trkpt>
      <trkpt lat="66.94606" lon="13.73842">
        <ele>0.006636</ele>
        <time>2020-07-16T00:45:46.756Z</time>
      </trkpt>
      <trkpt lat="66.94612" lon="13.73867">
        <ele>0.016032</ele>
        <time>2020-07-16T00:45:48.913Z</time>
      </trkpt>
      <trkpt lat="66.94615" lon="13.73877">
        <ele>0.019626</ele>
        <time>2020-07-16T00:45:49.736Z</time>
      </trkpt>
      <trkpt lat="66.94656" lon="13.74046">
        <ele>0.082897</ele>
        <time>2020-07-16T00:46:04.281Z</time>
      </trkpt>
      <trkpt lat="66.94664" lon="13.74079">
        <ele>0.095187</ele>
        <time>2020-07-16T00:46:07.108Z</time>
      </trkpt>
      <trkpt lat="66.94672" lon="13.74113">
        <ele>0.107967</ele>
        <time>2020-07-16T00:46:10.039Z</time>
      </trkpt>
      <trkpt lat="66.94706" lon="13.7425">
        <ele>0.195085</ele>
        <time>2020-07-16T00:46:22.287Z</time>
      </trkpt>
      <trkpt lat="66.94709" lon="13.74265">
        <ele>0.215078</ele>
        <time>2020-07-16T00:46:23.556Z</time>
      </trkpt>
      <trkpt lat="66.94714" lon="13.74284">
        <ele>0.241377</ele>
        <time>2020-07-16T00:46:25.210Z</time>
      </trkpt>
      <trkpt lat="66.94748" lon="13.7442">
        <ele>0.429059</ele>
        <time>2020-07-16T00:46:37.687Z</time>
      </trkpt>
      <trkpt lat="66.94753" lon="13.74438">
        <ele>0.453196</ele>
        <time>2020-07-16T00:46:39.211Z</time>
      </trkpt>
      <trkpt lat="66.94757" lon="13.74455">
        <ele>0.476827</ele>
        <time>2020-07-16T00:46:40.718Z</time>
      </trkpt>
      <trkpt lat="66.9476" lon="13.7447">
        <ele>0.495354</ele>
        <time>2020-07-16T00:46:41.940Z</time>
      </trkpt>
      <trkpt lat="66.94761" lon="13.74473">
        <ele>0.500281</ele>
        <time>2020-07-16T00:46:42.428Z</time>
      </trkpt>
      <trkpt lat="66.94774" lon="13.74548">
        <ele>0.596305</ele>
        <time>2020-07-16T00:46:48.618Z</time>
      </trkpt>
      <trkpt lat="66.94779" lon="13.74558">
        <ele>0.613812</ele>
        <time>2020-07-16T00:46:49.980Z</time>
      </trkpt>
      <trkpt lat="66.9478" lon="13.74562">
        <ele>0.620122</ele>
        <time>2020-07-16T00:46:50.398Z</time>
      </trkpt>
      <trkpt lat="66.94845" lon="13.74817">
        <ele>1.184189</ele>
        <time>2020-07-16T00:47:14.244Z</time>
      </trkpt>
      <trkpt lat="66.94846" lon="13.74823">
        <ele>1.196699</ele>
        <time>2020-07-16T00:47:14.755Z</time>
      </trkpt>
      <trkpt lat="66.94849" lon="13.74834">
        <ele>1.225655</ele>
        <time>2020-07-16T00:47:15.877Z</time>
      </trkpt>
      <trkpt lat="66.94863" lon="13.74919">
        <ele>1.408702</ele>
        <time>2020-07-16T00:47:23.158Z</time>
      </trkpt>
      <trkpt lat="66.9487" lon="13.74932">
        <ele>1.45133</ele>
        <time>2020-07-16T00:47:24.778Z</time>
      </trkpt>
      <trkpt lat="66.94875" lon="13.74945">
        <ele>1.489083</ele>
        <time>2020-07-16T00:47:26.327Z</time>
      </trkpt>
      <trkpt lat="66.94899" lon="13.75039">
        <ele>1.803456</ele>
        <time>2020-07-16T00:47:35.187Z</time>
      </trkpt>
      <trkpt lat="66.94903" lon="13.75054">
        <ele>1.869036</ele>
        <time>2020-07-16T00:47:36.751Z</time>
      </trkpt>
      <trkpt lat="66.94907" lon="13.75073">
        <ele>1.947261</ele>
        <time>2020-07-16T00:47:38.537Z</time>
      </trkpt>
      <trkpt lat="66.94917" lon="13.75149">
        <ele>2.234707</ele>
        <time>2020-07-16T00:47:45.212Z</time>
      </trkpt>
      <trkpt lat="66.94927" lon="13.75167">
        <ele>2.343699</ele>
        <time>2020-07-16T00:47:47.737Z</time>
      </trkpt>
      <trkpt lat="66.94933" lon="13.75166">
        <ele>2.395868</ele>
        <time>2020-07-16T00:47:49.036Z</time>
      </trkpt>
      <trkpt lat="66.94938" lon="13.7516">
        <ele>2.451229</ele>
        <time>2020-07-16T00:47:50.567Z</time>
      </trkpt>
      <trkpt lat="66.94955" lon="13.75227">
        <ele>2.735745</ele>
        <time>2020-07-16T00:47:57.435Z</time>
      </trkpt>
      <trkpt lat="66.94959" lon="13.75245">
        <ele>2.810774</ele>
        <time>2020-07-16T00:47:59.226Z</time>
      </trkpt>
      <trkpt lat="66.94964" lon="13.75265">
        <ele>2.896338</ele>
        <time>2020-07-16T00:48:01.311Z</time>
      </trkpt>
      <trkpt lat="66.95004" lon="13.75432">
        <ele>3.953617</ele>
        <time>2020-07-16T00:48:18.305Z</time>
      </trkpt>
      <trkpt lat="66.95012" lon="13.75466">
        <ele>4.238184</ele>
        <time>2020-07-16T00:48:21.927Z</time>
      </trkpt>
      <trkpt lat="66.95021" lon="13.755">
        <ele>4.534546</ele>
        <time>2020-07-16T00:48:25.726Z</time>
      </trkpt>
      <trkpt lat="66.95034" lon="13.75556">
        <ele>5.000035</ele>
        <time>2020-07-16T00:48:31.854Z</time>
      </trkpt>
      <trkpt lat="66.95058" lon="13.75652">
        <ele>5.81895</ele>
        <time>2020-07-16T00:48:42.940Z</time>
      </trkpt>
      <trkpt lat="66.95088" lon="13.75773">
        <ele>7.16876</ele>
        <time>2020-07-16T00:48:57.847Z</time>
      </trkpt>
      <trkpt lat="66.95127" lon="13.75953">
        <ele>10.138991</ele>
        <time>2020-07-16T00:49:21.049Z</time>
      </trkpt>
      <trkpt lat="66.9517" lon="13.76245">
        <ele>15.475504</ele>
        <time>2020-07-16T00:50:01.439Z</time>
      </trkpt>
      <trkpt lat="66.95216" lon="13.76446">
        <ele>20.672816</ele>
        <time>2020-07-16T00:50:35.558Z</time>
      </trkpt>
      <trkpt lat="66.95238" lon="13.76518">
        <ele>22.701218</ele>
        <time>2020-07-16T00:50:49.309Z</time>
      </trkpt>
      <trkpt lat="66.95265" lon="13.76601">
        <ele>25.465877</ele>
        <time>2020-07-16T00:51:05.891Z</time>
      </trkpt>
      <trkpt lat="66.9535" lon="13.76849">
        <ele>34.494171</ele>
        <time>2020-07-16T00:51:59.827Z</time>
      </trkpt>
      <trkpt lat="66.95486" lon="13.77267">
        <ele>48.701066</ele>
        <time>2020-07-16T00:53:27.341Z</time>
      </trkpt>
      <trkpt lat="66.95681" lon="13.78068">
        <ele>64.514946</ele>
        <time>2020-07-16T00:55:24.048Z</time>
      </trkpt>
      <trkpt lat="66.9572" lon="13.78238">
        <ele>67.710592</ele>
        <time>2020-07-16T00:55:48.259Z</time>
      </trkpt>
      <trkpt lat="66.95764" lon="13.78601">
        <ele>73.582173</ele>
        <time>2020-07-16T00:56:36.600Z</time>
      </trkpt>
      <trkpt lat="66.95802" lon="13.78929">
        <ele>78.003143</ele>
        <time>2020-07-16T00:57:17.216Z</time>
      </trkpt>
      <trkpt lat="66.95855" lon="13.79438">
        <ele>78.731256</ele>
        <time>2020-07-16T00:58:23.479Z</time>
      </trkpt>
      <trkpt lat="66.95933" lon="13.80131">
        <ele>69.87538</ele>
        <time>2020-07-16T00:59:28.711Z</time>
      </trkpt>
      <trkpt lat="66.95952" lon="13.80335">
        <ele>67.191995</ele>
        <time>2020-07-16T00:59:48.033Z</time>
      </trkpt>
      <trkpt lat="66.9596" lon="13.80345">
        <ele>66.917034</ele>
        <time>2020-07-16T00:59:50.056Z</time>
      </trkpt>
      <trkpt lat="66.95963" lon="13.8041">
        <ele>66.133157</ele>
        <time>2020-07-16T00:59:53.834Z</time>
      </trkpt>
      <trkpt lat="66.95963" lon="13.80416">
        <ele>66.062955</ele>
        <time>2020-07-16T00:59:54.147Z</time>
      </trkpt>
      <trkpt lat="66.95964" lon="13.80434">
        <ele>65.849973</ele>
        <time>2020-07-16T00:59:55.066Z</time>
      </trkpt>
      <trkpt lat="66.95964" lon="13.80511">
        <ele>64.936832</ele>
        <time>2020-07-16T00:59:59.214Z</time>
      </trkpt>
      <trkpt lat="66.95957" lon="13.80802">
        <ele>61.837936</ele>
        <time>2020-07-16T01:00:14.280Z</time>
      </trkpt>
      <trkpt lat="66.95938" lon="13.8128">
        <ele>58.39662</ele>
        <time>2020-07-16T01:00:40.662Z</time>
      </trkpt>
      <trkpt lat="66.95925" lon="13.81617">
        <ele>57.210453</ele>
        <time>2020-07-16T01:01:05.320Z</time>
      </trkpt>
      <trkpt lat="66.95901" lon="13.8222">
        <ele>54.553862</ele>
        <time>2020-07-16T01:01:39.656Z</time>
      </trkpt>
      <trkpt lat="66.95889" lon="13.82483">
        <ele>54.224686</ele>
        <time>2020-07-16T01:01:54.765Z</time>
      </trkpt>
      <trkpt lat="66.95885" lon="13.82622">
        <ele>62.274233</ele>
        <time>2020-07-16T01:02:14.196Z</time>
      </trkpt>
      <trkpt lat="66.95881" lon="13.82769">
        <ele>70.749937</ele>
        <time>2020-07-16T01:02:50.733Z</time>
      </trkpt>
      <trkpt lat="66.9588" lon="13.82887">
        <ele>77.55361</ele>
        <time>2020-07-16T01:03:32.100Z</time>
      </trkpt>
      <trkpt lat="66.95883" lon="13.83092">
        <ele>98.48191</ele>
        <time>2020-07-16T01:04:46.792Z</time>
      </trkpt>
      <trkpt lat="66.95882" lon="13.83286">
        <ele>121.033479</ele>
        <time>2020-07-16T01:05:58.599Z</time>
      </trkpt>
      <trkpt lat="66.9586" lon="13.8364">
        <ele>146.621405</ele>
        <time>2020-07-16T01:08:07.923Z</time>
      </trkpt>
      <trkpt lat="66.95391" lon="13.89262">
        <ele>115.130216</ele>
        <time>2020-07-16T01:13:53.387Z</time>
      </trkpt>
      <trkpt lat="66.95376" lon="13.89401">
        <ele>97.028566</ele>
        <time>2020-07-16T01:13:59.465Z</time>
      </trkpt>
      <trkpt lat="66.95353" lon="13.89537">
        <ele>78.381123</ele>
        <time>2020-07-16T01:14:05.842Z</time>
      </trkpt>
      <trkpt lat="66.95318" lon="13.89683">
        <ele>57.51468</ele>
        <time>2020-07-16T01:14:13.245Z</time>
      </trkpt>
      <trkpt lat="66.95294" lon="13.89756">
        <ele>47.782355</ele>
        <time>2020-07-16T01:14:17.297Z</time>
      </trkpt>
      <trkpt lat="66.95278" lon="13.8981">
        <ele>40.754843</ele>
        <time>2020-07-16T01:14:20.188Z</time>
      </trkpt>
      <trkpt lat="66.95254" lon="13.89869">
        <ele>32.171825</ele>
        <time>2020-07-16T01:14:23.529Z</time>
      </trkpt>
      <trkpt lat="66.95223" lon="13.89935">
        <ele>21.589504</ele>
        <time>2020-07-16T01:14:27.639Z</time>
      </trkpt>
      <trkpt lat="66.95148" lon="13.9005">
        <ele>9.612526</ele>
        <time>2020-07-16T01:14:37.039Z</time>
      </trkpt>
      <trkpt lat="66.95131" lon="13.90068">
        <ele>8.454378</ele>
        <time>2020-07-16T01:14:39.153Z</time>
      </trkpt>
      <trkpt lat="66.95097" lon="13.90107">
        <ele>6.025566</ele>
        <time>2020-07-16T01:14:44.006Z</time>
      </trkpt>
      <trkpt lat="66.95003" lon="13.90194">
        <ele>1.476501</ele>
        <time>2020-07-16T01:14:57.615Z</time>
      </trkpt>
      <trkpt lat="66.94913" lon="13.90278">
        <ele>1.039921</ele>
        <time>2020-07-16T01:15:14.155Z</time>
      </trkpt>
      <trkpt lat="66.9486" lon="13.90325">
        <ele>0.86076</ele>
        <time>2020-07-16T01:15:24.975Z</time>
      </trkpt>
      <trkpt lat="66.94784" lon="13.9042">
        <ele>2.163175</ele>
        <time>2020-07-16T01:15:43.405Z</time>
      </trkpt>
      <trkpt lat="66.94735" lon="13.90546">
        <ele>3.2275</ele>
        <time>2020-07-16T01:16:00.477Z</time>
      </trkpt>
      <trkpt lat="66.9472" lon="13.90606">
        <ele>3.653038</ele>
        <time>2020-07-16T01:16:07.262Z</time>
      </trkpt>
      <trkpt lat="66.9471" lon="13.90674">
        <ele>4.099706</ele>
        <time>2020-07-16T01:16:14.281Z</time>
      </trkpt>
      <trkpt lat="66.94704" lon="13.90717">
        <ele>4.377012</ele>
        <time>2020-07-16T01:16:18.445Z</time>
      </trkpt>
      <trkpt lat="66.94699" lon="13.90758">
        <ele>4.644167</ele>
        <time>2020-07-16T01:16:22.576Z</time>
      </trkpt>
      <trkpt lat="66.94689" lon="13.90855">
        <ele>5.259647</ele>
        <time>2020-07-16T01:16:31.719Z</time>
      </trkpt>
      <trkpt lat="66.94668" lon="13.91074">
        <ele>6.404279</ele>
        <time>2020-07-16T01:16:51.146Z</time>
      </trkpt>
      <trkpt lat="66.94646" lon="13.91294">
        <ele>6.50262</ele>
        <time>2020-07-16T01:17:07.369Z</time>
      </trkpt>
      <trkpt lat="66.94639" lon="13.91373">
        <ele>6.53781</ele>
        <time>2020-07-16T01:17:12.771Z</time>
      </trkpt>
      <trkpt lat="66.94633" lon="13.91484">
        <ele>6.57898</ele>
        <time>2020-07-16T01:17:20.153Z</time>
      </trkpt>
      <trkpt lat="66.94631" lon="13.91561">
        <ele>6.429121</ele>
        <time>2020-07-16T01:17:25.107Z</time>
      </trkpt>
      <trkpt lat="66.94642" lon="13.91701">
        <ele>6.154197</ele>
        <time>2020-07-16T01:17:34.225Z</time>
      </trkpt>
      <trkpt lat="66.94642" lon="13.91707">
        <ele>6.142684</ele>
        <time>2020-07-16T01:17:34.583Z</time>
      </trkpt>
      <trkpt lat="66.9465" lon="13.91761">
        <ele>6.031163</ele>
        <time>2020-07-16T01:17:38.299Z</time>
      </trkpt>
      <trkpt lat="66.94669" lon="13.91854">
        <ele>5.82812</ele>
        <time>2020-07-16T01:17:45.125Z</time>
      </trkpt>
      <trkpt lat="66.94674" lon="13.91873">
        <ele>5.784389</ele>
        <time>2020-07-16T01:17:46.543Z</time>
      </trkpt>
      <trkpt lat="66.9469" lon="13.91929">
        <ele>5.676463</ele>
        <time>2020-07-16T01:17:51.026Z</time>
      </trkpt>
      <trkpt lat="66.94787" lon="13.92298">
        <ele>5.285084</ele>
        <time>2020-07-16T01:18:20.869Z</time>
      </trkpt>
      <trkpt lat="66.94823" lon="13.92462">
        <ele>5.310173</ele>
        <time>2020-07-16T01:18:34.422Z</time>
      </trkpt>
      <trkpt lat="66.94872" lon="13.92683">
        <ele>5.343924</ele>
        <time>2020-07-16T01:18:52.355Z</time>
      </trkpt>
      <trkpt lat="66.94896" lon="13.92789">
        <ele>5.150521</ele>
        <time>2020-07-16T01:19:00.869Z</time>
      </trkpt>
      <trkpt lat="66.94987" lon="13.93197">
        <ele>4.053274</ele>
        <time>2020-07-16T01:19:30.961Z</time>
      </trkpt>
      <trkpt lat="66.95073" lon="13.93578">
        <ele>2.247282</ele>
        <time>2020-07-16T01:19:56.910Z</time>
      </trkpt>
      <trkpt lat="66.95085" lon="13.93635">
        <ele>1.975067</ele>
        <time>2020-07-16T01:20:00.732Z</time>
      </trkpt>
      <trkpt lat="66.95133" lon="13.9385">
        <ele>0.939383</ele>
        <time>2020-07-16T01:20:15.693Z</time>
      </trkpt>
      <trkpt lat="66.95148" lon="13.93936">
        <ele>0.692943</ele>
        <time>2020-07-16T01:20:21.612Z</time>
      </trkpt>
      <trkpt lat="66.95174" lon="13.94162">
        <ele>0.368992</ele>
        <time>2020-07-16T01:20:36.952Z</time>
      </trkpt>
      <trkpt lat="66.95182" lon="13.94246">
        <ele>0.248792</ele>
        <time>2020-07-16T01:20:42.833Z</time>
      </trkpt>
      <trkpt lat="66.95185" lon="13.94279">
        <ele>0.201968</ele>
        <time>2020-07-16T01:20:45.148Z</time>
      </trkpt>
      <trkpt lat="66.95206" lon="13.94473">
        <ele>0.333721</ele>
        <time>2020-07-16T01:20:59.224Z</time>
      </trkpt>
      <trkpt lat="66.9524" lon="13.94594">
        <ele>0.534569</ele>
        <time>2020-07-16T01:21:10.132Z</time>
      </trkpt>
      <trkpt lat="66.95271" lon="13.94652">
        <ele>0.666089</ele>
        <time>2020-07-16T01:21:17.774Z</time>
      </trkpt>
      <trkpt lat="66.95333" lon="13.94757">
        <ele>1.172708</ele>
        <time>2020-07-16T01:21:33.381Z</time>
      </trkpt>
      <trkpt lat="66.95354" lon="13.94802">
        <ele>1.404072</ele>
        <time>2020-07-16T01:21:38.954Z</time>
      </trkpt>
      <trkpt lat="66.95366" lon="13.94838">
        <ele>1.557983</ele>
        <time>2020-07-16T01:21:42.565Z</time>
      </trkpt>
      <trkpt lat="66.9539" lon="13.94913">
        <ele>1.878247</ele>
        <time>2020-07-16T01:21:50.137Z</time>
      </trkpt>
      <trkpt lat="66.95416" lon="13.95007">
        <ele>2.254914</ele>
        <time>2020-07-16T01:21:59.389Z</time>
      </trkpt>
      <trkpt lat="66.95428" lon="13.95048">
        <ele>2.690918</ele>
        <time>2020-07-16T01:22:03.534Z</time>
      </trkpt>
      <trkpt lat="66.95464" lon="13.95149">
        <ele>3.878515</ele>
        <time>2020-07-16T01:22:15.481Z</time>
      </trkpt>
      <trkpt lat="66.95494" lon="13.95206">
        <ele>4.71835</ele>
        <time>2020-07-16T01:22:24.176Z</time>
      </trkpt>
      <trkpt lat="66.95597" lon="13.95359">
        <ele>9.085452</ele>
        <time>2020-07-16T01:22:58.629Z</time>
      </trkpt>
      <trkpt lat="66.95665" lon="13.95492">
        <ele>14.008664</ele>
        <time>2020-07-16T01:23:32.052Z</time>
      </trkpt>
      <trkpt lat="66.95705" lon="13.95576">
        <ele>16.938002</ele>
        <time>2020-07-16T01:23:52.879Z</time>
      </trkpt>
      <trkpt lat="66.95733" lon="13.95637">
        <ele>19.04718</ele>
        <time>2020-07-16T01:24:07.852Z</time>
      </trkpt>
      <trkpt lat="66.95856" lon="13.95906">
        <ele>27.561437</ele>
        <time>2020-07-16T01:25:04.833Z</time>
      </trkpt>
      <trkpt lat="66.95873" lon="13.95949">
        <ele>28.271247</ele>
        <time>2020-07-16T01:25:11.438Z</time>
      </trkpt>
      <trkpt lat="66.95916" lon="13.96076">
        <ele>30.227688</ele>
        <time>2020-07-16T01:25:28.729Z</time>
      </trkpt>
      <trkpt lat="66.95936" lon="13.96157">
        <ele>31.337193</ele>
        <time>2020-07-16T01:25:38.028Z</time>
      </trkpt>
      <trkpt lat="66.95964" lon="13.96335">
        <ele>32.72853</ele>
        <time>2020-07-16T01:25:55.751Z</time>
      </trkpt>
      <trkpt lat="66.95981" lon="13.9654">
        <ele>33.73146</ele>
        <time>2020-07-16T01:26:13.907Z</time>
      </trkpt>
      <trkpt lat="66.95988" lon="13.96644">
        <ele>34.239779</ele>
        <time>2020-07-16T01:26:22.283Z</time>
      </trkpt>
      <trkpt lat="66.95996" lon="13.96767">
        <ele>33.98102</ele>
        <time>2020-07-16T01:26:31.218Z</time>
      </trkpt>
      <trkpt lat="66.95999" lon="13.96818">
        <ele>33.796975</ele>
        <time>2020-07-16T01:26:34.800Z</time>
      </trkpt>
      <trkpt lat="66.96024" lon="13.97209">
        <ele>31.830246</ele>
        <time>2020-07-16T01:26:57.692Z</time>
      </trkpt>
      <trkpt lat="66.96034" lon="13.97351">
        <ele>30.415471</ele>
        <time>2020-07-16T01:27:05.296Z</time>
      </trkpt>
      <trkpt lat="66.96113" lon="13.98038">
        <ele>23.265948</ele>
        <time>2020-07-16T01:27:42.757Z</time>
      </trkpt>
      <trkpt lat="66.96123" lon="13.98129">
        <ele>22.843587</ele>
        <time>2020-07-16T01:27:48.216Z</time>
      </trkpt>
      <trkpt lat="66.96132" lon="13.98216">
        <ele>22.443337</ele>
        <time>2020-07-16T01:27:53.575Z</time>
      </trkpt>
      <trkpt lat="66.9614" lon="13.98287">
        <ele>22.112191</ele>
        <time>2020-07-16T01:27:58.184Z</time>
      </trkpt>
      <trkpt lat="66.96146" lon="13.98329">
        <ele>21.914136</ele>
        <time>2020-07-16T01:28:01.006Z</time>
      </trkpt>
      <trkpt lat="66.96161" lon="13.98467">
        <ele>21.318022</ele>
        <time>2020-07-16T01:28:10.506Z</time>
      </trkpt>
      <trkpt lat="66.96169" lon="13.98532">
        <ele>21.163428</ele>
        <time>2020-07-16T01:28:15.039Z</time>
      </trkpt>
      <trkpt lat="66.96198" lon="13.98782">
        <ele>20.569909</ele>
        <time>2020-07-16T01:28:31.863Z</time>
      </trkpt>
      <trkpt lat="66.96253" lon="13.99246">
        <ele>19.06823</ele>
        <time>2020-07-16T01:29:01.704Z</time>
      </trkpt>
      <trkpt lat="66.96299" lon="13.99494">
        <ele>18.257467</ele>
        <time>2020-07-16T01:29:18.471Z</time>
      </trkpt>
      <trkpt lat="66.9635" lon="13.99676">
        <ele>17.634496</ele>
        <time>2020-07-16T01:29:32.751Z</time>
      </trkpt>
      <trkpt lat="66.96382" lon="13.99819">
        <ele>16.944252</ele>
        <time>2020-07-16T01:29:43.502Z</time>
      </trkpt>
      <trkpt lat="66.964" lon="13.99971">
        <ele>16.186119</ele>
        <time>2020-07-16T01:29:53.218Z</time>
      </trkpt>
      <trkpt lat="66.96403" lon="14.00051">
        <ele>15.801639</ele>
        <time>2020-07-16T01:29:57.898Z</time>
      </trkpt>
      <trkpt lat="66.96404" lon="14.00126">
        <ele>15.444684</ele>
        <time>2020-07-16T01:30:02.117Z</time>
      </trkpt>
      <trkpt lat="66.96367" lon="14.00717">
        <ele>11.001868</ele>
        <time>2020-07-16T01:30:33.826Z</time>
      </trkpt>
      <trkpt lat="66.96362" lon="14.00776">
        <ele>11.071948</ele>
        <time>2020-07-16T01:30:37.548Z</time>
      </trkpt>
      <trkpt lat="66.96348" lon="14.00867">
        <ele>11.188535</ele>
        <time>2020-07-16T01:30:44.956Z</time>
      </trkpt>
      <trkpt lat="66.96331" lon="14.00933">
        <ele>11.281605</ele>
        <time>2020-07-16T01:30:51.986Z</time>
      </trkpt>
      <trkpt lat="66.963" lon="14.01011">
        <ele>11.41464</ele>
        <time>2020-07-16T01:31:03.502Z</time>
      </trkpt>
      <trkpt lat="66.9619" lon="14.01169">
        <ele>13.899075</ele>
        <time>2020-07-16T01:31:38.774Z</time>
      </trkpt>
      <trkpt lat="66.9618" lon="14.01198">
        <ele>14.195624</ele>
        <time>2020-07-16T01:31:42.262Z</time>
      </trkpt>
      <trkpt lat="66.9617" lon="14.01291">
        <ele>14.93908</ele>
        <time>2020-07-16T01:31:49.678Z</time>
      </trkpt>
      <trkpt lat="66.96178" lon="14.01361">
        <ele>14.097127</ele>
        <time>2020-07-16T01:31:54.107Z</time>
      </trkpt>
      <trkpt lat="66.96186" lon="14.01396">
        <ele>13.580194</ele>
        <time>2020-07-16T01:31:56.372Z</time>
      </trkpt>
      <trkpt lat="66.96209" lon="14.01445">
        <ele>12.604867</ele>
        <time>2020-07-16T01:32:00.166Z</time>
      </trkpt>
      <trkpt lat="66.96317" lon="14.01536">
        <ele>8.939747</ele>
        <time>2020-07-16T01:32:14.267Z</time>
      </trkpt>
      <trkpt lat="66.96344" lon="14.01554">
        <ele>8.104806</ele>
        <time>2020-07-16T01:32:17.591Z</time>
      </trkpt>
      <trkpt lat="66.96356" lon="14.01562">
        <ele>7.723372</ele>
        <time>2020-07-16T01:32:19.281Z</time>
      </trkpt>
      <trkpt lat="66.9639" lon="14.01584">
        <ele>6.654943</ele>
        <time>2020-07-16T01:32:23.732Z</time>
      </trkpt>
      <trkpt lat="66.96461" lon="14.0159">
        <ele>4.509823</ele>
        <time>2020-07-16T01:32:33.223Z</time>
      </trkpt>
      <trkpt lat="66.9652" lon="14.01567">
        <ele>3.573218</ele>
        <time>2020-07-16T01:32:42.366Z</time>
      </trkpt>
      <trkpt lat="66.96693" lon="14.0147">
        <ele>3.22883</ele>
        <time>2020-07-16T01:33:13.239Z</time>
      </trkpt>
      <trkpt lat="66.96717" lon="14.01467">
        <ele>3.457898</ele>
        <time>2020-07-16T01:33:18.146Z</time>
      </trkpt>
      <trkpt lat="66.96761" lon="14.01482">
        <ele>3.86268</ele>
        <time>2020-07-16T01:33:27.225Z</time>
      </trkpt>
      <trkpt lat="66.96879" lon="14.01581">
        <ele>5.60716</ele>
        <time>2020-07-16T01:33:55.361Z</time>
      </trkpt>
      <trkpt lat="66.96914" lon="14.01597">
        <ele>6.442418</ele>
        <time>2020-07-16T01:34:03.860Z</time>
      </trkpt>
      <trkpt lat="66.9693" lon="14.01596">
        <ele>6.801842</ele>
        <time>2020-07-16T01:34:08.176Z</time>
      </trkpt>
      <trkpt lat="66.96945" lon="14.01592">
        <ele>7.153985</ele>
        <time>2020-07-16T01:34:11.473Z</time>
      </trkpt>
      <trkpt lat="66.97044" lon="14.01542">
        <ele>9.992753</ele>
        <time>2020-07-16T01:34:39.228Z</time>
      </trkpt>
      <trkpt lat="66.97091" lon="14.01563">
        <ele>11.875923</ele>
        <time>2020-07-16T01:34:53.431Z</time>
      </trkpt>
      <trkpt lat="66.97243" lon="14.01687">
        <ele>17.295978</ele>
        <time>2020-07-16T01:35:44.838Z</time>
      </trkpt>
      <trkpt lat="66.97323" lon="14.01657">
        <ele>19.304968</ele>
        <time>2020-07-16T01:36:05.961Z</time>
      </trkpt>
      <trkpt lat="66.97364" lon="14.01662">
        <ele>20.306224</ele>
        <time>2020-07-16T01:36:14.315Z</time>
      </trkpt>
      <trkpt lat="66.97595" lon="14.01872">
        <ele>19.642139</ele>
        <time>2020-07-16T01:36:51.007Z</time>
      </trkpt>
      <trkpt lat="66.9762" lon="14.01905">
        <ele>20.117182</ele>
        <time>2020-07-16T01:36:56.433Z</time>
      </trkpt>
      <trkpt lat="66.97654" lon="14.0197">
        <ele>20.840707</ele>
        <time>2020-07-16T01:37:06.928Z</time>
      </trkpt>
      <trkpt lat="66.97678" lon="14.02048">
        <ele>21.496786</ele>
        <time>2020-07-16T01:37:19.505Z</time>
      </trkpt>
      <trkpt lat="66.97687" lon="14.02094">
        <ele>22.788338</ele>
        <time>2020-07-16T01:37:27.639Z</time>
      </trkpt>
      <trkpt lat="66.97701" lon="14.0223">
        <ele>27.190113</ele>
        <time>2020-07-16T01:37:50.827Z</time>
      </trkpt>
      <trkpt lat="66.97714" lon="14.02365">
        <ele>31.526369</ele>
        <time>2020-07-16T01:38:15.617Z</time>
      </trkpt>
      <trkpt lat="66.97726" lon="14.02474">
        <ele>35.078893</ele>
        <time>2020-07-16T01:38:36.870Z</time>
      </trkpt>
      <trkpt lat="66.97742" lon="14.02568">
        <ele>38.120869</ele>
        <time>2020-07-16T01:38:56.033Z</time>
      </trkpt>
      <trkpt lat="66.97768" lon="14.02671">
        <ele>41.707314</ele>
        <time>2020-07-16T01:39:18.808Z</time>
      </trkpt>
      <trkpt lat="66.9781" lon="14.02808">
        <ele>46.728745</ele>
        <time>2020-07-16T01:39:46.256Z</time>
      </trkpt>
      <trkpt lat="66.97861" lon="14.0298">
        <ele>50.908609</ele>
        <time>2020-07-16T01:40:14.602Z</time>
      </trkpt>
      <trkpt lat="66.97914" lon="14.03159">
        <ele>53.682064</ele>
        <time>2020-07-16T01:40:39.029Z</time>
      </trkpt>
      <trkpt lat="66.97954" lon="14.03276">
        <ele>54.995755</ele>
        <time>2020-07-16T01:40:52.855Z</time>
      </trkpt>
      <trkpt lat="66.98103" lon="14.03557">
        <ele>54.020891</ele>
        <time>2020-07-16T01:41:23.263Z</time>
      </trkpt>
      <trkpt lat="66.98154" lon="14.03641">
        <ele>52.420205</ele>
        <time>2020-07-16T01:41:31.753Z</time>
      </trkpt>
      <trkpt lat="66.98472" lon="14.03972">
        <ele>41.329605</ele>
        <time>2020-07-16T01:42:15.710Z</time>
      </trkpt>
      <trkpt lat="66.98501" lon="14.04014">
        <ele>40.331879</ele>
        <time>2020-07-16T01:42:19.851Z</time>
      </trkpt>
      <trkpt lat="66.98542" lon="14.041">
        <ele>38.741724</ele>
        <time>2020-07-16T01:42:26.944Z</time>
      </trkpt>
      <trkpt lat="66.98579" lon="14.04232">
        <ele>38.56142</ele>
        <time>2020-07-16T01:42:36.532Z</time>
      </trkpt>
      <trkpt lat="66.98591" lon="14.04287">
        <ele>38.949033</ele>
        <time>2020-07-16T01:42:40.705Z</time>
      </trkpt>
      <trkpt lat="66.98598" lon="14.0435">
        <ele>39.358375</ele>
        <time>2020-07-16T01:42:46.420Z</time>
      </trkpt>
      <trkpt lat="66.98613" lon="14.0457">
        <ele>40.747927</ele>
        <time>2020-07-16T01:43:10.424Z</time>
      </trkpt>
      <trkpt lat="66.98636" lon="14.05087">
        <ele>50.008336</ele>
        <time>2020-07-16T01:44:21.171Z</time>
      </trkpt>
      <trkpt lat="66.98655" lon="14.05248">
        <ele>51.564316</ele>
        <time>2020-07-16T01:44:38.974Z</time>
      </trkpt>
      <trkpt lat="66.98674" lon="14.0536">
        <ele>52.701091</ele>
        <time>2020-07-16T01:44:49.919Z</time>
      </trkpt>
      <trkpt lat="66.98753" lon="14.05779">
        <ele>55.72901</ele>
        <time>2020-07-16T01:45:26.699Z</time>
      </trkpt>
      <trkpt lat="66.98756" lon="14.05858">
        <ele>56.16484</ele>
        <time>2020-07-16T01:45:34.525Z</time>
      </trkpt>
      <trkpt lat="66.9875" lon="14.0594">
        <ele>57.253899</ele>
        <time>2020-07-16T01:45:43.474Z</time>
      </trkpt>
      <trkpt lat="66.98736" lon="14.06024">
        <ele>59.043073</ele>
        <time>2020-07-16T01:45:54.055Z</time>
      </trkpt>
      <trkpt lat="66.98693" lon="14.06134">
        <ele>62.05826</ele>
        <time>2020-07-16T01:46:13.725Z</time>
      </trkpt>
      <trkpt lat="66.98666" lon="14.06172">
        <ele>63.618694</ele>
        <time>2020-07-16T01:46:24.913Z</time>
      </trkpt>
      <trkpt lat="66.98565" lon="14.06259">
        <ele>73.92765</ele>
        <time>2020-07-16T01:47:10.648Z</time>
      </trkpt>
      <trkpt lat="66.98523" lon="14.06336">
        <ele>80.125684</ele>
        <time>2020-07-16T01:47:39.457Z</time>
      </trkpt>
      <trkpt lat="66.9849" lon="14.06435">
        <ele>86.258872</ele>
        <time>2020-07-16T01:48:14.144Z</time>
      </trkpt>
      <trkpt lat="66.98468" lon="14.0656">
        <ele>96.899553</ele>
        <time>2020-07-16T01:48:57.093Z</time>
      </trkpt>
      <trkpt lat="66.98452" lon="14.06729">
        <ele>111.057341</ele>
        <time>2020-07-16T01:49:58.572Z</time>
      </trkpt>
      <trkpt lat="66.98449" lon="14.06874">
        <ele>122.819799</ele>
        <time>2020-07-16T01:50:50.075Z</time>
      </trkpt>
      <trkpt lat="66.98453" lon="14.06943">
        <ele>127.140752</ele>
        <time>2020-07-16T01:51:13.967Z</time>
      </trkpt>
      <trkpt lat="66.98473" lon="14.07074">
        <ele>134.796717</ele>
        <time>2020-07-16T01:51:56.333Z</time>
      </trkpt>
      <trkpt lat="66.98504" lon="14.07157">
        <ele>141.038573</ele>
        <time>2020-07-16T01:52:24.129Z</time>
      </trkpt>
      <trkpt lat="66.98548" lon="14.07216">
        <ele>147.883415</ele>
        <time>2020-07-16T01:52:47.003Z</time>
      </trkpt>
      <trkpt lat="66.98653" lon="14.07312">
        <ele>153.569676</ele>
        <time>2020-07-16T01:53:18.849Z</time>
      </trkpt>
      <trkpt lat="66.98718" lon="14.07411">
        <ele>156.754369</ele>
        <time>2020-07-16T01:53:37.791Z</time>
      </trkpt>
      <trkpt lat="66.98926" lon="14.0792">
        <ele>178.703232</ele>
        <time>2020-07-16T01:55:40.508Z</time>
      </trkpt>
      <trkpt lat="66.98968" lon="14.08063">
        <ele>184.807668</ele>
        <time>2020-07-16T01:56:16.667Z</time>
      </trkpt>
      <trkpt lat="66.9901" lon="14.08234">
        <ele>188.585014</ele>
        <time>2020-07-16T01:56:53.642Z</time>
      </trkpt>
      <trkpt lat="66.9913" lon="14.08729">
        <ele>191.445414</ele>
        <time>2020-07-16T01:57:42.262Z</time>
      </trkpt>
      <trkpt lat="66.99138" lon="14.08769">
        <ele>191.160959</ele>
        <time>2020-07-16T01:57:44.205Z</time>
      </trkpt>
      <trkpt lat="66.99149" lon="14.08886">
        <ele>190.228115</ele>
        <time>2020-07-16T01:57:49.793Z</time>
      </trkpt>
      <trkpt lat="66.99153" lon="14.09124">
        <ele>186.220142</ele>
        <time>2020-07-16T01:58:00.473Z</time>
      </trkpt>
      <trkpt lat="66.99173" lon="14.09282">
        <ele>183.422034</ele>
        <time>2020-07-16T01:58:09.078Z</time>
      </trkpt>
      <trkpt lat="66.992" lon="14.09409">
        <ele>184.26268</ele>
        <time>2020-07-16T01:58:20.847Z</time>
      </trkpt>
      <trkpt lat="66.99206" lon="14.09442">
        <ele>184.812995</ele>
        <time>2020-07-16T01:58:24.161Z</time>
      </trkpt>
      <trkpt lat="66.99237" lon="14.09601">
        <ele>187.360719</ele>
        <time>2020-07-16T01:58:45.412Z</time>
      </trkpt>
      <trkpt lat="66.99247" lon="14.09661">
        <ele>188.315001</ele>
        <time>2020-07-16T01:58:55.212Z</time>
      </trkpt>
      <trkpt lat="66.9928" lon="14.09879">
        <ele>191.904143</ele>
        <time>2020-07-16T01:59:33.642Z</time>
      </trkpt>
      <trkpt lat="66.99292" lon="14.10013">
        <ele>194.074496</ele>
        <time>2020-07-16T01:59:53.833Z</time>
      </trkpt>
      <trkpt lat="66.99303" lon="14.10191">
        <ele>196.208007</ele>
        <time>2020-07-16T02:00:11.965Z</time>
      </trkpt>
      <trkpt lat="66.99256" lon="14.12452">
        <ele>125.190845</ele>
        <time>2020-07-16T02:01:51.375Z</time>
      </trkpt>
      <trkpt lat="66.99252" lon="14.12551">
        <ele>121.71495</ele>
        <time>2020-07-16T02:01:55.517Z</time>
      </trkpt>
      <trkpt lat="66.99241" lon="14.12638">
        <ele>118.561329</ele>
        <time>2020-07-16T02:01:59.316Z</time>
      </trkpt>
      <trkpt lat="66.99223" lon="14.12721">
        <ele>115.249458</ele>
        <time>2020-07-16T02:02:03.342Z</time>
      </trkpt>
      <trkpt lat="66.992" lon="14.12771">
        <ele>112.587326</ele>
        <time>2020-07-16T02:02:06.641Z</time>
      </trkpt>
      <trkpt lat="66.99164" lon="14.12823">
        <ele>108.948823</ele>
        <time>2020-07-16T02:02:11.210Z</time>
      </trkpt>
      <trkpt lat="66.99082" lon="14.12871">
        <ele>115.941633</ele>
        <time>2020-07-16T02:02:28.041Z</time>
      </trkpt>
      <trkpt lat="66.99053" lon="14.12901">
        <ele>118.976392</ele>
        <time>2020-07-16T02:02:42.084Z</time>
      </trkpt>
      <trkpt lat="66.99025" lon="14.12938">
        <ele>121.947363</ele>
        <time>2020-07-16T02:02:57.761Z</time>
      </trkpt>
      <trkpt lat="66.99" lon="14.1299">
        <ele>125.018783</ele>
        <time>2020-07-16T02:03:22.921Z</time>
      </trkpt>
      <trkpt lat="66.98988" lon="14.13024">
        <ele>130.385801</ele>
        <time>2020-07-16T02:03:39.282Z</time>
      </trkpt>
      <trkpt lat="66.98972" lon="14.1308">
        <ele>141.376316</ele>
        <time>2020-07-16T02:04:05.312Z</time>
      </trkpt>
      <trkpt lat="66.98952" lon="14.13167">
        <ele>157.425801</ele>
        <time>2020-07-16T02:04:43.147Z</time>
      </trkpt>
      <trkpt lat="66.98935" lon="14.13272">
        <ele>175.454511</ele>
        <time>2020-07-16T02:05:25.922Z</time>
      </trkpt>
      <trkpt lat="66.98926" lon="14.13318">
        <ele>183.59754</ele>
        <time>2020-07-16T02:05:45.760Z</time>
      </trkpt>
      <trkpt lat="66.98909" lon="14.13408">
        <ele>199.028304</ele>
        <time>2020-07-16T02:06:23.961Z</time>
      </trkpt>
      <trkpt lat="66.9888" lon="14.13501">
        <ele>210.753347</ele>
        <time>2020-07-16T02:07:09.277Z</time>
      </trkpt>
      <trkpt lat="66.98732" lon="14.13801">
        <ele>228.450474</ele>
        <time>2020-07-16T02:09:28.875Z</time>
      </trkpt>
      <trkpt lat="66.98418" lon="14.14461">
        <ele>118.621542</ele>
        <time>2020-07-16T02:10:13.007Z</time>
      </trkpt>
      <trkpt lat="66.98362" lon="14.14563">
        <ele>97.843798</ele>
        <time>2020-07-16T02:10:20.012Z</time>
      </trkpt>
      <trkpt lat="66.9831" lon="14.14642">
        <ele>85.084968</ele>
        <time>2020-07-16T02:10:26.167Z</time>
      </trkpt>
      <trkpt lat="66.98271" lon="14.14675">
        <ele>77.057706</ele>
        <time>2020-07-16T02:10:30.298Z</time>
      </trkpt>
      <trkpt lat="66.98226" lon="14.14691">
        <ele>67.867443</ele>
        <time>2020-07-16T02:10:35.023Z</time>
      </trkpt>
      <trkpt lat="66.98192" lon="14.1469">
        <ele>61.180954</ele>
        <time>2020-07-16T02:10:38.447Z</time>
      </trkpt>
      <trkpt lat="66.98154" lon="14.14672">
        <ele>53.843012</ele>
        <time>2020-07-16T02:10:42.448Z</time>
      </trkpt>
      <trkpt lat="66.98025" lon="14.14547">
        <ele>28.472396</ele>
        <time>2020-07-16T02:10:56.520Z</time>
      </trkpt>
      <trkpt lat="66.97978" lon="14.14535">
        <ele>22.600515</ele>
        <time>2020-07-16T02:11:01.440Z</time>
      </trkpt>
      <trkpt lat="66.97918" lon="14.14552">
        <ele>15.937796</ele>
        <time>2020-07-16T02:11:07.871Z</time>
      </trkpt>
      <trkpt lat="66.97877" lon="14.14588">
        <ele>11.236607</ele>
        <time>2020-07-16T02:11:12.594Z</time>
      </trkpt>
      <trkpt lat="66.9782" lon="14.14665">
        <ele>6.654157</ele>
        <time>2020-07-16T02:11:20.175Z</time>
      </trkpt>
      <trkpt lat="66.97639" lon="14.14945">
        <ele>10.082331</ele>
        <time>2020-07-16T02:11:56.737Z</time>
      </trkpt>
      <trkpt lat="66.9763" lon="14.14965">
        <ele>11.190459</ele>
        <time>2020-07-16T02:12:01.471Z</time>
      </trkpt>
      <trkpt lat="66.97622" lon="14.14983">
        <ele>12.231131</ele>
        <time>2020-07-16T02:12:07.051Z</time>
      </trkpt>
      <trkpt lat="66.97594" lon="14.15107">
        <ele>17.653467</ele>
        <time>2020-07-16T02:12:38.513Z</time>
      </trkpt>
      <trkpt lat="66.97587" lon="14.15153">
        <ele>19.499035</ele>
        <time>2020-07-16T02:12:52.346Z</time>
      </trkpt>
      <trkpt lat="66.97583" lon="14.15198">
        <ele>21.247258</ele>
        <time>2020-07-16T02:13:05.888Z</time>
      </trkpt>
      <trkpt lat="66.97583" lon="14.15278">
        <ele>26.354989</ele>
        <time>2020-07-16T02:13:33.057Z</time>
      </trkpt>
      <trkpt lat="66.97583" lon="14.15315">
        <ele>28.961075</ele>
        <time>2020-07-16T02:13:46.349Z</time>
      </trkpt>
      <trkpt lat="66.97585" lon="14.15355">
        <ele>31.854466</ele>
        <time>2020-07-16T02:14:00.904Z</time>
      </trkpt>
      <trkpt lat="66.97592" lon="14.15415">
        <ele>36.167513</ele>
        <time>2020-07-16T02:14:22.689Z</time>
      </trkpt>
      <trkpt lat="66.97598" lon="14.15454">
        <ele>39.185559</ele>
        <time>2020-07-16T02:14:35.741Z</time>
      </trkpt>
      <trkpt lat="66.97621" lon="14.15548">
        <ele>46.933209</ele>
        <time>2020-07-16T02:15:10.544Z</time>
      </trkpt>
      <trkpt lat="66.97636" lon="14.15589">
        <ele>50.90058</ele>
        <time>2020-07-16T02:15:24.895Z</time>
      </trkpt>
      <trkpt lat="66.97652" lon="14.15623">
        <ele>54.090583</ele>
        <time>2020-07-16T02:15:38.952Z</time>
      </trkpt>
      <trkpt lat="66.97672" lon="14.15657">
        <ele>54.013243</ele>
        <time>2020-07-16T02:15:51.072Z</time>
      </trkpt>
      <trkpt lat="66.97684" lon="14.15669">
        <ele>53.973158</ele>
        <time>2020-07-16T02:15:57.904Z</time>
      </trkpt>
      <trkpt lat="66.97699" lon="14.1568">
        <ele>53.925143</ele>
        <time>2020-07-16T02:16:02.221Z</time>
      </trkpt>
      <trkpt lat="66.97906" lon="14.15744">
        <ele>49.175977</ele>
        <time>2020-07-16T02:16:26.863Z</time>
      </trkpt>
      <trkpt lat="66.97982" lon="14.15796">
        <ele>45.125172</ele>
        <time>2020-07-16T02:16:35.972Z</time>
      </trkpt>
      <trkpt lat="66.98071" lon="14.15878">
        <ele>46.58295</ele>
        <time>2020-07-16T02:16:51.102Z</time>
      </trkpt>
      <trkpt lat="66.98142" lon="14.15958">
        <ele>48.947762</ele>
        <time>2020-07-16T02:17:18.895Z</time>
      </trkpt>
      <trkpt lat="66.98275" lon="14.16179">
        <ele>59.388168</ele>
        <time>2020-07-16T02:18:32.281Z</time>
      </trkpt>
      <trkpt lat="66.98313" lon="14.16225">
        <ele>62.485186</ele>
        <time>2020-07-16T02:18:48.983Z</time>
      </trkpt>
      <trkpt lat="66.98645" lon="14.16531">
        <ele>68.746495</ele>
        <time>2020-07-16T02:20:02.747Z</time>
      </trkpt>
      <trkpt lat="66.98869" lon="14.16846">
        <ele>85.053082</ele>
        <time>2020-07-16T02:21:37.591Z</time>
      </trkpt>
      <trkpt lat="66.99038" lon="14.17172">
        <ele>100.609156</ele>
        <time>2020-07-16T02:23:32.487Z</time>
      </trkpt>
      <trkpt lat="66.99073" lon="14.17255">
        <ele>102.972552</ele>
        <time>2020-07-16T02:23:44.368Z</time>
      </trkpt>
      <trkpt lat="66.99093" lon="14.17317">
        <ele>104.512232</ele>
        <time>2020-07-16T02:23:48.810Z</time>
      </trkpt>
      <trkpt lat="66.99114" lon="14.17387">
        <ele>100.602279</ele>
        <time>2020-07-16T02:23:52.812Z</time>
      </trkpt>
      <trkpt lat="66.99195" lon="14.17847">
        <ele>73.983246</ele>
        <time>2020-07-16T02:24:13.209Z</time>
      </trkpt>
      <trkpt lat="66.99276" lon="14.18128">
        <ele>56.3619</ele>
        <time>2020-07-16T02:24:27.603Z</time>
      </trkpt>
      <trkpt lat="66.99301" lon="14.18256">
        <ele>55.393509</ele>
        <time>2020-07-16T02:24:34.361Z</time>
      </trkpt>
      <trkpt lat="66.9931" lon="14.18361">
        <ele>54.665948</ele>
        <time>2020-07-16T02:24:40.695Z</time>
      </trkpt>
      <trkpt lat="66.99308" lon="14.18515">
        <ele>53.621908</ele>
        <time>2020-07-16T02:24:56.827Z</time>
      </trkpt>
      <trkpt lat="66.99282" lon="14.18879">
        <ele>55.739016</ele>
        <time>2020-07-16T02:25:41.529Z</time>
      </trkpt>
      <trkpt lat="66.99209" lon="14.19955">
        <ele>46.943392</ele>
        <time>2020-07-16T02:26:39.911Z</time>
      </trkpt>
      <trkpt lat="66.99194" lon="14.20202">
        <ele>41.772047</ele>
        <time>2020-07-16T02:26:51.662Z</time>
      </trkpt>
      <trkpt lat="66.99193" lon="14.20387">
        <ele>37.895425</ele>
        <time>2020-07-16T02:27:00.099Z</time>
      </trkpt>
      <trkpt lat="66.992" lon="14.20501">
        <ele>35.067899</ele>
        <time>2020-07-16T02:27:05.287Z</time>
      </trkpt>
      <trkpt lat="66.99227" lon="14.20785">
        <ele>27.881679</ele>
        <time>2020-07-16T02:27:18.604Z</time>
      </trkpt>
      <trkpt lat="66.99235" lon="14.21031">
        <ele>23.658328</ele>
        <time>2020-07-16T02:27:30.334Z</time>
      </trkpt>
      <trkpt lat="66.99222" lon="14.21295">
        <ele>19.522099</ele>
        <time>2020-07-16T02:27:43.954Z</time>
      </trkpt>
      <trkpt lat="66.99202" lon="14.21526">
        <ele>16.756789</ele>
        <time>2020-07-16T02:27:56.465Z</time>
      </trkpt>
      <trkpt lat="66.99195" lon="14.2168">
        <ele>14.932109</ele>
        <time>2020-07-16T02:28:04.347Z</time>
      </trkpt>
      <trkpt lat="66.992" lon="14.21791">
        <ele>13.906959</ele>
        <time>2020-07-16T02:28:10.075Z</time>
      </trkpt>
      <trkpt lat="66.99209" lon="14.21864">
        <ele>13.416502</ele>
        <time>2020-07-16T02:28:14.026Z</time>
      </trkpt>
      <trkpt lat="66.99221" lon="14.2193">
        <ele>12.944125</ele>
        <time>2020-07-16T02:28:17.858Z</time>
      </trkpt>
      <trkpt lat="66.99232" lon="14.21979">
        <ele>12.576686</ele>
        <time>2020-07-16T02:28:21.012Z</time>
      </trkpt>
      <trkpt lat="66.99239" lon="14.22002">
        <ele>12.381356</ele>
        <time>2020-07-16T02:28:22.644Z</time>
      </trkpt>
      <trkpt lat="66.99256" lon="14.22057">
        <ele>11.929506</ele>
        <time>2020-07-16T02:28:26.687Z</time>
      </trkpt>
      <trkpt lat="66.995" lon="14.22792">
        <ele>13.099752</ele>
        <time>2020-07-16T02:29:43.827Z</time>
      </trkpt>
      <trkpt lat="66.99821" lon="14.23919">
        <ele>5.380655</ele>
        <time>2020-07-16T02:31:04.073Z</time>
      </trkpt>
      <trkpt lat="66.99859" lon="14.24022">
        <ele>4.407122</ele>
        <time>2020-07-16T02:31:11.628Z</time>
      </trkpt>
      <trkpt lat="66.99909" lon="14.24107">
        <ele>3.323773</ele>
        <time>2020-07-16T02:31:20.093Z</time>
      </trkpt>
      <trkpt lat="66.9992" lon="14.24119">
        <ele>3.102466</ele>
        <time>2020-07-16T02:31:21.807Z</time>
      </trkpt>
      <trkpt lat="66.99947" lon="14.24144">
        <ele>2.592945</ele>
        <time>2020-07-16T02:31:25.858Z</time>
      </trkpt>
      <trkpt lat="66.99972" lon="14.24162">
        <ele>2.106783</ele>
        <time>2020-07-16T02:31:29.786Z</time>
      </trkpt>
      <trkpt lat="66.99979" lon="14.24165">
        <ele>1.980994</ele>
        <time>2020-07-16T02:31:30.788Z</time>
      </trkpt>
      <trkpt lat="66.99987" lon="14.2417">
        <ele>1.848583</ele>
        <time>2020-07-16T02:31:31.937Z</time>
      </trkpt>
      <trkpt lat="66.99995" lon="14.24174">
        <ele>1.796006</ele>
        <time>2020-07-16T02:31:33.115Z</time>
      </trkpt>
      <trkpt lat="67.00005" lon="14.24178">
        <ele>1.729842</ele>
        <time>2020-07-16T02:31:34.667Z</time>
      </trkpt>
      <trkpt lat="67.00029" lon="14.24181">
        <ele>1.569383</ele>
        <time>2020-07-16T02:31:38.432Z</time>
      </trkpt>
      <trkpt lat="67.00043" lon="14.2418">
        <ele>1.479084</ele>
        <time>2020-07-16T02:31:40.621Z</time>
      </trkpt>
      <trkpt lat="67.00058" lon="14.24176">
        <ele>1.382494</ele>
        <time>2020-07-16T02:31:42.972Z</time>
      </trkpt>
      <trkpt lat="67.00069" lon="14.24172">
        <ele>1.309591</ele>
        <time>2020-07-16T02:31:44.691Z</time>
      </trkpt>
      <trkpt lat="67.00119" lon="14.24137">
        <ele>0.967147</ele>
        <time>2020-07-16T02:31:53.511Z</time>
      </trkpt>
      <trkpt lat="67.00173" lon="14.24064">
        <ele>0.679802</ele>
        <time>2020-07-16T02:32:04.178Z</time>
      </trkpt>
      <trkpt lat="67.00371" lon="14.23615">
        <ele>1.706405</ele>
        <time>2020-07-16T02:32:51.846Z</time>
      </trkpt>
      <trkpt lat="67.00397" lon="14.23555">
        <ele>2.046603</ele>
        <time>2020-07-16T02:32:59.570Z</time>
      </trkpt>
      <trkpt lat="67.00437" lon="14.23464">
        <ele>2.890356</ele>
        <time>2020-07-16T02:33:12.431Z</time>
      </trkpt>
      <trkpt lat="67.00552" lon="14.23197">
        <ele>9.337651</ele>
        <time>2020-07-16T02:34:00.841Z</time>
      </trkpt>
      <trkpt lat="67.00588" lon="14.23141">
        <ele>11.363259</ele>
        <time>2020-07-16T02:34:16.591Z</time>
      </trkpt>
      <trkpt lat="67.0061" lon="14.23118">
        <ele>12.624916</ele>
        <time>2020-07-16T02:34:25.772Z</time>
      </trkpt>
      <trkpt lat="67.00647" lon="14.23104">
        <ele>14.603126</ele>
        <time>2020-07-16T02:34:40.027Z</time>
      </trkpt>
      <trkpt lat="67.00699" lon="14.23123">
        <ele>17.339648</ele>
        <time>2020-07-16T02:34:58.705Z</time>
      </trkpt>
      <trkpt lat="67.00732" lon="14.23161">
        <ele>19.267129</ele>
        <time>2020-07-16T02:35:10.805Z</time>
      </trkpt>
      <trkpt lat="67.00764" lon="14.23233">
        <ele>19.694005</ele>
        <time>2020-07-16T02:35:23.574Z</time>
      </trkpt>
      <trkpt lat="67.00962" lon="14.23911">
        <ele>18.978071</ele>
        <time>2020-07-16T02:36:17.657Z</time>
      </trkpt>
      <trkpt lat="67.00985" lon="14.2398">
        <ele>18.046091</ele>
        <time>2020-07-16T02:36:22.407Z</time>
      </trkpt>
      <trkpt lat="67.01032" lon="14.2408">
        <ele>16.46626</ele>
        <time>2020-07-16T02:36:30.350Z</time>
      </trkpt>
      <trkpt lat="67.01085" lon="14.2415">
        <ele>14.903606</ele>
        <time>2020-07-16T02:36:38.170Z</time>
      </trkpt>
      <trkpt lat="67.01119" lon="14.24174">
        <ele>14.204723</ele>
        <time>2020-07-16T02:36:42.773Z</time>
      </trkpt>
      <trkpt lat="67.0137" lon="14.24301">
        <ele>11.949475</ele>
        <time>2020-07-16T02:37:21.408Z</time>
      </trkpt>
      <trkpt lat="67.01517" lon="14.24414">
        <ele>13.598606</ele>
        <time>2020-07-16T02:37:59.487Z</time>
      </trkpt>
      <trkpt lat="67.01542" lon="14.24437">
        <ele>14.118422</ele>
        <time>2020-07-16T02:38:06.437Z</time>
      </trkpt>
      <trkpt lat="67.01551" lon="14.24448">
        <ele>14.305785</ele>
        <time>2020-07-16T02:38:08.682Z</time>
      </trkpt>
      <trkpt lat="67.0157" lon="14.2447">
        <ele>14.70258</ele>
        <time>2020-07-16T02:38:13.836Z</time>
      </trkpt>
      <trkpt lat="67.01624" lon="14.24522">
        <ele>15.672098</ele>
        <time>2020-07-16T02:38:27.219Z</time>
      </trkpt>
      <trkpt lat="67.01677" lon="14.24586">
        <ele>15.604927</ele>
        <time>2020-07-16T02:38:39.420Z</time>
      </trkpt>
      <trkpt lat="67.01699" lon="14.24612">
        <ele>15.577363</ele>
        <time>2020-07-16T02:38:43.307Z</time>
      </trkpt>
      <trkpt lat="67.01718" lon="14.24637">
        <ele>15.552587</ele>
        <time>2020-07-16T02:38:46.877Z</time>
      </trkpt>
      <trkpt lat="67.01757" lon="14.24687">
        <ele>15.503014</ele>
        <time>2020-07-16T02:38:53.899Z</time>
      </trkpt>
      <trkpt lat="67.02254" lon="14.25306">
        <ele>6.794488</ele>
        <time>2020-07-16T02:40:14.540Z</time>
      </trkpt>
      <trkpt lat="67.02287" lon="14.25348">
        <ele>6.102572</ele>
        <time>2020-07-16T02:40:19.480Z</time>
      </trkpt>
      <trkpt lat="67.02296" lon="14.2536">
        <ele>5.919715</ele>
        <time>2020-07-16T02:40:20.676Z</time>
      </trkpt>
      <trkpt lat="67.02305" lon="14.2537">
        <ele>5.725421</ele>
        <time>2020-07-16T02:40:22.150Z</time>
      </trkpt>
      <trkpt lat="67.02358" lon="14.25427">
        <ele>4.622709</ele>
        <time>2020-07-16T02:40:29.957Z</time>
      </trkpt>
      <trkpt lat="67.02479" lon="14.25532">
        <ele>2.966303</ele>
        <time>2020-07-16T02:40:49.151Z</time>
      </trkpt>
      <trkpt lat="67.02601" lon="14.25604">
        <ele>2.543551</ele>
        <time>2020-07-16T02:41:11.652Z</time>
      </trkpt>
      <trkpt lat="67.02615" lon="14.25611">
        <ele>2.573358</ele>
        <time>2020-07-16T02:41:14.172Z</time>
      </trkpt>
      <trkpt lat="67.02671" lon="14.25652">
        <ele>2.844135</ele>
        <time>2020-07-16T02:41:25.455Z</time>
      </trkpt>
      <trkpt lat="67.0279" lon="14.25762">
        <ele>3.398787</ele>
        <time>2020-07-16T02:41:50.340Z</time>
      </trkpt>
      <trkpt lat="67.02905" lon="14.25898">
        <ele>3.769046</ele>
        <time>2020-07-16T02:42:14.520Z</time>
      </trkpt>
      <trkpt lat="67.02938" lon="14.25932">
        <ele>3.870679</ele>
        <time>2020-07-16T02:42:20.782Z</time>
      </trkpt>
      <trkpt lat="67.02999" lon="14.25982">
        <ele>3.95338</ele>
        <time>2020-07-16T02:42:32.056Z</time>
      </trkpt>
      <trkpt lat="67.03155" lon="14.26086">
        <ele>4.612039</ele>
        <time>2020-07-16T02:43:01.473Z</time>
      </trkpt>
      <trkpt lat="67.03207" lon="14.26125">
        <ele>5.26244</ele>
        <time>2020-07-16T02:43:12.671Z</time>
      </trkpt>
      <trkpt lat="67.03256" lon="14.26178">
        <ele>5.90388</ele>
        <time>2020-07-16T02:43:24.816Z</time>
      </trkpt>
      <trkpt lat="67.03333" lon="14.26305">
        <ele>7.996804</ele>
        <time>2020-07-16T02:43:48.773Z</time>
      </trkpt>
      <trkpt lat="67.03562" lon="14.2682">
        <ele>15.980611</ele>
        <time>2020-07-16T02:45:12.678Z</time>
      </trkpt>
      <trkpt lat="67.03616" lon="14.26905">
        <ele>15.018978</ele>
        <time>2020-07-16T02:45:22.933Z</time>
      </trkpt>
      <trkpt lat="67.03646" lon="14.26932">
        <ele>14.53515</ele>
        <time>2020-07-16T02:45:27.477Z</time>
      </trkpt>
      <trkpt lat="67.03704" lon="14.2695">
        <ele>13.656203</ele>
        <time>2020-07-16T02:45:35.104Z</time>
      </trkpt>
      <trkpt lat="67.03917" lon="14.26934">
        <ele>7.343016</ele>
        <time>2020-07-16T02:46:02.571Z</time>
      </trkpt>
      <trkpt lat="67.03977" lon="14.26952">
        <ele>6.653123</ele>
        <time>2020-07-16T02:46:11.582Z</time>
      </trkpt>
      <trkpt lat="67.04015" lon="14.26967">
        <ele>6.22222</ele>
        <time>2020-07-16T02:46:17.598Z</time>
      </trkpt>
      <trkpt lat="67.04023" lon="14.26969">
        <ele>6.135015</ele>
        <time>2020-07-16T02:46:18.840Z</time>
      </trkpt>
      <trkpt lat="67.04053" lon="14.2698">
        <ele>5.792783</ele>
        <time>2020-07-16T02:46:23.984Z</time>
      </trkpt>
      <trkpt lat="67.04373" lon="14.27093">
        <ele>5.956281</ele>
        <time>2020-07-16T02:47:22.602Z</time>
      </trkpt>
      <trkpt lat="67.04421" lon="14.27109">
        <ele>6.136758</ele>
        <time>2020-07-16T02:47:32.384Z</time>
      </trkpt>
      <trkpt lat="67.04523" lon="14.27144">
        <ele>6.846117</ele>
        <time>2020-07-16T02:47:54.012Z</time>
      </trkpt>
      <trkpt lat="67.04552" lon="14.27154">
        <ele>7.065778</ele>
        <time>2020-07-16T02:48:00.357Z</time>
      </trkpt>
      <trkpt lat="67.04699" lon="14.27205">
        <ele>7.488439</ele>
        <time>2020-07-16T02:48:28.041Z</time>
      </trkpt>
      <trkpt lat="67.0485" lon="14.27259">
        <ele>7.828739</ele>
        <time>2020-07-16T02:48:53.415Z</time>
      </trkpt>
      <trkpt lat="67.0502" lon="14.27318">
        <ele>10.384871</ele>
        <time>2020-07-16T02:49:30.743Z</time>
      </trkpt>
      <trkpt lat="67.05158" lon="14.27392">
        <ele>15.508923</ele>
        <time>2020-07-16T02:50:13.768Z</time>
      </trkpt>
      <trkpt lat="67.05487" lon="14.27669">
        <ele>38.237859</ele>
        <time>2020-07-16T02:52:29.827Z</time>
      </trkpt>
      <trkpt lat="67.0555" lon="14.2771">
        <ele>41.811289</ele>
        <time>2020-07-16T02:52:57.817Z</time>
      </trkpt>
      <trkpt lat="67.05584" lon="14.27713">
        <ele>43.612259</ele>
        <time>2020-07-16T02:53:11.039Z</time>
      </trkpt>
      <trkpt lat="67.05617" lon="14.27701">
        <ele>45.435904</ele>
        <time>2020-07-16T02:53:23.082Z</time>
      </trkpt>
      <trkpt lat="67.0565" lon="14.2767">
        <ele>47.297659</ele>
        <time>2020-07-16T02:53:33.731Z</time>
      </trkpt>
      <trkpt lat="67.05683" lon="14.27614">
        <ele>47.713063</ele>
        <time>2020-07-16T02:53:43.253Z</time>
      </trkpt>
      <trkpt lat="67.05695" lon="14.2758">
        <ele>47.295432</ele>
        <time>2020-07-16T02:53:46.636Z</time>
      </trkpt>
      <trkpt lat="67.0572" lon="14.27493">
        <ele>46.343312</ele>
        <time>2020-07-16T02:53:52.904Z</time>
      </trkpt>
      <trkpt lat="67.05812" lon="14.27018">
        <ele>39.574443</ele>
        <time>2020-07-16T02:54:18.162Z</time>
      </trkpt>
      <trkpt lat="67.05849" lon="14.2683">
        <ele>36.609271</ele>
        <time>2020-07-16T02:54:28.485Z</time>
      </trkpt>
      <trkpt lat="67.05897" lon="14.26581">
        <ele>36.395105</ele>
        <time>2020-07-16T02:54:45.807Z</time>
      </trkpt>
      <trkpt lat="67.05926" lon="14.26469">
        <ele>36.291109</ele>
        <time>2020-07-16T02:54:57.904Z</time>
      </trkpt>
      <trkpt lat="67.05962" lon="14.26377">
        <ele>37.535616</ele>
        <time>2020-07-16T02:55:11.662Z</time>
      </trkpt>
      <trkpt lat="67.06026" lon="14.26278">
        <ele>39.726053</ele>
        <time>2020-07-16T02:55:37.074Z</time>
      </trkpt>
      <trkpt lat="67.06096" lon="14.26224">
        <ele>40.681488</ele>
        <time>2020-07-16T02:55:58.123Z</time>
      </trkpt>
      <trkpt lat="67.06163" lon="14.2622">
        <ele>35.598684</ele>
        <time>2020-07-16T02:56:06.321Z</time>
      </trkpt>
      <trkpt lat="67.06208" lon="14.26237">
        <ele>32.192595</ele>
        <time>2020-07-16T02:56:11.245Z</time>
      </trkpt>
      <trkpt lat="67.06268" lon="14.26269">
        <ele>27.511112</ele>
        <time>2020-07-16T02:56:17.663Z</time>
      </trkpt>
      <trkpt lat="67.06305" lon="14.26287">
        <ele>23.700867</ele>
        <time>2020-07-16T02:56:21.721Z</time>
      </trkpt>
      <trkpt lat="67.06344" lon="14.26308">
        <ele>19.765313</ele>
        <time>2020-07-16T02:56:25.909Z</time>
      </trkpt>
      <trkpt lat="67.06348" lon="14.26309">
        <ele>19.414068</ele>
        <time>2020-07-16T02:56:26.284Z</time>
      </trkpt>
      <trkpt lat="67.0637" lon="14.26319">
        <ele>17.24621</ele>
        <time>2020-07-16T02:56:28.592Z</time>
      </trkpt>
      <trkpt lat="67.06437" lon="14.26343">
        <ele>10.507342</ele>
        <time>2020-07-16T02:56:36.294Z</time>
      </trkpt>
      <trkpt lat="67.06503" lon="14.26328">
        <ele>12.621736</ele>
        <time>2020-07-16T02:56:51.747Z</time>
      </trkpt>
      <trkpt lat="67.06518" lon="14.26318">
        <ele>13.19168</ele>
        <time>2020-07-16T02:56:57.942Z</time>
      </trkpt>
      <trkpt lat="67.06532" lon="14.26308">
        <ele>13.756248</ele>
        <time>2020-07-16T02:57:03.176Z</time>
      </trkpt>
      <trkpt lat="67.06558" lon="14.26281">
        <ele>14.829005</ele>
        <time>2020-07-16T02:57:14.426Z</time>
      </trkpt>
      <trkpt lat="67.06573" lon="14.26263">
        <ele>15.486987</ele>
        <time>2020-07-16T02:57:20.270Z</time>
      </trkpt>
      <trkpt lat="67.06587" lon="14.26245">
        <ele>16.090165</ele>
        <time>2020-07-16T02:57:27.968Z</time>
      </trkpt>
      <trkpt lat="67.06901" lon="14.2587">
        <ele>38.746145</ele>
        <time>2020-07-16T02:59:45.239Z</time>
      </trkpt>
      <trkpt lat="67.06936" lon="14.25831">
        <ele>41.250816</ele>
        <time>2020-07-16T02:59:59.593Z</time>
      </trkpt>
      <trkpt lat="67.06955" lon="14.25807">
        <ele>42.432973</ele>
        <time>2020-07-16T03:00:08.560Z</time>
      </trkpt>
      <trkpt lat="67.07013" lon="14.2574">
        <ele>45.806524</ele>
        <time>2020-07-16T03:00:31.093Z</time>
      </trkpt>
      <trkpt lat="67.07057" lon="14.25717">
        <ele>48.207406</ele>
        <time>2020-07-16T03:00:47.020Z</time>
      </trkpt>
      <trkpt lat="67.07106" lon="14.25736">
        <ele>50.86279</ele>
        <time>2020-07-16T03:01:03.502Z</time>
      </trkpt>
      <trkpt lat="67.07144" lon="14.2579">
        <ele>53.526131</ele>
        <time>2020-07-16T03:01:16.009Z</time>
      </trkpt>
      <trkpt lat="67.07169" lon="14.2586">
        <ele>55.772594</ele>
        <time>2020-07-16T03:01:26.080Z</time>
      </trkpt>
      <trkpt lat="67.0719" lon="14.25981">
        <ele>58.927692</ele>
        <time>2020-07-16T03:01:46.855Z</time>
      </trkpt>
      <trkpt lat="67.07202" lon="14.26221">
        <ele>65.586483</ele>
        <time>2020-07-16T03:02:31.000Z</time>
      </trkpt>
      <trkpt lat="67.0721" lon="14.2629">
        <ele>67.891035</ele>
        <time>2020-07-16T03:02:42.182Z</time>
      </trkpt>
      <trkpt lat="67.07213" lon="14.26303">
        <ele>68.362686</ele>
        <time>2020-07-16T03:02:46.846Z</time>
      </trkpt>
      <trkpt lat="67.07218" lon="14.26328">
        <ele>69.262545</ele>
        <time>2020-07-16T03:02:53.272Z</time>
      </trkpt>
      <trkpt lat="67.07241" lon="14.26412">
        <ele>72.502586</ele>
        <time>2020-07-16T03:03:10.996Z</time>
      </trkpt>
      <trkpt lat="67.07278" lon="14.2649">
        <ele>76.468306</ele>
        <time>2020-07-16T03:03:30.167Z</time>
      </trkpt>
      <trkpt lat="67.07371" lon="14.26584">
        <ele>79.607277</ele>
        <time>2020-07-16T03:04:03.934Z</time>
      </trkpt>
      <trkpt lat="67.07395" lon="14.26618">
        <ele>80.431527</ele>
        <time>2020-07-16T03:04:08.578Z</time>
      </trkpt>
      <trkpt lat="67.0742" lon="14.26676">
        <ele>81.454951</ele>
        <time>2020-07-16T03:04:14.222Z</time>
      </trkpt>
      <trkpt lat="67.07433" lon="14.26729">
        <ele>82.178068</ele>
        <time>2020-07-16T03:04:18.325Z</time>
      </trkpt>
      <trkpt lat="67.07472" lon="14.26978">
        <ele>85.239501</ele>
        <time>2020-07-16T03:04:42.747Z</time>
      </trkpt>
      <trkpt lat="67.07498" lon="14.27066">
        <ele>86.486506</ele>
        <time>2020-07-16T03:04:56.356Z</time>
      </trkpt>
      <trkpt lat="67.07543" lon="14.27153">
        <ele>87.554453</ele>
        <time>2020-07-16T03:05:19.616Z</time>
      </trkpt>
      <trkpt lat="67.07621" lon="14.27276">
        <ele>88.239449</ele>
        <time>2020-07-16T03:05:46.086Z</time>
      </trkpt>
      <trkpt lat="67.07643" lon="14.27327">
        <ele>88.459842</ele>
        <time>2020-07-16T03:05:51.273Z</time>
      </trkpt>
      <trkpt lat="67.07658" lon="14.27365">
        <ele>88.614945</ele>
        <time>2020-07-16T03:05:53.904Z</time>
      </trkpt>
      <trkpt lat="67.07688" lon="14.27464">
        <ele>83.252442</ele>
        <time>2020-07-16T03:05:59.593Z</time>
      </trkpt>
      <trkpt lat="67.07708" lon="14.27579">
        <ele>76.175757</ele>
        <time>2020-07-16T03:06:04.885Z</time>
      </trkpt>
      <trkpt lat="67.07719" lon="14.27724">
        <ele>67.814516</ele>
        <time>2020-07-16T03:06:11.092Z</time>
      </trkpt>
      <trkpt lat="67.07721" lon="14.27863">
        <ele>60.457854</ele>
        <time>2020-07-16T03:06:16.905Z</time>
      </trkpt>
      <trkpt lat="67.07717" lon="14.28037">
        <ele>52.396518</ele>
        <time>2020-07-16T03:06:24.009Z</time>
      </trkpt>
      <trkpt lat="67.07708" lon="14.28424">
        <ele>38.698774</ele>
        <time>2020-07-16T03:06:40.941Z</time>
      </trkpt>
      <trkpt lat="67.07708" lon="14.28444">
        <ele>38.341795</ele>
        <time>2020-07-16T03:06:41.871Z</time>
      </trkpt>
      <trkpt lat="67.07706" lon="14.28512">
        <ele>37.132661</ele>
        <time>2020-07-16T03:06:45.651Z</time>
      </trkpt>
      <trkpt lat="67.07706" lon="14.2856">
        <ele>36.299595</ele>
        <time>2020-07-16T03:06:48.016Z</time>
      </trkpt>
      <trkpt lat="67.07706" lon="14.28658">
        <ele>34.566367</ele>
        <time>2020-07-16T03:06:54.356Z</time>
      </trkpt>
      <trkpt lat="67.07713" lon="14.28875">
        <ele>30.363738</ele>
        <time>2020-07-16T03:07:05.213Z</time>
      </trkpt>
      <trkpt lat="67.07724" lon="14.29022">
        <ele>27.353778</ele>
        <time>2020-07-16T03:07:12.626Z</time>
      </trkpt>
      <trkpt lat="67.07741" lon="14.29212">
        <ele>23.21977</ele>
        <time>2020-07-16T03:07:21.312Z</time>
      </trkpt>
      <trkpt lat="67.07758" lon="14.29395">
        <ele>17.660091</ele>
        <time>2020-07-16T03:07:29.350Z</time>
      </trkpt>
      <trkpt lat="67.07776" lon="14.29574">
        <ele>12.177736</ele>
        <time>2020-07-16T03:07:37.266Z</time>
      </trkpt>
      <trkpt lat="67.0788" lon="14.30629">
        <ele>4.68681</ele>
        <time>2020-07-16T03:08:38.940Z</time>
      </trkpt>
      <trkpt lat="67.07899" lon="14.30883">
        <ele>7.371544</ele>
        <time>2020-07-16T03:09:06.896Z</time>
      </trkpt>
      <trkpt lat="67.079" lon="14.30979">
        <ele>8.364579</ele>
        <time>2020-07-16T03:09:19.807Z</time>
      </trkpt>
      <trkpt lat="67.07901" lon="14.31067">
        <ele>10.427079</ele>
        <time>2020-07-16T03:09:32.876Z</time>
      </trkpt>
      <trkpt lat="67.07903" lon="14.31151">
        <ele>12.547271</ele>
        <time>2020-07-16T03:09:45.770Z</time>
      </trkpt>
      <trkpt lat="67.07913" lon="14.31317">
        <ele>16.800919</ele>
        <time>2020-07-16T03:10:13.021Z</time>
      </trkpt>
      <trkpt lat="67.07921" lon="14.31414">
        <ele>19.294001</ele>
        <time>2020-07-16T03:10:29.483Z</time>
      </trkpt>
      <trkpt lat="67.0801" lon="14.32262">
        <ele>35.082968</ele>
        <time>2020-07-16T03:12:22.787Z</time>
      </trkpt>
      <trkpt lat="67.08053" lon="14.32478">
        <ele>35.607407</ele>
        <time>2020-07-16T03:12:43.615Z</time>
      </trkpt>
      <trkpt lat="67.0811" lon="14.32705">
        <ele>34.495947</ele>
        <time>2020-07-16T03:12:58.564Z</time>
      </trkpt>
      <trkpt lat="67.08143" lon="14.3277">
        <ele>31.984923</ele>
        <time>2020-07-16T03:13:03.733Z</time>
      </trkpt>
      <trkpt lat="67.08164" lon="14.32795">
        <ele>30.164142</ele>
        <time>2020-07-16T03:13:06.414Z</time>
      </trkpt>
      <trkpt lat="67.08196" lon="14.32814">
        <ele>27.566343</ele>
        <time>2020-07-16T03:13:10.063Z</time>
      </trkpt>
      <trkpt lat="67.08221" lon="14.32815">
        <ele>25.531054</ele>
        <time>2020-07-16T03:13:12.855Z</time>
      </trkpt>
      <trkpt lat="67.08247" lon="14.328">
        <ele>23.495405</ele>
        <time>2020-07-16T03:13:15.651Z</time>
      </trkpt>
      <trkpt lat="67.08294" lon="14.32736">
        <ele>19.494957</ele>
        <time>2020-07-16T03:13:21.665Z</time>
      </trkpt>
      <trkpt lat="67.08303" lon="14.32716">
        <ele>18.810963</ele>
        <time>2020-07-16T03:13:22.925Z</time>
      </trkpt>
      <trkpt lat="67.08311" lon="14.32696">
        <ele>18.200675</ele>
        <time>2020-07-16T03:13:24.063Z</time>
      </trkpt>
      <trkpt lat="67.08333" lon="14.32611">
        <ele>15.898779</ele>
        <time>2020-07-16T03:13:28.560Z</time>
      </trkpt>
      <trkpt lat="67.08346" lon="14.32527">
        <ele>13.860804</ele>
        <time>2020-07-16T03:13:32.560Z</time>
      </trkpt>
      <trkpt lat="67.08464" lon="14.31672">
        <ele>7.800692</ele>
        <time>2020-07-16T03:14:25.256Z</time>
      </trkpt>
      <trkpt lat="67.08485" lon="14.31561">
        <ele>8.033903</ele>
        <time>2020-07-16T03:14:37.590Z</time>
      </trkpt>
      <trkpt lat="67.0852" lon="14.31461">
        <ele>9.096939</ele>
        <time>2020-07-16T03:14:52.136Z</time>
      </trkpt>
      <trkpt lat="67.08567" lon="14.31393">
        <ele>11.170215</ele>
        <time>2020-07-16T03:15:09.087Z</time>
      </trkpt>
      <trkpt lat="67.08611" lon="14.31366">
        <ele>12.939151</ele>
        <time>2020-07-16T03:15:23.902Z</time>
      </trkpt>
      <trkpt lat="67.0867" lon="14.31358">
        <ele>15.23064</ele>
        <time>2020-07-16T03:15:40.920Z</time>
      </trkpt>
      <trkpt lat="67.08687" lon="14.31357">
        <ele>15.946212</ele>
        <time>2020-07-16T03:15:46.230Z</time>
      </trkpt>
      <trkpt lat="67.08699" lon="14.31355">
        <ele>16.492938</ele>
        <time>2020-07-16T03:15:49.775Z</time>
      </trkpt>
      <trkpt lat="67.08725" lon="14.31353">
        <ele>17.621184</ele>
        <time>2020-07-16T03:15:58.054Z</time>
      </trkpt>
      <trkpt lat="67.08748" lon="14.3135">
        <ele>18.627927</ele>
        <time>2020-07-16T03:16:05.058Z</time>
      </trkpt>
      <trkpt lat="67.08826" lon="14.31342">
        <ele>22.008261</ele>
        <time>2020-07-16T03:16:30.323Z</time>
      </trkpt>
      <trkpt lat="67.08859" lon="14.31339">
        <ele>23.558937</ele>
        <time>2020-07-16T03:16:40.941Z</time>
      </trkpt>
      <trkpt lat="67.09104" lon="14.31304">
        <ele>34.68028</ele>
        <time>2020-07-16T03:18:07.522Z</time>
      </trkpt>
      <trkpt lat="67.0915" lon="14.31282">
        <ele>36.031859</ele>
        <time>2020-07-16T03:18:20.258Z</time>
      </trkpt>
      <trkpt lat="67.09243" lon="14.31215">
        <ele>36.284093</ele>
        <time>2020-07-16T03:18:37.567Z</time>
      </trkpt>
      <trkpt lat="67.09337" lon="14.3111">
        <ele>32.833997</ele>
        <time>2020-07-16T03:18:50.466Z</time>
      </trkpt>
      <trkpt lat="67.09356" lon="14.31086">
        <ele>32.131428</ele>
        <time>2020-07-16T03:18:52.941Z</time>
      </trkpt>
      <trkpt lat="67.09376" lon="14.31063">
        <ele>31.370454</ele>
        <time>2020-07-16T03:18:55.517Z</time>
      </trkpt>
      <trkpt lat="67.09396" lon="14.31036">
        <ele>30.452055</ele>
        <time>2020-07-16T03:18:58.158Z</time>
      </trkpt>
      <trkpt lat="67.09485" lon="14.30949">
        <ele>26.584189</ele>
        <time>2020-07-16T03:19:09.721Z</time>
      </trkpt>
      <trkpt lat="67.0951" lon="14.30941">
        <ele>25.554249</ele>
        <time>2020-07-16T03:19:12.998Z</time>
      </trkpt>
      <trkpt lat="67.09535" lon="14.30934">
        <ele>24.533796</ele>
        <time>2020-07-16T03:19:16.345Z</time>
      </trkpt>
      <trkpt lat="67.09762" lon="14.30907">
        <ele>24.208112</ele>
        <time>2020-07-16T03:19:57.886Z</time>
      </trkpt>
      <trkpt lat="67.09969" lon="14.30903">
        <ele>26.31876</ele>
        <time>2020-07-16T03:20:41.259Z</time>
      </trkpt>
      <trkpt lat="67.09995" lon="14.30903">
        <ele>26.718277</ele>
        <time>2020-07-16T03:20:46.599Z</time>
      </trkpt>
      <trkpt lat="67.1002" lon="14.30904">
        <ele>27.113162</ele>
        <time>2020-07-16T03:20:52.241Z</time>
      </trkpt>
      <trkpt lat="67.10121" lon="14.30909">
        <ele>29.501461</ele>
        <time>2020-07-16T03:21:18.012Z</time>
      </trkpt>
      <trkpt lat="67.10155" lon="14.3091">
        <ele>30.722721</ele>
        <time>2020-07-16T03:21:27.474Z</time>
      </trkpt>
      <trkpt lat="67.10177" lon="14.30911">
        <ele>31.495516</ele>
        <time>2020-07-16T03:21:33.694Z</time>
      </trkpt>
      <trkpt lat="67.10188" lon="14.30912">
        <ele>31.887204</ele>
        <time>2020-07-16T03:21:37.199Z</time>
      </trkpt>
      <trkpt lat="67.10203" lon="14.30914">
        <ele>32.436787</ele>
        <time>2020-07-16T03:21:42.022Z</time>
      </trkpt>
      <trkpt lat="67.10265" lon="14.30931">
        <ele>34.686348</ele>
        <time>2020-07-16T03:22:01.731Z</time>
      </trkpt>
      <trkpt lat="67.10289" lon="14.3096">
        <ele>35.939425</ele>
        <time>2020-07-16T03:22:10.847Z</time>
      </trkpt>
      <trkpt lat="67.1032" lon="14.31018">
        <ele>37.665375</ele>
        <time>2020-07-16T03:22:23.477Z</time>
      </trkpt>
      <trkpt lat="67.10346" lon="14.311">
        <ele>39.557965</ele>
        <time>2020-07-16T03:22:37.107Z</time>
      </trkpt>
      <trkpt lat="67.10516" lon="14.31767">
        <ele>52.396149</ele>
        <time>2020-07-16T03:24:16.110Z</time>
      </trkpt>
      <trkpt lat="67.10547" lon="14.31842">
        <ele>53.670809</ele>
        <time>2020-07-16T03:24:27.690Z</time>
      </trkpt>
      <trkpt lat="67.10597" lon="14.31908">
        <ele>55.328989</ele>
        <time>2020-07-16T03:24:41.618Z</time>
      </trkpt>
      <trkpt lat="67.10632" lon="14.31929">
        <ele>55.997925</ele>
        <time>2020-07-16T03:24:50.082Z</time>
      </trkpt>
      <trkpt lat="67.10672" lon="14.31933">
        <ele>56.204302</ele>
        <time>2020-07-16T03:24:58.596Z</time>
      </trkpt>
      <trkpt lat="67.11268" lon="14.31687">
        <ele>58.108041</ele>
        <time>2020-07-16T03:26:53.899Z</time>
      </trkpt>
      <trkpt lat="67.11345" lon="14.3166">
        <ele>57.216403</ele>
        <time>2020-07-16T03:27:04.844Z</time>
      </trkpt>
      <trkpt lat="67.11402" lon="14.31663">
        <ele>55.393186</ele>
        <time>2020-07-16T03:27:12.442Z</time>
      </trkpt>
      <trkpt lat="67.11449" lon="14.31678">
        <ele>53.905539</ele>
        <time>2020-07-16T03:27:18.425Z</time>
      </trkpt>
      <trkpt lat="67.11944" lon="14.3199">
        <ele>37.117325</ele>
        <time>2020-07-16T03:28:23.513Z</time>
      </trkpt>
      <trkpt lat="67.11976" lon="14.32032">
        <ele>36.483943</ele>
        <time>2020-07-16T03:28:29.037Z</time>
      </trkpt>
      <trkpt lat="67.12028" lon="14.32124">
        <ele>35.885177</ele>
        <time>2020-07-16T03:28:41.474Z</time>
      </trkpt>
      <trkpt lat="67.12096" lon="14.32261">
        <ele>37.919269</ele>
        <time>2020-07-16T03:29:03.751Z</time>
      </trkpt>
      <trkpt lat="67.12106" lon="14.32284">
        <ele>38.234139</ele>
        <time>2020-07-16T03:29:07.972Z</time>
      </trkpt>
      <trkpt lat="67.12136" lon="14.32359">
        <ele>39.2041</ele>
        <time>2020-07-16T03:29:19.373Z</time>
      </trkpt>
      <trkpt lat="67.12159" lon="14.32426">
        <ele>39.877404</ele>
        <time>2020-07-16T03:29:28.711Z</time>
      </trkpt>
      <trkpt lat="67.12201" lon="14.32566">
        <ele>40.399262</ele>
        <time>2020-07-16T03:29:46.040Z</time>
      </trkpt>
      <trkpt lat="67.12303" lon="14.32941">
        <ele>41.450959</ele>
        <time>2020-07-16T03:30:14.962Z</time>
      </trkpt>
      <trkpt lat="67.12317" lon="14.32984">
        <ele>41.530658</ele>
        <time>2020-07-16T03:30:18.416Z</time>
      </trkpt>
      <trkpt lat="67.12362" lon="14.33147">
        <ele>41.820094</ele>
        <time>2020-07-16T03:30:35.197Z</time>
      </trkpt>
      <trkpt lat="67.12384" lon="14.33242">
        <ele>43.513109</ele>
        <time>2020-07-16T03:30:46.076Z</time>
      </trkpt>
      <trkpt lat="67.12385" lon="14.33251">
        <ele>43.678599</ele>
        <time>2020-07-16T03:30:46.960Z</time>
      </trkpt>
      <trkpt lat="67.12392" lon="14.33321">
        <ele>44.912575</ele>
        <time>2020-07-16T03:30:54.951Z</time>
      </trkpt>
      <trkpt lat="67.12396" lon="14.33468">
        <ele>47.410103</ele>
        <time>2020-07-16T03:31:14.392Z</time>
      </trkpt>
      <trkpt lat="67.12379" lon="14.33691">
        <ele>52.520344</ele>
        <time>2020-07-16T03:31:48.180Z</time>
      </trkpt>
      <trkpt lat="67.12379" lon="14.33758">
        <ele>54.575856</ele>
        <time>2020-07-16T03:31:58.165Z</time>
      </trkpt>
      <trkpt lat="67.12393" lon="14.33925">
        <ele>59.761438</ele>
        <time>2020-07-16T03:32:25.592Z</time>
      </trkpt>
      <trkpt lat="67.12404" lon="14.33999">
        <ele>62.179378</ele>
        <time>2020-07-16T03:32:39.477Z</time>
      </trkpt>
      <trkpt lat="67.12425" lon="14.34084">
        <ele>66.36662</ele>
        <time>2020-07-16T03:32:58.088Z</time>
      </trkpt>
      <trkpt lat="67.12512" lon="14.34364">
        <ele>85.863529</ele>
        <time>2020-07-16T03:34:24.669Z</time>
      </trkpt>
      <trkpt lat="67.12526" lon="14.34434">
        <ele>90.795662</ele>
        <time>2020-07-16T03:34:48.502Z</time>
      </trkpt>
      <trkpt lat="67.12539" lon="14.34524">
        <ele>98.469371</ele>
        <time>2020-07-16T03:35:18.522Z</time>
      </trkpt>
      <trkpt lat="67.12568" lon="14.34892">
        <ele>128.187774</ele>
        <time>2020-07-16T03:37:29.228Z</time>
      </trkpt>
      <trkpt lat="67.1259" lon="14.35028">
        <ele>136.778751</ele>
        <time>2020-07-16T03:38:17.225Z</time>
      </trkpt>
      <trkpt lat="67.12624" lon="14.35151">
        <ele>145.663895</ele>
        <time>2020-07-16T03:38:57.080Z</time>
      </trkpt>
      <trkpt lat="67.12683" lon="14.35286">
        <ele>153.339226</ele>
        <time>2020-07-16T03:39:33.747Z</time>
      </trkpt>
      <trkpt lat="67.1297" lon="14.35782">
        <ele>148.773275</ele>
        <time>2020-07-16T03:40:20.024Z</time>
      </trkpt>
      <trkpt lat="67.13033" lon="14.35944">
        <ele>150.356951</ele>
        <time>2020-07-16T03:40:35.743Z</time>
      </trkpt>
      <trkpt lat="67.13208" lon="14.36499">
        <ele>162.151276</ele>
        <time>2020-07-16T03:42:11.684Z</time>
      </trkpt>
      <trkpt lat="67.13229" lon="14.36551">
        <ele>163.594486</ele>
        <time>2020-07-16T03:42:22.395Z</time>
      </trkpt>
      <trkpt lat="67.13292" lon="14.3669">
        <ele>167.756271</ele>
        <time>2020-07-16T03:42:52.413Z</time>
      </trkpt>
      <trkpt lat="67.13724" lon="14.37544">
        <ele>183.718599</ele>
        <time>2020-07-16T03:45:29.849Z</time>
      </trkpt>
      <trkpt lat="67.1377" lon="14.37611">
        <ele>183.424403</ele>
        <time>2020-07-16T03:45:36.106Z</time>
      </trkpt>
      <trkpt lat="67.13814" lon="14.37653">
        <ele>180.576526</ele>
        <time>2020-07-16T03:45:41.453Z</time>
      </trkpt>
      <trkpt lat="67.13914" lon="14.37746">
        <ele>174.178024</ele>
        <time>2020-07-16T03:45:53.524Z</time>
      </trkpt>
      <trkpt lat="67.13963" lon="14.37843">
        <ele>174.24778</ele>
        <time>2020-07-16T03:46:01.663Z</time>
      </trkpt>
      <trkpt lat="67.14144" lon="14.38309">
        <ele>184.092688</ele>
        <time>2020-07-16T03:47:26.964Z</time>
      </trkpt>
      <trkpt lat="67.1421" lon="14.38462">
        <ele>189.967576</ele>
        <time>2020-07-16T03:48:03.224Z</time>
      </trkpt>
      <trkpt lat="67.14274" lon="14.3858">
        <ele>196.61046</ele>
        <time>2020-07-16T03:48:37.682Z</time>
      </trkpt>
      <trkpt lat="67.14345" lon="14.3869">
        <ele>203.913214</ele>
        <time>2020-07-16T03:49:17.077Z</time>
      </trkpt>
      <trkpt lat="67.14378" lon="14.38756">
        <ele>208.471282</ele>
        <time>2020-07-16T03:49:37.914Z</time>
      </trkpt>
      <trkpt lat="67.14426" lon="14.38892">
        <ele>216.305455</ele>
        <time>2020-07-16T03:50:18.372Z</time>
      </trkpt>
      <trkpt lat="67.14482" lon="14.39107">
        <ele>225.40629</ele>
        <time>2020-07-16T03:51:13.000Z</time>
      </trkpt>
      <trkpt lat="67.14503" lon="14.39186">
        <ele>227.92299</ele>
        <time>2020-07-16T03:51:29.939Z</time>
      </trkpt>
      <trkpt lat="67.14515" lon="14.39232">
        <ele>229.383784</ele>
        <time>2020-07-16T03:51:38.576Z</time>
      </trkpt>
      <trkpt lat="67.14556" lon="14.39415">
        <ele>234.250713</ele>
        <time>2020-07-16T03:52:05.164Z</time>
      </trkpt>
      <trkpt lat="67.14615" lon="14.39741">
        <ele>230.529747</ele>
        <time>2020-07-16T03:52:23.960Z</time>
      </trkpt>
      <trkpt lat="67.14681" lon="14.40013">
        <ele>223.363423</ele>
        <time>2020-07-16T03:52:38.301Z</time>
      </trkpt>
      <trkpt lat="67.14745" lon="14.40187">
        <ele>217.037446</ele>
        <time>2020-07-16T03:52:48.893Z</time>
      </trkpt>
      <trkpt lat="67.1479" lon="14.40285">
        <ele>213.79741</ele>
        <time>2020-07-16T03:52:55.714Z</time>
      </trkpt>
      <trkpt lat="67.14887" lon="14.40443">
        <ele>207.52778</ele>
        <time>2020-07-16T03:53:09.849Z</time>
      </trkpt>
      <trkpt lat="67.14903" lon="14.40464">
        <ele>206.479719</ele>
        <time>2020-07-16T03:53:12.017Z</time>
      </trkpt>
      <trkpt lat="67.14915" lon="14.4048">
        <ele>205.722136</ele>
        <time>2020-07-16T03:53:13.835Z</time>
      </trkpt>
      <trkpt lat="67.14976" lon="14.40538">
        <ele>202.034704</ele>
        <time>2020-07-16T03:53:21.639Z</time>
      </trkpt>
      <trkpt lat="67.14996" lon="14.40555">
        <ele>200.82858</ele>
        <time>2020-07-16T03:53:24.213Z</time>
      </trkpt>
      <trkpt lat="67.15041" lon="14.40587">
        <ele>198.122918</ele>
        <time>2020-07-16T03:53:29.721Z</time>
      </trkpt>
      <trkpt lat="67.15153" lon="14.40622">
        <ele>188.939908</ele>
        <time>2020-07-16T03:53:42.404Z</time>
      </trkpt>
      <trkpt lat="67.15385" lon="14.40634">
        <ele>170.143829</ele>
        <time>2020-07-16T03:54:07.901Z</time>
      </trkpt>
      <trkpt lat="67.15458" lon="14.40673">
        <ele>167.251098</ele>
        <time>2020-07-16T03:54:17.551Z</time>
      </trkpt>
      <trkpt lat="67.15506" lon="14.40734">
        <ele>166.805992</ele>
        <time>2020-07-16T03:54:26.245Z</time>
      </trkpt>
      <trkpt lat="67.15557" lon="14.40839">
        <ele>166.2612</ele>
        <time>2020-07-16T03:54:41.556Z</time>
      </trkpt>
      <trkpt lat="67.15672" lon="14.41129">
        <ele>164.474428</ele>
        <time>2020-07-16T03:55:12.331Z</time>
      </trkpt>
      <trkpt lat="67.15849" lon="14.41485">
        <ele>152.995329</ele>
        <time>2020-07-16T03:55:38.644Z</time>
      </trkpt>
      <trkpt lat="67.16198" lon="14.42321">
        <ele>129.591078</ele>
        <time>2020-07-16T03:56:35.517Z</time>
      </trkpt>
      <trkpt lat="67.16245" lon="14.42451">
        <ele>128.191317</ele>
        <time>2020-07-16T03:56:52.351Z</time>
      </trkpt>
      <trkpt lat="67.16255" lon="14.42492">
        <ele>128.572079</ele>
        <time>2020-07-16T03:56:55.856Z</time>
      </trkpt>
      <trkpt lat="67.16262" lon="14.42525">
        <ele>128.862995</ele>
        <time>2020-07-16T03:57:01.154Z</time>
      </trkpt>
      <trkpt lat="67.1627" lon="14.4258">
        <ele>129.334378</ele>
        <time>2020-07-16T03:57:05.863Z</time>
      </trkpt>
      <trkpt lat="67.16273" lon="14.42615">
        <ele>129.619224</ele>
        <time>2020-07-16T03:57:11.231Z</time>
      </trkpt>
      <trkpt lat="67.16276" lon="14.42669">
        <ele>130.054291</ele>
        <time>2020-07-16T03:57:15.741Z</time>
      </trkpt>
      <trkpt lat="67.16274" lon="14.42798">
        <ele>131.072416</ele>
        <time>2020-07-16T03:57:30.996Z</time>
      </trkpt>
      <trkpt lat="67.16253" lon="14.43091">
        <ele>130.99534</ele>
        <time>2020-07-16T03:57:51.112Z</time>
      </trkpt>
      <trkpt lat="67.16261" lon="14.43222">
        <ele>130.658313</ele>
        <time>2020-07-16T03:57:58.250Z</time>
      </trkpt>
      <trkpt lat="67.16272" lon="14.43295">
        <ele>130.461008</ele>
        <time>2020-07-16T03:58:02.646Z</time>
      </trkpt>
      <trkpt lat="67.16298" lon="14.43394">
        <ele>130.774879</ele>
        <time>2020-07-16T03:58:09.944Z</time>
      </trkpt>
      <trkpt lat="67.16339" lon="14.43484">
        <ele>131.278241</ele>
        <time>2020-07-16T03:58:19.839Z</time>
      </trkpt>
      <trkpt lat="67.16451" lon="14.43612">
        <ele>132.302662</ele>
        <time>2020-07-16T03:58:51.781Z</time>
      </trkpt>
      <trkpt lat="67.16492" lon="14.43689">
        <ele>132.608585</ele>
        <time>2020-07-16T03:59:03.404Z</time>
      </trkpt>
      <trkpt lat="67.16503" lon="14.43724">
        <ele>132.713248</ele>
        <time>2020-07-16T03:59:07.647Z</time>
      </trkpt>
      <trkpt lat="67.16514" lon="14.43769">
        <ele>132.838803</ele>
        <time>2020-07-16T03:59:11.155Z</time>
      </trkpt>
      <trkpt lat="67.16521" lon="14.43807">
        <ele>132.93736</ele>
        <time>2020-07-16T03:59:14.532Z</time>
      </trkpt>
      <trkpt lat="67.16524" lon="14.43829">
        <ele>132.992092</ele>
        <time>2020-07-16T03:59:15.862Z</time>
      </trkpt>
      <trkpt lat="67.16531" lon="14.43932">
        <ele>132.802388</ele>
        <time>2020-07-16T03:59:21.959Z</time>
      </trkpt>
      <trkpt lat="67.16527" lon="14.44287">
        <ele>127.69564</ele>
        <time>2020-07-16T03:59:39.276Z</time>
      </trkpt>
      <trkpt lat="67.16535" lon="14.44433">
        <ele>126.105158</ele>
        <time>2020-07-16T03:59:46.183Z</time>
      </trkpt>
      <trkpt lat="67.16546" lon="14.44514">
        <ele>125.550494</ele>
        <time>2020-07-16T03:59:50.608Z</time>
      </trkpt>
      <trkpt lat="67.16572" lon="14.44634">
        <ele>124.665299</ele>
        <time>2020-07-16T03:59:58.198Z</time>
      </trkpt>
      <trkpt lat="67.1661" lon="14.44741">
        <ele>123.734125</ele>
        <time>2020-07-16T04:00:08.532Z</time>
      </trkpt>
      <trkpt lat="67.16622" lon="14.44767">
        <ele>123.593993</ele>
        <time>2020-07-16T04:00:11.428Z</time>
      </trkpt>
      <trkpt lat="67.16635" lon="14.44792">
        <ele>123.801839</ele>
        <time>2020-07-16T04:00:15.541Z</time>
      </trkpt>
      <trkpt lat="67.16691" lon="14.44863">
        <ele>124.581058</ele>
        <time>2020-07-16T04:00:30.183Z</time>
      </trkpt>
      <trkpt lat="67.16761" lon="14.44899">
        <ele>125.484328</ele>
        <time>2020-07-16T04:00:48.049Z</time>
      </trkpt>
      <trkpt lat="67.16816" lon="14.44891">
        <ele>125.268304</ele>
        <time>2020-07-16T04:00:58.077Z</time>
      </trkpt>
      <trkpt lat="67.16914" lon="14.44851">
        <ele>123.454797</ele>
        <time>2020-07-16T04:01:11.799Z</time>
      </trkpt>
      <trkpt lat="67.16979" lon="14.44827">
        <ele>122.4545</ele>
        <time>2020-07-16T04:01:20.397Z</time>
      </trkpt>
      <trkpt lat="67.17015" lon="14.44818">
        <ele>122.289108</ele>
        <time>2020-07-16T04:01:25.245Z</time>
      </trkpt>
      <trkpt lat="67.17046" lon="14.44817">
        <ele>122.145255</ele>
        <time>2020-07-16T04:01:29.661Z</time>
      </trkpt>
      <trkpt lat="67.17077" lon="14.44818">
        <ele>122.003708</ele>
        <time>2020-07-16T04:01:34.321Z</time>
      </trkpt>
      <trkpt lat="67.17116" lon="14.44833">
        <ele>121.821156</ele>
        <time>2020-07-16T04:01:42.194Z</time>
      </trkpt>
      <trkpt lat="67.17134" lon="14.44845">
        <ele>121.733875</ele>
        <time>2020-07-16T04:01:47.140Z</time>
      </trkpt>
      <trkpt lat="67.17145" lon="14.44854">
        <ele>121.809491</ele>
        <time>2020-07-16T04:01:50.065Z</time>
      </trkpt>
      <trkpt lat="67.17157" lon="14.44865">
        <ele>122.469504</ele>
        <time>2020-07-16T04:01:54.166Z</time>
      </trkpt>
      <trkpt lat="67.17185" lon="14.44897">
        <ele>124.080151</ele>
        <time>2020-07-16T04:02:03.447Z</time>
      </trkpt>
      <trkpt lat="67.1724" lon="14.44987">
        <ele>127.518247</ele>
        <time>2020-07-16T04:02:26.126Z</time>
      </trkpt>
      <trkpt lat="67.17497" lon="14.45535">
        <ele>145.033135</ele>
        <time>2020-07-16T04:04:40.670Z</time>
      </trkpt>
      <trkpt lat="67.17604" lon="14.45708">
        <ele>143.419484</ele>
        <time>2020-07-16T04:04:57.648Z</time>
      </trkpt>
      <trkpt lat="67.17658" lon="14.45789">
        <ele>137.382246</ele>
        <time>2020-07-16T04:05:04.421Z</time>
      </trkpt>
      <trkpt lat="67.17694" lon="14.45843">
        <ele>133.274139</ele>
        <time>2020-07-16T04:05:08.898Z</time>
      </trkpt>
      <trkpt lat="67.17781" lon="14.45978">
        <ele>121.976681</ele>
        <time>2020-07-16T04:05:19.557Z</time>
      </trkpt>
      <trkpt lat="67.17839" lon="14.46093">
        <ele>113.051112</ele>
        <time>2020-07-16T04:05:27.280Z</time>
      </trkpt>
      <trkpt lat="67.17952" lon="14.46371">
        <ele>97.862825</ele>
        <time>2020-07-16T04:05:44.446Z</time>
      </trkpt>
      <trkpt lat="67.17985" lon="14.46471">
        <ele>93.506445</ele>
        <time>2020-07-16T04:05:50.282Z</time>
      </trkpt>
      <trkpt lat="67.18012" lon="14.46584">
        <ele>90.231843</ele>
        <time>2020-07-16T04:05:56.289Z</time>
      </trkpt>
      <trkpt lat="67.18029" lon="14.46692">
        <ele>88.100734</ele>
        <time>2020-07-16T04:06:01.756Z</time>
      </trkpt>
      <trkpt lat="67.1804" lon="14.46818">
        <ele>85.737414</ele>
        <time>2020-07-16T04:06:08.038Z</time>
      </trkpt>
      <trkpt lat="67.18041" lon="14.46944">
        <ele>83.439444</ele>
        <time>2020-07-16T04:06:14.332Z</time>
      </trkpt>
      <trkpt lat="67.18029" lon="14.47204">
        <ele>78.481162</ele>
        <time>2020-07-16T04:06:27.300Z</time>
      </trkpt>
      <trkpt lat="67.18031" lon="14.47316">
        <ele>76.341359</ele>
        <time>2020-07-16T04:06:32.568Z</time>
      </trkpt>
      <trkpt lat="67.1804" lon="14.47424">
        <ele>74.24347</ele>
        <time>2020-07-16T04:06:37.459Z</time>
      </trkpt>
      <trkpt lat="67.18064" lon="14.47606">
        <ele>69.933185</ele>
        <time>2020-07-16T04:06:46.034Z</time>
      </trkpt>
      <trkpt lat="67.18092" lon="14.47815">
        <ele>64.952471</ele>
        <time>2020-07-16T04:06:56.313Z</time>
      </trkpt>
      <trkpt lat="67.18116" lon="14.47994">
        <ele>61.172181</ele>
        <time>2020-07-16T04:07:05.604Z</time>
      </trkpt>
      <trkpt lat="67.18161" lon="14.48327">
        <ele>53.98708</ele>
        <time>2020-07-16T04:07:22.376Z</time>
      </trkpt>
      <trkpt lat="67.18175" lon="14.48426">
        <ele>50.34417</ele>
        <time>2020-07-16T04:07:26.990Z</time>
      </trkpt>
      <trkpt lat="67.18197" lon="14.48651">
        <ele>42.29947</ele>
        <time>2020-07-16T04:07:36.863Z</time>
      </trkpt>
      <trkpt lat="67.18217" lon="14.48913">
        <ele>33.278295</ele>
        <time>2020-07-16T04:07:48.033Z</time>
      </trkpt>
      <trkpt lat="67.1823" lon="14.4902">
        <ele>29.528392</ele>
        <time>2020-07-16T04:07:52.871Z</time>
      </trkpt>
      <trkpt lat="67.18252" lon="14.49124">
        <ele>25.589117</ele>
        <time>2020-07-16T04:07:58.089Z</time>
      </trkpt>
      <trkpt lat="67.18262" lon="14.49164">
        <ele>23.98339</ele>
        <time>2020-07-16T04:08:00.208Z</time>
      </trkpt>
      <trkpt lat="67.18281" lon="14.49237">
        <ele>22.70738</ele>
        <time>2020-07-16T04:08:04.288Z</time>
      </trkpt>
      <trkpt lat="67.18294" lon="14.49301">
        <ele>21.933501</ele>
        <time>2020-07-16T04:08:07.839Z</time>
      </trkpt>
      <trkpt lat="67.18308" lon="14.49413">
        <ele>20.66678</ele>
        <time>2020-07-16T04:08:13.838Z</time>
      </trkpt>
      <trkpt lat="67.18314" lon="14.49513">
        <ele>19.590079</ele>
        <time>2020-07-16T04:08:19.474Z</time>
      </trkpt>
      <trkpt lat="67.18313" lon="14.49588">
        <ele>18.788586</ele>
        <time>2020-07-16T04:08:24.630Z</time>
      </trkpt>
      <trkpt lat="67.18307" lon="14.49701">
        <ele>18.909494</ele>
        <time>2020-07-16T04:08:33.939Z</time>
      </trkpt>
      <trkpt lat="67.18273" lon="14.50033">
        <ele>20.352916</ele>
        <time>2020-07-16T04:09:03.671Z</time>
      </trkpt>
      <trkpt lat="67.18266" lon="14.50161">
        <ele>20.955669</ele>
        <time>2020-07-16T04:09:14.413Z</time>
      </trkpt>
      <trkpt lat="67.18265" lon="14.50205">
        <ele>21.173412</ele>
        <time>2020-07-16T04:09:18.236Z</time>
      </trkpt>
      <trkpt lat="67.18263" lon="14.50253">
        <ele>21.404582</ele>
        <time>2020-07-16T04:09:22.344Z</time>
      </trkpt>
      <trkpt lat="67.1826" lon="14.50326">
        <ele>21.758025</ele>
        <time>2020-07-16T04:09:28.638Z</time>
      </trkpt>
      <trkpt lat="67.18255" lon="14.50507">
        <ele>22.637017</ele>
        <time>2020-07-16T04:09:44.016Z</time>
      </trkpt>
      <trkpt lat="67.18253" lon="14.50557">
        <ele>23.029512</ele>
        <time>2020-07-16T04:09:48.084Z</time>
      </trkpt>
      <trkpt lat="67.18248" lon="14.5061">
        <ele>23.544526</ele>
        <time>2020-07-16T04:09:52.815Z</time>
      </trkpt>
      <trkpt lat="67.18234" lon="14.50712">
        <ele>24.558962</ele>
        <time>2020-07-16T04:10:01.843Z</time>
      </trkpt>
      <trkpt lat="67.18213" lon="14.50812">
        <ele>25.633398</ele>
        <time>2020-07-16T04:10:12.147Z</time>
      </trkpt>
      <trkpt lat="67.18156" lon="14.51019">
        <ele>29.083582</ele>
        <time>2020-07-16T04:10:43.382Z</time>
      </trkpt>
      <trkpt lat="67.18135" lon="14.5109">
        <ele>30.882056</ele>
        <time>2020-07-16T04:10:55.304Z</time>
      </trkpt>
      <trkpt lat="67.18115" lon="14.5116">
        <ele>32.635508</ele>
        <time>2020-07-16T04:11:07.615Z</time>
      </trkpt>
      <trkpt lat="67.18091" lon="14.51252">
        <ele>34.852327</ele>
        <time>2020-07-16T04:11:23.762Z</time>
      </trkpt>
      <trkpt lat="67.18073" lon="14.51356">
        <ele>36.701743</ele>
        <time>2020-07-16T04:11:39.183Z</time>
      </trkpt>
      <trkpt lat="67.18064" lon="14.51439">
        <ele>37.402291</ele>
        <time>2020-07-16T04:11:50.217Z</time>
      </trkpt>
      <trkpt lat="67.18061" lon="14.51532">
        <ele>38.161684</ele>
        <time>2020-07-16T04:12:00.896Z</time>
      </trkpt>
      <trkpt lat="67.18061" lon="14.51581">
        <ele>38.562252</ele>
        <time>2020-07-16T04:12:05.798Z</time>
      </trkpt>
      <trkpt lat="67.18065" lon="14.51655">
        <ele>39.171525</ele>
        <time>2020-07-16T04:12:11.381Z</time>
      </trkpt>
      <trkpt lat="67.1808" lon="14.51878">
        <ele>39.313135</ele>
        <time>2020-07-16T04:12:25.089Z</time>
      </trkpt>
      <trkpt lat="67.18081" lon="14.51987">
        <ele>38.389497</ele>
        <time>2020-07-16T04:12:30.613Z</time>
      </trkpt>
      <trkpt lat="67.18073" lon="14.52095">
        <ele>37.46087</ele>
        <time>2020-07-16T04:12:36.127Z</time>
      </trkpt>
      <trkpt lat="67.18044" lon="14.52292">
        <ele>35.837073</ele>
        <time>2020-07-16T04:12:47.605Z</time>
      </trkpt>
      <trkpt lat="67.1803" lon="14.52376">
        <ele>35.281124</ele>
        <time>2020-07-16T04:12:52.886Z</time>
      </trkpt>
      <trkpt lat="67.18016" lon="14.52463">
        <ele>34.720485</ele>
        <time>2020-07-16T04:12:58.344Z</time>
      </trkpt>
      <trkpt lat="67.17987" lon="14.52692">
        <ele>33.246402</ele>
        <time>2020-07-16T04:13:12.344Z</time>
      </trkpt>
      <trkpt lat="67.17974" lon="14.52868">
        <ele>32.031881</ele>
        <time>2020-07-16T04:13:22.682Z</time>
      </trkpt>
      <trkpt lat="67.17965" lon="14.53091">
        <ele>30.517932</ele>
        <time>2020-07-16T04:13:34.670Z</time>
      </trkpt>
      <trkpt lat="67.17932" lon="14.53926">
        <ele>26.471292</ele>
        <time>2020-07-16T04:14:23.484Z</time>
      </trkpt>
      <trkpt lat="67.17887" lon="14.54529">
        <ele>24.914894</ele>
        <time>2020-07-16T04:15:05.250Z</time>
      </trkpt>
      <trkpt lat="67.17883" lon="14.5459">
        <ele>24.226298</ele>
        <time>2020-07-16T04:15:08.435Z</time>
      </trkpt>
      <trkpt lat="67.1788" lon="14.54687">
        <ele>23.140037</ele>
        <time>2020-07-16T04:15:13.299Z</time>
      </trkpt>
      <trkpt lat="67.17879" lon="14.5487">
        <ele>21.11146</ele>
        <time>2020-07-16T04:15:22.279Z</time>
      </trkpt>
      <trkpt lat="67.1788" lon="14.54962">
        <ele>20.129189</ele>
        <time>2020-07-16T04:15:26.913Z</time>
      </trkpt>
      <trkpt lat="67.17881" lon="14.55118">
        <ele>20.694668</ele>
        <time>2020-07-16T04:15:35.208Z</time>
      </trkpt>
      <trkpt lat="67.17882" lon="14.55206">
        <ele>21.016344</ele>
        <time>2020-07-16T04:15:40.995Z</time>
      </trkpt>
      <trkpt lat="67.17883" lon="14.55297">
        <ele>21.346626</ele>
        <time>2020-07-16T04:15:48.844Z</time>
      </trkpt>
      <trkpt lat="67.17873" lon="14.55575">
        <ele>26.818632</ele>
        <time>2020-07-16T04:16:28.252Z</time>
      </trkpt>
      <trkpt lat="67.17831" lon="14.56086">
        <ele>44.085243</ele>
        <time>2020-07-16T04:18:09.370Z</time>
      </trkpt>
      <trkpt lat="67.1782" lon="14.56465">
        <ele>53.801976</ele>
        <time>2020-07-16T04:19:12.886Z</time>
      </trkpt>
      <trkpt lat="67.17777" lon="14.56963">
        <ele>51.419516</ele>
        <time>2020-07-16T04:19:50.455Z</time>
      </trkpt>
      <trkpt lat="67.17779" lon="14.57168">
        <ele>44.796569</ele>
        <time>2020-07-16T04:19:58.932Z</time>
      </trkpt>
      <trkpt lat="67.17794" lon="14.57314">
        <ele>38.207538</ele>
        <time>2020-07-16T04:20:05.018Z</time>
      </trkpt>
      <trkpt lat="67.17806" lon="14.5738">
        <ele>34.008682</ele>
        <time>2020-07-16T04:20:07.913Z</time>
      </trkpt>
      <trkpt lat="67.17817" lon="14.57427">
        <ele>30.816853</ele>
        <time>2020-07-16T04:20:10.121Z</time>
      </trkpt>
      <trkpt lat="67.17831" lon="14.57476">
        <ele>27.365833</ele>
        <time>2020-07-16T04:20:12.545Z</time>
      </trkpt>
      <trkpt lat="67.17844" lon="14.57516">
        <ele>24.285787</ele>
        <time>2020-07-16T04:20:14.670Z</time>
      </trkpt>
      <trkpt lat="67.17859" lon="14.57561">
        <ele>20.927986</ele>
        <time>2020-07-16T04:20:17.039Z</time>
      </trkpt>
      <trkpt lat="67.17867" lon="14.57582">
        <ele>19.253346</ele>
        <time>2020-07-16T04:20:18.202Z</time>
      </trkpt>
      <trkpt lat="67.17895" lon="14.5766">
        <ele>15.027144</ele>
        <time>2020-07-16T04:20:22.551Z</time>
      </trkpt>
      <trkpt lat="67.17969" lon="14.57863">
        <ele>12.488306</ele>
        <time>2020-07-16T04:20:36.846Z</time>
      </trkpt>
      <trkpt lat="67.18004" lon="14.57957">
        <ele>11.307031</ele>
        <time>2020-07-16T04:20:52.329Z</time>
      </trkpt>
      <trkpt lat="67.18029" lon="14.58026">
        <ele>12.991419</ele>
        <time>2020-07-16T04:21:05.555Z</time>
      </trkpt>
      <trkpt lat="67.18063" lon="14.58132">
        <ele>16.118788</ele>
        <time>2020-07-16T04:21:25.930Z</time>
      </trkpt>
      <trkpt lat="67.18087" lon="14.58233">
        <ele>18.820611</ele>
        <time>2020-07-16T04:21:44.580Z</time>
      </trkpt>
      <trkpt lat="67.18098" lon="14.58314">
        <ele>20.780082</ele>
        <time>2020-07-16T04:21:57.789Z</time>
      </trkpt>
      <trkpt lat="67.18104" lon="14.5841">
        <ele>22.577481</ele>
        <time>2020-07-16T04:22:11.260Z</time>
      </trkpt>
      <trkpt lat="67.18104" lon="14.58492">
        <ele>23.789297</ele>
        <time>2020-07-16T04:22:21.601Z</time>
      </trkpt>
      <trkpt lat="67.18096" lon="14.58599">
        <ele>25.402211</ele>
        <time>2020-07-16T04:22:34.612Z</time>
      </trkpt>
      <trkpt lat="67.18024" lon="14.5919">
        <ele>32.859173</ele>
        <time>2020-07-16T04:23:37.090Z</time>
      </trkpt>
      <trkpt lat="67.18014" lon="14.59307">
        <ele>34.738539</ele>
        <time>2020-07-16T04:23:49.299Z</time>
      </trkpt>
      <trkpt lat="67.18016" lon="14.5949">
        <ele>38.669403</ele>
        <time>2020-07-16T04:24:12.911Z</time>
      </trkpt>
      <trkpt lat="67.18039" lon="14.59743">
        <ele>44.360693</ele>
        <time>2020-07-16T04:24:54.348Z</time>
      </trkpt>
      <trkpt lat="67.18048" lon="14.59793">
        <ele>45.727726</ele>
        <time>2020-07-16T04:25:02.308Z</time>
      </trkpt>
      <trkpt lat="67.18055" lon="14.59825">
        <ele>46.620611</ele>
        <time>2020-07-16T04:25:09.345Z</time>
      </trkpt>
      <trkpt lat="67.18085" lon="14.59935">
        <ele>49.953974</ele>
        <time>2020-07-16T04:25:30.255Z</time>
      </trkpt>
      <trkpt lat="67.18124" lon="14.60027">
        <ele>53.257793</ele>
        <time>2020-07-16T04:25:51.247Z</time>
      </trkpt>
      <trkpt lat="67.18175" lon="14.60103">
        <ele>54.84193</ele>
        <time>2020-07-16T04:26:10.070Z</time>
      </trkpt>
      <trkpt lat="67.18224" lon="14.60142">
        <ele>54.777675</ele>
        <time>2020-07-16T04:26:19.685Z</time>
      </trkpt>
      <trkpt lat="67.18252" lon="14.60152">
        <ele>54.741699</ele>
        <time>2020-07-16T04:26:24.077Z</time>
      </trkpt>
      <trkpt lat="67.18303" lon="14.60149">
        <ele>54.677825</ele>
        <time>2020-07-16T04:26:31.040Z</time>
      </trkpt>
      <trkpt lat="67.18406" lon="14.6009">
        <ele>50.847512</ele>
        <time>2020-07-16T04:26:44.172Z</time>
      </trkpt>
      <trkpt lat="67.1848" lon="14.60085">
        <ele>47.73028</ele>
        <time>2020-07-16T04:26:53.169Z</time>
      </trkpt>
      <trkpt lat="67.1852" lon="14.60107">
        <ele>46.28008</ele>
        <time>2020-07-16T04:26:58.270Z</time>
      </trkpt>
      <trkpt lat="67.18876" lon="14.60376">
        <ele>35.588571</ele>
        <time>2020-07-16T04:27:48.144Z</time>
      </trkpt>
      <trkpt lat="67.19003" lon="14.60403">
        <ele>31.72549</ele>
        <time>2020-07-16T04:28:05.392Z</time>
      </trkpt>
      <trkpt lat="67.19165" lon="14.6041">
        <ele>24.511391</ele>
        <time>2020-07-16T04:28:25.339Z</time>
      </trkpt>
      <trkpt lat="67.19184" lon="14.6041">
        <ele>23.651299</ele>
        <time>2020-07-16T04:28:27.568Z</time>
      </trkpt>
      <trkpt lat="67.19202" lon="14.60412">
        <ele>22.893992</ele>
        <time>2020-07-16T04:28:29.674Z</time>
      </trkpt>
      <trkpt lat="67.19265" lon="14.60414">
        <ele>21.174734</ele>
        <time>2020-07-16T04:28:37.424Z</time>
      </trkpt>
      <trkpt lat="67.19338" lon="14.6042">
        <ele>19.202672</ele>
        <time>2020-07-16T04:28:46.952Z</time>
      </trkpt>
      <trkpt lat="67.19423" lon="14.60451">
        <ele>20.073528</ele>
        <time>2020-07-16T04:29:03.977Z</time>
      </trkpt>
      <trkpt lat="67.19475" lon="14.60501">
        <ele>22.53919</ele>
        <time>2020-07-16T04:29:21.244Z</time>
      </trkpt>
      <trkpt lat="67.1951" lon="14.60554">
        <ele>24.322111</ele>
        <time>2020-07-16T04:29:36.507Z</time>
      </trkpt>
      <trkpt lat="67.19541" lon="14.60616">
        <ele>26.064587</ele>
        <time>2020-07-16T04:29:52.877Z</time>
      </trkpt>
      <trkpt lat="67.19572" lon="14.60699">
        <ele>29.679569</ele>
        <time>2020-07-16T04:30:13.455Z</time>
      </trkpt>
      <trkpt lat="67.19591" lon="14.60765">
        <ele>32.227206</ele>
        <time>2020-07-16T04:30:28.393Z</time>
      </trkpt>
      <trkpt lat="67.19616" lon="14.60894">
        <ele>36.718851</ele>
        <time>2020-07-16T04:30:54.139Z</time>
      </trkpt>
      <trkpt lat="67.19635" lon="14.61079">
        <ele>41.413129</ele>
        <time>2020-07-16T04:31:25.957Z</time>
      </trkpt>
      <trkpt lat="67.19638" lon="14.6146">
        <ele>46.332227</ele>
        <time>2020-07-16T04:32:06.867Z</time>
      </trkpt>
      <trkpt lat="67.19643" lon="14.61564">
        <ele>45.298098</ele>
        <time>2020-07-16T04:32:12.665Z</time>
      </trkpt>
      <trkpt lat="67.19652" lon="14.61649">
        <ele>44.153134</ele>
        <time>2020-07-16T04:32:17.154Z</time>
      </trkpt>
      <trkpt lat="67.19691" lon="14.61889">
        <ele>40.780449</ele>
        <time>2020-07-16T04:32:29.435Z</time>
      </trkpt>
      <trkpt lat="67.19699" lon="14.61987">
        <ele>38.805275</ele>
        <time>2020-07-16T04:32:34.128Z</time>
      </trkpt>
      <trkpt lat="67.19701" lon="14.62089">
        <ele>36.574452</ele>
        <time>2020-07-16T04:32:38.992Z</time>
      </trkpt>
      <trkpt lat="67.19695" lon="14.62185">
        <ele>34.468238</ele>
        <time>2020-07-16T04:32:43.623Z</time>
      </trkpt>
      <trkpt lat="67.19651" lon="14.62463">
        <ele>26.811167</ele>
        <time>2020-07-16T04:32:57.103Z</time>
      </trkpt>
      <trkpt lat="67.19643" lon="14.62527">
        <ele>24.644151</ele>
        <time>2020-07-16T04:33:00.070Z</time>
      </trkpt>
      <trkpt lat="67.19639" lon="14.6257">
        <ele>23.231323</ele>
        <time>2020-07-16T04:33:02.036Z</time>
      </trkpt>
      <trkpt lat="67.19636" lon="14.62614">
        <ele>21.830061</ele>
        <time>2020-07-16T04:33:03.931Z</time>
      </trkpt>
      <trkpt lat="67.19636" lon="14.62647">
        <ele>20.774063</ele>
        <time>2020-07-16T04:33:05.397Z</time>
      </trkpt>
      <trkpt lat="67.19635" lon="14.62659">
        <ele>20.387975</ele>
        <time>2020-07-16T04:33:05.921Z</time>
      </trkpt>
      <trkpt lat="67.19636" lon="14.62668">
        <ele>20.091044</ele>
        <time>2020-07-16T04:33:06.325Z</time>
      </trkpt>
      <trkpt lat="67.19636" lon="14.6269">
        <ele>19.386084</ele>
        <time>2020-07-16T04:33:07.213Z</time>
      </trkpt>
      <trkpt lat="67.19641" lon="14.62766">
        <ele>16.927229</ele>
        <time>2020-07-16T04:33:10.544Z</time>
      </trkpt>
      <trkpt lat="67.19652" lon="14.6284">
        <ele>14.635517</ele>
        <time>2020-07-16T04:33:13.896Z</time>
      </trkpt>
      <trkpt lat="67.19673" lon="14.62919">
        <ele>12.153117</ele>
        <time>2020-07-16T04:33:17.967Z</time>
      </trkpt>
      <trkpt lat="67.19699" lon="14.62983">
        <ele>9.724538</ele>
        <time>2020-07-16T04:33:22.005Z</time>
      </trkpt>
      <trkpt lat="67.19714" lon="14.6301">
        <ele>8.482246</ele>
        <time>2020-07-16T04:33:24.016Z</time>
      </trkpt>
      <trkpt lat="67.19863" lon="14.6327">
        <ele>1.649915</ele>
        <time>2020-07-16T04:33:47.928Z</time>
      </trkpt>
      <trkpt lat="67.19909" lon="14.63346">
        <ele>0.697751</ele>
        <time>2020-07-16T04:33:57.304Z</time>
      </trkpt>
      <trkpt lat="67.19944" lon="14.63394">
        <ele>0.360124</ele>
        <time>2020-07-16T04:34:04.467Z</time>
      </trkpt>
      <trkpt lat="67.19957" lon="14.63406">
        <ele>0.368476</ele>
        <time>2020-07-16T04:34:06.910Z</time>
      </trkpt>
      <trkpt lat="67.19971" lon="14.63414">
        <ele>0.377074</ele>
        <time>2020-07-16T04:34:09.539Z</time>
      </trkpt>
      <trkpt lat="67.19993" lon="14.6342">
        <ele>0.390302</ele>
        <time>2020-07-16T04:34:13.471Z</time>
      </trkpt>
      <trkpt lat="67.20026" lon="14.6342">
        <ele>0.410785</ele>
        <time>2020-07-16T04:34:19.688Z</time>
      </trkpt>
      <trkpt lat="67.20048" lon="14.6341">
        <ele>0.423769</ele>
        <time>2020-07-16T04:34:23.679Z</time>
      </trkpt>
      <trkpt lat="67.20084" lon="14.63366">
        <ele>0.448423</ele>
        <time>2020-07-16T04:34:31.074Z</time>
      </trkpt>
      <trkpt lat="67.20111" lon="14.63312">
        <ele>0.454032</ele>
        <time>2020-07-16T04:34:37.189Z</time>
      </trkpt>
      <trkpt lat="67.20189" lon="14.63051">
        <ele>0.436161</ele>
        <time>2020-07-16T04:34:59.794Z</time>
      </trkpt>
      <trkpt lat="67.20206" lon="14.6299">
        <ele>0.432062</ele>
        <time>2020-07-16T04:35:04.945Z</time>
      </trkpt>
      <trkpt lat="67.20262" lon="14.62779">
        <ele>0.613818</ele>
        <time>2020-07-16T04:35:22.712Z</time>
      </trkpt>
      <trkpt lat="67.20367" lon="14.62388">
        <ele>1.748471</ele>
        <time>2020-07-16T04:35:57.612Z</time>
      </trkpt>
      <trkpt lat="67.20429" lon="14.62111">
        <ele>4.086389</ele>
        <time>2020-07-16T04:36:26.390Z</time>
      </trkpt>
      <trkpt lat="67.20489" lon="14.61801">
        <ele>8.782669</ele>
        <time>2020-07-16T04:37:07.610Z</time>
      </trkpt>
      <trkpt lat="67.20577" lon="14.61478">
        <ele>16.124948</ele>
        <time>2020-07-16T04:38:00.580Z</time>
      </trkpt>
      <trkpt lat="67.20601" lon="14.61339">
        <ele>18.600386</ele>
        <time>2020-07-16T04:38:18.704Z</time>
      </trkpt>
      <trkpt lat="67.2061" lon="14.61198">
        <ele>20.637799</ele>
        <time>2020-07-16T04:38:34.928Z</time>
      </trkpt>
      <trkpt lat="67.20611" lon="14.61081">
        <ele>22.291837</ele>
        <time>2020-07-16T04:38:47.444Z</time>
      </trkpt>
      <trkpt lat="67.20613" lon="14.60993">
        <ele>23.549961</ele>
        <time>2020-07-16T04:38:57.159Z</time>
      </trkpt>
      <trkpt lat="67.20621" lon="14.60902">
        <ele>25.293931</ele>
        <time>2020-07-16T04:39:07.623Z</time>
      </trkpt>
      <trkpt lat="67.20635" lon="14.60834">
        <ele>26.985725</ele>
        <time>2020-07-16T04:39:17.022Z</time>
      </trkpt>
      <trkpt lat="67.2067" lon="14.60737">
        <ele>29.894601</ele>
        <time>2020-07-16T04:39:34.772Z</time>
      </trkpt>
      <trkpt lat="67.20719" lon="14.60686">
        <ele>32.872517</ele>
        <time>2020-07-16T04:39:55.700Z</time>
      </trkpt>
      <trkpt lat="67.20767" lon="14.60678">
        <ele>36.202138</ele>
        <time>2020-07-16T04:40:16.102Z</time>
      </trkpt>
      <trkpt lat="67.20812" lon="14.60715">
        <ele>40.129898</ele>
        <time>2020-07-16T04:40:37.130Z</time>
      </trkpt>
      <trkpt lat="67.20882" lon="14.60838">
        <ele>47.060727</ele>
        <time>2020-07-16T04:41:14.963Z</time>
      </trkpt>
      <trkpt lat="67.21019" lon="14.61004">
        <ele>60.852699</ele>
        <time>2020-07-16T04:42:24.714Z</time>
      </trkpt>
      <trkpt lat="67.21059" lon="14.61081">
        <ele>65.439835</ele>
        <time>2020-07-16T04:42:48.554Z</time>
      </trkpt>
      <trkpt lat="67.21064" lon="14.61097">
        <ele>66.304907</ele>
        <time>2020-07-16T04:42:53.301Z</time>
      </trkpt>
      <trkpt lat="67.21071" lon="14.61121">
        <ele>67.583434</ele>
        <time>2020-07-16T04:42:59.508Z</time>
      </trkpt>
      <trkpt lat="67.21077" lon="14.61147">
        <ele>68.910312</ele>
        <time>2020-07-16T04:43:05.226Z</time>
      </trkpt>
      <trkpt lat="67.21091" lon="14.61206">
        <ele>71.901738</ele>
        <time>2020-07-16T04:43:20.890Z</time>
      </trkpt>
      <trkpt lat="67.21118" lon="14.61394">
        <ele>80.566221</ele>
        <time>2020-07-16T04:44:04.787Z</time>
      </trkpt>
      <trkpt lat="67.21147" lon="14.61601">
        <ele>87.866943</ele>
        <time>2020-07-16T04:44:49.468Z</time>
      </trkpt>
      <trkpt lat="67.21165" lon="14.61722">
        <ele>90.604389</ele>
        <time>2020-07-16T04:45:09.368Z</time>
      </trkpt>
      <trkpt lat="67.21186" lon="14.61831">
        <ele>93.168996</ele>
        <time>2020-07-16T04:45:25.072Z</time>
      </trkpt>
      <trkpt lat="67.21236" lon="14.62023">
        <ele>93.699035</ele>
        <time>2020-07-16T04:45:42.325Z</time>
      </trkpt>
      <trkpt lat="67.21272" lon="14.62137">
        <ele>91.387451</ele>
        <time>2020-07-16T04:45:49.272Z</time>
      </trkpt>
      <trkpt lat="67.21318" lon="14.62255">
        <ele>88.767698</ele>
        <time>2020-07-16T04:45:56.842Z</time>
      </trkpt>
      <trkpt lat="67.21338" lon="14.623">
        <ele>87.020351</ele>
        <time>2020-07-16T04:45:59.948Z</time>
      </trkpt>
      <trkpt lat="67.21358" lon="14.6234">
        <ele>84.950303</ele>
        <time>2020-07-16T04:46:02.690Z</time>
      </trkpt>
      <trkpt lat="67.21408" lon="14.62429">
        <ele>79.788653</ele>
        <time>2020-07-16T04:46:09.524Z</time>
      </trkpt>
      <trkpt lat="67.21447" lon="14.62483">
        <ele>76.089328</ele>
        <time>2020-07-16T04:46:14.347Z</time>
      </trkpt>
      <trkpt lat="67.21537" lon="14.62584">
        <ele>67.566746</ele>
        <time>2020-07-16T04:46:25.400Z</time>
      </trkpt>
      <trkpt lat="67.21587" lon="14.62609">
        <ele>63.192259</ele>
        <time>2020-07-16T04:46:30.917Z</time>
      </trkpt>
      <trkpt lat="67.2161" lon="14.62609">
        <ele>61.148713</ele>
        <time>2020-07-16T04:46:33.534Z</time>
      </trkpt>
      <trkpt lat="67.21635" lon="14.62604">
        <ele>58.92272</ele>
        <time>2020-07-16T04:46:36.361Z</time>
      </trkpt>
      <trkpt lat="67.21677" lon="14.62572">
        <ele>55.240174</ele>
        <time>2020-07-16T04:46:41.170Z</time>
      </trkpt>
      <trkpt lat="67.21694" lon="14.62549">
        <ele>53.578726</ele>
        <time>2020-07-16T04:46:43.347Z</time>
      </trkpt>
      <trkpt lat="67.21711" lon="14.62523">
        <ele>51.927156</ele>
        <time>2020-07-16T04:46:45.538Z</time>
      </trkpt>
      <trkpt lat="67.21736" lon="14.62475">
        <ele>49.275741</ele>
        <time>2020-07-16T04:46:49.064Z</time>
      </trkpt>
      <trkpt lat="67.21767" lon="14.62405">
        <ele>45.810373</ele>
        <time>2020-07-16T04:46:53.646Z</time>
      </trkpt>
      <trkpt lat="67.21875" lon="14.62161">
        <ele>34.331353</ele>
        <time>2020-07-16T04:47:09.757Z</time>
      </trkpt>
      <trkpt lat="67.21923" lon="14.62054">
        <ele>29.399887</ele>
        <time>2020-07-16T04:47:16.942Z</time>
      </trkpt>
      <trkpt lat="67.21945" lon="14.62005">
        <ele>27.284942</ele>
        <time>2020-07-16T04:47:20.293Z</time>
      </trkpt>
      <trkpt lat="67.21956" lon="14.61977">
        <ele>26.240988</ele>
        <time>2020-07-16T04:47:22.069Z</time>
      </trkpt>
      <trkpt lat="67.21967" lon="14.61951">
        <ele>25.249507</ele>
        <time>2020-07-16T04:47:23.816Z</time>
      </trkpt>
      <trkpt lat="67.21976" lon="14.61924">
        <ele>24.315464</ele>
        <time>2020-07-16T04:47:25.370Z</time>
      </trkpt>
      <trkpt lat="67.22014" lon="14.61788">
        <ele>19.966008</ele>
        <time>2020-07-16T04:47:32.858Z</time>
      </trkpt>
      <trkpt lat="67.22054" lon="14.61616">
        <ele>15.260207</ele>
        <time>2020-07-16T04:47:41.962Z</time>
      </trkpt>
      <trkpt lat="67.22056" lon="14.6161">
        <ele>15.132202</ele>
        <time>2020-07-16T04:47:42.283Z</time>
      </trkpt>
      <trkpt lat="67.22081" lon="14.61513">
        <ele>13.246105</ele>
        <time>2020-07-16T04:47:47.734Z</time>
      </trkpt>
      <trkpt lat="67.22103" lon="14.6145">
        <ele>11.879327</ele>
        <time>2020-07-16T04:47:51.730Z</time>
      </trkpt>
      <trkpt lat="67.22162" lon="14.61352">
        <ele>8.984913</ele>
        <time>2020-07-16T04:48:00.603Z</time>
      </trkpt>
      <trkpt lat="67.22184" lon="14.61328">
        <ele>8.968688</ele>
        <time>2020-07-16T04:48:03.979Z</time>
      </trkpt>
      <trkpt lat="67.22482" lon="14.61031">
        <ele>19.160111</ele>
        <time>2020-07-16T04:49:35.291Z</time>
      </trkpt>
      <trkpt lat="67.22555" lon="14.60957">
        <ele>22.769788</ele>
        <time>2020-07-16T04:50:08.283Z</time>
      </trkpt>
      <trkpt lat="67.22612" lon="14.60881">
        <ele>25.842319</ele>
        <time>2020-07-16T04:50:31.961Z</time>
      </trkpt>
      <trkpt lat="67.2263" lon="14.60843">
        <ele>26.984291</ele>
        <time>2020-07-16T04:50:41.056Z</time>
      </trkpt>
      <trkpt lat="67.22643" lon="14.60808">
        <ele>27.880613</ele>
        <time>2020-07-16T04:50:45.853Z</time>
      </trkpt>
      <trkpt lat="67.2271" lon="14.6055">
        <ele>26.629242</ele>
        <time>2020-07-16T04:51:06.058Z</time>
      </trkpt>
      <trkpt lat="67.22715" lon="14.60535">
        <ele>26.457434</ele>
        <time>2020-07-16T04:51:07.035Z</time>
      </trkpt>
      <trkpt lat="67.22709" lon="14.6052">
        <ele>26.274387</ele>
        <time>2020-07-16T04:51:09.002Z</time>
      </trkpt>
      <trkpt lat="67.22717" lon="14.60498">
        <ele>26.015326</ele>
        <time>2020-07-16T04:51:10.438Z</time>
      </trkpt>
      <trkpt lat="67.22753" lon="14.60428">
        <ele>25.022884</ele>
        <time>2020-07-16T04:51:16.103Z</time>
      </trkpt>
      <trkpt lat="67.22802" lon="14.60368">
        <ele>21.841725</ele>
        <time>2020-07-16T04:51:22.874Z</time>
      </trkpt>
      <trkpt lat="67.22824" lon="14.60356">
        <ele>20.391567</ele>
        <time>2020-07-16T04:51:25.548Z</time>
      </trkpt>
      <trkpt lat="67.22851" lon="14.60358">
        <ele>18.655232</ele>
        <time>2020-07-16T04:51:28.774Z</time>
      </trkpt>
      <trkpt lat="67.22865" lon="14.60364">
        <ele>17.740421</ele>
        <time>2020-07-16T04:51:30.490Z</time>
      </trkpt>
      <trkpt lat="67.22868" lon="14.60366">
        <ele>17.535615</ele>
        <time>2020-07-16T04:51:30.901Z</time>
      </trkpt>
      <trkpt lat="67.22869" lon="14.60367">
        <ele>17.488929</ele>
        <time>2020-07-16T04:51:30.990Z</time>
      </trkpt>
      <trkpt lat="67.22871" lon="14.60369">
        <ele>17.327572</ele>
        <time>2020-07-16T04:51:31.317Z</time>
      </trkpt>
      <trkpt lat="67.2289" lon="14.60385">
        <ele>16.035312</ele>
        <time>2020-07-16T04:51:33.698Z</time>
      </trkpt>
      <trkpt lat="67.2291" lon="14.60411">
        <ele>14.590459</ele>
        <time>2020-07-16T04:51:36.456Z</time>
      </trkpt>
      <trkpt lat="67.22934" lon="14.60464">
        <ele>12.844971</ele>
        <time>2020-07-16T04:51:40.306Z</time>
      </trkpt>
      <trkpt lat="67.22958" lon="14.60533">
        <ele>11.395757</ele>
        <time>2020-07-16T04:51:44.676Z</time>
      </trkpt>
      <trkpt lat="67.22964" lon="14.60552">
        <ele>11.017301</ele>
        <time>2020-07-16T04:51:45.764Z</time>
      </trkpt>
      <trkpt lat="67.2309" lon="14.6107">
        <ele>4.813168</ele>
        <time>2020-07-16T04:52:19.166Z</time>
      </trkpt>
      <trkpt lat="67.23318" lon="14.62078">
        <ele>10.758627</ele>
        <time>2020-07-16T04:54:08.383Z</time>
      </trkpt>
      <trkpt lat="67.23323" lon="14.62097">
        <ele>10.924226</ele>
        <time>2020-07-16T04:54:10.387Z</time>
      </trkpt>
      <trkpt lat="67.2335" lon="14.62189">
        <ele>11.793309</ele>
        <time>2020-07-16T04:54:21.190Z</time>
      </trkpt>
      <trkpt lat="67.23359" lon="14.6222">
        <ele>12.080873</ele>
        <time>2020-07-16T04:54:24.826Z</time>
      </trkpt>
      <trkpt lat="67.23357" lon="14.62224">
        <ele>12.120502</ele>
        <time>2020-07-16T04:54:25.269Z</time>
      </trkpt>
      <trkpt lat="67.23352" lon="14.62231">
        <ele>12.238572</ele>
        <time>2020-07-16T04:54:26.591Z</time>
      </trkpt>
      <trkpt lat="67.23346" lon="14.62241">
        <ele>12.371968</ele>
        <time>2020-07-16T04:54:28.404Z</time>
      </trkpt>
      <trkpt lat="67.23344" lon="14.62244">
        <ele>12.413431</ele>
        <time>2020-07-16T04:54:28.943Z</time>
      </trkpt>
      <trkpt lat="67.23339" lon="14.62255">
        <ele>12.54258</ele>
        <time>2020-07-16T04:54:30.503Z</time>
      </trkpt>
      <trkpt lat="67.23337" lon="14.62268">
        <ele>12.646441</ele>
        <time>2020-07-16T04:54:31.721Z</time>
      </trkpt>
      <trkpt lat="67.23342" lon="14.62286">
        <ele>12.818873</ele>
        <time>2020-07-16T04:54:34.194Z</time>
      </trkpt>
      <trkpt lat="67.23385" lon="14.62459">
        <ele>15.130065</ele>
        <time>2020-07-16T04:54:54.653Z</time>
      </trkpt>
      <trkpt lat="67.23389" lon="14.62481">
        <ele>15.555041</ele>
        <time>2020-07-16T04:54:57.380Z</time>
      </trkpt>
      <trkpt lat="67.23384" lon="14.62487">
        <ele>15.776355</ele>
        <time>2020-07-16T04:54:58.776Z</time>
      </trkpt>
      <trkpt lat="67.23379" lon="14.62487">
        <ele>15.999987</ele>
        <time>2020-07-16T04:55:00.323Z</time>
      </trkpt>
      <trkpt lat="67.23364" lon="14.62484">
        <ele>16.672518</ele>
        <time>2020-07-16T04:55:04.947Z</time>
      </trkpt>
      <trkpt lat="67.23374" lon="14.62625">
        <ele>19.099181</ele>
        <time>2020-07-16T04:55:23.713Z</time>
      </trkpt>
      <trkpt lat="67.23384" lon="14.62744">
        <ele>21.172565</ele>
        <time>2020-07-16T04:55:40.638Z</time>
      </trkpt>
      <trkpt lat="67.23404" lon="14.62731">
        <ele>22.398006</ele>
        <time>2020-07-16T04:55:49.283Z</time>
      </trkpt>
      <trkpt lat="67.23413" lon="14.62722">
        <ele>23.120778</ele>
        <time>2020-07-16T04:55:53.555Z</time>
      </trkpt>
      <trkpt lat="67.23423" lon="14.62712">
        <ele>23.969958</ele>
        <time>2020-07-16T04:55:58.028Z</time>
      </trkpt>
      <trkpt lat="67.23428" lon="14.62778">
        <ele>25.953952</ele>
        <time>2020-07-16T04:56:10.024Z</time>
      </trkpt>
      <trkpt lat="67.23436" lon="14.62944">
        <ele>30.881496</ele>
        <time>2020-07-16T04:56:38.608Z</time>
      </trkpt>
      <trkpt lat="67.23441" lon="14.63096">
        <ele>35.327152</ele>
        <time>2020-07-16T04:57:03.986Z</time>
      </trkpt>
      <trkpt lat="67.23444" lon="14.63211">
        <ele>37.425057</ele>
        <time>2020-07-16T04:57:22.141Z</time>
      </trkpt>
      <trkpt lat="67.23445" lon="14.63236">
        <ele>37.89008</ele>
        <time>2020-07-16T04:57:26.006Z</time>
      </trkpt>
      <trkpt lat="67.23453" lon="14.63516">
        <ele>43.007057</ele>
        <time>2020-07-16T04:58:00.445Z</time>
      </trkpt>
      <trkpt lat="67.23457" lon="14.63611">
        <ele>43.647588</ele>
        <time>2020-07-16T04:58:08.431Z</time>
      </trkpt>
      <trkpt lat="67.23462" lon="14.63686">
        <ele>43.477236</ele>
        <time>2020-07-16T04:58:13.991Z</time>
      </trkpt>
      <trkpt lat="67.23469" lon="14.63739">
        <ele>43.354434</ele>
        <time>2020-07-16T04:58:17.920Z</time>
      </trkpt>
      <trkpt lat="67.23476" lon="14.6379">
        <ele>43.232256</ele>
        <time>2020-07-16T04:58:21.510Z</time>
      </trkpt>
      <trkpt lat="67.23489" lon="14.6387">
        <ele>43.039835</ele>
        <time>2020-07-16T04:58:27.029Z</time>
      </trkpt>
      <trkpt lat="67.23602" lon="14.64516">
        <ele>34.224261</ele>
        <time>2020-07-16T04:59:03.032Z</time>
      </trkpt>
      <trkpt lat="67.23648" lon="14.64782">
        <ele>26.88758</ele>
        <time>2020-07-16T04:59:15.857Z</time>
      </trkpt>
      <trkpt lat="67.23674" lon="14.64974">
        <ele>22.820746</ele>
        <time>2020-07-16T04:59:24.735Z</time>
      </trkpt>
      <trkpt lat="67.23677" lon="14.65054">
        <ele>21.417804</ele>
        <time>2020-07-16T04:59:28.389Z</time>
      </trkpt>
      <trkpt lat="67.23672" lon="14.65191">
        <ele>19.007948</ele>
        <time>2020-07-16T04:59:35.231Z</time>
      </trkpt>
      <trkpt lat="67.23661" lon="14.65371">
        <ele>17.288562</ele>
        <time>2020-07-16T04:59:45.984Z</time>
      </trkpt>
      <trkpt lat="67.23648" lon="14.6557">
        <ele>17.903482</ele>
        <time>2020-07-16T05:00:01.919Z</time>
      </trkpt>
      <trkpt lat="67.23627" lon="14.65929">
        <ele>19.762943</ele>
        <time>2020-07-16T05:00:35.867Z</time>
      </trkpt>
      <trkpt lat="67.23627" lon="14.66068">
        <ele>20.800188</ele>
        <time>2020-07-16T05:00:48.931Z</time>
      </trkpt>
      <trkpt lat="67.23629" lon="14.66109">
        <ele>21.106215</ele>
        <time>2020-07-16T05:00:52.347Z</time>
      </trkpt>
      <trkpt lat="67.23631" lon="14.66129">
        <ele>21.263501</ele>
        <time>2020-07-16T05:00:54.824Z</time>
      </trkpt>
      <trkpt lat="67.23651" lon="14.66369">
        <ele>22.435059</ele>
        <time>2020-07-16T05:01:17.167Z</time>
      </trkpt>
      <trkpt lat="67.23647" lon="14.66518">
        <ele>22.905917</ele>
        <time>2020-07-16T05:01:30.102Z</time>
      </trkpt>
      <trkpt lat="67.23639" lon="14.6661">
        <ele>23.203581</ele>
        <time>2020-07-16T05:01:37.053Z</time>
      </trkpt>
      <trkpt lat="67.23592" lon="14.67132">
        <ele>20.970395</ele>
        <time>2020-07-16T05:02:07.980Z</time>
      </trkpt>
      <trkpt lat="67.23576" lon="14.67391">
        <ele>19.296826</ele>
        <time>2020-07-16T05:02:22.223Z</time>
      </trkpt>
      <trkpt lat="67.23574" lon="14.67653">
        <ele>17.752869</ele>
        <time>2020-07-16T05:02:37.330Z</time>
      </trkpt>
      <trkpt lat="67.23577" lon="14.67756">
        <ele>17.318245</ele>
        <time>2020-07-16T05:02:43.476Z</time>
      </trkpt>
      <trkpt lat="67.23581" lon="14.67833">
        <ele>16.991935</ele>
        <time>2020-07-16T05:02:48.146Z</time>
      </trkpt>
      <trkpt lat="67.23588" lon="14.67947">
        <ele>16.507278</ele>
        <time>2020-07-16T05:02:55.166Z</time>
      </trkpt>
      <trkpt lat="67.23643" lon="14.68773">
        <ele>13.120311</ele>
        <time>2020-07-16T05:03:45.123Z</time>
      </trkpt>
      <trkpt lat="67.23663" lon="14.69083">
        <ele>11.805476</ele>
        <time>2020-07-16T05:04:03.981Z</time>
      </trkpt>
      <trkpt lat="67.23663" lon="14.69088">
        <ele>11.780226</ele>
        <time>2020-07-16T05:04:04.312Z</time>
      </trkpt>
      <trkpt lat="67.23678" lon="14.69304">
        <ele>10.785401</ele>
        <time>2020-07-16T05:04:17.147Z</time>
      </trkpt>
      <trkpt lat="67.2369" lon="14.69494">
        <ele>9.935625</ele>
        <time>2020-07-16T05:04:28.391Z</time>
      </trkpt>
      <trkpt lat="67.23701" lon="14.69658">
        <ele>9.243268</ele>
        <time>2020-07-16T05:04:38.094Z</time>
      </trkpt>
      <trkpt lat="67.23703" lon="14.69678">
        <ele>9.159997</ele>
        <time>2020-07-16T05:04:39.263Z</time>
      </trkpt>
      <trkpt lat="67.2372" lon="14.69946">
        <ele>8.261434</ele>
        <time>2020-07-16T05:04:55.597Z</time>
      </trkpt>
      <trkpt lat="67.2374" lon="14.70251">
        <ele>8.128006</ele>
        <time>2020-07-16T05:05:17.130Z</time>
      </trkpt>
      <trkpt lat="67.23741" lon="14.70258">
        <ele>8.125194</ele>
        <time>2020-07-16T05:05:17.606Z</time>
      </trkpt>
      <trkpt lat="67.23745" lon="14.70327">
        <ele>8.09485</ele>
        <time>2020-07-16T05:05:22.808Z</time>
      </trkpt>
      <trkpt lat="67.23761" lon="14.70489">
        <ele>7.660652</ele>
        <time>2020-07-16T05:05:34.713Z</time>
      </trkpt>
      <trkpt lat="67.23768" lon="14.70533">
        <ele>7.529043</ele>
        <time>2020-07-16T05:05:37.905Z</time>
      </trkpt>
      <trkpt lat="67.23769" lon="14.70539">
        <ele>7.510348</ele>
        <time>2020-07-16T05:05:38.328Z</time>
      </trkpt>
      <trkpt lat="67.23784" lon="14.70627">
        <ele>7.237028</ele>
        <time>2020-07-16T05:05:44.558Z</time>
      </trkpt>
      <trkpt lat="67.23812" lon="14.70776">
        <ele>6.758589</ele>
        <time>2020-07-16T05:05:53.987Z</time>
      </trkpt>
      <trkpt lat="67.23826" lon="14.70844">
        <ele>6.036221</ele>
        <time>2020-07-16T05:05:58.046Z</time>
      </trkpt>
      <trkpt lat="67.23847" lon="14.70918">
        <ele>5.172928</ele>
        <time>2020-07-16T05:06:02.841Z</time>
      </trkpt>
      <trkpt lat="67.23868" lon="14.70966">
        <ele>4.499282</ele>
        <time>2020-07-16T05:06:06.634Z</time>
      </trkpt>
      <trkpt lat="67.23884" lon="14.70997">
        <ele>4.007043</ele>
        <time>2020-07-16T05:06:09.296Z</time>
      </trkpt>
      <trkpt lat="67.23918" lon="14.71058">
        <ele>3.006748</ele>
        <time>2020-07-16T05:06:14.853Z</time>
      </trkpt>
      <trkpt lat="67.23931" lon="14.71081">
        <ele>2.630023</ele>
        <time>2020-07-16T05:06:16.957Z</time>
      </trkpt>
      <trkpt lat="67.23932" lon="14.71084">
        <ele>2.579532</ele>
        <time>2020-07-16T05:06:17.205Z</time>
      </trkpt>
      <trkpt lat="67.23964" lon="14.71138">
        <ele>2.048467</ele>
        <time>2020-07-16T05:06:22.458Z</time>
      </trkpt>
      <trkpt lat="67.24006" lon="14.71212">
        <ele>1.442852</ele>
        <time>2020-07-16T05:06:29.811Z</time>
      </trkpt>
      <trkpt lat="67.24011" lon="14.71222">
        <ele>1.365785</ele>
        <time>2020-07-16T05:06:30.807Z</time>
      </trkpt>
      <trkpt lat="67.24022" lon="14.71241">
        <ele>1.211137</ele>
        <time>2020-07-16T05:06:32.741Z</time>
      </trkpt>
      <trkpt lat="67.24027" lon="14.7125">
        <ele>1.138037</ele>
        <time>2020-07-16T05:06:33.797Z</time>
      </trkpt>
      <trkpt lat="67.24045" lon="14.7128">
        <ele>0.888189</ele>
        <time>2020-07-16T05:06:37.243Z</time>
      </trkpt>
      <trkpt lat="67.24046" lon="14.71282">
        <ele>0.869278</ele>
        <time>2020-07-16T05:06:37.503Z</time>
      </trkpt>
      <trkpt lat="67.24065" lon="14.71317">
        <ele>0.59468</ele>
        <time>2020-07-16T05:06:41.440Z</time>
      </trkpt>
      <trkpt lat="67.24093" lon="14.71366">
        <ele>0.287151</ele>
        <time>2020-07-16T05:06:47.721Z</time>
      </trkpt>
      <trkpt lat="67.24111" lon="14.71395">
        <ele>0.300989</ele>
        <time>2020-07-16T05:06:51.384Z</time>
      </trkpt>
      <trkpt lat="67.24117" lon="14.71409">
        <ele>0.306836</ele>
        <time>2020-07-16T05:06:53.040Z</time>
      </trkpt>
      <trkpt lat="67.24202" lon="14.71515">
        <ele>0.370398</ele>
        <time>2020-07-16T05:07:09.994Z</time>
      </trkpt>
      <trkpt lat="67.24232" lon="14.71538">
        <ele>0.391096</ele>
        <time>2020-07-16T05:07:15.757Z</time>
      </trkpt>
      <trkpt lat="67.24231" lon="14.71542">
        <ele>0.392269</ele>
        <time>2020-07-16T05:07:16.198Z</time>
      </trkpt>
      <trkpt lat="67.24229" lon="14.71565">
        <ele>0.398381</ele>
        <time>2020-07-16T05:07:18.961Z</time>
      </trkpt>
      <trkpt lat="67.24228" lon="14.71609">
        <ele>0.419841</ele>
        <time>2020-07-16T05:07:24.250Z</time>
      </trkpt>
      <trkpt lat="67.24228" lon="14.71614">
        <ele>0.422843</ele>
        <time>2020-07-16T05:07:24.566Z</time>
      </trkpt>
      <trkpt lat="67.24227" lon="14.71638">
        <ele>0.437991</ele>
        <time>2020-07-16T05:07:26.179Z</time>
      </trkpt>
      <trkpt lat="67.24228" lon="14.7166">
        <ele>0.452013</ele>
        <time>2020-07-16T05:07:27.751Z</time>
      </trkpt>
      <trkpt lat="67.24231" lon="14.71682">
        <ele>0.467002</ele>
        <time>2020-07-16T05:07:29.480Z</time>
      </trkpt>
      <trkpt lat="67.24236" lon="14.71706">
        <ele>0.484625</ele>
        <time>2020-07-16T05:07:31.446Z</time>
      </trkpt>
      <trkpt lat="67.24314" lon="14.71948">
        <ele>0.685354</ele>
        <time>2020-07-16T05:07:53.568Z</time>
      </trkpt>
      <trkpt lat="67.24328" lon="14.7199">
        <ele>0.737089</ele>
        <time>2020-07-16T05:07:57.658Z</time>
      </trkpt>
      <trkpt lat="67.24358" lon="14.72105">
        <ele>0.892933</ele>
        <time>2020-07-16T05:08:07.930Z</time>
      </trkpt>
      <trkpt lat="67.24366" lon="14.72125">
        <ele>0.925725</ele>
        <time>2020-07-16T05:08:10.165Z</time>
      </trkpt>
      <trkpt lat="67.24372" lon="14.72136">
        <ele>0.944873</ele>
        <time>2020-07-16T05:08:11.412Z</time>
      </trkpt>
      <trkpt lat="67.24396" lon="14.72166">
        <ele>1.022709</ele>
        <time>2020-07-16T05:08:16.549Z</time>
      </trkpt>
      <trkpt lat="67.24419" lon="14.72174">
        <ele>1.089798</ele>
        <time>2020-07-16T05:08:20.868Z</time>
      </trkpt>
      <trkpt lat="67.24443" lon="14.72171">
        <ele>1.161551</ele>
        <time>2020-07-16T05:08:25.485Z</time>
      </trkpt>
      <trkpt lat="67.24505" lon="14.72163">
        <ele>1.275085</ele>
        <time>2020-07-16T05:08:36.715Z</time>
      </trkpt>
      <trkpt lat="67.24521" lon="14.7216">
        <ele>1.296203</ele>
        <time>2020-07-16T05:08:39.553Z</time>
      </trkpt>
      <trkpt lat="67.24562" lon="14.72117">
        <ele>1.354378</ele>
        <time>2020-07-16T05:08:47.328Z</time>
      </trkpt>
      <trkpt lat="67.24593" lon="14.72035">
        <ele>1.413179</ele>
        <time>2020-07-16T05:08:55.360Z</time>
      </trkpt>
      <trkpt lat="67.24606" lon="14.71949">
        <ele>1.471792</ele>
        <time>2020-07-16T05:09:02.063Z</time>
      </trkpt>
      <trkpt lat="67.2461" lon="14.71788">
        <ele>1.980165</ele>
        <time>2020-07-16T05:09:14.320Z</time>
      </trkpt>
      <trkpt lat="67.24613" lon="14.71742">
        <ele>2.125365</ele>
        <time>2020-07-16T05:09:17.607Z</time>
      </trkpt>
      <trkpt lat="67.24616" lon="14.71711">
        <ele>2.225036</ele>
        <time>2020-07-16T05:09:20.480Z</time>
      </trkpt>
      <trkpt lat="67.24637" lon="14.71527">
        <ele>2.826889</ele>
        <time>2020-07-16T05:09:36.194Z</time>
      </trkpt>
      <trkpt lat="67.24676" lon="14.71341">
        <ele>3.826122</ele>
        <time>2020-07-16T05:09:54.397Z</time>
      </trkpt>
      <trkpt lat="67.24751" lon="14.70802">
        <ele>7.337726</ele>
        <time>2020-07-16T05:10:43.204Z</time>
      </trkpt>
      <trkpt lat="67.24766" lon="14.70719">
        <ele>8.000744</ele>
        <time>2020-07-16T05:10:51.763Z</time>
      </trkpt>
      <trkpt lat="67.24788" lon="14.70678">
        <ele>8.510058</ele>
        <time>2020-07-16T05:10:58.586Z</time>
      </trkpt>
      <trkpt lat="67.24873" lon="14.70615">
        <ele>12.59515</ele>
        <time>2020-07-16T05:11:25.703Z</time>
      </trkpt>
      <trkpt lat="67.24967" lon="14.7061">
        <ele>17.065865</ele>
        <time>2020-07-16T05:11:57.673Z</time>
      </trkpt>
      <trkpt lat="67.24973" lon="14.70612">
        <ele>17.504116</ele>
        <time>2020-07-16T05:12:00.480Z</time>
      </trkpt>
      <trkpt lat="67.2499" lon="14.70619">
        <ele>18.945811</ele>
        <time>2020-07-16T05:12:07.367Z</time>
      </trkpt>
      <trkpt lat="67.25117" lon="14.70743">
        <ele>30.379436</ele>
        <time>2020-07-16T05:13:10.347Z</time>
      </trkpt>
      <trkpt lat="67.2513" lon="14.70753">
        <ele>31.471938</ele>
        <time>2020-07-16T05:13:17.799Z</time>
      </trkpt>
      <trkpt lat="67.25161" lon="14.70788">
        <ele>34.339222</ele>
        <time>2020-07-16T05:13:33.321Z</time>
      </trkpt>
      <trkpt lat="67.25177" lon="14.70803">
        <ele>35.803125</ele>
        <time>2020-07-16T05:13:39.741Z</time>
      </trkpt>
      <trkpt lat="67.25185" lon="14.70808">
        <ele>36.49722</ele>
        <time>2020-07-16T05:13:43.957Z</time>
      </trkpt>
      <trkpt lat="67.25193" lon="14.70812">
        <ele>37.190998</ele>
        <time>2020-07-16T05:13:48.912Z</time>
      </trkpt>
      <trkpt lat="67.25208" lon="14.70802">
        <ele>38.567729</ele>
        <time>2020-07-16T05:13:55.274Z</time>
      </trkpt>
      <trkpt lat="67.25236" lon="14.70757">
        <ele>41.331311</ele>
        <time>2020-07-16T05:14:10.958Z</time>
      </trkpt>
      <trkpt lat="67.25249" lon="14.70761">
        <ele>42.487211</ele>
        <time>2020-07-16T05:14:17.033Z</time>
      </trkpt>
      <trkpt lat="67.2527" lon="14.70807">
        <ele>44.802548</ele>
        <time>2020-07-16T05:14:29.825Z</time>
      </trkpt>
      <trkpt lat="67.25284" lon="14.70865">
        <ele>47.07394</ele>
        <time>2020-07-16T05:14:41.969Z</time>
      </trkpt>
      <trkpt lat="67.25298" lon="14.70931">
        <ele>48.512017</ele>
        <time>2020-07-16T05:14:54.056Z</time>
      </trkpt>
      <trkpt lat="67.25315" lon="14.71066">
        <ele>50.698824</ele>
        <time>2020-07-16T05:15:11.714Z</time>
      </trkpt>
      <trkpt lat="67.25329" lon="14.71121">
        <ele>51.696603</ele>
        <time>2020-07-16T05:15:19.117Z</time>
      </trkpt>
      <trkpt lat="67.25355" lon="14.71195">
        <ele>53.250089</ele>
        <time>2020-07-16T05:15:29.581Z</time>
      </trkpt>
      <trkpt lat="67.25375" lon="14.71216">
        <ele>54.113467</ele>
        <time>2020-07-16T05:15:34.854Z</time>
      </trkpt>
      <trkpt lat="67.2542" lon="14.71227">
        <ele>54.826155</ele>
        <time>2020-07-16T05:15:44.612Z</time>
      </trkpt>
      <trkpt lat="67.25474" lon="14.71278">
        <ele>54.95525</ele>
        <time>2020-07-16T05:15:55.480Z</time>
      </trkpt>
      <trkpt lat="67.25515" lon="14.71303">
        <ele>55.049399</ele>
        <time>2020-07-16T05:16:02.589Z</time>
      </trkpt>
      <trkpt lat="67.25549" lon="14.71356">
        <ele>55.138332</ele>
        <time>2020-07-16T05:16:09.074Z</time>
      </trkpt>
      <trkpt lat="67.25593" lon="14.71502">
        <ele>55.056839</ele>
        <time>2020-07-16T05:16:21.041Z</time>
      </trkpt>
      <trkpt lat="67.2561" lon="14.71577">
        <ele>54.996535</ele>
        <time>2020-07-16T05:16:26.829Z</time>
      </trkpt>
      <trkpt lat="67.25656" lon="14.71937">
        <ele>54.398905</ele>
        <time>2020-07-16T05:16:53.168Z</time>
      </trkpt>
      <trkpt lat="67.25693" lon="14.72112">
        <ele>53.835143</ele>
        <time>2020-07-16T05:17:05.598Z</time>
      </trkpt>
      <trkpt lat="67.25747" lon="14.72251">
        <ele>52.739651</ele>
        <time>2020-07-16T05:17:16.717Z</time>
      </trkpt>
      <trkpt lat="67.25904" lon="14.72614">
        <ele>47.476706</ele>
        <time>2020-07-16T05:17:45.096Z</time>
      </trkpt>
      <trkpt lat="67.25963" lon="14.72804">
        <ele>44.881167</ele>
        <time>2020-07-16T05:17:58.150Z</time>
      </trkpt>
      <trkpt lat="67.25968" lon="14.72818">
        <ele>44.682746</ele>
        <time>2020-07-16T05:17:58.997Z</time>
      </trkpt>
      <trkpt lat="67.25977" lon="14.72842">
        <ele>44.316779</ele>
        <time>2020-07-16T05:18:00.870Z</time>
      </trkpt>
      <trkpt lat="67.26" lon="14.72884">
        <ele>42.910276</ele>
        <time>2020-07-16T05:18:04.412Z</time>
      </trkpt>
      <trkpt lat="67.26031" lon="14.72928">
        <ele>41.124345</ele>
        <time>2020-07-16T05:18:08.821Z</time>
      </trkpt>
      <trkpt lat="67.26054" lon="14.72961">
        <ele>39.783256</ele>
        <time>2020-07-16T05:18:12.128Z</time>
      </trkpt>
      <trkpt lat="67.26071" lon="14.7299">
        <ele>38.763347</ele>
        <time>2020-07-16T05:18:14.651Z</time>
      </trkpt>
      <trkpt lat="67.26091" lon="14.7303">
        <ele>37.497625</ele>
        <time>2020-07-16T05:18:17.598Z</time>
      </trkpt>
      <trkpt lat="67.26125" lon="14.73131">
        <ele>34.777566</ele>
        <time>2020-07-16T05:18:23.530Z</time>
      </trkpt>
      <trkpt lat="67.26158" lon="14.73286">
        <ele>30.215133</ele>
        <time>2020-07-16T05:18:31.370Z</time>
      </trkpt>
      <trkpt lat="67.26178" lon="14.73356">
        <ele>27.961038</ele>
        <time>2020-07-16T05:18:35.227Z</time>
      </trkpt>
      <trkpt lat="67.26183" lon="14.73369">
        <ele>27.505853</ele>
        <time>2020-07-16T05:18:35.946Z</time>
      </trkpt>
      <trkpt lat="67.26187" lon="14.73379">
        <ele>27.148945</ele>
        <time>2020-07-16T05:18:36.586Z</time>
      </trkpt>
      <trkpt lat="67.26196" lon="14.73402">
        <ele>26.290774</ele>
        <time>2020-07-16T05:18:38.237Z</time>
      </trkpt>
      <trkpt lat="67.26201" lon="14.73412">
        <ele>25.857049</ele>
        <time>2020-07-16T05:18:39.028Z</time>
      </trkpt>
      <trkpt lat="67.26209" lon="14.73428">
        <ele>25.177812</ele>
        <time>2020-07-16T05:18:40.139Z</time>
      </trkpt>
      <trkpt lat="67.26217" lon="14.73443">
        <ele>24.549159</ele>
        <time>2020-07-16T05:18:41.272Z</time>
      </trkpt>
      <trkpt lat="67.26238" lon="14.73482">
        <ele>22.984269</ele>
        <time>2020-07-16T05:18:44.376Z</time>
      </trkpt>
      <trkpt lat="67.26292" lon="14.73582">
        <ele>20.799922</ele>
        <time>2020-07-16T05:18:52.703Z</time>
      </trkpt>
      <trkpt lat="67.26325" lon="14.73639">
        <ele>19.509723</ele>
        <time>2020-07-16T05:18:57.732Z</time>
      </trkpt>
      <trkpt lat="67.26332" lon="14.73651">
        <ele>19.235491</ele>
        <time>2020-07-16T05:18:58.912Z</time>
      </trkpt>
      <trkpt lat="67.26349" lon="14.73676">
        <ele>18.572757</ele>
        <time>2020-07-16T05:19:01.987Z</time>
      </trkpt>
      <trkpt lat="67.26381" lon="14.73718">
        <ele>17.392524</ele>
        <time>2020-07-16T05:19:07.317Z</time>
      </trkpt>
      <trkpt lat="67.26411" lon="14.73756">
        <ele>16.913815</ele>
        <time>2020-07-16T05:19:12.252Z</time>
      </trkpt>
      <trkpt lat="67.26428" lon="14.73774">
        <ele>16.706519</ele>
        <time>2020-07-16T05:19:14.863Z</time>
      </trkpt>
      <trkpt lat="67.26447" lon="14.73792">
        <ele>16.467244</ele>
        <time>2020-07-16T05:19:17.973Z</time>
      </trkpt>
      <trkpt lat="67.26461" lon="14.73801">
        <ele>16.307687</ele>
        <time>2020-07-16T05:19:19.992Z</time>
      </trkpt>
      <trkpt lat="67.26475" lon="14.73804">
        <ele>16.145134</ele>
        <time>2020-07-16T05:19:22.132Z</time>
      </trkpt>
      <trkpt lat="67.26487" lon="14.73805">
        <ele>16.009843</ele>
        <time>2020-07-16T05:19:23.901Z</time>
      </trkpt>
      <trkpt lat="67.26546" lon="14.73804">
        <ele>15.318716</ele>
        <time>2020-07-16T05:19:33.242Z</time>
      </trkpt>
      <trkpt lat="67.26593" lon="14.73806">
        <ele>15.103912</ele>
        <time>2020-07-16T05:19:40.812Z</time>
      </trkpt>
      <trkpt lat="67.26619" lon="14.73804">
        <ele>15.054375</ele>
        <time>2020-07-16T05:19:45.079Z</time>
      </trkpt>
      <trkpt lat="67.26628" lon="14.73802">
        <ele>15.037034</ele>
        <time>2020-07-16T05:19:46.552Z</time>
      </trkpt>
      <trkpt lat="67.2666" lon="14.73794">
        <ele>14.974193</ele>
        <time>2020-07-16T05:19:52.119Z</time>
      </trkpt>
      <trkpt lat="67.26705" lon="14.73773">
        <ele>14.88487</ele>
        <time>2020-07-16T05:20:00.325Z</time>
      </trkpt>
      <trkpt lat="67.26816" lon="14.73703">
        <ele>15.36344</ele>
        <time>2020-07-16T05:20:22.365Z</time>
      </trkpt>
      <trkpt lat="67.26859" lon="14.73675">
        <ele>15.656241</ele>
        <time>2020-07-16T05:20:31.279Z</time>
      </trkpt>
      <trkpt lat="67.26923" lon="14.73634">
        <ele>16.146769</ele>
        <time>2020-07-16T05:20:44.954Z</time>
      </trkpt>
      <trkpt lat="67.26927" lon="14.73631">
        <ele>16.197903</ele>
        <time>2020-07-16T05:20:45.939Z</time>
      </trkpt>
      <trkpt lat="67.26962" lon="14.73608">
        <ele>16.605962</ele>
        <time>2020-07-16T05:20:53.592Z</time>
      </trkpt>
      <trkpt lat="67.26994" lon="14.73572">
        <ele>16.996623</ele>
        <time>2020-07-16T05:21:00.983Z</time>
      </trkpt>
      <trkpt lat="67.27018" lon="14.73525">
        <ele>17.337548</ele>
        <time>2020-07-16T05:21:07.530Z</time>
      </trkpt>
      <trkpt lat="67.27029" lon="14.73496">
        <ele>17.511481</ele>
        <time>2020-07-16T05:21:11.026Z</time>
      </trkpt>
      <trkpt lat="67.2704" lon="14.73457">
        <ele>17.726778</ele>
        <time>2020-07-16T05:21:15.199Z</time>
      </trkpt>
      <trkpt lat="67.27074" lon="14.73334">
        <ele>18.231512</ele>
        <time>2020-07-16T05:21:28.086Z</time>
      </trkpt>
      <trkpt lat="67.27129" lon="14.73136">
        <ele>18.804693</ele>
        <time>2020-07-16T05:21:47.134Z</time>
      </trkpt>
      <trkpt lat="67.27161" lon="14.73017">
        <ele>19.146495</ele>
        <time>2020-07-16T05:21:57.480Z</time>
      </trkpt>
      <trkpt lat="67.27171" lon="14.72981">
        <ele>19.088594</ele>
        <time>2020-07-16T05:22:00.386Z</time>
      </trkpt>
      <trkpt lat="67.27187" lon="14.72921">
        <ele>18.993263</ele>
        <time>2020-07-16T05:22:05.302Z</time>
      </trkpt>
      <trkpt lat="67.2719" lon="14.72913">
        <ele>18.9802</ele>
        <time>2020-07-16T05:22:05.842Z</time>
      </trkpt>
      <trkpt lat="67.27223" lon="14.72803">
        <ele>18.797255</ele>
        <time>2020-07-16T05:22:14.505Z</time>
      </trkpt>
      <trkpt lat="67.27309" lon="14.72595">
        <ele>18.887267</ele>
        <time>2020-07-16T05:22:34.393Z</time>
      </trkpt>
      <trkpt lat="67.27323" lon="14.72571">
        <ele>19.028189</ele>
        <time>2020-07-16T05:22:37.242Z</time>
      </trkpt>
      <trkpt lat="67.27336" lon="14.72554">
        <ele>19.155257</ele>
        <time>2020-07-16T05:22:40.454Z</time>
      </trkpt>
      <trkpt lat="67.2737" lon="14.7254">
        <ele>19.440407</ele>
        <time>2020-07-16T05:22:47.426Z</time>
      </trkpt>
      <trkpt lat="67.27411" lon="14.72563">
        <ele>19.79787</ele>
        <time>2020-07-16T05:22:57.109Z</time>
      </trkpt>
      <trkpt lat="67.27444" lon="14.72611">
        <ele>20.0138</ele>
        <time>2020-07-16T05:23:06.164Z</time>
      </trkpt>
      <trkpt lat="67.27473" lon="14.72689">
        <ele>19.786421</ele>
        <time>2020-07-16T05:23:16.662Z</time>
      </trkpt>
      <trkpt lat="67.27503" lon="14.72802">
        <ele>19.496374</ele>
        <time>2020-07-16T05:23:28.102Z</time>
      </trkpt>
      <trkpt lat="67.27555" lon="14.72998">
        <ele>18.316866</ele>
        <time>2020-07-16T05:23:40.293Z</time>
      </trkpt>
      <trkpt lat="67.27565" lon="14.73018">
        <ele>17.596392</ele>
        <time>2020-07-16T05:23:41.929Z</time>
      </trkpt>
      <trkpt lat="67.27569" lon="14.7302">
        <ele>17.368714</ele>
        <time>2020-07-16T05:23:42.501Z</time>
      </trkpt>
      <trkpt lat="67.27575" lon="14.73019">
        <ele>17.055711</ele>
        <time>2020-07-16T05:23:43.115Z</time>
      </trkpt>
      <trkpt lat="67.27588" lon="14.73006">
        <ele>16.287943</ele>
        <time>2020-07-16T05:23:44.874Z</time>
      </trkpt>
      <trkpt lat="67.27623" lon="14.72953">
        <ele>14.086045</ele>
        <time>2020-07-16T05:23:49.602Z</time>
      </trkpt>
      <trkpt lat="67.27691" lon="14.72845">
        <ele>9.664031</ele>
        <time>2020-07-16T05:23:58.878Z</time>
      </trkpt>
      <trkpt lat="67.2781" lon="14.72658">
        <ele>4.51101</ele>
        <time>2020-07-16T05:24:15.835Z</time>
      </trkpt>
      <trkpt lat="67.27836" lon="14.72616">
        <ele>3.410375</ele>
        <time>2020-07-16T05:24:20.711Z</time>
      </trkpt>
      <trkpt lat="67.27871" lon="14.7256">
        <ele>3.052857</ele>
        <time>2020-07-16T05:24:27.718Z</time>
      </trkpt>
      <trkpt lat="67.27887" lon="14.72534">
        <ele>3.344557</ele>
        <time>2020-07-16T05:24:31.694Z</time>
      </trkpt>
      <trkpt lat="67.27901" lon="14.72511">
        <ele>3.588101</ele>
        <time>2020-07-16T05:24:35.177Z</time>
      </trkpt>
      <trkpt lat="67.27922" lon="14.72479">
        <ele>3.949454</ele>
        <time>2020-07-16T05:24:40.715Z</time>
      </trkpt>
      <trkpt lat="67.27938" lon="14.72461">
        <ele>4.201714</ele>
        <time>2020-07-16T05:24:44.521Z</time>
      </trkpt>
      <trkpt lat="67.27957" lon="14.72456">
        <ele>4.490703</ele>
        <time>2020-07-16T05:24:49.395Z</time>
      </trkpt>
      <trkpt lat="67.27997" lon="14.72491">
        <ele>5.119775</ele>
        <time>2020-07-16T05:25:00.208Z</time>
      </trkpt>
      <trkpt lat="67.28015" lon="14.72512">
        <ele>5.439934</ele>
        <time>2020-07-16T05:25:05.497Z</time>
      </trkpt>
      <trkpt lat="67.28027" lon="14.72527">
        <ele>5.875862</ele>
        <time>2020-07-16T05:25:09.794Z</time>
      </trkpt>
      <trkpt lat="67.28072" lon="14.7262">
        <ele>7.773946</ele>
        <time>2020-07-16T05:25:25.756Z</time>
      </trkpt>
      <trkpt lat="67.28093" lon="14.72707">
        <ele>9.101044</ele>
        <time>2020-07-16T05:25:37.404Z</time>
      </trkpt>
      <trkpt lat="67.28103" lon="14.72764">
        <ele>9.90807</ele>
        <time>2020-07-16T05:25:44.926Z</time>
      </trkpt>
      <trkpt lat="67.28114" lon="14.72819">
        <ele>10.697482</ele>
        <time>2020-07-16T05:25:52.308Z</time>
      </trkpt>
      <trkpt lat="67.2814" lon="14.72921">
        <ele>11.716672</ele>
        <time>2020-07-16T05:26:05.158Z</time>
      </trkpt>
      <trkpt lat="67.28153" lon="14.72939">
        <ele>11.904258</ele>
        <time>2020-07-16T05:26:08.872Z</time>
      </trkpt>
      <trkpt lat="67.28182" lon="14.72949">
        <ele>12.272303</ele>
        <time>2020-07-16T05:26:16.164Z</time>
      </trkpt>
      <trkpt lat="67.28196" lon="14.72986">
        <ele>12.529859</ele>
        <time>2020-07-16T05:26:21.317Z</time>
      </trkpt>
      <trkpt lat="67.28227" lon="14.73124">
        <ele>13.316843</ele>
        <time>2020-07-16T05:26:33.795Z</time>
      </trkpt>
      <trkpt lat="67.28247" lon="14.73313">
        <ele>12.445338</ele>
        <time>2020-07-16T05:26:45.480Z</time>
      </trkpt>
      <trkpt lat="67.28257" lon="14.73362">
        <ele>11.904349</ele>
        <time>2020-07-16T05:26:48.085Z</time>
      </trkpt>
      <trkpt lat="67.2829" lon="14.734">
        <ele>10.964227</ele>
        <time>2020-07-16T05:26:52.790Z</time>
      </trkpt>
      <trkpt lat="67.28343" lon="14.73409">
        <ele>9.618496</ele>
        <time>2020-07-16T05:26:59.737Z</time>
      </trkpt>
      <trkpt lat="67.28355" lon="14.73397">
        <ele>9.298414</ele>
        <time>2020-07-16T05:27:01.280Z</time>
      </trkpt>
      <trkpt lat="67.28365" lon="14.73378">
        <ele>9.048868</ele>
        <time>2020-07-16T05:27:02.934Z</time>
      </trkpt>
      <trkpt lat="67.28369" lon="14.73368">
        <ele>9.013773</ele>
        <time>2020-07-16T05:27:03.943Z</time>
      </trkpt>
      <trkpt lat="67.28376" lon="14.73341">
        <ele>8.938131</ele>
        <time>2020-07-16T05:27:05.577Z</time>
      </trkpt>
      <trkpt lat="67.2838" lon="14.73321">
        <ele>8.88499</ele>
        <time>2020-07-16T05:27:06.733Z</time>
      </trkpt>
      <trkpt lat="67.28385" lon="14.73293">
        <ele>8.813414</ele>
        <time>2020-07-16T05:27:08.404Z</time>
      </trkpt>
      <trkpt lat="67.28389" lon="14.73272">
        <ele>8.761302</ele>
        <time>2020-07-16T05:27:09.782Z</time>
      </trkpt>
      <trkpt lat="67.28414" lon="14.73143">
        <ele>8.426473</ele>
        <time>2020-07-16T05:27:18.619Z</time>
      </trkpt>
      <trkpt lat="67.28435" lon="14.73081">
        <ele>8.233946</ele>
        <time>2020-07-16T05:27:24.013Z</time>
      </trkpt>
      <trkpt lat="67.28453" lon="14.73063">
        <ele>8.118084</ele>
        <time>2020-07-16T05:27:27.838Z</time>
      </trkpt>
      <trkpt lat="67.28496" lon="14.73071">
        <ele>8.448276</ele>
        <time>2020-07-16T05:27:38.208Z</time>
      </trkpt>
      <trkpt lat="67.28509" lon="14.73067">
        <ele>8.739007</ele>
        <time>2020-07-16T05:27:42.522Z</time>
      </trkpt>
      <trkpt lat="67.28529" lon="14.73053">
        <ele>9.157661</ele>
        <time>2020-07-16T05:27:47.477Z</time>
      </trkpt>
      <trkpt lat="67.28554" lon="14.73029">
        <ele>9.728227</ele>
        <time>2020-07-16T05:27:55.052Z</time>
      </trkpt>
      <trkpt lat="67.28613" lon="14.72974">
        <ele>11.048151</ele>
        <time>2020-07-16T05:28:11.549Z</time>
      </trkpt>
      <trkpt lat="67.28655" lon="14.72932">
        <ele>11.729295</ele>
        <time>2020-07-16T05:28:22.219Z</time>
      </trkpt>
      <trkpt lat="67.28689" lon="14.72899">
        <ele>11.529015</ele>
        <time>2020-07-16T05:28:28.818Z</time>
      </trkpt>
      <trkpt lat="67.28739" lon="14.7285">
        <ele>11.233295</ele>
        <time>2020-07-16T05:28:37.302Z</time>
      </trkpt>
      <trkpt lat="67.28777" lon="14.72811">
        <ele>11.010922</ele>
        <time>2020-07-16T05:28:43.458Z</time>
      </trkpt>
      <trkpt lat="67.288" lon="14.7278">
        <ele>10.866748</ele>
        <time>2020-07-16T05:28:47.355Z</time>
      </trkpt>
      <trkpt lat="67.2885" lon="14.72683">
        <ele>9.820735</ele>
        <time>2020-07-16T05:28:56.316Z</time>
      </trkpt>
      <trkpt lat="67.28881" lon="14.72644">
        <ele>9.13763</ele>
        <time>2020-07-16T05:29:00.975Z</time>
      </trkpt>
      <trkpt lat="67.28941" lon="14.72606">
        <ele>7.913514</ele>
        <time>2020-07-16T05:29:09.473Z</time>
      </trkpt>
      <trkpt lat="67.28988" lon="14.72599">
        <ele>7.226552</ele>
        <time>2020-07-16T05:29:16.362Z</time>
      </trkpt>
      <trkpt lat="67.29005" lon="14.72601">
        <ele>7.20905</ele>
        <time>2020-07-16T05:29:18.855Z</time>
      </trkpt>
      <trkpt lat="67.29005" lon="14.72568">
        <ele>7.195734</ele>
        <time>2020-07-16T05:29:21.011Z</time>
      </trkpt>
      <trkpt lat="67.29006" lon="14.72552">
        <ele>7.189418</ele>
        <time>2020-07-16T05:29:22.052Z</time>
      </trkpt>
      <trkpt lat="67.29027" lon="14.72556">
        <ele>7.167586</ele>
        <time>2020-07-16T05:29:25.535Z</time>
      </trkpt>
      <trkpt lat="67.29037" lon="14.72586">
        <ele>7.151527</ele>
        <time>2020-07-16T05:29:28.374Z</time>
      </trkpt>
      <trkpt lat="67.29071" lon="14.72596">
        <ele>7.11528</ele>
        <time>2020-07-16T05:29:34.795Z</time>
      </trkpt>
      <trkpt lat="67.29088" lon="14.72605">
        <ele>7.096899</ele>
        <time>2020-07-16T05:29:38.136Z</time>
      </trkpt>
      <trkpt lat="67.29148" lon="14.72647">
        <ele>7.296968</ele>
        <time>2020-07-16T05:29:52.122Z</time>
      </trkpt>
      <trkpt lat="67.29225" lon="14.72717">
        <ele>8.338119</ele>
        <time>2020-07-16T05:30:11.911Z</time>
      </trkpt>
      <trkpt lat="67.29256" lon="14.72733">
        <ele>8.744588</ele>
        <time>2020-07-16T05:30:19.469Z</time>
      </trkpt>
      <trkpt lat="67.29315" lon="14.72744">
        <ele>9.312395</ele>
        <time>2020-07-16T05:30:32.098Z</time>
      </trkpt>
      <trkpt lat="67.2936" lon="14.72765">
        <ele>9.172398</ele>
        <time>2020-07-16T05:30:40.994Z</time>
      </trkpt>
      <trkpt lat="67.2938" lon="14.72781">
        <ele>9.106941</ele>
        <time>2020-07-16T05:30:44.855Z</time>
      </trkpt>
      <trkpt lat="67.29442" lon="14.72805">
        <ele>8.915551</ele>
        <time>2020-07-16T05:30:55.408Z</time>
      </trkpt>
      <trkpt lat="67.29456" lon="14.72811">
        <ele>8.87314</ele>
        <time>2020-07-16T05:30:57.660Z</time>
      </trkpt>
      <trkpt lat="67.29486" lon="14.72824">
        <ele>8.731755</ele>
        <time>2020-07-16T05:31:02.419Z</time>
      </trkpt>
      <trkpt lat="67.29691" lon="14.72891">
        <ele>6.246153</ele>
        <time>2020-07-16T05:31:34.835Z</time>
      </trkpt>
      <trkpt lat="67.29753" lon="14.72944">
        <ele>5.638728</ele>
        <time>2020-07-16T05:31:45.511Z</time>
      </trkpt>
      <trkpt lat="67.29773" lon="14.72972">
        <ele>5.429029</ele>
        <time>2020-07-16T05:31:49.214Z</time>
      </trkpt>
      <trkpt lat="67.29808" lon="14.73031">
        <ele>5.050451</ele>
        <time>2020-07-16T05:31:56.160Z</time>
      </trkpt>
      <trkpt lat="67.29855" lon="14.73152">
        <ele>4.808052</ele>
        <time>2020-07-16T05:32:07.789Z</time>
      </trkpt>
      <trkpt lat="67.29892" lon="14.73271">
        <ele>4.713964</ele>
        <time>2020-07-16T05:32:18.594Z</time>
      </trkpt>
      <trkpt lat="67.29911" lon="14.73334">
        <ele>4.666041</ele>
        <time>2020-07-16T05:32:24.179Z</time>
      </trkpt>
      <trkpt lat="67.29906" lon="14.73345">
        <ele>4.655717</ele>
        <time>2020-07-16T05:32:25.469Z</time>
      </trkpt>
      <trkpt lat="67.29902" lon="14.73351">
        <ele>4.64923</ele>
        <time>2020-07-16T05:32:26.154Z</time>
      </trkpt>
      <trkpt lat="67.2999" lon="14.73632">
        <ele>4.251615</ele>
        <time>2020-07-16T05:32:51.241Z</time>
      </trkpt>
      <trkpt lat="67.29995" lon="14.7366">
        <ele>4.213452</ele>
        <time>2020-07-16T05:32:53.245Z</time>
      </trkpt>
      <trkpt lat="67.30017" lon="14.73731">
        <ele>4.099838</ele>
        <time>2020-07-16T05:32:58.949Z</time>
      </trkpt>
      <trkpt lat="67.30026" lon="14.73802">
        <ele>3.974954</ele>
        <time>2020-07-16T05:33:03.287Z</time>
      </trkpt>
      <trkpt lat="67.30031" lon="14.73782">
        <ele>3.871638</ele>
        <time>2020-07-16T05:33:04.802Z</time>
      </trkpt>
      <trkpt lat="67.30037" lon="14.73772">
        <ele>3.793206</ele>
        <time>2020-07-16T05:33:05.865Z</time>
      </trkpt>
      <trkpt lat="67.30042" lon="14.73762">
        <ele>3.726086</ele>
        <time>2020-07-16T05:33:06.693Z</time>
      </trkpt>
      <trkpt lat="67.3006" lon="14.73822">
        <ele>3.399614</ele>
        <time>2020-07-16T05:33:11.403Z</time>
      </trkpt>
      <trkpt lat="67.30063" lon="14.73824">
        <ele>3.37458</ele>
        <time>2020-07-16T05:33:11.677Z</time>
      </trkpt>
      <trkpt lat="67.30086" lon="14.73806">
        <ele>3.103779</ele>
        <time>2020-07-16T05:33:15.574Z</time>
      </trkpt>
      <trkpt lat="67.30105" lon="14.73792">
        <ele>2.887258</ele>
        <time>2020-07-16T05:33:18.420Z</time>
      </trkpt>
      <trkpt lat="67.30128" lon="14.73784">
        <ele>2.627524</ele>
        <time>2020-07-16T05:33:22.198Z</time>
      </trkpt>
      <trkpt lat="67.30134" lon="14.73777">
        <ele>2.559045</ele>
        <time>2020-07-16T05:33:23.009Z</time>
      </trkpt>
      <trkpt lat="67.30154" lon="14.73758">
        <ele>2.32335</ele>
        <time>2020-07-16T05:33:26.405Z</time>
      </trkpt>
      <trkpt lat="67.30157" lon="14.73754">
        <ele>2.282261</ele>
        <time>2020-07-16T05:33:26.961Z</time>
      </trkpt>
      <trkpt lat="67.30168" lon="14.73737">
        <ele>2.139777</ele>
        <time>2020-07-16T05:33:28.764Z</time>
      </trkpt>
      <trkpt lat="67.30183" lon="14.73687">
        <ele>1.921779</ele>
        <time>2020-07-16T05:33:32.594Z</time>
      </trkpt>
      <trkpt lat="67.30305" lon="14.73545">
        <ele>0.917823</ele>
        <time>2020-07-16T05:33:53.711Z</time>
      </trkpt>
      <trkpt lat="67.3033" lon="14.73498">
        <ele>0.680793</ele>
        <time>2020-07-16T05:33:59.112Z</time>
      </trkpt>
      <trkpt lat="67.30346" lon="14.73453">
        <ele>0.628995</ele>
        <time>2020-07-16T05:34:03.147Z</time>
      </trkpt>
      <trkpt lat="67.30358" lon="14.73398">
        <ele>0.576152</ele>
        <time>2020-07-16T05:34:07.263Z</time>
      </trkpt>
      <trkpt lat="67.30372" lon="14.7326">
        <ele>0.455799</ele>
        <time>2020-07-16T05:34:16.717Z</time>
      </trkpt>
      <trkpt lat="67.30399" lon="14.73105">
        <ele>0.312522</ele>
        <time>2020-07-16T05:34:28.054Z</time>
      </trkpt>
      <trkpt lat="67.30402" lon="14.73079">
        <ele>0.289787</ele>
        <time>2020-07-16T05:34:29.880Z</time>
      </trkpt>
      <trkpt lat="67.30404" lon="14.73052">
        <ele>0.317508</ele>
        <time>2020-07-16T05:34:31.761Z</time>
      </trkpt>
      <trkpt lat="67.30406" lon="14.73024">
        <ele>0.350387</ele>
        <time>2020-07-16T05:34:33.639Z</time>
      </trkpt>
      <trkpt lat="67.30437" lon="14.72551">
        <ele>1.262422</ele>
        <time>2020-07-16T05:35:08.304Z</time>
      </trkpt>
      <trkpt lat="67.305" lon="14.71727">
        <ele>7.04376</ele>
        <time>2020-07-16T05:36:27.215Z</time>
      </trkpt>
      <trkpt lat="67.30506" lon="14.71498">
        <ele>7.488917</ele>
        <time>2020-07-16T05:36:46.146Z</time>
      </trkpt>
      <trkpt lat="67.30505" lon="14.71459">
        <ele>7.538665</ele>
        <time>2020-07-16T05:36:50.565Z</time>
      </trkpt>
      <trkpt lat="67.30503" lon="14.71424">
        <ele>7.584108</ele>
        <time>2020-07-16T05:36:52.125Z</time>
      </trkpt>
      <trkpt lat="67.30489" lon="14.71271">
        <ele>7.788021</ele>
        <time>2020-07-16T05:37:03.956Z</time>
      </trkpt>
      <trkpt lat="67.30466" lon="14.71102">
        <ele>7.412117</ele>
        <time>2020-07-16T05:37:15.400Z</time>
      </trkpt>
      <trkpt lat="67.30459" lon="14.71067">
        <ele>7.305449</ele>
        <time>2020-07-16T05:37:17.101Z</time>
      </trkpt>
      <trkpt lat="67.30454" lon="14.71037">
        <ele>7.214561</ele>
        <time>2020-07-16T05:37:19.764Z</time>
      </trkpt>
      <trkpt lat="67.30396" lon="14.70755">
        <ele>6.654029</ele>
        <time>2020-07-16T05:37:40.088Z</time>
      </trkpt>
      <trkpt lat="67.30322" lon="14.70447">
        <ele>7.244557</ele>
        <time>2020-07-16T05:38:09.946Z</time>
      </trkpt>
      <trkpt lat="67.30281" lon="14.70322">
        <ele>6.866913</ele>
        <time>2020-07-16T05:38:19.977Z</time>
      </trkpt>
      <trkpt lat="67.30216" lon="14.70165">
        <ele>6.14286</ele>
        <time>2020-07-16T05:38:34.108Z</time>
      </trkpt>
      <trkpt lat="67.30213" lon="14.70158">
        <ele>6.10884</ele>
        <time>2020-07-16T05:38:34.589Z</time>
      </trkpt>
      <trkpt lat="67.30207" lon="14.70148">
        <ele>6.051882</ele>
        <time>2020-07-16T05:38:35.484Z</time>
      </trkpt>
      <trkpt lat="67.30198" lon="14.70136">
        <ele>5.973418</ele>
        <time>2020-07-16T05:38:37.587Z</time>
      </trkpt>
      <trkpt lat="67.3018" lon="14.70087">
        <ele>5.811534</ele>
        <time>2020-07-16T05:38:41.228Z</time>
      </trkpt>
      <trkpt lat="67.30162" lon="14.70029">
        <ele>5.751364</ele>
        <time>2020-07-16T05:38:45.893Z</time>
      </trkpt>
      <trkpt lat="67.30159" lon="14.70018">
        <ele>5.740815</ele>
        <time>2020-07-16T05:38:46.523Z</time>
      </trkpt>
      <trkpt lat="67.30087" lon="14.69825">
        <ele>5.523793</ele>
        <time>2020-07-16T05:39:04.957Z</time>
      </trkpt>
      <trkpt lat="67.30037" lon="14.69648">
        <ele>6.238692</ele>
        <time>2020-07-16T05:39:21.939Z</time>
      </trkpt>
      <trkpt lat="67.30022" lon="14.69548">
        <ele>6.877918</ele>
        <time>2020-07-16T05:39:32.091Z</time>
      </trkpt>
      <trkpt lat="67.30018" lon="14.69378">
        <ele>7.889565</ele>
        <time>2020-07-16T05:39:47.534Z</time>
      </trkpt>
      <trkpt lat="67.30018" lon="14.69353">
        <ele>8.040763</ele>
        <time>2020-07-16T05:39:50.600Z</time>
      </trkpt>
      <trkpt lat="67.30018" lon="14.69304">
        <ele>8.340788</ele>
        <time>2020-07-16T05:39:54.716Z</time>
      </trkpt>
      <trkpt lat="67.30018" lon="14.69283">
        <ele>8.470331</ele>
        <time>2020-07-16T05:39:56.577Z</time>
      </trkpt>
      <trkpt lat="67.30018" lon="14.69265">
        <ele>8.584043</ele>
        <time>2020-07-16T05:39:58.824Z</time>
      </trkpt>
      <trkpt lat="67.30006" lon="14.69112">
        <ele>9.567419</ele>
        <time>2020-07-16T05:40:12.818Z</time>
      </trkpt>
      <trkpt lat="67.29988" lon="14.68966">
        <ele>10.538282</ele>
        <time>2020-07-16T05:40:26.756Z</time>
      </trkpt>
      <trkpt lat="67.29938" lon="14.68709">
        <ele>11.781466</ele>
        <time>2020-07-16T05:40:50.248Z</time>
      </trkpt>
      <trkpt lat="67.29917" lon="14.68625">
        <ele>12.106639</ele>
        <time>2020-07-16T05:40:58.057Z</time>
      </trkpt>
      <trkpt lat="67.299" lon="14.68543">
        <ele>12.409855</ele>
        <time>2020-07-16T05:41:05.238Z</time>
      </trkpt>
      <trkpt lat="67.2988" lon="14.68462">
        <ele>12.69278</ele>
        <time>2020-07-16T05:41:12.535Z</time>
      </trkpt>
      <trkpt lat="67.29856" lon="14.68393">
        <ele>12.746126</ele>
        <time>2020-07-16T05:41:19.705Z</time>
      </trkpt>
      <trkpt lat="67.29754" lon="14.68189">
        <ele>12.934984</ele>
        <time>2020-07-16T05:41:43.587Z</time>
      </trkpt>
      <trkpt lat="67.29654" lon="14.67932">
        <ele>11.65308</ele>
        <time>2020-07-16T05:42:05.818Z</time>
      </trkpt>
      <trkpt lat="67.29518" lon="14.67442">
        <ele>7.731761</ele>
        <time>2020-07-16T05:42:39.295Z</time>
      </trkpt>
      <trkpt lat="67.29496" lon="14.67328">
        <ele>6.746874</ele>
        <time>2020-07-16T05:42:45.949Z</time>
      </trkpt>
      <trkpt lat="67.29479" lon="14.67163">
        <ele>5.426024</ele>
        <time>2020-07-16T05:42:55.082Z</time>
      </trkpt>
      <trkpt lat="67.29475" lon="14.67097">
        <ele>4.904912</ele>
        <time>2020-07-16T05:42:58.711Z</time>
      </trkpt>
      <trkpt lat="67.2947" lon="14.67019">
        <ele>4.298407</ele>
        <time>2020-07-16T05:43:03.024Z</time>
      </trkpt>
      <trkpt lat="67.29437" lon="14.6642">
        <ele>3.236357</ele>
        <time>2020-07-16T05:43:41.363Z</time>
      </trkpt>
      <trkpt lat="67.29422" lon="14.65913">
        <ele>4.265478</ele>
        <time>2020-07-16T05:44:21.776Z</time>
      </trkpt>
      <trkpt lat="67.2942" lon="14.65886">
        <ele>4.334065</ele>
        <time>2020-07-16T05:44:24.096Z</time>
      </trkpt>
      <trkpt lat="67.29419" lon="14.65859">
        <ele>4.40325</ele>
        <time>2020-07-16T05:44:26.213Z</time>
      </trkpt>
      <trkpt lat="67.29385" lon="14.65544">
        <ele>5.11215</ele>
        <time>2020-07-16T05:44:50.661Z</time>
      </trkpt>
      <trkpt lat="67.2937" lon="14.65414">
        <ele>5.260932</ele>
        <time>2020-07-16T05:45:00.364Z</time>
      </trkpt>
      <trkpt lat="67.29369" lon="14.65396">
        <ele>5.281601</ele>
        <time>2020-07-16T05:45:01.670Z</time>
      </trkpt>
      <trkpt lat="67.29359" lon="14.65304">
        <ele>5.385872</ele>
        <time>2020-07-16T05:45:08.392Z</time>
      </trkpt>
      <trkpt lat="67.29357" lon="14.65287">
        <ele>5.405834</ele>
        <time>2020-07-16T05:45:09.887Z</time>
      </trkpt>
      <trkpt lat="67.29348" lon="14.65174">
        <ele>5.532793</ele>
        <time>2020-07-16T05:45:18.157Z</time>
      </trkpt>
      <trkpt lat="67.2933" lon="14.65004">
        <ele>5.886376</ele>
        <time>2020-07-16T05:45:31.135Z</time>
      </trkpt>
      <trkpt lat="67.29326" lon="14.64958">
        <ele>5.981579</ele>
        <time>2020-07-16T05:45:34.436Z</time>
      </trkpt>
      <trkpt lat="67.29323" lon="14.64927">
        <ele>6.044653</ele>
        <time>2020-07-16T05:45:37.028Z</time>
      </trkpt>
      <trkpt lat="67.29316" lon="14.64817">
        <ele>6.268477</ele>
        <time>2020-07-16T05:45:45.575Z</time>
      </trkpt>
      <trkpt lat="67.29308" lon="14.64718">
        <ele>6.470753</ele>
        <time>2020-07-16T05:45:53.494Z</time>
      </trkpt>
      <trkpt lat="67.29306" lon="14.64699">
        <ele>6.50686</ele>
        <time>2020-07-16T05:45:54.952Z</time>
      </trkpt>
      <trkpt lat="67.29303" lon="14.64672">
        <ele>6.560057</ele>
        <time>2020-07-16T05:45:57.206Z</time>
      </trkpt>
      <trkpt lat="67.293" lon="14.64661">
        <ele>6.583555</ele>
        <time>2020-07-16T05:45:58.321Z</time>
      </trkpt>
      <trkpt lat="67.29299" lon="14.64653">
        <ele>6.599569</ele>
        <time>2020-07-16T05:45:58.900Z</time>
      </trkpt>
      <trkpt lat="67.29295" lon="14.64636">
        <ele>6.636535</ele>
        <time>2020-07-16T05:46:00.454Z</time>
      </trkpt>
      <trkpt lat="67.29286" lon="14.64607">
        <ele>6.705182</ele>
        <time>2020-07-16T05:46:03.227Z</time>
      </trkpt>
      <trkpt lat="67.29283" lon="14.64596">
        <ele>6.731257</ele>
        <time>2020-07-16T05:46:04.323Z</time>
      </trkpt>
      <trkpt lat="67.29282" lon="14.64591">
        <ele>6.740965</ele>
        <time>2020-07-16T05:46:04.872Z</time>
      </trkpt>
      <trkpt lat="67.29282" lon="14.64569">
        <ele>6.781673</ele>
        <time>2020-07-16T05:46:06.473Z</time>
      </trkpt>
      <trkpt lat="67.29285" lon="14.6453">
        <ele>6.855728</ele>
        <time>2020-07-16T05:46:09.552Z</time>
      </trkpt>
      <trkpt lat="67.29284" lon="14.64508">
        <ele>6.897455</ele>
        <time>2020-07-16T05:46:11.295Z</time>
      </trkpt>
      <trkpt lat="67.29279" lon="14.64428">
        <ele>7.048513</ele>
        <time>2020-07-16T05:46:17.299Z</time>
      </trkpt>
      <trkpt lat="67.29274" lon="14.6435">
        <ele>7.195382</ele>
        <time>2020-07-16T05:46:23.015Z</time>
      </trkpt>
      <trkpt lat="67.29266" lon="14.64242">
        <ele>7.250044</ele>
        <time>2020-07-16T05:46:30.893Z</time>
      </trkpt>
      <trkpt lat="67.29258" lon="14.64144">
        <ele>7.017635</ele>
        <time>2020-07-16T05:46:38.228Z</time>
      </trkpt>
      <trkpt lat="67.29249" lon="14.64037">
        <ele>6.76276</ele>
        <time>2020-07-16T05:46:45.261Z</time>
      </trkpt>
      <trkpt lat="67.29221" lon="14.63777">
        <ele>6.095034</ele>
        <time>2020-07-16T05:47:01.029Z</time>
      </trkpt>
      <trkpt lat="67.29217" lon="14.63746">
        <ele>5.993743</ele>
        <time>2020-07-16T05:47:03.017Z</time>
      </trkpt>
      <trkpt lat="67.29215" lon="14.63732">
        <ele>5.949002</ele>
        <time>2020-07-16T05:47:03.783Z</time>
      </trkpt>
      <trkpt lat="67.29201" lon="14.63632">
        <ele>5.620772</ele>
        <time>2020-07-16T05:47:10.009Z</time>
      </trkpt>
      <trkpt lat="67.29196" lon="14.6361">
        <ele>5.542674</ele>
        <time>2020-07-16T05:47:11.437Z</time>
      </trkpt>
      <trkpt lat="67.29193" lon="14.63598">
        <ele>5.499548</ele>
        <time>2020-07-16T05:47:12.286Z</time>
      </trkpt>
      <trkpt lat="67.29182" lon="14.63558">
        <ele>5.348612</ele>
        <time>2020-07-16T05:47:15.269Z</time>
      </trkpt>
      <trkpt lat="67.29178" lon="14.63537">
        <ele>5.272433</ele>
        <time>2020-07-16T05:47:16.701Z</time>
      </trkpt>
      <trkpt lat="67.2916" lon="14.63415">
        <ele>4.869818</ele>
        <time>2020-07-16T05:47:25.120Z</time>
      </trkpt>
      <trkpt lat="67.29142" lon="14.63297">
        <ele>5.24731</ele>
        <time>2020-07-16T05:47:34.305Z</time>
      </trkpt>
      <trkpt lat="67.2913" lon="14.63228">
        <ele>5.554345</ele>
        <time>2020-07-16T05:47:40.190Z</time>
      </trkpt>
      <trkpt lat="67.29119" lon="14.63161">
        <ele>5.852988</ele>
        <time>2020-07-16T05:47:47.044Z</time>
      </trkpt>
      <trkpt lat="67.29104" lon="14.63084">
        <ele>6.207921</ele>
        <time>2020-07-16T05:47:55.109Z</time>
      </trkpt>
      <trkpt lat="67.29082" lon="14.6298">
        <ele>6.690866</ele>
        <time>2020-07-16T05:48:05.165Z</time>
      </trkpt>
      <trkpt lat="67.29079" lon="14.62965">
        <ele>6.709874</ele>
        <time>2020-07-16T05:48:06.957Z</time>
      </trkpt>
      <trkpt lat="67.29077" lon="14.62948">
        <ele>6.708576</ele>
        <time>2020-07-16T05:48:08.236Z</time>
      </trkpt>
      <trkpt lat="67.29075" lon="14.62926">
        <ele>6.70696</ele>
        <time>2020-07-16T05:48:10.189Z</time>
      </trkpt>
      <trkpt lat="67.29071" lon="14.62855">
        <ele>6.70175</ele>
        <time>2020-07-16T05:48:15.584Z</time>
      </trkpt>
      <trkpt lat="67.29057" lon="14.62792">
        <ele>6.696464</ele>
        <time>2020-07-16T05:48:21.296Z</time>
      </trkpt>
      <trkpt lat="67.29045" lon="14.62723">
        <ele>6.691011</ele>
        <time>2020-07-16T05:48:26.432Z</time>
      </trkpt>
      <trkpt lat="67.29041" lon="14.62705">
        <ele>6.689507</ele>
        <time>2020-07-16T05:48:27.948Z</time>
      </trkpt>
      <trkpt lat="67.29036" lon="14.62683">
        <ele>6.687656</ele>
        <time>2020-07-16T05:48:29.534Z</time>
      </trkpt>
      <trkpt lat="67.29033" lon="14.62668">
        <ele>6.686514</ele>
        <time>2020-07-16T05:48:30.583Z</time>
      </trkpt>
      <trkpt lat="67.29025" lon="14.62588">
        <ele>6.680489</ele>
        <time>2020-07-16T05:48:35.792Z</time>
      </trkpt>
      <trkpt lat="67.2902" lon="14.6255">
        <ele>6.677641</ele>
        <time>2020-07-16T05:48:38.074Z</time>
      </trkpt>
      <trkpt lat="67.29018" lon="14.62526">
        <ele>6.57191</ele>
        <time>2020-07-16T05:48:39.490Z</time>
      </trkpt>
      <trkpt lat="67.29008" lon="14.62236">
        <ele>4.693766</ele>
        <time>2020-07-16T05:48:55.377Z</time>
      </trkpt>
      <trkpt lat="67.29007" lon="14.62195">
        <ele>4.429235</ele>
        <time>2020-07-16T05:48:57.614Z</time>
      </trkpt>
      <trkpt lat="67.29006" lon="14.62122">
        <ele>3.959499</ele>
        <time>2020-07-16T05:49:01.697Z</time>
      </trkpt>
      <trkpt lat="67.28995" lon="14.61922">
        <ele>3.107898</ele>
        <time>2020-07-16T05:49:13.427Z</time>
      </trkpt>
      <trkpt lat="67.28961" lon="14.61574">
        <ele>2.156086</ele>
        <time>2020-07-16T05:49:35.467Z</time>
      </trkpt>
      <trkpt lat="67.28957" lon="14.61475">
        <ele>2.457006</ele>
        <time>2020-07-16T05:49:42.460Z</time>
      </trkpt>
      <trkpt lat="67.28961" lon="14.61403">
        <ele>2.674933</ele>
        <time>2020-07-16T05:49:48.699Z</time>
      </trkpt>
      <trkpt lat="67.28961" lon="14.61385">
        <ele>2.729251</ele>
        <time>2020-07-16T05:49:49.846Z</time>
      </trkpt>
      <trkpt lat="67.28961" lon="14.61369">
        <ele>2.778148</ele>
        <time>2020-07-16T05:49:50.995Z</time>
      </trkpt>
      <trkpt lat="67.2896" lon="14.61333">
        <ele>2.886722</ele>
        <time>2020-07-16T05:49:54.513Z</time>
      </trkpt>
      <trkpt lat="67.2896" lon="14.61318">
        <ele>2.931068</ele>
        <time>2020-07-16T05:49:55.889Z</time>
      </trkpt>
      <trkpt lat="67.28971" lon="14.61282">
        <ele>3.06804</ele>
        <time>2020-07-16T05:49:59.327Z</time>
      </trkpt>
      <trkpt lat="67.28973" lon="14.6127">
        <ele>3.112394</ele>
        <time>2020-07-16T05:50:00.633Z</time>
      </trkpt>
      <trkpt lat="67.28976" lon="14.61248">
        <ele>3.181317</ele>
        <time>2020-07-16T05:50:02.746Z</time>
      </trkpt>
      <trkpt lat="67.2898" lon="14.61208">
        <ele>3.304819</ele>
        <time>2020-07-16T05:50:06.020Z</time>
      </trkpt>
      <trkpt lat="67.28985" lon="14.61167">
        <ele>3.521773</ele>
        <time>2020-07-16T05:50:09.668Z</time>
      </trkpt>
      <trkpt lat="67.28987" lon="14.61101">
        <ele>4.392932</ele>
        <time>2020-07-16T05:50:15.554Z</time>
      </trkpt>
      <trkpt lat="67.28987" lon="14.61087">
        <ele>4.590327</ele>
        <time>2020-07-16T05:50:17.102Z</time>
      </trkpt>
      <trkpt lat="67.28988" lon="14.61065">
        <ele>4.87118</ele>
        <time>2020-07-16T05:50:19.299Z</time>
      </trkpt>
      <trkpt lat="67.28993" lon="14.60991">
        <ele>5.868409</ele>
        <time>2020-07-16T05:50:27.348Z</time>
      </trkpt>
      <trkpt lat="67.28989" lon="14.60945">
        <ele>6.497959</ele>
        <time>2020-07-16T05:50:32.641Z</time>
      </trkpt>
      <trkpt lat="67.28985" lon="14.60935">
        <ele>6.667031</ele>
        <time>2020-07-16T05:50:34.379Z</time>
      </trkpt>
      <trkpt lat="67.28982" lon="14.60928">
        <ele>6.830747</ele>
        <time>2020-07-16T05:50:35.686Z</time>
      </trkpt>
      <trkpt lat="67.2898" lon="14.60925">
        <ele>6.904349</ele>
        <time>2020-07-16T05:50:36.303Z</time>
      </trkpt>
      <trkpt lat="67.28974" lon="14.60912">
        <ele>7.168084</ele>
        <time>2020-07-16T05:50:38.928Z</time>
      </trkpt>
      <trkpt lat="67.28971" lon="14.60903">
        <ele>7.319153</ele>
        <time>2020-07-16T05:50:40.174Z</time>
      </trkpt>
      <trkpt lat="67.28968" lon="14.60888">
        <ele>7.552712</ele>
        <time>2020-07-16T05:50:42.274Z</time>
      </trkpt>
      <trkpt lat="67.28961" lon="14.6085">
        <ele>8.1026</ele>
        <time>2020-07-16T05:50:47.216Z</time>
      </trkpt>
      <trkpt lat="67.28955" lon="14.60818">
        <ele>8.568444</ele>
        <time>2020-07-16T05:50:51.470Z</time>
      </trkpt>
      <trkpt lat="67.28952" lon="14.60796">
        <ele>8.880705</ele>
        <time>2020-07-16T05:50:54.272Z</time>
      </trkpt>
      <trkpt lat="67.28944" lon="14.60742">
        <ele>9.688273</ele>
        <time>2020-07-16T05:51:02.148Z</time>
      </trkpt>
      <trkpt lat="67.28932" lon="14.60657">
        <ele>11.442551</ele>
        <time>2020-07-16T05:51:13.496Z</time>
      </trkpt>
      <trkpt lat="67.28924" lon="14.60597">
        <ele>12.685571</ele>
        <time>2020-07-16T05:51:21.385Z</time>
      </trkpt>
      <trkpt lat="67.28923" lon="14.60591">
        <ele>12.805702</ele>
        <time>2020-07-16T05:51:22.411Z</time>
      </trkpt>
      <trkpt lat="67.28919" lon="14.6056">
        <ele>13.446692</ele>
        <time>2020-07-16T05:51:27.643Z</time>
      </trkpt>
      <trkpt lat="67.28917" lon="14.60546">
        <ele>13.7343</ele>
        <time>2020-07-16T05:51:29.395Z</time>
      </trkpt>
      <trkpt lat="67.28909" lon="14.60487">
        <ele>14.966334</ele>
        <time>2020-07-16T05:51:37.775Z</time>
      </trkpt>
      <trkpt lat="67.28907" lon="14.60475">
        <ele>15.211994</ele>
        <time>2020-07-16T05:51:40.314Z</time>
      </trkpt>
      <trkpt lat="67.28901" lon="14.60443">
        <ele>15.895208</ele>
        <time>2020-07-16T05:51:44.526Z</time>
      </trkpt>
      <trkpt lat="67.28898" lon="14.60423">
        <ele>16.32954</ele>
        <time>2020-07-16T05:51:47.097Z</time>
      </trkpt>
      <trkpt lat="67.28903" lon="14.60404">
        <ele>16.792868</ele>
        <time>2020-07-16T05:51:51.069Z</time>
      </trkpt>
      <trkpt lat="67.28905" lon="14.60393">
        <ele>17.022311</ele>
        <time>2020-07-16T05:51:53.494Z</time>
      </trkpt>
      <trkpt lat="67.28906" lon="14.60356">
        <ele>17.744631</ele>
        <time>2020-07-16T05:51:57.490Z</time>
      </trkpt>
      <trkpt lat="67.28891" lon="14.6025">
        <ele>19.276509</ele>
        <time>2020-07-16T05:52:11.281Z</time>
      </trkpt>
      <trkpt lat="67.28889" lon="14.60229">
        <ele>19.477997</ele>
        <time>2020-07-16T05:52:14.467Z</time>
      </trkpt>
      <trkpt lat="67.28888" lon="14.60217">
        <ele>19.599157</ele>
        <time>2020-07-16T05:52:16.869Z</time>
      </trkpt>
      <trkpt lat="67.28883" lon="14.60069">
        <ele>20.983103</ele>
        <time>2020-07-16T05:52:32.010Z</time>
      </trkpt>
      <trkpt lat="67.28831" lon="14.59658">
        <ele>23.248269</ele>
        <time>2020-07-16T05:53:05.481Z</time>
      </trkpt>
      <trkpt lat="67.28824" lon="14.59614">
        <ele>23.303985</ele>
        <time>2020-07-16T05:53:08.500Z</time>
      </trkpt>
      <trkpt lat="67.28822" lon="14.59598">
        <ele>23.323644</ele>
        <time>2020-07-16T05:53:09.656Z</time>
      </trkpt>
      <trkpt lat="67.28818" lon="14.59572">
        <ele>23.3559</ele>
        <time>2020-07-16T05:53:11.316Z</time>
      </trkpt>
      <trkpt lat="67.28814" lon="14.59541">
        <ele>23.395002</ele>
        <time>2020-07-16T05:53:13.380Z</time>
      </trkpt>
      <trkpt lat="67.28793" lon="14.5942">
        <ele>23.629942</ele>
        <time>2020-07-16T05:53:21.934Z</time>
      </trkpt>
      <trkpt lat="67.28793" lon="14.59415">
        <ele>23.69734</ele>
        <time>2020-07-16T05:53:22.231Z</time>
      </trkpt>
      <trkpt lat="67.28784" lon="14.59362">
        <ele>24.400472</ele>
        <time>2020-07-16T05:53:26.887Z</time>
      </trkpt>
      <trkpt lat="67.28779" lon="14.59333">
        <ele>24.78773</ele>
        <time>2020-07-16T05:53:29.508Z</time>
      </trkpt>
      <trkpt lat="67.28776" lon="14.59307">
        <ele>25.128325</ele>
        <time>2020-07-16T05:53:33.030Z</time>
      </trkpt>
      <trkpt lat="67.2877" lon="14.59268">
        <ele>25.626673</ele>
        <time>2020-07-16T05:53:36.621Z</time>
      </trkpt>
      <trkpt lat="67.28754" lon="14.59133">
        <ele>27.362127</ele>
        <time>2020-07-16T05:53:53.081Z</time>
      </trkpt>
      <trkpt lat="67.28735" lon="14.5909">
        <ele>28.149659</ele>
        <time>2020-07-16T05:54:00.560Z</time>
      </trkpt>
      <trkpt lat="67.28735" lon="14.59081">
        <ele>28.266313</ele>
        <time>2020-07-16T05:54:02.132Z</time>
      </trkpt>
      <trkpt lat="67.28734" lon="14.59061">
        <ele>28.506389</ele>
        <time>2020-07-16T05:54:05.294Z</time>
      </trkpt>
      <trkpt lat="67.28733" lon="14.59054">
        <ele>28.600302</ele>
        <time>2020-07-16T05:54:06.357Z</time>
      </trkpt>
      <trkpt lat="67.28735" lon="14.59043">
        <ele>28.739788</ele>
        <time>2020-07-16T05:54:07.547Z</time>
      </trkpt>
      <trkpt lat="67.28737" lon="14.59035">
        <ele>28.865031</ele>
        <time>2020-07-16T05:54:08.827Z</time>
      </trkpt>
      <trkpt lat="67.28738" lon="14.59033">
        <ele>28.903851</ele>
        <time>2020-07-16T05:54:09.501Z</time>
      </trkpt>
      <trkpt lat="67.28739" lon="14.59001">
        <ele>29.325779</ele>
        <time>2020-07-16T05:54:12.795Z</time>
      </trkpt>
      <trkpt lat="67.28739" lon="14.58999">
        <ele>29.369768</ele>
        <time>2020-07-16T05:54:13.404Z</time>
      </trkpt>
      <trkpt lat="67.28736" lon="14.58972">
        <ele>29.884123</ele>
        <time>2020-07-16T05:54:17.924Z</time>
      </trkpt>
      <trkpt lat="67.28722" lon="14.58846">
        <ele>32.360189</ele>
        <time>2020-07-16T05:54:35.383Z</time>
      </trkpt>
      <trkpt lat="67.28711" lon="14.58753">
        <ele>34.199835</ele>
        <time>2020-07-16T05:54:48.717Z</time>
      </trkpt>
      <trkpt lat="67.28708" lon="14.58734">
        <ele>34.580652</ele>
        <time>2020-07-16T05:54:50.826Z</time>
      </trkpt>
      <trkpt lat="67.28698" lon="14.5865">
        <ele>36.248048</ele>
        <time>2020-07-16T05:55:03.326Z</time>
      </trkpt>
      <trkpt lat="67.28688" lon="14.58615">
        <ele>37.051354</ele>
        <time>2020-07-16T05:55:09.652Z</time>
      </trkpt>
      <trkpt lat="67.28687" lon="14.58608">
        <ele>37.202922</ele>
        <time>2020-07-16T05:55:10.447Z</time>
      </trkpt>
      <trkpt lat="67.28685" lon="14.58589">
        <ele>37.561464</ele>
        <time>2020-07-16T05:55:12.679Z</time>
      </trkpt>
      <trkpt lat="67.28683" lon="14.58533">
        <ele>38.262123</ele>
        <time>2020-07-16T05:55:18.533Z</time>
      </trkpt>
      <trkpt lat="67.28676" lon="14.58468">
        <ele>38.777149</ele>
        <time>2020-07-16T05:55:25.727Z</time>
      </trkpt>
      <trkpt lat="67.28655" lon="14.58286">
        <ele>40.209895</ele>
        <time>2020-07-16T05:55:43.206Z</time>
      </trkpt>
      <trkpt lat="67.28631" lon="14.58069">
        <ele>41.232954</ele>
        <time>2020-07-16T05:56:01.671Z</time>
      </trkpt>
      <trkpt lat="67.28624" lon="14.58014">
        <ele>40.869686</ele>
        <time>2020-07-16T05:56:06.259Z</time>
      </trkpt>
      <trkpt lat="67.28599" lon="14.57806">
        <ele>39.52019</ele>
        <time>2020-07-16T05:56:18.987Z</time>
      </trkpt>
      <trkpt lat="67.28591" lon="14.57734">
        <ele>39.056315</ele>
        <time>2020-07-16T05:56:22.782Z</time>
      </trkpt>
      <trkpt lat="67.2858" lon="14.57647">
        <ele>38.225033</ele>
        <time>2020-07-16T05:56:27.190Z</time>
      </trkpt>
      <trkpt lat="67.28569" lon="14.57582">
        <ele>37.088006</ele>
        <time>2020-07-16T05:56:30.461Z</time>
      </trkpt>
      <trkpt lat="67.28565" lon="14.57568">
        <ele>36.830482</ele>
        <time>2020-07-16T05:56:31.227Z</time>
      </trkpt>
      <trkpt lat="67.28563" lon="14.5756">
        <ele>36.660728</ele>
        <time>2020-07-16T05:56:31.752Z</time>
      </trkpt>
      <trkpt lat="67.28561" lon="14.57549">
        <ele>36.479857</ele>
        <time>2020-07-16T05:56:32.300Z</time>
      </trkpt>
      <trkpt lat="67.28561" lon="14.57543">
        <ele>36.37354</ele>
        <time>2020-07-16T05:56:32.561Z</time>
      </trkpt>
      <trkpt lat="67.28561" lon="14.57473">
        <ele>35.255148</ele>
        <time>2020-07-16T05:56:35.972Z</time>
      </trkpt>
      <trkpt lat="67.28541" lon="14.57302">
        <ele>32.396717</ele>
        <time>2020-07-16T05:56:44.475Z</time>
      </trkpt>
      <trkpt lat="67.28523" lon="14.57148">
        <ele>31.239282</ele>
        <time>2020-07-16T05:56:52.663Z</time>
      </trkpt>
      <trkpt lat="67.28512" lon="14.57047">
        <ele>31.298734</ele>
        <time>2020-07-16T05:56:59.893Z</time>
      </trkpt>
      <trkpt lat="67.28494" lon="14.569">
        <ele>31.384909</ele>
        <time>2020-07-16T05:57:14.570Z</time>
      </trkpt>
      <trkpt lat="67.28478" lon="14.56761">
        <ele>31.392437</ele>
        <time>2020-07-16T05:57:27.445Z</time>
      </trkpt>
      <trkpt lat="67.28463" lon="14.56697">
        <ele>31.198041</ele>
        <time>2020-07-16T05:57:32.681Z</time>
      </trkpt>
      <trkpt lat="67.28458" lon="14.56679">
        <ele>31.141365</ele>
        <time>2020-07-16T05:57:35.197Z</time>
      </trkpt>
      <trkpt lat="67.28457" lon="14.56657">
        <ele>31.084884</ele>
        <time>2020-07-16T05:57:36.681Z</time>
      </trkpt>
      <trkpt lat="67.28457" lon="14.56645">
        <ele>31.055304</ele>
        <time>2020-07-16T05:57:37.524Z</time>
      </trkpt>
      <trkpt lat="67.28459" lon="14.56614">
        <ele>30.974687</ele>
        <time>2020-07-16T05:57:39.109Z</time>
      </trkpt>
      <trkpt lat="67.28447" lon="14.56491">
        <ele>30.651553</ele>
        <time>2020-07-16T05:57:47.224Z</time>
      </trkpt>
      <trkpt lat="67.28421" lon="14.56268">
        <ele>30.577379</ele>
        <time>2020-07-16T05:57:59.541Z</time>
      </trkpt>
      <trkpt lat="67.2841" lon="14.56177">
        <ele>30.944183</ele>
        <time>2020-07-16T05:58:05.065Z</time>
      </trkpt>
      <trkpt lat="67.28379" lon="14.55908">
        <ele>32.036491</ele>
        <time>2020-07-16T05:58:32.349Z</time>
      </trkpt>
      <trkpt lat="67.2837" lon="14.55835">
        <ele>33.278482</ele>
        <time>2020-07-16T05:58:41.317Z</time>
      </trkpt>
      <trkpt lat="67.28369" lon="14.5582">
        <ele>33.554179</ele>
        <time>2020-07-16T05:58:44.150Z</time>
      </trkpt>
      <trkpt lat="67.28362" lon="14.55767">
        <ele>34.553583</ele>
        <time>2020-07-16T05:58:51.115Z</time>
      </trkpt>
      <trkpt lat="67.28355" lon="14.5571">
        <ele>35.622444</ele>
        <time>2020-07-16T05:58:59.600Z</time>
      </trkpt>
      <trkpt lat="67.28353" lon="14.55697">
        <ele>35.857575</ele>
        <time>2020-07-16T05:59:01.383Z</time>
      </trkpt>
      <trkpt lat="67.28345" lon="14.55637">
        <ele>36.999589</ele>
        <time>2020-07-16T05:59:10.222Z</time>
      </trkpt>
      <trkpt lat="67.28338" lon="14.55572">
        <ele>38.19798</ele>
        <time>2020-07-16T05:59:18.631Z</time>
      </trkpt>
      <trkpt lat="67.28335" lon="14.55542">
        <ele>38.756691</ele>
        <time>2020-07-16T05:59:23.629Z</time>
      </trkpt>
      <trkpt lat="67.28326" lon="14.55469">
        <ele>40.119082</ele>
        <time>2020-07-16T05:59:33.828Z</time>
      </trkpt>
      <trkpt lat="67.28323" lon="14.55443">
        <ele>40.469845</ele>
        <time>2020-07-16T05:59:37.173Z</time>
      </trkpt>
      <trkpt lat="67.2832" lon="14.55419">
        <ele>40.650002</ele>
        <time>2020-07-16T05:59:39.988Z</time>
      </trkpt>
      <trkpt lat="67.28306" lon="14.55346">
        <ele>41.222614</ele>
        <time>2020-07-16T05:59:48.890Z</time>
      </trkpt>
      <trkpt lat="67.28299" lon="14.55305">
        <ele>41.528998</ele>
        <time>2020-07-16T05:59:52.618Z</time>
      </trkpt>
      <trkpt lat="67.28287" lon="14.5522">
        <ele>42.167832</ele>
        <time>2020-07-16T06:00:00.309Z</time>
      </trkpt>
      <trkpt lat="67.2828" lon="14.55166">
        <ele>42.559752</ele>
        <time>2020-07-16T06:00:05.026Z</time>
      </trkpt>
      <trkpt lat="67.28279" lon="14.55153">
        <ele>42.657097</ele>
        <time>2020-07-16T06:00:06.039Z</time>
      </trkpt>
      <trkpt lat="67.2825" lon="14.54988">
        <ele>43.637175</ele>
        <time>2020-07-16T06:00:19.834Z</time>
      </trkpt>
      <trkpt lat="67.28244" lon="14.54958">
        <ele>43.635353</ele>
        <time>2020-07-16T06:00:22.218Z</time>
      </trkpt>
      <trkpt lat="67.28239" lon="14.54933">
        <ele>43.633888</ele>
        <time>2020-07-16T06:00:24.339Z</time>
      </trkpt>
      <trkpt lat="67.28211" lon="14.54808">
        <ele>43.626271</ele>
        <time>2020-07-16T06:00:34.244Z</time>
      </trkpt>
      <trkpt lat="67.28198" lon="14.54745">
        <ele>43.62243</ele>
        <time>2020-07-16T06:00:39.124Z</time>
      </trkpt>
      <trkpt lat="67.28187" lon="14.54694">
        <ele>43.619379</ele>
        <time>2020-07-16T06:00:42.853Z</time>
      </trkpt>
      <trkpt lat="67.28151" lon="14.54474">
        <ele>42.755433</ele>
        <time>2020-07-16T06:00:58.196Z</time>
      </trkpt>
      <trkpt lat="67.28133" lon="14.5438">
        <ele>42.147163</ele>
        <time>2020-07-16T06:01:04.491Z</time>
      </trkpt>
      <trkpt lat="67.28082" lon="14.54121">
        <ele>39.403053</ele>
        <time>2020-07-16T06:01:20.303Z</time>
      </trkpt>
      <trkpt lat="67.2808" lon="14.54111">
        <ele>39.193349</ele>
        <time>2020-07-16T06:01:20.777Z</time>
      </trkpt>
      <trkpt lat="67.28055" lon="14.5398">
        <ele>36.346812</ele>
        <time>2020-07-16T06:01:27.601Z</time>
      </trkpt>
      <trkpt lat="67.28045" lon="14.53918">
        <ele>35.057187</ele>
        <time>2020-07-16T06:01:30.551Z</time>
      </trkpt>
      <trkpt lat="67.28039" lon="14.53877">
        <ele>34.213938</ele>
        <time>2020-07-16T06:01:32.694Z</time>
      </trkpt>
      <trkpt lat="67.28038" lon="14.5387">
        <ele>34.050599</ele>
        <time>2020-07-16T06:01:33.078Z</time>
      </trkpt>
      <trkpt lat="67.28035" lon="14.53854">
        <ele>33.712886</ele>
        <time>2020-07-16T06:01:33.832Z</time>
      </trkpt>
      <trkpt lat="67.28029" lon="14.53804">
        <ele>32.68966</ele>
        <time>2020-07-16T06:01:36.218Z</time>
      </trkpt>
      <trkpt lat="67.28028" lon="14.53792">
        <ele>32.458465</ele>
        <time>2020-07-16T06:01:36.808Z</time>
      </trkpt>
      <trkpt lat="67.28026" lon="14.53771">
        <ele>32.028513</ele>
        <time>2020-07-16T06:01:37.794Z</time>
      </trkpt>
      <trkpt lat="67.28024" lon="14.53759">
        <ele>31.80674</ele>
        <time>2020-07-16T06:01:38.319Z</time>
      </trkpt>
      <trkpt lat="67.28023" lon="14.53748">
        <ele>31.588699</ele>
        <time>2020-07-16T06:01:38.807Z</time>
      </trkpt>
      <trkpt lat="67.28015" lon="14.53687">
        <ele>30.406569</ele>
        <time>2020-07-16T06:01:41.937Z</time>
      </trkpt>
      <trkpt lat="67.28009" lon="14.53639">
        <ele>29.50537</ele>
        <time>2020-07-16T06:01:44.123Z</time>
      </trkpt>
      <trkpt lat="67.28005" lon="14.53602">
        <ele>28.802838</ele>
        <time>2020-07-16T06:01:46.000Z</time>
      </trkpt>
      <trkpt lat="67.27985" lon="14.53441">
        <ele>25.729387</ele>
        <time>2020-07-16T06:01:53.790Z</time>
      </trkpt>
      <trkpt lat="67.27955" lon="14.53189">
        <ele>22.840015</ele>
        <time>2020-07-16T06:02:07.595Z</time>
      </trkpt>
      <trkpt lat="67.27939" lon="14.5302">
        <ele>22.100672</ele>
        <time>2020-07-16T06:02:18.695Z</time>
      </trkpt>
      <trkpt lat="67.27895" lon="14.5255">
        <ele>21.388795</ele>
        <time>2020-07-16T06:02:51.430Z</time>
      </trkpt>
      <trkpt lat="67.27885" lon="14.52434">
        <ele>21.368401</ele>
        <time>2020-07-16T06:02:59.818Z</time>
      </trkpt>
      <trkpt lat="67.27881" lon="14.52397">
        <ele>21.38674</ele>
        <time>2020-07-16T06:03:02.515Z</time>
      </trkpt>
      <trkpt lat="67.27873" lon="14.52331">
        <ele>21.453164</ele>
        <time>2020-07-16T06:03:07.400Z</time>
      </trkpt>
      <trkpt lat="67.2784" lon="14.51973">
        <ele>21.808314</ele>
        <time>2020-07-16T06:03:34.062Z</time>
      </trkpt>
      <trkpt lat="67.27817" lon="14.51732">
        <ele>22.268371</ele>
        <time>2020-07-16T06:03:52.364Z</time>
      </trkpt>
      <trkpt lat="67.27817" lon="14.51725">
        <ele>22.281464</ele>
        <time>2020-07-16T06:03:52.967Z</time>
      </trkpt>
      <trkpt lat="67.27817" lon="14.51711">
        <ele>22.307741</ele>
        <time>2020-07-16T06:03:54.079Z</time>
      </trkpt>
      <trkpt lat="67.27814" lon="14.51693">
        <ele>22.345756</ele>
        <time>2020-07-16T06:03:55.592Z</time>
      </trkpt>
      <trkpt lat="67.27804" lon="14.51541">
        <ele>22.634181</ele>
        <time>2020-07-16T06:04:07.375Z</time>
      </trkpt>
      <trkpt lat="67.27801" lon="14.51502">
        <ele>22.700385</ele>
        <time>2020-07-16T06:04:10.410Z</time>
      </trkpt>
      <trkpt lat="67.27798" lon="14.51465">
        <ele>22.744271</ele>
        <time>2020-07-16T06:04:13.296Z</time>
      </trkpt>
      <trkpt lat="67.27798" lon="14.51459">
        <ele>22.75091</ele>
        <time>2020-07-16T06:04:13.765Z</time>
      </trkpt>
      <trkpt lat="67.2779" lon="14.51363">
        <ele>22.863178</ele>
        <time>2020-07-16T06:04:21.440Z</time>
      </trkpt>
      <trkpt lat="67.27746" lon="14.5088">
        <ele>22.581756</ele>
        <time>2020-07-16T06:04:56.250Z</time>
      </trkpt>
      <trkpt lat="67.27742" lon="14.5085">
        <ele>22.473524</ele>
        <time>2020-07-16T06:04:58.308Z</time>
      </trkpt>
      <trkpt lat="67.27739" lon="14.50816">
        <ele>22.351071</ele>
        <time>2020-07-16T06:05:00.255Z</time>
      </trkpt>
      <trkpt lat="67.27727" lon="14.50698">
        <ele>21.924971</ele>
        <time>2020-07-16T06:05:07.372Z</time>
      </trkpt>
      <trkpt lat="67.27722" lon="14.50642">
        <ele>21.724342</ele>
        <time>2020-07-16T06:05:10.588Z</time>
      </trkpt>
      <trkpt lat="67.27718" lon="14.50603">
        <ele>21.573348</ele>
        <time>2020-07-16T06:05:12.732Z</time>
      </trkpt>
      <trkpt lat="67.27716" lon="14.50572">
        <ele>21.339265</ele>
        <time>2020-07-16T06:05:14.634Z</time>
      </trkpt>
      <trkpt lat="67.27715" lon="14.50558">
        <ele>21.225565</ele>
        <time>2020-07-16T06:05:15.428Z</time>
      </trkpt>
      <trkpt lat="67.27712" lon="14.50521">
        <ele>20.953549</ele>
        <time>2020-07-16T06:05:17.268Z</time>
      </trkpt>
      <trkpt lat="67.27692" lon="14.50293">
        <ele>19.211882</ele>
        <time>2020-07-16T06:05:29.954Z</time>
      </trkpt>
      <trkpt lat="67.2769" lon="14.50266">
        <ele>19.012701</ele>
        <time>2020-07-16T06:05:31.286Z</time>
      </trkpt>
      <trkpt lat="67.27689" lon="14.50246">
        <ele>18.861003</ele>
        <time>2020-07-16T06:05:32.361Z</time>
      </trkpt>
      <trkpt lat="67.27692" lon="14.50215">
        <ele>18.624514</ele>
        <time>2020-07-16T06:05:34.342Z</time>
      </trkpt>
      <trkpt lat="67.27695" lon="14.50204">
        <ele>18.52991</ele>
        <time>2020-07-16T06:05:35.134Z</time>
      </trkpt>
      <trkpt lat="67.277" lon="14.50189">
        <ele>18.38614</ele>
        <time>2020-07-16T06:05:36.170Z</time>
      </trkpt>
      <trkpt lat="67.27702" lon="14.50176">
        <ele>18.282386</ele>
        <time>2020-07-16T06:05:36.841Z</time>
      </trkpt>
      <trkpt lat="67.27692" lon="14.50014">
        <ele>18.51003</ele>
        <time>2020-07-16T06:05:47.032Z</time>
      </trkpt>
      <trkpt lat="67.27691" lon="14.49958">
        <ele>18.648848</ele>
        <time>2020-07-16T06:05:50.512Z</time>
      </trkpt>
      <trkpt lat="67.27693" lon="14.49906">
        <ele>18.780237</ele>
        <time>2020-07-16T06:05:54.259Z</time>
      </trkpt>
      <trkpt lat="67.27703" lon="14.49725">
        <ele>19.234162</ele>
        <time>2020-07-16T06:06:10.602Z</time>
      </trkpt>
      <trkpt lat="67.27716" lon="14.49586">
        <ele>21.443774</ele>
        <time>2020-07-16T06:06:26.040Z</time>
      </trkpt>
      <trkpt lat="67.27806" lon="14.4911">
        <ele>31.415418</ele>
        <time>2020-07-16T06:07:40.349Z</time>
      </trkpt>
      <trkpt lat="67.27816" lon="14.49023">
        <ele>33.131155</ele>
        <time>2020-07-16T06:07:52.625Z</time>
      </trkpt>
      <trkpt lat="67.27818" lon="14.49004">
        <ele>33.505564</ele>
        <time>2020-07-16T06:07:56.287Z</time>
      </trkpt>
      <trkpt lat="67.27822" lon="14.48978">
        <ele>34.007355</ele>
        <time>2020-07-16T06:07:59.533Z</time>
      </trkpt>
      <trkpt lat="67.27828" lon="14.4884">
        <ele>36.633298</ele>
        <time>2020-07-16T06:08:15.071Z</time>
      </trkpt>
      <trkpt lat="67.27828" lon="14.48782">
        <ele>36.956918</ele>
        <time>2020-07-16T06:08:21.953Z</time>
      </trkpt>
      <trkpt lat="67.2783" lon="14.48715">
        <ele>37.14682</ele>
        <time>2020-07-16T06:08:28.801Z</time>
      </trkpt>
      <trkpt lat="67.27825" lon="14.48552">
        <ele>37.614838</ele>
        <time>2020-07-16T06:08:41.745Z</time>
      </trkpt>
      <trkpt lat="67.27785" lon="14.48067">
        <ele>36.205467</ele>
        <time>2020-07-16T06:09:10.895Z</time>
      </trkpt>
      <trkpt lat="67.27774" lon="14.47811">
        <ele>34.039978</ele>
        <time>2020-07-16T06:09:24.565Z</time>
      </trkpt>
      <trkpt lat="67.27774" lon="14.47804">
        <ele>33.959834</ele>
        <time>2020-07-16T06:09:24.890Z</time>
      </trkpt>
      <trkpt lat="67.27773" lon="14.47785">
        <ele>33.736253</ele>
        <time>2020-07-16T06:09:25.849Z</time>
      </trkpt>
      <trkpt lat="67.27773" lon="14.47769">
        <ele>33.556876</ele>
        <time>2020-07-16T06:09:26.668Z</time>
      </trkpt>
      <trkpt lat="67.27772" lon="14.47754">
        <ele>33.379813</ele>
        <time>2020-07-16T06:09:27.441Z</time>
      </trkpt>
      <trkpt lat="67.27772" lon="14.47725">
        <ele>33.03973</ele>
        <time>2020-07-16T06:09:29.062Z</time>
      </trkpt>
      <trkpt lat="67.2777" lon="14.47679">
        <ele>32.501613</ele>
        <time>2020-07-16T06:09:31.367Z</time>
      </trkpt>
      <trkpt lat="67.27769" lon="14.47663">
        <ele>32.324274</ele>
        <time>2020-07-16T06:09:32.130Z</time>
      </trkpt>
      <trkpt lat="67.27765" lon="14.47639">
        <ele>32.020882</ele>
        <time>2020-07-16T06:09:33.591Z</time>
      </trkpt>
      <trkpt lat="67.27763" lon="14.47632">
        <ele>31.908781</ele>
        <time>2020-07-16T06:09:34.069Z</time>
      </trkpt>
      <trkpt lat="67.27755" lon="14.47607">
        <ele>31.53464</ele>
        <time>2020-07-16T06:09:35.700Z</time>
      </trkpt>
      <trkpt lat="67.27742" lon="14.47515">
        <ele>30.392352</ele>
        <time>2020-07-16T06:09:40.885Z</time>
      </trkpt>
      <trkpt lat="67.27744" lon="14.47411">
        <ele>29.223921</ele>
        <time>2020-07-16T06:09:46.279Z</time>
      </trkpt>
      <trkpt lat="67.2773" lon="14.47159">
        <ele>26.475577</ele>
        <time>2020-07-16T06:09:59.904Z</time>
      </trkpt>
      <trkpt lat="67.27734" lon="14.47108">
        <ele>25.909963</ele>
        <time>2020-07-16T06:10:02.784Z</time>
      </trkpt>
      <trkpt lat="67.27737" lon="14.4707">
        <ele>25.489338</ele>
        <time>2020-07-16T06:10:05.142Z</time>
      </trkpt>
      <trkpt lat="67.27738" lon="14.4705">
        <ele>25.276535</ele>
        <time>2020-07-16T06:10:06.219Z</time>
      </trkpt>
      <trkpt lat="67.27734" lon="14.46859">
        <ele>23.692505</ele>
        <time>2020-07-16T06:10:17.150Z</time>
      </trkpt>
      <trkpt lat="67.27725" lon="14.46712">
        <ele>22.581558</ele>
        <time>2020-07-16T06:10:25.849Z</time>
      </trkpt>
      <trkpt lat="67.27724" lon="14.46682">
        <ele>22.358277</ele>
        <time>2020-07-16T06:10:27.622Z</time>
      </trkpt>
      <trkpt lat="67.27721" lon="14.46634">
        <ele>21.992132</ele>
        <time>2020-07-16T06:10:30.495Z</time>
      </trkpt>
      <trkpt lat="67.27716" lon="14.46549">
        <ele>21.357386</ele>
        <time>2020-07-16T06:10:35.359Z</time>
      </trkpt>
      <trkpt lat="67.27706" lon="14.4644">
        <ele>20.4202</ele>
        <time>2020-07-16T06:10:41.695Z</time>
      </trkpt>
      <trkpt lat="67.27679" lon="14.46318">
        <ele>19.246858</ele>
        <time>2020-07-16T06:10:49.584Z</time>
      </trkpt>
      <trkpt lat="67.27671" lon="14.46269">
        <ele>18.788656</ele>
        <time>2020-07-16T06:10:52.566Z</time>
      </trkpt>
      <trkpt lat="67.27662" lon="14.46214">
        <ele>18.287932</ele>
        <time>2020-07-16T06:10:55.850Z</time>
      </trkpt>
      <trkpt lat="67.27653" lon="14.46156">
        <ele>17.759216</ele>
        <time>2020-07-16T06:10:59.375Z</time>
      </trkpt>
      <trkpt lat="67.27655" lon="14.4615">
        <ele>17.679008</ele>
        <time>2020-07-16T06:10:59.917Z</time>
      </trkpt>
      <trkpt lat="67.27679" lon="14.45992">
        <ele>16.983292</ele>
        <time>2020-07-16T06:11:09.298Z</time>
      </trkpt>
      <trkpt lat="67.27679" lon="14.45986">
        <ele>16.965445</ele>
        <time>2020-07-16T06:11:09.660Z</time>
      </trkpt>
      <trkpt lat="67.27678" lon="14.45962">
        <ele>16.893445</ele>
        <time>2020-07-16T06:11:11.056Z</time>
      </trkpt>
      <trkpt lat="67.27676" lon="14.45942">
        <ele>16.833225</ele>
        <time>2020-07-16T06:11:12.183Z</time>
      </trkpt>
      <trkpt lat="67.27671" lon="14.45872">
        <ele>16.617204</ele>
        <time>2020-07-16T06:11:16.536Z</time>
      </trkpt>
      <trkpt lat="67.27666" lon="14.4582">
        <ele>16.458756</ele>
        <time>2020-07-16T06:11:19.845Z</time>
      </trkpt>
      <trkpt lat="67.27662" lon="14.45754">
        <ele>16.257181</ele>
        <time>2020-07-16T06:11:24.481Z</time>
      </trkpt>
      <trkpt lat="67.27637" lon="14.45359">
        <ele>16.962881</ele>
        <time>2020-07-16T06:11:55.470Z</time>
      </trkpt>
      <trkpt lat="67.276" lon="14.44904">
        <ele>18.690823</ele>
        <time>2020-07-16T06:12:34.545Z</time>
      </trkpt>
      <trkpt lat="67.27581" lon="14.44714">
        <ele>19.351578</ele>
        <time>2020-07-16T06:12:49.881Z</time>
      </trkpt>
      <trkpt lat="67.27563" lon="14.44685">
        <ele>19.405794</ele>
        <time>2020-07-16T06:12:53.959Z</time>
      </trkpt>
      <trkpt lat="67.2756" lon="14.44676">
        <ele>19.416908</ele>
        <time>2020-07-16T06:12:54.877Z</time>
      </trkpt>
      <trkpt lat="67.27554" lon="14.44643">
        <ele>19.45287</ele>
        <time>2020-07-16T06:12:57.646Z</time>
      </trkpt>
      <trkpt lat="67.27548" lon="14.44602">
        <ele>19.497374</ele>
        <time>2020-07-16T06:13:01.012Z</time>
      </trkpt>
      <trkpt lat="67.27547" lon="14.44594">
        <ele>19.505643</ele>
        <time>2020-07-16T06:13:01.681Z</time>
      </trkpt>
      <trkpt lat="67.27533" lon="14.44492">
        <ele>19.613136</ele>
        <time>2020-07-16T06:13:09.750Z</time>
      </trkpt>
      <trkpt lat="67.27515" lon="14.44312">
        <ele>19.730473</ele>
        <time>2020-07-16T06:13:23.045Z</time>
      </trkpt>
      <trkpt lat="67.27514" lon="14.443">
        <ele>19.708926</ele>
        <time>2020-07-16T06:13:23.897Z</time>
      </trkpt>
      <trkpt lat="67.2751" lon="14.44253">
        <ele>19.622638</ele>
        <time>2020-07-16T06:13:27.192Z</time>
      </trkpt>
      <trkpt lat="67.27516" lon="14.44249">
        <ele>19.596356</ele>
        <time>2020-07-16T06:13:28.126Z</time>
      </trkpt>
      <trkpt lat="67.27559" lon="14.44154">
        <ele>19.334298</ele>
        <time>2020-07-16T06:13:37.703Z</time>
      </trkpt>
      <trkpt lat="67.27572" lon="14.4411">
        <ele>19.236064</ele>
        <time>2020-07-16T06:13:41.219Z</time>
      </trkpt>
      <trkpt lat="67.27577" lon="14.44091">
        <ele>19.19506</ele>
        <time>2020-07-16T06:13:42.728Z</time>
      </trkpt>
      <trkpt lat="67.27586" lon="14.44056">
        <ele>19.119922</ele>
        <time>2020-07-16T06:13:45.355Z</time>
      </trkpt>
      <trkpt lat="67.27662" lon="14.43788">
        <ele>18.112573</ele>
        <time>2020-07-16T06:14:05.708Z</time>
      </trkpt>
      <trkpt lat="67.27685" lon="14.43705">
        <ele>17.755182</ele>
        <time>2020-07-16T06:14:11.715Z</time>
      </trkpt>
      <trkpt lat="67.27718" lon="14.43581">
        <ele>17.227605</ele>
        <time>2020-07-16T06:14:20.783Z</time>
      </trkpt>
      <trkpt lat="67.27724" lon="14.43558">
        <ele>17.138512</ele>
        <time>2020-07-16T06:14:22.400Z</time>
      </trkpt>
      <trkpt lat="67.27728" lon="14.43539">
        <ele>17.067395</ele>
        <time>2020-07-16T06:14:23.642Z</time>
      </trkpt>
      <trkpt lat="67.2775" lon="14.43384">
        <ele>16.541125</ele>
        <time>2020-07-16T06:14:33.482Z</time>
      </trkpt>
      <trkpt lat="67.27753" lon="14.43377">
        <ele>16.510713</ele>
        <time>2020-07-16T06:14:34.000Z</time>
      </trkpt>
      <trkpt lat="67.27755" lon="14.43371">
        <ele>16.480621</ele>
        <time>2020-07-16T06:14:34.566Z</time>
      </trkpt>
      <trkpt lat="67.27758" lon="14.43365">
        <ele>16.454481</ele>
        <time>2020-07-16T06:14:35.071Z</time>
      </trkpt>
      <trkpt lat="67.27778" lon="14.43321">
        <ele>16.236358</ele>
        <time>2020-07-16T06:14:39.307Z</time>
      </trkpt>
      <trkpt lat="67.27786" lon="14.43286">
        <ele>16.104479</ele>
        <time>2020-07-16T06:14:41.890Z</time>
      </trkpt>
      <trkpt lat="67.27789" lon="14.43266">
        <ele>16.034663</ele>
        <time>2020-07-16T06:14:43.307Z</time>
      </trkpt>
      <trkpt lat="67.27791" lon="14.43257">
        <ele>16.002626</ele>
        <time>2020-07-16T06:14:43.894Z</time>
      </trkpt>
      <trkpt lat="67.27794" lon="14.43246">
        <ele>15.959041</ele>
        <time>2020-07-16T06:14:44.767Z</time>
      </trkpt>
      <trkpt lat="67.27816" lon="14.43174">
        <ele>15.818997</ele>
        <time>2020-07-16T06:14:50.642Z</time>
      </trkpt>
      <trkpt lat="67.2782" lon="14.43161">
        <ele>15.825045</ele>
        <time>2020-07-16T06:14:51.763Z</time>
      </trkpt>
      <trkpt lat="67.27859" lon="14.4308">
        <ele>15.869894</ele>
        <time>2020-07-16T06:15:00.649Z</time>
      </trkpt>
      <trkpt lat="67.27883" lon="14.43011">
        <ele>15.901662</ele>
        <time>2020-07-16T06:15:07.181Z</time>
      </trkpt>
      <trkpt lat="67.27953" lon="14.42715">
        <ele>16.185714</ele>
        <time>2020-07-16T06:15:32.910Z</time>
      </trkpt>
      <trkpt lat="67.28032" lon="14.42422">
        <ele>16.592721</ele>
        <time>2020-07-16T06:15:59.065Z</time>
      </trkpt>
      <trkpt lat="67.28064" lon="14.42256">
        <ele>16.591116</ele>
        <time>2020-07-16T06:16:12.157Z</time>
      </trkpt>
      <trkpt lat="67.28093" lon="14.4219">
        <ele>16.590252</ele>
        <time>2020-07-16T06:16:18.918Z</time>
      </trkpt>
      <trkpt lat="67.2811" lon="14.42119">
        <ele>16.58954</ele>
        <time>2020-07-16T06:16:24.413Z</time>
      </trkpt>
      <trkpt lat="67.28127" lon="14.42045">
        <ele>16.486749</ele>
        <time>2020-07-16T06:16:30.029Z</time>
      </trkpt>
      <trkpt lat="67.2815" lon="14.41951">
        <ele>16.230334</ele>
        <time>2020-07-16T06:16:37.189Z</time>
      </trkpt>
      <trkpt lat="67.2822" lon="14.417">
        <ele>15.514725</ele>
        <time>2020-07-16T06:16:56.584Z</time>
      </trkpt>
      <trkpt lat="67.28255" lon="14.4155">
        <ele>14.761537</ele>
        <time>2020-07-16T06:17:07.009Z</time>
      </trkpt>
      <trkpt lat="67.28263" lon="14.41491">
        <ele>14.494092</ele>
        <time>2020-07-16T06:17:10.704Z</time>
      </trkpt>
      <trkpt lat="67.28266" lon="14.4148">
        <ele>14.435538</ele>
        <time>2020-07-16T06:17:11.452Z</time>
      </trkpt>
      <trkpt lat="67.28279" lon="14.41438">
        <ele>14.202614</ele>
        <time>2020-07-16T06:17:14.730Z</time>
      </trkpt>
      <trkpt lat="67.28283" lon="14.41426">
        <ele>14.135637</ele>
        <time>2020-07-16T06:17:15.639Z</time>
      </trkpt>
      <trkpt lat="67.28287" lon="14.4142">
        <ele>14.081656</ele>
        <time>2020-07-16T06:17:16.359Z</time>
      </trkpt>
      <trkpt lat="67.28292" lon="14.41413">
        <ele>14.016945</ele>
        <time>2020-07-16T06:17:17.217Z</time>
      </trkpt>
      <trkpt lat="67.28296" lon="14.41407">
        <ele>13.970934</ele>
        <time>2020-07-16T06:17:17.867Z</time>
      </trkpt>
      <trkpt lat="67.28304" lon="14.41381">
        <ele>13.827431</ele>
        <time>2020-07-16T06:17:19.862Z</time>
      </trkpt>
      <trkpt lat="67.28325" lon="14.41296">
        <ele>13.340973</ele>
        <time>2020-07-16T06:17:25.776Z</time>
      </trkpt>
      <trkpt lat="67.28334" lon="14.41272">
        <ele>13.134067</ele>
        <time>2020-07-16T06:17:27.583Z</time>
      </trkpt>
      <trkpt lat="67.28408" lon="14.41006">
        <ele>11.086951</ele>
        <time>2020-07-16T06:17:46.000Z</time>
      </trkpt>
      <trkpt lat="67.28416" lon="14.40971">
        <ele>10.82874</ele>
        <time>2020-07-16T06:17:48.202Z</time>
      </trkpt>
      <trkpt lat="67.28422" lon="14.40935">
        <ele>10.580202</ele>
        <time>2020-07-16T06:17:50.460Z</time>
      </trkpt>
      <trkpt lat="67.28427" lon="14.4091">
        <ele>10.378476</ele>
        <time>2020-07-16T06:17:52.014Z</time>
      </trkpt>
      <trkpt lat="67.2843" lon="14.40891">
        <ele>10.230178</ele>
        <time>2020-07-16T06:17:53.121Z</time>
      </trkpt>
      <trkpt lat="67.28438" lon="14.40864">
        <ele>9.985219</ele>
        <time>2020-07-16T06:17:55.099Z</time>
      </trkpt>
      <trkpt lat="67.28442" lon="14.40854">
        <ele>9.887818</ele>
        <time>2020-07-16T06:17:55.848Z</time>
      </trkpt>
      <trkpt lat="67.2845" lon="14.40833">
        <ele>9.668996</ele>
        <time>2020-07-16T06:17:57.522Z</time>
      </trkpt>
      <trkpt lat="67.28453" lon="14.40822">
        <ele>9.577953</ele>
        <time>2020-07-16T06:17:58.199Z</time>
      </trkpt>
      <trkpt lat="67.28455" lon="14.40817">
        <ele>9.527363</ele>
        <time>2020-07-16T06:17:58.591Z</time>
      </trkpt>
      <trkpt lat="67.28481" lon="14.40679">
        <ele>8.420426</ele>
        <time>2020-07-16T06:18:07.133Z</time>
      </trkpt>
      <trkpt lat="67.28504" lon="14.40574">
        <ele>7.55539</ele>
        <time>2020-07-16T06:18:14.009Z</time>
      </trkpt>
      <trkpt lat="67.28528" lon="14.40434">
        <ele>6.605677</ele>
        <time>2020-07-16T06:18:22.844Z</time>
      </trkpt>
      <trkpt lat="67.28541" lon="14.40359">
        <ele>6.12384</ele>
        <time>2020-07-16T06:18:27.657Z</time>
      </trkpt>
      <trkpt lat="67.28564" lon="14.40212">
        <ele>5.193585</ele>
        <time>2020-07-16T06:18:37.178Z</time>
      </trkpt>
      <trkpt lat="67.28567" lon="14.40193">
        <ele>5.080087</ele>
        <time>2020-07-16T06:18:38.305Z</time>
      </trkpt>
      <trkpt lat="67.28566" lon="14.40174">
        <ele>4.963685</ele>
        <time>2020-07-16T06:18:39.532Z</time>
      </trkpt>
      <trkpt lat="67.28562" lon="14.40129">
        <ele>4.697209</ele>
        <time>2020-07-16T06:18:42.400Z</time>
      </trkpt>
      <trkpt lat="67.28563" lon="14.40119">
        <ele>4.637377</ele>
        <time>2020-07-16T06:18:42.985Z</time>
      </trkpt>
      <trkpt lat="67.28565" lon="14.40112">
        <ele>4.584929</ele>
        <time>2020-07-16T06:18:45.404Z</time>
      </trkpt>
      <trkpt lat="67.28569" lon="14.40099">
        <ele>4.511563</ele>
        <time>2020-07-16T06:18:49.711Z</time>
      </trkpt>
      <trkpt lat="67.28563" lon="14.40095">
        <ele>4.467357</ele>
        <time>2020-07-16T06:18:50.608Z</time>
      </trkpt>
      <trkpt lat="67.28556" lon="14.40092">
        <ele>4.410653</ele>
        <time>2020-07-16T06:18:51.811Z</time>
      </trkpt>
      <trkpt lat="67.28558" lon="14.40069">
        <ele>4.339835</ele>
        <time>2020-07-16T06:18:53.232Z</time>
      </trkpt>
      <trkpt lat="67.28526" lon="14.39741">
        <ele>3.295899</ele>
        <time>2020-07-16T06:19:14.807Z</time>
      </trkpt>
      <trkpt lat="67.2851" lon="14.39578">
        <ele>3.026188</ele>
        <time>2020-07-16T06:19:26.360Z</time>
      </trkpt>
      <trkpt lat="67.28495" lon="14.39415">
        <ele>2.912334</ele>
        <time>2020-07-16T06:19:38.164Z</time>
      </trkpt>
      <trkpt lat="67.28479" lon="14.39248">
        <ele>2.795476</ele>
        <time>2020-07-16T06:19:50.594Z</time>
      </trkpt>
      <trkpt lat="67.28447" lon="14.38918">
        <ele>2.662931</ele>
        <time>2020-07-16T06:20:14.719Z</time>
      </trkpt>
      <trkpt lat="67.28444" lon="14.38886">
        <ele>2.650767</ele>
        <time>2020-07-16T06:20:17.117Z</time>
      </trkpt>
      <trkpt lat="67.28441" lon="14.38855">
        <ele>2.639072</ele>
        <time>2020-07-16T06:20:19.284Z</time>
      </trkpt>
      <trkpt lat="67.28439" lon="14.38832">
        <ele>2.630015</ele>
        <time>2020-07-16T06:20:21.007Z</time>
      </trkpt>
      <trkpt lat="67.28438" lon="14.38815">
        <ele>2.623814</ele>
        <time>2020-07-16T06:20:22.179Z</time>
      </trkpt>
      <trkpt lat="67.28435" lon="14.3878">
        <ele>2.610294</ele>
        <time>2020-07-16T06:20:24.754Z</time>
      </trkpt>
      <trkpt lat="67.28434" lon="14.38762">
        <ele>2.608009</ele>
        <time>2020-07-16T06:20:25.976Z</time>
      </trkpt>
      <trkpt lat="67.28432" lon="14.38744">
        <ele>2.608009</ele>
        <time>2020-07-16T06:20:27.254Z</time>
      </trkpt>
      <trkpt lat="67.28427" lon="14.38702">
        <ele>2.608009</ele>
        <time>2020-07-16T06:20:30.313Z</time>
      </trkpt>
      <trkpt lat="67.28421" lon="14.38647">
        <ele>2.608009</ele>
        <time>2020-07-16T06:20:34.110Z</time>
      </trkpt>
      <trkpt lat="67.2841" lon="14.38544">
        <ele>2.608009</ele>
        <time>2020-07-16T06:20:41.316Z</time>
      </trkpt>
      <trkpt lat="67.28409" lon="14.38528">
        <ele>2.608009</ele>
        <time>2020-07-16T06:20:42.509Z</time>
      </trkpt>
      <trkpt lat="67.28406" lon="14.38511">
        <ele>2.608009</ele>
        <time>2020-07-16T06:20:43.659Z</time>
      </trkpt>
      <trkpt lat="67.28391" lon="14.38404">
        <ele>2.608009</ele>
        <time>2020-07-16T06:20:51.376Z</time>
      </trkpt>
      <trkpt lat="67.2839" lon="14.38397">
        <ele>2.608009</ele>
        <time>2020-07-16T06:20:51.865Z</time>
      </trkpt>
      <trkpt lat="67.28385" lon="14.38359">
        <ele>2.608009</ele>
        <time>2020-07-16T06:20:54.729Z</time>
      </trkpt>
      <trkpt lat="67.28383" lon="14.38344">
        <ele>2.608009</ele>
        <time>2020-07-16T06:20:55.851Z</time>
      </trkpt>
      <trkpt lat="67.28388" lon="14.38336">
        <ele>2.608009</ele>
        <time>2020-07-16T06:20:56.911Z</time>
      </trkpt>
      <trkpt lat="67.28406" lon="14.38313">
        <ele>2.608009</ele>
        <time>2020-07-16T06:21:00.610Z</time>
      </trkpt>
      <trkpt lat="67.28397" lon="14.38256">
        <ele>2.608009</ele>
        <time>2020-07-16T06:21:06.029Z</time>
      </trkpt>
    </trkseg>
  </trk>
  <trk>
    <name><![CDATA[5_Moskenes-Tromsø: 552km]]></name>
    <trkseg>
      <trkpt lat="67.89983" lon="13.04379">
        <ele>8.54804</ele>
        <time>2020-07-15T12:15:47.171Z</time>
      </trkpt>
      <trkpt lat="67.89985" lon="13.04423">
        <ele>8.54804</ele>
        <time>2020-07-15T12:15:52.863Z</time>
      </trkpt>
      <trkpt lat="67.89993" lon="13.04661">
        <ele>9.285324</ele>
        <time>2020-07-15T12:16:23.310Z</time>
      </trkpt>
      <trkpt lat="67.89999" lon="13.0466">
        <ele>9.548777</ele>
        <time>2020-07-15T12:16:26.269Z</time>
      </trkpt>
      <trkpt lat="67.90002" lon="13.0466">
        <ele>9.658583</ele>
        <time>2020-07-15T12:16:27.834Z</time>
      </trkpt>
      <trkpt lat="67.90004" lon="13.0466">
        <ele>9.772713</ele>
        <time>2020-07-15T12:16:28.843Z</time>
      </trkpt>
      <trkpt lat="67.90007" lon="13.0466">
        <ele>9.895671</ele>
        <time>2020-07-15T12:16:29.382Z</time>
      </trkpt>
      <trkpt lat="67.9001" lon="13.04659">
        <ele>10.031783</ele>
        <time>2020-07-15T12:16:29.986Z</time>
      </trkpt>
      <trkpt lat="67.90014" lon="13.04659">
        <ele>10.17223</ele>
        <time>2020-07-15T12:16:30.768Z</time>
      </trkpt>
      <trkpt lat="67.90017" lon="13.04659">
        <ele>10.325945</ele>
        <time>2020-07-15T12:16:31.763Z</time>
      </trkpt>
      <trkpt lat="67.90019" lon="13.04658">
        <ele>10.40061</ele>
        <time>2020-07-15T12:16:32.311Z</time>
      </trkpt>
      <trkpt lat="67.90024" lon="13.04656">
        <ele>10.648995</ele>
        <time>2020-07-15T12:16:34.092Z</time>
      </trkpt>
      <trkpt lat="67.90032" lon="13.04653">
        <ele>10.981785</ele>
        <time>2020-07-15T12:16:36.269Z</time>
      </trkpt>
      <trkpt lat="67.90037" lon="13.04651">
        <ele>11.19014</ele>
        <time>2020-07-15T12:16:39.648Z</time>
      </trkpt>
      <trkpt lat="67.90103" lon="13.04647">
        <ele>14.121999</ele>
        <time>2020-07-15T12:16:58.828Z</time>
      </trkpt>
      <trkpt lat="67.90111" lon="13.04644">
        <ele>14.458659</ele>
        <time>2020-07-15T12:17:03.161Z</time>
      </trkpt>
      <trkpt lat="67.90122" lon="13.04638">
        <ele>14.962747</ele>
        <time>2020-07-15T12:17:05.404Z</time>
      </trkpt>
      <trkpt lat="67.90149" lon="13.04594">
        <ele>16.356433</ele>
        <time>2020-07-15T12:17:14.605Z</time>
      </trkpt>
      <trkpt lat="67.90174" lon="13.04483">
        <ele>18.731916</ele>
        <time>2020-07-15T12:17:28.903Z</time>
      </trkpt>
      <trkpt lat="67.90179" lon="13.04453">
        <ele>19.339128</ele>
        <time>2020-07-15T12:17:32.893Z</time>
      </trkpt>
      <trkpt lat="67.90185" lon="13.04421">
        <ele>19.996258</ele>
        <time>2020-07-15T12:17:37.820Z</time>
      </trkpt>
      <trkpt lat="67.90197" lon="13.04341">
        <ele>21.603963</ele>
        <time>2020-07-15T12:17:49.906Z</time>
      </trkpt>
      <trkpt lat="67.90211" lon="13.04261">
        <ele>23.223647</ele>
        <time>2020-07-15T12:18:01.022Z</time>
      </trkpt>
      <trkpt lat="67.90214" lon="13.0424">
        <ele>23.647992</ele>
        <time>2020-07-15T12:18:05.085Z</time>
      </trkpt>
      <trkpt lat="67.9023" lon="13.04167">
        <ele>25.2122</ele>
        <time>2020-07-15T12:18:15.293Z</time>
      </trkpt>
      <trkpt lat="67.90233" lon="13.04156">
        <ele>25.374419</ele>
        <time>2020-07-15T12:18:17.639Z</time>
      </trkpt>
      <trkpt lat="67.90241" lon="13.04173">
        <ele>25.636166</ele>
        <time>2020-07-15T12:18:20.819Z</time>
      </trkpt>
      <trkpt lat="67.90253" lon="13.04195">
        <ele>26.001742</ele>
        <time>2020-07-15T12:18:25.015Z</time>
      </trkpt>
      <trkpt lat="67.90262" lon="13.04214">
        <ele>26.307827</ele>
        <time>2020-07-15T12:18:29.965Z</time>
      </trkpt>
      <trkpt lat="67.90274" lon="13.04234">
        <ele>26.664071</ele>
        <time>2020-07-15T12:18:34.348Z</time>
      </trkpt>
      <trkpt lat="67.90295" lon="13.04272">
        <ele>27.302404</ele>
        <time>2020-07-15T12:18:43.101Z</time>
      </trkpt>
      <trkpt lat="67.90341" lon="13.04359">
        <ele>28.754783</ele>
        <time>2020-07-15T12:18:57.271Z</time>
      </trkpt>
      <trkpt lat="67.90352" lon="13.04379">
        <ele>29.081369</ele>
        <time>2020-07-15T12:19:00.334Z</time>
      </trkpt>
      <trkpt lat="67.90424" lon="13.04497">
        <ele>28.265512</ele>
        <time>2020-07-15T12:19:12.682Z</time>
      </trkpt>
      <trkpt lat="67.90436" lon="13.04517">
        <ele>27.83619</ele>
        <time>2020-07-15T12:19:14.410Z</time>
      </trkpt>
      <trkpt lat="67.90442" lon="13.04526">
        <ele>27.637424</ele>
        <time>2020-07-15T12:19:15.165Z</time>
      </trkpt>
      <trkpt lat="67.90486" lon="13.04595">
        <ele>26.116096</ele>
        <time>2020-07-15T12:19:21.790Z</time>
      </trkpt>
      <trkpt lat="67.90494" lon="13.04606">
        <ele>25.856546</ele>
        <time>2020-07-15T12:19:22.906Z</time>
      </trkpt>
      <trkpt lat="67.90525" lon="13.04656">
        <ele>24.78855</ele>
        <time>2020-07-15T12:19:27.570Z</time>
      </trkpt>
      <trkpt lat="67.90523" lon="13.04675">
        <ele>24.572582</ele>
        <time>2020-07-15T12:19:29.126Z</time>
      </trkpt>
      <trkpt lat="67.90525" lon="13.04691">
        <ele>24.402074</ele>
        <time>2020-07-15T12:19:30.522Z</time>
      </trkpt>
      <trkpt lat="67.90526" lon="13.04698">
        <ele>24.330279</ele>
        <time>2020-07-15T12:19:31.272Z</time>
      </trkpt>
      <trkpt lat="67.90545" lon="13.04732">
        <ele>23.74537</ele>
        <time>2020-07-15T12:19:36.898Z</time>
      </trkpt>
      <trkpt lat="67.90553" lon="13.04749">
        <ele>23.470699</ele>
        <time>2020-07-15T12:19:39.244Z</time>
      </trkpt>
      <trkpt lat="67.90562" lon="13.04767">
        <ele>23.193417</ele>
        <time>2020-07-15T12:19:41.146Z</time>
      </trkpt>
      <trkpt lat="67.90595" lon="13.04832">
        <ele>22.15875</ele>
        <time>2020-07-15T12:19:47.024Z</time>
      </trkpt>
      <trkpt lat="67.90639" lon="13.04885">
        <ele>20.91487</ele>
        <time>2020-07-15T12:19:53.929Z</time>
      </trkpt>
      <trkpt lat="67.90731" lon="13.05046">
        <ele>18.532001</ele>
        <time>2020-07-15T12:20:10.592Z</time>
      </trkpt>
      <trkpt lat="67.90801" lon="13.05229">
        <ele>16.59042</ele>
        <time>2020-07-15T12:20:24.946Z</time>
      </trkpt>
      <trkpt lat="67.9083" lon="13.0533">
        <ele>16.206683</ele>
        <time>2020-07-15T12:20:31.939Z</time>
      </trkpt>
      <trkpt lat="67.90859" lon="13.05567">
        <ele>15.733288</ele>
        <time>2020-07-15T12:20:46.964Z</time>
      </trkpt>
      <trkpt lat="67.909" lon="13.05742">
        <ele>16.542433</ele>
        <time>2020-07-15T12:21:04.461Z</time>
      </trkpt>
      <trkpt lat="67.90954" lon="13.06116">
        <ele>21.96413</ele>
        <time>2020-07-15T12:21:53.372Z</time>
      </trkpt>
      <trkpt lat="67.91026" lon="13.06478">
        <ele>27.126366</ele>
        <time>2020-07-15T12:22:44.636Z</time>
      </trkpt>
      <trkpt lat="67.91031" lon="13.06556">
        <ele>27.805937</ele>
        <time>2020-07-15T12:22:50.996Z</time>
      </trkpt>
      <trkpt lat="67.91031" lon="13.06676">
        <ele>25.938429</ele>
        <time>2020-07-15T12:22:57.379Z</time>
      </trkpt>
      <trkpt lat="67.91014" lon="13.06876">
        <ele>22.734526</ele>
        <time>2020-07-15T12:23:07.212Z</time>
      </trkpt>
      <trkpt lat="67.91016" lon="13.06935">
        <ele>21.811768</ele>
        <time>2020-07-15T12:23:09.856Z</time>
      </trkpt>
      <trkpt lat="67.91025" lon="13.06993">
        <ele>20.836235</ele>
        <time>2020-07-15T12:23:12.873Z</time>
      </trkpt>
      <trkpt lat="67.91033" lon="13.07016">
        <ele>20.280926</ele>
        <time>2020-07-15T12:23:14.189Z</time>
      </trkpt>
      <trkpt lat="67.91041" lon="13.07054">
        <ele>19.307006</ele>
        <time>2020-07-15T12:23:17.799Z</time>
      </trkpt>
      <trkpt lat="67.91065" lon="13.07131">
        <ele>17.043646</ele>
        <time>2020-07-15T12:23:25.755Z</time>
      </trkpt>
      <trkpt lat="67.91179" lon="13.07355">
        <ele>9.116131</ele>
        <time>2020-07-15T12:23:56.191Z</time>
      </trkpt>
      <trkpt lat="67.91182" lon="13.07384">
        <ele>8.719455</ele>
        <time>2020-07-15T12:23:58.702Z</time>
      </trkpt>
      <trkpt lat="67.91187" lon="13.07403">
        <ele>8.407418</ele>
        <time>2020-07-15T12:24:00.722Z</time>
      </trkpt>
      <trkpt lat="67.91201" lon="13.07415">
        <ele>7.873181</ele>
        <time>2020-07-15T12:24:04.408Z</time>
      </trkpt>
      <trkpt lat="67.91204" lon="13.07391">
        <ele>7.55268</ele>
        <time>2020-07-15T12:24:05.995Z</time>
      </trkpt>
      <trkpt lat="67.91215" lon="13.07418">
        <ele>7.017853</ele>
        <time>2020-07-15T12:24:07.889Z</time>
      </trkpt>
      <trkpt lat="67.91248" lon="13.07496">
        <ele>5.43981</ele>
        <time>2020-07-15T12:24:13.833Z</time>
      </trkpt>
      <trkpt lat="67.91257" lon="13.07516">
        <ele>5.048738</ele>
        <time>2020-07-15T12:24:15.236Z</time>
      </trkpt>
      <trkpt lat="67.91373" lon="13.07799">
        <ele>1.791837</ele>
        <time>2020-07-15T12:24:37.122Z</time>
      </trkpt>
      <trkpt lat="67.91401" lon="13.0787">
        <ele>1.221633</ele>
        <time>2020-07-15T12:24:43.768Z</time>
      </trkpt>
      <trkpt lat="67.91427" lon="13.07934">
        <ele>0.81275</ele>
        <time>2020-07-15T12:24:49.989Z</time>
      </trkpt>
      <trkpt lat="67.91448" lon="13.07982">
        <ele>0.8603</ele>
        <time>2020-07-15T12:24:54.827Z</time>
      </trkpt>
      <trkpt lat="67.91473" lon="13.08021">
        <ele>0.910175</ele>
        <time>2020-07-15T12:24:59.940Z</time>
      </trkpt>
      <trkpt lat="67.91483" lon="13.08031">
        <ele>0.927847</ele>
        <time>2020-07-15T12:25:01.811Z</time>
      </trkpt>
      <trkpt lat="67.91492" lon="13.08038">
        <ele>0.943303</ele>
        <time>2020-07-15T12:25:03.379Z</time>
      </trkpt>
      <trkpt lat="67.91599" lon="13.08074">
        <ele>1.253836</ele>
        <time>2020-07-15T12:25:23.599Z</time>
      </trkpt>
      <trkpt lat="67.91712" lon="13.08162">
        <ele>2.731128</ele>
        <time>2020-07-15T12:25:48.766Z</time>
      </trkpt>
      <trkpt lat="67.91775" lon="13.08179">
        <ele>3.598668</ele>
        <time>2020-07-15T12:26:04.024Z</time>
      </trkpt>
      <trkpt lat="67.91811" lon="13.08164">
        <ele>4.267232</ele>
        <time>2020-07-15T12:26:13.177Z</time>
      </trkpt>
      <trkpt lat="67.91842" lon="13.08134">
        <ele>4.880308</ele>
        <time>2020-07-15T12:26:21.726Z</time>
      </trkpt>
      <trkpt lat="67.91933" lon="13.07994">
        <ele>6.676309</ele>
        <time>2020-07-15T12:26:46.638Z</time>
      </trkpt>
      <trkpt lat="67.92003" lon="13.07916">
        <ele>6.719943</ele>
        <time>2020-07-15T12:27:00.793Z</time>
      </trkpt>
      <trkpt lat="67.92012" lon="13.07901">
        <ele>6.726165</ele>
        <time>2020-07-15T12:27:02.716Z</time>
      </trkpt>
      <trkpt lat="67.92031" lon="13.07874">
        <ele>6.738413</ele>
        <time>2020-07-15T12:27:05.920Z</time>
      </trkpt>
      <trkpt lat="67.92039" lon="13.07863">
        <ele>6.74386</ele>
        <time>2020-07-15T12:27:07.492Z</time>
      </trkpt>
      <trkpt lat="67.92052" lon="13.07847">
        <ele>6.752029</ele>
        <time>2020-07-15T12:27:09.816Z</time>
      </trkpt>
      <trkpt lat="67.92088" lon="13.07831">
        <ele>6.772801</ele>
        <time>2020-07-15T12:27:15.732Z</time>
      </trkpt>
      <trkpt lat="67.92159" lon="13.07848">
        <ele>6.850676</ele>
        <time>2020-07-15T12:27:28.329Z</time>
      </trkpt>
      <trkpt lat="67.92173" lon="13.07846">
        <ele>6.866635</ele>
        <time>2020-07-15T12:27:30.563Z</time>
      </trkpt>
      <trkpt lat="67.92175" lon="13.07852">
        <ele>6.870524</ele>
        <time>2020-07-15T12:27:31.466Z</time>
      </trkpt>
      <trkpt lat="67.92199" lon="13.07858">
        <ele>6.897771</ele>
        <time>2020-07-15T12:27:39.171Z</time>
      </trkpt>
      <trkpt lat="67.92219" lon="13.07845">
        <ele>6.920517</ele>
        <time>2020-07-15T12:27:44.900Z</time>
      </trkpt>
      <trkpt lat="67.92226" lon="13.07842">
        <ele>6.928083</ele>
        <time>2020-07-15T12:27:47.305Z</time>
      </trkpt>
      <trkpt lat="67.92228" lon="13.07841">
        <ele>6.931302</ele>
        <time>2020-07-15T12:27:48.133Z</time>
      </trkpt>
      <trkpt lat="67.92234" lon="13.07841">
        <ele>6.93763</ele>
        <time>2020-07-15T12:27:49.344Z</time>
      </trkpt>
      <trkpt lat="67.92237" lon="13.07842">
        <ele>6.940961</ele>
        <time>2020-07-15T12:27:50.307Z</time>
      </trkpt>
      <trkpt lat="67.92293" lon="13.07895">
        <ele>6.96878</ele>
        <time>2020-07-15T12:28:01.411Z</time>
      </trkpt>
      <trkpt lat="67.92302" lon="13.07912">
        <ele>6.964585</ele>
        <time>2020-07-15T12:28:04.345Z</time>
      </trkpt>
      <trkpt lat="67.92311" lon="13.07928">
        <ele>6.960702</ele>
        <time>2020-07-15T12:28:05.862Z</time>
      </trkpt>
      <trkpt lat="67.92398" lon="13.08128">
        <ele>6.917682</ele>
        <time>2020-07-15T12:28:26.662Z</time>
      </trkpt>
      <trkpt lat="67.9243" lon="13.08185">
        <ele>6.671658</ele>
        <time>2020-07-15T12:28:32.530Z</time>
      </trkpt>
      <trkpt lat="67.92457" lon="13.08218">
        <ele>6.344235</ele>
        <time>2020-07-15T12:28:37.029Z</time>
      </trkpt>
      <trkpt lat="67.92502" lon="13.08236">
        <ele>5.839177</ele>
        <time>2020-07-15T12:28:43.759Z</time>
      </trkpt>
      <trkpt lat="67.92564" lon="13.08301">
        <ele>5.107487</ele>
        <time>2020-07-15T12:28:53.958Z</time>
      </trkpt>
      <trkpt lat="67.92571" lon="13.08305">
        <ele>5.03097</ele>
        <time>2020-07-15T12:28:54.858Z</time>
      </trkpt>
      <trkpt lat="67.92581" lon="13.0831">
        <ele>4.922828</ele>
        <time>2020-07-15T12:28:56.779Z</time>
      </trkpt>
      <trkpt lat="67.92743" lon="13.08359">
        <ele>3.438565</ele>
        <time>2020-07-15T12:29:23.432Z</time>
      </trkpt>
      <trkpt lat="67.92805" lon="13.08361">
        <ele>3.068481</ele>
        <time>2020-07-15T12:29:33.982Z</time>
      </trkpt>
      <trkpt lat="67.92813" lon="13.08368">
        <ele>3.029171</ele>
        <time>2020-07-15T12:29:35.653Z</time>
      </trkpt>
      <trkpt lat="67.92819" lon="13.08424">
        <ele>2.920406</ele>
        <time>2020-07-15T12:29:39.748Z</time>
      </trkpt>
      <trkpt lat="67.92823" lon="13.08423">
        <ele>2.901112</ele>
        <time>2020-07-15T12:29:40.235Z</time>
      </trkpt>
      <trkpt lat="67.92822" lon="13.08402">
        <ele>2.861703</ele>
        <time>2020-07-15T12:29:41.948Z</time>
      </trkpt>
      <trkpt lat="67.92818" lon="13.08356">
        <ele>2.775837</ele>
        <time>2020-07-15T12:29:44.659Z</time>
      </trkpt>
      <trkpt lat="67.92817" lon="13.0834">
        <ele>2.744779</ele>
        <time>2020-07-15T12:29:46.255Z</time>
      </trkpt>
      <trkpt lat="67.92823" lon="13.08336">
        <ele>2.715856</ele>
        <time>2020-07-15T12:29:47.005Z</time>
      </trkpt>
      <trkpt lat="67.92914" lon="13.08229">
        <ele>2.413546</ele>
        <time>2020-07-15T12:30:03.671Z</time>
      </trkpt>
      <trkpt lat="67.92967" lon="13.08188">
        <ele>2.413983</ele>
        <time>2020-07-15T12:30:13.785Z</time>
      </trkpt>
      <trkpt lat="67.92983" lon="13.08175">
        <ele>2.414111</ele>
        <time>2020-07-15T12:30:16.416Z</time>
      </trkpt>
      <trkpt lat="67.92994" lon="13.08164">
        <ele>2.414203</ele>
        <time>2020-07-15T12:30:18.612Z</time>
      </trkpt>
      <trkpt lat="67.93003" lon="13.08152">
        <ele>2.414282</ele>
        <time>2020-07-15T12:30:20.408Z</time>
      </trkpt>
      <trkpt lat="67.9301" lon="13.0814">
        <ele>2.414351</ele>
        <time>2020-07-15T12:30:21.866Z</time>
      </trkpt>
      <trkpt lat="67.93019" lon="13.08123">
        <ele>2.414436</ele>
        <time>2020-07-15T12:30:23.902Z</time>
      </trkpt>
      <trkpt lat="67.93044" lon="13.08042">
        <ele>2.486373</ele>
        <time>2020-07-15T12:30:31.381Z</time>
      </trkpt>
      <trkpt lat="67.93133" lon="13.07654">
        <ele>3.612405</ele>
        <time>2020-07-15T12:31:06.563Z</time>
      </trkpt>
      <trkpt lat="67.93139" lon="13.07633">
        <ele>3.567282</ele>
        <time>2020-07-15T12:31:08.891Z</time>
      </trkpt>
      <trkpt lat="67.9315" lon="13.07597">
        <ele>3.486289</ele>
        <time>2020-07-15T12:31:11.807Z</time>
      </trkpt>
      <trkpt lat="67.93182" lon="13.07521">
        <ele>3.287196</ele>
        <time>2020-07-15T12:31:19.286Z</time>
      </trkpt>
      <trkpt lat="67.93237" lon="13.07456">
        <ele>3.006053</ele>
        <time>2020-07-15T12:31:28.936Z</time>
      </trkpt>
      <trkpt lat="67.93283" lon="13.07446">
        <ele>2.795267</ele>
        <time>2020-07-15T12:31:35.911Z</time>
      </trkpt>
      <trkpt lat="67.93333" lon="13.07466">
        <ele>2.358462</ele>
        <time>2020-07-15T12:31:43.555Z</time>
      </trkpt>
      <trkpt lat="67.93336" lon="13.07466">
        <ele>2.33053</ele>
        <time>2020-07-15T12:31:43.956Z</time>
      </trkpt>
      <trkpt lat="67.93341" lon="13.07466">
        <ele>2.291292</ele>
        <time>2020-07-15T12:31:44.669Z</time>
      </trkpt>
      <trkpt lat="67.93383" lon="13.07451">
        <ele>1.923307</ele>
        <time>2020-07-15T12:31:51.181Z</time>
      </trkpt>
      <trkpt lat="67.93448" lon="13.07385">
        <ele>1.312994</ele>
        <time>2020-07-15T12:32:02.496Z</time>
      </trkpt>
      <trkpt lat="67.93482" lon="13.07391">
        <ele>1.253606</ele>
        <time>2020-07-15T12:32:08.340Z</time>
      </trkpt>
      <trkpt lat="67.93507" lon="13.0741">
        <ele>1.291636</ele>
        <time>2020-07-15T12:32:13.004Z</time>
      </trkpt>
      <trkpt lat="67.93511" lon="13.07413">
        <ele>1.298215</ele>
        <time>2020-07-15T12:32:13.888Z</time>
      </trkpt>
      <trkpt lat="67.93546" lon="13.07427">
        <ele>1.351286</ele>
        <time>2020-07-15T12:32:20.525Z</time>
      </trkpt>
      <trkpt lat="67.93577" lon="13.07417">
        <ele>1.398172</ele>
        <time>2020-07-15T12:32:26.393Z</time>
      </trkpt>
      <trkpt lat="67.9361" lon="13.07366">
        <ele>1.454048</ele>
        <time>2020-07-15T12:32:33.501Z</time>
      </trkpt>
      <trkpt lat="67.93668" lon="13.07233">
        <ele>1.451811</ele>
        <time>2020-07-15T12:32:48.043Z</time>
      </trkpt>
      <trkpt lat="67.93694" lon="13.07204">
        <ele>1.434214</ele>
        <time>2020-07-15T12:32:53.067Z</time>
      </trkpt>
      <trkpt lat="67.9371" lon="13.07201">
        <ele>1.423677</ele>
        <time>2020-07-15T12:32:55.987Z</time>
      </trkpt>
      <trkpt lat="67.93742" lon="13.07218">
        <ele>1.403407</ele>
        <time>2020-07-15T12:33:01.429Z</time>
      </trkpt>
      <trkpt lat="67.93822" lon="13.07316">
        <ele>1.274834</ele>
        <time>2020-07-15T12:33:16.222Z</time>
      </trkpt>
      <trkpt lat="67.9384" lon="13.0734">
        <ele>1.223709</ele>
        <time>2020-07-15T12:33:19.648Z</time>
      </trkpt>
      <trkpt lat="67.93861" lon="13.07373">
        <ele>1.165437</ele>
        <time>2020-07-15T12:33:23.620Z</time>
      </trkpt>
      <trkpt lat="67.93868" lon="13.07384">
        <ele>1.145244</ele>
        <time>2020-07-15T12:33:24.951Z</time>
      </trkpt>
      <trkpt lat="67.93897" lon="13.07448">
        <ele>1.052258</ele>
        <time>2020-07-15T12:33:31.360Z</time>
      </trkpt>
      <trkpt lat="67.93924" lon="13.07518">
        <ele>0.960071</ele>
        <time>2020-07-15T12:33:37.740Z</time>
      </trkpt>
      <trkpt lat="67.93947" lon="13.07581">
        <ele>1.126243</ele>
        <time>2020-07-15T12:33:43.912Z</time>
      </trkpt>
      <trkpt lat="67.93964" lon="13.07659">
        <ele>1.436484</ele>
        <time>2020-07-15T12:33:50.364Z</time>
      </trkpt>
      <trkpt lat="67.93967" lon="13.07691">
        <ele>1.548604</ele>
        <time>2020-07-15T12:33:52.979Z</time>
      </trkpt>
      <trkpt lat="67.93967" lon="13.077">
        <ele>1.580108</ele>
        <time>2020-07-15T12:33:53.755Z</time>
      </trkpt>
      <trkpt lat="67.93966" lon="13.07707">
        <ele>1.604426</ele>
        <time>2020-07-15T12:33:54.278Z</time>
      </trkpt>
      <trkpt lat="67.93964" lon="13.07729">
        <ele>1.682681</ele>
        <time>2020-07-15T12:33:55.876Z</time>
      </trkpt>
      <trkpt lat="67.93962" lon="13.07752">
        <ele>1.76471</ele>
        <time>2020-07-15T12:33:57.529Z</time>
      </trkpt>
      <trkpt lat="67.93957" lon="13.07794">
        <ele>1.919159</ele>
        <time>2020-07-15T12:34:01.244Z</time>
      </trkpt>
      <trkpt lat="67.93952" lon="13.07824">
        <ele>2.03447</ele>
        <time>2020-07-15T12:34:03.660Z</time>
      </trkpt>
      <trkpt lat="67.93948" lon="13.07838">
        <ele>2.089818</ele>
        <time>2020-07-15T12:34:04.800Z</time>
      </trkpt>
      <trkpt lat="67.93946" lon="13.07849">
        <ele>2.135872</ele>
        <time>2020-07-15T12:34:05.780Z</time>
      </trkpt>
      <trkpt lat="67.9394" lon="13.07874">
        <ele>2.237079</ele>
        <time>2020-07-15T12:34:08.523Z</time>
      </trkpt>
      <trkpt lat="67.93916" lon="13.07972">
        <ele>2.791527</ele>
        <time>2020-07-15T12:34:18.270Z</time>
      </trkpt>
      <trkpt lat="67.93908" lon="13.08109">
        <ele>4.508288</ele>
        <time>2020-07-15T12:34:31.687Z</time>
      </trkpt>
      <trkpt lat="67.93888" lon="13.08217">
        <ele>6.004074</ele>
        <time>2020-07-15T12:34:45.905Z</time>
      </trkpt>
      <trkpt lat="67.93887" lon="13.08226">
        <ele>6.119563</ele>
        <time>2020-07-15T12:34:47.069Z</time>
      </trkpt>
      <trkpt lat="67.93886" lon="13.08234">
        <ele>6.228224</ele>
        <time>2020-07-15T12:34:48.133Z</time>
      </trkpt>
      <trkpt lat="67.93887" lon="13.08282">
        <ele>6.82104</ele>
        <time>2020-07-15T12:34:53.737Z</time>
      </trkpt>
      <trkpt lat="67.9389" lon="13.08308">
        <ele>7.15678</ele>
        <time>2020-07-15T12:34:57.331Z</time>
      </trkpt>
      <trkpt lat="67.93892" lon="13.08323">
        <ele>7.355427</ele>
        <time>2020-07-15T12:34:59.166Z</time>
      </trkpt>
      <trkpt lat="67.93894" lon="13.08338">
        <ele>7.556429</ele>
        <time>2020-07-15T12:35:01.157Z</time>
      </trkpt>
      <trkpt lat="67.93903" lon="13.08392">
        <ele>8.286063</ele>
        <time>2020-07-15T12:35:08.396Z</time>
      </trkpt>
      <trkpt lat="67.93907" lon="13.08407">
        <ele>8.509628</ele>
        <time>2020-07-15T12:35:10.264Z</time>
      </trkpt>
      <trkpt lat="67.93915" lon="13.08433">
        <ele>8.726518</ele>
        <time>2020-07-15T12:35:13.818Z</time>
      </trkpt>
      <trkpt lat="67.93939" lon="13.08527">
        <ele>9.4212</ele>
        <time>2020-07-15T12:35:23.827Z</time>
      </trkpt>
      <trkpt lat="67.9394" lon="13.08541">
        <ele>9.511028</ele>
        <time>2020-07-15T12:35:26.257Z</time>
      </trkpt>
      <trkpt lat="67.93941" lon="13.08554">
        <ele>9.592919</ele>
        <time>2020-07-15T12:35:27.630Z</time>
      </trkpt>
      <trkpt lat="67.93941" lon="13.08583">
        <ele>9.773087</ele>
        <time>2020-07-15T12:35:30.488Z</time>
      </trkpt>
      <trkpt lat="67.93939" lon="13.08611">
        <ele>9.950797</ele>
        <time>2020-07-15T12:35:32.718Z</time>
      </trkpt>
      <trkpt lat="67.93935" lon="13.08676">
        <ele>10.35242</ele>
        <time>2020-07-15T12:35:38.538Z</time>
      </trkpt>
      <trkpt lat="67.93931" lon="13.08729">
        <ele>10.687791</ele>
        <time>2020-07-15T12:35:43.091Z</time>
      </trkpt>
      <trkpt lat="67.93928" lon="13.08752">
        <ele>10.836974</ele>
        <time>2020-07-15T12:35:45.131Z</time>
      </trkpt>
      <trkpt lat="67.9392" lon="13.08806">
        <ele>11.196536</ele>
        <time>2020-07-15T12:35:48.553Z</time>
      </trkpt>
      <trkpt lat="67.93904" lon="13.08872">
        <ele>11.295203</ele>
        <time>2020-07-15T12:35:54.005Z</time>
      </trkpt>
      <trkpt lat="67.93903" lon="13.08883">
        <ele>11.225897</ele>
        <time>2020-07-15T12:35:54.515Z</time>
      </trkpt>
      <trkpt lat="67.93901" lon="13.08898">
        <ele>11.137814</ele>
        <time>2020-07-15T12:35:56.555Z</time>
      </trkpt>
      <trkpt lat="67.93901" lon="13.08934">
        <ele>10.929412</ele>
        <time>2020-07-15T12:35:58.830Z</time>
      </trkpt>
      <trkpt lat="67.93906" lon="13.09002">
        <ele>10.533859</ele>
        <time>2020-07-15T12:36:02.352Z</time>
      </trkpt>
      <trkpt lat="67.93909" lon="13.09051">
        <ele>10.249268</ele>
        <time>2020-07-15T12:36:04.862Z</time>
      </trkpt>
      <trkpt lat="67.93924" lon="13.09155">
        <ele>9.606325</ele>
        <time>2020-07-15T12:36:10.387Z</time>
      </trkpt>
      <trkpt lat="67.93974" lon="13.09333">
        <ele>8.470221</ele>
        <time>2020-07-15T12:36:23.321Z</time>
      </trkpt>
      <trkpt lat="67.94003" lon="13.09399">
        <ele>8.088252</ele>
        <time>2020-07-15T12:36:29.417Z</time>
      </trkpt>
      <trkpt lat="67.94078" lon="13.09528">
        <ele>7.196665</ele>
        <time>2020-07-15T12:36:43.487Z</time>
      </trkpt>
      <trkpt lat="67.94106" lon="13.09609">
        <ele>6.663308</ele>
        <time>2020-07-15T12:36:49.842Z</time>
      </trkpt>
      <trkpt lat="67.94111" lon="13.0963">
        <ele>6.501696</ele>
        <time>2020-07-15T12:36:51.597Z</time>
      </trkpt>
      <trkpt lat="67.94113" lon="13.09643">
        <ele>6.412135</ele>
        <time>2020-07-15T12:36:52.168Z</time>
      </trkpt>
      <trkpt lat="67.94131" lon="13.098">
        <ele>5.319485</ele>
        <time>2020-07-15T12:37:01.581Z</time>
      </trkpt>
      <trkpt lat="67.94143" lon="13.09852">
        <ele>4.914577</ele>
        <time>2020-07-15T12:37:04.717Z</time>
      </trkpt>
      <trkpt lat="67.94217" lon="13.0995">
        <ele>3.515844</ele>
        <time>2020-07-15T12:37:16.076Z</time>
      </trkpt>
      <trkpt lat="67.94242" lon="13.09997">
        <ele>3.063656</ele>
        <time>2020-07-15T12:37:20.494Z</time>
      </trkpt>
      <trkpt lat="67.94248" lon="13.10018">
        <ele>2.923105</ele>
        <time>2020-07-15T12:37:21.886Z</time>
      </trkpt>
      <trkpt lat="67.94254" lon="13.10043">
        <ele>2.764788</ele>
        <time>2020-07-15T12:37:23.459Z</time>
      </trkpt>
      <trkpt lat="67.94258" lon="13.10066">
        <ele>2.622948</ele>
        <time>2020-07-15T12:37:24.896Z</time>
      </trkpt>
      <trkpt lat="67.94261" lon="13.10086">
        <ele>2.509855</ele>
        <time>2020-07-15T12:37:26.093Z</time>
      </trkpt>
      <trkpt lat="67.94263" lon="13.10109">
        <ele>2.381245</ele>
        <time>2020-07-15T12:37:27.364Z</time>
      </trkpt>
      <trkpt lat="67.9426" lon="13.10185">
        <ele>1.963198</ele>
        <time>2020-07-15T12:37:31.768Z</time>
      </trkpt>
      <trkpt lat="67.94257" lon="13.1021">
        <ele>1.820039</ele>
        <time>2020-07-15T12:37:33.226Z</time>
      </trkpt>
      <trkpt lat="67.94252" lon="13.10234">
        <ele>1.670512</ele>
        <time>2020-07-15T12:37:34.842Z</time>
      </trkpt>
      <trkpt lat="67.94231" lon="13.10317">
        <ele>1.14579</ele>
        <time>2020-07-15T12:37:40.777Z</time>
      </trkpt>
      <trkpt lat="67.9423" lon="13.10323">
        <ele>1.136653</ele>
        <time>2020-07-15T12:37:41.153Z</time>
      </trkpt>
      <trkpt lat="67.94225" lon="13.10348">
        <ele>1.100387</ele>
        <time>2020-07-15T12:37:42.928Z</time>
      </trkpt>
      <trkpt lat="67.94223" lon="13.10364">
        <ele>1.076264</ele>
        <time>2020-07-15T12:37:43.977Z</time>
      </trkpt>
      <trkpt lat="67.94211" lon="13.10453">
        <ele>0.951772</ele>
        <time>2020-07-15T12:37:49.669Z</time>
      </trkpt>
      <trkpt lat="67.94193" lon="13.10666">
        <ele>0.662486</ele>
        <time>2020-07-15T12:38:03.759Z</time>
      </trkpt>
      <trkpt lat="67.94187" lon="13.10911">
        <ele>0.511436</ele>
        <time>2020-07-15T12:38:20.216Z</time>
      </trkpt>
      <trkpt lat="67.94187" lon="13.10929">
        <ele>0.510837</ele>
        <time>2020-07-15T12:38:21.520Z</time>
      </trkpt>
      <trkpt lat="67.94186" lon="13.10979">
        <ele>0.509172</ele>
        <time>2020-07-15T12:38:24.796Z</time>
      </trkpt>
      <trkpt lat="67.9418" lon="13.11058">
        <ele>0.506485</ele>
        <time>2020-07-15T12:38:30.217Z</time>
      </trkpt>
      <trkpt lat="67.9417" lon="13.11138">
        <ele>0.503667</ele>
        <time>2020-07-15T12:38:35.944Z</time>
      </trkpt>
      <trkpt lat="67.94164" lon="13.11181">
        <ele>0.502146</ele>
        <time>2020-07-15T12:38:39.007Z</time>
      </trkpt>
      <trkpt lat="67.94155" lon="13.11283">
        <ele>0.499634</ele>
        <time>2020-07-15T12:38:46.132Z</time>
      </trkpt>
      <trkpt lat="67.94154" lon="13.11408">
        <ele>0.498504</ele>
        <time>2020-07-15T12:38:54.488Z</time>
      </trkpt>
      <trkpt lat="67.94145" lon="13.11487">
        <ele>0.497771</ele>
        <time>2020-07-15T12:38:59.865Z</time>
      </trkpt>
      <trkpt lat="67.94143" lon="13.11501">
        <ele>0.497625</ele>
        <time>2020-07-15T12:39:00.882Z</time>
      </trkpt>
      <trkpt lat="67.94141" lon="13.11517">
        <ele>0.497472</ele>
        <time>2020-07-15T12:39:02.056Z</time>
      </trkpt>
      <trkpt lat="67.94134" lon="13.11564">
        <ele>0.497015</ele>
        <time>2020-07-15T12:39:05.388Z</time>
      </trkpt>
      <trkpt lat="67.94127" lon="13.11609">
        <ele>0.496579</ele>
        <time>2020-07-15T12:39:08.628Z</time>
      </trkpt>
      <trkpt lat="67.94125" lon="13.11625">
        <ele>0.49643</ele>
        <time>2020-07-15T12:39:09.769Z</time>
      </trkpt>
      <trkpt lat="67.94124" lon="13.11642">
        <ele>0.496275</ele>
        <time>2020-07-15T12:39:10.866Z</time>
      </trkpt>
      <trkpt lat="67.94122" lon="13.11747">
        <ele>0.480126</ele>
        <time>2020-07-15T12:39:17.925Z</time>
      </trkpt>
      <trkpt lat="67.94136" lon="13.11852">
        <ele>0.435552</ele>
        <time>2020-07-15T12:39:25.396Z</time>
      </trkpt>
      <trkpt lat="67.9414" lon="13.11865">
        <ele>0.428711</ele>
        <time>2020-07-15T12:39:26.484Z</time>
      </trkpt>
      <trkpt lat="67.94146" lon="13.11883">
        <ele>0.419059</ele>
        <time>2020-07-15T12:39:28.180Z</time>
      </trkpt>
      <trkpt lat="67.94156" lon="13.11902">
        <ele>0.406376</ele>
        <time>2020-07-15T12:39:30.278Z</time>
      </trkpt>
      <trkpt lat="67.9416" lon="13.1191">
        <ele>0.401322</ele>
        <time>2020-07-15T12:39:31.112Z</time>
      </trkpt>
      <trkpt lat="67.94186" lon="13.11945">
        <ele>0.370156</ele>
        <time>2020-07-15T12:39:36.126Z</time>
      </trkpt>
      <trkpt lat="67.94231" lon="13.11985">
        <ele>0.319581</ele>
        <time>2020-07-15T12:39:44.340Z</time>
      </trkpt>
      <trkpt lat="67.94259" lon="13.12008">
        <ele>0.313687</ele>
        <time>2020-07-15T12:39:49.465Z</time>
      </trkpt>
      <trkpt lat="67.94274" lon="13.12018">
        <ele>0.323077</ele>
        <time>2020-07-15T12:39:52.113Z</time>
      </trkpt>
      <trkpt lat="67.94279" lon="13.12024">
        <ele>0.326923</ele>
        <time>2020-07-15T12:39:53.216Z</time>
      </trkpt>
      <trkpt lat="67.94295" lon="13.12037">
        <ele>0.33687</ele>
        <time>2020-07-15T12:39:56.147Z</time>
      </trkpt>
      <trkpt lat="67.94361" lon="13.12102">
        <ele>0.380442</ele>
        <time>2020-07-15T12:40:09.070Z</time>
      </trkpt>
      <trkpt lat="67.94385" lon="13.1213">
        <ele>0.396796</ele>
        <time>2020-07-15T12:40:13.902Z</time>
      </trkpt>
      <trkpt lat="67.94407" lon="13.12156">
        <ele>0.411534</ele>
        <time>2020-07-15T12:40:18.325Z</time>
      </trkpt>
      <trkpt lat="67.94436" lon="13.122">
        <ele>0.439628</ele>
        <time>2020-07-15T12:40:24.366Z</time>
      </trkpt>
      <trkpt lat="67.94475" lon="13.12281">
        <ele>0.484343</ele>
        <time>2020-07-15T12:40:33.389Z</time>
      </trkpt>
      <trkpt lat="67.94497" lon="13.12363">
        <ele>0.518767</ele>
        <time>2020-07-15T12:40:40.237Z</time>
      </trkpt>
      <trkpt lat="67.94522" lon="13.12512">
        <ele>0.574159</ele>
        <time>2020-07-15T12:40:51.187Z</time>
      </trkpt>
      <trkpt lat="67.94528" lon="13.1267">
        <ele>0.569983</ele>
        <time>2020-07-15T12:41:01.892Z</time>
      </trkpt>
      <trkpt lat="67.94529" lon="13.12684">
        <ele>0.569224</ele>
        <time>2020-07-15T12:41:02.715Z</time>
      </trkpt>
      <trkpt lat="67.94531" lon="13.12734">
        <ele>0.566388</ele>
        <time>2020-07-15T12:41:06.123Z</time>
      </trkpt>
      <trkpt lat="67.94537" lon="13.12938">
        <ele>0.554855</ele>
        <time>2020-07-15T12:41:19.892Z</time>
      </trkpt>
      <trkpt lat="67.9453" lon="13.13228">
        <ele>0.465555</ele>
        <time>2020-07-15T12:41:39.191Z</time>
      </trkpt>
      <trkpt lat="67.94529" lon="13.13261">
        <ele>0.453039</ele>
        <time>2020-07-15T12:41:41.463Z</time>
      </trkpt>
      <trkpt lat="67.94529" lon="13.13265">
        <ele>0.451294</ele>
        <time>2020-07-15T12:41:41.733Z</time>
      </trkpt>
      <trkpt lat="67.94528" lon="13.13279">
        <ele>0.446171</ele>
        <time>2020-07-15T12:41:42.550Z</time>
      </trkpt>
      <trkpt lat="67.94528" lon="13.13312">
        <ele>0.433844</ele>
        <time>2020-07-15T12:41:44.743Z</time>
      </trkpt>
      <trkpt lat="67.94528" lon="13.13349">
        <ele>0.419705</ele>
        <time>2020-07-15T12:41:47.319Z</time>
      </trkpt>
      <trkpt lat="67.94529" lon="13.13369">
        <ele>0.412049</ele>
        <time>2020-07-15T12:41:48.526Z</time>
      </trkpt>
      <trkpt lat="67.94536" lon="13.13465">
        <ele>0.375283</ele>
        <time>2020-07-15T12:41:54.905Z</time>
      </trkpt>
      <trkpt lat="67.94547" lon="13.13541">
        <ele>0.322646</ele>
        <time>2020-07-15T12:42:00.375Z</time>
      </trkpt>
      <trkpt lat="67.94548" lon="13.1355">
        <ele>0.316279</ele>
        <time>2020-07-15T12:42:00.886Z</time>
      </trkpt>
      <trkpt lat="67.94552" lon="13.13566">
        <ele>0.303752</ele>
        <time>2020-07-15T12:42:02.083Z</time>
      </trkpt>
      <trkpt lat="67.94577" lon="13.13648">
        <ele>0.230459</ele>
        <time>2020-07-15T12:42:08.996Z</time>
      </trkpt>
      <trkpt lat="67.94612" lon="13.1371">
        <ele>0.153367</ele>
        <time>2020-07-15T12:42:16.212Z</time>
      </trkpt>
      <trkpt lat="67.94621" lon="13.13722">
        <ele>0.135155</ele>
        <time>2020-07-15T12:42:17.963Z</time>
      </trkpt>
      <trkpt lat="67.94625" lon="13.13727">
        <ele>0.127183</ele>
        <time>2020-07-15T12:42:18.734Z</time>
      </trkpt>
      <trkpt lat="67.94664" lon="13.13758">
        <ele>0.051036</ele>
        <time>2020-07-15T12:42:25.866Z</time>
      </trkpt>
      <trkpt lat="67.94695" lon="13.13762">
        <ele>0.053586</ele>
        <time>2020-07-15T12:42:31.302Z</time>
      </trkpt>
      <trkpt lat="67.94823" lon="13.13704">
        <ele>0.120602</ele>
        <time>2020-07-15T12:42:54.493Z</time>
      </trkpt>
      <trkpt lat="67.94834" lon="13.13703">
        <ele>0.126024</ele>
        <time>2020-07-15T12:42:56.369Z</time>
      </trkpt>
      <trkpt lat="67.94856" lon="13.13701">
        <ele>0.202047</ele>
        <time>2020-07-15T12:43:00.291Z</time>
      </trkpt>
      <trkpt lat="67.94953" lon="13.13746">
        <ele>1.107873</ele>
        <time>2020-07-15T12:43:20.052Z</time>
      </trkpt>
      <trkpt lat="67.94958" lon="13.13747">
        <ele>1.148321</ele>
        <time>2020-07-15T12:43:20.943Z</time>
      </trkpt>
      <trkpt lat="67.9498" lon="13.13754">
        <ele>1.356163</ele>
        <time>2020-07-15T12:43:25.581Z</time>
      </trkpt>
      <trkpt lat="67.94997" lon="13.13754">
        <ele>1.512543</ele>
        <time>2020-07-15T12:43:29.895Z</time>
      </trkpt>
      <trkpt lat="67.95007" lon="13.13752">
        <ele>1.598682</ele>
        <time>2020-07-15T12:43:31.843Z</time>
      </trkpt>
      <trkpt lat="67.95014" lon="13.13751">
        <ele>1.667324</ele>
        <time>2020-07-15T12:43:33.411Z</time>
      </trkpt>
      <trkpt lat="67.95022" lon="13.13748">
        <ele>1.739395</ele>
        <time>2020-07-15T12:43:35.809Z</time>
      </trkpt>
      <trkpt lat="67.95025" lon="13.13773">
        <ele>1.856074</ele>
        <time>2020-07-15T12:43:38.369Z</time>
      </trkpt>
      <trkpt lat="67.95031" lon="13.13785">
        <ele>1.963802</ele>
        <time>2020-07-15T12:43:40.341Z</time>
      </trkpt>
      <trkpt lat="67.95039" lon="13.13771">
        <ele>2.108163</ele>
        <time>2020-07-15T12:43:42.954Z</time>
      </trkpt>
      <trkpt lat="67.95042" lon="13.13766">
        <ele>2.155029</ele>
        <time>2020-07-15T12:43:43.816Z</time>
      </trkpt>
      <trkpt lat="67.95045" lon="13.13762">
        <ele>2.216449</ele>
        <time>2020-07-15T12:43:45.469Z</time>
      </trkpt>
      <trkpt lat="67.95095" lon="13.13702">
        <ele>3.013313</ele>
        <time>2020-07-15T12:43:58.403Z</time>
      </trkpt>
      <trkpt lat="67.95115" lon="13.13704">
        <ele>3.3077</ele>
        <time>2020-07-15T12:44:03.645Z</time>
      </trkpt>
      <trkpt lat="67.95242" lon="13.13837">
        <ele>4.278028</ele>
        <time>2020-07-15T12:44:33.585Z</time>
      </trkpt>
      <trkpt lat="67.95314" lon="13.13954">
        <ele>4.075312</ele>
        <time>2020-07-15T12:44:47.507Z</time>
      </trkpt>
      <trkpt lat="67.95352" lon="13.14002">
        <ele>3.939021</ele>
        <time>2020-07-15T12:44:54.211Z</time>
      </trkpt>
      <trkpt lat="67.95468" lon="13.1406">
        <ele>3.142053</ele>
        <time>2020-07-15T12:45:13.331Z</time>
      </trkpt>
      <trkpt lat="67.95503" lon="13.1409">
        <ele>2.892489</ele>
        <time>2020-07-15T12:45:19.770Z</time>
      </trkpt>
      <trkpt lat="67.95539" lon="13.14131">
        <ele>2.949394</ele>
        <time>2020-07-15T12:45:27.137Z</time>
      </trkpt>
      <trkpt lat="67.95545" lon="13.14136">
        <ele>2.994254</ele>
        <time>2020-07-15T12:45:28.100Z</time>
      </trkpt>
      <trkpt lat="67.95715" lon="13.14315">
        <ele>4.994576</ele>
        <time>2020-07-15T12:46:08.017Z</time>
      </trkpt>
      <trkpt lat="67.95816" lon="13.14368">
        <ele>7.576224</ele>
        <time>2020-07-15T12:46:35.004Z</time>
      </trkpt>
      <trkpt lat="67.95933" lon="13.14524">
        <ele>12.978257</ele>
        <time>2020-07-15T12:47:15.888Z</time>
      </trkpt>
      <trkpt lat="67.95971" lon="13.14606">
        <ele>15.441879</ele>
        <time>2020-07-15T12:47:33.499Z</time>
      </trkpt>
      <trkpt lat="67.96058" lon="13.14876">
        <ele>23.731141</ele>
        <time>2020-07-15T12:48:26.326Z</time>
      </trkpt>
      <trkpt lat="67.96081" lon="13.14931">
        <ele>25.870738</ele>
        <time>2020-07-15T12:48:39.347Z</time>
      </trkpt>
      <trkpt lat="67.96108" lon="13.14971">
        <ele>27.998484</ele>
        <time>2020-07-15T12:48:52.233Z</time>
      </trkpt>
      <trkpt lat="67.96173" lon="13.15029">
        <ele>32.328701</ele>
        <time>2020-07-15T12:49:20.639Z</time>
      </trkpt>
      <trkpt lat="67.96195" lon="13.15065">
        <ele>33.844858</ele>
        <time>2020-07-15T12:49:31.369Z</time>
      </trkpt>
      <trkpt lat="67.96205" lon="13.15106">
        <ele>34.948812</ele>
        <time>2020-07-15T12:49:38.953Z</time>
      </trkpt>
      <trkpt lat="67.96238" lon="13.15316">
        <ele>39.974986</ele>
        <time>2020-07-15T12:50:10.596Z</time>
      </trkpt>
      <trkpt lat="67.96239" lon="13.15337">
        <ele>40.450287</ele>
        <time>2020-07-15T12:50:13.396Z</time>
      </trkpt>
      <trkpt lat="67.9624" lon="13.15359">
        <ele>40.743734</ele>
        <time>2020-07-15T12:50:15.991Z</time>
      </trkpt>
      <trkpt lat="67.96242" lon="13.15425">
        <ele>40.851162</ele>
        <time>2020-07-15T12:50:24.640Z</time>
      </trkpt>
      <trkpt lat="67.96249" lon="13.15446">
        <ele>40.895239</ele>
        <time>2020-07-15T12:50:27.580Z</time>
      </trkpt>
      <trkpt lat="67.96262" lon="13.15436">
        <ele>40.95432</ele>
        <time>2020-07-15T12:50:31.346Z</time>
      </trkpt>
      <trkpt lat="67.96265" lon="13.15433">
        <ele>40.965774</ele>
        <time>2020-07-15T12:50:32.718Z</time>
      </trkpt>
      <trkpt lat="67.96294" lon="13.15603">
        <ele>41.269182</ele>
        <time>2020-07-15T12:50:44.573Z</time>
      </trkpt>
      <trkpt lat="67.96354" lon="13.15911">
        <ele>39.807831</ele>
        <time>2020-07-15T12:51:02.989Z</time>
      </trkpt>
      <trkpt lat="67.96356" lon="13.15921">
        <ele>39.71</ele>
        <time>2020-07-15T12:51:03.440Z</time>
      </trkpt>
      <trkpt lat="67.96373" lon="13.15992">
        <ele>39.002082</ele>
        <time>2020-07-15T12:51:08.895Z</time>
      </trkpt>
      <trkpt lat="67.96412" lon="13.16152">
        <ele>37.255332</ele>
        <time>2020-07-15T12:51:19.453Z</time>
      </trkpt>
      <trkpt lat="67.96437" lon="13.16278">
        <ele>33.733668</ele>
        <time>2020-07-15T12:51:25.970Z</time>
      </trkpt>
      <trkpt lat="67.96452" lon="13.16391">
        <ele>30.797761</ele>
        <time>2020-07-15T12:51:31.215Z</time>
      </trkpt>
      <trkpt lat="67.96466" lon="13.16554">
        <ele>26.689514</ele>
        <time>2020-07-15T12:51:38.346Z</time>
      </trkpt>
      <trkpt lat="67.96467" lon="13.16566">
        <ele>26.39464</ele>
        <time>2020-07-15T12:51:38.833Z</time>
      </trkpt>
      <trkpt lat="67.96469" lon="13.16601">
        <ele>25.440984</ele>
        <time>2020-07-15T12:51:40.227Z</time>
      </trkpt>
      <trkpt lat="67.96488" lon="13.16735">
        <ele>20.27078</ele>
        <time>2020-07-15T12:51:46.157Z</time>
      </trkpt>
      <trkpt lat="67.96522" lon="13.16844">
        <ele>15.09389</ele>
        <time>2020-07-15T12:51:51.827Z</time>
      </trkpt>
      <trkpt lat="67.96569" lon="13.16916">
        <ele>9.91916</ele>
        <time>2020-07-15T12:51:57.680Z</time>
      </trkpt>
      <trkpt lat="67.96637" lon="13.16975">
        <ele>6.701038</ele>
        <time>2020-07-15T12:52:06.411Z</time>
      </trkpt>
      <trkpt lat="67.96641" lon="13.16978">
        <ele>6.571295</ele>
        <time>2020-07-15T12:52:06.971Z</time>
      </trkpt>
      <trkpt lat="67.96688" lon="13.17016">
        <ele>5.146283</ele>
        <time>2020-07-15T12:52:13.610Z</time>
      </trkpt>
      <trkpt lat="67.96731" lon="13.17056">
        <ele>3.848129</ele>
        <time>2020-07-15T12:52:20.556Z</time>
      </trkpt>
      <trkpt lat="67.96762" lon="13.17103">
        <ele>3.149076</ele>
        <time>2020-07-15T12:52:27.044Z</time>
      </trkpt>
      <trkpt lat="67.96765" lon="13.17109">
        <ele>3.178849</ele>
        <time>2020-07-15T12:52:28.185Z</time>
      </trkpt>
      <trkpt lat="67.96776" lon="13.17131">
        <ele>3.270647</ele>
        <time>2020-07-15T12:52:30.751Z</time>
      </trkpt>
      <trkpt lat="67.96788" lon="13.17156">
        <ele>3.369868</ele>
        <time>2020-07-15T12:52:33.608Z</time>
      </trkpt>
      <trkpt lat="67.96803" lon="13.17195">
        <ele>3.513813</ele>
        <time>2020-07-15T12:52:38.303Z</time>
      </trkpt>
      <trkpt lat="67.96849" lon="13.17314">
        <ele>3.946397</ele>
        <time>2020-07-15T12:52:51.734Z</time>
      </trkpt>
      <trkpt lat="67.96921" lon="13.17408">
        <ele>4.418818</ele>
        <time>2020-07-15T12:53:07.761Z</time>
      </trkpt>
      <trkpt lat="67.96929" lon="13.17417">
        <ele>4.455423</ele>
        <time>2020-07-15T12:53:09.869Z</time>
      </trkpt>
      <trkpt lat="67.96955" lon="13.17442">
        <ele>4.566259</ele>
        <time>2020-07-15T12:53:14.820Z</time>
      </trkpt>
      <trkpt lat="67.97078" lon="13.17502">
        <ele>5.007366</ele>
        <time>2020-07-15T12:53:38.874Z</time>
      </trkpt>
      <trkpt lat="67.97112" lon="13.1753">
        <ele>4.865228</ele>
        <time>2020-07-15T12:53:44.999Z</time>
      </trkpt>
      <trkpt lat="67.97152" lon="13.17585">
        <ele>4.687583</ele>
        <time>2020-07-15T12:53:52.644Z</time>
      </trkpt>
      <trkpt lat="67.97202" lon="13.17686">
        <ele>4.438222</ele>
        <time>2020-07-15T12:54:03.065Z</time>
      </trkpt>
      <trkpt lat="67.97205" lon="13.17693">
        <ele>4.420485</ele>
        <time>2020-07-15T12:54:03.821Z</time>
      </trkpt>
      <trkpt lat="67.9723" lon="13.17746">
        <ele>4.238004</ele>
        <time>2020-07-15T12:54:08.613Z</time>
      </trkpt>
      <trkpt lat="67.97313" lon="13.17962">
        <ele>2.970146</ele>
        <time>2020-07-15T12:54:26.404Z</time>
      </trkpt>
      <trkpt lat="67.97317" lon="13.17969">
        <ele>2.92226</ele>
        <time>2020-07-15T12:54:26.932Z</time>
      </trkpt>
      <trkpt lat="67.97335" lon="13.18004">
        <ele>2.677274</ele>
        <time>2020-07-15T12:54:30.482Z</time>
      </trkpt>
      <trkpt lat="67.97403" lon="13.18122">
        <ele>2.137585</ele>
        <time>2020-07-15T12:54:43.008Z</time>
      </trkpt>
      <trkpt lat="67.97449" lon="13.18233">
        <ele>1.859172</ele>
        <time>2020-07-15T12:54:53.432Z</time>
      </trkpt>
      <trkpt lat="67.97456" lon="13.18251">
        <ele>1.819377</ele>
        <time>2020-07-15T12:54:54.779Z</time>
      </trkpt>
      <trkpt lat="67.97473" lon="13.18305">
        <ele>1.700159</ele>
        <time>2020-07-15T12:55:00.068Z</time>
      </trkpt>
      <trkpt lat="67.97531" lon="13.18488">
        <ele>1.59138</ele>
        <time>2020-07-15T12:55:16.074Z</time>
      </trkpt>
      <trkpt lat="67.97561" lon="13.18539">
        <ele>1.602761</ele>
        <time>2020-07-15T12:55:22.610Z</time>
      </trkpt>
      <trkpt lat="67.97587" lon="13.18559">
        <ele>1.611312</ele>
        <time>2020-07-15T12:55:27.760Z</time>
      </trkpt>
      <trkpt lat="67.97622" lon="13.18562">
        <ele>1.622681</ele>
        <time>2020-07-15T12:55:34.041Z</time>
      </trkpt>
      <trkpt lat="67.97648" lon="13.18544">
        <ele>1.614636</ele>
        <time>2020-07-15T12:55:38.824Z</time>
      </trkpt>
      <trkpt lat="67.97733" lon="13.18409">
        <ele>1.376336</ele>
        <time>2020-07-15T12:55:55.593Z</time>
      </trkpt>
      <trkpt lat="67.97742" lon="13.18395">
        <ele>1.351182</ele>
        <time>2020-07-15T12:55:57.474Z</time>
      </trkpt>
      <trkpt lat="67.97747" lon="13.18405">
        <ele>1.335067</ele>
        <time>2020-07-15T12:55:59.262Z</time>
      </trkpt>
      <trkpt lat="67.97755" lon="13.1841">
        <ele>1.315728</ele>
        <time>2020-07-15T12:56:01.557Z</time>
      </trkpt>
      <trkpt lat="67.978" lon="13.18332">
        <ele>1.188846</ele>
        <time>2020-07-15T12:56:16.989Z</time>
      </trkpt>
      <trkpt lat="67.9782" lon="13.18323">
        <ele>1.153019</ele>
        <time>2020-07-15T12:56:22.974Z</time>
      </trkpt>
      <trkpt lat="67.97877" lon="13.18329">
        <ele>1.056806</ele>
        <time>2020-07-15T12:56:39.375Z</time>
      </trkpt>
      <trkpt lat="67.97899" lon="13.18318">
        <ele>1.019445</ele>
        <time>2020-07-15T12:56:45.635Z</time>
      </trkpt>
      <trkpt lat="67.97978" lon="13.18229">
        <ele>0.915582</ele>
        <time>2020-07-15T12:57:10.975Z</time>
      </trkpt>
      <trkpt lat="67.98076" lon="13.18174">
        <ele>1.227446</ele>
        <time>2020-07-15T12:57:41.594Z</time>
      </trkpt>
      <trkpt lat="67.98174" lon="13.18066">
        <ele>1.599434</ele>
        <time>2020-07-15T12:58:14.887Z</time>
      </trkpt>
      <trkpt lat="67.98199" lon="13.18015">
        <ele>1.735751</ele>
        <time>2020-07-15T12:58:24.901Z</time>
      </trkpt>
      <trkpt lat="67.98246" lon="13.17886">
        <ele>2.023531</ele>
        <time>2020-07-15T12:58:46.104Z</time>
      </trkpt>
      <trkpt lat="67.98283" lon="13.17823">
        <ele>2.212059</ele>
        <time>2020-07-15T12:58:59.629Z</time>
      </trkpt>
      <trkpt lat="67.98321" lon="13.17789">
        <ele>2.223505</ele>
        <time>2020-07-15T12:59:11.673Z</time>
      </trkpt>
      <trkpt lat="67.98388" lon="13.17785">
        <ele>2.229183</ele>
        <time>2020-07-15T12:59:31.337Z</time>
      </trkpt>
      <trkpt lat="67.98431" lon="13.17755">
        <ele>2.232971</ele>
        <time>2020-07-15T12:59:44.530Z</time>
      </trkpt>
      <trkpt lat="67.98456" lon="13.17705">
        <ele>2.23931</ele>
        <time>2020-07-15T12:59:53.890Z</time>
      </trkpt>
      <trkpt lat="67.98503" lon="13.17572">
        <ele>2.446975</ele>
        <time>2020-07-15T13:00:14.593Z</time>
      </trkpt>
      <trkpt lat="67.98572" lon="13.17468">
        <ele>2.686433</ele>
        <time>2020-07-15T13:00:38.818Z</time>
      </trkpt>
      <trkpt lat="67.98661" lon="13.17288">
        <ele>2.957002</ele>
        <time>2020-07-15T13:01:14.043Z</time>
      </trkpt>
      <trkpt lat="67.98761" lon="13.17012">
        <ele>2.927609</ele>
        <time>2020-07-15T13:01:57.091Z</time>
      </trkpt>
      <trkpt lat="67.98796" lon="13.16947">
        <ele>2.693353</ele>
        <time>2020-07-15T13:02:09.085Z</time>
      </trkpt>
      <trkpt lat="67.98907" lon="13.16868">
        <ele>2.021166</ele>
        <time>2020-07-15T13:02:40.465Z</time>
      </trkpt>
      <trkpt lat="67.98988" lon="13.16785">
        <ele>1.37502</ele>
        <time>2020-07-15T13:03:04.092Z</time>
      </trkpt>
      <trkpt lat="67.99072" lon="13.1677">
        <ele>0.806996</ele>
        <time>2020-07-15T13:03:27.836Z</time>
      </trkpt>
      <trkpt lat="67.99154" lon="13.16662">
        <ele>0.557225</ele>
        <time>2020-07-15T13:03:54.381Z</time>
      </trkpt>
      <trkpt lat="67.99169" lon="13.16661">
        <ele>0.51693</ele>
        <time>2020-07-15T13:03:58.682Z</time>
      </trkpt>
      <trkpt lat="67.99196" lon="13.16704">
        <ele>0.431496</ele>
        <time>2020-07-15T13:04:07.857Z</time>
      </trkpt>
      <trkpt lat="67.99205" lon="13.16677">
        <ele>0.393837</ele>
        <time>2020-07-15T13:04:11.900Z</time>
      </trkpt>
      <trkpt lat="67.99206" lon="13.16671">
        <ele>0.386579</ele>
        <time>2020-07-15T13:04:12.672Z</time>
      </trkpt>
      <trkpt lat="67.99246" lon="13.16703">
        <ele>0.305797</ele>
        <time>2020-07-15T13:04:19.888Z</time>
      </trkpt>
      <trkpt lat="67.99309" lon="13.16758">
        <ele>0.199923</ele>
        <time>2020-07-15T13:04:31.341Z</time>
      </trkpt>
      <trkpt lat="67.99346" lon="13.16789">
        <ele>0.137268</ele>
        <time>2020-07-15T13:04:38.129Z</time>
      </trkpt>
      <trkpt lat="67.99403" lon="13.16835">
        <ele>0.068013</ele>
        <time>2020-07-15T13:04:48.528Z</time>
      </trkpt>
      <trkpt lat="67.99568" lon="13.16977">
        <ele>0.11417</ele>
        <time>2020-07-15T13:05:19.596Z</time>
      </trkpt>
      <trkpt lat="67.99726" lon="13.17161">
        <ele>0.286858</ele>
        <time>2020-07-15T13:05:50.947Z</time>
      </trkpt>
      <trkpt lat="67.99773" lon="13.1723">
        <ele>0.489051</ele>
        <time>2020-07-15T13:06:00.635Z</time>
      </trkpt>
      <trkpt lat="67.99869" lon="13.17414">
        <ele>0.938339</ele>
        <time>2020-07-15T13:06:23.220Z</time>
      </trkpt>
      <trkpt lat="67.99908" lon="13.17476">
        <ele>1.623291</ele>
        <time>2020-07-15T13:06:32.655Z</time>
      </trkpt>
      <trkpt lat="67.9995" lon="13.17513">
        <ele>2.388926</ele>
        <time>2020-07-15T13:06:42.677Z</time>
      </trkpt>
      <trkpt lat="68.00071" lon="13.17564">
        <ele>4.365786</ele>
        <time>2020-07-15T13:07:13.825Z</time>
      </trkpt>
      <trkpt lat="68.00137" lon="13.17574">
        <ele>5.070827</ele>
        <time>2020-07-15T13:07:29.522Z</time>
      </trkpt>
      <trkpt lat="68.00154" lon="13.17577">
        <ele>5.252021</ele>
        <time>2020-07-15T13:07:33.056Z</time>
      </trkpt>
      <trkpt lat="68.00471" lon="13.17628">
        <ele>6.640665</ele>
        <time>2020-07-15T13:08:28.806Z</time>
      </trkpt>
      <trkpt lat="68.00523" lon="13.17617">
        <ele>7.241378</ele>
        <time>2020-07-15T13:08:40.749Z</time>
      </trkpt>
      <trkpt lat="68.00578" lon="13.17533">
        <ele>7.956934</ele>
        <time>2020-07-15T13:08:56.599Z</time>
      </trkpt>
      <trkpt lat="68.00602" lon="13.17475">
        <ele>7.896341</ele>
        <time>2020-07-15T13:09:05.042Z</time>
      </trkpt>
      <trkpt lat="68.00616" lon="13.17418">
        <ele>7.848548</ele>
        <time>2020-07-15T13:09:10.154Z</time>
      </trkpt>
      <trkpt lat="68.00623" lon="13.17325">
        <ele>7.782276</ele>
        <time>2020-07-15T13:09:16.112Z</time>
      </trkpt>
      <trkpt lat="68.00614" lon="13.17157">
        <ele>7.663538</ele>
        <time>2020-07-15T13:09:25.480Z</time>
      </trkpt>
      <trkpt lat="68.00617" lon="13.17088">
        <ele>7.606084</ele>
        <time>2020-07-15T13:09:29.449Z</time>
      </trkpt>
      <trkpt lat="68.00619" lon="13.17075">
        <ele>7.583263</ele>
        <time>2020-07-15T13:09:30.213Z</time>
      </trkpt>
      <trkpt lat="68.00624" lon="13.17059">
        <ele>7.551535</ele>
        <time>2020-07-15T13:09:31.163Z</time>
      </trkpt>
      <trkpt lat="68.00627" lon="13.17049">
        <ele>7.532475</ele>
        <time>2020-07-15T13:09:32.039Z</time>
      </trkpt>
      <trkpt lat="68.00632" lon="13.17037">
        <ele>7.505305</ele>
        <time>2020-07-15T13:09:32.880Z</time>
      </trkpt>
      <trkpt lat="68.00643" lon="13.17017">
        <ele>7.451942</ele>
        <time>2020-07-15T13:09:35.524Z</time>
      </trkpt>
      <trkpt lat="68.00662" lon="13.1698">
        <ele>7.353908</ele>
        <time>2020-07-15T13:09:38.914Z</time>
      </trkpt>
      <trkpt lat="68.00704" lon="13.16915">
        <ele>7.15846</ele>
        <time>2020-07-15T13:09:47.296Z</time>
      </trkpt>
      <trkpt lat="68.00711" lon="13.16907">
        <ele>7.127835</ele>
        <time>2020-07-15T13:09:48.268Z</time>
      </trkpt>
      <trkpt lat="68.00718" lon="13.16898">
        <ele>7.096875</ele>
        <time>2020-07-15T13:09:50.417Z</time>
      </trkpt>
      <trkpt lat="68.00722" lon="13.16893">
        <ele>7.078832</ele>
        <time>2020-07-15T13:09:51.109Z</time>
      </trkpt>
      <trkpt lat="68.00742" lon="13.16874">
        <ele>6.991072</ele>
        <time>2020-07-15T13:09:54.523Z</time>
      </trkpt>
      <trkpt lat="68.00779" lon="13.16843">
        <ele>6.983259</ele>
        <time>2020-07-15T13:10:02.334Z</time>
      </trkpt>
      <trkpt lat="68.0079" lon="13.16836">
        <ele>7.059069</ele>
        <time>2020-07-15T13:10:06.094Z</time>
      </trkpt>
      <trkpt lat="68.00811" lon="13.16826">
        <ele>7.204122</ele>
        <time>2020-07-15T13:10:10.843Z</time>
      </trkpt>
      <trkpt lat="68.00819" lon="13.16822">
        <ele>7.258908</ele>
        <time>2020-07-15T13:10:13.760Z</time>
      </trkpt>
      <trkpt lat="68.00865" lon="13.16798">
        <ele>7.570931</ele>
        <time>2020-07-15T13:10:24.745Z</time>
      </trkpt>
      <trkpt lat="68.00894" lon="13.16781">
        <ele>7.771577</ele>
        <time>2020-07-15T13:10:30.792Z</time>
      </trkpt>
      <trkpt lat="68.00902" lon="13.16775">
        <ele>7.822662</ele>
        <time>2020-07-15T13:10:32.896Z</time>
      </trkpt>
      <trkpt lat="68.00912" lon="13.16766">
        <ele>7.892627</ele>
        <time>2020-07-15T13:10:34.394Z</time>
      </trkpt>
      <trkpt lat="68.0097" lon="13.167">
        <ele>7.141086</ele>
        <time>2020-07-15T13:10:43.754Z</time>
      </trkpt>
      <trkpt lat="68.00982" lon="13.16692">
        <ele>6.788868</ele>
        <time>2020-07-15T13:10:45.415Z</time>
      </trkpt>
      <trkpt lat="68.00992" lon="13.16687">
        <ele>6.470357</ele>
        <time>2020-07-15T13:10:46.761Z</time>
      </trkpt>
      <trkpt lat="68.01024" lon="13.16686">
        <ele>5.552619</ele>
        <time>2020-07-15T13:10:50.934Z</time>
      </trkpt>
      <trkpt lat="68.01062" lon="13.16703">
        <ele>4.457555</ele>
        <time>2020-07-15T13:10:55.755Z</time>
      </trkpt>
      <trkpt lat="68.01073" lon="13.16711">
        <ele>4.129036</ele>
        <time>2020-07-15T13:10:57.134Z</time>
      </trkpt>
      <trkpt lat="68.01111" lon="13.16744">
        <ele>2.968193</ele>
        <time>2020-07-15T13:11:02.341Z</time>
      </trkpt>
      <trkpt lat="68.01168" lon="13.16801">
        <ele>2.420071</ele>
        <time>2020-07-15T13:11:10.678Z</time>
      </trkpt>
      <trkpt lat="68.01219" lon="13.16877">
        <ele>1.921275</ele>
        <time>2020-07-15T13:11:20.026Z</time>
      </trkpt>
      <trkpt lat="68.01232" lon="13.16894">
        <ele>1.798573</ele>
        <time>2020-07-15T13:11:22.832Z</time>
      </trkpt>
      <trkpt lat="68.01266" lon="13.16945">
        <ele>1.464659</ele>
        <time>2020-07-15T13:11:30.794Z</time>
      </trkpt>
      <trkpt lat="68.01306" lon="13.16987">
        <ele>1.874773</ele>
        <time>2020-07-15T13:11:39.786Z</time>
      </trkpt>
      <trkpt lat="68.01354" lon="13.17018">
        <ele>2.586661</ele>
        <time>2020-07-15T13:11:50.741Z</time>
      </trkpt>
      <trkpt lat="68.01396" lon="13.17064">
        <ele>3.245024</ele>
        <time>2020-07-15T13:12:01.326Z</time>
      </trkpt>
      <trkpt lat="68.01487" lon="13.17245">
        <ele>4.582237</ele>
        <time>2020-07-15T13:12:28.631Z</time>
      </trkpt>
      <trkpt lat="68.01576" lon="13.17377">
        <ele>5.552465</ele>
        <time>2020-07-15T13:12:49.194Z</time>
      </trkpt>
      <trkpt lat="68.01605" lon="13.17419">
        <ele>5.599126</ele>
        <time>2020-07-15T13:12:55.056Z</time>
      </trkpt>
      <trkpt lat="68.01624" lon="13.17445">
        <ele>5.466692</ele>
        <time>2020-07-15T13:12:58.367Z</time>
      </trkpt>
      <trkpt lat="68.01687" lon="13.17541">
        <ele>5.017785</ele>
        <time>2020-07-15T13:13:09.555Z</time>
      </trkpt>
      <trkpt lat="68.01713" lon="13.17593">
        <ele>4.815388</ele>
        <time>2020-07-15T13:13:14.679Z</time>
      </trkpt>
      <trkpt lat="68.01722" lon="13.17613">
        <ele>4.744009</ele>
        <time>2020-07-15T13:13:16.460Z</time>
      </trkpt>
      <trkpt lat="68.0173" lon="13.17632">
        <ele>4.678783</ele>
        <time>2020-07-15T13:13:18.240Z</time>
      </trkpt>
      <trkpt lat="68.01736" lon="13.17652">
        <ele>4.61843</ele>
        <time>2020-07-15T13:13:19.555Z</time>
      </trkpt>
      <trkpt lat="68.01739" lon="13.17661">
        <ele>4.598579</ele>
        <time>2020-07-15T13:13:20.205Z</time>
      </trkpt>
      <trkpt lat="68.01768" lon="13.17754">
        <ele>5.526704</ele>
        <time>2020-07-15T13:13:27.659Z</time>
      </trkpt>
      <trkpt lat="68.0191" lon="13.18233">
        <ele>12.03169</ele>
        <time>2020-07-15T13:14:31.877Z</time>
      </trkpt>
      <trkpt lat="68.01915" lon="13.18249">
        <ele>12.325451</ele>
        <time>2020-07-15T13:14:35.922Z</time>
      </trkpt>
      <trkpt lat="68.0193" lon="13.18299">
        <ele>13.297023</ele>
        <time>2020-07-15T13:14:42.807Z</time>
      </trkpt>
      <trkpt lat="68.01972" lon="13.18394">
        <ele>15.446946</ele>
        <time>2020-07-15T13:15:01.554Z</time>
      </trkpt>
      <trkpt lat="68.01983" lon="13.18412">
        <ele>15.680399</ele>
        <time>2020-07-15T13:15:04.865Z</time>
      </trkpt>
      <trkpt lat="68.02" lon="13.18435">
        <ele>16.02688</ele>
        <time>2020-07-15T13:15:11.674Z</time>
      </trkpt>
      <trkpt lat="68.02018" lon="13.18454">
        <ele>16.383792</ele>
        <time>2020-07-15T13:15:16.617Z</time>
      </trkpt>
      <trkpt lat="68.02035" lon="13.18467">
        <ele>16.707516</ele>
        <time>2020-07-15T13:15:22.959Z</time>
      </trkpt>
      <trkpt lat="68.02041" lon="13.18472">
        <ele>16.835261</ele>
        <time>2020-07-15T13:15:24.801Z</time>
      </trkpt>
      <trkpt lat="68.02109" lon="13.18495">
        <ele>18.093537</ele>
        <time>2020-07-15T13:15:40.196Z</time>
      </trkpt>
      <trkpt lat="68.02224" lon="13.18486">
        <ele>16.267414</ele>
        <time>2020-07-15T13:15:56.230Z</time>
      </trkpt>
      <trkpt lat="68.02232" lon="13.18483">
        <ele>16.023929</ele>
        <time>2020-07-15T13:15:57.394Z</time>
      </trkpt>
      <trkpt lat="68.02238" lon="13.18481">
        <ele>15.840429</ele>
        <time>2020-07-15T13:15:58.066Z</time>
      </trkpt>
      <trkpt lat="68.02253" lon="13.18469">
        <ele>15.356982</ele>
        <time>2020-07-15T13:16:00.044Z</time>
      </trkpt>
      <trkpt lat="68.02265" lon="13.18455">
        <ele>14.945468</ele>
        <time>2020-07-15T13:16:01.953Z</time>
      </trkpt>
      <trkpt lat="68.02278" lon="13.18433">
        <ele>14.453487</ele>
        <time>2020-07-15T13:16:03.788Z</time>
      </trkpt>
      <trkpt lat="68.02342" lon="13.18248">
        <ele>11.331461</ele>
        <time>2020-07-15T13:16:15.663Z</time>
      </trkpt>
      <trkpt lat="68.02371" lon="13.18208">
        <ele>10.188611</ele>
        <time>2020-07-15T13:16:19.722Z</time>
      </trkpt>
      <trkpt lat="68.02402" lon="13.18209">
        <ele>9.104435</ele>
        <time>2020-07-15T13:16:23.515Z</time>
      </trkpt>
      <trkpt lat="68.02469" lon="13.18274">
        <ele>6.783284</ele>
        <time>2020-07-15T13:16:33.397Z</time>
      </trkpt>
      <trkpt lat="68.02491" lon="13.18277">
        <ele>6.457625</ele>
        <time>2020-07-15T13:16:36.806Z</time>
      </trkpt>
      <trkpt lat="68.02516" lon="13.18262">
        <ele>6.09067</ele>
        <time>2020-07-15T13:16:40.240Z</time>
      </trkpt>
      <trkpt lat="68.02526" lon="13.18252">
        <ele>5.936745</ele>
        <time>2020-07-15T13:16:42.066Z</time>
      </trkpt>
      <trkpt lat="68.02537" lon="13.18236">
        <ele>5.752095</ele>
        <time>2020-07-15T13:16:43.734Z</time>
      </trkpt>
      <trkpt lat="68.02559" lon="13.18181">
        <ele>5.313555</ele>
        <time>2020-07-15T13:16:48.387Z</time>
      </trkpt>
      <trkpt lat="68.02565" lon="13.18155">
        <ele>5.142599</ele>
        <time>2020-07-15T13:16:49.961Z</time>
      </trkpt>
      <trkpt lat="68.02607" lon="13.17971">
        <ele>4.301134</ele>
        <time>2020-07-15T13:17:02.996Z</time>
      </trkpt>
      <trkpt lat="68.02624" lon="13.17911">
        <ele>4.336601</ele>
        <time>2020-07-15T13:17:07.455Z</time>
      </trkpt>
      <trkpt lat="68.02655" lon="13.17863">
        <ele>4.380508</ele>
        <time>2020-07-15T13:17:13.401Z</time>
      </trkpt>
      <trkpt lat="68.0266" lon="13.1786">
        <ele>4.38667</ele>
        <time>2020-07-15T13:17:14.143Z</time>
      </trkpt>
      <trkpt lat="68.02671" lon="13.17854">
        <ele>4.40087</ele>
        <time>2020-07-15T13:17:16.867Z</time>
      </trkpt>
      <trkpt lat="68.02757" lon="13.17847">
        <ele>4.590369</ele>
        <time>2020-07-15T13:17:33.924Z</time>
      </trkpt>
      <trkpt lat="68.02782" lon="13.17825">
        <ele>4.90171</ele>
        <time>2020-07-15T13:17:39.743Z</time>
      </trkpt>
      <trkpt lat="68.02842" lon="13.17736">
        <ele>5.726208</ele>
        <time>2020-07-15T13:17:54.785Z</time>
      </trkpt>
      <trkpt lat="68.02866" lon="13.17722">
        <ele>6.016379</ele>
        <time>2020-07-15T13:18:00.077Z</time>
      </trkpt>
      <trkpt lat="68.02904" lon="13.17724">
        <ele>6.478645</ele>
        <time>2020-07-15T13:18:08.632Z</time>
      </trkpt>
      <trkpt lat="68.02951" lon="13.17737">
        <ele>6.990134</ele>
        <time>2020-07-15T13:18:19.243Z</time>
      </trkpt>
      <trkpt lat="68.02978" lon="13.17758">
        <ele>7.283946</ele>
        <time>2020-07-15T13:18:25.788Z</time>
      </trkpt>
      <trkpt lat="68.03128" lon="13.17948">
        <ele>8.174302</ele>
        <time>2020-07-15T13:18:59.739Z</time>
      </trkpt>
      <trkpt lat="68.03162" lon="13.17967">
        <ele>7.912337</ele>
        <time>2020-07-15T13:19:05.461Z</time>
      </trkpt>
      <trkpt lat="68.03196" lon="13.1796">
        <ele>7.663656</ele>
        <time>2020-07-15T13:19:10.544Z</time>
      </trkpt>
      <trkpt lat="68.03232" lon="13.17926">
        <ele>7.380759</ele>
        <time>2020-07-15T13:19:16.066Z</time>
      </trkpt>
      <trkpt lat="68.03358" lon="13.17747">
        <ele>5.861507</ele>
        <time>2020-07-15T13:19:36.486Z</time>
      </trkpt>
      <trkpt lat="68.03529" lon="13.17568">
        <ele>5.62575</ele>
        <time>2020-07-15T13:20:09.382Z</time>
      </trkpt>
      <trkpt lat="68.0355" lon="13.17532">
        <ele>5.727006</ele>
        <time>2020-07-15T13:20:14.687Z</time>
      </trkpt>
      <trkpt lat="68.03605" lon="13.174">
        <ele>6.540432</ele>
        <time>2020-07-15T13:20:30.798Z</time>
      </trkpt>
      <trkpt lat="68.03636" lon="13.17351">
        <ele>7.156088</ele>
        <time>2020-07-15T13:20:38.932Z</time>
      </trkpt>
      <trkpt lat="68.03823" lon="13.17161">
        <ele>11.419696</ele>
        <time>2020-07-15T13:21:27.548Z</time>
      </trkpt>
      <trkpt lat="68.04048" lon="13.17071">
        <ele>18.832808</ele>
        <time>2020-07-15T13:22:31.664Z</time>
      </trkpt>
      <trkpt lat="68.04204" lon="13.17067">
        <ele>25.085069</ele>
        <time>2020-07-15T13:23:24.522Z</time>
      </trkpt>
      <trkpt lat="68.04298" lon="13.17083">
        <ele>27.40681</ele>
        <time>2020-07-15T13:23:50.387Z</time>
      </trkpt>
      <trkpt lat="68.04353" lon="13.17095">
        <ele>27.164832</ele>
        <time>2020-07-15T13:24:00.779Z</time>
      </trkpt>
      <trkpt lat="68.04464" lon="13.17121">
        <ele>26.313297</ele>
        <time>2020-07-15T13:24:16.097Z</time>
      </trkpt>
      <trkpt lat="68.04509" lon="13.17139">
        <ele>25.295365</ele>
        <time>2020-07-15T13:24:22.106Z</time>
      </trkpt>
      <trkpt lat="68.04528" lon="13.17153">
        <ele>24.866282</ele>
        <time>2020-07-15T13:24:24.537Z</time>
      </trkpt>
      <trkpt lat="68.04558" lon="13.1718">
        <ele>24.166597</ele>
        <time>2020-07-15T13:24:28.813Z</time>
      </trkpt>
      <trkpt lat="68.04624" lon="13.17262">
        <ele>22.693096</ele>
        <time>2020-07-15T13:24:39.717Z</time>
      </trkpt>
      <trkpt lat="68.04714" lon="13.17406">
        <ele>21.890852</ele>
        <time>2020-07-15T13:24:57.874Z</time>
      </trkpt>
      <trkpt lat="68.04774" lon="13.17486">
        <ele>21.346111</ele>
        <time>2020-07-15T13:25:08.533Z</time>
      </trkpt>
      <trkpt lat="68.05259" lon="13.18019">
        <ele>10.718022</ele>
        <time>2020-07-15T13:26:21.465Z</time>
      </trkpt>
      <trkpt lat="68.05387" lon="13.18238">
        <ele>10.472619</ele>
        <time>2020-07-15T13:26:49.061Z</time>
      </trkpt>
      <trkpt lat="68.05413" lon="13.18272">
        <ele>10.469507</ele>
        <time>2020-07-15T13:26:54.992Z</time>
      </trkpt>
      <trkpt lat="68.05507" lon="13.18361">
        <ele>10.69359</ele>
        <time>2020-07-15T13:27:14.091Z</time>
      </trkpt>
      <trkpt lat="68.05596" lon="13.18375">
        <ele>10.923482</ele>
        <time>2020-07-15T13:27:30.152Z</time>
      </trkpt>
      <trkpt lat="68.05622" lon="13.18389">
        <ele>11.012183</ele>
        <time>2020-07-15T13:27:34.872Z</time>
      </trkpt>
      <trkpt lat="68.05732" lon="13.18537">
        <ele>11.435486</ele>
        <time>2020-07-15T13:27:57.649Z</time>
      </trkpt>
      <trkpt lat="68.05842" lon="13.18615">
        <ele>12.559024</ele>
        <time>2020-07-15T13:28:21.141Z</time>
      </trkpt>
      <trkpt lat="68.05945" lon="13.18817">
        <ele>14.0665</ele>
        <time>2020-07-15T13:28:50.743Z</time>
      </trkpt>
      <trkpt lat="68.06002" lon="13.18914">
        <ele>14.700824</ele>
        <time>2020-07-15T13:29:05.770Z</time>
      </trkpt>
      <trkpt lat="68.06046" lon="13.19034">
        <ele>15.294793</ele>
        <time>2020-07-15T13:29:18.551Z</time>
      </trkpt>
      <trkpt lat="68.06074" lon="13.19091">
        <ele>15.363621</ele>
        <time>2020-07-15T13:29:24.981Z</time>
      </trkpt>
      <trkpt lat="68.06113" lon="13.19122">
        <ele>15.013416</ele>
        <time>2020-07-15T13:29:31.701Z</time>
      </trkpt>
      <trkpt lat="68.06183" lon="13.19121">
        <ele>14.412809</ele>
        <time>2020-07-15T13:29:42.188Z</time>
      </trkpt>
      <trkpt lat="68.0622" lon="13.19138">
        <ele>14.094843</ele>
        <time>2020-07-15T13:29:47.570Z</time>
      </trkpt>
      <trkpt lat="68.06347" lon="13.19333">
        <ele>12.533041</ele>
        <time>2020-07-15T13:30:10.243Z</time>
      </trkpt>
      <trkpt lat="68.06383" lon="13.19389">
        <ele>12.074461</ele>
        <time>2020-07-15T13:30:16.769Z</time>
      </trkpt>
      <trkpt lat="68.06399" lon="13.19414">
        <ele>11.795563</ele>
        <time>2020-07-15T13:30:19.678Z</time>
      </trkpt>
      <trkpt lat="68.06461" lon="13.19507">
        <ele>10.466647</ele>
        <time>2020-07-15T13:30:30.219Z</time>
      </trkpt>
      <trkpt lat="68.06496" lon="13.19541">
        <ele>9.774113</ele>
        <time>2020-07-15T13:30:35.571Z</time>
      </trkpt>
      <trkpt lat="68.06696" lon="13.19596">
        <ele>5.304478</ele>
        <time>2020-07-15T13:31:02.459Z</time>
      </trkpt>
      <trkpt lat="68.06719" lon="13.19611">
        <ele>4.733347</ele>
        <time>2020-07-15T13:31:05.792Z</time>
      </trkpt>
      <trkpt lat="68.06753" lon="13.19637">
        <ele>4.420572</ele>
        <time>2020-07-15T13:31:11.043Z</time>
      </trkpt>
      <trkpt lat="68.06861" lon="13.1973">
        <ele>5.083815</ele>
        <time>2020-07-15T13:31:31.651Z</time>
      </trkpt>
      <trkpt lat="68.06983" lon="13.19814">
        <ele>8.240586</ele>
        <time>2020-07-15T13:32:05.845Z</time>
      </trkpt>
      <trkpt lat="68.07093" lon="13.19869">
        <ele>12.494782</ele>
        <time>2020-07-15T13:32:41.592Z</time>
      </trkpt>
      <trkpt lat="68.07224" lon="13.19908">
        <ele>18.552147</ele>
        <time>2020-07-15T13:33:25.340Z</time>
      </trkpt>
      <trkpt lat="68.07259" lon="13.19914">
        <ele>20.144983</ele>
        <time>2020-07-15T13:33:36.388Z</time>
      </trkpt>
      <trkpt lat="68.07296" lon="13.19919">
        <ele>21.730497</ele>
        <time>2020-07-15T13:33:48.122Z</time>
      </trkpt>
      <trkpt lat="68.07326" lon="13.19932">
        <ele>22.983622</ele>
        <time>2020-07-15T13:33:57.475Z</time>
      </trkpt>
      <trkpt lat="68.07357" lon="13.19986">
        <ele>24.565447</ele>
        <time>2020-07-15T13:34:10.481Z</time>
      </trkpt>
      <trkpt lat="68.07401" lon="13.20174">
        <ele>27.914264</ele>
        <time>2020-07-15T13:34:35.842Z</time>
      </trkpt>
      <trkpt lat="68.07423" lon="13.20297">
        <ele>28.584482</ele>
        <time>2020-07-15T13:34:49.044Z</time>
      </trkpt>
      <trkpt lat="68.07426" lon="13.20328">
        <ele>28.744196</ele>
        <time>2020-07-15T13:34:53.162Z</time>
      </trkpt>
      <trkpt lat="68.07442" lon="13.20626">
        <ele>30.234026</ele>
        <time>2020-07-15T13:35:15.774Z</time>
      </trkpt>
      <trkpt lat="68.07468" lon="13.21089">
        <ele>26.368867</ele>
        <time>2020-07-15T13:35:39.426Z</time>
      </trkpt>
      <trkpt lat="68.07469" lon="13.21206">
        <ele>25.427271</ele>
        <time>2020-07-15T13:35:45.272Z</time>
      </trkpt>
      <trkpt lat="68.07462" lon="13.21324">
        <ele>24.463162</ele>
        <time>2020-07-15T13:35:51.411Z</time>
      </trkpt>
      <trkpt lat="68.07421" lon="13.21695">
        <ele>21.171289</ele>
        <time>2020-07-15T13:36:12.317Z</time>
      </trkpt>
      <trkpt lat="68.07404" lon="13.21931">
        <ele>18.894162</ele>
        <time>2020-07-15T13:36:24.454Z</time>
      </trkpt>
      <trkpt lat="68.07399" lon="13.22017">
        <ele>18.076261</ele>
        <time>2020-07-15T13:36:28.716Z</time>
      </trkpt>
      <trkpt lat="68.07391" lon="13.2216">
        <ele>16.519785</ele>
        <time>2020-07-15T13:36:35.743Z</time>
      </trkpt>
      <trkpt lat="68.07315" lon="13.23485">
        <ele>2.514507</ele>
        <time>2020-07-15T13:37:42.366Z</time>
      </trkpt>
      <trkpt lat="68.07311" lon="13.23621">
        <ele>2.644951</ele>
        <time>2020-07-15T13:37:51.105Z</time>
      </trkpt>
      <trkpt lat="68.07313" lon="13.23661">
        <ele>2.682528</ele>
        <time>2020-07-15T13:37:53.690Z</time>
      </trkpt>
      <trkpt lat="68.07316" lon="13.23699">
        <ele>2.720056</ele>
        <time>2020-07-15T13:37:56.679Z</time>
      </trkpt>
      <trkpt lat="68.07334" lon="13.2381">
        <ele>2.835774</ele>
        <time>2020-07-15T13:38:05.928Z</time>
      </trkpt>
      <trkpt lat="68.07354" lon="13.23872">
        <ele>2.913402</ele>
        <time>2020-07-15T13:38:12.678Z</time>
      </trkpt>
      <trkpt lat="68.07383" lon="13.23928">
        <ele>3.174066</ele>
        <time>2020-07-15T13:38:20.962Z</time>
      </trkpt>
      <trkpt lat="68.07425" lon="13.23967">
        <ele>3.731623</ele>
        <time>2020-07-15T13:38:31.395Z</time>
      </trkpt>
      <trkpt lat="68.07612" lon="13.23965">
        <ele>5.566974</ele>
        <time>2020-07-15T13:39:11.318Z</time>
      </trkpt>
      <trkpt lat="68.07726" lon="13.23903">
        <ele>6.129782</ele>
        <time>2020-07-15T13:39:32.595Z</time>
      </trkpt>
      <trkpt lat="68.07809" lon="13.23847">
        <ele>6.053672</ele>
        <time>2020-07-15T13:39:47.622Z</time>
      </trkpt>
      <trkpt lat="68.07842" lon="13.23822">
        <ele>6.023357</ele>
        <time>2020-07-15T13:39:53.552Z</time>
      </trkpt>
      <trkpt lat="68.07872" lon="13.23795">
        <ele>5.99532</ele>
        <time>2020-07-15T13:39:59.024Z</time>
      </trkpt>
      <trkpt lat="68.07882" lon="13.23784">
        <ele>5.985542</ele>
        <time>2020-07-15T13:40:00.987Z</time>
      </trkpt>
      <trkpt lat="68.07911" lon="13.23752">
        <ele>5.998364</ele>
        <time>2020-07-15T13:40:06.416Z</time>
      </trkpt>
      <trkpt lat="68.08007" lon="13.23613">
        <ele>6.142872</ele>
        <time>2020-07-15T13:40:26.281Z</time>
      </trkpt>
      <trkpt lat="68.08136" lon="13.23376">
        <ele>6.94955</ele>
        <time>2020-07-15T13:40:56.015Z</time>
      </trkpt>
      <trkpt lat="68.0818" lon="13.23328">
        <ele>7.286969</ele>
        <time>2020-07-15T13:41:06.069Z</time>
      </trkpt>
      <trkpt lat="68.08214" lon="13.2331">
        <ele>7.54563</ele>
        <time>2020-07-15T13:41:13.590Z</time>
      </trkpt>
      <trkpt lat="68.08252" lon="13.23292">
        <ele>7.898511</ele>
        <time>2020-07-15T13:41:22.323Z</time>
      </trkpt>
      <trkpt lat="68.08357" lon="13.23243">
        <ele>8.861793</ele>
        <time>2020-07-15T13:41:44.815Z</time>
      </trkpt>
      <trkpt lat="68.08389" lon="13.23225">
        <ele>9.090754</ele>
        <time>2020-07-15T13:41:51.023Z</time>
      </trkpt>
      <trkpt lat="68.08396" lon="13.2322">
        <ele>9.045176</ele>
        <time>2020-07-15T13:41:52.612Z</time>
      </trkpt>
      <trkpt lat="68.08405" lon="13.23213">
        <ele>8.990416</ele>
        <time>2020-07-15T13:41:54.062Z</time>
      </trkpt>
      <trkpt lat="68.08436" lon="13.23187">
        <ele>8.798185</ele>
        <time>2020-07-15T13:41:59.797Z</time>
      </trkpt>
      <trkpt lat="68.08459" lon="13.23163">
        <ele>8.657346</ele>
        <time>2020-07-15T13:42:03.835Z</time>
      </trkpt>
      <trkpt lat="68.08472" lon="13.23148">
        <ele>8.573579</ele>
        <time>2020-07-15T13:42:06.068Z</time>
      </trkpt>
      <trkpt lat="68.08564" lon="13.23025">
        <ele>7.90245</ele>
        <time>2020-07-15T13:42:22.048Z</time>
      </trkpt>
      <trkpt lat="68.08592" lon="13.22984">
        <ele>7.582768</ele>
        <time>2020-07-15T13:42:26.719Z</time>
      </trkpt>
      <trkpt lat="68.08597" lon="13.22978">
        <ele>7.527475</ele>
        <time>2020-07-15T13:42:27.527Z</time>
      </trkpt>
      <trkpt lat="68.0862" lon="13.22957">
        <ele>7.287803</ele>
        <time>2020-07-15T13:42:31.045Z</time>
      </trkpt>
      <trkpt lat="68.08635" lon="13.22946">
        <ele>7.13684</ele>
        <time>2020-07-15T13:42:33.531Z</time>
      </trkpt>
      <trkpt lat="68.0866" lon="13.2293">
        <ele>6.872714</ele>
        <time>2020-07-15T13:42:37.720Z</time>
      </trkpt>
      <trkpt lat="68.08675" lon="13.22923">
        <ele>6.728412</ele>
        <time>2020-07-15T13:42:40.116Z</time>
      </trkpt>
      <trkpt lat="68.0869" lon="13.22915">
        <ele>6.568775</ele>
        <time>2020-07-15T13:42:42.587Z</time>
      </trkpt>
      <trkpt lat="68.08749" lon="13.22859">
        <ele>5.954518</ele>
        <time>2020-07-15T13:42:52.649Z</time>
      </trkpt>
      <trkpt lat="68.08753" lon="13.22857">
        <ele>5.909286</ele>
        <time>2020-07-15T13:42:53.245Z</time>
      </trkpt>
      <trkpt lat="68.0876" lon="13.22855">
        <ele>5.837921</ele>
        <time>2020-07-15T13:42:54.500Z</time>
      </trkpt>
      <trkpt lat="68.08783" lon="13.22865">
        <ele>5.614739</ele>
        <time>2020-07-15T13:42:58.028Z</time>
      </trkpt>
      <trkpt lat="68.08797" lon="13.22877">
        <ele>5.467838</ele>
        <time>2020-07-15T13:43:00.228Z</time>
      </trkpt>
      <trkpt lat="68.08806" lon="13.22883">
        <ele>5.376267</ele>
        <time>2020-07-15T13:43:01.669Z</time>
      </trkpt>
      <trkpt lat="68.08824" lon="13.22891">
        <ele>5.195993</ele>
        <time>2020-07-15T13:43:04.278Z</time>
      </trkpt>
      <trkpt lat="68.08857" lon="13.22905">
        <ele>4.867197</ele>
        <time>2020-07-15T13:43:09.523Z</time>
      </trkpt>
      <trkpt lat="68.08891" lon="13.22903">
        <ele>4.529405</ele>
        <time>2020-07-15T13:43:14.944Z</time>
      </trkpt>
      <trkpt lat="68.08899" lon="13.22903">
        <ele>4.477006</ele>
        <time>2020-07-15T13:43:16.170Z</time>
      </trkpt>
      <trkpt lat="68.08906" lon="13.22905">
        <ele>4.45738</ele>
        <time>2020-07-15T13:43:17.352Z</time>
      </trkpt>
      <trkpt lat="68.08913" lon="13.2291">
        <ele>4.439755</ele>
        <time>2020-07-15T13:43:18.408Z</time>
      </trkpt>
      <trkpt lat="68.0894" lon="13.22942">
        <ele>4.360358</ele>
        <time>2020-07-15T13:43:23.034Z</time>
      </trkpt>
      <trkpt lat="68.0895" lon="13.22953">
        <ele>4.330117</ele>
        <time>2020-07-15T13:43:24.815Z</time>
      </trkpt>
      <trkpt lat="68.08953" lon="13.22957">
        <ele>4.322053</ele>
        <time>2020-07-15T13:43:25.256Z</time>
      </trkpt>
      <trkpt lat="68.08955" lon="13.2296">
        <ele>4.313701</ele>
        <time>2020-07-15T13:43:25.741Z</time>
      </trkpt>
      <trkpt lat="68.08995" lon="13.23009">
        <ele>4.195224</ele>
        <time>2020-07-15T13:43:33.008Z</time>
      </trkpt>
      <trkpt lat="68.09012" lon="13.23027">
        <ele>4.146586</ele>
        <time>2020-07-15T13:43:35.897Z</time>
      </trkpt>
      <trkpt lat="68.09058" lon="13.23066">
        <ele>4.014934</ele>
        <time>2020-07-15T13:43:44.419Z</time>
      </trkpt>
      <trkpt lat="68.09081" lon="13.23102">
        <ele>4.448146</ele>
        <time>2020-07-15T13:43:50.009Z</time>
      </trkpt>
      <trkpt lat="68.09089" lon="13.2312">
        <ele>4.671128</ele>
        <time>2020-07-15T13:43:52.162Z</time>
      </trkpt>
      <trkpt lat="68.09092" lon="13.23128">
        <ele>4.768212</ele>
        <time>2020-07-15T13:43:53.632Z</time>
      </trkpt>
      <trkpt lat="68.09145" lon="13.23331">
        <ele>6.726846</ele>
        <time>2020-07-15T13:44:16.741Z</time>
      </trkpt>
      <trkpt lat="68.09173" lon="13.23451">
        <ele>7.846867</ele>
        <time>2020-07-15T13:44:31.560Z</time>
      </trkpt>
      <trkpt lat="68.09186" lon="13.2351">
        <ele>8.454057</ele>
        <time>2020-07-15T13:44:38.790Z</time>
      </trkpt>
      <trkpt lat="68.09212" lon="13.23613">
        <ele>9.547095</ele>
        <time>2020-07-15T13:44:51.003Z</time>
      </trkpt>
      <trkpt lat="68.0923" lon="13.23677">
        <ele>10.252864</ele>
        <time>2020-07-15T13:44:58.986Z</time>
      </trkpt>
      <trkpt lat="68.09241" lon="13.23715">
        <ele>10.677269</ele>
        <time>2020-07-15T13:45:03.488Z</time>
      </trkpt>
      <trkpt lat="68.09246" lon="13.23729">
        <ele>10.833626</ele>
        <time>2020-07-15T13:45:05.277Z</time>
      </trkpt>
      <trkpt lat="68.09262" lon="13.23781">
        <ele>11.42186</ele>
        <time>2020-07-15T13:45:11.184Z</time>
      </trkpt>
      <trkpt lat="68.0927" lon="13.23808">
        <ele>11.736064</ele>
        <time>2020-07-15T13:45:14.453Z</time>
      </trkpt>
      <trkpt lat="68.09311" lon="13.23922">
        <ele>12.474711</ele>
        <time>2020-07-15T13:45:27.009Z</time>
      </trkpt>
      <trkpt lat="68.09419" lon="13.24157">
        <ele>13.76692</ele>
        <time>2020-07-15T13:45:54.931Z</time>
      </trkpt>
      <trkpt lat="68.09421" lon="13.2416">
        <ele>13.791798</ele>
        <time>2020-07-15T13:45:55.381Z</time>
      </trkpt>
      <trkpt lat="68.09464" lon="13.2424">
        <ele>14.388402</ele>
        <time>2020-07-15T13:46:06.300Z</time>
      </trkpt>
      <trkpt lat="68.0957" lon="13.24414">
        <ele>15.804873</ele>
        <time>2020-07-15T13:46:33.676Z</time>
      </trkpt>
      <trkpt lat="68.09659" lon="13.2452">
        <ele>16.983164</ele>
        <time>2020-07-15T13:46:55.337Z</time>
      </trkpt>
      <trkpt lat="68.09732" lon="13.24581">
        <ele>17.903214</ele>
        <time>2020-07-15T13:47:11.363Z</time>
      </trkpt>
      <trkpt lat="68.09805" lon="13.24617">
        <ele>18.776328</ele>
        <time>2020-07-15T13:47:27.230Z</time>
      </trkpt>
      <trkpt lat="68.0984" lon="13.24628">
        <ele>19.187684</ele>
        <time>2020-07-15T13:47:34.896Z</time>
      </trkpt>
      <trkpt lat="68.09843" lon="13.24628">
        <ele>19.228931</ele>
        <time>2020-07-15T13:47:35.646Z</time>
      </trkpt>
      <trkpt lat="68.09865" lon="13.24633">
        <ele>19.479714</ele>
        <time>2020-07-15T13:47:40.248Z</time>
      </trkpt>
      <trkpt lat="68.09883" lon="13.24638">
        <ele>19.694586</ele>
        <time>2020-07-15T13:47:44.242Z</time>
      </trkpt>
      <trkpt lat="68.09899" lon="13.24643">
        <ele>19.880234</ele>
        <time>2020-07-15T13:47:47.627Z</time>
      </trkpt>
      <trkpt lat="68.09922" lon="13.2465">
        <ele>20.20702</ele>
        <time>2020-07-15T13:47:52.679Z</time>
      </trkpt>
      <trkpt lat="68.09924" lon="13.24651">
        <ele>20.239021</ele>
        <time>2020-07-15T13:47:53.074Z</time>
      </trkpt>
      <trkpt lat="68.09958" lon="13.24661">
        <ele>20.836086</ele>
        <time>2020-07-15T13:48:00.919Z</time>
      </trkpt>
      <trkpt lat="68.09986" lon="13.24671">
        <ele>21.324739</ele>
        <time>2020-07-15T13:48:07.466Z</time>
      </trkpt>
      <trkpt lat="68.10036" lon="13.24704">
        <ele>22.206713</ele>
        <time>2020-07-15T13:48:20.418Z</time>
      </trkpt>
      <trkpt lat="68.10065" lon="13.24738">
        <ele>22.741158</ele>
        <time>2020-07-15T13:48:28.231Z</time>
      </trkpt>
      <trkpt lat="68.10083" lon="13.24773">
        <ele>23.119708</ele>
        <time>2020-07-15T13:48:33.041Z</time>
      </trkpt>
      <trkpt lat="68.10087" lon="13.24786">
        <ele>23.146778</ele>
        <time>2020-07-15T13:48:34.599Z</time>
      </trkpt>
      <trkpt lat="68.10093" lon="13.24804">
        <ele>23.174847</ele>
        <time>2020-07-15T13:48:36.981Z</time>
      </trkpt>
      <trkpt lat="68.10105" lon="13.24843">
        <ele>23.232831</ele>
        <time>2020-07-15T13:48:40.641Z</time>
      </trkpt>
      <trkpt lat="68.10123" lon="13.24908">
        <ele>23.326042</ele>
        <time>2020-07-15T13:48:46.966Z</time>
      </trkpt>
      <trkpt lat="68.1015" lon="13.25001">
        <ele>23.462512</ele>
        <time>2020-07-15T13:48:55.263Z</time>
      </trkpt>
      <trkpt lat="68.10156" lon="13.25019">
        <ele>23.489086</ele>
        <time>2020-07-15T13:48:56.977Z</time>
      </trkpt>
      <trkpt lat="68.10159" lon="13.25029">
        <ele>23.504536</ele>
        <time>2020-07-15T13:48:58.159Z</time>
      </trkpt>
      <trkpt lat="68.10259" lon="13.2535">
        <ele>22.671636</ele>
        <time>2020-07-15T13:49:22.454Z</time>
      </trkpt>
      <trkpt lat="68.10274" lon="13.254">
        <ele>22.427026</ele>
        <time>2020-07-15T13:49:25.886Z</time>
      </trkpt>
      <trkpt lat="68.10294" lon="13.25473">
        <ele>22.081712</ele>
        <time>2020-07-15T13:49:30.880Z</time>
      </trkpt>
      <trkpt lat="68.1031" lon="13.25571">
        <ele>21.773045</ele>
        <time>2020-07-15T13:49:37.055Z</time>
      </trkpt>
      <trkpt lat="68.10356" lon="13.26015">
        <ele>21.115621</ele>
        <time>2020-07-15T13:50:06.869Z</time>
      </trkpt>
      <trkpt lat="68.10375" lon="13.26237">
        <ele>20.395136</ele>
        <time>2020-07-15T13:50:21.303Z</time>
      </trkpt>
      <trkpt lat="68.10374" lon="13.26393">
        <ele>19.903931</ele>
        <time>2020-07-15T13:50:30.297Z</time>
      </trkpt>
      <trkpt lat="68.10371" lon="13.26452">
        <ele>19.717001</ele>
        <time>2020-07-15T13:50:33.588Z</time>
      </trkpt>
      <trkpt lat="68.10362" lon="13.26569">
        <ele>18.559266</ele>
        <time>2020-07-15T13:50:39.881Z</time>
      </trkpt>
      <trkpt lat="68.10358" lon="13.26666">
        <ele>17.48995</ele>
        <time>2020-07-15T13:50:44.835Z</time>
      </trkpt>
      <trkpt lat="68.10363" lon="13.26827">
        <ele>15.722768</ele>
        <time>2020-07-15T13:50:52.714Z</time>
      </trkpt>
      <trkpt lat="68.10376" lon="13.27012">
        <ele>13.467568</ele>
        <time>2020-07-15T13:51:01.606Z</time>
      </trkpt>
      <trkpt lat="68.10409" lon="13.27265">
        <ele>9.728329</ele>
        <time>2020-07-15T13:51:14.179Z</time>
      </trkpt>
      <trkpt lat="68.10424" lon="13.27603">
        <ele>6.484843</ele>
        <time>2020-07-15T13:51:30.799Z</time>
      </trkpt>
      <trkpt lat="68.10417" lon="13.27772">
        <ele>5.443756</ele>
        <time>2020-07-15T13:51:40.201Z</time>
      </trkpt>
      <trkpt lat="68.10382" lon="13.28018">
        <ele>6.007077</ele>
        <time>2020-07-15T13:51:58.678Z</time>
      </trkpt>
      <trkpt lat="68.10371" lon="13.28105">
        <ele>6.841326</ele>
        <time>2020-07-15T13:52:07.137Z</time>
      </trkpt>
      <trkpt lat="68.10369" lon="13.28123">
        <ele>7.008893</ele>
        <time>2020-07-15T13:52:09.628Z</time>
      </trkpt>
      <trkpt lat="68.10342" lon="13.284">
        <ele>9.918587</ele>
        <time>2020-07-15T13:52:41.466Z</time>
      </trkpt>
      <trkpt lat="68.10328" lon="13.28476">
        <ele>11.146867</ele>
        <time>2020-07-15T13:52:51.484Z</time>
      </trkpt>
      <trkpt lat="68.10314" lon="13.28557">
        <ele>12.445682</ele>
        <time>2020-07-15T13:53:02.437Z</time>
      </trkpt>
      <trkpt lat="68.10269" lon="13.28903">
        <ele>16.646087</ele>
        <time>2020-07-15T13:53:42.947Z</time>
      </trkpt>
      <trkpt lat="68.10261" lon="13.29048">
        <ele>17.391669</ele>
        <time>2020-07-15T13:53:55.570Z</time>
      </trkpt>
      <trkpt lat="68.10259" lon="13.29217">
        <ele>18.248318</ele>
        <time>2020-07-15T13:54:07.679Z</time>
      </trkpt>
      <trkpt lat="68.10263" lon="13.29406">
        <ele>17.53661</ele>
        <time>2020-07-15T13:54:18.747Z</time>
      </trkpt>
      <trkpt lat="68.10271" lon="13.2999">
        <ele>12.770593</ele>
        <time>2020-07-15T13:54:48.524Z</time>
      </trkpt>
      <trkpt lat="68.10276" lon="13.30377">
        <ele>9.649131</ele>
        <time>2020-07-15T13:55:07.924Z</time>
      </trkpt>
      <trkpt lat="68.10276" lon="13.30398">
        <ele>9.537994</ele>
        <time>2020-07-15T13:55:08.943Z</time>
      </trkpt>
      <trkpt lat="68.10275" lon="13.3042">
        <ele>9.42518</ele>
        <time>2020-07-15T13:55:10.080Z</time>
      </trkpt>
      <trkpt lat="68.10264" lon="13.30572">
        <ele>8.613004</ele>
        <time>2020-07-15T13:55:18.731Z</time>
      </trkpt>
      <trkpt lat="68.10169" lon="13.31604">
        <ele>8.291211</ele>
        <time>2020-07-15T13:56:32.836Z</time>
      </trkpt>
      <trkpt lat="68.10126" lon="13.3208">
        <ele>6.102977</ele>
        <time>2020-07-15T13:57:00.484Z</time>
      </trkpt>
      <trkpt lat="68.10119" lon="13.32145">
        <ele>5.72696</ele>
        <time>2020-07-15T13:57:03.827Z</time>
      </trkpt>
      <trkpt lat="68.10108" lon="13.32198">
        <ele>5.338122</ele>
        <time>2020-07-15T13:57:07.004Z</time>
      </trkpt>
      <trkpt lat="68.10083" lon="13.3225">
        <ele>4.805395</ele>
        <time>2020-07-15T13:57:11.385Z</time>
      </trkpt>
      <trkpt lat="68.10049" lon="13.32272">
        <ele>4.21607</ele>
        <time>2020-07-15T13:57:16.285Z</time>
      </trkpt>
      <trkpt lat="68.10017" lon="13.32256">
        <ele>3.665119</ele>
        <time>2020-07-15T13:57:20.949Z</time>
      </trkpt>
      <trkpt lat="68.09982" lon="13.32224">
        <ele>3.032905</ele>
        <time>2020-07-15T13:57:26.446Z</time>
      </trkpt>
      <trkpt lat="68.09956" lon="13.32202">
        <ele>2.934307</ele>
        <time>2020-07-15T13:57:30.965Z</time>
      </trkpt>
      <trkpt lat="68.09843" lon="13.32103">
        <ele>3.119049</ele>
        <time>2020-07-15T13:57:53.054Z</time>
      </trkpt>
      <trkpt lat="68.09738" lon="13.31952">
        <ele>3.359326</ele>
        <time>2020-07-15T13:58:17.652Z</time>
      </trkpt>
      <trkpt lat="68.09652" lon="13.31895">
        <ele>3.560045</ele>
        <time>2020-07-15T13:58:33.504Z</time>
      </trkpt>
      <trkpt lat="68.09451" lon="13.31689">
        <ele>2.500896</ele>
        <time>2020-07-15T13:59:08.022Z</time>
      </trkpt>
      <trkpt lat="68.09199" lon="13.31355">
        <ele>2.080819</ele>
        <time>2020-07-15T13:59:57.891Z</time>
      </trkpt>
      <trkpt lat="68.09025" lon="13.31195">
        <ele>1.575463</ele>
        <time>2020-07-15T14:00:28.939Z</time>
      </trkpt>
      <trkpt lat="68.09024" lon="13.31194">
        <ele>1.572931</ele>
        <time>2020-07-15T14:00:29.014Z</time>
      </trkpt>
      <trkpt lat="68.08989" lon="13.31163">
        <ele>1.445537</ele>
        <time>2020-07-15T14:00:35.374Z</time>
      </trkpt>
      <trkpt lat="68.08952" lon="13.31125">
        <ele>1.483527</ele>
        <time>2020-07-15T14:00:42.138Z</time>
      </trkpt>
      <trkpt lat="68.08892" lon="13.31014">
        <ele>1.744891</ele>
        <time>2020-07-15T14:00:55.199Z</time>
      </trkpt>
      <trkpt lat="68.0888" lon="13.30997">
        <ele>1.794784</ele>
        <time>2020-07-15T14:00:57.889Z</time>
      </trkpt>
      <trkpt lat="68.08874" lon="13.3099">
        <ele>1.81758</ele>
        <time>2020-07-15T14:00:59.108Z</time>
      </trkpt>
      <trkpt lat="68.08701" lon="13.30799">
        <ele>3.69743</ele>
        <time>2020-07-15T14:01:38.637Z</time>
      </trkpt>
      <trkpt lat="68.08664" lon="13.3073">
        <ele>4.300891</ele>
        <time>2020-07-15T14:01:49.687Z</time>
      </trkpt>
      <trkpt lat="68.08656" lon="13.30707">
        <ele>4.447214</ele>
        <time>2020-07-15T14:01:52.583Z</time>
      </trkpt>
      <trkpt lat="68.08653" lon="13.30697">
        <ele>4.493305</ele>
        <time>2020-07-15T14:01:54.333Z</time>
      </trkpt>
      <trkpt lat="68.08627" lon="13.30598">
        <ele>4.897602</ele>
        <time>2020-07-15T14:02:04.640Z</time>
      </trkpt>
      <trkpt lat="68.08596" lon="13.30456">
        <ele>5.446421</ele>
        <time>2020-07-15T14:02:18.646Z</time>
      </trkpt>
      <trkpt lat="68.08586" lon="13.30401">
        <ele>5.653795</ele>
        <time>2020-07-15T14:02:23.174Z</time>
      </trkpt>
      <trkpt lat="68.08513" lon="13.29921">
        <ele>4.552426</ele>
        <time>2020-07-15T14:02:53.734Z</time>
      </trkpt>
      <trkpt lat="68.08504" lon="13.2983">
        <ele>4.185119</ele>
        <time>2020-07-15T14:02:58.715Z</time>
      </trkpt>
      <trkpt lat="68.085" lon="13.29724">
        <ele>3.63806</ele>
        <time>2020-07-15T14:03:04.498Z</time>
      </trkpt>
      <trkpt lat="68.085" lon="13.29718">
        <ele>3.608378</ele>
        <time>2020-07-15T14:03:04.743Z</time>
      </trkpt>
      <trkpt lat="68.085" lon="13.29651">
        <ele>3.265838</ele>
        <time>2020-07-15T14:03:08.517Z</time>
      </trkpt>
      <trkpt lat="68.08493" lon="13.29519">
        <ele>2.584061</ele>
        <time>2020-07-15T14:03:15.801Z</time>
      </trkpt>
      <trkpt lat="68.08479" lon="13.29453">
        <ele>2.195756</ele>
        <time>2020-07-15T14:03:20.235Z</time>
      </trkpt>
      <trkpt lat="68.08462" lon="13.29404">
        <ele>1.85989</ele>
        <time>2020-07-15T14:03:23.898Z</time>
      </trkpt>
      <trkpt lat="68.0838" lon="13.29261">
        <ele>1.417353</ele>
        <time>2020-07-15T14:03:39.878Z</time>
      </trkpt>
      <trkpt lat="68.08343" lon="13.29224">
        <ele>1.256474</ele>
        <time>2020-07-15T14:03:46.811Z</time>
      </trkpt>
      <trkpt lat="68.08322" lon="13.29216">
        <ele>1.173007</ele>
        <time>2020-07-15T14:03:50.453Z</time>
      </trkpt>
      <trkpt lat="68.08269" lon="13.29229">
        <ele>1.137295</ele>
        <time>2020-07-15T14:03:59.855Z</time>
      </trkpt>
      <trkpt lat="68.07986" lon="13.29389">
        <ele>2.62164</ele>
        <time>2020-07-15T14:04:54.501Z</time>
      </trkpt>
      <trkpt lat="68.07939" lon="13.29445">
        <ele>3.232756</ele>
        <time>2020-07-15T14:05:06.600Z</time>
      </trkpt>
      <trkpt lat="68.07898" lon="13.29536">
        <ele>4.944973</ele>
        <time>2020-07-15T14:05:20.139Z</time>
      </trkpt>
      <trkpt lat="68.07856" lon="13.29676">
        <ele>7.123854</ele>
        <time>2020-07-15T14:05:39.768Z</time>
      </trkpt>
      <trkpt lat="68.0783" lon="13.29787">
        <ele>8.709155</ele>
        <time>2020-07-15T14:05:55.232Z</time>
      </trkpt>
      <trkpt lat="68.07809" lon="13.29912">
        <ele>10.749762</ele>
        <time>2020-07-15T14:06:11.726Z</time>
      </trkpt>
      <trkpt lat="68.07791" lon="13.30062">
        <ele>13.110652</ele>
        <time>2020-07-15T14:06:30.894Z</time>
      </trkpt>
      <trkpt lat="68.07756" lon="13.30482">
        <ele>17.698404</ele>
        <time>2020-07-15T14:07:16.768Z</time>
      </trkpt>
      <trkpt lat="68.07759" lon="13.30587">
        <ele>18.440716</ele>
        <time>2020-07-15T14:07:25.264Z</time>
      </trkpt>
      <trkpt lat="68.07774" lon="13.30828">
        <ele>19.218723</ele>
        <time>2020-07-15T14:07:42.237Z</time>
      </trkpt>
      <trkpt lat="68.07772" lon="13.30903">
        <ele>19.063457</ele>
        <time>2020-07-15T14:07:46.833Z</time>
      </trkpt>
      <trkpt lat="68.07763" lon="13.30981">
        <ele>18.89668</ele>
        <time>2020-07-15T14:07:51.587Z</time>
      </trkpt>
      <trkpt lat="68.07302" lon="13.33029">
        <ele>10.784883</ele>
        <time>2020-07-15T14:10:11.341Z</time>
      </trkpt>
      <trkpt lat="68.0725" lon="13.33342">
        <ele>9.380645</ele>
        <time>2020-07-15T14:10:30.386Z</time>
      </trkpt>
      <trkpt lat="68.07245" lon="13.33382">
        <ele>9.227428</ele>
        <time>2020-07-15T14:10:32.663Z</time>
      </trkpt>
      <trkpt lat="68.07239" lon="13.33438">
        <ele>9.014756</ele>
        <time>2020-07-15T14:10:36.167Z</time>
      </trkpt>
      <trkpt lat="68.07238" lon="13.33444">
        <ele>8.991628</ele>
        <time>2020-07-15T14:10:36.543Z</time>
      </trkpt>
      <trkpt lat="68.07237" lon="13.33451">
        <ele>8.966021</ele>
        <time>2020-07-15T14:10:36.923Z</time>
      </trkpt>
      <trkpt lat="68.07236" lon="13.3346">
        <ele>8.932788</ele>
        <time>2020-07-15T14:10:37.415Z</time>
      </trkpt>
      <trkpt lat="68.07235" lon="13.33477">
        <ele>8.868085</ele>
        <time>2020-07-15T14:10:38.401Z</time>
      </trkpt>
      <trkpt lat="68.07231" lon="13.33515">
        <ele>8.726818</ele>
        <time>2020-07-15T14:10:41.013Z</time>
      </trkpt>
      <trkpt lat="68.07216" lon="13.33703">
        <ele>8.027733</ele>
        <time>2020-07-15T14:10:52.271Z</time>
      </trkpt>
      <trkpt lat="68.07208" lon="13.33915">
        <ele>7.191715</ele>
        <time>2020-07-15T14:11:05.499Z</time>
      </trkpt>
      <trkpt lat="68.07207" lon="13.33961">
        <ele>7.008121</ele>
        <time>2020-07-15T14:11:08.188Z</time>
      </trkpt>
      <trkpt lat="68.07207" lon="13.33984">
        <ele>6.9183</ele>
        <time>2020-07-15T14:11:09.401Z</time>
      </trkpt>
      <trkpt lat="68.07219" lon="13.34168">
        <ele>6.183302</ele>
        <time>2020-07-15T14:11:19.792Z</time>
      </trkpt>
      <trkpt lat="68.07236" lon="13.3428">
        <ele>5.629542</ele>
        <time>2020-07-15T14:11:26.392Z</time>
      </trkpt>
      <trkpt lat="68.0726" lon="13.34383">
        <ele>5.064206</ele>
        <time>2020-07-15T14:11:32.920Z</time>
      </trkpt>
      <trkpt lat="68.07297" lon="13.34494">
        <ele>4.366688</ele>
        <time>2020-07-15T14:11:41.412Z</time>
      </trkpt>
      <trkpt lat="68.07337" lon="13.34575">
        <ele>3.863002</ele>
        <time>2020-07-15T14:11:49.298Z</time>
      </trkpt>
      <trkpt lat="68.07374" lon="13.34627">
        <ele>3.846771</ele>
        <time>2020-07-15T14:11:56.123Z</time>
      </trkpt>
      <trkpt lat="68.07381" lon="13.34635">
        <ele>3.843475</ele>
        <time>2020-07-15T14:11:57.426Z</time>
      </trkpt>
      <trkpt lat="68.0739" lon="13.34643">
        <ele>3.839978</ele>
        <time>2020-07-15T14:11:59.117Z</time>
      </trkpt>
      <trkpt lat="68.07452" lon="13.34677">
        <ele>3.815384</ele>
        <time>2020-07-15T14:12:10.072Z</time>
      </trkpt>
      <trkpt lat="68.07614" lon="13.34685">
        <ele>5.168394</ele>
        <time>2020-07-15T14:12:43.874Z</time>
      </trkpt>
      <trkpt lat="68.07617" lon="13.34685">
        <ele>5.20804</ele>
        <time>2020-07-15T14:12:44.652Z</time>
      </trkpt>
      <trkpt lat="68.07623" lon="13.34684">
        <ele>5.276691</ele>
        <time>2020-07-15T14:12:45.814Z</time>
      </trkpt>
      <trkpt lat="68.0763" lon="13.34681">
        <ele>5.361469</ele>
        <time>2020-07-15T14:12:47.310Z</time>
      </trkpt>
      <trkpt lat="68.0764" lon="13.34677">
        <ele>5.488246</ele>
        <time>2020-07-15T14:12:49.862Z</time>
      </trkpt>
      <trkpt lat="68.07771" lon="13.34591">
        <ele>7.646879</ele>
        <time>2020-07-15T14:13:21.763Z</time>
      </trkpt>
      <trkpt lat="68.0782" lon="13.34558">
        <ele>8.536891</ele>
        <time>2020-07-15T14:13:33.964Z</time>
      </trkpt>
      <trkpt lat="68.07846" lon="13.34541">
        <ele>9.004908</ele>
        <time>2020-07-15T14:13:40.064Z</time>
      </trkpt>
      <trkpt lat="68.07874" lon="13.3452">
        <ele>9.266426</ele>
        <time>2020-07-15T14:13:46.587Z</time>
      </trkpt>
      <trkpt lat="68.07883" lon="13.34514">
        <ele>9.325232</ele>
        <time>2020-07-15T14:13:48.949Z</time>
      </trkpt>
      <trkpt lat="68.07924" lon="13.34486">
        <ele>9.577831</ele>
        <time>2020-07-15T14:13:58.047Z</time>
      </trkpt>
      <trkpt lat="68.07926" lon="13.34485">
        <ele>9.592305</ele>
        <time>2020-07-15T14:13:58.552Z</time>
      </trkpt>
      <trkpt lat="68.07963" lon="13.34462">
        <ele>9.817417</ele>
        <time>2020-07-15T14:14:05.965Z</time>
      </trkpt>
      <trkpt lat="68.07989" lon="13.34444">
        <ele>9.980271</ele>
        <time>2020-07-15T14:14:11.026Z</time>
      </trkpt>
      <trkpt lat="68.08021" lon="13.34423">
        <ele>10.178428</ele>
        <time>2020-07-15T14:14:16.615Z</time>
      </trkpt>
      <trkpt lat="68.08055" lon="13.34398">
        <ele>9.821855</ele>
        <time>2020-07-15T14:14:22.416Z</time>
      </trkpt>
      <trkpt lat="68.0807" lon="13.3439">
        <ele>9.611392</ele>
        <time>2020-07-15T14:14:24.758Z</time>
      </trkpt>
      <trkpt lat="68.08329" lon="13.34218">
        <ele>5.933251</ele>
        <time>2020-07-15T14:15:03.441Z</time>
      </trkpt>
      <trkpt lat="68.08416" lon="13.34161">
        <ele>5.297605</ele>
        <time>2020-07-15T14:15:17.483Z</time>
      </trkpt>
      <trkpt lat="68.08432" lon="13.34151">
        <ele>5.315736</ele>
        <time>2020-07-15T14:15:20.138Z</time>
      </trkpt>
      <trkpt lat="68.0856" lon="13.34066">
        <ele>5.5847</ele>
        <time>2020-07-15T14:15:45.720Z</time>
      </trkpt>
      <trkpt lat="68.08728" lon="13.33953">
        <ele>7.872555</ele>
        <time>2020-07-15T14:16:24.951Z</time>
      </trkpt>
      <trkpt lat="68.08752" lon="13.33937">
        <ele>8.019516</ele>
        <time>2020-07-15T14:16:30.480Z</time>
      </trkpt>
      <trkpt lat="68.08786" lon="13.33914">
        <ele>8.230028</ele>
        <time>2020-07-15T14:16:38.002Z</time>
      </trkpt>
      <trkpt lat="68.08991" lon="13.33782">
        <ele>8.925662</ele>
        <time>2020-07-15T14:17:16.880Z</time>
      </trkpt>
      <trkpt lat="68.09241" lon="13.33697">
        <ele>8.989168</ele>
        <time>2020-07-15T14:18:00.472Z</time>
      </trkpt>
      <trkpt lat="68.09326" lon="13.33696">
        <ele>10.051633</ele>
        <time>2020-07-15T14:18:18.604Z</time>
      </trkpt>
      <trkpt lat="68.0954" lon="13.33746">
        <ele>12.944971</ele>
        <time>2020-07-15T14:19:10.296Z</time>
      </trkpt>
      <trkpt lat="68.0979" lon="13.33886">
        <ele>14.192792</ele>
        <time>2020-07-15T14:19:57.575Z</time>
      </trkpt>
      <trkpt lat="68.09901" lon="13.34049">
        <ele>14.522442</ele>
        <time>2020-07-15T14:20:20.524Z</time>
      </trkpt>
      <trkpt lat="68.09972" lon="13.34114">
        <ele>14.805909</ele>
        <time>2020-07-15T14:20:35.093Z</time>
      </trkpt>
      <trkpt lat="68.10188" lon="13.34376">
        <ele>16.267153</ele>
        <time>2020-07-15T14:21:22.778Z</time>
      </trkpt>
      <trkpt lat="68.10246" lon="13.34428">
        <ele>16.605146</ele>
        <time>2020-07-15T14:21:34.472Z</time>
      </trkpt>
      <trkpt lat="68.10279" lon="13.3444">
        <ele>16.789722</ele>
        <time>2020-07-15T14:21:40.886Z</time>
      </trkpt>
      <trkpt lat="68.10388" lon="13.34426">
        <ele>17.004983</ele>
        <time>2020-07-15T14:22:01.748Z</time>
      </trkpt>
      <trkpt lat="68.10493" lon="13.34388">
        <ele>16.859875</ele>
        <time>2020-07-15T14:22:20.887Z</time>
      </trkpt>
      <trkpt lat="68.10857" lon="13.34209">
        <ele>12.56382</ele>
        <time>2020-07-15T14:23:16.776Z</time>
      </trkpt>
      <trkpt lat="68.10917" lon="13.34161">
        <ele>11.505388</ele>
        <time>2020-07-15T14:23:25.798Z</time>
      </trkpt>
      <trkpt lat="68.10964" lon="13.34143">
        <ele>10.715275</ele>
        <time>2020-07-15T14:23:32.509Z</time>
      </trkpt>
      <trkpt lat="68.10998" lon="13.34144">
        <ele>10.128731</ele>
        <time>2020-07-15T14:23:37.478Z</time>
      </trkpt>
      <trkpt lat="68.11035" lon="13.34161">
        <ele>9.45975</ele>
        <time>2020-07-15T14:23:42.760Z</time>
      </trkpt>
      <trkpt lat="68.11139" lon="13.34255">
        <ele>7.480959</ele>
        <time>2020-07-15T14:23:58.361Z</time>
      </trkpt>
      <trkpt lat="68.11187" lon="13.34299">
        <ele>6.851276</ele>
        <time>2020-07-15T14:24:05.789Z</time>
      </trkpt>
      <trkpt lat="68.11188" lon="13.34299">
        <ele>6.84761</ele>
        <time>2020-07-15T14:24:05.850Z</time>
      </trkpt>
      <trkpt lat="68.11317" lon="13.34401">
        <ele>6.061106</ele>
        <time>2020-07-15T14:24:27.806Z</time>
      </trkpt>
      <trkpt lat="68.11374" lon="13.34433">
        <ele>6.382074</ele>
        <time>2020-07-15T14:24:39.058Z</time>
      </trkpt>
      <trkpt lat="68.11388" lon="13.34441">
        <ele>6.56325</ele>
        <time>2020-07-15T14:24:42.492Z</time>
      </trkpt>
      <trkpt lat="68.11541" lon="13.34526">
        <ele>8.167468</ele>
        <time>2020-07-15T14:25:18.478Z</time>
      </trkpt>
      <trkpt lat="68.11547" lon="13.34529">
        <ele>8.172126</ele>
        <time>2020-07-15T14:25:20.065Z</time>
      </trkpt>
      <trkpt lat="68.11561" lon="13.34537">
        <ele>8.184463</ele>
        <time>2020-07-15T14:25:22.741Z</time>
      </trkpt>
      <trkpt lat="68.1158" lon="13.34548">
        <ele>8.201434</ele>
        <time>2020-07-15T14:25:26.758Z</time>
      </trkpt>
      <trkpt lat="68.11648" lon="13.34587">
        <ele>8.260597</ele>
        <time>2020-07-15T14:25:38.722Z</time>
      </trkpt>
      <trkpt lat="68.11829" lon="13.34685">
        <ele>7.300335</ele>
        <time>2020-07-15T14:26:06.661Z</time>
      </trkpt>
      <trkpt lat="68.11839" lon="13.34693">
        <ele>7.23213</ele>
        <time>2020-07-15T14:26:08.272Z</time>
      </trkpt>
      <trkpt lat="68.11841" lon="13.34697">
        <ele>7.212005</ele>
        <time>2020-07-15T14:26:08.618Z</time>
      </trkpt>
      <trkpt lat="68.11843" lon="13.34701">
        <ele>7.19326</ele>
        <time>2020-07-15T14:26:09.298Z</time>
      </trkpt>
      <trkpt lat="68.11951" lon="13.35237">
        <ele>9.362957</ele>
        <time>2020-07-15T14:26:58.120Z</time>
      </trkpt>
      <trkpt lat="68.11977" lon="13.354">
        <ele>10.512589</ele>
        <time>2020-07-15T14:27:14.329Z</time>
      </trkpt>
      <trkpt lat="68.11995" lon="13.35574">
        <ele>11.684828</ele>
        <time>2020-07-15T14:27:30.536Z</time>
      </trkpt>
      <trkpt lat="68.11999" lon="13.35641">
        <ele>12.096932</ele>
        <time>2020-07-15T14:27:36.656Z</time>
      </trkpt>
      <trkpt lat="68.1201" lon="13.35816">
        <ele>12.507247</ele>
        <time>2020-07-15T14:27:51.035Z</time>
      </trkpt>
      <trkpt lat="68.12022" lon="13.36007">
        <ele>12.958509</ele>
        <time>2020-07-15T14:28:04.954Z</time>
      </trkpt>
      <trkpt lat="68.12025" lon="13.36047">
        <ele>13.054124</ele>
        <time>2020-07-15T14:28:07.597Z</time>
      </trkpt>
      <trkpt lat="68.12032" lon="13.36112">
        <ele>13.188427</ele>
        <time>2020-07-15T14:28:11.964Z</time>
      </trkpt>
      <trkpt lat="68.1204" lon="13.36165">
        <ele>13.07295</ele>
        <time>2020-07-15T14:28:15.535Z</time>
      </trkpt>
      <trkpt lat="68.12047" lon="13.36209">
        <ele>12.973926</ele>
        <time>2020-07-15T14:28:18.424Z</time>
      </trkpt>
      <trkpt lat="68.12092" lon="13.36387">
        <ele>12.532124</ele>
        <time>2020-07-15T14:28:31.192Z</time>
      </trkpt>
      <trkpt lat="68.12205" lon="13.36684">
        <ele>12.014387</ele>
        <time>2020-07-15T14:28:57.118Z</time>
      </trkpt>
      <trkpt lat="68.12247" lon="13.36826">
        <ele>11.881574</ele>
        <time>2020-07-15T14:29:09.239Z</time>
      </trkpt>
      <trkpt lat="68.12428" lon="13.37725">
        <ele>13.938582</ele>
        <time>2020-07-15T14:30:23.691Z</time>
      </trkpt>
      <trkpt lat="68.12437" lon="13.37761">
        <ele>14.232281</ele>
        <time>2020-07-15T14:30:27.100Z</time>
      </trkpt>
      <trkpt lat="68.1245" lon="13.37809">
        <ele>14.630529</ele>
        <time>2020-07-15T14:30:31.915Z</time>
      </trkpt>
      <trkpt lat="68.12495" lon="13.37947">
        <ele>15.877331</ele>
        <time>2020-07-15T14:30:47.665Z</time>
      </trkpt>
      <trkpt lat="68.12535" lon="13.3804">
        <ele>16.85302</ele>
        <time>2020-07-15T14:31:00.755Z</time>
      </trkpt>
      <trkpt lat="68.12672" lon="13.38286">
        <ele>22.458961</ele>
        <time>2020-07-15T14:31:48.834Z</time>
      </trkpt>
      <trkpt lat="68.12674" lon="13.38288">
        <ele>22.504265</ele>
        <time>2020-07-15T14:31:49.869Z</time>
      </trkpt>
      <trkpt lat="68.12697" lon="13.38327">
        <ele>23.501628</ele>
        <time>2020-07-15T14:31:57.714Z</time>
      </trkpt>
      <trkpt lat="68.1282" lon="13.38458">
        <ele>29.236239</ele>
        <time>2020-07-15T14:32:40.096Z</time>
      </trkpt>
      <trkpt lat="68.12878" lon="13.38558">
        <ele>32.521436</ele>
        <time>2020-07-15T14:33:01.539Z</time>
      </trkpt>
      <trkpt lat="68.12882" lon="13.3857">
        <ele>32.882918</ele>
        <time>2020-07-15T14:33:04.331Z</time>
      </trkpt>
      <trkpt lat="68.1289" lon="13.38591">
        <ele>33.493664</ele>
        <time>2020-07-15T14:33:07.313Z</time>
      </trkpt>
      <trkpt lat="68.12898" lon="13.38614">
        <ele>34.145407</ele>
        <time>2020-07-15T14:33:10.715Z</time>
      </trkpt>
      <trkpt lat="68.12905" lon="13.3864">
        <ele>34.825563</ele>
        <time>2020-07-15T14:33:15.842Z</time>
      </trkpt>
      <trkpt lat="68.1293" lon="13.38775">
        <ele>37.983025</ele>
        <time>2020-07-15T14:33:35.728Z</time>
      </trkpt>
      <trkpt lat="68.12936" lon="13.38864">
        <ele>39.884909</ele>
        <time>2020-07-15T14:33:48.933Z</time>
      </trkpt>
      <trkpt lat="68.12935" lon="13.38958">
        <ele>41.931961</ele>
        <time>2020-07-15T14:34:02.800Z</time>
      </trkpt>
      <trkpt lat="68.1293" lon="13.3906">
        <ele>44.353101</ele>
        <time>2020-07-15T14:34:17.473Z</time>
      </trkpt>
      <trkpt lat="68.12924" lon="13.39206">
        <ele>47.797177</ele>
        <time>2020-07-15T14:34:40.278Z</time>
      </trkpt>
      <trkpt lat="68.12916" lon="13.39441">
        <ele>52.698185</ele>
        <time>2020-07-15T14:35:13.328Z</time>
      </trkpt>
      <trkpt lat="68.12917" lon="13.39489">
        <ele>52.635071</ele>
        <time>2020-07-15T14:35:19.361Z</time>
      </trkpt>
      <trkpt lat="68.12919" lon="13.3953">
        <ele>52.580516</ele>
        <time>2020-07-15T14:35:23.260Z</time>
      </trkpt>
      <trkpt lat="68.12923" lon="13.39603">
        <ele>52.483482</ele>
        <time>2020-07-15T14:35:30.670Z</time>
      </trkpt>
      <trkpt lat="68.12925" lon="13.39642">
        <ele>52.431751</ele>
        <time>2020-07-15T14:35:32.532Z</time>
      </trkpt>
      <trkpt lat="68.12925" lon="13.39656">
        <ele>52.413323</ele>
        <time>2020-07-15T14:35:33.623Z</time>
      </trkpt>
      <trkpt lat="68.12925" lon="13.39659">
        <ele>52.408841</ele>
        <time>2020-07-15T14:35:33.926Z</time>
      </trkpt>
      <trkpt lat="68.12924" lon="13.39685">
        <ele>52.375002</ele>
        <time>2020-07-15T14:35:36.195Z</time>
      </trkpt>
      <trkpt lat="68.12923" lon="13.39707">
        <ele>52.345081</ele>
        <time>2020-07-15T14:35:37.338Z</time>
      </trkpt>
      <trkpt lat="68.12907" lon="13.39909">
        <ele>51.561524</ele>
        <time>2020-07-15T14:35:47.155Z</time>
      </trkpt>
      <trkpt lat="68.12903" lon="13.39982">
        <ele>49.537941</ele>
        <time>2020-07-15T14:35:50.407Z</time>
      </trkpt>
      <trkpt lat="68.12902" lon="13.39995">
        <ele>49.174659</ele>
        <time>2020-07-15T14:35:50.927Z</time>
      </trkpt>
      <trkpt lat="68.12901" lon="13.40029">
        <ele>48.232574</ele>
        <time>2020-07-15T14:35:52.374Z</time>
      </trkpt>
      <trkpt lat="68.12904" lon="13.40108">
        <ele>46.031437</ele>
        <time>2020-07-15T14:35:55.716Z</time>
      </trkpt>
      <trkpt lat="68.12907" lon="13.40157">
        <ele>44.645401</ele>
        <time>2020-07-15T14:35:57.830Z</time>
      </trkpt>
      <trkpt lat="68.12909" lon="13.40175">
        <ele>44.154471</ele>
        <time>2020-07-15T14:35:58.558Z</time>
      </trkpt>
      <trkpt lat="68.12914" lon="13.40222">
        <ele>42.794075</ele>
        <time>2020-07-15T14:36:00.575Z</time>
      </trkpt>
      <trkpt lat="68.12921" lon="13.40281">
        <ele>41.078431</ele>
        <time>2020-07-15T14:36:03.129Z</time>
      </trkpt>
      <trkpt lat="68.12937" lon="13.40399">
        <ele>37.778632</ele>
        <time>2020-07-15T14:36:08.373Z</time>
      </trkpt>
      <trkpt lat="68.12951" lon="13.40512">
        <ele>35.022609</ele>
        <time>2020-07-15T14:36:13.506Z</time>
      </trkpt>
      <trkpt lat="68.12971" lon="13.40664">
        <ele>31.260935</ele>
        <time>2020-07-15T14:36:20.680Z</time>
      </trkpt>
      <trkpt lat="68.12987" lon="13.40756">
        <ele>28.898265</ele>
        <time>2020-07-15T14:36:25.200Z</time>
      </trkpt>
      <trkpt lat="68.13051" lon="13.4103">
        <ele>21.88689</ele>
        <time>2020-07-15T14:36:39.538Z</time>
      </trkpt>
      <trkpt lat="68.13058" lon="13.41068">
        <ele>20.976986</ele>
        <time>2020-07-15T14:36:41.468Z</time>
      </trkpt>
      <trkpt lat="68.13064" lon="13.41099">
        <ele>20.244759</ele>
        <time>2020-07-15T14:36:42.958Z</time>
      </trkpt>
      <trkpt lat="68.13092" lon="13.41327">
        <ele>15.252915</ele>
        <time>2020-07-15T14:36:53.585Z</time>
      </trkpt>
      <trkpt lat="68.13131" lon="13.41869">
        <ele>5.955462</ele>
        <time>2020-07-15T14:37:18.355Z</time>
      </trkpt>
      <trkpt lat="68.13134" lon="13.41914">
        <ele>5.505867</ele>
        <time>2020-07-15T14:37:20.594Z</time>
      </trkpt>
      <trkpt lat="68.13157" lon="13.42243">
        <ele>3.144143</ele>
        <time>2020-07-15T14:37:39.625Z</time>
      </trkpt>
      <trkpt lat="68.13162" lon="13.42246">
        <ele>3.1983</ele>
        <time>2020-07-15T14:37:40.823Z</time>
      </trkpt>
      <trkpt lat="68.13187" lon="13.42536">
        <ele>4.433372</ele>
        <time>2020-07-15T14:38:05.074Z</time>
      </trkpt>
      <trkpt lat="68.13205" lon="13.42681">
        <ele>5.211271</ele>
        <time>2020-07-15T14:38:20.033Z</time>
      </trkpt>
      <trkpt lat="68.13209" lon="13.42708">
        <ele>5.422249</ele>
        <time>2020-07-15T14:38:22.755Z</time>
      </trkpt>
      <trkpt lat="68.13223" lon="13.42793">
        <ele>6.09688</ele>
        <time>2020-07-15T14:38:31.492Z</time>
      </trkpt>
      <trkpt lat="68.13237" lon="13.42864">
        <ele>6.680016</ele>
        <time>2020-07-15T14:38:39.037Z</time>
      </trkpt>
      <trkpt lat="68.13245" lon="13.42898">
        <ele>6.969976</ele>
        <time>2020-07-15T14:38:42.873Z</time>
      </trkpt>
      <trkpt lat="68.13252" lon="13.42925">
        <ele>7.204267</ele>
        <time>2020-07-15T14:38:46.123Z</time>
      </trkpt>
      <trkpt lat="68.13304" lon="13.43107">
        <ele>8.306906</ele>
        <time>2020-07-15T14:39:04.469Z</time>
      </trkpt>
      <trkpt lat="68.13318" lon="13.43198">
        <ele>8.208461</ele>
        <time>2020-07-15T14:39:12.531Z</time>
      </trkpt>
      <trkpt lat="68.13325" lon="13.43283">
        <ele>8.120201</ele>
        <time>2020-07-15T14:39:18.976Z</time>
      </trkpt>
      <trkpt lat="68.13325" lon="13.43299">
        <ele>8.104589</ele>
        <time>2020-07-15T14:39:19.742Z</time>
      </trkpt>
      <trkpt lat="68.13328" lon="13.43394">
        <ele>8.008887</ele>
        <time>2020-07-15T14:39:25.039Z</time>
      </trkpt>
      <trkpt lat="68.13329" lon="13.43577">
        <ele>7.402863</ele>
        <time>2020-07-15T14:39:35.038Z</time>
      </trkpt>
      <trkpt lat="68.1334" lon="13.43671">
        <ele>6.670689</ele>
        <time>2020-07-15T14:39:40.133Z</time>
      </trkpt>
      <trkpt lat="68.13341" lon="13.43682">
        <ele>6.585408</ele>
        <time>2020-07-15T14:39:40.622Z</time>
      </trkpt>
      <trkpt lat="68.13345" lon="13.43708">
        <ele>6.383374</ele>
        <time>2020-07-15T14:39:42.077Z</time>
      </trkpt>
      <trkpt lat="68.13344" lon="13.43866">
        <ele>5.200969</ele>
        <time>2020-07-15T14:39:51.134Z</time>
      </trkpt>
      <trkpt lat="68.13344" lon="13.43869">
        <ele>5.176272</ele>
        <time>2020-07-15T14:39:51.272Z</time>
      </trkpt>
      <trkpt lat="68.13345" lon="13.43887">
        <ele>5.043018</ele>
        <time>2020-07-15T14:39:52.236Z</time>
      </trkpt>
      <trkpt lat="68.1335" lon="13.43928">
        <ele>4.720737</ele>
        <time>2020-07-15T14:39:54.701Z</time>
      </trkpt>
      <trkpt lat="68.13355" lon="13.43951">
        <ele>4.527316</ele>
        <time>2020-07-15T14:39:56.269Z</time>
      </trkpt>
      <trkpt lat="68.1336" lon="13.4397">
        <ele>4.353433</ele>
        <time>2020-07-15T14:39:57.385Z</time>
      </trkpt>
      <trkpt lat="68.13367" lon="13.43994">
        <ele>4.174243</ele>
        <time>2020-07-15T14:39:58.989Z</time>
      </trkpt>
      <trkpt lat="68.13395" lon="13.44079">
        <ele>3.564427</ele>
        <time>2020-07-15T14:40:05.368Z</time>
      </trkpt>
      <trkpt lat="68.13411" lon="13.44129">
        <ele>3.221085</ele>
        <time>2020-07-15T14:40:08.995Z</time>
      </trkpt>
      <trkpt lat="68.13425" lon="13.44193">
        <ele>2.82452</ele>
        <time>2020-07-15T14:40:13.372Z</time>
      </trkpt>
      <trkpt lat="68.13438" lon="13.44269">
        <ele>2.382618</ele>
        <time>2020-07-15T14:40:18.500Z</time>
      </trkpt>
      <trkpt lat="68.13445" lon="13.44306">
        <ele>2.163218</ele>
        <time>2020-07-15T14:40:20.840Z</time>
      </trkpt>
      <trkpt lat="68.13439" lon="13.44312">
        <ele>2.084467</ele>
        <time>2020-07-15T14:40:21.833Z</time>
      </trkpt>
      <trkpt lat="68.13437" lon="13.44314">
        <ele>2.046134</ele>
        <time>2020-07-15T14:40:22.316Z</time>
      </trkpt>
      <trkpt lat="68.13434" lon="13.44317">
        <ele>2.007802</ele>
        <time>2020-07-15T14:40:22.797Z</time>
      </trkpt>
      <trkpt lat="68.13447" lon="13.44385">
        <ele>1.69698</ele>
        <time>2020-07-15T14:40:27.267Z</time>
      </trkpt>
      <trkpt lat="68.13491" lon="13.44644">
        <ele>1.305556</ele>
        <time>2020-07-15T14:40:44.695Z</time>
      </trkpt>
      <trkpt lat="68.135" lon="13.44689">
        <ele>1.235292</ele>
        <time>2020-07-15T14:40:48.399Z</time>
      </trkpt>
      <trkpt lat="68.1351" lon="13.44734">
        <ele>1.164978</ele>
        <time>2020-07-15T14:40:51.627Z</time>
      </trkpt>
      <trkpt lat="68.13547" lon="13.44887">
        <ele>1.105024</ele>
        <time>2020-07-15T14:41:03.914Z</time>
      </trkpt>
      <trkpt lat="68.13584" lon="13.45012">
        <ele>1.161092</ele>
        <time>2020-07-15T14:41:14.772Z</time>
      </trkpt>
      <trkpt lat="68.13598" lon="13.45052">
        <ele>1.18018</ele>
        <time>2020-07-15T14:41:18.133Z</time>
      </trkpt>
      <trkpt lat="68.13618" lon="13.45107">
        <ele>1.206659</ele>
        <time>2020-07-15T14:41:23.243Z</time>
      </trkpt>
      <trkpt lat="68.13656" lon="13.45197">
        <ele>1.638656</ele>
        <time>2020-07-15T14:41:32.385Z</time>
      </trkpt>
      <trkpt lat="68.13698" lon="13.45274">
        <ele>2.624837</ele>
        <time>2020-07-15T14:41:43.446Z</time>
      </trkpt>
      <trkpt lat="68.13793" lon="13.45396">
        <ele>4.669574</ele>
        <time>2020-07-15T14:42:11.033Z</time>
      </trkpt>
      <trkpt lat="68.13805" lon="13.45409">
        <ele>5.006496</ele>
        <time>2020-07-15T14:42:14.584Z</time>
      </trkpt>
      <trkpt lat="68.13812" lon="13.45401">
        <ele>5.210074</ele>
        <time>2020-07-15T14:42:17.755Z</time>
      </trkpt>
      <trkpt lat="68.13896" lon="13.45485">
        <ele>7.628675</ele>
        <time>2020-07-15T14:42:42.247Z</time>
      </trkpt>
      <trkpt lat="68.13919" lon="13.45506">
        <ele>8.283235</ele>
        <time>2020-07-15T14:42:49.714Z</time>
      </trkpt>
      <trkpt lat="68.1394" lon="13.45524">
        <ele>8.87853</ele>
        <time>2020-07-15T14:42:54.512Z</time>
      </trkpt>
      <trkpt lat="68.13986" lon="13.45548">
        <ele>9.539619</ele>
        <time>2020-07-15T14:43:05.954Z</time>
      </trkpt>
      <trkpt lat="68.14022" lon="13.45551">
        <ele>9.423586</ele>
        <time>2020-07-15T14:43:13.243Z</time>
      </trkpt>
      <trkpt lat="68.14064" lon="13.45537">
        <ele>9.290188</ele>
        <time>2020-07-15T14:43:20.734Z</time>
      </trkpt>
      <trkpt lat="68.1407" lon="13.45548">
        <ele>9.266957</ele>
        <time>2020-07-15T14:43:21.925Z</time>
      </trkpt>
      <trkpt lat="68.14071" lon="13.45555">
        <ele>9.258528</ele>
        <time>2020-07-15T14:43:22.257Z</time>
      </trkpt>
      <trkpt lat="68.14083" lon="13.45549">
        <ele>9.219749</ele>
        <time>2020-07-15T14:43:24.156Z</time>
      </trkpt>
      <trkpt lat="68.1409" lon="13.45548">
        <ele>9.198292</ele>
        <time>2020-07-15T14:43:25.159Z</time>
      </trkpt>
      <trkpt lat="68.14096" lon="13.45546">
        <ele>9.178807</ele>
        <time>2020-07-15T14:43:26.059Z</time>
      </trkpt>
      <trkpt lat="68.1418" lon="13.45503">
        <ele>8.116</ele>
        <time>2020-07-15T14:43:38.157Z</time>
      </trkpt>
      <trkpt lat="68.1427" lon="13.45478">
        <ele>6.06754</ele>
        <time>2020-07-15T14:43:50.538Z</time>
      </trkpt>
      <trkpt lat="68.14358" lon="13.45503">
        <ele>4.205139</ele>
        <time>2020-07-15T14:44:02.673Z</time>
      </trkpt>
      <trkpt lat="68.14438" lon="13.45605">
        <ele>2.50667</ele>
        <time>2020-07-15T14:44:15.159Z</time>
      </trkpt>
      <trkpt lat="68.14508" lon="13.45759">
        <ele>1.297447</ele>
        <time>2020-07-15T14:44:28.643Z</time>
      </trkpt>
      <trkpt lat="68.14673" lon="13.46326">
        <ele>0.381118</ele>
        <time>2020-07-15T14:45:14.277Z</time>
      </trkpt>
      <trkpt lat="68.14713" lon="13.46459">
        <ele>0.425351</ele>
        <time>2020-07-15T14:45:25.948Z</time>
      </trkpt>
      <trkpt lat="68.14978" lon="13.47336">
        <ele>5.29398</ele>
        <time>2020-07-15T14:46:53.757Z</time>
      </trkpt>
      <trkpt lat="68.14996" lon="13.47422">
        <ele>6.193255</ele>
        <time>2020-07-15T14:47:03.969Z</time>
      </trkpt>
      <trkpt lat="68.15012" lon="13.4765">
        <ele>8.290145</ele>
        <time>2020-07-15T14:47:29.592Z</time>
      </trkpt>
      <trkpt lat="68.15004" lon="13.47871">
        <ele>10.191861</ele>
        <time>2020-07-15T14:47:53.761Z</time>
      </trkpt>
      <trkpt lat="68.14989" lon="13.47987">
        <ele>11.243678</ele>
        <time>2020-07-15T14:48:04.378Z</time>
      </trkpt>
      <trkpt lat="68.14966" lon="13.48073">
        <ele>12.072049</ele>
        <time>2020-07-15T14:48:12.012Z</time>
      </trkpt>
      <trkpt lat="68.14927" lon="13.48189">
        <ele>11.581231</ele>
        <time>2020-07-15T14:48:21.695Z</time>
      </trkpt>
      <trkpt lat="68.14891" lon="13.48282">
        <ele>11.155651</ele>
        <time>2020-07-15T14:48:29.155Z</time>
      </trkpt>
      <trkpt lat="68.14847" lon="13.48381">
        <ele>10.671696</ele>
        <time>2020-07-15T14:48:37.719Z</time>
      </trkpt>
      <trkpt lat="68.148" lon="13.48506">
        <ele>10.541732</ele>
        <time>2020-07-15T14:48:47.721Z</time>
      </trkpt>
      <trkpt lat="68.14786" lon="13.48556">
        <ele>10.528226</ele>
        <time>2020-07-15T14:48:51.637Z</time>
      </trkpt>
      <trkpt lat="68.14778" lon="13.48587">
        <ele>10.520281</ele>
        <time>2020-07-15T14:48:54.593Z</time>
      </trkpt>
      <trkpt lat="68.14756" lon="13.48714">
        <ele>10.49016</ele>
        <time>2020-07-15T14:49:05.058Z</time>
      </trkpt>
      <trkpt lat="68.14747" lon="13.48822">
        <ele>10.444776</ele>
        <time>2020-07-15T14:49:13.195Z</time>
      </trkpt>
      <trkpt lat="68.14746" lon="13.48846">
        <ele>10.402688</ele>
        <time>2020-07-15T14:49:15.060Z</time>
      </trkpt>
      <trkpt lat="68.14745" lon="13.48898">
        <ele>10.312526</ele>
        <time>2020-07-15T14:49:18.969Z</time>
      </trkpt>
      <trkpt lat="68.14749" lon="13.49009">
        <ele>10.118285</ele>
        <time>2020-07-15T14:49:26.859Z</time>
      </trkpt>
      <trkpt lat="68.14776" lon="13.49429">
        <ele>8.809998</ele>
        <time>2020-07-15T14:49:51.025Z</time>
      </trkpt>
      <trkpt lat="68.148" lon="13.49966">
        <ele>7.990936</ele>
        <time>2020-07-15T14:50:20.182Z</time>
      </trkpt>
      <trkpt lat="68.14827" lon="13.50156">
        <ele>9.086605</ele>
        <time>2020-07-15T14:50:41.321Z</time>
      </trkpt>
      <trkpt lat="68.14873" lon="13.50333">
        <ele>11.400696</ele>
        <time>2020-07-15T14:51:07.725Z</time>
      </trkpt>
      <trkpt lat="68.14921" lon="13.50495">
        <ele>14.232281</ele>
        <time>2020-07-15T14:51:31.748Z</time>
      </trkpt>
      <trkpt lat="68.14953" lon="13.50602">
        <ele>16.130467</ele>
        <time>2020-07-15T14:51:45.555Z</time>
      </trkpt>
      <trkpt lat="68.14983" lon="13.50693">
        <ele>16.432899</ele>
        <time>2020-07-15T14:51:56.814Z</time>
      </trkpt>
      <trkpt lat="68.14999" lon="13.50739">
        <ele>16.590197</ele>
        <time>2020-07-15T14:52:01.480Z</time>
      </trkpt>
      <trkpt lat="68.15051" lon="13.50861">
        <ele>17.054951</ele>
        <time>2020-07-15T14:52:12.536Z</time>
      </trkpt>
      <trkpt lat="68.15131" lon="13.50988">
        <ele>17.659323</ele>
        <time>2020-07-15T14:52:30.389Z</time>
      </trkpt>
      <trkpt lat="68.15196" lon="13.51054">
        <ele>18.109533</ele>
        <time>2020-07-15T14:52:45.340Z</time>
      </trkpt>
      <trkpt lat="68.15283" lon="13.51116">
        <ele>18.48351</ele>
        <time>2020-07-15T14:53:02.759Z</time>
      </trkpt>
      <trkpt lat="68.15308" lon="13.5114">
        <ele>18.476147</ele>
        <time>2020-07-15T14:53:08.062Z</time>
      </trkpt>
      <trkpt lat="68.1533" lon="13.51165">
        <ele>18.469642</ele>
        <time>2020-07-15T14:53:12.179Z</time>
      </trkpt>
      <trkpt lat="68.15373" lon="13.51233">
        <ele>18.455988</ele>
        <time>2020-07-15T14:53:21.232Z</time>
      </trkpt>
      <trkpt lat="68.15407" lon="13.51312">
        <ele>18.443521</ele>
        <time>2020-07-15T14:53:28.526Z</time>
      </trkpt>
      <trkpt lat="68.1543" lon="13.51375">
        <ele>18.134835</ele>
        <time>2020-07-15T14:53:33.695Z</time>
      </trkpt>
      <trkpt lat="68.15436" lon="13.51391">
        <ele>18.044311</ele>
        <time>2020-07-15T14:53:34.983Z</time>
      </trkpt>
      <trkpt lat="68.15574" lon="13.51827">
        <ele>15.041178</ele>
        <time>2020-07-15T14:54:07.403Z</time>
      </trkpt>
      <trkpt lat="68.15627" lon="13.5201">
        <ele>13.227299</ele>
        <time>2020-07-15T14:54:19.226Z</time>
      </trkpt>
      <trkpt lat="68.15659" lon="13.52186">
        <ele>10.92032</ele>
        <time>2020-07-15T14:54:28.811Z</time>
      </trkpt>
      <trkpt lat="68.15674" lon="13.52351">
        <ele>8.611756</ele>
        <time>2020-07-15T14:54:36.765Z</time>
      </trkpt>
      <trkpt lat="68.15675" lon="13.52533">
        <ele>6.137568</ele>
        <time>2020-07-15T14:54:45.282Z</time>
      </trkpt>
      <trkpt lat="68.15673" lon="13.52588">
        <ele>5.561445</ele>
        <time>2020-07-15T14:54:47.887Z</time>
      </trkpt>
      <trkpt lat="68.15668" lon="13.52644">
        <ele>4.967708</ele>
        <time>2020-07-15T14:54:50.637Z</time>
      </trkpt>
      <trkpt lat="68.15663" lon="13.52694">
        <ele>4.4274</ele>
        <time>2020-07-15T14:54:53.159Z</time>
      </trkpt>
      <trkpt lat="68.15661" lon="13.52713">
        <ele>4.221844</ele>
        <time>2020-07-15T14:54:54.105Z</time>
      </trkpt>
      <trkpt lat="68.15658" lon="13.52736">
        <ele>3.966418</ele>
        <time>2020-07-15T14:54:55.326Z</time>
      </trkpt>
      <trkpt lat="68.15649" lon="13.52796">
        <ele>3.296236</ele>
        <time>2020-07-15T14:54:58.504Z</time>
      </trkpt>
      <trkpt lat="68.15648" lon="13.52805">
        <ele>3.195651</ele>
        <time>2020-07-15T14:54:59.001Z</time>
      </trkpt>
      <trkpt lat="68.15638" lon="13.52857">
        <ele>2.588999</ele>
        <time>2020-07-15T14:55:01.935Z</time>
      </trkpt>
      <trkpt lat="68.15632" lon="13.52883">
        <ele>2.271301</ele>
        <time>2020-07-15T14:55:03.488Z</time>
      </trkpt>
      <trkpt lat="68.1562" lon="13.52935">
        <ele>1.631668</ele>
        <time>2020-07-15T14:55:06.673Z</time>
      </trkpt>
      <trkpt lat="68.15613" lon="13.5296">
        <ele>1.300701</ele>
        <time>2020-07-15T14:55:08.332Z</time>
      </trkpt>
      <trkpt lat="68.15598" lon="13.5301">
        <ele>1.023247</ele>
        <time>2020-07-15T14:55:12.009Z</time>
      </trkpt>
      <trkpt lat="68.15588" lon="13.53039">
        <ele>0.942845</ele>
        <time>2020-07-15T14:55:14.199Z</time>
      </trkpt>
      <trkpt lat="68.15578" lon="13.53065">
        <ele>0.869389</ele>
        <time>2020-07-15T14:55:16.403Z</time>
      </trkpt>
      <trkpt lat="68.15567" lon="13.53095">
        <ele>0.781721</ele>
        <time>2020-07-15T14:55:18.940Z</time>
      </trkpt>
      <trkpt lat="68.15523" lon="13.532">
        <ele>0.462055</ele>
        <time>2020-07-15T14:55:28.879Z</time>
      </trkpt>
      <trkpt lat="68.15519" lon="13.53209">
        <ele>0.437227</ele>
        <time>2020-07-15T14:55:29.693Z</time>
      </trkpt>
      <trkpt lat="68.15462" lon="13.5334">
        <ele>0.308901</ele>
        <time>2020-07-15T14:55:43.275Z</time>
      </trkpt>
      <trkpt lat="68.15457" lon="13.53354">
        <ele>0.369082</ele>
        <time>2020-07-15T14:55:44.648Z</time>
      </trkpt>
      <trkpt lat="68.15365" lon="13.53565">
        <ele>1.359648</ele>
        <time>2020-07-15T14:56:08.813Z</time>
      </trkpt>
      <trkpt lat="68.15151" lon="13.5406">
        <ele>6.410119</ele>
        <time>2020-07-15T14:57:16.657Z</time>
      </trkpt>
      <trkpt lat="68.15104" lon="13.54166">
        <ele>7.661238</ele>
        <time>2020-07-15T14:57:31.906Z</time>
      </trkpt>
      <trkpt lat="68.15086" lon="13.54206">
        <ele>8.139824</ele>
        <time>2020-07-15T14:57:37.793Z</time>
      </trkpt>
      <trkpt lat="68.15064" lon="13.54253">
        <ele>8.692039</ele>
        <time>2020-07-15T14:57:44.698Z</time>
      </trkpt>
      <trkpt lat="68.14988" lon="13.5439">
        <ele>9.835863</ele>
        <time>2020-07-15T14:58:05.953Z</time>
      </trkpt>
      <trkpt lat="68.14901" lon="13.54496">
        <ele>10.840251</ele>
        <time>2020-07-15T14:58:25.404Z</time>
      </trkpt>
      <trkpt lat="68.14836" lon="13.54545">
        <ele>10.570622</ele>
        <time>2020-07-15T14:58:37.206Z</time>
      </trkpt>
      <trkpt lat="68.14748" lon="13.5458">
        <ele>10.212098</ele>
        <time>2020-07-15T14:58:51.589Z</time>
      </trkpt>
      <trkpt lat="68.14633" lon="13.5461">
        <ele>8.748574</ele>
        <time>2020-07-15T14:59:08.589Z</time>
      </trkpt>
      <trkpt lat="68.14603" lon="13.54618">
        <ele>8.334681</ele>
        <time>2020-07-15T14:59:13.037Z</time>
      </trkpt>
      <trkpt lat="68.14582" lon="13.54624">
        <ele>8.052302</ele>
        <time>2020-07-15T14:59:16.065Z</time>
      </trkpt>
      <trkpt lat="68.14559" lon="13.5463">
        <ele>7.732922</ele>
        <time>2020-07-15T14:59:19.545Z</time>
      </trkpt>
      <trkpt lat="68.14506" lon="13.54645">
        <ele>7.848721</ele>
        <time>2020-07-15T14:59:27.789Z</time>
      </trkpt>
      <trkpt lat="68.14403" lon="13.54692">
        <ele>8.13204</ele>
        <time>2020-07-15T14:59:47.902Z</time>
      </trkpt>
      <trkpt lat="68.1439" lon="13.54701">
        <ele>8.167079</ele>
        <time>2020-07-15T14:59:50.764Z</time>
      </trkpt>
      <trkpt lat="68.14365" lon="13.54722">
        <ele>8.605471</ele>
        <time>2020-07-15T14:59:56.962Z</time>
      </trkpt>
      <trkpt lat="68.14347" lon="13.5474">
        <ele>9.139685</ele>
        <time>2020-07-15T15:00:01.859Z</time>
      </trkpt>
      <trkpt lat="68.14342" lon="13.54744">
        <ele>9.262577</ele>
        <time>2020-07-15T15:00:03.381Z</time>
      </trkpt>
      <trkpt lat="68.14264" lon="13.54843">
        <ele>11.597857</ele>
        <time>2020-07-15T15:00:26.964Z</time>
      </trkpt>
      <trkpt lat="68.14223" lon="13.54902">
        <ele>12.838648</ele>
        <time>2020-07-15T15:00:40.440Z</time>
      </trkpt>
      <trkpt lat="68.14206" lon="13.54928">
        <ele>13.303916</ele>
        <time>2020-07-15T15:00:46.438Z</time>
      </trkpt>
      <trkpt lat="68.1406" lon="13.55145">
        <ele>16.949547</ele>
        <time>2020-07-15T15:01:28.372Z</time>
      </trkpt>
      <trkpt lat="68.14058" lon="13.55148">
        <ele>16.949525</ele>
        <time>2020-07-15T15:01:28.866Z</time>
      </trkpt>
      <trkpt lat="68.1404" lon="13.55176">
        <ele>16.713428</ele>
        <time>2020-07-15T15:01:32.721Z</time>
      </trkpt>
      <trkpt lat="68.14031" lon="13.55189">
        <ele>16.601284</ele>
        <time>2020-07-15T15:01:34.476Z</time>
      </trkpt>
      <trkpt lat="68.14012" lon="13.55216">
        <ele>16.366966</ele>
        <time>2020-07-15T15:01:37.955Z</time>
      </trkpt>
      <trkpt lat="68.14005" lon="13.55227">
        <ele>16.273906</ele>
        <time>2020-07-15T15:01:39.279Z</time>
      </trkpt>
      <trkpt lat="68.13984" lon="13.55258">
        <ele>16.008492</ele>
        <time>2020-07-15T15:01:42.949Z</time>
      </trkpt>
      <trkpt lat="68.13936" lon="13.55329">
        <ele>15.396212</ele>
        <time>2020-07-15T15:01:50.811Z</time>
      </trkpt>
      <trkpt lat="68.13809" lon="13.55518">
        <ele>12.328986</ele>
        <time>2020-07-15T15:02:10.297Z</time>
      </trkpt>
      <trkpt lat="68.13746" lon="13.55636">
        <ele>10.462951</ele>
        <time>2020-07-15T15:02:20.961Z</time>
      </trkpt>
      <trkpt lat="68.13736" lon="13.55664">
        <ele>10.24182</ele>
        <time>2020-07-15T15:02:22.947Z</time>
      </trkpt>
      <trkpt lat="68.13721" lon="13.5571">
        <ele>9.893482</ele>
        <time>2020-07-15T15:02:26.113Z</time>
      </trkpt>
      <trkpt lat="68.13675" lon="13.55895">
        <ele>8.6221</ele>
        <time>2020-07-15T15:02:38.047Z</time>
      </trkpt>
      <trkpt lat="68.13672" lon="13.5591">
        <ele>8.515001</ele>
        <time>2020-07-15T15:02:39.035Z</time>
      </trkpt>
      <trkpt lat="68.13666" lon="13.55934">
        <ele>8.350927</ele>
        <time>2020-07-15T15:02:40.760Z</time>
      </trkpt>
      <trkpt lat="68.13661" lon="13.55948">
        <ele>8.246206</ele>
        <time>2020-07-15T15:02:41.823Z</time>
      </trkpt>
      <trkpt lat="68.13645" lon="13.56006">
        <ele>7.83477</ele>
        <time>2020-07-15T15:02:45.999Z</time>
      </trkpt>
      <trkpt lat="68.13642" lon="13.56017">
        <ele>7.752483</ele>
        <time>2020-07-15T15:02:46.846Z</time>
      </trkpt>
      <trkpt lat="68.13632" lon="13.56047">
        <ele>7.753814</ele>
        <time>2020-07-15T15:02:49.353Z</time>
      </trkpt>
      <trkpt lat="68.1363" lon="13.56054">
        <ele>7.754812</ele>
        <time>2020-07-15T15:02:49.854Z</time>
      </trkpt>
      <trkpt lat="68.13634" lon="13.56066">
        <ele>7.756636</ele>
        <time>2020-07-15T15:02:51.194Z</time>
      </trkpt>
      <trkpt lat="68.1364" lon="13.56086">
        <ele>7.759554</ele>
        <time>2020-07-15T15:02:53.488Z</time>
      </trkpt>
      <trkpt lat="68.13652" lon="13.56148">
        <ele>7.767409</ele>
        <time>2020-07-15T15:02:58.172Z</time>
      </trkpt>
      <trkpt lat="68.13662" lon="13.56223">
        <ele>7.776249</ele>
        <time>2020-07-15T15:03:03.649Z</time>
      </trkpt>
      <trkpt lat="68.13665" lon="13.5626">
        <ele>7.780424</ele>
        <time>2020-07-15T15:03:06.274Z</time>
      </trkpt>
      <trkpt lat="68.13669" lon="13.56305">
        <ele>7.78564</ele>
        <time>2020-07-15T15:03:09.643Z</time>
      </trkpt>
      <trkpt lat="68.13705" lon="13.56706">
        <ele>8.140076</ele>
        <time>2020-07-15T15:03:41.423Z</time>
      </trkpt>
      <trkpt lat="68.13708" lon="13.56731">
        <ele>8.174657</ele>
        <time>2020-07-15T15:03:43.452Z</time>
      </trkpt>
      <trkpt lat="68.13711" lon="13.56758">
        <ele>8.212602</ele>
        <time>2020-07-15T15:03:45.502Z</time>
      </trkpt>
      <trkpt lat="68.13728" lon="13.57023">
        <ele>8.249025</ele>
        <time>2020-07-15T15:04:03.945Z</time>
      </trkpt>
      <trkpt lat="68.1373" lon="13.57051">
        <ele>8.188924</ele>
        <time>2020-07-15T15:04:05.842Z</time>
      </trkpt>
      <trkpt lat="68.13731" lon="13.57072">
        <ele>8.144005</ele>
        <time>2020-07-15T15:04:07.089Z</time>
      </trkpt>
      <trkpt lat="68.13741" lon="13.57186">
        <ele>7.89623</ele>
        <time>2020-07-15T15:04:14.454Z</time>
      </trkpt>
      <trkpt lat="68.13749" lon="13.57234">
        <ele>7.783665</ele>
        <time>2020-07-15T15:04:17.872Z</time>
      </trkpt>
      <trkpt lat="68.13775" lon="13.57319">
        <ele>7.555467</ele>
        <time>2020-07-15T15:04:24.456Z</time>
      </trkpt>
      <trkpt lat="68.13781" lon="13.57336">
        <ele>7.502842</ele>
        <time>2020-07-15T15:04:25.878Z</time>
      </trkpt>
      <trkpt lat="68.13832" lon="13.57474">
        <ele>7.337363</ele>
        <time>2020-07-15T15:04:37.945Z</time>
      </trkpt>
      <trkpt lat="68.13881" lon="13.57605">
        <ele>7.232947</ele>
        <time>2020-07-15T15:04:50.612Z</time>
      </trkpt>
      <trkpt lat="68.13926" lon="13.57724">
        <ele>7.260704</ele>
        <time>2020-07-15T15:05:03.268Z</time>
      </trkpt>
      <trkpt lat="68.13992" lon="13.57902">
        <ele>8.129715</ele>
        <time>2020-07-15T15:05:23.449Z</time>
      </trkpt>
      <trkpt lat="68.14025" lon="13.57992">
        <ele>8.566193</ele>
        <time>2020-07-15T15:05:33.931Z</time>
      </trkpt>
      <trkpt lat="68.1407" lon="13.5811">
        <ele>9.02483</ele>
        <time>2020-07-15T15:05:47.803Z</time>
      </trkpt>
      <trkpt lat="68.14071" lon="13.58112">
        <ele>9.02957</ele>
        <time>2020-07-15T15:05:47.998Z</time>
      </trkpt>
      <trkpt lat="68.14077" lon="13.58129">
        <ele>9.079241</ele>
        <time>2020-07-15T15:05:49.858Z</time>
      </trkpt>
      <trkpt lat="68.14081" lon="13.58139">
        <ele>9.109507</ele>
        <time>2020-07-15T15:05:51.014Z</time>
      </trkpt>
      <trkpt lat="68.14109" lon="13.58216">
        <ele>9.334651</ele>
        <time>2020-07-15T15:05:59.269Z</time>
      </trkpt>
      <trkpt lat="68.14134" lon="13.58286">
        <ele>9.539155</ele>
        <time>2020-07-15T15:06:06.545Z</time>
      </trkpt>
      <trkpt lat="68.14145" lon="13.58314">
        <ele>9.621908</ele>
        <time>2020-07-15T15:06:09.429Z</time>
      </trkpt>
      <trkpt lat="68.1417" lon="13.58384">
        <ele>9.824993</ele>
        <time>2020-07-15T15:06:16.475Z</time>
      </trkpt>
      <trkpt lat="68.14182" lon="13.58417">
        <ele>9.825542</ele>
        <time>2020-07-15T15:06:19.733Z</time>
      </trkpt>
      <trkpt lat="68.14203" lon="13.58502">
        <ele>9.79046</ele>
        <time>2020-07-15T15:06:26.878Z</time>
      </trkpt>
      <trkpt lat="68.14209" lon="13.58541">
        <ele>9.776222</ele>
        <time>2020-07-15T15:06:29.697Z</time>
      </trkpt>
      <trkpt lat="68.14229" lon="13.58678">
        <ele>9.725831</ele>
        <time>2020-07-15T15:06:39.553Z</time>
      </trkpt>
      <trkpt lat="68.14262" lon="13.58909">
        <ele>9.628802</ele>
        <time>2020-07-15T15:06:56.008Z</time>
      </trkpt>
      <trkpt lat="68.14292" lon="13.59116">
        <ele>9.523809</ele>
        <time>2020-07-15T15:07:10.945Z</time>
      </trkpt>
      <trkpt lat="68.14307" lon="13.59223">
        <ele>9.46981</ele>
        <time>2020-07-15T15:07:18.767Z</time>
      </trkpt>
      <trkpt lat="68.14303" lon="13.59233">
        <ele>9.463559</ele>
        <time>2020-07-15T15:07:19.728Z</time>
      </trkpt>
      <trkpt lat="68.14359" lon="13.5961">
        <ele>9.583949</ele>
        <time>2020-07-15T15:07:48.459Z</time>
      </trkpt>
      <trkpt lat="68.14433" lon="13.59923">
        <ele>9.703801</ele>
        <time>2020-07-15T15:08:14.433Z</time>
      </trkpt>
      <trkpt lat="68.14438" lon="13.59947">
        <ele>9.712341</ele>
        <time>2020-07-15T15:08:16.425Z</time>
      </trkpt>
      <trkpt lat="68.14442" lon="13.59964">
        <ele>9.71853</ele>
        <time>2020-07-15T15:08:17.893Z</time>
      </trkpt>
      <trkpt lat="68.14473" lon="13.60089">
        <ele>9.763243</ele>
        <time>2020-07-15T15:08:28.378Z</time>
      </trkpt>
      <trkpt lat="68.14496" lon="13.60185">
        <ele>9.801396</ele>
        <time>2020-07-15T15:08:36.342Z</time>
      </trkpt>
      <trkpt lat="68.14499" lon="13.60178">
        <ele>9.805095</ele>
        <time>2020-07-15T15:08:37.110Z</time>
      </trkpt>
      <trkpt lat="68.14508" lon="13.60212">
        <ele>9.819645</ele>
        <time>2020-07-15T15:08:40.002Z</time>
      </trkpt>
      <trkpt lat="68.14522" lon="13.60266">
        <ele>9.842659</ele>
        <time>2020-07-15T15:08:44.623Z</time>
      </trkpt>
      <trkpt lat="68.14526" lon="13.6026">
        <ele>9.846902</ele>
        <time>2020-07-15T15:08:45.477Z</time>
      </trkpt>
      <trkpt lat="68.1455" lon="13.60365">
        <ele>9.890097</ele>
        <time>2020-07-15T15:08:53.766Z</time>
      </trkpt>
      <trkpt lat="68.14554" lon="13.60382">
        <ele>9.897541</ele>
        <time>2020-07-15T15:08:55.194Z</time>
      </trkpt>
      <trkpt lat="68.14566" lon="13.60429">
        <ele>9.917082</ele>
        <time>2020-07-15T15:08:58.959Z</time>
      </trkpt>
      <trkpt lat="68.14595" lon="13.60555">
        <ele>9.951181</ele>
        <time>2020-07-15T15:09:09.041Z</time>
      </trkpt>
      <trkpt lat="68.14642" lon="13.60724">
        <ele>9.976632</ele>
        <time>2020-07-15T15:09:23.206Z</time>
      </trkpt>
      <trkpt lat="68.14644" lon="13.60731">
        <ele>9.977633</ele>
        <time>2020-07-15T15:09:23.753Z</time>
      </trkpt>
      <trkpt lat="68.14646" lon="13.60739">
        <ele>9.978768</ele>
        <time>2020-07-15T15:09:24.376Z</time>
      </trkpt>
      <trkpt lat="68.14656" lon="13.60777">
        <ele>9.984345</ele>
        <time>2020-07-15T15:09:27.455Z</time>
      </trkpt>
      <trkpt lat="68.1466" lon="13.6079">
        <ele>9.986407</ele>
        <time>2020-07-15T15:09:28.582Z</time>
      </trkpt>
      <trkpt lat="68.14664" lon="13.60804">
        <ele>9.98845</ele>
        <time>2020-07-15T15:09:29.707Z</time>
      </trkpt>
      <trkpt lat="68.14658" lon="13.60813">
        <ele>9.990455</ele>
        <time>2020-07-15T15:09:30.858Z</time>
      </trkpt>
      <trkpt lat="68.14665" lon="13.60837">
        <ele>9.994074</ele>
        <time>2020-07-15T15:09:32.937Z</time>
      </trkpt>
      <trkpt lat="68.1468" lon="13.60891">
        <ele>10.013814</ele>
        <time>2020-07-15T15:09:37.566Z</time>
      </trkpt>
      <trkpt lat="68.14676" lon="13.60899">
        <ele>10.024843</ele>
        <time>2020-07-15T15:09:38.803Z</time>
      </trkpt>
      <trkpt lat="68.1469" lon="13.60951">
        <ele>10.074565</ele>
        <time>2020-07-15T15:09:43.213Z</time>
      </trkpt>
      <trkpt lat="68.14692" lon="13.6096">
        <ele>10.083208</ele>
        <time>2020-07-15T15:09:43.986Z</time>
      </trkpt>
      <trkpt lat="68.1472" lon="13.61064">
        <ele>10.183783</ele>
        <time>2020-07-15T15:09:52.966Z</time>
      </trkpt>
      <trkpt lat="68.14723" lon="13.61077">
        <ele>10.196018</ele>
        <time>2020-07-15T15:09:54.110Z</time>
      </trkpt>
      <trkpt lat="68.14734" lon="13.61128">
        <ele>10.241517</ele>
        <time>2020-07-15T15:09:58.318Z</time>
      </trkpt>
      <trkpt lat="68.14734" lon="13.61139">
        <ele>10.249792</ele>
        <time>2020-07-15T15:09:59.113Z</time>
      </trkpt>
      <trkpt lat="68.14727" lon="13.61167">
        <ele>10.276023</ele>
        <time>2020-07-15T15:10:01.547Z</time>
      </trkpt>
      <trkpt lat="68.14699" lon="13.61295">
        <ele>10.394388</ele>
        <time>2020-07-15T15:10:12.767Z</time>
      </trkpt>
      <trkpt lat="68.14693" lon="13.61324">
        <ele>10.423934</ele>
        <time>2020-07-15T15:10:15.214Z</time>
      </trkpt>
      <trkpt lat="68.14692" lon="13.61327">
        <ele>10.427333</ele>
        <time>2020-07-15T15:10:15.544Z</time>
      </trkpt>
      <trkpt lat="68.14668" lon="13.61431">
        <ele>10.536957</ele>
        <time>2020-07-15T15:10:24.526Z</time>
      </trkpt>
      <trkpt lat="68.14666" lon="13.6144">
        <ele>10.546338</ele>
        <time>2020-07-15T15:10:25.336Z</time>
      </trkpt>
      <trkpt lat="68.14669" lon="13.61445">
        <ele>10.556088</ele>
        <time>2020-07-15T15:10:26.079Z</time>
      </trkpt>
      <trkpt lat="68.14666" lon="13.6146">
        <ele>10.571782</ele>
        <time>2020-07-15T15:10:27.512Z</time>
      </trkpt>
      <trkpt lat="68.1464" lon="13.61577">
        <ele>10.692791</ele>
        <time>2020-07-15T15:10:37.120Z</time>
      </trkpt>
      <trkpt lat="68.14628" lon="13.61628">
        <ele>10.746691</ele>
        <time>2020-07-15T15:10:41.477Z</time>
      </trkpt>
      <trkpt lat="68.14621" lon="13.61658">
        <ele>10.778609</ele>
        <time>2020-07-15T15:10:43.849Z</time>
      </trkpt>
      <trkpt lat="68.1461" lon="13.61692">
        <ele>10.794901</ele>
        <time>2020-07-15T15:10:46.971Z</time>
      </trkpt>
      <trkpt lat="68.14604" lon="13.61709">
        <ele>10.763907</ele>
        <time>2020-07-15T15:10:48.629Z</time>
      </trkpt>
      <trkpt lat="68.14599" lon="13.61727">
        <ele>10.733073</ele>
        <time>2020-07-15T15:10:50.085Z</time>
      </trkpt>
      <trkpt lat="68.14595" lon="13.61729">
        <ele>10.717004</ele>
        <time>2020-07-15T15:10:50.817Z</time>
      </trkpt>
      <trkpt lat="68.14592" lon="13.61734">
        <ele>10.706223</ele>
        <time>2020-07-15T15:10:51.313Z</time>
      </trkpt>
      <trkpt lat="68.1459" lon="13.61739">
        <ele>10.695381</ele>
        <time>2020-07-15T15:10:51.853Z</time>
      </trkpt>
      <trkpt lat="68.14588" lon="13.61754">
        <ele>10.674095</ele>
        <time>2020-07-15T15:10:52.893Z</time>
      </trkpt>
      <trkpt lat="68.14588" lon="13.61764">
        <ele>10.660706</ele>
        <time>2020-07-15T15:10:53.585Z</time>
      </trkpt>
      <trkpt lat="68.14589" lon="13.61773">
        <ele>10.647399</ele>
        <time>2020-07-15T15:10:54.323Z</time>
      </trkpt>
      <trkpt lat="68.14588" lon="13.61783">
        <ele>10.633393</ele>
        <time>2020-07-15T15:10:54.960Z</time>
      </trkpt>
      <trkpt lat="68.14581" lon="13.61817">
        <ele>10.582169</ele>
        <time>2020-07-15T15:10:57.235Z</time>
      </trkpt>
      <trkpt lat="68.14578" lon="13.61835">
        <ele>10.554641</ele>
        <time>2020-07-15T15:10:58.538Z</time>
      </trkpt>
      <trkpt lat="68.14573" lon="13.61869">
        <ele>10.505228</ele>
        <time>2020-07-15T15:11:00.847Z</time>
      </trkpt>
      <trkpt lat="68.1457" lon="13.61887">
        <ele>10.477955</ele>
        <time>2020-07-15T15:11:02.043Z</time>
      </trkpt>
      <trkpt lat="68.14542" lon="13.6201">
        <ele>10.283749</ele>
        <time>2020-07-15T15:11:10.751Z</time>
      </trkpt>
      <trkpt lat="68.14529" lon="13.62069">
        <ele>10.190237</ele>
        <time>2020-07-15T15:11:14.944Z</time>
      </trkpt>
      <trkpt lat="68.14533" lon="13.62076">
        <ele>10.172878</ele>
        <time>2020-07-15T15:11:15.804Z</time>
      </trkpt>
      <trkpt lat="68.14516" lon="13.62148">
        <ele>10.043133</ele>
        <time>2020-07-15T15:11:21.391Z</time>
      </trkpt>
      <trkpt lat="68.1449" lon="13.62261">
        <ele>9.837269</ele>
        <time>2020-07-15T15:11:30.372Z</time>
      </trkpt>
      <trkpt lat="68.14467" lon="13.62362">
        <ele>9.654093</ele>
        <time>2020-07-15T15:11:38.264Z</time>
      </trkpt>
      <trkpt lat="68.14465" lon="13.62369">
        <ele>9.641366</ele>
        <time>2020-07-15T15:11:38.832Z</time>
      </trkpt>
      <trkpt lat="68.14406" lon="13.62624">
        <ele>8.795608</ele>
        <time>2020-07-15T15:11:57.766Z</time>
      </trkpt>
      <trkpt lat="68.14402" lon="13.62619">
        <ele>8.748013</ele>
        <time>2020-07-15T15:11:58.411Z</time>
      </trkpt>
      <trkpt lat="68.14397" lon="13.62642">
        <ele>8.637469</ele>
        <time>2020-07-15T15:12:00.027Z</time>
      </trkpt>
      <trkpt lat="68.14384" lon="13.62738">
        <ele>8.220083</ele>
        <time>2020-07-15T15:12:05.630Z</time>
      </trkpt>
      <trkpt lat="68.1438" lon="13.62847">
        <ele>7.776831</ele>
        <time>2020-07-15T15:12:11.659Z</time>
      </trkpt>
      <trkpt lat="68.14382" lon="13.62901">
        <ele>7.55621</ele>
        <time>2020-07-15T15:12:14.689Z</time>
      </trkpt>
      <trkpt lat="68.14387" lon="13.62898">
        <ele>7.498644</ele>
        <time>2020-07-15T15:12:18.331Z</time>
      </trkpt>
      <trkpt lat="68.14388" lon="13.62915">
        <ele>7.435982</ele>
        <time>2020-07-15T15:12:19.233Z</time>
      </trkpt>
      <trkpt lat="68.14388" lon="13.62923">
        <ele>7.418014</ele>
        <time>2020-07-15T15:12:19.662Z</time>
      </trkpt>
      <trkpt lat="68.14391" lon="13.62958">
        <ele>7.339755</ele>
        <time>2020-07-15T15:12:21.839Z</time>
      </trkpt>
      <trkpt lat="68.14392" lon="13.62977">
        <ele>7.296733</ele>
        <time>2020-07-15T15:12:22.939Z</time>
      </trkpt>
      <trkpt lat="68.14415" lon="13.63077">
        <ele>7.03831</ele>
        <time>2020-07-15T15:12:30.127Z</time>
      </trkpt>
      <trkpt lat="68.14417" lon="13.63091">
        <ele>7.004916</ele>
        <time>2020-07-15T15:12:30.966Z</time>
      </trkpt>
      <trkpt lat="68.14432" lon="13.63117">
        <ele>6.899524</ele>
        <time>2020-07-15T15:12:33.916Z</time>
      </trkpt>
      <trkpt lat="68.14478" lon="13.63226">
        <ele>6.535728</ele>
        <time>2020-07-15T15:12:44.583Z</time>
      </trkpt>
      <trkpt lat="68.1455" lon="13.63355">
        <ele>6.615682</ele>
        <time>2020-07-15T15:13:02.277Z</time>
      </trkpt>
      <trkpt lat="68.14567" lon="13.63402">
        <ele>6.713598</ele>
        <time>2020-07-15T15:13:07.330Z</time>
      </trkpt>
      <trkpt lat="68.14634" lon="13.63692">
        <ele>7.226489</ele>
        <time>2020-07-15T15:13:32.070Z</time>
      </trkpt>
      <trkpt lat="68.14639" lon="13.63728">
        <ele>7.288529</ele>
        <time>2020-07-15T15:13:34.869Z</time>
      </trkpt>
      <trkpt lat="68.14644" lon="13.63784">
        <ele>7.380497</ele>
        <time>2020-07-15T15:13:39.148Z</time>
      </trkpt>
      <trkpt lat="68.14644" lon="13.63806">
        <ele>7.415719</ele>
        <time>2020-07-15T15:13:40.720Z</time>
      </trkpt>
      <trkpt lat="68.14643" lon="13.63856">
        <ele>7.495869</ele>
        <time>2020-07-15T15:13:44.479Z</time>
      </trkpt>
      <trkpt lat="68.14639" lon="13.63911">
        <ele>7.584617</ele>
        <time>2020-07-15T15:13:48.660Z</time>
      </trkpt>
      <trkpt lat="68.14633" lon="13.63956">
        <ele>7.660957</ele>
        <time>2020-07-15T15:13:52.308Z</time>
      </trkpt>
      <trkpt lat="68.14625" lon="13.64017">
        <ele>7.76237</ele>
        <time>2020-07-15T15:13:57.196Z</time>
      </trkpt>
      <trkpt lat="68.14615" lon="13.64086">
        <ele>7.90094</ele>
        <time>2020-07-15T15:14:02.876Z</time>
      </trkpt>
      <trkpt lat="68.14597" lon="13.64187">
        <ele>8.263187</ele>
        <time>2020-07-15T15:14:11.262Z</time>
      </trkpt>
      <trkpt lat="68.14595" lon="13.64196">
        <ele>8.296479</ele>
        <time>2020-07-15T15:14:12.028Z</time>
      </trkpt>
      <trkpt lat="68.14565" lon="13.6437">
        <ele>8.922574</ele>
        <time>2020-07-15T15:14:27.254Z</time>
      </trkpt>
      <trkpt lat="68.14532" lon="13.64557">
        <ele>9.526075</ele>
        <time>2020-07-15T15:14:44.754Z</time>
      </trkpt>
      <trkpt lat="68.14522" lon="13.64626">
        <ele>9.666134</ele>
        <time>2020-07-15T15:14:51.099Z</time>
      </trkpt>
      <trkpt lat="68.1452" lon="13.64705">
        <ele>9.815342</ele>
        <time>2020-07-15T15:14:57.106Z</time>
      </trkpt>
      <trkpt lat="68.14527" lon="13.64746">
        <ele>9.899632</ele>
        <time>2020-07-15T15:15:00.206Z</time>
      </trkpt>
      <trkpt lat="68.14565" lon="13.64885">
        <ele>10.22774</ele>
        <time>2020-07-15T15:15:12.649Z</time>
      </trkpt>
      <trkpt lat="68.14563" lon="13.6489">
        <ele>10.242885</ele>
        <time>2020-07-15T15:15:14.740Z</time>
      </trkpt>
      <trkpt lat="68.14563" lon="13.64891">
        <ele>10.246063</ele>
        <time>2020-07-15T15:15:14.806Z</time>
      </trkpt>
      <trkpt lat="68.14603" lon="13.6504">
        <ele>10.446482</ele>
        <time>2020-07-15T15:15:28.247Z</time>
      </trkpt>
      <trkpt lat="68.14601" lon="13.65062">
        <ele>10.46391</ele>
        <time>2020-07-15T15:15:29.545Z</time>
      </trkpt>
      <trkpt lat="68.14587" lon="13.65148">
        <ele>10.538174</ele>
        <time>2020-07-15T15:15:36.147Z</time>
      </trkpt>
      <trkpt lat="68.14578" lon="13.65199">
        <ele>10.581512</ele>
        <time>2020-07-15T15:15:40.097Z</time>
      </trkpt>
      <trkpt lat="68.14575" lon="13.65218">
        <ele>10.598078</ele>
        <time>2020-07-15T15:15:41.597Z</time>
      </trkpt>
      <trkpt lat="68.14593" lon="13.6524">
        <ele>10.640498</ele>
        <time>2020-07-15T15:15:44.776Z</time>
      </trkpt>
      <trkpt lat="68.14763" lon="13.65434">
        <ele>12.198567</ele>
        <time>2020-07-15T15:16:23.049Z</time>
      </trkpt>
      <trkpt lat="68.14841" lon="13.65557">
        <ele>13.503252</ele>
        <time>2020-07-15T15:16:43.916Z</time>
      </trkpt>
      <trkpt lat="68.14851" lon="13.65579">
        <ele>13.711624</ele>
        <time>2020-07-15T15:16:47.155Z</time>
      </trkpt>
      <trkpt lat="68.1486" lon="13.65611">
        <ele>13.974606</ele>
        <time>2020-07-15T15:16:50.544Z</time>
      </trkpt>
      <trkpt lat="68.14882" lon="13.65713">
        <ele>14.710209</ele>
        <time>2020-07-15T15:17:00.496Z</time>
      </trkpt>
      <trkpt lat="68.14888" lon="13.65802">
        <ele>15.283681</ele>
        <time>2020-07-15T15:17:08.630Z</time>
      </trkpt>
      <trkpt lat="68.14888" lon="13.65844">
        <ele>15.551839</ele>
        <time>2020-07-15T15:17:12.708Z</time>
      </trkpt>
      <trkpt lat="68.14885" lon="13.65957">
        <ele>16.658099</ele>
        <time>2020-07-15T15:17:22.679Z</time>
      </trkpt>
      <trkpt lat="68.14878" lon="13.66107">
        <ele>18.174571</ele>
        <time>2020-07-15T15:17:35.368Z</time>
      </trkpt>
      <trkpt lat="68.14876" lon="13.6615">
        <ele>18.614285</ele>
        <time>2020-07-15T15:17:39.316Z</time>
      </trkpt>
      <trkpt lat="68.14876" lon="13.66175">
        <ele>18.863446</ele>
        <time>2020-07-15T15:17:41.681Z</time>
      </trkpt>
      <trkpt lat="68.14873" lon="13.66251">
        <ele>19.631662</ele>
        <time>2020-07-15T15:17:50.635Z</time>
      </trkpt>
      <trkpt lat="68.14873" lon="13.6626">
        <ele>19.723379</ele>
        <time>2020-07-15T15:17:51.548Z</time>
      </trkpt>
      <trkpt lat="68.14872" lon="13.66289">
        <ele>20.011039</ele>
        <time>2020-07-15T15:17:54.397Z</time>
      </trkpt>
      <trkpt lat="68.1487" lon="13.66324">
        <ele>20.367392</ele>
        <time>2020-07-15T15:17:59.524Z</time>
      </trkpt>
      <trkpt lat="68.14868" lon="13.66358">
        <ele>20.979755</ele>
        <time>2020-07-15T15:18:03.174Z</time>
      </trkpt>
      <trkpt lat="68.14868" lon="13.66372">
        <ele>21.263202</ele>
        <time>2020-07-15T15:18:04.633Z</time>
      </trkpt>
      <trkpt lat="68.14867" lon="13.66386">
        <ele>21.543452</ele>
        <time>2020-07-15T15:18:06.226Z</time>
      </trkpt>
      <trkpt lat="68.14865" lon="13.66421">
        <ele>22.244422</ele>
        <time>2020-07-15T15:18:11.412Z</time>
      </trkpt>
      <trkpt lat="68.14861" lon="13.66516">
        <ele>24.170739</ele>
        <time>2020-07-15T15:18:23.608Z</time>
      </trkpt>
      <trkpt lat="68.14859" lon="13.66573">
        <ele>25.331074</ele>
        <time>2020-07-15T15:18:30.211Z</time>
      </trkpt>
      <trkpt lat="68.14858" lon="13.66609">
        <ele>26.056343</ele>
        <time>2020-07-15T15:18:35.980Z</time>
      </trkpt>
      <trkpt lat="68.14858" lon="13.6673">
        <ele>28.480541</ele>
        <time>2020-07-15T15:18:52.068Z</time>
      </trkpt>
      <trkpt lat="68.14871" lon="13.66835">
        <ele>30.738981</ele>
        <time>2020-07-15T15:19:07.295Z</time>
      </trkpt>
      <trkpt lat="68.14886" lon="13.66893">
        <ele>32.227751</ele>
        <time>2020-07-15T15:19:17.615Z</time>
      </trkpt>
      <trkpt lat="68.14917" lon="13.66967">
        <ele>34.600081</ele>
        <time>2020-07-15T15:19:33.244Z</time>
      </trkpt>
      <trkpt lat="68.14927" lon="13.66983">
        <ele>35.237422</ele>
        <time>2020-07-15T15:19:37.537Z</time>
      </trkpt>
      <trkpt lat="68.14961" lon="13.67037">
        <ele>37.51331</ele>
        <time>2020-07-15T15:19:50.935Z</time>
      </trkpt>
      <trkpt lat="68.14992" lon="13.67083">
        <ele>39.545394</ele>
        <time>2020-07-15T15:20:03.281Z</time>
      </trkpt>
      <trkpt lat="68.1503" lon="13.67131">
        <ele>42.046021</ele>
        <time>2020-07-15T15:20:17.651Z</time>
      </trkpt>
      <trkpt lat="68.15136" lon="13.67224">
        <ele>48.965439</ele>
        <time>2020-07-15T15:20:59.559Z</time>
      </trkpt>
      <trkpt lat="68.1516" lon="13.67266">
        <ele>50.743891</ele>
        <time>2020-07-15T15:21:11.991Z</time>
      </trkpt>
      <trkpt lat="68.15195" lon="13.67358">
        <ele>53.844121</ele>
        <time>2020-07-15T15:21:30.571Z</time>
      </trkpt>
      <trkpt lat="68.15201" lon="13.67375">
        <ele>54.382676</ele>
        <time>2020-07-15T15:21:35.084Z</time>
      </trkpt>
      <trkpt lat="68.15208" lon="13.67395">
        <ele>55.044557</ele>
        <time>2020-07-15T15:21:38.827Z</time>
      </trkpt>
      <trkpt lat="68.15222" lon="13.67438">
        <ele>56.398348</ele>
        <time>2020-07-15T15:21:46.645Z</time>
      </trkpt>
      <trkpt lat="68.15231" lon="13.67465">
        <ele>57.231861</ele>
        <time>2020-07-15T15:21:51.795Z</time>
      </trkpt>
      <trkpt lat="68.15251" lon="13.67526">
        <ele>59.179529</ele>
        <time>2020-07-15T15:22:04.199Z</time>
      </trkpt>
      <trkpt lat="68.15253" lon="13.6753">
        <ele>59.333209</ele>
        <time>2020-07-15T15:22:05.120Z</time>
      </trkpt>
      <trkpt lat="68.15255" lon="13.67537">
        <ele>59.536287</ele>
        <time>2020-07-15T15:22:06.031Z</time>
      </trkpt>
      <trkpt lat="68.15258" lon="13.67544">
        <ele>59.781955</ele>
        <time>2020-07-15T15:22:07.943Z</time>
      </trkpt>
      <trkpt lat="68.15325" lon="13.67796">
        <ele>66.472165</ele>
        <time>2020-07-15T15:22:48.551Z</time>
      </trkpt>
      <trkpt lat="68.15328" lon="13.67807">
        <ele>66.728712</ele>
        <time>2020-07-15T15:22:50.897Z</time>
      </trkpt>
      <trkpt lat="68.15335" lon="13.67826">
        <ele>67.267436</ele>
        <time>2020-07-15T15:22:54.026Z</time>
      </trkpt>
      <trkpt lat="68.15374" lon="13.6792">
        <ele>70.061123</ele>
        <time>2020-07-15T15:23:11.281Z</time>
      </trkpt>
      <trkpt lat="68.15378" lon="13.67931">
        <ele>70.384673</ele>
        <time>2020-07-15T15:23:13.526Z</time>
      </trkpt>
      <trkpt lat="68.15388" lon="13.67959">
        <ele>71.131169</ele>
        <time>2020-07-15T15:23:18.886Z</time>
      </trkpt>
      <trkpt lat="68.15414" lon="13.68051">
        <ele>73.564644</ele>
        <time>2020-07-15T15:23:33.107Z</time>
      </trkpt>
      <trkpt lat="68.1543" lon="13.6812">
        <ele>75.4327</ele>
        <time>2020-07-15T15:23:44.318Z</time>
      </trkpt>
      <trkpt lat="68.15465" lon="13.68279">
        <ele>79.750511</ele>
        <time>2020-07-15T15:24:10.361Z</time>
      </trkpt>
      <trkpt lat="68.15478" lon="13.68335">
        <ele>81.267629</ele>
        <time>2020-07-15T15:24:19.486Z</time>
      </trkpt>
      <trkpt lat="68.15479" lon="13.68339">
        <ele>81.370953</ele>
        <time>2020-07-15T15:24:20.609Z</time>
      </trkpt>
      <trkpt lat="68.15502" lon="13.6844">
        <ele>84.170664</ele>
        <time>2020-07-15T15:24:38.424Z</time>
      </trkpt>
      <trkpt lat="68.15504" lon="13.68447">
        <ele>84.382035</ele>
        <time>2020-07-15T15:24:40.074Z</time>
      </trkpt>
      <trkpt lat="68.15513" lon="13.68488">
        <ele>85.632074</ele>
        <time>2020-07-15T15:24:46.877Z</time>
      </trkpt>
      <trkpt lat="68.1554" lon="13.68608">
        <ele>89.233866</ele>
        <time>2020-07-15T15:25:08.035Z</time>
      </trkpt>
      <trkpt lat="68.15567" lon="13.68721">
        <ele>92.698695</ele>
        <time>2020-07-15T15:25:27.516Z</time>
      </trkpt>
      <trkpt lat="68.15593" lon="13.68801">
        <ele>95.407007</ele>
        <time>2020-07-15T15:25:43.897Z</time>
      </trkpt>
      <trkpt lat="68.15681" lon="13.69007">
        <ele>103.026131</ele>
        <time>2020-07-15T15:26:29.958Z</time>
      </trkpt>
      <trkpt lat="68.1569" lon="13.69027">
        <ele>103.779653</ele>
        <time>2020-07-15T15:26:34.746Z</time>
      </trkpt>
      <trkpt lat="68.15719" lon="13.69099">
        <ele>106.346809</ele>
        <time>2020-07-15T15:26:49.343Z</time>
      </trkpt>
      <trkpt lat="68.15752" lon="13.69221">
        <ele>109.569882</ele>
        <time>2020-07-15T15:27:09.199Z</time>
      </trkpt>
      <trkpt lat="68.15771" lon="13.69358">
        <ele>112.433951</ele>
        <time>2020-07-15T15:27:29.761Z</time>
      </trkpt>
      <trkpt lat="68.15776" lon="13.69469">
        <ele>114.603857</ele>
        <time>2020-07-15T15:27:43.192Z</time>
      </trkpt>
      <trkpt lat="68.15774" lon="13.69568">
        <ele>116.527932</ele>
        <time>2020-07-15T15:27:54.565Z</time>
      </trkpt>
      <trkpt lat="68.1577" lon="13.69612">
        <ele>117.399589</ele>
        <time>2020-07-15T15:28:00.167Z</time>
      </trkpt>
      <trkpt lat="68.15766" lon="13.69651">
        <ele>118.015473</ele>
        <time>2020-07-15T15:28:05.291Z</time>
      </trkpt>
      <trkpt lat="68.15736" lon="13.69815">
        <ele>120.821501</ele>
        <time>2020-07-15T15:28:29.155Z</time>
      </trkpt>
      <trkpt lat="68.15718" lon="13.69886">
        <ele>122.131334</ele>
        <time>2020-07-15T15:28:40.524Z</time>
      </trkpt>
      <trkpt lat="68.15715" lon="13.69898">
        <ele>122.362374</ele>
        <time>2020-07-15T15:28:41.797Z</time>
      </trkpt>
      <trkpt lat="68.15702" lon="13.69953">
        <ele>123.366073</ele>
        <time>2020-07-15T15:28:49.338Z</time>
      </trkpt>
      <trkpt lat="68.157" lon="13.69961">
        <ele>123.527857</ele>
        <time>2020-07-15T15:28:51.057Z</time>
      </trkpt>
      <trkpt lat="68.15692" lon="13.69994">
        <ele>124.114894</ele>
        <time>2020-07-15T15:28:54.303Z</time>
      </trkpt>
      <trkpt lat="68.1569" lon="13.70005">
        <ele>124.313139</ele>
        <time>2020-07-15T15:28:55.452Z</time>
      </trkpt>
      <trkpt lat="68.15683" lon="13.70034">
        <ele>124.701267</ele>
        <time>2020-07-15T15:28:58.486Z</time>
      </trkpt>
      <trkpt lat="68.15657" lon="13.70145">
        <ele>123.422219</ele>
        <time>2020-07-15T15:29:08.220Z</time>
      </trkpt>
      <trkpt lat="68.15647" lon="13.70202">
        <ele>122.807145</ele>
        <time>2020-07-15T15:29:12.152Z</time>
      </trkpt>
      <trkpt lat="68.15646" lon="13.70211">
        <ele>122.713374</ele>
        <time>2020-07-15T15:29:13.311Z</time>
      </trkpt>
      <trkpt lat="68.15643" lon="13.70226">
        <ele>122.558751</ele>
        <time>2020-07-15T15:29:14.017Z</time>
      </trkpt>
      <trkpt lat="68.15628" lon="13.70424">
        <ele>120.597499</ele>
        <time>2020-07-15T15:29:23.633Z</time>
      </trkpt>
      <trkpt lat="68.15625" lon="13.70669">
        <ele>114.49626</ele>
        <time>2020-07-15T15:29:33.771Z</time>
      </trkpt>
      <trkpt lat="68.15584" lon="13.70873">
        <ele>107.750978</ele>
        <time>2020-07-15T15:29:43.440Z</time>
      </trkpt>
      <trkpt lat="68.15578" lon="13.70913">
        <ele>106.492988</ele>
        <time>2020-07-15T15:29:45.194Z</time>
      </trkpt>
      <trkpt lat="68.15574" lon="13.7096">
        <ele>105.301244</ele>
        <time>2020-07-15T15:29:47.386Z</time>
      </trkpt>
      <trkpt lat="68.15571" lon="13.71039">
        <ele>103.59211</ele>
        <time>2020-07-15T15:29:50.728Z</time>
      </trkpt>
      <trkpt lat="68.15582" lon="13.71139">
        <ele>101.353076</ele>
        <time>2020-07-15T15:29:55.285Z</time>
      </trkpt>
      <trkpt lat="68.15587" lon="13.71166">
        <ele>100.680227</ele>
        <time>2020-07-15T15:29:56.721Z</time>
      </trkpt>
      <trkpt lat="68.15608" lon="13.71247">
        <ele>98.576252</ele>
        <time>2020-07-15T15:30:01.006Z</time>
      </trkpt>
      <trkpt lat="68.15616" lon="13.71365">
        <ele>95.986415</ele>
        <time>2020-07-15T15:30:06.542Z</time>
      </trkpt>
      <trkpt lat="68.15615" lon="13.71379">
        <ele>95.675125</ele>
        <time>2020-07-15T15:30:07.165Z</time>
      </trkpt>
      <trkpt lat="68.15615" lon="13.71397">
        <ele>95.296167</ele>
        <time>2020-07-15T15:30:07.960Z</time>
      </trkpt>
      <trkpt lat="68.15622" lon="13.71535">
        <ele>92.332605</ele>
        <time>2020-07-15T15:30:14.545Z</time>
      </trkpt>
      <trkpt lat="68.15625" lon="13.71568">
        <ele>91.619868</ele>
        <time>2020-07-15T15:30:16.009Z</time>
      </trkpt>
      <trkpt lat="68.15632" lon="13.71642">
        <ele>89.994954</ele>
        <time>2020-07-15T15:30:19.448Z</time>
      </trkpt>
      <trkpt lat="68.15638" lon="13.71857">
        <ele>85.429682</ele>
        <time>2020-07-15T15:30:28.830Z</time>
      </trkpt>
      <trkpt lat="68.15625" lon="13.72134">
        <ele>76.774419</ele>
        <time>2020-07-15T15:30:40.569Z</time>
      </trkpt>
      <trkpt lat="68.1563" lon="13.72449">
        <ele>66.571874</ele>
        <time>2020-07-15T15:30:53.508Z</time>
      </trkpt>
      <trkpt lat="68.15628" lon="13.72576">
        <ele>62.23334</ele>
        <time>2020-07-15T15:30:58.650Z</time>
      </trkpt>
      <trkpt lat="68.15608" lon="13.72725">
        <ele>56.805052</ele>
        <time>2020-07-15T15:31:05.148Z</time>
      </trkpt>
      <trkpt lat="68.15579" lon="13.72837">
        <ele>52.460347</ele>
        <time>2020-07-15T15:31:10.884Z</time>
      </trkpt>
      <trkpt lat="68.15553" lon="13.72968">
        <ele>48.582805</ele>
        <time>2020-07-15T15:31:17.193Z</time>
      </trkpt>
      <trkpt lat="68.15516" lon="13.73194">
        <ele>42.132546</ele>
        <time>2020-07-15T15:31:27.780Z</time>
      </trkpt>
      <trkpt lat="68.15508" lon="13.73307">
        <ele>39.523768</ele>
        <time>2020-07-15T15:31:32.774Z</time>
      </trkpt>
      <trkpt lat="68.15511" lon="13.73339">
        <ele>38.860776</ele>
        <time>2020-07-15T15:31:34.160Z</time>
      </trkpt>
      <trkpt lat="68.15514" lon="13.73367">
        <ele>38.261733</ele>
        <time>2020-07-15T15:31:35.489Z</time>
      </trkpt>
      <trkpt lat="68.15541" lon="13.73457">
        <ele>35.911229</ele>
        <time>2020-07-15T15:31:40.722Z</time>
      </trkpt>
      <trkpt lat="68.15548" lon="13.73471">
        <ele>35.463313</ele>
        <time>2020-07-15T15:31:41.680Z</time>
      </trkpt>
      <trkpt lat="68.15583" lon="13.73549">
        <ele>32.977676</ele>
        <time>2020-07-15T15:31:47.184Z</time>
      </trkpt>
      <trkpt lat="68.15607" lon="13.73633">
        <ele>30.919875</ele>
        <time>2020-07-15T15:31:51.964Z</time>
      </trkpt>
      <trkpt lat="68.15621" lon="13.73726">
        <ele>29.556678</ele>
        <time>2020-07-15T15:31:56.642Z</time>
      </trkpt>
      <trkpt lat="68.15634" lon="13.73828">
        <ele>28.106359</ele>
        <time>2020-07-15T15:32:01.586Z</time>
      </trkpt>
      <trkpt lat="68.15638" lon="13.73861">
        <ele>27.638443</ele>
        <time>2020-07-15T15:32:03.263Z</time>
      </trkpt>
      <trkpt lat="68.15645" lon="13.73916">
        <ele>26.845977</ele>
        <time>2020-07-15T15:32:06.084Z</time>
      </trkpt>
      <trkpt lat="68.15648" lon="13.73936">
        <ele>26.56316</ele>
        <time>2020-07-15T15:32:07.123Z</time>
      </trkpt>
      <trkpt lat="68.15653" lon="13.73974">
        <ele>26.014064</ele>
        <time>2020-07-15T15:32:09.198Z</time>
      </trkpt>
      <trkpt lat="68.15659" lon="13.74025">
        <ele>25.287341</ele>
        <time>2020-07-15T15:32:11.850Z</time>
      </trkpt>
      <trkpt lat="68.15663" lon="13.74056">
        <ele>24.850668</ele>
        <time>2020-07-15T15:32:13.524Z</time>
      </trkpt>
      <trkpt lat="68.15669" lon="13.74113">
        <ele>24.342275</ele>
        <time>2020-07-15T15:32:16.473Z</time>
      </trkpt>
      <trkpt lat="68.15674" lon="13.7415">
        <ele>24.124456</ele>
        <time>2020-07-15T15:32:18.467Z</time>
      </trkpt>
      <trkpt lat="68.15701" lon="13.74415">
        <ele>22.581209</ele>
        <time>2020-07-15T15:32:32.824Z</time>
      </trkpt>
      <trkpt lat="68.1571" lon="13.74509">
        <ele>22.036935</ele>
        <time>2020-07-15T15:32:38.980Z</time>
      </trkpt>
      <trkpt lat="68.15716" lon="13.74568">
        <ele>21.845286</ele>
        <time>2020-07-15T15:32:43.754Z</time>
      </trkpt>
      <trkpt lat="68.15721" lon="13.74618">
        <ele>21.847907</ele>
        <time>2020-07-15T15:32:47.738Z</time>
      </trkpt>
      <trkpt lat="68.15727" lon="13.74691">
        <ele>21.851693</ele>
        <time>2020-07-15T15:32:53.105Z</time>
      </trkpt>
      <trkpt lat="68.15732" lon="13.74745">
        <ele>21.854472</ele>
        <time>2020-07-15T15:32:57.612Z</time>
      </trkpt>
      <trkpt lat="68.15734" lon="13.74791">
        <ele>21.856864</ele>
        <time>2020-07-15T15:33:00.511Z</time>
      </trkpt>
      <trkpt lat="68.15737" lon="13.74881">
        <ele>21.861418</ele>
        <time>2020-07-15T15:33:06.513Z</time>
      </trkpt>
      <trkpt lat="68.15738" lon="13.74924">
        <ele>21.863603</ele>
        <time>2020-07-15T15:33:09.791Z</time>
      </trkpt>
      <trkpt lat="68.15737" lon="13.74973">
        <ele>21.86607</ele>
        <time>2020-07-15T15:33:12.702Z</time>
      </trkpt>
      <trkpt lat="68.15736" lon="13.75018">
        <ele>21.868386</ele>
        <time>2020-07-15T15:33:15.923Z</time>
      </trkpt>
      <trkpt lat="68.15734" lon="13.75066">
        <ele>21.403824</ele>
        <time>2020-07-15T15:33:18.686Z</time>
      </trkpt>
      <trkpt lat="68.15727" lon="13.75146">
        <ele>20.618249</ele>
        <time>2020-07-15T15:33:23.330Z</time>
      </trkpt>
      <trkpt lat="68.15723" lon="13.75189">
        <ele>20.17992</ele>
        <time>2020-07-15T15:33:25.605Z</time>
      </trkpt>
      <trkpt lat="68.15709" lon="13.75292">
        <ele>19.121514</ele>
        <time>2020-07-15T15:33:31.000Z</time>
      </trkpt>
      <trkpt lat="68.15703" lon="13.75326">
        <ele>18.762353</ele>
        <time>2020-07-15T15:33:32.768Z</time>
      </trkpt>
      <trkpt lat="68.15686" lon="13.75434">
        <ele>17.627495</ele>
        <time>2020-07-15T15:33:38.211Z</time>
      </trkpt>
      <trkpt lat="68.15659" lon="13.75604">
        <ele>16.431309</ele>
        <time>2020-07-15T15:33:46.964Z</time>
      </trkpt>
      <trkpt lat="68.15649" lon="13.75708">
        <ele>15.846061</ele>
        <time>2020-07-15T15:33:52.848Z</time>
      </trkpt>
      <trkpt lat="68.15647" lon="13.75828">
        <ele>15.19608</ele>
        <time>2020-07-15T15:34:00.004Z</time>
      </trkpt>
      <trkpt lat="68.15647" lon="13.75836">
        <ele>15.149116</ele>
        <time>2020-07-15T15:34:00.379Z</time>
      </trkpt>
      <trkpt lat="68.15649" lon="13.75886">
        <ele>14.878295</ele>
        <time>2020-07-15T15:34:03.524Z</time>
      </trkpt>
      <trkpt lat="68.1565" lon="13.75914">
        <ele>14.725051</ele>
        <time>2020-07-15T15:34:06.133Z</time>
      </trkpt>
      <trkpt lat="68.15654" lon="13.75991">
        <ele>15.037049</ele>
        <time>2020-07-15T15:34:11.655Z</time>
      </trkpt>
      <trkpt lat="68.15654" lon="13.76001">
        <ele>15.131553</ele>
        <time>2020-07-15T15:34:12.974Z</time>
      </trkpt>
      <trkpt lat="68.15658" lon="13.76091">
        <ele>16.028266</ele>
        <time>2020-07-15T15:34:21.173Z</time>
      </trkpt>
      <trkpt lat="68.15662" lon="13.76198">
        <ele>17.091677</ele>
        <time>2020-07-15T15:34:32.298Z</time>
      </trkpt>
      <trkpt lat="68.15666" lon="13.76323">
        <ele>18.330175</ele>
        <time>2020-07-15T15:34:45.795Z</time>
      </trkpt>
      <trkpt lat="68.15668" lon="13.76383">
        <ele>18.932854</ele>
        <time>2020-07-15T15:34:52.765Z</time>
      </trkpt>
      <trkpt lat="68.15673" lon="13.765">
        <ele>20.008246</ele>
        <time>2020-07-15T15:35:05.443Z</time>
      </trkpt>
      <trkpt lat="68.15677" lon="13.76679">
        <ele>21.591145</ele>
        <time>2020-07-15T15:35:23.674Z</time>
      </trkpt>
      <trkpt lat="68.15678" lon="13.7673">
        <ele>22.045652</ele>
        <time>2020-07-15T15:35:28.964Z</time>
      </trkpt>
      <trkpt lat="68.15677" lon="13.76824">
        <ele>22.872972</ele>
        <time>2020-07-15T15:35:37.511Z</time>
      </trkpt>
      <trkpt lat="68.15673" lon="13.76944">
        <ele>23.410085</ele>
        <time>2020-07-15T15:35:46.438Z</time>
      </trkpt>
      <trkpt lat="68.15673" lon="13.76955">
        <ele>23.3559</ele>
        <time>2020-07-15T15:35:47.283Z</time>
      </trkpt>
      <trkpt lat="68.15672" lon="13.76974">
        <ele>23.258707</ele>
        <time>2020-07-15T15:35:48.448Z</time>
      </trkpt>
      <trkpt lat="68.15672" lon="13.76988">
        <ele>23.189943</ele>
        <time>2020-07-15T15:35:49.376Z</time>
      </trkpt>
      <trkpt lat="68.1567" lon="13.77034">
        <ele>22.955357</ele>
        <time>2020-07-15T15:35:52.345Z</time>
      </trkpt>
      <trkpt lat="68.15669" lon="13.77055">
        <ele>22.849728</ele>
        <time>2020-07-15T15:35:53.678Z</time>
      </trkpt>
      <trkpt lat="68.15667" lon="13.77116">
        <ele>22.53671</ele>
        <time>2020-07-15T15:35:57.409Z</time>
      </trkpt>
      <trkpt lat="68.15666" lon="13.77144">
        <ele>22.397087</ele>
        <time>2020-07-15T15:35:58.955Z</time>
      </trkpt>
      <trkpt lat="68.15664" lon="13.77199">
        <ele>22.114648</ele>
        <time>2020-07-15T15:36:01.862Z</time>
      </trkpt>
      <trkpt lat="68.15662" lon="13.77261">
        <ele>21.803647</ele>
        <time>2020-07-15T15:36:05.096Z</time>
      </trkpt>
      <trkpt lat="68.15657" lon="13.77391">
        <ele>21.108091</ele>
        <time>2020-07-15T15:36:11.614Z</time>
      </trkpt>
      <trkpt lat="68.15655" lon="13.77464">
        <ele>20.041236</ele>
        <time>2020-07-15T15:36:15.184Z</time>
      </trkpt>
      <trkpt lat="68.1565" lon="13.77564">
        <ele>18.573463</ele>
        <time>2020-07-15T15:36:19.925Z</time>
      </trkpt>
      <trkpt lat="68.15648" lon="13.776">
        <ele>18.048849</ele>
        <time>2020-07-15T15:36:21.564Z</time>
      </trkpt>
      <trkpt lat="68.15639" lon="13.77702">
        <ele>16.518919</ele>
        <time>2020-07-15T15:36:26.428Z</time>
      </trkpt>
      <trkpt lat="68.15634" lon="13.77745">
        <ele>15.863952</ele>
        <time>2020-07-15T15:36:28.542Z</time>
      </trkpt>
      <trkpt lat="68.15633" lon="13.77753">
        <ele>15.745312</ele>
        <time>2020-07-15T15:36:28.917Z</time>
      </trkpt>
      <trkpt lat="68.1563" lon="13.77782">
        <ele>15.297654</ele>
        <time>2020-07-15T15:36:30.327Z</time>
      </trkpt>
      <trkpt lat="68.15622" lon="13.77837">
        <ele>14.453711</ele>
        <time>2020-07-15T15:36:33.069Z</time>
      </trkpt>
      <trkpt lat="68.15617" lon="13.77871">
        <ele>13.937018</ele>
        <time>2020-07-15T15:36:34.734Z</time>
      </trkpt>
      <trkpt lat="68.15617" lon="13.77877">
        <ele>13.849398</ele>
        <time>2020-07-15T15:36:35.038Z</time>
      </trkpt>
      <trkpt lat="68.15612" lon="13.77903">
        <ele>13.462454</ele>
        <time>2020-07-15T15:36:36.335Z</time>
      </trkpt>
      <trkpt lat="68.15607" lon="13.77935">
        <ele>12.983878</ele>
        <time>2020-07-15T15:36:38.041Z</time>
      </trkpt>
      <trkpt lat="68.15604" lon="13.77957">
        <ele>12.65257</ele>
        <time>2020-07-15T15:36:39.166Z</time>
      </trkpt>
      <trkpt lat="68.15601" lon="13.77977">
        <ele>12.348452</ele>
        <time>2020-07-15T15:36:40.268Z</time>
      </trkpt>
      <trkpt lat="68.15607" lon="13.77983">
        <ele>12.12571</ele>
        <time>2020-07-15T15:36:40.957Z</time>
      </trkpt>
      <trkpt lat="68.15613" lon="13.7799">
        <ele>11.876866</ele>
        <time>2020-07-15T15:36:41.793Z</time>
      </trkpt>
      <trkpt lat="68.15634" lon="13.78015">
        <ele>11.00858</ele>
        <time>2020-07-15T15:36:44.874Z</time>
      </trkpt>
      <trkpt lat="68.15667" lon="13.78046">
        <ele>9.739716</ele>
        <time>2020-07-15T15:36:49.201Z</time>
      </trkpt>
      <trkpt lat="68.15673" lon="13.78053">
        <ele>9.47602</ele>
        <time>2020-07-15T15:36:50.056Z</time>
      </trkpt>
      <trkpt lat="68.15685" lon="13.78066">
        <ele>9.020067</ele>
        <time>2020-07-15T15:36:51.645Z</time>
      </trkpt>
      <trkpt lat="68.15693" lon="13.78075">
        <ele>8.708568</ele>
        <time>2020-07-15T15:36:52.770Z</time>
      </trkpt>
      <trkpt lat="68.15718" lon="13.781">
        <ele>7.719126</ele>
        <time>2020-07-15T15:36:56.196Z</time>
      </trkpt>
      <trkpt lat="68.15736" lon="13.78121">
        <ele>7.340351</ele>
        <time>2020-07-15T15:36:58.982Z</time>
      </trkpt>
      <trkpt lat="68.15747" lon="13.78136">
        <ele>7.216545</ele>
        <time>2020-07-15T15:37:00.453Z</time>
      </trkpt>
      <trkpt lat="68.15778" lon="13.78211">
        <ele>6.787877</ele>
        <time>2020-07-15T15:37:06.290Z</time>
      </trkpt>
      <trkpt lat="68.15802" lon="13.78318">
        <ele>6.307969</ele>
        <time>2020-07-15T15:37:13.978Z</time>
      </trkpt>
      <trkpt lat="68.15821" lon="13.78351">
        <ele>6.079512</ele>
        <time>2020-07-15T15:37:17.822Z</time>
      </trkpt>
      <trkpt lat="68.15859" lon="13.78346">
        <ele>5.69238</ele>
        <time>2020-07-15T15:37:25.218Z</time>
      </trkpt>
      <trkpt lat="68.15875" lon="13.78331">
        <ele>5.703213</ele>
        <time>2020-07-15T15:37:29.011Z</time>
      </trkpt>
      <trkpt lat="68.15905" lon="13.78241">
        <ele>5.964932</ele>
        <time>2020-07-15T15:37:38.342Z</time>
      </trkpt>
      <trkpt lat="68.15913" lon="13.78221">
        <ele>6.029064</ele>
        <time>2020-07-15T15:37:40.826Z</time>
      </trkpt>
      <trkpt lat="68.15918" lon="13.78206">
        <ele>6.070516</ele>
        <time>2020-07-15T15:37:42.467Z</time>
      </trkpt>
      <trkpt lat="68.15934" lon="13.78179">
        <ele>6.183802</ele>
        <time>2020-07-15T15:37:46.152Z</time>
      </trkpt>
      <trkpt lat="68.15968" lon="13.78152">
        <ele>6.388727</ele>
        <time>2020-07-15T15:37:53.134Z</time>
      </trkpt>
      <trkpt lat="68.16014" lon="13.78146">
        <ele>6.657803</ele>
        <time>2020-07-15T15:38:01.917Z</time>
      </trkpt>
      <trkpt lat="68.1612" lon="13.78196">
        <ele>6.185794</ele>
        <time>2020-07-15T15:38:20.743Z</time>
      </trkpt>
      <trkpt lat="68.16126" lon="13.78201">
        <ele>6.153865</ele>
        <time>2020-07-15T15:38:21.499Z</time>
      </trkpt>
      <trkpt lat="68.16133" lon="13.78206">
        <ele>6.117174</ele>
        <time>2020-07-15T15:38:23.212Z</time>
      </trkpt>
      <trkpt lat="68.16179" lon="13.78258">
        <ele>5.880365</ele>
        <time>2020-07-15T15:38:30.887Z</time>
      </trkpt>
      <trkpt lat="68.16182" lon="13.78261">
        <ele>5.861492</ele>
        <time>2020-07-15T15:38:32.089Z</time>
      </trkpt>
      <trkpt lat="68.16203" lon="13.783">
        <ele>5.724853</ele>
        <time>2020-07-15T15:38:35.731Z</time>
      </trkpt>
      <trkpt lat="68.16232" lon="13.78377">
        <ele>5.493832</ele>
        <time>2020-07-15T15:38:42.241Z</time>
      </trkpt>
      <trkpt lat="68.1626" lon="13.78482">
        <ele>5.219985</ele>
        <time>2020-07-15T15:38:50.652Z</time>
      </trkpt>
      <trkpt lat="68.16273" lon="13.78536">
        <ele>5.084376</ele>
        <time>2020-07-15T15:38:54.585Z</time>
      </trkpt>
      <trkpt lat="68.16287" lon="13.78605">
        <ele>4.91694</ele>
        <time>2020-07-15T15:38:59.732Z</time>
      </trkpt>
      <trkpt lat="68.16301" lon="13.78663">
        <ele>4.754531</ele>
        <time>2020-07-15T15:39:03.784Z</time>
      </trkpt>
      <trkpt lat="68.16323" lon="13.7872">
        <ele>4.436922</ele>
        <time>2020-07-15T15:39:08.675Z</time>
      </trkpt>
      <trkpt lat="68.1634" lon="13.78731">
        <ele>4.258964</ele>
        <time>2020-07-15T15:39:11.383Z</time>
      </trkpt>
      <trkpt lat="68.16367" lon="13.78724">
        <ele>3.981214</ele>
        <time>2020-07-15T15:39:15.463Z</time>
      </trkpt>
      <trkpt lat="68.16374" lon="13.78725">
        <ele>3.909414</ele>
        <time>2020-07-15T15:39:16.574Z</time>
      </trkpt>
      <trkpt lat="68.16394" lon="13.78737">
        <ele>3.704579</ele>
        <time>2020-07-15T15:39:19.587Z</time>
      </trkpt>
      <trkpt lat="68.1641" lon="13.7876">
        <ele>3.519701</ele>
        <time>2020-07-15T15:39:22.284Z</time>
      </trkpt>
      <trkpt lat="68.16419" lon="13.78782">
        <ele>3.398964</ele>
        <time>2020-07-15T15:39:24.093Z</time>
      </trkpt>
      <trkpt lat="68.16427" lon="13.78821">
        <ele>3.222815</ele>
        <time>2020-07-15T15:39:26.694Z</time>
      </trkpt>
      <trkpt lat="68.16438" lon="13.78909">
        <ele>2.892526</ele>
        <time>2020-07-15T15:39:32.028Z</time>
      </trkpt>
      <trkpt lat="68.16458" lon="13.79153">
        <ele>2.217242</ele>
        <time>2020-07-15T15:39:46.587Z</time>
      </trkpt>
      <trkpt lat="68.16462" lon="13.792">
        <ele>2.087479</ele>
        <time>2020-07-15T15:39:49.403Z</time>
      </trkpt>
      <trkpt lat="68.16479" lon="13.79567">
        <ele>1.41226</ele>
        <time>2020-07-15T15:40:12.623Z</time>
      </trkpt>
      <trkpt lat="68.1648" lon="13.79577">
        <ele>1.401041</ele>
        <time>2020-07-15T15:40:13.317Z</time>
      </trkpt>
      <trkpt lat="68.16484" lon="13.79676">
        <ele>1.289961</ele>
        <time>2020-07-15T15:40:19.757Z</time>
      </trkpt>
      <trkpt lat="68.16493" lon="13.79772">
        <ele>1.179843</ele>
        <time>2020-07-15T15:40:26.062Z</time>
      </trkpt>
      <trkpt lat="68.16504" lon="13.79819">
        <ele>1.118164</ele>
        <time>2020-07-15T15:40:29.615Z</time>
      </trkpt>
      <trkpt lat="68.16509" lon="13.79837">
        <ele>1.09066</ele>
        <time>2020-07-15T15:40:30.996Z</time>
      </trkpt>
      <trkpt lat="68.16516" lon="13.79854">
        <ele>1.054798</ele>
        <time>2020-07-15T15:40:32.538Z</time>
      </trkpt>
      <trkpt lat="68.16549" lon="13.79927">
        <ele>0.889426</ele>
        <time>2020-07-15T15:40:39.734Z</time>
      </trkpt>
      <trkpt lat="68.16591" lon="13.80063">
        <ele>0.635597</ele>
        <time>2020-07-15T15:40:50.546Z</time>
      </trkpt>
      <trkpt lat="68.16659" lon="13.80309">
        <ele>0.461332</ele>
        <time>2020-07-15T15:41:09.861Z</time>
      </trkpt>
      <trkpt lat="68.16675" lon="13.80421">
        <ele>0.506274</ele>
        <time>2020-07-15T15:41:17.843Z</time>
      </trkpt>
      <trkpt lat="68.16677" lon="13.80702">
        <ele>0.801491</ele>
        <time>2020-07-15T15:41:37.751Z</time>
      </trkpt>
      <trkpt lat="68.16747" lon="13.81574">
        <ele>3.878529</ele>
        <time>2020-07-15T15:42:47.903Z</time>
      </trkpt>
      <trkpt lat="68.1675" lon="13.81683">
        <ele>4.000097</ele>
        <time>2020-07-15T15:42:56.045Z</time>
      </trkpt>
      <trkpt lat="68.16752" lon="13.82125">
        <ele>4.255173</ele>
        <time>2020-07-15T15:43:25.698Z</time>
      </trkpt>
      <trkpt lat="68.1672" lon="13.82487">
        <ele>3.819714</ele>
        <time>2020-07-15T15:43:48.759Z</time>
      </trkpt>
      <trkpt lat="68.16731" lon="13.83105">
        <ele>3.06131</ele>
        <time>2020-07-15T15:44:27.792Z</time>
      </trkpt>
      <trkpt lat="68.16727" lon="13.83377">
        <ele>2.652621</ele>
        <time>2020-07-15T15:44:44.767Z</time>
      </trkpt>
      <trkpt lat="68.16731" lon="13.83438">
        <ele>2.559674</ele>
        <time>2020-07-15T15:44:48.584Z</time>
      </trkpt>
      <trkpt lat="68.16755" lon="13.83622">
        <ele>2.68915</ele>
        <time>2020-07-15T15:45:00.256Z</time>
      </trkpt>
      <trkpt lat="68.1677" lon="13.83812">
        <ele>3.05021</ele>
        <time>2020-07-15T15:45:14.581Z</time>
      </trkpt>
      <trkpt lat="68.16774" lon="13.8386">
        <ele>3.142208</ele>
        <time>2020-07-15T15:45:18.880Z</time>
      </trkpt>
      <trkpt lat="68.16781" lon="13.83924">
        <ele>3.265786</ele>
        <time>2020-07-15T15:45:23.485Z</time>
      </trkpt>
      <trkpt lat="68.16787" lon="13.83994">
        <ele>3.490575</ele>
        <time>2020-07-15T15:45:29.674Z</time>
      </trkpt>
      <trkpt lat="68.16789" lon="13.84012">
        <ele>3.607524</ele>
        <time>2020-07-15T15:45:30.892Z</time>
      </trkpt>
      <trkpt lat="68.16795" lon="13.84051">
        <ele>3.845767</ele>
        <time>2020-07-15T15:45:35.245Z</time>
      </trkpt>
      <trkpt lat="68.16836" lon="13.84297">
        <ele>5.42571</ele>
        <time>2020-07-15T15:45:58.625Z</time>
      </trkpt>
      <trkpt lat="68.16853" lon="13.84341">
        <ele>5.795288</ele>
        <time>2020-07-15T15:46:04.274Z</time>
      </trkpt>
      <trkpt lat="68.16915" lon="13.84419">
        <ele>6.245006</ele>
        <time>2020-07-15T15:46:19.557Z</time>
      </trkpt>
      <trkpt lat="68.16988" lon="13.84479">
        <ele>6.367268</ele>
        <time>2020-07-15T15:46:33.428Z</time>
      </trkpt>
      <trkpt lat="68.17061" lon="13.84556">
        <ele>6.193138</ele>
        <time>2020-07-15T15:46:46.072Z</time>
      </trkpt>
      <trkpt lat="68.17171" lon="13.846">
        <ele>4.612704</ele>
        <time>2020-07-15T15:47:02.257Z</time>
      </trkpt>
      <trkpt lat="68.17189" lon="13.84627">
        <ele>4.321821</ele>
        <time>2020-07-15T15:47:05.137Z</time>
      </trkpt>
      <trkpt lat="68.17239" lon="13.84747">
        <ele>3.684325</ele>
        <time>2020-07-15T15:47:14.987Z</time>
      </trkpt>
      <trkpt lat="68.17323" lon="13.84842">
        <ele>3.168107</ele>
        <time>2020-07-15T15:47:29.385Z</time>
      </trkpt>
      <trkpt lat="68.17368" lon="13.84869">
        <ele>2.902743</ele>
        <time>2020-07-15T15:47:37.911Z</time>
      </trkpt>
      <trkpt lat="68.17468" lon="13.84862">
        <ele>4.102534</ele>
        <time>2020-07-15T15:47:59.184Z</time>
      </trkpt>
      <trkpt lat="68.17548" lon="13.84918">
        <ele>5.178099</ele>
        <time>2020-07-15T15:48:19.018Z</time>
      </trkpt>
      <trkpt lat="68.17613" lon="13.84894">
        <ele>5.811191</ele>
        <time>2020-07-15T15:48:33.794Z</time>
      </trkpt>
      <trkpt lat="68.17685" lon="13.84949">
        <ele>6.535376</ele>
        <time>2020-07-15T15:48:49.779Z</time>
      </trkpt>
      <trkpt lat="68.17807" lon="13.84928">
        <ele>6.766491</ele>
        <time>2020-07-15T15:49:11.674Z</time>
      </trkpt>
      <trkpt lat="68.17821" lon="13.84927">
        <ele>6.738254</ele>
        <time>2020-07-15T15:49:14.098Z</time>
      </trkpt>
      <trkpt lat="68.17836" lon="13.84929">
        <ele>6.707967</ele>
        <time>2020-07-15T15:49:16.496Z</time>
      </trkpt>
      <trkpt lat="68.17852" lon="13.84932">
        <ele>6.675986</ele>
        <time>2020-07-15T15:49:19.139Z</time>
      </trkpt>
      <trkpt lat="68.17865" lon="13.84937">
        <ele>6.649559</ele>
        <time>2020-07-15T15:49:21.211Z</time>
      </trkpt>
      <trkpt lat="68.17899" lon="13.84962">
        <ele>6.576783</ele>
        <time>2020-07-15T15:49:27.054Z</time>
      </trkpt>
      <trkpt lat="68.17924" lon="13.85">
        <ele>6.484245</ele>
        <time>2020-07-15T15:49:31.811Z</time>
      </trkpt>
      <trkpt lat="68.18024" lon="13.85219">
        <ele>6.033446</ele>
        <time>2020-07-15T15:49:53.441Z</time>
      </trkpt>
      <trkpt lat="68.18054" lon="13.85248">
        <ele>5.927216</ele>
        <time>2020-07-15T15:49:59.223Z</time>
      </trkpt>
      <trkpt lat="68.18099" lon="13.85257">
        <ele>5.846614</ele>
        <time>2020-07-15T15:50:07.189Z</time>
      </trkpt>
      <trkpt lat="68.18171" lon="13.85276">
        <ele>5.715642</ele>
        <time>2020-07-15T15:50:19.824Z</time>
      </trkpt>
      <trkpt lat="68.1821" lon="13.85289">
        <ele>5.645515</ele>
        <time>2020-07-15T15:50:26.338Z</time>
      </trkpt>
      <trkpt lat="68.18233" lon="13.85303">
        <ele>5.586427</ele>
        <time>2020-07-15T15:50:30.485Z</time>
      </trkpt>
      <trkpt lat="68.18257" lon="13.85349">
        <ele>5.424178</ele>
        <time>2020-07-15T15:50:35.309Z</time>
      </trkpt>
      <trkpt lat="68.18267" lon="13.85396">
        <ele>5.310018</ele>
        <time>2020-07-15T15:50:38.604Z</time>
      </trkpt>
      <trkpt lat="68.18274" lon="13.85465">
        <ele>5.160886</ele>
        <time>2020-07-15T15:50:43.128Z</time>
      </trkpt>
      <trkpt lat="68.18276" lon="13.8548">
        <ele>5.128837</ele>
        <time>2020-07-15T15:50:43.948Z</time>
      </trkpt>
      <trkpt lat="68.18277" lon="13.85492">
        <ele>5.104028</ele>
        <time>2020-07-15T15:50:44.650Z</time>
      </trkpt>
      <trkpt lat="68.18282" lon="13.85572">
        <ele>4.935804</ele>
        <time>2020-07-15T15:50:49.480Z</time>
      </trkpt>
      <trkpt lat="68.18299" lon="13.8569">
        <ele>4.672686</ele>
        <time>2020-07-15T15:50:57.169Z</time>
      </trkpt>
      <trkpt lat="68.18348" lon="13.85855">
        <ele>4.594656</ele>
        <time>2020-07-15T15:51:10.124Z</time>
      </trkpt>
      <trkpt lat="68.18387" lon="13.8596">
        <ele>4.58386</ele>
        <time>2020-07-15T15:51:20.450Z</time>
      </trkpt>
      <trkpt lat="68.18411" lon="13.86004">
        <ele>4.578227</ele>
        <time>2020-07-15T15:51:25.809Z</time>
      </trkpt>
      <trkpt lat="68.18436" lon="13.86032">
        <ele>4.573053</ele>
        <time>2020-07-15T15:51:30.761Z</time>
      </trkpt>
      <trkpt lat="68.18469" lon="13.86047">
        <ele>4.628261</ele>
        <time>2020-07-15T15:51:37.185Z</time>
      </trkpt>
      <trkpt lat="68.18476" lon="13.86047">
        <ele>4.641779</ele>
        <time>2020-07-15T15:51:38.555Z</time>
      </trkpt>
      <trkpt lat="68.18483" lon="13.86044">
        <ele>4.654054</ele>
        <time>2020-07-15T15:51:40.145Z</time>
      </trkpt>
      <trkpt lat="68.18587" lon="13.85887">
        <ele>4.865909</ele>
        <time>2020-07-15T15:52:02.273Z</time>
      </trkpt>
      <trkpt lat="68.18607" lon="13.85872">
        <ele>4.842411</ele>
        <time>2020-07-15T15:52:05.969Z</time>
      </trkpt>
      <trkpt lat="68.18653" lon="13.85866">
        <ele>4.471823</ele>
        <time>2020-07-15T15:52:13.669Z</time>
      </trkpt>
      <trkpt lat="68.18951" lon="13.86021">
        <ele>1.498892</ele>
        <time>2020-07-15T15:53:00.073Z</time>
      </trkpt>
      <trkpt lat="68.18999" lon="13.86071">
        <ele>1.311105</ele>
        <time>2020-07-15T15:53:08.107Z</time>
      </trkpt>
      <trkpt lat="68.19059" lon="13.86166">
        <ele>1.099226</ele>
        <time>2020-07-15T15:53:19.574Z</time>
      </trkpt>
      <trkpt lat="68.19068" lon="13.86182">
        <ele>1.066387</ele>
        <time>2020-07-15T15:53:21.273Z</time>
      </trkpt>
      <trkpt lat="68.19088" lon="13.86223">
        <ele>0.990595</ele>
        <time>2020-07-15T15:53:25.676Z</time>
      </trkpt>
      <trkpt lat="68.19117" lon="13.86285">
        <ele>1.027907</ele>
        <time>2020-07-15T15:53:33.237Z</time>
      </trkpt>
      <trkpt lat="68.19132" lon="13.86319">
        <ele>1.269511</ele>
        <time>2020-07-15T15:53:37.501Z</time>
      </trkpt>
      <trkpt lat="68.19136" lon="13.86329">
        <ele>1.343608</ele>
        <time>2020-07-15T15:53:38.719Z</time>
      </trkpt>
      <trkpt lat="68.19141" lon="13.86339">
        <ele>1.417558</ele>
        <time>2020-07-15T15:53:39.875Z</time>
      </trkpt>
      <trkpt lat="68.19153" lon="13.86367">
        <ele>1.609835</ele>
        <time>2020-07-15T15:53:43.617Z</time>
      </trkpt>
      <trkpt lat="68.19167" lon="13.86396">
        <ele>1.823599</ele>
        <time>2020-07-15T15:53:47.246Z</time>
      </trkpt>
      <trkpt lat="68.19174" lon="13.86414">
        <ele>1.943426</ele>
        <time>2020-07-15T15:53:49.571Z</time>
      </trkpt>
      <trkpt lat="68.1918" lon="13.86429">
        <ele>2.050418</ele>
        <time>2020-07-15T15:53:51.672Z</time>
      </trkpt>
      <trkpt lat="68.1919" lon="13.86458">
        <ele>2.231222</ele>
        <time>2020-07-15T15:53:54.888Z</time>
      </trkpt>
      <trkpt lat="68.19195" lon="13.86473">
        <ele>2.318758</ele>
        <time>2020-07-15T15:53:56.357Z</time>
      </trkpt>
      <trkpt lat="68.192" lon="13.86492">
        <ele>2.430087</ele>
        <time>2020-07-15T15:53:59.089Z</time>
      </trkpt>
      <trkpt lat="68.19215" lon="13.86564">
        <ele>2.807714</ele>
        <time>2020-07-15T15:54:06.297Z</time>
      </trkpt>
      <trkpt lat="68.19269" lon="13.86921">
        <ele>3.450876</ele>
        <time>2020-07-15T15:54:35.199Z</time>
      </trkpt>
      <trkpt lat="68.19272" lon="13.86947">
        <ele>3.478068</ele>
        <time>2020-07-15T15:54:37.365Z</time>
      </trkpt>
      <trkpt lat="68.19273" lon="13.86977">
        <ele>3.509333</ele>
        <time>2020-07-15T15:54:38.851Z</time>
      </trkpt>
      <trkpt lat="68.19259" lon="13.87109">
        <ele>3.556122</ele>
        <time>2020-07-15T15:54:47.314Z</time>
      </trkpt>
      <trkpt lat="68.19261" lon="13.87142">
        <ele>3.472416</ele>
        <time>2020-07-15T15:54:49.456Z</time>
      </trkpt>
      <trkpt lat="68.19304" lon="13.87302">
        <ele>2.968835</ele>
        <time>2020-07-15T15:55:00.721Z</time>
      </trkpt>
      <trkpt lat="68.19329" lon="13.87366">
        <ele>2.73563</ele>
        <time>2020-07-15T15:55:05.900Z</time>
      </trkpt>
      <trkpt lat="68.19384" lon="13.87467">
        <ele>2.374085</ele>
        <time>2020-07-15T15:55:17.559Z</time>
      </trkpt>
      <trkpt lat="68.19407" lon="13.87486">
        <ele>2.348809</ele>
        <time>2020-07-15T15:55:21.766Z</time>
      </trkpt>
      <trkpt lat="68.19471" lon="13.87502">
        <ele>2.280428</ele>
        <time>2020-07-15T15:55:33.348Z</time>
      </trkpt>
      <trkpt lat="68.19499" lon="13.87531">
        <ele>2.248583</ele>
        <time>2020-07-15T15:55:38.687Z</time>
      </trkpt>
      <trkpt lat="68.19518" lon="13.87569">
        <ele>2.223108</ele>
        <time>2020-07-15T15:55:42.903Z</time>
      </trkpt>
      <trkpt lat="68.19569" lon="13.87706">
        <ele>2.138046</ele>
        <time>2020-07-15T15:55:55.141Z</time>
      </trkpt>
      <trkpt lat="68.19582" lon="13.87757">
        <ele>2.109784</ele>
        <time>2020-07-15T15:55:58.968Z</time>
      </trkpt>
      <trkpt lat="68.19628" lon="13.88094">
        <ele>2.126394</ele>
        <time>2020-07-15T15:56:22.456Z</time>
      </trkpt>
      <trkpt lat="68.19652" lon="13.88194">
        <ele>2.359495</ele>
        <time>2020-07-15T15:56:30.910Z</time>
      </trkpt>
      <trkpt lat="68.19682" lon="13.88243">
        <ele>2.549582</ele>
        <time>2020-07-15T15:56:38.004Z</time>
      </trkpt>
      <trkpt lat="68.19774" lon="13.88345">
        <ele>3.079528</ele>
        <time>2020-07-15T15:56:58.573Z</time>
      </trkpt>
      <trkpt lat="68.19888" lon="13.88443">
        <ele>3.729906</ele>
        <time>2020-07-15T15:57:22.511Z</time>
      </trkpt>
      <trkpt lat="68.19911" lon="13.88459">
        <ele>3.860383</ele>
        <time>2020-07-15T15:57:27.010Z</time>
      </trkpt>
      <trkpt lat="68.19927" lon="13.88472">
        <ele>3.888599</ele>
        <time>2020-07-15T15:57:29.798Z</time>
      </trkpt>
      <trkpt lat="68.19986" lon="13.88506">
        <ele>3.655656</ele>
        <time>2020-07-15T15:57:40.086Z</time>
      </trkpt>
      <trkpt lat="68.20017" lon="13.88496">
        <ele>3.534938</ele>
        <time>2020-07-15T15:57:45.228Z</time>
      </trkpt>
      <trkpt lat="68.2005" lon="13.88437">
        <ele>3.379671</ele>
        <time>2020-07-15T15:57:51.740Z</time>
      </trkpt>
      <trkpt lat="68.20083" lon="13.88321">
        <ele>3.198958</ele>
        <time>2020-07-15T15:58:00.420Z</time>
      </trkpt>
      <trkpt lat="68.2011" lon="13.8826">
        <ele>3.142812</ele>
        <time>2020-07-15T15:58:06.280Z</time>
      </trkpt>
      <trkpt lat="68.20127" lon="13.88239">
        <ele>3.114292</ele>
        <time>2020-07-15T15:58:09.307Z</time>
      </trkpt>
      <trkpt lat="68.20214" lon="13.8822">
        <ele>2.977494</ele>
        <time>2020-07-15T15:58:25.296Z</time>
      </trkpt>
      <trkpt lat="68.20245" lon="13.88195">
        <ele>2.920377</ele>
        <time>2020-07-15T15:58:31.567Z</time>
      </trkpt>
      <trkpt lat="68.20266" lon="13.88163">
        <ele>2.861472</ele>
        <time>2020-07-15T15:58:35.327Z</time>
      </trkpt>
      <trkpt lat="68.2029" lon="13.88092">
        <ele>2.772792</ele>
        <time>2020-07-15T15:58:41.617Z</time>
      </trkpt>
      <trkpt lat="68.20297" lon="13.88081">
        <ele>2.753758</ele>
        <time>2020-07-15T15:58:43.672Z</time>
      </trkpt>
      <trkpt lat="68.20305" lon="13.88072">
        <ele>2.732987</ele>
        <time>2020-07-15T15:58:44.831Z</time>
      </trkpt>
      <trkpt lat="68.20344" lon="13.8807">
        <ele>2.63505</ele>
        <time>2020-07-15T15:58:51.530Z</time>
      </trkpt>
      <trkpt lat="68.2037" lon="13.88083">
        <ele>2.570265</ele>
        <time>2020-07-15T15:58:56.543Z</time>
      </trkpt>
      <trkpt lat="68.20377" lon="13.88089">
        <ele>2.553855</ele>
        <time>2020-07-15T15:58:57.430Z</time>
      </trkpt>
      <trkpt lat="68.20383" lon="13.88097">
        <ele>2.535695</ele>
        <time>2020-07-15T15:58:58.600Z</time>
      </trkpt>
      <trkpt lat="68.20403" lon="13.88143">
        <ele>2.448742</ele>
        <time>2020-07-15T15:59:03.275Z</time>
      </trkpt>
      <trkpt lat="68.20442" lon="13.88275">
        <ele>2.119811</ele>
        <time>2020-07-15T15:59:13.380Z</time>
      </trkpt>
      <trkpt lat="68.20475" lon="13.88383">
        <ele>1.846883</ele>
        <time>2020-07-15T15:59:21.474Z</time>
      </trkpt>
      <trkpt lat="68.20476" lon="13.88387">
        <ele>1.837661</ele>
        <time>2020-07-15T15:59:21.792Z</time>
      </trkpt>
      <trkpt lat="68.20508" lon="13.88488">
        <ele>1.581056</ele>
        <time>2020-07-15T15:59:30.384Z</time>
      </trkpt>
      <trkpt lat="68.2051" lon="13.88494">
        <ele>1.562336</ele>
        <time>2020-07-15T15:59:30.971Z</time>
      </trkpt>
      <trkpt lat="68.20514" lon="13.88504">
        <ele>1.553177</ele>
        <time>2020-07-15T15:59:31.823Z</time>
      </trkpt>
      <trkpt lat="68.20523" lon="13.88533">
        <ele>1.565269</ele>
        <time>2020-07-15T15:59:34.254Z</time>
      </trkpt>
      <trkpt lat="68.20524" lon="13.88537">
        <ele>1.567147</ele>
        <time>2020-07-15T15:59:34.580Z</time>
      </trkpt>
      <trkpt lat="68.20553" lon="13.88628">
        <ele>1.605</ele>
        <time>2020-07-15T15:59:42.324Z</time>
      </trkpt>
      <trkpt lat="68.20558" lon="13.88648">
        <ele>1.61299</ele>
        <time>2020-07-15T15:59:43.868Z</time>
      </trkpt>
      <trkpt lat="68.20562" lon="13.88663">
        <ele>1.618541</ele>
        <time>2020-07-15T15:59:44.972Z</time>
      </trkpt>
      <trkpt lat="68.20567" lon="13.88704">
        <ele>1.632614</ele>
        <time>2020-07-15T15:59:47.632Z</time>
      </trkpt>
      <trkpt lat="68.20568" lon="13.88718">
        <ele>1.637254</ele>
        <time>2020-07-15T15:59:48.741Z</time>
      </trkpt>
      <trkpt lat="68.20567" lon="13.88768">
        <ele>1.653269</ele>
        <time>2020-07-15T15:59:52.269Z</time>
      </trkpt>
      <trkpt lat="68.20555" lon="13.88915">
        <ele>1.701232</ele>
        <time>2020-07-15T16:00:02.658Z</time>
      </trkpt>
      <trkpt lat="68.20527" lon="13.89059">
        <ele>2.190985</ele>
        <time>2020-07-15T16:00:15.134Z</time>
      </trkpt>
      <trkpt lat="68.20525" lon="13.89072">
        <ele>2.23707</ele>
        <time>2020-07-15T16:00:15.961Z</time>
      </trkpt>
      <trkpt lat="68.20522" lon="13.89102">
        <ele>2.335534</ele>
        <time>2020-07-15T16:00:18.721Z</time>
      </trkpt>
      <trkpt lat="68.20507" lon="13.89295">
        <ele>2.977858</ele>
        <time>2020-07-15T16:00:34.400Z</time>
      </trkpt>
      <trkpt lat="68.20495" lon="13.8938">
        <ele>3.276579</ele>
        <time>2020-07-15T16:00:41.514Z</time>
      </trkpt>
      <trkpt lat="68.20473" lon="13.8946">
        <ele>3.512234</ele>
        <time>2020-07-15T16:00:48.665Z</time>
      </trkpt>
      <trkpt lat="68.2043" lon="13.89551">
        <ele>3.863391</ele>
        <time>2020-07-15T16:00:58.917Z</time>
      </trkpt>
      <trkpt lat="68.20417" lon="13.89567">
        <ele>3.95321</ele>
        <time>2020-07-15T16:01:02.126Z</time>
      </trkpt>
      <trkpt lat="68.20406" lon="13.89581">
        <ele>4.035124</ele>
        <time>2020-07-15T16:01:04.311Z</time>
      </trkpt>
      <trkpt lat="68.20367" lon="13.89604">
        <ele>4.291381</ele>
        <time>2020-07-15T16:01:12.257Z</time>
      </trkpt>
      <trkpt lat="68.20359" lon="13.89608">
        <ele>4.338958</ele>
        <time>2020-07-15T16:01:13.422Z</time>
      </trkpt>
      <trkpt lat="68.2035" lon="13.89612">
        <ele>4.39823</ele>
        <time>2020-07-15T16:01:15.677Z</time>
      </trkpt>
      <trkpt lat="68.2032" lon="13.8963">
        <ele>4.995519</ele>
        <time>2020-07-15T16:01:21.456Z</time>
      </trkpt>
      <trkpt lat="68.20274" lon="13.89678">
        <ele>6.109814</ele>
        <time>2020-07-15T16:01:33.166Z</time>
      </trkpt>
      <trkpt lat="68.20228" lon="13.89688">
        <ele>7.158793</ele>
        <time>2020-07-15T16:01:45.641Z</time>
      </trkpt>
      <trkpt lat="68.2021" lon="13.89726">
        <ele>7.656372</ele>
        <time>2020-07-15T16:01:52.069Z</time>
      </trkpt>
      <trkpt lat="68.20193" lon="13.89799">
        <ele>8.379342</ele>
        <time>2020-07-15T16:02:01.382Z</time>
      </trkpt>
      <trkpt lat="68.2018" lon="13.89835">
        <ele>8.618663</ele>
        <time>2020-07-15T16:02:06.170Z</time>
      </trkpt>
      <trkpt lat="68.20177" lon="13.89839">
        <ele>8.655496</ele>
        <time>2020-07-15T16:02:07.934Z</time>
      </trkpt>
      <trkpt lat="68.20168" lon="13.8985">
        <ele>8.746415</ele>
        <time>2020-07-15T16:02:10.313Z</time>
      </trkpt>
      <trkpt lat="68.20156" lon="13.89858">
        <ele>8.862923</ele>
        <time>2020-07-15T16:02:13.299Z</time>
      </trkpt>
      <trkpt lat="68.20127" lon="13.89866">
        <ele>9.149395</ele>
        <time>2020-07-15T16:02:20.900Z</time>
      </trkpt>
      <trkpt lat="68.20114" lon="13.89871">
        <ele>9.282613</ele>
        <time>2020-07-15T16:02:23.982Z</time>
      </trkpt>
      <trkpt lat="68.20076" lon="13.89863">
        <ele>9.645321</ele>
        <time>2020-07-15T16:02:32.401Z</time>
      </trkpt>
      <trkpt lat="68.19992" lon="13.89778">
        <ele>9.442997</ele>
        <time>2020-07-15T16:02:46.148Z</time>
      </trkpt>
      <trkpt lat="68.19927" lon="13.89658">
        <ele>7.378717</ele>
        <time>2020-07-15T16:02:56.240Z</time>
      </trkpt>
      <trkpt lat="68.19922" lon="13.89651">
        <ele>7.22814</ele>
        <time>2020-07-15T16:02:56.878Z</time>
      </trkpt>
      <trkpt lat="68.19919" lon="13.89647">
        <ele>7.129749</ele>
        <time>2020-07-15T16:02:57.325Z</time>
      </trkpt>
      <trkpt lat="68.19882" lon="13.89573">
        <ele>5.929975</ele>
        <time>2020-07-15T16:03:03.539Z</time>
      </trkpt>
      <trkpt lat="68.19876" lon="13.89562">
        <ele>5.735932</ele>
        <time>2020-07-15T16:03:04.551Z</time>
      </trkpt>
      <trkpt lat="68.19866" lon="13.89541">
        <ele>5.551287</ele>
        <time>2020-07-15T16:03:06.319Z</time>
      </trkpt>
      <trkpt lat="68.19836" lon="13.89504">
        <ele>5.832039</ele>
        <time>2020-07-15T16:03:11.531Z</time>
      </trkpt>
      <trkpt lat="68.19814" lon="13.895">
        <ele>6.017982</ele>
        <time>2020-07-15T16:03:14.865Z</time>
      </trkpt>
      <trkpt lat="68.19811" lon="13.89501">
        <ele>6.041849</ele>
        <time>2020-07-15T16:03:15.305Z</time>
      </trkpt>
      <trkpt lat="68.19804" lon="13.89504">
        <ele>6.100705</ele>
        <time>2020-07-15T16:03:17.204Z</time>
      </trkpt>
      <trkpt lat="68.19765" lon="13.89543">
        <ele>6.449459</ele>
        <time>2020-07-15T16:03:25.875Z</time>
      </trkpt>
      <trkpt lat="68.19735" lon="13.89577">
        <ele>6.729407</ele>
        <time>2020-07-15T16:03:34.704Z</time>
      </trkpt>
      <trkpt lat="68.19633" lon="13.89682">
        <ele>8.438744</ele>
        <time>2020-07-15T16:04:04.829Z</time>
      </trkpt>
      <trkpt lat="68.19603" lon="13.89695">
        <ele>9.024549</ele>
        <time>2020-07-15T16:04:12.601Z</time>
      </trkpt>
      <trkpt lat="68.19572" lon="13.89686">
        <ele>9.610328</ele>
        <time>2020-07-15T16:04:19.778Z</time>
      </trkpt>
      <trkpt lat="68.19404" lon="13.89513">
        <ele>10.959443</ele>
        <time>2020-07-15T16:04:52.921Z</time>
      </trkpt>
      <trkpt lat="68.19364" lon="13.89457">
        <ele>11.117232</ele>
        <time>2020-07-15T16:05:01.581Z</time>
      </trkpt>
      <trkpt lat="68.19357" lon="13.89448">
        <ele>11.144777</ele>
        <time>2020-07-15T16:05:03.582Z</time>
      </trkpt>
      <trkpt lat="68.19331" lon="13.89416">
        <ele>11.248787</ele>
        <time>2020-07-15T16:05:08.880Z</time>
      </trkpt>
      <trkpt lat="68.19276" lon="13.89348">
        <ele>11.471407</ele>
        <time>2020-07-15T16:05:21.435Z</time>
      </trkpt>
      <trkpt lat="68.19216" lon="13.89298">
        <ele>11.701387</ele>
        <time>2020-07-15T16:05:34.361Z</time>
      </trkpt>
      <trkpt lat="68.18873" lon="13.89251">
        <ele>7.380543</ele>
        <time>2020-07-15T16:06:25.281Z</time>
      </trkpt>
      <trkpt lat="68.18775" lon="13.89205">
        <ele>6.191093</ele>
        <time>2020-07-15T16:06:39.845Z</time>
      </trkpt>
      <trkpt lat="68.18749" lon="13.89216">
        <ele>5.922304</ele>
        <time>2020-07-15T16:06:43.772Z</time>
      </trkpt>
      <trkpt lat="68.18677" lon="13.89276">
        <ele>5.141478</ele>
        <time>2020-07-15T16:06:55.496Z</time>
      </trkpt>
      <trkpt lat="68.18506" lon="13.8932">
        <ele>5.530055</ele>
        <time>2020-07-15T16:07:26.889Z</time>
      </trkpt>
      <trkpt lat="68.18473" lon="13.89338">
        <ele>5.846893</ele>
        <time>2020-07-15T16:07:34.378Z</time>
      </trkpt>
      <trkpt lat="68.18455" lon="13.89372">
        <ele>6.326277</ele>
        <time>2020-07-15T16:07:39.429Z</time>
      </trkpt>
      <trkpt lat="68.18447" lon="13.89412">
        <ele>6.711777</ele>
        <time>2020-07-15T16:07:43.580Z</time>
      </trkpt>
      <trkpt lat="68.18443" lon="13.89686">
        <ele>8.998557</ele>
        <time>2020-07-15T16:08:10.373Z</time>
      </trkpt>
      <trkpt lat="68.18432" lon="13.89798">
        <ele>9.767098</ele>
        <time>2020-07-15T16:08:22.228Z</time>
      </trkpt>
      <trkpt lat="68.18417" lon="13.89862">
        <ele>10.012387</ele>
        <time>2020-07-15T16:08:29.978Z</time>
      </trkpt>
      <trkpt lat="68.18359" lon="13.90052">
        <ele>10.798384</ele>
        <time>2020-07-15T16:08:47.912Z</time>
      </trkpt>
      <trkpt lat="68.18333" lon="13.90173">
        <ele>11.127013</ele>
        <time>2020-07-15T16:08:56.966Z</time>
      </trkpt>
      <trkpt lat="68.1833" lon="13.90197">
        <ele>10.99972</ele>
        <time>2020-07-15T16:08:58.242Z</time>
      </trkpt>
      <trkpt lat="68.18323" lon="13.90253">
        <ele>10.703782</ele>
        <time>2020-07-15T16:09:01.819Z</time>
      </trkpt>
      <trkpt lat="68.18322" lon="13.9027">
        <ele>10.612554</ele>
        <time>2020-07-15T16:09:02.805Z</time>
      </trkpt>
      <trkpt lat="68.18318" lon="13.90318">
        <ele>10.363546</ele>
        <time>2020-07-15T16:09:05.363Z</time>
      </trkpt>
      <trkpt lat="68.18286" lon="13.90651">
        <ele>8.650591</ele>
        <time>2020-07-15T16:09:23.728Z</time>
      </trkpt>
      <trkpt lat="68.18272" lon="13.90852">
        <ele>7.905402</ele>
        <time>2020-07-15T16:09:36.309Z</time>
      </trkpt>
      <trkpt lat="68.18244" lon="13.91037">
        <ele>7.175255</ele>
        <time>2020-07-15T16:09:48.310Z</time>
      </trkpt>
      <trkpt lat="68.18235" lon="13.91317">
        <ele>5.529007</ele>
        <time>2020-07-15T16:10:03.335Z</time>
      </trkpt>
      <trkpt lat="68.18234" lon="13.91328">
        <ele>5.459195</ele>
        <time>2020-07-15T16:10:03.862Z</time>
      </trkpt>
      <trkpt lat="68.18234" lon="13.91354">
        <ele>5.293195</ele>
        <time>2020-07-15T16:10:05.055Z</time>
      </trkpt>
      <trkpt lat="68.18219" lon="13.91512">
        <ele>4.257801</ele>
        <time>2020-07-15T16:10:14.106Z</time>
      </trkpt>
      <trkpt lat="68.18212" lon="13.91541">
        <ele>4.03408</ele>
        <time>2020-07-15T16:10:15.751Z</time>
      </trkpt>
      <trkpt lat="68.18203" lon="13.91575">
        <ele>3.854111</ele>
        <time>2020-07-15T16:10:18.505Z</time>
      </trkpt>
      <trkpt lat="68.18195" lon="13.91643">
        <ele>3.739195</ele>
        <time>2020-07-15T16:10:22.255Z</time>
      </trkpt>
      <trkpt lat="68.18202" lon="13.91724">
        <ele>3.603764</ele>
        <time>2020-07-15T16:10:26.852Z</time>
      </trkpt>
      <trkpt lat="68.18211" lon="13.9177">
        <ele>3.519226</ele>
        <time>2020-07-15T16:10:30.546Z</time>
      </trkpt>
      <trkpt lat="68.1828" lon="13.91941">
        <ele>3.106514</ele>
        <time>2020-07-15T16:10:47.575Z</time>
      </trkpt>
      <trkpt lat="68.18316" lon="13.92053">
        <ele>3.125744</ele>
        <time>2020-07-15T16:10:58.364Z</time>
      </trkpt>
      <trkpt lat="68.18351" lon="13.92201">
        <ele>3.1613</ele>
        <time>2020-07-15T16:11:10.570Z</time>
      </trkpt>
      <trkpt lat="68.18365" lon="13.92273">
        <ele>3.177824</ele>
        <time>2020-07-15T16:11:15.790Z</time>
      </trkpt>
      <trkpt lat="68.18367" lon="13.92283">
        <ele>3.180079</ele>
        <time>2020-07-15T16:11:16.543Z</time>
      </trkpt>
      <trkpt lat="68.18376" lon="13.92354">
        <ele>3.194498</ele>
        <time>2020-07-15T16:11:21.127Z</time>
      </trkpt>
      <trkpt lat="68.18385" lon="13.92477">
        <ele>2.908647</ele>
        <time>2020-07-15T16:11:28.804Z</time>
      </trkpt>
      <trkpt lat="68.18386" lon="13.92491">
        <ele>2.875914</ele>
        <time>2020-07-15T16:11:29.579Z</time>
      </trkpt>
      <trkpt lat="68.18406" lon="13.92655">
        <ele>2.481292</ele>
        <time>2020-07-15T16:11:39.805Z</time>
      </trkpt>
      <trkpt lat="68.1842" lon="13.92703">
        <ele>2.34098</ele>
        <time>2020-07-15T16:11:43.629Z</time>
      </trkpt>
      <trkpt lat="68.18593" lon="13.9294">
        <ele>1.290572</ele>
        <time>2020-07-15T16:12:15.424Z</time>
      </trkpt>
      <trkpt lat="68.1868" lon="13.93008">
        <ele>0.884649</ele>
        <time>2020-07-15T16:12:30.136Z</time>
      </trkpt>
      <trkpt lat="68.18729" lon="13.93029">
        <ele>0.676854</ele>
        <time>2020-07-15T16:12:38.442Z</time>
      </trkpt>
      <trkpt lat="68.18742" lon="13.93035">
        <ele>0.620889</ele>
        <time>2020-07-15T16:12:40.612Z</time>
      </trkpt>
      <trkpt lat="68.1877" lon="13.93055">
        <ele>0.499911</ele>
        <time>2020-07-15T16:12:45.558Z</time>
      </trkpt>
      <trkpt lat="68.18776" lon="13.93062">
        <ele>0.472515</ele>
        <time>2020-07-15T16:12:46.598Z</time>
      </trkpt>
      <trkpt lat="68.18796" lon="13.93083">
        <ele>0.426176</ele>
        <time>2020-07-15T16:12:50.475Z</time>
      </trkpt>
      <trkpt lat="68.18876" lon="13.93125">
        <ele>0.940189</ele>
        <time>2020-07-15T16:13:04.756Z</time>
      </trkpt>
      <trkpt lat="68.18989" lon="13.93218">
        <ele>1.757997</ele>
        <time>2020-07-15T16:13:30.744Z</time>
      </trkpt>
      <trkpt lat="68.18993" lon="13.93221">
        <ele>1.796619</ele>
        <time>2020-07-15T16:13:31.801Z</time>
      </trkpt>
      <trkpt lat="68.19028" lon="13.93255">
        <ele>2.134223</ele>
        <time>2020-07-15T16:13:40.355Z</time>
      </trkpt>
      <trkpt lat="68.19079" lon="13.93315">
        <ele>2.646158</ele>
        <time>2020-07-15T16:13:51.880Z</time>
      </trkpt>
      <trkpt lat="68.19091" lon="13.9333">
        <ele>2.769461</ele>
        <time>2020-07-15T16:13:55.036Z</time>
      </trkpt>
      <trkpt lat="68.19127" lon="13.9338">
        <ele>3.141578</ele>
        <time>2020-07-15T16:14:02.879Z</time>
      </trkpt>
      <trkpt lat="68.19173" lon="13.93443">
        <ele>2.809922</ele>
        <time>2020-07-15T16:14:11.746Z</time>
      </trkpt>
      <trkpt lat="68.19238" lon="13.93535">
        <ele>2.205234</ele>
        <time>2020-07-15T16:14:23.495Z</time>
      </trkpt>
      <trkpt lat="68.19328" lon="13.93638">
        <ele>1.383746</ele>
        <time>2020-07-15T16:14:37.461Z</time>
      </trkpt>
      <trkpt lat="68.1935" lon="13.93665">
        <ele>1.167864</ele>
        <time>2020-07-15T16:14:41.124Z</time>
      </trkpt>
      <trkpt lat="68.19366" lon="13.9369">
        <ele>0.999159</ele>
        <time>2020-07-15T16:14:44.073Z</time>
      </trkpt>
      <trkpt lat="68.19382" lon="13.93719">
        <ele>0.831595</ele>
        <time>2020-07-15T16:14:47.103Z</time>
      </trkpt>
      <trkpt lat="68.19408" lon="13.9377">
        <ele>0.547965</ele>
        <time>2020-07-15T16:14:52.355Z</time>
      </trkpt>
      <trkpt lat="68.19444" lon="13.93853">
        <ele>0.124089</ele>
        <time>2020-07-15T16:15:00.442Z</time>
      </trkpt>
      <trkpt lat="68.19455" lon="13.93882">
        <ele>0.110673</ele>
        <time>2020-07-15T16:15:03.024Z</time>
      </trkpt>
      <trkpt lat="68.19463" lon="13.93909">
        <ele>0.101968</ele>
        <time>2020-07-15T16:15:05.279Z</time>
      </trkpt>
      <trkpt lat="68.19475" lon="13.9395">
        <ele>0.089055</ele>
        <time>2020-07-15T16:15:08.720Z</time>
      </trkpt>
      <trkpt lat="68.19481" lon="13.93975">
        <ele>0.081412</ele>
        <time>2020-07-15T16:15:10.757Z</time>
      </trkpt>
      <trkpt lat="68.19498" lon="13.9404">
        <ele>0.061879</ele>
        <time>2020-07-15T16:15:15.969Z</time>
      </trkpt>
      <trkpt lat="68.19503" lon="13.94064">
        <ele>0.05486</ele>
        <time>2020-07-15T16:15:17.849Z</time>
      </trkpt>
      <trkpt lat="68.19507" lon="13.9408">
        <ele>0.050003</ele>
        <time>2020-07-15T16:15:19.136Z</time>
      </trkpt>
      <trkpt lat="68.19537" lon="13.94231">
        <ele>0.007643</ele>
        <time>2020-07-15T16:15:30.439Z</time>
      </trkpt>
      <trkpt lat="68.19541" lon="13.94251">
        <ele>0.002185</ele>
        <time>2020-07-15T16:15:31.900Z</time>
      </trkpt>
      <trkpt lat="68.19574" lon="13.94438">
        <ele>0.009088</ele>
        <time>2020-07-15T16:15:45.696Z</time>
      </trkpt>
      <trkpt lat="68.19597" lon="13.94569">
        <ele>0.015715</ele>
        <time>2020-07-15T16:15:55.368Z</time>
      </trkpt>
      <trkpt lat="68.19606" lon="13.94613">
        <ele>0.018027</ele>
        <time>2020-07-15T16:15:58.739Z</time>
      </trkpt>
      <trkpt lat="68.19608" lon="13.94623">
        <ele>0.018497</ele>
        <time>2020-07-15T16:15:59.422Z</time>
      </trkpt>
      <trkpt lat="68.19611" lon="13.94642">
        <ele>0.019467</ele>
        <time>2020-07-15T16:16:00.844Z</time>
      </trkpt>
      <trkpt lat="68.1962" lon="13.94699">
        <ele>0.022875</ele>
        <time>2020-07-15T16:16:05.019Z</time>
      </trkpt>
      <trkpt lat="68.19661" lon="13.94939">
        <ele>0.06505</ele>
        <time>2020-07-15T16:16:22.551Z</time>
      </trkpt>
      <trkpt lat="68.19694" lon="13.95266">
        <ele>0.125172</ele>
        <time>2020-07-15T16:16:45.065Z</time>
      </trkpt>
      <trkpt lat="68.19708" lon="13.95359">
        <ele>0.146219</ele>
        <time>2020-07-15T16:16:51.825Z</time>
      </trkpt>
      <trkpt lat="68.19711" lon="13.95381">
        <ele>0.150985</ele>
        <time>2020-07-15T16:16:53.347Z</time>
      </trkpt>
      <trkpt lat="68.19715" lon="13.95413">
        <ele>0.15801</ele>
        <time>2020-07-15T16:16:55.618Z</time>
      </trkpt>
      <trkpt lat="68.19719" lon="13.95492">
        <ele>0.174541</ele>
        <time>2020-07-15T16:17:00.960Z</time>
      </trkpt>
      <trkpt lat="68.19721" lon="13.95542">
        <ele>0.184769</ele>
        <time>2020-07-15T16:17:04.295Z</time>
      </trkpt>
      <trkpt lat="68.19725" lon="13.95631">
        <ele>0.212938</ele>
        <time>2020-07-15T16:17:10.391Z</time>
      </trkpt>
      <trkpt lat="68.19743" lon="13.96228">
        <ele>0.726709</ele>
        <time>2020-07-15T16:17:51.827Z</time>
      </trkpt>
      <trkpt lat="68.19747" lon="13.9629">
        <ele>0.793469</ele>
        <time>2020-07-15T16:17:56.130Z</time>
      </trkpt>
      <trkpt lat="68.19749" lon="13.96303">
        <ele>0.809336</ele>
        <time>2020-07-15T16:17:57.250Z</time>
      </trkpt>
      <trkpt lat="68.19754" lon="13.96326">
        <ele>0.83628</ele>
        <time>2020-07-15T16:17:59.049Z</time>
      </trkpt>
      <trkpt lat="68.19778" lon="13.96383">
        <ele>0.928316</ele>
        <time>2020-07-15T16:18:05.102Z</time>
      </trkpt>
      <trkpt lat="68.19836" lon="13.96454">
        <ele>1.113027</ele>
        <time>2020-07-15T16:18:17.067Z</time>
      </trkpt>
      <trkpt lat="68.19863" lon="13.96506">
        <ele>1.233548</ele>
        <time>2020-07-15T16:18:23.252Z</time>
      </trkpt>
      <trkpt lat="68.19866" lon="13.96516">
        <ele>1.251882</ele>
        <time>2020-07-15T16:18:24.270Z</time>
      </trkpt>
      <trkpt lat="68.19873" lon="13.96541">
        <ele>1.294683</ele>
        <time>2020-07-15T16:18:26.507Z</time>
      </trkpt>
      <trkpt lat="68.19903" lon="13.96677">
        <ele>1.510927</ele>
        <time>2020-07-15T16:18:37.587Z</time>
      </trkpt>
      <trkpt lat="68.19923" lon="13.96713">
        <ele>1.600318</ele>
        <time>2020-07-15T16:18:42.243Z</time>
      </trkpt>
      <trkpt lat="68.19938" lon="13.96728">
        <ele>1.659116</ele>
        <time>2020-07-15T16:18:45.307Z</time>
      </trkpt>
      <trkpt lat="68.19973" lon="13.96754">
        <ele>1.785516</ele>
        <time>2020-07-15T16:18:52.249Z</time>
      </trkpt>
      <trkpt lat="68.20026" lon="13.9679">
        <ele>1.942848</ele>
        <time>2020-07-15T16:19:02.901Z</time>
      </trkpt>
      <trkpt lat="68.20052" lon="13.96829">
        <ele>2.026859</ele>
        <time>2020-07-15T16:19:08.525Z</time>
      </trkpt>
      <trkpt lat="68.20081" lon="13.96916">
        <ele>2.151912</ele>
        <time>2020-07-15T16:19:16.724Z</time>
      </trkpt>
      <trkpt lat="68.20103" lon="13.97029">
        <ele>2.273284</ele>
        <time>2020-07-15T16:19:25.349Z</time>
      </trkpt>
      <trkpt lat="68.20107" lon="13.97056">
        <ele>2.255948</ele>
        <time>2020-07-15T16:19:27.377Z</time>
      </trkpt>
      <trkpt lat="68.20113" lon="13.97112">
        <ele>2.221359</ele>
        <time>2020-07-15T16:19:31.168Z</time>
      </trkpt>
      <trkpt lat="68.20177" lon="13.97976">
        <ele>1.587576</ele>
        <time>2020-07-15T16:20:27.273Z</time>
      </trkpt>
      <trkpt lat="68.20187" lon="13.98277">
        <ele>1.298248</ele>
        <time>2020-07-15T16:20:46.567Z</time>
      </trkpt>
      <trkpt lat="68.20185" lon="13.98559">
        <ele>1.089794</ele>
        <time>2020-07-15T16:21:04.509Z</time>
      </trkpt>
      <trkpt lat="68.2017" lon="13.99239">
        <ele>1.680178</ele>
        <time>2020-07-15T16:21:49.255Z</time>
      </trkpt>
      <trkpt lat="68.20164" lon="13.99325">
        <ele>1.891666</ele>
        <time>2020-07-15T16:21:56.179Z</time>
      </trkpt>
      <trkpt lat="68.20154" lon="13.99374">
        <ele>2.025084</ele>
        <time>2020-07-15T16:22:00.874Z</time>
      </trkpt>
      <trkpt lat="68.20148" lon="13.99401">
        <ele>2.102921</ele>
        <time>2020-07-15T16:22:03.663Z</time>
      </trkpt>
      <trkpt lat="68.20141" lon="13.99421">
        <ele>2.306098</ele>
        <time>2020-07-15T16:22:06.442Z</time>
      </trkpt>
      <trkpt lat="68.201" lon="13.99493">
        <ele>3.421353</ele>
        <time>2020-07-15T16:22:19.185Z</time>
      </trkpt>
      <trkpt lat="68.20079" lon="13.99513">
        <ele>3.915268</ele>
        <time>2020-07-15T16:22:25.146Z</time>
      </trkpt>
      <trkpt lat="68.20054" lon="13.99531">
        <ele>4.508558</ele>
        <time>2020-07-15T16:22:32.113Z</time>
      </trkpt>
      <trkpt lat="68.20038" lon="13.99539">
        <ele>4.869937</ele>
        <time>2020-07-15T16:22:36.357Z</time>
      </trkpt>
      <trkpt lat="68.20027" lon="13.99544">
        <ele>5.129011</ele>
        <time>2020-07-15T16:22:39.209Z</time>
      </trkpt>
      <trkpt lat="68.20001" lon="13.99557">
        <ele>5.737502</ele>
        <time>2020-07-15T16:22:45.723Z</time>
      </trkpt>
      <trkpt lat="68.19996" lon="13.99559">
        <ele>5.843162</ele>
        <time>2020-07-15T16:22:46.995Z</time>
      </trkpt>
      <trkpt lat="68.19973" lon="13.99567">
        <ele>6.272181</ele>
        <time>2020-07-15T16:22:52.460Z</time>
      </trkpt>
      <trkpt lat="68.19929" lon="13.99577">
        <ele>6.681377</ele>
        <time>2020-07-15T16:23:02.460Z</time>
      </trkpt>
      <trkpt lat="68.19904" lon="13.99578">
        <ele>6.904439</ele>
        <time>2020-07-15T16:23:07.966Z</time>
      </trkpt>
      <trkpt lat="68.19864" lon="13.99572">
        <ele>7.27333</ele>
        <time>2020-07-15T16:23:16.105Z</time>
      </trkpt>
      <trkpt lat="68.19777" lon="13.99576">
        <ele>8.05462</ele>
        <time>2020-07-15T16:23:32.067Z</time>
      </trkpt>
      <trkpt lat="68.19726" lon="13.99629">
        <ele>8.520132</ele>
        <time>2020-07-15T16:23:41.876Z</time>
      </trkpt>
      <trkpt lat="68.19673" lon="13.99765">
        <ele>9.148097</ele>
        <time>2020-07-15T16:23:57.955Z</time>
      </trkpt>
      <trkpt lat="68.19623" lon="13.99972">
        <ele>10.359123</ele>
        <time>2020-07-15T16:24:19.355Z</time>
      </trkpt>
      <trkpt lat="68.19608" lon="14.00002">
        <ele>10.643437</ele>
        <time>2020-07-15T16:24:23.590Z</time>
      </trkpt>
      <trkpt lat="68.19525" lon="14.00082">
        <ele>11.980938</ele>
        <time>2020-07-15T16:24:43.211Z</time>
      </trkpt>
      <trkpt lat="68.1946" lon="14.00252">
        <ele>13.024155</ele>
        <time>2020-07-15T16:25:03.562Z</time>
      </trkpt>
      <trkpt lat="68.19362" lon="14.00417">
        <ele>14.199274</ele>
        <time>2020-07-15T16:25:27.630Z</time>
      </trkpt>
      <trkpt lat="68.1927" lon="14.00645">
        <ele>14.766121</ele>
        <time>2020-07-15T16:25:52.293Z</time>
      </trkpt>
      <trkpt lat="68.19233" lon="14.00747">
        <ele>14.90052</ele>
        <time>2020-07-15T16:26:01.663Z</time>
      </trkpt>
      <trkpt lat="68.19125" lon="14.012">
        <ele>14.421823</ele>
        <time>2020-07-15T16:26:35.385Z</time>
      </trkpt>
      <trkpt lat="68.19113" lon="14.01298">
        <ele>14.389046</ele>
        <time>2020-07-15T16:26:42.065Z</time>
      </trkpt>
      <trkpt lat="68.19116" lon="14.01449">
        <ele>14.34093</ele>
        <time>2020-07-15T16:26:52.276Z</time>
      </trkpt>
      <trkpt lat="68.19098" lon="14.0158">
        <ele>14.291761</ele>
        <time>2020-07-15T16:27:01.645Z</time>
      </trkpt>
      <trkpt lat="68.19097" lon="14.01601">
        <ele>14.253943</ele>
        <time>2020-07-15T16:27:02.798Z</time>
      </trkpt>
      <trkpt lat="68.19098" lon="14.01631">
        <ele>14.200228</ele>
        <time>2020-07-15T16:27:04.998Z</time>
      </trkpt>
      <trkpt lat="68.19109" lon="14.01736">
        <ele>14.002819</ele>
        <time>2020-07-15T16:27:12.015Z</time>
      </trkpt>
      <trkpt lat="68.19112" lon="14.01754">
        <ele>13.967113</ele>
        <time>2020-07-15T16:27:13.552Z</time>
      </trkpt>
      <trkpt lat="68.19118" lon="14.01783">
        <ele>13.906727</ele>
        <time>2020-07-15T16:27:15.368Z</time>
      </trkpt>
      <trkpt lat="68.19156" lon="14.01972">
        <ele>13.518818</ele>
        <time>2020-07-15T16:27:28.444Z</time>
      </trkpt>
      <trkpt lat="68.19175" lon="14.02099">
        <ele>13.139438</ele>
        <time>2020-07-15T16:27:36.487Z</time>
      </trkpt>
      <trkpt lat="68.19267" lon="14.02427">
        <ele>11.847599</ele>
        <time>2020-07-15T16:27:59.682Z</time>
      </trkpt>
      <trkpt lat="68.19293" lon="14.02487">
        <ele>12.225141</ele>
        <time>2020-07-15T16:28:05.874Z</time>
      </trkpt>
      <trkpt lat="68.19345" lon="14.02569">
        <ele>12.904107</ele>
        <time>2020-07-15T16:28:18.632Z</time>
      </trkpt>
      <trkpt lat="68.19376" lon="14.02633">
        <ele>13.333999</ele>
        <time>2020-07-15T16:28:27.527Z</time>
      </trkpt>
      <trkpt lat="68.19422" lon="14.02775">
        <ele>14.395463</ele>
        <time>2020-07-15T16:28:45.438Z</time>
      </trkpt>
      <trkpt lat="68.19473" lon="14.02883">
        <ele>15.766071</ele>
        <time>2020-07-15T16:29:02.533Z</time>
      </trkpt>
      <trkpt lat="68.19497" lon="14.02954">
        <ele>16.529533</ele>
        <time>2020-07-15T16:29:11.778Z</time>
      </trkpt>
      <trkpt lat="68.1951" lon="14.03013">
        <ele>17.072754</ele>
        <time>2020-07-15T16:29:17.962Z</time>
      </trkpt>
      <trkpt lat="68.19519" lon="14.03086">
        <ele>17.642063</ele>
        <time>2020-07-15T16:29:24.410Z</time>
      </trkpt>
      <trkpt lat="68.19523" lon="14.03362">
        <ele>18.226892</ele>
        <time>2020-07-15T16:29:45.064Z</time>
      </trkpt>
      <trkpt lat="68.19543" lon="14.03544">
        <ele>18.626483</ele>
        <time>2020-07-15T16:29:58.123Z</time>
      </trkpt>
      <trkpt lat="68.1956" lon="14.03582">
        <ele>18.483455</ele>
        <time>2020-07-15T16:30:02.016Z</time>
      </trkpt>
      <trkpt lat="68.19614" lon="14.03601">
        <ele>17.973164</ele>
        <time>2020-07-15T16:30:10.790Z</time>
      </trkpt>
      <trkpt lat="68.19637" lon="14.03606">
        <ele>17.748775</ele>
        <time>2020-07-15T16:30:14.470Z</time>
      </trkpt>
      <trkpt lat="68.19694" lon="14.0361">
        <ele>17.209917</ele>
        <time>2020-07-15T16:30:23.096Z</time>
      </trkpt>
      <trkpt lat="68.1986" lon="14.0363">
        <ele>14.451613</ele>
        <time>2020-07-15T16:30:46.570Z</time>
      </trkpt>
      <trkpt lat="68.20208" lon="14.03585">
        <ele>9.676571</ele>
        <time>2020-07-15T16:31:37.844Z</time>
      </trkpt>
      <trkpt lat="68.20229" lon="14.03599">
        <ele>9.462152</ele>
        <time>2020-07-15T16:31:41.605Z</time>
      </trkpt>
      <trkpt lat="68.20271" lon="14.0365">
        <ele>9.222941</ele>
        <time>2020-07-15T16:31:49.817Z</time>
      </trkpt>
      <trkpt lat="68.20447" lon="14.03882">
        <ele>10.083975</ele>
        <time>2020-07-15T16:32:28.592Z</time>
      </trkpt>
      <trkpt lat="68.20463" lon="14.03904">
        <ele>10.137654</ele>
        <time>2020-07-15T16:32:32.143Z</time>
      </trkpt>
      <trkpt lat="68.20467" lon="14.0391">
        <ele>10.150981</ele>
        <time>2020-07-15T16:32:33.012Z</time>
      </trkpt>
      <trkpt lat="68.20471" lon="14.03915">
        <ele>10.164577</ele>
        <time>2020-07-15T16:32:33.884Z</time>
      </trkpt>
      <trkpt lat="68.20508" lon="14.03965">
        <ele>10.287316</ele>
        <time>2020-07-15T16:32:41.793Z</time>
      </trkpt>
      <trkpt lat="68.20559" lon="14.04034">
        <ele>10.455098</ele>
        <time>2020-07-15T16:32:52.276Z</time>
      </trkpt>
      <trkpt lat="68.20614" lon="14.04157">
        <ele>10.443607</ele>
        <time>2020-07-15T16:33:04.831Z</time>
      </trkpt>
      <trkpt lat="68.20792" lon="14.04912">
        <ele>9.883871</ele>
        <time>2020-07-15T16:34:01.863Z</time>
      </trkpt>
      <trkpt lat="68.20813" lon="14.05004">
        <ele>9.952545</ele>
        <time>2020-07-15T16:34:08.944Z</time>
      </trkpt>
      <trkpt lat="68.20837" lon="14.05103">
        <ele>10.02747</ele>
        <time>2020-07-15T16:34:16.964Z</time>
      </trkpt>
      <trkpt lat="68.20846" lon="14.05146">
        <ele>10.059319</ele>
        <time>2020-07-15T16:34:20.427Z</time>
      </trkpt>
      <trkpt lat="68.2086" lon="14.05203">
        <ele>10.102759</ele>
        <time>2020-07-15T16:34:25.276Z</time>
      </trkpt>
      <trkpt lat="68.20893" lon="14.05338">
        <ele>10.335017</ele>
        <time>2020-07-15T16:34:37.046Z</time>
      </trkpt>
      <trkpt lat="68.2091" lon="14.05379">
        <ele>10.481012</ele>
        <time>2020-07-15T16:34:41.693Z</time>
      </trkpt>
      <trkpt lat="68.20929" lon="14.05404">
        <ele>10.615796</ele>
        <time>2020-07-15T16:34:46.057Z</time>
      </trkpt>
      <trkpt lat="68.21017" lon="14.05462">
        <ele>11.190866</ele>
        <time>2020-07-15T16:35:04.747Z</time>
      </trkpt>
      <trkpt lat="68.21125" lon="14.05479">
        <ele>10.700682</ele>
        <time>2020-07-15T16:35:24.183Z</time>
      </trkpt>
      <trkpt lat="68.21196" lon="14.05484">
        <ele>10.223841</ele>
        <time>2020-07-15T16:35:35.089Z</time>
      </trkpt>
      <trkpt lat="68.21262" lon="14.05491">
        <ele>8.995109</ele>
        <time>2020-07-15T16:35:44.306Z</time>
      </trkpt>
      <trkpt lat="68.21294" lon="14.05493">
        <ele>8.257209</ele>
        <time>2020-07-15T16:35:48.622Z</time>
      </trkpt>
      <trkpt lat="68.21414" lon="14.05507">
        <ele>5.797265</ele>
        <time>2020-07-15T16:36:04.941Z</time>
      </trkpt>
      <trkpt lat="68.2143" lon="14.0551">
        <ele>5.675816</ele>
        <time>2020-07-15T16:36:07.092Z</time>
      </trkpt>
      <trkpt lat="68.21451" lon="14.05516">
        <ele>5.510364</ele>
        <time>2020-07-15T16:36:10.283Z</time>
      </trkpt>
      <trkpt lat="68.21464" lon="14.05521">
        <ele>5.40379</ele>
        <time>2020-07-15T16:36:12.258Z</time>
      </trkpt>
      <trkpt lat="68.2147" lon="14.05524">
        <ele>5.357677</ele>
        <time>2020-07-15T16:36:13.123Z</time>
      </trkpt>
      <trkpt lat="68.21511" lon="14.0555">
        <ele>5.02304</ele>
        <time>2020-07-15T16:36:19.936Z</time>
      </trkpt>
      <trkpt lat="68.21517" lon="14.05555">
        <ele>4.973892</ele>
        <time>2020-07-15T16:36:21.104Z</time>
      </trkpt>
      <trkpt lat="68.21543" lon="14.0558">
        <ele>4.757934</ele>
        <time>2020-07-15T16:36:26.095Z</time>
      </trkpt>
      <trkpt lat="68.21561" lon="14.05599">
        <ele>4.609928</ele>
        <time>2020-07-15T16:36:29.959Z</time>
      </trkpt>
      <trkpt lat="68.21609" lon="14.05685">
        <ele>5.196674</ele>
        <time>2020-07-15T16:36:42.373Z</time>
      </trkpt>
      <trkpt lat="68.21647" lon="14.05779">
        <ele>5.870362</ele>
        <time>2020-07-15T16:36:54.195Z</time>
      </trkpt>
      <trkpt lat="68.21655" lon="14.05805">
        <ele>6.033164</ele>
        <time>2020-07-15T16:36:57.120Z</time>
      </trkpt>
      <trkpt lat="68.21669" lon="14.0585">
        <ele>6.320216</ele>
        <time>2020-07-15T16:37:02.333Z</time>
      </trkpt>
      <trkpt lat="68.21776" lon="14.06222">
        <ele>8.004032</ele>
        <time>2020-07-15T16:37:40.209Z</time>
      </trkpt>
      <trkpt lat="68.2184" lon="14.06424">
        <ele>8.216474</ele>
        <time>2020-07-15T16:37:57.848Z</time>
      </trkpt>
      <trkpt lat="68.21853" lon="14.06455">
        <ele>8.142891</ele>
        <time>2020-07-15T16:38:00.795Z</time>
      </trkpt>
      <trkpt lat="68.21879" lon="14.06515">
        <ele>7.996327</ele>
        <time>2020-07-15T16:38:06.599Z</time>
      </trkpt>
      <trkpt lat="68.21897" lon="14.06546">
        <ele>7.907759</ele>
        <time>2020-07-15T16:38:10.020Z</time>
      </trkpt>
      <trkpt lat="68.21926" lon="14.06605">
        <ele>7.753674</ele>
        <time>2020-07-15T16:38:15.863Z</time>
      </trkpt>
      <trkpt lat="68.21971" lon="14.06696">
        <ele>7.321205</ele>
        <time>2020-07-15T16:38:24.572Z</time>
      </trkpt>
      <trkpt lat="68.21998" lon="14.06749">
        <ele>6.988394</ele>
        <time>2020-07-15T16:38:29.677Z</time>
      </trkpt>
      <trkpt lat="68.22024" lon="14.06805">
        <ele>6.65736</ele>
        <time>2020-07-15T16:38:34.800Z</time>
      </trkpt>
      <trkpt lat="68.22099" lon="14.06955">
        <ele>5.757227</ele>
        <time>2020-07-15T16:38:49.395Z</time>
      </trkpt>
      <trkpt lat="68.22119" lon="14.06995">
        <ele>5.554</ele>
        <time>2020-07-15T16:38:53.289Z</time>
      </trkpt>
      <trkpt lat="68.22192" lon="14.07144">
        <ele>4.801433</ele>
        <time>2020-07-15T16:39:08.013Z</time>
      </trkpt>
      <trkpt lat="68.22248" lon="14.07224">
        <ele>4.309927</ele>
        <time>2020-07-15T16:39:17.695Z</time>
      </trkpt>
      <trkpt lat="68.22329" lon="14.07293">
        <ele>3.756276</ele>
        <time>2020-07-15T16:39:31.240Z</time>
      </trkpt>
      <trkpt lat="68.2234" lon="14.07304">
        <ele>3.680126</ele>
        <time>2020-07-15T16:39:32.942Z</time>
      </trkpt>
      <trkpt lat="68.22342" lon="14.07306">
        <ele>3.667191</ele>
        <time>2020-07-15T16:39:33.307Z</time>
      </trkpt>
      <trkpt lat="68.22344" lon="14.07307">
        <ele>3.654256</ele>
        <time>2020-07-15T16:39:33.665Z</time>
      </trkpt>
      <trkpt lat="68.22352" lon="14.07316">
        <ele>3.594816</ele>
        <time>2020-07-15T16:39:35.235Z</time>
      </trkpt>
      <trkpt lat="68.22363" lon="14.07329">
        <ele>3.517067</ele>
        <time>2020-07-15T16:39:37.449Z</time>
      </trkpt>
      <trkpt lat="68.22366" lon="14.07334">
        <ele>3.493271</ele>
        <time>2020-07-15T16:39:37.961Z</time>
      </trkpt>
      <trkpt lat="68.22372" lon="14.07343">
        <ele>3.447849</ele>
        <time>2020-07-15T16:39:39.011Z</time>
      </trkpt>
      <trkpt lat="68.22383" lon="14.07359">
        <ele>3.370155</ele>
        <time>2020-07-15T16:39:41.155Z</time>
      </trkpt>
      <trkpt lat="68.22462" lon="14.07495">
        <ele>3.500256</ele>
        <time>2020-07-15T16:39:57.576Z</time>
      </trkpt>
      <trkpt lat="68.22469" lon="14.07503">
        <ele>3.526941</ele>
        <time>2020-07-15T16:39:58.971Z</time>
      </trkpt>
      <trkpt lat="68.22492" lon="14.07524">
        <ele>3.614582</ele>
        <time>2020-07-15T16:40:03.648Z</time>
      </trkpt>
      <trkpt lat="68.22603" lon="14.0762">
        <ele>4.094508</ele>
        <time>2020-07-15T16:40:27.917Z</time>
      </trkpt>
      <trkpt lat="68.22693" lon="14.07661">
        <ele>4.555664</ele>
        <time>2020-07-15T16:40:45.742Z</time>
      </trkpt>
      <trkpt lat="68.22723" lon="14.07686">
        <ele>4.714463</ele>
        <time>2020-07-15T16:40:51.522Z</time>
      </trkpt>
      <trkpt lat="68.22733" lon="14.07702">
        <ele>4.774267</ele>
        <time>2020-07-15T16:40:53.718Z</time>
      </trkpt>
      <trkpt lat="68.22743" lon="14.07719">
        <ele>4.789745</ele>
        <time>2020-07-15T16:40:55.752Z</time>
      </trkpt>
      <trkpt lat="68.22755" lon="14.07743">
        <ele>4.785549</ele>
        <time>2020-07-15T16:40:58.413Z</time>
      </trkpt>
      <trkpt lat="68.22777" lon="14.078">
        <ele>4.776866</ele>
        <time>2020-07-15T16:41:03.804Z</time>
      </trkpt>
      <trkpt lat="68.22853" lon="14.08022">
        <ele>4.745609</ele>
        <time>2020-07-15T16:41:23.104Z</time>
      </trkpt>
      <trkpt lat="68.22876" lon="14.08088">
        <ele>4.932408</ele>
        <time>2020-07-15T16:41:29.255Z</time>
      </trkpt>
      <trkpt lat="68.22908" lon="14.08176">
        <ele>5.384932</ele>
        <time>2020-07-15T16:41:38.331Z</time>
      </trkpt>
      <trkpt lat="68.22918" lon="14.08205">
        <ele>5.53286</ele>
        <time>2020-07-15T16:41:41.736Z</time>
      </trkpt>
      <trkpt lat="68.22966" lon="14.08278">
        <ele>6.081451</ele>
        <time>2020-07-15T16:41:53.807Z</time>
      </trkpt>
      <trkpt lat="68.23001" lon="14.08352">
        <ele>6.51774</ele>
        <time>2020-07-15T16:42:03.685Z</time>
      </trkpt>
      <trkpt lat="68.23019" lon="14.08399">
        <ele>6.661776</ele>
        <time>2020-07-15T16:42:09.470Z</time>
      </trkpt>
      <trkpt lat="68.23038" lon="14.08466">
        <ele>6.834298</ele>
        <time>2020-07-15T16:42:16.549Z</time>
      </trkpt>
      <trkpt lat="68.23057" lon="14.08543">
        <ele>7.024793</ele>
        <time>2020-07-15T16:42:23.778Z</time>
      </trkpt>
      <trkpt lat="68.23078" lon="14.08664">
        <ele>7.297432</ele>
        <time>2020-07-15T16:42:33.549Z</time>
      </trkpt>
      <trkpt lat="68.23211" lon="14.09819">
        <ele>4.725542</ele>
        <time>2020-07-15T16:43:43.686Z</time>
      </trkpt>
      <trkpt lat="68.23237" lon="14.10043">
        <ele>5.399273</ele>
        <time>2020-07-15T16:44:01.898Z</time>
      </trkpt>
      <trkpt lat="68.23266" lon="14.10296">
        <ele>7.071039</ele>
        <time>2020-07-15T16:44:26.338Z</time>
      </trkpt>
      <trkpt lat="68.23278" lon="14.10409">
        <ele>8.152386</ele>
        <time>2020-07-15T16:44:38.238Z</time>
      </trkpt>
      <trkpt lat="68.23344" lon="14.10977">
        <ele>13.193594</ele>
        <time>2020-07-15T16:45:35.675Z</time>
      </trkpt>
      <trkpt lat="68.23348" lon="14.11015">
        <ele>13.506445</ele>
        <time>2020-07-15T16:45:39.156Z</time>
      </trkpt>
      <trkpt lat="68.23354" lon="14.1106">
        <ele>13.895359</ele>
        <time>2020-07-15T16:45:42.841Z</time>
      </trkpt>
      <trkpt lat="68.2336" lon="14.11109">
        <ele>14.135497</ele>
        <time>2020-07-15T16:45:47.134Z</time>
      </trkpt>
      <trkpt lat="68.23365" lon="14.11137">
        <ele>14.187821</ele>
        <time>2020-07-15T16:45:49.458Z</time>
      </trkpt>
      <trkpt lat="68.23369" lon="14.11157">
        <ele>14.227829</ele>
        <time>2020-07-15T16:45:51.106Z</time>
      </trkpt>
      <trkpt lat="68.23379" lon="14.11193">
        <ele>14.301633</ele>
        <time>2020-07-15T16:45:54.662Z</time>
      </trkpt>
      <trkpt lat="68.23387" lon="14.11222">
        <ele>14.363455</ele>
        <time>2020-07-15T16:45:57.279Z</time>
      </trkpt>
      <trkpt lat="68.23389" lon="14.11228">
        <ele>14.376507</ele>
        <time>2020-07-15T16:45:57.737Z</time>
      </trkpt>
      <trkpt lat="68.23428" lon="14.11324">
        <ele>14.618799</ele>
        <time>2020-07-15T16:46:08.097Z</time>
      </trkpt>
      <trkpt lat="68.23476" lon="14.11412">
        <ele>14.882757</ele>
        <time>2020-07-15T16:46:18.048Z</time>
      </trkpt>
      <trkpt lat="68.23516" lon="14.11463">
        <ele>14.815644</ele>
        <time>2020-07-15T16:46:25.728Z</time>
      </trkpt>
      <trkpt lat="68.23541" lon="14.11479">
        <ele>14.753039</ele>
        <time>2020-07-15T16:46:30.247Z</time>
      </trkpt>
      <trkpt lat="68.23556" lon="14.11484">
        <ele>14.717897</ele>
        <time>2020-07-15T16:46:32.758Z</time>
      </trkpt>
      <trkpt lat="68.23571" lon="14.11489">
        <ele>14.679425</ele>
        <time>2020-07-15T16:46:35.587Z</time>
      </trkpt>
      <trkpt lat="68.23649" lon="14.1151">
        <ele>14.490199</ele>
        <time>2020-07-15T16:46:48.838Z</time>
      </trkpt>
      <trkpt lat="68.237" lon="14.11531">
        <ele>14.090952</ele>
        <time>2020-07-15T16:46:57.207Z</time>
      </trkpt>
      <trkpt lat="68.23729" lon="14.11555">
        <ele>13.830129</ele>
        <time>2020-07-15T16:47:02.016Z</time>
      </trkpt>
      <trkpt lat="68.2379" lon="14.11607">
        <ele>13.274305</ele>
        <time>2020-07-15T16:47:12.030Z</time>
      </trkpt>
      <trkpt lat="68.23868" lon="14.11671">
        <ele>12.527752</ele>
        <time>2020-07-15T16:47:24.474Z</time>
      </trkpt>
      <trkpt lat="68.23904" lon="14.11698">
        <ele>12.172889</ele>
        <time>2020-07-15T16:47:29.958Z</time>
      </trkpt>
      <trkpt lat="68.24007" lon="14.11783">
        <ele>11.148723</ele>
        <time>2020-07-15T16:47:47.003Z</time>
      </trkpt>
      <trkpt lat="68.24038" lon="14.11811">
        <ele>10.955799</ele>
        <time>2020-07-15T16:47:52.240Z</time>
      </trkpt>
      <trkpt lat="68.24104" lon="14.11864">
        <ele>10.544875</ele>
        <time>2020-07-15T16:48:03.383Z</time>
      </trkpt>
      <trkpt lat="68.24118" lon="14.11878">
        <ele>10.453668</ele>
        <time>2020-07-15T16:48:05.859Z</time>
      </trkpt>
      <trkpt lat="68.24131" lon="14.11893">
        <ele>10.370036</ele>
        <time>2020-07-15T16:48:08.140Z</time>
      </trkpt>
      <trkpt lat="68.24141" lon="14.11905">
        <ele>10.308549</ele>
        <time>2020-07-15T16:48:09.831Z</time>
      </trkpt>
      <trkpt lat="68.24154" lon="14.11927">
        <ele>10.217158</ele>
        <time>2020-07-15T16:48:12.368Z</time>
      </trkpt>
      <trkpt lat="68.24167" lon="14.11952">
        <ele>10.123143</ele>
        <time>2020-07-15T16:48:15.086Z</time>
      </trkpt>
      <trkpt lat="68.24202" lon="14.1203">
        <ele>10.111704</ele>
        <time>2020-07-15T16:48:23.238Z</time>
      </trkpt>
      <trkpt lat="68.24209" lon="14.12044">
        <ele>10.111332</ele>
        <time>2020-07-15T16:48:24.691Z</time>
      </trkpt>
      <trkpt lat="68.24252" lon="14.12141">
        <ele>10.108942</ele>
        <time>2020-07-15T16:48:35.048Z</time>
      </trkpt>
      <trkpt lat="68.24259" lon="14.12156">
        <ele>10.108546</ele>
        <time>2020-07-15T16:48:36.769Z</time>
      </trkpt>
      <trkpt lat="68.24284" lon="14.12213">
        <ele>10.107158</ele>
        <time>2020-07-15T16:48:42.618Z</time>
      </trkpt>
      <trkpt lat="68.24313" lon="14.12297">
        <ele>10.081443</ele>
        <time>2020-07-15T16:48:50.064Z</time>
      </trkpt>
      <trkpt lat="68.24343" lon="14.12415">
        <ele>9.979385</ele>
        <time>2020-07-15T16:48:59.763Z</time>
      </trkpt>
      <trkpt lat="68.24349" lon="14.12439">
        <ele>9.959705</ele>
        <time>2020-07-15T16:49:01.863Z</time>
      </trkpt>
      <trkpt lat="68.24359" lon="14.1248">
        <ele>9.924368</ele>
        <time>2020-07-15T16:49:04.964Z</time>
      </trkpt>
      <trkpt lat="68.24394" lon="14.12606">
        <ele>9.81323</ele>
        <time>2020-07-15T16:49:14.817Z</time>
      </trkpt>
      <trkpt lat="68.24467" lon="14.12813">
        <ele>9.928328</ele>
        <time>2020-07-15T16:49:32.310Z</time>
      </trkpt>
      <trkpt lat="68.24482" lon="14.12857">
        <ele>9.972797</ele>
        <time>2020-07-15T16:49:36.124Z</time>
      </trkpt>
      <trkpt lat="68.24495" lon="14.12893">
        <ele>10.012131</ele>
        <time>2020-07-15T16:49:39.742Z</time>
      </trkpt>
      <trkpt lat="68.24507" lon="14.12928">
        <ele>10.048933</ele>
        <time>2020-07-15T16:49:43.124Z</time>
      </trkpt>
      <trkpt lat="68.24518" lon="14.12959">
        <ele>10.081428</ele>
        <time>2020-07-15T16:49:46.300Z</time>
      </trkpt>
      <trkpt lat="68.24537" lon="14.13016">
        <ele>10.174201</ele>
        <time>2020-07-15T16:49:52.146Z</time>
      </trkpt>
      <trkpt lat="68.24659" lon="14.13366">
        <ele>13.198235</ele>
        <time>2020-07-15T16:50:34.479Z</time>
      </trkpt>
      <trkpt lat="68.24691" lon="14.13502">
        <ele>13.782894</ele>
        <time>2020-07-15T16:50:49.002Z</time>
      </trkpt>
      <trkpt lat="68.24713" lon="14.13831">
        <ele>14.875401</ele>
        <time>2020-07-15T16:51:14.143Z</time>
      </trkpt>
      <trkpt lat="68.24714" lon="14.13933">
        <ele>14.232268</ele>
        <time>2020-07-15T16:51:20.206Z</time>
      </trkpt>
      <trkpt lat="68.24712" lon="14.1401">
        <ele>13.747946</ele>
        <time>2020-07-15T16:51:24.474Z</time>
      </trkpt>
      <trkpt lat="68.24691" lon="14.14273">
        <ele>12.054234</ele>
        <time>2020-07-15T16:51:38.248Z</time>
      </trkpt>
      <trkpt lat="68.24702" lon="14.14381">
        <ele>11.022935</ele>
        <time>2020-07-15T16:51:43.682Z</time>
      </trkpt>
      <trkpt lat="68.2474" lon="14.14607">
        <ele>8.543142</ele>
        <time>2020-07-15T16:51:55.908Z</time>
      </trkpt>
      <trkpt lat="68.24747" lon="14.14633">
        <ele>8.225454</ele>
        <time>2020-07-15T16:51:57.443Z</time>
      </trkpt>
      <trkpt lat="68.24753" lon="14.1465">
        <ele>7.997599</ele>
        <time>2020-07-15T16:51:58.570Z</time>
      </trkpt>
      <trkpt lat="68.24767" lon="14.14691">
        <ele>7.439012</ele>
        <time>2020-07-15T16:52:01.465Z</time>
      </trkpt>
      <trkpt lat="68.24822" lon="14.14799">
        <ele>6.149408</ele>
        <time>2020-07-15T16:52:11.097Z</time>
      </trkpt>
      <trkpt lat="68.24848" lon="14.14886">
        <ele>5.457047</ele>
        <time>2020-07-15T16:52:17.047Z</time>
      </trkpt>
      <trkpt lat="68.24892" lon="14.1507">
        <ele>4.113064</ele>
        <time>2020-07-15T16:52:29.187Z</time>
      </trkpt>
      <trkpt lat="68.2491" lon="14.15122">
        <ele>3.801886</ele>
        <time>2020-07-15T16:52:33.262Z</time>
      </trkpt>
      <trkpt lat="68.25092" lon="14.15351">
        <ele>2.293054</ele>
        <time>2020-07-15T16:53:04.026Z</time>
      </trkpt>
      <trkpt lat="68.25181" lon="14.15501">
        <ele>2.654292</ele>
        <time>2020-07-15T16:53:24.575Z</time>
      </trkpt>
      <trkpt lat="68.252" lon="14.15522">
        <ele>2.724473</ele>
        <time>2020-07-15T16:53:29.181Z</time>
      </trkpt>
      <trkpt lat="68.25234" lon="14.15536">
        <ele>3.202075</ele>
        <time>2020-07-15T16:53:37.002Z</time>
      </trkpt>
      <trkpt lat="68.25281" lon="14.15532">
        <ele>4.107988</ele>
        <time>2020-07-15T16:53:48.534Z</time>
      </trkpt>
      <trkpt lat="68.25321" lon="14.15569">
        <ele>4.930613</ele>
        <time>2020-07-15T16:53:59.228Z</time>
      </trkpt>
      <trkpt lat="68.2535" lon="14.15631">
        <ele>5.63188</ele>
        <time>2020-07-15T16:54:08.400Z</time>
      </trkpt>
      <trkpt lat="68.25378" lon="14.15781">
        <ele>6.73967</ele>
        <time>2020-07-15T16:54:23.240Z</time>
      </trkpt>
      <trkpt lat="68.25384" lon="14.15814">
        <ele>6.959181</ele>
        <time>2020-07-15T16:54:26.392Z</time>
      </trkpt>
      <trkpt lat="68.25388" lon="14.15834">
        <ele>7.104385</ele>
        <time>2020-07-15T16:54:28.338Z</time>
      </trkpt>
      <trkpt lat="68.25409" lon="14.15896">
        <ele>7.60593</ele>
        <time>2020-07-15T16:54:35.363Z</time>
      </trkpt>
      <trkpt lat="68.2545" lon="14.15977">
        <ele>8.453649</ele>
        <time>2020-07-15T16:54:47.075Z</time>
      </trkpt>
      <trkpt lat="68.25515" lon="14.16042">
        <ele>9.641243</ele>
        <time>2020-07-15T16:55:02.679Z</time>
      </trkpt>
      <trkpt lat="68.25659" lon="14.16234">
        <ele>12.599601</ele>
        <time>2020-07-15T16:55:40.857Z</time>
      </trkpt>
      <trkpt lat="68.25845" lon="14.16387">
        <ele>16.627585</ele>
        <time>2020-07-15T16:56:29.500Z</time>
      </trkpt>
      <trkpt lat="68.259" lon="14.16405">
        <ele>17.280434</ele>
        <time>2020-07-15T16:56:43.018Z</time>
      </trkpt>
      <trkpt lat="68.25964" lon="14.16406">
        <ele>18.018276</ele>
        <time>2020-07-15T16:56:57.086Z</time>
      </trkpt>
      <trkpt lat="68.25994" lon="14.16402">
        <ele>18.362099</ele>
        <time>2020-07-15T16:57:02.628Z</time>
      </trkpt>
      <trkpt lat="68.26027" lon="14.16394">
        <ele>18.054823</ele>
        <time>2020-07-15T16:57:08.061Z</time>
      </trkpt>
      <trkpt lat="68.26124" lon="14.16365">
        <ele>16.252809</ele>
        <time>2020-07-15T16:57:22.289Z</time>
      </trkpt>
      <trkpt lat="68.26133" lon="14.16359">
        <ele>16.071694</ele>
        <time>2020-07-15T16:57:23.598Z</time>
      </trkpt>
      <trkpt lat="68.26141" lon="14.16351">
        <ele>15.914801</ele>
        <time>2020-07-15T16:57:24.664Z</time>
      </trkpt>
      <trkpt lat="68.26302" lon="14.16142">
        <ele>11.202147</ele>
        <time>2020-07-15T16:57:47.970Z</time>
      </trkpt>
      <trkpt lat="68.26381" lon="14.16021">
        <ele>9.312207</ele>
        <time>2020-07-15T16:58:00.751Z</time>
      </trkpt>
      <trkpt lat="68.26466" lon="14.15864">
        <ele>7.916659</ele>
        <time>2020-07-15T16:58:16.133Z</time>
      </trkpt>
      <trkpt lat="68.26501" lon="14.15804">
        <ele>7.619442</ele>
        <time>2020-07-15T16:58:22.912Z</time>
      </trkpt>
      <trkpt lat="68.26531" lon="14.15762">
        <ele>7.843287</ele>
        <time>2020-07-15T16:58:29.161Z</time>
      </trkpt>
      <trkpt lat="68.26596" lon="14.15703">
        <ele>8.29166</ele>
        <time>2020-07-15T16:58:42.693Z</time>
      </trkpt>
      <trkpt lat="68.26606" lon="14.15682">
        <ele>8.372424</ele>
        <time>2020-07-15T16:58:45.227Z</time>
      </trkpt>
      <trkpt lat="68.26657" lon="14.15466">
        <ele>8.985704</ele>
        <time>2020-07-15T16:59:07.307Z</time>
      </trkpt>
      <trkpt lat="68.26674" lon="14.15421">
        <ele>9.134995</ele>
        <time>2020-07-15T16:59:13.115Z</time>
      </trkpt>
      <trkpt lat="68.26786" lon="14.15213">
        <ele>9.289444</ele>
        <time>2020-07-15T16:59:38.782Z</time>
      </trkpt>
      <trkpt lat="68.26832" lon="14.15139">
        <ele>7.967763</ele>
        <time>2020-07-15T16:59:45.961Z</time>
      </trkpt>
      <trkpt lat="68.26845" lon="14.15138">
        <ele>7.631517</ele>
        <time>2020-07-15T16:59:47.939Z</time>
      </trkpt>
      <trkpt lat="68.26855" lon="14.15159">
        <ele>7.332715</ele>
        <time>2020-07-15T16:59:49.639Z</time>
      </trkpt>
      <trkpt lat="68.26857" lon="14.15165">
        <ele>7.251321</ele>
        <time>2020-07-15T16:59:49.988Z</time>
      </trkpt>
      <trkpt lat="68.26848" lon="14.15199">
        <ele>6.860302</ele>
        <time>2020-07-15T16:59:52.111Z</time>
      </trkpt>
      <trkpt lat="68.26841" lon="14.15228">
        <ele>6.552131</ele>
        <time>2020-07-15T16:59:53.843Z</time>
      </trkpt>
      <trkpt lat="68.26833" lon="14.15269">
        <ele>6.130919</ele>
        <time>2020-07-15T16:59:55.904Z</time>
      </trkpt>
      <trkpt lat="68.26824" lon="14.15361">
        <ele>5.280759</ele>
        <time>2020-07-15T17:00:00.417Z</time>
      </trkpt>
      <trkpt lat="68.26821" lon="14.15444">
        <ele>4.659193</ele>
        <time>2020-07-15T17:00:04.287Z</time>
      </trkpt>
      <trkpt lat="68.26822" lon="14.15671">
        <ele>2.941821</ele>
        <time>2020-07-15T17:00:15.664Z</time>
      </trkpt>
      <trkpt lat="68.26822" lon="14.15851">
        <ele>1.795446</ele>
        <time>2020-07-15T17:00:27.402Z</time>
      </trkpt>
      <trkpt lat="68.26822" lon="14.15876">
        <ele>1.856943</ele>
        <time>2020-07-15T17:00:29.111Z</time>
      </trkpt>
      <trkpt lat="68.26822" lon="14.15927">
        <ele>1.979994</ele>
        <time>2020-07-15T17:00:32.786Z</time>
      </trkpt>
      <trkpt lat="68.26821" lon="14.15962">
        <ele>2.064887</ele>
        <time>2020-07-15T17:00:35.047Z</time>
      </trkpt>
      <trkpt lat="68.2682" lon="14.15986">
        <ele>2.123519</ele>
        <time>2020-07-15T17:00:37.002Z</time>
      </trkpt>
      <trkpt lat="68.26816" lon="14.16046">
        <ele>2.270674</ele>
        <time>2020-07-15T17:00:41.345Z</time>
      </trkpt>
      <trkpt lat="68.26812" lon="14.16113">
        <ele>2.436421</ele>
        <time>2020-07-15T17:00:46.829Z</time>
      </trkpt>
      <trkpt lat="68.26808" lon="14.16172">
        <ele>2.582808</ele>
        <time>2020-07-15T17:00:51.440Z</time>
      </trkpt>
      <trkpt lat="68.26777" lon="14.16539">
        <ele>3.639984</ele>
        <time>2020-07-15T17:01:20.750Z</time>
      </trkpt>
      <trkpt lat="68.26749" lon="14.16715">
        <ele>4.217628</ele>
        <time>2020-07-15T17:01:34.949Z</time>
      </trkpt>
      <trkpt lat="68.26722" lon="14.16835">
        <ele>4.500056</ele>
        <time>2020-07-15T17:01:45.327Z</time>
      </trkpt>
      <trkpt lat="68.26714" lon="14.1686">
        <ele>4.540446</ele>
        <time>2020-07-15T17:01:47.762Z</time>
      </trkpt>
      <trkpt lat="68.26704" lon="14.16894">
        <ele>4.59637</ele>
        <time>2020-07-15T17:01:50.803Z</time>
      </trkpt>
      <trkpt lat="68.26667" lon="14.17009">
        <ele>4.788935</ele>
        <time>2020-07-15T17:02:01.666Z</time>
      </trkpt>
      <trkpt lat="68.26639" lon="14.17119">
        <ele>4.958888</ele>
        <time>2020-07-15T17:02:10.737Z</time>
      </trkpt>
      <trkpt lat="68.26584" lon="14.17488">
        <ele>5.043904</ele>
        <time>2020-07-15T17:02:37.257Z</time>
      </trkpt>
      <trkpt lat="68.2656" lon="14.17611">
        <ele>5.049716</ele>
        <time>2020-07-15T17:02:46.341Z</time>
      </trkpt>
      <trkpt lat="68.26282" lon="14.18593">
        <ele>4.156811</ele>
        <time>2020-07-15T17:04:05.400Z</time>
      </trkpt>
      <trkpt lat="68.26254" lon="14.18715">
        <ele>4.029706</ele>
        <time>2020-07-15T17:04:14.328Z</time>
      </trkpt>
      <trkpt lat="68.2621" lon="14.18956">
        <ele>3.923654</ele>
        <time>2020-07-15T17:04:31.490Z</time>
      </trkpt>
      <trkpt lat="68.26179" lon="14.19075">
        <ele>3.891115</ele>
        <time>2020-07-15T17:04:40.929Z</time>
      </trkpt>
      <trkpt lat="68.26141" lon="14.19184">
        <ele>3.869293</ele>
        <time>2020-07-15T17:04:51.165Z</time>
      </trkpt>
      <trkpt lat="68.26109" lon="14.19253">
        <ele>3.984326</ele>
        <time>2020-07-15T17:04:58.909Z</time>
      </trkpt>
      <trkpt lat="68.25827" lon="14.19748">
        <ele>4.786157</ele>
        <time>2020-07-15T17:06:02.058Z</time>
      </trkpt>
      <trkpt lat="68.25795" lon="14.19823">
        <ele>4.749185</ele>
        <time>2020-07-15T17:06:09.443Z</time>
      </trkpt>
      <trkpt lat="68.25765" lon="14.19923">
        <ele>4.707234</ele>
        <time>2020-07-15T17:06:17.709Z</time>
      </trkpt>
      <trkpt lat="68.25731" lon="14.20109">
        <ele>4.665661</ele>
        <time>2020-07-15T17:06:30.806Z</time>
      </trkpt>
      <trkpt lat="68.25719" lon="14.2027">
        <ele>4.800237</ele>
        <time>2020-07-15T17:06:41.533Z</time>
      </trkpt>
      <trkpt lat="68.25722" lon="14.20462">
        <ele>4.95773</ele>
        <time>2020-07-15T17:06:55.537Z</time>
      </trkpt>
      <trkpt lat="68.25736" lon="14.20607">
        <ele>5.069411</ele>
        <time>2020-07-15T17:07:06.320Z</time>
      </trkpt>
      <trkpt lat="68.25766" lon="14.20866">
        <ele>5.223177</ele>
        <time>2020-07-15T17:07:24.716Z</time>
      </trkpt>
      <trkpt lat="68.25791" lon="14.21069">
        <ele>5.30638</ele>
        <time>2020-07-15T17:07:38.874Z</time>
      </trkpt>
      <trkpt lat="68.25797" lon="14.21123">
        <ele>5.287647</ele>
        <time>2020-07-15T17:07:42.701Z</time>
      </trkpt>
      <trkpt lat="68.25859" lon="14.21746">
        <ele>5.203908</ele>
        <time>2020-07-15T17:08:24.192Z</time>
      </trkpt>
      <trkpt lat="68.25949" lon="14.22846">
        <ele>6.273713</ele>
        <time>2020-07-15T17:09:42.709Z</time>
      </trkpt>
      <trkpt lat="68.25964" lon="14.22993">
        <ele>6.554229</ele>
        <time>2020-07-15T17:09:53.561Z</time>
      </trkpt>
      <trkpt lat="68.26" lon="14.23197">
        <ele>7.089159</ele>
        <time>2020-07-15T17:10:09.955Z</time>
      </trkpt>
      <trkpt lat="68.2608" lon="14.23491">
        <ele>8.907474</ele>
        <time>2020-07-15T17:10:38.010Z</time>
      </trkpt>
      <trkpt lat="68.26137" lon="14.23763">
        <ele>11.224416</ele>
        <time>2020-07-15T17:11:07.987Z</time>
      </trkpt>
      <trkpt lat="68.26161" lon="14.23837">
        <ele>11.878006</ele>
        <time>2020-07-15T17:11:18.924Z</time>
      </trkpt>
      <trkpt lat="68.26191" lon="14.23901">
        <ele>12.558143</ele>
        <time>2020-07-15T17:11:30.350Z</time>
      </trkpt>
      <trkpt lat="68.26199" lon="14.23915">
        <ele>12.729223</ele>
        <time>2020-07-15T17:11:33.821Z</time>
      </trkpt>
      <trkpt lat="68.26242" lon="14.2399">
        <ele>13.640967</ele>
        <time>2020-07-15T17:11:44.573Z</time>
      </trkpt>
      <trkpt lat="68.26279" lon="14.24077">
        <ele>14.081884</ele>
        <time>2020-07-15T17:11:52.126Z</time>
      </trkpt>
      <trkpt lat="68.26307" lon="14.2419">
        <ele>12.751931</ele>
        <time>2020-07-15T17:12:00.327Z</time>
      </trkpt>
      <trkpt lat="68.2631" lon="14.24206">
        <ele>12.582381</ele>
        <time>2020-07-15T17:12:01.264Z</time>
      </trkpt>
      <trkpt lat="68.26314" lon="14.24234">
        <ele>12.286768</ele>
        <time>2020-07-15T17:12:02.542Z</time>
      </trkpt>
      <trkpt lat="68.26322" lon="14.24309">
        <ele>11.519057</ele>
        <time>2020-07-15T17:12:06.531Z</time>
      </trkpt>
      <trkpt lat="68.26325" lon="14.24402">
        <ele>10.60765</ele>
        <time>2020-07-15T17:12:10.826Z</time>
      </trkpt>
      <trkpt lat="68.26318" lon="14.24558">
        <ele>9.281258</ele>
        <time>2020-07-15T17:12:17.906Z</time>
      </trkpt>
      <trkpt lat="68.26164" lon="14.26137">
        <ele>1.310823</ele>
        <time>2020-07-15T17:13:49.510Z</time>
      </trkpt>
      <trkpt lat="68.26159" lon="14.2619">
        <ele>1.18534</ele>
        <time>2020-07-15T17:13:52.960Z</time>
      </trkpt>
      <trkpt lat="68.26155" lon="14.26224">
        <ele>1.103987</ele>
        <time>2020-07-15T17:13:55.219Z</time>
      </trkpt>
      <trkpt lat="68.2612" lon="14.26591">
        <ele>1.832528</ele>
        <time>2020-07-15T17:14:20.162Z</time>
      </trkpt>
      <trkpt lat="68.26089" lon="14.26904">
        <ele>4.295903</ele>
        <time>2020-07-15T17:14:50.025Z</time>
      </trkpt>
      <trkpt lat="68.26071" lon="14.27087">
        <ele>8.114271</ele>
        <time>2020-07-15T17:15:13.279Z</time>
      </trkpt>
      <trkpt lat="68.26061" lon="14.27181">
        <ele>10.067397</ele>
        <time>2020-07-15T17:15:26.509Z</time>
      </trkpt>
      <trkpt lat="68.26045" lon="14.2729">
        <ele>12.434991</ele>
        <time>2020-07-15T17:15:45.083Z</time>
      </trkpt>
      <trkpt lat="68.26022" lon="14.27379">
        <ele>14.381587</ele>
        <time>2020-07-15T17:16:02.307Z</time>
      </trkpt>
      <trkpt lat="68.25994" lon="14.27449">
        <ele>16.158608</ele>
        <time>2020-07-15T17:16:18.369Z</time>
      </trkpt>
      <trkpt lat="68.2596" lon="14.27502">
        <ele>17.933935</ele>
        <time>2020-07-15T17:16:31.847Z</time>
      </trkpt>
      <trkpt lat="68.2596" lon="14.27502">
        <ele>17.959057</ele>
        <time>2020-07-15T17:16:32.464Z</time>
      </trkpt>
      <trkpt lat="68.2595" lon="14.27514">
        <ele>18.465914</ele>
        <time>2020-07-15T17:16:35.258Z</time>
      </trkpt>
      <trkpt lat="68.25906" lon="14.27541">
        <ele>20.530189</ele>
        <time>2020-07-15T17:16:46.076Z</time>
      </trkpt>
      <trkpt lat="68.2586" lon="14.27538">
        <ele>20.392371</ele>
        <time>2020-07-15T17:16:54.115Z</time>
      </trkpt>
      <trkpt lat="68.2584" lon="14.27532">
        <ele>19.757955</ele>
        <time>2020-07-15T17:16:57.463Z</time>
      </trkpt>
      <trkpt lat="68.2581" lon="14.27521">
        <ele>18.771867</ele>
        <time>2020-07-15T17:17:01.601Z</time>
      </trkpt>
      <trkpt lat="68.2575" lon="14.27495">
        <ele>16.764692</ele>
        <time>2020-07-15T17:17:08.975Z</time>
      </trkpt>
      <trkpt lat="68.25721" lon="14.27484">
        <ele>15.808041</ele>
        <time>2020-07-15T17:17:12.456Z</time>
      </trkpt>
      <trkpt lat="68.25698" lon="14.27477">
        <ele>14.984114</ele>
        <time>2020-07-15T17:17:15.099Z</time>
      </trkpt>
      <trkpt lat="68.25671" lon="14.27475">
        <ele>13.86475</ele>
        <time>2020-07-15T17:17:18.359Z</time>
      </trkpt>
      <trkpt lat="68.25655" lon="14.27475">
        <ele>13.204021</ele>
        <time>2020-07-15T17:17:20.359Z</time>
      </trkpt>
      <trkpt lat="68.25625" lon="14.27479">
        <ele>11.990644</ele>
        <time>2020-07-15T17:17:24.038Z</time>
      </trkpt>
      <trkpt lat="68.25614" lon="14.27481">
        <ele>11.547806</ele>
        <time>2020-07-15T17:17:25.435Z</time>
      </trkpt>
      <trkpt lat="68.25534" lon="14.27493">
        <ele>8.292</ele>
        <time>2020-07-15T17:17:35.869Z</time>
      </trkpt>
      <trkpt lat="68.25458" lon="14.27507">
        <ele>6.94747</ele>
        <time>2020-07-15T17:17:46.728Z</time>
      </trkpt>
      <trkpt lat="68.25435" lon="14.27511">
        <ele>6.576002</ele>
        <time>2020-07-15T17:17:50.040Z</time>
      </trkpt>
      <trkpt lat="68.25382" lon="14.27519">
        <ele>5.676031</ele>
        <time>2020-07-15T17:17:58.180Z</time>
      </trkpt>
      <trkpt lat="68.25323" lon="14.27529">
        <ele>4.998781</ele>
        <time>2020-07-15T17:18:07.145Z</time>
      </trkpt>
      <trkpt lat="68.25257" lon="14.27562">
        <ele>4.613072</ele>
        <time>2020-07-15T17:18:17.543Z</time>
      </trkpt>
      <trkpt lat="68.25194" lon="14.27655">
        <ele>4.20181</ele>
        <time>2020-07-15T17:18:29.248Z</time>
      </trkpt>
      <trkpt lat="68.25158" lon="14.27728">
        <ele>4.656486</ele>
        <time>2020-07-15T17:18:38.572Z</time>
      </trkpt>
      <trkpt lat="68.2512" lon="14.27803">
        <ele>5.424789</ele>
        <time>2020-07-15T17:18:49.515Z</time>
      </trkpt>
      <trkpt lat="68.25078" lon="14.2788">
        <ele>6.252245</ele>
        <time>2020-07-15T17:19:02.149Z</time>
      </trkpt>
      <trkpt lat="68.25052" lon="14.27921">
        <ele>6.740962</ele>
        <time>2020-07-15T17:19:09.575Z</time>
      </trkpt>
      <trkpt lat="68.25036" lon="14.27943">
        <ele>7.022798</ele>
        <time>2020-07-15T17:19:14.625Z</time>
      </trkpt>
      <trkpt lat="68.24982" lon="14.28004">
        <ele>7.253577</ele>
        <time>2020-07-15T17:19:28.274Z</time>
      </trkpt>
      <trkpt lat="68.24916" lon="14.2805">
        <ele>7.486636</ele>
        <time>2020-07-15T17:19:42.884Z</time>
      </trkpt>
      <trkpt lat="68.24784" lon="14.28081">
        <ele>5.877003</ele>
        <time>2020-07-15T17:20:01.413Z</time>
      </trkpt>
      <trkpt lat="68.24713" lon="14.28089">
        <ele>4.236528</ele>
        <time>2020-07-15T17:20:10.760Z</time>
      </trkpt>
      <trkpt lat="68.24697" lon="14.28089">
        <ele>3.858113</ele>
        <time>2020-07-15T17:20:12.990Z</time>
      </trkpt>
      <trkpt lat="68.24685" lon="14.2809">
        <ele>3.577109</ele>
        <time>2020-07-15T17:20:14.656Z</time>
      </trkpt>
      <trkpt lat="68.24592" lon="14.281">
        <ele>3.391156</ele>
        <time>2020-07-15T17:20:28.460Z</time>
      </trkpt>
      <trkpt lat="68.24371" lon="14.28122">
        <ele>5.416817</ele>
        <time>2020-07-15T17:21:18.640Z</time>
      </trkpt>
      <trkpt lat="68.24251" lon="14.28136">
        <ele>7.207675</ele>
        <time>2020-07-15T17:21:47.077Z</time>
      </trkpt>
      <trkpt lat="68.24239" lon="14.28138">
        <ele>7.376653</ele>
        <time>2020-07-15T17:21:50.127Z</time>
      </trkpt>
      <trkpt lat="68.24184" lon="14.28144">
        <ele>8.151711</ele>
        <time>2020-07-15T17:22:02.281Z</time>
      </trkpt>
      <trkpt lat="68.24163" lon="14.28147">
        <ele>8.447906</ele>
        <time>2020-07-15T17:22:07.048Z</time>
      </trkpt>
      <trkpt lat="68.24121" lon="14.28148">
        <ele>8.64899</ele>
        <time>2020-07-15T17:22:15.297Z</time>
      </trkpt>
      <trkpt lat="68.2411" lon="14.28145">
        <ele>8.612163</ele>
        <time>2020-07-15T17:22:16.965Z</time>
      </trkpt>
      <trkpt lat="68.24099" lon="14.28138">
        <ele>8.57083</ele>
        <time>2020-07-15T17:22:19.609Z</time>
      </trkpt>
      <trkpt lat="68.24072" lon="14.28109">
        <ele>8.468678</ele>
        <time>2020-07-15T17:22:24.362Z</time>
      </trkpt>
      <trkpt lat="68.24067" lon="14.28101">
        <ele>8.448083</ele>
        <time>2020-07-15T17:22:25.452Z</time>
      </trkpt>
      <trkpt lat="68.24062" lon="14.28092">
        <ele>8.427786</ele>
        <time>2020-07-15T17:22:26.363Z</time>
      </trkpt>
      <trkpt lat="68.24036" lon="14.28022">
        <ele>8.295503</ele>
        <time>2020-07-15T17:22:32.232Z</time>
      </trkpt>
      <trkpt lat="68.24031" lon="14.28001">
        <ele>8.263316</ele>
        <time>2020-07-15T17:22:33.675Z</time>
      </trkpt>
      <trkpt lat="68.24026" lon="14.2798">
        <ele>8.231076</ele>
        <time>2020-07-15T17:22:34.962Z</time>
      </trkpt>
      <trkpt lat="68.24017" lon="14.27911">
        <ele>8.134894</ele>
        <time>2020-07-15T17:22:39.395Z</time>
      </trkpt>
      <trkpt lat="68.24015" lon="14.27814">
        <ele>7.866269</ele>
        <time>2020-07-15T17:22:45.079Z</time>
      </trkpt>
      <trkpt lat="68.24018" lon="14.27753">
        <ele>7.647927</ele>
        <time>2020-07-15T17:22:48.581Z</time>
      </trkpt>
      <trkpt lat="68.24022" lon="14.27681">
        <ele>7.38935</ele>
        <time>2020-07-15T17:22:52.692Z</time>
      </trkpt>
      <trkpt lat="68.24031" lon="14.27506">
        <ele>6.760345</ele>
        <time>2020-07-15T17:23:02.857Z</time>
      </trkpt>
      <trkpt lat="68.24042" lon="14.27316">
        <ele>6.223409</ele>
        <time>2020-07-15T17:23:13.947Z</time>
      </trkpt>
      <trkpt lat="68.24051" lon="14.27152">
        <ele>5.930283</ele>
        <time>2020-07-15T17:23:24.177Z</time>
      </trkpt>
      <trkpt lat="68.24055" lon="14.27066">
        <ele>5.777089</ele>
        <time>2020-07-15T17:23:29.577Z</time>
      </trkpt>
      <trkpt lat="68.24056" lon="14.27021">
        <ele>5.69628</ele>
        <time>2020-07-15T17:23:32.453Z</time>
      </trkpt>
      <trkpt lat="68.24057" lon="14.26869">
        <ele>5.588386</ele>
        <time>2020-07-15T17:23:41.932Z</time>
      </trkpt>
      <trkpt lat="68.24055" lon="14.26744">
        <ele>5.8169</ele>
        <time>2020-07-15T17:23:50.038Z</time>
      </trkpt>
      <trkpt lat="68.24051" lon="14.2653">
        <ele>6.203922</ele>
        <time>2020-07-15T17:24:05.977Z</time>
      </trkpt>
      <trkpt lat="68.24049" lon="14.26449">
        <ele>6.352159</ele>
        <time>2020-07-15T17:24:12.432Z</time>
      </trkpt>
      <trkpt lat="68.24049" lon="14.26433">
        <ele>6.381158</ele>
        <time>2020-07-15T17:24:13.669Z</time>
      </trkpt>
      <trkpt lat="68.24046" lon="14.26391">
        <ele>6.583455</ele>
        <time>2020-07-15T17:24:17.201Z</time>
      </trkpt>
      <trkpt lat="68.24044" lon="14.26364">
        <ele>6.72841</ele>
        <time>2020-07-15T17:24:19.406Z</time>
      </trkpt>
      <trkpt lat="68.24041" lon="14.26327">
        <ele>6.920814</ele>
        <time>2020-07-15T17:24:22.360Z</time>
      </trkpt>
      <trkpt lat="68.24037" lon="14.26295">
        <ele>7.089637</ele>
        <time>2020-07-15T17:24:25.301Z</time>
      </trkpt>
      <trkpt lat="68.23967" lon="14.25903">
        <ele>9.35964</ele>
        <time>2020-07-15T17:25:01.368Z</time>
      </trkpt>
      <trkpt lat="68.23938" lon="14.25445">
        <ele>11.64792</ele>
        <time>2020-07-15T17:25:41.280Z</time>
      </trkpt>
      <trkpt lat="68.23913" lon="14.25284">
        <ele>11.64811</ele>
        <time>2020-07-15T17:25:55.273Z</time>
      </trkpt>
      <trkpt lat="68.23902" lon="14.25234">
        <ele>11.648173</ele>
        <time>2020-07-15T17:25:59.792Z</time>
      </trkpt>
      <trkpt lat="68.23891" lon="14.2519">
        <ele>11.648233</ele>
        <time>2020-07-15T17:26:02.541Z</time>
      </trkpt>
      <trkpt lat="68.2389" lon="14.25188">
        <ele>11.648235</ele>
        <time>2020-07-15T17:26:03.061Z</time>
      </trkpt>
      <trkpt lat="68.23884" lon="14.25167">
        <ele>11.648265</ele>
        <time>2020-07-15T17:26:04.739Z</time>
      </trkpt>
      <trkpt lat="68.23873" lon="14.25135">
        <ele>11.648313</ele>
        <time>2020-07-15T17:26:07.207Z</time>
      </trkpt>
      <trkpt lat="68.23871" lon="14.2513">
        <ele>11.64832</ele>
        <time>2020-07-15T17:26:07.464Z</time>
      </trkpt>
      <trkpt lat="68.23821" lon="14.24991">
        <ele>10.315436</ele>
        <time>2020-07-15T17:26:17.522Z</time>
      </trkpt>
      <trkpt lat="68.23798" lon="14.24926">
        <ele>9.484367</ele>
        <time>2020-07-15T17:26:22.634Z</time>
      </trkpt>
      <trkpt lat="68.2377" lon="14.24844">
        <ele>8.445603</ele>
        <time>2020-07-15T17:26:27.811Z</time>
      </trkpt>
      <trkpt lat="68.23732" lon="14.24737">
        <ele>7.113091</ele>
        <time>2020-07-15T17:26:34.868Z</time>
      </trkpt>
      <trkpt lat="68.2373" lon="14.24731">
        <ele>7.084169</ele>
        <time>2020-07-15T17:26:35.257Z</time>
      </trkpt>
      <trkpt lat="68.23615" lon="14.24399">
        <ele>5.405067</ele>
        <time>2020-07-15T17:27:02.008Z</time>
      </trkpt>
      <trkpt lat="68.23473" lon="14.23998">
        <ele>6.745153</ele>
        <time>2020-07-15T17:27:43.419Z</time>
      </trkpt>
      <trkpt lat="68.23399" lon="14.23787">
        <ele>8.371161</ele>
        <time>2020-07-15T17:28:07.543Z</time>
      </trkpt>
      <trkpt lat="68.23294" lon="14.23488">
        <ele>11.594417</ele>
        <time>2020-07-15T17:28:45.369Z</time>
      </trkpt>
      <trkpt lat="68.23084" lon="14.22893">
        <ele>19.968911</ele>
        <time>2020-07-15T17:30:06.729Z</time>
      </trkpt>
      <trkpt lat="68.22967" lon="14.22558">
        <ele>25.376419</ele>
        <time>2020-07-15T17:30:54.944Z</time>
      </trkpt>
      <trkpt lat="68.2291" lon="14.22435">
        <ele>27.82377</ele>
        <time>2020-07-15T17:31:16.272Z</time>
      </trkpt>
      <trkpt lat="68.22707" lon="14.22157">
        <ele>34.764313</ele>
        <time>2020-07-15T17:32:20.462Z</time>
      </trkpt>
      <trkpt lat="68.22533" lon="14.21986">
        <ele>37.848702</ele>
        <time>2020-07-15T17:33:02.523Z</time>
      </trkpt>
      <trkpt lat="68.2243" lon="14.21891">
        <ele>37.763709</ele>
        <time>2020-07-15T17:33:24.511Z</time>
      </trkpt>
      <trkpt lat="68.22324" lon="14.21792">
        <ele>36.584658</ele>
        <time>2020-07-15T17:33:41.058Z</time>
      </trkpt>
      <trkpt lat="68.22279" lon="14.21748">
        <ele>34.837715</ele>
        <time>2020-07-15T17:33:47.469Z</time>
      </trkpt>
      <trkpt lat="68.22275" lon="14.21744">
        <ele>34.696907</ele>
        <time>2020-07-15T17:33:47.969Z</time>
      </trkpt>
      <trkpt lat="68.22255" lon="14.21726">
        <ele>33.920116</ele>
        <time>2020-07-15T17:33:50.627Z</time>
      </trkpt>
      <trkpt lat="68.22239" lon="14.21713">
        <ele>33.322476</ele>
        <time>2020-07-15T17:33:52.767Z</time>
      </trkpt>
      <trkpt lat="68.22227" lon="14.21703">
        <ele>32.868673</ele>
        <time>2020-07-15T17:33:54.239Z</time>
      </trkpt>
      <trkpt lat="68.21988" lon="14.21524">
        <ele>22.974269</ele>
        <time>2020-07-15T17:34:24.691Z</time>
      </trkpt>
      <trkpt lat="68.21612" lon="14.21444">
        <ele>19.148459</ele>
        <time>2020-07-15T17:35:24.779Z</time>
      </trkpt>
      <trkpt lat="68.21571" lon="14.21451">
        <ele>18.962608</ele>
        <time>2020-07-15T17:35:31.761Z</time>
      </trkpt>
      <trkpt lat="68.21534" lon="14.21479">
        <ele>18.787215</ele>
        <time>2020-07-15T17:35:38.352Z</time>
      </trkpt>
      <trkpt lat="68.21414" lon="14.21619">
        <ele>17.982558</ele>
        <time>2020-07-15T17:36:00.020Z</time>
      </trkpt>
      <trkpt lat="68.21369" lon="14.21702">
        <ele>17.554025</ele>
        <time>2020-07-15T17:36:08.609Z</time>
      </trkpt>
      <trkpt lat="68.21343" lon="14.21761">
        <ele>17.289405</ele>
        <time>2020-07-15T17:36:13.892Z</time>
      </trkpt>
      <trkpt lat="68.21326" lon="14.21799">
        <ele>17.117923</ele>
        <time>2020-07-15T17:36:17.345Z</time>
      </trkpt>
      <trkpt lat="68.21316" lon="14.21823">
        <ele>16.986609</ele>
        <time>2020-07-15T17:36:19.394Z</time>
      </trkpt>
      <trkpt lat="68.21259" lon="14.21951">
        <ele>16.104394</ele>
        <time>2020-07-15T17:36:30.791Z</time>
      </trkpt>
      <trkpt lat="68.21163" lon="14.22166">
        <ele>14.653011</ele>
        <time>2020-07-15T17:36:49.481Z</time>
      </trkpt>
      <trkpt lat="68.21136" lon="14.22205">
        <ele>14.335852</ele>
        <time>2020-07-15T17:36:54.023Z</time>
      </trkpt>
      <trkpt lat="68.21101" lon="14.2223">
        <ele>13.95135</ele>
        <time>2020-07-15T17:36:59.513Z</time>
      </trkpt>
      <trkpt lat="68.21045" lon="14.22227">
        <ele>13.364448</ele>
        <time>2020-07-15T17:37:07.868Z</time>
      </trkpt>
      <trkpt lat="68.20919" lon="14.22136">
        <ele>14.221987</ele>
        <time>2020-07-15T17:37:31.179Z</time>
      </trkpt>
      <trkpt lat="68.20873" lon="14.2212">
        <ele>14.774571</ele>
        <time>2020-07-15T17:37:42.345Z</time>
      </trkpt>
      <trkpt lat="68.20827" lon="14.22132">
        <ele>15.708747</ele>
        <time>2020-07-15T17:37:54.734Z</time>
      </trkpt>
      <trkpt lat="68.20683" lon="14.22202">
        <ele>22.259124</ele>
        <time>2020-07-15T17:38:43.092Z</time>
      </trkpt>
      <trkpt lat="68.20657" lon="14.22226">
        <ele>23.442394</ele>
        <time>2020-07-15T17:38:52.941Z</time>
      </trkpt>
      <trkpt lat="68.2063" lon="14.22272">
        <ele>24.511158</ele>
        <time>2020-07-15T17:39:03.767Z</time>
      </trkpt>
      <trkpt lat="68.20608" lon="14.22363">
        <ele>25.843733</ele>
        <time>2020-07-15T17:39:16.548Z</time>
      </trkpt>
      <trkpt lat="68.20599" lon="14.22523">
        <ele>27.860501</ele>
        <time>2020-07-15T17:39:34.609Z</time>
      </trkpt>
      <trkpt lat="68.20598" lon="14.2367">
        <ele>31.679091</ele>
        <time>2020-07-15T17:40:58.723Z</time>
      </trkpt>
      <trkpt lat="68.20611" lon="14.23906">
        <ele>32.046138</ele>
        <time>2020-07-15T17:41:14.500Z</time>
      </trkpt>
      <trkpt lat="68.20617" lon="14.23979">
        <ele>32.16089</ele>
        <time>2020-07-15T17:41:19.723Z</time>
      </trkpt>
      <trkpt lat="68.20652" lon="14.24423">
        <ele>34.02844</ele>
        <time>2020-07-15T17:41:55.899Z</time>
      </trkpt>
      <trkpt lat="68.20658" lon="14.24491">
        <ele>34.370086</ele>
        <time>2020-07-15T17:42:02.052Z</time>
      </trkpt>
      <trkpt lat="68.20663" lon="14.24545">
        <ele>34.642629</ele>
        <time>2020-07-15T17:42:06.947Z</time>
      </trkpt>
      <trkpt lat="68.20667" lon="14.2458">
        <ele>34.851772</ele>
        <time>2020-07-15T17:42:10.313Z</time>
      </trkpt>
      <trkpt lat="68.20697" lon="14.24797">
        <ele>36.233265</ele>
        <time>2020-07-15T17:42:30.650Z</time>
      </trkpt>
      <trkpt lat="68.20725" lon="14.24985">
        <ele>37.438493</ele>
        <time>2020-07-15T17:42:47.873Z</time>
      </trkpt>
      <trkpt lat="68.20728" lon="14.25007">
        <ele>37.58116</ele>
        <time>2020-07-15T17:42:49.787Z</time>
      </trkpt>
      <trkpt lat="68.20742" lon="14.25095">
        <ele>37.761888</ele>
        <time>2020-07-15T17:42:57.227Z</time>
      </trkpt>
      <trkpt lat="68.20763" lon="14.25227">
        <ele>38.025206</ele>
        <time>2020-07-15T17:43:08.048Z</time>
      </trkpt>
      <trkpt lat="68.20784" lon="14.25379">
        <ele>38.324577</ele>
        <time>2020-07-15T17:43:19.188Z</time>
      </trkpt>
      <trkpt lat="68.20787" lon="14.25406">
        <ele>38.377284</ele>
        <time>2020-07-15T17:43:21.179Z</time>
      </trkpt>
      <trkpt lat="68.2079" lon="14.25433">
        <ele>38.429502</ele>
        <time>2020-07-15T17:43:22.887Z</time>
      </trkpt>
      <trkpt lat="68.20809" lon="14.25719">
        <ele>38.139916</ele>
        <time>2020-07-15T17:43:41.198Z</time>
      </trkpt>
      <trkpt lat="68.20843" lon="14.2635">
        <ele>37.217942</ele>
        <time>2020-07-15T17:44:20.620Z</time>
      </trkpt>
      <trkpt lat="68.20845" lon="14.26497">
        <ele>37.089072</ele>
        <time>2020-07-15T17:44:29.714Z</time>
      </trkpt>
      <trkpt lat="68.20842" lon="14.26645">
        <ele>37.04264</ele>
        <time>2020-07-15T17:44:39.037Z</time>
      </trkpt>
      <trkpt lat="68.20818" lon="14.26894">
        <ele>36.962211</ele>
        <time>2020-07-15T17:44:55.572Z</time>
      </trkpt>
      <trkpt lat="68.20674" lon="14.27985">
        <ele>47.358408</ele>
        <time>2020-07-15T17:46:31.385Z</time>
      </trkpt>
      <trkpt lat="68.20671" lon="14.28011">
        <ele>48.175666</ele>
        <time>2020-07-15T17:46:35.111Z</time>
      </trkpt>
      <trkpt lat="68.20668" lon="14.28042">
        <ele>49.12877</ele>
        <time>2020-07-15T17:46:41.286Z</time>
      </trkpt>
      <trkpt lat="68.20667" lon="14.28208">
        <ele>54.126032</ele>
        <time>2020-07-15T17:47:15.716Z</time>
      </trkpt>
      <trkpt lat="68.20682" lon="14.28335">
        <ele>59.480828</ele>
        <time>2020-07-15T17:47:47.457Z</time>
      </trkpt>
      <trkpt lat="68.20684" lon="14.28346">
        <ele>60.10306</ele>
        <time>2020-07-15T17:47:51.560Z</time>
      </trkpt>
      <trkpt lat="68.20708" lon="14.28434">
        <ele>65.858134</ele>
        <time>2020-07-15T17:48:21.204Z</time>
      </trkpt>
      <trkpt lat="68.20876" lon="14.29061">
        <ele>97.603197</ele>
        <time>2020-07-15T17:51:11.087Z</time>
      </trkpt>
      <trkpt lat="68.21063" lon="14.29759">
        <ele>57.551827</ele>
        <time>2020-07-15T17:51:44.785Z</time>
      </trkpt>
      <trkpt lat="68.21078" lon="14.29815">
        <ele>53.536825</ele>
        <time>2020-07-15T17:51:47.369Z</time>
      </trkpt>
      <trkpt lat="68.21148" lon="14.30071">
        <ele>37.631181</ele>
        <time>2020-07-15T17:51:59.386Z</time>
      </trkpt>
      <trkpt lat="68.214" lon="14.31002">
        <ele>11.222173</ele>
        <time>2020-07-15T17:52:51.670Z</time>
      </trkpt>
      <trkpt lat="68.2145" lon="14.3122">
        <ele>9.171144</ele>
        <time>2020-07-15T17:53:05.387Z</time>
      </trkpt>
      <trkpt lat="68.21495" lon="14.31517">
        <ele>7.154455</ele>
        <time>2020-07-15T17:53:23.061Z</time>
      </trkpt>
      <trkpt lat="68.21512" lon="14.31768">
        <ele>6.073558</ele>
        <time>2020-07-15T17:53:37.417Z</time>
      </trkpt>
      <trkpt lat="68.21511" lon="14.3203">
        <ele>5.196902</ele>
        <time>2020-07-15T17:53:52.668Z</time>
      </trkpt>
      <trkpt lat="68.2151" lon="14.32064">
        <ele>5.13884</ele>
        <time>2020-07-15T17:53:54.630Z</time>
      </trkpt>
      <trkpt lat="68.21506" lon="14.32128">
        <ele>5.027536</ele>
        <time>2020-07-15T17:53:58.666Z</time>
      </trkpt>
      <trkpt lat="68.21476" lon="14.32434">
        <ele>4.538194</ele>
        <time>2020-07-15T17:54:18.455Z</time>
      </trkpt>
      <trkpt lat="68.2132" lon="14.33783">
        <ele>5.231079</ele>
        <time>2020-07-15T17:55:55.278Z</time>
      </trkpt>
      <trkpt lat="68.2131" lon="14.33866">
        <ele>5.409539</ele>
        <time>2020-07-15T17:56:00.699Z</time>
      </trkpt>
      <trkpt lat="68.21296" lon="14.33994">
        <ele>5.749652</ele>
        <time>2020-07-15T17:56:08.841Z</time>
      </trkpt>
      <trkpt lat="68.21244" lon="14.34447">
        <ele>9.318405</ele>
        <time>2020-07-15T17:56:48.166Z</time>
      </trkpt>
      <trkpt lat="68.21242" lon="14.34466">
        <ele>9.617415</ele>
        <time>2020-07-15T17:56:50.489Z</time>
      </trkpt>
      <trkpt lat="68.2124" lon="14.34475">
        <ele>9.750478</ele>
        <time>2020-07-15T17:56:51.524Z</time>
      </trkpt>
      <trkpt lat="68.21162" lon="14.35154">
        <ele>22.467206</ele>
        <time>2020-07-15T17:58:28.722Z</time>
      </trkpt>
      <trkpt lat="68.21154" lon="14.35221">
        <ele>23.209798</ele>
        <time>2020-07-15T17:58:35.920Z</time>
      </trkpt>
      <trkpt lat="68.21144" lon="14.35304">
        <ele>23.206102</ele>
        <time>2020-07-15T17:58:43.756Z</time>
      </trkpt>
      <trkpt lat="68.21136" lon="14.35387">
        <ele>23.202496</ele>
        <time>2020-07-15T17:58:50.171Z</time>
      </trkpt>
      <trkpt lat="68.21131" lon="14.35482">
        <ele>23.198394</ele>
        <time>2020-07-15T17:58:56.135Z</time>
      </trkpt>
      <trkpt lat="68.21132" lon="14.35593">
        <ele>23.19371</ele>
        <time>2020-07-15T17:59:01.998Z</time>
      </trkpt>
      <trkpt lat="68.21177" lon="14.365">
        <ele>13.143662</ele>
        <time>2020-07-15T17:59:46.516Z</time>
      </trkpt>
      <trkpt lat="68.21195" lon="14.36847">
        <ele>8.681752</ele>
        <time>2020-07-15T18:00:03.036Z</time>
      </trkpt>
      <trkpt lat="68.21205" lon="14.3704">
        <ele>6.181093</ele>
        <time>2020-07-15T18:00:12.301Z</time>
      </trkpt>
      <trkpt lat="68.21206" lon="14.3706">
        <ele>5.91894</ele>
        <time>2020-07-15T18:00:13.243Z</time>
      </trkpt>
      <trkpt lat="68.21229" lon="14.37512">
        <ele>2.247845</ele>
        <time>2020-07-15T18:00:36.796Z</time>
      </trkpt>
      <trkpt lat="68.21231" lon="14.37567">
        <ele>1.826405</ele>
        <time>2020-07-15T18:00:40.025Z</time>
      </trkpt>
      <trkpt lat="68.21234" lon="14.37623">
        <ele>1.725802</ele>
        <time>2020-07-15T18:00:43.305Z</time>
      </trkpt>
      <trkpt lat="68.21238" lon="14.37702">
        <ele>1.797521</ele>
        <time>2020-07-15T18:00:48.060Z</time>
      </trkpt>
      <trkpt lat="68.21256" lon="14.38062">
        <ele>2.125404</ele>
        <time>2020-07-15T18:01:14.142Z</time>
      </trkpt>
      <trkpt lat="68.21263" lon="14.38205">
        <ele>3.435437</ele>
        <time>2020-07-15T18:01:26.737Z</time>
      </trkpt>
      <trkpt lat="68.21295" lon="14.3884">
        <ele>9.54967</ele>
        <time>2020-07-15T18:02:32.514Z</time>
      </trkpt>
      <trkpt lat="68.21313" lon="14.39201">
        <ele>11.679071</ele>
        <time>2020-07-15T18:03:05.587Z</time>
      </trkpt>
      <trkpt lat="68.21317" lon="14.39271">
        <ele>11.789967</ele>
        <time>2020-07-15T18:03:10.674Z</time>
      </trkpt>
      <trkpt lat="68.21324" lon="14.39343">
        <ele>11.906971</ele>
        <time>2020-07-15T18:03:15.599Z</time>
      </trkpt>
      <trkpt lat="68.21333" lon="14.39425">
        <ele>12.040621</ele>
        <time>2020-07-15T18:03:20.774Z</time>
      </trkpt>
      <trkpt lat="68.21341" lon="14.39489">
        <ele>12.147453</ele>
        <time>2020-07-15T18:03:24.619Z</time>
      </trkpt>
      <trkpt lat="68.21359" lon="14.39594">
        <ele>11.322418</ele>
        <time>2020-07-15T18:03:30.984Z</time>
      </trkpt>
      <trkpt lat="68.21366" lon="14.39628">
        <ele>11.020997</ele>
        <time>2020-07-15T18:03:32.987Z</time>
      </trkpt>
      <trkpt lat="68.21362" lon="14.39644">
        <ele>10.875804</ele>
        <time>2020-07-15T18:03:33.915Z</time>
      </trkpt>
      <trkpt lat="68.21451" lon="14.40017">
        <ele>7.374819</ele>
        <time>2020-07-15T18:03:57.489Z</time>
      </trkpt>
      <trkpt lat="68.2147" lon="14.4013">
        <ele>6.405921</ele>
        <time>2020-07-15T18:04:04.111Z</time>
      </trkpt>
      <trkpt lat="68.21479" lon="14.4024">
        <ele>5.515887</ele>
        <time>2020-07-15T18:04:10.268Z</time>
      </trkpt>
      <trkpt lat="68.21478" lon="14.40404">
        <ele>4.498473</ele>
        <time>2020-07-15T18:04:19.375Z</time>
      </trkpt>
      <trkpt lat="68.21461" lon="14.40551">
        <ele>4.388051</ele>
        <time>2020-07-15T18:04:28.844Z</time>
      </trkpt>
      <trkpt lat="68.21436" lon="14.40672">
        <ele>4.288323</ele>
        <time>2020-07-15T18:04:38.143Z</time>
      </trkpt>
      <trkpt lat="68.21401" lon="14.40778">
        <ele>4.187658</ele>
        <time>2020-07-15T18:04:48.584Z</time>
      </trkpt>
      <trkpt lat="68.21401" lon="14.4078">
        <ele>4.185689</ele>
        <time>2020-07-15T18:04:49.026Z</time>
      </trkpt>
      <trkpt lat="68.21397" lon="14.4079">
        <ele>4.220206</ele>
        <time>2020-07-15T18:04:50.420Z</time>
      </trkpt>
      <trkpt lat="68.21367" lon="14.40897">
        <ele>5.649725</ele>
        <time>2020-07-15T18:05:02.051Z</time>
      </trkpt>
      <trkpt lat="68.21344" lon="14.41046">
        <ele>7.393699</ele>
        <time>2020-07-15T18:05:18.492Z</time>
      </trkpt>
      <trkpt lat="68.21327" lon="14.41188">
        <ele>8.997715</ele>
        <time>2020-07-15T18:05:35.033Z</time>
      </trkpt>
      <trkpt lat="68.213" lon="14.41408">
        <ele>13.89496</ele>
        <time>2020-07-15T18:06:05.912Z</time>
      </trkpt>
      <trkpt lat="68.21289" lon="14.41525">
        <ele>16.687415</ele>
        <time>2020-07-15T18:06:24.275Z</time>
      </trkpt>
      <trkpt lat="68.21286" lon="14.41567">
        <ele>17.669145</ele>
        <time>2020-07-15T18:06:31.379Z</time>
      </trkpt>
      <trkpt lat="68.21285" lon="14.41617">
        <ele>18.823922</ele>
        <time>2020-07-15T18:06:39.456Z</time>
      </trkpt>
      <trkpt lat="68.21285" lon="14.41698">
        <ele>20.634464</ele>
        <time>2020-07-15T18:06:52.400Z</time>
      </trkpt>
      <trkpt lat="68.21288" lon="14.41742">
        <ele>21.185628</ele>
        <time>2020-07-15T18:06:58.980Z</time>
      </trkpt>
      <trkpt lat="68.21292" lon="14.4178">
        <ele>21.654013</ele>
        <time>2020-07-15T18:07:05.063Z</time>
      </trkpt>
      <trkpt lat="68.21298" lon="14.41837">
        <ele>22.370563</ele>
        <time>2020-07-15T18:07:12.494Z</time>
      </trkpt>
      <trkpt lat="68.21321" lon="14.42026">
        <ele>24.794789</ele>
        <time>2020-07-15T18:07:35.353Z</time>
      </trkpt>
      <trkpt lat="68.21336" lon="14.42135">
        <ele>26.2042</ele>
        <time>2020-07-15T18:07:44.776Z</time>
      </trkpt>
      <trkpt lat="68.21388" lon="14.42542">
        <ele>22.962972</ele>
        <time>2020-07-15T18:08:06.925Z</time>
      </trkpt>
      <trkpt lat="68.21461" lon="14.43097">
        <ele>18.977654</ele>
        <time>2020-07-15T18:08:39.704Z</time>
      </trkpt>
      <trkpt lat="68.21468" lon="14.43173">
        <ele>18.648429</ele>
        <time>2020-07-15T18:08:44.643Z</time>
      </trkpt>
      <trkpt lat="68.21469" lon="14.43183">
        <ele>18.602996</ele>
        <time>2020-07-15T18:08:45.271Z</time>
      </trkpt>
      <trkpt lat="68.21471" lon="14.43195">
        <ele>18.549535</ele>
        <time>2020-07-15T18:08:46.128Z</time>
      </trkpt>
      <trkpt lat="68.21511" lon="14.43478">
        <ele>17.260893</ele>
        <time>2020-07-15T18:09:04.593Z</time>
      </trkpt>
      <trkpt lat="68.21518" lon="14.43561">
        <ele>16.665037</ele>
        <time>2020-07-15T18:09:09.555Z</time>
      </trkpt>
      <trkpt lat="68.21519" lon="14.43641">
        <ele>15.780041</ele>
        <time>2020-07-15T18:09:14.108Z</time>
      </trkpt>
      <trkpt lat="68.21509" lon="14.43774">
        <ele>14.270252</ele>
        <time>2020-07-15T18:09:21.094Z</time>
      </trkpt>
      <trkpt lat="68.21479" lon="14.43974">
        <ele>11.884075</ele>
        <time>2020-07-15T18:09:31.479Z</time>
      </trkpt>
      <trkpt lat="68.2146" lon="14.44064">
        <ele>11.601298</ele>
        <time>2020-07-15T18:09:36.909Z</time>
      </trkpt>
      <trkpt lat="68.21456" lon="14.44077">
        <ele>11.588862</ele>
        <time>2020-07-15T18:09:37.701Z</time>
      </trkpt>
      <trkpt lat="68.21444" lon="14.44108">
        <ele>11.555762</ele>
        <time>2020-07-15T18:09:40.203Z</time>
      </trkpt>
      <trkpt lat="68.21422" lon="14.44159">
        <ele>11.497533</ele>
        <time>2020-07-15T18:09:45.085Z</time>
      </trkpt>
      <trkpt lat="68.21416" lon="14.44178">
        <ele>11.478726</ele>
        <time>2020-07-15T18:09:46.403Z</time>
      </trkpt>
      <trkpt lat="68.21401" lon="14.44257">
        <ele>11.412133</ele>
        <time>2020-07-15T18:09:52.578Z</time>
      </trkpt>
      <trkpt lat="68.21399" lon="14.44269">
        <ele>11.402256</ele>
        <time>2020-07-15T18:09:54.245Z</time>
      </trkpt>
      <trkpt lat="68.21393" lon="14.44298">
        <ele>11.377738</ele>
        <time>2020-07-15T18:09:57.521Z</time>
      </trkpt>
      <trkpt lat="68.2137" lon="14.44421">
        <ele>12.134123</ele>
        <time>2020-07-15T18:10:10.579Z</time>
      </trkpt>
      <trkpt lat="68.21364" lon="14.44506">
        <ele>14.098121</ele>
        <time>2020-07-15T18:10:21.942Z</time>
      </trkpt>
      <trkpt lat="68.21373" lon="14.44625">
        <ele>16.825992</ele>
        <time>2020-07-15T18:10:38.648Z</time>
      </trkpt>
      <trkpt lat="68.21376" lon="14.44639">
        <ele>17.170967</ele>
        <time>2020-07-15T18:10:42.269Z</time>
      </trkpt>
      <trkpt lat="68.21379" lon="14.44651">
        <ele>17.498557</ele>
        <time>2020-07-15T18:10:44.307Z</time>
      </trkpt>
      <trkpt lat="68.21399" lon="14.44699">
        <ele>19.11857</ele>
        <time>2020-07-15T18:10:56.204Z</time>
      </trkpt>
      <trkpt lat="68.214" lon="14.44705">
        <ele>19.287221</ele>
        <time>2020-07-15T18:10:58.086Z</time>
      </trkpt>
      <trkpt lat="68.2141" lon="14.44739">
        <ele>20.262712</ele>
        <time>2020-07-15T18:11:04.434Z</time>
      </trkpt>
      <trkpt lat="68.21412" lon="14.44744">
        <ele>20.409334</ele>
        <time>2020-07-15T18:11:05.347Z</time>
      </trkpt>
      <trkpt lat="68.21414" lon="14.44752">
        <ele>20.628542</ele>
        <time>2020-07-15T18:11:07.469Z</time>
      </trkpt>
      <trkpt lat="68.21416" lon="14.44779">
        <ele>21.260205</ele>
        <time>2020-07-15T18:11:11.434Z</time>
      </trkpt>
      <trkpt lat="68.21412" lon="14.44826">
        <ele>22.333191</ele>
        <time>2020-07-15T18:11:18.612Z</time>
      </trkpt>
      <trkpt lat="68.21393" lon="14.44953">
        <ele>25.205967</ele>
        <time>2020-07-15T18:11:38.897Z</time>
      </trkpt>
      <trkpt lat="68.21381" lon="14.45033">
        <ele>27.006493</ele>
        <time>2020-07-15T18:11:52.401Z</time>
      </trkpt>
      <trkpt lat="68.21354" lon="14.45275">
        <ele>32.259917</ele>
        <time>2020-07-15T18:12:24.184Z</time>
      </trkpt>
      <trkpt lat="68.21346" lon="14.45369">
        <ele>32.388839</ele>
        <time>2020-07-15T18:12:35.004Z</time>
      </trkpt>
      <trkpt lat="68.21343" lon="14.45408">
        <ele>32.416585</ele>
        <time>2020-07-15T18:12:39.442Z</time>
      </trkpt>
      <trkpt lat="68.21337" lon="14.4556">
        <ele>32.521818</ele>
        <time>2020-07-15T18:12:50.404Z</time>
      </trkpt>
      <trkpt lat="68.21336" lon="14.45796">
        <ele>32.078769</ele>
        <time>2020-07-15T18:13:03.183Z</time>
      </trkpt>
      <trkpt lat="68.21335" lon="14.46009">
        <ele>28.748567</ele>
        <time>2020-07-15T18:13:13.365Z</time>
      </trkpt>
      <trkpt lat="68.21332" lon="14.46177">
        <ele>26.127403</ele>
        <time>2020-07-15T18:13:21.361Z</time>
      </trkpt>
      <trkpt lat="68.21351" lon="14.46316">
        <ele>24.411833</ele>
        <time>2020-07-15T18:13:28.484Z</time>
      </trkpt>
      <trkpt lat="68.21349" lon="14.46355">
        <ele>24.082985</ele>
        <time>2020-07-15T18:13:30.485Z</time>
      </trkpt>
      <trkpt lat="68.2134" lon="14.46407">
        <ele>23.598393</ele>
        <time>2020-07-15T18:13:33.501Z</time>
      </trkpt>
      <trkpt lat="68.21337" lon="14.46427">
        <ele>23.412812</ele>
        <time>2020-07-15T18:13:34.715Z</time>
      </trkpt>
      <trkpt lat="68.21334" lon="14.46453">
        <ele>23.189775</ele>
        <time>2020-07-15T18:13:36.175Z</time>
      </trkpt>
      <trkpt lat="68.21333" lon="14.46455">
        <ele>23.156552</ele>
        <time>2020-07-15T18:13:36.392Z</time>
      </trkpt>
      <trkpt lat="68.2133" lon="14.46457">
        <ele>23.08263</ele>
        <time>2020-07-15T18:13:36.877Z</time>
      </trkpt>
      <trkpt lat="68.21319" lon="14.4646">
        <ele>22.844192</ele>
        <time>2020-07-15T18:13:38.469Z</time>
      </trkpt>
      <trkpt lat="68.21286" lon="14.46468">
        <ele>22.081578</ele>
        <time>2020-07-15T18:13:43.694Z</time>
      </trkpt>
      <trkpt lat="68.2128" lon="14.46469">
        <ele>21.963405</ele>
        <time>2020-07-15T18:13:44.522Z</time>
      </trkpt>
      <trkpt lat="68.21266" lon="14.46471">
        <ele>21.637154</ele>
        <time>2020-07-15T18:13:46.886Z</time>
      </trkpt>
      <trkpt lat="68.21236" lon="14.46479">
        <ele>21.009216</ele>
        <time>2020-07-15T18:13:51.820Z</time>
      </trkpt>
      <trkpt lat="68.21232" lon="14.46483">
        <ele>20.975737</ele>
        <time>2020-07-15T18:13:52.595Z</time>
      </trkpt>
      <trkpt lat="68.21232" lon="14.46488">
        <ele>20.962095</ele>
        <time>2020-07-15T18:13:52.916Z</time>
      </trkpt>
      <trkpt lat="68.2123" lon="14.46498">
        <ele>20.931917</ele>
        <time>2020-07-15T18:13:53.573Z</time>
      </trkpt>
      <trkpt lat="68.21236" lon="14.4659">
        <ele>20.670298</ele>
        <time>2020-07-15T18:13:59.643Z</time>
      </trkpt>
      <trkpt lat="68.21221" lon="14.4672">
        <ele>20.288595</ele>
        <time>2020-07-15T18:14:08.437Z</time>
      </trkpt>
      <trkpt lat="68.21211" lon="14.46932">
        <ele>19.689969</ele>
        <time>2020-07-15T18:14:21.617Z</time>
      </trkpt>
      <trkpt lat="68.2121" lon="14.4696">
        <ele>19.55351</ele>
        <time>2020-07-15T18:14:23.295Z</time>
      </trkpt>
      <trkpt lat="68.21196" lon="14.47258">
        <ele>17.943144</ele>
        <time>2020-07-15T18:14:40.582Z</time>
      </trkpt>
      <trkpt lat="68.21195" lon="14.47283">
        <ele>17.807881</ele>
        <time>2020-07-15T18:14:41.923Z</time>
      </trkpt>
      <trkpt lat="68.21188" lon="14.47428">
        <ele>17.058216</ele>
        <time>2020-07-15T18:14:50.064Z</time>
      </trkpt>
      <trkpt lat="68.21187" lon="14.47456">
        <ele>17.007777</ele>
        <time>2020-07-15T18:14:51.573Z</time>
      </trkpt>
      <trkpt lat="68.21184" lon="14.47539">
        <ele>16.857865</ele>
        <time>2020-07-15T18:14:56.632Z</time>
      </trkpt>
      <trkpt lat="68.21181" lon="14.47605">
        <ele>16.740162</ele>
        <time>2020-07-15T18:15:00.759Z</time>
      </trkpt>
      <trkpt lat="68.21182" lon="14.47645">
        <ele>16.66842</ele>
        <time>2020-07-15T18:15:03.089Z</time>
      </trkpt>
      <trkpt lat="68.21189" lon="14.47724">
        <ele>16.522318</ele>
        <time>2020-07-15T18:15:08.535Z</time>
      </trkpt>
      <trkpt lat="68.21205" lon="14.47803">
        <ele>16.360418</ele>
        <time>2020-07-15T18:15:15.047Z</time>
      </trkpt>
      <trkpt lat="68.21211" lon="14.47822">
        <ele>16.316119</ele>
        <time>2020-07-15T18:15:16.998Z</time>
      </trkpt>
      <trkpt lat="68.21214" lon="14.47833">
        <ele>16.291453</ele>
        <time>2020-07-15T18:15:18.482Z</time>
      </trkpt>
      <trkpt lat="68.21253" lon="14.4793">
        <ele>15.78188</ele>
        <time>2020-07-15T18:15:28.892Z</time>
      </trkpt>
      <trkpt lat="68.21296" lon="14.48093">
        <ele>14.879893</ele>
        <time>2020-07-15T18:15:42.904Z</time>
      </trkpt>
      <trkpt lat="68.21304" lon="14.48121">
        <ele>14.727368</ele>
        <time>2020-07-15T18:15:44.601Z</time>
      </trkpt>
      <trkpt lat="68.21307" lon="14.48133">
        <ele>14.661172</ele>
        <time>2020-07-15T18:15:45.762Z</time>
      </trkpt>
      <trkpt lat="68.21332" lon="14.48193">
        <ele>14.257647</ele>
        <time>2020-07-15T18:15:50.175Z</time>
      </trkpt>
      <trkpt lat="68.21342" lon="14.48212">
        <ele>14.110984</ele>
        <time>2020-07-15T18:15:52.115Z</time>
      </trkpt>
      <trkpt lat="68.2135" lon="14.48224">
        <ele>13.927059</ele>
        <time>2020-07-15T18:15:53.272Z</time>
      </trkpt>
      <trkpt lat="68.2137" lon="14.48247">
        <ele>13.234825</ele>
        <time>2020-07-15T18:15:56.332Z</time>
      </trkpt>
      <trkpt lat="68.21382" lon="14.48257">
        <ele>12.838463</ele>
        <time>2020-07-15T18:15:57.939Z</time>
      </trkpt>
      <trkpt lat="68.21394" lon="14.48263">
        <ele>12.456973</ele>
        <time>2020-07-15T18:15:59.522Z</time>
      </trkpt>
      <trkpt lat="68.21424" lon="14.48263">
        <ele>11.525277</ele>
        <time>2020-07-15T18:16:03.525Z</time>
      </trkpt>
      <trkpt lat="68.21446" lon="14.4825">
        <ele>10.800498</ele>
        <time>2020-07-15T18:16:06.891Z</time>
      </trkpt>
      <trkpt lat="68.2145" lon="14.48247">
        <ele>10.693065</ele>
        <time>2020-07-15T18:16:07.257Z</time>
      </trkpt>
      <trkpt lat="68.21476" lon="14.48218">
        <ele>9.798196</ele>
        <time>2020-07-15T18:16:11.345Z</time>
      </trkpt>
      <trkpt lat="68.21488" lon="14.48205">
        <ele>9.389049</ele>
        <time>2020-07-15T18:16:13.105Z</time>
      </trkpt>
      <trkpt lat="68.21536" lon="14.48185">
        <ele>8.451238</ele>
        <time>2020-07-15T18:16:19.867Z</time>
      </trkpt>
      <trkpt lat="68.21584" lon="14.4822">
        <ele>8.669297</ele>
        <time>2020-07-15T18:16:28.822Z</time>
      </trkpt>
      <trkpt lat="68.21588" lon="14.48228">
        <ele>8.69309</ele>
        <time>2020-07-15T18:16:29.479Z</time>
      </trkpt>
      <trkpt lat="68.21597" lon="14.48246">
        <ele>8.738705</ele>
        <time>2020-07-15T18:16:32.288Z</time>
      </trkpt>
      <trkpt lat="68.21627" lon="14.48346">
        <ele>8.949435</ele>
        <time>2020-07-15T18:16:44.212Z</time>
      </trkpt>
      <trkpt lat="68.21638" lon="14.48405">
        <ele>9.057282</ele>
        <time>2020-07-15T18:16:50.785Z</time>
      </trkpt>
      <trkpt lat="68.21679" lon="14.4869">
        <ele>10.827749</ele>
        <time>2020-07-15T18:17:17.564Z</time>
      </trkpt>
      <trkpt lat="68.21718" lon="14.48956">
        <ele>12.940882</ele>
        <time>2020-07-15T18:17:43.916Z</time>
      </trkpt>
      <trkpt lat="68.2175" lon="14.49074">
        <ele>14.340815</ele>
        <time>2020-07-15T18:17:58.989Z</time>
      </trkpt>
      <trkpt lat="68.21761" lon="14.49105">
        <ele>14.75908</ele>
        <time>2020-07-15T18:18:03.117Z</time>
      </trkpt>
      <trkpt lat="68.21769" lon="14.4913">
        <ele>15.076821</ele>
        <time>2020-07-15T18:18:07.122Z</time>
      </trkpt>
      <trkpt lat="68.21782" lon="14.49178">
        <ele>15.664695</ele>
        <time>2020-07-15T18:18:12.687Z</time>
      </trkpt>
      <trkpt lat="68.2179" lon="14.49196">
        <ele>15.925483</ele>
        <time>2020-07-15T18:18:15.892Z</time>
      </trkpt>
      <trkpt lat="68.21794" lon="14.49203">
        <ele>16.053197</ele>
        <time>2020-07-15T18:18:17.409Z</time>
      </trkpt>
      <trkpt lat="68.21801" lon="14.49213">
        <ele>16.25495</ele>
        <time>2020-07-15T18:18:19.191Z</time>
      </trkpt>
      <trkpt lat="68.21819" lon="14.49234">
        <ele>16.773975</ele>
        <time>2020-07-15T18:18:24.577Z</time>
      </trkpt>
      <trkpt lat="68.21825" lon="14.4924">
        <ele>16.938264</ele>
        <time>2020-07-15T18:18:26.651Z</time>
      </trkpt>
      <trkpt lat="68.21855" lon="14.49305">
        <ele>17.603337</ele>
        <time>2020-07-15T18:18:36.883Z</time>
      </trkpt>
      <trkpt lat="68.21858" lon="14.49317">
        <ele>17.672954</ele>
        <time>2020-07-15T18:18:38.101Z</time>
      </trkpt>
      <trkpt lat="68.21871" lon="14.49358">
        <ele>17.934052</ele>
        <time>2020-07-15T18:18:43.110Z</time>
      </trkpt>
      <trkpt lat="68.2193" lon="14.49566">
        <ele>19.215091</ele>
        <time>2020-07-15T18:19:04.505Z</time>
      </trkpt>
      <trkpt lat="68.21935" lon="14.49583">
        <ele>19.32287</ele>
        <time>2020-07-15T18:19:05.933Z</time>
      </trkpt>
      <trkpt lat="68.21989" lon="14.49756">
        <ele>20.472169</ele>
        <time>2020-07-15T18:19:22.471Z</time>
      </trkpt>
      <trkpt lat="68.21997" lon="14.49786">
        <ele>20.663049</ele>
        <time>2020-07-15T18:19:25.169Z</time>
      </trkpt>
      <trkpt lat="68.22012" lon="14.49842">
        <ele>21.020054</ele>
        <time>2020-07-15T18:19:30.917Z</time>
      </trkpt>
      <trkpt lat="68.2203" lon="14.4992">
        <ele>21.492353</ele>
        <time>2020-07-15T18:19:38.828Z</time>
      </trkpt>
      <trkpt lat="68.22039" lon="14.49952">
        <ele>21.696866</ele>
        <time>2020-07-15T18:19:42.214Z</time>
      </trkpt>
      <trkpt lat="68.22045" lon="14.49973">
        <ele>21.836144</ele>
        <time>2020-07-15T18:19:45.113Z</time>
      </trkpt>
      <trkpt lat="68.22119" lon="14.5014">
        <ele>24.763587</ele>
        <time>2020-07-15T18:20:13.378Z</time>
      </trkpt>
      <trkpt lat="68.22144" lon="14.50231">
        <ele>26.214486</ele>
        <time>2020-07-15T18:20:26.834Z</time>
      </trkpt>
      <trkpt lat="68.2216" lon="14.50322">
        <ele>27.533423</ele>
        <time>2020-07-15T18:20:38.872Z</time>
      </trkpt>
      <trkpt lat="68.22174" lon="14.50471">
        <ele>28.812679</ele>
        <time>2020-07-15T18:20:56.139Z</time>
      </trkpt>
      <trkpt lat="68.22179" lon="14.50907">
        <ele>30.391408</ele>
        <time>2020-07-15T18:21:31.197Z</time>
      </trkpt>
      <trkpt lat="68.22191" lon="14.5102">
        <ele>29.359483</ele>
        <time>2020-07-15T18:21:37.385Z</time>
      </trkpt>
      <trkpt lat="68.22211" lon="14.51124">
        <ele>28.317391</ele>
        <time>2020-07-15T18:21:43.438Z</time>
      </trkpt>
      <trkpt lat="68.22251" lon="14.51245">
        <ele>26.881401</ele>
        <time>2020-07-15T18:21:51.487Z</time>
      </trkpt>
      <trkpt lat="68.22388" lon="14.51468">
        <ele>24.646365</ele>
        <time>2020-07-15T18:22:13.962Z</time>
      </trkpt>
      <trkpt lat="68.2242" lon="14.51549">
        <ele>24.41991</ele>
        <time>2020-07-15T18:22:26.385Z</time>
      </trkpt>
      <trkpt lat="68.22447" lon="14.51663">
        <ele>26.933408</ele>
        <time>2020-07-15T18:22:41.781Z</time>
      </trkpt>
      <trkpt lat="68.22453" lon="14.517">
        <ele>27.671472</ele>
        <time>2020-07-15T18:22:45.852Z</time>
      </trkpt>
      <trkpt lat="68.22457" lon="14.51726">
        <ele>28.181882</ele>
        <time>2020-07-15T18:22:51.433Z</time>
      </trkpt>
      <trkpt lat="68.22464" lon="14.51856">
        <ele>30.605131</ele>
        <time>2020-07-15T18:23:09.200Z</time>
      </trkpt>
      <trkpt lat="68.22465" lon="14.52238">
        <ele>37.194856</ele>
        <time>2020-07-15T18:24:04.878Z</time>
      </trkpt>
      <trkpt lat="68.22472" lon="14.52341">
        <ele>38.940942</ele>
        <time>2020-07-15T18:24:15.912Z</time>
      </trkpt>
      <trkpt lat="68.22476" lon="14.52378">
        <ele>39.574544</ele>
        <time>2020-07-15T18:24:20.289Z</time>
      </trkpt>
      <trkpt lat="68.22485" lon="14.52434">
        <ele>40.589223</ele>
        <time>2020-07-15T18:24:25.841Z</time>
      </trkpt>
      <trkpt lat="68.22505" lon="14.52522">
        <ele>41.26283</ele>
        <time>2020-07-15T18:24:35.267Z</time>
      </trkpt>
      <trkpt lat="68.22537" lon="14.52629">
        <ele>41.48944</ele>
        <time>2020-07-15T18:24:46.573Z</time>
      </trkpt>
      <trkpt lat="68.22545" lon="14.52649">
        <ele>41.536941</ele>
        <time>2020-07-15T18:24:48.245Z</time>
      </trkpt>
      <trkpt lat="68.22553" lon="14.52669">
        <ele>41.583006</ele>
        <time>2020-07-15T18:24:50.945Z</time>
      </trkpt>
      <trkpt lat="68.22589" lon="14.52752">
        <ele>41.791376</ele>
        <time>2020-07-15T18:24:59.801Z</time>
      </trkpt>
      <trkpt lat="68.22677" lon="14.52985">
        <ele>39.412573</ele>
        <time>2020-07-15T18:25:19.253Z</time>
      </trkpt>
      <trkpt lat="68.22688" lon="14.53013">
        <ele>38.986535</ele>
        <time>2020-07-15T18:25:21.380Z</time>
      </trkpt>
      <trkpt lat="68.22747" lon="14.53132">
        <ele>36.912424</ele>
        <time>2020-07-15T18:25:31.082Z</time>
      </trkpt>
      <trkpt lat="68.228" lon="14.53201">
        <ele>33.475795</ele>
        <time>2020-07-15T18:25:38.334Z</time>
      </trkpt>
      <trkpt lat="68.22859" lon="14.53245">
        <ele>29.92327</ele>
        <time>2020-07-15T18:25:45.642Z</time>
      </trkpt>
      <trkpt lat="68.22925" lon="14.53258">
        <ele>26.103753</ele>
        <time>2020-07-15T18:25:54.039Z</time>
      </trkpt>
      <trkpt lat="68.22933" lon="14.53254">
        <ele>25.81998</ele>
        <time>2020-07-15T18:25:54.906Z</time>
      </trkpt>
      <trkpt lat="68.2294" lon="14.53246">
        <ele>25.550822</ele>
        <time>2020-07-15T18:25:55.906Z</time>
      </trkpt>
      <trkpt lat="68.22942" lon="14.53235">
        <ele>25.363909</ele>
        <time>2020-07-15T18:25:56.557Z</time>
      </trkpt>
      <trkpt lat="68.22946" lon="14.5321">
        <ele>24.992109</ele>
        <time>2020-07-15T18:25:57.842Z</time>
      </trkpt>
      <trkpt lat="68.22947" lon="14.53192">
        <ele>24.751075</ele>
        <time>2020-07-15T18:25:58.653Z</time>
      </trkpt>
      <trkpt lat="68.22947" lon="14.53185">
        <ele>24.65717</ele>
        <time>2020-07-15T18:25:58.926Z</time>
      </trkpt>
      <trkpt lat="68.22948" lon="14.53164">
        <ele>24.365846</ele>
        <time>2020-07-15T18:25:59.835Z</time>
      </trkpt>
      <trkpt lat="68.22948" lon="14.53154">
        <ele>24.228301</ele>
        <time>2020-07-15T18:26:00.455Z</time>
      </trkpt>
      <trkpt lat="68.2295" lon="14.53139">
        <ele>24.0024</ele>
        <time>2020-07-15T18:26:01.263Z</time>
      </trkpt>
      <trkpt lat="68.22961" lon="14.5313">
        <ele>23.590322</ele>
        <time>2020-07-15T18:26:02.736Z</time>
      </trkpt>
      <trkpt lat="68.23079" lon="14.53122">
        <ele>19.325327</ele>
        <time>2020-07-15T18:26:18.326Z</time>
      </trkpt>
      <trkpt lat="68.23129" lon="14.53139">
        <ele>17.981403</ele>
        <time>2020-07-15T18:26:25.212Z</time>
      </trkpt>
      <trkpt lat="68.23189" lon="14.53202">
        <ele>16.265535</ele>
        <time>2020-07-15T18:26:33.895Z</time>
      </trkpt>
      <trkpt lat="68.23216" lon="14.53242">
        <ele>15.460983</ele>
        <time>2020-07-15T18:26:37.979Z</time>
      </trkpt>
      <trkpt lat="68.23222" lon="14.53252">
        <ele>15.26153</ele>
        <time>2020-07-15T18:26:38.969Z</time>
      </trkpt>
      <trkpt lat="68.23247" lon="14.53291">
        <ele>14.605845</ele>
        <time>2020-07-15T18:26:42.820Z</time>
      </trkpt>
      <trkpt lat="68.23254" lon="14.53302">
        <ele>14.454534</ele>
        <time>2020-07-15T18:26:43.892Z</time>
      </trkpt>
      <trkpt lat="68.23255" lon="14.53304">
        <ele>14.422037</ele>
        <time>2020-07-15T18:26:44.083Z</time>
      </trkpt>
      <trkpt lat="68.23406" lon="14.53546">
        <ele>11.23146</ele>
        <time>2020-07-15T18:27:09.354Z</time>
      </trkpt>
      <trkpt lat="68.23463" lon="14.53677">
        <ele>10.290845</ele>
        <time>2020-07-15T18:27:21.303Z</time>
      </trkpt>
      <trkpt lat="68.23495" lon="14.53788">
        <ele>9.640986</ele>
        <time>2020-07-15T18:27:29.289Z</time>
      </trkpt>
      <trkpt lat="68.23588" lon="14.54198">
        <ele>6.29758</ele>
        <time>2020-07-15T18:27:54.985Z</time>
      </trkpt>
      <trkpt lat="68.23613" lon="14.54332">
        <ele>5.138753</ele>
        <time>2020-07-15T18:28:02.337Z</time>
      </trkpt>
      <trkpt lat="68.23621" lon="14.54394">
        <ele>4.600399</ele>
        <time>2020-07-15T18:28:05.754Z</time>
      </trkpt>
      <trkpt lat="68.23623" lon="14.54407">
        <ele>4.491009</ele>
        <time>2020-07-15T18:28:06.315Z</time>
      </trkpt>
      <trkpt lat="68.2363" lon="14.54547">
        <ele>3.334971</ele>
        <time>2020-07-15T18:28:13.722Z</time>
      </trkpt>
      <trkpt lat="68.23629" lon="14.5457">
        <ele>3.147385</ele>
        <time>2020-07-15T18:28:14.808Z</time>
      </trkpt>
      <trkpt lat="68.23629" lon="14.54587">
        <ele>3.006956</ele>
        <time>2020-07-15T18:28:15.798Z</time>
      </trkpt>
      <trkpt lat="68.23632" lon="14.54972">
        <ele>1.47584</ele>
        <time>2020-07-15T18:28:37.598Z</time>
      </trkpt>
      <trkpt lat="68.23634" lon="14.5502">
        <ele>1.448208</ele>
        <time>2020-07-15T18:28:41.251Z</time>
      </trkpt>
      <trkpt lat="68.23636" lon="14.55147">
        <ele>1.374596</ele>
        <time>2020-07-15T18:28:51.321Z</time>
      </trkpt>
      <trkpt lat="68.23637" lon="14.55365">
        <ele>1.822443</ele>
        <time>2020-07-15T18:29:09.630Z</time>
      </trkpt>
      <trkpt lat="68.23637" lon="14.55391">
        <ele>1.932575</ele>
        <time>2020-07-15T18:29:11.754Z</time>
      </trkpt>
      <trkpt lat="68.23639" lon="14.55537">
        <ele>2.542643</ele>
        <time>2020-07-15T18:29:23.930Z</time>
      </trkpt>
      <trkpt lat="68.23639" lon="14.55679">
        <ele>3.134269</ele>
        <time>2020-07-15T18:29:34.833Z</time>
      </trkpt>
      <trkpt lat="68.23637" lon="14.55722">
        <ele>3.318788</ele>
        <time>2020-07-15T18:29:38.631Z</time>
      </trkpt>
      <trkpt lat="68.23632" lon="14.55764">
        <ele>3.640993</ele>
        <time>2020-07-15T18:29:42.007Z</time>
      </trkpt>
      <trkpt lat="68.2363" lon="14.5578">
        <ele>3.774051</ele>
        <time>2020-07-15T18:29:43.277Z</time>
      </trkpt>
      <trkpt lat="68.2362" lon="14.55871">
        <ele>4.517212</ele>
        <time>2020-07-15T18:29:52.125Z</time>
      </trkpt>
      <trkpt lat="68.23608" lon="14.55978">
        <ele>5.404606</ele>
        <time>2020-07-15T18:30:02.386Z</time>
      </trkpt>
      <trkpt lat="68.23606" lon="14.55999">
        <ele>5.572899</ele>
        <time>2020-07-15T18:30:04.227Z</time>
      </trkpt>
      <trkpt lat="68.23604" lon="14.56018">
        <ele>5.735184</ele>
        <time>2020-07-15T18:30:06.443Z</time>
      </trkpt>
      <trkpt lat="68.23589" lon="14.56105">
        <ele>6.49167</ele>
        <time>2020-07-15T18:30:16.326Z</time>
      </trkpt>
      <trkpt lat="68.23586" lon="14.56129">
        <ele>6.688518</ele>
        <time>2020-07-15T18:30:19.547Z</time>
      </trkpt>
      <trkpt lat="68.23595" lon="14.5618">
        <ele>7.131654</ele>
        <time>2020-07-15T18:30:24.004Z</time>
      </trkpt>
      <trkpt lat="68.23596" lon="14.56182">
        <ele>7.151212</ele>
        <time>2020-07-15T18:30:24.374Z</time>
      </trkpt>
      <trkpt lat="68.23604" lon="14.56201">
        <ele>7.408963</ele>
        <time>2020-07-15T18:30:28.044Z</time>
      </trkpt>
      <trkpt lat="68.23647" lon="14.56266">
        <ele>8.549674</ele>
        <time>2020-07-15T18:30:40.985Z</time>
      </trkpt>
      <trkpt lat="68.23661" lon="14.56302">
        <ele>9.005093</ele>
        <time>2020-07-15T18:30:45.909Z</time>
      </trkpt>
      <trkpt lat="68.23667" lon="14.56326">
        <ele>9.263892</ele>
        <time>2020-07-15T18:30:49.770Z</time>
      </trkpt>
      <trkpt lat="68.23671" lon="14.56343">
        <ele>9.440137</ele>
        <time>2020-07-15T18:30:51.352Z</time>
      </trkpt>
      <trkpt lat="68.23692" lon="14.56444">
        <ele>10.439958</ele>
        <time>2020-07-15T18:31:02.268Z</time>
      </trkpt>
      <trkpt lat="68.23695" lon="14.56459">
        <ele>10.593525</ele>
        <time>2020-07-15T18:31:04.026Z</time>
      </trkpt>
      <trkpt lat="68.23697" lon="14.56466">
        <ele>10.667109</ele>
        <time>2020-07-15T18:31:04.912Z</time>
      </trkpt>
      <trkpt lat="68.23705" lon="14.56492">
        <ele>10.962369</ele>
        <time>2020-07-15T18:31:08.872Z</time>
      </trkpt>
      <trkpt lat="68.23745" lon="14.56575">
        <ele>10.904115</ele>
        <time>2020-07-15T18:31:18.517Z</time>
      </trkpt>
      <trkpt lat="68.23775" lon="14.56606">
        <ele>10.380644</ele>
        <time>2020-07-15T18:31:23.987Z</time>
      </trkpt>
      <trkpt lat="68.23801" lon="14.56627">
        <ele>9.950171</ele>
        <time>2020-07-15T18:31:27.783Z</time>
      </trkpt>
      <trkpt lat="68.23841" lon="14.56655">
        <ele>9.30348</ele>
        <time>2020-07-15T18:31:33.285Z</time>
      </trkpt>
      <trkpt lat="68.23849" lon="14.56661">
        <ele>9.167441</ele>
        <time>2020-07-15T18:31:34.452Z</time>
      </trkpt>
      <trkpt lat="68.23864" lon="14.56669">
        <ele>8.927186</ele>
        <time>2020-07-15T18:31:36.242Z</time>
      </trkpt>
      <trkpt lat="68.23888" lon="14.5668">
        <ele>8.525246</ele>
        <time>2020-07-15T18:31:39.679Z</time>
      </trkpt>
      <trkpt lat="68.23889" lon="14.5668">
        <ele>8.497544</ele>
        <time>2020-07-15T18:31:39.767Z</time>
      </trkpt>
      <trkpt lat="68.23957" lon="14.56716">
        <ele>6.378229</ele>
        <time>2020-07-15T18:31:49.015Z</time>
      </trkpt>
      <trkpt lat="68.23964" lon="14.56723">
        <ele>6.172558</ele>
        <time>2020-07-15T18:31:49.794Z</time>
      </trkpt>
      <trkpt lat="68.23961" lon="14.56742">
        <ele>5.937039</ele>
        <time>2020-07-15T18:31:50.898Z</time>
      </trkpt>
      <trkpt lat="68.23971" lon="14.56751">
        <ele>5.614688</ele>
        <time>2020-07-15T18:31:52.722Z</time>
      </trkpt>
      <trkpt lat="68.23985" lon="14.56766">
        <ele>5.148701</ele>
        <time>2020-07-15T18:31:54.636Z</time>
      </trkpt>
      <trkpt lat="68.23999" lon="14.56784">
        <ele>4.693806</ele>
        <time>2020-07-15T18:31:56.624Z</time>
      </trkpt>
      <trkpt lat="68.24" lon="14.56808">
        <ele>4.414825</ele>
        <time>2020-07-15T18:31:58.367Z</time>
      </trkpt>
      <trkpt lat="68.2401" lon="14.56825">
        <ele>4.052063</ele>
        <time>2020-07-15T18:31:59.901Z</time>
      </trkpt>
      <trkpt lat="68.24043" lon="14.569">
        <ele>2.931905</ele>
        <time>2020-07-15T18:32:05.997Z</time>
      </trkpt>
      <trkpt lat="68.24063" lon="14.56975">
        <ele>2.469427</ele>
        <time>2020-07-15T18:32:11.024Z</time>
      </trkpt>
      <trkpt lat="68.24071" lon="14.57012">
        <ele>2.261028</ele>
        <time>2020-07-15T18:32:13.480Z</time>
      </trkpt>
      <trkpt lat="68.24074" lon="14.57029">
        <ele>2.161176</ele>
        <time>2020-07-15T18:32:14.573Z</time>
      </trkpt>
      <trkpt lat="68.2408" lon="14.57059">
        <ele>1.994329</ele>
        <time>2020-07-15T18:32:16.638Z</time>
      </trkpt>
      <trkpt lat="68.24092" lon="14.57118">
        <ele>1.66307</ele>
        <time>2020-07-15T18:32:20.662Z</time>
      </trkpt>
      <trkpt lat="68.24097" lon="14.57141">
        <ele>1.528673</ele>
        <time>2020-07-15T18:32:22.564Z</time>
      </trkpt>
      <trkpt lat="68.24102" lon="14.5716">
        <ele>1.41094</ele>
        <time>2020-07-15T18:32:24.170Z</time>
      </trkpt>
      <trkpt lat="68.24119" lon="14.57211">
        <ele>1.074558</ele>
        <time>2020-07-15T18:32:28.390Z</time>
      </trkpt>
      <trkpt lat="68.24209" lon="14.57376">
        <ele>0.67197</ele>
        <time>2020-07-15T18:32:46.388Z</time>
      </trkpt>
      <trkpt lat="68.2426" lon="14.57591">
        <ele>0.675288</ele>
        <time>2020-07-15T18:33:05.433Z</time>
      </trkpt>
      <trkpt lat="68.24266" lon="14.57606">
        <ele>0.692713</ele>
        <time>2020-07-15T18:33:07.199Z</time>
      </trkpt>
      <trkpt lat="68.24274" lon="14.57628">
        <ele>0.82654</ele>
        <time>2020-07-15T18:33:09.725Z</time>
      </trkpt>
      <trkpt lat="68.24281" lon="14.5765">
        <ele>0.956644</ele>
        <time>2020-07-15T18:33:11.971Z</time>
      </trkpt>
      <trkpt lat="68.24286" lon="14.57662">
        <ele>1.033876</ele>
        <time>2020-07-15T18:33:13.394Z</time>
      </trkpt>
      <trkpt lat="68.24307" lon="14.57739">
        <ele>1.454114</ele>
        <time>2020-07-15T18:33:21.136Z</time>
      </trkpt>
      <trkpt lat="68.24309" lon="14.5775">
        <ele>1.509681</ele>
        <time>2020-07-15T18:33:22.194Z</time>
      </trkpt>
      <trkpt lat="68.24312" lon="14.57766">
        <ele>1.586665</ele>
        <time>2020-07-15T18:33:23.850Z</time>
      </trkpt>
      <trkpt lat="68.24315" lon="14.57791">
        <ele>1.700882</ele>
        <time>2020-07-15T18:33:25.811Z</time>
      </trkpt>
      <trkpt lat="68.24317" lon="14.57821">
        <ele>1.837703</ele>
        <time>2020-07-15T18:33:28.278Z</time>
      </trkpt>
      <trkpt lat="68.24318" lon="14.57841">
        <ele>1.924593</ele>
        <time>2020-07-15T18:33:29.936Z</time>
      </trkpt>
      <trkpt lat="68.24317" lon="14.57867">
        <ele>2.04074</ele>
        <time>2020-07-15T18:33:32.611Z</time>
      </trkpt>
      <trkpt lat="68.24316" lon="14.57879">
        <ele>2.092665</ele>
        <time>2020-07-15T18:33:33.534Z</time>
      </trkpt>
      <trkpt lat="68.24314" lon="14.57907">
        <ele>2.218306</ele>
        <time>2020-07-15T18:33:35.767Z</time>
      </trkpt>
      <trkpt lat="68.24313" lon="14.57943">
        <ele>2.379056</ele>
        <time>2020-07-15T18:33:38.966Z</time>
      </trkpt>
      <trkpt lat="68.24312" lon="14.57949">
        <ele>2.404804</ele>
        <time>2020-07-15T18:33:39.621Z</time>
      </trkpt>
      <trkpt lat="68.24312" lon="14.57955">
        <ele>2.433824</ele>
        <time>2020-07-15T18:33:40.443Z</time>
      </trkpt>
      <trkpt lat="68.24262" lon="14.5819">
        <ele>3.318523</ele>
        <time>2020-07-15T18:34:03.343Z</time>
      </trkpt>
      <trkpt lat="68.2426" lon="14.58202">
        <ele>3.356442</ele>
        <time>2020-07-15T18:34:04.670Z</time>
      </trkpt>
      <trkpt lat="68.24258" lon="14.58211">
        <ele>3.382573</ele>
        <time>2020-07-15T18:34:05.660Z</time>
      </trkpt>
      <trkpt lat="68.24254" lon="14.58252">
        <ele>3.498529</ele>
        <time>2020-07-15T18:34:08.757Z</time>
      </trkpt>
      <trkpt lat="68.24249" lon="14.58328">
        <ele>3.714289</ele>
        <time>2020-07-15T18:34:14.884Z</time>
      </trkpt>
      <trkpt lat="68.24239" lon="14.58461">
        <ele>4.086439</ele>
        <time>2020-07-15T18:34:24.108Z</time>
      </trkpt>
      <trkpt lat="68.24238" lon="14.58474">
        <ele>4.123873</ele>
        <time>2020-07-15T18:34:25.042Z</time>
      </trkpt>
      <trkpt lat="68.24233" lon="14.58545">
        <ele>3.942801</ele>
        <time>2020-07-15T18:34:29.765Z</time>
      </trkpt>
      <trkpt lat="68.24233" lon="14.58553">
        <ele>3.917061</ele>
        <time>2020-07-15T18:34:30.260Z</time>
      </trkpt>
      <trkpt lat="68.24231" lon="14.58583">
        <ele>3.818243</ele>
        <time>2020-07-15T18:34:32.404Z</time>
      </trkpt>
      <trkpt lat="68.24226" lon="14.58678">
        <ele>3.510956</ele>
        <time>2020-07-15T18:34:38.186Z</time>
      </trkpt>
      <trkpt lat="68.24206" lon="14.59055">
        <ele>2.43052</ele>
        <time>2020-07-15T18:35:00.649Z</time>
      </trkpt>
      <trkpt lat="68.24201" lon="14.59199">
        <ele>2.186804</ele>
        <time>2020-07-15T18:35:09.861Z</time>
      </trkpt>
      <trkpt lat="68.24201" lon="14.59217">
        <ele>2.155358</ele>
        <time>2020-07-15T18:35:10.926Z</time>
      </trkpt>
      <trkpt lat="68.24206" lon="14.59221">
        <ele>2.131901</ele>
        <time>2020-07-15T18:35:12.047Z</time>
      </trkpt>
      <trkpt lat="68.24206" lon="14.59282">
        <ele>2.028656</ele>
        <time>2020-07-15T18:35:16.182Z</time>
      </trkpt>
      <trkpt lat="68.24216" lon="14.59457">
        <ele>1.800246</ele>
        <time>2020-07-15T18:35:27.840Z</time>
      </trkpt>
      <trkpt lat="68.24236" lon="14.59696">
        <ele>2.111941</ele>
        <time>2020-07-15T18:35:44.482Z</time>
      </trkpt>
      <trkpt lat="68.24271" lon="14.59925">
        <ele>2.509178</ele>
        <time>2020-07-15T18:36:02.803Z</time>
      </trkpt>
      <trkpt lat="68.24272" lon="14.59933">
        <ele>2.543056</ele>
        <time>2020-07-15T18:36:03.184Z</time>
      </trkpt>
      <trkpt lat="68.24313" lon="14.60176">
        <ele>3.591295</ele>
        <time>2020-07-15T18:36:24.022Z</time>
      </trkpt>
      <trkpt lat="68.24393" lon="14.60656">
        <ele>5.768169</ele>
        <time>2020-07-15T18:37:08.364Z</time>
      </trkpt>
      <trkpt lat="68.244" lon="14.60703">
        <ele>5.980608</ele>
        <time>2020-07-15T18:37:12.166Z</time>
      </trkpt>
      <trkpt lat="68.2441" lon="14.60775">
        <ele>6.307373</ele>
        <time>2020-07-15T18:37:17.837Z</time>
      </trkpt>
      <trkpt lat="68.24422" lon="14.60881">
        <ele>6.106758</ele>
        <time>2020-07-15T18:37:25.194Z</time>
      </trkpt>
      <trkpt lat="68.24432" lon="14.61039">
        <ele>5.719754</ele>
        <time>2020-07-15T18:37:34.875Z</time>
      </trkpt>
      <trkpt lat="68.24434" lon="14.61086">
        <ele>5.604381</ele>
        <time>2020-07-15T18:37:37.597Z</time>
      </trkpt>
      <trkpt lat="68.24443" lon="14.61406">
        <ele>4.949899</ele>
        <time>2020-07-15T18:37:55.379Z</time>
      </trkpt>
      <trkpt lat="68.24457" lon="14.61673">
        <ele>4.528084</ele>
        <time>2020-07-15T18:38:11.443Z</time>
      </trkpt>
      <trkpt lat="68.24567" lon="14.628">
        <ele>11.891728</ele>
        <time>2020-07-15T18:39:51.906Z</time>
      </trkpt>
      <trkpt lat="68.24587" lon="14.63133">
        <ele>16.096808</ele>
        <time>2020-07-15T18:40:30.356Z</time>
      </trkpt>
      <trkpt lat="68.24588" lon="14.63213">
        <ele>18.113392</ele>
        <time>2020-07-15T18:40:38.327Z</time>
      </trkpt>
      <trkpt lat="68.24576" lon="14.63279">
        <ele>20.402559</ele>
        <time>2020-07-15T18:40:45.449Z</time>
      </trkpt>
      <trkpt lat="68.24556" lon="14.6331">
        <ele>22.287083</ele>
        <time>2020-07-15T18:40:56.440Z</time>
      </trkpt>
      <trkpt lat="68.24527" lon="14.63308">
        <ele>24.75452</ele>
        <time>2020-07-15T18:41:10.225Z</time>
      </trkpt>
      <trkpt lat="68.24505" lon="14.63294">
        <ele>26.575558</ele>
        <time>2020-07-15T18:41:18.144Z</time>
      </trkpt>
      <trkpt lat="68.2448" lon="14.63277">
        <ele>28.790216</ele>
        <time>2020-07-15T18:41:31.806Z</time>
      </trkpt>
      <trkpt lat="68.24462" lon="14.63267">
        <ele>30.286554</ele>
        <time>2020-07-15T18:41:43.372Z</time>
      </trkpt>
      <trkpt lat="68.24438" lon="14.6327">
        <ele>32.335327</ele>
        <time>2020-07-15T18:41:53.345Z</time>
      </trkpt>
      <trkpt lat="68.24435" lon="14.63272">
        <ele>32.583868</ele>
        <time>2020-07-15T18:41:54.432Z</time>
      </trkpt>
      <trkpt lat="68.24431" lon="14.63275">
        <ele>33.03684</ele>
        <time>2020-07-15T18:41:59.735Z</time>
      </trkpt>
      <trkpt lat="68.24395" lon="14.63322">
        <ele>36.594757</ele>
        <time>2020-07-15T18:42:24.781Z</time>
      </trkpt>
      <trkpt lat="68.24373" lon="14.63383">
        <ele>39.378168</ele>
        <time>2020-07-15T18:42:40.448Z</time>
      </trkpt>
      <trkpt lat="68.24359" lon="14.63481">
        <ele>42.854104</ele>
        <time>2020-07-15T18:43:00.902Z</time>
      </trkpt>
      <trkpt lat="68.24358" lon="14.63557">
        <ele>45.392405</ele>
        <time>2020-07-15T18:43:05.189Z</time>
      </trkpt>
      <trkpt lat="68.24359" lon="14.63575">
        <ele>45.974549</ele>
        <time>2020-07-15T18:43:11.586Z</time>
      </trkpt>
      <trkpt lat="68.24375" lon="14.63894">
        <ele>40.005787</ele>
        <time>2020-07-15T18:43:26.979Z</time>
      </trkpt>
      <trkpt lat="68.24404" lon="14.64416">
        <ele>19.277012</ele>
        <time>2020-07-15T18:43:47.415Z</time>
      </trkpt>
      <trkpt lat="68.24418" lon="14.64704">
        <ele>9.683809</ele>
        <time>2020-07-15T18:43:59.336Z</time>
      </trkpt>
      <trkpt lat="68.24424" lon="14.64795">
        <ele>8.389668</ele>
        <time>2020-07-15T18:44:03.555Z</time>
      </trkpt>
      <trkpt lat="68.24425" lon="14.64826">
        <ele>7.956982</ele>
        <time>2020-07-15T18:44:05.139Z</time>
      </trkpt>
      <trkpt lat="68.24432" lon="14.64943">
        <ele>6.284815</ele>
        <time>2020-07-15T18:44:11.497Z</time>
      </trkpt>
      <trkpt lat="68.24447" lon="14.65232">
        <ele>5.309065</ele>
        <time>2020-07-15T18:44:32.177Z</time>
      </trkpt>
      <trkpt lat="68.2446" lon="14.65361">
        <ele>5.848607</ele>
        <time>2020-07-15T18:44:44.657Z</time>
      </trkpt>
      <trkpt lat="68.24488" lon="14.65475">
        <ele>6.395418</ele>
        <time>2020-07-15T18:44:56.546Z</time>
      </trkpt>
      <trkpt lat="68.24505" lon="14.65525">
        <ele>6.518169</ele>
        <time>2020-07-15T18:45:02.640Z</time>
      </trkpt>
      <trkpt lat="68.24638" lon="14.65833">
        <ele>5.601915</ele>
        <time>2020-07-15T18:45:30.985Z</time>
      </trkpt>
      <trkpt lat="68.24669" lon="14.65897">
        <ele>4.847951</ele>
        <time>2020-07-15T18:45:36.147Z</time>
      </trkpt>
      <trkpt lat="68.24716" lon="14.65971">
        <ele>3.781919</ele>
        <time>2020-07-15T18:45:43.579Z</time>
      </trkpt>
      <trkpt lat="68.24814" lon="14.66091">
        <ele>1.948095</ele>
        <time>2020-07-15T18:45:58.963Z</time>
      </trkpt>
      <trkpt lat="68.24906" lon="14.66205">
        <ele>1.025645</ele>
        <time>2020-07-15T18:46:14.573Z</time>
      </trkpt>
      <trkpt lat="68.24922" lon="14.66222">
        <ele>0.872529</ele>
        <time>2020-07-15T18:46:17.292Z</time>
      </trkpt>
      <trkpt lat="68.24946" lon="14.66248">
        <ele>0.629648</ele>
        <time>2020-07-15T18:46:21.839Z</time>
      </trkpt>
      <trkpt lat="68.24976" lon="14.66274">
        <ele>0.762612</ele>
        <time>2020-07-15T18:46:27.458Z</time>
      </trkpt>
      <trkpt lat="68.24985" lon="14.66281">
        <ele>0.850861</ele>
        <time>2020-07-15T18:46:29.134Z</time>
      </trkpt>
      <trkpt lat="68.25006" lon="14.66294">
        <ele>1.053125</ele>
        <time>2020-07-15T18:46:33.346Z</time>
      </trkpt>
      <trkpt lat="68.25018" lon="14.66301">
        <ele>1.174509</ele>
        <time>2020-07-15T18:46:35.853Z</time>
      </trkpt>
      <trkpt lat="68.25037" lon="14.66307">
        <ele>1.350099</ele>
        <time>2020-07-15T18:46:39.727Z</time>
      </trkpt>
      <trkpt lat="68.25055" lon="14.66311">
        <ele>1.521056</ele>
        <time>2020-07-15T18:46:43.480Z</time>
      </trkpt>
      <trkpt lat="68.25073" lon="14.66313">
        <ele>1.695263</ele>
        <time>2020-07-15T18:46:47.546Z</time>
      </trkpt>
      <trkpt lat="68.25084" lon="14.66313">
        <ele>1.792747</ele>
        <time>2020-07-15T18:46:49.828Z</time>
      </trkpt>
      <trkpt lat="68.25126" lon="14.66304">
        <ele>2.195945</ele>
        <time>2020-07-15T18:46:59.594Z</time>
      </trkpt>
      <trkpt lat="68.25174" lon="14.66286">
        <ele>3.246314</ele>
        <time>2020-07-15T18:47:11.330Z</time>
      </trkpt>
      <trkpt lat="68.25273" lon="14.6624">
        <ele>5.596117</ele>
        <time>2020-07-15T18:47:37.278Z</time>
      </trkpt>
      <trkpt lat="68.25375" lon="14.66192">
        <ele>7.905096</ele>
        <time>2020-07-15T18:48:04.534Z</time>
      </trkpt>
      <trkpt lat="68.25398" lon="14.66181">
        <ele>8.410655</ele>
        <time>2020-07-15T18:48:10.323Z</time>
      </trkpt>
      <trkpt lat="68.25412" lon="14.66175">
        <ele>8.713441</ele>
        <time>2020-07-15T18:48:14.093Z</time>
      </trkpt>
      <trkpt lat="68.25522" lon="14.66125">
        <ele>10.433763</ele>
        <time>2020-07-15T18:48:40.377Z</time>
      </trkpt>
      <trkpt lat="68.25598" lon="14.6606">
        <ele>10.6293</ele>
        <time>2020-07-15T18:48:55.841Z</time>
      </trkpt>
      <trkpt lat="68.25828" lon="14.65769">
        <ele>8.808343</ele>
        <time>2020-07-15T18:49:35.062Z</time>
      </trkpt>
      <trkpt lat="68.25887" lon="14.65726">
        <ele>8.276617</ele>
        <time>2020-07-15T18:49:44.400Z</time>
      </trkpt>
      <trkpt lat="68.25922" lon="14.65723">
        <ele>7.973231</ele>
        <time>2020-07-15T18:49:49.816Z</time>
      </trkpt>
      <trkpt lat="68.26059" lon="14.65758">
        <ele>7.294349</ele>
        <time>2020-07-15T18:50:12.018Z</time>
      </trkpt>
      <trkpt lat="68.26227" lon="14.65733">
        <ele>7.964223</ele>
        <time>2020-07-15T18:50:43.383Z</time>
      </trkpt>
      <trkpt lat="68.2626" lon="14.65738">
        <ele>8.445097</ele>
        <time>2020-07-15T18:50:50.636Z</time>
      </trkpt>
      <trkpt lat="68.26527" lon="14.65948">
        <ele>13.698224</ele>
        <time>2020-07-15T18:52:00.049Z</time>
      </trkpt>
      <trkpt lat="68.26593" lon="14.65972">
        <ele>14.356597</ele>
        <time>2020-07-15T18:52:15.089Z</time>
      </trkpt>
      <trkpt lat="68.2662" lon="14.65967">
        <ele>14.624492</ele>
        <time>2020-07-15T18:52:20.772Z</time>
      </trkpt>
      <trkpt lat="68.26662" lon="14.6594">
        <ele>15.04782</ele>
        <time>2020-07-15T18:52:29.252Z</time>
      </trkpt>
      <trkpt lat="68.26815" lon="14.65772">
        <ele>16.173654</ele>
        <time>2020-07-15T18:52:59.869Z</time>
      </trkpt>
      <trkpt lat="68.26873" lon="14.65726">
        <ele>16.607626</ele>
        <time>2020-07-15T18:53:12.719Z</time>
      </trkpt>
      <trkpt lat="68.27198" lon="14.65702">
        <ele>21.451745</ele>
        <time>2020-07-15T18:54:29.951Z</time>
      </trkpt>
      <trkpt lat="68.27256" lon="14.65697">
        <ele>21.153505</ele>
        <time>2020-07-15T18:54:39.304Z</time>
      </trkpt>
      <trkpt lat="68.27301" lon="14.65696">
        <ele>20.16806</ele>
        <time>2020-07-15T18:54:45.739Z</time>
      </trkpt>
      <trkpt lat="68.2743" lon="14.65688">
        <ele>17.431404</ele>
        <time>2020-07-15T18:55:02.602Z</time>
      </trkpt>
      <trkpt lat="68.27446" lon="14.65691">
        <ele>17.104864</ele>
        <time>2020-07-15T18:55:04.785Z</time>
      </trkpt>
      <trkpt lat="68.27477" lon="14.65721">
        <ele>16.467808</ele>
        <time>2020-07-15T18:55:09.273Z</time>
      </trkpt>
      <trkpt lat="68.27512" lon="14.658">
        <ele>15.577865</ele>
        <time>2020-07-15T18:55:15.779Z</time>
      </trkpt>
      <trkpt lat="68.27548" lon="14.65976">
        <ele>14.232858</ele>
        <time>2020-07-15T18:55:27.197Z</time>
      </trkpt>
      <trkpt lat="68.2757" lon="14.66051">
        <ele>13.813185</ele>
        <time>2020-07-15T18:55:33.208Z</time>
      </trkpt>
      <trkpt lat="68.27695" lon="14.66248">
        <ele>12.057894</ele>
        <time>2020-07-15T18:55:55.415Z</time>
      </trkpt>
      <trkpt lat="68.27732" lon="14.66285">
        <ele>11.420659</ele>
        <time>2020-07-15T18:56:00.506Z</time>
      </trkpt>
      <trkpt lat="68.27744" lon="14.66291">
        <ele>11.209118</ele>
        <time>2020-07-15T18:56:02.744Z</time>
      </trkpt>
      <trkpt lat="68.27752" lon="14.66292">
        <ele>11.077306</ele>
        <time>2020-07-15T18:56:03.677Z</time>
      </trkpt>
      <trkpt lat="68.27782" lon="14.66284">
        <ele>10.581383</ele>
        <time>2020-07-15T18:56:08.179Z</time>
      </trkpt>
      <trkpt lat="68.27788" lon="14.66279">
        <ele>10.480555</ele>
        <time>2020-07-15T18:56:08.901Z</time>
      </trkpt>
      <trkpt lat="68.27794" lon="14.66275">
        <ele>10.379559</ele>
        <time>2020-07-15T18:56:09.639Z</time>
      </trkpt>
      <trkpt lat="68.27806" lon="14.66262">
        <ele>10.176586</ele>
        <time>2020-07-15T18:56:12.065Z</time>
      </trkpt>
      <trkpt lat="68.27872" lon="14.66177">
        <ele>9.31678</ele>
        <time>2020-07-15T18:56:23.677Z</time>
      </trkpt>
      <trkpt lat="68.27886" lon="14.66161">
        <ele>9.314446</ele>
        <time>2020-07-15T18:56:25.957Z</time>
      </trkpt>
      <trkpt lat="68.27952" lon="14.66076">
        <ele>9.302492</ele>
        <time>2020-07-15T18:56:39.049Z</time>
      </trkpt>
      <trkpt lat="68.28016" lon="14.66006">
        <ele>9.291177</ele>
        <time>2020-07-15T18:56:54.149Z</time>
      </trkpt>
      <trkpt lat="68.28089" lon="14.65977">
        <ele>7.76546</ele>
        <time>2020-07-15T18:57:05.784Z</time>
      </trkpt>
      <trkpt lat="68.28175" lon="14.65966">
        <ele>5.962113</ele>
        <time>2020-07-15T18:57:16.916Z</time>
      </trkpt>
      <trkpt lat="68.28194" lon="14.65964">
        <ele>5.562387</ele>
        <time>2020-07-15T18:57:19.365Z</time>
      </trkpt>
      <trkpt lat="68.28211" lon="14.65963">
        <ele>5.359992</ele>
        <time>2020-07-15T18:57:21.428Z</time>
      </trkpt>
      <trkpt lat="68.28232" lon="14.65964">
        <ele>5.112707</ele>
        <time>2020-07-15T18:57:24.220Z</time>
      </trkpt>
      <trkpt lat="68.28248" lon="14.65964">
        <ele>4.937223</ele>
        <time>2020-07-15T18:57:26.878Z</time>
      </trkpt>
      <trkpt lat="68.28269" lon="14.65964">
        <ele>4.692229</ele>
        <time>2020-07-15T18:57:29.666Z</time>
      </trkpt>
      <trkpt lat="68.28302" lon="14.65966">
        <ele>4.317159</ele>
        <time>2020-07-15T18:57:34.746Z</time>
      </trkpt>
      <trkpt lat="68.28336" lon="14.65986">
        <ele>3.92538</ele>
        <time>2020-07-15T18:57:40.484Z</time>
      </trkpt>
      <trkpt lat="68.28345" lon="14.65996">
        <ele>3.81587</ele>
        <time>2020-07-15T18:57:42.153Z</time>
      </trkpt>
      <trkpt lat="68.28351" lon="14.66004">
        <ele>3.732232</ele>
        <time>2020-07-15T18:57:44.530Z</time>
      </trkpt>
      <trkpt lat="68.28364" lon="14.66026">
        <ele>3.564623</ele>
        <time>2020-07-15T18:57:47.187Z</time>
      </trkpt>
      <trkpt lat="68.28373" lon="14.66045">
        <ele>3.512152</ele>
        <time>2020-07-15T18:57:49.099Z</time>
      </trkpt>
      <trkpt lat="68.2838" lon="14.66064">
        <ele>3.599048</ele>
        <time>2020-07-15T18:57:52.559Z</time>
      </trkpt>
      <trkpt lat="68.28402" lon="14.66162">
        <ele>3.973644</ele>
        <time>2020-07-15T18:58:02.091Z</time>
      </trkpt>
      <trkpt lat="68.28408" lon="14.66265">
        <ele>4.310717</ele>
        <time>2020-07-15T18:58:10.778Z</time>
      </trkpt>
      <trkpt lat="68.28401" lon="14.66389">
        <ele>4.719358</ele>
        <time>2020-07-15T18:58:20.550Z</time>
      </trkpt>
      <trkpt lat="68.28373" lon="14.66702">
        <ele>4.901095</ele>
        <time>2020-07-15T18:58:41.221Z</time>
      </trkpt>
      <trkpt lat="68.28373" lon="14.66839">
        <ele>4.801799</ele>
        <time>2020-07-15T18:58:49.396Z</time>
      </trkpt>
      <trkpt lat="68.28388" lon="14.67107">
        <ele>4.960055</ele>
        <time>2020-07-15T18:59:06.954Z</time>
      </trkpt>
      <trkpt lat="68.28403" lon="14.6738">
        <ele>5.461683</ele>
        <time>2020-07-15T18:59:27.370Z</time>
      </trkpt>
      <trkpt lat="68.28423" lon="14.67621">
        <ele>6.32929</ele>
        <time>2020-07-15T18:59:46.658Z</time>
      </trkpt>
      <trkpt lat="68.28431" lon="14.67676">
        <ele>6.578378</ele>
        <time>2020-07-15T18:59:51.375Z</time>
      </trkpt>
      <trkpt lat="68.28474" lon="14.67916">
        <ele>7.703232</ele>
        <time>2020-07-15T19:00:13.016Z</time>
      </trkpt>
      <trkpt lat="68.28624" lon="14.68775">
        <ele>11.597477</ele>
        <time>2020-07-15T19:01:30.701Z</time>
      </trkpt>
      <trkpt lat="68.28631" lon="14.68815">
        <ele>11.324115</ele>
        <time>2020-07-15T19:01:33.228Z</time>
      </trkpt>
      <trkpt lat="68.28699" lon="14.69201">
        <ele>8.053504</ele>
        <time>2020-07-15T19:01:54.780Z</time>
      </trkpt>
      <trkpt lat="68.28711" lon="14.69258">
        <ele>7.541085</ele>
        <time>2020-07-15T19:01:57.961Z</time>
      </trkpt>
      <trkpt lat="68.28719" lon="14.69287">
        <ele>7.262017</ele>
        <time>2020-07-15T19:01:59.688Z</time>
      </trkpt>
      <trkpt lat="68.28752" lon="14.69382">
        <ele>6.219233</ele>
        <time>2020-07-15T19:02:06.238Z</time>
      </trkpt>
      <trkpt lat="68.2879" lon="14.69453">
        <ele>5.227188</ele>
        <time>2020-07-15T19:02:12.598Z</time>
      </trkpt>
      <trkpt lat="68.28998" lon="14.69659">
        <ele>2.418661</ele>
        <time>2020-07-15T19:02:46.561Z</time>
      </trkpt>
      <trkpt lat="68.29049" lon="14.69687">
        <ele>2.23066</ele>
        <time>2020-07-15T19:02:55.212Z</time>
      </trkpt>
      <trkpt lat="68.295" lon="14.69841">
        <ele>2.252873</ele>
        <time>2020-07-15T19:04:15.408Z</time>
      </trkpt>
      <trkpt lat="68.29535" lon="14.6988">
        <ele>2.385225</ele>
        <time>2020-07-15T19:04:23.460Z</time>
      </trkpt>
      <trkpt lat="68.29555" lon="14.69928">
        <ele>2.677263</ele>
        <time>2020-07-15T19:04:29.485Z</time>
      </trkpt>
      <trkpt lat="68.29561" lon="14.69948">
        <ele>2.807954</ele>
        <time>2020-07-15T19:04:31.903Z</time>
      </trkpt>
      <trkpt lat="68.29593" lon="14.70082">
        <ele>3.661033</ele>
        <time>2020-07-15T19:04:45.519Z</time>
      </trkpt>
      <trkpt lat="68.29615" lon="14.70158">
        <ele>4.183647</ele>
        <time>2020-07-15T19:04:53.900Z</time>
      </trkpt>
      <trkpt lat="68.29622" lon="14.70175">
        <ele>4.318909</ele>
        <time>2020-07-15T19:04:56.036Z</time>
      </trkpt>
      <trkpt lat="68.29629" lon="14.70188">
        <ele>4.434912</ele>
        <time>2020-07-15T19:04:58.439Z</time>
      </trkpt>
      <trkpt lat="68.29651" lon="14.7022">
        <ele>4.801787</ele>
        <time>2020-07-15T19:05:03.646Z</time>
      </trkpt>
      <trkpt lat="68.29674" lon="14.70237">
        <ele>5.042556</ele>
        <time>2020-07-15T19:05:09.120Z</time>
      </trkpt>
      <trkpt lat="68.29799" lon="14.70226">
        <ele>5.414893</ele>
        <time>2020-07-15T19:05:32.847Z</time>
      </trkpt>
      <trkpt lat="68.29846" lon="14.70252">
        <ele>5.573566</ele>
        <time>2020-07-15T19:05:40.485Z</time>
      </trkpt>
      <trkpt lat="68.29878" lon="14.70311">
        <ele>6.020572</ele>
        <time>2020-07-15T19:05:47.095Z</time>
      </trkpt>
      <trkpt lat="68.2994" lon="14.70506">
        <ele>7.108828</ele>
        <time>2020-07-15T19:06:06.764Z</time>
      </trkpt>
      <trkpt lat="68.29988" lon="14.70603">
        <ele>8.300036</ele>
        <time>2020-07-15T19:06:22.582Z</time>
      </trkpt>
      <trkpt lat="68.30028" lon="14.70646">
        <ele>10.133903</ele>
        <time>2020-07-15T19:06:35.606Z</time>
      </trkpt>
      <trkpt lat="68.30129" lon="14.70712">
        <ele>14.607216</ele>
        <time>2020-07-15T19:07:10.882Z</time>
      </trkpt>
      <trkpt lat="68.3021" lon="14.70762">
        <ele>17.486064</ele>
        <time>2020-07-15T19:07:37.614Z</time>
      </trkpt>
      <trkpt lat="68.30275" lon="14.70801">
        <ele>19.63768</ele>
        <time>2020-07-15T19:07:56.196Z</time>
      </trkpt>
      <trkpt lat="68.30318" lon="14.70824">
        <ele>21.055581</ele>
        <time>2020-07-15T19:08:07.048Z</time>
      </trkpt>
      <trkpt lat="68.30366" lon="14.70834">
        <ele>21.509028</ele>
        <time>2020-07-15T19:08:17.501Z</time>
      </trkpt>
      <trkpt lat="68.30624" lon="14.70792">
        <ele>22.771063</ele>
        <time>2020-07-15T19:09:06.747Z</time>
      </trkpt>
      <trkpt lat="68.30691" lon="14.708">
        <ele>22.831909</ele>
        <time>2020-07-15T19:09:18.835Z</time>
      </trkpt>
      <trkpt lat="68.30986" lon="14.71002">
        <ele>21.364411</ele>
        <time>2020-07-15T19:10:08.547Z</time>
      </trkpt>
      <trkpt lat="68.31037" lon="14.71012">
        <ele>21.202022</ele>
        <time>2020-07-15T19:10:16.824Z</time>
      </trkpt>
      <trkpt lat="68.31129" lon="14.70992">
        <ele>21.9457</ele>
        <time>2020-07-15T19:10:33.957Z</time>
      </trkpt>
      <trkpt lat="68.31165" lon="14.71005">
        <ele>22.240755</ele>
        <time>2020-07-15T19:10:41.618Z</time>
      </trkpt>
      <trkpt lat="68.3129" lon="14.71155">
        <ele>24.762969</ele>
        <time>2020-07-15T19:11:15.789Z</time>
      </trkpt>
      <trkpt lat="68.31365" lon="14.71254">
        <ele>26.738389</ele>
        <time>2020-07-15T19:11:37.258Z</time>
      </trkpt>
      <trkpt lat="68.31463" lon="14.71381">
        <ele>29.373318</ele>
        <time>2020-07-15T19:12:06.908Z</time>
      </trkpt>
      <trkpt lat="68.31484" lon="14.71406">
        <ele>29.926631</ele>
        <time>2020-07-15T19:12:12.888Z</time>
      </trkpt>
      <trkpt lat="68.31497" lon="14.71419">
        <ele>30.263304</ele>
        <time>2020-07-15T19:12:16.410Z</time>
      </trkpt>
      <trkpt lat="68.31512" lon="14.71431">
        <ele>30.639742</ele>
        <time>2020-07-15T19:12:20.328Z</time>
      </trkpt>
      <trkpt lat="68.31538" lon="14.71444">
        <ele>31.182901</ele>
        <time>2020-07-15T19:12:26.192Z</time>
      </trkpt>
      <trkpt lat="68.31555" lon="14.71447">
        <ele>31.062558</ele>
        <time>2020-07-15T19:12:30.067Z</time>
      </trkpt>
      <trkpt lat="68.3157" lon="14.71446">
        <ele>30.959003</ele>
        <time>2020-07-15T19:12:33.247Z</time>
      </trkpt>
      <trkpt lat="68.31619" lon="14.71415">
        <ele>30.607368</ele>
        <time>2020-07-15T19:12:43.143Z</time>
      </trkpt>
      <trkpt lat="68.31656" lon="14.71363">
        <ele>30.318384</ele>
        <time>2020-07-15T19:12:49.868Z</time>
      </trkpt>
      <trkpt lat="68.3171" lon="14.71223">
        <ele>28.892057</ele>
        <time>2020-07-15T19:12:59.859Z</time>
      </trkpt>
      <trkpt lat="68.31781" lon="14.71009">
        <ele>23.846166</ele>
        <time>2020-07-15T19:13:12.609Z</time>
      </trkpt>
      <trkpt lat="68.31827" lon="14.708">
        <ele>19.792676</ele>
        <time>2020-07-15T19:13:23.383Z</time>
      </trkpt>
      <trkpt lat="68.31909" lon="14.70261">
        <ele>11.464722</ele>
        <time>2020-07-15T19:13:50.669Z</time>
      </trkpt>
      <trkpt lat="68.31915" lon="14.70228">
        <ele>11.035649</ele>
        <time>2020-07-15T19:13:52.482Z</time>
      </trkpt>
      <trkpt lat="68.31922" lon="14.70193">
        <ele>10.571561</ele>
        <time>2020-07-15T19:13:54.350Z</time>
      </trkpt>
      <trkpt lat="68.31963" lon="14.70057">
        <ele>8.548157</ele>
        <time>2020-07-15T19:14:03.043Z</time>
      </trkpt>
      <trkpt lat="68.31994" lon="14.69998">
        <ele>8.091292</ele>
        <time>2020-07-15T19:14:08.371Z</time>
      </trkpt>
      <trkpt lat="68.32023" lon="14.69961">
        <ele>8.03598</ele>
        <time>2020-07-15T19:14:13.079Z</time>
      </trkpt>
      <trkpt lat="68.32084" lon="14.69925">
        <ele>7.928725</ele>
        <time>2020-07-15T19:14:24.569Z</time>
      </trkpt>
      <trkpt lat="68.32203" lon="14.69922">
        <ele>8.468112</ele>
        <time>2020-07-15T19:14:50.818Z</time>
      </trkpt>
      <trkpt lat="68.32209" lon="14.69923">
        <ele>8.53143</ele>
        <time>2020-07-15T19:14:52.768Z</time>
      </trkpt>
      <trkpt lat="68.32256" lon="14.69923">
        <ele>9.037971</ele>
        <time>2020-07-15T19:15:03.173Z</time>
      </trkpt>
      <trkpt lat="68.32321" lon="14.69915">
        <ele>9.753889</ele>
        <time>2020-07-15T19:15:16.713Z</time>
      </trkpt>
      <trkpt lat="68.32331" lon="14.69908">
        <ele>9.754906</ele>
        <time>2020-07-15T19:15:18.155Z</time>
      </trkpt>
      <trkpt lat="68.32339" lon="14.69902">
        <ele>9.707424</ele>
        <time>2020-07-15T19:15:20.007Z</time>
      </trkpt>
      <trkpt lat="68.32375" lon="14.69854">
        <ele>9.503718</ele>
        <time>2020-07-15T19:15:27.063Z</time>
      </trkpt>
      <trkpt lat="68.32394" lon="14.69811">
        <ele>9.374655</ele>
        <time>2020-07-15T19:15:30.836Z</time>
      </trkpt>
      <trkpt lat="68.32404" lon="14.6978">
        <ele>9.296545</ele>
        <time>2020-07-15T19:15:33.715Z</time>
      </trkpt>
      <trkpt lat="68.3241" lon="14.6976">
        <ele>9.247947</ele>
        <time>2020-07-15T19:15:35.054Z</time>
      </trkpt>
      <trkpt lat="68.32427" lon="14.69677">
        <ele>9.065391</ele>
        <time>2020-07-15T19:15:40.697Z</time>
      </trkpt>
      <trkpt lat="68.3243" lon="14.69657">
        <ele>9.024711</ele>
        <time>2020-07-15T19:15:41.785Z</time>
      </trkpt>
      <trkpt lat="68.32434" lon="14.69622">
        <ele>8.952818</ele>
        <time>2020-07-15T19:15:44.437Z</time>
      </trkpt>
      <trkpt lat="68.32438" lon="14.69504">
        <ele>8.425256</ele>
        <time>2020-07-15T19:15:51.268Z</time>
      </trkpt>
      <trkpt lat="68.32423" lon="14.69094">
        <ele>5.837215</ele>
        <time>2020-07-15T19:16:13.025Z</time>
      </trkpt>
      <trkpt lat="68.32427" lon="14.69002">
        <ele>5.209492</ele>
        <time>2020-07-15T19:16:17.828Z</time>
      </trkpt>
      <trkpt lat="68.32431" lon="14.68967">
        <ele>4.966441</ele>
        <time>2020-07-15T19:16:19.600Z</time>
      </trkpt>
      <trkpt lat="68.32436" lon="14.6893">
        <ele>4.690161</ele>
        <time>2020-07-15T19:16:21.744Z</time>
      </trkpt>
      <trkpt lat="68.3246" lon="14.68837">
        <ele>3.923694</ele>
        <time>2020-07-15T19:16:27.781Z</time>
      </trkpt>
      <trkpt lat="68.32467" lon="14.6882">
        <ele>3.754164</ele>
        <time>2020-07-15T19:16:28.972Z</time>
      </trkpt>
      <trkpt lat="68.32477" lon="14.68797">
        <ele>3.507102</ele>
        <time>2020-07-15T19:16:30.939Z</time>
      </trkpt>
      <trkpt lat="68.32487" lon="14.68777">
        <ele>3.287089</ele>
        <time>2020-07-15T19:16:32.782Z</time>
      </trkpt>
      <trkpt lat="68.32507" lon="14.68733">
        <ele>2.803662</ele>
        <time>2020-07-15T19:16:36.472Z</time>
      </trkpt>
      <trkpt lat="68.32517" lon="14.68715">
        <ele>2.593372</ele>
        <time>2020-07-15T19:16:38.270Z</time>
      </trkpt>
      <trkpt lat="68.32523" lon="14.68707">
        <ele>2.488685</ele>
        <time>2020-07-15T19:16:39.144Z</time>
      </trkpt>
      <trkpt lat="68.32527" lon="14.68703">
        <ele>2.471331</ele>
        <time>2020-07-15T19:16:39.727Z</time>
      </trkpt>
      <trkpt lat="68.32527" lon="14.68697">
        <ele>2.463006</ele>
        <time>2020-07-15T19:16:40.054Z</time>
      </trkpt>
      <trkpt lat="68.32518" lon="14.68661">
        <ele>2.397136</ele>
        <time>2020-07-15T19:16:42.347Z</time>
      </trkpt>
      <trkpt lat="68.32473" lon="14.68567">
        <ele>2.160319</ele>
        <time>2020-07-15T19:16:51.593Z</time>
      </trkpt>
      <trkpt lat="68.32451" lon="14.68464">
        <ele>1.975323</ele>
        <time>2020-07-15T19:16:59.865Z</time>
      </trkpt>
      <trkpt lat="68.32446" lon="14.68408">
        <ele>1.886253</ele>
        <time>2020-07-15T19:17:03.829Z</time>
      </trkpt>
      <trkpt lat="68.32445" lon="14.6823">
        <ele>1.771211</ele>
        <time>2020-07-15T19:17:15.748Z</time>
      </trkpt>
      <trkpt lat="68.32425" lon="14.68086">
        <ele>1.821157</ele>
        <time>2020-07-15T19:17:25.757Z</time>
      </trkpt>
      <trkpt lat="68.32407" lon="14.67828">
        <ele>1.947917</ele>
        <time>2020-07-15T19:17:43.198Z</time>
      </trkpt>
      <trkpt lat="68.32383" lon="14.67681">
        <ele>2.445878</ele>
        <time>2020-07-15T19:17:54.596Z</time>
      </trkpt>
      <trkpt lat="68.32373" lon="14.67594">
        <ele>2.727232</ele>
        <time>2020-07-15T19:18:01.407Z</time>
      </trkpt>
      <trkpt lat="68.32373" lon="14.67472">
        <ele>3.10724</ele>
        <time>2020-07-15T19:18:11.005Z</time>
      </trkpt>
      <trkpt lat="68.32377" lon="14.67424">
        <ele>3.261042</ele>
        <time>2020-07-15T19:18:15.020Z</time>
      </trkpt>
      <trkpt lat="68.32419" lon="14.6717">
        <ele>5.313129</ele>
        <time>2020-07-15T19:18:39.002Z</time>
      </trkpt>
      <trkpt lat="68.32492" lon="14.6677">
        <ele>8.984498</ele>
        <time>2020-07-15T19:19:23.057Z</time>
      </trkpt>
      <trkpt lat="68.3251" lon="14.66664">
        <ele>9.936972</ele>
        <time>2020-07-15T19:19:33.859Z</time>
      </trkpt>
      <trkpt lat="68.32515" lon="14.66629">
        <ele>10.242037</ele>
        <time>2020-07-15T19:19:37.014Z</time>
      </trkpt>
      <trkpt lat="68.32519" lon="14.66604">
        <ele>10.462206</ele>
        <time>2020-07-15T19:19:40.210Z</time>
      </trkpt>
      <trkpt lat="68.3252" lon="14.66559">
        <ele>10.825044</ele>
        <time>2020-07-15T19:19:43.645Z</time>
      </trkpt>
      <trkpt lat="68.32515" lon="14.66458">
        <ele>11.396855</ele>
        <time>2020-07-15T19:19:52.417Z</time>
      </trkpt>
      <trkpt lat="68.32496" lon="14.66279">
        <ele>11.230784</ele>
        <time>2020-07-15T19:20:06.690Z</time>
      </trkpt>
      <trkpt lat="68.32498" lon="14.66165">
        <ele>11.129489</ele>
        <time>2020-07-15T19:20:13.596Z</time>
      </trkpt>
      <trkpt lat="68.32641" lon="14.65228">
        <ele>4.848712</ele>
        <time>2020-07-15T19:21:06.555Z</time>
      </trkpt>
      <trkpt lat="68.32643" lon="14.65202">
        <ele>4.665164</ele>
        <time>2020-07-15T19:21:07.819Z</time>
      </trkpt>
      <trkpt lat="68.32644" lon="14.65162">
        <ele>4.390197</ele>
        <time>2020-07-15T19:21:10.011Z</time>
      </trkpt>
      <trkpt lat="68.32639" lon="14.65072">
        <ele>3.999956</ele>
        <time>2020-07-15T19:21:14.940Z</time>
      </trkpt>
      <trkpt lat="68.32631" lon="14.65028">
        <ele>3.967255</ele>
        <time>2020-07-15T19:21:17.725Z</time>
      </trkpt>
      <trkpt lat="68.32612" lon="14.64963">
        <ele>3.912836</ele>
        <time>2020-07-15T19:21:22.537Z</time>
      </trkpt>
      <trkpt lat="68.32589" lon="14.64926">
        <ele>3.865092</ele>
        <time>2020-07-15T19:21:26.696Z</time>
      </trkpt>
      <trkpt lat="68.32123" lon="14.64626">
        <ele>7.830079</ele>
        <time>2020-07-15T19:23:05.911Z</time>
      </trkpt>
      <trkpt lat="68.32076" lon="14.64575">
        <ele>9.05962</ele>
        <time>2020-07-15T19:23:18.898Z</time>
      </trkpt>
      <trkpt lat="68.32065" lon="14.64558">
        <ele>9.379014</ele>
        <time>2020-07-15T19:23:22.512Z</time>
      </trkpt>
      <trkpt lat="68.32057" lon="14.64538">
        <ele>9.648653</ele>
        <time>2020-07-15T19:23:25.866Z</time>
      </trkpt>
      <trkpt lat="68.32038" lon="14.64462">
        <ele>10.476396</ele>
        <time>2020-07-15T19:23:35.015Z</time>
      </trkpt>
      <trkpt lat="68.32007" lon="14.64283">
        <ele>12.170171</ele>
        <time>2020-07-15T19:23:55.385Z</time>
      </trkpt>
      <trkpt lat="68.31914" lon="14.63438">
        <ele>18.621001</ele>
        <time>2020-07-15T19:25:12.831Z</time>
      </trkpt>
      <trkpt lat="68.31854" lon="14.63129">
        <ele>21.503655</ele>
        <time>2020-07-15T19:25:43.905Z</time>
      </trkpt>
      <trkpt lat="68.31777" lon="14.62612">
        <ele>27.357355</ele>
        <time>2020-07-15T19:26:39.892Z</time>
      </trkpt>
      <trkpt lat="68.31761" lon="14.62462">
        <ele>29.231676</ele>
        <time>2020-07-15T19:26:57.081Z</time>
      </trkpt>
      <trkpt lat="68.31755" lon="14.62315">
        <ele>31.09232</ele>
        <time>2020-07-15T19:27:13.529Z</time>
      </trkpt>
      <trkpt lat="68.31759" lon="14.61918">
        <ele>35.412069</ele>
        <time>2020-07-15T19:27:55.123Z</time>
      </trkpt>
      <trkpt lat="68.31801" lon="14.61404">
        <ele>38.483349</ele>
        <time>2020-07-15T19:28:39.422Z</time>
      </trkpt>
      <trkpt lat="68.31804" lon="14.61301">
        <ele>38.722037</ele>
        <time>2020-07-15T19:28:46.779Z</time>
      </trkpt>
      <trkpt lat="68.31773" lon="14.60011">
        <ele>39.136792</ele>
        <time>2020-07-15T19:30:10.264Z</time>
      </trkpt>
      <trkpt lat="68.31764" lon="14.59867">
        <ele>39.565372</ele>
        <time>2020-07-15T19:30:21.335Z</time>
      </trkpt>
      <trkpt lat="68.31737" lon="14.59712">
        <ele>40.062289</ele>
        <time>2020-07-15T19:30:35.031Z</time>
      </trkpt>
      <trkpt lat="68.31576" lon="14.592">
        <ele>42.927719</ele>
        <time>2020-07-15T19:31:31.180Z</time>
      </trkpt>
      <trkpt lat="68.31395" lon="14.58464">
        <ele>43.454234</ele>
        <time>2020-07-15T19:32:29.057Z</time>
      </trkpt>
      <trkpt lat="68.31298" lon="14.57921">
        <ele>42.809347</ele>
        <time>2020-07-15T19:33:10.041Z</time>
      </trkpt>
      <trkpt lat="68.31292" lon="14.57844">
        <ele>42.396456</ele>
        <time>2020-07-15T19:33:14.294Z</time>
      </trkpt>
      <trkpt lat="68.31297" lon="14.57655">
        <ele>41.386521</ele>
        <time>2020-07-15T19:33:24.224Z</time>
      </trkpt>
      <trkpt lat="68.31299" lon="14.57563">
        <ele>40.688727</ele>
        <time>2020-07-15T19:33:28.762Z</time>
      </trkpt>
      <trkpt lat="68.31302" lon="14.57484">
        <ele>39.696847</ele>
        <time>2020-07-15T19:33:32.593Z</time>
      </trkpt>
      <trkpt lat="68.31308" lon="14.57421">
        <ele>38.889574</ele>
        <time>2020-07-15T19:33:35.680Z</time>
      </trkpt>
      <trkpt lat="68.31316" lon="14.57392">
        <ele>38.442935</ele>
        <time>2020-07-15T19:33:37.380Z</time>
      </trkpt>
      <trkpt lat="68.3143" lon="14.57083">
        <ele>33.244816</ele>
        <time>2020-07-15T19:33:58.120Z</time>
      </trkpt>
      <trkpt lat="68.31483" lon="14.56748">
        <ele>29.322202</ele>
        <time>2020-07-15T19:34:16.187Z</time>
      </trkpt>
      <trkpt lat="68.31509" lon="14.56571">
        <ele>27.737212</ele>
        <time>2020-07-15T19:34:25.854Z</time>
      </trkpt>
      <trkpt lat="68.31534" lon="14.564">
        <ele>26.204914</ele>
        <time>2020-07-15T19:34:35.358Z</time>
      </trkpt>
      <trkpt lat="68.31584" lon="14.56078">
        <ele>24.556706</ele>
        <time>2020-07-15T19:34:54.064Z</time>
      </trkpt>
      <trkpt lat="68.3161" lon="14.55975">
        <ele>24.091873</ele>
        <time>2020-07-15T19:35:01.324Z</time>
      </trkpt>
      <trkpt lat="68.3183" lon="14.55458">
        <ele>25.27369</ele>
        <time>2020-07-15T19:35:57.975Z</time>
      </trkpt>
      <trkpt lat="68.31872" lon="14.55319">
        <ele>25.906369</ele>
        <time>2020-07-15T19:36:12.845Z</time>
      </trkpt>
      <trkpt lat="68.31917" lon="14.55136">
        <ele>26.640062</ele>
        <time>2020-07-15T19:36:30.820Z</time>
      </trkpt>
      <trkpt lat="68.32032" lon="14.54452">
        <ele>28.720391</ele>
        <time>2020-07-15T19:37:26.457Z</time>
      </trkpt>
      <trkpt lat="68.3212" lon="14.54112">
        <ele>29.297584</ele>
        <time>2020-07-15T19:37:56.092Z</time>
      </trkpt>
      <trkpt lat="68.32184" lon="14.53933">
        <ele>29.112764</ele>
        <time>2020-07-15T19:38:12.716Z</time>
      </trkpt>
      <trkpt lat="68.32203" lon="14.53864">
        <ele>28.713432</ele>
        <time>2020-07-15T19:38:18.019Z</time>
      </trkpt>
      <trkpt lat="68.32219" lon="14.53773">
        <ele>28.258058</ele>
        <time>2020-07-15T19:38:23.792Z</time>
      </trkpt>
      <trkpt lat="68.32287" lon="14.53244">
        <ele>24.480471</ele>
        <time>2020-07-15T19:38:52.441Z</time>
      </trkpt>
      <trkpt lat="68.32344" lon="14.52746">
        <ele>21.107927</ele>
        <time>2020-07-15T19:39:19.555Z</time>
      </trkpt>
      <trkpt lat="68.32365" lon="14.52497">
        <ele>20.662681</ele>
        <time>2020-07-15T19:39:35.771Z</time>
      </trkpt>
      <trkpt lat="68.32382" lon="14.52305">
        <ele>20.918851</ele>
        <time>2020-07-15T19:39:50.407Z</time>
      </trkpt>
      <trkpt lat="68.32405" lon="14.52055">
        <ele>20.918775</ele>
        <time>2020-07-15T19:40:10.130Z</time>
      </trkpt>
      <trkpt lat="68.3241" lon="14.52001">
        <ele>20.824486</ele>
        <time>2020-07-15T19:40:14.248Z</time>
      </trkpt>
      <trkpt lat="68.32448" lon="14.51754">
        <ele>20.377564</ele>
        <time>2020-07-15T19:40:30.016Z</time>
      </trkpt>
      <trkpt lat="68.32478" lon="14.51589">
        <ele>19.017262</ele>
        <time>2020-07-15T19:40:39.567Z</time>
      </trkpt>
      <trkpt lat="68.32498" lon="14.51474">
        <ele>17.796653</ele>
        <time>2020-07-15T19:40:45.888Z</time>
      </trkpt>
      <trkpt lat="68.32553" lon="14.51158">
        <ele>14.487615</ele>
        <time>2020-07-15T19:41:02.842Z</time>
      </trkpt>
      <trkpt lat="68.32571" lon="14.51056">
        <ele>13.42328</ele>
        <time>2020-07-15T19:41:08.573Z</time>
      </trkpt>
      <trkpt lat="68.32586" lon="14.51006">
        <ele>12.835403</ele>
        <time>2020-07-15T19:41:11.818Z</time>
      </trkpt>
      <trkpt lat="68.32613" lon="14.50949">
        <ele>11.973503</ele>
        <time>2020-07-15T19:41:16.542Z</time>
      </trkpt>
      <trkpt lat="68.32628" lon="14.50935">
        <ele>11.55472</ele>
        <time>2020-07-15T19:41:18.807Z</time>
      </trkpt>
      <trkpt lat="68.32645" lon="14.50925">
        <ele>11.110031</ele>
        <time>2020-07-15T19:41:21.292Z</time>
      </trkpt>
      <trkpt lat="68.32657" lon="14.50927">
        <ele>10.815069</ele>
        <time>2020-07-15T19:41:22.913Z</time>
      </trkpt>
      <trkpt lat="68.32701" lon="14.5096">
        <ele>9.692198</ele>
        <time>2020-07-15T19:41:29.294Z</time>
      </trkpt>
      <trkpt lat="68.32814" lon="14.51077">
        <ele>6.719917</ele>
        <time>2020-07-15T19:41:45.605Z</time>
      </trkpt>
      <trkpt lat="68.32875" lon="14.51108">
        <ele>5.336749</ele>
        <time>2020-07-15T19:41:54.073Z</time>
      </trkpt>
      <trkpt lat="68.32882" lon="14.51109">
        <ele>5.176695</ele>
        <time>2020-07-15T19:41:54.937Z</time>
      </trkpt>
      <trkpt lat="68.32917" lon="14.51114">
        <ele>4.392081</ele>
        <time>2020-07-15T19:41:59.797Z</time>
      </trkpt>
      <trkpt lat="68.32937" lon="14.51117">
        <ele>3.956863</ele>
        <time>2020-07-15T19:42:02.653Z</time>
      </trkpt>
      <trkpt lat="68.3296" lon="14.51119">
        <ele>3.4373</ele>
        <time>2020-07-15T19:42:05.887Z</time>
      </trkpt>
      <trkpt lat="68.32993" lon="14.51123">
        <ele>2.697533</ele>
        <time>2020-07-15T19:42:10.672Z</time>
      </trkpt>
      <trkpt lat="68.33006" lon="14.51125">
        <ele>2.614462</ele>
        <time>2020-07-15T19:42:12.684Z</time>
      </trkpt>
      <trkpt lat="68.33009" lon="14.51126">
        <ele>2.605278</ele>
        <time>2020-07-15T19:42:13.076Z</time>
      </trkpt>
      <trkpt lat="68.33011" lon="14.51127">
        <ele>2.59535</ele>
        <time>2020-07-15T19:42:13.480Z</time>
      </trkpt>
      <trkpt lat="68.33035" lon="14.51129">
        <ele>2.506657</ele>
        <time>2020-07-15T19:42:16.850Z</time>
      </trkpt>
      <trkpt lat="68.33083" lon="14.51123">
        <ele>2.321578</ele>
        <time>2020-07-15T19:42:24.929Z</time>
      </trkpt>
      <trkpt lat="68.331" lon="14.51113">
        <ele>2.255078</ele>
        <time>2020-07-15T19:42:27.997Z</time>
      </trkpt>
      <trkpt lat="68.33113" lon="14.51102">
        <ele>2.205616</ele>
        <time>2020-07-15T19:42:30.254Z</time>
      </trkpt>
      <trkpt lat="68.33145" lon="14.51054">
        <ele>2.066581</ele>
        <time>2020-07-15T19:42:36.905Z</time>
      </trkpt>
      <trkpt lat="68.33162" lon="14.51013">
        <ele>1.979032</ele>
        <time>2020-07-15T19:42:41.371Z</time>
      </trkpt>
      <trkpt lat="68.33226" lon="14.50814">
        <ele>3.010807</ele>
        <time>2020-07-15T19:43:01.671Z</time>
      </trkpt>
      <trkpt lat="68.33248" lon="14.50736">
        <ele>3.400693</ele>
        <time>2020-07-15T19:43:09.573Z</time>
      </trkpt>
      <trkpt lat="68.33271" lon="14.50665">
        <ele>3.780517</ele>
        <time>2020-07-15T19:43:17.478Z</time>
      </trkpt>
      <trkpt lat="68.33386" lon="14.50285">
        <ele>6.337365</ele>
        <time>2020-07-15T19:43:58.829Z</time>
      </trkpt>
      <trkpt lat="68.33399" lon="14.50242">
        <ele>6.601476</ele>
        <time>2020-07-15T19:44:03.160Z</time>
      </trkpt>
      <trkpt lat="68.33423" lon="14.50173">
        <ele>6.992747</ele>
        <time>2020-07-15T19:44:10.465Z</time>
      </trkpt>
      <trkpt lat="68.3343" lon="14.50158">
        <ele>7.092328</ele>
        <time>2020-07-15T19:44:12.292Z</time>
      </trkpt>
      <trkpt lat="68.33449" lon="14.50121">
        <ele>7.355882</ele>
        <time>2020-07-15T19:44:17.107Z</time>
      </trkpt>
      <trkpt lat="68.33609" lon="14.49853">
        <ele>9.6627</ele>
        <time>2020-07-15T19:44:57.623Z</time>
      </trkpt>
      <trkpt lat="68.33653" lon="14.49777">
        <ele>10.384728</ele>
        <time>2020-07-15T19:45:09.867Z</time>
      </trkpt>
      <trkpt lat="68.33666" lon="14.49757">
        <ele>10.587812</ele>
        <time>2020-07-15T19:45:13.032Z</time>
      </trkpt>
      <trkpt lat="68.33677" lon="14.49738">
        <ele>10.762822</ele>
        <time>2020-07-15T19:45:16.169Z</time>
      </trkpt>
      <trkpt lat="68.33701" lon="14.49677">
        <ele>11.151377</ele>
        <time>2020-07-15T19:45:23.657Z</time>
      </trkpt>
      <trkpt lat="68.33717" lon="14.49612">
        <ele>11.441253</ele>
        <time>2020-07-15T19:45:30.014Z</time>
      </trkpt>
      <trkpt lat="68.33778" lon="14.49122">
        <ele>13.186929</ele>
        <time>2020-07-15T19:46:09.200Z</time>
      </trkpt>
      <trkpt lat="68.3379" lon="14.4904">
        <ele>13.401383</ele>
        <time>2020-07-15T19:46:15.507Z</time>
      </trkpt>
      <trkpt lat="68.33796" lon="14.49001">
        <ele>13.509125</ele>
        <time>2020-07-15T19:46:18.569Z</time>
      </trkpt>
      <trkpt lat="68.33798" lon="14.48988">
        <ele>13.543401</ele>
        <time>2020-07-15T19:46:19.814Z</time>
      </trkpt>
      <trkpt lat="68.33819" lon="14.48891">
        <ele>13.819011</ele>
        <time>2020-07-15T19:46:27.912Z</time>
      </trkpt>
      <trkpt lat="68.3385" lon="14.48788">
        <ele>14.336186</ele>
        <time>2020-07-15T19:46:37.518Z</time>
      </trkpt>
      <trkpt lat="68.33878" lon="14.48726">
        <ele>14.895222</ele>
        <time>2020-07-15T19:46:44.732Z</time>
      </trkpt>
      <trkpt lat="68.33964" lon="14.48574">
        <ele>16.47654</ele>
        <time>2020-07-15T19:47:09.154Z</time>
      </trkpt>
      <trkpt lat="68.3399" lon="14.4854">
        <ele>16.992219</ele>
        <time>2020-07-15T19:47:16.557Z</time>
      </trkpt>
      <trkpt lat="68.34004" lon="14.48531">
        <ele>17.320794</ele>
        <time>2020-07-15T19:47:20.013Z</time>
      </trkpt>
      <trkpt lat="68.34012" lon="14.48527">
        <ele>17.519494</ele>
        <time>2020-07-15T19:47:22.581Z</time>
      </trkpt>
      <trkpt lat="68.34023" lon="14.48526">
        <ele>17.755414</ele>
        <time>2020-07-15T19:47:25.231Z</time>
      </trkpt>
      <trkpt lat="68.34041" lon="14.4853">
        <ele>18.182273</ele>
        <time>2020-07-15T19:47:29.830Z</time>
      </trkpt>
      <trkpt lat="68.34057" lon="14.48538">
        <ele>18.551848</ele>
        <time>2020-07-15T19:47:34.302Z</time>
      </trkpt>
      <trkpt lat="68.34168" lon="14.48665">
        <ele>20.98245</ele>
        <time>2020-07-15T19:48:05.059Z</time>
      </trkpt>
      <trkpt lat="68.34305" lon="14.48847">
        <ele>21.815063</ele>
        <time>2020-07-15T19:48:34.546Z</time>
      </trkpt>
      <trkpt lat="68.34363" lon="14.4896">
        <ele>21.001555</ele>
        <time>2020-07-15T19:48:45.436Z</time>
      </trkpt>
      <trkpt lat="68.34573" lon="14.49411">
        <ele>17.311303</ele>
        <time>2020-07-15T19:49:24.034Z</time>
      </trkpt>
      <trkpt lat="68.34622" lon="14.49498">
        <ele>16.904777</ele>
        <time>2020-07-15T19:49:33.959Z</time>
      </trkpt>
      <trkpt lat="68.34655" lon="14.49537">
        <ele>16.908081</ele>
        <time>2020-07-15T19:49:40.718Z</time>
      </trkpt>
      <trkpt lat="68.34689" lon="14.49559">
        <ele>16.911335</ele>
        <time>2020-07-15T19:49:47.328Z</time>
      </trkpt>
      <trkpt lat="68.34762" lon="14.49547">
        <ele>16.918122</ele>
        <time>2020-07-15T19:50:01.229Z</time>
      </trkpt>
      <trkpt lat="68.34808" lon="14.49538">
        <ele>16.661877</ele>
        <time>2020-07-15T19:50:09.542Z</time>
      </trkpt>
      <trkpt lat="68.34818" lon="14.49535">
        <ele>16.594094</ele>
        <time>2020-07-15T19:50:11.165Z</time>
      </trkpt>
      <trkpt lat="68.35055" lon="14.49479">
        <ele>14.909366</ele>
        <time>2020-07-15T19:50:48.083Z</time>
      </trkpt>
      <trkpt lat="68.35108" lon="14.4944">
        <ele>14.483099</ele>
        <time>2020-07-15T19:50:56.879Z</time>
      </trkpt>
      <trkpt lat="68.3543" lon="14.49011">
        <ele>14.686528</ele>
        <time>2020-07-15T19:52:01.487Z</time>
      </trkpt>
      <trkpt lat="68.35842" lon="14.48429">
        <ele>19.381343</ele>
        <time>2020-07-15T19:53:39.794Z</time>
      </trkpt>
      <trkpt lat="68.35997" lon="14.48176">
        <ele>21.138826</ele>
        <time>2020-07-15T19:54:20.337Z</time>
      </trkpt>
      <trkpt lat="68.36133" lon="14.47956">
        <ele>20.870078</ele>
        <time>2020-07-15T19:54:48.486Z</time>
      </trkpt>
      <trkpt lat="68.36186" lon="14.4785">
        <ele>19.969559</ele>
        <time>2020-07-15T19:54:57.883Z</time>
      </trkpt>
      <trkpt lat="68.36206" lon="14.478">
        <ele>19.598555</ele>
        <time>2020-07-15T19:55:01.631Z</time>
      </trkpt>
      <trkpt lat="68.36246" lon="14.47694">
        <ele>18.490695</ele>
        <time>2020-07-15T19:55:09.316Z</time>
      </trkpt>
      <trkpt lat="68.36274" lon="14.47613">
        <ele>17.539015</ele>
        <time>2020-07-15T19:55:14.809Z</time>
      </trkpt>
      <trkpt lat="68.36345" lon="14.47406">
        <ele>15.106193</ele>
        <time>2020-07-15T19:55:29.111Z</time>
      </trkpt>
      <trkpt lat="68.36378" lon="14.47297">
        <ele>14.520744</ele>
        <time>2020-07-15T19:55:36.735Z</time>
      </trkpt>
      <trkpt lat="68.36406" lon="14.47174">
        <ele>13.928573</ele>
        <time>2020-07-15T19:55:44.761Z</time>
      </trkpt>
      <trkpt lat="68.36426" lon="14.47058">
        <ele>13.395256</ele>
        <time>2020-07-15T19:55:52.259Z</time>
      </trkpt>
      <trkpt lat="68.36464" lon="14.46773">
        <ele>13.744202</ele>
        <time>2020-07-15T19:56:12.008Z</time>
      </trkpt>
      <trkpt lat="68.36467" lon="14.46753">
        <ele>13.805183</ele>
        <time>2020-07-15T19:56:13.388Z</time>
      </trkpt>
      <trkpt lat="68.36475" lon="14.46697">
        <ele>13.972828</ele>
        <time>2020-07-15T19:56:18.170Z</time>
      </trkpt>
      <trkpt lat="68.36495" lon="14.46599">
        <ele>14.287822</ele>
        <time>2020-07-15T19:56:27.703Z</time>
      </trkpt>
      <trkpt lat="68.36514" lon="14.46538">
        <ele>14.589875</ele>
        <time>2020-07-15T19:56:35.063Z</time>
      </trkpt>
      <trkpt lat="68.36563" lon="14.46432">
        <ele>15.803783</ele>
        <time>2020-07-15T19:56:50.559Z</time>
      </trkpt>
      <trkpt lat="68.36595" lon="14.4637">
        <ele>16.554896</ele>
        <time>2020-07-15T19:57:00.222Z</time>
      </trkpt>
      <trkpt lat="68.36615" lon="14.4633">
        <ele>17.040381</ele>
        <time>2020-07-15T19:57:06.372Z</time>
      </trkpt>
      <trkpt lat="68.36634" lon="14.46294">
        <ele>17.479952</ele>
        <time>2020-07-15T19:57:11.710Z</time>
      </trkpt>
      <trkpt lat="68.36665" lon="14.46253">
        <ele>17.993289</ele>
        <time>2020-07-15T19:57:19.697Z</time>
      </trkpt>
      <trkpt lat="68.36712" lon="14.46229">
        <ele>18.197105</ele>
        <time>2020-07-15T19:57:30.653Z</time>
      </trkpt>
      <trkpt lat="68.37195" lon="14.46221">
        <ele>19.637756</ele>
        <time>2020-07-15T19:58:59.524Z</time>
      </trkpt>
      <trkpt lat="68.37246" lon="14.46173">
        <ele>19.15346</ele>
        <time>2020-07-15T19:59:08.582Z</time>
      </trkpt>
      <trkpt lat="68.37322" lon="14.46038">
        <ele>18.327868</ele>
        <time>2020-07-15T19:59:22.771Z</time>
      </trkpt>
      <trkpt lat="68.37341" lon="14.46018">
        <ele>18.142609</ele>
        <time>2020-07-15T19:59:25.800Z</time>
      </trkpt>
      <trkpt lat="68.37379" lon="14.46002">
        <ele>17.45343</ele>
        <time>2020-07-15T19:59:31.251Z</time>
      </trkpt>
      <trkpt lat="68.3765" lon="14.46004">
        <ele>11.292324</ele>
        <time>2020-07-15T20:00:08.206Z</time>
      </trkpt>
      <trkpt lat="68.37686" lon="14.46016">
        <ele>10.456672</ele>
        <time>2020-07-15T20:00:13.393Z</time>
      </trkpt>
      <trkpt lat="68.37735" lon="14.4606">
        <ele>9.550318</ele>
        <time>2020-07-15T20:00:20.782Z</time>
      </trkpt>
      <trkpt lat="68.37865" lon="14.46222">
        <ele>7.814327</ele>
        <time>2020-07-15T20:00:42.605Z</time>
      </trkpt>
      <trkpt lat="68.3791" lon="14.4625">
        <ele>7.603548</ele>
        <time>2020-07-15T20:00:50.025Z</time>
      </trkpt>
      <trkpt lat="68.3795" lon="14.4625">
        <ele>7.522584</ele>
        <time>2020-07-15T20:00:56.672Z</time>
      </trkpt>
      <trkpt lat="68.37998" lon="14.46241">
        <ele>7.422873</ele>
        <time>2020-07-15T20:01:05.113Z</time>
      </trkpt>
      <trkpt lat="68.38104" lon="14.4622">
        <ele>7.688968</ele>
        <time>2020-07-15T20:01:24.857Z</time>
      </trkpt>
      <trkpt lat="68.38214" lon="14.46194">
        <ele>8.560549</ele>
        <time>2020-07-15T20:01:47.866Z</time>
      </trkpt>
      <trkpt lat="68.38419" lon="14.46106">
        <ele>10.777992</ele>
        <time>2020-07-15T20:02:33.363Z</time>
      </trkpt>
      <trkpt lat="68.38436" lon="14.46107">
        <ele>10.719621</ele>
        <time>2020-07-15T20:02:37.097Z</time>
      </trkpt>
      <trkpt lat="68.38456" lon="14.46113">
        <ele>10.654608</ele>
        <time>2020-07-15T20:02:40.679Z</time>
      </trkpt>
      <trkpt lat="68.38792" lon="14.46349">
        <ele>8.537866</ele>
        <time>2020-07-15T20:03:35.891Z</time>
      </trkpt>
      <trkpt lat="68.38811" lon="14.46363">
        <ele>8.407011</ele>
        <time>2020-07-15T20:03:38.902Z</time>
      </trkpt>
      <trkpt lat="68.38856" lon="14.46395">
        <ele>8.101479</ele>
        <time>2020-07-15T20:03:46.163Z</time>
      </trkpt>
      <trkpt lat="68.38979" lon="14.46483">
        <ele>7.297192</ele>
        <time>2020-07-15T20:04:07.182Z</time>
      </trkpt>
      <trkpt lat="68.38995" lon="14.46494">
        <ele>7.204048</ele>
        <time>2020-07-15T20:04:09.974Z</time>
      </trkpt>
      <trkpt lat="68.39085" lon="14.46559">
        <ele>6.689674</ele>
        <time>2020-07-15T20:04:25.410Z</time>
      </trkpt>
      <trkpt lat="68.39104" lon="14.46572">
        <ele>6.579949</ele>
        <time>2020-07-15T20:04:28.543Z</time>
      </trkpt>
      <trkpt lat="68.39122" lon="14.46584">
        <ele>6.397224</ele>
        <time>2020-07-15T20:04:31.591Z</time>
      </trkpt>
      <trkpt lat="68.3914" lon="14.46593">
        <ele>6.195759</ele>
        <time>2020-07-15T20:04:34.277Z</time>
      </trkpt>
      <trkpt lat="68.39196" lon="14.46611">
        <ele>5.540442</ele>
        <time>2020-07-15T20:04:42.952Z</time>
      </trkpt>
      <trkpt lat="68.39235" lon="14.46617">
        <ele>5.095154</ele>
        <time>2020-07-15T20:04:48.740Z</time>
      </trkpt>
      <trkpt lat="68.39306" lon="14.46629">
        <ele>4.289409</ele>
        <time>2020-07-15T20:04:59.357Z</time>
      </trkpt>
      <trkpt lat="68.39325" lon="14.46627">
        <ele>4.081634</ele>
        <time>2020-07-15T20:05:02.199Z</time>
      </trkpt>
      <trkpt lat="68.39331" lon="14.46689">
        <ele>3.823925</ele>
        <time>2020-07-15T20:05:05.808Z</time>
      </trkpt>
      <trkpt lat="68.39332" lon="14.46712">
        <ele>3.72853</ele>
        <time>2020-07-15T20:05:07.112Z</time>
      </trkpt>
      <trkpt lat="68.39345" lon="14.4688">
        <ele>3.036261</ele>
        <time>2020-07-15T20:05:16.831Z</time>
      </trkpt>
      <trkpt lat="68.39348" lon="14.46917">
        <ele>2.88254</ele>
        <time>2020-07-15T20:05:18.976Z</time>
      </trkpt>
      <trkpt lat="68.39354" lon="14.46986">
        <ele>2.594383</ele>
        <time>2020-07-15T20:05:23.035Z</time>
      </trkpt>
      <trkpt lat="68.39371" lon="14.47224">
        <ele>2.012302</ele>
        <time>2020-07-15T20:05:37.173Z</time>
      </trkpt>
      <trkpt lat="68.39377" lon="14.47334">
        <ele>1.76184</ele>
        <time>2020-07-15T20:05:43.862Z</time>
      </trkpt>
      <trkpt lat="68.39381" lon="14.47401">
        <ele>1.611079</ele>
        <time>2020-07-15T20:05:47.939Z</time>
      </trkpt>
      <trkpt lat="68.39382" lon="14.47436">
        <ele>1.532218</ele>
        <time>2020-07-15T20:05:50.119Z</time>
      </trkpt>
      <trkpt lat="68.39377" lon="14.47559">
        <ele>1.476673</ele>
        <time>2020-07-15T20:05:57.911Z</time>
      </trkpt>
      <trkpt lat="68.39375" lon="14.47575">
        <ele>1.492199</ele>
        <time>2020-07-15T20:05:58.907Z</time>
      </trkpt>
      <trkpt lat="68.39371" lon="14.47604">
        <ele>1.522338</ele>
        <time>2020-07-15T20:06:01.009Z</time>
      </trkpt>
      <trkpt lat="68.39362" lon="14.47645">
        <ele>1.567042</ele>
        <time>2020-07-15T20:06:04.127Z</time>
      </trkpt>
      <trkpt lat="68.39338" lon="14.47745">
        <ele>1.68239</ele>
        <time>2020-07-15T20:06:12.204Z</time>
      </trkpt>
      <trkpt lat="68.39334" lon="14.47763">
        <ele>1.702835</ele>
        <time>2020-07-15T20:06:13.762Z</time>
      </trkpt>
      <trkpt lat="68.39329" lon="14.47825">
        <ele>1.762722</ele>
        <time>2020-07-15T20:06:18.365Z</time>
      </trkpt>
      <trkpt lat="68.39333" lon="14.47916">
        <ele>1.850499</ele>
        <time>2020-07-15T20:06:25.175Z</time>
      </trkpt>
      <trkpt lat="68.39337" lon="14.48005">
        <ele>2.035195</ele>
        <time>2020-07-15T20:06:31.909Z</time>
      </trkpt>
      <trkpt lat="68.39354" lon="14.48142">
        <ele>2.403437</ele>
        <time>2020-07-15T20:06:42.919Z</time>
      </trkpt>
      <trkpt lat="68.3936" lon="14.48169">
        <ele>2.484233</ele>
        <time>2020-07-15T20:06:45.427Z</time>
      </trkpt>
      <trkpt lat="68.39379" lon="14.4824">
        <ele>2.711976</ele>
        <time>2020-07-15T20:06:52.148Z</time>
      </trkpt>
      <trkpt lat="68.39396" lon="14.48289">
        <ele>2.880791</ele>
        <time>2020-07-15T20:06:56.956Z</time>
      </trkpt>
      <trkpt lat="68.39422" lon="14.48359">
        <ele>3.128905</ele>
        <time>2020-07-15T20:07:03.937Z</time>
      </trkpt>
      <trkpt lat="68.39449" lon="14.48433">
        <ele>3.175951</ele>
        <time>2020-07-15T20:07:11.111Z</time>
      </trkpt>
      <trkpt lat="68.3948" lon="14.48509">
        <ele>3.227152</ele>
        <time>2020-07-15T20:07:18.850Z</time>
      </trkpt>
      <trkpt lat="68.39491" lon="14.48531">
        <ele>3.244094</ele>
        <time>2020-07-15T20:07:21.359Z</time>
      </trkpt>
      <trkpt lat="68.39508" lon="14.48561">
        <ele>3.26859</ele>
        <time>2020-07-15T20:07:24.949Z</time>
      </trkpt>
      <trkpt lat="68.39527" lon="14.48588">
        <ele>3.294271</ele>
        <time>2020-07-15T20:07:28.710Z</time>
      </trkpt>
      <trkpt lat="68.39553" lon="14.48627">
        <ele>3.330578</ele>
        <time>2020-07-15T20:07:34.063Z</time>
      </trkpt>
      <trkpt lat="68.39563" lon="14.48645">
        <ele>3.344997</ele>
        <time>2020-07-15T20:07:36.138Z</time>
      </trkpt>
      <trkpt lat="68.39581" lon="14.48723">
        <ele>3.386766</ele>
        <time>2020-07-15T20:07:41.999Z</time>
      </trkpt>
      <trkpt lat="68.39615" lon="14.48914">
        <ele>3.484252</ele>
        <time>2020-07-15T20:07:55.622Z</time>
      </trkpt>
      <trkpt lat="68.39682" lon="14.49236">
        <ele>4.335384</ele>
        <time>2020-07-15T20:08:22.269Z</time>
      </trkpt>
      <trkpt lat="68.39705" lon="14.4933">
        <ele>4.810946</ele>
        <time>2020-07-15T20:08:30.839Z</time>
      </trkpt>
      <trkpt lat="68.39711" lon="14.49351">
        <ele>4.91881</ele>
        <time>2020-07-15T20:08:33.044Z</time>
      </trkpt>
      <trkpt lat="68.39745" lon="14.49475">
        <ele>5.574645</ele>
        <time>2020-07-15T20:08:46.468Z</time>
      </trkpt>
      <trkpt lat="68.39811" lon="14.49635">
        <ele>7.521692</ele>
        <time>2020-07-15T20:09:08.346Z</time>
      </trkpt>
      <trkpt lat="68.39822" lon="14.49659">
        <ele>7.85053</ele>
        <time>2020-07-15T20:09:12.062Z</time>
      </trkpt>
      <trkpt lat="68.39829" lon="14.49673">
        <ele>8.046341</ele>
        <time>2020-07-15T20:09:14.386Z</time>
      </trkpt>
      <trkpt lat="68.39856" lon="14.49714">
        <ele>8.753561</ele>
        <time>2020-07-15T20:09:22.195Z</time>
      </trkpt>
      <trkpt lat="68.39948" lon="14.49808">
        <ele>10.78152</ele>
        <time>2020-07-15T20:09:47.471Z</time>
      </trkpt>
      <trkpt lat="68.40081" lon="14.50132">
        <ele>13.656188</ele>
        <time>2020-07-15T20:10:28.921Z</time>
      </trkpt>
      <trkpt lat="68.40129" lon="14.5025">
        <ele>14.258276</ele>
        <time>2020-07-15T20:10:41.712Z</time>
      </trkpt>
      <trkpt lat="68.40129" lon="14.5025">
        <ele>14.258276</ele>
        <time>2020-07-15T20:10:41.714Z</time>
      </trkpt>
      <trkpt lat="68.40168" lon="14.50344">
        <ele>14.751515</ele>
        <time>2020-07-15T20:10:52.068Z</time>
      </trkpt>
      <trkpt lat="68.40176" lon="14.50369">
        <ele>14.831777</ele>
        <time>2020-07-15T20:10:54.493Z</time>
      </trkpt>
      <trkpt lat="68.4018" lon="14.50385">
        <ele>14.839615</ele>
        <time>2020-07-15T20:10:55.879Z</time>
      </trkpt>
      <trkpt lat="68.40192" lon="14.5044">
        <ele>14.864649</ele>
        <time>2020-07-15T20:11:00.627Z</time>
      </trkpt>
      <trkpt lat="68.4021" lon="14.50596">
        <ele>14.929753</ele>
        <time>2020-07-15T20:11:12.022Z</time>
      </trkpt>
      <trkpt lat="68.40236" lon="14.50814">
        <ele>15.02071</ele>
        <time>2020-07-15T20:11:26.756Z</time>
      </trkpt>
      <trkpt lat="68.40241" lon="14.50863">
        <ele>14.889057</ele>
        <time>2020-07-15T20:11:29.791Z</time>
      </trkpt>
      <trkpt lat="68.40258" lon="14.50999">
        <ele>14.497772</ele>
        <time>2020-07-15T20:11:38.589Z</time>
      </trkpt>
      <trkpt lat="68.40278" lon="14.51159">
        <ele>14.035415</ele>
        <time>2020-07-15T20:11:48.551Z</time>
      </trkpt>
      <trkpt lat="68.40279" lon="14.51165">
        <ele>14.019013</ele>
        <time>2020-07-15T20:11:48.876Z</time>
      </trkpt>
      <trkpt lat="68.40288" lon="14.51243">
        <ele>13.795519</ele>
        <time>2020-07-15T20:11:53.338Z</time>
      </trkpt>
      <trkpt lat="68.40295" lon="14.513">
        <ele>13.691123</ele>
        <time>2020-07-15T20:11:56.525Z</time>
      </trkpt>
      <trkpt lat="68.40303" lon="14.51385">
        <ele>13.707328</ele>
        <time>2020-07-15T20:12:01.400Z</time>
      </trkpt>
      <trkpt lat="68.40305" lon="14.51437">
        <ele>13.717148</ele>
        <time>2020-07-15T20:12:04.734Z</time>
      </trkpt>
      <trkpt lat="68.40306" lon="14.51475">
        <ele>13.724092</ele>
        <time>2020-07-15T20:12:06.906Z</time>
      </trkpt>
      <trkpt lat="68.40307" lon="14.51547">
        <ele>13.737471</ele>
        <time>2020-07-15T20:12:11.846Z</time>
      </trkpt>
      <trkpt lat="68.40306" lon="14.51582">
        <ele>13.743816</ele>
        <time>2020-07-15T20:12:13.931Z</time>
      </trkpt>
      <trkpt lat="68.40305" lon="14.51611">
        <ele>13.749285</ele>
        <time>2020-07-15T20:12:16.087Z</time>
      </trkpt>
      <trkpt lat="68.40288" lon="14.51793">
        <ele>13.900613</ele>
        <time>2020-07-15T20:12:31.051Z</time>
      </trkpt>
      <trkpt lat="68.40275" lon="14.51858">
        <ele>14.16335</ele>
        <time>2020-07-15T20:12:37.556Z</time>
      </trkpt>
      <trkpt lat="68.40265" lon="14.51892">
        <ele>14.319408</ele>
        <time>2020-07-15T20:12:41.217Z</time>
      </trkpt>
      <trkpt lat="68.40252" lon="14.51927">
        <ele>14.491321</ele>
        <time>2020-07-15T20:12:45.557Z</time>
      </trkpt>
      <trkpt lat="68.40234" lon="14.51972">
        <ele>14.729914</ele>
        <time>2020-07-15T20:12:51.004Z</time>
      </trkpt>
      <trkpt lat="68.40216" lon="14.52013">
        <ele>14.959361</ele>
        <time>2020-07-15T20:12:55.935Z</time>
      </trkpt>
      <trkpt lat="68.40198" lon="14.52056">
        <ele>15.189838</ele>
        <time>2020-07-15T20:13:01.399Z</time>
      </trkpt>
      <trkpt lat="68.40154" lon="14.52195">
        <ele>14.897791</ele>
        <time>2020-07-15T20:13:13.683Z</time>
      </trkpt>
      <trkpt lat="68.40073" lon="14.52556">
        <ele>11.902769</ele>
        <time>2020-07-15T20:13:35.057Z</time>
      </trkpt>
      <trkpt lat="68.40051" lon="14.52632">
        <ele>10.742271</ele>
        <time>2020-07-15T20:13:39.630Z</time>
      </trkpt>
      <trkpt lat="68.39936" lon="14.52884">
        <ele>6.092486</ele>
        <time>2020-07-15T20:13:58.667Z</time>
      </trkpt>
      <trkpt lat="68.39903" lon="14.5296">
        <ele>5.13854</ele>
        <time>2020-07-15T20:14:04.596Z</time>
      </trkpt>
      <trkpt lat="68.39879" lon="14.5301">
        <ele>4.480909</ele>
        <time>2020-07-15T20:14:08.747Z</time>
      </trkpt>
      <trkpt lat="68.39813" lon="14.53155">
        <ele>2.623006</ele>
        <time>2020-07-15T20:14:20.957Z</time>
      </trkpt>
      <trkpt lat="68.39782" lon="14.53221">
        <ele>2.203284</ele>
        <time>2020-07-15T20:14:26.906Z</time>
      </trkpt>
      <trkpt lat="68.39713" lon="14.53369">
        <ele>1.529268</ele>
        <time>2020-07-15T20:14:40.985Z</time>
      </trkpt>
      <trkpt lat="68.39638" lon="14.53533">
        <ele>0.952446</ele>
        <time>2020-07-15T20:14:57.007Z</time>
      </trkpt>
      <trkpt lat="68.39619" lon="14.53584">
        <ele>0.873302</ele>
        <time>2020-07-15T20:15:01.523Z</time>
      </trkpt>
      <trkpt lat="68.39584" lon="14.53723">
        <ele>0.689802</ele>
        <time>2020-07-15T20:15:12.146Z</time>
      </trkpt>
      <trkpt lat="68.39571" lon="14.53841">
        <ele>0.556111</ele>
        <time>2020-07-15T20:15:19.912Z</time>
      </trkpt>
      <trkpt lat="68.39485" lon="14.55161">
        <ele>0.295971</ele>
        <time>2020-07-15T20:16:47.136Z</time>
      </trkpt>
      <trkpt lat="68.39475" lon="14.55316">
        <ele>0.306831</ele>
        <time>2020-07-15T20:16:57.790Z</time>
      </trkpt>
      <trkpt lat="68.39469" lon="14.55421">
        <ele>0.342955</ele>
        <time>2020-07-15T20:17:05.015Z</time>
      </trkpt>
      <trkpt lat="68.39462" lon="14.55525">
        <ele>0.378828</ele>
        <time>2020-07-15T20:17:12.056Z</time>
      </trkpt>
      <trkpt lat="68.39459" lon="14.55572">
        <ele>0.395013</ele>
        <time>2020-07-15T20:17:15.207Z</time>
      </trkpt>
      <trkpt lat="68.39456" lon="14.55619">
        <ele>0.411147</ele>
        <time>2020-07-15T20:17:18.407Z</time>
      </trkpt>
      <trkpt lat="68.39447" lon="14.55762">
        <ele>0.460501</ele>
        <time>2020-07-15T20:17:28.097Z</time>
      </trkpt>
      <trkpt lat="68.39446" lon="14.55776">
        <ele>0.465395</ele>
        <time>2020-07-15T20:17:29.076Z</time>
      </trkpt>
      <trkpt lat="68.39445" lon="14.55797">
        <ele>0.471319</ele>
        <time>2020-07-15T20:17:30.496Z</time>
      </trkpt>
      <trkpt lat="68.39445" lon="14.55806">
        <ele>0.470715</ele>
        <time>2020-07-15T20:17:31.121Z</time>
      </trkpt>
      <trkpt lat="68.39448" lon="14.55855">
        <ele>0.467411</ele>
        <time>2020-07-15T20:17:34.404Z</time>
      </trkpt>
      <trkpt lat="68.39455" lon="14.55948">
        <ele>0.461134</ele>
        <time>2020-07-15T20:17:40.753Z</time>
      </trkpt>
      <trkpt lat="68.3948" lon="14.56071">
        <ele>0.45181</ele>
        <time>2020-07-15T20:17:49.950Z</time>
      </trkpt>
      <trkpt lat="68.39491" lon="14.56108">
        <ele>0.448617</ele>
        <time>2020-07-15T20:17:53.003Z</time>
      </trkpt>
      <trkpt lat="68.39503" lon="14.56139">
        <ele>0.44571</ele>
        <time>2020-07-15T20:17:55.830Z</time>
      </trkpt>
      <trkpt lat="68.3953" lon="14.56197">
        <ele>0.439536</ele>
        <time>2020-07-15T20:18:01.806Z</time>
      </trkpt>
      <trkpt lat="68.39609" lon="14.56333">
        <ele>0.441231</ele>
        <time>2020-07-15T20:18:18.651Z</time>
      </trkpt>
      <trkpt lat="68.39784" lon="14.56617">
        <ele>0.490265</ele>
        <time>2020-07-15T20:18:55.331Z</time>
      </trkpt>
      <trkpt lat="68.39804" lon="14.56655">
        <ele>0.500317</ele>
        <time>2020-07-15T20:18:59.748Z</time>
      </trkpt>
      <trkpt lat="68.39822" lon="14.56696">
        <ele>0.509762</ele>
        <time>2020-07-15T20:19:03.867Z</time>
      </trkpt>
      <trkpt lat="68.39849" lon="14.56784">
        <ele>0.601015</ele>
        <time>2020-07-15T20:19:11.405Z</time>
      </trkpt>
      <trkpt lat="68.39869" lon="14.56876">
        <ele>0.730436</ele>
        <time>2020-07-15T20:19:18.398Z</time>
      </trkpt>
      <trkpt lat="68.39896" lon="14.57095">
        <ele>1.011782</ele>
        <time>2020-07-15T20:19:34.168Z</time>
      </trkpt>
      <trkpt lat="68.39908" lon="14.5724">
        <ele>1.679388</ele>
        <time>2020-07-15T20:19:45.502Z</time>
      </trkpt>
      <trkpt lat="68.3991" lon="14.57353">
        <ele>2.633358</ele>
        <time>2020-07-15T20:19:54.842Z</time>
      </trkpt>
      <trkpt lat="68.39907" lon="14.57451">
        <ele>3.46092</ele>
        <time>2020-07-15T20:20:03.457Z</time>
      </trkpt>
      <trkpt lat="68.39866" lon="14.57846">
        <ele>8.631991</ele>
        <time>2020-07-15T20:20:47.550Z</time>
      </trkpt>
      <trkpt lat="68.39865" lon="14.57968">
        <ele>10.701608</ele>
        <time>2020-07-15T20:21:02.851Z</time>
      </trkpt>
      <trkpt lat="68.3987" lon="14.58034">
        <ele>11.847706</ele>
        <time>2020-07-15T20:21:11.393Z</time>
      </trkpt>
      <trkpt lat="68.39885" lon="14.58132">
        <ele>13.623715</ele>
        <time>2020-07-15T20:21:26.238Z</time>
      </trkpt>
      <trkpt lat="68.39914" lon="14.58234">
        <ele>15.333988</ele>
        <time>2020-07-15T20:21:42.847Z</time>
      </trkpt>
      <trkpt lat="68.39946" lon="14.58303">
        <ele>16.849402</ele>
        <time>2020-07-15T20:21:56.198Z</time>
      </trkpt>
      <trkpt lat="68.39985" lon="14.58348">
        <ele>18.371439</ele>
        <time>2020-07-15T20:22:07.996Z</time>
      </trkpt>
      <trkpt lat="68.39999" lon="14.58359">
        <ele>18.912717</ele>
        <time>2020-07-15T20:22:12.771Z</time>
      </trkpt>
      <trkpt lat="68.4002" lon="14.58365">
        <ele>19.685651</ele>
        <time>2020-07-15T20:22:16.901Z</time>
      </trkpt>
      <trkpt lat="68.40063" lon="14.58359">
        <ele>19.57672</ele>
        <time>2020-07-15T20:22:25.766Z</time>
      </trkpt>
      <trkpt lat="68.40098" lon="14.58331">
        <ele>19.008822</ele>
        <time>2020-07-15T20:22:31.721Z</time>
      </trkpt>
      <trkpt lat="68.40159" lon="14.58267">
        <ele>17.996137</ele>
        <time>2020-07-15T20:22:40.754Z</time>
      </trkpt>
      <trkpt lat="68.40213" lon="14.5819">
        <ele>16.887143</ele>
        <time>2020-07-15T20:22:48.566Z</time>
      </trkpt>
      <trkpt lat="68.40285" lon="14.5804">
        <ele>14.558215</ele>
        <time>2020-07-15T20:23:00.382Z</time>
      </trkpt>
      <trkpt lat="68.40441" lon="14.57581">
        <ele>10.595977</ele>
        <time>2020-07-15T20:23:34.134Z</time>
      </trkpt>
      <trkpt lat="68.40489" lon="14.5747">
        <ele>10.257162</ele>
        <time>2020-07-15T20:23:44.666Z</time>
      </trkpt>
      <trkpt lat="68.40526" lon="14.5741">
        <ele>10.228347</ele>
        <time>2020-07-15T20:23:52.154Z</time>
      </trkpt>
      <trkpt lat="68.40607" lon="14.57305">
        <ele>10.16805</ele>
        <time>2020-07-15T20:24:08.809Z</time>
      </trkpt>
      <trkpt lat="68.40729" lon="14.57197">
        <ele>10.424367</ele>
        <time>2020-07-15T20:24:33.287Z</time>
      </trkpt>
      <trkpt lat="68.40772" lon="14.57129">
        <ele>10.531481</ele>
        <time>2020-07-15T20:24:42.307Z</time>
      </trkpt>
      <trkpt lat="68.4079" lon="14.57086">
        <ele>10.524952</ele>
        <time>2020-07-15T20:24:46.577Z</time>
      </trkpt>
      <trkpt lat="68.41007" lon="14.56378">
        <ele>9.950526</ele>
        <time>2020-07-15T20:25:44.671Z</time>
      </trkpt>
      <trkpt lat="68.41092" lon="14.55917">
        <ele>10.504177</ele>
        <time>2020-07-15T20:26:20.695Z</time>
      </trkpt>
      <trkpt lat="68.41131" lon="14.55743">
        <ele>10.742388</ele>
        <time>2020-07-15T20:26:35.108Z</time>
      </trkpt>
      <trkpt lat="68.41342" lon="14.55137">
        <ele>11.534161</ele>
        <time>2020-07-15T20:27:32.327Z</time>
      </trkpt>
      <trkpt lat="68.4136" lon="14.5511">
        <ele>11.546294</ele>
        <time>2020-07-15T20:27:36.211Z</time>
      </trkpt>
      <trkpt lat="68.41389" lon="14.55095">
        <ele>11.563333</ele>
        <time>2020-07-15T20:27:41.659Z</time>
      </trkpt>
      <trkpt lat="68.414" lon="14.55096">
        <ele>11.569828</ele>
        <time>2020-07-15T20:27:43.703Z</time>
      </trkpt>
      <trkpt lat="68.41418" lon="14.55105">
        <ele>11.580229</ele>
        <time>2020-07-15T20:27:46.935Z</time>
      </trkpt>
      <trkpt lat="68.41468" lon="14.55132">
        <ele>11.609678</ele>
        <time>2020-07-15T20:27:56.023Z</time>
      </trkpt>
      <trkpt lat="68.41512" lon="14.55142">
        <ele>11.587153</ele>
        <time>2020-07-15T20:28:03.637Z</time>
      </trkpt>
      <trkpt lat="68.41531" lon="14.55139">
        <ele>11.550932</ele>
        <time>2020-07-15T20:28:07.090Z</time>
      </trkpt>
      <trkpt lat="68.41554" lon="14.55133">
        <ele>11.508716</ele>
        <time>2020-07-15T20:28:11.071Z</time>
      </trkpt>
      <trkpt lat="68.41607" lon="14.55106">
        <ele>11.411631</ele>
        <time>2020-07-15T20:28:20.232Z</time>
      </trkpt>
      <trkpt lat="68.41632" lon="14.5509">
        <ele>11.364564</ele>
        <time>2020-07-15T20:28:24.623Z</time>
      </trkpt>
      <trkpt lat="68.41654" lon="14.55086">
        <ele>11.322849</ele>
        <time>2020-07-15T20:28:28.556Z</time>
      </trkpt>
      <trkpt lat="68.41671" lon="14.55088">
        <ele>11.296811</ele>
        <time>2020-07-15T20:28:31.469Z</time>
      </trkpt>
      <trkpt lat="68.41691" lon="14.55095">
        <ele>11.323259</ele>
        <time>2020-07-15T20:28:34.872Z</time>
      </trkpt>
      <trkpt lat="68.41702" lon="14.55103">
        <ele>11.338841</ele>
        <time>2020-07-15T20:28:36.892Z</time>
      </trkpt>
      <trkpt lat="68.41716" lon="14.55116">
        <ele>11.358979</ele>
        <time>2020-07-15T20:28:39.575Z</time>
      </trkpt>
      <trkpt lat="68.41732" lon="14.55145">
        <ele>11.38399</ele>
        <time>2020-07-15T20:28:42.909Z</time>
      </trkpt>
      <trkpt lat="68.41759" lon="14.55221">
        <ele>11.43673</ele>
        <time>2020-07-15T20:28:50.023Z</time>
      </trkpt>
      <trkpt lat="68.41858" lon="14.5555">
        <ele>12.079284</ele>
        <time>2020-07-15T20:29:20.055Z</time>
      </trkpt>
      <trkpt lat="68.41953" lon="14.55889">
        <ele>13.296338</ele>
        <time>2020-07-15T20:29:52.269Z</time>
      </trkpt>
      <trkpt lat="68.41962" lon="14.55977">
        <ele>13.621102</ele>
        <time>2020-07-15T20:29:59.621Z</time>
      </trkpt>
      <trkpt lat="68.41963" lon="14.5612">
        <ele>14.124604</ele>
        <time>2020-07-15T20:30:10.639Z</time>
      </trkpt>
      <trkpt lat="68.41973" lon="14.56209">
        <ele>14.453282</ele>
        <time>2020-07-15T20:30:17.675Z</time>
      </trkpt>
      <trkpt lat="68.41988" lon="14.56292">
        <ele>14.611274</ele>
        <time>2020-07-15T20:30:24.528Z</time>
      </trkpt>
      <trkpt lat="68.41996" lon="14.56327">
        <ele>14.68124</ele>
        <time>2020-07-15T20:30:27.735Z</time>
      </trkpt>
      <trkpt lat="68.42022" lon="14.56406">
        <ele>14.861362</ele>
        <time>2020-07-15T20:30:35.377Z</time>
      </trkpt>
      <trkpt lat="68.42111" lon="14.56669">
        <ele>15.291985</ele>
        <time>2020-07-15T20:30:59.815Z</time>
      </trkpt>
      <trkpt lat="68.42123" lon="14.5672">
        <ele>15.29742</ele>
        <time>2020-07-15T20:31:03.728Z</time>
      </trkpt>
      <trkpt lat="68.42132" lon="14.5676">
        <ele>15.301532</ele>
        <time>2020-07-15T20:31:06.823Z</time>
      </trkpt>
      <trkpt lat="68.42177" lon="14.57089">
        <ele>15.282224</ele>
        <time>2020-07-15T20:31:29.790Z</time>
      </trkpt>
      <trkpt lat="68.42192" lon="14.57174">
        <ele>15.227193</ele>
        <time>2020-07-15T20:31:36.061Z</time>
      </trkpt>
      <trkpt lat="68.42263" lon="14.57531">
        <ele>14.921541</ele>
        <time>2020-07-15T20:32:01.671Z</time>
      </trkpt>
      <trkpt lat="68.42382" lon="14.58073">
        <ele>14.158918</ele>
        <time>2020-07-15T20:32:40.447Z</time>
      </trkpt>
      <trkpt lat="68.42404" lon="14.58209">
        <ele>14.026444</ele>
        <time>2020-07-15T20:32:49.974Z</time>
      </trkpt>
      <trkpt lat="68.42413" lon="14.5835">
        <ele>13.901697</ele>
        <time>2020-07-15T20:32:59.354Z</time>
      </trkpt>
      <trkpt lat="68.42425" lon="14.5866">
        <ele>13.658782</ele>
        <time>2020-07-15T20:33:19.259Z</time>
      </trkpt>
      <trkpt lat="68.42435" lon="14.58867">
        <ele>13.415185</ele>
        <time>2020-07-15T20:33:32.185Z</time>
      </trkpt>
      <trkpt lat="68.42442" lon="14.59026">
        <ele>13.087891</ele>
        <time>2020-07-15T20:33:41.813Z</time>
      </trkpt>
      <trkpt lat="68.42444" lon="14.59253">
        <ele>12.626119</ele>
        <time>2020-07-15T20:33:55.240Z</time>
      </trkpt>
      <trkpt lat="68.4245" lon="14.59342">
        <ele>12.479652</ele>
        <time>2020-07-15T20:34:00.706Z</time>
      </trkpt>
      <trkpt lat="68.42467" lon="14.59482">
        <ele>12.285454</ele>
        <time>2020-07-15T20:34:09.775Z</time>
      </trkpt>
      <trkpt lat="68.42561" lon="14.599">
        <ele>11.669135</ele>
        <time>2020-07-15T20:34:40.627Z</time>
      </trkpt>
      <trkpt lat="68.42608" lon="14.60052">
        <ele>11.435918</ele>
        <time>2020-07-15T20:34:53.039Z</time>
      </trkpt>
      <trkpt lat="68.42646" lon="14.60209">
        <ele>11.128878</ele>
        <time>2020-07-15T20:35:04.587Z</time>
      </trkpt>
      <trkpt lat="68.42738" lon="14.60492">
        <ele>10.351474</ele>
        <time>2020-07-15T20:35:27.115Z</time>
      </trkpt>
      <trkpt lat="68.42772" lon="14.60597">
        <ele>10.010569</ele>
        <time>2020-07-15T20:35:35.347Z</time>
      </trkpt>
      <trkpt lat="68.42817" lon="14.60738">
        <ele>9.546412</ele>
        <time>2020-07-15T20:35:46.357Z</time>
      </trkpt>
      <trkpt lat="68.42887" lon="14.6091">
        <ele>9.010703</ele>
        <time>2020-07-15T20:36:01.676Z</time>
      </trkpt>
      <trkpt lat="68.42921" lon="14.60985">
        <ele>8.864073</ele>
        <time>2020-07-15T20:36:08.953Z</time>
      </trkpt>
      <trkpt lat="68.42966" lon="14.61084">
        <ele>8.670597</ele>
        <time>2020-07-15T20:36:18.798Z</time>
      </trkpt>
      <trkpt lat="68.43041" lon="14.61241">
        <ele>8.479621</ele>
        <time>2020-07-15T20:36:35.221Z</time>
      </trkpt>
      <trkpt lat="68.43054" lon="14.6127">
        <ele>8.469912</ele>
        <time>2020-07-15T20:36:38.167Z</time>
      </trkpt>
      <trkpt lat="68.43074" lon="14.6132">
        <ele>8.453977</ele>
        <time>2020-07-15T20:36:43.025Z</time>
      </trkpt>
      <trkpt lat="68.43092" lon="14.61373">
        <ele>8.438164</ele>
        <time>2020-07-15T20:36:47.899Z</time>
      </trkpt>
      <trkpt lat="68.43103" lon="14.61401">
        <ele>8.429611</ele>
        <time>2020-07-15T20:36:50.493Z</time>
      </trkpt>
      <trkpt lat="68.43119" lon="14.61458">
        <ele>8.414138</ele>
        <time>2020-07-15T20:36:55.227Z</time>
      </trkpt>
      <trkpt lat="68.43153" lon="14.61599">
        <ele>8.439203</ele>
        <time>2020-07-15T20:37:06.344Z</time>
      </trkpt>
      <trkpt lat="68.43173" lon="14.61685">
        <ele>8.47475</ele>
        <time>2020-07-15T20:37:13.038Z</time>
      </trkpt>
      <trkpt lat="68.43191" lon="14.61781">
        <ele>8.512487</ele>
        <time>2020-07-15T20:37:20.192Z</time>
      </trkpt>
      <trkpt lat="68.4324" lon="14.6201">
        <ele>8.680531</ele>
        <time>2020-07-15T20:37:38.232Z</time>
      </trkpt>
      <trkpt lat="68.43263" lon="14.62117">
        <ele>8.823366</ele>
        <time>2020-07-15T20:37:46.645Z</time>
      </trkpt>
      <trkpt lat="68.43271" lon="14.62154">
        <ele>8.872321</ele>
        <time>2020-07-15T20:37:49.608Z</time>
      </trkpt>
      <trkpt lat="68.43286" lon="14.62229">
        <ele>8.970633</ele>
        <time>2020-07-15T20:37:55.614Z</time>
      </trkpt>
      <trkpt lat="68.43294" lon="14.62276">
        <ele>9.029133</ele>
        <time>2020-07-15T20:37:59.198Z</time>
      </trkpt>
      <trkpt lat="68.43297" lon="14.62305">
        <ele>9.064971</ele>
        <time>2020-07-15T20:38:01.434Z</time>
      </trkpt>
      <trkpt lat="68.43302" lon="14.62409">
        <ele>9.162756</ele>
        <time>2020-07-15T20:38:08.847Z</time>
      </trkpt>
      <trkpt lat="68.43294" lon="14.62518">
        <ele>9.233552</ele>
        <time>2020-07-15T20:38:16.697Z</time>
      </trkpt>
      <trkpt lat="68.43288" lon="14.62595">
        <ele>9.283226</ele>
        <time>2020-07-15T20:38:22.150Z</time>
      </trkpt>
      <trkpt lat="68.4327" lon="14.62771">
        <ele>9.399757</ele>
        <time>2020-07-15T20:38:34.454Z</time>
      </trkpt>
      <trkpt lat="68.43259" lon="14.6289">
        <ele>9.357826</ele>
        <time>2020-07-15T20:38:42.169Z</time>
      </trkpt>
      <trkpt lat="68.43238" lon="14.63116">
        <ele>8.927445</ele>
        <time>2020-07-15T20:38:56.145Z</time>
      </trkpt>
      <trkpt lat="68.43222" lon="14.63278">
        <ele>8.618779</ele>
        <time>2020-07-15T20:39:05.973Z</time>
      </trkpt>
      <trkpt lat="68.43206" lon="14.63444">
        <ele>8.723705</ele>
        <time>2020-07-15T20:39:16.729Z</time>
      </trkpt>
      <trkpt lat="68.43205" lon="14.63449">
        <ele>8.730929</ele>
        <time>2020-07-15T20:39:17.004Z</time>
      </trkpt>
      <trkpt lat="68.43203" lon="14.63471">
        <ele>8.761835</ele>
        <time>2020-07-15T20:39:18.537Z</time>
      </trkpt>
      <trkpt lat="68.43202" lon="14.6348">
        <ele>8.77402</ele>
        <time>2020-07-15T20:39:19.171Z</time>
      </trkpt>
      <trkpt lat="68.43195" lon="14.63556">
        <ele>8.879774</ele>
        <time>2020-07-15T20:39:24.382Z</time>
      </trkpt>
      <trkpt lat="68.43185" lon="14.63659">
        <ele>9.022947</ele>
        <time>2020-07-15T20:39:32.006Z</time>
      </trkpt>
      <trkpt lat="68.43169" lon="14.63827">
        <ele>9.474702</ele>
        <time>2020-07-15T20:39:45.636Z</time>
      </trkpt>
      <trkpt lat="68.4315" lon="14.64044">
        <ele>11.005178</ele>
        <time>2020-07-15T20:40:05.442Z</time>
      </trkpt>
      <trkpt lat="68.43134" lon="14.64374">
        <ele>13.085317</ele>
        <time>2020-07-15T20:40:35.769Z</time>
      </trkpt>
      <trkpt lat="68.43131" lon="14.64445">
        <ele>13.439547</ele>
        <time>2020-07-15T20:40:42.177Z</time>
      </trkpt>
      <trkpt lat="68.43118" lon="14.64738">
        <ele>14.892088</ele>
        <time>2020-07-15T20:41:05.540Z</time>
      </trkpt>
      <trkpt lat="68.4311" lon="14.6493">
        <ele>14.756381</ele>
        <time>2020-07-15T20:41:18.283Z</time>
      </trkpt>
      <trkpt lat="68.43097" lon="14.65108">
        <ele>14.533998</ele>
        <time>2020-07-15T20:41:29.044Z</time>
      </trkpt>
      <trkpt lat="68.42922" lon="14.66248">
        <ele>11.084446</ele>
        <time>2020-07-15T20:42:40.665Z</time>
      </trkpt>
      <trkpt lat="68.42894" lon="14.66391">
        <ele>10.786664</ele>
        <time>2020-07-15T20:42:50.502Z</time>
      </trkpt>
      <trkpt lat="68.42861" lon="14.6652">
        <ele>10.498096</ele>
        <time>2020-07-15T20:43:00.257Z</time>
      </trkpt>
      <trkpt lat="68.42835" lon="14.66592">
        <ele>10.386261</ele>
        <time>2020-07-15T20:43:06.636Z</time>
      </trkpt>
      <trkpt lat="68.42776" lon="14.66705">
        <ele>10.283821</ele>
        <time>2020-07-15T20:43:19.120Z</time>
      </trkpt>
      <trkpt lat="68.42755" lon="14.66733">
        <ele>10.250074</ele>
        <time>2020-07-15T20:43:23.273Z</time>
      </trkpt>
      <trkpt lat="68.4274" lon="14.66756">
        <ele>10.225019</ele>
        <time>2020-07-15T20:43:26.333Z</time>
      </trkpt>
      <trkpt lat="68.42702" lon="14.66805">
        <ele>10.165607</ele>
        <time>2020-07-15T20:43:33.641Z</time>
      </trkpt>
      <trkpt lat="68.42666" lon="14.66855">
        <ele>10.052118</ele>
        <time>2020-07-15T20:43:40.830Z</time>
      </trkpt>
      <trkpt lat="68.42613" lon="14.6693">
        <ele>9.874332</ele>
        <time>2020-07-15T20:43:51.373Z</time>
      </trkpt>
      <trkpt lat="68.42553" lon="14.67005">
        <ele>9.681017</ele>
        <time>2020-07-15T20:44:02.314Z</time>
      </trkpt>
      <trkpt lat="68.42499" lon="14.67077">
        <ele>9.149229</ele>
        <time>2020-07-15T20:44:11.969Z</time>
      </trkpt>
      <trkpt lat="68.42473" lon="14.67111">
        <ele>8.819358</ele>
        <time>2020-07-15T20:44:16.576Z</time>
      </trkpt>
      <trkpt lat="68.42462" lon="14.67127">
        <ele>8.682553</ele>
        <time>2020-07-15T20:44:18.421Z</time>
      </trkpt>
      <trkpt lat="68.42447" lon="14.67146">
        <ele>8.486357</ele>
        <time>2020-07-15T20:44:21.094Z</time>
      </trkpt>
      <trkpt lat="68.42437" lon="14.67158">
        <ele>8.367639</ele>
        <time>2020-07-15T20:44:22.580Z</time>
      </trkpt>
      <trkpt lat="68.4234" lon="14.67259">
        <ele>7.092128</ele>
        <time>2020-07-15T20:44:37.905Z</time>
      </trkpt>
      <trkpt lat="68.42303" lon="14.67299">
        <ele>6.524488</ele>
        <time>2020-07-15T20:44:43.680Z</time>
      </trkpt>
      <trkpt lat="68.42266" lon="14.67339">
        <ele>5.96773</ele>
        <time>2020-07-15T20:44:49.557Z</time>
      </trkpt>
      <trkpt lat="68.42248" lon="14.67358">
        <ele>5.691589</ele>
        <time>2020-07-15T20:44:52.477Z</time>
      </trkpt>
      <trkpt lat="68.42172" lon="14.67439">
        <ele>4.820316</ele>
        <time>2020-07-15T20:45:04.890Z</time>
      </trkpt>
      <trkpt lat="68.4215" lon="14.67462">
        <ele>4.674777</ele>
        <time>2020-07-15T20:45:08.528Z</time>
      </trkpt>
      <trkpt lat="68.42091" lon="14.67516">
        <ele>4.278313</ele>
        <time>2020-07-15T20:45:18.719Z</time>
      </trkpt>
      <trkpt lat="68.42026" lon="14.67558">
        <ele>3.890545</ele>
        <time>2020-07-15T20:45:30.058Z</time>
      </trkpt>
      <trkpt lat="68.4202" lon="14.67562">
        <ele>3.881027</ele>
        <time>2020-07-15T20:45:31.006Z</time>
      </trkpt>
      <trkpt lat="68.42018" lon="14.67563">
        <ele>3.876262</ele>
        <time>2020-07-15T20:45:31.479Z</time>
      </trkpt>
      <trkpt lat="68.42015" lon="14.67565">
        <ele>3.87151</ele>
        <time>2020-07-15T20:45:31.958Z</time>
      </trkpt>
      <trkpt lat="68.41931" lon="14.67618">
        <ele>3.723311</ele>
        <time>2020-07-15T20:45:46.924Z</time>
      </trkpt>
      <trkpt lat="68.41653" lon="14.67793">
        <ele>3.39659</ele>
        <time>2020-07-15T20:46:36.649Z</time>
      </trkpt>
      <trkpt lat="68.41599" lon="14.67822">
        <ele>3.46673</ele>
        <time>2020-07-15T20:46:46.797Z</time>
      </trkpt>
      <trkpt lat="68.4158" lon="14.67831">
        <ele>3.490371</ele>
        <time>2020-07-15T20:46:50.340Z</time>
      </trkpt>
      <trkpt lat="68.41382" lon="14.67908">
        <ele>3.614125</ele>
        <time>2020-07-15T20:47:27.480Z</time>
      </trkpt>
      <trkpt lat="68.41376" lon="14.67909">
        <ele>3.615772</ele>
        <time>2020-07-15T20:47:28.774Z</time>
      </trkpt>
      <trkpt lat="68.41286" lon="14.67913">
        <ele>3.305947</ele>
        <time>2020-07-15T20:47:43.744Z</time>
      </trkpt>
      <trkpt lat="68.41054" lon="14.67912">
        <ele>1.538089</ele>
        <time>2020-07-15T20:48:19.976Z</time>
      </trkpt>
      <trkpt lat="68.40992" lon="14.67852">
        <ele>1.038211</ele>
        <time>2020-07-15T20:48:30.487Z</time>
      </trkpt>
      <trkpt lat="68.40835" lon="14.67659">
        <ele>0.538658</ele>
        <time>2020-07-15T20:48:59.740Z</time>
      </trkpt>
      <trkpt lat="68.40803" lon="14.6762">
        <ele>0.513409</ele>
        <time>2020-07-15T20:49:05.991Z</time>
      </trkpt>
      <trkpt lat="68.40795" lon="14.67611">
        <ele>0.555823</ele>
        <time>2020-07-15T20:49:07.628Z</time>
      </trkpt>
      <trkpt lat="68.40613" lon="14.67392">
        <ele>1.667287</ele>
        <time>2020-07-15T20:49:46.742Z</time>
      </trkpt>
      <trkpt lat="68.40524" lon="14.67309">
        <ele>2.523315</ele>
        <time>2020-07-15T20:50:06.653Z</time>
      </trkpt>
      <trkpt lat="68.40481" lon="14.67288">
        <ele>2.924891</ele>
        <time>2020-07-15T20:50:15.947Z</time>
      </trkpt>
      <trkpt lat="68.40435" lon="14.67285">
        <ele>3.241782</ele>
        <time>2020-07-15T20:50:25.593Z</time>
      </trkpt>
      <trkpt lat="68.40402" lon="14.67297">
        <ele>3.457983</ele>
        <time>2020-07-15T20:50:32.382Z</time>
      </trkpt>
      <trkpt lat="68.40361" lon="14.67331">
        <ele>3.73917</ele>
        <time>2020-07-15T20:50:41.037Z</time>
      </trkpt>
      <trkpt lat="68.39784" lon="14.67986">
        <ele>5.593229</ele>
        <time>2020-07-15T20:52:37.970Z</time>
      </trkpt>
      <trkpt lat="68.39762" lon="14.68028">
        <ele>5.637271</ele>
        <time>2020-07-15T20:52:43.023Z</time>
      </trkpt>
      <trkpt lat="68.39744" lon="14.68083">
        <ele>5.680719</ele>
        <time>2020-07-15T20:52:48.022Z</time>
      </trkpt>
      <trkpt lat="68.39684" lon="14.68429">
        <ele>5.752086</ele>
        <time>2020-07-15T20:53:13.719Z</time>
      </trkpt>
      <trkpt lat="68.3965" lon="14.68525">
        <ele>5.62052</ele>
        <time>2020-07-15T20:53:22.013Z</time>
      </trkpt>
      <trkpt lat="68.39539" lon="14.6872">
        <ele>5.146788</ele>
        <time>2020-07-15T20:53:44.125Z</time>
      </trkpt>
      <trkpt lat="68.39445" lon="14.68839">
        <ele>4.565599</ele>
        <time>2020-07-15T20:54:00.879Z</time>
      </trkpt>
      <trkpt lat="68.39361" lon="14.68929">
        <ele>4.043402</ele>
        <time>2020-07-15T20:54:15.668Z</time>
      </trkpt>
      <trkpt lat="68.39326" lon="14.68999">
        <ele>3.793268</ele>
        <time>2020-07-15T20:54:22.773Z</time>
      </trkpt>
      <trkpt lat="68.39323" lon="14.69006">
        <ele>3.771905</ele>
        <time>2020-07-15T20:54:23.341Z</time>
      </trkpt>
      <trkpt lat="68.39322" lon="14.6901">
        <ele>3.758996</ele>
        <time>2020-07-15T20:54:23.682Z</time>
      </trkpt>
      <trkpt lat="68.3932" lon="14.69014">
        <ele>3.747207</ele>
        <time>2020-07-15T20:54:23.997Z</time>
      </trkpt>
      <trkpt lat="68.39314" lon="14.6903">
        <ele>3.698423</ele>
        <time>2020-07-15T20:54:25.344Z</time>
      </trkpt>
      <trkpt lat="68.39227" lon="14.6926">
        <ele>3.042349</ele>
        <time>2020-07-15T20:54:45.224Z</time>
      </trkpt>
      <trkpt lat="68.39205" lon="14.69305">
        <ele>2.90947</ele>
        <time>2020-07-15T20:54:49.582Z</time>
      </trkpt>
      <trkpt lat="68.39072" lon="14.69518">
        <ele>2.526863</ele>
        <time>2020-07-15T20:55:15.475Z</time>
      </trkpt>
      <trkpt lat="68.38999" lon="14.69658">
        <ele>2.68211</ele>
        <time>2020-07-15T20:55:31.521Z</time>
      </trkpt>
      <trkpt lat="68.38908" lon="14.69726">
        <ele>4.147857</ele>
        <time>2020-07-15T20:55:51.956Z</time>
      </trkpt>
      <trkpt lat="68.38853" lon="14.69802">
        <ele>5.628281</ele>
        <time>2020-07-15T20:56:08.141Z</time>
      </trkpt>
      <trkpt lat="68.38812" lon="14.69874">
        <ele>6.773595</ele>
        <time>2020-07-15T20:56:21.907Z</time>
      </trkpt>
      <trkpt lat="68.38778" lon="14.6997">
        <ele>8.471842</ele>
        <time>2020-07-15T20:56:36.841Z</time>
      </trkpt>
      <trkpt lat="68.38738" lon="14.70163">
        <ele>11.476724</ele>
        <time>2020-07-15T20:57:01.980Z</time>
      </trkpt>
      <trkpt lat="68.38717" lon="14.70299">
        <ele>13.4824</ele>
        <time>2020-07-15T20:57:18.350Z</time>
      </trkpt>
      <trkpt lat="68.38701" lon="14.70635">
        <ele>16.385204</ele>
        <time>2020-07-15T20:57:50.750Z</time>
      </trkpt>
      <trkpt lat="68.38692" lon="14.70748">
        <ele>17.362096</ele>
        <time>2020-07-15T20:58:00.532Z</time>
      </trkpt>
      <trkpt lat="68.38635" lon="14.70997">
        <ele>18.29253</ele>
        <time>2020-07-15T20:58:23.769Z</time>
      </trkpt>
      <trkpt lat="68.38626" lon="14.71067">
        <ele>18.457359</ele>
        <time>2020-07-15T20:58:29.341Z</time>
      </trkpt>
      <trkpt lat="68.38623" lon="14.71134">
        <ele>18.608201</ele>
        <time>2020-07-15T20:58:34.109Z</time>
      </trkpt>
      <trkpt lat="68.3863" lon="14.71214">
        <ele>18.788922</ele>
        <time>2020-07-15T20:58:38.963Z</time>
      </trkpt>
      <trkpt lat="68.38642" lon="14.71272">
        <ele>18.532379</ele>
        <time>2020-07-15T20:58:42.952Z</time>
      </trkpt>
      <trkpt lat="68.38672" lon="14.71366">
        <ele>17.750808</ele>
        <time>2020-07-15T20:58:50.041Z</time>
      </trkpt>
      <trkpt lat="68.38676" lon="14.71377">
        <ele>17.658383</ele>
        <time>2020-07-15T20:58:51.182Z</time>
      </trkpt>
      <trkpt lat="68.38722" lon="14.71512">
        <ele>16.506864</ele>
        <time>2020-07-15T20:59:00.791Z</time>
      </trkpt>
      <trkpt lat="68.38849" lon="14.71898">
        <ele>12.250855</ele>
        <time>2020-07-15T20:59:26.134Z</time>
      </trkpt>
      <trkpt lat="68.38854" lon="14.71911">
        <ele>12.085363</ele>
        <time>2020-07-15T20:59:27.008Z</time>
      </trkpt>
      <trkpt lat="68.38856" lon="14.71917">
        <ele>12.009089</ele>
        <time>2020-07-15T20:59:27.504Z</time>
      </trkpt>
      <trkpt lat="68.38858" lon="14.71923">
        <ele>11.941545</ele>
        <time>2020-07-15T20:59:27.925Z</time>
      </trkpt>
      <trkpt lat="68.38869" lon="14.71957">
        <ele>11.54948</ele>
        <time>2020-07-15T20:59:30.830Z</time>
      </trkpt>
      <trkpt lat="68.38881" lon="14.71989">
        <ele>11.674466</ele>
        <time>2020-07-15T20:59:33.177Z</time>
      </trkpt>
      <trkpt lat="68.38895" lon="14.72029">
        <ele>11.940685</ele>
        <time>2020-07-15T20:59:37.667Z</time>
      </trkpt>
      <trkpt lat="68.38906" lon="14.72054">
        <ele>12.121693</ele>
        <time>2020-07-15T20:59:40.030Z</time>
      </trkpt>
      <trkpt lat="68.38921" lon="14.72084">
        <ele>12.357419</ele>
        <time>2020-07-15T20:59:44.093Z</time>
      </trkpt>
      <trkpt lat="68.38943" lon="14.72122">
        <ele>12.68696</ele>
        <time>2020-07-15T20:59:49.352Z</time>
      </trkpt>
      <trkpt lat="68.38953" lon="14.72138">
        <ele>12.837129</ele>
        <time>2020-07-15T20:59:52.681Z</time>
      </trkpt>
      <trkpt lat="68.38989" lon="14.72165">
        <ele>13.30959</ele>
        <time>2020-07-15T21:00:01.765Z</time>
      </trkpt>
      <trkpt lat="68.39019" lon="14.72159">
        <ele>13.689897</ele>
        <time>2020-07-15T21:00:09.426Z</time>
      </trkpt>
      <trkpt lat="68.39024" lon="14.72157">
        <ele>13.764175</ele>
        <time>2020-07-15T21:00:11.525Z</time>
      </trkpt>
      <trkpt lat="68.3904" lon="14.72153">
        <ele>14.172649</ele>
        <time>2020-07-15T21:00:15.796Z</time>
      </trkpt>
      <trkpt lat="68.39096" lon="14.7213">
        <ele>15.756711</ele>
        <time>2020-07-15T21:00:31.948Z</time>
      </trkpt>
      <trkpt lat="68.39189" lon="14.72055">
        <ele>18.453279</ele>
        <time>2020-07-15T21:00:57.964Z</time>
      </trkpt>
      <trkpt lat="68.39408" lon="14.71767">
        <ele>22.577005</ele>
        <time>2020-07-15T21:01:56.639Z</time>
      </trkpt>
      <trkpt lat="68.39442" lon="14.71696">
        <ele>22.760437</ele>
        <time>2020-07-15T21:02:05.151Z</time>
      </trkpt>
      <trkpt lat="68.39485" lon="14.71528">
        <ele>23.08505</ele>
        <time>2020-07-15T21:02:17.824Z</time>
      </trkpt>
      <trkpt lat="68.39512" lon="14.71478">
        <ele>22.833111</ele>
        <time>2020-07-15T21:02:22.779Z</time>
      </trkpt>
      <trkpt lat="68.39604" lon="14.71417">
        <ele>21.581933</ele>
        <time>2020-07-15T21:02:36.585Z</time>
      </trkpt>
      <trkpt lat="68.39818" lon="14.71111">
        <ele>18.617072</ele>
        <time>2020-07-15T21:03:12.862Z</time>
      </trkpt>
      <trkpt lat="68.40064" lon="14.70874">
        <ele>18.421448</ele>
        <time>2020-07-15T21:03:59.533Z</time>
      </trkpt>
      <trkpt lat="68.40109" lon="14.70848">
        <ele>18.451431</ele>
        <time>2020-07-15T21:04:08.231Z</time>
      </trkpt>
      <trkpt lat="68.40197" lon="14.70816">
        <ele>18.278261</ele>
        <time>2020-07-15T21:04:24.117Z</time>
      </trkpt>
      <trkpt lat="68.40224" lon="14.70806">
        <ele>18.114877</ele>
        <time>2020-07-15T21:04:28.704Z</time>
      </trkpt>
      <trkpt lat="68.40304" lon="14.70762">
        <ele>17.633887</ele>
        <time>2020-07-15T21:04:41.597Z</time>
      </trkpt>
      <trkpt lat="68.40505" lon="14.70595">
        <ele>16.217535</ele>
        <time>2020-07-15T21:05:14.233Z</time>
      </trkpt>
      <trkpt lat="68.40548" lon="14.70575">
        <ele>16.814287</ele>
        <time>2020-07-15T21:05:23.225Z</time>
      </trkpt>
      <trkpt lat="68.40575" lon="14.70575">
        <ele>17.266415</ele>
        <time>2020-07-15T21:05:29.437Z</time>
      </trkpt>
      <trkpt lat="68.40612" lon="14.70596">
        <ele>17.890296</ele>
        <time>2020-07-15T21:05:38.679Z</time>
      </trkpt>
      <trkpt lat="68.40722" lon="14.70755">
        <ele>19.479766</ele>
        <time>2020-07-15T21:06:10.884Z</time>
      </trkpt>
      <trkpt lat="68.40763" lon="14.70783">
        <ele>19.764864</ele>
        <time>2020-07-15T21:06:20.311Z</time>
      </trkpt>
      <trkpt lat="68.40793" lon="14.70774">
        <ele>19.963416</ele>
        <time>2020-07-15T21:06:26.254Z</time>
      </trkpt>
      <trkpt lat="68.40927" lon="14.7069">
        <ele>18.900021</ele>
        <time>2020-07-15T21:06:47.034Z</time>
      </trkpt>
      <trkpt lat="68.41189" lon="14.70561">
        <ele>14.142016</ele>
        <time>2020-07-15T21:07:23.685Z</time>
      </trkpt>
      <trkpt lat="68.41224" lon="14.70566">
        <ele>14.221259</ele>
        <time>2020-07-15T21:07:30.346Z</time>
      </trkpt>
      <trkpt lat="68.41357" lon="14.70644">
        <ele>16.611818</ele>
        <time>2020-07-15T21:08:04.680Z</time>
      </trkpt>
      <trkpt lat="68.41432" lon="14.70675">
        <ele>17.51037</ele>
        <time>2020-07-15T21:08:24.680Z</time>
      </trkpt>
      <trkpt lat="68.41501" lon="14.7069">
        <ele>18.155048</ele>
        <time>2020-07-15T21:08:40.098Z</time>
      </trkpt>
      <trkpt lat="68.41634" lon="14.70652">
        <ele>17.463124</ele>
        <time>2020-07-15T21:09:00.721Z</time>
      </trkpt>
      <trkpt lat="68.41763" lon="14.70594">
        <ele>15.496201</ele>
        <time>2020-07-15T21:09:18.789Z</time>
      </trkpt>
      <trkpt lat="68.41842" lon="14.70545">
        <ele>14.834311</ele>
        <time>2020-07-15T21:09:31.043Z</time>
      </trkpt>
      <trkpt lat="68.41846" lon="14.70542">
        <ele>14.794789</ele>
        <time>2020-07-15T21:09:31.785Z</time>
      </trkpt>
      <trkpt lat="68.41881" lon="14.70521">
        <ele>14.500601</ele>
        <time>2020-07-15T21:09:37.875Z</time>
      </trkpt>
      <trkpt lat="68.41945" lon="14.70499">
        <ele>14.660679</ele>
        <time>2020-07-15T21:09:50.255Z</time>
      </trkpt>
      <trkpt lat="68.42063" lon="14.70511">
        <ele>16.308328</ele>
        <time>2020-07-15T21:10:17.122Z</time>
      </trkpt>
      <trkpt lat="68.42108" lon="14.70511">
        <ele>17.185968</ele>
        <time>2020-07-15T21:10:28.126Z</time>
      </trkpt>
      <trkpt lat="68.42166" lon="14.70511">
        <ele>18.977949</ele>
        <time>2020-07-15T21:10:42.895Z</time>
      </trkpt>
      <trkpt lat="68.42306" lon="14.70539">
        <ele>23.628449</ele>
        <time>2020-07-15T21:11:24.309Z</time>
      </trkpt>
      <trkpt lat="68.4235" lon="14.70559">
        <ele>25.454499</ele>
        <time>2020-07-15T21:11:38.935Z</time>
      </trkpt>
      <trkpt lat="68.42397" lon="14.70597">
        <ele>27.437339</ele>
        <time>2020-07-15T21:11:54.262Z</time>
      </trkpt>
      <trkpt lat="68.42405" lon="14.70605">
        <ele>27.795371</ele>
        <time>2020-07-15T21:11:57.672Z</time>
      </trkpt>
      <trkpt lat="68.42439" lon="14.70639">
        <ele>29.25404</ele>
        <time>2020-07-15T21:12:08.591Z</time>
      </trkpt>
      <trkpt lat="68.42508" lon="14.70719">
        <ele>30.765998</ele>
        <time>2020-07-15T21:12:30.178Z</time>
      </trkpt>
      <trkpt lat="68.42649" lon="14.70851">
        <ele>32.243539</ele>
        <time>2020-07-15T21:13:00.423Z</time>
      </trkpt>
      <trkpt lat="68.42786" lon="14.71114">
        <ele>29.692853</ele>
        <time>2020-07-15T21:13:24.233Z</time>
      </trkpt>
      <trkpt lat="68.42823" lon="14.71186">
        <ele>28.430703</ele>
        <time>2020-07-15T21:13:30.366Z</time>
      </trkpt>
      <trkpt lat="68.42862" lon="14.71256">
        <ele>27.151073</ele>
        <time>2020-07-15T21:13:36.497Z</time>
      </trkpt>
      <trkpt lat="68.43012" lon="14.71495">
        <ele>22.779338</ele>
        <time>2020-07-15T21:13:59.730Z</time>
      </trkpt>
      <trkpt lat="68.4308" lon="14.7164">
        <ele>20.732917</ele>
        <time>2020-07-15T21:14:12.162Z</time>
      </trkpt>
      <trkpt lat="68.43124" lon="14.71752">
        <ele>19.37552</ele>
        <time>2020-07-15T21:14:20.846Z</time>
      </trkpt>
      <trkpt lat="68.43159" lon="14.71905">
        <ele>17.871779</ele>
        <time>2020-07-15T21:14:29.982Z</time>
      </trkpt>
      <trkpt lat="68.4321" lon="14.72024">
        <ele>16.09546</ele>
        <time>2020-07-15T21:14:38.933Z</time>
      </trkpt>
      <trkpt lat="68.43229" lon="14.72069">
        <ele>15.309356</ele>
        <time>2020-07-15T21:14:42.236Z</time>
      </trkpt>
      <trkpt lat="68.43268" lon="14.7216">
        <ele>13.72922</ele>
        <time>2020-07-15T21:14:48.866Z</time>
      </trkpt>
      <trkpt lat="68.43323" lon="14.72307">
        <ele>11.348161</ele>
        <time>2020-07-15T21:14:58.847Z</time>
      </trkpt>
      <trkpt lat="68.43431" lon="14.72773">
        <ele>6.753211</ele>
        <time>2020-07-15T21:15:26.632Z</time>
      </trkpt>
      <trkpt lat="68.43439" lon="14.72799">
        <ele>6.668574</ele>
        <time>2020-07-15T21:15:28.453Z</time>
      </trkpt>
      <trkpt lat="68.43469" lon="14.72886">
        <ele>6.371979</ele>
        <time>2020-07-15T21:15:35.495Z</time>
      </trkpt>
      <trkpt lat="68.43477" lon="14.72908">
        <ele>6.296175</ele>
        <time>2020-07-15T21:15:37.389Z</time>
      </trkpt>
      <trkpt lat="68.43479" lon="14.72914">
        <ele>6.273813</ele>
        <time>2020-07-15T21:15:37.961Z</time>
      </trkpt>
      <trkpt lat="68.43482" lon="14.72919">
        <ele>6.251772</ele>
        <time>2020-07-15T21:15:38.474Z</time>
      </trkpt>
      <trkpt lat="68.43494" lon="14.72958">
        <ele>6.123522</ele>
        <time>2020-07-15T21:15:41.771Z</time>
      </trkpt>
      <trkpt lat="68.43507" lon="14.73028">
        <ele>5.926953</ele>
        <time>2020-07-15T21:15:46.859Z</time>
      </trkpt>
      <trkpt lat="68.4351" lon="14.73098">
        <ele>5.7504</ele>
        <time>2020-07-15T21:15:51.725Z</time>
      </trkpt>
      <trkpt lat="68.43509" lon="14.73206">
        <ele>5.712131</ele>
        <time>2020-07-15T21:15:59.200Z</time>
      </trkpt>
      <trkpt lat="68.43507" lon="14.73387">
        <ele>5.71389</ele>
        <time>2020-07-15T21:16:11.867Z</time>
      </trkpt>
      <trkpt lat="68.43503" lon="14.73708">
        <ele>5.628266</ele>
        <time>2020-07-15T21:16:31.936Z</time>
      </trkpt>
      <trkpt lat="68.43503" lon="14.73813">
        <ele>5.539843</ele>
        <time>2020-07-15T21:16:38.281Z</time>
      </trkpt>
      <trkpt lat="68.43502" lon="14.73935">
        <ele>5.43767</ele>
        <time>2020-07-15T21:16:45.720Z</time>
      </trkpt>
      <trkpt lat="68.435" lon="14.7397">
        <ele>5.408735</ele>
        <time>2020-07-15T21:16:47.835Z</time>
      </trkpt>
      <trkpt lat="68.43499" lon="14.74065">
        <ele>5.328579</ele>
        <time>2020-07-15T21:16:54.074Z</time>
      </trkpt>
      <trkpt lat="68.43495" lon="14.74138">
        <ele>5.415648</ele>
        <time>2020-07-15T21:16:59.093Z</time>
      </trkpt>
      <trkpt lat="68.43492" lon="14.7417">
        <ele>5.49187</ele>
        <time>2020-07-15T21:17:01.436Z</time>
      </trkpt>
      <trkpt lat="68.43488" lon="14.74209">
        <ele>5.588115</ele>
        <time>2020-07-15T21:17:04.356Z</time>
      </trkpt>
      <trkpt lat="68.43483" lon="14.74257">
        <ele>5.704645</ele>
        <time>2020-07-15T21:17:07.966Z</time>
      </trkpt>
      <trkpt lat="68.4347" lon="14.74362">
        <ele>5.965285</ele>
        <time>2020-07-15T21:17:16.274Z</time>
      </trkpt>
      <trkpt lat="68.43462" lon="14.74419">
        <ele>6.107435</ele>
        <time>2020-07-15T21:17:20.853Z</time>
      </trkpt>
      <trkpt lat="68.43461" lon="14.74427">
        <ele>6.125744</ele>
        <time>2020-07-15T21:17:21.499Z</time>
      </trkpt>
      <trkpt lat="68.43458" lon="14.74456">
        <ele>6.196147</ele>
        <time>2020-07-15T21:17:23.831Z</time>
      </trkpt>
      <trkpt lat="68.43455" lon="14.74491">
        <ele>6.281774</ele>
        <time>2020-07-15T21:17:26.565Z</time>
      </trkpt>
      <trkpt lat="68.43454" lon="14.74525">
        <ele>6.360391</ele>
        <time>2020-07-15T21:17:29.172Z</time>
      </trkpt>
      <trkpt lat="68.43455" lon="14.7461">
        <ele>6.564826</ele>
        <time>2020-07-15T21:17:35.654Z</time>
      </trkpt>
      <trkpt lat="68.43454" lon="14.74691">
        <ele>6.761433</ele>
        <time>2020-07-15T21:17:41.746Z</time>
      </trkpt>
      <trkpt lat="68.43453" lon="14.74776">
        <ele>6.96971</ele>
        <time>2020-07-15T21:17:48.142Z</time>
      </trkpt>
      <trkpt lat="68.43421" lon="14.75018">
        <ele>7.596054</ele>
        <time>2020-07-15T21:18:07.079Z</time>
      </trkpt>
      <trkpt lat="68.43423" lon="14.75229">
        <ele>7.754698</ele>
        <time>2020-07-15T21:18:21.530Z</time>
      </trkpt>
      <trkpt lat="68.43422" lon="14.75272">
        <ele>7.779402</ele>
        <time>2020-07-15T21:18:24.293Z</time>
      </trkpt>
      <trkpt lat="68.4342" lon="14.7532">
        <ele>7.807436</ele>
        <time>2020-07-15T21:18:27.579Z</time>
      </trkpt>
      <trkpt lat="68.43411" lon="14.75441">
        <ele>7.878685</ele>
        <time>2020-07-15T21:18:35.660Z</time>
      </trkpt>
      <trkpt lat="68.43404" lon="14.75499">
        <ele>7.913712</ele>
        <time>2020-07-15T21:18:39.671Z</time>
      </trkpt>
      <trkpt lat="68.43392" lon="14.75658">
        <ele>7.83354</ele>
        <time>2020-07-15T21:18:50.436Z</time>
      </trkpt>
      <trkpt lat="68.43373" lon="14.75852">
        <ele>7.699732</ele>
        <time>2020-07-15T21:19:03.092Z</time>
      </trkpt>
      <trkpt lat="68.43369" lon="14.76012">
        <ele>7.594067</ele>
        <time>2020-07-15T21:19:12.742Z</time>
      </trkpt>
      <trkpt lat="68.43369" lon="14.76036">
        <ele>7.579761</ele>
        <time>2020-07-15T21:19:14.441Z</time>
      </trkpt>
      <trkpt lat="68.43367" lon="14.76304">
        <ele>7.423908</ele>
        <time>2020-07-15T21:19:31.610Z</time>
      </trkpt>
      <trkpt lat="68.43366" lon="14.7658">
        <ele>7.378006</ele>
        <time>2020-07-15T21:19:49.256Z</time>
      </trkpt>
      <trkpt lat="68.43366" lon="14.76603">
        <ele>7.394001</ele>
        <time>2020-07-15T21:19:51.111Z</time>
      </trkpt>
      <trkpt lat="68.43364" lon="14.76666">
        <ele>7.437667</ele>
        <time>2020-07-15T21:19:55.057Z</time>
      </trkpt>
      <trkpt lat="68.43359" lon="14.7686">
        <ele>7.572222</ele>
        <time>2020-07-15T21:20:08.583Z</time>
      </trkpt>
      <trkpt lat="68.43318" lon="14.77239">
        <ele>8.143683</ele>
        <time>2020-07-15T21:20:36.245Z</time>
      </trkpt>
      <trkpt lat="68.43308" lon="14.77383">
        <ele>8.404619</ele>
        <time>2020-07-15T21:20:46.781Z</time>
      </trkpt>
      <trkpt lat="68.43307" lon="14.77546">
        <ele>8.913281</ele>
        <time>2020-07-15T21:20:58.665Z</time>
      </trkpt>
      <trkpt lat="68.43323" lon="14.7812">
        <ele>11.881164</ele>
        <time>2020-07-15T21:21:44.898Z</time>
      </trkpt>
      <trkpt lat="68.43321" lon="14.78189">
        <ele>12.411321</ele>
        <time>2020-07-15T21:21:51.323Z</time>
      </trkpt>
      <trkpt lat="68.43309" lon="14.78333">
        <ele>13.540544</ele>
        <time>2020-07-15T21:22:05.416Z</time>
      </trkpt>
      <trkpt lat="68.43271" lon="14.7861">
        <ele>15.851499</ele>
        <time>2020-07-15T21:22:34.563Z</time>
      </trkpt>
      <trkpt lat="68.43252" lon="14.78936">
        <ele>18.185596</ele>
        <time>2020-07-15T21:23:03.853Z</time>
      </trkpt>
      <trkpt lat="68.4321" lon="14.79754">
        <ele>19.320894</ele>
        <time>2020-07-15T21:24:00.105Z</time>
      </trkpt>
      <trkpt lat="68.43223" lon="14.8007">
        <ele>19.306483</ele>
        <time>2020-07-15T21:24:21.946Z</time>
      </trkpt>
      <trkpt lat="68.43223" lon="14.80216">
        <ele>19.23977</ele>
        <time>2020-07-15T21:24:31.707Z</time>
      </trkpt>
      <trkpt lat="68.43158" lon="14.81103">
        <ele>16.205263</ele>
        <time>2020-07-15T21:25:23.423Z</time>
      </trkpt>
      <trkpt lat="68.43145" lon="14.81288">
        <ele>15.343783</ele>
        <time>2020-07-15T21:25:33.666Z</time>
      </trkpt>
      <trkpt lat="68.43125" lon="14.81553">
        <ele>13.461598</ele>
        <time>2020-07-15T21:25:47.976Z</time>
      </trkpt>
      <trkpt lat="68.43102" lon="14.81792">
        <ele>11.641031</ele>
        <time>2020-07-15T21:26:00.849Z</time>
      </trkpt>
      <trkpt lat="68.43084" lon="14.81895">
        <ele>10.155067</ele>
        <time>2020-07-15T21:26:06.499Z</time>
      </trkpt>
      <trkpt lat="68.43066" lon="14.81949">
        <ele>9.208092</ele>
        <time>2020-07-15T21:26:09.965Z</time>
      </trkpt>
      <trkpt lat="68.43041" lon="14.81987">
        <ele>8.193826</ele>
        <time>2020-07-15T21:26:13.485Z</time>
      </trkpt>
      <trkpt lat="68.43015" lon="14.81999">
        <ele>7.267698</ele>
        <time>2020-07-15T21:26:16.699Z</time>
      </trkpt>
      <trkpt lat="68.42957" lon="14.81983">
        <ele>5.246091</ele>
        <time>2020-07-15T21:26:24.223Z</time>
      </trkpt>
      <trkpt lat="68.42921" lon="14.81958">
        <ele>4.290962</ele>
        <time>2020-07-15T21:26:29.014Z</time>
      </trkpt>
      <trkpt lat="68.42917" lon="14.81963">
        <ele>4.187401</ele>
        <time>2020-07-15T21:26:29.459Z</time>
      </trkpt>
      <trkpt lat="68.42912" lon="14.81975">
        <ele>4.010739</ele>
        <time>2020-07-15T21:26:30.425Z</time>
      </trkpt>
      <trkpt lat="68.4291" lon="14.81987">
        <ele>3.888446</ele>
        <time>2020-07-15T21:26:31.095Z</time>
      </trkpt>
      <trkpt lat="68.42929" lon="14.81998">
        <ele>3.380768</ele>
        <time>2020-07-15T21:26:33.861Z</time>
      </trkpt>
      <trkpt lat="68.42945" lon="14.82016">
        <ele>2.94794</ele>
        <time>2020-07-15T21:26:36.008Z</time>
      </trkpt>
      <trkpt lat="68.42954" lon="14.82032">
        <ele>2.674013</ele>
        <time>2020-07-15T21:26:37.561Z</time>
      </trkpt>
      <trkpt lat="68.43001" lon="14.82133">
        <ele>1.113998</ele>
        <time>2020-07-15T21:26:45.963Z</time>
      </trkpt>
      <trkpt lat="68.43067" lon="14.82289">
        <ele>0.485744</ele>
        <time>2020-07-15T21:27:00.228Z</time>
      </trkpt>
      <trkpt lat="68.43082" lon="14.82334">
        <ele>0.392103</ele>
        <time>2020-07-15T21:27:04.240Z</time>
      </trkpt>
      <trkpt lat="68.43085" lon="14.82352">
        <ele>0.362406</ele>
        <time>2020-07-15T21:27:05.537Z</time>
      </trkpt>
      <trkpt lat="68.43086" lon="14.82403">
        <ele>0.28436</ele>
        <time>2020-07-15T21:27:08.883Z</time>
      </trkpt>
      <trkpt lat="68.43087" lon="14.82418">
        <ele>0.261691</ele>
        <time>2020-07-15T21:27:09.847Z</time>
      </trkpt>
      <trkpt lat="68.43091" lon="14.82439">
        <ele>0.226816</ele>
        <time>2020-07-15T21:27:11.336Z</time>
      </trkpt>
      <trkpt lat="68.43127" lon="14.82642">
        <ele>0.038252</ele>
        <time>2020-07-15T21:27:22.891Z</time>
      </trkpt>
      <trkpt lat="68.43166" lon="14.82832">
        <ele>0.016259</ele>
        <time>2020-07-15T21:27:34.117Z</time>
      </trkpt>
      <trkpt lat="68.43454" lon="14.83493">
        <time>2020-07-15T21:28:26.610Z</time>
      </trkpt>
      <trkpt lat="68.43662" lon="14.83874">
        <time>2020-07-15T21:29:01.649Z</time>
      </trkpt>
      <trkpt lat="68.43861" lon="14.84054">
        <time>2020-07-15T21:29:30.874Z</time>
      </trkpt>
      <trkpt lat="68.44072" lon="14.84065">
        <time>2020-07-15T21:30:00.249Z</time>
      </trkpt>
      <trkpt lat="68.45274" lon="14.8341">
        <time>2020-07-15T21:32:51.107Z</time>
      </trkpt>
      <trkpt lat="68.46569" lon="14.82627">
        <time>2020-07-15T21:35:56.140Z</time>
      </trkpt>
      <trkpt lat="68.48647" lon="14.8145">
        <ele>0.023121</ele>
        <time>2020-07-15T21:40:52.038Z</time>
      </trkpt>
      <trkpt lat="68.49267" lon="14.81119">
        <ele>0.201548</ele>
        <time>2020-07-15T21:42:20.120Z</time>
      </trkpt>
      <trkpt lat="68.49523" lon="14.80996">
        <ele>0.267641</ele>
        <time>2020-07-15T21:42:56.359Z</time>
      </trkpt>
      <trkpt lat="68.49613" lon="14.80926">
        <ele>0.265666</ele>
        <time>2020-07-15T21:43:09.404Z</time>
      </trkpt>
      <trkpt lat="68.49739" lon="14.80699">
        <ele>0.109493</ele>
        <time>2020-07-15T21:43:30.479Z</time>
      </trkpt>
      <trkpt lat="68.49813" lon="14.80486">
        <ele>0.055885</ele>
        <time>2020-07-15T21:43:45.473Z</time>
      </trkpt>
      <trkpt lat="68.49846" lon="14.8033">
        <ele>0.042085</ele>
        <time>2020-07-15T21:43:54.691Z</time>
      </trkpt>
      <trkpt lat="68.49863" lon="14.80132">
        <ele>0.102467</ele>
        <time>2020-07-15T21:44:05.096Z</time>
      </trkpt>
      <trkpt lat="68.49866" lon="14.80096">
        <ele>0.13171</ele>
        <time>2020-07-15T21:44:07.643Z</time>
      </trkpt>
      <trkpt lat="68.4987" lon="14.80046">
        <ele>0.171057</ele>
        <time>2020-07-15T21:44:11.093Z</time>
      </trkpt>
      <trkpt lat="68.49872" lon="14.79867">
        <ele>0.310134</ele>
        <time>2020-07-15T21:44:23.467Z</time>
      </trkpt>
      <trkpt lat="68.49873" lon="14.79853">
        <ele>0.321891</ele>
        <time>2020-07-15T21:44:24.510Z</time>
      </trkpt>
      <trkpt lat="68.4988" lon="14.79843">
        <ele>0.338658</ele>
        <time>2020-07-15T21:44:25.989Z</time>
      </trkpt>
      <trkpt lat="68.49847" lon="14.79594">
        <ele>0.452045</ele>
        <time>2020-07-15T21:44:44.144Z</time>
      </trkpt>
      <trkpt lat="68.49884" lon="14.79508">
        <ele>0.481466</ele>
        <time>2020-07-15T21:44:53.279Z</time>
      </trkpt>
      <trkpt lat="68.49891" lon="14.7949">
        <ele>0.48739</ele>
        <time>2020-07-15T21:44:55.130Z</time>
      </trkpt>
      <trkpt lat="68.49895" lon="14.79483">
        <ele>0.490266</ele>
        <time>2020-07-15T21:44:55.999Z</time>
      </trkpt>
      <trkpt lat="68.49981" lon="14.79438">
        <ele>0.456127</ele>
        <time>2020-07-15T21:45:11.839Z</time>
      </trkpt>
      <trkpt lat="68.50004" lon="14.79429">
        <ele>0.405119</ele>
        <time>2020-07-15T21:45:16.018Z</time>
      </trkpt>
      <trkpt lat="68.50015" lon="14.79422">
        <ele>0.381213</ele>
        <time>2020-07-15T21:45:17.980Z</time>
      </trkpt>
      <trkpt lat="68.50067" lon="14.79396">
        <ele>0.266366</ele>
        <time>2020-07-15T21:45:27.460Z</time>
      </trkpt>
      <trkpt lat="68.50076" lon="14.79391">
        <ele>0.247142</ele>
        <time>2020-07-15T21:45:29.012Z</time>
      </trkpt>
      <trkpt lat="68.50076" lon="14.7937">
        <ele>0.230652</ele>
        <time>2020-07-15T21:45:30.373Z</time>
      </trkpt>
      <trkpt lat="68.50072" lon="14.79079">
        <ele>0.197342</ele>
        <time>2020-07-15T21:45:49.664Z</time>
      </trkpt>
      <trkpt lat="68.50071" lon="14.79068">
        <ele>0.201118</ele>
        <time>2020-07-15T21:45:50.376Z</time>
      </trkpt>
      <trkpt lat="68.5007" lon="14.79055">
        <ele>0.205933</ele>
        <time>2020-07-15T21:45:51.291Z</time>
      </trkpt>
      <trkpt lat="68.50064" lon="14.78924">
        <ele>0.253233</ele>
        <time>2020-07-15T21:46:00.588Z</time>
      </trkpt>
      <trkpt lat="68.5006" lon="14.78855">
        <ele>0.278514</ele>
        <time>2020-07-15T21:46:05.548Z</time>
      </trkpt>
      <trkpt lat="68.50059" lon="14.78819">
        <ele>0.291424</ele>
        <time>2020-07-15T21:46:08.220Z</time>
      </trkpt>
      <trkpt lat="68.5005" lon="14.78708">
        <ele>0.429145</ele>
        <time>2020-07-15T21:46:16.362Z</time>
      </trkpt>
      <trkpt lat="68.50045" lon="14.78658">
        <ele>0.536835</ele>
        <time>2020-07-15T21:46:20.037Z</time>
      </trkpt>
      <trkpt lat="68.50048" lon="14.78658">
        <ele>0.55838</ele>
        <time>2020-07-15T21:46:20.912Z</time>
      </trkpt>
      <trkpt lat="68.50056" lon="14.78655">
        <ele>0.599023</ele>
        <time>2020-07-15T21:46:22.297Z</time>
      </trkpt>
      <trkpt lat="68.50116" lon="14.78624">
        <ele>0.948025</ele>
        <time>2020-07-15T21:46:34.436Z</time>
      </trkpt>
      <trkpt lat="68.50114" lon="14.78612">
        <ele>0.975536</ele>
        <time>2020-07-15T21:46:35.501Z</time>
      </trkpt>
      <trkpt lat="68.50083" lon="14.78485">
        <ele>1.292386</ele>
        <time>2020-07-15T21:46:46.537Z</time>
      </trkpt>
      <trkpt lat="68.50076" lon="14.78343">
        <ele>2.102449</ele>
        <time>2020-07-15T21:46:58.217Z</time>
      </trkpt>
      <trkpt lat="68.50068" lon="14.78281">
        <ele>2.506154</ele>
        <time>2020-07-15T21:47:03.285Z</time>
      </trkpt>
      <trkpt lat="68.50063" lon="14.78254">
        <ele>2.690229</ele>
        <time>2020-07-15T21:47:06.183Z</time>
      </trkpt>
      <trkpt lat="68.50061" lon="14.78237">
        <ele>2.806924</ele>
        <time>2020-07-15T21:47:07.804Z</time>
      </trkpt>
      <trkpt lat="68.50051" lon="14.78165">
        <ele>3.281841</ele>
        <time>2020-07-15T21:47:14.457Z</time>
      </trkpt>
      <trkpt lat="68.50046" lon="14.78127">
        <ele>3.530062</ele>
        <time>2020-07-15T21:47:17.744Z</time>
      </trkpt>
      <trkpt lat="68.50042" lon="14.78099">
        <ele>3.717964</ele>
        <time>2020-07-15T21:47:20.358Z</time>
      </trkpt>
      <trkpt lat="68.50038" lon="14.78066">
        <ele>3.931407</ele>
        <time>2020-07-15T21:47:23.931Z</time>
      </trkpt>
      <trkpt lat="68.50034" lon="14.78014">
        <ele>4.25916</ele>
        <time>2020-07-15T21:47:28.318Z</time>
      </trkpt>
      <trkpt lat="68.50034" lon="14.7798">
        <ele>4.47968</ele>
        <time>2020-07-15T21:47:31.766Z</time>
      </trkpt>
      <trkpt lat="68.50035" lon="14.77963">
        <ele>4.60227</ele>
        <time>2020-07-15T21:47:33.504Z</time>
      </trkpt>
      <trkpt lat="68.50037" lon="14.77893">
        <ele>5.098638</ele>
        <time>2020-07-15T21:47:39.793Z</time>
      </trkpt>
      <trkpt lat="68.50036" lon="14.77861">
        <ele>5.321625</ele>
        <time>2020-07-15T21:47:43.053Z</time>
      </trkpt>
      <trkpt lat="68.50029" lon="14.77779">
        <ele>5.91106</ele>
        <time>2020-07-15T21:47:50.798Z</time>
      </trkpt>
      <trkpt lat="68.50023" lon="14.77736">
        <ele>6.23854</ele>
        <time>2020-07-15T21:47:54.687Z</time>
      </trkpt>
      <trkpt lat="68.50018" lon="14.77696">
        <ele>6.537718</ele>
        <time>2020-07-15T21:47:58.818Z</time>
      </trkpt>
      <trkpt lat="68.50013" lon="14.77647">
        <ele>6.886726</ele>
        <time>2020-07-15T21:48:03.122Z</time>
      </trkpt>
      <trkpt lat="68.50011" lon="14.77618">
        <ele>7.097994</ele>
        <time>2020-07-15T21:48:05.685Z</time>
      </trkpt>
      <trkpt lat="68.5001" lon="14.77591">
        <ele>7.286923</ele>
        <time>2020-07-15T21:48:08.201Z</time>
      </trkpt>
      <trkpt lat="68.50009" lon="14.77568">
        <ele>7.450912</ele>
        <time>2020-07-15T21:48:10.224Z</time>
      </trkpt>
      <trkpt lat="68.50011" lon="14.77516">
        <ele>7.811921</ele>
        <time>2020-07-15T21:48:14.367Z</time>
      </trkpt>
      <trkpt lat="68.50014" lon="14.77472">
        <ele>7.774162</ele>
        <time>2020-07-15T21:48:18.060Z</time>
      </trkpt>
      <trkpt lat="68.50023" lon="14.77296">
        <ele>7.623079</ele>
        <time>2020-07-15T21:48:30.439Z</time>
      </trkpt>
      <trkpt lat="68.50023" lon="14.77216">
        <ele>7.555708</ele>
        <time>2020-07-15T21:48:35.380Z</time>
      </trkpt>
      <trkpt lat="68.50014" lon="14.77116">
        <ele>7.468343</ele>
        <time>2020-07-15T21:48:41.277Z</time>
      </trkpt>
      <trkpt lat="68.50014" lon="14.77109">
        <ele>7.46237</ele>
        <time>2020-07-15T21:48:41.658Z</time>
      </trkpt>
      <trkpt lat="68.50013" lon="14.77094">
        <ele>7.448866</ele>
        <time>2020-07-15T21:48:42.454Z</time>
      </trkpt>
      <trkpt lat="68.5001" lon="14.77046">
        <ele>7.407388</ele>
        <time>2020-07-15T21:48:45.182Z</time>
      </trkpt>
      <trkpt lat="68.50011" lon="14.77014">
        <ele>7.245772</ele>
        <time>2020-07-15T21:48:46.867Z</time>
      </trkpt>
      <trkpt lat="68.50012" lon="14.76998">
        <ele>7.110436</ele>
        <time>2020-07-15T21:48:47.647Z</time>
      </trkpt>
      <trkpt lat="68.50014" lon="14.7698">
        <ele>6.95539</ele>
        <time>2020-07-15T21:48:48.658Z</time>
      </trkpt>
      <trkpt lat="68.50033" lon="14.76824">
        <ele>5.58513</ele>
        <time>2020-07-15T21:48:57.076Z</time>
      </trkpt>
      <trkpt lat="68.50047" lon="14.76723">
        <ele>4.684729</ele>
        <time>2020-07-15T21:49:02.433Z</time>
      </trkpt>
      <trkpt lat="68.50061" lon="14.76621">
        <ele>3.778868</ele>
        <time>2020-07-15T21:49:07.806Z</time>
      </trkpt>
      <trkpt lat="68.50072" lon="14.76544">
        <ele>3.165991</ele>
        <time>2020-07-15T21:49:11.923Z</time>
      </trkpt>
      <trkpt lat="68.5008" lon="14.76482">
        <ele>2.794228</ele>
        <time>2020-07-15T21:49:15.238Z</time>
      </trkpt>
      <trkpt lat="68.50087" lon="14.7643">
        <ele>2.474377</ele>
        <time>2020-07-15T21:49:18.125Z</time>
      </trkpt>
      <trkpt lat="68.50095" lon="14.76376">
        <ele>2.141064</ele>
        <time>2020-07-15T21:49:21.177Z</time>
      </trkpt>
      <trkpt lat="68.50101" lon="14.76344">
        <ele>1.939944</ele>
        <time>2020-07-15T21:49:23.044Z</time>
      </trkpt>
      <trkpt lat="68.50107" lon="14.7631">
        <ele>1.721091</ele>
        <time>2020-07-15T21:49:25.152Z</time>
      </trkpt>
      <trkpt lat="68.50108" lon="14.76306">
        <ele>1.694557</ele>
        <time>2020-07-15T21:49:25.371Z</time>
      </trkpt>
      <trkpt lat="68.5011" lon="14.76295">
        <ele>1.622471</ele>
        <time>2020-07-15T21:49:26.038Z</time>
      </trkpt>
      <trkpt lat="68.50122" lon="14.76246">
        <ele>1.289721</ele>
        <time>2020-07-15T21:49:29.285Z</time>
      </trkpt>
      <trkpt lat="68.5014" lon="14.76173">
        <ele>0.788459</ele>
        <time>2020-07-15T21:49:34.251Z</time>
      </trkpt>
      <trkpt lat="68.50165" lon="14.76067">
        <ele>0.435077</ele>
        <time>2020-07-15T21:49:41.915Z</time>
      </trkpt>
      <trkpt lat="68.50174" lon="14.76027">
        <ele>0.38787</ele>
        <time>2020-07-15T21:49:44.731Z</time>
      </trkpt>
      <trkpt lat="68.50181" lon="14.75995">
        <ele>0.351385</ele>
        <time>2020-07-15T21:49:47.079Z</time>
      </trkpt>
      <trkpt lat="68.50191" lon="14.75951">
        <ele>0.300428</ele>
        <time>2020-07-15T21:49:50.208Z</time>
      </trkpt>
      <trkpt lat="68.50213" lon="14.75867">
        <ele>0.19626</ele>
        <time>2020-07-15T21:49:56.955Z</time>
      </trkpt>
      <trkpt lat="68.50245" lon="14.75774">
        <ele>0.068472</ele>
        <time>2020-07-15T21:50:05.336Z</time>
      </trkpt>
      <trkpt lat="68.50258" lon="14.75732">
        <ele>0.026707</ele>
        <time>2020-07-15T21:50:08.813Z</time>
      </trkpt>
      <trkpt lat="68.50265" lon="14.75704">
        <ele>0.038415</ele>
        <time>2020-07-15T21:50:11.086Z</time>
      </trkpt>
      <trkpt lat="68.50288" lon="14.7555">
        <ele>0.0946</ele>
        <time>2020-07-15T21:50:21.943Z</time>
      </trkpt>
      <trkpt lat="68.50293" lon="14.7551">
        <ele>0.108786</ele>
        <time>2020-07-15T21:50:24.694Z</time>
      </trkpt>
      <trkpt lat="68.50296" lon="14.75472">
        <ele>0.122044</ele>
        <time>2020-07-15T21:50:27.277Z</time>
      </trkpt>
      <trkpt lat="68.50299" lon="14.75432">
        <ele>0.135697</ele>
        <time>2020-07-15T21:50:29.957Z</time>
      </trkpt>
      <trkpt lat="68.50303" lon="14.75329">
        <ele>0.170769</ele>
        <time>2020-07-15T21:50:36.886Z</time>
      </trkpt>
      <trkpt lat="68.50311" lon="14.75206">
        <ele>0.403111</ele>
        <time>2020-07-15T21:50:45.357Z</time>
      </trkpt>
      <trkpt lat="68.50313" lon="14.75163">
        <ele>0.539323</ele>
        <time>2020-07-15T21:50:48.419Z</time>
      </trkpt>
      <trkpt lat="68.50321" lon="14.75008">
        <ele>1.026391</ele>
        <time>2020-07-15T21:50:59.372Z</time>
      </trkpt>
      <trkpt lat="68.50331" lon="14.74916">
        <ele>1.32281</ele>
        <time>2020-07-15T21:51:06.714Z</time>
      </trkpt>
      <trkpt lat="68.50336" lon="14.74879">
        <ele>1.443386</ele>
        <time>2020-07-15T21:51:09.912Z</time>
      </trkpt>
      <trkpt lat="68.50351" lon="14.74803">
        <ele>1.71755</ele>
        <time>2020-07-15T21:51:17.270Z</time>
      </trkpt>
      <trkpt lat="68.50371" lon="14.74739">
        <ele>2.78262</ele>
        <time>2020-07-15T21:51:24.771Z</time>
      </trkpt>
      <trkpt lat="68.50387" lon="14.74703">
        <ele>3.482845</ele>
        <time>2020-07-15T21:51:29.939Z</time>
      </trkpt>
      <trkpt lat="68.50401" lon="14.74675">
        <ele>4.087835</ele>
        <time>2020-07-15T21:51:34.549Z</time>
      </trkpt>
      <trkpt lat="68.50573" lon="14.74384">
        <ele>11.882147</ele>
        <time>2020-07-15T21:52:39.116Z</time>
      </trkpt>
      <trkpt lat="68.50605" lon="14.74341">
        <ele>13.422228</ele>
        <time>2020-07-15T21:52:51.153Z</time>
      </trkpt>
      <trkpt lat="68.50679" lon="14.74269">
        <ele>15.781123</ele>
        <time>2020-07-15T21:53:15.984Z</time>
      </trkpt>
      <trkpt lat="68.50698" lon="14.74234">
        <ele>15.863836</ele>
        <time>2020-07-15T21:53:22.328Z</time>
      </trkpt>
      <trkpt lat="68.5073" lon="14.74091">
        <ele>16.088245</ele>
        <time>2020-07-15T21:53:34.441Z</time>
      </trkpt>
      <trkpt lat="68.50737" lon="14.74028">
        <ele>16.17674</ele>
        <time>2020-07-15T21:53:38.018Z</time>
      </trkpt>
      <trkpt lat="68.50743" lon="14.73904">
        <ele>16.338888</ele>
        <time>2020-07-15T21:53:44.503Z</time>
      </trkpt>
      <trkpt lat="68.50759" lon="14.73821">
        <ele>15.017319</ele>
        <time>2020-07-15T21:53:48.938Z</time>
      </trkpt>
      <trkpt lat="68.50764" lon="14.73804">
        <ele>14.71961</ele>
        <time>2020-07-15T21:53:49.806Z</time>
      </trkpt>
      <trkpt lat="68.5077" lon="14.73773">
        <ele>14.228449</ele>
        <time>2020-07-15T21:53:51.400Z</time>
      </trkpt>
      <trkpt lat="68.50783" lon="14.73619">
        <ele>12.03002</ele>
        <time>2020-07-15T21:53:58.641Z</time>
      </trkpt>
      <trkpt lat="68.50801" lon="14.73539">
        <ele>10.711269</ele>
        <time>2020-07-15T21:54:02.967Z</time>
      </trkpt>
      <trkpt lat="68.50806" lon="14.73528">
        <ele>10.471453</ele>
        <time>2020-07-15T21:54:03.663Z</time>
      </trkpt>
      <trkpt lat="68.50816" lon="14.73505">
        <ele>9.974483</ele>
        <time>2020-07-15T21:54:05.376Z</time>
      </trkpt>
      <trkpt lat="68.50857" lon="14.73423">
        <ele>8.679075</ele>
        <time>2020-07-15T21:54:12.144Z</time>
      </trkpt>
      <trkpt lat="68.50874" lon="14.73394">
        <ele>8.268536</ele>
        <time>2020-07-15T21:54:14.796Z</time>
      </trkpt>
      <trkpt lat="68.50883" lon="14.7338">
        <ele>8.058793</ele>
        <time>2020-07-15T21:54:16.336Z</time>
      </trkpt>
      <trkpt lat="68.50938" lon="14.73302">
        <ele>6.763152</ele>
        <time>2020-07-15T21:54:25.215Z</time>
      </trkpt>
      <trkpt lat="68.50982" lon="14.73218">
        <ele>5.671449</ele>
        <time>2020-07-15T21:54:33.754Z</time>
      </trkpt>
      <trkpt lat="68.50989" lon="14.73199">
        <ele>5.538345</ele>
        <time>2020-07-15T21:54:35.313Z</time>
      </trkpt>
      <trkpt lat="68.50997" lon="14.73172">
        <ele>5.371899</ele>
        <time>2020-07-15T21:54:37.155Z</time>
      </trkpt>
      <trkpt lat="68.51094" lon="14.72847">
        <ele>3.320077</ele>
        <time>2020-07-15T21:54:59.897Z</time>
      </trkpt>
      <trkpt lat="68.51097" lon="14.72834">
        <ele>3.27337</ele>
        <time>2020-07-15T21:55:00.741Z</time>
      </trkpt>
      <trkpt lat="68.51104" lon="14.72792">
        <ele>3.143152</ele>
        <time>2020-07-15T21:55:03.240Z</time>
      </trkpt>
      <trkpt lat="68.51127" lon="14.7262">
        <ele>2.620759</ele>
        <time>2020-07-15T21:55:13.525Z</time>
      </trkpt>
      <trkpt lat="68.51138" lon="14.7257">
        <ele>2.454131</ele>
        <time>2020-07-15T21:55:16.963Z</time>
      </trkpt>
      <trkpt lat="68.51168" lon="14.72491">
        <ele>2.129829</ele>
        <time>2020-07-15T21:55:23.651Z</time>
      </trkpt>
      <trkpt lat="68.51202" lon="14.72456">
        <ele>2.036696</ele>
        <time>2020-07-15T21:55:29.987Z</time>
      </trkpt>
      <trkpt lat="68.51215" lon="14.72452">
        <ele>2.185436</ele>
        <time>2020-07-15T21:55:32.408Z</time>
      </trkpt>
      <trkpt lat="68.51322" lon="14.72431">
        <ele>3.424969</ele>
        <time>2020-07-15T21:55:55.149Z</time>
      </trkpt>
      <trkpt lat="68.51358" lon="14.72428">
        <ele>3.84706</ele>
        <time>2020-07-15T21:56:03.758Z</time>
      </trkpt>
      <trkpt lat="68.51386" lon="14.72426">
        <ele>4.430011</ele>
        <time>2020-07-15T21:56:10.812Z</time>
      </trkpt>
      <trkpt lat="68.51486" lon="14.72513">
        <ele>7.458469</ele>
        <time>2020-07-15T21:56:38.837Z</time>
      </trkpt>
      <trkpt lat="68.51502" lon="14.72519">
        <ele>7.912885</ele>
        <time>2020-07-15T21:56:43.316Z</time>
      </trkpt>
      <trkpt lat="68.51516" lon="14.72519">
        <ele>8.322742</ele>
        <time>2020-07-15T21:56:47.455Z</time>
      </trkpt>
      <trkpt lat="68.51525" lon="14.72515">
        <ele>8.582743</ele>
        <time>2020-07-15T21:56:50.073Z</time>
      </trkpt>
      <trkpt lat="68.51531" lon="14.72512">
        <ele>8.770536</ele>
        <time>2020-07-15T21:56:51.938Z</time>
      </trkpt>
      <trkpt lat="68.51536" lon="14.72508">
        <ele>8.915387</ele>
        <time>2020-07-15T21:56:53.393Z</time>
      </trkpt>
      <trkpt lat="68.51542" lon="14.72502">
        <ele>9.089801</ele>
        <time>2020-07-15T21:56:55.333Z</time>
      </trkpt>
      <trkpt lat="68.51573" lon="14.72464">
        <ele>10.178349</ele>
        <time>2020-07-15T21:57:05.280Z</time>
      </trkpt>
      <trkpt lat="68.51596" lon="14.72436">
        <ele>10.965429</ele>
        <time>2020-07-15T21:57:12.387Z</time>
      </trkpt>
      <trkpt lat="68.5164" lon="14.72379">
        <ele>12.517396</ele>
        <time>2020-07-15T21:57:27.202Z</time>
      </trkpt>
      <trkpt lat="68.51655" lon="14.72358">
        <ele>13.050178</ele>
        <time>2020-07-15T21:57:31.824Z</time>
      </trkpt>
      <trkpt lat="68.51672" lon="14.72327">
        <ele>13.721596</ele>
        <time>2020-07-15T21:57:37.683Z</time>
      </trkpt>
      <trkpt lat="68.51689" lon="14.72293">
        <ele>14.388724</ele>
        <time>2020-07-15T21:57:43.149Z</time>
      </trkpt>
      <trkpt lat="68.51721" lon="14.72237">
        <ele>15.15022</ele>
        <time>2020-07-15T21:57:52.897Z</time>
      </trkpt>
      <trkpt lat="68.51745" lon="14.72188">
        <ele>15.461332</ele>
        <time>2020-07-15T21:58:00.075Z</time>
      </trkpt>
      <trkpt lat="68.51863" lon="14.72008">
        <ele>16.796824</ele>
        <time>2020-07-15T21:58:27.171Z</time>
      </trkpt>
      <trkpt lat="68.51894" lon="14.71946">
        <ele>16.632672</ele>
        <time>2020-07-15T21:58:33.435Z</time>
      </trkpt>
      <trkpt lat="68.51946" lon="14.71809">
        <ele>16.3219</ele>
        <time>2020-07-15T21:58:45.118Z</time>
      </trkpt>
      <trkpt lat="68.5196" lon="14.71756">
        <ele>16.21731</ele>
        <time>2020-07-15T21:58:48.950Z</time>
      </trkpt>
      <trkpt lat="68.51968" lon="14.71731">
        <ele>16.164142</ele>
        <time>2020-07-15T21:58:50.931Z</time>
      </trkpt>
      <trkpt lat="68.51987" lon="14.71663">
        <ele>16.043302</ele>
        <time>2020-07-15T21:58:55.892Z</time>
      </trkpt>
      <trkpt lat="68.51994" lon="14.7164">
        <ele>16.030894</ele>
        <time>2020-07-15T21:58:57.480Z</time>
      </trkpt>
      <trkpt lat="68.52005" lon="14.7159">
        <ele>16.005914</ele>
        <time>2020-07-15T21:59:01.374Z</time>
      </trkpt>
      <trkpt lat="68.52016" lon="14.71544">
        <ele>15.982472</ele>
        <time>2020-07-15T21:59:04.562Z</time>
      </trkpt>
      <trkpt lat="68.52046" lon="14.71359">
        <ele>15.896253</ele>
        <time>2020-07-15T21:59:17.875Z</time>
      </trkpt>
      <trkpt lat="68.52061" lon="14.71304">
        <ele>15.866958</ele>
        <time>2020-07-15T21:59:22.465Z</time>
      </trkpt>
      <trkpt lat="68.52064" lon="14.71293">
        <ele>15.860717</ele>
        <time>2020-07-15T21:59:23.221Z</time>
      </trkpt>
      <trkpt lat="68.52069" lon="14.71281">
        <ele>15.852719</ele>
        <time>2020-07-15T21:59:25.078Z</time>
      </trkpt>
      <trkpt lat="68.52154" lon="14.71119">
        <ele>16.462395</ele>
        <time>2020-07-15T21:59:44.525Z</time>
      </trkpt>
      <trkpt lat="68.52263" lon="14.70837">
        <ele>18.341799</ele>
        <time>2020-07-15T22:00:16.305Z</time>
      </trkpt>
      <trkpt lat="68.52349" lon="14.70668">
        <ele>20.535151</ele>
        <time>2020-07-15T22:00:42.503Z</time>
      </trkpt>
      <trkpt lat="68.52433" lon="14.70528">
        <ele>23.272671</ele>
        <time>2020-07-15T22:01:13.337Z</time>
      </trkpt>
      <trkpt lat="68.5248" lon="14.70464">
        <ele>24.782771</ele>
        <time>2020-07-15T22:01:27.257Z</time>
      </trkpt>
      <trkpt lat="68.52493" lon="14.70451">
        <ele>25.178914</ele>
        <time>2020-07-15T22:01:31.635Z</time>
      </trkpt>
      <trkpt lat="68.52501" lon="14.70442">
        <ele>25.435419</ele>
        <time>2020-07-15T22:01:33.950Z</time>
      </trkpt>
      <trkpt lat="68.52616" lon="14.70337">
        <ele>24.482671</ele>
        <time>2020-07-15T22:01:56.597Z</time>
      </trkpt>
      <trkpt lat="68.52648" lon="14.70297">
        <ele>23.971388</ele>
        <time>2020-07-15T22:02:01.272Z</time>
      </trkpt>
      <trkpt lat="68.52695" lon="14.70215">
        <ele>22.72327</ele>
        <time>2020-07-15T22:02:08.084Z</time>
      </trkpt>
      <trkpt lat="68.52749" lon="14.7007">
        <ele>19.314837</ele>
        <time>2020-07-15T22:02:17.225Z</time>
      </trkpt>
      <trkpt lat="68.52753" lon="14.70052">
        <ele>18.950205</ele>
        <time>2020-07-15T22:02:18.128Z</time>
      </trkpt>
      <trkpt lat="68.5276" lon="14.70023">
        <ele>18.397696</ele>
        <time>2020-07-15T22:02:19.615Z</time>
      </trkpt>
      <trkpt lat="68.52773" lon="14.69968">
        <ele>17.317497</ele>
        <time>2020-07-15T22:02:22.543Z</time>
      </trkpt>
      <trkpt lat="68.52797" lon="14.69899">
        <ele>15.729487</ele>
        <time>2020-07-15T22:02:26.990Z</time>
      </trkpt>
      <trkpt lat="68.52851" lon="14.69804">
        <ele>14.732332</ele>
        <time>2020-07-15T22:02:35.827Z</time>
      </trkpt>
      <trkpt lat="68.5286" lon="14.6979">
        <ele>14.636092</ele>
        <time>2020-07-15T22:02:37.102Z</time>
      </trkpt>
      <trkpt lat="68.52865" lon="14.69781">
        <ele>14.582279</ele>
        <time>2020-07-15T22:02:37.957Z</time>
      </trkpt>
      <trkpt lat="68.52869" lon="14.6977">
        <ele>14.530821</ele>
        <time>2020-07-15T22:02:38.830Z</time>
      </trkpt>
      <trkpt lat="68.52876" lon="14.69743">
        <ele>14.418979</ele>
        <time>2020-07-15T22:02:40.976Z</time>
      </trkpt>
      <trkpt lat="68.52909" lon="14.69577">
        <ele>13.779936</ele>
        <time>2020-07-15T22:02:53.882Z</time>
      </trkpt>
      <trkpt lat="68.52977" lon="14.6945">
        <ele>14.290241</ele>
        <time>2020-07-15T22:03:11.398Z</time>
      </trkpt>
      <trkpt lat="68.52997" lon="14.69372">
        <ele>14.715969</ele>
        <time>2020-07-15T22:03:19.256Z</time>
      </trkpt>
      <trkpt lat="68.53014" lon="14.69245">
        <ele>15.321675</ele>
        <time>2020-07-15T22:03:29.847Z</time>
      </trkpt>
      <trkpt lat="68.53007" lon="14.69048">
        <ele>16.472047</ele>
        <time>2020-07-15T22:03:46.438Z</time>
      </trkpt>
      <trkpt lat="68.53022" lon="14.68904">
        <ele>17.544524</ele>
        <time>2020-07-15T22:03:59.556Z</time>
      </trkpt>
      <trkpt lat="68.53025" lon="14.6887">
        <ele>17.793219</ele>
        <time>2020-07-15T22:04:02.432Z</time>
      </trkpt>
      <trkpt lat="68.53027" lon="14.68854">
        <ele>17.911548</ele>
        <time>2020-07-15T22:04:03.852Z</time>
      </trkpt>
      <trkpt lat="68.53032" lon="14.68796">
        <ele>18.33649</ele>
        <time>2020-07-15T22:04:10.118Z</time>
      </trkpt>
      <trkpt lat="68.53054" lon="14.68612">
        <ele>19.548588</ele>
        <time>2020-07-15T22:04:27.660Z</time>
      </trkpt>
      <trkpt lat="68.53085" lon="14.68464">
        <ele>20.2946</ele>
        <time>2020-07-15T22:04:42.024Z</time>
      </trkpt>
      <trkpt lat="68.5309" lon="14.68442">
        <ele>20.409454</ele>
        <time>2020-07-15T22:04:45.143Z</time>
      </trkpt>
      <trkpt lat="68.53103" lon="14.68384">
        <ele>20.707383</ele>
        <time>2020-07-15T22:04:50.061Z</time>
      </trkpt>
      <trkpt lat="68.53203" lon="14.67998">
        <ele>20.609537</ele>
        <time>2020-07-15T22:05:21.280Z</time>
      </trkpt>
      <trkpt lat="68.53214" lon="14.67954">
        <ele>20.46895</ele>
        <time>2020-07-15T22:05:24.122Z</time>
      </trkpt>
      <trkpt lat="68.53219" lon="14.67934">
        <ele>20.404487</ele>
        <time>2020-07-15T22:05:25.418Z</time>
      </trkpt>
      <trkpt lat="68.53245" lon="14.67803">
        <ele>19.755303</ele>
        <time>2020-07-15T22:05:33.097Z</time>
      </trkpt>
      <trkpt lat="68.53286" lon="14.6766">
        <ele>18.212675</ele>
        <time>2020-07-15T22:05:42.026Z</time>
      </trkpt>
      <trkpt lat="68.53308" lon="14.6749">
        <ele>16.68285</ele>
        <time>2020-07-15T22:05:50.959Z</time>
      </trkpt>
      <trkpt lat="68.53323" lon="14.67419">
        <ele>15.991134</ele>
        <time>2020-07-15T22:05:55.355Z</time>
      </trkpt>
      <trkpt lat="68.53325" lon="14.67411">
        <ele>15.914463</ele>
        <time>2020-07-15T22:05:55.747Z</time>
      </trkpt>
      <trkpt lat="68.53327" lon="14.67404">
        <ele>15.85181</ele>
        <time>2020-07-15T22:05:56.687Z</time>
      </trkpt>
      <trkpt lat="68.53365" lon="14.67327">
        <ele>14.960641</ele>
        <time>2020-07-15T22:06:03.639Z</time>
      </trkpt>
      <trkpt lat="68.53486" lon="14.6716">
        <ele>12.353257</ele>
        <time>2020-07-15T22:06:23.138Z</time>
      </trkpt>
      <trkpt lat="68.53601" lon="14.67106">
        <ele>9.011844</ele>
        <time>2020-07-15T22:06:38.918Z</time>
      </trkpt>
      <trkpt lat="68.53657" lon="14.67052">
        <ele>7.314114</ele>
        <time>2020-07-15T22:06:46.524Z</time>
      </trkpt>
      <trkpt lat="68.53713" lon="14.66977">
        <ele>5.509985</ele>
        <time>2020-07-15T22:06:54.430Z</time>
      </trkpt>
      <trkpt lat="68.53831" lon="14.669">
        <ele>2.136783</ele>
        <time>2020-07-15T22:07:10.812Z</time>
      </trkpt>
      <trkpt lat="68.53841" lon="14.66889">
        <ele>2.042032</ele>
        <time>2020-07-15T22:07:12.234Z</time>
      </trkpt>
      <trkpt lat="68.53849" lon="14.6688">
        <ele>1.961053</ele>
        <time>2020-07-15T22:07:13.519Z</time>
      </trkpt>
      <trkpt lat="68.53961" lon="14.66694">
        <ele>0.73646</ele>
        <time>2020-07-15T22:07:34.341Z</time>
      </trkpt>
      <trkpt lat="68.54008" lon="14.66585">
        <ele>0.836814</ele>
        <time>2020-07-15T22:07:45.932Z</time>
      </trkpt>
      <trkpt lat="68.5406" lon="14.66368">
        <ele>1.546624</ele>
        <time>2020-07-15T22:08:04.513Z</time>
      </trkpt>
      <trkpt lat="68.54109" lon="14.66061">
        <ele>4.383027</ele>
        <time>2020-07-15T22:08:33.422Z</time>
      </trkpt>
      <trkpt lat="68.54113" lon="14.66037">
        <ele>4.698625</ele>
        <time>2020-07-15T22:08:36.130Z</time>
      </trkpt>
      <trkpt lat="68.54116" lon="14.6602">
        <ele>4.936211</ele>
        <time>2020-07-15T22:08:38.392Z</time>
      </trkpt>
      <trkpt lat="68.54125" lon="14.65985">
        <ele>5.421746</ele>
        <time>2020-07-15T22:08:42.486Z</time>
      </trkpt>
      <trkpt lat="68.5414" lon="14.65926">
        <ele>6.279473</ele>
        <time>2020-07-15T22:08:50.505Z</time>
      </trkpt>
      <trkpt lat="68.54238" lon="14.65564">
        <ele>14.096037</ele>
        <time>2020-07-15T22:09:47.767Z</time>
      </trkpt>
      <trkpt lat="68.54323" lon="14.65256">
        <ele>19.812485</ele>
        <time>2020-07-15T22:10:37.587Z</time>
      </trkpt>
      <trkpt lat="68.54444" lon="14.64974">
        <ele>21.750742</ele>
        <time>2020-07-15T22:11:12.921Z</time>
      </trkpt>
      <trkpt lat="68.54452" lon="14.64956">
        <ele>21.564363</ele>
        <time>2020-07-15T22:11:14.450Z</time>
      </trkpt>
      <trkpt lat="68.5446" lon="14.64936">
        <ele>21.353549</ele>
        <time>2020-07-15T22:11:15.864Z</time>
      </trkpt>
      <trkpt lat="68.54509" lon="14.64814">
        <ele>20.13199</ele>
        <time>2020-07-15T22:11:24.627Z</time>
      </trkpt>
      <trkpt lat="68.54538" lon="14.64742">
        <ele>19.114088</ele>
        <time>2020-07-15T22:11:29.444Z</time>
      </trkpt>
      <trkpt lat="68.54553" lon="14.64706">
        <ele>18.093461</ele>
        <time>2020-07-15T22:11:31.882Z</time>
      </trkpt>
      <trkpt lat="68.54631" lon="14.64505">
        <ele>12.542814</ele>
        <time>2020-07-15T22:11:44.572Z</time>
      </trkpt>
      <trkpt lat="68.54638" lon="14.6449">
        <ele>12.102823</ele>
        <time>2020-07-15T22:11:45.545Z</time>
      </trkpt>
      <trkpt lat="68.54655" lon="14.64447">
        <ele>10.886255</ele>
        <time>2020-07-15T22:11:48.494Z</time>
      </trkpt>
      <trkpt lat="68.54673" lon="14.64409">
        <ele>10.045262</ele>
        <time>2020-07-15T22:11:51.267Z</time>
      </trkpt>
      <trkpt lat="68.54675" lon="14.64404">
        <ele>9.97532</ele>
        <time>2020-07-15T22:11:51.689Z</time>
      </trkpt>
      <trkpt lat="68.54703" lon="14.64343">
        <ele>9.203056</ele>
        <time>2020-07-15T22:11:56.236Z</time>
      </trkpt>
      <trkpt lat="68.54738" lon="14.64278">
        <ele>8.275878</ele>
        <time>2020-07-15T22:12:01.814Z</time>
      </trkpt>
      <trkpt lat="68.54895" lon="14.64045">
        <ele>7.936181</ele>
        <time>2020-07-15T22:12:31.204Z</time>
      </trkpt>
      <trkpt lat="68.54988" lon="14.63868">
        <ele>10.51178</ele>
        <time>2020-07-15T22:13:05.396Z</time>
      </trkpt>
      <trkpt lat="68.55016" lon="14.63815">
        <ele>11.988325</ele>
        <time>2020-07-15T22:13:16.849Z</time>
      </trkpt>
      <trkpt lat="68.55053" lon="14.63745">
        <ele>13.941401</ele>
        <time>2020-07-15T22:13:33.023Z</time>
      </trkpt>
      <trkpt lat="68.55108" lon="14.63644">
        <ele>16.766936</ele>
        <time>2020-07-15T22:13:53.604Z</time>
      </trkpt>
      <trkpt lat="68.55129" lon="14.63565">
        <ele>17.432223</ele>
        <time>2020-07-15T22:14:03.816Z</time>
      </trkpt>
      <trkpt lat="68.5514" lon="14.63451">
        <ele>17.773498</ele>
        <time>2020-07-15T22:14:14.525Z</time>
      </trkpt>
      <trkpt lat="68.55146" lon="14.63399">
        <ele>17.931481</ele>
        <time>2020-07-15T22:14:18.127Z</time>
      </trkpt>
      <trkpt lat="68.55184" lon="14.63161">
        <ele>18.629915</ele>
        <time>2020-07-15T22:14:33.724Z</time>
      </trkpt>
      <trkpt lat="68.55243" lon="14.6285">
        <ele>17.024853</ele>
        <time>2020-07-15T22:14:52.408Z</time>
      </trkpt>
      <trkpt lat="68.55296" lon="14.62671">
        <ele>16.419043</ele>
        <time>2020-07-15T22:15:05.693Z</time>
      </trkpt>
      <trkpt lat="68.5533" lon="14.62453">
        <ele>16.433594</ele>
        <time>2020-07-15T22:15:21.223Z</time>
      </trkpt>
      <trkpt lat="68.55343" lon="14.62401">
        <ele>16.437432</ele>
        <time>2020-07-15T22:15:25.671Z</time>
      </trkpt>
      <trkpt lat="68.55359" lon="14.62373">
        <ele>16.440629</ele>
        <time>2020-07-15T22:15:29.436Z</time>
      </trkpt>
      <trkpt lat="68.55512" lon="14.62194">
        <ele>17.254371</ele>
        <time>2020-07-15T22:16:02.682Z</time>
      </trkpt>
      <trkpt lat="68.55573" lon="14.6206">
        <ele>17.13397</ele>
        <time>2020-07-15T22:16:17.343Z</time>
      </trkpt>
      <trkpt lat="68.55614" lon="14.61993">
        <ele>16.865683</ele>
        <time>2020-07-15T22:16:25.674Z</time>
      </trkpt>
      <trkpt lat="68.55673" lon="14.61945">
        <ele>16.519505</ele>
        <time>2020-07-15T22:16:35.009Z</time>
      </trkpt>
      <trkpt lat="68.55751" lon="14.61885">
        <ele>15.63216</ele>
        <time>2020-07-15T22:16:46.891Z</time>
      </trkpt>
      <trkpt lat="68.55786" lon="14.61861">
        <ele>15.167773</ele>
        <time>2020-07-15T22:16:52.172Z</time>
      </trkpt>
      <trkpt lat="68.55853" lon="14.61844">
        <ele>14.303064</ele>
        <time>2020-07-15T22:17:02.043Z</time>
      </trkpt>
      <trkpt lat="68.5618" lon="14.61812">
        <ele>13.626799</ele>
        <time>2020-07-15T22:17:58.426Z</time>
      </trkpt>
      <trkpt lat="68.56188" lon="14.6181">
        <ele>13.632419</ele>
        <time>2020-07-15T22:18:00.553Z</time>
      </trkpt>
      <trkpt lat="68.56222" lon="14.618">
        <ele>13.655032</ele>
        <time>2020-07-15T22:18:07.004Z</time>
      </trkpt>
      <trkpt lat="68.56249" lon="14.61808">
        <ele>13.817366</ele>
        <time>2020-07-15T22:18:11.943Z</time>
      </trkpt>
      <trkpt lat="68.56268" lon="14.61837">
        <ele>13.993903</ele>
        <time>2020-07-15T22:18:16.557Z</time>
      </trkpt>
      <trkpt lat="68.56277" lon="14.61865">
        <ele>14.107162</ele>
        <time>2020-07-15T22:18:19.064Z</time>
      </trkpt>
      <trkpt lat="68.56282" lon="14.61882">
        <ele>14.172325</ele>
        <time>2020-07-15T22:18:21.052Z</time>
      </trkpt>
      <trkpt lat="68.56329" lon="14.6208">
        <ele>14.873183</ele>
        <time>2020-07-15T22:18:39.118Z</time>
      </trkpt>
      <trkpt lat="68.56361" lon="14.62217">
        <ele>15.280734</ele>
        <time>2020-07-15T22:18:51.422Z</time>
      </trkpt>
      <trkpt lat="68.56368" lon="14.62252">
        <ele>15.360154</ele>
        <time>2020-07-15T22:18:54.448Z</time>
      </trkpt>
      <trkpt lat="68.56387" lon="14.6236">
        <ele>15.597095</ele>
        <time>2020-07-15T22:19:02.991Z</time>
      </trkpt>
      <trkpt lat="68.56387" lon="14.62364">
        <ele>15.606852</ele>
        <time>2020-07-15T22:19:03.580Z</time>
      </trkpt>
      <trkpt lat="68.56396" lon="14.62415">
        <ele>15.719036</ele>
        <time>2020-07-15T22:19:07.542Z</time>
      </trkpt>
      <trkpt lat="68.56406" lon="14.62476">
        <ele>15.852134</ele>
        <time>2020-07-15T22:19:12.239Z</time>
      </trkpt>
      <trkpt lat="68.56423" lon="14.62542">
        <ele>16.013838</ele>
        <time>2020-07-15T22:19:18.017Z</time>
      </trkpt>
      <trkpt lat="68.56448" lon="14.62577">
        <ele>16.046774</ele>
        <time>2020-07-15T22:19:23.135Z</time>
      </trkpt>
      <trkpt lat="68.56576" lon="14.62643">
        <ele>15.401628</ele>
        <time>2020-07-15T22:19:44.553Z</time>
      </trkpt>
      <trkpt lat="68.56626" lon="14.62692">
        <ele>15.086632</ele>
        <time>2020-07-15T22:19:52.809Z</time>
      </trkpt>
      <trkpt lat="68.56775" lon="14.63039">
        <ele>13.647488</ele>
        <time>2020-07-15T22:20:23.515Z</time>
      </trkpt>
      <trkpt lat="68.56857" lon="14.63171">
        <ele>13.608103</ele>
        <time>2020-07-15T22:20:40.196Z</time>
      </trkpt>
      <trkpt lat="68.56958" lon="14.63291">
        <ele>14.099742</ele>
        <time>2020-07-15T22:21:02.047Z</time>
      </trkpt>
      <trkpt lat="68.57" lon="14.63337">
        <ele>14.516597</ele>
        <time>2020-07-15T22:21:11.622Z</time>
      </trkpt>
      <trkpt lat="68.57029" lon="14.63368">
        <ele>14.799601</ele>
        <time>2020-07-15T22:21:18.071Z</time>
      </trkpt>
      <trkpt lat="68.57039" lon="14.63381">
        <ele>14.901307</ele>
        <time>2020-07-15T22:21:20.595Z</time>
      </trkpt>
      <trkpt lat="68.57075" lon="14.63443">
        <ele>15.307012</ele>
        <time>2020-07-15T22:21:29.693Z</time>
      </trkpt>
      <trkpt lat="68.57269" lon="14.63864">
        <ele>17.903812</ele>
        <time>2020-07-15T22:22:22.984Z</time>
      </trkpt>
      <trkpt lat="68.57278" lon="14.6388">
        <ele>17.991706</ele>
        <time>2020-07-15T22:22:25.234Z</time>
      </trkpt>
      <trkpt lat="68.57278" lon="14.6388">
        <ele>17.991706</ele>
        <time>2020-07-15T22:22:25.258Z</time>
      </trkpt>
      <trkpt lat="68.57278" lon="14.6388">
        <ele>17.991706</ele>
        <time>2020-07-15T22:22:25.402Z</time>
      </trkpt>
      <trkpt lat="68.57289" lon="14.63904">
        <ele>18.111711</ele>
        <time>2020-07-15T22:22:28.216Z</time>
      </trkpt>
      <trkpt lat="68.57331" lon="14.63974">
        <ele>18.533282</ele>
        <time>2020-07-15T22:22:38.090Z</time>
      </trkpt>
      <trkpt lat="68.57355" lon="14.64047">
        <ele>18.825093</ele>
        <time>2020-07-15T22:22:45.316Z</time>
      </trkpt>
      <trkpt lat="68.57464" lon="14.64346">
        <ele>19.291519</ele>
        <time>2020-07-15T22:23:13.866Z</time>
      </trkpt>
      <trkpt lat="68.57536" lon="14.64589">
        <ele>19.820503</ele>
        <time>2020-07-15T22:23:35.385Z</time>
      </trkpt>
      <trkpt lat="68.57558" lon="14.6468">
        <ele>20.018627</ele>
        <time>2020-07-15T22:23:42.979Z</time>
      </trkpt>
      <trkpt lat="68.5757" lon="14.6475">
        <ele>20.160484</ele>
        <time>2020-07-15T22:23:48.983Z</time>
      </trkpt>
      <trkpt lat="68.57581" lon="14.64862">
        <ele>20.564074</ele>
        <time>2020-07-15T22:23:57.580Z</time>
      </trkpt>
      <trkpt lat="68.57579" lon="14.65101">
        <ele>21.745853</ele>
        <time>2020-07-15T22:24:16.222Z</time>
      </trkpt>
      <trkpt lat="68.5758" lon="14.65134">
        <ele>21.909812</ele>
        <time>2020-07-15T22:24:19.424Z</time>
      </trkpt>
      <trkpt lat="68.57582" lon="14.65163">
        <ele>22.053809</ele>
        <time>2020-07-15T22:24:21.756Z</time>
      </trkpt>
      <trkpt lat="68.57596" lon="14.65264">
        <ele>22.589576</ele>
        <time>2020-07-15T22:24:31.518Z</time>
      </trkpt>
      <trkpt lat="68.57606" lon="14.65304">
        <ele>22.743701</ele>
        <time>2020-07-15T22:24:35.838Z</time>
      </trkpt>
      <trkpt lat="68.57616" lon="14.65344">
        <ele>22.844663</ele>
        <time>2020-07-15T22:24:39.908Z</time>
      </trkpt>
      <trkpt lat="68.5765" lon="14.65476">
        <ele>23.173187</ele>
        <time>2020-07-15T22:24:53.217Z</time>
      </trkpt>
      <trkpt lat="68.57683" lon="14.65603">
        <ele>23.488001</ele>
        <time>2020-07-15T22:25:02.961Z</time>
      </trkpt>
      <trkpt lat="68.57705" lon="14.6569">
        <ele>23.653155</ele>
        <time>2020-07-15T22:25:09.298Z</time>
      </trkpt>
      <trkpt lat="68.57735" lon="14.65785">
        <ele>23.098231</ele>
        <time>2020-07-15T22:25:16.539Z</time>
      </trkpt>
      <trkpt lat="68.57758" lon="14.65865">
        <ele>22.647225</ele>
        <time>2020-07-15T22:25:22.072Z</time>
      </trkpt>
      <trkpt lat="68.57768" lon="14.65896">
        <ele>22.463825</ele>
        <time>2020-07-15T22:25:24.145Z</time>
      </trkpt>
      <trkpt lat="68.57815" lon="14.66035">
        <ele>21.62626</ele>
        <time>2020-07-15T22:25:33.972Z</time>
      </trkpt>
      <trkpt lat="68.57944" lon="14.66343">
        <ele>21.325806</ele>
        <time>2020-07-15T22:26:03.757Z</time>
      </trkpt>
      <trkpt lat="68.58" lon="14.66457">
        <ele>21.747265</ele>
        <time>2020-07-15T22:26:18.253Z</time>
      </trkpt>
      <trkpt lat="68.58112" lon="14.66639">
        <ele>22.881083</ele>
        <time>2020-07-15T22:26:45.673Z</time>
      </trkpt>
      <trkpt lat="68.58199" lon="14.6686">
        <ele>23.806643</ele>
        <time>2020-07-15T22:27:10.513Z</time>
      </trkpt>
      <trkpt lat="68.58246" lon="14.66984">
        <ele>24.268999</ele>
        <time>2020-07-15T22:27:23.298Z</time>
      </trkpt>
      <trkpt lat="68.58259" lon="14.67023">
        <ele>24.274967</ele>
        <time>2020-07-15T22:27:26.909Z</time>
      </trkpt>
      <trkpt lat="68.58288" lon="14.67105">
        <ele>24.287669</ele>
        <time>2020-07-15T22:27:34.677Z</time>
      </trkpt>
      <trkpt lat="68.583" lon="14.67142">
        <ele>24.293313</ele>
        <time>2020-07-15T22:27:38.157Z</time>
      </trkpt>
      <trkpt lat="68.58388" lon="14.6735">
        <ele>24.155961</ele>
        <time>2020-07-15T22:27:58.092Z</time>
      </trkpt>
      <trkpt lat="68.58455" lon="14.67467">
        <ele>23.536012</ele>
        <time>2020-07-15T22:28:11.011Z</time>
      </trkpt>
      <trkpt lat="68.58475" lon="14.67548">
        <ele>23.253145</ele>
        <time>2020-07-15T22:28:16.620Z</time>
      </trkpt>
      <trkpt lat="68.58484" lon="14.67618">
        <ele>23.041777</ele>
        <time>2020-07-15T22:28:20.731Z</time>
      </trkpt>
      <trkpt lat="68.58493" lon="14.67756">
        <ele>22.310671</ele>
        <time>2020-07-15T22:28:28.395Z</time>
      </trkpt>
      <trkpt lat="68.58498" lon="14.67816">
        <ele>21.918743</ele>
        <time>2020-07-15T22:28:31.567Z</time>
      </trkpt>
      <trkpt lat="68.58507" lon="14.68064">
        <ele>20.330601</ele>
        <time>2020-07-15T22:28:44.468Z</time>
      </trkpt>
      <trkpt lat="68.58513" lon="14.68198">
        <ele>19.663634</ele>
        <time>2020-07-15T22:28:51.461Z</time>
      </trkpt>
      <trkpt lat="68.58516" lon="14.68262">
        <ele>19.513929</ele>
        <time>2020-07-15T22:28:54.978Z</time>
      </trkpt>
      <trkpt lat="68.58519" lon="14.68306">
        <ele>19.410582</ele>
        <time>2020-07-15T22:28:57.411Z</time>
      </trkpt>
      <trkpt lat="68.58523" lon="14.68372">
        <ele>19.255159</ele>
        <time>2020-07-15T22:29:01.231Z</time>
      </trkpt>
      <trkpt lat="68.58524" lon="14.68405">
        <ele>19.177692</ele>
        <time>2020-07-15T22:29:03.208Z</time>
      </trkpt>
      <trkpt lat="68.58528" lon="14.68561">
        <ele>18.812246</ele>
        <time>2020-07-15T22:29:12.946Z</time>
      </trkpt>
      <trkpt lat="68.58528" lon="14.68654">
        <ele>18.657443</ele>
        <time>2020-07-15T22:29:19.460Z</time>
      </trkpt>
      <trkpt lat="68.58529" lon="14.68757">
        <ele>18.869374</ele>
        <time>2020-07-15T22:29:27.155Z</time>
      </trkpt>
      <trkpt lat="68.58529" lon="14.68827">
        <ele>19.012963</ele>
        <time>2020-07-15T22:29:32.649Z</time>
      </trkpt>
      <trkpt lat="68.58531" lon="14.69067">
        <ele>19.505613</ele>
        <time>2020-07-15T22:29:50.836Z</time>
      </trkpt>
      <trkpt lat="68.58532" lon="14.69157">
        <ele>19.493676</ele>
        <time>2020-07-15T22:29:57.049Z</time>
      </trkpt>
      <trkpt lat="68.5853" lon="14.69242">
        <ele>18.995357</ele>
        <time>2020-07-15T22:30:02.006Z</time>
      </trkpt>
      <trkpt lat="68.58518" lon="14.69306">
        <ele>18.576853</ele>
        <time>2020-07-15T22:30:05.930Z</time>
      </trkpt>
      <trkpt lat="68.58506" lon="14.69342">
        <ele>18.293899</ele>
        <time>2020-07-15T22:30:08.471Z</time>
      </trkpt>
      <trkpt lat="68.58489" lon="14.69383">
        <ele>17.9327</ele>
        <time>2020-07-15T22:30:11.727Z</time>
      </trkpt>
      <trkpt lat="68.58461" lon="14.69449">
        <ele>17.338064</ele>
        <time>2020-07-15T22:30:16.886Z</time>
      </trkpt>
      <trkpt lat="68.58426" lon="14.69519">
        <ele>16.609029</ele>
        <time>2020-07-15T22:30:22.633Z</time>
      </trkpt>
      <trkpt lat="68.58323" lon="14.69705">
        <ele>13.803369</ele>
        <time>2020-07-15T22:30:39.338Z</time>
      </trkpt>
      <trkpt lat="68.58299" lon="14.69735">
        <ele>13.211021</ele>
        <time>2020-07-15T22:30:43.015Z</time>
      </trkpt>
      <trkpt lat="68.5826" lon="14.69774">
        <ele>12.589495</ele>
        <time>2020-07-15T22:30:49.407Z</time>
      </trkpt>
      <trkpt lat="68.58184" lon="14.69849">
        <ele>12.130824</ele>
        <time>2020-07-15T22:31:02.432Z</time>
      </trkpt>
      <trkpt lat="68.58163" lon="14.6987">
        <ele>12.007593</ele>
        <time>2020-07-15T22:31:06.045Z</time>
      </trkpt>
      <trkpt lat="68.58143" lon="14.69894">
        <ele>11.883376</ele>
        <time>2020-07-15T22:31:09.989Z</time>
      </trkpt>
      <trkpt lat="68.58092" lon="14.69962">
        <ele>11.712639</ele>
        <time>2020-07-15T22:31:19.940Z</time>
      </trkpt>
      <trkpt lat="68.57937" lon="14.70212">
        <ele>11.985251</ele>
        <time>2020-07-15T22:31:53.480Z</time>
      </trkpt>
      <trkpt lat="68.57917" lon="14.70254">
        <ele>11.982672</ele>
        <time>2020-07-15T22:31:58.282Z</time>
      </trkpt>
      <trkpt lat="68.57893" lon="14.7031">
        <ele>11.979353</ele>
        <time>2020-07-15T22:32:03.981Z</time>
      </trkpt>
      <trkpt lat="68.5787" lon="14.70411">
        <ele>11.974729</ele>
        <time>2020-07-15T22:32:11.863Z</time>
      </trkpt>
      <trkpt lat="68.5784" lon="14.70613">
        <ele>11.805779</ele>
        <time>2020-07-15T22:32:25.403Z</time>
      </trkpt>
      <trkpt lat="68.57839" lon="14.70626">
        <ele>11.767302</ele>
        <time>2020-07-15T22:32:26.164Z</time>
      </trkpt>
      <trkpt lat="68.57838" lon="14.70645">
        <ele>11.709152</ele>
        <time>2020-07-15T22:32:27.257Z</time>
      </trkpt>
      <trkpt lat="68.57834" lon="14.7078">
        <ele>11.311765</ele>
        <time>2020-07-15T22:32:35.475Z</time>
      </trkpt>
      <trkpt lat="68.57831" lon="14.70815">
        <ele>11.205134</ele>
        <time>2020-07-15T22:32:37.559Z</time>
      </trkpt>
      <trkpt lat="68.57829" lon="14.70839">
        <ele>11.131802</ele>
        <time>2020-07-15T22:32:38.940Z</time>
      </trkpt>
      <trkpt lat="68.57798" lon="14.71021">
        <ele>10.544153</ele>
        <time>2020-07-15T22:32:50.143Z</time>
      </trkpt>
      <trkpt lat="68.57789" lon="14.71103">
        <ele>10.20577</ele>
        <time>2020-07-15T22:32:54.898Z</time>
      </trkpt>
      <trkpt lat="68.57782" lon="14.7121">
        <ele>9.76768</ele>
        <time>2020-07-15T22:33:00.854Z</time>
      </trkpt>
      <trkpt lat="68.57781" lon="14.71215">
        <ele>9.746206</ele>
        <time>2020-07-15T22:33:01.089Z</time>
      </trkpt>
      <trkpt lat="68.57772" lon="14.71325">
        <ele>9.286953</ele>
        <time>2020-07-15T22:33:07.461Z</time>
      </trkpt>
      <trkpt lat="68.57764" lon="14.71423">
        <ele>8.881157</ele>
        <time>2020-07-15T22:33:13.121Z</time>
      </trkpt>
      <trkpt lat="68.57756" lon="14.71502">
        <ele>8.551814</ele>
        <time>2020-07-15T22:33:17.689Z</time>
      </trkpt>
      <trkpt lat="68.57731" lon="14.71691">
        <ele>8.195112</ele>
        <time>2020-07-15T22:33:29.331Z</time>
      </trkpt>
      <trkpt lat="68.57729" lon="14.71707">
        <ele>8.164325</ele>
        <time>2020-07-15T22:33:30.378Z</time>
      </trkpt>
      <trkpt lat="68.57721" lon="14.71737">
        <ele>8.103585</ele>
        <time>2020-07-15T22:33:32.521Z</time>
      </trkpt>
      <trkpt lat="68.5768" lon="14.7187">
        <ele>7.801977</ele>
        <time>2020-07-15T22:33:43.075Z</time>
      </trkpt>
      <trkpt lat="68.57673" lon="14.71892">
        <ele>7.752955</ele>
        <time>2020-07-15T22:33:44.965Z</time>
      </trkpt>
      <trkpt lat="68.57667" lon="14.71917">
        <ele>7.70219</ele>
        <time>2020-07-15T22:33:46.782Z</time>
      </trkpt>
      <trkpt lat="68.57627" lon="14.72144">
        <ele>8.623649</ele>
        <time>2020-07-15T22:34:05.823Z</time>
      </trkpt>
      <trkpt lat="68.5762" lon="14.72185">
        <ele>8.799215</ele>
        <time>2020-07-15T22:34:09.782Z</time>
      </trkpt>
      <trkpt lat="68.57615" lon="14.72213">
        <ele>8.921334</ele>
        <time>2020-07-15T22:34:12.001Z</time>
      </trkpt>
      <trkpt lat="68.57598" lon="14.72303">
        <ele>9.31417</ele>
        <time>2020-07-15T22:34:20.498Z</time>
      </trkpt>
      <trkpt lat="68.57592" lon="14.7233">
        <ele>9.43635</ele>
        <time>2020-07-15T22:34:23.259Z</time>
      </trkpt>
      <trkpt lat="68.57585" lon="14.72358">
        <ele>9.569128</ele>
        <time>2020-07-15T22:34:26.125Z</time>
      </trkpt>
      <trkpt lat="68.57578" lon="14.72377">
        <ele>9.700105</ele>
        <time>2020-07-15T22:34:28.106Z</time>
      </trkpt>
      <trkpt lat="68.57576" lon="14.72382">
        <ele>9.732583</ele>
        <time>2020-07-15T22:34:28.777Z</time>
      </trkpt>
      <trkpt lat="68.5757" lon="14.72398">
        <ele>9.843868</ele>
        <time>2020-07-15T22:34:30.682Z</time>
      </trkpt>
      <trkpt lat="68.57568" lon="14.72406">
        <ele>9.89886</ele>
        <time>2020-07-15T22:34:31.716Z</time>
      </trkpt>
      <trkpt lat="68.57562" lon="14.72424">
        <ele>10.019442</ele>
        <time>2020-07-15T22:34:33.815Z</time>
      </trkpt>
      <trkpt lat="68.57546" lon="14.72496">
        <ele>10.436187</ele>
        <time>2020-07-15T22:34:40.665Z</time>
      </trkpt>
      <trkpt lat="68.57533" lon="14.72608">
        <ele>11.019996</ele>
        <time>2020-07-15T22:34:50.475Z</time>
      </trkpt>
      <trkpt lat="68.57528" lon="14.72821">
        <ele>12.04561</ele>
        <time>2020-07-15T22:35:08.104Z</time>
      </trkpt>
      <trkpt lat="68.57527" lon="14.72869">
        <ele>12.073004</ele>
        <time>2020-07-15T22:35:11.283Z</time>
      </trkpt>
      <trkpt lat="68.57527" lon="14.72951">
        <ele>12.120016</ele>
        <time>2020-07-15T22:35:16.768Z</time>
      </trkpt>
      <trkpt lat="68.57527" lon="14.72978">
        <ele>12.135594</ele>
        <time>2020-07-15T22:35:18.543Z</time>
      </trkpt>
      <trkpt lat="68.57528" lon="14.73041">
        <ele>12.171947</ele>
        <time>2020-07-15T22:35:22.742Z</time>
      </trkpt>
      <trkpt lat="68.5753" lon="14.73088">
        <ele>12.198678</ele>
        <time>2020-07-15T22:35:25.759Z</time>
      </trkpt>
      <trkpt lat="68.57536" lon="14.73269">
        <ele>12.302634</ele>
        <time>2020-07-15T22:35:37.418Z</time>
      </trkpt>
      <trkpt lat="68.57537" lon="14.73327">
        <ele>12.305633</ele>
        <time>2020-07-15T22:35:41.151Z</time>
      </trkpt>
      <trkpt lat="68.57538" lon="14.73367">
        <ele>12.272676</ele>
        <time>2020-07-15T22:35:43.717Z</time>
      </trkpt>
      <trkpt lat="68.57538" lon="14.7374">
        <ele>11.968661</ele>
        <time>2020-07-15T22:36:06.882Z</time>
      </trkpt>
      <trkpt lat="68.5754" lon="14.73858">
        <ele>12.0914</ele>
        <time>2020-07-15T22:36:14.298Z</time>
      </trkpt>
      <trkpt lat="68.5754" lon="14.73895">
        <ele>12.193291</ele>
        <time>2020-07-15T22:36:16.699Z</time>
      </trkpt>
      <trkpt lat="68.5754" lon="14.73955">
        <ele>12.358033</ele>
        <time>2020-07-15T22:36:20.687Z</time>
      </trkpt>
      <trkpt lat="68.57541" lon="14.74048">
        <ele>12.615746</ele>
        <time>2020-07-15T22:36:27.223Z</time>
      </trkpt>
      <trkpt lat="68.57542" lon="14.74223">
        <ele>13.100073</ele>
        <time>2020-07-15T22:36:40.545Z</time>
      </trkpt>
      <trkpt lat="68.57542" lon="14.74257">
        <ele>13.19616</ele>
        <time>2020-07-15T22:36:43.447Z</time>
      </trkpt>
      <trkpt lat="68.57543" lon="14.74472">
        <ele>15.115779</ele>
        <time>2020-07-15T22:37:03.173Z</time>
      </trkpt>
      <trkpt lat="68.57543" lon="14.74628">
        <ele>16.670583</ele>
        <time>2020-07-15T22:37:19.737Z</time>
      </trkpt>
      <trkpt lat="68.57543" lon="14.74637">
        <ele>16.764691</ele>
        <time>2020-07-15T22:37:20.824Z</time>
      </trkpt>
      <trkpt lat="68.57544" lon="14.7482">
        <ele>18.270054</ele>
        <time>2020-07-15T22:37:40.084Z</time>
      </trkpt>
      <trkpt lat="68.57545" lon="14.74914">
        <ele>18.406915</ele>
        <time>2020-07-15T22:37:48.045Z</time>
      </trkpt>
      <trkpt lat="68.57547" lon="14.74983">
        <ele>18.508105</ele>
        <time>2020-07-15T22:37:53.571Z</time>
      </trkpt>
      <trkpt lat="68.57551" lon="14.75054">
        <ele>18.612583</ele>
        <time>2020-07-15T22:37:58.167Z</time>
      </trkpt>
      <trkpt lat="68.57552" lon="14.75076">
        <ele>18.646119</ele>
        <time>2020-07-15T22:38:00.060Z</time>
      </trkpt>
      <trkpt lat="68.57563" lon="14.75212">
        <ele>18.847252</ele>
        <time>2020-07-15T22:38:08.052Z</time>
      </trkpt>
      <trkpt lat="68.57564" lon="14.75221">
        <ele>18.861235</ele>
        <time>2020-07-15T22:38:08.466Z</time>
      </trkpt>
      <trkpt lat="68.57567" lon="14.75246">
        <ele>18.900506</ele>
        <time>2020-07-15T22:38:10.011Z</time>
      </trkpt>
      <trkpt lat="68.57574" lon="14.75292">
        <ele>18.745291</ele>
        <time>2020-07-15T22:38:12.730Z</time>
      </trkpt>
      <trkpt lat="68.57579" lon="14.75319">
        <ele>18.543572</ele>
        <time>2020-07-15T22:38:14.150Z</time>
      </trkpt>
      <trkpt lat="68.57594" lon="14.75404">
        <ele>17.911611</ele>
        <time>2020-07-15T22:38:18.869Z</time>
      </trkpt>
      <trkpt lat="68.57604" lon="14.75462">
        <ele>17.482334</ele>
        <time>2020-07-15T22:38:22.123Z</time>
      </trkpt>
      <trkpt lat="68.57613" lon="14.75545">
        <ele>16.903144</ele>
        <time>2020-07-15T22:38:26.296Z</time>
      </trkpt>
      <trkpt lat="68.57613" lon="14.75578">
        <ele>16.681057</ele>
        <time>2020-07-15T22:38:27.908Z</time>
      </trkpt>
      <trkpt lat="68.57613" lon="14.75611">
        <ele>16.462013</ele>
        <time>2020-07-15T22:38:29.476Z</time>
      </trkpt>
      <trkpt lat="68.57612" lon="14.7567">
        <ele>16.063619</ele>
        <time>2020-07-15T22:38:32.717Z</time>
      </trkpt>
      <trkpt lat="68.57612" lon="14.75688">
        <ele>15.942157</ele>
        <time>2020-07-15T22:38:33.668Z</time>
      </trkpt>
      <trkpt lat="68.5761" lon="14.75807">
        <ele>15.951706</ele>
        <time>2020-07-15T22:38:40.988Z</time>
      </trkpt>
      <trkpt lat="68.57607" lon="14.76114">
        <ele>17.300401</ele>
        <time>2020-07-15T22:39:06.436Z</time>
      </trkpt>
      <trkpt lat="68.57604" lon="14.76281">
        <ele>17.999931</ele>
        <time>2020-07-15T22:39:22.609Z</time>
      </trkpt>
      <trkpt lat="68.576" lon="14.76557">
        <ele>19.028208</ele>
        <time>2020-07-15T22:39:45.551Z</time>
      </trkpt>
      <trkpt lat="68.57597" lon="14.76688">
        <ele>19.515096</ele>
        <time>2020-07-15T22:39:54.460Z</time>
      </trkpt>
      <trkpt lat="68.57597" lon="14.76731">
        <ele>19.54048</ele>
        <time>2020-07-15T22:39:56.927Z</time>
      </trkpt>
      <trkpt lat="68.57596" lon="14.76756">
        <ele>19.366279</ele>
        <time>2020-07-15T22:39:58.283Z</time>
      </trkpt>
      <trkpt lat="68.57594" lon="14.76792">
        <ele>19.111039</ele>
        <time>2020-07-15T22:40:00.428Z</time>
      </trkpt>
      <trkpt lat="68.57584" lon="14.76919">
        <ele>18.216322</ele>
        <time>2020-07-15T22:40:07.404Z</time>
      </trkpt>
      <trkpt lat="68.57577" lon="14.77002">
        <ele>17.627499</ele>
        <time>2020-07-15T22:40:11.776Z</time>
      </trkpt>
      <trkpt lat="68.57559" lon="14.77189">
        <ele>16.286183</ele>
        <time>2020-07-15T22:40:21.267Z</time>
      </trkpt>
      <trkpt lat="68.57549" lon="14.77352">
        <ele>14.516449</ele>
        <time>2020-07-15T22:40:29.290Z</time>
      </trkpt>
      <trkpt lat="68.57548" lon="14.77417">
        <ele>13.806312</ele>
        <time>2020-07-15T22:40:32.399Z</time>
      </trkpt>
      <trkpt lat="68.57543" lon="14.77873">
        <ele>9.583439</ele>
        <time>2020-07-15T22:40:54.438Z</time>
      </trkpt>
      <trkpt lat="68.57542" lon="14.78013">
        <ele>8.633634</ele>
        <time>2020-07-15T22:41:01.596Z</time>
      </trkpt>
      <trkpt lat="68.5754" lon="14.78309">
        <ele>8.154472</ele>
        <time>2020-07-15T22:41:19.296Z</time>
      </trkpt>
      <trkpt lat="68.57537" lon="14.78488">
        <ele>9.077532</ele>
        <time>2020-07-15T22:41:34.036Z</time>
      </trkpt>
      <trkpt lat="68.57526" lon="14.78701">
        <ele>10.374975</ele>
        <time>2020-07-15T22:41:54.509Z</time>
      </trkpt>
      <trkpt lat="68.57509" lon="14.7899">
        <ele>13.793174</ele>
        <time>2020-07-15T22:42:26.843Z</time>
      </trkpt>
      <trkpt lat="68.57498" lon="14.79078">
        <ele>14.887058</ele>
        <time>2020-07-15T22:42:36.730Z</time>
      </trkpt>
      <trkpt lat="68.5748" lon="14.79163">
        <ele>15.778598</ele>
        <time>2020-07-15T22:42:45.977Z</time>
      </trkpt>
      <trkpt lat="68.57474" lon="14.79193">
        <ele>15.785012</ele>
        <time>2020-07-15T22:42:49.404Z</time>
      </trkpt>
      <trkpt lat="68.57455" lon="14.79311">
        <ele>15.808964</ele>
        <time>2020-07-15T22:42:59.391Z</time>
      </trkpt>
      <trkpt lat="68.57441" lon="14.79446">
        <ele>15.834838</ele>
        <time>2020-07-15T22:43:08.959Z</time>
      </trkpt>
      <trkpt lat="68.57439" lon="14.79477">
        <ele>15.840696</ele>
        <time>2020-07-15T22:43:11.093Z</time>
      </trkpt>
      <trkpt lat="68.57438" lon="14.79494">
        <ele>15.843906</ele>
        <time>2020-07-15T22:43:11.910Z</time>
      </trkpt>
      <trkpt lat="68.57441" lon="14.79662">
        <ele>15.309587</ele>
        <time>2020-07-15T22:43:20.533Z</time>
      </trkpt>
      <trkpt lat="68.57449" lon="14.79828">
        <ele>13.452936</ele>
        <time>2020-07-15T22:43:28.369Z</time>
      </trkpt>
      <trkpt lat="68.57471" lon="14.80149">
        <ele>10.106345</ele>
        <time>2020-07-15T22:43:43.936Z</time>
      </trkpt>
      <trkpt lat="68.57477" lon="14.80228">
        <ele>9.638295</ele>
        <time>2020-07-15T22:43:47.978Z</time>
      </trkpt>
      <trkpt lat="68.57489" lon="14.80409">
        <ele>8.553127</ele>
        <time>2020-07-15T22:43:57.851Z</time>
      </trkpt>
      <trkpt lat="68.57495" lon="14.80495">
        <ele>8.046713</ele>
        <time>2020-07-15T22:44:02.882Z</time>
      </trkpt>
      <trkpt lat="68.57495" lon="14.80504">
        <ele>7.993008</ele>
        <time>2020-07-15T22:44:03.448Z</time>
      </trkpt>
      <trkpt lat="68.575" lon="14.8061">
        <ele>7.426838</ele>
        <time>2020-07-15T22:44:10.086Z</time>
      </trkpt>
      <trkpt lat="68.57511" lon="14.80851">
        <ele>6.5763</ele>
        <time>2020-07-15T22:44:24.428Z</time>
      </trkpt>
      <trkpt lat="68.57516" lon="14.80928">
        <ele>6.302233</ele>
        <time>2020-07-15T22:44:28.858Z</time>
      </trkpt>
      <trkpt lat="68.5754" lon="14.81225">
        <ele>4.973489</ele>
        <time>2020-07-15T22:44:45.152Z</time>
      </trkpt>
      <trkpt lat="68.57545" lon="14.81296">
        <ele>4.605561</ele>
        <time>2020-07-15T22:44:49.303Z</time>
      </trkpt>
      <trkpt lat="68.57545" lon="14.81383">
        <ele>4.159181</ele>
        <time>2020-07-15T22:44:53.956Z</time>
      </trkpt>
      <trkpt lat="68.57542" lon="14.81421">
        <ele>3.959432</ele>
        <time>2020-07-15T22:44:55.856Z</time>
      </trkpt>
      <trkpt lat="68.5754" lon="14.81438">
        <ele>3.865362</ele>
        <time>2020-07-15T22:44:57.108Z</time>
      </trkpt>
      <trkpt lat="68.57519" lon="14.81574">
        <ele>3.150856</ele>
        <time>2020-07-15T22:45:05.114Z</time>
      </trkpt>
      <trkpt lat="68.57507" lon="14.81661">
        <ele>2.792912</ele>
        <time>2020-07-15T22:45:10.369Z</time>
      </trkpt>
      <trkpt lat="68.57496" lon="14.81749">
        <ele>2.43638</ele>
        <time>2020-07-15T22:45:15.496Z</time>
      </trkpt>
      <trkpt lat="68.57469" lon="14.81949">
        <ele>1.615119</ele>
        <time>2020-07-15T22:45:27.810Z</time>
      </trkpt>
      <trkpt lat="68.57442" lon="14.82082">
        <ele>1.179423</ele>
        <time>2020-07-15T22:45:36.477Z</time>
      </trkpt>
      <trkpt lat="68.5744" lon="14.82092">
        <ele>1.153185</ele>
        <time>2020-07-15T22:45:37.044Z</time>
      </trkpt>
      <trkpt lat="68.57437" lon="14.82103">
        <ele>1.123895</ele>
        <time>2020-07-15T22:45:37.798Z</time>
      </trkpt>
      <trkpt lat="68.57411" lon="14.82151">
        <ele>0.934032</ele>
        <time>2020-07-15T22:45:42.772Z</time>
      </trkpt>
      <trkpt lat="68.57369" lon="14.82189">
        <ele>0.665179</ele>
        <time>2020-07-15T22:45:50.016Z</time>
      </trkpt>
      <trkpt lat="68.57321" lon="14.82227">
        <ele>0.36757</ele>
        <time>2020-07-15T22:45:58.298Z</time>
      </trkpt>
      <trkpt lat="68.57158" lon="14.82344">
        <ele>0.386653</ele>
        <time>2020-07-15T22:46:28.873Z</time>
      </trkpt>
      <trkpt lat="68.57135" lon="14.82375">
        <ele>0.405808</ele>
        <time>2020-07-15T22:46:33.503Z</time>
      </trkpt>
      <trkpt lat="68.57033" lon="14.82569">
        <ele>0.755774</ele>
        <time>2020-07-15T22:46:56.519Z</time>
      </trkpt>
      <trkpt lat="68.57004" lon="14.82661">
        <ele>0.881328</ele>
        <time>2020-07-15T22:47:04.887Z</time>
      </trkpt>
      <trkpt lat="68.56952" lon="14.82983">
        <ele>1.469302</ele>
        <time>2020-07-15T22:47:30.199Z</time>
      </trkpt>
      <trkpt lat="68.5695" lon="14.83002">
        <ele>1.502611</ele>
        <time>2020-07-15T22:47:31.443Z</time>
      </trkpt>
      <trkpt lat="68.56946" lon="14.83043">
        <ele>1.575687</ele>
        <time>2020-07-15T22:47:34.635Z</time>
      </trkpt>
      <trkpt lat="68.56918" lon="14.83228">
        <ele>1.819322</ele>
        <time>2020-07-15T22:47:48.609Z</time>
      </trkpt>
      <trkpt lat="68.56895" lon="14.83317">
        <ele>1.893716</ele>
        <time>2020-07-15T22:47:56.210Z</time>
      </trkpt>
      <trkpt lat="68.56883" lon="14.83364">
        <ele>1.933305</ele>
        <time>2020-07-15T22:47:59.884Z</time>
      </trkpt>
      <trkpt lat="68.56867" lon="14.8343">
        <ele>1.988015</ele>
        <time>2020-07-15T22:48:05.306Z</time>
      </trkpt>
      <trkpt lat="68.56846" lon="14.83517">
        <ele>2.060357</ele>
        <time>2020-07-15T22:48:11.987Z</time>
      </trkpt>
      <trkpt lat="68.5683" lon="14.83601">
        <ele>2.140185</ele>
        <time>2020-07-15T22:48:18.058Z</time>
      </trkpt>
      <trkpt lat="68.56824" lon="14.83653">
        <ele>2.193611</ele>
        <time>2020-07-15T22:48:21.942Z</time>
      </trkpt>
      <trkpt lat="68.56816" lon="14.83714">
        <ele>2.257975</ele>
        <time>2020-07-15T22:48:25.949Z</time>
      </trkpt>
      <trkpt lat="68.56803" lon="14.83799">
        <ele>2.34894</ele>
        <time>2020-07-15T22:48:32.333Z</time>
      </trkpt>
      <trkpt lat="68.56785" lon="14.83907">
        <ele>2.465811</ele>
        <time>2020-07-15T22:48:40.842Z</time>
      </trkpt>
      <trkpt lat="68.56773" lon="14.83979">
        <ele>2.543352</ele>
        <time>2020-07-15T22:48:46.371Z</time>
      </trkpt>
      <trkpt lat="68.56769" lon="14.84006">
        <ele>2.572412</ele>
        <time>2020-07-15T22:48:48.754Z</time>
      </trkpt>
      <trkpt lat="68.56722" lon="14.84353">
        <ele>2.956929</ele>
        <time>2020-07-15T22:49:13.723Z</time>
      </trkpt>
      <trkpt lat="68.56716" lon="14.84413">
        <ele>3.022393</ele>
        <time>2020-07-15T22:49:18.691Z</time>
      </trkpt>
      <trkpt lat="68.56713" lon="14.84452">
        <ele>3.062631</ele>
        <time>2020-07-15T22:49:20.948Z</time>
      </trkpt>
      <trkpt lat="68.56711" lon="14.84582">
        <ele>3.298609</ele>
        <time>2020-07-15T22:49:29.975Z</time>
      </trkpt>
      <trkpt lat="68.56711" lon="14.84634">
        <ele>3.403532</ele>
        <time>2020-07-15T22:49:33.069Z</time>
      </trkpt>
      <trkpt lat="68.56715" lon="14.84786">
        <ele>3.707737</ele>
        <time>2020-07-15T22:49:43.390Z</time>
      </trkpt>
      <trkpt lat="68.5672" lon="14.84945">
        <ele>4.028026</ele>
        <time>2020-07-15T22:49:54.602Z</time>
      </trkpt>
      <trkpt lat="68.5672" lon="14.84985">
        <ele>4.230101</ele>
        <time>2020-07-15T22:49:58.082Z</time>
      </trkpt>
      <trkpt lat="68.56725" lon="14.85227">
        <ele>6.495227</ele>
        <time>2020-07-15T22:50:20.834Z</time>
      </trkpt>
      <trkpt lat="68.56726" lon="14.85281">
        <ele>7.003583</ele>
        <time>2020-07-15T22:50:25.954Z</time>
      </trkpt>
      <trkpt lat="68.56726" lon="14.85302">
        <ele>7.202069</ele>
        <time>2020-07-15T22:50:28.111Z</time>
      </trkpt>
      <trkpt lat="68.56725" lon="14.85378">
        <ele>7.9063</ele>
        <time>2020-07-15T22:50:35.605Z</time>
      </trkpt>
      <trkpt lat="68.56715" lon="14.85789">
        <ele>12.654916</ele>
        <time>2020-07-15T22:51:20.103Z</time>
      </trkpt>
      <trkpt lat="68.56721" lon="14.85908">
        <ele>14.112526</ele>
        <time>2020-07-15T22:51:32.150Z</time>
      </trkpt>
      <trkpt lat="68.56745" lon="14.8605">
        <ele>15.450579</ele>
        <time>2020-07-15T22:51:47.179Z</time>
      </trkpt>
      <trkpt lat="68.56747" lon="14.86058">
        <ele>15.515817</ele>
        <time>2020-07-15T22:51:48.269Z</time>
      </trkpt>
      <trkpt lat="68.56751" lon="14.86079">
        <ele>15.69511</ele>
        <time>2020-07-15T22:51:50.372Z</time>
      </trkpt>
      <trkpt lat="68.56755" lon="14.86099">
        <ele>15.86515</ele>
        <time>2020-07-15T22:51:52.298Z</time>
      </trkpt>
      <trkpt lat="68.56763" lon="14.86138">
        <ele>16.193517</ele>
        <time>2020-07-15T22:51:56.558Z</time>
      </trkpt>
      <trkpt lat="68.56772" lon="14.86195">
        <ele>16.644917</ele>
        <time>2020-07-15T22:52:01.739Z</time>
      </trkpt>
      <trkpt lat="68.56774" lon="14.86215">
        <ele>16.798808</ele>
        <time>2020-07-15T22:52:03.714Z</time>
      </trkpt>
      <trkpt lat="68.56777" lon="14.86255">
        <ele>17.098138</ele>
        <time>2020-07-15T22:52:07.337Z</time>
      </trkpt>
      <trkpt lat="68.56779" lon="14.86282">
        <ele>17.299291</ele>
        <time>2020-07-15T22:52:09.416Z</time>
      </trkpt>
      <trkpt lat="68.5678" lon="14.8632">
        <ele>17.578629</ele>
        <time>2020-07-15T22:52:12.759Z</time>
      </trkpt>
      <trkpt lat="68.56784" lon="14.86403">
        <ele>18.188664</ele>
        <time>2020-07-15T22:52:19.582Z</time>
      </trkpt>
      <trkpt lat="68.56786" lon="14.86421">
        <ele>18.269047</ele>
        <time>2020-07-15T22:52:21.194Z</time>
      </trkpt>
      <trkpt lat="68.56787" lon="14.86443">
        <ele>18.340632</ele>
        <time>2020-07-15T22:52:23.143Z</time>
      </trkpt>
      <trkpt lat="68.56789" lon="14.86457">
        <ele>18.387127</ele>
        <time>2020-07-15T22:52:24.198Z</time>
      </trkpt>
      <trkpt lat="68.56795" lon="14.86504">
        <ele>18.547295</ele>
        <time>2020-07-15T22:52:28.176Z</time>
      </trkpt>
      <trkpt lat="68.56822" lon="14.86661">
        <ele>19.103765</ele>
        <time>2020-07-15T22:52:40.793Z</time>
      </trkpt>
      <trkpt lat="68.56816" lon="14.86668">
        <ele>19.152811</ele>
        <time>2020-07-15T22:52:41.996Z</time>
      </trkpt>
      <trkpt lat="68.56793" lon="14.86702">
        <ele>19.385792</ele>
        <time>2020-07-15T22:52:47.296Z</time>
      </trkpt>
      <trkpt lat="68.56786" lon="14.86749">
        <ele>19.549502</ele>
        <time>2020-07-15T22:52:51.093Z</time>
      </trkpt>
      <trkpt lat="68.56813" lon="14.86959">
        <ele>20.607587</ele>
        <time>2020-07-15T22:53:08.454Z</time>
      </trkpt>
      <trkpt lat="68.56819" lon="14.87016">
        <ele>20.940853</ele>
        <time>2020-07-15T22:53:13.385Z</time>
      </trkpt>
      <trkpt lat="68.56823" lon="14.87057">
        <ele>21.179942</ele>
        <time>2020-07-15T22:53:16.899Z</time>
      </trkpt>
      <trkpt lat="68.56818" lon="14.87133">
        <ele>21.610399</ele>
        <time>2020-07-15T22:53:23.426Z</time>
      </trkpt>
      <trkpt lat="68.56785" lon="14.87347">
        <ele>22.663736</ele>
        <time>2020-07-15T22:53:46.135Z</time>
      </trkpt>
      <trkpt lat="68.56772" lon="14.87546">
        <ele>22.992145</ele>
        <time>2020-07-15T22:54:02.949Z</time>
      </trkpt>
      <trkpt lat="68.5677" lon="14.87577">
        <ele>23.043218</ele>
        <time>2020-07-15T22:54:06.085Z</time>
      </trkpt>
      <trkpt lat="68.56795" lon="14.87619">
        <ele>23.173986</ele>
        <time>2020-07-15T22:54:10.793Z</time>
      </trkpt>
      <trkpt lat="68.56806" lon="14.87639">
        <ele>23.232314</ele>
        <time>2020-07-15T22:54:13.301Z</time>
      </trkpt>
      <trkpt lat="68.56805" lon="14.87671">
        <ele>23.283829</ele>
        <time>2020-07-15T22:54:14.871Z</time>
      </trkpt>
      <trkpt lat="68.56806" lon="14.87697">
        <ele>23.326565</ele>
        <time>2020-07-15T22:54:16.365Z</time>
      </trkpt>
      <trkpt lat="68.56806" lon="14.87726">
        <ele>23.265404</ele>
        <time>2020-07-15T22:54:18.384Z</time>
      </trkpt>
      <trkpt lat="68.56808" lon="14.87779">
        <ele>22.482982</ele>
        <time>2020-07-15T22:54:20.935Z</time>
      </trkpt>
      <trkpt lat="68.56812" lon="14.87877">
        <ele>21.037295</ele>
        <time>2020-07-15T22:54:25.673Z</time>
      </trkpt>
      <trkpt lat="68.56814" lon="14.87921">
        <ele>20.394263</ele>
        <time>2020-07-15T22:54:28.155Z</time>
      </trkpt>
      <trkpt lat="68.56816" lon="14.8797">
        <ele>19.66437</ele>
        <time>2020-07-15T22:54:30.317Z</time>
      </trkpt>
      <trkpt lat="68.56816" lon="14.8804">
        <ele>18.653978</ele>
        <time>2020-07-15T22:54:33.429Z</time>
      </trkpt>
      <trkpt lat="68.56814" lon="14.88094">
        <ele>17.849089</ele>
        <time>2020-07-15T22:54:35.801Z</time>
      </trkpt>
      <trkpt lat="68.56812" lon="14.88114">
        <ele>17.562</ele>
        <time>2020-07-15T22:54:36.685Z</time>
      </trkpt>
      <trkpt lat="68.56807" lon="14.88172">
        <ele>16.682598</ele>
        <time>2020-07-15T22:54:39.213Z</time>
      </trkpt>
      <trkpt lat="68.56803" lon="14.88215">
        <ele>16.037917</ele>
        <time>2020-07-15T22:54:41.178Z</time>
      </trkpt>
      <trkpt lat="68.56802" lon="14.88238">
        <ele>15.688719</ele>
        <time>2020-07-15T22:54:42.240Z</time>
      </trkpt>
      <trkpt lat="68.56797" lon="14.88238">
        <ele>15.519557</ele>
        <time>2020-07-15T22:54:42.802Z</time>
      </trkpt>
      <trkpt lat="68.56796" lon="14.88253">
        <ele>15.290125</ele>
        <time>2020-07-15T22:54:43.457Z</time>
      </trkpt>
      <trkpt lat="68.56775" lon="14.88565">
        <ele>10.632568</ele>
        <time>2020-07-15T22:54:58.483Z</time>
      </trkpt>
      <trkpt lat="68.56776" lon="14.88682">
        <ele>8.938707</ele>
        <time>2020-07-15T22:55:04.386Z</time>
      </trkpt>
      <trkpt lat="68.56778" lon="14.88707">
        <ele>9.049202</ele>
        <time>2020-07-15T22:55:05.598Z</time>
      </trkpt>
      <trkpt lat="68.56781" lon="14.88756">
        <ele>9.265815</ele>
        <time>2020-07-15T22:55:08.694Z</time>
      </trkpt>
      <trkpt lat="68.56819" lon="14.89068">
        <ele>10.715902</ele>
        <time>2020-07-15T22:55:36.401Z</time>
      </trkpt>
      <trkpt lat="68.5682" lon="14.8908">
        <ele>10.772531</ele>
        <time>2020-07-15T22:55:37.465Z</time>
      </trkpt>
      <trkpt lat="68.56811" lon="14.89086">
        <ele>10.883957</ele>
        <time>2020-07-15T22:55:41.363Z</time>
      </trkpt>
      <trkpt lat="68.56794" lon="14.89099">
        <ele>11.114619</ele>
        <time>2020-07-15T22:55:46.586Z</time>
      </trkpt>
      <trkpt lat="68.56786" lon="14.89108">
        <ele>11.576097</ele>
        <time>2020-07-15T22:55:49.317Z</time>
      </trkpt>
      <trkpt lat="68.56778" lon="14.89121">
        <ele>12.11395</ele>
        <time>2020-07-15T22:55:53.495Z</time>
      </trkpt>
      <trkpt lat="68.56765" lon="14.89159">
        <ele>13.147604</ele>
        <time>2020-07-15T22:55:59.174Z</time>
      </trkpt>
      <trkpt lat="68.56761" lon="14.89195">
        <ele>13.893197</ele>
        <time>2020-07-15T22:56:04.229Z</time>
      </trkpt>
      <trkpt lat="68.56762" lon="14.89258">
        <ele>15.156799</ele>
        <time>2020-07-15T22:56:11.654Z</time>
      </trkpt>
      <trkpt lat="68.56769" lon="14.89311">
        <ele>16.280904</ele>
        <time>2020-07-15T22:56:19.700Z</time>
      </trkpt>
      <trkpt lat="68.56775" lon="14.89347">
        <ele>17.085609</ele>
        <time>2020-07-15T22:56:25.177Z</time>
      </trkpt>
      <trkpt lat="68.56781" lon="14.89381">
        <ele>17.85824</ele>
        <time>2020-07-15T22:56:31.198Z</time>
      </trkpt>
      <trkpt lat="68.56805" lon="14.89563">
        <ele>21.767141</ele>
        <time>2020-07-15T22:56:58.896Z</time>
      </trkpt>
      <trkpt lat="68.56804" lon="14.89656">
        <ele>23.70167</ele>
        <time>2020-07-15T22:57:11.012Z</time>
      </trkpt>
      <trkpt lat="68.56803" lon="14.8966">
        <ele>23.797333</ele>
        <time>2020-07-15T22:57:11.878Z</time>
      </trkpt>
      <trkpt lat="68.56798" lon="14.89684">
        <ele>24.369562</ele>
        <time>2020-07-15T22:57:15.662Z</time>
      </trkpt>
      <trkpt lat="68.5679" lon="14.89719">
        <ele>25.218023</ele>
        <time>2020-07-15T22:57:22.006Z</time>
      </trkpt>
      <trkpt lat="68.56783" lon="14.8974">
        <ele>25.805169</ele>
        <time>2020-07-15T22:57:25.073Z</time>
      </trkpt>
      <trkpt lat="68.56777" lon="14.89757">
        <ele>26.316761</ele>
        <time>2020-07-15T22:57:28.711Z</time>
      </trkpt>
      <trkpt lat="68.56772" lon="14.89741">
        <ele>26.756557</ele>
        <time>2020-07-15T22:57:32.308Z</time>
      </trkpt>
      <trkpt lat="68.56745" lon="14.89694">
        <ele>28.552839</ele>
        <time>2020-07-15T22:57:43.169Z</time>
      </trkpt>
      <trkpt lat="68.56724" lon="14.89668">
        <ele>29.849054</ele>
        <time>2020-07-15T22:57:50.907Z</time>
      </trkpt>
      <trkpt lat="68.56684" lon="14.89617">
        <ele>31.332265</ele>
        <time>2020-07-15T22:58:07.553Z</time>
      </trkpt>
      <trkpt lat="68.56678" lon="14.89611">
        <ele>31.373867</ele>
        <time>2020-07-15T22:58:10.399Z</time>
      </trkpt>
      <trkpt lat="68.56668" lon="14.89623">
        <ele>31.453025</ele>
        <time>2020-07-15T22:58:14.093Z</time>
      </trkpt>
      <trkpt lat="68.56657" lon="14.8964">
        <ele>31.539119</ele>
        <time>2020-07-15T22:58:16.414Z</time>
      </trkpt>
      <trkpt lat="68.56651" lon="14.89653">
        <ele>31.596655</ele>
        <time>2020-07-15T22:58:18.762Z</time>
      </trkpt>
      <trkpt lat="68.56651" lon="14.8967">
        <ele>31.640958</ele>
        <time>2020-07-15T22:58:21.131Z</time>
      </trkpt>
      <trkpt lat="68.56645" lon="14.89757">
        <ele>31.869562</ele>
        <time>2020-07-15T22:58:27.698Z</time>
      </trkpt>
      <trkpt lat="68.56629" lon="14.89857">
        <ele>32.149892</ele>
        <time>2020-07-15T22:58:34.199Z</time>
      </trkpt>
      <trkpt lat="68.56623" lon="14.89896">
        <ele>32.258796</ele>
        <time>2020-07-15T22:58:36.508Z</time>
      </trkpt>
      <trkpt lat="68.56618" lon="14.89955">
        <ele>32.418073</ele>
        <time>2020-07-15T22:58:39.615Z</time>
      </trkpt>
      <trkpt lat="68.56615" lon="14.89987">
        <ele>32.054712</ele>
        <time>2020-07-15T22:58:41.353Z</time>
      </trkpt>
      <trkpt lat="68.56613" lon="14.90048">
        <ele>30.591278</ele>
        <time>2020-07-15T22:58:44.297Z</time>
      </trkpt>
      <trkpt lat="68.56593" lon="14.90198">
        <ele>26.758438</ele>
        <time>2020-07-15T22:58:51.586Z</time>
      </trkpt>
      <trkpt lat="68.56591" lon="14.90214">
        <ele>26.353606</ele>
        <time>2020-07-15T22:58:52.274Z</time>
      </trkpt>
      <trkpt lat="68.56585" lon="14.90249">
        <ele>25.442676</ele>
        <time>2020-07-15T22:58:53.948Z</time>
      </trkpt>
      <trkpt lat="68.5656" lon="14.90412">
        <ele>21.197777</ele>
        <time>2020-07-15T22:59:01.498Z</time>
      </trkpt>
      <trkpt lat="68.56553" lon="14.90461">
        <ele>19.863521</ele>
        <time>2020-07-15T22:59:03.862Z</time>
      </trkpt>
      <trkpt lat="68.5655" lon="14.90477">
        <ele>19.407259</ele>
        <time>2020-07-15T22:59:04.625Z</time>
      </trkpt>
      <trkpt lat="68.56546" lon="14.90508">
        <ele>18.557909</ele>
        <time>2020-07-15T22:59:05.990Z</time>
      </trkpt>
      <trkpt lat="68.5653" lon="14.90615">
        <ele>15.518632</ele>
        <time>2020-07-15T22:59:10.983Z</time>
      </trkpt>
      <trkpt lat="68.56526" lon="14.90637">
        <ele>14.894149</ele>
        <time>2020-07-15T22:59:12.054Z</time>
      </trkpt>
      <trkpt lat="68.56513" lon="14.90726">
        <ele>12.403159</ele>
        <time>2020-07-15T22:59:16.279Z</time>
      </trkpt>
      <trkpt lat="68.56493" lon="14.9086">
        <ele>8.631544</ele>
        <time>2020-07-15T22:59:22.740Z</time>
      </trkpt>
      <trkpt lat="68.56491" lon="14.90877">
        <ele>8.142053</ele>
        <time>2020-07-15T22:59:23.542Z</time>
      </trkpt>
      <trkpt lat="68.56486" lon="14.90913">
        <ele>7.500416</ele>
        <time>2020-07-15T22:59:25.279Z</time>
      </trkpt>
      <trkpt lat="68.56484" lon="14.90925">
        <ele>7.32213</ele>
        <time>2020-07-15T22:59:25.926Z</time>
      </trkpt>
      <trkpt lat="68.56479" lon="14.90951">
        <ele>6.92892</ele>
        <time>2020-07-15T22:59:27.323Z</time>
      </trkpt>
      <trkpt lat="68.56465" lon="14.91043">
        <ele>5.58803</ele>
        <time>2020-07-15T22:59:31.984Z</time>
      </trkpt>
      <trkpt lat="68.5646" lon="14.91082">
        <ele>5.042186</ele>
        <time>2020-07-15T22:59:33.870Z</time>
      </trkpt>
      <trkpt lat="68.56456" lon="14.9112">
        <ele>4.498391</ele>
        <time>2020-07-15T22:59:35.976Z</time>
      </trkpt>
      <trkpt lat="68.56448" lon="14.91184">
        <ele>3.586675</ele>
        <time>2020-07-15T22:59:39.323Z</time>
      </trkpt>
      <trkpt lat="68.56445" lon="14.91204">
        <ele>3.301343</ele>
        <time>2020-07-15T22:59:40.454Z</time>
      </trkpt>
      <trkpt lat="68.56444" lon="14.91217">
        <ele>3.127327</ele>
        <time>2020-07-15T22:59:41.121Z</time>
      </trkpt>
      <trkpt lat="68.56442" lon="14.91229">
        <ele>2.947814</ele>
        <time>2020-07-15T22:59:41.788Z</time>
      </trkpt>
      <trkpt lat="68.56471" lon="14.91279">
        <ele>1.67404</ele>
        <time>2020-07-15T22:59:46.384Z</time>
      </trkpt>
      <trkpt lat="68.56496" lon="14.91326">
        <ele>1.232854</ele>
        <time>2020-07-15T22:59:51.030Z</time>
      </trkpt>
      <trkpt lat="68.56529" lon="14.91392">
        <ele>1.203765</ele>
        <time>2020-07-15T22:59:57.583Z</time>
      </trkpt>
      <trkpt lat="68.56539" lon="14.91412">
        <ele>1.195334</ele>
        <time>2020-07-15T22:59:59.809Z</time>
      </trkpt>
      <trkpt lat="68.56544" lon="14.91424">
        <ele>1.190675</ele>
        <time>2020-07-15T23:00:00.957Z</time>
      </trkpt>
      <trkpt lat="68.56575" lon="14.91513">
        <ele>1.158443</ele>
        <time>2020-07-15T23:00:09.753Z</time>
      </trkpt>
      <trkpt lat="68.56582" lon="14.91531">
        <ele>1.151581</ele>
        <time>2020-07-15T23:00:11.598Z</time>
      </trkpt>
      <trkpt lat="68.56587" lon="14.91543">
        <ele>1.14717</ele>
        <time>2020-07-15T23:00:12.813Z</time>
      </trkpt>
      <trkpt lat="68.5659" lon="14.91551">
        <ele>1.14409</ele>
        <time>2020-07-15T23:00:13.774Z</time>
      </trkpt>
      <trkpt lat="68.56641" lon="14.91676">
        <ele>1.729834</ele>
        <time>2020-07-15T23:00:27.587Z</time>
      </trkpt>
      <trkpt lat="68.56811" lon="14.92095">
        <ele>6.420999</ele>
        <time>2020-07-15T23:01:24.908Z</time>
      </trkpt>
      <trkpt lat="68.56816" lon="14.92106">
        <ele>6.564036</ele>
        <time>2020-07-15T23:01:26.701Z</time>
      </trkpt>
      <trkpt lat="68.56819" lon="14.92112">
        <ele>6.657958</ele>
        <time>2020-07-15T23:01:27.748Z</time>
      </trkpt>
      <trkpt lat="68.56834" lon="14.92146">
        <ele>7.10995</ele>
        <time>2020-07-15T23:01:33.000Z</time>
      </trkpt>
      <trkpt lat="68.56831" lon="14.92157">
        <ele>7.231658</ele>
        <time>2020-07-15T23:01:34.261Z</time>
      </trkpt>
      <trkpt lat="68.56823" lon="14.92174">
        <ele>7.463257</ele>
        <time>2020-07-15T23:01:36.930Z</time>
      </trkpt>
      <trkpt lat="68.56816" lon="14.92187">
        <ele>7.658911</ele>
        <time>2020-07-15T23:01:39.242Z</time>
      </trkpt>
      <trkpt lat="68.56812" lon="14.92198">
        <ele>7.792726</ele>
        <time>2020-07-15T23:01:40.944Z</time>
      </trkpt>
      <trkpt lat="68.56793" lon="14.92263">
        <ele>8.511612</ele>
        <time>2020-07-15T23:01:48.604Z</time>
      </trkpt>
      <trkpt lat="68.56781" lon="14.92329">
        <ele>9.023988</ele>
        <time>2020-07-15T23:01:55.268Z</time>
      </trkpt>
      <trkpt lat="68.56775" lon="14.9237">
        <ele>9.280332</ele>
        <time>2020-07-15T23:01:59.435Z</time>
      </trkpt>
      <trkpt lat="68.56758" lon="14.92496">
        <ele>10.067066</ele>
        <time>2020-07-15T23:02:11.080Z</time>
      </trkpt>
      <trkpt lat="68.56731" lon="14.92735">
        <ele>11.528912</ele>
        <time>2020-07-15T23:02:32.668Z</time>
      </trkpt>
      <trkpt lat="68.5673" lon="14.92761">
        <ele>11.685067</ele>
        <time>2020-07-15T23:02:34.322Z</time>
      </trkpt>
      <trkpt lat="68.56727" lon="14.92853">
        <ele>12.25162</ele>
        <time>2020-07-15T23:02:41.269Z</time>
      </trkpt>
      <trkpt lat="68.56726" lon="14.92979">
        <ele>13.029938</ele>
        <time>2020-07-15T23:02:52.070Z</time>
      </trkpt>
      <trkpt lat="68.56726" lon="14.93013">
        <ele>13.238713</ele>
        <time>2020-07-15T23:02:55.228Z</time>
      </trkpt>
      <trkpt lat="68.56721" lon="14.93229">
        <ele>14.578304</ele>
        <time>2020-07-15T23:03:16.077Z</time>
      </trkpt>
      <trkpt lat="68.56712" lon="14.93527">
        <ele>15.276896</ele>
        <time>2020-07-15T23:03:41.120Z</time>
      </trkpt>
      <trkpt lat="68.56715" lon="14.93613">
        <ele>15.462374</ele>
        <time>2020-07-15T23:03:46.904Z</time>
      </trkpt>
      <trkpt lat="68.56712" lon="14.93637">
        <ele>15.516021</ele>
        <time>2020-07-15T23:03:48.767Z</time>
      </trkpt>
      <trkpt lat="68.56709" lon="14.93671">
        <ele>15.591317</ele>
        <time>2020-07-15T23:03:50.783Z</time>
      </trkpt>
      <trkpt lat="68.56691" lon="14.94023">
        <ele>14.335367</ele>
        <time>2020-07-15T23:04:11.395Z</time>
      </trkpt>
      <trkpt lat="68.56686" lon="14.94512">
        <ele>12.177448</ele>
        <time>2020-07-15T23:04:38.943Z</time>
      </trkpt>
      <trkpt lat="68.56685" lon="14.94673">
        <ele>11.499038</ele>
        <time>2020-07-15T23:04:48.797Z</time>
      </trkpt>
      <trkpt lat="68.56687" lon="14.94823">
        <ele>11.031769</ele>
        <time>2020-07-15T23:04:58.287Z</time>
      </trkpt>
      <trkpt lat="68.56693" lon="14.95292">
        <ele>9.478523</ele>
        <time>2020-07-15T23:05:26.904Z</time>
      </trkpt>
      <trkpt lat="68.56687" lon="14.95294">
        <ele>9.385821</ele>
        <time>2020-07-15T23:05:27.805Z</time>
      </trkpt>
      <trkpt lat="68.5669" lon="14.95378">
        <ele>8.89894</ele>
        <time>2020-07-15T23:05:32.689Z</time>
      </trkpt>
      <trkpt lat="68.56704" lon="14.95537">
        <ele>7.959869</ele>
        <time>2020-07-15T23:05:41.920Z</time>
      </trkpt>
      <trkpt lat="68.56723" lon="14.95631">
        <ele>7.350822</ele>
        <time>2020-07-15T23:05:47.614Z</time>
      </trkpt>
      <trkpt lat="68.5675" lon="14.95722">
        <ele>6.433098</ele>
        <time>2020-07-15T23:05:53.736Z</time>
      </trkpt>
      <trkpt lat="68.5681" lon="14.95865">
        <ele>4.576942</ele>
        <time>2020-07-15T23:06:05.282Z</time>
      </trkpt>
      <trkpt lat="68.56816" lon="14.95883">
        <ele>4.384649</ele>
        <time>2020-07-15T23:06:06.386Z</time>
      </trkpt>
      <trkpt lat="68.56821" lon="14.959">
        <ele>4.198433</ele>
        <time>2020-07-15T23:06:07.548Z</time>
      </trkpt>
      <trkpt lat="68.56829" lon="14.95934">
        <ele>3.846216</ele>
        <time>2020-07-15T23:06:09.824Z</time>
      </trkpt>
      <trkpt lat="68.56834" lon="14.95976">
        <ele>3.46791</ele>
        <time>2020-07-15T23:06:12.114Z</time>
      </trkpt>
      <trkpt lat="68.5685" lon="14.96142">
        <ele>2.427399</ele>
        <time>2020-07-15T23:06:21.449Z</time>
      </trkpt>
      <trkpt lat="68.56862" lon="14.96189">
        <ele>2.148863</ele>
        <time>2020-07-15T23:06:24.549Z</time>
      </trkpt>
      <trkpt lat="68.56887" lon="14.96248">
        <ele>1.715826</ele>
        <time>2020-07-15T23:06:29.464Z</time>
      </trkpt>
      <trkpt lat="68.56892" lon="14.96253">
        <ele>1.639621</ele>
        <time>2020-07-15T23:06:30.319Z</time>
      </trkpt>
      <trkpt lat="68.56904" lon="14.96265">
        <ele>1.471898</ele>
        <time>2020-07-15T23:06:32.348Z</time>
      </trkpt>
      <trkpt lat="68.56914" lon="14.96273">
        <ele>1.335226</ele>
        <time>2020-07-15T23:06:33.966Z</time>
      </trkpt>
      <trkpt lat="68.56906" lon="14.96353">
        <ele>0.936455</ele>
        <time>2020-07-15T23:06:38.869Z</time>
      </trkpt>
      <trkpt lat="68.56903" lon="14.96426">
        <ele>0.583242</ele>
        <time>2020-07-15T23:06:43.350Z</time>
      </trkpt>
      <trkpt lat="68.56901" lon="14.96472">
        <ele>0.556445</ele>
        <time>2020-07-15T23:06:46.284Z</time>
      </trkpt>
      <trkpt lat="68.569" lon="14.96606">
        <ele>0.479105</ele>
        <time>2020-07-15T23:06:54.570Z</time>
      </trkpt>
      <trkpt lat="68.56903" lon="14.96736">
        <ele>0.403661</ele>
        <time>2020-07-15T23:07:03.104Z</time>
      </trkpt>
      <trkpt lat="68.56974" lon="14.98577">
        <ele>0.333719</ele>
        <time>2020-07-15T23:09:03.848Z</time>
      </trkpt>
      <trkpt lat="68.56975" lon="14.98597">
        <ele>0.337214</ele>
        <time>2020-07-15T23:09:05.232Z</time>
      </trkpt>
      <trkpt lat="68.56991" lon="14.98801">
        <ele>0.372912</ele>
        <time>2020-07-15T23:09:19.003Z</time>
      </trkpt>
      <trkpt lat="68.57007" lon="14.98921">
        <ele>0.378748</ele>
        <time>2020-07-15T23:09:27.385Z</time>
      </trkpt>
      <trkpt lat="68.5702" lon="14.98985">
        <ele>0.371252</ele>
        <time>2020-07-15T23:09:32.211Z</time>
      </trkpt>
      <trkpt lat="68.57068" lon="14.99155">
        <ele>0.349167</ele>
        <time>2020-07-15T23:09:46.179Z</time>
      </trkpt>
      <trkpt lat="68.5714" lon="14.99316">
        <ele>0.2796</ele>
        <time>2020-07-15T23:10:02.411Z</time>
      </trkpt>
      <trkpt lat="68.57239" lon="14.9948">
        <ele>0.121811</ele>
        <time>2020-07-15T23:10:22.583Z</time>
      </trkpt>
      <trkpt lat="68.5734" lon="14.99614">
        <ele>0.045223</ele>
        <time>2020-07-15T23:10:42.313Z</time>
      </trkpt>
      <trkpt lat="68.57438" lon="14.99711">
        <time>2020-07-15T23:11:00.886Z</time>
      </trkpt>
      <trkpt lat="68.57677" lon="14.99889">
        <ele>0.038104</ele>
        <time>2020-07-15T23:11:45.102Z</time>
      </trkpt>
      <trkpt lat="68.57684" lon="14.99894">
        <ele>0.041633</ele>
        <time>2020-07-15T23:11:46.429Z</time>
      </trkpt>
      <trkpt lat="68.57703" lon="14.99908">
        <ele>0.050918</ele>
        <time>2020-07-15T23:11:49.930Z</time>
      </trkpt>
      <trkpt lat="68.58202" lon="15.00279">
        <ele>1.261933</ele>
        <time>2020-07-15T23:13:23.914Z</time>
      </trkpt>
      <trkpt lat="68.58269" lon="15.00361">
        <ele>1.92514</ele>
        <time>2020-07-15T23:13:40.197Z</time>
      </trkpt>
      <trkpt lat="68.58327" lon="15.00499">
        <ele>3.3912</ele>
        <time>2020-07-15T23:13:58.851Z</time>
      </trkpt>
      <trkpt lat="68.58333" lon="15.00521">
        <ele>3.623055</ele>
        <time>2020-07-15T23:14:01.693Z</time>
      </trkpt>
      <trkpt lat="68.58346" lon="15.00567">
        <ele>4.11621</ele>
        <time>2020-07-15T23:14:06.618Z</time>
      </trkpt>
      <trkpt lat="68.58352" lon="15.00592">
        <ele>4.36488</ele>
        <time>2020-07-15T23:14:09.695Z</time>
      </trkpt>
      <trkpt lat="68.58382" lon="15.0078">
        <ele>6.107296</ele>
        <time>2020-07-15T23:14:29.732Z</time>
      </trkpt>
      <trkpt lat="68.58391" lon="15.00878">
        <ele>6.707991</ele>
        <time>2020-07-15T23:14:39.252Z</time>
      </trkpt>
      <trkpt lat="68.58394" lon="15.00997">
        <ele>7.348578</ele>
        <time>2020-07-15T23:14:49.725Z</time>
      </trkpt>
      <trkpt lat="68.58393" lon="15.01047">
        <ele>7.616819</ele>
        <time>2020-07-15T23:14:53.921Z</time>
      </trkpt>
      <trkpt lat="68.58392" lon="15.01059">
        <ele>7.683759</ele>
        <time>2020-07-15T23:14:54.990Z</time>
      </trkpt>
      <trkpt lat="68.5838" lon="15.01219">
        <ele>8.561416</ele>
        <time>2020-07-15T23:15:07.650Z</time>
      </trkpt>
      <trkpt lat="68.58311" lon="15.0179">
        <ele>9.334142</ele>
        <time>2020-07-15T23:15:48.131Z</time>
      </trkpt>
      <trkpt lat="68.58284" lon="15.02076">
        <ele>9.363873</ele>
        <time>2020-07-15T23:16:07.125Z</time>
      </trkpt>
      <trkpt lat="68.58262" lon="15.02501">
        <ele>9.711304</ele>
        <time>2020-07-15T23:16:35.790Z</time>
      </trkpt>
      <trkpt lat="68.58258" lon="15.0278">
        <ele>10.108086</ele>
        <time>2020-07-15T23:16:55.862Z</time>
      </trkpt>
      <trkpt lat="68.58258" lon="15.02824">
        <ele>10.205696</ele>
        <time>2020-07-15T23:16:59.171Z</time>
      </trkpt>
      <trkpt lat="68.58259" lon="15.02915">
        <ele>10.405052</ele>
        <time>2020-07-15T23:17:05.859Z</time>
      </trkpt>
      <trkpt lat="68.5827" lon="15.03235">
        <ele>11.046775</ele>
        <time>2020-07-15T23:17:29.703Z</time>
      </trkpt>
      <trkpt lat="68.58298" lon="15.03703">
        <ele>10.703602</ele>
        <time>2020-07-15T23:17:59.714Z</time>
      </trkpt>
      <trkpt lat="68.58301" lon="15.03749">
        <ele>10.425402</ele>
        <time>2020-07-15T23:18:02.331Z</time>
      </trkpt>
      <trkpt lat="68.58319" lon="15.04053">
        <ele>8.623613</ele>
        <time>2020-07-15T23:18:18.695Z</time>
      </trkpt>
      <trkpt lat="68.58327" lon="15.04172">
        <ele>7.91544</ele>
        <time>2020-07-15T23:18:24.770Z</time>
      </trkpt>
      <trkpt lat="68.5834" lon="15.04313">
        <ele>6.878829</ele>
        <time>2020-07-15T23:18:32.180Z</time>
      </trkpt>
      <trkpt lat="68.58352" lon="15.04421">
        <ele>6.056692</ele>
        <time>2020-07-15T23:18:37.991Z</time>
      </trkpt>
      <trkpt lat="68.58354" lon="15.0444">
        <ele>5.912572</ele>
        <time>2020-07-15T23:18:38.950Z</time>
      </trkpt>
      <trkpt lat="68.584" lon="15.04722">
        <ele>3.851559</ele>
        <time>2020-07-15T23:18:55.125Z</time>
      </trkpt>
      <trkpt lat="68.5845" lon="15.04947">
        <ele>2.525629</ele>
        <time>2020-07-15T23:19:09.471Z</time>
      </trkpt>
      <trkpt lat="68.58513" lon="15.05156">
        <ele>1.437538</ele>
        <time>2020-07-15T23:19:24.622Z</time>
      </trkpt>
      <trkpt lat="68.58578" lon="15.05324">
        <ele>0.748111</ele>
        <time>2020-07-15T23:19:38.891Z</time>
      </trkpt>
      <trkpt lat="68.586" lon="15.05374">
        <ele>0.531484</ele>
        <time>2020-07-15T23:19:43.481Z</time>
      </trkpt>
      <trkpt lat="68.58609" lon="15.05394">
        <ele>0.43722</ele>
        <time>2020-07-15T23:19:45.517Z</time>
      </trkpt>
      <trkpt lat="68.58638" lon="15.05453">
        <ele>0.342491</ele>
        <time>2020-07-15T23:19:51.488Z</time>
      </trkpt>
      <trkpt lat="68.58664" lon="15.05503">
        <ele>0.283309</ele>
        <time>2020-07-15T23:19:56.963Z</time>
      </trkpt>
      <trkpt lat="68.58667" lon="15.05508">
        <ele>0.278004</ele>
        <time>2020-07-15T23:19:57.456Z</time>
      </trkpt>
      <trkpt lat="68.58687" lon="15.05545">
        <ele>0.232795</ele>
        <time>2020-07-15T23:20:01.661Z</time>
      </trkpt>
      <trkpt lat="68.58919" lon="15.05987">
        <ele>0.011035</ele>
        <time>2020-07-15T23:20:51.934Z</time>
      </trkpt>
      <trkpt lat="68.58942" lon="15.0603">
        <ele>0.012189</ele>
        <time>2020-07-15T23:20:56.855Z</time>
      </trkpt>
      <trkpt lat="68.58979" lon="15.06099">
        <ele>0.014089</ele>
        <time>2020-07-15T23:21:04.930Z</time>
      </trkpt>
      <trkpt lat="68.59015" lon="15.06168">
        <ele>0.015947</ele>
        <time>2020-07-15T23:21:12.826Z</time>
      </trkpt>
      <trkpt lat="68.59042" lon="15.06219">
        <ele>0.017323</ele>
        <time>2020-07-15T23:21:18.650Z</time>
      </trkpt>
      <trkpt lat="68.59056" lon="15.06246">
        <ele>0.018069</ele>
        <time>2020-07-15T23:21:21.862Z</time>
      </trkpt>
      <trkpt lat="68.59095" lon="15.0632">
        <ele>0.013326</ele>
        <time>2020-07-15T23:21:30.269Z</time>
      </trkpt>
      <trkpt lat="68.59137" lon="15.06399">
        <ele>0.008226</ele>
        <time>2020-07-15T23:21:39.343Z</time>
      </trkpt>
      <trkpt lat="68.59167" lon="15.06457">
        <ele>0.004489</ele>
        <time>2020-07-15T23:21:45.972Z</time>
      </trkpt>
      <trkpt lat="68.59198" lon="15.06515">
        <ele>0.00076</ele>
        <time>2020-07-15T23:21:52.569Z</time>
      </trkpt>
      <trkpt lat="68.59214" lon="15.06543">
        <ele>3.8</ele>
        <time>2020-07-15T23:21:55.896Z</time>
      </trkpt>
      <trkpt lat="68.59221" lon="15.06555">
        <ele>4</ele>
        <time>2020-07-15T23:21:57.412Z</time>
      </trkpt>
      <trkpt lat="68.59281" lon="15.0667">
        <ele>4</ele>
        <time>2020-07-15T23:22:10.492Z</time>
      </trkpt>
      <trkpt lat="68.59292" lon="15.06691">
        <ele>4</ele>
        <time>2020-07-15T23:22:12.824Z</time>
      </trkpt>
      <trkpt lat="68.5932" lon="15.06744">
        <ele>4</ele>
        <time>2020-07-15T23:22:18.810Z</time>
      </trkpt>
      <trkpt lat="68.5935" lon="15.06801">
        <ele>3.7</ele>
        <time>2020-07-15T23:22:25.417Z</time>
      </trkpt>
      <trkpt lat="68.59368" lon="15.06834">
        <ele>0.003872</ele>
        <time>2020-07-15T23:22:29.304Z</time>
      </trkpt>
      <trkpt lat="68.59433" lon="15.06957">
        <ele>0.019886</ele>
        <time>2020-07-15T23:22:43.416Z</time>
      </trkpt>
      <trkpt lat="68.59454" lon="15.06997">
        <ele>0.025081</ele>
        <time>2020-07-15T23:22:48.003Z</time>
      </trkpt>
      <trkpt lat="68.59481" lon="15.0705">
        <ele>0.031795</ele>
        <time>2020-07-15T23:22:53.924Z</time>
      </trkpt>
      <trkpt lat="68.59519" lon="15.07121">
        <ele>0.064029</ele>
        <time>2020-07-15T23:23:02.140Z</time>
      </trkpt>
      <trkpt lat="68.59525" lon="15.07134">
        <ele>0.07372</ele>
        <time>2020-07-15T23:23:03.618Z</time>
      </trkpt>
      <trkpt lat="68.59566" lon="15.07207">
        <ele>0.133671</ele>
        <time>2020-07-15T23:23:12.579Z</time>
      </trkpt>
      <trkpt lat="68.59589" lon="15.07253">
        <ele>0.168629</ele>
        <time>2020-07-15T23:23:17.840Z</time>
      </trkpt>
      <trkpt lat="68.59625" lon="15.07324">
        <ele>0.223641</ele>
        <time>2020-07-15T23:23:25.994Z</time>
      </trkpt>
      <trkpt lat="68.5964" lon="15.0735">
        <ele>0.244782</ele>
        <time>2020-07-15T23:23:29.138Z</time>
      </trkpt>
      <trkpt lat="68.59648" lon="15.07369">
        <ele>0.257626</ele>
        <time>2020-07-15T23:23:31.191Z</time>
      </trkpt>
      <trkpt lat="68.59661" lon="15.07395">
        <ele>0.260046</ele>
        <time>2020-07-15T23:23:33.939Z</time>
      </trkpt>
      <trkpt lat="68.59707" lon="15.07497">
        <ele>0.269152</ele>
        <time>2020-07-15T23:23:44.611Z</time>
      </trkpt>
      <trkpt lat="68.59713" lon="15.07516">
        <ele>0.270599</ele>
        <time>2020-07-15T23:23:46.229Z</time>
      </trkpt>
      <trkpt lat="68.59723" lon="15.07544">
        <ele>0.272786</ele>
        <time>2020-07-15T23:23:48.812Z</time>
      </trkpt>
      <trkpt lat="68.59736" lon="15.07584">
        <ele>0.275784</ele>
        <time>2020-07-15T23:23:52.347Z</time>
      </trkpt>
      <trkpt lat="68.59739" lon="15.07597">
        <ele>0.276665</ele>
        <time>2020-07-15T23:23:53.364Z</time>
      </trkpt>
      <trkpt lat="68.59744" lon="15.0761">
        <ele>0.277705</ele>
        <time>2020-07-15T23:23:54.603Z</time>
      </trkpt>
      <trkpt lat="68.59753" lon="15.07646">
        <ele>0.280202</ele>
        <time>2020-07-15T23:23:57.600Z</time>
      </trkpt>
      <trkpt lat="68.59764" lon="15.07685">
        <ele>0.282903</ele>
        <time>2020-07-15T23:24:00.625Z</time>
      </trkpt>
      <trkpt lat="68.59771" lon="15.07711">
        <ele>0.284738</ele>
        <time>2020-07-15T23:24:02.757Z</time>
      </trkpt>
      <trkpt lat="68.59784" lon="15.07759">
        <ele>0.268902</ele>
        <time>2020-07-15T23:24:06.520Z</time>
      </trkpt>
      <trkpt lat="68.59816" lon="15.07884">
        <ele>0.219786</ele>
        <time>2020-07-15T23:24:16.288Z</time>
      </trkpt>
      <trkpt lat="68.59821" lon="15.07906">
        <ele>0.211684</ele>
        <time>2020-07-15T23:24:17.867Z</time>
      </trkpt>
      <trkpt lat="68.59825" lon="15.07918">
        <ele>0.206413</ele>
        <time>2020-07-15T23:24:18.916Z</time>
      </trkpt>
      <trkpt lat="68.59841" lon="15.07983">
        <ele>0.181109</ele>
        <time>2020-07-15T23:24:23.922Z</time>
      </trkpt>
      <trkpt lat="68.59865" lon="15.08081">
        <ele>0.143066</ele>
        <time>2020-07-15T23:24:31.543Z</time>
      </trkpt>
      <trkpt lat="68.59884" lon="15.08152">
        <ele>0.117757</ele>
        <time>2020-07-15T23:24:37.187Z</time>
      </trkpt>
      <trkpt lat="68.59897" lon="15.08201">
        <ele>0.102439</ele>
        <time>2020-07-15T23:24:41.122Z</time>
      </trkpt>
      <trkpt lat="68.59916" lon="15.08279">
        <ele>0.078881</ele>
        <time>2020-07-15T23:24:47.138Z</time>
      </trkpt>
      <trkpt lat="68.59922" lon="15.08305">
        <ele>0.070957</ele>
        <time>2020-07-15T23:24:49.142Z</time>
      </trkpt>
      <trkpt lat="68.59938" lon="15.0836">
        <ele>0.053547</ele>
        <time>2020-07-15T23:24:53.592Z</time>
      </trkpt>
      <trkpt lat="68.59966" lon="15.08466">
        <ele>0.020269</ele>
        <time>2020-07-15T23:25:02.115Z</time>
      </trkpt>
      <trkpt lat="68.59984" lon="15.08524">
        <ele>0.003776</ele>
        <time>2020-07-15T23:25:07.030Z</time>
      </trkpt>
      <trkpt lat="68.60005" lon="15.0859">
        <ele>0.012201</ele>
        <time>2020-07-15T23:25:12.716Z</time>
      </trkpt>
      <trkpt lat="68.60018" lon="15.08624">
        <ele>0.016893</ele>
        <time>2020-07-15T23:25:15.866Z</time>
      </trkpt>
      <trkpt lat="68.60039" lon="15.0868">
        <ele>0.024629</ele>
        <time>2020-07-15T23:25:21.084Z</time>
      </trkpt>
      <trkpt lat="68.60045" lon="15.087">
        <ele>0.027136</ele>
        <time>2020-07-15T23:25:22.775Z</time>
      </trkpt>
      <trkpt lat="68.60069" lon="15.08761">
        <ele>0.035758</ele>
        <time>2020-07-15T23:25:28.594Z</time>
      </trkpt>
      <trkpt lat="68.60152" lon="15.08957">
        <ele>0.106731</ele>
        <time>2020-07-15T23:25:48.480Z</time>
      </trkpt>
      <trkpt lat="68.60158" lon="15.0897">
        <ele>0.114705</ele>
        <time>2020-07-15T23:25:49.876Z</time>
      </trkpt>
      <trkpt lat="68.6018" lon="15.09023">
        <ele>0.144972</ele>
        <time>2020-07-15T23:25:55.160Z</time>
      </trkpt>
      <trkpt lat="68.60201" lon="15.09077">
        <ele>0.174548</ele>
        <time>2020-07-15T23:26:00.348Z</time>
      </trkpt>
      <trkpt lat="68.60216" lon="15.09119">
        <ele>0.197178</ele>
        <time>2020-07-15T23:26:04.350Z</time>
      </trkpt>
      <trkpt lat="68.60268" lon="15.09289">
        <ele>0.322823</ele>
        <time>2020-07-15T23:26:19.219Z</time>
      </trkpt>
      <trkpt lat="68.60302" lon="15.09423">
        <ele>0.442657</ele>
        <time>2020-07-15T23:26:30.122Z</time>
      </trkpt>
      <trkpt lat="68.60317" lon="15.09483">
        <ele>0.496471</ele>
        <time>2020-07-15T23:26:34.998Z</time>
      </trkpt>
      <trkpt lat="68.60342" lon="15.09591">
        <ele>0.591919</ele>
        <time>2020-07-15T23:26:43.771Z</time>
      </trkpt>
      <trkpt lat="68.60401" lon="15.09811">
        <ele>0.844803</ele>
        <time>2020-07-15T23:27:02.385Z</time>
      </trkpt>
      <trkpt lat="68.6041" lon="15.0984">
        <ele>0.880768</ele>
        <time>2020-07-15T23:27:05.042Z</time>
      </trkpt>
      <trkpt lat="68.60412" lon="15.09848">
        <ele>0.890377</ele>
        <time>2020-07-15T23:27:05.773Z</time>
      </trkpt>
      <trkpt lat="68.60419" lon="15.09871">
        <ele>0.918139</ele>
        <time>2020-07-15T23:27:07.771Z</time>
      </trkpt>
      <trkpt lat="68.60431" lon="15.09909">
        <ele>0.965287</ele>
        <time>2020-07-15T23:27:11.240Z</time>
      </trkpt>
      <trkpt lat="68.60474" lon="15.10038">
        <ele>1.141142</ele>
        <time>2020-07-15T23:27:23.074Z</time>
      </trkpt>
      <trkpt lat="68.60489" lon="15.10086">
        <ele>1.211916</ele>
        <time>2020-07-15T23:27:27.317Z</time>
      </trkpt>
      <trkpt lat="68.60518" lon="15.10172">
        <ele>1.343431</ele>
        <time>2020-07-15T23:27:35.463Z</time>
      </trkpt>
      <trkpt lat="68.60524" lon="15.10189">
        <ele>1.368282</ele>
        <time>2020-07-15T23:27:37.055Z</time>
      </trkpt>
      <trkpt lat="68.60534" lon="15.10217">
        <ele>1.411311</ele>
        <time>2020-07-15T23:27:39.586Z</time>
      </trkpt>
      <trkpt lat="68.60569" lon="15.10323">
        <ele>1.570751</ele>
        <time>2020-07-15T23:27:49.412Z</time>
      </trkpt>
      <trkpt lat="68.60585" lon="15.10368">
        <ele>1.664864</ele>
        <time>2020-07-15T23:27:53.757Z</time>
      </trkpt>
      <trkpt lat="68.60594" lon="15.10397">
        <ele>1.743738</ele>
        <time>2020-07-15T23:27:56.497Z</time>
      </trkpt>
      <trkpt lat="68.60611" lon="15.10449">
        <ele>1.892883</ele>
        <time>2020-07-15T23:28:01.417Z</time>
      </trkpt>
      <trkpt lat="68.60627" lon="15.10495">
        <ele>2.025969</ele>
        <time>2020-07-15T23:28:05.949Z</time>
      </trkpt>
      <trkpt lat="68.60663" lon="15.10604">
        <ele>2.333072</ele>
        <time>2020-07-15T23:28:16.498Z</time>
      </trkpt>
      <trkpt lat="68.60681" lon="15.10657">
        <ele>2.483992</ele>
        <time>2020-07-15T23:28:21.765Z</time>
      </trkpt>
      <trkpt lat="68.60699" lon="15.10707">
        <ele>2.62993</ele>
        <time>2020-07-15T23:28:26.994Z</time>
      </trkpt>
      <trkpt lat="68.60746" lon="15.10852">
        <ele>3.246606</ele>
        <time>2020-07-15T23:28:41.538Z</time>
      </trkpt>
      <trkpt lat="68.60762" lon="15.10898">
        <ele>3.452083</ele>
        <time>2020-07-15T23:28:46.353Z</time>
      </trkpt>
      <trkpt lat="68.60807" lon="15.11035">
        <ele>4.043323</ele>
        <time>2020-07-15T23:29:00.201Z</time>
      </trkpt>
      <trkpt lat="68.60827" lon="15.11092">
        <ele>4.299635</ele>
        <time>2020-07-15T23:29:06.304Z</time>
      </trkpt>
      <trkpt lat="68.60829" lon="15.11097">
        <ele>4.322104</ele>
        <time>2020-07-15T23:29:06.901Z</time>
      </trkpt>
      <trkpt lat="68.60836" lon="15.11117">
        <ele>4.417921</ele>
        <time>2020-07-15T23:29:08.994Z</time>
      </trkpt>
      <trkpt lat="68.6084" lon="15.1113">
        <ele>4.473671</ele>
        <time>2020-07-15T23:29:10.188Z</time>
      </trkpt>
      <trkpt lat="68.60846" lon="15.1115">
        <ele>4.563656</ele>
        <time>2020-07-15T23:29:12.345Z</time>
      </trkpt>
      <trkpt lat="68.60895" lon="15.11294">
        <ele>5.226756</ele>
        <time>2020-07-15T23:29:27.649Z</time>
      </trkpt>
      <trkpt lat="68.60917" lon="15.1136">
        <ele>5.525536</ele>
        <time>2020-07-15T23:29:34.432Z</time>
      </trkpt>
      <trkpt lat="68.60919" lon="15.11355">
        <ele>5.551074</ele>
        <time>2020-07-15T23:29:35.096Z</time>
      </trkpt>
      <trkpt lat="68.60924" lon="15.11346">
        <ele>5.610689</ele>
        <time>2020-07-15T23:29:36.465Z</time>
      </trkpt>
      <trkpt lat="68.60926" lon="15.11346">
        <ele>5.623655</ele>
        <time>2020-07-15T23:29:36.809Z</time>
      </trkpt>
      <trkpt lat="68.60928" lon="15.11347">
        <ele>5.642254</ele>
        <time>2020-07-15T23:29:37.371Z</time>
      </trkpt>
      <trkpt lat="68.6094" lon="15.11402">
        <ele>5.85989</ele>
        <time>2020-07-15T23:29:42.224Z</time>
      </trkpt>
      <trkpt lat="68.60964" lon="15.11481">
        <ele>5.82165</ele>
        <time>2020-07-15T23:29:49.902Z</time>
      </trkpt>
      <trkpt lat="68.61024" lon="15.11662">
        <ele>5.620525</ele>
        <time>2020-07-15T23:30:06.651Z</time>
      </trkpt>
      <trkpt lat="68.61038" lon="15.117">
        <ele>5.576463</ele>
        <time>2020-07-15T23:30:09.809Z</time>
      </trkpt>
      <trkpt lat="68.61046" lon="15.11724">
        <ele>5.550741</ele>
        <time>2020-07-15T23:30:11.780Z</time>
      </trkpt>
      <trkpt lat="68.61052" lon="15.11743">
        <ele>5.528857</ele>
        <time>2020-07-15T23:30:13.269Z</time>
      </trkpt>
      <trkpt lat="68.61076" lon="15.11789">
        <ele>5.287583</ele>
        <time>2020-07-15T23:30:17.961Z</time>
      </trkpt>
      <trkpt lat="68.6108" lon="15.11797">
        <ele>5.218855</ele>
        <time>2020-07-15T23:30:18.594Z</time>
      </trkpt>
      <trkpt lat="68.61085" lon="15.11814">
        <ele>5.094766</ele>
        <time>2020-07-15T23:30:19.739Z</time>
      </trkpt>
      <trkpt lat="68.61097" lon="15.11873">
        <ele>4.708111</ele>
        <time>2020-07-15T23:30:23.617Z</time>
      </trkpt>
      <trkpt lat="68.61111" lon="15.11919">
        <ele>4.360145</ele>
        <time>2020-07-15T23:30:26.874Z</time>
      </trkpt>
      <trkpt lat="68.61128" lon="15.11972">
        <ele>3.959116</ele>
        <time>2020-07-15T23:30:30.667Z</time>
      </trkpt>
      <trkpt lat="68.61131" lon="15.11981">
        <ele>3.89309</ele>
        <time>2020-07-15T23:30:31.295Z</time>
      </trkpt>
      <trkpt lat="68.61162" lon="15.12072">
        <ele>3.186253</ele>
        <time>2020-07-15T23:30:38.185Z</time>
      </trkpt>
      <trkpt lat="68.61176" lon="15.12114">
        <ele>2.854604</ele>
        <time>2020-07-15T23:30:41.459Z</time>
      </trkpt>
      <trkpt lat="68.61184" lon="15.12137">
        <ele>2.682184</ele>
        <time>2020-07-15T23:30:43.252Z</time>
      </trkpt>
      <trkpt lat="68.61197" lon="15.1217">
        <ele>2.574598</ele>
        <time>2020-07-15T23:30:46.147Z</time>
      </trkpt>
      <trkpt lat="68.6122" lon="15.12238">
        <ele>2.368216</ele>
        <time>2020-07-15T23:30:51.581Z</time>
      </trkpt>
      <trkpt lat="68.61225" lon="15.12254">
        <ele>2.319691</ele>
        <time>2020-07-15T23:30:52.899Z</time>
      </trkpt>
      <trkpt lat="68.61228" lon="15.12262">
        <ele>2.294766</ele>
        <time>2020-07-15T23:30:53.532Z</time>
      </trkpt>
      <trkpt lat="68.61232" lon="15.12275">
        <ele>2.257457</ele>
        <time>2020-07-15T23:30:54.461Z</time>
      </trkpt>
      <trkpt lat="68.61278" lon="15.12413">
        <ele>1.841809</ele>
        <time>2020-07-15T23:31:05.630Z</time>
      </trkpt>
      <trkpt lat="68.6131" lon="15.12508">
        <ele>1.586496</ele>
        <time>2020-07-15T23:31:14.005Z</time>
      </trkpt>
      <trkpt lat="68.61367" lon="15.12676">
        <ele>1.606232</ele>
        <time>2020-07-15T23:31:29.497Z</time>
      </trkpt>
      <trkpt lat="68.61411" lon="15.12823">
        <ele>1.622626</ele>
        <time>2020-07-15T23:31:41.942Z</time>
      </trkpt>
      <trkpt lat="68.61434" lon="15.12909">
        <ele>1.593227</ele>
        <time>2020-07-15T23:31:48.710Z</time>
      </trkpt>
      <trkpt lat="68.61445" lon="15.12953">
        <ele>1.554874</ele>
        <time>2020-07-15T23:31:52.115Z</time>
      </trkpt>
      <trkpt lat="68.61482" lon="15.1313">
        <ele>1.405717</ele>
        <time>2020-07-15T23:32:04.954Z</time>
      </trkpt>
      <trkpt lat="68.61495" lon="15.13196">
        <ele>1.352238</ele>
        <time>2020-07-15T23:32:09.557Z</time>
      </trkpt>
      <trkpt lat="68.61504" lon="15.13251">
        <ele>1.307776</ele>
        <time>2020-07-15T23:32:13.237Z</time>
      </trkpt>
      <trkpt lat="68.61546" lon="15.13569">
        <ele>1.469864</ele>
        <time>2020-07-15T23:32:35.192Z</time>
      </trkpt>
      <trkpt lat="68.61551" lon="15.13623">
        <ele>1.508577</ele>
        <time>2020-07-15T23:32:38.664Z</time>
      </trkpt>
      <trkpt lat="68.61556" lon="15.13674">
        <ele>1.545277</ele>
        <time>2020-07-15T23:32:42.349Z</time>
      </trkpt>
      <trkpt lat="68.61559" lon="15.13716">
        <ele>1.575146</ele>
        <time>2020-07-15T23:32:45.302Z</time>
      </trkpt>
      <trkpt lat="68.61561" lon="15.13742">
        <ele>1.593949</ele>
        <time>2020-07-15T23:32:47.324Z</time>
      </trkpt>
      <trkpt lat="68.61575" lon="15.14043">
        <ele>2.963684</ele>
        <time>2020-07-15T23:33:10.652Z</time>
      </trkpt>
      <trkpt lat="68.61577" lon="15.14146">
        <ele>3.471966</ele>
        <time>2020-07-15T23:33:19.475Z</time>
      </trkpt>
      <trkpt lat="68.61577" lon="15.14159">
        <ele>3.535531</ele>
        <time>2020-07-15T23:33:20.561Z</time>
      </trkpt>
      <trkpt lat="68.61577" lon="15.14239">
        <ele>3.927026</ele>
        <time>2020-07-15T23:33:27.421Z</time>
      </trkpt>
      <trkpt lat="68.61576" lon="15.1428">
        <ele>4.230455</ele>
        <time>2020-07-15T23:33:31.196Z</time>
      </trkpt>
      <trkpt lat="68.61576" lon="15.14307">
        <ele>4.525943</ele>
        <time>2020-07-15T23:33:33.538Z</time>
      </trkpt>
      <trkpt lat="68.61575" lon="15.14325">
        <ele>4.715979</ele>
        <time>2020-07-15T23:33:35.173Z</time>
      </trkpt>
      <trkpt lat="68.61573" lon="15.14466">
        <ele>6.242185</ele>
        <time>2020-07-15T23:33:48.247Z</time>
      </trkpt>
      <trkpt lat="68.61574" lon="15.14476">
        <ele>6.348921</ele>
        <time>2020-07-15T23:33:49.481Z</time>
      </trkpt>
      <trkpt lat="68.61571" lon="15.14656">
        <ele>8.282738</ele>
        <time>2020-07-15T23:34:07.679Z</time>
      </trkpt>
      <trkpt lat="68.61569" lon="15.14852">
        <ele>10.667455</ele>
        <time>2020-07-15T23:34:29.498Z</time>
      </trkpt>
      <trkpt lat="68.61569" lon="15.14895">
        <ele>11.23657</ele>
        <time>2020-07-15T23:34:34.571Z</time>
      </trkpt>
      <trkpt lat="68.61572" lon="15.14997">
        <ele>12.625159</ele>
        <time>2020-07-15T23:34:45.867Z</time>
      </trkpt>
      <trkpt lat="68.61573" lon="15.15039">
        <ele>13.18851</ele>
        <time>2020-07-15T23:34:50.245Z</time>
      </trkpt>
      <trkpt lat="68.61573" lon="15.15063">
        <ele>13.525267</ele>
        <time>2020-07-15T23:34:52.994Z</time>
      </trkpt>
      <trkpt lat="68.61572" lon="15.15088">
        <ele>13.86349</ele>
        <time>2020-07-15T23:34:55.912Z</time>
      </trkpt>
      <trkpt lat="68.61565" lon="15.15173">
        <ele>15.041716</ele>
        <time>2020-07-15T23:35:05.181Z</time>
      </trkpt>
      <trkpt lat="68.61563" lon="15.15256">
        <ele>16.103199</ele>
        <time>2020-07-15T23:35:13.858Z</time>
      </trkpt>
      <trkpt lat="68.61562" lon="15.15347">
        <ele>16.849742</ele>
        <time>2020-07-15T23:35:23.359Z</time>
      </trkpt>
      <trkpt lat="68.61562" lon="15.15373">
        <ele>17.064687</ele>
        <time>2020-07-15T23:35:26.071Z</time>
      </trkpt>
      <trkpt lat="68.61561" lon="15.15467">
        <ele>17.833145</ele>
        <time>2020-07-15T23:35:34.950Z</time>
      </trkpt>
      <trkpt lat="68.61561" lon="15.15586">
        <ele>18.805199</ele>
        <time>2020-07-15T23:35:45.052Z</time>
      </trkpt>
      <trkpt lat="68.61562" lon="15.15621">
        <ele>19.090369</ele>
        <time>2020-07-15T23:35:48.052Z</time>
      </trkpt>
      <trkpt lat="68.61574" lon="15.15698">
        <ele>19.778194</ele>
        <time>2020-07-15T23:35:54.779Z</time>
      </trkpt>
      <trkpt lat="68.61574" lon="15.15725">
        <ele>19.999291</ele>
        <time>2020-07-15T23:35:57.031Z</time>
      </trkpt>
      <trkpt lat="68.61574" lon="15.1575">
        <ele>20.155966</ele>
        <time>2020-07-15T23:35:58.859Z</time>
      </trkpt>
      <trkpt lat="68.61573" lon="15.15807">
        <ele>20.477334</ele>
        <time>2020-07-15T23:36:03.702Z</time>
      </trkpt>
      <trkpt lat="68.61577" lon="15.15877">
        <ele>20.871729</ele>
        <time>2020-07-15T23:36:09.478Z</time>
      </trkpt>
      <trkpt lat="68.61582" lon="15.15931">
        <ele>21.188946</ele>
        <time>2020-07-15T23:36:14.041Z</time>
      </trkpt>
      <trkpt lat="68.61584" lon="15.15947">
        <ele>21.282632</ele>
        <time>2020-07-15T23:36:15.275Z</time>
      </trkpt>
      <trkpt lat="68.61586" lon="15.15966">
        <ele>21.391576</ele>
        <time>2020-07-15T23:36:17.034Z</time>
      </trkpt>
      <trkpt lat="68.61594" lon="15.16001">
        <ele>21.62077</ele>
        <time>2020-07-15T23:36:20.810Z</time>
      </trkpt>
      <trkpt lat="68.61603" lon="15.16094">
        <ele>22.161275</ele>
        <time>2020-07-15T23:36:28.958Z</time>
      </trkpt>
      <trkpt lat="68.61615" lon="15.16167">
        <ele>22.604153</ele>
        <time>2020-07-15T23:36:35.734Z</time>
      </trkpt>
      <trkpt lat="68.6163" lon="15.16246">
        <ele>22.880592</ele>
        <time>2020-07-15T23:36:43.019Z</time>
      </trkpt>
      <trkpt lat="68.61647" lon="15.16324">
        <ele>22.994913</ele>
        <time>2020-07-15T23:36:50.168Z</time>
      </trkpt>
      <trkpt lat="68.6165" lon="15.16331">
        <ele>23.006751</ele>
        <time>2020-07-15T23:36:51.154Z</time>
      </trkpt>
      <trkpt lat="68.61655" lon="15.16347">
        <ele>23.033997</ele>
        <time>2020-07-15T23:36:52.678Z</time>
      </trkpt>
      <trkpt lat="68.61659" lon="15.1636">
        <ele>23.054274</ele>
        <time>2020-07-15T23:36:53.854Z</time>
      </trkpt>
      <trkpt lat="68.61664" lon="15.16381">
        <ele>23.085668</ele>
        <time>2020-07-15T23:36:55.741Z</time>
      </trkpt>
      <trkpt lat="68.61676" lon="15.16439">
        <ele>23.168384</ele>
        <time>2020-07-15T23:37:00.362Z</time>
      </trkpt>
      <trkpt lat="68.61686" lon="15.16473">
        <ele>23.222785</ele>
        <time>2020-07-15T23:37:03.372Z</time>
      </trkpt>
      <trkpt lat="68.61713" lon="15.16559">
        <ele>23.36278</ele>
        <time>2020-07-15T23:37:10.595Z</time>
      </trkpt>
      <trkpt lat="68.61722" lon="15.16587">
        <ele>23.41058</ele>
        <time>2020-07-15T23:37:12.756Z</time>
      </trkpt>
      <trkpt lat="68.61733" lon="15.16614">
        <ele>23.216906</ele>
        <time>2020-07-15T23:37:15.091Z</time>
      </trkpt>
      <trkpt lat="68.6176" lon="15.16679">
        <ele>22.370978</ele>
        <time>2020-07-15T23:37:20.383Z</time>
      </trkpt>
      <trkpt lat="68.61772" lon="15.16705">
        <ele>22.019044</ele>
        <time>2020-07-15T23:37:22.404Z</time>
      </trkpt>
      <trkpt lat="68.61782" lon="15.16727">
        <ele>21.708061</ele>
        <time>2020-07-15T23:37:24.219Z</time>
      </trkpt>
      <trkpt lat="68.61788" lon="15.16738">
        <ele>21.541997</ele>
        <time>2020-07-15T23:37:25.344Z</time>
      </trkpt>
      <trkpt lat="68.61816" lon="15.16765">
        <ele>20.856056</ele>
        <time>2020-07-15T23:37:29.181Z</time>
      </trkpt>
      <trkpt lat="68.61821" lon="15.16774">
        <ele>20.699543</ele>
        <time>2020-07-15T23:37:30.163Z</time>
      </trkpt>
      <trkpt lat="68.6182" lon="15.16782">
        <ele>20.614036</ele>
        <time>2020-07-15T23:37:30.766Z</time>
      </trkpt>
      <trkpt lat="68.61817" lon="15.16798">
        <ele>20.465489</ele>
        <time>2020-07-15T23:37:31.976Z</time>
      </trkpt>
      <trkpt lat="68.61815" lon="15.16809">
        <ele>20.363774</ele>
        <time>2020-07-15T23:37:32.712Z</time>
      </trkpt>
      <trkpt lat="68.61862" lon="15.16902">
        <ele>18.88739</ele>
        <time>2020-07-15T23:37:40.369Z</time>
      </trkpt>
      <trkpt lat="68.6189" lon="15.16965">
        <ele>17.610079</ele>
        <time>2020-07-15T23:37:45.011Z</time>
      </trkpt>
      <trkpt lat="68.61917" lon="15.17038">
        <ele>16.248135</ele>
        <time>2020-07-15T23:37:49.911Z</time>
      </trkpt>
      <trkpt lat="68.6197" lon="15.17175">
        <ele>13.647704</ele>
        <time>2020-07-15T23:37:59.175Z</time>
      </trkpt>
      <trkpt lat="68.62008" lon="15.17284">
        <ele>11.78896</ele>
        <time>2020-07-15T23:38:06.154Z</time>
      </trkpt>
      <trkpt lat="68.62056" lon="15.1742">
        <ele>9.556287</ele>
        <time>2020-07-15T23:38:15.040Z</time>
      </trkpt>
      <trkpt lat="68.62062" lon="15.17454">
        <ele>9.122497</ele>
        <time>2020-07-15T23:38:16.753Z</time>
      </trkpt>
      <trkpt lat="68.62079" lon="15.17507">
        <ele>8.280636</ele>
        <time>2020-07-15T23:38:20.248Z</time>
      </trkpt>
      <trkpt lat="68.62106" lon="15.17585">
        <ele>7.020354</ele>
        <time>2020-07-15T23:38:25.519Z</time>
      </trkpt>
      <trkpt lat="68.62125" lon="15.17637">
        <ele>6.684226</ele>
        <time>2020-07-15T23:38:29.303Z</time>
      </trkpt>
      <trkpt lat="68.62144" lon="15.17693">
        <ele>6.376056</ele>
        <time>2020-07-15T23:38:33.198Z</time>
      </trkpt>
      <trkpt lat="68.62159" lon="15.17738">
        <ele>6.128314</ele>
        <time>2020-07-15T23:38:36.429Z</time>
      </trkpt>
      <trkpt lat="68.62189" lon="15.17822">
        <ele>5.654412</ele>
        <time>2020-07-15T23:38:43.149Z</time>
      </trkpt>
      <trkpt lat="68.62196" lon="15.17845">
        <ele>5.529798</ele>
        <time>2020-07-15T23:38:45.018Z</time>
      </trkpt>
      <trkpt lat="68.62217" lon="15.17901">
        <ele>5.205432</ele>
        <time>2020-07-15T23:38:49.977Z</time>
      </trkpt>
      <trkpt lat="68.62227" lon="15.17928">
        <ele>5.055469</ele>
        <time>2020-07-15T23:38:52.477Z</time>
      </trkpt>
      <trkpt lat="68.62289" lon="15.18111">
        <ele>5.488483</ele>
        <time>2020-07-15T23:39:09.985Z</time>
      </trkpt>
      <trkpt lat="68.62321" lon="15.18197">
        <ele>5.76576</ele>
        <time>2020-07-15T23:39:19.008Z</time>
      </trkpt>
      <trkpt lat="68.62358" lon="15.18307">
        <ele>6.126696</ele>
        <time>2020-07-15T23:39:30.514Z</time>
      </trkpt>
      <trkpt lat="68.62403" lon="15.18435">
        <ele>6.938742</ele>
        <time>2020-07-15T23:39:44.442Z</time>
      </trkpt>
      <trkpt lat="68.62449" lon="15.18537">
        <ele>7.685887</ele>
        <time>2020-07-15T23:39:57.682Z</time>
      </trkpt>
      <trkpt lat="68.62503" lon="15.18638">
        <ele>8.428931</ele>
        <time>2020-07-15T23:40:12.315Z</time>
      </trkpt>
      <trkpt lat="68.62563" lon="15.18748">
        <ele>8.838539</ele>
        <time>2020-07-15T23:40:27.501Z</time>
      </trkpt>
      <trkpt lat="68.6257" lon="15.18766">
        <ele>8.896271</ele>
        <time>2020-07-15T23:40:29.515Z</time>
      </trkpt>
      <trkpt lat="68.62575" lon="15.18779">
        <ele>8.934848</ele>
        <time>2020-07-15T23:40:30.765Z</time>
      </trkpt>
      <trkpt lat="68.62621" lon="15.18895">
        <ele>9.290009</ele>
        <time>2020-07-15T23:40:42.266Z</time>
      </trkpt>
      <trkpt lat="68.62641" lon="15.18948">
        <ele>9.307618</ele>
        <time>2020-07-15T23:40:47.058Z</time>
      </trkpt>
      <trkpt lat="68.62656" lon="15.18984">
        <ele>9.175547</ele>
        <time>2020-07-15T23:40:50.461Z</time>
      </trkpt>
      <trkpt lat="68.62664" lon="15.19011">
        <ele>9.09128</ele>
        <time>2020-07-15T23:40:52.688Z</time>
      </trkpt>
      <trkpt lat="68.62684" lon="15.19063">
        <ele>8.91183</ele>
        <time>2020-07-15T23:40:57.191Z</time>
      </trkpt>
      <trkpt lat="68.62713" lon="15.19133">
        <ele>8.655867</ele>
        <time>2020-07-15T23:41:03.331Z</time>
      </trkpt>
      <trkpt lat="68.62753" lon="15.19218">
        <ele>8.324978</ele>
        <time>2020-07-15T23:41:11.078Z</time>
      </trkpt>
      <trkpt lat="68.62767" lon="15.19252">
        <ele>8.202529</ele>
        <time>2020-07-15T23:41:13.897Z</time>
      </trkpt>
      <trkpt lat="68.6278" lon="15.19282">
        <ele>8.115606</ele>
        <time>2020-07-15T23:41:16.588Z</time>
      </trkpt>
      <trkpt lat="68.62797" lon="15.19325">
        <ele>7.99952</ele>
        <time>2020-07-15T23:41:20.233Z</time>
      </trkpt>
      <trkpt lat="68.62799" lon="15.19329">
        <ele>7.987974</ele>
        <time>2020-07-15T23:41:20.599Z</time>
      </trkpt>
      <trkpt lat="68.62811" lon="15.19362">
        <ele>7.902574</ele>
        <time>2020-07-15T23:41:23.361Z</time>
      </trkpt>
      <trkpt lat="68.62822" lon="15.19393">
        <ele>7.824316</ele>
        <time>2020-07-15T23:41:26.001Z</time>
      </trkpt>
      <trkpt lat="68.62843" lon="15.19463">
        <ele>7.657494</ele>
        <time>2020-07-15T23:41:31.574Z</time>
      </trkpt>
      <trkpt lat="68.62851" lon="15.1949">
        <ele>7.59177</ele>
        <time>2020-07-15T23:41:33.759Z</time>
      </trkpt>
      <trkpt lat="68.62864" lon="15.19533">
        <ele>7.48947</ele>
        <time>2020-07-15T23:41:37.274Z</time>
      </trkpt>
      <trkpt lat="68.62892" lon="15.19623">
        <ele>7.279456</ele>
        <time>2020-07-15T23:41:44.663Z</time>
      </trkpt>
      <trkpt lat="68.62916" lon="15.19698">
        <ele>7.166981</ele>
        <time>2020-07-15T23:41:50.775Z</time>
      </trkpt>
      <trkpt lat="68.62949" lon="15.19807">
        <ele>7.006464</ele>
        <time>2020-07-15T23:41:59.641Z</time>
      </trkpt>
      <trkpt lat="68.62956" lon="15.19831">
        <ele>6.973074</ele>
        <time>2020-07-15T23:42:01.506Z</time>
      </trkpt>
      <trkpt lat="68.62979" lon="15.19913">
        <ele>6.855913</ele>
        <time>2020-07-15T23:42:07.959Z</time>
      </trkpt>
      <trkpt lat="68.62993" lon="15.19969">
        <ele>6.779273</ele>
        <time>2020-07-15T23:42:12.172Z</time>
      </trkpt>
      <trkpt lat="68.62997" lon="15.19986">
        <ele>6.755716</ele>
        <time>2020-07-15T23:42:13.458Z</time>
      </trkpt>
      <trkpt lat="68.63004" lon="15.20017">
        <ele>6.717947</ele>
        <time>2020-07-15T23:42:15.580Z</time>
      </trkpt>
      <trkpt lat="68.63016" lon="15.20068">
        <ele>6.65863</ele>
        <time>2020-07-15T23:42:19.295Z</time>
      </trkpt>
      <trkpt lat="68.63029" lon="15.20125">
        <ele>6.59272</ele>
        <time>2020-07-15T23:42:23.297Z</time>
      </trkpt>
      <trkpt lat="68.63058" lon="15.20262">
        <ele>6.437121</ele>
        <time>2020-07-15T23:42:32.979Z</time>
      </trkpt>
      <trkpt lat="68.63073" lon="15.20339">
        <ele>6.351172</ele>
        <time>2020-07-15T23:42:38.435Z</time>
      </trkpt>
      <trkpt lat="68.6308" lon="15.20373">
        <ele>6.311966</ele>
        <time>2020-07-15T23:42:40.856Z</time>
      </trkpt>
      <trkpt lat="68.63084" lon="15.20389">
        <ele>6.294433</ele>
        <time>2020-07-15T23:42:42.018Z</time>
      </trkpt>
      <trkpt lat="68.63088" lon="15.2041">
        <ele>6.270913</ele>
        <time>2020-07-15T23:42:43.620Z</time>
      </trkpt>
      <trkpt lat="68.63134" lon="15.20598">
        <ele>6.714743</ele>
        <time>2020-07-15T23:42:59.039Z</time>
      </trkpt>
      <trkpt lat="68.63181" lon="15.20736">
        <ele>7.133644</ele>
        <time>2020-07-15T23:43:13.359Z</time>
      </trkpt>
      <trkpt lat="68.6322" lon="15.20824">
        <ele>7.49074</ele>
        <time>2020-07-15T23:43:24.079Z</time>
      </trkpt>
      <trkpt lat="68.6323" lon="15.20842">
        <ele>7.602039</ele>
        <time>2020-07-15T23:43:26.367Z</time>
      </trkpt>
      <trkpt lat="68.63243" lon="15.20866">
        <ele>7.756343</ele>
        <time>2020-07-15T23:43:29.983Z</time>
      </trkpt>
      <trkpt lat="68.63293" lon="15.20936">
        <ele>8.285913</ele>
        <time>2020-07-15T23:43:41.543Z</time>
      </trkpt>
      <trkpt lat="68.63313" lon="15.20962">
        <ele>8.498266</ele>
        <time>2020-07-15T23:43:46.383Z</time>
      </trkpt>
      <trkpt lat="68.63309" lon="15.20987">
        <ele>8.593292</ele>
        <time>2020-07-15T23:43:48.403Z</time>
      </trkpt>
      <trkpt lat="68.63302" lon="15.21049">
        <ele>8.817388</ele>
        <time>2020-07-15T23:43:53.761Z</time>
      </trkpt>
      <trkpt lat="68.63302" lon="15.21064">
        <ele>8.869475</ele>
        <time>2020-07-15T23:43:54.772Z</time>
      </trkpt>
      <trkpt lat="68.63302" lon="15.21077">
        <ele>8.916237</ele>
        <time>2020-07-15T23:43:55.806Z</time>
      </trkpt>
      <trkpt lat="68.63302" lon="15.21086">
        <ele>8.947583</ele>
        <time>2020-07-15T23:43:56.550Z</time>
      </trkpt>
      <trkpt lat="68.63303" lon="15.21096">
        <ele>8.981164</ele>
        <time>2020-07-15T23:43:57.343Z</time>
      </trkpt>
      <trkpt lat="68.63305" lon="15.21111">
        <ele>9.035033</ele>
        <time>2020-07-15T23:43:58.653Z</time>
      </trkpt>
      <trkpt lat="68.63311" lon="15.21155">
        <ele>9.115423</ele>
        <time>2020-07-15T23:44:02.306Z</time>
      </trkpt>
      <trkpt lat="68.63312" lon="15.21159">
        <ele>9.12189</ele>
        <time>2020-07-15T23:44:02.605Z</time>
      </trkpt>
      <trkpt lat="68.63315" lon="15.21189">
        <ele>9.165382</ele>
        <time>2020-07-15T23:44:04.902Z</time>
      </trkpt>
      <trkpt lat="68.63342" lon="15.21413">
        <ele>9.490129</ele>
        <time>2020-07-15T23:44:22.019Z</time>
      </trkpt>
      <trkpt lat="68.63356" lon="15.21591">
        <ele>9.740588</ele>
        <time>2020-07-15T23:44:34.467Z</time>
      </trkpt>
      <trkpt lat="68.63356" lon="15.21597">
        <ele>9.741788</ele>
        <time>2020-07-15T23:44:35.031Z</time>
      </trkpt>
      <trkpt lat="68.63357" lon="15.21641">
        <ele>9.750228</ele>
        <time>2020-07-15T23:44:37.835Z</time>
      </trkpt>
      <trkpt lat="68.63357" lon="15.21916">
        <ele>9.803122</ele>
        <time>2020-07-15T23:44:57.299Z</time>
      </trkpt>
      <trkpt lat="68.63357" lon="15.21952">
        <ele>9.809942</ele>
        <time>2020-07-15T23:44:59.458Z</time>
      </trkpt>
      <trkpt lat="68.63357" lon="15.21971">
        <ele>9.813668</ele>
        <time>2020-07-15T23:45:00.920Z</time>
      </trkpt>
      <trkpt lat="68.63358" lon="15.2202">
        <ele>9.823168</ele>
        <time>2020-07-15T23:45:04.573Z</time>
      </trkpt>
      <trkpt lat="68.63358" lon="15.22043">
        <ele>9.827582</ele>
        <time>2020-07-15T23:45:05.857Z</time>
      </trkpt>
      <trkpt lat="68.63359" lon="15.22069">
        <ele>9.832527</ele>
        <time>2020-07-15T23:45:07.596Z</time>
      </trkpt>
      <trkpt lat="68.63367" lon="15.22162">
        <ele>9.725044</ele>
        <time>2020-07-15T23:45:13.743Z</time>
      </trkpt>
      <trkpt lat="68.63369" lon="15.2218">
        <ele>9.699423</ele>
        <time>2020-07-15T23:45:15.020Z</time>
      </trkpt>
      <trkpt lat="68.63373" lon="15.22218">
        <ele>9.644629</ele>
        <time>2020-07-15T23:45:17.715Z</time>
      </trkpt>
      <trkpt lat="68.63375" lon="15.22236">
        <ele>9.61881</ele>
        <time>2020-07-15T23:45:18.753Z</time>
      </trkpt>
      <trkpt lat="68.63381" lon="15.22285">
        <ele>9.548482</ele>
        <time>2020-07-15T23:45:22.225Z</time>
      </trkpt>
      <trkpt lat="68.63382" lon="15.22302">
        <ele>9.524654</ele>
        <time>2020-07-15T23:45:23.420Z</time>
      </trkpt>
      <trkpt lat="68.63385" lon="15.22337">
        <ele>9.475356</ele>
        <time>2020-07-15T23:45:25.485Z</time>
      </trkpt>
      <trkpt lat="68.63392" lon="15.22407">
        <ele>9.375727</ele>
        <time>2020-07-15T23:45:30.371Z</time>
      </trkpt>
      <trkpt lat="68.63393" lon="15.2242">
        <ele>9.357201</ele>
        <time>2020-07-15T23:45:31.141Z</time>
      </trkpt>
      <trkpt lat="68.63394" lon="15.22428">
        <ele>9.345669</ele>
        <time>2020-07-15T23:45:31.650Z</time>
      </trkpt>
      <trkpt lat="68.63394" lon="15.22438">
        <ele>9.331606</ele>
        <time>2020-07-15T23:45:32.326Z</time>
      </trkpt>
      <trkpt lat="68.63397" lon="15.22467">
        <ele>9.29176</ele>
        <time>2020-07-15T23:45:34.296Z</time>
      </trkpt>
      <trkpt lat="68.63401" lon="15.22513">
        <ele>9.225834</ele>
        <time>2020-07-15T23:45:37.385Z</time>
      </trkpt>
      <trkpt lat="68.63404" lon="15.22543">
        <ele>9.18307</ele>
        <time>2020-07-15T23:45:39.278Z</time>
      </trkpt>
      <trkpt lat="68.6341" lon="15.22592">
        <ele>9.066733</ele>
        <time>2020-07-15T23:45:42.784Z</time>
      </trkpt>
      <trkpt lat="68.63429" lon="15.22747">
        <ele>8.617843</ele>
        <time>2020-07-15T23:45:52.524Z</time>
      </trkpt>
      <trkpt lat="68.63432" lon="15.22787">
        <ele>8.505036</ele>
        <time>2020-07-15T23:45:54.982Z</time>
      </trkpt>
      <trkpt lat="68.63436" lon="15.22837">
        <ele>8.364748</ele>
        <time>2020-07-15T23:45:57.901Z</time>
      </trkpt>
      <trkpt lat="68.63437" lon="15.22868">
        <ele>8.278216</ele>
        <time>2020-07-15T23:45:59.730Z</time>
      </trkpt>
      <trkpt lat="68.63438" lon="15.22893">
        <ele>8.209097</ele>
        <time>2020-07-15T23:46:01.282Z</time>
      </trkpt>
      <trkpt lat="68.63438" lon="15.22899">
        <ele>8.192804</ele>
        <time>2020-07-15T23:46:01.631Z</time>
      </trkpt>
      <trkpt lat="68.63434" lon="15.23011">
        <ele>7.884265</ele>
        <time>2020-07-15T23:46:08.417Z</time>
      </trkpt>
      <trkpt lat="68.63434" lon="15.23015">
        <ele>7.871591</ele>
        <time>2020-07-15T23:46:08.689Z</time>
      </trkpt>
      <trkpt lat="68.63428" lon="15.23072">
        <ele>7.762352</ele>
        <time>2020-07-15T23:46:12.348Z</time>
      </trkpt>
      <trkpt lat="68.63427" lon="15.23095">
        <ele>7.735107</ele>
        <time>2020-07-15T23:46:13.886Z</time>
      </trkpt>
      <trkpt lat="68.63424" lon="15.23113">
        <ele>7.712813</ele>
        <time>2020-07-15T23:46:15.089Z</time>
      </trkpt>
      <trkpt lat="68.63415" lon="15.23195">
        <ele>7.614267</ele>
        <time>2020-07-15T23:46:20.626Z</time>
      </trkpt>
      <trkpt lat="68.6341" lon="15.23249">
        <ele>7.551054</ele>
        <time>2020-07-15T23:46:24.170Z</time>
      </trkpt>
      <trkpt lat="68.63409" lon="15.23272">
        <ele>7.523265</ele>
        <time>2020-07-15T23:46:25.857Z</time>
      </trkpt>
      <trkpt lat="68.63405" lon="15.23326">
        <ele>7.460542</ele>
        <time>2020-07-15T23:46:29.394Z</time>
      </trkpt>
      <trkpt lat="68.63405" lon="15.23332">
        <ele>7.453524</ele>
        <time>2020-07-15T23:46:29.775Z</time>
      </trkpt>
      <trkpt lat="68.63404" lon="15.2335">
        <ele>7.432525</ele>
        <time>2020-07-15T23:46:31.075Z</time>
      </trkpt>
      <trkpt lat="68.63402" lon="15.23422">
        <ele>7.3497</ele>
        <time>2020-07-15T23:46:35.672Z</time>
      </trkpt>
      <trkpt lat="68.63402" lon="15.23452">
        <ele>7.314357</ele>
        <time>2020-07-15T23:46:37.765Z</time>
      </trkpt>
      <trkpt lat="68.63402" lon="15.23458">
        <ele>7.307561</ele>
        <time>2020-07-15T23:46:38.175Z</time>
      </trkpt>
      <trkpt lat="68.63401" lon="15.23472">
        <ele>7.292001</ele>
        <time>2020-07-15T23:46:39.090Z</time>
      </trkpt>
      <trkpt lat="68.634" lon="15.23508">
        <ele>7.250294</ele>
        <time>2020-07-15T23:46:41.352Z</time>
      </trkpt>
      <trkpt lat="68.63401" lon="15.23558">
        <ele>7.192827</ele>
        <time>2020-07-15T23:46:44.740Z</time>
      </trkpt>
      <trkpt lat="68.63406" lon="15.23653">
        <ele>7.084705</ele>
        <time>2020-07-15T23:46:50.961Z</time>
      </trkpt>
      <trkpt lat="68.63416" lon="15.23725">
        <ele>6.997876</ele>
        <time>2020-07-15T23:46:56.037Z</time>
      </trkpt>
      <trkpt lat="68.63422" lon="15.23762">
        <ele>6.951811</ele>
        <time>2020-07-15T23:46:58.856Z</time>
      </trkpt>
      <trkpt lat="68.63428" lon="15.23804">
        <ele>6.90173</ele>
        <time>2020-07-15T23:47:01.638Z</time>
      </trkpt>
      <trkpt lat="68.63449" lon="15.23934">
        <ele>6.739628</ele>
        <time>2020-07-15T23:47:10.997Z</time>
      </trkpt>
      <trkpt lat="68.63456" lon="15.2398">
        <ele>6.683497</ele>
        <time>2020-07-15T23:47:13.984Z</time>
      </trkpt>
      <trkpt lat="68.63459" lon="15.23995">
        <ele>6.663166</ele>
        <time>2020-07-15T23:47:15.155Z</time>
      </trkpt>
      <trkpt lat="68.63463" lon="15.24012">
        <ele>6.640948</ele>
        <time>2020-07-15T23:47:16.388Z</time>
      </trkpt>
      <trkpt lat="68.63468" lon="15.24036">
        <ele>6.609241</ele>
        <time>2020-07-15T23:47:17.958Z</time>
      </trkpt>
      <trkpt lat="68.63482" lon="15.24104">
        <ele>6.517093</ele>
        <time>2020-07-15T23:47:22.916Z</time>
      </trkpt>
      <trkpt lat="68.63485" lon="15.24119">
        <ele>6.497181</ele>
        <time>2020-07-15T23:47:23.870Z</time>
      </trkpt>
      <trkpt lat="68.63513" lon="15.24266">
        <ele>6.304644</ele>
        <time>2020-07-15T23:47:34.277Z</time>
      </trkpt>
      <trkpt lat="68.63515" lon="15.24282">
        <ele>6.285713</ele>
        <time>2020-07-15T23:47:35.267Z</time>
      </trkpt>
      <trkpt lat="68.63516" lon="15.2429">
        <ele>6.275981</ele>
        <time>2020-07-15T23:47:35.758Z</time>
      </trkpt>
      <trkpt lat="68.63535" lon="15.24484">
        <ele>6.255586</ele>
        <time>2020-07-15T23:47:49.485Z</time>
      </trkpt>
      <trkpt lat="68.63537" lon="15.24494">
        <ele>6.289211</ele>
        <time>2020-07-15T23:47:50.278Z</time>
      </trkpt>
      <trkpt lat="68.6354" lon="15.24518">
        <ele>6.370763</ele>
        <time>2020-07-15T23:47:52.239Z</time>
      </trkpt>
      <trkpt lat="68.63545" lon="15.24551">
        <ele>6.481826</ele>
        <time>2020-07-15T23:47:54.846Z</time>
      </trkpt>
      <trkpt lat="68.63547" lon="15.24561">
        <ele>6.519761</ele>
        <time>2020-07-15T23:47:55.655Z</time>
      </trkpt>
      <trkpt lat="68.6355" lon="15.24575">
        <ele>6.570618</ele>
        <time>2020-07-15T23:47:56.901Z</time>
      </trkpt>
      <trkpt lat="68.63558" lon="15.24613">
        <ele>6.710951</ele>
        <time>2020-07-15T23:48:00.431Z</time>
      </trkpt>
      <trkpt lat="68.63564" lon="15.24638">
        <ele>6.804202</ele>
        <time>2020-07-15T23:48:02.590Z</time>
      </trkpt>
      <trkpt lat="68.63564" lon="15.24641">
        <ele>6.814188</ele>
        <time>2020-07-15T23:48:02.813Z</time>
      </trkpt>
      <trkpt lat="68.63572" lon="15.24671">
        <ele>6.931944</ele>
        <time>2020-07-15T23:48:05.795Z</time>
      </trkpt>
      <trkpt lat="68.63582" lon="15.24712">
        <ele>7.085898</ele>
        <time>2020-07-15T23:48:09.661Z</time>
      </trkpt>
      <trkpt lat="68.636" lon="15.24791">
        <ele>7.381396</ele>
        <time>2020-07-15T23:48:17.433Z</time>
      </trkpt>
      <trkpt lat="68.63608" lon="15.24827">
        <ele>7.515855</ele>
        <time>2020-07-15T23:48:21.001Z</time>
      </trkpt>
      <trkpt lat="68.6363" lon="15.24916">
        <ele>7.872399</ele>
        <time>2020-07-15T23:48:30.023Z</time>
      </trkpt>
      <trkpt lat="68.63634" lon="15.24932">
        <ele>7.940597</ele>
        <time>2020-07-15T23:48:31.800Z</time>
      </trkpt>
      <trkpt lat="68.63648" lon="15.24987">
        <ele>8.175358</ele>
        <time>2020-07-15T23:48:37.269Z</time>
      </trkpt>
      <trkpt lat="68.63651" lon="15.24996">
        <ele>8.217029</ele>
        <time>2020-07-15T23:48:38.372Z</time>
      </trkpt>
      <trkpt lat="68.63657" lon="15.25011">
        <ele>8.293711</ele>
        <time>2020-07-15T23:48:40.281Z</time>
      </trkpt>
      <trkpt lat="68.63665" lon="15.2503">
        <ele>8.394271</ele>
        <time>2020-07-15T23:48:42.524Z</time>
      </trkpt>
      <trkpt lat="68.63672" lon="15.25046">
        <ele>8.484888</ele>
        <time>2020-07-15T23:48:44.548Z</time>
      </trkpt>
      <trkpt lat="68.63674" lon="15.25049">
        <ele>8.504571</ele>
        <time>2020-07-15T23:48:45.084Z</time>
      </trkpt>
      <trkpt lat="68.63742" lon="15.25115">
        <ele>9.194974</ele>
        <time>2020-07-15T23:49:00.353Z</time>
      </trkpt>
      <trkpt lat="68.63753" lon="15.25127">
        <ele>9.311685</ele>
        <time>2020-07-15T23:49:02.986Z</time>
      </trkpt>
      <trkpt lat="68.63761" lon="15.25136">
        <ele>9.381074</ele>
        <time>2020-07-15T23:49:04.539Z</time>
      </trkpt>
      <trkpt lat="68.63798" lon="15.25199">
        <ele>9.421682</ele>
        <time>2020-07-15T23:49:12.742Z</time>
      </trkpt>
      <trkpt lat="68.63799" lon="15.25202">
        <ele>9.423524</ele>
        <time>2020-07-15T23:49:13.119Z</time>
      </trkpt>
      <trkpt lat="68.63805" lon="15.25219">
        <ele>9.431515</ele>
        <time>2020-07-15T23:49:14.709Z</time>
      </trkpt>
      <trkpt lat="68.63812" lon="15.25244">
        <ele>9.442731</ele>
        <time>2020-07-15T23:49:16.939Z</time>
      </trkpt>
      <trkpt lat="68.6382" lon="15.25275">
        <ele>9.455442</ele>
        <time>2020-07-15T23:49:19.466Z</time>
      </trkpt>
      <trkpt lat="68.63834" lon="15.25338">
        <ele>9.481159</ele>
        <time>2020-07-15T23:49:24.466Z</time>
      </trkpt>
      <trkpt lat="68.63861" lon="15.25454">
        <ele>9.528396</ele>
        <time>2020-07-15T23:49:33.781Z</time>
      </trkpt>
      <trkpt lat="68.63868" lon="15.25484">
        <ele>9.540792</ele>
        <time>2020-07-15T23:49:36.029Z</time>
      </trkpt>
      <trkpt lat="68.63873" lon="15.25509">
        <ele>9.551251</ele>
        <time>2020-07-15T23:49:38.082Z</time>
      </trkpt>
      <trkpt lat="68.63901" lon="15.25593">
        <ele>9.608487</ele>
        <time>2020-07-15T23:49:45.784Z</time>
      </trkpt>
      <trkpt lat="68.63955" lon="15.25702">
        <ele>9.70051</ele>
        <time>2020-07-15T23:49:58.367Z</time>
      </trkpt>
      <trkpt lat="68.6396" lon="15.25718">
        <ele>9.711087</ele>
        <time>2020-07-15T23:49:59.981Z</time>
      </trkpt>
      <trkpt lat="68.63962" lon="15.25723">
        <ele>9.714143</ele>
        <time>2020-07-15T23:50:00.359Z</time>
      </trkpt>
      <trkpt lat="68.64005" lon="15.25901">
        <ele>9.783227</ele>
        <time>2020-07-15T23:50:15.597Z</time>
      </trkpt>
      <trkpt lat="68.64081" lon="15.26135">
        <ele>9.686678</ele>
        <time>2020-07-15T23:50:37.415Z</time>
      </trkpt>
      <trkpt lat="68.64087" lon="15.2615">
        <ele>9.679847</ele>
        <time>2020-07-15T23:50:38.933Z</time>
      </trkpt>
      <trkpt lat="68.64109" lon="15.26213">
        <ele>9.65359</ele>
        <time>2020-07-15T23:50:44.273Z</time>
      </trkpt>
      <trkpt lat="68.64115" lon="15.26234">
        <ele>9.627325</ele>
        <time>2020-07-15T23:50:46.035Z</time>
      </trkpt>
      <trkpt lat="68.6413" lon="15.26333">
        <ele>9.140976</ele>
        <time>2020-07-15T23:50:52.356Z</time>
      </trkpt>
      <trkpt lat="68.64132" lon="15.26356">
        <ele>9.034848</ele>
        <time>2020-07-15T23:50:53.734Z</time>
      </trkpt>
      <trkpt lat="68.64132" lon="15.26366">
        <ele>8.989618</ele>
        <time>2020-07-15T23:50:54.285Z</time>
      </trkpt>
      <trkpt lat="68.64135" lon="15.26394">
        <ele>8.857963</ele>
        <time>2020-07-15T23:50:55.992Z</time>
      </trkpt>
      <trkpt lat="68.64139" lon="15.26424">
        <ele>8.710844</ele>
        <time>2020-07-15T23:50:57.943Z</time>
      </trkpt>
      <trkpt lat="68.64149" lon="15.26504">
        <ele>8.325924</ele>
        <time>2020-07-15T23:51:02.882Z</time>
      </trkpt>
      <trkpt lat="68.64155" lon="15.26541">
        <ele>8.141902</ele>
        <time>2020-07-15T23:51:05.139Z</time>
      </trkpt>
      <trkpt lat="68.64157" lon="15.26555">
        <ele>8.071726</ele>
        <time>2020-07-15T23:51:05.980Z</time>
      </trkpt>
      <trkpt lat="68.64166" lon="15.26599">
        <ele>7.844243</ele>
        <time>2020-07-15T23:51:08.811Z</time>
      </trkpt>
      <trkpt lat="68.6417" lon="15.26611">
        <ele>7.769674</ele>
        <time>2020-07-15T23:51:09.687Z</time>
      </trkpt>
      <trkpt lat="68.64179" lon="15.2664">
        <ele>7.599464</ele>
        <time>2020-07-15T23:51:11.794Z</time>
      </trkpt>
      <trkpt lat="68.6418" lon="15.26645">
        <ele>7.567426</ele>
        <time>2020-07-15T23:51:12.146Z</time>
      </trkpt>
      <trkpt lat="68.6423" lon="15.2681">
        <ele>6.155094</ele>
        <time>2020-07-15T23:51:23.702Z</time>
      </trkpt>
      <trkpt lat="68.64236" lon="15.26836">
        <ele>5.942073</ele>
        <time>2020-07-15T23:51:25.349Z</time>
      </trkpt>
      <trkpt lat="68.64247" lon="15.26876">
        <ele>5.586568</ele>
        <time>2020-07-15T23:51:27.971Z</time>
      </trkpt>
      <trkpt lat="68.6425" lon="15.26892">
        <ele>5.454078</ele>
        <time>2020-07-15T23:51:28.980Z</time>
      </trkpt>
      <trkpt lat="68.64254" lon="15.26906">
        <ele>5.329682</ele>
        <time>2020-07-15T23:51:29.974Z</time>
      </trkpt>
      <trkpt lat="68.64262" lon="15.26933">
        <ele>5.087713</ele>
        <time>2020-07-15T23:51:31.793Z</time>
      </trkpt>
      <trkpt lat="68.64269" lon="15.2696">
        <ele>4.846871</ele>
        <time>2020-07-15T23:51:33.603Z</time>
      </trkpt>
      <trkpt lat="68.64274" lon="15.26978">
        <ele>4.688096</ele>
        <time>2020-07-15T23:51:34.855Z</time>
      </trkpt>
      <trkpt lat="68.64278" lon="15.26994">
        <ele>4.551095</ele>
        <time>2020-07-15T23:51:35.919Z</time>
      </trkpt>
      <trkpt lat="68.64282" lon="15.27007">
        <ele>4.435732</ele>
        <time>2020-07-15T23:51:36.822Z</time>
      </trkpt>
      <trkpt lat="68.64291" lon="15.27039">
        <ele>4.149754</ele>
        <time>2020-07-15T23:51:39.082Z</time>
      </trkpt>
      <trkpt lat="68.64318" lon="15.27146">
        <ele>3.367333</ele>
        <time>2020-07-15T23:51:46.157Z</time>
      </trkpt>
      <trkpt lat="68.64323" lon="15.27167">
        <ele>3.224979</ele>
        <time>2020-07-15T23:51:47.495Z</time>
      </trkpt>
      <trkpt lat="68.64331" lon="15.27196">
        <ele>3.019609</ele>
        <time>2020-07-15T23:51:49.490Z</time>
      </trkpt>
      <trkpt lat="68.64336" lon="15.27215">
        <ele>2.886478</ele>
        <time>2020-07-15T23:51:50.752Z</time>
      </trkpt>
      <trkpt lat="68.64369" lon="15.27366">
        <ele>1.891796</ele>
        <time>2020-07-15T23:52:00.532Z</time>
      </trkpt>
      <trkpt lat="68.64377" lon="15.27402">
        <ele>1.646652</ele>
        <time>2020-07-15T23:52:03.000Z</time>
      </trkpt>
      <trkpt lat="68.64379" lon="15.27408">
        <ele>1.605004</ele>
        <time>2020-07-15T23:52:03.434Z</time>
      </trkpt>
      <trkpt lat="68.64392" lon="15.27465">
        <ele>1.225613</ele>
        <time>2020-07-15T23:52:07.334Z</time>
      </trkpt>
      <trkpt lat="68.64397" lon="15.27495">
        <ele>1.092019</ele>
        <time>2020-07-15T23:52:09.322Z</time>
      </trkpt>
      <trkpt lat="68.64403" lon="15.2752">
        <ele>1.040832</ele>
        <time>2020-07-15T23:52:11.021Z</time>
      </trkpt>
      <trkpt lat="68.64418" lon="15.27578">
        <ele>0.912865</ele>
        <time>2020-07-15T23:52:15.350Z</time>
      </trkpt>
      <trkpt lat="68.64431" lon="15.27624">
        <ele>0.81058</ele>
        <time>2020-07-15T23:52:18.941Z</time>
      </trkpt>
      <trkpt lat="68.64437" lon="15.27645">
        <ele>0.764966</ele>
        <time>2020-07-15T23:52:20.547Z</time>
      </trkpt>
      <trkpt lat="68.64453" lon="15.27695">
        <ele>0.645162</ele>
        <time>2020-07-15T23:52:24.815Z</time>
      </trkpt>
      <trkpt lat="68.64461" lon="15.27721">
        <ele>0.585097</ele>
        <time>2020-07-15T23:52:26.943Z</time>
      </trkpt>
      <trkpt lat="68.64474" lon="15.27762">
        <ele>0.491611</ele>
        <time>2020-07-15T23:52:30.366Z</time>
      </trkpt>
      <trkpt lat="68.64487" lon="15.27808">
        <ele>0.386542</ele>
        <time>2020-07-15T23:52:34.358Z</time>
      </trkpt>
      <trkpt lat="68.64496" lon="15.27838">
        <ele>0.319639</ele>
        <time>2020-07-15T23:52:36.856Z</time>
      </trkpt>
      <trkpt lat="68.64501" lon="15.27859">
        <ele>0.274219</ele>
        <time>2020-07-15T23:52:38.602Z</time>
      </trkpt>
      <trkpt lat="68.64509" lon="15.27886">
        <ele>0.25598</ele>
        <time>2020-07-15T23:52:40.938Z</time>
      </trkpt>
      <trkpt lat="68.64514" lon="15.27904">
        <ele>0.272501</ele>
        <time>2020-07-15T23:52:42.667Z</time>
      </trkpt>
      <trkpt lat="68.64548" lon="15.28032">
        <ele>0.377488</ele>
        <time>2020-07-15T23:52:53.629Z</time>
      </trkpt>
      <trkpt lat="68.64549" lon="15.28035">
        <ele>0.379803</ele>
        <time>2020-07-15T23:52:53.898Z</time>
      </trkpt>
      <trkpt lat="68.64576" lon="15.2814">
        <ele>0.465324</ele>
        <time>2020-07-15T23:53:02.910Z</time>
      </trkpt>
      <trkpt lat="68.64594" lon="15.28254">
        <ele>0.548381</ele>
        <time>2020-07-15T23:53:11.750Z</time>
      </trkpt>
      <trkpt lat="68.64602" lon="15.28386">
        <ele>0.637294</ele>
        <time>2020-07-15T23:53:21.255Z</time>
      </trkpt>
      <trkpt lat="68.64604" lon="15.28485">
        <ele>0.703373</ele>
        <time>2020-07-15T23:53:28.250Z</time>
      </trkpt>
      <trkpt lat="68.64604" lon="15.2851">
        <ele>0.71997</ele>
        <time>2020-07-15T23:53:30.053Z</time>
      </trkpt>
      <trkpt lat="68.64608" lon="15.28538">
        <ele>0.739724</ele>
        <time>2020-07-15T23:53:32.050Z</time>
      </trkpt>
      <trkpt lat="68.64609" lon="15.28544">
        <ele>0.745178</ele>
        <time>2020-07-15T23:53:32.593Z</time>
      </trkpt>
      <trkpt lat="68.64626" lon="15.28532">
        <ele>0.776531</ele>
        <time>2020-07-15T23:53:35.783Z</time>
      </trkpt>
      <trkpt lat="68.64633" lon="15.28532">
        <ele>0.790264</ele>
        <time>2020-07-15T23:53:37.218Z</time>
      </trkpt>
      <trkpt lat="68.64635" lon="15.2856">
        <ele>0.809188</ele>
        <time>2020-07-15T23:53:39.007Z</time>
      </trkpt>
      <trkpt lat="68.64645" lon="15.28684">
        <ele>0.893672</ele>
        <time>2020-07-15T23:53:47.439Z</time>
      </trkpt>
      <trkpt lat="68.64654" lon="15.28759">
        <ele>0.908622</ele>
        <time>2020-07-15T23:53:52.598Z</time>
      </trkpt>
      <trkpt lat="68.64659" lon="15.28803">
        <ele>0.912792</ele>
        <time>2020-07-15T23:53:55.727Z</time>
      </trkpt>
      <trkpt lat="68.64687" lon="15.28987">
        <ele>0.930763</ele>
        <time>2020-07-15T23:54:08.743Z</time>
      </trkpt>
      <trkpt lat="68.64696" lon="15.29036">
        <ele>0.935795</ele>
        <time>2020-07-15T23:54:12.312Z</time>
      </trkpt>
      <trkpt lat="68.64701" lon="15.29063">
        <ele>0.93852</ele>
        <time>2020-07-15T23:54:14.289Z</time>
      </trkpt>
      <trkpt lat="68.6474" lon="15.29234">
        <ele>0.886091</ele>
        <time>2020-07-15T23:54:27.208Z</time>
      </trkpt>
      <trkpt lat="68.64756" lon="15.29296">
        <ele>0.84063</ele>
        <time>2020-07-15T23:54:32.094Z</time>
      </trkpt>
      <trkpt lat="68.64787" lon="15.2941">
        <ele>0.757492</ele>
        <time>2020-07-15T23:54:40.926Z</time>
      </trkpt>
      <trkpt lat="68.64802" lon="15.29469">
        <ele>0.714227</ele>
        <time>2020-07-15T23:54:45.524Z</time>
      </trkpt>
      <trkpt lat="68.64838" lon="15.296">
        <ele>0.623682</ele>
        <time>2020-07-15T23:54:55.885Z</time>
      </trkpt>
      <trkpt lat="68.6485" lon="15.29645">
        <ele>0.596028</ele>
        <time>2020-07-15T23:54:59.393Z</time>
      </trkpt>
      <trkpt lat="68.64869" lon="15.29718">
        <ele>0.55168</ele>
        <time>2020-07-15T23:55:05.073Z</time>
      </trkpt>
      <trkpt lat="68.64904" lon="15.29866">
        <ele>0.464215</ele>
        <time>2020-07-15T23:55:16.307Z</time>
      </trkpt>
      <trkpt lat="68.64907" lon="15.29881">
        <ele>0.455887</ele>
        <time>2020-07-15T23:55:17.365Z</time>
      </trkpt>
      <trkpt lat="68.6491" lon="15.29899">
        <ele>0.445926</ele>
        <time>2020-07-15T23:55:18.650Z</time>
      </trkpt>
      <trkpt lat="68.64922" lon="15.29987">
        <ele>0.405531</ele>
        <time>2020-07-15T23:55:24.578Z</time>
      </trkpt>
      <trkpt lat="68.64924" lon="15.30012">
        <ele>0.399082</ele>
        <time>2020-07-15T23:55:26.307Z</time>
      </trkpt>
      <trkpt lat="68.64927" lon="15.30043">
        <ele>0.391352</ele>
        <time>2020-07-15T23:55:28.358Z</time>
      </trkpt>
      <trkpt lat="68.64935" lon="15.30134">
        <ele>0.368478</ele>
        <time>2020-07-15T23:55:34.441Z</time>
      </trkpt>
      <trkpt lat="68.6494" lon="15.30192">
        <ele>0.354014</ele>
        <time>2020-07-15T23:55:38.259Z</time>
      </trkpt>
      <trkpt lat="68.64952" lon="15.30314">
        <ele>0.323313</ele>
        <time>2020-07-15T23:55:46.429Z</time>
      </trkpt>
      <trkpt lat="68.64967" lon="15.30409">
        <ele>0.297973</ele>
        <time>2020-07-15T23:55:53.088Z</time>
      </trkpt>
      <trkpt lat="68.65048" lon="15.30738">
        <ele>0.314002</ele>
        <time>2020-07-15T23:56:18.601Z</time>
      </trkpt>
      <trkpt lat="68.65056" lon="15.30787">
        <ele>0.317432</ele>
        <time>2020-07-15T23:56:22.191Z</time>
      </trkpt>
      <trkpt lat="68.65063" lon="15.30835">
        <ele>0.320728</ele>
        <time>2020-07-15T23:56:25.633Z</time>
      </trkpt>
      <trkpt lat="68.6508" lon="15.30979">
        <ele>0.388591</ele>
        <time>2020-07-15T23:56:35.814Z</time>
      </trkpt>
      <trkpt lat="68.65096" lon="15.3113">
        <ele>0.469991</ele>
        <time>2020-07-15T23:56:46.441Z</time>
      </trkpt>
      <trkpt lat="68.65099" lon="15.31142">
        <ele>0.477316</ele>
        <time>2020-07-15T23:56:47.422Z</time>
      </trkpt>
      <trkpt lat="68.65104" lon="15.31173">
        <ele>0.494384</ele>
        <time>2020-07-15T23:56:49.692Z</time>
      </trkpt>
      <trkpt lat="68.65109" lon="15.31218">
        <ele>0.519055</ele>
        <time>2020-07-15T23:56:52.861Z</time>
      </trkpt>
      <trkpt lat="68.65112" lon="15.31242">
        <ele>0.5317</ele>
        <time>2020-07-15T23:56:54.422Z</time>
      </trkpt>
      <trkpt lat="68.65127" lon="15.31381">
        <ele>0.557859</ele>
        <time>2020-07-15T23:57:04.056Z</time>
      </trkpt>
      <trkpt lat="68.65137" lon="15.31529">
        <ele>0.510357</ele>
        <time>2020-07-15T23:57:13.783Z</time>
      </trkpt>
      <trkpt lat="68.65139" lon="15.31578">
        <ele>0.494947</ele>
        <time>2020-07-15T23:57:17.101Z</time>
      </trkpt>
      <trkpt lat="68.65142" lon="15.31622">
        <ele>0.480859</ele>
        <time>2020-07-15T23:57:19.857Z</time>
      </trkpt>
      <trkpt lat="68.65156" lon="15.31842">
        <ele>0.401305</ele>
        <time>2020-07-15T23:57:33.899Z</time>
      </trkpt>
      <trkpt lat="68.65181" lon="15.32026">
        <ele>0.282822</ele>
        <time>2020-07-15T23:57:46.161Z</time>
      </trkpt>
      <trkpt lat="68.6523" lon="15.3226">
        <ele>0.123755</ele>
        <time>2020-07-15T23:58:03.227Z</time>
      </trkpt>
      <trkpt lat="68.65312" lon="15.32591">
        <ele>0.122489</ele>
        <time>2020-07-15T23:58:29.434Z</time>
      </trkpt>
      <trkpt lat="68.65321" lon="15.3262">
        <ele>0.122373</ele>
        <time>2020-07-15T23:58:31.857Z</time>
      </trkpt>
      <trkpt lat="68.65328" lon="15.32603">
        <ele>0.122295</ele>
        <time>2020-07-15T23:58:33.554Z</time>
      </trkpt>
      <trkpt lat="68.65334" lon="15.3262">
        <ele>0.122223</ele>
        <time>2020-07-15T23:58:35.100Z</time>
      </trkpt>
      <trkpt lat="68.65397" lon="15.32847">
        <ele>0.146887</ele>
        <time>2020-07-15T23:58:54.594Z</time>
      </trkpt>
      <trkpt lat="68.6541" lon="15.32889">
        <ele>0.151838</ele>
        <time>2020-07-15T23:58:58.465Z</time>
      </trkpt>
      <trkpt lat="68.6542" lon="15.32916">
        <ele>0.15508</ele>
        <time>2020-07-15T23:59:00.982Z</time>
      </trkpt>
      <trkpt lat="68.65429" lon="15.32943">
        <ele>0.158351</ele>
        <time>2020-07-15T23:59:03.495Z</time>
      </trkpt>
      <trkpt lat="68.65431" lon="15.3295">
        <ele>0.159185</ele>
        <time>2020-07-15T23:59:04.156Z</time>
      </trkpt>
      <trkpt lat="68.6547" lon="15.33092">
        <ele>0.14495</ele>
        <time>2020-07-15T23:59:16.106Z</time>
      </trkpt>
      <trkpt lat="68.65479" lon="15.33126">
        <ele>0.136949</ele>
        <time>2020-07-15T23:59:18.958Z</time>
      </trkpt>
      <trkpt lat="68.65495" lon="15.33192">
        <ele>0.12183</ele>
        <time>2020-07-15T23:59:24.225Z</time>
      </trkpt>
      <trkpt lat="68.65549" lon="15.3338">
        <ele>0.07613</ele>
        <time>2020-07-15T23:59:40.204Z</time>
      </trkpt>
      <trkpt lat="68.65569" lon="15.33444">
        <ele>0.062658</ele>
        <time>2020-07-15T23:59:45.892Z</time>
      </trkpt>
      <trkpt lat="68.6559" lon="15.33514">
        <ele>0.04949</ele>
        <time>2020-07-15T23:59:52.038Z</time>
      </trkpt>
      <trkpt lat="68.65663" lon="15.33752">
        <ele>0.004962</ele>
        <time>2020-07-16T00:00:12.976Z</time>
      </trkpt>
      <trkpt lat="68.65666" lon="15.33764">
        <ele>0.002819</ele>
        <time>2020-07-16T00:00:13.995Z</time>
      </trkpt>
      <trkpt lat="68.65714" lon="15.33916">
        <ele>3.7</ele>
        <time>2020-07-16T00:00:27.558Z</time>
      </trkpt>
      <trkpt lat="68.65717" lon="15.33922">
        <ele>3.7</ele>
        <time>2020-07-16T00:00:28.211Z</time>
      </trkpt>
      <trkpt lat="68.6572" lon="15.3393">
        <ele>3.8</ele>
        <time>2020-07-16T00:00:28.953Z</time>
      </trkpt>
      <trkpt lat="68.65741" lon="15.33988">
        <ele>4.1</ele>
        <time>2020-07-16T00:00:34.509Z</time>
      </trkpt>
      <trkpt lat="68.65746" lon="15.33999">
        <ele>3.9</ele>
        <time>2020-07-16T00:00:35.705Z</time>
      </trkpt>
      <trkpt lat="68.65755" lon="15.34022">
        <ele>3.5</ele>
        <time>2020-07-16T00:00:38.083Z</time>
      </trkpt>
      <trkpt lat="68.65775" lon="15.3407">
        <ele>3.4</ele>
        <time>2020-07-16T00:00:42.984Z</time>
      </trkpt>
      <trkpt lat="68.658" lon="15.34132">
        <ele>3.8</ele>
        <time>2020-07-16T00:00:49.269Z</time>
      </trkpt>
      <trkpt lat="68.65844" lon="15.34234">
        <ele>3.2</ele>
        <time>2020-07-16T00:00:59.944Z</time>
      </trkpt>
      <trkpt lat="68.65893" lon="15.34348">
        <ele>3.1</ele>
        <time>2020-07-16T00:01:11.853Z</time>
      </trkpt>
      <trkpt lat="68.65912" lon="15.34395">
        <ele>2.9</ele>
        <time>2020-07-16T00:01:16.648Z</time>
      </trkpt>
      <trkpt lat="68.65925" lon="15.34425">
        <ele>3.3</ele>
        <time>2020-07-16T00:01:19.836Z</time>
      </trkpt>
      <trkpt lat="68.65942" lon="15.34464">
        <ele>3.2</ele>
        <time>2020-07-16T00:01:23.960Z</time>
      </trkpt>
      <trkpt lat="68.65947" lon="15.34473">
        <ele>3.1</ele>
        <time>2020-07-16T00:01:25.094Z</time>
      </trkpt>
      <trkpt lat="68.65963" lon="15.3451">
        <ele>3.7</ele>
        <time>2020-07-16T00:01:28.919Z</time>
      </trkpt>
      <trkpt lat="68.65975" lon="15.34539">
        <ele>3.6</ele>
        <time>2020-07-16T00:01:31.894Z</time>
      </trkpt>
      <trkpt lat="68.66004" lon="15.34606">
        <ele>3</ele>
        <time>2020-07-16T00:01:38.962Z</time>
      </trkpt>
      <trkpt lat="68.66014" lon="15.34629">
        <ele>3</ele>
        <time>2020-07-16T00:01:41.322Z</time>
      </trkpt>
      <trkpt lat="68.66024" lon="15.3465">
        <ele>3</ele>
        <time>2020-07-16T00:01:43.735Z</time>
      </trkpt>
      <trkpt lat="68.66033" lon="15.3467">
        <ele>3.2</ele>
        <time>2020-07-16T00:01:45.878Z</time>
      </trkpt>
      <trkpt lat="68.66049" lon="15.34709">
        <ele>3.1</ele>
        <time>2020-07-16T00:01:49.802Z</time>
      </trkpt>
      <trkpt lat="68.66066" lon="15.34748">
        <ele>3</ele>
        <time>2020-07-16T00:01:54.020Z</time>
      </trkpt>
      <trkpt lat="68.66069" lon="15.34753">
        <ele>3</ele>
        <time>2020-07-16T00:01:54.520Z</time>
      </trkpt>
      <trkpt lat="68.6612" lon="15.34833">
        <ele>4.3</ele>
        <time>2020-07-16T00:02:05.441Z</time>
      </trkpt>
      <trkpt lat="68.66123" lon="15.3485">
        <ele>4.2</ele>
        <time>2020-07-16T00:02:06.743Z</time>
      </trkpt>
      <trkpt lat="68.66123" lon="15.34861">
        <ele>4</ele>
        <time>2020-07-16T00:02:07.474Z</time>
      </trkpt>
      <trkpt lat="68.66123" lon="15.34923">
        <ele>3.9</ele>
        <time>2020-07-16T00:02:11.493Z</time>
      </trkpt>
      <trkpt lat="68.66221" lon="15.35226">
        <ele>3.1</ele>
        <time>2020-07-16T00:02:37.830Z</time>
      </trkpt>
      <trkpt lat="68.6624" lon="15.35252">
        <ele>3.4</ele>
        <time>2020-07-16T00:02:41.655Z</time>
      </trkpt>
      <trkpt lat="68.66244" lon="15.35264">
        <ele>3.2</ele>
        <time>2020-07-16T00:02:42.687Z</time>
      </trkpt>
      <trkpt lat="68.66254" lon="15.35299">
        <ele>3.1</ele>
        <time>2020-07-16T00:02:45.588Z</time>
      </trkpt>
      <trkpt lat="68.66259" lon="15.35329">
        <ele>3.9</ele>
        <time>2020-07-16T00:02:47.718Z</time>
      </trkpt>
      <trkpt lat="68.66259" lon="15.35335">
        <ele>4</ele>
        <time>2020-07-16T00:02:48.181Z</time>
      </trkpt>
      <trkpt lat="68.6626" lon="15.35345">
        <ele>3.8</ele>
        <time>2020-07-16T00:02:48.851Z</time>
      </trkpt>
      <trkpt lat="68.66325" lon="15.3556">
        <ele>0.011589</ele>
        <time>2020-07-16T00:03:07.049Z</time>
      </trkpt>
      <trkpt lat="68.66329" lon="15.3557">
        <ele>0.013393</ele>
        <time>2020-07-16T00:03:08.092Z</time>
      </trkpt>
      <trkpt lat="68.66342" lon="15.356">
        <ele>0.018577</ele>
        <time>2020-07-16T00:03:11.075Z</time>
      </trkpt>
      <trkpt lat="68.66348" lon="15.35616">
        <ele>0.021287</ele>
        <time>2020-07-16T00:03:12.641Z</time>
      </trkpt>
      <trkpt lat="68.66364" lon="15.35655">
        <ele>0.027806</ele>
        <time>2020-07-16T00:03:16.406Z</time>
      </trkpt>
      <trkpt lat="68.66494" lon="15.35945">
        <ele>0.339667</ele>
        <time>2020-07-16T00:03:46.603Z</time>
      </trkpt>
      <trkpt lat="68.66542" lon="15.36074">
        <ele>0.588001</ele>
        <time>2020-07-16T00:03:59.569Z</time>
      </trkpt>
      <trkpt lat="68.66556" lon="15.36119">
        <ele>0.669093</ele>
        <time>2020-07-16T00:04:04.021Z</time>
      </trkpt>
      <trkpt lat="68.66566" lon="15.36151">
        <ele>0.732871</ele>
        <time>2020-07-16T00:04:06.827Z</time>
      </trkpt>
      <trkpt lat="68.66591" lon="15.36234">
        <ele>1.148976</ele>
        <time>2020-07-16T00:04:14.832Z</time>
      </trkpt>
      <trkpt lat="68.66594" lon="15.36241">
        <ele>1.197338</ele>
        <time>2020-07-16T00:04:15.731Z</time>
      </trkpt>
      <trkpt lat="68.66598" lon="15.36249">
        <ele>1.248993</ele>
        <time>2020-07-16T00:04:17.016Z</time>
      </trkpt>
      <trkpt lat="68.66662" lon="15.36482">
        <ele>2.381689</ele>
        <time>2020-07-16T00:04:39.741Z</time>
      </trkpt>
      <trkpt lat="68.66685" lon="15.36564">
        <ele>2.781271</ele>
        <time>2020-07-16T00:04:48.185Z</time>
      </trkpt>
      <trkpt lat="68.66728" lon="15.36713">
        <ele>3.50196</ele>
        <time>2020-07-16T00:05:03.260Z</time>
      </trkpt>
      <trkpt lat="68.66734" lon="15.36731">
        <ele>3.589701</ele>
        <time>2020-07-16T00:05:05.049Z</time>
      </trkpt>
      <trkpt lat="68.66737" lon="15.36737">
        <ele>3.631174</ele>
        <time>2020-07-16T00:05:05.985Z</time>
      </trkpt>
      <trkpt lat="68.6674" lon="15.36743">
        <ele>3.675655</ele>
        <time>2020-07-16T00:05:07.054Z</time>
      </trkpt>
      <trkpt lat="68.66794" lon="15.36925">
        <ele>4.516995</ele>
        <time>2020-07-16T00:05:24.556Z</time>
      </trkpt>
      <trkpt lat="68.6681" lon="15.36971">
        <ele>4.528147</ele>
        <time>2020-07-16T00:05:29.204Z</time>
      </trkpt>
      <trkpt lat="68.66845" lon="15.37068">
        <ele>4.552253</ele>
        <time>2020-07-16T00:05:38.567Z</time>
      </trkpt>
      <trkpt lat="68.66958" lon="15.37384">
        <ele>4.1775</ele>
        <time>2020-07-16T00:06:05.685Z</time>
      </trkpt>
      <trkpt lat="68.66994" lon="15.37485">
        <ele>3.80776</ele>
        <time>2020-07-16T00:06:13.747Z</time>
      </trkpt>
      <trkpt lat="68.67037" lon="15.37602">
        <ele>3.371315</ele>
        <time>2020-07-16T00:06:23.201Z</time>
      </trkpt>
      <trkpt lat="68.67055" lon="15.37653">
        <ele>3.195607</ele>
        <time>2020-07-16T00:06:27.333Z</time>
      </trkpt>
      <trkpt lat="68.67087" lon="15.37728">
        <ele>2.93258</ele>
        <time>2020-07-16T00:06:33.878Z</time>
      </trkpt>
      <trkpt lat="68.67114" lon="15.37776">
        <ele>2.724308</ele>
        <time>2020-07-16T00:06:39.148Z</time>
      </trkpt>
      <trkpt lat="68.67128" lon="15.37793">
        <ele>2.629314</ele>
        <time>2020-07-16T00:06:41.516Z</time>
      </trkpt>
      <trkpt lat="68.67139" lon="15.37806">
        <ele>2.552514</ele>
        <time>2020-07-16T00:06:43.540Z</time>
      </trkpt>
      <trkpt lat="68.6719" lon="15.37849">
        <ele>2.218388</ele>
        <time>2020-07-16T00:06:52.295Z</time>
      </trkpt>
      <trkpt lat="68.67198" lon="15.37855">
        <ele>2.163233</ele>
        <time>2020-07-16T00:06:53.793Z</time>
      </trkpt>
      <trkpt lat="68.67239" lon="15.37888">
        <ele>2.124862</ele>
        <time>2020-07-16T00:07:01.115Z</time>
      </trkpt>
      <trkpt lat="68.67247" lon="15.37897">
        <ele>2.116286</ele>
        <time>2020-07-16T00:07:02.801Z</time>
      </trkpt>
      <trkpt lat="68.67254" lon="15.37906">
        <ele>2.110062</ele>
        <time>2020-07-16T00:07:03.974Z</time>
      </trkpt>
      <trkpt lat="68.67257" lon="15.37911">
        <ele>2.106753</ele>
        <time>2020-07-16T00:07:04.560Z</time>
      </trkpt>
      <trkpt lat="68.67395" lon="15.38123">
        <ele>2</ele>
        <time>2020-07-16T00:07:32.705Z</time>
      </trkpt>
      <trkpt lat="68.67414" lon="15.38141">
        <ele>2</ele>
        <time>2020-07-16T00:07:36.304Z</time>
      </trkpt>
      <trkpt lat="68.67417" lon="15.38147">
        <ele>2</ele>
        <time>2020-07-16T00:07:37.051Z</time>
      </trkpt>
      <trkpt lat="68.67422" lon="15.38156">
        <ele>2</ele>
        <time>2020-07-16T00:07:38.002Z</time>
      </trkpt>
      <trkpt lat="68.67429" lon="15.38167">
        <ele>2</ele>
        <time>2020-07-16T00:07:39.558Z</time>
      </trkpt>
      <trkpt lat="68.67487" lon="15.38231">
        <ele>2</ele>
        <time>2020-07-16T00:07:50.803Z</time>
      </trkpt>
      <trkpt lat="68.67512" lon="15.38258">
        <ele>2</ele>
        <time>2020-07-16T00:07:55.459Z</time>
      </trkpt>
      <trkpt lat="68.67537" lon="15.3829">
        <ele>1.991772</ele>
        <time>2020-07-16T00:08:00.483Z</time>
      </trkpt>
      <trkpt lat="68.67542" lon="15.38297">
        <ele>1.988968</ele>
        <time>2020-07-16T00:08:01.450Z</time>
      </trkpt>
      <trkpt lat="68.67561" lon="15.38329">
        <ele>1.977186</ele>
        <time>2020-07-16T00:08:05.550Z</time>
      </trkpt>
      <trkpt lat="68.67605" lon="15.38404">
        <ele>1.950613</ele>
        <time>2020-07-16T00:08:14.757Z</time>
      </trkpt>
      <trkpt lat="68.67646" lon="15.38505">
        <ele>1.922205</ele>
        <time>2020-07-16T00:08:24.404Z</time>
      </trkpt>
      <trkpt lat="68.67664" lon="15.38572">
        <ele>1.9051</ele>
        <time>2020-07-16T00:08:29.656Z</time>
      </trkpt>
      <trkpt lat="68.67675" lon="15.38611">
        <ele>1.858594</ele>
        <time>2020-07-16T00:08:32.783Z</time>
      </trkpt>
      <trkpt lat="68.67698" lon="15.38678">
        <ele>1.772494</ele>
        <time>2020-07-16T00:08:38.473Z</time>
      </trkpt>
      <trkpt lat="68.67705" lon="15.38685">
        <ele>1.754052</ele>
        <time>2020-07-16T00:08:39.748Z</time>
      </trkpt>
      <trkpt lat="68.67709" lon="15.38688">
        <ele>1.743329</ele>
        <time>2020-07-16T00:08:40.417Z</time>
      </trkpt>
      <trkpt lat="68.67732" lon="15.38778">
        <ele>1.639677</ele>
        <time>2020-07-16T00:08:47.334Z</time>
      </trkpt>
      <trkpt lat="68.67739" lon="15.38802">
        <ele>1.609959</ele>
        <time>2020-07-16T00:08:49.278Z</time>
      </trkpt>
      <trkpt lat="68.67757" lon="15.38856">
        <ele>1.542773</ele>
        <time>2020-07-16T00:08:53.778Z</time>
      </trkpt>
      <trkpt lat="68.67786" lon="15.38942">
        <ele>1.43676</ele>
        <time>2020-07-16T00:09:01.062Z</time>
      </trkpt>
      <trkpt lat="68.67808" lon="15.39004">
        <ele>1.387064</ele>
        <time>2020-07-16T00:09:06.396Z</time>
      </trkpt>
      <trkpt lat="68.67865" lon="15.39139">
        <ele>1.267741</ele>
        <time>2020-07-16T00:09:19.301Z</time>
      </trkpt>
      <trkpt lat="68.67869" lon="15.39146">
        <ele>1.260606</ele>
        <time>2020-07-16T00:09:20.106Z</time>
      </trkpt>
      <trkpt lat="68.67878" lon="15.39168">
        <ele>1.241562</ele>
        <time>2020-07-16T00:09:22.188Z</time>
      </trkpt>
      <trkpt lat="68.67884" lon="15.39182">
        <ele>1.229338</ele>
        <time>2020-07-16T00:09:23.577Z</time>
      </trkpt>
      <trkpt lat="68.67905" lon="15.39227">
        <ele>1.186468</ele>
        <time>2020-07-16T00:09:28.380Z</time>
      </trkpt>
      <trkpt lat="68.6791" lon="15.39236">
        <ele>1.177634</ele>
        <time>2020-07-16T00:09:29.387Z</time>
      </trkpt>
      <trkpt lat="68.6795" lon="15.39326">
        <ele>1.219334</ele>
        <time>2020-07-16T00:09:38.785Z</time>
      </trkpt>
      <trkpt lat="68.67953" lon="15.39332">
        <ele>1.224646</ele>
        <time>2020-07-16T00:09:39.424Z</time>
      </trkpt>
      <trkpt lat="68.67955" lon="15.3934">
        <ele>1.229673</ele>
        <time>2020-07-16T00:09:40.046Z</time>
      </trkpt>
      <trkpt lat="68.68006" lon="15.3944">
        <ele>1.320894</ele>
        <time>2020-07-16T00:09:51.225Z</time>
      </trkpt>
      <trkpt lat="68.68166" lon="15.39723">
        <ele>1.823834</ele>
        <time>2020-07-16T00:10:27.316Z</time>
      </trkpt>
      <trkpt lat="68.68252" lon="15.39876">
        <ele>2.119667</ele>
        <time>2020-07-16T00:10:46.629Z</time>
      </trkpt>
      <trkpt lat="68.6826" lon="15.3989">
        <ele>2.1418</ele>
        <time>2020-07-16T00:10:48.385Z</time>
      </trkpt>
      <trkpt lat="68.68324" lon="15.40001">
        <ele>2.316249</ele>
        <time>2020-07-16T00:11:02.414Z</time>
      </trkpt>
      <trkpt lat="68.68365" lon="15.40074">
        <ele>2.429349</ele>
        <time>2020-07-16T00:11:11.317Z</time>
      </trkpt>
      <trkpt lat="68.68371" lon="15.40086">
        <ele>2.451059</ele>
        <time>2020-07-16T00:11:12.807Z</time>
      </trkpt>
      <trkpt lat="68.68393" lon="15.40125">
        <ele>2.526413</ele>
        <time>2020-07-16T00:11:17.458Z</time>
      </trkpt>
      <trkpt lat="68.684" lon="15.40138">
        <ele>2.551584</ele>
        <time>2020-07-16T00:11:19.020Z</time>
      </trkpt>
      <trkpt lat="68.6841" lon="15.40157">
        <ele>2.586771</ele>
        <time>2020-07-16T00:11:21.250Z</time>
      </trkpt>
      <trkpt lat="68.68418" lon="15.40172">
        <ele>2.616666</ele>
        <time>2020-07-16T00:11:23.117Z</time>
      </trkpt>
      <trkpt lat="68.68469" lon="15.40283">
        <ele>2.809118</ele>
        <time>2020-07-16T00:11:35.296Z</time>
      </trkpt>
      <trkpt lat="68.68481" lon="15.4031">
        <ele>2.85342</ele>
        <time>2020-07-16T00:11:38.164Z</time>
      </trkpt>
      <trkpt lat="68.68499" lon="15.40353">
        <ele>2.925517</ele>
        <time>2020-07-16T00:11:42.965Z</time>
      </trkpt>
      <trkpt lat="68.68578" lon="15.40529">
        <ele>3.354412</ele>
        <time>2020-07-16T00:12:02.488Z</time>
      </trkpt>
      <trkpt lat="68.68601" lon="15.40571">
        <ele>3.478286</ele>
        <time>2020-07-16T00:12:07.904Z</time>
      </trkpt>
      <trkpt lat="68.68608" lon="15.40584">
        <ele>3.51699</ele>
        <time>2020-07-16T00:12:09.589Z</time>
      </trkpt>
      <trkpt lat="68.68621" lon="15.40606">
        <ele>3.58423</ele>
        <time>2020-07-16T00:12:12.582Z</time>
      </trkpt>
      <trkpt lat="68.68661" lon="15.40676">
        <ele>3.800502</ele>
        <time>2020-07-16T00:12:21.726Z</time>
      </trkpt>
      <trkpt lat="68.68682" lon="15.40713">
        <ele>3.91695</ele>
        <time>2020-07-16T00:12:26.473Z</time>
      </trkpt>
      <trkpt lat="68.68782" lon="15.40913">
        <ele>4.506419</ele>
        <time>2020-07-16T00:12:50.114Z</time>
      </trkpt>
      <trkpt lat="68.68797" lon="15.4094">
        <ele>4.594801</ele>
        <time>2020-07-16T00:12:53.856Z</time>
      </trkpt>
      <trkpt lat="68.68803" lon="15.4095">
        <ele>4.626704</ele>
        <time>2020-07-16T00:12:55.211Z</time>
      </trkpt>
      <trkpt lat="68.68817" lon="15.40969">
        <ele>4.73155</ele>
        <time>2020-07-16T00:12:58.170Z</time>
      </trkpt>
      <trkpt lat="68.68831" lon="15.4099">
        <ele>4.847549</ele>
        <time>2020-07-16T00:13:01.609Z</time>
      </trkpt>
      <trkpt lat="68.68855" lon="15.41021">
        <ele>5.030328</ele>
        <time>2020-07-16T00:13:06.906Z</time>
      </trkpt>
      <trkpt lat="68.6886" lon="15.41027">
        <ele>5.068974</ele>
        <time>2020-07-16T00:13:08.024Z</time>
      </trkpt>
      <trkpt lat="68.68867" lon="15.41035">
        <ele>5.122584</ele>
        <time>2020-07-16T00:13:09.619Z</time>
      </trkpt>
      <trkpt lat="68.68919" lon="15.41084">
        <ele>5.500372</ele>
        <time>2020-07-16T00:13:20.514Z</time>
      </trkpt>
      <trkpt lat="68.6892" lon="15.41085">
        <ele>5.510945</ele>
        <time>2020-07-16T00:13:20.923Z</time>
      </trkpt>
      <trkpt lat="68.68927" lon="15.4109">
        <ele>5.557393</ele>
        <time>2020-07-16T00:13:22.258Z</time>
      </trkpt>
      <trkpt lat="68.68941" lon="15.41099">
        <ele>5.656987</ele>
        <time>2020-07-16T00:13:25.094Z</time>
      </trkpt>
      <trkpt lat="68.68946" lon="15.41103">
        <ele>5.698199</ele>
        <time>2020-07-16T00:13:26.287Z</time>
      </trkpt>
      <trkpt lat="68.68952" lon="15.41107">
        <ele>5.736261</ele>
        <time>2020-07-16T00:13:27.341Z</time>
      </trkpt>
      <trkpt lat="68.68975" lon="15.41119">
        <ele>5.895835</ele>
        <time>2020-07-16T00:13:32.034Z</time>
      </trkpt>
      <trkpt lat="68.68982" lon="15.41123">
        <ele>5.940638</ele>
        <time>2020-07-16T00:13:33.494Z</time>
      </trkpt>
      <trkpt lat="68.69001" lon="15.41129">
        <ele>6.05463</ele>
        <time>2020-07-16T00:13:37.267Z</time>
      </trkpt>
      <trkpt lat="68.69002" lon="15.41129">
        <ele>6.064306</ele>
        <time>2020-07-16T00:13:37.628Z</time>
      </trkpt>
      <trkpt lat="68.69016" lon="15.41134">
        <ele>6.147155</ele>
        <time>2020-07-16T00:13:40.319Z</time>
      </trkpt>
      <trkpt lat="68.69023" lon="15.41136">
        <ele>6.190888</ele>
        <time>2020-07-16T00:13:41.723Z</time>
      </trkpt>
      <trkpt lat="68.69025" lon="15.41136">
        <ele>6.201774</ele>
        <time>2020-07-16T00:13:42.106Z</time>
      </trkpt>
      <trkpt lat="68.69026" lon="15.41137">
        <ele>6.209355</ele>
        <time>2020-07-16T00:13:42.418Z</time>
      </trkpt>
      <trkpt lat="68.69029" lon="15.41138">
        <ele>6.228853</ele>
        <time>2020-07-16T00:13:43.057Z</time>
      </trkpt>
      <trkpt lat="68.69056" lon="15.41145">
        <ele>6.394158</ele>
        <time>2020-07-16T00:13:48.405Z</time>
      </trkpt>
      <trkpt lat="68.69074" lon="15.4115">
        <ele>6.50174</ele>
        <time>2020-07-16T00:13:52.013Z</time>
      </trkpt>
      <trkpt lat="68.69101" lon="15.41157">
        <ele>6.663285</ele>
        <time>2020-07-16T00:13:57.264Z</time>
      </trkpt>
      <trkpt lat="68.69125" lon="15.41164">
        <ele>6.81166</ele>
        <time>2020-07-16T00:14:02.046Z</time>
      </trkpt>
      <trkpt lat="68.69137" lon="15.41167">
        <ele>6.882688</ele>
        <time>2020-07-16T00:14:04.289Z</time>
      </trkpt>
      <trkpt lat="68.69163" lon="15.41174">
        <ele>7.059691</ele>
        <time>2020-07-16T00:14:09.338Z</time>
      </trkpt>
      <trkpt lat="68.69225" lon="15.41192">
        <ele>7.537262</ele>
        <time>2020-07-16T00:14:21.794Z</time>
      </trkpt>
      <trkpt lat="68.69233" lon="15.41194">
        <ele>7.592339</ele>
        <time>2020-07-16T00:14:23.212Z</time>
      </trkpt>
      <trkpt lat="68.69296" lon="15.41212">
        <ele>8.078356</ele>
        <time>2020-07-16T00:14:36.279Z</time>
      </trkpt>
      <trkpt lat="68.69314" lon="15.41219">
        <ele>8.216889</ele>
        <time>2020-07-16T00:14:39.987Z</time>
      </trkpt>
      <trkpt lat="68.69318" lon="15.41222">
        <ele>8.24463</ele>
        <time>2020-07-16T00:14:40.769Z</time>
      </trkpt>
      <trkpt lat="68.69319" lon="15.41224">
        <ele>8.257798</ele>
        <time>2020-07-16T00:14:41.229Z</time>
      </trkpt>
      <trkpt lat="68.69389" lon="15.41246">
        <ele>9.035475</ele>
        <time>2020-07-16T00:14:56.281Z</time>
      </trkpt>
      <trkpt lat="68.69437" lon="15.41261">
        <ele>9.602002</ele>
        <time>2020-07-16T00:15:06.863Z</time>
      </trkpt>
      <trkpt lat="68.69458" lon="15.41268">
        <ele>9.850259</ele>
        <time>2020-07-16T00:15:11.462Z</time>
      </trkpt>
      <trkpt lat="68.69469" lon="15.41268">
        <ele>9.978951</ele>
        <time>2020-07-16T00:15:13.861Z</time>
      </trkpt>
      <trkpt lat="68.69474" lon="15.41267">
        <ele>10.039907</ele>
        <time>2020-07-16T00:15:15.052Z</time>
      </trkpt>
      <trkpt lat="68.69485" lon="15.41265">
        <ele>10.169969</ele>
        <time>2020-07-16T00:15:17.543Z</time>
      </trkpt>
      <trkpt lat="68.69543" lon="15.41277">
        <ele>10.701812</ele>
        <time>2020-07-16T00:15:29.756Z</time>
      </trkpt>
      <trkpt lat="68.69549" lon="15.41278">
        <ele>10.754286</ele>
        <time>2020-07-16T00:15:31.403Z</time>
      </trkpt>
      <trkpt lat="68.69595" lon="15.41292">
        <ele>11.10694</ele>
        <time>2020-07-16T00:15:41.050Z</time>
      </trkpt>
      <trkpt lat="68.69607" lon="15.41296">
        <ele>11.203633</ele>
        <time>2020-07-16T00:15:43.549Z</time>
      </trkpt>
      <trkpt lat="68.69652" lon="15.41309">
        <ele>11.549317</ele>
        <time>2020-07-16T00:15:52.484Z</time>
      </trkpt>
      <trkpt lat="68.69674" lon="15.41315">
        <ele>11.718503</ele>
        <time>2020-07-16T00:15:56.517Z</time>
      </trkpt>
      <trkpt lat="68.69684" lon="15.41315">
        <ele>11.793854</ele>
        <time>2020-07-16T00:15:58.451Z</time>
      </trkpt>
      <trkpt lat="68.69688" lon="15.41313">
        <ele>11.818029</ele>
        <time>2020-07-16T00:15:59.242Z</time>
      </trkpt>
      <trkpt lat="68.6969" lon="15.41312">
        <ele>11.817996</ele>
        <time>2020-07-16T00:15:59.610Z</time>
      </trkpt>
      <trkpt lat="68.69704" lon="15.41296">
        <ele>11.817705</ele>
        <time>2020-07-16T00:16:02.297Z</time>
      </trkpt>
      <trkpt lat="68.69714" lon="15.41299">
        <ele>11.817516</ele>
        <time>2020-07-16T00:16:04.188Z</time>
      </trkpt>
      <trkpt lat="68.69718" lon="15.41305">
        <ele>11.817436</ele>
        <time>2020-07-16T00:16:05.090Z</time>
      </trkpt>
      <trkpt lat="68.69724" lon="15.41319">
        <ele>11.81728</ele>
        <time>2020-07-16T00:16:06.604Z</time>
      </trkpt>
      <trkpt lat="68.69729" lon="15.41327">
        <ele>11.81717</ele>
        <time>2020-07-16T00:16:07.566Z</time>
      </trkpt>
      <trkpt lat="68.69733" lon="15.4133">
        <ele>11.817104</ele>
        <time>2020-07-16T00:16:08.145Z</time>
      </trkpt>
      <trkpt lat="68.6975" lon="15.4134">
        <ele>11.816776</ele>
        <time>2020-07-16T00:16:11.456Z</time>
      </trkpt>
      <trkpt lat="68.69779" lon="15.41351">
        <ele>11.816216</ele>
        <time>2020-07-16T00:16:16.623Z</time>
      </trkpt>
      <trkpt lat="68.69798" lon="15.41355">
        <ele>11.815851</ele>
        <time>2020-07-16T00:16:20.156Z</time>
      </trkpt>
      <trkpt lat="68.69851" lon="15.41365">
        <ele>11.814862</ele>
        <time>2020-07-16T00:16:29.188Z</time>
      </trkpt>
      <trkpt lat="68.69857" lon="15.41366">
        <ele>11.814739</ele>
        <time>2020-07-16T00:16:30.484Z</time>
      </trkpt>
      <trkpt lat="68.69864" lon="15.41369">
        <ele>11.804881</ele>
        <time>2020-07-16T00:16:31.661Z</time>
      </trkpt>
      <trkpt lat="68.69868" lon="15.41371">
        <ele>11.793361</ele>
        <time>2020-07-16T00:16:32.205Z</time>
      </trkpt>
      <trkpt lat="68.69884" lon="15.41387">
        <ele>11.737147</ele>
        <time>2020-07-16T00:16:35.092Z</time>
      </trkpt>
      <trkpt lat="68.69942" lon="15.41408">
        <ele>11.548824</ele>
        <time>2020-07-16T00:16:45.284Z</time>
      </trkpt>
      <trkpt lat="68.69972" lon="15.41417">
        <ele>11.449677</ele>
        <time>2020-07-16T00:16:50.601Z</time>
      </trkpt>
      <trkpt lat="68.69989" lon="15.41422">
        <ele>11.395297</ele>
        <time>2020-07-16T00:16:53.450Z</time>
      </trkpt>
      <trkpt lat="68.70107" lon="15.41425">
        <ele>10.68467</ele>
        <time>2020-07-16T00:17:12.637Z</time>
      </trkpt>
      <trkpt lat="68.70154" lon="15.41427">
        <ele>10.305588</ele>
        <time>2020-07-16T00:17:20.026Z</time>
      </trkpt>
      <trkpt lat="68.70187" lon="15.41427">
        <ele>10.037016</ele>
        <time>2020-07-16T00:17:25.320Z</time>
      </trkpt>
      <trkpt lat="68.70193" lon="15.41427">
        <ele>9.99427</ele>
        <time>2020-07-16T00:17:26.053Z</time>
      </trkpt>
      <trkpt lat="68.7026" lon="15.4142">
        <ele>9.259948</ele>
        <time>2020-07-16T00:17:36.418Z</time>
      </trkpt>
      <trkpt lat="68.70343" lon="15.41344">
        <ele>8.137639</ele>
        <time>2020-07-16T00:17:49.651Z</time>
      </trkpt>
      <trkpt lat="68.7035" lon="15.41339">
        <ele>8.054599</ele>
        <time>2020-07-16T00:17:50.661Z</time>
      </trkpt>
      <trkpt lat="68.70359" lon="15.41329">
        <ele>7.921925</ele>
        <time>2020-07-16T00:17:52.215Z</time>
      </trkpt>
      <trkpt lat="68.70383" lon="15.41313">
        <ele>7.60739</ele>
        <time>2020-07-16T00:17:55.890Z</time>
      </trkpt>
      <trkpt lat="68.70394" lon="15.41308">
        <ele>7.47277</ele>
        <time>2020-07-16T00:17:57.434Z</time>
      </trkpt>
      <trkpt lat="68.70407" lon="15.41302">
        <ele>7.251993</ele>
        <time>2020-07-16T00:17:59.376Z</time>
      </trkpt>
      <trkpt lat="68.70489" lon="15.41272">
        <ele>5.878188</ele>
        <time>2020-07-16T00:18:11.472Z</time>
      </trkpt>
      <trkpt lat="68.70504" lon="15.41265">
        <ele>5.615463</ele>
        <time>2020-07-16T00:18:13.786Z</time>
      </trkpt>
      <trkpt lat="68.70506" lon="15.41287">
        <ele>5.483392</ele>
        <time>2020-07-16T00:18:14.860Z</time>
      </trkpt>
      <trkpt lat="68.70506" lon="15.41305">
        <ele>5.374958</ele>
        <time>2020-07-16T00:18:15.868Z</time>
      </trkpt>
      <trkpt lat="68.70558" lon="15.41296">
        <ele>4.509806</ele>
        <time>2020-07-16T00:18:23.868Z</time>
      </trkpt>
      <trkpt lat="68.70565" lon="15.41302">
        <ele>4.401351</ele>
        <time>2020-07-16T00:18:24.901Z</time>
      </trkpt>
      <trkpt lat="68.70587" lon="15.41305">
        <ele>4.072588</ele>
        <time>2020-07-16T00:18:28.116Z</time>
      </trkpt>
      <trkpt lat="68.70599" lon="15.41305">
        <ele>3.893331</ele>
        <time>2020-07-16T00:18:30.020Z</time>
      </trkpt>
      <trkpt lat="68.70604" lon="15.41308">
        <ele>3.815483</ele>
        <time>2020-07-16T00:18:30.625Z</time>
      </trkpt>
      <trkpt lat="68.70616" lon="15.4134">
        <ele>3.558765</ele>
        <time>2020-07-16T00:18:33.222Z</time>
      </trkpt>
      <trkpt lat="68.70623" lon="15.41552">
        <ele>2.395379</ele>
        <time>2020-07-16T00:18:44.559Z</time>
      </trkpt>
      <trkpt lat="68.7063" lon="15.41574">
        <ele>2.239897</ele>
        <time>2020-07-16T00:18:46.068Z</time>
      </trkpt>
      <trkpt lat="68.70631" lon="15.41577">
        <ele>2.217231</ele>
        <time>2020-07-16T00:18:46.239Z</time>
      </trkpt>
      <trkpt lat="68.70631" lon="15.41604">
        <ele>2.066611</ele>
        <time>2020-07-16T00:18:47.794Z</time>
      </trkpt>
      <trkpt lat="68.70646" lon="15.42375">
        <ele>0.4177</ele>
        <time>2020-07-16T00:19:33.619Z</time>
      </trkpt>
      <trkpt lat="68.70653" lon="15.42781">
        <ele>0.296232</ele>
        <time>2020-07-16T00:19:59.780Z</time>
      </trkpt>
      <trkpt lat="68.70676" lon="15.4395">
        <ele>1.957849</ele>
        <time>2020-07-16T00:21:20.594Z</time>
      </trkpt>
      <trkpt lat="68.70677" lon="15.44">
        <ele>2.07838</ele>
        <time>2020-07-16T00:21:24.553Z</time>
      </trkpt>
      <trkpt lat="68.7068" lon="15.44129">
        <ele>2.391016</ele>
        <time>2020-07-16T00:21:34.613Z</time>
      </trkpt>
      <trkpt lat="68.7068" lon="15.44154">
        <ele>2.463975</ele>
        <time>2020-07-16T00:21:36.811Z</time>
      </trkpt>
      <trkpt lat="68.7069" lon="15.44149">
        <ele>2.547599</ele>
        <time>2020-07-16T00:21:39.000Z</time>
      </trkpt>
      <trkpt lat="68.70713" lon="15.44144">
        <ele>2.72931</ele>
        <time>2020-07-16T00:21:43.674Z</time>
      </trkpt>
      <trkpt lat="68.7071" lon="15.4416">
        <ele>2.781516</ele>
        <time>2020-07-16T00:21:45.540Z</time>
      </trkpt>
      <trkpt lat="68.7071" lon="15.44169">
        <ele>2.809083</ele>
        <time>2020-07-16T00:21:46.493Z</time>
      </trkpt>
      <trkpt lat="68.70718" lon="15.44166">
        <ele>2.876074</ele>
        <time>2020-07-16T00:21:48.123Z</time>
      </trkpt>
      <trkpt lat="68.70743" lon="15.44157">
        <ele>3.085793</ele>
        <time>2020-07-16T00:21:53.695Z</time>
      </trkpt>
      <trkpt lat="68.70779" lon="15.44147">
        <ele>3.380108</ele>
        <time>2020-07-16T00:22:01.315Z</time>
      </trkpt>
      <trkpt lat="68.70804" lon="15.44142">
        <ele>3.580596</ele>
        <time>2020-07-16T00:22:06.077Z</time>
      </trkpt>
      <trkpt lat="68.70828" lon="15.44138">
        <ele>3.780826</ele>
        <time>2020-07-16T00:22:10.952Z</time>
      </trkpt>
      <trkpt lat="68.70865" lon="15.44134">
        <ele>3.770331</ele>
        <time>2020-07-16T00:22:17.396Z</time>
      </trkpt>
      <trkpt lat="68.70972" lon="15.44122">
        <ele>3.432783</ele>
        <time>2020-07-16T00:22:35.260Z</time>
      </trkpt>
      <trkpt lat="68.70999" lon="15.44119">
        <ele>3.349462</ele>
        <time>2020-07-16T00:22:39.625Z</time>
      </trkpt>
      <trkpt lat="68.71036" lon="15.44115">
        <ele>3.208388</ele>
        <time>2020-07-16T00:22:45.752Z</time>
      </trkpt>
      <trkpt lat="68.71099" lon="15.44107">
        <ele>2.920723</ele>
        <time>2020-07-16T00:22:56.345Z</time>
      </trkpt>
      <trkpt lat="68.71189" lon="15.44096">
        <ele>2.515195</ele>
        <time>2020-07-16T00:23:11.259Z</time>
      </trkpt>
      <trkpt lat="68.7124" lon="15.44089">
        <ele>2.302169</ele>
        <time>2020-07-16T00:23:19.807Z</time>
      </trkpt>
      <trkpt lat="68.71245" lon="15.44089">
        <ele>2.284128</ele>
        <time>2020-07-16T00:23:20.495Z</time>
      </trkpt>
      <trkpt lat="68.7133" lon="15.44079">
        <ele>1.935305</ele>
        <time>2020-07-16T00:23:34.654Z</time>
      </trkpt>
      <trkpt lat="68.71349" lon="15.44076">
        <ele>1.856907</ele>
        <time>2020-07-16T00:23:37.835Z</time>
      </trkpt>
      <trkpt lat="68.71413" lon="15.44068">
        <ele>1.721304</ele>
        <time>2020-07-16T00:23:48.580Z</time>
      </trkpt>
      <trkpt lat="68.71515" lon="15.44056">
        <ele>1.662837</ele>
        <time>2020-07-16T00:24:06.411Z</time>
      </trkpt>
      <trkpt lat="68.71568" lon="15.44064">
        <ele>1.759795</ele>
        <time>2020-07-16T00:24:16.452Z</time>
      </trkpt>
      <trkpt lat="68.71619" lon="15.44096">
        <ele>2.279468</ele>
        <time>2020-07-16T00:24:26.756Z</time>
      </trkpt>
      <trkpt lat="68.71649" lon="15.44135">
        <ele>2.615821</ele>
        <time>2020-07-16T00:24:33.739Z</time>
      </trkpt>
      <trkpt lat="68.71676" lon="15.44196">
        <ele>2.967404</ele>
        <time>2020-07-16T00:24:41.282Z</time>
      </trkpt>
      <trkpt lat="68.71693" lon="15.44271">
        <ele>3.292951</ele>
        <time>2020-07-16T00:24:48.467Z</time>
      </trkpt>
      <trkpt lat="68.71722" lon="15.44485">
        <ele>4.956409</ele>
        <time>2020-07-16T00:25:07.854Z</time>
      </trkpt>
      <trkpt lat="68.71747" lon="15.44815">
        <ele>7.77541</ele>
        <time>2020-07-16T00:25:39.853Z</time>
      </trkpt>
      <trkpt lat="68.71755" lon="15.44863">
        <ele>8.349722</ele>
        <time>2020-07-16T00:25:44.413Z</time>
      </trkpt>
      <trkpt lat="68.71758" lon="15.44868">
        <ele>8.466235</ele>
        <time>2020-07-16T00:25:45.901Z</time>
      </trkpt>
      <trkpt lat="68.71767" lon="15.44995">
        <ele>9.898971</ele>
        <time>2020-07-16T00:25:58.810Z</time>
      </trkpt>
      <trkpt lat="68.71777" lon="15.45143">
        <ele>11.570896</ele>
        <time>2020-07-16T00:26:13.576Z</time>
      </trkpt>
      <trkpt lat="68.71779" lon="15.45162">
        <ele>11.793122</ele>
        <time>2020-07-16T00:26:16.241Z</time>
      </trkpt>
      <trkpt lat="68.71782" lon="15.45194">
        <ele>12.156144</ele>
        <time>2020-07-16T00:26:19.830Z</time>
      </trkpt>
      <trkpt lat="68.71792" lon="15.45272">
        <ele>13.104892</ele>
        <time>2020-07-16T00:26:28.499Z</time>
      </trkpt>
      <trkpt lat="68.71821" lon="15.45396">
        <ele>15.183521</ele>
        <time>2020-07-16T00:26:42.955Z</time>
      </trkpt>
      <trkpt lat="68.71839" lon="15.45455">
        <ele>16.267275</ele>
        <time>2020-07-16T00:26:50.838Z</time>
      </trkpt>
      <trkpt lat="68.71858" lon="15.45512">
        <ele>17.349225</ele>
        <time>2020-07-16T00:26:58.626Z</time>
      </trkpt>
      <trkpt lat="68.71943" lon="15.45761">
        <ele>22.760037</ele>
        <time>2020-07-16T00:27:40.999Z</time>
      </trkpt>
      <trkpt lat="68.71953" lon="15.45789">
        <ele>23.463683</ele>
        <time>2020-07-16T00:27:45.410Z</time>
      </trkpt>
      <trkpt lat="68.71958" lon="15.45808">
        <ele>23.887113</ele>
        <time>2020-07-16T00:27:48.073Z</time>
      </trkpt>
      <trkpt lat="68.71965" lon="15.4583">
        <ele>24.384978</ele>
        <time>2020-07-16T00:27:52.991Z</time>
      </trkpt>
      <trkpt lat="68.71994" lon="15.45977">
        <ele>27.362043</ele>
        <time>2020-07-16T00:28:13.020Z</time>
      </trkpt>
      <trkpt lat="68.72009" lon="15.46093">
        <ele>28.720504</ele>
        <time>2020-07-16T00:28:28.583Z</time>
      </trkpt>
      <trkpt lat="68.72011" lon="15.46105">
        <ele>28.70826</ele>
        <time>2020-07-16T00:28:30.379Z</time>
      </trkpt>
      <trkpt lat="68.72035" lon="15.46264">
        <ele>28.542456</ele>
        <time>2020-07-16T00:28:45.420Z</time>
      </trkpt>
      <trkpt lat="68.72063" lon="15.46364">
        <ele>28.419762</ele>
        <time>2020-07-16T00:28:53.169Z</time>
      </trkpt>
      <trkpt lat="68.72073" lon="15.46393">
        <ele>28.381529</ele>
        <time>2020-07-16T00:28:55.142Z</time>
      </trkpt>
      <trkpt lat="68.72215" lon="15.46763">
        <ele>18.403342</ele>
        <time>2020-07-16T00:29:18.024Z</time>
      </trkpt>
      <trkpt lat="68.72287" lon="15.46951">
        <ele>12.673409</ele>
        <time>2020-07-16T00:29:29.470Z</time>
      </trkpt>
      <trkpt lat="68.72365" lon="15.47166">
        <ele>6.746944</ele>
        <time>2020-07-16T00:29:42.794Z</time>
      </trkpt>
      <trkpt lat="68.72393" lon="15.4725">
        <ele>5.863856</ele>
        <time>2020-07-16T00:29:48.104Z</time>
      </trkpt>
      <trkpt lat="68.72406" lon="15.47289">
        <ele>5.462395</ele>
        <time>2020-07-16T00:29:50.688Z</time>
      </trkpt>
      <trkpt lat="68.72486" lon="15.47533">
        <ele>3.152408</ele>
        <time>2020-07-16T00:30:08.610Z</time>
      </trkpt>
      <trkpt lat="68.72491" lon="15.4755">
        <ele>3.202918</ele>
        <time>2020-07-16T00:30:09.946Z</time>
      </trkpt>
      <trkpt lat="68.725" lon="15.4758">
        <ele>3.286545</ele>
        <time>2020-07-16T00:30:12.891Z</time>
      </trkpt>
      <trkpt lat="68.72515" lon="15.47667">
        <ele>3.502108</ele>
        <time>2020-07-16T00:30:20.074Z</time>
      </trkpt>
      <trkpt lat="68.72518" lon="15.47758">
        <ele>3.704846</ele>
        <time>2020-07-16T00:30:26.728Z</time>
      </trkpt>
      <trkpt lat="68.72518" lon="15.47766">
        <ele>3.722966</ele>
        <time>2020-07-16T00:30:27.605Z</time>
      </trkpt>
      <trkpt lat="68.72517" lon="15.47782">
        <ele>3.759051</ele>
        <time>2020-07-16T00:30:28.967Z</time>
      </trkpt>
      <trkpt lat="68.72503" lon="15.47884">
        <ele>4.003644</ele>
        <time>2020-07-16T00:30:37.348Z</time>
      </trkpt>
      <trkpt lat="68.72468" lon="15.48034">
        <ele>4.423936</ele>
        <time>2020-07-16T00:30:51.120Z</time>
      </trkpt>
      <trkpt lat="68.72342" lon="15.48562">
        <ele>5.687581</ele>
        <time>2020-07-16T00:31:36.274Z</time>
      </trkpt>
      <trkpt lat="68.72316" lon="15.48688">
        <ele>5.848982</ele>
        <time>2020-07-16T00:31:45.934Z</time>
      </trkpt>
      <trkpt lat="68.72307" lon="15.48776">
        <ele>5.951656</ele>
        <time>2020-07-16T00:31:51.977Z</time>
      </trkpt>
      <trkpt lat="68.72299" lon="15.48886">
        <ele>6.004984</ele>
        <time>2020-07-16T00:31:59.193Z</time>
      </trkpt>
      <trkpt lat="68.72294" lon="15.49171">
        <ele>6.062084</ele>
        <time>2020-07-16T00:32:17.696Z</time>
      </trkpt>
      <trkpt lat="68.72278" lon="15.49303">
        <ele>6.097682</ele>
        <time>2020-07-16T00:32:26.845Z</time>
      </trkpt>
      <trkpt lat="68.72178" lon="15.49832">
        <ele>6.945911</ele>
        <time>2020-07-16T00:33:08.393Z</time>
      </trkpt>
      <trkpt lat="68.7215" lon="15.4998">
        <ele>7.241884</ele>
        <time>2020-07-16T00:33:20.186Z</time>
      </trkpt>
      <trkpt lat="68.72138" lon="15.50071">
        <ele>7.414229</ele>
        <time>2020-07-16T00:33:27.076Z</time>
      </trkpt>
      <trkpt lat="68.72128" lon="15.50189">
        <ele>7.627669</ele>
        <time>2020-07-16T00:33:35.547Z</time>
      </trkpt>
      <trkpt lat="68.72119" lon="15.50306">
        <ele>7.970873</ele>
        <time>2020-07-16T00:33:43.877Z</time>
      </trkpt>
      <trkpt lat="68.72108" lon="15.5045">
        <ele>8.39958</ele>
        <time>2020-07-16T00:33:54.520Z</time>
      </trkpt>
      <trkpt lat="68.7209" lon="15.50698">
        <ele>9.184174</ele>
        <time>2020-07-16T00:34:13.778Z</time>
      </trkpt>
      <trkpt lat="68.72088" lon="15.50727">
        <ele>9.334709</ele>
        <time>2020-07-16T00:34:16.076Z</time>
      </trkpt>
      <trkpt lat="68.72086" lon="15.50761">
        <ele>9.512043</ele>
        <time>2020-07-16T00:34:19.098Z</time>
      </trkpt>
      <trkpt lat="68.72087" lon="15.50918">
        <ele>10.321082</ele>
        <time>2020-07-16T00:34:31.600Z</time>
      </trkpt>
      <trkpt lat="68.72087" lon="15.50941">
        <ele>10.440405</ele>
        <time>2020-07-16T00:34:33.732Z</time>
      </trkpt>
      <trkpt lat="68.72091" lon="15.5111">
        <ele>11.311811</ele>
        <time>2020-07-16T00:34:47.648Z</time>
      </trkpt>
      <trkpt lat="68.72113" lon="15.51502">
        <ele>13.02554</ele>
        <time>2020-07-16T00:35:20.620Z</time>
      </trkpt>
      <trkpt lat="68.72127" lon="15.51715">
        <ele>13.364691</ele>
        <time>2020-07-16T00:35:36.288Z</time>
      </trkpt>
      <trkpt lat="68.72136" lon="15.51867">
        <ele>12.442572</ele>
        <time>2020-07-16T00:35:45.158Z</time>
      </trkpt>
      <trkpt lat="68.72145" lon="15.51989">
        <ele>11.694683</ele>
        <time>2020-07-16T00:35:51.643Z</time>
      </trkpt>
      <trkpt lat="68.72149" lon="15.52025">
        <ele>11.471435</ele>
        <time>2020-07-16T00:35:53.337Z</time>
      </trkpt>
      <trkpt lat="68.72154" lon="15.52068">
        <ele>11.203615</ele>
        <time>2020-07-16T00:35:55.593Z</time>
      </trkpt>
      <trkpt lat="68.72171" lon="15.52174">
        <ele>10.21256</ele>
        <time>2020-07-16T00:36:01.266Z</time>
      </trkpt>
      <trkpt lat="68.72173" lon="15.52183">
        <ele>10.073582</ele>
        <time>2020-07-16T00:36:01.671Z</time>
      </trkpt>
      <trkpt lat="68.72176" lon="15.52199">
        <ele>9.801528</ele>
        <time>2020-07-16T00:36:02.554Z</time>
      </trkpt>
      <trkpt lat="68.72192" lon="15.52253">
        <ele>8.838559</ele>
        <time>2020-07-16T00:36:05.774Z</time>
      </trkpt>
      <trkpt lat="68.72198" lon="15.52268">
        <ele>8.530376</ele>
        <time>2020-07-16T00:36:06.702Z</time>
      </trkpt>
      <trkpt lat="68.72208" lon="15.52294">
        <ele>8.003911</ele>
        <time>2020-07-16T00:36:08.423Z</time>
      </trkpt>
      <trkpt lat="68.72258" lon="15.52379">
        <ele>5.760381</ele>
        <time>2020-07-16T00:36:15.623Z</time>
      </trkpt>
      <trkpt lat="68.723" lon="15.52408">
        <ele>4.085493</ele>
        <time>2020-07-16T00:36:21.207Z</time>
      </trkpt>
      <trkpt lat="68.72318" lon="15.52411">
        <ele>3.670956</ele>
        <time>2020-07-16T00:36:23.496Z</time>
      </trkpt>
      <trkpt lat="68.72324" lon="15.52411">
        <ele>3.568309</ele>
        <time>2020-07-16T00:36:24.409Z</time>
      </trkpt>
      <trkpt lat="68.72388" lon="15.52393">
        <ele>2.621864</ele>
        <time>2020-07-16T00:36:33.266Z</time>
      </trkpt>
      <trkpt lat="68.72673" lon="15.52273">
        <ele>0.475471</ele>
        <time>2020-07-16T00:37:21.224Z</time>
      </trkpt>
      <trkpt lat="68.72682" lon="15.5227">
        <ele>0.486785</ele>
        <time>2020-07-16T00:37:22.851Z</time>
      </trkpt>
      <trkpt lat="68.72873" lon="15.52189">
        <ele>0.72482</ele>
        <time>2020-07-16T00:37:59.021Z</time>
      </trkpt>
      <trkpt lat="68.72879" lon="15.52186">
        <ele>0.729538</ele>
        <time>2020-07-16T00:38:00.123Z</time>
      </trkpt>
      <trkpt lat="68.72982" lon="15.52143">
        <ele>0.811951</ele>
        <time>2020-07-16T00:38:18.841Z</time>
      </trkpt>
      <trkpt lat="68.73001" lon="15.52136">
        <ele>0.827116</ele>
        <time>2020-07-16T00:38:22.235Z</time>
      </trkpt>
      <trkpt lat="68.73031" lon="15.52123">
        <ele>0.847518</ele>
        <time>2020-07-16T00:38:27.460Z</time>
      </trkpt>
      <trkpt lat="68.73118" lon="15.52087">
        <ele>0.894064</ele>
        <time>2020-07-16T00:38:42.913Z</time>
      </trkpt>
      <trkpt lat="68.73124" lon="15.52084">
        <ele>0.897555</ele>
        <time>2020-07-16T00:38:44.107Z</time>
      </trkpt>
      <trkpt lat="68.7322" lon="15.52077">
        <ele>1.038427</ele>
        <time>2020-07-16T00:39:01.703Z</time>
      </trkpt>
      <trkpt lat="68.73411" lon="15.52141">
        <ele>1.755524</ele>
        <time>2020-07-16T00:39:39.309Z</time>
      </trkpt>
      <trkpt lat="68.73454" lon="15.52136">
        <ele>1.761117</ele>
        <time>2020-07-16T00:39:47.106Z</time>
      </trkpt>
      <trkpt lat="68.73514" lon="15.52099">
        <ele>1.768934</ele>
        <time>2020-07-16T00:39:57.511Z</time>
      </trkpt>
      <trkpt lat="68.73525" lon="15.52089">
        <ele>1.770467</ele>
        <time>2020-07-16T00:39:59.687Z</time>
      </trkpt>
      <trkpt lat="68.73529" lon="15.52085">
        <ele>1.77106</ele>
        <time>2020-07-16T00:40:00.404Z</time>
      </trkpt>
      <trkpt lat="68.7356" lon="15.52057">
        <ele>1.843309</ele>
        <time>2020-07-16T00:40:06.089Z</time>
      </trkpt>
      <trkpt lat="68.7361" lon="15.5201">
        <ele>2.287519</ele>
        <time>2020-07-16T00:40:15.205Z</time>
      </trkpt>
      <trkpt lat="68.7366" lon="15.51963">
        <ele>2.729239</ele>
        <time>2020-07-16T00:40:25.300Z</time>
      </trkpt>
      <trkpt lat="68.73734" lon="15.51901">
        <ele>3.652849</ele>
        <time>2020-07-16T00:40:43.813Z</time>
      </trkpt>
      <trkpt lat="68.73785" lon="15.51883">
        <ele>5.210133</ele>
        <time>2020-07-16T00:40:57.340Z</time>
      </trkpt>
      <trkpt lat="68.73796" lon="15.5188">
        <ele>5.555005</ele>
        <time>2020-07-16T00:41:00.556Z</time>
      </trkpt>
      <trkpt lat="68.73803" lon="15.51878">
        <ele>5.780329</ele>
        <time>2020-07-16T00:41:02.907Z</time>
      </trkpt>
      <trkpt lat="68.73823" lon="15.51873">
        <ele>6.39684</ele>
        <time>2020-07-16T00:41:08.080Z</time>
      </trkpt>
      <trkpt lat="68.73835" lon="15.51871">
        <ele>6.76904</ele>
        <time>2020-07-16T00:41:11.766Z</time>
      </trkpt>
      <trkpt lat="68.73854" lon="15.51869">
        <ele>7.328263</ele>
        <time>2020-07-16T00:41:17.302Z</time>
      </trkpt>
      <trkpt lat="68.73985" lon="15.51841">
        <ele>10.985956</ele>
        <time>2020-07-16T00:41:55.894Z</time>
      </trkpt>
      <trkpt lat="68.73994" lon="15.51839">
        <ele>11.218436</ele>
        <time>2020-07-16T00:41:58.685Z</time>
      </trkpt>
      <trkpt lat="68.74022" lon="15.51833">
        <ele>11.955785</ele>
        <time>2020-07-16T00:42:05.253Z</time>
      </trkpt>
      <trkpt lat="68.74032" lon="15.51831">
        <ele>12.224567</ele>
        <time>2020-07-16T00:42:07.827Z</time>
      </trkpt>
      <trkpt lat="68.7406" lon="15.51824">
        <ele>12.957211</ele>
        <time>2020-07-16T00:42:14.175Z</time>
      </trkpt>
      <trkpt lat="68.74084" lon="15.51817">
        <ele>13.524178</ele>
        <time>2020-07-16T00:42:19.395Z</time>
      </trkpt>
      <trkpt lat="68.74116" lon="15.51796">
        <ele>13.863249</ele>
        <time>2020-07-16T00:42:26.604Z</time>
      </trkpt>
      <trkpt lat="68.7412" lon="15.51793">
        <ele>13.903594</ele>
        <time>2020-07-16T00:42:27.466Z</time>
      </trkpt>
      <trkpt lat="68.74125" lon="15.51787">
        <ele>13.963503</ele>
        <time>2020-07-16T00:42:28.664Z</time>
      </trkpt>
      <trkpt lat="68.7413" lon="15.51781">
        <ele>14.023368</ele>
        <time>2020-07-16T00:42:30.047Z</time>
      </trkpt>
      <trkpt lat="68.74147" lon="15.51763">
        <ele>14.203667</ele>
        <time>2020-07-16T00:42:33.745Z</time>
      </trkpt>
      <trkpt lat="68.74192" lon="15.51673">
        <ele>14.780884</ele>
        <time>2020-07-16T00:42:45.036Z</time>
      </trkpt>
      <trkpt lat="68.74231" lon="15.51538">
        <ele>15.450566</ele>
        <time>2020-07-16T00:42:57.943Z</time>
      </trkpt>
      <trkpt lat="68.74257" lon="15.51433">
        <ele>16.084687</ele>
        <time>2020-07-16T00:43:07.936Z</time>
      </trkpt>
      <trkpt lat="68.74298" lon="15.51245">
        <ele>17.187219</ele>
        <time>2020-07-16T00:43:26.182Z</time>
      </trkpt>
      <trkpt lat="68.74338" lon="15.51056">
        <ele>17.794637</ele>
        <time>2020-07-16T00:43:44.767Z</time>
      </trkpt>
      <trkpt lat="68.74379" lon="15.50869">
        <ele>17.712081</ele>
        <time>2020-07-16T00:44:00.517Z</time>
      </trkpt>
      <trkpt lat="68.74387" lon="15.50841">
        <ele>17.699039</ele>
        <time>2020-07-16T00:44:02.886Z</time>
      </trkpt>
      <trkpt lat="68.74392" lon="15.50826">
        <ele>17.691129</ele>
        <time>2020-07-16T00:44:04.210Z</time>
      </trkpt>
      <trkpt lat="68.744" lon="15.50806">
        <ele>17.680175</ele>
        <time>2020-07-16T00:44:05.749Z</time>
      </trkpt>
      <trkpt lat="68.74435" lon="15.50742">
        <ele>17.465088</ele>
        <time>2020-07-16T00:44:11.544Z</time>
      </trkpt>
      <trkpt lat="68.74453" lon="15.5071">
        <ele>16.71217</ele>
        <time>2020-07-16T00:44:14.333Z</time>
      </trkpt>
      <trkpt lat="68.74461" lon="15.50695">
        <ele>16.386148</ele>
        <time>2020-07-16T00:44:15.585Z</time>
      </trkpt>
      <trkpt lat="68.74465" lon="15.50687">
        <ele>16.208515</ele>
        <time>2020-07-16T00:44:16.271Z</time>
      </trkpt>
      <trkpt lat="68.74471" lon="15.50677">
        <ele>15.980949</ele>
        <time>2020-07-16T00:44:17.066Z</time>
      </trkpt>
      <trkpt lat="68.74479" lon="15.5066">
        <ele>15.609279</ele>
        <time>2020-07-16T00:44:18.494Z</time>
      </trkpt>
      <trkpt lat="68.74493" lon="15.50635">
        <ele>15.052133</ele>
        <time>2020-07-16T00:44:20.537Z</time>
      </trkpt>
      <trkpt lat="68.74523" lon="15.50576">
        <ele>13.750936</ele>
        <time>2020-07-16T00:44:25.328Z</time>
      </trkpt>
      <trkpt lat="68.74529" lon="15.50565">
        <ele>13.514811</ele>
        <time>2020-07-16T00:44:26.127Z</time>
      </trkpt>
      <trkpt lat="68.74536" lon="15.50555">
        <ele>13.238488</ele>
        <time>2020-07-16T00:44:27.200Z</time>
      </trkpt>
      <trkpt lat="68.74538" lon="15.50553">
        <ele>13.178108</ele>
        <time>2020-07-16T00:44:27.403Z</time>
      </trkpt>
      <trkpt lat="68.74543" lon="15.50545">
        <ele>12.968089</ele>
        <time>2020-07-16T00:44:28.132Z</time>
      </trkpt>
      <trkpt lat="68.74564" lon="15.50519">
        <ele>12.160572</ele>
        <time>2020-07-16T00:44:31.076Z</time>
      </trkpt>
      <trkpt lat="68.74576" lon="15.50509">
        <ele>11.725697</ele>
        <time>2020-07-16T00:44:32.614Z</time>
      </trkpt>
      <trkpt lat="68.74599" lon="15.5049">
        <ele>11.08434</ele>
        <time>2020-07-16T00:44:35.528Z</time>
      </trkpt>
      <trkpt lat="68.74707" lon="15.50376">
        <ele>8.427659</ele>
        <time>2020-07-16T00:44:51.121Z</time>
      </trkpt>
      <trkpt lat="68.7472" lon="15.50356">
        <ele>8.091675</ele>
        <time>2020-07-16T00:44:53.292Z</time>
      </trkpt>
      <trkpt lat="68.74762" lon="15.50292">
        <ele>7.343608</ele>
        <time>2020-07-16T00:45:01.444Z</time>
      </trkpt>
      <trkpt lat="68.74798" lon="15.50201">
        <ele>7.566423</ele>
        <time>2020-07-16T00:45:10.263Z</time>
      </trkpt>
      <trkpt lat="68.7485" lon="15.49995">
        <ele>7.977927</ele>
        <time>2020-07-16T00:45:29.186Z</time>
      </trkpt>
      <trkpt lat="68.74853" lon="15.49979">
        <ele>8.008873</ele>
        <time>2020-07-16T00:45:30.928Z</time>
      </trkpt>
      <trkpt lat="68.74859" lon="15.49952">
        <ele>8.060777</ele>
        <time>2020-07-16T00:45:32.917Z</time>
      </trkpt>
      <trkpt lat="68.74863" lon="15.49939">
        <ele>8.088478</ele>
        <time>2020-07-16T00:45:34.304Z</time>
      </trkpt>
      <trkpt lat="68.74905" lon="15.49764">
        <ele>8.562305</ele>
        <time>2020-07-16T00:45:49.598Z</time>
      </trkpt>
      <trkpt lat="68.74911" lon="15.49742">
        <ele>8.625385</ele>
        <time>2020-07-16T00:45:51.719Z</time>
      </trkpt>
      <trkpt lat="68.74916" lon="15.49722">
        <ele>8.677816</ele>
        <time>2020-07-16T00:45:53.343Z</time>
      </trkpt>
      <trkpt lat="68.74929" lon="15.49667">
        <ele>8.829611</ele>
        <time>2020-07-16T00:45:57.672Z</time>
      </trkpt>
      <trkpt lat="68.74932" lon="15.49651">
        <ele>8.871863</ele>
        <time>2020-07-16T00:45:59.281Z</time>
      </trkpt>
      <trkpt lat="68.74943" lon="15.49602">
        <ele>9.001923</ele>
        <time>2020-07-16T00:46:02.982Z</time>
      </trkpt>
      <trkpt lat="68.74961" lon="15.49515">
        <ele>9.228484</ele>
        <time>2020-07-16T00:46:10.130Z</time>
      </trkpt>
      <trkpt lat="68.74964" lon="15.49495">
        <ele>9.290114</ele>
        <time>2020-07-16T00:46:11.721Z</time>
      </trkpt>
      <trkpt lat="68.74978" lon="15.49429">
        <ele>9.504342</ele>
        <time>2020-07-16T00:46:17.221Z</time>
      </trkpt>
      <trkpt lat="68.74987" lon="15.49389">
        <ele>9.634172</ele>
        <time>2020-07-16T00:46:21.304Z</time>
      </trkpt>
      <trkpt lat="68.74992" lon="15.49363">
        <ele>9.716983</ele>
        <time>2020-07-16T00:46:23.350Z</time>
      </trkpt>
      <trkpt lat="68.74997" lon="15.49338">
        <ele>9.799411</ele>
        <time>2020-07-16T00:46:25.134Z</time>
      </trkpt>
      <trkpt lat="68.75007" lon="15.49288">
        <ele>9.960995</ele>
        <time>2020-07-16T00:46:29.541Z</time>
      </trkpt>
      <trkpt lat="68.75008" lon="15.49281">
        <ele>9.98089</ele>
        <time>2020-07-16T00:46:30.022Z</time>
      </trkpt>
      <trkpt lat="68.75017" lon="15.49241">
        <ele>10.113703</ele>
        <time>2020-07-16T00:46:32.843Z</time>
      </trkpt>
      <trkpt lat="68.75019" lon="15.49231">
        <ele>10.142112</ele>
        <time>2020-07-16T00:46:33.868Z</time>
      </trkpt>
      <trkpt lat="68.75055" lon="15.49048">
        <ele>10.826952</ele>
        <time>2020-07-16T00:46:49.231Z</time>
      </trkpt>
      <trkpt lat="68.75056" lon="15.4904">
        <ele>10.871549</ele>
        <time>2020-07-16T00:46:50.202Z</time>
      </trkpt>
      <trkpt lat="68.75061" lon="15.49008">
        <ele>11.061895</ele>
        <time>2020-07-16T00:46:52.729Z</time>
      </trkpt>
      <trkpt lat="68.75073" lon="15.48893">
        <ele>11.713862</ele>
        <time>2020-07-16T00:47:02.740Z</time>
      </trkpt>
      <trkpt lat="68.75076" lon="15.48863">
        <ele>11.881654</ele>
        <time>2020-07-16T00:47:05.705Z</time>
      </trkpt>
      <trkpt lat="68.75084" lon="15.48774">
        <ele>12.37851</ele>
        <time>2020-07-16T00:47:13.727Z</time>
      </trkpt>
      <trkpt lat="68.75085" lon="15.48757">
        <ele>12.475996</ele>
        <time>2020-07-16T00:47:15.441Z</time>
      </trkpt>
      <trkpt lat="68.7509" lon="15.48709">
        <ele>12.74476</ele>
        <time>2020-07-16T00:47:19.392Z</time>
      </trkpt>
      <trkpt lat="68.75108" lon="15.48506">
        <ele>13.66272</ele>
        <time>2020-07-16T00:47:36.218Z</time>
      </trkpt>
      <trkpt lat="68.75119" lon="15.48387">
        <ele>14.068873</ele>
        <time>2020-07-16T00:47:45.819Z</time>
      </trkpt>
      <trkpt lat="68.75126" lon="15.48297">
        <ele>14.374781</ele>
        <time>2020-07-16T00:47:52.909Z</time>
      </trkpt>
      <trkpt lat="68.75147" lon="15.48069">
        <ele>14.759548</ele>
        <time>2020-07-16T00:48:09.934Z</time>
      </trkpt>
      <trkpt lat="68.7515" lon="15.48037">
        <ele>14.639357</ele>
        <time>2020-07-16T00:48:11.739Z</time>
      </trkpt>
      <trkpt lat="68.75152" lon="15.48008">
        <ele>14.529938</ele>
        <time>2020-07-16T00:48:13.697Z</time>
      </trkpt>
      <trkpt lat="68.75154" lon="15.47989">
        <ele>14.45608</ele>
        <time>2020-07-16T00:48:14.948Z</time>
      </trkpt>
      <trkpt lat="68.75164" lon="15.47884">
        <ele>14.06141</ele>
        <time>2020-07-16T00:48:21.104Z</time>
      </trkpt>
      <trkpt lat="68.75166" lon="15.47873">
        <ele>14.016997</ele>
        <time>2020-07-16T00:48:21.736Z</time>
      </trkpt>
      <trkpt lat="68.75169" lon="15.47844">
        <ele>13.905902</ele>
        <time>2020-07-16T00:48:23.231Z</time>
      </trkpt>
      <trkpt lat="68.75169" lon="15.4784">
        <ele>13.890771</ele>
        <time>2020-07-16T00:48:23.481Z</time>
      </trkpt>
      <trkpt lat="68.75174" lon="15.4777">
        <ele>13.629833</ele>
        <time>2020-07-16T00:48:27.468Z</time>
      </trkpt>
      <trkpt lat="68.75175" lon="15.47752">
        <ele>13.564228</ele>
        <time>2020-07-16T00:48:28.308Z</time>
      </trkpt>
      <trkpt lat="68.75181" lon="15.47593">
        <ele>12.745046</ele>
        <time>2020-07-16T00:48:36.744Z</time>
      </trkpt>
      <trkpt lat="68.75198" lon="15.47506">
        <ele>11.885988</ele>
        <time>2020-07-16T00:48:41.715Z</time>
      </trkpt>
      <trkpt lat="68.75203" lon="15.4749">
        <ele>11.701808</ele>
        <time>2020-07-16T00:48:42.728Z</time>
      </trkpt>
      <trkpt lat="68.75209" lon="15.47464">
        <ele>11.435054</ele>
        <time>2020-07-16T00:48:44.118Z</time>
      </trkpt>
      <trkpt lat="68.75218" lon="15.47435">
        <ele>11.108947</ele>
        <time>2020-07-16T00:48:46.042Z</time>
      </trkpt>
      <trkpt lat="68.75221" lon="15.47421">
        <ele>10.965747</ele>
        <time>2020-07-16T00:48:46.880Z</time>
      </trkpt>
      <trkpt lat="68.75232" lon="15.47381">
        <ele>10.530514</ele>
        <time>2020-07-16T00:48:49.172Z</time>
      </trkpt>
      <trkpt lat="68.75243" lon="15.47337">
        <ele>10.050916</ele>
        <time>2020-07-16T00:48:51.964Z</time>
      </trkpt>
      <trkpt lat="68.75255" lon="15.47292">
        <ele>9.566367</ele>
        <time>2020-07-16T00:48:54.637Z</time>
      </trkpt>
      <trkpt lat="68.75288" lon="15.47172">
        <ele>8.550833</ele>
        <time>2020-07-16T00:49:02.029Z</time>
      </trkpt>
      <trkpt lat="68.75297" lon="15.47136">
        <ele>8.356563</ele>
        <time>2020-07-16T00:49:04.291Z</time>
      </trkpt>
      <trkpt lat="68.75305" lon="15.47106">
        <ele>8.195441</ele>
        <time>2020-07-16T00:49:06.546Z</time>
      </trkpt>
      <trkpt lat="68.75327" lon="15.47032">
        <ele>7.783241</ele>
        <time>2020-07-16T00:49:12.103Z</time>
      </trkpt>
      <trkpt lat="68.75346" lon="15.46962">
        <ele>7.405471</ele>
        <time>2020-07-16T00:49:17.228Z</time>
      </trkpt>
      <trkpt lat="68.75363" lon="15.46909">
        <ele>7.104848</ele>
        <time>2020-07-16T00:49:21.013Z</time>
      </trkpt>
      <trkpt lat="68.75366" lon="15.46899">
        <ele>7.047733</ele>
        <time>2020-07-16T00:49:21.815Z</time>
      </trkpt>
      <trkpt lat="68.75369" lon="15.46886">
        <ele>6.976062</ele>
        <time>2020-07-16T00:49:23.044Z</time>
      </trkpt>
      <trkpt lat="68.75378" lon="15.4686">
        <ele>6.822544</ele>
        <time>2020-07-16T00:49:25.027Z</time>
      </trkpt>
      <trkpt lat="68.75383" lon="15.46847">
        <ele>6.745669</ele>
        <time>2020-07-16T00:49:25.954Z</time>
      </trkpt>
      <trkpt lat="68.75409" lon="15.46778">
        <ele>6.702048</ele>
        <time>2020-07-16T00:49:31.697Z</time>
      </trkpt>
      <trkpt lat="68.75416" lon="15.46756">
        <ele>6.70759</ele>
        <time>2020-07-16T00:49:33.389Z</time>
      </trkpt>
      <trkpt lat="68.75417" lon="15.46751">
        <ele>6.708908</ele>
        <time>2020-07-16T00:49:33.909Z</time>
      </trkpt>
      <trkpt lat="68.75423" lon="15.4674">
        <ele>6.712385</ele>
        <time>2020-07-16T00:49:35.169Z</time>
      </trkpt>
      <trkpt lat="68.7543" lon="15.46718">
        <ele>6.718325</ele>
        <time>2020-07-16T00:49:36.835Z</time>
      </trkpt>
      <trkpt lat="68.7545" lon="15.46671">
        <ele>6.731904</ele>
        <time>2020-07-16T00:49:41.073Z</time>
      </trkpt>
      <trkpt lat="68.75465" lon="15.46633">
        <ele>6.743069</ele>
        <time>2020-07-16T00:49:44.864Z</time>
      </trkpt>
      <trkpt lat="68.75493" lon="15.46587">
        <ele>6.760201</ele>
        <time>2020-07-16T00:49:51.330Z</time>
      </trkpt>
      <trkpt lat="68.75507" lon="15.46579">
        <ele>6.76785</ele>
        <time>2020-07-16T00:49:54.018Z</time>
      </trkpt>
      <trkpt lat="68.75537" lon="15.46588">
        <ele>6.876672</ele>
        <time>2020-07-16T00:50:00.637Z</time>
      </trkpt>
      <trkpt lat="68.75565" lon="15.46614">
        <ele>7.453241</ele>
        <time>2020-07-16T00:50:07.456Z</time>
      </trkpt>
      <trkpt lat="68.75569" lon="15.46619">
        <ele>7.533994</ele>
        <time>2020-07-16T00:50:08.009Z</time>
      </trkpt>
      <trkpt lat="68.75573" lon="15.46625">
        <ele>7.622082</ele>
        <time>2020-07-16T00:50:08.937Z</time>
      </trkpt>
      <trkpt lat="68.75581" lon="15.46635">
        <ele>7.79417</ele>
        <time>2020-07-16T00:50:10.649Z</time>
      </trkpt>
      <trkpt lat="68.75597" lon="15.46657">
        <ele>8.137427</ele>
        <time>2020-07-16T00:50:15.249Z</time>
      </trkpt>
      <trkpt lat="68.75645" lon="15.46723">
        <ele>9.180904</ele>
        <time>2020-07-16T00:50:27.539Z</time>
      </trkpt>
      <trkpt lat="68.75657" lon="15.46735">
        <ele>9.417167</ele>
        <time>2020-07-16T00:50:31.453Z</time>
      </trkpt>
      <trkpt lat="68.75662" lon="15.46741">
        <ele>9.528883</ele>
        <time>2020-07-16T00:50:33.293Z</time>
      </trkpt>
      <trkpt lat="68.75728" lon="15.46776">
        <ele>10.67073</ele>
        <time>2020-07-16T00:50:51.890Z</time>
      </trkpt>
      <trkpt lat="68.75804" lon="15.46779">
        <ele>11.727807</ele>
        <time>2020-07-16T00:51:10.413Z</time>
      </trkpt>
      <trkpt lat="68.75835" lon="15.46778">
        <ele>12.152035</ele>
        <time>2020-07-16T00:51:16.755Z</time>
      </trkpt>
      <trkpt lat="68.7584" lon="15.46776">
        <ele>12.225051</ele>
        <time>2020-07-16T00:51:17.486Z</time>
      </trkpt>
      <trkpt lat="68.75887" lon="15.46734">
        <ele>12.643832</ele>
        <time>2020-07-16T00:51:26.401Z</time>
      </trkpt>
      <trkpt lat="68.76028" lon="15.46566">
        <ele>11.041761</ele>
        <time>2020-07-16T00:51:49.731Z</time>
      </trkpt>
      <trkpt lat="68.76188" lon="15.46533">
        <ele>8.747737</ele>
        <time>2020-07-16T00:52:13.113Z</time>
      </trkpt>
      <trkpt lat="68.76277" lon="15.46443">
        <ele>7.626915</ele>
        <time>2020-07-16T00:52:27.561Z</time>
      </trkpt>
      <trkpt lat="68.76299" lon="15.4642">
        <ele>7.390595</ele>
        <time>2020-07-16T00:52:31.155Z</time>
      </trkpt>
      <trkpt lat="68.76322" lon="15.46394">
        <ele>7.14534</ele>
        <time>2020-07-16T00:52:35.036Z</time>
      </trkpt>
      <trkpt lat="68.76449" lon="15.46258">
        <ele>6.039947</ele>
        <time>2020-07-16T00:52:56.690Z</time>
      </trkpt>
      <trkpt lat="68.76495" lon="15.4624">
        <ele>5.762272</ele>
        <time>2020-07-16T00:53:04.119Z</time>
      </trkpt>
      <trkpt lat="68.76527" lon="15.46252">
        <ele>5.570121</ele>
        <time>2020-07-16T00:53:09.287Z</time>
      </trkpt>
      <trkpt lat="68.7656" lon="15.46288">
        <ele>5.359487</ele>
        <time>2020-07-16T00:53:15.370Z</time>
      </trkpt>
      <trkpt lat="68.76645" lon="15.46428">
        <ele>5.649385</ele>
        <time>2020-07-16T00:53:33.501Z</time>
      </trkpt>
      <trkpt lat="68.76652" lon="15.46448">
        <ele>5.678525</ele>
        <time>2020-07-16T00:53:35.480Z</time>
      </trkpt>
      <trkpt lat="68.76658" lon="15.46463">
        <ele>5.701761</ele>
        <time>2020-07-16T00:53:37.361Z</time>
      </trkpt>
      <trkpt lat="68.76713" lon="15.46631">
        <ele>5.848024</ele>
        <time>2020-07-16T00:53:53.416Z</time>
      </trkpt>
      <trkpt lat="68.76749" lon="15.46692">
        <ele>5.758184</ele>
        <time>2020-07-16T00:54:01.538Z</time>
      </trkpt>
      <trkpt lat="68.76769" lon="15.46709">
        <ele>5.71216</ele>
        <time>2020-07-16T00:54:05.503Z</time>
      </trkpt>
      <trkpt lat="68.76847" lon="15.46737">
        <ele>5.543891</ele>
        <time>2020-07-16T00:54:18.278Z</time>
      </trkpt>
      <trkpt lat="68.76895" lon="15.46764">
        <ele>5.128122</ele>
        <time>2020-07-16T00:54:25.901Z</time>
      </trkpt>
      <trkpt lat="68.76902" lon="15.46773">
        <ele>5.02338</ele>
        <time>2020-07-16T00:54:27.118Z</time>
      </trkpt>
      <trkpt lat="68.76906" lon="15.46777">
        <ele>4.975484</ele>
        <time>2020-07-16T00:54:27.612Z</time>
      </trkpt>
      <trkpt lat="68.77048" lon="15.47035">
        <ele>3.007204</ele>
        <time>2020-07-16T00:54:52.858Z</time>
      </trkpt>
      <trkpt lat="68.77167" lon="15.47345">
        <ele>2.002203</ele>
        <time>2020-07-16T00:55:19.704Z</time>
      </trkpt>
      <trkpt lat="68.77179" lon="15.47385">
        <ele>2.043296</ele>
        <time>2020-07-16T00:55:23.094Z</time>
      </trkpt>
      <trkpt lat="68.77184" lon="15.47403">
        <ele>2.06021</ele>
        <time>2020-07-16T00:55:24.455Z</time>
      </trkpt>
      <trkpt lat="68.77213" lon="15.47501">
        <ele>2.159711</ele>
        <time>2020-07-16T00:55:32.678Z</time>
      </trkpt>
      <trkpt lat="68.7731" lon="15.47819">
        <ele>2.763287</ele>
        <time>2020-07-16T00:56:02.259Z</time>
      </trkpt>
      <trkpt lat="68.77325" lon="15.47854">
        <ele>2.897555</ele>
        <time>2020-07-16T00:56:06.413Z</time>
      </trkpt>
      <trkpt lat="68.77347" lon="15.47896">
        <ele>3.082629</ele>
        <time>2020-07-16T00:56:11.941Z</time>
      </trkpt>
      <trkpt lat="68.77369" lon="15.47936">
        <ele>3.260392</ele>
        <time>2020-07-16T00:56:17.287Z</time>
      </trkpt>
      <trkpt lat="68.77394" lon="15.47983">
        <ele>3.470218</ele>
        <time>2020-07-16T00:56:23.424Z</time>
      </trkpt>
      <trkpt lat="68.77421" lon="15.48035">
        <ele>3.614911</ele>
        <time>2020-07-16T00:56:30.072Z</time>
      </trkpt>
      <trkpt lat="68.77485" lon="15.48149">
        <ele>3.726766</ele>
        <time>2020-07-16T00:56:44.583Z</time>
      </trkpt>
      <trkpt lat="68.77488" lon="15.48153">
        <ele>3.731755</ele>
        <time>2020-07-16T00:56:45.283Z</time>
      </trkpt>
      <trkpt lat="68.77503" lon="15.48174">
        <ele>3.75555</ele>
        <time>2020-07-16T00:56:48.148Z</time>
      </trkpt>
      <trkpt lat="68.77595" lon="15.48289">
        <ele>3.714777</ele>
        <time>2020-07-16T00:57:05.396Z</time>
      </trkpt>
      <trkpt lat="68.77667" lon="15.48346">
        <ele>3.39032</ele>
        <time>2020-07-16T00:57:17.542Z</time>
      </trkpt>
      <trkpt lat="68.77689" lon="15.48355">
        <ele>3.290803</ele>
        <time>2020-07-16T00:57:21.281Z</time>
      </trkpt>
      <trkpt lat="68.77703" lon="15.48361">
        <ele>3.231264</ele>
        <time>2020-07-16T00:57:23.608Z</time>
      </trkpt>
      <trkpt lat="68.77737" lon="15.4837">
        <ele>3.080745</ele>
        <time>2020-07-16T00:57:29.414Z</time>
      </trkpt>
      <trkpt lat="68.77747" lon="15.48373">
        <ele>3.086457</ele>
        <time>2020-07-16T00:57:31.023Z</time>
      </trkpt>
      <trkpt lat="68.77796" lon="15.48394">
        <ele>3.170146</ele>
        <time>2020-07-16T00:57:39.528Z</time>
      </trkpt>
      <trkpt lat="68.77834" lon="15.48431">
        <ele>3.238522</ele>
        <time>2020-07-16T00:57:46.633Z</time>
      </trkpt>
      <trkpt lat="68.77847" lon="15.48447">
        <ele>3.262056</ele>
        <time>2020-07-16T00:57:49.184Z</time>
      </trkpt>
      <trkpt lat="68.78001" lon="15.48657">
        <ele>4.346682</ele>
        <time>2020-07-16T00:58:23.671Z</time>
      </trkpt>
      <trkpt lat="68.78018" lon="15.48678">
        <ele>4.520893</ele>
        <time>2020-07-16T00:58:27.916Z</time>
      </trkpt>
      <trkpt lat="68.78078" lon="15.4873">
        <ele>5.121695</ele>
        <time>2020-07-16T00:58:41.622Z</time>
      </trkpt>
      <trkpt lat="68.78155" lon="15.48772">
        <ele>5.946336</ele>
        <time>2020-07-16T00:58:58.636Z</time>
      </trkpt>
      <trkpt lat="68.78286" lon="15.4884">
        <ele>7.530535</ele>
        <time>2020-07-16T00:59:25.957Z</time>
      </trkpt>
      <trkpt lat="68.78491" lon="15.48942">
        <ele>12.161476</ele>
        <time>2020-07-16T01:00:14.740Z</time>
      </trkpt>
      <trkpt lat="68.78507" lon="15.48949">
        <ele>12.753761</ele>
        <time>2020-07-16T01:00:19.920Z</time>
      </trkpt>
      <trkpt lat="68.78624" lon="15.49017">
        <ele>17.673275</ele>
        <time>2020-07-16T01:00:59.878Z</time>
      </trkpt>
      <trkpt lat="68.78678" lon="15.49076">
        <ele>21.063155</ele>
        <time>2020-07-16T01:01:21.546Z</time>
      </trkpt>
      <trkpt lat="68.78728" lon="15.49179">
        <ele>24.70451</ele>
        <time>2020-07-16T01:01:45.297Z</time>
      </trkpt>
      <trkpt lat="68.78795" lon="15.49401">
        <ele>29.821834</ele>
        <time>2020-07-16T01:02:23.253Z</time>
      </trkpt>
      <trkpt lat="68.78812" lon="15.49458">
        <ele>30.997399</ele>
        <time>2020-07-16T01:02:32.405Z</time>
      </trkpt>
      <trkpt lat="68.78917" lon="15.49819">
        <ele>36.184991</ele>
        <time>2020-07-16T01:03:18.631Z</time>
      </trkpt>
      <trkpt lat="68.79102" lon="15.50353">
        <ele>38.941303</ele>
        <time>2020-07-16T01:04:12.334Z</time>
      </trkpt>
      <trkpt lat="68.7912" lon="15.50411">
        <ele>38.992133</ele>
        <time>2020-07-16T01:04:17.491Z</time>
      </trkpt>
      <trkpt lat="68.79138" lon="15.50461">
        <ele>38.968027</ele>
        <time>2020-07-16T01:04:22.128Z</time>
      </trkpt>
      <trkpt lat="68.79295" lon="15.50917">
        <ele>38.370722</ele>
        <time>2020-07-16T01:05:01.180Z</time>
      </trkpt>
      <trkpt lat="68.7936" lon="15.51102">
        <ele>37.860126</ele>
        <time>2020-07-16T01:05:16.109Z</time>
      </trkpt>
      <trkpt lat="68.79376" lon="15.51153">
        <ele>37.52535</ele>
        <time>2020-07-16T01:05:19.947Z</time>
      </trkpt>
      <trkpt lat="68.79447" lon="15.51355">
        <ele>36.156664</ele>
        <time>2020-07-16T01:05:35.244Z</time>
      </trkpt>
      <trkpt lat="68.79471" lon="15.51441">
        <ele>35.619494</ele>
        <time>2020-07-16T01:05:40.962Z</time>
      </trkpt>
      <trkpt lat="68.79503" lon="15.51586">
        <ele>34.241135</ele>
        <time>2020-07-16T01:05:49.583Z</time>
      </trkpt>
      <trkpt lat="68.79529" lon="15.51751">
        <ele>32.669004</ele>
        <time>2020-07-16T01:05:58.495Z</time>
      </trkpt>
      <trkpt lat="68.79539" lon="15.51819">
        <ele>32.034606</ele>
        <time>2020-07-16T01:06:02.010Z</time>
      </trkpt>
      <trkpt lat="68.79695" lon="15.52873">
        <ele>21.28928</ele>
        <time>2020-07-16T01:06:57.685Z</time>
      </trkpt>
      <trkpt lat="68.79715" lon="15.53014">
        <ele>19.991852</ele>
        <time>2020-07-16T01:07:05.280Z</time>
      </trkpt>
      <trkpt lat="68.79736" lon="15.53116">
        <ele>18.999123</ele>
        <time>2020-07-16T01:07:11.109Z</time>
      </trkpt>
      <trkpt lat="68.79778" lon="15.53229">
        <ele>17.60678</ele>
        <time>2020-07-16T01:07:19.295Z</time>
      </trkpt>
      <trkpt lat="68.79909" lon="15.5341">
        <ele>13.705226</ele>
        <time>2020-07-16T01:07:39.204Z</time>
      </trkpt>
      <trkpt lat="68.80074" lon="15.53698">
        <ele>8.021622</ele>
        <time>2020-07-16T01:08:04.905Z</time>
      </trkpt>
      <trkpt lat="68.80125" lon="15.53808">
        <ele>6.459053</ele>
        <time>2020-07-16T01:08:13.641Z</time>
      </trkpt>
      <trkpt lat="68.80145" lon="15.53873">
        <ele>5.846219</ele>
        <time>2020-07-16T01:08:17.846Z</time>
      </trkpt>
      <trkpt lat="68.80153" lon="15.53901">
        <ele>5.583741</ele>
        <time>2020-07-16T01:08:19.619Z</time>
      </trkpt>
      <trkpt lat="68.80194" lon="15.54082">
        <ele>4.026674</ele>
        <time>2020-07-16T01:08:30.761Z</time>
      </trkpt>
      <trkpt lat="68.80235" lon="15.54324">
        <ele>2.902831</ele>
        <time>2020-07-16T01:08:45.484Z</time>
      </trkpt>
      <trkpt lat="68.80263" lon="15.5442">
        <ele>2.493686</ele>
        <time>2020-07-16T01:08:52.563Z</time>
      </trkpt>
      <trkpt lat="68.80281" lon="15.54453">
        <ele>2.296819</ele>
        <time>2020-07-16T01:08:56.037Z</time>
      </trkpt>
      <trkpt lat="68.80297" lon="15.54473">
        <ele>2.135499</ele>
        <time>2020-07-16T01:08:58.855Z</time>
      </trkpt>
      <trkpt lat="68.80333" lon="15.54492">
        <ele>1.914628</ele>
        <time>2020-07-16T01:09:04.919Z</time>
      </trkpt>
      <trkpt lat="68.80351" lon="15.54491">
        <ele>1.882963</ele>
        <time>2020-07-16T01:09:07.855Z</time>
      </trkpt>
      <trkpt lat="68.8036" lon="15.5449">
        <ele>1.865484</ele>
        <time>2020-07-16T01:09:09.444Z</time>
      </trkpt>
      <trkpt lat="68.80405" lon="15.54481">
        <ele>1.785071</ele>
        <time>2020-07-16T01:09:17.050Z</time>
      </trkpt>
      <trkpt lat="68.80496" lon="15.54508">
        <ele>1.619911</ele>
        <time>2020-07-16T01:09:33.295Z</time>
      </trkpt>
      <trkpt lat="68.80565" lon="15.54544">
        <ele>1.842519</ele>
        <time>2020-07-16T01:09:46.526Z</time>
      </trkpt>
      <trkpt lat="68.80624" lon="15.54591">
        <ele>2.039905</ele>
        <time>2020-07-16T01:09:58.442Z</time>
      </trkpt>
      <trkpt lat="68.80641" lon="15.54592">
        <ele>2.093135</ele>
        <time>2020-07-16T01:10:01.653Z</time>
      </trkpt>
      <trkpt lat="68.80786" lon="15.54494">
        <ele>2.455598</ele>
        <time>2020-07-16T01:10:29.814Z</time>
      </trkpt>
      <trkpt lat="68.81022" lon="15.54426">
        <ele>2.590673</ele>
        <time>2020-07-16T01:11:12.144Z</time>
      </trkpt>
      <trkpt lat="68.81284" lon="15.54332">
        <ele>2.832881</ele>
        <time>2020-07-16T01:11:59.108Z</time>
      </trkpt>
      <trkpt lat="68.81291" lon="15.54332">
        <ele>2.861904</ele>
        <time>2020-07-16T01:12:00.537Z</time>
      </trkpt>
      <trkpt lat="68.81297" lon="15.54333">
        <ele>2.884908</ele>
        <time>2020-07-16T01:12:01.809Z</time>
      </trkpt>
      <trkpt lat="68.81328" lon="15.54357">
        <ele>3.004242</ele>
        <time>2020-07-16T01:12:07.863Z</time>
      </trkpt>
      <trkpt lat="68.81364" lon="15.54453">
        <ele>3.193021</ele>
        <time>2020-07-16T01:12:17.867Z</time>
      </trkpt>
      <trkpt lat="68.81944" lon="15.56504">
        <ele>13.019714</ele>
        <time>2020-07-16T01:15:36.849Z</time>
      </trkpt>
      <trkpt lat="68.8196" lon="15.56577">
        <ele>13.553664</ele>
        <time>2020-07-16T01:15:44.042Z</time>
      </trkpt>
      <trkpt lat="68.81965" lon="15.56608">
        <ele>13.76675</ele>
        <time>2020-07-16T01:15:46.816Z</time>
      </trkpt>
      <trkpt lat="68.81972" lon="15.56667">
        <ele>14.158069</ele>
        <time>2020-07-16T01:15:52.269Z</time>
      </trkpt>
      <trkpt lat="68.81977" lon="15.56763">
        <ele>14.760885</ele>
        <time>2020-07-16T01:16:00.581Z</time>
      </trkpt>
      <trkpt lat="68.81975" lon="15.56883">
        <ele>15.509993</ele>
        <time>2020-07-16T01:16:11.277Z</time>
      </trkpt>
      <trkpt lat="68.81955" lon="15.57178">
        <ele>17.544196</ele>
        <time>2020-07-16T01:16:38.379Z</time>
      </trkpt>
      <trkpt lat="68.81947" lon="15.57304">
        <ele>18.410415</ele>
        <time>2020-07-16T01:16:49.248Z</time>
      </trkpt>
      <trkpt lat="68.8194" lon="15.57413">
        <ele>18.913863</ele>
        <time>2020-07-16T01:16:58.050Z</time>
      </trkpt>
      <trkpt lat="68.81935" lon="15.57476">
        <ele>18.979695</ele>
        <time>2020-07-16T01:17:02.751Z</time>
      </trkpt>
      <trkpt lat="68.81933" lon="15.57501">
        <ele>19.006389</ele>
        <time>2020-07-16T01:17:04.975Z</time>
      </trkpt>
      <trkpt lat="68.8193" lon="15.57548">
        <ele>19.05486</ele>
        <time>2020-07-16T01:17:08.217Z</time>
      </trkpt>
      <trkpt lat="68.8189" lon="15.58019">
        <ele>18.889567</ele>
        <time>2020-07-16T01:17:38.393Z</time>
      </trkpt>
      <trkpt lat="68.81883" lon="15.5809">
        <ele>18.671292</ele>
        <time>2020-07-16T01:17:42.583Z</time>
      </trkpt>
      <trkpt lat="68.81849" lon="15.58459">
        <ele>17.358484</ele>
        <time>2020-07-16T01:18:03.541Z</time>
      </trkpt>
      <trkpt lat="68.81736" lon="15.59675">
        <ele>11.722971</ele>
        <time>2020-07-16T01:19:12.000Z</time>
      </trkpt>
      <trkpt lat="68.81655" lon="15.6055">
        <ele>8.045063</ele>
        <time>2020-07-16T01:20:01.549Z</time>
      </trkpt>
      <trkpt lat="68.81653" lon="15.60567">
        <ele>7.983664</ele>
        <time>2020-07-16T01:20:02.580Z</time>
      </trkpt>
      <trkpt lat="68.81644" lon="15.60654">
        <ele>7.670778</ele>
        <time>2020-07-16T01:20:07.737Z</time>
      </trkpt>
      <trkpt lat="68.81633" lon="15.60781">
        <ele>7.287427</ele>
        <time>2020-07-16T01:20:15.458Z</time>
      </trkpt>
      <trkpt lat="68.81629" lon="15.60833">
        <ele>7.22203</ele>
        <time>2020-07-16T01:20:18.566Z</time>
      </trkpt>
      <trkpt lat="68.81628" lon="15.60903">
        <ele>7.13513</ele>
        <time>2020-07-16T01:20:22.776Z</time>
      </trkpt>
      <trkpt lat="68.81672" lon="15.62099">
        <ele>5.557417</ele>
        <time>2020-07-16T01:21:36.807Z</time>
      </trkpt>
      <trkpt lat="68.81669" lon="15.62294">
        <ele>5.16671</ele>
        <time>2020-07-16T01:21:48.163Z</time>
      </trkpt>
      <trkpt lat="68.81631" lon="15.62913">
        <ele>3.333606</ele>
        <time>2020-07-16T01:22:23.542Z</time>
      </trkpt>
      <trkpt lat="68.81618" lon="15.63038">
        <ele>3.03289</ele>
        <time>2020-07-16T01:22:31.155Z</time>
      </trkpt>
      <trkpt lat="68.81599" lon="15.63129">
        <ele>2.792988</ele>
        <time>2020-07-16T01:22:37.377Z</time>
      </trkpt>
      <trkpt lat="68.81524" lon="15.63326">
        <ele>2.652037</ele>
        <time>2020-07-16T01:22:55.514Z</time>
      </trkpt>
      <trkpt lat="68.81503" lon="15.63411">
        <ele>2.664472</ele>
        <time>2020-07-16T01:23:02.355Z</time>
      </trkpt>
      <trkpt lat="68.8145" lon="15.63778">
        <ele>2.775829</ele>
        <time>2020-07-16T01:23:28.848Z</time>
      </trkpt>
      <trkpt lat="68.8144" lon="15.63871">
        <ele>2.816321</ele>
        <time>2020-07-16T01:23:35.310Z</time>
      </trkpt>
      <trkpt lat="68.81424" lon="15.64156">
        <ele>2.872893</ele>
        <time>2020-07-16T01:23:54.071Z</time>
      </trkpt>
      <trkpt lat="68.81354" lon="15.64857">
        <ele>2.751413</ele>
        <time>2020-07-16T01:24:40.303Z</time>
      </trkpt>
      <trkpt lat="68.8132" lon="15.65434">
        <ele>2.720344</ele>
        <time>2020-07-16T01:25:18.294Z</time>
      </trkpt>
      <trkpt lat="68.81306" lon="15.65601">
        <ele>2.612864</ele>
        <time>2020-07-16T01:25:29.029Z</time>
      </trkpt>
      <trkpt lat="68.81295" lon="15.65686">
        <ele>2.510913</ele>
        <time>2020-07-16T01:25:34.573Z</time>
      </trkpt>
      <trkpt lat="68.81234" lon="15.66015">
        <ele>2.080109</ele>
        <time>2020-07-16T01:25:56.923Z</time>
      </trkpt>
      <trkpt lat="68.81219" lon="15.66167">
        <ele>1.866065</ele>
        <time>2020-07-16T01:26:06.424Z</time>
      </trkpt>
      <trkpt lat="68.81216" lon="15.66342">
        <ele>1.629441</ele>
        <time>2020-07-16T01:26:17.016Z</time>
      </trkpt>
      <trkpt lat="68.81228" lon="15.66506">
        <ele>1.45306</ele>
        <time>2020-07-16T01:26:27.300Z</time>
      </trkpt>
      <trkpt lat="68.81242" lon="15.66595">
        <ele>1.408458</ele>
        <time>2020-07-16T01:26:33.313Z</time>
      </trkpt>
      <trkpt lat="68.81519" lon="15.67897">
        <ele>0.881822</ele>
        <time>2020-07-16T01:28:09.427Z</time>
      </trkpt>
      <trkpt lat="68.81566" lon="15.68059">
        <ele>0.909402</ele>
        <time>2020-07-16T01:28:22.790Z</time>
      </trkpt>
      <trkpt lat="68.81644" lon="15.68233">
        <ele>1.707003</ele>
        <time>2020-07-16T01:28:41.203Z</time>
      </trkpt>
      <trkpt lat="68.81665" lon="15.68271">
        <ele>2.040188</ele>
        <time>2020-07-16T01:28:46.600Z</time>
      </trkpt>
      <trkpt lat="68.81677" lon="15.68294">
        <ele>2.240022</ele>
        <time>2020-07-16T01:28:49.791Z</time>
      </trkpt>
      <trkpt lat="68.81705" lon="15.68337">
        <ele>2.662256</ele>
        <time>2020-07-16T01:28:57.157Z</time>
      </trkpt>
      <trkpt lat="68.8172" lon="15.68354">
        <ele>2.88826</ele>
        <time>2020-07-16T01:29:01.140Z</time>
      </trkpt>
      <trkpt lat="68.81747" lon="15.68385">
        <ele>3.276082</ele>
        <time>2020-07-16T01:29:08.338Z</time>
      </trkpt>
      <trkpt lat="68.81796" lon="15.68446">
        <ele>4.949776</ele>
        <time>2020-07-16T01:29:23.159Z</time>
      </trkpt>
      <trkpt lat="68.81888" lon="15.68547">
        <ele>8.181455</ele>
        <time>2020-07-16T01:29:52.248Z</time>
      </trkpt>
      <trkpt lat="68.81917" lon="15.68565">
        <ele>9.163652</ele>
        <time>2020-07-16T01:30:01.340Z</time>
      </trkpt>
      <trkpt lat="68.81959" lon="15.68567">
        <ele>10.029776</ele>
        <time>2020-07-16T01:30:13.370Z</time>
      </trkpt>
      <trkpt lat="68.82541" lon="15.68282">
        <ele>20.500502</ele>
        <time>2020-07-16T01:32:33.744Z</time>
      </trkpt>
      <trkpt lat="68.82586" lon="15.68249">
        <ele>20.788299</ele>
        <time>2020-07-16T01:32:41.915Z</time>
      </trkpt>
      <trkpt lat="68.82596" lon="15.68238">
        <ele>20.855146</ele>
        <time>2020-07-16T01:32:43.704Z</time>
      </trkpt>
      <trkpt lat="68.82616" lon="15.68207">
        <ele>20.993641</ele>
        <time>2020-07-16T01:32:47.261Z</time>
      </trkpt>
      <trkpt lat="68.82667" lon="15.68094">
        <ele>19.939018</ele>
        <time>2020-07-16T01:32:57.118Z</time>
      </trkpt>
      <trkpt lat="68.82684" lon="15.68046">
        <ele>19.472506</ele>
        <time>2020-07-16T01:33:00.503Z</time>
      </trkpt>
      <trkpt lat="68.82713" lon="15.67958">
        <ele>18.622782</ele>
        <time>2020-07-16T01:33:06.550Z</time>
      </trkpt>
      <trkpt lat="68.82924" lon="15.67313">
        <ele>10.874093</ele>
        <time>2020-07-16T01:33:49.053Z</time>
      </trkpt>
      <trkpt lat="68.82961" lon="15.67196">
        <ele>9.457597</ele>
        <time>2020-07-16T01:33:56.473Z</time>
      </trkpt>
      <trkpt lat="68.82986" lon="15.67119">
        <ele>8.517675</ele>
        <time>2020-07-16T01:34:01.650Z</time>
      </trkpt>
      <trkpt lat="68.83007" lon="15.67058">
        <ele>8.177269</ele>
        <time>2020-07-16T01:34:05.989Z</time>
      </trkpt>
      <trkpt lat="68.83019" lon="15.67024">
        <ele>8.069523</ele>
        <time>2020-07-16T01:34:08.613Z</time>
      </trkpt>
      <trkpt lat="68.83033" lon="15.6698">
        <ele>7.937248</ele>
        <time>2020-07-16T01:34:11.746Z</time>
      </trkpt>
      <trkpt lat="68.83045" lon="15.66942">
        <ele>7.819916</ele>
        <time>2020-07-16T01:34:14.643Z</time>
      </trkpt>
      <trkpt lat="68.83066" lon="15.66879">
        <ele>7.627761</ele>
        <time>2020-07-16T01:34:19.714Z</time>
      </trkpt>
      <trkpt lat="68.83077" lon="15.66845">
        <ele>7.524912</ele>
        <time>2020-07-16T01:34:22.329Z</time>
      </trkpt>
      <trkpt lat="68.83089" lon="15.66803">
        <ele>7.401755</ele>
        <time>2020-07-16T01:34:26.070Z</time>
      </trkpt>
      <trkpt lat="68.83132" lon="15.6667">
        <ele>7.360878</ele>
        <time>2020-07-16T01:34:39.029Z</time>
      </trkpt>
      <trkpt lat="68.83146" lon="15.66625">
        <ele>7.479252</ele>
        <time>2020-07-16T01:34:43.658Z</time>
      </trkpt>
      <trkpt lat="68.8316" lon="15.6657">
        <ele>7.613494</ele>
        <time>2020-07-16T01:34:49.224Z</time>
      </trkpt>
      <trkpt lat="68.83165" lon="15.66552">
        <ele>7.657463</ele>
        <time>2020-07-16T01:34:50.788Z</time>
      </trkpt>
      <trkpt lat="68.83172" lon="15.66515">
        <ele>7.741829</ele>
        <time>2020-07-16T01:34:53.928Z</time>
      </trkpt>
      <trkpt lat="68.83175" lon="15.665">
        <ele>7.775527</ele>
        <time>2020-07-16T01:34:55.236Z</time>
      </trkpt>
      <trkpt lat="68.83186" lon="15.66436">
        <ele>7.917877</ele>
        <time>2020-07-16T01:35:00.196Z</time>
      </trkpt>
      <trkpt lat="68.83199" lon="15.66329">
        <ele>8.143316</ele>
        <time>2020-07-16T01:35:07.656Z</time>
      </trkpt>
      <trkpt lat="68.83202" lon="15.66295">
        <ele>8.149281</ele>
        <time>2020-07-16T01:35:09.905Z</time>
      </trkpt>
      <trkpt lat="68.83205" lon="15.66261">
        <ele>8.057855</ele>
        <time>2020-07-16T01:35:12.041Z</time>
      </trkpt>
      <trkpt lat="68.8321" lon="15.6619">
        <ele>7.86901</ele>
        <time>2020-07-16T01:35:16.397Z</time>
      </trkpt>
      <trkpt lat="68.83216" lon="15.66106">
        <ele>7.646068</ele>
        <time>2020-07-16T01:35:21.313Z</time>
      </trkpt>
      <trkpt lat="68.83227" lon="15.65955">
        <ele>7.243079</ele>
        <time>2020-07-16T01:35:30.111Z</time>
      </trkpt>
      <trkpt lat="68.83236" lon="15.65836">
        <ele>6.923093</ele>
        <time>2020-07-16T01:35:36.878Z</time>
      </trkpt>
      <trkpt lat="68.83242" lon="15.65749">
        <ele>6.668129</ele>
        <time>2020-07-16T01:35:41.689Z</time>
      </trkpt>
      <trkpt lat="68.8325" lon="15.6563">
        <ele>6.311103</ele>
        <time>2020-07-16T01:35:48.296Z</time>
      </trkpt>
      <trkpt lat="68.83253" lon="15.65585">
        <ele>6.176892</ele>
        <time>2020-07-16T01:35:50.830Z</time>
      </trkpt>
      <trkpt lat="68.83261" lon="15.65462">
        <ele>5.809118</ele>
        <time>2020-07-16T01:35:57.860Z</time>
      </trkpt>
      <trkpt lat="68.83267" lon="15.65397">
        <ele>5.613151</ele>
        <time>2020-07-16T01:36:01.920Z</time>
      </trkpt>
      <trkpt lat="68.83274" lon="15.65277">
        <ele>5.441765</ele>
        <time>2020-07-16T01:36:09.572Z</time>
      </trkpt>
      <trkpt lat="68.83283" lon="15.65167">
        <ele>5.490456</ele>
        <time>2020-07-16T01:36:17.087Z</time>
      </trkpt>
      <trkpt lat="68.8329" lon="15.65061">
        <ele>5.537604</ele>
        <time>2020-07-16T01:36:24.588Z</time>
      </trkpt>
      <trkpt lat="68.83298" lon="15.6496">
        <ele>5.582475</ele>
        <time>2020-07-16T01:36:31.719Z</time>
      </trkpt>
      <trkpt lat="68.83307" lon="15.64837">
        <ele>5.620612</ele>
        <time>2020-07-16T01:36:40.024Z</time>
      </trkpt>
      <trkpt lat="68.8332" lon="15.64721">
        <ele>5.342589</ele>
        <time>2020-07-16T01:36:47.846Z</time>
      </trkpt>
      <trkpt lat="68.83326" lon="15.64677">
        <ele>5.236462</ele>
        <time>2020-07-16T01:36:50.517Z</time>
      </trkpt>
      <trkpt lat="68.83345" lon="15.64524">
        <ele>4.865822</ele>
        <time>2020-07-16T01:37:00.033Z</time>
      </trkpt>
      <trkpt lat="68.83349" lon="15.64474">
        <ele>4.748579</ele>
        <time>2020-07-16T01:37:02.823Z</time>
      </trkpt>
      <trkpt lat="68.83366" lon="15.64231">
        <ele>4.069645</ele>
        <time>2020-07-16T01:37:16.399Z</time>
      </trkpt>
      <trkpt lat="68.83373" lon="15.64126">
        <ele>3.739021</ele>
        <time>2020-07-16T01:37:22.242Z</time>
      </trkpt>
      <trkpt lat="68.83384" lon="15.63972">
        <ele>3.249024</ele>
        <time>2020-07-16T01:37:31.284Z</time>
      </trkpt>
      <trkpt lat="68.83396" lon="15.63806">
        <ele>2.868942</ele>
        <time>2020-07-16T01:37:41.547Z</time>
      </trkpt>
      <trkpt lat="68.83406" lon="15.63665">
        <ele>2.715921</ele>
        <time>2020-07-16T01:37:50.388Z</time>
      </trkpt>
      <trkpt lat="68.83412" lon="15.63577">
        <ele>2.619697</ele>
        <time>2020-07-16T01:37:55.902Z</time>
      </trkpt>
      <trkpt lat="68.8343" lon="15.63376">
        <ele>2.406695</ele>
        <time>2020-07-16T01:38:08.683Z</time>
      </trkpt>
      <trkpt lat="68.83437" lon="15.63327">
        <ele>2.380012</ele>
        <time>2020-07-16T01:38:12.026Z</time>
      </trkpt>
      <trkpt lat="68.83444" lon="15.63279">
        <ele>2.354939</ele>
        <time>2020-07-16T01:38:15.219Z</time>
      </trkpt>
      <trkpt lat="68.83481" lon="15.63019">
        <ele>2.21671</ele>
        <time>2020-07-16T01:38:32.697Z</time>
      </trkpt>
      <trkpt lat="68.83493" lon="15.62934">
        <ele>2.171522</ele>
        <time>2020-07-16T01:38:38.502Z</time>
      </trkpt>
      <trkpt lat="68.83514" lon="15.62784">
        <ele>2.350953</ele>
        <time>2020-07-16T01:38:49.272Z</time>
      </trkpt>
      <trkpt lat="68.83538" lon="15.6262">
        <ele>2.563555</ele>
        <time>2020-07-16T01:39:01.564Z</time>
      </trkpt>
      <trkpt lat="68.83543" lon="15.62586">
        <ele>2.607585</ele>
        <time>2020-07-16T01:39:04.121Z</time>
      </trkpt>
      <trkpt lat="68.83583" lon="15.62309">
        <ele>3.037059</ele>
        <time>2020-07-16T01:39:24.874Z</time>
      </trkpt>
      <trkpt lat="68.83599" lon="15.62194">
        <ele>3.237885</ele>
        <time>2020-07-16T01:39:33.488Z</time>
      </trkpt>
      <trkpt lat="68.83604" lon="15.62162">
        <ele>3.294851</ele>
        <time>2020-07-16T01:39:36.064Z</time>
      </trkpt>
      <trkpt lat="68.83613" lon="15.62094">
        <ele>3.413243</ele>
        <time>2020-07-16T01:39:41.146Z</time>
      </trkpt>
      <trkpt lat="68.83639" lon="15.61913">
        <ele>3.713503</ele>
        <time>2020-07-16T01:39:54.570Z</time>
      </trkpt>
      <trkpt lat="68.83668" lon="15.61719">
        <ele>4.02118</ele>
        <time>2020-07-16T01:40:08.820Z</time>
      </trkpt>
      <trkpt lat="68.83704" lon="15.6146">
        <ele>4.471918</ele>
        <time>2020-07-16T01:40:28.243Z</time>
      </trkpt>
      <trkpt lat="68.83714" lon="15.61378">
        <ele>4.645445</ele>
        <time>2020-07-16T01:40:34.366Z</time>
      </trkpt>
      <trkpt lat="68.83724" lon="15.61301">
        <ele>4.810074</ele>
        <time>2020-07-16T01:40:40.149Z</time>
      </trkpt>
      <trkpt lat="68.83744" lon="15.61133">
        <ele>5.165849</ele>
        <time>2020-07-16T01:40:52.617Z</time>
      </trkpt>
      <trkpt lat="68.83761" lon="15.61014">
        <ele>5.49389</ele>
        <time>2020-07-16T01:41:01.746Z</time>
      </trkpt>
      <trkpt lat="68.83803" lon="15.60805">
        <ele>6.262097</ele>
        <time>2020-07-16T01:41:19.539Z</time>
      </trkpt>
      <trkpt lat="68.83846" lon="15.60609">
        <ele>7.026539</ele>
        <time>2020-07-16T01:41:37.134Z</time>
      </trkpt>
      <trkpt lat="68.8387" lon="15.60502">
        <ele>7.523144</ele>
        <time>2020-07-16T01:41:47.011Z</time>
      </trkpt>
      <trkpt lat="68.8388" lon="15.60466">
        <ele>7.70313</ele>
        <time>2020-07-16T01:41:50.682Z</time>
      </trkpt>
      <trkpt lat="68.83898" lon="15.60392">
        <ele>8.061138</ele>
        <time>2020-07-16T01:41:57.759Z</time>
      </trkpt>
      <trkpt lat="68.83913" lon="15.60343">
        <ele>8.308927</ele>
        <time>2020-07-16T01:42:02.553Z</time>
      </trkpt>
      <trkpt lat="68.83923" lon="15.60309">
        <ele>8.483278</ele>
        <time>2020-07-16T01:42:06.058Z</time>
      </trkpt>
      <trkpt lat="68.83935" lon="15.6027">
        <ele>8.688095</ele>
        <time>2020-07-16T01:42:09.942Z</time>
      </trkpt>
      <trkpt lat="68.83952" lon="15.60222">
        <ele>8.917785</ele>
        <time>2020-07-16T01:42:15.225Z</time>
      </trkpt>
      <trkpt lat="68.84069" lon="15.59912">
        <ele>9.654519</ele>
        <time>2020-07-16T01:42:46.281Z</time>
      </trkpt>
      <trkpt lat="68.84188" lon="15.59593">
        <ele>9.685549</ele>
        <time>2020-07-16T01:43:15.681Z</time>
      </trkpt>
      <trkpt lat="68.8428" lon="15.59273">
        <ele>9.592272</ele>
        <time>2020-07-16T01:43:41.614Z</time>
      </trkpt>
      <trkpt lat="68.84335" lon="15.59132">
        <ele>9.550723</ele>
        <time>2020-07-16T01:43:54.978Z</time>
      </trkpt>
      <trkpt lat="68.84461" lon="15.58846">
        <ele>9.563091</ele>
        <time>2020-07-16T01:44:24.252Z</time>
      </trkpt>
      <trkpt lat="68.84491" lon="15.58782">
        <ele>9.442136</ele>
        <time>2020-07-16T01:44:31.010Z</time>
      </trkpt>
      <trkpt lat="68.84568" lon="15.58609">
        <ele>9.122852</ele>
        <time>2020-07-16T01:44:47.752Z</time>
      </trkpt>
      <trkpt lat="68.84603" lon="15.58529">
        <ele>8.980188</ele>
        <time>2020-07-16T01:44:55.071Z</time>
      </trkpt>
      <trkpt lat="68.84655" lon="15.58412">
        <ele>8.913151</ele>
        <time>2020-07-16T01:45:06.215Z</time>
      </trkpt>
      <trkpt lat="68.84692" lon="15.58326">
        <ele>8.865086</ele>
        <time>2020-07-16T01:45:14.599Z</time>
      </trkpt>
      <trkpt lat="68.84706" lon="15.58294">
        <ele>8.847263</ele>
        <time>2020-07-16T01:45:17.678Z</time>
      </trkpt>
      <trkpt lat="68.84747" lon="15.58203">
        <ele>8.89752</ele>
        <time>2020-07-16T01:45:27.366Z</time>
      </trkpt>
      <trkpt lat="68.8485" lon="15.57964">
        <ele>10.48164</ele>
        <time>2020-07-16T01:45:56.364Z</time>
      </trkpt>
      <trkpt lat="68.84897" lon="15.57857">
        <ele>11.340873</ele>
        <time>2020-07-16T01:46:10.791Z</time>
      </trkpt>
      <trkpt lat="68.84961" lon="15.5771">
        <ele>12.833398</ele>
        <time>2020-07-16T01:46:30.576Z</time>
      </trkpt>
      <trkpt lat="68.8503" lon="15.57551">
        <ele>14.352839</ele>
        <time>2020-07-16T01:46:51.939Z</time>
      </trkpt>
      <trkpt lat="68.85058" lon="15.57486">
        <ele>14.824859</ele>
        <time>2020-07-16T01:47:00.244Z</time>
      </trkpt>
      <trkpt lat="68.85107" lon="15.57375">
        <ele>15.64281</ele>
        <time>2020-07-16T01:47:14.525Z</time>
      </trkpt>
      <trkpt lat="68.8516" lon="15.57253">
        <ele>16.454108</ele>
        <time>2020-07-16T01:47:28.700Z</time>
      </trkpt>
      <trkpt lat="68.85202" lon="15.57157">
        <ele>16.433867</ele>
        <time>2020-07-16T01:47:39.415Z</time>
      </trkpt>
      <trkpt lat="68.85277" lon="15.56985">
        <ele>16.397822</ele>
        <time>2020-07-16T01:47:56.065Z</time>
      </trkpt>
      <trkpt lat="68.85318" lon="15.5689">
        <ele>16.126843</ele>
        <time>2020-07-16T01:48:04.683Z</time>
      </trkpt>
      <trkpt lat="68.85346" lon="15.56826">
        <ele>15.820431</ele>
        <time>2020-07-16T01:48:10.256Z</time>
      </trkpt>
      <trkpt lat="68.85396" lon="15.56713">
        <ele>15.277358</ele>
        <time>2020-07-16T01:48:20.162Z</time>
      </trkpt>
      <trkpt lat="68.85468" lon="15.56545">
        <ele>14.611492</ele>
        <time>2020-07-16T01:48:35.164Z</time>
      </trkpt>
      <trkpt lat="68.85494" lon="15.56485">
        <ele>14.424754</ele>
        <time>2020-07-16T01:48:40.639Z</time>
      </trkpt>
      <trkpt lat="68.8553" lon="15.56401">
        <ele>14.164839</ele>
        <time>2020-07-16T01:48:48.427Z</time>
      </trkpt>
      <trkpt lat="68.85532" lon="15.56397">
        <ele>14.150773</ele>
        <time>2020-07-16T01:48:48.849Z</time>
      </trkpt>
      <trkpt lat="68.85537" lon="15.56386">
        <ele>14.117476</ele>
        <time>2020-07-16T01:48:49.839Z</time>
      </trkpt>
      <trkpt lat="68.85607" lon="15.56222">
        <ele>13.690864</ele>
        <time>2020-07-16T01:49:05.166Z</time>
      </trkpt>
      <trkpt lat="68.85623" lon="15.56184">
        <ele>13.607601</ele>
        <time>2020-07-16T01:49:08.889Z</time>
      </trkpt>
      <trkpt lat="68.85645" lon="15.56139">
        <ele>13.505161</ele>
        <time>2020-07-16T01:49:13.518Z</time>
      </trkpt>
      <trkpt lat="68.8566" lon="15.56107">
        <ele>13.429923</ele>
        <time>2020-07-16T01:49:16.962Z</time>
      </trkpt>
      <trkpt lat="68.85725" lon="15.56002">
        <ele>13.030344</ele>
        <time>2020-07-16T01:49:29.507Z</time>
      </trkpt>
      <trkpt lat="68.85787" lon="15.55962">
        <ele>12.038091</ele>
        <time>2020-07-16T01:49:39.291Z</time>
      </trkpt>
      <trkpt lat="68.85806" lon="15.55956">
        <ele>11.734436</ele>
        <time>2020-07-16T01:49:42.274Z</time>
      </trkpt>
      <trkpt lat="68.85833" lon="15.55948">
        <ele>11.311183</ele>
        <time>2020-07-16T01:49:46.216Z</time>
      </trkpt>
      <trkpt lat="68.85856" lon="15.55936">
        <ele>10.940645</ele>
        <time>2020-07-16T01:49:49.470Z</time>
      </trkpt>
      <trkpt lat="68.85906" lon="15.55901">
        <ele>9.957974</ele>
        <time>2020-07-16T01:49:56.489Z</time>
      </trkpt>
      <trkpt lat="68.8596" lon="15.5586">
        <ele>8.394066</ele>
        <time>2020-07-16T01:50:03.872Z</time>
      </trkpt>
      <trkpt lat="68.85991" lon="15.55837">
        <ele>7.50747</ele>
        <time>2020-07-16T01:50:08.069Z</time>
      </trkpt>
      <trkpt lat="68.86018" lon="15.55812">
        <ele>6.708887</ele>
        <time>2020-07-16T01:50:11.869Z</time>
      </trkpt>
      <trkpt lat="68.8603" lon="15.558">
        <ele>6.357634</ele>
        <time>2020-07-16T01:50:13.524Z</time>
      </trkpt>
      <trkpt lat="68.86136" lon="15.55678">
        <ele>4.038822</ele>
        <time>2020-07-16T01:50:29.258Z</time>
      </trkpt>
      <trkpt lat="68.86151" lon="15.55663">
        <ele>3.775454</ele>
        <time>2020-07-16T01:50:31.535Z</time>
      </trkpt>
      <trkpt lat="68.86174" lon="15.5564">
        <ele>3.356348</ele>
        <time>2020-07-16T01:50:35.312Z</time>
      </trkpt>
      <trkpt lat="68.86193" lon="15.55624">
        <ele>3.032274</ele>
        <time>2020-07-16T01:50:38.328Z</time>
      </trkpt>
      <trkpt lat="68.86214" lon="15.55607">
        <ele>2.67262</ele>
        <time>2020-07-16T01:50:41.737Z</time>
      </trkpt>
      <trkpt lat="68.86257" lon="15.55592">
        <ele>2.297375</ele>
        <time>2020-07-16T01:50:48.855Z</time>
      </trkpt>
      <trkpt lat="68.86271" lon="15.55593">
        <ele>2.267674</ele>
        <time>2020-07-16T01:50:51.105Z</time>
      </trkpt>
      <trkpt lat="68.86297" lon="15.55597">
        <ele>2.20883</ele>
        <time>2020-07-16T01:50:55.464Z</time>
      </trkpt>
      <trkpt lat="68.86364" lon="15.55615">
        <ele>2.058728</ele>
        <time>2020-07-16T01:51:07.443Z</time>
      </trkpt>
      <trkpt lat="68.86454" lon="15.55638">
        <ele>1.965692</ele>
        <time>2020-07-16T01:51:23.624Z</time>
      </trkpt>
      <trkpt lat="68.86513" lon="15.55669">
        <ele>1.985702</ele>
        <time>2020-07-16T01:51:34.289Z</time>
      </trkpt>
      <trkpt lat="68.8654" lon="15.55693">
        <ele>1.995268</ele>
        <time>2020-07-16T01:51:39.364Z</time>
      </trkpt>
      <trkpt lat="68.86585" lon="15.55733">
        <ele>2.011013</ele>
        <time>2020-07-16T01:51:47.842Z</time>
      </trkpt>
      <trkpt lat="68.86657" lon="15.55795">
        <ele>2.252628</ele>
        <time>2020-07-16T01:52:01.701Z</time>
      </trkpt>
      <trkpt lat="68.86683" lon="15.55817">
        <ele>2.341512</ele>
        <time>2020-07-16T01:52:06.927Z</time>
      </trkpt>
      <trkpt lat="68.86747" lon="15.55871">
        <ele>2.560427</ele>
        <time>2020-07-16T01:52:20.036Z</time>
      </trkpt>
      <trkpt lat="68.86764" lon="15.55887">
        <ele>2.624668</ele>
        <time>2020-07-16T01:52:23.479Z</time>
      </trkpt>
      <trkpt lat="68.86773" lon="15.55897">
        <ele>2.661103</ele>
        <time>2020-07-16T01:52:25.329Z</time>
      </trkpt>
      <trkpt lat="68.8678" lon="15.55905">
        <ele>2.691879</ele>
        <time>2020-07-16T01:52:26.846Z</time>
      </trkpt>
      <trkpt lat="68.86793" lon="15.55921">
        <ele>2.748501</ele>
        <time>2020-07-16T01:52:29.462Z</time>
      </trkpt>
      <trkpt lat="68.86854" lon="15.56002">
        <ele>3.018783</ele>
        <time>2020-07-16T01:52:42.418Z</time>
      </trkpt>
      <trkpt lat="68.86891" lon="15.56048">
        <ele>3.180645</ele>
        <time>2020-07-16T01:52:50.155Z</time>
      </trkpt>
      <trkpt lat="68.869" lon="15.56056">
        <ele>3.21667</ele>
        <time>2020-07-16T01:52:51.891Z</time>
      </trkpt>
      <trkpt lat="68.86923" lon="15.56079">
        <ele>3.312649</ele>
        <time>2020-07-16T01:52:56.545Z</time>
      </trkpt>
      <trkpt lat="68.86946" lon="15.56095">
        <ele>3.492809</ele>
        <time>2020-07-16T01:53:00.991Z</time>
      </trkpt>
      <trkpt lat="68.86991" lon="15.56129">
        <ele>3.854826</ele>
        <time>2020-07-16T01:53:10.108Z</time>
      </trkpt>
      <trkpt lat="68.87005" lon="15.5614">
        <ele>3.965228</ele>
        <time>2020-07-16T01:53:12.919Z</time>
      </trkpt>
      <trkpt lat="68.87105" lon="15.56236">
        <ele>4.806927</ele>
        <time>2020-07-16T01:53:35.383Z</time>
      </trkpt>
      <trkpt lat="68.872" lon="15.56328">
        <ele>5.823026</ele>
        <time>2020-07-16T01:53:56.891Z</time>
      </trkpt>
      <trkpt lat="68.8724" lon="15.56366">
        <ele>6.250013</ele>
        <time>2020-07-16T01:54:05.744Z</time>
      </trkpt>
      <trkpt lat="68.87327" lon="15.56451">
        <ele>7.084462</ele>
        <time>2020-07-16T01:54:24.768Z</time>
      </trkpt>
      <trkpt lat="68.87618" lon="15.56734">
        <ele>9.571503</ele>
        <time>2020-07-16T01:55:27.998Z</time>
      </trkpt>
      <trkpt lat="68.87708" lon="15.56811">
        <ele>9.842134</ele>
        <time>2020-07-16T01:55:46.596Z</time>
      </trkpt>
      <trkpt lat="68.87856" lon="15.56885">
        <ele>9.362437</ele>
        <time>2020-07-16T01:56:12.430Z</time>
      </trkpt>
      <trkpt lat="68.87921" lon="15.56915">
        <ele>8.792907</ele>
        <time>2020-07-16T01:56:22.420Z</time>
      </trkpt>
      <trkpt lat="68.88137" lon="15.57017">
        <ele>5.906774</ele>
        <time>2020-07-16T01:56:54.321Z</time>
      </trkpt>
      <trkpt lat="68.8828" lon="15.57083">
        <ele>5.913202</ele>
        <time>2020-07-16T01:57:20.183Z</time>
      </trkpt>
      <trkpt lat="68.88358" lon="15.57121">
        <ele>6.43903</ele>
        <time>2020-07-16T01:57:36.872Z</time>
      </trkpt>
      <trkpt lat="68.88575" lon="15.5722">
        <ele>9.044274</ele>
        <time>2020-07-16T01:58:24.373Z</time>
      </trkpt>
      <trkpt lat="68.8866" lon="15.57279">
        <ele>10.210783</ele>
        <time>2020-07-16T01:58:44.046Z</time>
      </trkpt>
      <trkpt lat="68.88742" lon="15.57392">
        <ele>11.120726</ele>
        <time>2020-07-16T01:59:05.138Z</time>
      </trkpt>
      <trkpt lat="68.88793" lon="15.57493">
        <ele>11.724443</ele>
        <time>2020-07-16T01:59:17.961Z</time>
      </trkpt>
      <trkpt lat="68.88831" lon="15.57587">
        <ele>11.827661</ele>
        <time>2020-07-16T01:59:27.288Z</time>
      </trkpt>
      <trkpt lat="68.88926" lon="15.5792">
        <ele>10.515209</ele>
        <time>2020-07-16T01:59:50.808Z</time>
      </trkpt>
      <trkpt lat="68.88938" lon="15.57982">
        <ele>10.277831</ele>
        <time>2020-07-16T01:59:54.563Z</time>
      </trkpt>
      <trkpt lat="68.88944" lon="15.58049">
        <ele>10.045309</ele>
        <time>2020-07-16T01:59:58.227Z</time>
      </trkpt>
      <trkpt lat="68.88942" lon="15.5813">
        <ele>9.768892</ele>
        <time>2020-07-16T02:00:02.773Z</time>
      </trkpt>
      <trkpt lat="68.88929" lon="15.58227">
        <ele>9.412122</ele>
        <time>2020-07-16T02:00:08.769Z</time>
      </trkpt>
      <trkpt lat="68.88862" lon="15.58421">
        <ele>8.589967</ele>
        <time>2020-07-16T02:00:24.037Z</time>
      </trkpt>
      <trkpt lat="68.88848" lon="15.58459">
        <ele>8.466158</ele>
        <time>2020-07-16T02:00:27.361Z</time>
      </trkpt>
      <trkpt lat="68.8877" lon="15.58663">
        <ele>7.800377</ele>
        <time>2020-07-16T02:00:44.797Z</time>
      </trkpt>
      <trkpt lat="68.88725" lon="15.58799">
        <ele>7.711213</ele>
        <time>2020-07-16T02:00:55.384Z</time>
      </trkpt>
      <trkpt lat="68.88666" lon="15.59028">
        <ele>7.872335</ele>
        <time>2020-07-16T02:01:13.866Z</time>
      </trkpt>
      <trkpt lat="68.88642" lon="15.5909">
        <ele>7.923293</ele>
        <time>2020-07-16T02:01:20.623Z</time>
      </trkpt>
      <trkpt lat="68.88597" lon="15.59149">
        <ele>8.530187</ele>
        <time>2020-07-16T02:01:31.684Z</time>
      </trkpt>
      <trkpt lat="68.88448" lon="15.59292">
        <ele>10.267101</ele>
        <time>2020-07-16T02:02:07.498Z</time>
      </trkpt>
      <trkpt lat="68.88413" lon="15.59351">
        <ele>10.192519</ele>
        <time>2020-07-16T02:02:15.609Z</time>
      </trkpt>
      <trkpt lat="68.88391" lon="15.59419">
        <ele>10.13376</ele>
        <time>2020-07-16T02:02:21.402Z</time>
      </trkpt>
      <trkpt lat="68.88383" lon="15.59474">
        <ele>10.094872</ele>
        <time>2020-07-16T02:02:24.945Z</time>
      </trkpt>
      <trkpt lat="68.88379" lon="15.59544">
        <ele>10.049039</ele>
        <time>2020-07-16T02:02:28.943Z</time>
      </trkpt>
      <trkpt lat="68.88382" lon="15.59604">
        <ele>10.009711</ele>
        <time>2020-07-16T02:02:32.256Z</time>
      </trkpt>
      <trkpt lat="68.88398" lon="15.59745">
        <ele>9.372253</ele>
        <time>2020-07-16T02:02:39.958Z</time>
      </trkpt>
      <trkpt lat="68.884" lon="15.59822">
        <ele>8.945049</ele>
        <time>2020-07-16T02:02:43.883Z</time>
      </trkpt>
      <trkpt lat="68.88395" lon="15.60008">
        <ele>7.905586</ele>
        <time>2020-07-16T02:02:53.527Z</time>
      </trkpt>
      <trkpt lat="68.88403" lon="15.6014">
        <ele>7.192617</ele>
        <time>2020-07-16T02:03:00.774Z</time>
      </trkpt>
      <trkpt lat="68.88423" lon="15.60311">
        <ele>6.867215</ele>
        <time>2020-07-16T02:03:10.943Z</time>
      </trkpt>
      <trkpt lat="68.88433" lon="15.60406">
        <ele>6.687658</ele>
        <time>2020-07-16T02:03:16.916Z</time>
      </trkpt>
      <trkpt lat="68.88535" lon="15.6131">
        <ele>5.88522</ele>
        <time>2020-07-16T02:04:17.918Z</time>
      </trkpt>
      <trkpt lat="68.88571" lon="15.62145">
        <ele>3.380147</ele>
        <time>2020-07-16T02:05:05.173Z</time>
      </trkpt>
      <trkpt lat="68.88579" lon="15.62207">
        <ele>3.123612</ele>
        <time>2020-07-16T02:05:08.676Z</time>
      </trkpt>
      <trkpt lat="68.88595" lon="15.62283">
        <ele>2.778601</ele>
        <time>2020-07-16T02:05:13.315Z</time>
      </trkpt>
      <trkpt lat="68.8863" lon="15.62358">
        <ele>2.30575</ele>
        <time>2020-07-16T02:05:19.833Z</time>
      </trkpt>
      <trkpt lat="68.88642" lon="15.62373">
        <ele>2.161191</ele>
        <time>2020-07-16T02:05:21.785Z</time>
      </trkpt>
      <trkpt lat="68.88655" lon="15.62385">
        <ele>2.008742</ele>
        <time>2020-07-16T02:05:23.979Z</time>
      </trkpt>
      <trkpt lat="68.88679" lon="15.62397">
        <ele>1.75511</ele>
        <time>2020-07-16T02:05:27.635Z</time>
      </trkpt>
      <trkpt lat="68.88732" lon="15.62407">
        <ele>2.605067</ele>
        <time>2020-07-16T02:05:37.541Z</time>
      </trkpt>
      <trkpt lat="68.88745" lon="15.6241">
        <ele>2.829978</ele>
        <time>2020-07-16T02:05:40.385Z</time>
      </trkpt>
      <trkpt lat="68.88753" lon="15.62412">
        <ele>2.965925</ele>
        <time>2020-07-16T02:05:42.061Z</time>
      </trkpt>
      <trkpt lat="68.88768" lon="15.62415">
        <ele>3.210943</ele>
        <time>2020-07-16T02:05:45.484Z</time>
      </trkpt>
      <trkpt lat="68.8883" lon="15.62429">
        <ele>4.258205</ele>
        <time>2020-07-16T02:06:01.339Z</time>
      </trkpt>
      <trkpt lat="68.88886" lon="15.6244">
        <ele>5.828271</ele>
        <time>2020-07-16T02:06:17.961Z</time>
      </trkpt>
      <trkpt lat="68.88944" lon="15.62438">
        <ele>8.156523</ele>
        <time>2020-07-16T02:06:36.337Z</time>
      </trkpt>
      <trkpt lat="68.89011" lon="15.62408">
        <ele>10.877491</ele>
        <time>2020-07-16T02:06:58.357Z</time>
      </trkpt>
      <trkpt lat="68.89079" lon="15.62344">
        <ele>13.121206</ele>
        <time>2020-07-16T02:07:19.638Z</time>
      </trkpt>
      <trkpt lat="68.89123" lon="15.62282">
        <ele>14.375165</ele>
        <time>2020-07-16T02:07:33.028Z</time>
      </trkpt>
      <trkpt lat="68.89193" lon="15.62139">
        <ele>16.56611</ele>
        <time>2020-07-16T02:07:54.184Z</time>
      </trkpt>
      <trkpt lat="68.8933" lon="15.61729">
        <ele>17.590972</ele>
        <time>2020-07-16T02:08:33.240Z</time>
      </trkpt>
      <trkpt lat="68.894" lon="15.61557">
        <ele>17.189865</ele>
        <time>2020-07-16T02:08:49.051Z</time>
      </trkpt>
      <trkpt lat="68.89494" lon="15.61405">
        <ele>16.319455</ele>
        <time>2020-07-16T02:09:05.929Z</time>
      </trkpt>
      <trkpt lat="68.89567" lon="15.61332">
        <ele>15.291654</ele>
        <time>2020-07-16T02:09:17.350Z</time>
      </trkpt>
      <trkpt lat="68.89644" lon="15.61288">
        <ele>14.284499</ele>
        <time>2020-07-16T02:09:28.942Z</time>
      </trkpt>
      <trkpt lat="68.89703" lon="15.61278">
        <ele>13.636511</ele>
        <time>2020-07-16T02:09:37.547Z</time>
      </trkpt>
      <trkpt lat="68.90324" lon="15.61322">
        <ele>7.154162</ele>
        <time>2020-07-16T02:11:13.524Z</time>
      </trkpt>
      <trkpt lat="68.90447" lon="15.61317">
        <ele>7.467712</ele>
        <time>2020-07-16T02:11:34.909Z</time>
      </trkpt>
      <trkpt lat="68.90463" lon="15.61317">
        <ele>7.540199</ele>
        <time>2020-07-16T02:11:38.104Z</time>
      </trkpt>
      <trkpt lat="68.9051" lon="15.61314">
        <ele>7.750933</ele>
        <time>2020-07-16T02:11:47.932Z</time>
      </trkpt>
      <trkpt lat="68.9094" lon="15.61369">
        <ele>16.452277</ele>
        <time>2020-07-16T02:13:36.734Z</time>
      </trkpt>
      <trkpt lat="68.91266" lon="15.61358">
        <ele>18.381161</ele>
        <time>2020-07-16T02:14:37.886Z</time>
      </trkpt>
      <trkpt lat="68.91353" lon="15.6137">
        <ele>19.041531</ele>
        <time>2020-07-16T02:14:55.800Z</time>
      </trkpt>
      <trkpt lat="68.91497" lon="15.61424">
        <ele>20.172766</ele>
        <time>2020-07-16T02:15:26.035Z</time>
      </trkpt>
      <trkpt lat="68.91536" lon="15.61442">
        <ele>20.489096</ele>
        <time>2020-07-16T02:15:34.169Z</time>
      </trkpt>
      <trkpt lat="68.91576" lon="15.61466">
        <ele>20.814005</ele>
        <time>2020-07-16T02:15:42.519Z</time>
      </trkpt>
      <trkpt lat="68.91644" lon="15.61509">
        <ele>21.092938</ele>
        <time>2020-07-16T02:15:56.221Z</time>
      </trkpt>
      <trkpt lat="68.91719" lon="15.61556">
        <ele>21.261551</ele>
        <time>2020-07-16T02:16:10.671Z</time>
      </trkpt>
      <trkpt lat="68.91977" lon="15.61718">
        <ele>20.488371</ele>
        <time>2020-07-16T02:16:56.209Z</time>
      </trkpt>
      <trkpt lat="68.92045" lon="15.61761">
        <ele>19.398535</ele>
        <time>2020-07-16T02:17:06.810Z</time>
      </trkpt>
      <trkpt lat="68.92218" lon="15.61871">
        <ele>15.594956</ele>
        <time>2020-07-16T02:17:31.079Z</time>
      </trkpt>
      <trkpt lat="68.92253" lon="15.61895">
        <ele>14.650699</ele>
        <time>2020-07-16T02:17:35.822Z</time>
      </trkpt>
      <trkpt lat="68.92267" lon="15.61907">
        <ele>14.255279</ele>
        <time>2020-07-16T02:17:37.725Z</time>
      </trkpt>
      <trkpt lat="68.92342" lon="15.61977">
        <ele>12.775483</ele>
        <time>2020-07-16T02:17:48.427Z</time>
      </trkpt>
      <trkpt lat="68.9242" lon="15.62062">
        <ele>11.622236</ele>
        <time>2020-07-16T02:18:00.476Z</time>
      </trkpt>
      <trkpt lat="68.92706" lon="15.62563">
        <ele>12.42122</ele>
        <time>2020-07-16T02:19:06.181Z</time>
      </trkpt>
      <trkpt lat="68.92787" lon="15.6267">
        <ele>12.895535</ele>
        <time>2020-07-16T02:19:24.885Z</time>
      </trkpt>
      <trkpt lat="68.92873" lon="15.62755">
        <ele>13.082103</ele>
        <time>2020-07-16T02:19:42.178Z</time>
      </trkpt>
      <trkpt lat="68.92939" lon="15.62817">
        <ele>13.223612</ele>
        <time>2020-07-16T02:19:54.328Z</time>
      </trkpt>
      <trkpt lat="68.93021" lon="15.62894">
        <ele>13.086653</ele>
        <time>2020-07-16T02:20:08.629Z</time>
      </trkpt>
      <trkpt lat="68.93241" lon="15.631">
        <ele>13.205221</ele>
        <time>2020-07-16T02:20:50.266Z</time>
      </trkpt>
      <trkpt lat="68.93398" lon="15.63249">
        <ele>13.673819</ele>
        <time>2020-07-16T02:21:23.334Z</time>
      </trkpt>
      <trkpt lat="68.93601" lon="15.6344">
        <ele>13.366346</ele>
        <time>2020-07-16T02:22:00.170Z</time>
      </trkpt>
      <trkpt lat="68.93856" lon="15.63679">
        <ele>12.382206</ele>
        <time>2020-07-16T02:22:43.362Z</time>
      </trkpt>
      <trkpt lat="68.93932" lon="15.63768">
        <ele>12.6236</ele>
        <time>2020-07-16T02:22:59.978Z</time>
      </trkpt>
      <trkpt lat="68.94068" lon="15.63971">
        <ele>13.914987</ele>
        <time>2020-07-16T02:23:33.679Z</time>
      </trkpt>
      <trkpt lat="68.94115" lon="15.64042">
        <ele>14.438573</ele>
        <time>2020-07-16T02:23:44.542Z</time>
      </trkpt>
      <trkpt lat="68.94172" lon="15.64099">
        <ele>14.370222</ele>
        <time>2020-07-16T02:23:55.529Z</time>
      </trkpt>
      <trkpt lat="68.94313" lon="15.64188">
        <ele>14.16892</ele>
        <time>2020-07-16T02:24:19.715Z</time>
      </trkpt>
      <trkpt lat="68.94555" lon="15.64416">
        <ele>13.593002</ele>
        <time>2020-07-16T02:25:03.870Z</time>
      </trkpt>
      <trkpt lat="68.94594" lon="15.64453">
        <ele>13.509389</ele>
        <time>2020-07-16T02:25:11.014Z</time>
      </trkpt>
      <trkpt lat="68.94636" lon="15.64493">
        <ele>13.43091</ele>
        <time>2020-07-16T02:25:18.738Z</time>
      </trkpt>
      <trkpt lat="68.94646" lon="15.64503">
        <ele>13.431155</ele>
        <time>2020-07-16T02:25:20.504Z</time>
      </trkpt>
      <trkpt lat="68.94691" lon="15.64546">
        <ele>13.432306</ele>
        <time>2020-07-16T02:25:28.772Z</time>
      </trkpt>
      <trkpt lat="68.94749" lon="15.64601">
        <ele>13.433769</ele>
        <time>2020-07-16T02:25:39.438Z</time>
      </trkpt>
      <trkpt lat="68.94786" lon="15.64637">
        <ele>13.434714</ele>
        <time>2020-07-16T02:25:46.696Z</time>
      </trkpt>
      <trkpt lat="68.94825" lon="15.64684">
        <ele>13.601508</ele>
        <time>2020-07-16T02:25:54.778Z</time>
      </trkpt>
      <trkpt lat="68.94853" lon="15.6474">
        <ele>13.806884</ele>
        <time>2020-07-16T02:26:01.385Z</time>
      </trkpt>
      <trkpt lat="68.94861" lon="15.64765">
        <ele>13.878767</ele>
        <time>2020-07-16T02:26:03.651Z</time>
      </trkpt>
      <trkpt lat="68.94871" lon="15.64806">
        <ele>13.988973</ele>
        <time>2020-07-16T02:26:07.358Z</time>
      </trkpt>
      <trkpt lat="68.94876" lon="15.64825">
        <ele>14.037839</ele>
        <time>2020-07-16T02:26:08.920Z</time>
      </trkpt>
      <trkpt lat="68.94934" lon="15.65149">
        <ele>14.963161</ele>
        <time>2020-07-16T02:26:35.572Z</time>
      </trkpt>
      <trkpt lat="68.94995" lon="15.65494">
        <ele>16.151623</ele>
        <time>2020-07-16T02:27:04.487Z</time>
      </trkpt>
      <trkpt lat="68.95012" lon="15.65586">
        <ele>16.342061</ele>
        <time>2020-07-16T02:27:12.080Z</time>
      </trkpt>
      <trkpt lat="68.95016" lon="15.65607">
        <ele>16.384435</ele>
        <time>2020-07-16T02:27:13.770Z</time>
      </trkpt>
      <trkpt lat="68.95024" lon="15.6565">
        <ele>16.47422</ele>
        <time>2020-07-16T02:27:17.356Z</time>
      </trkpt>
      <trkpt lat="68.95026" lon="15.65663">
        <ele>16.502227</ele>
        <time>2020-07-16T02:27:18.420Z</time>
      </trkpt>
      <trkpt lat="68.95033" lon="15.657">
        <ele>16.577717</ele>
        <time>2020-07-16T02:27:21.430Z</time>
      </trkpt>
      <trkpt lat="68.95071" lon="15.65926">
        <ele>17.012833</ele>
        <time>2020-07-16T02:27:38.692Z</time>
      </trkpt>
      <trkpt lat="68.95097" lon="15.66037">
        <ele>16.336319</ele>
        <time>2020-07-16T02:27:46.342Z</time>
      </trkpt>
      <trkpt lat="68.95113" lon="15.66095">
        <ele>15.953755</ele>
        <time>2020-07-16T02:27:50.449Z</time>
      </trkpt>
      <trkpt lat="68.95126" lon="15.66135">
        <ele>15.676246</ele>
        <time>2020-07-16T02:27:53.216Z</time>
      </trkpt>
      <trkpt lat="68.95135" lon="15.66162">
        <ele>15.483016</ele>
        <time>2020-07-16T02:27:55.274Z</time>
      </trkpt>
      <trkpt lat="68.95145" lon="15.66186">
        <ele>15.296335</ele>
        <time>2020-07-16T02:27:57.055Z</time>
      </trkpt>
      <trkpt lat="68.95157" lon="15.66217">
        <ele>15.058018</ele>
        <time>2020-07-16T02:27:59.458Z</time>
      </trkpt>
      <trkpt lat="68.95172" lon="15.6625">
        <ele>14.785041</ele>
        <time>2020-07-16T02:28:02.074Z</time>
      </trkpt>
      <trkpt lat="68.9519" lon="15.66283">
        <ele>14.483858</ele>
        <time>2020-07-16T02:28:05.051Z</time>
      </trkpt>
      <trkpt lat="68.95203" lon="15.66307">
        <ele>14.033141</ele>
        <time>2020-07-16T02:28:07.195Z</time>
      </trkpt>
      <trkpt lat="68.95285" lon="15.66406">
        <ele>11.3663</ele>
        <time>2020-07-16T02:28:18.946Z</time>
      </trkpt>
      <trkpt lat="68.95319" lon="15.66429">
        <ele>10.302585</ele>
        <time>2020-07-16T02:28:23.567Z</time>
      </trkpt>
      <trkpt lat="68.95375" lon="15.66446">
        <ele>8.654694</ele>
        <time>2020-07-16T02:28:30.898Z</time>
      </trkpt>
      <trkpt lat="68.95466" lon="15.66425">
        <ele>6.164425</ele>
        <time>2020-07-16T02:28:42.958Z</time>
      </trkpt>
      <trkpt lat="68.9557" lon="15.66342">
        <ele>3.565751</ele>
        <time>2020-07-16T02:28:57.718Z</time>
      </trkpt>
      <trkpt lat="68.95671" lon="15.6622">
        <ele>1.745423</ele>
        <time>2020-07-16T02:29:13.788Z</time>
      </trkpt>
      <trkpt lat="68.95781" lon="15.66035">
        <ele>0.638538</ele>
        <time>2020-07-16T02:29:34.109Z</time>
      </trkpt>
      <trkpt lat="68.95864" lon="15.65848">
        <ele>0.141057</ele>
        <time>2020-07-16T02:29:52.402Z</time>
      </trkpt>
      <trkpt lat="68.9595" lon="15.65591">
        <ele>0.071087</ele>
        <time>2020-07-16T02:30:14.707Z</time>
      </trkpt>
      <trkpt lat="68.96247" lon="15.64574">
        <ele>1.217797</ele>
        <time>2020-07-16T02:31:40.193Z</time>
      </trkpt>
      <trkpt lat="68.96679" lon="15.63109">
        <ele>8.993464</ele>
        <time>2020-07-16T02:34:07.777Z</time>
      </trkpt>
      <trkpt lat="68.96689" lon="15.63078">
        <ele>9.310477</ele>
        <time>2020-07-16T02:34:11.577Z</time>
      </trkpt>
      <trkpt lat="68.96738" lon="15.62941">
        <ele>10.731375</ele>
        <time>2020-07-16T02:34:28.732Z</time>
      </trkpt>
      <trkpt lat="68.96812" lon="15.62782">
        <ele>12.668511</ele>
        <time>2020-07-16T02:34:53.190Z</time>
      </trkpt>
      <trkpt lat="68.96827" lon="15.62757">
        <ele>13.044529</ele>
        <time>2020-07-16T02:34:57.855Z</time>
      </trkpt>
      <trkpt lat="68.96832" lon="15.6275">
        <ele>13.159698</ele>
        <time>2020-07-16T02:34:59.156Z</time>
      </trkpt>
      <trkpt lat="68.96852" lon="15.62724">
        <ele>13.616699</ele>
        <time>2020-07-16T02:35:04.590Z</time>
      </trkpt>
      <trkpt lat="68.96875" lon="15.62699">
        <ele>14.129586</ele>
        <time>2020-07-16T02:35:10.463Z</time>
      </trkpt>
      <trkpt lat="68.96888" lon="15.62688">
        <ele>14.418176</ele>
        <time>2020-07-16T02:35:13.982Z</time>
      </trkpt>
      <trkpt lat="68.96929" lon="15.62665">
        <ele>15.301821</ele>
        <time>2020-07-16T02:35:24.084Z</time>
      </trkpt>
      <trkpt lat="68.96989" lon="15.62664">
        <ele>15.867047</ele>
        <time>2020-07-16T02:35:37.991Z</time>
      </trkpt>
      <trkpt lat="68.97051" lon="15.62705">
        <ele>16.131971</ele>
        <time>2020-07-16T02:35:50.289Z</time>
      </trkpt>
      <trkpt lat="68.97093" lon="15.62759">
        <ele>16.327939</ele>
        <time>2020-07-16T02:35:58.367Z</time>
      </trkpt>
      <trkpt lat="68.97108" lon="15.62782">
        <ele>16.398952</ele>
        <time>2020-07-16T02:36:01.157Z</time>
      </trkpt>
      <trkpt lat="68.97132" lon="15.62822">
        <ele>16.204638</ele>
        <time>2020-07-16T02:36:05.668Z</time>
      </trkpt>
      <trkpt lat="68.97217" lon="15.6298">
        <ele>14.688456</ele>
        <time>2020-07-16T02:36:21.006Z</time>
      </trkpt>
      <trkpt lat="68.97289" lon="15.63094">
        <ele>13.279332</ele>
        <time>2020-07-16T02:36:32.617Z</time>
      </trkpt>
      <trkpt lat="68.97503" lon="15.63347">
        <ele>9.039165</ele>
        <time>2020-07-16T02:37:04.672Z</time>
      </trkpt>
      <trkpt lat="68.97569" lon="15.63437">
        <ele>8.374817</ele>
        <time>2020-07-16T02:37:16.783Z</time>
      </trkpt>
      <trkpt lat="68.97626" lon="15.63539">
        <ele>8.765034</ele>
        <time>2020-07-16T02:37:30.547Z</time>
      </trkpt>
      <trkpt lat="68.97728" lon="15.63766">
        <ele>11.226844</ele>
        <time>2020-07-16T02:38:03.757Z</time>
      </trkpt>
      <trkpt lat="68.97777" lon="15.63848">
        <ele>11.705167</ele>
        <time>2020-07-16T02:38:18.311Z</time>
      </trkpt>
      <trkpt lat="68.97858" lon="15.63928">
        <ele>12.146267</ele>
        <time>2020-07-16T02:38:37.445Z</time>
      </trkpt>
      <trkpt lat="68.98053" lon="15.64026">
        <ele>8.338459</ele>
        <time>2020-07-16T02:39:04.607Z</time>
      </trkpt>
      <trkpt lat="68.98085" lon="15.64042">
        <ele>7.453672</ele>
        <time>2020-07-16T02:39:08.623Z</time>
      </trkpt>
      <trkpt lat="68.98114" lon="15.64058">
        <ele>6.46843</ele>
        <time>2020-07-16T02:39:12.350Z</time>
      </trkpt>
      <trkpt lat="68.98123" lon="15.64064">
        <ele>6.166051</ele>
        <time>2020-07-16T02:39:13.465Z</time>
      </trkpt>
      <trkpt lat="68.98188" lon="15.64133">
        <ele>3.859696</ele>
        <time>2020-07-16T02:39:22.227Z</time>
      </trkpt>
      <trkpt lat="68.98236" lon="15.64226">
        <ele>1.916415</ele>
        <time>2020-07-16T02:39:29.951Z</time>
      </trkpt>
      <trkpt lat="68.98245" lon="15.64249">
        <ele>1.513319</ele>
        <time>2020-07-16T02:39:31.596Z</time>
      </trkpt>
      <trkpt lat="68.9825" lon="15.64261">
        <ele>1.468668</ele>
        <time>2020-07-16T02:39:32.512Z</time>
      </trkpt>
      <trkpt lat="68.98365" lon="15.64638">
        <ele>0.509454</ele>
        <time>2020-07-16T02:40:02.819Z</time>
      </trkpt>
      <trkpt lat="68.98551" lon="15.65114">
        <ele>2.033815</ele>
        <time>2020-07-16T02:40:52.455Z</time>
      </trkpt>
      <trkpt lat="68.98562" lon="15.65144">
        <ele>2.169361</ele>
        <time>2020-07-16T02:40:55.682Z</time>
      </trkpt>
      <trkpt lat="68.98586" lon="15.65215">
        <ele>2.482219</ele>
        <time>2020-07-16T02:41:03.039Z</time>
      </trkpt>
      <trkpt lat="68.98589" lon="15.65209">
        <ele>2.513951</ele>
        <time>2020-07-16T02:41:04.011Z</time>
      </trkpt>
      <trkpt lat="68.98878" lon="15.64818">
        <ele>6.072806</ele>
        <time>2020-07-16T02:42:13.057Z</time>
      </trkpt>
      <trkpt lat="68.99233" lon="15.64346">
        <ele>10.535083</ele>
        <time>2020-07-16T02:43:37.358Z</time>
      </trkpt>
      <trkpt lat="68.99309" lon="15.64244">
        <ele>11.613823</ele>
        <time>2020-07-16T02:43:56.076Z</time>
      </trkpt>
      <trkpt lat="68.99485" lon="15.64012">
        <ele>14.336802</ele>
        <time>2020-07-16T02:44:39.807Z</time>
      </trkpt>
      <trkpt lat="68.99619" lon="15.63836">
        <ele>16.277113</ele>
        <time>2020-07-16T02:45:12.356Z</time>
      </trkpt>
      <trkpt lat="68.99852" lon="15.63525">
        <ele>19.381227</ele>
        <time>2020-07-16T02:46:08.436Z</time>
      </trkpt>
      <trkpt lat="68.99919" lon="15.63439">
        <ele>20.247452</ele>
        <time>2020-07-16T02:46:24.601Z</time>
      </trkpt>
      <trkpt lat="68.99952" lon="15.63395">
        <ele>20.546689</ele>
        <time>2020-07-16T02:46:32.381Z</time>
      </trkpt>
      <trkpt lat="68.9997" lon="15.63368">
        <ele>20.670435</ele>
        <time>2020-07-16T02:46:36.707Z</time>
      </trkpt>
      <trkpt lat="68.99996" lon="15.63315">
        <ele>20.856171</ele>
        <time>2020-07-16T02:46:42.918Z</time>
      </trkpt>
      <trkpt lat="69.00004" lon="15.63286">
        <ele>20.935406</ele>
        <time>2020-07-16T02:46:45.575Z</time>
      </trkpt>
      <trkpt lat="69.00011" lon="15.63261">
        <ele>21.002809</ele>
        <time>2020-07-16T02:46:47.779Z</time>
      </trkpt>
      <trkpt lat="69.00023" lon="15.63214">
        <ele>21.122233</ele>
        <time>2020-07-16T02:46:51.754Z</time>
      </trkpt>
      <trkpt lat="69.00027" lon="15.63195">
        <ele>21.169778</ele>
        <time>2020-07-16T02:46:53.273Z</time>
      </trkpt>
      <trkpt lat="69.00038" lon="15.63142">
        <ele>21.296492</ele>
        <time>2020-07-16T02:46:57.434Z</time>
      </trkpt>
      <trkpt lat="69.00059" lon="15.63016">
        <ele>21.447993</ele>
        <time>2020-07-16T02:47:06.755Z</time>
      </trkpt>
      <trkpt lat="69.0006" lon="15.63009">
        <ele>21.443773</ele>
        <time>2020-07-16T02:47:07.227Z</time>
      </trkpt>
      <trkpt lat="69.00088" lon="15.62836">
        <ele>21.338045</ele>
        <time>2020-07-16T02:47:19.011Z</time>
      </trkpt>
      <trkpt lat="69.00133" lon="15.62553">
        <ele>21.163043</ele>
        <time>2020-07-16T02:47:37.819Z</time>
      </trkpt>
      <trkpt lat="69.00176" lon="15.62288">
        <ele>20.989354</ele>
        <time>2020-07-16T02:47:55.868Z</time>
      </trkpt>
      <trkpt lat="69.00178" lon="15.62275">
        <ele>20.980913</ele>
        <time>2020-07-16T02:47:56.747Z</time>
      </trkpt>
      <trkpt lat="69.00193" lon="15.62181">
        <ele>20.919229</ele>
        <time>2020-07-16T02:48:03.322Z</time>
      </trkpt>
      <trkpt lat="69.00212" lon="15.62064">
        <ele>20.89654</ele>
        <time>2020-07-16T02:48:11.420Z</time>
      </trkpt>
      <trkpt lat="69.00258" lon="15.61784">
        <ele>20.889572</ele>
        <time>2020-07-16T02:48:30.926Z</time>
      </trkpt>
      <trkpt lat="69.00277" lon="15.61663">
        <ele>20.89124</ele>
        <time>2020-07-16T02:48:39.804Z</time>
      </trkpt>
      <trkpt lat="69.00307" lon="15.61473">
        <ele>20.917167</ele>
        <time>2020-07-16T02:48:53.311Z</time>
      </trkpt>
      <trkpt lat="69.00336" lon="15.61299">
        <ele>20.94121</ele>
        <time>2020-07-16T02:49:05.529Z</time>
      </trkpt>
      <trkpt lat="69.00347" lon="15.6123">
        <ele>20.942826</ele>
        <time>2020-07-16T02:49:10.368Z</time>
      </trkpt>
      <trkpt lat="69.00383" lon="15.61009">
        <ele>20.567548</ele>
        <time>2020-07-16T02:49:25.239Z</time>
      </trkpt>
      <trkpt lat="69.00455" lon="15.60565">
        <ele>19.435062</ele>
        <time>2020-07-16T02:49:53.525Z</time>
      </trkpt>
      <trkpt lat="69.00693" lon="15.59099">
        <ele>14.817587</ele>
        <time>2020-07-16T02:51:23.713Z</time>
      </trkpt>
      <trkpt lat="69.00737" lon="15.58818">
        <ele>15.245833</ele>
        <time>2020-07-16T02:51:44.095Z</time>
      </trkpt>
      <trkpt lat="69.00751" lon="15.58686">
        <ele>15.953381</ele>
        <time>2020-07-16T02:51:54.714Z</time>
      </trkpt>
      <trkpt lat="69.00963" lon="15.56468">
        <ele>34.487333</ele>
        <time>2020-07-16T02:55:27.223Z</time>
      </trkpt>
      <trkpt lat="69.00974" lon="15.56327">
        <ele>33.952826</ele>
        <time>2020-07-16T02:55:36.745Z</time>
      </trkpt>
      <trkpt lat="69.00979" lon="15.55951">
        <ele>31.320137</ele>
        <time>2020-07-16T02:55:55.214Z</time>
      </trkpt>
      <trkpt lat="69.00976" lon="15.5582">
        <ele>28.856804</ele>
        <time>2020-07-16T02:56:00.915Z</time>
      </trkpt>
      <trkpt lat="69.00875" lon="15.54943">
        <ele>9.988705</ele>
        <time>2020-07-16T02:56:39.366Z</time>
      </trkpt>
      <trkpt lat="69.00866" lon="15.5484">
        <ele>8.446561</ele>
        <time>2020-07-16T02:56:44.012Z</time>
      </trkpt>
      <trkpt lat="69.00863" lon="15.54732">
        <ele>6.876141</ele>
        <time>2020-07-16T02:56:48.927Z</time>
      </trkpt>
      <trkpt lat="69.00864" lon="15.5466">
        <ele>5.831598</ele>
        <time>2020-07-16T02:56:52.302Z</time>
      </trkpt>
      <trkpt lat="69.00866" lon="15.54609">
        <ele>5.075578</ele>
        <time>2020-07-16T02:56:54.853Z</time>
      </trkpt>
      <trkpt lat="69.00866" lon="15.54572">
        <ele>4.57176</ele>
        <time>2020-07-16T02:56:56.705Z</time>
      </trkpt>
      <trkpt lat="69.0088" lon="15.54097">
        <ele>4.459873</ele>
        <time>2020-07-16T02:57:27.747Z</time>
      </trkpt>
      <trkpt lat="69.00885" lon="15.53901">
        <ele>5.161699</ele>
        <time>2020-07-16T02:57:43.630Z</time>
      </trkpt>
      <trkpt lat="69.00913" lon="15.52849">
        <ele>9.252617</ele>
        <time>2020-07-16T02:59:05.279Z</time>
      </trkpt>
      <trkpt lat="69.00922" lon="15.52723">
        <ele>9.602406</ele>
        <time>2020-07-16T02:59:14.328Z</time>
      </trkpt>
      <trkpt lat="69.00953" lon="15.5257">
        <ele>10.034545</ele>
        <time>2020-07-16T02:59:26.420Z</time>
      </trkpt>
      <trkpt lat="69.01127" lon="15.5182">
        <ele>10.820984</ele>
        <time>2020-07-16T03:00:25.908Z</time>
      </trkpt>
      <trkpt lat="69.01158" lon="15.5175">
        <ele>10.923932</ele>
        <time>2020-07-16T03:00:33.294Z</time>
      </trkpt>
      <trkpt lat="69.01218" lon="15.51683">
        <ele>11.151619</ele>
        <time>2020-07-16T03:00:45.447Z</time>
      </trkpt>
      <trkpt lat="69.01237" lon="15.51665">
        <ele>11.223721</ele>
        <time>2020-07-16T03:00:49.311Z</time>
      </trkpt>
      <trkpt lat="69.01268" lon="15.51635">
        <ele>11.338432</ele>
        <time>2020-07-16T03:00:55.509Z</time>
      </trkpt>
      <trkpt lat="69.0136" lon="15.51531">
        <ele>11.75607</ele>
        <time>2020-07-16T03:01:14.691Z</time>
      </trkpt>
      <trkpt lat="69.01503" lon="15.51313">
        <ele>12.502705</ele>
        <time>2020-07-16T03:01:46.538Z</time>
      </trkpt>
      <trkpt lat="69.01549" lon="15.51278">
        <ele>12.632556</ele>
        <time>2020-07-16T03:01:55.491Z</time>
      </trkpt>
      <trkpt lat="69.01555" lon="15.51277">
        <ele>12.648711</ele>
        <time>2020-07-16T03:01:56.674Z</time>
      </trkpt>
      <trkpt lat="69.01571" lon="15.51276">
        <ele>12.69303</ele>
        <time>2020-07-16T03:01:59.633Z</time>
      </trkpt>
      <trkpt lat="69.01614" lon="15.51284">
        <ele>12.811162</ele>
        <time>2020-07-16T03:02:07.575Z</time>
      </trkpt>
      <trkpt lat="69.01643" lon="15.51303">
        <ele>12.89176</ele>
        <time>2020-07-16T03:02:12.958Z</time>
      </trkpt>
      <trkpt lat="69.01667" lon="15.51323">
        <ele>12.922929</ele>
        <time>2020-07-16T03:02:17.552Z</time>
      </trkpt>
      <trkpt lat="69.01699" lon="15.51349">
        <ele>12.939374</ele>
        <time>2020-07-16T03:02:23.413Z</time>
      </trkpt>
      <trkpt lat="69.0185" lon="15.51484">
        <ele>13.077123</ele>
        <time>2020-07-16T03:02:51.767Z</time>
      </trkpt>
      <trkpt lat="69.0189" lon="15.51507">
        <ele>13.179105</ele>
        <time>2020-07-16T03:02:59.277Z</time>
      </trkpt>
      <trkpt lat="69.01942" lon="15.51507">
        <ele>13.311259</ele>
        <time>2020-07-16T03:03:09.153Z</time>
      </trkpt>
      <trkpt lat="69.02031" lon="15.51453">
        <ele>13.641778</ele>
        <time>2020-07-16T03:03:26.627Z</time>
      </trkpt>
      <trkpt lat="69.02077" lon="15.5145">
        <ele>13.896773</ele>
        <time>2020-07-16T03:03:35.507Z</time>
      </trkpt>
      <trkpt lat="69.02273" lon="15.51522">
        <ele>15.276704</ele>
        <time>2020-07-16T03:04:14.937Z</time>
      </trkpt>
      <trkpt lat="69.02356" lon="15.51589">
        <ele>16.001756</ele>
        <time>2020-07-16T03:04:33.105Z</time>
      </trkpt>
      <trkpt lat="69.02371" lon="15.51606">
        <ele>16.174653</ele>
        <time>2020-07-16T03:04:36.569Z</time>
      </trkpt>
      <trkpt lat="69.02392" lon="15.5163">
        <ele>16.420968</ele>
        <time>2020-07-16T03:04:41.549Z</time>
      </trkpt>
      <trkpt lat="69.0249" lon="15.51753">
        <ele>17.58077</ele>
        <time>2020-07-16T03:05:04.927Z</time>
      </trkpt>
      <trkpt lat="69.02555" lon="15.5185">
        <ele>17.986818</ele>
        <time>2020-07-16T03:05:20.258Z</time>
      </trkpt>
      <trkpt lat="69.03058" lon="15.52649">
        <ele>18.425255</ele>
        <time>2020-07-16T03:07:04.503Z</time>
      </trkpt>
      <trkpt lat="69.03235" lon="15.52881">
        <ele>17.251603</ele>
        <time>2020-07-16T03:07:36.417Z</time>
      </trkpt>
      <trkpt lat="69.03268" lon="15.52895">
        <ele>16.947545</ele>
        <time>2020-07-16T03:07:41.486Z</time>
      </trkpt>
      <trkpt lat="69.03279" lon="15.52893">
        <ele>16.847275</ele>
        <time>2020-07-16T03:07:43.158Z</time>
      </trkpt>
      <trkpt lat="69.03283" lon="15.52891">
        <ele>16.803688</ele>
        <time>2020-07-16T03:07:43.798Z</time>
      </trkpt>
      <trkpt lat="69.03312" lon="15.52859">
        <ele>16.520874</ele>
        <time>2020-07-16T03:07:48.544Z</time>
      </trkpt>
      <trkpt lat="69.03348" lon="15.52791">
        <ele>15.936046</ele>
        <time>2020-07-16T03:07:54.878Z</time>
      </trkpt>
      <trkpt lat="69.0351" lon="15.52462">
        <ele>13.532758</ele>
        <time>2020-07-16T03:08:24.689Z</time>
      </trkpt>
      <trkpt lat="69.03537" lon="15.52407">
        <ele>13.25783</ele>
        <time>2020-07-16T03:08:30.045Z</time>
      </trkpt>
      <trkpt lat="69.03579" lon="15.52318">
        <ele>12.818515</ele>
        <time>2020-07-16T03:08:38.895Z</time>
      </trkpt>
      <trkpt lat="69.03625" lon="15.52226">
        <ele>12.396098</ele>
        <time>2020-07-16T03:08:48.263Z</time>
      </trkpt>
      <trkpt lat="69.0363" lon="15.52218">
        <ele>12.361807</ele>
        <time>2020-07-16T03:08:49.171Z</time>
      </trkpt>
      <trkpt lat="69.03634" lon="15.52209">
        <ele>12.326587</ele>
        <time>2020-07-16T03:08:50.105Z</time>
      </trkpt>
      <trkpt lat="69.03666" lon="15.52142">
        <ele>12.066404</ele>
        <time>2020-07-16T03:08:56.878Z</time>
      </trkpt>
      <trkpt lat="69.03791" lon="15.51888">
        <ele>10.815071</ele>
        <time>2020-07-16T03:09:21.151Z</time>
      </trkpt>
      <trkpt lat="69.03825" lon="15.51821">
        <ele>10.328992</ele>
        <time>2020-07-16T03:09:27.410Z</time>
      </trkpt>
      <trkpt lat="69.03844" lon="15.51786">
        <ele>10.062113</ele>
        <time>2020-07-16T03:09:30.808Z</time>
      </trkpt>
      <trkpt lat="69.03857" lon="15.51764">
        <ele>9.88279</ele>
        <time>2020-07-16T03:09:33.111Z</time>
      </trkpt>
      <trkpt lat="69.03964" lon="15.51639">
        <ele>8.752624</ele>
        <time>2020-07-16T03:09:50.753Z</time>
      </trkpt>
      <trkpt lat="69.0397" lon="15.51635">
        <ele>8.702763</ele>
        <time>2020-07-16T03:09:51.614Z</time>
      </trkpt>
      <trkpt lat="69.03984" lon="15.51625">
        <ele>8.576274</ele>
        <time>2020-07-16T03:09:54.016Z</time>
      </trkpt>
      <trkpt lat="69.04001" lon="15.51615">
        <ele>8.438117</ele>
        <time>2020-07-16T03:09:56.693Z</time>
      </trkpt>
      <trkpt lat="69.04015" lon="15.51608">
        <ele>8.314627</ele>
        <time>2020-07-16T03:09:59.059Z</time>
      </trkpt>
      <trkpt lat="69.04068" lon="15.51595">
        <ele>7.876355</ele>
        <time>2020-07-16T03:10:07.743Z</time>
      </trkpt>
      <trkpt lat="69.04085" lon="15.51591">
        <ele>7.771511</ele>
        <time>2020-07-16T03:10:10.576Z</time>
      </trkpt>
      <trkpt lat="69.04132" lon="15.51579">
        <ele>7.611112</ele>
        <time>2020-07-16T03:10:18.310Z</time>
      </trkpt>
      <trkpt lat="69.04165" lon="15.5157">
        <ele>7.494047</ele>
        <time>2020-07-16T03:10:24.076Z</time>
      </trkpt>
      <trkpt lat="69.0417" lon="15.51569">
        <ele>7.479541</ele>
        <time>2020-07-16T03:10:24.809Z</time>
      </trkpt>
      <trkpt lat="69.04203" lon="15.51559">
        <ele>7.365895</ele>
        <time>2020-07-16T03:10:30.431Z</time>
      </trkpt>
      <trkpt lat="69.04233" lon="15.51552">
        <ele>7.261045</ele>
        <time>2020-07-16T03:10:35.645Z</time>
      </trkpt>
      <trkpt lat="69.04238" lon="15.5155">
        <ele>7.242068</ele>
        <time>2020-07-16T03:10:36.593Z</time>
      </trkpt>
      <trkpt lat="69.04295" lon="15.51538">
        <ele>7.105284</ele>
        <time>2020-07-16T03:10:46.387Z</time>
      </trkpt>
      <trkpt lat="69.04347" lon="15.5153">
        <ele>7.004045</ele>
        <time>2020-07-16T03:10:55.273Z</time>
      </trkpt>
      <trkpt lat="69.04376" lon="15.51527">
        <ele>6.947641</ele>
        <time>2020-07-16T03:11:00.215Z</time>
      </trkpt>
      <trkpt lat="69.04391" lon="15.51527">
        <ele>6.917987</ele>
        <time>2020-07-16T03:11:02.824Z</time>
      </trkpt>
      <trkpt lat="69.0444" lon="15.51527">
        <ele>6.843327</ele>
        <time>2020-07-16T03:11:11.232Z</time>
      </trkpt>
      <trkpt lat="69.04443" lon="15.51528">
        <ele>6.852401</ele>
        <time>2020-07-16T03:11:11.842Z</time>
      </trkpt>
      <trkpt lat="69.04506" lon="15.51537">
        <ele>7.014739</ele>
        <time>2020-07-16T03:11:23.034Z</time>
      </trkpt>
      <trkpt lat="69.04569" lon="15.51561">
        <ele>7.178495</ele>
        <time>2020-07-16T03:11:34.868Z</time>
      </trkpt>
      <trkpt lat="69.04596" lon="15.51579">
        <ele>7.252468</ele>
        <time>2020-07-16T03:11:40.522Z</time>
      </trkpt>
      <trkpt lat="69.04613" lon="15.51592">
        <ele>7.296932</ele>
        <time>2020-07-16T03:11:43.941Z</time>
      </trkpt>
      <trkpt lat="69.04633" lon="15.51611">
        <ele>7.533484</ele>
        <time>2020-07-16T03:11:48.264Z</time>
      </trkpt>
      <trkpt lat="69.04665" lon="15.51645">
        <ele>7.925105</ele>
        <time>2020-07-16T03:11:55.470Z</time>
      </trkpt>
      <trkpt lat="69.0468" lon="15.51661">
        <ele>8.103574</ele>
        <time>2020-07-16T03:11:58.800Z</time>
      </trkpt>
      <trkpt lat="69.04704" lon="15.51694">
        <ele>8.407954</ele>
        <time>2020-07-16T03:12:04.591Z</time>
      </trkpt>
      <trkpt lat="69.04724" lon="15.51724">
        <ele>8.666774</ele>
        <time>2020-07-16T03:12:09.466Z</time>
      </trkpt>
      <trkpt lat="69.04731" lon="15.51736">
        <ele>8.759439</ele>
        <time>2020-07-16T03:12:11.410Z</time>
      </trkpt>
      <trkpt lat="69.04753" lon="15.51776">
        <ele>9.054198</ele>
        <time>2020-07-16T03:12:17.044Z</time>
      </trkpt>
      <trkpt lat="69.04781" lon="15.51836">
        <ele>9.500968</ele>
        <time>2020-07-16T03:12:25.235Z</time>
      </trkpt>
      <trkpt lat="69.04786" lon="15.51846">
        <ele>9.587181</ele>
        <time>2020-07-16T03:12:26.541Z</time>
      </trkpt>
      <trkpt lat="69.04877" lon="15.52045">
        <ele>11.333523</ele>
        <time>2020-07-16T03:12:52.701Z</time>
      </trkpt>
      <trkpt lat="69.0489" lon="15.52074">
        <ele>11.589971</ele>
        <time>2020-07-16T03:12:56.627Z</time>
      </trkpt>
      <trkpt lat="69.05023" lon="15.52351">
        <ele>14.129411</ele>
        <time>2020-07-16T03:13:34.187Z</time>
      </trkpt>
      <trkpt lat="69.05207" lon="15.52572">
        <ele>16.942187</ele>
        <time>2020-07-16T03:14:20.363Z</time>
      </trkpt>
      <trkpt lat="69.0546" lon="15.52748">
        <ele>17.745618</ele>
        <time>2020-07-16T03:15:10.597Z</time>
      </trkpt>
      <trkpt lat="69.0553" lon="15.52829">
        <ele>17.143721</ele>
        <time>2020-07-16T03:15:22.232Z</time>
      </trkpt>
      <trkpt lat="69.05776" lon="15.53159">
        <ele>13.108582</ele>
        <time>2020-07-16T03:16:01.130Z</time>
      </trkpt>
      <trkpt lat="69.05835" lon="15.53227">
        <ele>12.574524</ele>
        <time>2020-07-16T03:16:11.052Z</time>
      </trkpt>
      <trkpt lat="69.0649" lon="15.53831">
        <ele>13.196211</ele>
        <time>2020-07-16T03:18:16.279Z</time>
      </trkpt>
      <trkpt lat="69.06701" lon="15.54024">
        <ele>15.343105</ele>
        <time>2020-07-16T03:19:06.234Z</time>
      </trkpt>
      <trkpt lat="69.06745" lon="15.54068">
        <ele>15.84596</ele>
        <time>2020-07-16T03:19:15.681Z</time>
      </trkpt>
      <trkpt lat="69.06867" lon="15.5422">
        <ele>15.882022</ele>
        <time>2020-07-16T03:19:39.420Z</time>
      </trkpt>
      <trkpt lat="69.06948" lon="15.54374">
        <ele>15.629618</ele>
        <time>2020-07-16T03:19:55.869Z</time>
      </trkpt>
      <trkpt lat="69.07172" lon="15.5505">
        <ele>13.595668</ele>
        <time>2020-07-16T03:20:49.684Z</time>
      </trkpt>
      <trkpt lat="69.07242" lon="15.55225">
        <ele>12.319421</ele>
        <time>2020-07-16T03:21:03.567Z</time>
      </trkpt>
      <trkpt lat="69.07268" lon="15.55283">
        <ele>11.863323</ele>
        <time>2020-07-16T03:21:08.425Z</time>
      </trkpt>
      <trkpt lat="69.07325" lon="15.5541">
        <ele>10.794413</ele>
        <time>2020-07-16T03:21:18.963Z</time>
      </trkpt>
      <trkpt lat="69.07378" lon="15.55507">
        <ele>9.771598</ele>
        <time>2020-07-16T03:21:28.047Z</time>
      </trkpt>
      <trkpt lat="69.07663" lon="15.55821">
        <ele>5.461897</ele>
        <time>2020-07-16T03:22:13.542Z</time>
      </trkpt>
      <trkpt lat="69.07702" lon="15.55894">
        <ele>4.965674</ele>
        <time>2020-07-16T03:22:20.866Z</time>
      </trkpt>
      <trkpt lat="69.07739" lon="15.55991">
        <ele>4.428934</ele>
        <time>2020-07-16T03:22:28.769Z</time>
      </trkpt>
      <trkpt lat="69.07803" lon="15.56205">
        <ele>3.561696</ele>
        <time>2020-07-16T03:22:44.487Z</time>
      </trkpt>
      <trkpt lat="69.07816" lon="15.56258">
        <ele>3.389292</ele>
        <time>2020-07-16T03:22:48.243Z</time>
      </trkpt>
      <trkpt lat="69.07843" lon="15.56362">
        <ele>3.052634</ele>
        <time>2020-07-16T03:22:55.674Z</time>
      </trkpt>
      <trkpt lat="69.07858" lon="15.56415">
        <ele>2.87571</ele>
        <time>2020-07-16T03:22:59.527Z</time>
      </trkpt>
      <trkpt lat="69.07868" lon="15.56447">
        <ele>2.762971</ele>
        <time>2020-07-16T03:23:01.995Z</time>
      </trkpt>
      <trkpt lat="69.07912" lon="15.56537">
        <ele>2.421309</ele>
        <time>2020-07-16T03:23:10.621Z</time>
      </trkpt>
      <trkpt lat="69.07927" lon="15.56555">
        <ele>2.326723</ele>
        <time>2020-07-16T03:23:13.197Z</time>
      </trkpt>
      <trkpt lat="69.07944" lon="15.5657">
        <ele>2.22308</ele>
        <time>2020-07-16T03:23:16.069Z</time>
      </trkpt>
      <trkpt lat="69.07951" lon="15.56575">
        <ele>2.183728</ele>
        <time>2020-07-16T03:23:17.120Z</time>
      </trkpt>
      <trkpt lat="69.07976" lon="15.56575">
        <ele>2.037042</ele>
        <time>2020-07-16T03:23:21.284Z</time>
      </trkpt>
      <trkpt lat="69.07991" lon="15.56571">
        <ele>1.948232</ele>
        <time>2020-07-16T03:23:23.751Z</time>
      </trkpt>
      <trkpt lat="69.0805" lon="15.56547">
        <ele>1.606895</ele>
        <time>2020-07-16T03:23:33.584Z</time>
      </trkpt>
      <trkpt lat="69.08068" lon="15.56539">
        <ele>1.61981</ele>
        <time>2020-07-16T03:23:36.627Z</time>
      </trkpt>
      <trkpt lat="69.08087" lon="15.5653">
        <ele>1.633592</ele>
        <time>2020-07-16T03:23:40.055Z</time>
      </trkpt>
      <trkpt lat="69.08111" lon="15.56517">
        <ele>1.650321</ele>
        <time>2020-07-16T03:23:44.094Z</time>
      </trkpt>
      <trkpt lat="69.08199" lon="15.56443">
        <ele>1.715163</ele>
        <time>2020-07-16T03:24:01.090Z</time>
      </trkpt>
      <trkpt lat="69.08213" lon="15.56427">
        <ele>1.725799</ele>
        <time>2020-07-16T03:24:04.065Z</time>
      </trkpt>
      <trkpt lat="69.08223" lon="15.56415">
        <ele>1.734884</ele>
        <time>2020-07-16T03:24:06.247Z</time>
      </trkpt>
      <trkpt lat="69.08238" lon="15.56389">
        <ele>1.830973</ele>
        <time>2020-07-16T03:24:09.779Z</time>
      </trkpt>
      <trkpt lat="69.0825" lon="15.56367">
        <ele>1.901896</ele>
        <time>2020-07-16T03:24:12.564Z</time>
      </trkpt>
      <trkpt lat="69.0828" lon="15.56303">
        <ele>2.103231</ele>
        <time>2020-07-16T03:24:20.160Z</time>
      </trkpt>
      <trkpt lat="69.08307" lon="15.56245">
        <ele>2.283379</ele>
        <time>2020-07-16T03:24:26.957Z</time>
      </trkpt>
      <trkpt lat="69.08322" lon="15.56211">
        <ele>2.382502</ele>
        <time>2020-07-16T03:24:30.599Z</time>
      </trkpt>
      <trkpt lat="69.08333" lon="15.56181">
        <ele>2.465084</ele>
        <time>2020-07-16T03:24:33.783Z</time>
      </trkpt>
      <trkpt lat="69.08362" lon="15.56106">
        <ele>2.670643</ele>
        <time>2020-07-16T03:24:41.311Z</time>
      </trkpt>
      <trkpt lat="69.08447" lon="15.55812">
        <ele>3.31791</ele>
        <time>2020-07-16T03:25:06.565Z</time>
      </trkpt>
      <trkpt lat="69.08459" lon="15.55775">
        <ele>3.401386</ele>
        <time>2020-07-16T03:25:10.110Z</time>
      </trkpt>
      <trkpt lat="69.08474" lon="15.55732">
        <ele>3.503797</ele>
        <time>2020-07-16T03:25:14.321Z</time>
      </trkpt>
      <trkpt lat="69.08492" lon="15.55689">
        <ele>3.883126</ele>
        <time>2020-07-16T03:25:19.370Z</time>
      </trkpt>
      <trkpt lat="69.085" lon="15.55676">
        <ele>4.071219</ele>
        <time>2020-07-16T03:25:21.285Z</time>
      </trkpt>
      <trkpt lat="69.08512" lon="15.55662">
        <ele>4.330611</ele>
        <time>2020-07-16T03:25:24.209Z</time>
      </trkpt>
      <trkpt lat="69.08521" lon="15.55655">
        <ele>4.529188</ele>
        <time>2020-07-16T03:25:26.248Z</time>
      </trkpt>
      <trkpt lat="69.08535" lon="15.55648">
        <ele>4.815803</ele>
        <time>2020-07-16T03:25:29.333Z</time>
      </trkpt>
      <trkpt lat="69.08546" lon="15.55644">
        <ele>5.050388</ele>
        <time>2020-07-16T03:25:32.147Z</time>
      </trkpt>
      <trkpt lat="69.08573" lon="15.55645">
        <ele>5.596558</ele>
        <time>2020-07-16T03:25:38.313Z</time>
      </trkpt>
      <trkpt lat="69.08601" lon="15.55648">
        <ele>6.16975</ele>
        <time>2020-07-16T03:25:45.305Z</time>
      </trkpt>
      <trkpt lat="69.08606" lon="15.55648">
        <ele>6.259827</ele>
        <time>2020-07-16T03:25:46.409Z</time>
      </trkpt>
      <trkpt lat="69.08614" lon="15.55648">
        <ele>6.437788</ele>
        <time>2020-07-16T03:25:48.821Z</time>
      </trkpt>
      <trkpt lat="69.08712" lon="15.55661">
        <ele>9.655755</ele>
        <time>2020-07-16T03:26:17.087Z</time>
      </trkpt>
      <trkpt lat="69.08772" lon="15.55677">
        <ele>12.101684</ele>
        <time>2020-07-16T03:26:36.069Z</time>
      </trkpt>
      <trkpt lat="69.08791" lon="15.55699">
        <ele>12.963713</ele>
        <time>2020-07-16T03:26:42.989Z</time>
      </trkpt>
      <trkpt lat="69.08815" lon="15.55748">
        <ele>14.16458</ele>
        <time>2020-07-16T03:26:52.746Z</time>
      </trkpt>
      <trkpt lat="69.08832" lon="15.55814">
        <ele>15.194295</ele>
        <time>2020-07-16T03:27:02.583Z</time>
      </trkpt>
      <trkpt lat="69.08871" lon="15.56063">
        <ele>18.331535</ele>
        <time>2020-07-16T03:27:32.273Z</time>
      </trkpt>
      <trkpt lat="69.0891" lon="15.56222">
        <ele>20.408202</ele>
        <time>2020-07-16T03:27:48.877Z</time>
      </trkpt>
      <trkpt lat="69.08916" lon="15.56239">
        <ele>20.444436</ele>
        <time>2020-07-16T03:27:51.474Z</time>
      </trkpt>
      <trkpt lat="69.08922" lon="15.56259">
        <ele>20.487944</ele>
        <time>2020-07-16T03:27:52.789Z</time>
      </trkpt>
      <trkpt lat="69.08956" lon="15.56347">
        <ele>20.692535</ele>
        <time>2020-07-16T03:28:01.859Z</time>
      </trkpt>
      <trkpt lat="69.08985" lon="15.56404">
        <ele>20.849139</ele>
        <time>2020-07-16T03:28:08.118Z</time>
      </trkpt>
      <trkpt lat="69.09051" lon="15.56488">
        <ele>21.171051</ele>
        <time>2020-07-16T03:28:20.045Z</time>
      </trkpt>
      <trkpt lat="69.09086" lon="15.56511">
        <ele>21.897288</ele>
        <time>2020-07-16T03:28:27.604Z</time>
      </trkpt>
      <trkpt lat="69.09178" lon="15.56524">
        <ele>23.896</ele>
        <time>2020-07-16T03:28:50.831Z</time>
      </trkpt>
      <trkpt lat="69.09199" lon="15.56537">
        <ele>24.344074</ele>
        <time>2020-07-16T03:28:56.483Z</time>
      </trkpt>
      <trkpt lat="69.09204" lon="15.56545">
        <ele>24.471221</ele>
        <time>2020-07-16T03:28:58.310Z</time>
      </trkpt>
      <trkpt lat="69.09224" lon="15.56598">
        <ele>25.065304</ele>
        <time>2020-07-16T03:29:06.189Z</time>
      </trkpt>
      <trkpt lat="69.09262" lon="15.56665">
        <ele>25.88903</ele>
        <time>2020-07-16T03:29:19.492Z</time>
      </trkpt>
      <trkpt lat="69.09319" lon="15.56714">
        <ele>26.969797</ele>
        <time>2020-07-16T03:29:36.863Z</time>
      </trkpt>
      <trkpt lat="69.09415" lon="15.56906">
        <ele>27.199305</ele>
        <time>2020-07-16T03:29:57.060Z</time>
      </trkpt>
      <trkpt lat="69.0946" lon="15.56938">
        <ele>25.983987</ele>
        <time>2020-07-16T03:30:03.239Z</time>
      </trkpt>
      <trkpt lat="69.0947" lon="15.56938">
        <ele>25.710756</ele>
        <time>2020-07-16T03:30:04.722Z</time>
      </trkpt>
      <trkpt lat="69.09484" lon="15.56934">
        <ele>25.330851</ele>
        <time>2020-07-16T03:30:06.413Z</time>
      </trkpt>
      <trkpt lat="69.09512" lon="15.56912">
        <ele>24.582452</ele>
        <time>2020-07-16T03:30:10.176Z</time>
      </trkpt>
      <trkpt lat="69.09552" lon="15.56855">
        <ele>23.451893</ele>
        <time>2020-07-16T03:30:15.706Z</time>
      </trkpt>
      <trkpt lat="69.09666" lon="15.56691">
        <ele>20.926753</ele>
        <time>2020-07-16T03:30:32.480Z</time>
      </trkpt>
      <trkpt lat="69.09864" lon="15.56312">
        <ele>24.819995</ele>
        <time>2020-07-16T03:31:30.093Z</time>
      </trkpt>
      <trkpt lat="69.09887" lon="15.56279">
        <ele>26.337751</ele>
        <time>2020-07-16T03:31:39.423Z</time>
      </trkpt>
      <trkpt lat="69.09909" lon="15.56263">
        <ele>27.708592</ele>
        <time>2020-07-16T03:31:48.127Z</time>
      </trkpt>
      <trkpt lat="69.10005" lon="15.56276">
        <ele>33.351493</ele>
        <time>2020-07-16T03:32:26.667Z</time>
      </trkpt>
      <trkpt lat="69.10038" lon="15.56299">
        <ele>35.24446</ele>
        <time>2020-07-16T03:32:41.100Z</time>
      </trkpt>
      <trkpt lat="69.10114" lon="15.56475">
        <ele>40.313925</ele>
        <time>2020-07-16T03:33:18.607Z</time>
      </trkpt>
      <trkpt lat="69.10179" lon="15.56528">
        <ele>43.765539</ele>
        <time>2020-07-16T03:33:38.312Z</time>
      </trkpt>
      <trkpt lat="69.10205" lon="15.56567">
        <ele>43.831783</ele>
        <time>2020-07-16T03:33:45.591Z</time>
      </trkpt>
      <trkpt lat="69.10324" lon="15.5693">
        <ele>43.051107</ele>
        <time>2020-07-16T03:34:15.518Z</time>
      </trkpt>
      <trkpt lat="69.10363" lon="15.57102">
        <ele>40.01135</ele>
        <time>2020-07-16T03:34:24.715Z</time>
      </trkpt>
      <trkpt lat="69.10379" lon="15.57176">
        <ele>38.719622</ele>
        <time>2020-07-16T03:34:28.439Z</time>
      </trkpt>
      <trkpt lat="69.10389" lon="15.57216">
        <ele>37.999491</ele>
        <time>2020-07-16T03:34:30.448Z</time>
      </trkpt>
      <trkpt lat="69.10402" lon="15.57269">
        <ele>37.035911</ele>
        <time>2020-07-16T03:34:33.202Z</time>
      </trkpt>
      <trkpt lat="69.10429" lon="15.57376">
        <ele>34.129431</ele>
        <time>2020-07-16T03:34:38.578Z</time>
      </trkpt>
      <trkpt lat="69.10497" lon="15.57667">
        <ele>25.798736</ele>
        <time>2020-07-16T03:34:52.788Z</time>
      </trkpt>
      <trkpt lat="69.10519" lon="15.57818">
        <ele>22.83995</ele>
        <time>2020-07-16T03:34:59.652Z</time>
      </trkpt>
      <trkpt lat="69.10523" lon="15.57904">
        <ele>21.498712</ele>
        <time>2020-07-16T03:35:03.446Z</time>
      </trkpt>
      <trkpt lat="69.10523" lon="15.58021">
        <ele>19.676661</ele>
        <time>2020-07-16T03:35:08.715Z</time>
      </trkpt>
      <trkpt lat="69.10508" lon="15.58311">
        <ele>15.848504</ele>
        <time>2020-07-16T03:35:22.462Z</time>
      </trkpt>
      <trkpt lat="69.10508" lon="15.58441">
        <ele>14.734616</ele>
        <time>2020-07-16T03:35:28.779Z</time>
      </trkpt>
      <trkpt lat="69.10521" lon="15.58547">
        <ele>13.768162</ele>
        <time>2020-07-16T03:35:34.344Z</time>
      </trkpt>
      <trkpt lat="69.10584" lon="15.58839">
        <ele>11.407921</ele>
        <time>2020-07-16T03:35:51.529Z</time>
      </trkpt>
      <trkpt lat="69.10697" lon="15.59372">
        <ele>8.537174</ele>
        <time>2020-07-16T03:36:24.809Z</time>
      </trkpt>
      <trkpt lat="69.10741" lon="15.59583">
        <ele>7.71041</ele>
        <time>2020-07-16T03:36:38.749Z</time>
      </trkpt>
      <trkpt lat="69.10765" lon="15.59679">
        <ele>7.537754</ele>
        <time>2020-07-16T03:36:45.485Z</time>
      </trkpt>
      <trkpt lat="69.10814" lon="15.59843">
        <ele>7.216441</ele>
        <time>2020-07-16T03:36:58.424Z</time>
      </trkpt>
      <trkpt lat="69.10833" lon="15.59964">
        <ele>7.021297</ele>
        <time>2020-07-16T03:37:06.505Z</time>
      </trkpt>
      <trkpt lat="69.10845" lon="15.6009">
        <ele>6.906181</ele>
        <time>2020-07-16T03:37:14.611Z</time>
      </trkpt>
      <trkpt lat="69.10853" lon="15.60181">
        <ele>6.825678</ele>
        <time>2020-07-16T03:37:20.375Z</time>
      </trkpt>
      <trkpt lat="69.10861" lon="15.60264">
        <ele>6.751014</ele>
        <time>2020-07-16T03:37:25.700Z</time>
      </trkpt>
      <trkpt lat="69.10905" lon="15.60539">
        <ele>6.374948</ele>
        <time>2020-07-16T03:37:43.959Z</time>
      </trkpt>
      <trkpt lat="69.10924" lon="15.60617">
        <ele>6.187381</ele>
        <time>2020-07-16T03:37:49.553Z</time>
      </trkpt>
      <trkpt lat="69.10951" lon="15.60673">
        <ele>6.001683</ele>
        <time>2020-07-16T03:37:55.006Z</time>
      </trkpt>
      <trkpt lat="69.11197" lon="15.61038">
        <ele>4.438953</ele>
        <time>2020-07-16T03:38:39.817Z</time>
      </trkpt>
      <trkpt lat="69.11223" lon="15.61074">
        <ele>4.432793</ele>
        <time>2020-07-16T03:38:44.818Z</time>
      </trkpt>
      <trkpt lat="69.11233" lon="15.61089">
        <ele>4.430395</ele>
        <time>2020-07-16T03:38:46.837Z</time>
      </trkpt>
      <trkpt lat="69.11247" lon="15.61113">
        <ele>4.4268</ele>
        <time>2020-07-16T03:38:49.828Z</time>
      </trkpt>
      <trkpt lat="69.11269" lon="15.61152">
        <ele>4.421316</ele>
        <time>2020-07-16T03:38:54.489Z</time>
      </trkpt>
      <trkpt lat="69.11328" lon="15.61265">
        <ele>4.405843</ele>
        <time>2020-07-16T03:39:07.998Z</time>
      </trkpt>
      <trkpt lat="69.1143" lon="15.61404">
        <ele>4.441219</ele>
        <time>2020-07-16T03:39:29.265Z</time>
      </trkpt>
      <trkpt lat="69.11495" lon="15.61489">
        <ele>4.448593</ele>
        <time>2020-07-16T03:39:41.529Z</time>
      </trkpt>
      <trkpt lat="69.11533" lon="15.61537">
        <ele>4.252602</ele>
        <time>2020-07-16T03:39:48.290Z</time>
      </trkpt>
      <trkpt lat="69.11559" lon="15.61568">
        <ele>4.113661</ele>
        <time>2020-07-16T03:39:53.027Z</time>
      </trkpt>
      <trkpt lat="69.1163" lon="15.61613">
        <ele>3.767843</ele>
        <time>2020-07-16T03:40:04.752Z</time>
      </trkpt>
      <trkpt lat="69.11703" lon="15.61606">
        <ele>3.5183</ele>
        <time>2020-07-16T03:40:16.847Z</time>
      </trkpt>
      <trkpt lat="69.11924" lon="15.61535">
        <ele>3.137905</ele>
        <time>2020-07-16T03:40:55.713Z</time>
      </trkpt>
      <trkpt lat="69.12004" lon="15.61511">
        <ele>3.066599</ele>
        <time>2020-07-16T03:41:09.938Z</time>
      </trkpt>
      <trkpt lat="69.12012" lon="15.61509">
        <ele>3.059598</ele>
        <time>2020-07-16T03:41:11.341Z</time>
      </trkpt>
      <trkpt lat="69.12034" lon="15.61504">
        <ele>3.056579</ele>
        <time>2020-07-16T03:41:15.208Z</time>
      </trkpt>
      <trkpt lat="69.12102" lon="15.61523">
        <ele>3.093427</ele>
        <time>2020-07-16T03:41:27.347Z</time>
      </trkpt>
      <trkpt lat="69.12128" lon="15.61542">
        <ele>3.107641</ele>
        <time>2020-07-16T03:41:32.103Z</time>
      </trkpt>
      <trkpt lat="69.12162" lon="15.6159">
        <ele>3.128228</ele>
        <time>2020-07-16T03:41:39.018Z</time>
      </trkpt>
      <trkpt lat="69.12193" lon="15.6167">
        <ele>3.180476</ele>
        <time>2020-07-16T03:41:46.659Z</time>
      </trkpt>
      <trkpt lat="69.12434" lon="15.62789">
        <ele>5.424798</ele>
        <time>2020-07-16T03:43:16.949Z</time>
      </trkpt>
      <trkpt lat="69.12453" lon="15.62884">
        <ele>5.650185</ele>
        <time>2020-07-16T03:43:24.741Z</time>
      </trkpt>
      <trkpt lat="69.12472" lon="15.63034">
        <ele>6.058324</ele>
        <time>2020-07-16T03:43:36.233Z</time>
      </trkpt>
      <trkpt lat="69.12519" lon="15.63811">
        <ele>8.520797</ele>
        <time>2020-07-16T03:44:34.574Z</time>
      </trkpt>
      <trkpt lat="69.12523" lon="15.63869">
        <ele>8.712173</ele>
        <time>2020-07-16T03:44:39.056Z</time>
      </trkpt>
      <trkpt lat="69.12529" lon="15.63951">
        <ele>8.975989</ele>
        <time>2020-07-16T03:44:45.221Z</time>
      </trkpt>
      <trkpt lat="69.12552" lon="15.64121">
        <ele>9.350112</ele>
        <time>2020-07-16T03:44:58.595Z</time>
      </trkpt>
      <trkpt lat="69.1266" lon="15.64673">
        <ele>10.084857</ele>
        <time>2020-07-16T03:45:41.321Z</time>
      </trkpt>
      <trkpt lat="69.12726" lon="15.65013">
        <ele>9.677427</ele>
        <time>2020-07-16T03:46:04.510Z</time>
      </trkpt>
      <trkpt lat="69.12732" lon="15.65041">
        <ele>9.60217</ele>
        <time>2020-07-16T03:46:06.275Z</time>
      </trkpt>
      <trkpt lat="69.12754" lon="15.65204">
        <ele>9.188744</ele>
        <time>2020-07-16T03:46:16.214Z</time>
      </trkpt>
      <trkpt lat="69.12765" lon="15.65341">
        <ele>8.837166</ele>
        <time>2020-07-16T03:46:24.026Z</time>
      </trkpt>
      <trkpt lat="69.12785" lon="15.6578">
        <ele>7.551801</ele>
        <time>2020-07-16T03:46:48.929Z</time>
      </trkpt>
      <trkpt lat="69.12794" lon="15.66268">
        <ele>6.613622</ele>
        <time>2020-07-16T03:47:17.154Z</time>
      </trkpt>
      <trkpt lat="69.12798" lon="15.66312">
        <ele>6.538003</ele>
        <time>2020-07-16T03:47:19.914Z</time>
      </trkpt>
      <trkpt lat="69.12804" lon="15.66365">
        <ele>6.617653</ele>
        <time>2020-07-16T03:47:23.694Z</time>
      </trkpt>
      <trkpt lat="69.12817" lon="15.66432">
        <ele>6.725381</ele>
        <time>2020-07-16T03:47:28.723Z</time>
      </trkpt>
      <trkpt lat="69.12835" lon="15.66509">
        <ele>6.855797</ele>
        <time>2020-07-16T03:47:34.951Z</time>
      </trkpt>
      <trkpt lat="69.12849" lon="15.6657">
        <ele>6.959344</ele>
        <time>2020-07-16T03:47:39.812Z</time>
      </trkpt>
      <trkpt lat="69.12859" lon="15.66609">
        <ele>7.028554</ele>
        <time>2020-07-16T03:47:43.377Z</time>
      </trkpt>
      <trkpt lat="69.12871" lon="15.6665">
        <ele>7.103593</ele>
        <time>2020-07-16T03:47:46.947Z</time>
      </trkpt>
      <trkpt lat="69.12877" lon="15.66671">
        <ele>7.141767</ele>
        <time>2020-07-16T03:47:49.048Z</time>
      </trkpt>
      <trkpt lat="69.12944" lon="15.66847">
        <ele>7.56682</ele>
        <time>2020-07-16T03:48:07.987Z</time>
      </trkpt>
      <trkpt lat="69.13065" lon="15.67118">
        <ele>8.065655</ele>
        <time>2020-07-16T03:48:37.126Z</time>
      </trkpt>
      <trkpt lat="69.13074" lon="15.67132">
        <ele>8.046579</ele>
        <time>2020-07-16T03:48:38.914Z</time>
      </trkpt>
      <trkpt lat="69.13079" lon="15.67138">
        <ele>8.037234</ele>
        <time>2020-07-16T03:48:39.729Z</time>
      </trkpt>
      <trkpt lat="69.13103" lon="15.67172">
        <ele>7.986734</ele>
        <time>2020-07-16T03:48:44.782Z</time>
      </trkpt>
      <trkpt lat="69.13144" lon="15.67225">
        <ele>7.905544</ele>
        <time>2020-07-16T03:48:52.555Z</time>
      </trkpt>
      <trkpt lat="69.13286" lon="15.67412">
        <ele>6.879137</ele>
        <time>2020-07-16T03:49:17.660Z</time>
      </trkpt>
      <trkpt lat="69.13302" lon="15.6743">
        <ele>6.723583</ele>
        <time>2020-07-16T03:49:20.245Z</time>
      </trkpt>
      <trkpt lat="69.13362" lon="15.67488">
        <ele>6.167631</ele>
        <time>2020-07-16T03:49:30.110Z</time>
      </trkpt>
      <trkpt lat="69.13374" lon="15.67488">
        <ele>6.111733</ele>
        <time>2020-07-16T03:49:31.710Z</time>
      </trkpt>
      <trkpt lat="69.1338" lon="15.67487">
        <ele>6.081481</ele>
        <time>2020-07-16T03:49:32.584Z</time>
      </trkpt>
      <trkpt lat="69.1346" lon="15.67387">
        <ele>5.646263</ele>
        <time>2020-07-16T03:49:46.627Z</time>
      </trkpt>
      <trkpt lat="69.13505" lon="15.67382">
        <ele>5.424102</ele>
        <time>2020-07-16T03:49:54.214Z</time>
      </trkpt>
      <trkpt lat="69.13517" lon="15.67389">
        <ele>5.365912</ele>
        <time>2020-07-16T03:49:56.095Z</time>
      </trkpt>
      <trkpt lat="69.13526" lon="15.67397">
        <ele>5.316915</ele>
        <time>2020-07-16T03:49:58.332Z</time>
      </trkpt>
      <trkpt lat="69.1355" lon="15.67431">
        <ele>5.606615</ele>
        <time>2020-07-16T03:50:03.591Z</time>
      </trkpt>
      <trkpt lat="69.13595" lon="15.67555">
        <ele>6.403199</ele>
        <time>2020-07-16T03:50:17.165Z</time>
      </trkpt>
      <trkpt lat="69.13606" lon="15.67578">
        <ele>6.580269</ele>
        <time>2020-07-16T03:50:20.821Z</time>
      </trkpt>
      <trkpt lat="69.13648" lon="15.67661">
        <ele>7.233989</ele>
        <time>2020-07-16T03:50:32.620Z</time>
      </trkpt>
      <trkpt lat="69.13652" lon="15.6767">
        <ele>7.294007</ele>
        <time>2020-07-16T03:50:33.633Z</time>
      </trkpt>
      <trkpt lat="69.13654" lon="15.67681">
        <ele>7.35368</ele>
        <time>2020-07-16T03:50:34.725Z</time>
      </trkpt>
      <trkpt lat="69.13655" lon="15.67689">
        <ele>7.39419</ele>
        <time>2020-07-16T03:50:35.490Z</time>
      </trkpt>
      <trkpt lat="69.13656" lon="15.67706">
        <ele>7.47353</ele>
        <time>2020-07-16T03:50:37.378Z</time>
      </trkpt>
      <trkpt lat="69.13636" lon="15.67933">
        <ele>8.428994</ele>
        <time>2020-07-16T03:50:55.851Z</time>
      </trkpt>
      <trkpt lat="69.13636" lon="15.67994">
        <ele>8.677288</ele>
        <time>2020-07-16T03:51:00.670Z</time>
      </trkpt>
      <trkpt lat="69.13635" lon="15.68116">
        <ele>9.168378</ele>
        <time>2020-07-16T03:51:09.901Z</time>
      </trkpt>
      <trkpt lat="69.13636" lon="15.68174">
        <ele>9.403382</ele>
        <time>2020-07-16T03:51:14.052Z</time>
      </trkpt>
      <trkpt lat="69.1364" lon="15.68342">
        <ele>9.704065</ele>
        <time>2020-07-16T03:51:25.625Z</time>
      </trkpt>
      <trkpt lat="69.13645" lon="15.68627">
        <ele>9.897809</ele>
        <time>2020-07-16T03:51:44.228Z</time>
      </trkpt>
      <trkpt lat="69.13646" lon="15.68722">
        <ele>9.962303</ele>
        <time>2020-07-16T03:51:50.279Z</time>
      </trkpt>
      <trkpt lat="69.13648" lon="15.68782">
        <ele>9.951052</ele>
        <time>2020-07-16T03:51:54.086Z</time>
      </trkpt>
      <trkpt lat="69.13651" lon="15.68963">
        <ele>9.879981</ele>
        <time>2020-07-16T03:52:05.411Z</time>
      </trkpt>
      <trkpt lat="69.13652" lon="15.68983">
        <ele>9.872069</ele>
        <time>2020-07-16T03:52:06.667Z</time>
      </trkpt>
      <trkpt lat="69.13654" lon="15.69109">
        <ele>9.822298</ele>
        <time>2020-07-16T03:52:14.521Z</time>
      </trkpt>
      <trkpt lat="69.1367" lon="15.69894">
        <ele>9.313842</ele>
        <time>2020-07-16T03:53:02.440Z</time>
      </trkpt>
      <trkpt lat="69.13729" lon="15.72718">
        <ele>8.811517</ele>
        <time>2020-07-16T03:56:01.274Z</time>
      </trkpt>
      <trkpt lat="69.13737" lon="15.72884">
        <ele>8.831141</ele>
        <time>2020-07-16T03:56:11.983Z</time>
      </trkpt>
      <trkpt lat="69.13747" lon="15.72957">
        <ele>8.848153</ele>
        <time>2020-07-16T03:56:17.025Z</time>
      </trkpt>
      <trkpt lat="69.13755" lon="15.73">
        <ele>8.858533</ele>
        <time>2020-07-16T03:56:20.170Z</time>
      </trkpt>
      <trkpt lat="69.13765" lon="15.73045">
        <ele>8.869887</ele>
        <time>2020-07-16T03:56:23.505Z</time>
      </trkpt>
      <trkpt lat="69.13785" lon="15.73118">
        <ele>8.889752</ele>
        <time>2020-07-16T03:56:29.450Z</time>
      </trkpt>
      <trkpt lat="69.13809" lon="15.73203">
        <ele>8.913006</ele>
        <time>2020-07-16T03:56:36.404Z</time>
      </trkpt>
      <trkpt lat="69.13816" lon="15.73227">
        <ele>8.915451</ele>
        <time>2020-07-16T03:56:38.475Z</time>
      </trkpt>
      <trkpt lat="69.13844" lon="15.73326">
        <ele>8.919883</ele>
        <time>2020-07-16T03:56:46.759Z</time>
      </trkpt>
      <trkpt lat="69.13882" lon="15.73456">
        <ele>8.925713</ele>
        <time>2020-07-16T03:56:57.520Z</time>
      </trkpt>
      <trkpt lat="69.14006" lon="15.73899">
        <ele>8.659939</ele>
        <time>2020-07-16T03:57:32.631Z</time>
      </trkpt>
      <trkpt lat="69.14045" lon="15.74059">
        <ele>8.442562</ele>
        <time>2020-07-16T03:57:44.143Z</time>
      </trkpt>
      <trkpt lat="69.14153" lon="15.74626">
        <ele>7.321739</ele>
        <time>2020-07-16T03:58:21.494Z</time>
      </trkpt>
      <trkpt lat="69.1429" lon="15.75407">
        <ele>6.088919</ele>
        <time>2020-07-16T03:59:14.322Z</time>
      </trkpt>
      <trkpt lat="69.14318" lon="15.7553">
        <ele>5.65047</ele>
        <time>2020-07-16T03:59:22.522Z</time>
      </trkpt>
      <trkpt lat="69.14375" lon="15.75735">
        <ele>4.864173</ele>
        <time>2020-07-16T03:59:36.899Z</time>
      </trkpt>
      <trkpt lat="69.14402" lon="15.75824">
        <ele>4.597157</ele>
        <time>2020-07-16T03:59:43.253Z</time>
      </trkpt>
      <trkpt lat="69.14408" lon="15.75843">
        <ele>4.545661</ele>
        <time>2020-07-16T03:59:44.680Z</time>
      </trkpt>
      <trkpt lat="69.14433" lon="15.75926">
        <ele>4.326158</ele>
        <time>2020-07-16T03:59:50.794Z</time>
      </trkpt>
      <trkpt lat="69.14451" lon="15.75981">
        <ele>4.178681</ele>
        <time>2020-07-16T03:59:54.936Z</time>
      </trkpt>
      <trkpt lat="69.14717" lon="15.76868">
        <ele>3.618955</ele>
        <time>2020-07-16T04:01:07.629Z</time>
      </trkpt>
      <trkpt lat="69.14732" lon="15.7692">
        <ele>3.620853</ele>
        <time>2020-07-16T04:01:12.181Z</time>
      </trkpt>
      <trkpt lat="69.14755" lon="15.76999">
        <ele>3.689901</ele>
        <time>2020-07-16T04:01:19.106Z</time>
      </trkpt>
      <trkpt lat="69.15325" lon="15.79138">
        <ele>5.407768</ele>
        <time>2020-07-16T04:04:14.900Z</time>
      </trkpt>
      <trkpt lat="69.15382" lon="15.79318">
        <ele>5.480816</ele>
        <time>2020-07-16T04:04:30.049Z</time>
      </trkpt>
      <trkpt lat="69.15417" lon="15.79408">
        <ele>5.426335</ele>
        <time>2020-07-16T04:04:38.458Z</time>
      </trkpt>
      <trkpt lat="69.15451" lon="15.79485">
        <ele>5.365934</ele>
        <time>2020-07-16T04:04:45.994Z</time>
      </trkpt>
      <trkpt lat="69.15541" lon="15.79679">
        <ele>5.190495</ele>
        <time>2020-07-16T04:05:05.662Z</time>
      </trkpt>
      <trkpt lat="69.15634" lon="15.79878">
        <ele>4.918047</ele>
        <time>2020-07-16T04:05:25.877Z</time>
      </trkpt>
      <trkpt lat="69.15721" lon="15.80058">
        <ele>4.634622</ele>
        <time>2020-07-16T04:05:43.907Z</time>
      </trkpt>
      <trkpt lat="69.15724" lon="15.80066">
        <ele>4.621644</ele>
        <time>2020-07-16T04:05:44.626Z</time>
      </trkpt>
      <trkpt lat="69.1584" lon="15.80312">
        <ele>4.326081</ele>
        <time>2020-07-16T04:06:09.729Z</time>
      </trkpt>
      <trkpt lat="69.15884" lon="15.80406">
        <ele>4.361934</ele>
        <time>2020-07-16T04:06:19.645Z</time>
      </trkpt>
      <trkpt lat="69.15899" lon="15.80439">
        <ele>4.374389</ele>
        <time>2020-07-16T04:06:23.172Z</time>
      </trkpt>
      <trkpt lat="69.15928" lon="15.805">
        <ele>4.398066</ele>
        <time>2020-07-16T04:06:29.787Z</time>
      </trkpt>
      <trkpt lat="69.15955" lon="15.80559">
        <ele>4.420369</ele>
        <time>2020-07-16T04:06:36.084Z</time>
      </trkpt>
      <trkpt lat="69.16013" lon="15.80683">
        <ele>4.501238</ele>
        <time>2020-07-16T04:06:49.631Z</time>
      </trkpt>
      <trkpt lat="69.1607" lon="15.80805">
        <ele>4.581726</ele>
        <time>2020-07-16T04:07:02.640Z</time>
      </trkpt>
      <trkpt lat="69.16119" lon="15.80909">
        <ele>4.662086</ele>
        <time>2020-07-16T04:07:13.337Z</time>
      </trkpt>
      <trkpt lat="69.16243" lon="15.81177">
        <ele>4.911237</ele>
        <time>2020-07-16T04:07:42.266Z</time>
      </trkpt>
      <trkpt lat="69.16256" lon="15.81206">
        <ele>4.942435</ele>
        <time>2020-07-16T04:07:45.454Z</time>
      </trkpt>
      <trkpt lat="69.16299" lon="15.81299">
        <ele>5.044146</ele>
        <time>2020-07-16T04:07:55.780Z</time>
      </trkpt>
      <trkpt lat="69.16321" lon="15.81343">
        <ele>5.094031</ele>
        <time>2020-07-16T04:08:00.752Z</time>
      </trkpt>
      <trkpt lat="69.16352" lon="15.81399">
        <ele>5.164056</ele>
        <time>2020-07-16T04:08:07.687Z</time>
      </trkpt>
      <trkpt lat="69.16393" lon="15.81464">
        <ele>5.228531</ele>
        <time>2020-07-16T04:08:16.284Z</time>
      </trkpt>
      <trkpt lat="69.16413" lon="15.81492">
        <ele>5.121238</ele>
        <time>2020-07-16T04:08:20.055Z</time>
      </trkpt>
      <trkpt lat="69.16427" lon="15.8151">
        <ele>5.042878</ele>
        <time>2020-07-16T04:08:22.843Z</time>
      </trkpt>
      <trkpt lat="69.16436" lon="15.81521">
        <ele>4.995947</ele>
        <time>2020-07-16T04:08:24.424Z</time>
      </trkpt>
      <trkpt lat="69.16497" lon="15.81577">
        <ele>4.678906</ele>
        <time>2020-07-16T04:08:35.138Z</time>
      </trkpt>
      <trkpt lat="69.16767" lon="15.8177">
        <ele>2.405884</ele>
        <time>2020-07-16T04:09:18.474Z</time>
      </trkpt>
      <trkpt lat="69.16827" lon="15.81798">
        <ele>1.980558</ele>
        <time>2020-07-16T04:09:28.204Z</time>
      </trkpt>
      <trkpt lat="69.16896" lon="15.81811">
        <ele>1.498851</ele>
        <time>2020-07-16T04:09:39.537Z</time>
      </trkpt>
      <trkpt lat="69.1695" lon="15.81814">
        <ele>1.311926</ele>
        <time>2020-07-16T04:09:48.588Z</time>
      </trkpt>
      <trkpt lat="69.17078" lon="15.81818">
        <ele>1.052719</ele>
        <time>2020-07-16T04:10:10.793Z</time>
      </trkpt>
      <trkpt lat="69.17146" lon="15.8182">
        <ele>1.017719</ele>
        <time>2020-07-16T04:10:22.779Z</time>
      </trkpt>
      <trkpt lat="69.17271" lon="15.81823">
        <ele>1.000158</ele>
        <time>2020-07-16T04:10:45.047Z</time>
      </trkpt>
      <trkpt lat="69.17553" lon="15.81835">
        <ele>1.000101</ele>
        <time>2020-07-16T04:11:35.409Z</time>
      </trkpt>
      <trkpt lat="69.17629" lon="15.81837">
        <ele>1.000178</ele>
        <time>2020-07-16T04:11:49.046Z</time>
      </trkpt>
      <trkpt lat="69.17659" lon="15.81837">
        <ele>1.026034</ele>
        <time>2020-07-16T04:11:54.335Z</time>
      </trkpt>
      <trkpt lat="69.17714" lon="15.81838">
        <ele>1.07797</ele>
        <time>2020-07-16T04:12:04.117Z</time>
      </trkpt>
      <trkpt lat="69.17809" lon="15.81852">
        <ele>1.168133</ele>
        <time>2020-07-16T04:12:21.380Z</time>
      </trkpt>
      <trkpt lat="69.1783" lon="15.81862">
        <ele>1.29014</ele>
        <time>2020-07-16T04:12:25.427Z</time>
      </trkpt>
      <trkpt lat="69.17843" lon="15.81868">
        <ele>1.376219</ele>
        <time>2020-07-16T04:12:27.975Z</time>
      </trkpt>
      <trkpt lat="69.17881" lon="15.8189">
        <ele>1.624859</ele>
        <time>2020-07-16T04:12:35.486Z</time>
      </trkpt>
      <trkpt lat="69.17888" lon="15.81895">
        <ele>1.671219</ele>
        <time>2020-07-16T04:12:36.924Z</time>
      </trkpt>
      <trkpt lat="69.17894" lon="15.81898">
        <ele>1.711587</ele>
        <time>2020-07-16T04:12:38.176Z</time>
      </trkpt>
      <trkpt lat="69.17917" lon="15.81912">
        <ele>1.861021</ele>
        <time>2020-07-16T04:12:42.772Z</time>
      </trkpt>
      <trkpt lat="69.1803" lon="15.81981">
        <ele>2.845016</ele>
        <time>2020-07-16T04:13:06.960Z</time>
      </trkpt>
      <trkpt lat="69.18126" lon="15.82049">
        <ele>4.05317</ele>
        <time>2020-07-16T04:13:28.952Z</time>
      </trkpt>
      <trkpt lat="69.18134" lon="15.82057">
        <ele>4.159534</ele>
        <time>2020-07-16T04:13:30.992Z</time>
      </trkpt>
      <trkpt lat="69.18142" lon="15.82066">
        <ele>4.263272</ele>
        <time>2020-07-16T04:13:32.999Z</time>
      </trkpt>
      <trkpt lat="69.18179" lon="15.82115">
        <ele>4.609897</ele>
        <time>2020-07-16T04:13:41.636Z</time>
      </trkpt>
      <trkpt lat="69.18208" lon="15.82171">
        <ele>4.789491</ele>
        <time>2020-07-16T04:13:49.159Z</time>
      </trkpt>
      <trkpt lat="69.18385" lon="15.82585">
        <ele>5.198762</ele>
        <time>2020-07-16T04:14:31.558Z</time>
      </trkpt>
      <trkpt lat="69.18433" lon="15.82679">
        <ele>5.077863</ele>
        <time>2020-07-16T04:14:41.088Z</time>
      </trkpt>
      <trkpt lat="69.18478" lon="15.82728">
        <ele>4.789198</ele>
        <time>2020-07-16T04:14:48.609Z</time>
      </trkpt>
      <trkpt lat="69.1872" lon="15.82914">
        <ele>3.360892</ele>
        <time>2020-07-16T04:15:28.464Z</time>
      </trkpt>
      <trkpt lat="69.19046" lon="15.83164">
        <ele>4.22925</ele>
        <time>2020-07-16T04:16:33.691Z</time>
      </trkpt>
      <trkpt lat="69.19077" lon="15.83194">
        <ele>4.317095</ele>
        <time>2020-07-16T04:16:39.946Z</time>
      </trkpt>
      <trkpt lat="69.19133" lon="15.83276">
        <ele>4.485415</ele>
        <time>2020-07-16T04:16:51.463Z</time>
      </trkpt>
      <trkpt lat="69.19143" lon="15.83297">
        <ele>4.439774</ele>
        <time>2020-07-16T04:16:53.767Z</time>
      </trkpt>
      <trkpt lat="69.19168" lon="15.8335">
        <ele>4.301882</ele>
        <time>2020-07-16T04:16:59.121Z</time>
      </trkpt>
      <trkpt lat="69.19415" lon="15.83923">
        <ele>2.593655</ele>
        <time>2020-07-16T04:17:51.266Z</time>
      </trkpt>
      <trkpt lat="69.19461" lon="15.84032">
        <ele>2.335666</ele>
        <time>2020-07-16T04:18:01.053Z</time>
      </trkpt>
      <trkpt lat="69.19497" lon="15.84122">
        <ele>2.130826</ele>
        <time>2020-07-16T04:18:08.948Z</time>
      </trkpt>
      <trkpt lat="69.1957" lon="15.84357">
        <ele>1.801006</ele>
        <time>2020-07-16T04:18:27.943Z</time>
      </trkpt>
      <trkpt lat="69.19625" lon="15.84627">
        <ele>1.720065</ele>
        <time>2020-07-16T04:18:47.710Z</time>
      </trkpt>
      <trkpt lat="69.19642" lon="15.84724">
        <ele>1.7</ele>
        <time>2020-07-16T04:18:54.524Z</time>
      </trkpt>
      <trkpt lat="69.19663" lon="15.84852">
        <ele>1.7</ele>
        <time>2020-07-16T04:19:03.574Z</time>
      </trkpt>
      <trkpt lat="69.19722" lon="15.85151">
        <ele>1.700013</ele>
        <time>2020-07-16T04:19:25.181Z</time>
      </trkpt>
      <trkpt lat="69.19752" lon="15.85254">
        <ele>1.700264</ele>
        <time>2020-07-16T04:19:33.552Z</time>
      </trkpt>
      <trkpt lat="69.19826" lon="15.85454">
        <ele>1.700807</ele>
        <time>2020-07-16T04:19:51.831Z</time>
      </trkpt>
      <trkpt lat="69.19834" lon="15.85472">
        <ele>1.700862</ele>
        <time>2020-07-16T04:19:53.626Z</time>
      </trkpt>
      <trkpt lat="69.19841" lon="15.85488">
        <ele>1.700911</ele>
        <time>2020-07-16T04:19:55.320Z</time>
      </trkpt>
      <trkpt lat="69.19902" lon="15.85601">
        <ele>1.722761</ele>
        <time>2020-07-16T04:20:08.399Z</time>
      </trkpt>
      <trkpt lat="69.20065" lon="15.85831">
        <ele>1.748917</ele>
        <time>2020-07-16T04:20:41.207Z</time>
      </trkpt>
      <trkpt lat="69.20207" lon="15.86025">
        <ele>1.700465</ele>
        <time>2020-07-16T04:21:09.173Z</time>
      </trkpt>
      <trkpt lat="69.20332" lon="15.86196">
        <ele>1.619646</ele>
        <time>2020-07-16T04:21:33.690Z</time>
      </trkpt>
      <trkpt lat="69.20353" lon="15.86224">
        <ele>1.630398</ele>
        <time>2020-07-16T04:21:37.748Z</time>
      </trkpt>
      <trkpt lat="69.20354" lon="15.86226">
        <ele>1.631115</ele>
        <time>2020-07-16T04:21:38.020Z</time>
      </trkpt>
      <trkpt lat="69.2036" lon="15.86233">
        <ele>1.6342</ele>
        <time>2020-07-16T04:21:39.178Z</time>
      </trkpt>
      <trkpt lat="69.20368" lon="15.8624">
        <ele>1.637774</ele>
        <time>2020-07-16T04:21:40.584Z</time>
      </trkpt>
      <trkpt lat="69.20428" lon="15.86269">
        <ele>1.666461</ele>
        <time>2020-07-16T04:21:51.517Z</time>
      </trkpt>
      <trkpt lat="69.2045" lon="15.86267">
        <ele>1.676564</ele>
        <time>2020-07-16T04:21:55.449Z</time>
      </trkpt>
      <trkpt lat="69.2047" lon="15.86262">
        <ele>1.686018</ele>
        <time>2020-07-16T04:21:59.127Z</time>
      </trkpt>
      <trkpt lat="69.20487" lon="15.86255">
        <ele>1.693721</ele>
        <time>2020-07-16T04:22:02.112Z</time>
      </trkpt>
      <trkpt lat="69.20641" lon="15.86196">
        <ele>2.288728</ele>
        <time>2020-07-16T04:22:31.209Z</time>
      </trkpt>
      <trkpt lat="69.20662" lon="15.86187">
        <ele>2.380923</ele>
        <time>2020-07-16T04:22:35.593Z</time>
      </trkpt>
      <trkpt lat="69.20665" lon="15.86186">
        <ele>2.391836</ele>
        <time>2020-07-16T04:22:36.083Z</time>
      </trkpt>
      <trkpt lat="69.20673" lon="15.86183">
        <ele>2.42628</ele>
        <time>2020-07-16T04:22:37.718Z</time>
      </trkpt>
      <trkpt lat="69.20703" lon="15.86173">
        <ele>2.690872</ele>
        <time>2020-07-16T04:22:43.975Z</time>
      </trkpt>
      <trkpt lat="69.20741" lon="15.86176">
        <ele>3.085812</ele>
        <time>2020-07-16T04:22:52.030Z</time>
      </trkpt>
      <trkpt lat="69.20773" lon="15.86202">
        <ele>3.439204</ele>
        <time>2020-07-16T04:22:59.312Z</time>
      </trkpt>
      <trkpt lat="69.20841" lon="15.86274">
        <ele>4.197784</ele>
        <time>2020-07-16T04:23:15.032Z</time>
      </trkpt>
      <trkpt lat="69.20854" lon="15.86289">
        <ele>4.34504</ele>
        <time>2020-07-16T04:23:18.093Z</time>
      </trkpt>
      <trkpt lat="69.20878" lon="15.86315">
        <ele>4.585285</ele>
        <time>2020-07-16T04:23:23.426Z</time>
      </trkpt>
      <trkpt lat="69.20882" lon="15.8632">
        <ele>4.629943</ele>
        <time>2020-07-16T04:23:24.506Z</time>
      </trkpt>
      <trkpt lat="69.21" lon="15.86455">
        <ele>5.831445</ele>
        <time>2020-07-16T04:23:50.912Z</time>
      </trkpt>
      <trkpt lat="69.21101" lon="15.86639">
        <ele>7.247608</ele>
        <time>2020-07-16T04:24:15.319Z</time>
      </trkpt>
      <trkpt lat="69.21151" lon="15.86766">
        <ele>8.0768</ele>
        <time>2020-07-16T04:24:31.303Z</time>
      </trkpt>
      <trkpt lat="69.21191" lon="15.86943">
        <ele>9.103427</ele>
        <time>2020-07-16T04:24:48.630Z</time>
      </trkpt>
      <trkpt lat="69.21196" lon="15.8698">
        <ele>9.304932</ele>
        <time>2020-07-16T04:24:52.171Z</time>
      </trkpt>
      <trkpt lat="69.21201" lon="15.87019">
        <ele>9.517232</ele>
        <time>2020-07-16T04:24:55.570Z</time>
      </trkpt>
      <trkpt lat="69.21217" lon="15.87177">
        <ele>10.342961</ele>
        <time>2020-07-16T04:25:08.802Z</time>
      </trkpt>
      <trkpt lat="69.21259" lon="15.87828">
        <ele>12.06639</ele>
        <time>2020-07-16T04:25:55.075Z</time>
      </trkpt>
      <trkpt lat="69.21312" lon="15.88345">
        <ele>13.168522</ele>
        <time>2020-07-16T04:26:32.316Z</time>
      </trkpt>
      <trkpt lat="69.21433" lon="15.8998">
        <ele>19.003339</ele>
        <time>2020-07-16T04:28:35.216Z</time>
      </trkpt>
      <trkpt lat="69.21462" lon="15.90184">
        <ele>20.257638</ele>
        <time>2020-07-16T04:28:54.014Z</time>
      </trkpt>
      <trkpt lat="69.21533" lon="15.90526">
        <ele>24.109219</ele>
        <time>2020-07-16T04:29:32.345Z</time>
      </trkpt>
      <trkpt lat="69.21635" lon="15.90994">
        <ele>29.247188</ele>
        <time>2020-07-16T04:30:26.301Z</time>
      </trkpt>
      <trkpt lat="69.21665" lon="15.9113">
        <ele>30.251313</ele>
        <time>2020-07-16T04:30:39.024Z</time>
      </trkpt>
      <trkpt lat="69.21717" lon="15.91329">
        <ele>30.245468</ele>
        <time>2020-07-16T04:30:54.981Z</time>
      </trkpt>
      <trkpt lat="69.21751" lon="15.91433">
        <ele>30.242099</ele>
        <time>2020-07-16T04:31:02.969Z</time>
      </trkpt>
      <trkpt lat="69.21782" lon="15.91525">
        <ele>30.146698</ele>
        <time>2020-07-16T04:31:09.931Z</time>
      </trkpt>
      <trkpt lat="69.21786" lon="15.91538">
        <ele>30.117557</ele>
        <time>2020-07-16T04:31:10.933Z</time>
      </trkpt>
      <trkpt lat="69.2179" lon="15.9155">
        <ele>30.090225</ele>
        <time>2020-07-16T04:31:11.762Z</time>
      </trkpt>
      <trkpt lat="69.21885" lon="15.91807">
        <ele>29.473352</ele>
        <time>2020-07-16T04:31:33.329Z</time>
      </trkpt>
      <trkpt lat="69.22232" lon="15.92557">
        <ele>31.449366</ele>
        <time>2020-07-16T04:33:00.545Z</time>
      </trkpt>
      <trkpt lat="69.22378" lon="15.92871">
        <ele>31.053482</ele>
        <time>2020-07-16T04:33:30.219Z</time>
      </trkpt>
      <trkpt lat="69.225" lon="15.93134">
        <ele>31.045651</ele>
        <time>2020-07-16T04:33:57.034Z</time>
      </trkpt>
      <trkpt lat="69.22587" lon="15.93324">
        <ele>31.930332</ele>
        <time>2020-07-16T04:34:20.052Z</time>
      </trkpt>
      <trkpt lat="69.2261" lon="15.93374">
        <ele>32.166346</ele>
        <time>2020-07-16T04:34:26.506Z</time>
      </trkpt>
      <trkpt lat="69.22616" lon="15.93385">
        <ele>32.257043</ele>
        <time>2020-07-16T04:34:27.977Z</time>
      </trkpt>
      <trkpt lat="69.22655" lon="15.9347">
        <ele>33.020757</ele>
        <time>2020-07-16T04:34:39.159Z</time>
      </trkpt>
      <trkpt lat="69.22774" lon="15.9372">
        <ele>35.423686</ele>
        <time>2020-07-16T04:35:13.317Z</time>
      </trkpt>
      <trkpt lat="69.2291" lon="15.93959">
        <ele>38.682056</ele>
        <time>2020-07-16T04:35:51.465Z</time>
      </trkpt>
      <trkpt lat="69.23421" lon="15.94528">
        <ele>57.71184</ele>
        <time>2020-07-16T04:38:30.834Z</time>
      </trkpt>
      <trkpt lat="69.23445" lon="15.94568">
        <ele>58.791853</ele>
        <time>2020-07-16T04:38:40.802Z</time>
      </trkpt>
      <trkpt lat="69.23483" lon="15.94654">
        <ele>60.59786</ele>
        <time>2020-07-16T04:38:56.837Z</time>
      </trkpt>
      <trkpt lat="69.23561" lon="15.94857">
        <ele>63.99969</ele>
        <time>2020-07-16T04:39:27.419Z</time>
      </trkpt>
      <trkpt lat="69.23565" lon="15.94869">
        <ele>63.997694</ele>
        <time>2020-07-16T04:39:28.945Z</time>
      </trkpt>
      <trkpt lat="69.23591" lon="15.94936">
        <ele>63.98653</ele>
        <time>2020-07-16T04:39:36.728Z</time>
      </trkpt>
      <trkpt lat="69.23664" lon="15.9513">
        <ele>63.954425</ele>
        <time>2020-07-16T04:39:52.700Z</time>
      </trkpt>
      <trkpt lat="69.23754" lon="15.95366">
        <ele>61.519994</ele>
        <time>2020-07-16T04:40:09.485Z</time>
      </trkpt>
      <trkpt lat="69.23813" lon="15.9552">
        <ele>59.581026</ele>
        <time>2020-07-16T04:40:20.294Z</time>
      </trkpt>
      <trkpt lat="69.23841" lon="15.95593">
        <ele>58.259143</ele>
        <time>2020-07-16T04:40:25.566Z</time>
      </trkpt>
      <trkpt lat="69.2387" lon="15.95663">
        <ele>56.945396</ele>
        <time>2020-07-16T04:40:30.655Z</time>
      </trkpt>
      <trkpt lat="69.23881" lon="15.9569">
        <ele>56.432491</ele>
        <time>2020-07-16T04:40:32.635Z</time>
      </trkpt>
      <trkpt lat="69.2389" lon="15.9571">
        <ele>56.057659</ele>
        <time>2020-07-16T04:40:33.949Z</time>
      </trkpt>
      <trkpt lat="69.23956" lon="15.95839">
        <ele>53.284731</ele>
        <time>2020-07-16T04:40:44.096Z</time>
      </trkpt>
      <trkpt lat="69.23989" lon="15.95899">
        <ele>51.706476</ele>
        <time>2020-07-16T04:40:49.014Z</time>
      </trkpt>
      <trkpt lat="69.24023" lon="15.95956">
        <ele>50.147189</ele>
        <time>2020-07-16T04:40:53.818Z</time>
      </trkpt>
      <trkpt lat="69.24052" lon="15.96017">
        <ele>48.691189</ele>
        <time>2020-07-16T04:40:58.411Z</time>
      </trkpt>
      <trkpt lat="69.24132" lon="15.96223">
        <ele>45.219754</ele>
        <time>2020-07-16T04:41:12.398Z</time>
      </trkpt>
      <trkpt lat="69.24177" lon="15.96337">
        <ele>43.880433</ele>
        <time>2020-07-16T04:41:21.125Z</time>
      </trkpt>
      <trkpt lat="69.24223" lon="15.96454">
        <ele>42.520286</ele>
        <time>2020-07-16T04:41:30.131Z</time>
      </trkpt>
      <trkpt lat="69.24229" lon="15.96472">
        <ele>42.315948</ele>
        <time>2020-07-16T04:41:31.395Z</time>
      </trkpt>
      <trkpt lat="69.24242" lon="15.9651">
        <ele>41.899261</ele>
        <time>2020-07-16T04:41:34.125Z</time>
      </trkpt>
      <trkpt lat="69.24247" lon="15.96525">
        <ele>41.730647</ele>
        <time>2020-07-16T04:41:35.207Z</time>
      </trkpt>
      <trkpt lat="69.24262" lon="15.9658">
        <ele>41.190415</ele>
        <time>2020-07-16T04:41:38.653Z</time>
      </trkpt>
      <trkpt lat="69.24267" lon="15.96601">
        <ele>40.985996</ele>
        <time>2020-07-16T04:41:40.006Z</time>
      </trkpt>
      <trkpt lat="69.24272" lon="15.96623">
        <ele>40.776624</ele>
        <time>2020-07-16T04:41:41.277Z</time>
      </trkpt>
      <trkpt lat="69.24279" lon="15.96659">
        <ele>40.443239</ele>
        <time>2020-07-16T04:41:43.482Z</time>
      </trkpt>
      <trkpt lat="69.24298" lon="15.96757">
        <ele>39.566718</ele>
        <time>2020-07-16T04:41:49.109Z</time>
      </trkpt>
      <trkpt lat="69.24314" lon="15.96847">
        <ele>38.764951</ele>
        <time>2020-07-16T04:41:54.136Z</time>
      </trkpt>
      <trkpt lat="69.2434" lon="15.96975">
        <ele>37.028477</ele>
        <time>2020-07-16T04:42:00.818Z</time>
      </trkpt>
      <trkpt lat="69.24361" lon="15.97027">
        <ele>35.891664</ele>
        <time>2020-07-16T04:42:04.269Z</time>
      </trkpt>
      <trkpt lat="69.24394" lon="15.97069">
        <ele>34.429472</ele>
        <time>2020-07-16T04:42:08.705Z</time>
      </trkpt>
      <trkpt lat="69.24425" lon="15.97075">
        <ele>33.13721</ele>
        <time>2020-07-16T04:42:12.607Z</time>
      </trkpt>
      <trkpt lat="69.24441" lon="15.97074">
        <ele>32.498559</ele>
        <time>2020-07-16T04:42:14.576Z</time>
      </trkpt>
      <trkpt lat="69.24461" lon="15.97068">
        <ele>31.667792</ele>
        <time>2020-07-16T04:42:17.092Z</time>
      </trkpt>
      <trkpt lat="69.2461" lon="15.96999">
        <ele>26.364506</ele>
        <time>2020-07-16T04:42:36.112Z</time>
      </trkpt>
      <trkpt lat="69.24731" lon="15.96906">
        <ele>23.905949</ele>
        <time>2020-07-16T04:42:53.863Z</time>
      </trkpt>
      <trkpt lat="69.24803" lon="15.96875">
        <ele>23.115253</ele>
        <time>2020-07-16T04:43:05.554Z</time>
      </trkpt>
      <trkpt lat="69.24821" lon="15.96866">
        <ele>22.917108</ele>
        <time>2020-07-16T04:43:08.537Z</time>
      </trkpt>
      <trkpt lat="69.24836" lon="15.96857">
        <ele>22.84545</ele>
        <time>2020-07-16T04:43:11.293Z</time>
      </trkpt>
      <trkpt lat="69.24868" lon="15.96827">
        <ele>23.218785</ele>
        <time>2020-07-16T04:43:17.791Z</time>
      </trkpt>
      <trkpt lat="69.2488" lon="15.96811">
        <ele>23.375994</ele>
        <time>2020-07-16T04:43:20.722Z</time>
      </trkpt>
      <trkpt lat="69.24928" lon="15.96744">
        <ele>23.980923</ele>
        <time>2020-07-16T04:43:32.445Z</time>
      </trkpt>
      <trkpt lat="69.2495" lon="15.96713">
        <ele>24.256423</ele>
        <time>2020-07-16T04:43:38.035Z</time>
      </trkpt>
      <trkpt lat="69.24962" lon="15.9669">
        <ele>24.428527</ele>
        <time>2020-07-16T04:43:41.625Z</time>
      </trkpt>
      <trkpt lat="69.24996" lon="15.96623">
        <ele>24.873054</ele>
        <time>2020-07-16T04:43:52.085Z</time>
      </trkpt>
      <trkpt lat="69.25107" lon="15.96474">
        <ele>25.722649</ele>
        <time>2020-07-16T04:44:17.869Z</time>
      </trkpt>
      <trkpt lat="69.2513" lon="15.96437">
        <ele>25.906238</ele>
        <time>2020-07-16T04:44:22.741Z</time>
      </trkpt>
      <trkpt lat="69.2519" lon="15.96344">
        <ele>25.776876</ele>
        <time>2020-07-16T04:44:33.588Z</time>
      </trkpt>
      <trkpt lat="69.2522" lon="15.96294">
        <ele>25.530789</ele>
        <time>2020-07-16T04:44:38.958Z</time>
      </trkpt>
      <trkpt lat="69.25246" lon="15.96248">
        <ele>25.310723</ele>
        <time>2020-07-16T04:44:43.672Z</time>
      </trkpt>
      <trkpt lat="69.25348" lon="15.96015">
        <ele>25.36173</ele>
        <time>2020-07-16T04:45:04.985Z</time>
      </trkpt>
      <trkpt lat="69.25368" lon="15.95965">
        <ele>25.60734</ele>
        <time>2020-07-16T04:45:10.587Z</time>
      </trkpt>
      <trkpt lat="69.25403" lon="15.95878">
        <ele>26.036675</ele>
        <time>2020-07-16T04:45:20.646Z</time>
      </trkpt>
      <trkpt lat="69.25433" lon="15.9581">
        <ele>26.389537</ele>
        <time>2020-07-16T04:45:29.231Z</time>
      </trkpt>
      <trkpt lat="69.25467" lon="15.95758">
        <ele>27.666031</ele>
        <time>2020-07-16T04:45:40.592Z</time>
      </trkpt>
      <trkpt lat="69.2554" lon="15.95721">
        <ele>30.530497</ele>
        <time>2020-07-16T04:46:03.431Z</time>
      </trkpt>
      <trkpt lat="69.25587" lon="15.9571">
        <ele>32.368415</ele>
        <time>2020-07-16T04:46:17.962Z</time>
      </trkpt>
      <trkpt lat="69.25598" lon="15.95714">
        <ele>32.818349</ele>
        <time>2020-07-16T04:46:21.750Z</time>
      </trkpt>
      <trkpt lat="69.25602" lon="15.95717">
        <ele>32.960585</ele>
        <time>2020-07-16T04:46:24.148Z</time>
      </trkpt>
      <trkpt lat="69.2562" lon="15.95751">
        <ele>33.746989</ele>
        <time>2020-07-16T04:46:29.834Z</time>
      </trkpt>
      <trkpt lat="69.25629" lon="15.95805">
        <ele>34.458316</ele>
        <time>2020-07-16T04:46:37.490Z</time>
      </trkpt>
      <trkpt lat="69.25622" lon="15.95989">
        <ele>36.659443</ele>
        <time>2020-07-16T04:46:58.456Z</time>
      </trkpt>
      <trkpt lat="69.25638" lon="15.96146">
        <ele>38.590613</ele>
        <time>2020-07-16T04:47:14.202Z</time>
      </trkpt>
      <trkpt lat="69.25667" lon="15.963">
        <ele>39.542549</ele>
        <time>2020-07-16T04:47:27.312Z</time>
      </trkpt>
      <trkpt lat="69.25705" lon="15.9642">
        <ele>39.633377</ele>
        <time>2020-07-16T04:47:38.070Z</time>
      </trkpt>
      <trkpt lat="69.25752" lon="15.96522">
        <ele>39.728618</ele>
        <time>2020-07-16T04:47:48.600Z</time>
      </trkpt>
      <trkpt lat="69.25784" lon="15.96551">
        <ele>39.648708</ele>
        <time>2020-07-16T04:47:53.952Z</time>
      </trkpt>
      <trkpt lat="69.25812" lon="15.96547">
        <ele>39.044272</ele>
        <time>2020-07-16T04:47:57.925Z</time>
      </trkpt>
      <trkpt lat="69.25882" lon="15.96491">
        <ele>37.431131</ele>
        <time>2020-07-16T04:48:08.335Z</time>
      </trkpt>
      <trkpt lat="69.25889" lon="15.9649">
        <ele>37.278207</ele>
        <time>2020-07-16T04:48:09.380Z</time>
      </trkpt>
      <trkpt lat="69.25903" lon="15.96492">
        <ele>36.97476</ele>
        <time>2020-07-16T04:48:11.150Z</time>
      </trkpt>
      <trkpt lat="69.25982" lon="15.9654">
        <ele>34.806914</ele>
        <time>2020-07-16T04:48:21.810Z</time>
      </trkpt>
      <trkpt lat="69.26036" lon="15.9655">
        <ele>32.902421</ele>
        <time>2020-07-16T04:48:28.674Z</time>
      </trkpt>
      <trkpt lat="69.26081" lon="15.96535">
        <ele>31.341166</ele>
        <time>2020-07-16T04:48:34.270Z</time>
      </trkpt>
      <trkpt lat="69.26128" lon="15.96486">
        <ele>29.581175</ele>
        <time>2020-07-16T04:48:40.788Z</time>
      </trkpt>
      <trkpt lat="69.2617" lon="15.96403">
        <ele>28.710335</ele>
        <time>2020-07-16T04:48:47.764Z</time>
      </trkpt>
      <trkpt lat="69.26197" lon="15.96332">
        <ele>28.130454</ele>
        <time>2020-07-16T04:48:52.925Z</time>
      </trkpt>
      <trkpt lat="69.26277" lon="15.95999">
        <ele>26.582087</ele>
        <time>2020-07-16T04:49:16.112Z</time>
      </trkpt>
      <trkpt lat="69.26395" lon="15.95807">
        <ele>26.471572</ele>
        <time>2020-07-16T04:49:40.410Z</time>
      </trkpt>
      <trkpt lat="69.26421" lon="15.95779">
        <ele>26.7597</ele>
        <time>2020-07-16T04:49:45.496Z</time>
      </trkpt>
      <trkpt lat="69.26484" lon="15.9575">
        <ele>27.427281</ele>
        <time>2020-07-16T04:49:57.794Z</time>
      </trkpt>
      <trkpt lat="69.26541" lon="15.95741">
        <ele>28.016907</ele>
        <time>2020-07-16T04:50:11.215Z</time>
      </trkpt>
      <trkpt lat="69.26566" lon="15.9576">
        <ele>28.286692</ele>
        <time>2020-07-16T04:50:17.164Z</time>
      </trkpt>
      <trkpt lat="69.26624" lon="15.95853">
        <ele>30.186906</ele>
        <time>2020-07-16T04:50:34.063Z</time>
      </trkpt>
      <trkpt lat="69.26635" lon="15.9587">
        <ele>30.547107</ele>
        <time>2020-07-16T04:50:37.808Z</time>
      </trkpt>
      <trkpt lat="69.26649" lon="15.95889">
        <ele>30.986365</ele>
        <time>2020-07-16T04:50:41.905Z</time>
      </trkpt>
      <trkpt lat="69.26711" lon="15.95949">
        <ele>32.866808</ele>
        <time>2020-07-16T04:51:00.878Z</time>
      </trkpt>
      <trkpt lat="69.26753" lon="15.9599">
        <ele>34.058714</ele>
        <time>2020-07-16T04:51:13.719Z</time>
      </trkpt>
      <trkpt lat="69.26792" lon="15.96028">
        <ele>35.07556</ele>
        <time>2020-07-16T04:51:25.267Z</time>
      </trkpt>
      <trkpt lat="69.26822" lon="15.96066">
        <ele>35.903587</ele>
        <time>2020-07-16T04:51:33.558Z</time>
      </trkpt>
      <trkpt lat="69.26833" lon="15.96081">
        <ele>36.221499</ele>
        <time>2020-07-16T04:51:36.968Z</time>
      </trkpt>
      <trkpt lat="69.2687" lon="15.96115">
        <ele>37.173491</ele>
        <time>2020-07-16T04:51:46.512Z</time>
      </trkpt>
      <trkpt lat="69.26899" lon="15.96113">
        <ele>37.895497</ele>
        <time>2020-07-16T04:51:53.384Z</time>
      </trkpt>
      <trkpt lat="69.26919" lon="15.96096">
        <ele>37.628442</ele>
        <time>2020-07-16T04:51:58.276Z</time>
      </trkpt>
      <trkpt lat="69.2696" lon="15.96019">
        <ele>36.83508</ele>
        <time>2020-07-16T04:52:08.090Z</time>
      </trkpt>
      <trkpt lat="69.26978" lon="15.95968">
        <ele>36.432901</ele>
        <time>2020-07-16T04:52:12.046Z</time>
      </trkpt>
      <trkpt lat="69.26994" lon="15.9592">
        <ele>36.065032</ele>
        <time>2020-07-16T04:52:15.105Z</time>
      </trkpt>
      <trkpt lat="69.27024" lon="15.95831">
        <ele>35.364126</ele>
        <time>2020-07-16T04:52:20.861Z</time>
      </trkpt>
      <trkpt lat="69.27041" lon="15.95785">
        <ele>34.738799</ele>
        <time>2020-07-16T04:52:23.742Z</time>
      </trkpt>
      <trkpt lat="69.27054" lon="15.95757">
        <ele>33.727978</ele>
        <time>2020-07-16T04:52:25.614Z</time>
      </trkpt>
      <trkpt lat="69.27066" lon="15.95732">
        <ele>32.715878</ele>
        <time>2020-07-16T04:52:27.412Z</time>
      </trkpt>
      <trkpt lat="69.27077" lon="15.95717">
        <ele>31.967029</ele>
        <time>2020-07-16T04:52:28.868Z</time>
      </trkpt>
      <trkpt lat="69.27086" lon="15.95702">
        <ele>31.301415</ele>
        <time>2020-07-16T04:52:30.004Z</time>
      </trkpt>
      <trkpt lat="69.27106" lon="15.95666">
        <ele>29.750444</ele>
        <time>2020-07-16T04:52:32.839Z</time>
      </trkpt>
      <trkpt lat="69.2714" lon="15.95622">
        <ele>27.35669</ele>
        <time>2020-07-16T04:52:37.095Z</time>
      </trkpt>
      <trkpt lat="69.27149" lon="15.95612">
        <ele>26.704821</ele>
        <time>2020-07-16T04:52:38.197Z</time>
      </trkpt>
      <trkpt lat="69.27158" lon="15.95603">
        <ele>26.101643</ele>
        <time>2020-07-16T04:52:39.237Z</time>
      </trkpt>
      <trkpt lat="69.27181" lon="15.95595">
        <ele>24.566626</ele>
        <time>2020-07-16T04:52:42.022Z</time>
      </trkpt>
      <trkpt lat="69.27185" lon="15.95599">
        <ele>24.293556</ele>
        <time>2020-07-16T04:52:42.467Z</time>
      </trkpt>
      <trkpt lat="69.2719" lon="15.95613">
        <ele>23.843412</ele>
        <time>2020-07-16T04:52:43.253Z</time>
      </trkpt>
      <trkpt lat="69.27195" lon="15.95657">
        <ele>22.957182</ele>
        <time>2020-07-16T04:52:45.243Z</time>
      </trkpt>
      <trkpt lat="69.27199" lon="15.9569">
        <ele>22.35164</ele>
        <time>2020-07-16T04:52:46.616Z</time>
      </trkpt>
      <trkpt lat="69.27224" lon="15.95952">
        <ele>17.706274</ele>
        <time>2020-07-16T04:52:58.271Z</time>
      </trkpt>
      <trkpt lat="69.2723" lon="15.96002">
        <ele>16.817601</ele>
        <time>2020-07-16T04:53:00.551Z</time>
      </trkpt>
      <trkpt lat="69.27251" lon="15.96148">
        <ele>14.417066</ele>
        <time>2020-07-16T04:53:08.082Z</time>
      </trkpt>
      <trkpt lat="69.27277" lon="15.96284">
        <ele>13.031923</ele>
        <time>2020-07-16T04:53:15.681Z</time>
      </trkpt>
      <trkpt lat="69.27292" lon="15.96356">
        <ele>12.277731</ele>
        <time>2020-07-16T04:53:19.779Z</time>
      </trkpt>
      <trkpt lat="69.27296" lon="15.96373">
        <ele>12.090678</ele>
        <time>2020-07-16T04:53:20.862Z</time>
      </trkpt>
      <trkpt lat="69.27301" lon="15.96389">
        <ele>11.907321</ele>
        <time>2020-07-16T04:53:21.796Z</time>
      </trkpt>
      <trkpt lat="69.27431" lon="15.96745">
        <ele>7.194724</ele>
        <time>2020-07-16T04:53:46.431Z</time>
      </trkpt>
      <trkpt lat="69.27443" lon="15.96772">
        <ele>6.803577</ele>
        <time>2020-07-16T04:53:48.391Z</time>
      </trkpt>
      <trkpt lat="69.27452" lon="15.96787">
        <ele>6.51181</ele>
        <time>2020-07-16T04:53:49.868Z</time>
      </trkpt>
      <trkpt lat="69.27495" lon="15.96845">
        <ele>5.29455</ele>
        <time>2020-07-16T04:53:56.308Z</time>
      </trkpt>
      <trkpt lat="69.27507" lon="15.96858">
        <ele>5.017056</ele>
        <time>2020-07-16T04:53:57.976Z</time>
      </trkpt>
      <trkpt lat="69.27525" lon="15.96878">
        <ele>4.600672</ele>
        <time>2020-07-16T04:54:00.576Z</time>
      </trkpt>
      <trkpt lat="69.27547" lon="15.96906">
        <ele>4.069521</ele>
        <time>2020-07-16T04:54:03.850Z</time>
      </trkpt>
      <trkpt lat="69.27577" lon="15.96963">
        <ele>3.287122</ele>
        <time>2020-07-16T04:54:08.732Z</time>
      </trkpt>
      <trkpt lat="69.27584" lon="15.96985">
        <ele>3.045182</ele>
        <time>2020-07-16T04:54:10.277Z</time>
      </trkpt>
      <trkpt lat="69.2759" lon="15.97004">
        <ele>2.855292</ele>
        <time>2020-07-16T04:54:11.527Z</time>
      </trkpt>
      <trkpt lat="69.27617" lon="15.97087">
        <ele>1.987705</ele>
        <time>2020-07-16T04:54:17.226Z</time>
      </trkpt>
      <trkpt lat="69.27649" lon="15.97185">
        <ele>1.336179</ele>
        <time>2020-07-16T04:54:24.268Z</time>
      </trkpt>
      <trkpt lat="69.27664" lon="15.9723">
        <ele>1.176851</ele>
        <time>2020-07-16T04:54:27.628Z</time>
      </trkpt>
      <trkpt lat="69.27702" lon="15.97347">
        <ele>0.767918</ele>
        <time>2020-07-16T04:54:36.610Z</time>
      </trkpt>
      <trkpt lat="69.27717" lon="15.97392">
        <ele>0.608163</ele>
        <time>2020-07-16T04:54:40.247Z</time>
      </trkpt>
      <trkpt lat="69.27836" lon="15.97749">
        <ele>0.07594</ele>
        <time>2020-07-16T04:55:10.334Z</time>
      </trkpt>
      <trkpt lat="69.28005" lon="15.9826">
        <ele>0.003657</ele>
        <time>2020-07-16T04:55:54.550Z</time>
      </trkpt>
      <trkpt lat="69.28095" lon="15.98537">
        <ele>0.065161</ele>
        <time>2020-07-16T04:56:18.309Z</time>
      </trkpt>
      <trkpt lat="69.28208" lon="15.98882">
        <ele>0.374934</ele>
        <time>2020-07-16T04:56:48.989Z</time>
      </trkpt>
      <trkpt lat="69.28235" lon="15.9896">
        <ele>0.462458</ele>
        <time>2020-07-16T04:56:56.248Z</time>
      </trkpt>
      <trkpt lat="69.28241" lon="15.98975">
        <ele>0.481842</ele>
        <time>2020-07-16T04:56:57.819Z</time>
      </trkpt>
      <trkpt lat="69.28253" lon="15.98998">
        <ele>0.528046</ele>
        <time>2020-07-16T04:57:00.333Z</time>
      </trkpt>
      <trkpt lat="69.28255" lon="15.99003">
        <ele>0.540692</ele>
        <time>2020-07-16T04:57:01.153Z</time>
      </trkpt>
      <trkpt lat="69.28297" lon="15.99058">
        <ele>0.730816</ele>
        <time>2020-07-16T04:57:09.924Z</time>
      </trkpt>
      <trkpt lat="69.28331" lon="15.99075">
        <ele>0.871541</ele>
        <time>2020-07-16T04:57:16.458Z</time>
      </trkpt>
      <trkpt lat="69.28392" lon="15.99051">
        <ele>1.122897</ele>
        <time>2020-07-16T04:57:28.187Z</time>
      </trkpt>
      <trkpt lat="69.28508" lon="15.98956">
        <ele>2.540292</ele>
        <time>2020-07-16T04:57:51.874Z</time>
      </trkpt>
      <trkpt lat="69.28585" lon="15.98895">
        <ele>3.640463</ele>
        <time>2020-07-16T04:58:11.509Z</time>
      </trkpt>
      <trkpt lat="69.28614" lon="15.98881">
        <ele>4.395102</ele>
        <time>2020-07-16T04:58:19.283Z</time>
      </trkpt>
      <trkpt lat="69.2865" lon="15.98881">
        <ele>5.404575</ele>
        <time>2020-07-16T04:58:29.191Z</time>
      </trkpt>
      <trkpt lat="69.28667" lon="15.98887">
        <ele>5.859211</ele>
        <time>2020-07-16T04:58:34.054Z</time>
      </trkpt>
      <trkpt lat="69.28699" lon="15.98908">
        <ele>6.795817</ele>
        <time>2020-07-16T04:58:43.899Z</time>
      </trkpt>
      <trkpt lat="69.28793" lon="15.98982">
        <ele>8.925</ele>
        <time>2020-07-16T04:59:09.424Z</time>
      </trkpt>
      <trkpt lat="69.28839" lon="15.99017">
        <ele>9.2323</ele>
        <time>2020-07-16T04:59:20.336Z</time>
      </trkpt>
      <trkpt lat="69.29014" lon="15.9915">
        <ele>10.297109</ele>
        <time>2020-07-16T04:59:50.690Z</time>
      </trkpt>
      <trkpt lat="69.29077" lon="15.99198">
        <ele>10.628757</ele>
        <time>2020-07-16T05:00:03.373Z</time>
      </trkpt>
      <trkpt lat="69.2912" lon="15.99235">
        <ele>10.973132</ele>
        <time>2020-07-16T05:00:13.722Z</time>
      </trkpt>
      <trkpt lat="69.29285" lon="15.99422">
        <ele>14.598505</ele>
        <time>2020-07-16T05:00:59.122Z</time>
      </trkpt>
      <trkpt lat="69.29344" lon="15.9947">
        <ele>14.954916</ele>
        <time>2020-07-16T05:01:12.077Z</time>
      </trkpt>
      <trkpt lat="69.29411" lon="15.99488">
        <ele>15.351357</ele>
        <time>2020-07-16T05:01:23.456Z</time>
      </trkpt>
      <trkpt lat="69.2948" lon="15.99469">
        <ele>15.726227</ele>
        <time>2020-07-16T05:01:36.967Z</time>
      </trkpt>
      <trkpt lat="69.2954" lon="15.99436">
        <ele>15.987326</ele>
        <time>2020-07-16T05:01:48.431Z</time>
      </trkpt>
      <trkpt lat="69.29552" lon="15.99429">
        <ele>16.038816</ele>
        <time>2020-07-16T05:01:50.599Z</time>
      </trkpt>
      <trkpt lat="69.29597" lon="15.99401">
        <ele>16.239253</ele>
        <time>2020-07-16T05:01:59.848Z</time>
      </trkpt>
      <trkpt lat="69.29637" lon="15.99378">
        <ele>16.479718</ele>
        <time>2020-07-16T05:02:08.534Z</time>
      </trkpt>
      <trkpt lat="69.29646" lon="15.99374">
        <ele>16.675351</ele>
        <time>2020-07-16T05:02:09.802Z</time>
      </trkpt>
      <trkpt lat="69.29648" lon="15.99372">
        <ele>16.721532</ele>
        <time>2020-07-16T05:02:10.051Z</time>
      </trkpt>
      <trkpt lat="69.29745" lon="15.99354">
        <ele>18.91997</ele>
        <time>2020-07-16T05:02:31.978Z</time>
      </trkpt>
      <trkpt lat="69.29752" lon="15.99354">
        <ele>19.091731</ele>
        <time>2020-07-16T05:02:33.036Z</time>
      </trkpt>
      <trkpt lat="69.2976" lon="15.99356">
        <ele>19.27539</ele>
        <time>2020-07-16T05:02:34.139Z</time>
      </trkpt>
      <trkpt lat="69.29768" lon="15.99361">
        <ele>19.454892</ele>
        <time>2020-07-16T05:02:37.696Z</time>
      </trkpt>
      <trkpt lat="69.2978" lon="15.9937">
        <ele>19.729845</ele>
        <time>2020-07-16T05:02:43.516Z</time>
      </trkpt>
      <trkpt lat="69.29784" lon="15.99374">
        <ele>19.826354</ele>
        <time>2020-07-16T05:02:44.192Z</time>
      </trkpt>
      <trkpt lat="69.29797" lon="15.99387">
        <ele>20.131264</ele>
        <time>2020-07-16T05:02:46.200Z</time>
      </trkpt>
      <trkpt lat="69.29837" lon="15.99449">
        <ele>22.697422</ele>
        <time>2020-07-16T05:03:03.897Z</time>
      </trkpt>
      <trkpt lat="69.29871" lon="15.99551">
        <ele>26.17489</ele>
        <time>2020-07-16T05:03:23.570Z</time>
      </trkpt>
      <trkpt lat="69.29876" lon="15.99574">
        <ele>26.896041</ele>
        <time>2020-07-16T05:03:25.938Z</time>
      </trkpt>
      <trkpt lat="69.29887" lon="15.99622">
        <ele>28.300917</ele>
        <time>2020-07-16T05:03:37.231Z</time>
      </trkpt>
      <trkpt lat="69.29894" lon="15.99679">
        <ele>29.821794</ele>
        <time>2020-07-16T05:03:44.584Z</time>
      </trkpt>
      <trkpt lat="69.29894" lon="15.99718">
        <ele>30.817772</ele>
        <time>2020-07-16T05:03:52.730Z</time>
      </trkpt>
      <trkpt lat="69.29881" lon="15.99861">
        <ele>34.091179</ele>
        <time>2020-07-16T05:04:14.714Z</time>
      </trkpt>
      <trkpt lat="69.29847" lon="16.00053">
        <ele>37.694785</ele>
        <time>2020-07-16T05:04:49.513Z</time>
      </trkpt>
      <trkpt lat="69.29821" lon="16.00156">
        <ele>39.846329</ele>
        <time>2020-07-16T05:05:01.564Z</time>
      </trkpt>
      <trkpt lat="69.29781" lon="16.00237">
        <ele>41.4412</ele>
        <time>2020-07-16T05:05:10.841Z</time>
      </trkpt>
      <trkpt lat="69.29677" lon="16.00324">
        <ele>36.956052</ele>
        <time>2020-07-16T05:05:25.081Z</time>
      </trkpt>
      <trkpt lat="69.29637" lon="16.00374">
        <ele>35.154859</ele>
        <time>2020-07-16T05:05:30.099Z</time>
      </trkpt>
      <trkpt lat="69.29602" lon="16.00466">
        <ele>32.307171</ele>
        <time>2020-07-16T05:05:35.462Z</time>
      </trkpt>
      <trkpt lat="69.29584" lon="16.00561">
        <ele>29.534591</ele>
        <time>2020-07-16T05:05:39.758Z</time>
      </trkpt>
      <trkpt lat="69.29542" lon="16.00869">
        <ele>21.270345</ele>
        <time>2020-07-16T05:05:53.082Z</time>
      </trkpt>
      <trkpt lat="69.29533" lon="16.00928">
        <ele>20.874039</ele>
        <time>2020-07-16T05:05:55.736Z</time>
      </trkpt>
      <trkpt lat="69.2952" lon="16.01024">
        <ele>20.219524</ele>
        <time>2020-07-16T05:06:00.327Z</time>
      </trkpt>
      <trkpt lat="69.29513" lon="16.01069">
        <ele>19.915583</ele>
        <time>2020-07-16T05:06:02.689Z</time>
      </trkpt>
      <trkpt lat="69.29508" lon="16.01099">
        <ele>19.697124</ele>
        <time>2020-07-16T05:06:04.282Z</time>
      </trkpt>
      <trkpt lat="69.29498" lon="16.0115">
        <ele>19.335166</ele>
        <time>2020-07-16T05:06:07.587Z</time>
      </trkpt>
      <trkpt lat="69.29471" lon="16.01254">
        <ele>18.516596</ele>
        <time>2020-07-16T05:06:16.501Z</time>
      </trkpt>
      <trkpt lat="69.29345" lon="16.0163">
        <ele>22.146046</ele>
        <time>2020-07-16T05:07:07.632Z</time>
      </trkpt>
      <trkpt lat="69.29322" lon="16.01698">
        <ele>22.442204</ele>
        <time>2020-07-16T05:07:15.334Z</time>
      </trkpt>
      <trkpt lat="69.29311" lon="16.01741">
        <ele>22.215503</ele>
        <time>2020-07-16T05:07:18.821Z</time>
      </trkpt>
      <trkpt lat="69.29293" lon="16.01835">
        <ele>21.771985</ele>
        <time>2020-07-16T05:07:24.998Z</time>
      </trkpt>
      <trkpt lat="69.29281" lon="16.01944">
        <ele>21.293507</ele>
        <time>2020-07-16T05:07:31.026Z</time>
      </trkpt>
      <trkpt lat="69.29279" lon="16.01977">
        <ele>21.154128</ele>
        <time>2020-07-16T05:07:32.860Z</time>
      </trkpt>
      <trkpt lat="69.29277" lon="16.01999">
        <ele>21.061118</ele>
        <time>2020-07-16T05:07:33.899Z</time>
      </trkpt>
      <trkpt lat="69.29276" lon="16.02139">
        <ele>20.463952</ele>
        <time>2020-07-16T05:07:40.174Z</time>
      </trkpt>
      <trkpt lat="69.29278" lon="16.02192">
        <ele>19.932996</ele>
        <time>2020-07-16T05:07:42.721Z</time>
      </trkpt>
      <trkpt lat="69.29279" lon="16.02215">
        <ele>19.709501</ele>
        <time>2020-07-16T05:07:43.818Z</time>
      </trkpt>
      <trkpt lat="69.29281" lon="16.02234">
        <ele>19.51938</ele>
        <time>2020-07-16T05:07:44.609Z</time>
      </trkpt>
      <trkpt lat="69.29374" lon="16.02815">
        <ele>14.477467</ele>
        <time>2020-07-16T05:08:15.319Z</time>
      </trkpt>
      <trkpt lat="69.29408" lon="16.02946">
        <ele>13.767115</ele>
        <time>2020-07-16T05:08:24.868Z</time>
      </trkpt>
      <trkpt lat="69.29434" lon="16.03019">
        <ele>13.313675</ele>
        <time>2020-07-16T05:08:31.317Z</time>
      </trkpt>
      <trkpt lat="69.29442" lon="16.03036">
        <ele>13.225352</ele>
        <time>2020-07-16T05:08:33.595Z</time>
      </trkpt>
      <trkpt lat="69.29485" lon="16.03123">
        <ele>12.996967</ele>
        <time>2020-07-16T05:08:43.052Z</time>
      </trkpt>
      <trkpt lat="69.29571" lon="16.03298">
        <ele>12.533889</ele>
        <time>2020-07-16T05:09:00.827Z</time>
      </trkpt>
      <trkpt lat="69.29617" lon="16.03395">
        <ele>12.107192</ele>
        <time>2020-07-16T05:09:09.329Z</time>
      </trkpt>
      <trkpt lat="69.29638" lon="16.03447">
        <ele>11.869147</ele>
        <time>2020-07-16T05:09:13.332Z</time>
      </trkpt>
      <trkpt lat="69.29684" lon="16.03602">
        <ele>11.258846</ele>
        <time>2020-07-16T05:09:24.339Z</time>
      </trkpt>
      <trkpt lat="69.29712" lon="16.03764">
        <ele>11.196973</ele>
        <time>2020-07-16T05:09:35.212Z</time>
      </trkpt>
      <trkpt lat="69.29756" lon="16.04121">
        <ele>12.693529</ele>
        <time>2020-07-16T05:10:04.895Z</time>
      </trkpt>
      <trkpt lat="69.29775" lon="16.04288">
        <ele>13.445122</ele>
        <time>2020-07-16T05:10:20.069Z</time>
      </trkpt>
      <trkpt lat="69.29782" lon="16.04353">
        <ele>13.747879</ele>
        <time>2020-07-16T05:10:25.753Z</time>
      </trkpt>
      <trkpt lat="69.29783" lon="16.04373">
        <ele>13.837854</ele>
        <time>2020-07-16T05:10:27.670Z</time>
      </trkpt>
      <trkpt lat="69.29785" lon="16.04411">
        <ele>14.008906</ele>
        <time>2020-07-16T05:10:31.017Z</time>
      </trkpt>
      <trkpt lat="69.29785" lon="16.04592">
        <ele>14.81431</ele>
        <time>2020-07-16T05:10:45.431Z</time>
      </trkpt>
      <trkpt lat="69.2978" lon="16.04714">
        <ele>14.922321</ele>
        <time>2020-07-16T05:10:53.448Z</time>
      </trkpt>
      <trkpt lat="69.29774" lon="16.04872">
        <ele>13.680457</ele>
        <time>2020-07-16T05:11:01.691Z</time>
      </trkpt>
      <trkpt lat="69.29772" lon="16.04965">
        <ele>12.952048</ele>
        <time>2020-07-16T05:11:06.311Z</time>
      </trkpt>
      <trkpt lat="69.29773" lon="16.04991">
        <ele>12.75135</ele>
        <time>2020-07-16T05:11:07.509Z</time>
      </trkpt>
      <trkpt lat="69.29775" lon="16.0499">
        <ele>12.69572</ele>
        <time>2020-07-16T05:11:07.778Z</time>
      </trkpt>
      <trkpt lat="69.29802" lon="16.04987">
        <ele>12.1069</ele>
        <time>2020-07-16T05:11:11.359Z</time>
      </trkpt>
      <trkpt lat="69.2982" lon="16.0499">
        <ele>11.712432</ele>
        <time>2020-07-16T05:11:13.604Z</time>
      </trkpt>
      <trkpt lat="69.29826" lon="16.04992">
        <ele>11.574543</ele>
        <time>2020-07-16T05:11:14.467Z</time>
      </trkpt>
      <trkpt lat="69.29831" lon="16.04994">
        <ele>11.460097</ele>
        <time>2020-07-16T05:11:15.191Z</time>
      </trkpt>
      <trkpt lat="69.29838" lon="16.04998">
        <ele>11.300745</ele>
        <time>2020-07-16T05:11:16.068Z</time>
      </trkpt>
      <trkpt lat="69.29874" lon="16.0503">
        <ele>10.152596</ele>
        <time>2020-07-16T05:11:20.832Z</time>
      </trkpt>
      <trkpt lat="69.29906" lon="16.05078">
        <ele>9.007615</ele>
        <time>2020-07-16T05:11:25.414Z</time>
      </trkpt>
      <trkpt lat="69.2992" lon="16.05108">
        <ele>8.464611</ele>
        <time>2020-07-16T05:11:27.544Z</time>
      </trkpt>
      <trkpt lat="69.29935" lon="16.05141">
        <ele>7.888949</ele>
        <time>2020-07-16T05:11:29.912Z</time>
      </trkpt>
      <trkpt lat="69.29957" lon="16.05196">
        <ele>6.962924</ele>
        <time>2020-07-16T05:11:33.790Z</time>
      </trkpt>
      <trkpt lat="69.29992" lon="16.05287">
        <ele>5.56659</ele>
        <time>2020-07-16T05:11:40.639Z</time>
      </trkpt>
      <trkpt lat="69.30019" lon="16.05367">
        <ele>5.293404</ele>
        <time>2020-07-16T05:11:46.660Z</time>
      </trkpt>
      <trkpt lat="69.3004" lon="16.05436">
        <ele>5.073195</ele>
        <time>2020-07-16T05:11:51.836Z</time>
      </trkpt>
      <trkpt lat="69.30049" lon="16.05463">
        <ele>4.985709</ele>
        <time>2020-07-16T05:11:54.053Z</time>
      </trkpt>
      <trkpt lat="69.30056" lon="16.05488">
        <ele>4.907858</ele>
        <time>2020-07-16T05:11:56.088Z</time>
      </trkpt>
      <trkpt lat="69.30056" lon="16.05503">
        <ele>4.871377</ele>
        <time>2020-07-16T05:11:57.074Z</time>
      </trkpt>
      <trkpt lat="69.30057" lon="16.05517">
        <ele>4.835454</ele>
        <time>2020-07-16T05:11:57.947Z</time>
      </trkpt>
      <trkpt lat="69.30075" lon="16.0559">
        <ele>4.618425</ele>
        <time>2020-07-16T05:12:03.439Z</time>
      </trkpt>
      <trkpt lat="69.30084" lon="16.05628">
        <ele>4.506565</ele>
        <time>2020-07-16T05:12:06.069Z</time>
      </trkpt>
      <trkpt lat="69.301" lon="16.05709">
        <ele>4.293077</ele>
        <time>2020-07-16T05:12:11.678Z</time>
      </trkpt>
      <trkpt lat="69.30123" lon="16.05839">
        <ele>4.000833</ele>
        <time>2020-07-16T05:12:20.304Z</time>
      </trkpt>
      <trkpt lat="69.30136" lon="16.0591">
        <ele>3.839163</ele>
        <time>2020-07-16T05:12:24.974Z</time>
      </trkpt>
      <trkpt lat="69.30146" lon="16.05951">
        <ele>3.739197</ele>
        <time>2020-07-16T05:12:27.871Z</time>
      </trkpt>
      <trkpt lat="69.30156" lon="16.05983">
        <ele>3.652915</ele>
        <time>2020-07-16T05:12:30.229Z</time>
      </trkpt>
      <trkpt lat="69.30245" lon="16.06213">
        <ele>3.159049</ele>
        <time>2020-07-16T05:12:49.350Z</time>
      </trkpt>
      <trkpt lat="69.30282" lon="16.06327">
        <ele>3.014954</ele>
        <time>2020-07-16T05:12:58.358Z</time>
      </trkpt>
      <trkpt lat="69.30314" lon="16.06469">
        <ele>2.857777</ele>
        <time>2020-07-16T05:13:09.367Z</time>
      </trkpt>
      <trkpt lat="69.30341" lon="16.06649">
        <ele>3.728057</ele>
        <time>2020-07-16T05:13:23.620Z</time>
      </trkpt>
      <trkpt lat="69.30347" lon="16.06709">
        <ele>4.016837</ele>
        <time>2020-07-16T05:13:28.435Z</time>
      </trkpt>
      <trkpt lat="69.30351" lon="16.06752">
        <ele>4.223258</ele>
        <time>2020-07-16T05:13:31.906Z</time>
      </trkpt>
      <trkpt lat="69.30371" lon="16.06992">
        <ele>5.49771</ele>
        <time>2020-07-16T05:13:52.583Z</time>
      </trkpt>
      <trkpt lat="69.30388" lon="16.07185">
        <ele>7.226407</ele>
        <time>2020-07-16T05:14:10.848Z</time>
      </trkpt>
      <trkpt lat="69.30391" lon="16.07272">
        <ele>7.979481</ele>
        <time>2020-07-16T05:14:18.671Z</time>
      </trkpt>
      <trkpt lat="69.30391" lon="16.07288">
        <ele>8.120682</ele>
        <time>2020-07-16T05:14:20.445Z</time>
      </trkpt>
      <trkpt lat="69.30394" lon="16.07331">
        <ele>8.507193</ele>
        <time>2020-07-16T05:14:24.524Z</time>
      </trkpt>
      <trkpt lat="69.30402" lon="16.07406">
        <ele>9.186307</ele>
        <time>2020-07-16T05:14:31.890Z</time>
      </trkpt>
      <trkpt lat="69.30408" lon="16.0746">
        <ele>9.675375</ele>
        <time>2020-07-16T05:14:36.794Z</time>
      </trkpt>
      <trkpt lat="69.30411" lon="16.07498">
        <ele>10.061183</ele>
        <time>2020-07-16T05:14:40.794Z</time>
      </trkpt>
      <trkpt lat="69.30434" lon="16.07575">
        <ele>11.070276</ele>
        <time>2020-07-16T05:14:50.523Z</time>
      </trkpt>
      <trkpt lat="69.30461" lon="16.07648">
        <ele>12.122294</ele>
        <time>2020-07-16T05:15:01.169Z</time>
      </trkpt>
      <trkpt lat="69.30512" lon="16.07739">
        <ele>13.815307</ele>
        <time>2020-07-16T05:15:17.482Z</time>
      </trkpt>
      <trkpt lat="69.30529" lon="16.07789">
        <ele>14.49182</ele>
        <time>2020-07-16T05:15:24.104Z</time>
      </trkpt>
      <trkpt lat="69.30533" lon="16.078">
        <ele>14.655494</ele>
        <time>2020-07-16T05:15:25.479Z</time>
      </trkpt>
      <trkpt lat="69.30536" lon="16.07806">
        <ele>14.697716</ele>
        <time>2020-07-16T05:15:26.332Z</time>
      </trkpt>
      <trkpt lat="69.30548" lon="16.07816">
        <ele>14.832723</ele>
        <time>2020-07-16T05:15:29.428Z</time>
      </trkpt>
      <trkpt lat="69.30557" lon="16.07826">
        <ele>14.943</ele>
        <time>2020-07-16T05:15:32.316Z</time>
      </trkpt>
      <trkpt lat="69.30617" lon="16.07959">
        <ele>15.766104</ele>
        <time>2020-07-16T05:15:50.316Z</time>
      </trkpt>
      <trkpt lat="69.30697" lon="16.08172">
        <ele>15.958364</ele>
        <time>2020-07-16T05:16:10.223Z</time>
      </trkpt>
      <trkpt lat="69.30953" lon="16.08963">
        <ele>7.339876</ele>
        <time>2020-07-16T05:17:01.419Z</time>
      </trkpt>
      <trkpt lat="69.30963" lon="16.09">
        <ele>7.075609</ele>
        <time>2020-07-16T05:17:03.560Z</time>
      </trkpt>
      <trkpt lat="69.30966" lon="16.09013">
        <ele>6.980637</ele>
        <time>2020-07-16T05:17:04.374Z</time>
      </trkpt>
      <trkpt lat="69.30974" lon="16.09053">
        <ele>6.720045</ele>
        <time>2020-07-16T05:17:06.734Z</time>
      </trkpt>
      <trkpt lat="69.30978" lon="16.09079">
        <ele>6.557646</ele>
        <time>2020-07-16T05:17:08.074Z</time>
      </trkpt>
      <trkpt lat="69.30981" lon="16.09102">
        <ele>6.410586</ele>
        <time>2020-07-16T05:17:09.332Z</time>
      </trkpt>
      <trkpt lat="69.31083" lon="16.09846">
        <ele>4.525635</ele>
        <time>2020-07-16T05:17:56.440Z</time>
      </trkpt>
      <trkpt lat="69.31098" lon="16.10032">
        <ele>4.456246</ele>
        <time>2020-07-16T05:18:08.615Z</time>
      </trkpt>
      <trkpt lat="69.31101" lon="16.10136">
        <ele>4.418232</ele>
        <time>2020-07-16T05:18:15.198Z</time>
      </trkpt>
      <trkpt lat="69.31105" lon="16.10294">
        <ele>4.364191</ele>
        <time>2020-07-16T05:18:25.034Z</time>
      </trkpt>
      <trkpt lat="69.31114" lon="16.10643">
        <ele>4.276772</ele>
        <time>2020-07-16T05:18:46.507Z</time>
      </trkpt>
      <trkpt lat="69.31115" lon="16.1068">
        <ele>4.267493</ele>
        <time>2020-07-16T05:18:48.770Z</time>
      </trkpt>
      <trkpt lat="69.31131" lon="16.11013">
        <ele>4.590112</ele>
        <time>2020-07-16T05:19:10.579Z</time>
      </trkpt>
      <trkpt lat="69.31131" lon="16.11029">
        <ele>4.612895</ele>
        <time>2020-07-16T05:19:11.685Z</time>
      </trkpt>
      <trkpt lat="69.31131" lon="16.11052">
        <ele>4.64492</ele>
        <time>2020-07-16T05:19:13.196Z</time>
      </trkpt>
      <trkpt lat="69.31131" lon="16.11077">
        <ele>4.680075</ele>
        <time>2020-07-16T05:19:14.852Z</time>
      </trkpt>
      <trkpt lat="69.31132" lon="16.11105">
        <ele>4.719684</ele>
        <time>2020-07-16T05:19:16.726Z</time>
      </trkpt>
      <trkpt lat="69.31134" lon="16.11121">
        <ele>4.743337</ele>
        <time>2020-07-16T05:19:18.019Z</time>
      </trkpt>
      <trkpt lat="69.31158" lon="16.11299">
        <ele>5.065044</ele>
        <time>2020-07-16T05:19:32.072Z</time>
      </trkpt>
      <trkpt lat="69.31188" lon="16.11625">
        <ele>6.023128</ele>
        <time>2020-07-16T05:19:58.140Z</time>
      </trkpt>
      <trkpt lat="69.31192" lon="16.1167">
        <ele>6.155118</ele>
        <time>2020-07-16T05:20:01.733Z</time>
      </trkpt>
      <trkpt lat="69.312" lon="16.11663">
        <ele>6.216748</ele>
        <time>2020-07-16T05:20:07.081Z</time>
      </trkpt>
      <trkpt lat="69.31202" lon="16.11683">
        <ele>6.275042</ele>
        <time>2020-07-16T05:20:08.635Z</time>
      </trkpt>
      <trkpt lat="69.31219" lon="16.11775">
        <ele>6.376088</ele>
        <time>2020-07-16T05:20:16.039Z</time>
      </trkpt>
      <trkpt lat="69.31223" lon="16.11787">
        <ele>6.365643</ele>
        <time>2020-07-16T05:20:17.213Z</time>
      </trkpt>
      <trkpt lat="69.31229" lon="16.11805">
        <ele>6.347596</ele>
        <time>2020-07-16T05:20:19.040Z</time>
      </trkpt>
      <trkpt lat="69.31233" lon="16.11817">
        <ele>6.335281</ele>
        <time>2020-07-16T05:20:20.266Z</time>
      </trkpt>
      <trkpt lat="69.31235" lon="16.1182">
        <ele>6.331825</ele>
        <time>2020-07-16T05:20:20.566Z</time>
      </trkpt>
      <trkpt lat="69.3124" lon="16.11831">
        <ele>6.319061</ele>
        <time>2020-07-16T05:20:21.613Z</time>
      </trkpt>
      <trkpt lat="69.31268" lon="16.11866">
        <ele>6.258283</ele>
        <time>2020-07-16T05:20:27.563Z</time>
      </trkpt>
      <trkpt lat="69.31274" lon="16.1187">
        <ele>6.245616</ele>
        <time>2020-07-16T05:20:28.596Z</time>
      </trkpt>
      <trkpt lat="69.31273" lon="16.11887">
        <ele>6.234036</ele>
        <time>2020-07-16T05:20:29.730Z</time>
      </trkpt>
      <trkpt lat="69.31438" lon="16.11954">
        <ele>5.449257</ele>
        <time>2020-07-16T05:20:57.572Z</time>
      </trkpt>
      <trkpt lat="69.31471" lon="16.11968">
        <ele>5.183075</ele>
        <time>2020-07-16T05:21:03.094Z</time>
      </trkpt>
      <trkpt lat="69.31512" lon="16.11984">
        <ele>4.858867</ele>
        <time>2020-07-16T05:21:09.888Z</time>
      </trkpt>
      <trkpt lat="69.31613" lon="16.12025">
        <ele>4.249595</ele>
        <time>2020-07-16T05:21:26.970Z</time>
      </trkpt>
      <trkpt lat="69.31745" lon="16.1208">
        <ele>3.581675</ele>
        <time>2020-07-16T05:21:50.268Z</time>
      </trkpt>
      <trkpt lat="69.31751" lon="16.12083">
        <ele>3.556817</ele>
        <time>2020-07-16T05:21:51.378Z</time>
      </trkpt>
      <trkpt lat="69.31832" lon="16.12155">
        <ele>3.222825</ele>
        <time>2020-07-16T05:22:06.375Z</time>
      </trkpt>
      <trkpt lat="69.31889" lon="16.12214">
        <ele>2.981579</ele>
        <time>2020-07-16T05:22:16.991Z</time>
      </trkpt>
      <trkpt lat="69.31942" lon="16.1227">
        <ele>2.606598</ele>
        <time>2020-07-16T05:22:26.730Z</time>
      </trkpt>
      <trkpt lat="69.32" lon="16.12333">
        <ele>2.19312</ele>
        <time>2020-07-16T05:22:37.138Z</time>
      </trkpt>
      <trkpt lat="69.3206" lon="16.12396">
        <ele>1.765718</ele>
        <time>2020-07-16T05:22:47.794Z</time>
      </trkpt>
      <trkpt lat="69.32057" lon="16.12426">
        <ele>1.686603</ele>
        <time>2020-07-16T05:22:49.634Z</time>
      </trkpt>
      <trkpt lat="69.32048" lon="16.12497">
        <ele>1.497176</ele>
        <time>2020-07-16T05:22:53.989Z</time>
      </trkpt>
      <trkpt lat="69.32039" lon="16.12616">
        <ele>1.190682</ele>
        <time>2020-07-16T05:23:01.090Z</time>
      </trkpt>
      <trkpt lat="69.32033" lon="16.12692">
        <ele>0.993793</ele>
        <time>2020-07-16T05:23:05.718Z</time>
      </trkpt>
      <trkpt lat="69.32032" lon="16.12725">
        <ele>0.911348</ele>
        <time>2020-07-16T05:23:07.682Z</time>
      </trkpt>
      <trkpt lat="69.32033" lon="16.12746">
        <ele>0.858458</ele>
        <time>2020-07-16T05:23:08.918Z</time>
      </trkpt>
      <trkpt lat="69.32035" lon="16.12767">
        <ele>0.803027</ele>
        <time>2020-07-16T05:23:10.199Z</time>
      </trkpt>
      <trkpt lat="69.32047" lon="16.12814">
        <ele>0.658352</ele>
        <time>2020-07-16T05:23:13.690Z</time>
      </trkpt>
      <trkpt lat="69.32064" lon="16.1284">
        <ele>0.522518</ele>
        <time>2020-07-16T05:23:16.901Z</time>
      </trkpt>
      <trkpt lat="69.32097" lon="16.12862">
        <ele>0.416884</ele>
        <time>2020-07-16T05:23:22.825Z</time>
      </trkpt>
      <trkpt lat="69.32127" lon="16.12878">
        <ele>0.333787</ele>
        <time>2020-07-16T05:23:28.181Z</time>
      </trkpt>
      <trkpt lat="69.32137" lon="16.12885">
        <ele>0.306893</ele>
        <time>2020-07-16T05:23:29.908Z</time>
      </trkpt>
      <trkpt lat="69.32147" lon="16.12896">
        <ele>0.2756</ele>
        <time>2020-07-16T05:23:31.996Z</time>
      </trkpt>
      <trkpt lat="69.3216" lon="16.12915">
        <ele>0.237764</ele>
        <time>2020-07-16T05:23:34.418Z</time>
      </trkpt>
      <trkpt lat="69.32168" lon="16.1293">
        <ele>0.211177</ele>
        <time>2020-07-16T05:23:36.150Z</time>
      </trkpt>
      <trkpt lat="69.32174" lon="16.12945">
        <ele>0.189289</ele>
        <time>2020-07-16T05:23:37.605Z</time>
      </trkpt>
      <trkpt lat="69.32175" lon="16.12949">
        <ele>0.183776</ele>
        <time>2020-07-16T05:23:37.979Z</time>
      </trkpt>
      <trkpt lat="69.32182" lon="16.12968">
        <ele>0.157973</ele>
        <time>2020-07-16T05:23:39.710Z</time>
      </trkpt>
      <trkpt lat="69.32189" lon="16.12998">
        <ele>0.12234</ele>
        <time>2020-07-16T05:23:42.090Z</time>
      </trkpt>
      <trkpt lat="69.32234" lon="16.13207">
        <ele>0.008732</ele>
        <time>2020-07-16T05:23:58.030Z</time>
      </trkpt>
      <trkpt lat="69.32252" lon="16.13266">
        <ele>0.006952</ele>
        <time>2020-07-16T05:24:03.120Z</time>
      </trkpt>
      <trkpt lat="69.32289" lon="16.13286">
        <ele>0.004461</ele>
        <time>2020-07-16T05:24:10.233Z</time>
      </trkpt>
      <trkpt lat="69.32296" lon="16.13282">
        <ele>0.003989</ele>
        <time>2020-07-16T05:24:11.586Z</time>
      </trkpt>
      <trkpt lat="69.32303" lon="16.13278">
        <ele>0.003525</ele>
        <time>2020-07-16T05:24:12.903Z</time>
      </trkpt>
      <trkpt lat="69.32314" lon="16.13275">
        <ele>0.002807</ele>
        <time>2020-07-16T05:24:14.966Z</time>
      </trkpt>
      <trkpt lat="69.32411" lon="16.13267">
        <ele>1.6</ele>
        <time>2020-07-16T05:24:32.869Z</time>
      </trkpt>
      <trkpt lat="69.32429" lon="16.13265">
        <ele>2</ele>
        <time>2020-07-16T05:24:36.283Z</time>
      </trkpt>
      <trkpt lat="69.32439" lon="16.13261">
        <ele>2.2</ele>
        <time>2020-07-16T05:24:38.198Z</time>
      </trkpt>
      <trkpt lat="69.32446" lon="16.13256">
        <ele>2.2</ele>
        <time>2020-07-16T05:24:39.477Z</time>
      </trkpt>
      <trkpt lat="69.32452" lon="16.13248">
        <ele>2</ele>
        <time>2020-07-16T05:24:40.810Z</time>
      </trkpt>
      <trkpt lat="69.32494" lon="16.13189">
        <ele>2.8</ele>
        <time>2020-07-16T05:24:49.494Z</time>
      </trkpt>
      <trkpt lat="69.32559" lon="16.13145">
        <ele>3</ele>
        <time>2020-07-16T05:25:01.850Z</time>
      </trkpt>
      <trkpt lat="69.3257" lon="16.1314">
        <ele>3</ele>
        <time>2020-07-16T05:25:03.886Z</time>
      </trkpt>
      <trkpt lat="69.32575" lon="16.13137">
        <ele>3</ele>
        <time>2020-07-16T05:25:04.973Z</time>
      </trkpt>
      <trkpt lat="69.32589" lon="16.13149">
        <ele>2.9</ele>
        <time>2020-07-16T05:25:07.654Z</time>
      </trkpt>
      <trkpt lat="69.32665" lon="16.13246">
        <ele>2.9</ele>
        <time>2020-07-16T05:25:23.124Z</time>
      </trkpt>
      <trkpt lat="69.32681" lon="16.13269">
        <ele>2.5</ele>
        <time>2020-07-16T05:25:26.446Z</time>
      </trkpt>
      <trkpt lat="69.32682" lon="16.13286">
        <ele>2.2</ele>
        <time>2020-07-16T05:25:27.632Z</time>
      </trkpt>
      <trkpt lat="69.32682" lon="16.13389">
        <ele>1</ele>
        <time>2020-07-16T05:25:34.378Z</time>
      </trkpt>
      <trkpt lat="69.32689" lon="16.1397">
        <time>2020-07-16T05:26:03.000Z</time>
      </trkpt>
      <trkpt lat="69.32678" lon="16.14331">
        <time>2020-07-16T05:26:20.860Z</time>
      </trkpt>
      <trkpt lat="69.32614" lon="16.14665">
        <time>2020-07-16T05:26:39.541Z</time>
      </trkpt>
      <trkpt lat="69.32465" lon="16.153">
        <time>2020-07-16T05:27:17.124Z</time>
      </trkpt>
      <trkpt lat="69.32333" lon="16.15812">
        <time>2020-07-16T05:27:48.339Z</time>
      </trkpt>
      <trkpt lat="69.32297" lon="16.16222">
        <time>2020-07-16T05:28:09.161Z</time>
      </trkpt>
      <trkpt lat="69.32353" lon="16.16967">
        <time>2020-07-16T05:28:46.711Z</time>
      </trkpt>
      <trkpt lat="69.32393" lon="16.17983">
        <time>2020-07-16T05:29:37.057Z</time>
      </trkpt>
      <trkpt lat="69.32658" lon="16.22678">
        <time>2020-07-16T05:33:31.315Z</time>
      </trkpt>
      <trkpt lat="69.3286" lon="16.30341">
        <time>2020-07-16T05:39:49.925Z</time>
      </trkpt>
      <trkpt lat="69.34383" lon="16.7064">
        <time>2020-07-16T06:13:05.873Z</time>
      </trkpt>
      <trkpt lat="69.35073" lon="16.83546">
        <time>2020-07-16T06:23:48.400Z</time>
      </trkpt>
      <trkpt lat="69.35515" lon="16.95828">
        <time>2020-07-16T06:33:55.964Z</time>
      </trkpt>
      <trkpt lat="69.35645" lon="16.97844">
        <time>2020-07-16T06:35:36.777Z</time>
      </trkpt>
      <trkpt lat="69.35727" lon="16.98997">
        <time>2020-07-16T06:36:34.644Z</time>
      </trkpt>
      <trkpt lat="69.35938" lon="17.0049">
        <time>2020-07-16T06:37:53.786Z</time>
      </trkpt>
      <trkpt lat="69.36244" lon="17.01619">
        <time>2020-07-16T06:39:03.824Z</time>
      </trkpt>
      <trkpt lat="69.36575" lon="17.03208">
        <time>2020-07-16T06:40:34.589Z</time>
      </trkpt>
      <trkpt lat="69.36592" lon="17.03347">
        <time>2020-07-16T06:40:41.805Z</time>
      </trkpt>
      <trkpt lat="69.36579" lon="17.05011">
        <time>2020-07-16T06:42:03.675Z</time>
      </trkpt>
      <trkpt lat="69.36568" lon="17.05207">
        <time>2020-07-16T06:42:13.428Z</time>
      </trkpt>
      <trkpt lat="69.36532" lon="17.05379">
        <time>2020-07-16T06:42:23.307Z</time>
      </trkpt>
      <trkpt lat="69.36372" lon="17.05417">
        <ele>0.179447</ele>
        <time>2020-07-16T06:42:45.672Z</time>
      </trkpt>
      <trkpt lat="69.36347" lon="17.0529">
        <ele>0.259365</ele>
        <time>2020-07-16T06:42:52.839Z</time>
      </trkpt>
      <trkpt lat="69.36339" lon="17.05247">
        <ele>0.291571</ele>
        <time>2020-07-16T06:42:56.311Z</time>
      </trkpt>
      <trkpt lat="69.36337" lon="17.05239">
        <ele>0.301634</ele>
        <time>2020-07-16T06:42:57.021Z</time>
      </trkpt>
      <trkpt lat="69.36333" lon="17.05228">
        <ele>0.31899</ele>
        <time>2020-07-16T06:42:58.064Z</time>
      </trkpt>
      <trkpt lat="69.36328" lon="17.05221">
        <ele>0.334731</ele>
        <time>2020-07-16T06:42:59.017Z</time>
      </trkpt>
      <trkpt lat="69.36319" lon="17.05213">
        <ele>0.363118</ele>
        <time>2020-07-16T06:43:00.823Z</time>
      </trkpt>
      <trkpt lat="69.36304" lon="17.05202">
        <ele>0.407931</ele>
        <time>2020-07-16T06:43:03.881Z</time>
      </trkpt>
      <trkpt lat="69.36299" lon="17.05254">
        <ele>0.464028</ele>
        <time>2020-07-16T06:43:07.324Z</time>
      </trkpt>
      <trkpt lat="69.36291" lon="17.05336">
        <ele>0.552702</ele>
        <time>2020-07-16T06:43:12.906Z</time>
      </trkpt>
      <trkpt lat="69.36276" lon="17.05329">
        <ele>0.599169</ele>
        <time>2020-07-16T06:43:15.953Z</time>
      </trkpt>
      <trkpt lat="69.3627" lon="17.0533">
        <ele>0.616669</ele>
        <time>2020-07-16T06:43:17.297Z</time>
      </trkpt>
      <trkpt lat="69.36266" lon="17.05353">
        <ele>0.642283</ele>
        <time>2020-07-16T06:43:18.809Z</time>
      </trkpt>
      <trkpt lat="69.36255" lon="17.05413">
        <ele>0.712923</ele>
        <time>2020-07-16T06:43:23.138Z</time>
      </trkpt>
      <trkpt lat="69.36247" lon="17.05462">
        <ele>0.76913</ele>
        <time>2020-07-16T06:43:26.669Z</time>
      </trkpt>
      <trkpt lat="69.36242" lon="17.05496">
        <ele>0.808908</ele>
        <time>2020-07-16T06:43:29.119Z</time>
      </trkpt>
      <trkpt lat="69.36222" lon="17.05627">
        <ele>0.782413</ele>
        <time>2020-07-16T06:43:38.674Z</time>
      </trkpt>
      <trkpt lat="69.3622" lon="17.05644">
        <ele>0.7786</ele>
        <time>2020-07-16T06:43:39.693Z</time>
      </trkpt>
      <trkpt lat="69.36218" lon="17.05665">
        <ele>0.774061</ele>
        <time>2020-07-16T06:43:41.023Z</time>
      </trkpt>
      <trkpt lat="69.36212" lon="17.05733">
        <ele>0.758988</ele>
        <time>2020-07-16T06:43:45.767Z</time>
      </trkpt>
      <trkpt lat="69.36205" lon="17.05794">
        <ele>0.745469</ele>
        <time>2020-07-16T06:43:49.441Z</time>
      </trkpt>
      <trkpt lat="69.36203" lon="17.05822">
        <ele>0.739237</ele>
        <time>2020-07-16T06:43:51.349Z</time>
      </trkpt>
      <trkpt lat="69.36199" lon="17.05861">
        <ele>0.730642</ele>
        <time>2020-07-16T06:43:53.642Z</time>
      </trkpt>
      <trkpt lat="69.36196" lon="17.06331">
        <ele>0.471546</ele>
        <time>2020-07-16T06:44:22.148Z</time>
      </trkpt>
      <trkpt lat="69.36197" lon="17.06348">
        <ele>0.459701</ele>
        <time>2020-07-16T06:44:23.144Z</time>
      </trkpt>
      <trkpt lat="69.36181" lon="17.06474">
        <ele>0.368947</ele>
        <time>2020-07-16T06:44:31.357Z</time>
      </trkpt>
      <trkpt lat="69.36167" lon="17.06595">
        <ele>0.409895</ele>
        <time>2020-07-16T06:44:39.365Z</time>
      </trkpt>
      <trkpt lat="69.36155" lon="17.06699">
        <ele>0.461639</ele>
        <time>2020-07-16T06:44:46.350Z</time>
      </trkpt>
      <trkpt lat="69.36149" lon="17.06752">
        <ele>0.487885</ele>
        <time>2020-07-16T06:44:49.937Z</time>
      </trkpt>
      <trkpt lat="69.36142" lon="17.06795">
        <ele>0.510778</ele>
        <time>2020-07-16T06:44:53.031Z</time>
      </trkpt>
      <trkpt lat="69.36135" lon="17.0683">
        <ele>0.529237</ele>
        <time>2020-07-16T06:44:55.653Z</time>
      </trkpt>
      <trkpt lat="69.36125" lon="17.06897">
        <ele>0.564231</ele>
        <time>2020-07-16T06:45:00.434Z</time>
      </trkpt>
      <trkpt lat="69.36117" lon="17.0695">
        <ele>0.591037</ele>
        <time>2020-07-16T06:45:04.187Z</time>
      </trkpt>
      <trkpt lat="69.3611" lon="17.07001">
        <ele>0.644118</ele>
        <time>2020-07-16T06:45:07.877Z</time>
      </trkpt>
      <trkpt lat="69.36096" lon="17.07156">
        <ele>0.830304</ele>
        <time>2020-07-16T06:45:18.516Z</time>
      </trkpt>
      <trkpt lat="69.36077" lon="17.07567">
        <ele>1.729889</ele>
        <time>2020-07-16T06:45:46.231Z</time>
      </trkpt>
      <trkpt lat="69.36062" lon="17.07673">
        <ele>2.33318</ele>
        <time>2020-07-16T06:45:54.015Z</time>
      </trkpt>
      <trkpt lat="69.36034" lon="17.07795">
        <ele>3.095042</ele>
        <time>2020-07-16T06:46:05.682Z</time>
      </trkpt>
      <trkpt lat="69.35982" lon="17.08001">
        <ele>5.924811</ele>
        <time>2020-07-16T06:46:29.119Z</time>
      </trkpt>
      <trkpt lat="69.35943" lon="17.08151">
        <ele>9.54094</ele>
        <time>2020-07-16T06:46:51.309Z</time>
      </trkpt>
      <trkpt lat="69.35901" lon="17.08314">
        <ele>13.452144</ele>
        <time>2020-07-16T06:47:20.558Z</time>
      </trkpt>
      <trkpt lat="69.35882" lon="17.08388">
        <ele>15.407564</ele>
        <time>2020-07-16T06:47:35.841Z</time>
      </trkpt>
      <trkpt lat="69.3586" lon="17.08473">
        <ele>17.66232</ele>
        <time>2020-07-16T06:47:51.290Z</time>
      </trkpt>
      <trkpt lat="69.35823" lon="17.08615">
        <ele>21.461386</ele>
        <time>2020-07-16T06:48:14.975Z</time>
      </trkpt>
      <trkpt lat="69.35802" lon="17.08697">
        <ele>23.661645</ele>
        <time>2020-07-16T06:48:27.592Z</time>
      </trkpt>
      <trkpt lat="69.35788" lon="17.08756">
        <ele>24.882179</ele>
        <time>2020-07-16T06:48:34.955Z</time>
      </trkpt>
      <trkpt lat="69.35757" lon="17.08986">
        <ele>26.217363</ele>
        <time>2020-07-16T06:48:57.540Z</time>
      </trkpt>
      <trkpt lat="69.35735" lon="17.0917">
        <ele>27.266219</ele>
        <time>2020-07-16T06:49:09.119Z</time>
      </trkpt>
      <trkpt lat="69.35688" lon="17.09567">
        <ele>27.007327</ele>
        <time>2020-07-16T06:49:35.597Z</time>
      </trkpt>
      <trkpt lat="69.35682" lon="17.09634">
        <ele>26.907411</ele>
        <time>2020-07-16T06:49:39.406Z</time>
      </trkpt>
      <trkpt lat="69.3568" lon="17.09691">
        <ele>26.824152</ele>
        <time>2020-07-16T06:49:42.430Z</time>
      </trkpt>
      <trkpt lat="69.35679" lon="17.09765">
        <ele>26.326298</ele>
        <time>2020-07-16T06:49:46.588Z</time>
      </trkpt>
      <trkpt lat="69.35678" lon="17.098">
        <ele>26.049224</ele>
        <time>2020-07-16T06:49:48.195Z</time>
      </trkpt>
      <trkpt lat="69.35662" lon="17.10019">
        <ele>24.230263</ele>
        <time>2020-07-16T06:49:59.297Z</time>
      </trkpt>
      <trkpt lat="69.35667" lon="17.10391">
        <ele>20.84967</ele>
        <time>2020-07-16T06:50:16.523Z</time>
      </trkpt>
      <trkpt lat="69.35647" lon="17.10777">
        <ele>17.196187</ele>
        <time>2020-07-16T06:50:34.837Z</time>
      </trkpt>
      <trkpt lat="69.35631" lon="17.11019">
        <ele>15.957696</ele>
        <time>2020-07-16T06:50:47.703Z</time>
      </trkpt>
      <trkpt lat="69.35597" lon="17.11527">
        <ele>12.962005</ele>
        <time>2020-07-16T06:51:17.179Z</time>
      </trkpt>
      <trkpt lat="69.3555" lon="17.12224">
        <ele>5.410082</ele>
        <time>2020-07-16T06:51:49.392Z</time>
      </trkpt>
      <trkpt lat="69.35544" lon="17.12319">
        <ele>4.669055</ele>
        <time>2020-07-16T06:51:53.678Z</time>
      </trkpt>
      <trkpt lat="69.35624" lon="17.12396">
        <ele>2.828715</ele>
        <time>2020-07-16T06:52:04.850Z</time>
      </trkpt>
      <trkpt lat="69.35704" lon="17.12471">
        <ele>2.799111</ele>
        <time>2020-07-16T06:52:17.688Z</time>
      </trkpt>
      <trkpt lat="69.3581" lon="17.1257">
        <ele>9.08838</ele>
        <time>2020-07-16T06:52:49.718Z</time>
      </trkpt>
      <trkpt lat="69.35893" lon="17.12647">
        <ele>22.60967</ele>
        <time>2020-07-16T06:53:43.324Z</time>
      </trkpt>
      <trkpt lat="69.35925" lon="17.12674">
        <ele>31.069572</ele>
        <time>2020-07-16T06:54:13.070Z</time>
      </trkpt>
      <trkpt lat="69.35943" lon="17.12689">
        <ele>35.886787</ele>
        <time>2020-07-16T06:54:30.243Z</time>
      </trkpt>
      <trkpt lat="69.35995" lon="17.12728">
        <ele>49.777674</ele>
        <time>2020-07-16T06:55:20.090Z</time>
      </trkpt>
      <trkpt lat="69.36109" lon="17.12857">
        <ele>86.201533</ele>
        <time>2020-07-16T06:57:17.110Z</time>
      </trkpt>
      <trkpt lat="69.36233" lon="17.12944">
        <ele>113.427299</ele>
        <time>2020-07-16T06:59:15.427Z</time>
      </trkpt>
      <trkpt lat="69.36757" lon="17.13131">
        <ele>97.714899</ele>
        <time>2020-07-16T07:00:23.293Z</time>
      </trkpt>
      <trkpt lat="69.36798" lon="17.13134">
        <ele>92.105889</ele>
        <time>2020-07-16T07:00:27.656Z</time>
      </trkpt>
      <trkpt lat="69.36827" lon="17.1313">
        <ele>87.971629</ele>
        <time>2020-07-16T07:00:30.869Z</time>
      </trkpt>
      <trkpt lat="69.36859" lon="17.13124">
        <ele>83.486145</ele>
        <time>2020-07-16T07:00:34.194Z</time>
      </trkpt>
      <trkpt lat="69.36869" lon="17.13121">
        <ele>82.071344</ele>
        <time>2020-07-16T07:00:35.232Z</time>
      </trkpt>
      <trkpt lat="69.36919" lon="17.13105">
        <ele>75.309003</ele>
        <time>2020-07-16T07:00:40.425Z</time>
      </trkpt>
      <trkpt lat="69.36945" lon="17.13091">
        <ele>72.260688</ele>
        <time>2020-07-16T07:00:43.129Z</time>
      </trkpt>
      <trkpt lat="69.36971" lon="17.13074">
        <ele>69.140438</ele>
        <time>2020-07-16T07:00:45.919Z</time>
      </trkpt>
      <trkpt lat="69.37027" lon="17.13037">
        <ele>62.483345</ele>
        <time>2020-07-16T07:00:52.125Z</time>
      </trkpt>
      <trkpt lat="69.375" lon="17.12516">
        <ele>27.497342</ele>
        <time>2020-07-16T07:01:50.524Z</time>
      </trkpt>
      <trkpt lat="69.38028" lon="17.11917">
        <ele>7.922229</ele>
        <time>2020-07-16T07:03:05.518Z</time>
      </trkpt>
      <trkpt lat="69.38057" lon="17.11884">
        <ele>7.1798</ele>
        <time>2020-07-16T07:03:10.050Z</time>
      </trkpt>
      <trkpt lat="69.38063" lon="17.11877">
        <ele>7.016609</ele>
        <time>2020-07-16T07:03:11.049Z</time>
      </trkpt>
      <trkpt lat="69.38143" lon="17.11797">
        <ele>6.303018</ele>
        <time>2020-07-16T07:03:24.212Z</time>
      </trkpt>
      <trkpt lat="69.38186" lon="17.11744">
        <ele>6.199551</ele>
        <time>2020-07-16T07:03:32.342Z</time>
      </trkpt>
      <trkpt lat="69.38222" lon="17.11704">
        <ele>6.11245</ele>
        <time>2020-07-16T07:03:39.668Z</time>
      </trkpt>
      <trkpt lat="69.38244" lon="17.11691">
        <ele>6.063205</ele>
        <time>2020-07-16T07:03:43.965Z</time>
      </trkpt>
      <trkpt lat="69.38303" lon="17.11654">
        <ele>6.407301</ele>
        <time>2020-07-16T07:03:56.006Z</time>
      </trkpt>
      <trkpt lat="69.38343" lon="17.1165">
        <ele>6.710657</ele>
        <time>2020-07-16T07:04:04.321Z</time>
      </trkpt>
      <trkpt lat="69.3841" lon="17.11669">
        <ele>7.217551</ele>
        <time>2020-07-16T07:04:18.447Z</time>
      </trkpt>
      <trkpt lat="69.38448" lon="17.11697">
        <ele>7.392942</ele>
        <time>2020-07-16T07:04:26.466Z</time>
      </trkpt>
      <trkpt lat="69.38483" lon="17.11737">
        <ele>7.382593</ele>
        <time>2020-07-16T07:04:33.708Z</time>
      </trkpt>
      <trkpt lat="69.38538" lon="17.11824">
        <ele>7.36498</ele>
        <time>2020-07-16T07:04:45.294Z</time>
      </trkpt>
      <trkpt lat="69.38944" lon="17.1253">
        <ele>4.6371</ele>
        <time>2020-07-16T07:06:00.387Z</time>
      </trkpt>
      <trkpt lat="69.38993" lon="17.12604">
        <ele>4.902807</ele>
        <time>2020-07-16T07:06:10.971Z</time>
      </trkpt>
      <trkpt lat="69.39061" lon="17.12675">
        <ele>5.249578</ele>
        <time>2020-07-16T07:06:26.530Z</time>
      </trkpt>
      <trkpt lat="69.39359" lon="17.12895">
        <ele>12.403596</ele>
        <time>2020-07-16T07:07:47.223Z</time>
      </trkpt>
      <trkpt lat="69.39434" lon="17.12926">
        <ele>13.670993</ele>
        <time>2020-07-16T07:08:04.128Z</time>
      </trkpt>
      <trkpt lat="69.39553" lon="17.12943">
        <ele>14.423683</ele>
        <time>2020-07-16T07:08:26.915Z</time>
      </trkpt>
      <trkpt lat="69.39659" lon="17.12988">
        <ele>16.366769</ele>
        <time>2020-07-16T07:08:47.556Z</time>
      </trkpt>
      <trkpt lat="69.40293" lon="17.12961">
        <ele>33.254373</ele>
        <time>2020-07-16T07:11:35.502Z</time>
      </trkpt>
      <trkpt lat="69.40307" lon="17.12963">
        <ele>33.757754</ele>
        <time>2020-07-16T07:11:40.619Z</time>
      </trkpt>
      <trkpt lat="69.40318" lon="17.12965">
        <ele>34.303772</ele>
        <time>2020-07-16T07:11:46.568Z</time>
      </trkpt>
      <trkpt lat="69.40358" lon="17.13016">
        <ele>36.417587</ele>
        <time>2020-07-16T07:12:03.338Z</time>
      </trkpt>
      <trkpt lat="69.40458" lon="17.13208">
        <ele>42.360172</ele>
        <time>2020-07-16T07:12:46.774Z</time>
      </trkpt>
      <trkpt lat="69.40591" lon="17.13542">
        <ele>43.440663</ele>
        <time>2020-07-16T07:13:18.780Z</time>
      </trkpt>
      <trkpt lat="69.40653" lon="17.13627">
        <ele>43.337839</ele>
        <time>2020-07-16T07:13:29.088Z</time>
      </trkpt>
      <trkpt lat="69.40721" lon="17.13891">
        <ele>43.080411</ele>
        <time>2020-07-16T07:13:49.587Z</time>
      </trkpt>
      <trkpt lat="69.40733" lon="17.14019">
        <ele>43.429695</ele>
        <time>2020-07-16T07:13:58.943Z</time>
      </trkpt>
      <trkpt lat="69.40746" lon="17.14096">
        <ele>43.67555</ele>
        <time>2020-07-16T07:14:05.083Z</time>
      </trkpt>
      <trkpt lat="69.40766" lon="17.14156">
        <ele>43.911404</ele>
        <time>2020-07-16T07:14:10.956Z</time>
      </trkpt>
      <trkpt lat="69.40834" lon="17.14311">
        <ele>44.629858</ele>
        <time>2020-07-16T07:14:29.424Z</time>
      </trkpt>
      <trkpt lat="69.40908" lon="17.145">
        <ele>45.443569</ele>
        <time>2020-07-16T07:14:51.486Z</time>
      </trkpt>
      <trkpt lat="69.40996" lon="17.14889">
        <ele>43.597449</ele>
        <time>2020-07-16T07:15:21.466Z</time>
      </trkpt>
      <trkpt lat="69.41016" lon="17.14951">
        <ele>42.832123</ele>
        <time>2020-07-16T07:15:25.178Z</time>
      </trkpt>
      <trkpt lat="69.41027" lon="17.14975">
        <ele>42.454095</ele>
        <time>2020-07-16T07:15:27.672Z</time>
      </trkpt>
      <trkpt lat="69.41036" lon="17.14991">
        <ele>42.189043</ele>
        <time>2020-07-16T07:15:28.760Z</time>
      </trkpt>
      <trkpt lat="69.4106" lon="17.1502">
        <ele>41.49447</ele>
        <time>2020-07-16T07:15:31.929Z</time>
      </trkpt>
      <trkpt lat="69.41085" lon="17.15032">
        <ele>39.840717</ele>
        <time>2020-07-16T07:15:34.624Z</time>
      </trkpt>
      <trkpt lat="69.41161" lon="17.15008">
        <ele>33.35209</ele>
        <time>2020-07-16T07:15:43.475Z</time>
      </trkpt>
      <trkpt lat="69.41179" lon="17.15017">
        <ele>31.805187</ele>
        <time>2020-07-16T07:15:45.489Z</time>
      </trkpt>
      <trkpt lat="69.41187" lon="17.15026">
        <ele>31.112544</ele>
        <time>2020-07-16T07:15:46.346Z</time>
      </trkpt>
      <trkpt lat="69.41197" lon="17.15046">
        <ele>30.087478</ele>
        <time>2020-07-16T07:15:47.763Z</time>
      </trkpt>
      <trkpt lat="69.41202" lon="17.15064">
        <ele>29.415594</ele>
        <time>2020-07-16T07:15:48.672Z</time>
      </trkpt>
      <trkpt lat="69.41208" lon="17.15088">
        <ele>28.570041</ele>
        <time>2020-07-16T07:15:49.758Z</time>
      </trkpt>
      <trkpt lat="69.41224" lon="17.15161">
        <ele>26.037497</ele>
        <time>2020-07-16T07:15:53.125Z</time>
      </trkpt>
      <trkpt lat="69.41238" lon="17.15216">
        <ele>24.442002</ele>
        <time>2020-07-16T07:15:55.727Z</time>
      </trkpt>
      <trkpt lat="69.41256" lon="17.1527">
        <ele>22.737591</ele>
        <time>2020-07-16T07:15:58.537Z</time>
      </trkpt>
      <trkpt lat="69.41267" lon="17.153">
        <ele>21.703887</ele>
        <time>2020-07-16T07:16:00.356Z</time>
      </trkpt>
      <trkpt lat="69.41289" lon="17.15359">
        <ele>19.681581</ele>
        <time>2020-07-16T07:16:03.780Z</time>
      </trkpt>
      <trkpt lat="69.41301" lon="17.15396">
        <ele>18.516128</ele>
        <time>2020-07-16T07:16:05.921Z</time>
      </trkpt>
      <trkpt lat="69.41316" lon="17.15445">
        <ele>16.979147</ele>
        <time>2020-07-16T07:16:08.758Z</time>
      </trkpt>
      <trkpt lat="69.41325" lon="17.15492">
        <ele>15.704793</ele>
        <time>2020-07-16T07:16:11.144Z</time>
      </trkpt>
      <trkpt lat="69.41328" lon="17.15555">
        <ele>14.229948</ele>
        <time>2020-07-16T07:16:13.818Z</time>
      </trkpt>
      <trkpt lat="69.41277" lon="17.15939">
        <ele>11.120132</ele>
        <time>2020-07-16T07:16:33.133Z</time>
      </trkpt>
      <trkpt lat="69.41271" lon="17.16">
        <ele>10.643868</ele>
        <time>2020-07-16T07:16:37.640Z</time>
      </trkpt>
      <trkpt lat="69.41275" lon="17.16111">
        <ele>10.981132</ele>
        <time>2020-07-16T07:16:45.715Z</time>
      </trkpt>
      <trkpt lat="69.41285" lon="17.16159">
        <ele>11.459092</ele>
        <time>2020-07-16T07:16:49.862Z</time>
      </trkpt>
      <trkpt lat="69.41334" lon="17.16302">
        <ele>13.157204</ele>
        <time>2020-07-16T07:17:07.359Z</time>
      </trkpt>
      <trkpt lat="69.41339" lon="17.1634">
        <ele>13.489236</ele>
        <time>2020-07-16T07:17:11.447Z</time>
      </trkpt>
      <trkpt lat="69.41341" lon="17.16501">
        <ele>15.003606</ele>
        <time>2020-07-16T07:17:28.723Z</time>
      </trkpt>
      <trkpt lat="69.41353" lon="17.16689">
        <ele>18.141505</ele>
        <time>2020-07-16T07:17:52.664Z</time>
      </trkpt>
      <trkpt lat="69.41367" lon="17.16757">
        <ele>19.414769</ele>
        <time>2020-07-16T07:18:02.789Z</time>
      </trkpt>
      <trkpt lat="69.41379" lon="17.16772">
        <ele>20.054499</ele>
        <time>2020-07-16T07:18:07.425Z</time>
      </trkpt>
      <trkpt lat="69.41455" lon="17.16746">
        <ele>22.827628</ele>
        <time>2020-07-16T07:18:31.659Z</time>
      </trkpt>
      <trkpt lat="69.41484" lon="17.16792">
        <ele>22.197975</ele>
        <time>2020-07-16T07:18:40.448Z</time>
      </trkpt>
      <trkpt lat="69.41499" lon="17.16838">
        <ele>21.76955</ele>
        <time>2020-07-16T07:18:45.392Z</time>
      </trkpt>
      <trkpt lat="69.415" lon="17.16899">
        <ele>21.358053</ele>
        <time>2020-07-16T07:18:48.211Z</time>
      </trkpt>
      <trkpt lat="69.41493" lon="17.16998">
        <ele>20.671004</ele>
        <time>2020-07-16T07:18:52.928Z</time>
      </trkpt>
      <trkpt lat="69.41487" lon="17.17079">
        <ele>20.110129</ele>
        <time>2020-07-16T07:18:56.562Z</time>
      </trkpt>
      <trkpt lat="69.41482" lon="17.17153">
        <ele>19.600293</ele>
        <time>2020-07-16T07:18:59.568Z</time>
      </trkpt>
      <trkpt lat="69.41476" lon="17.17228">
        <ele>17.749222</ele>
        <time>2020-07-16T07:19:02.610Z</time>
      </trkpt>
      <trkpt lat="69.41472" lon="17.17299">
        <ele>16.036833</ele>
        <time>2020-07-16T07:19:05.402Z</time>
      </trkpt>
      <trkpt lat="69.41473" lon="17.17493">
        <ele>11.32527</ele>
        <time>2020-07-16T07:19:13.127Z</time>
      </trkpt>
      <trkpt lat="69.4147" lon="17.17525">
        <ele>10.524221</ele>
        <time>2020-07-16T07:19:14.382Z</time>
      </trkpt>
      <trkpt lat="69.41465" lon="17.17555">
        <ele>9.738278</ele>
        <time>2020-07-16T07:19:15.773Z</time>
      </trkpt>
      <trkpt lat="69.41349" lon="17.17911">
        <ele>2.730342</ele>
        <time>2020-07-16T07:19:37.058Z</time>
      </trkpt>
      <trkpt lat="69.41303" lon="17.17972">
        <ele>1.181585</ele>
        <time>2020-07-16T07:19:45.439Z</time>
      </trkpt>
      <trkpt lat="69.41275" lon="17.17988">
        <ele>1.096801</ele>
        <time>2020-07-16T07:19:50.057Z</time>
      </trkpt>
      <trkpt lat="69.41245" lon="17.18011">
        <ele>1.003028</ele>
        <time>2020-07-16T07:19:55.243Z</time>
      </trkpt>
      <trkpt lat="69.41231" lon="17.18029">
        <ele>0.955251</ele>
        <time>2020-07-16T07:19:57.899Z</time>
      </trkpt>
      <trkpt lat="69.41223" lon="17.18044">
        <ele>0.927116</ele>
        <time>2020-07-16T07:19:59.437Z</time>
      </trkpt>
      <trkpt lat="69.41192" lon="17.18125">
        <ele>0.801165</ele>
        <time>2020-07-16T07:20:06.583Z</time>
      </trkpt>
      <trkpt lat="69.41163" lon="17.18193">
        <ele>0.686126</ele>
        <time>2020-07-16T07:20:13.377Z</time>
      </trkpt>
      <trkpt lat="69.41141" lon="17.18244">
        <ele>0.894855</ele>
        <time>2020-07-16T07:20:18.573Z</time>
      </trkpt>
      <trkpt lat="69.41101" lon="17.18344">
        <ele>1.620071</ele>
        <time>2020-07-16T07:20:29.639Z</time>
      </trkpt>
      <trkpt lat="69.41052" lon="17.18556">
        <ele>2.836135</ele>
        <time>2020-07-16T07:20:50.457Z</time>
      </trkpt>
      <trkpt lat="69.41041" lon="17.18621">
        <ele>3.251147</ele>
        <time>2020-07-16T07:20:56.801Z</time>
      </trkpt>
      <trkpt lat="69.41036" lon="17.18672">
        <ele>3.726215</ele>
        <time>2020-07-16T07:21:01.562Z</time>
      </trkpt>
      <trkpt lat="69.41037" lon="17.18976">
        <ele>6.481975</ele>
        <time>2020-07-16T07:21:29.360Z</time>
      </trkpt>
      <trkpt lat="69.41054" lon="17.19066">
        <ele>7.412065</ele>
        <time>2020-07-16T07:21:39.030Z</time>
      </trkpt>
      <trkpt lat="69.41071" lon="17.19122">
        <ele>8.19363</ele>
        <time>2020-07-16T07:21:46.401Z</time>
      </trkpt>
      <trkpt lat="69.41088" lon="17.19181">
        <ele>9.129926</ele>
        <time>2020-07-16T07:21:53.701Z</time>
      </trkpt>
      <trkpt lat="69.41103" lon="17.19213">
        <ele>9.787019</ele>
        <time>2020-07-16T07:21:58.794Z</time>
      </trkpt>
      <trkpt lat="69.41109" lon="17.19244">
        <ele>10.225671</ele>
        <time>2020-07-16T07:22:02.398Z</time>
      </trkpt>
      <trkpt lat="69.41106" lon="17.19376">
        <ele>11.852625</ele>
        <time>2020-07-16T07:22:16.011Z</time>
      </trkpt>
      <trkpt lat="69.41055" lon="17.1963">
        <ele>15.94025</ele>
        <time>2020-07-16T07:22:47.429Z</time>
      </trkpt>
      <trkpt lat="69.41054" lon="17.19755">
        <ele>17.991078</ele>
        <time>2020-07-16T07:23:02.847Z</time>
      </trkpt>
      <trkpt lat="69.4107" lon="17.19852">
        <ele>19.762135</ele>
        <time>2020-07-16T07:23:15.892Z</time>
      </trkpt>
      <trkpt lat="69.41123" lon="17.19988">
        <ele>22.881242</ele>
        <time>2020-07-16T07:23:39.308Z</time>
      </trkpt>
      <trkpt lat="69.41131" lon="17.20031">
        <ele>23.434903</ele>
        <time>2020-07-16T07:23:44.851Z</time>
      </trkpt>
      <trkpt lat="69.41142" lon="17.20248">
        <ele>25.904403</ele>
        <time>2020-07-16T07:24:07.575Z</time>
      </trkpt>
      <trkpt lat="69.41152" lon="17.20343">
        <ele>27.031252</ele>
        <time>2020-07-16T07:24:16.803Z</time>
      </trkpt>
      <trkpt lat="69.41164" lon="17.20401">
        <ele>27.780843</ele>
        <time>2020-07-16T07:24:22.503Z</time>
      </trkpt>
      <trkpt lat="69.41191" lon="17.20484">
        <ele>28.536043</ele>
        <time>2020-07-16T07:24:31.521Z</time>
      </trkpt>
      <trkpt lat="69.41235" lon="17.20585">
        <ele>29.243061</ele>
        <time>2020-07-16T07:24:43.471Z</time>
      </trkpt>
      <trkpt lat="69.41327" lon="17.20739">
        <ele>30.57506</ele>
        <time>2020-07-16T07:25:05.986Z</time>
      </trkpt>
      <trkpt lat="69.4135" lon="17.20795">
        <ele>30.933061</ele>
        <time>2020-07-16T07:25:12.792Z</time>
      </trkpt>
      <trkpt lat="69.41397" lon="17.20961">
        <ele>31.812008</ele>
        <time>2020-07-16T07:25:29.839Z</time>
      </trkpt>
      <trkpt lat="69.41428" lon="17.21187">
        <ele>32.407267</ele>
        <time>2020-07-16T07:25:48.209Z</time>
      </trkpt>
      <trkpt lat="69.4149" lon="17.21425">
        <ele>31.597198</ele>
        <time>2020-07-16T07:26:06.137Z</time>
      </trkpt>
      <trkpt lat="69.41496" lon="17.21453">
        <ele>31.508567</ele>
        <time>2020-07-16T07:26:07.695Z</time>
      </trkpt>
      <trkpt lat="69.41497" lon="17.21459">
        <ele>31.488736</ele>
        <time>2020-07-16T07:26:08.086Z</time>
      </trkpt>
      <trkpt lat="69.41503" lon="17.21486">
        <ele>31.405282</ele>
        <time>2020-07-16T07:26:09.784Z</time>
      </trkpt>
      <trkpt lat="69.41507" lon="17.21517">
        <ele>31.311353</ele>
        <time>2020-07-16T07:26:11.580Z</time>
      </trkpt>
      <trkpt lat="69.41512" lon="17.21555">
        <ele>31.201889</ele>
        <time>2020-07-16T07:26:13.393Z</time>
      </trkpt>
      <trkpt lat="69.41513" lon="17.21722">
        <ele>28.872824</ele>
        <time>2020-07-16T07:26:20.884Z</time>
      </trkpt>
      <trkpt lat="69.41491" lon="17.21884">
        <ele>26.310862</ele>
        <time>2020-07-16T07:26:28.286Z</time>
      </trkpt>
      <trkpt lat="69.41471" lon="17.22002">
        <ele>24.362585</ele>
        <time>2020-07-16T07:26:33.973Z</time>
      </trkpt>
      <trkpt lat="69.41461" lon="17.22081">
        <ele>23.161987</ele>
        <time>2020-07-16T07:26:37.580Z</time>
      </trkpt>
      <trkpt lat="69.41358" lon="17.2244">
        <ele>16.856621</ele>
        <time>2020-07-16T07:26:57.789Z</time>
      </trkpt>
      <trkpt lat="69.41347" lon="17.22455">
        <ele>16.775586</ele>
        <time>2020-07-16T07:26:59.619Z</time>
      </trkpt>
      <trkpt lat="69.41337" lon="17.22497">
        <ele>17.134724</ele>
        <time>2020-07-16T07:27:02.031Z</time>
      </trkpt>
      <trkpt lat="69.41297" lon="17.227">
        <ele>18.783963</ele>
        <time>2020-07-16T07:27:21.954Z</time>
      </trkpt>
      <trkpt lat="69.41279" lon="17.22857">
        <ele>19.956865</ele>
        <time>2020-07-16T07:27:39.767Z</time>
      </trkpt>
      <trkpt lat="69.41277" lon="17.229">
        <ele>20.260481</ele>
        <time>2020-07-16T07:27:44.524Z</time>
      </trkpt>
      <trkpt lat="69.41278" lon="17.22958">
        <ele>21.312703</ele>
        <time>2020-07-16T07:27:52.588Z</time>
      </trkpt>
      <trkpt lat="69.41281" lon="17.23039">
        <ele>22.788035</ele>
        <time>2020-07-16T07:28:03.430Z</time>
      </trkpt>
      <trkpt lat="69.41317" lon="17.23448">
        <ele>29.66431</ele>
        <time>2020-07-16T07:28:55.613Z</time>
      </trkpt>
      <trkpt lat="69.41328" lon="17.23571">
        <ele>30.099918</ele>
        <time>2020-07-16T07:29:06.432Z</time>
      </trkpt>
      <trkpt lat="69.41336" lon="17.23686">
        <ele>30.497199</ele>
        <time>2020-07-16T07:29:15.012Z</time>
      </trkpt>
      <trkpt lat="69.41337" lon="17.23728">
        <ele>30.640586</ele>
        <time>2020-07-16T07:29:17.723Z</time>
      </trkpt>
      <trkpt lat="69.41336" lon="17.23767">
        <ele>30.776368</ele>
        <time>2020-07-16T07:29:20.334Z</time>
      </trkpt>
      <trkpt lat="69.41321" lon="17.23895">
        <ele>31.234517</ele>
        <time>2020-07-16T07:29:27.891Z</time>
      </trkpt>
      <trkpt lat="69.41243" lon="17.24276">
        <ele>26.063861</ele>
        <time>2020-07-16T07:29:47.932Z</time>
      </trkpt>
      <trkpt lat="69.41186" lon="17.2455">
        <ele>21.546301</ele>
        <time>2020-07-16T07:30:01.608Z</time>
      </trkpt>
      <trkpt lat="69.41176" lon="17.24594">
        <ele>20.767009</ele>
        <time>2020-07-16T07:30:03.915Z</time>
      </trkpt>
      <trkpt lat="69.41169" lon="17.24639">
        <ele>20.025968</ele>
        <time>2020-07-16T07:30:06.071Z</time>
      </trkpt>
      <trkpt lat="69.41165" lon="17.24671">
        <ele>19.528689</ele>
        <time>2020-07-16T07:30:07.542Z</time>
      </trkpt>
      <trkpt lat="69.41159" lon="17.24772">
        <ele>18.000153</ele>
        <time>2020-07-16T07:30:12.081Z</time>
      </trkpt>
      <trkpt lat="69.4116" lon="17.24805">
        <ele>17.549342</ele>
        <time>2020-07-16T07:30:13.543Z</time>
      </trkpt>
      <trkpt lat="69.41162" lon="17.24841">
        <ele>17.249504</ele>
        <time>2020-07-16T07:30:15.200Z</time>
      </trkpt>
      <trkpt lat="69.41165" lon="17.24871">
        <ele>16.995851</ele>
        <time>2020-07-16T07:30:16.681Z</time>
      </trkpt>
      <trkpt lat="69.41169" lon="17.24899">
        <ele>16.743203</ele>
        <time>2020-07-16T07:30:18.133Z</time>
      </trkpt>
      <trkpt lat="69.41177" lon="17.24952">
        <ele>16.269228</ele>
        <time>2020-07-16T07:30:20.913Z</time>
      </trkpt>
      <trkpt lat="69.4118" lon="17.24968">
        <ele>16.120033</ele>
        <time>2020-07-16T07:30:21.860Z</time>
      </trkpt>
      <trkpt lat="69.41251" lon="17.25389">
        <ele>12.791147</ele>
        <time>2020-07-16T07:30:45.346Z</time>
      </trkpt>
      <trkpt lat="69.41272" lon="17.25505">
        <ele>12.201594</ele>
        <time>2020-07-16T07:30:51.878Z</time>
      </trkpt>
      <trkpt lat="69.41275" lon="17.25533">
        <ele>12.066868</ele>
        <time>2020-07-16T07:30:53.288Z</time>
      </trkpt>
      <trkpt lat="69.41278" lon="17.25554">
        <ele>11.969368</ele>
        <time>2020-07-16T07:30:54.436Z</time>
      </trkpt>
      <trkpt lat="69.41281" lon="17.256">
        <ele>11.757105</ele>
        <time>2020-07-16T07:30:57.007Z</time>
      </trkpt>
      <trkpt lat="69.41282" lon="17.25805">
        <ele>11.35358</ele>
        <time>2020-07-16T07:31:08.979Z</time>
      </trkpt>
      <trkpt lat="69.41269" lon="17.25919">
        <ele>11.92184</ele>
        <time>2020-07-16T07:31:17.048Z</time>
      </trkpt>
      <trkpt lat="69.41257" lon="17.25984">
        <ele>12.270567</ele>
        <time>2020-07-16T07:31:22.744Z</time>
      </trkpt>
      <trkpt lat="69.41253" lon="17.26">
        <ele>12.360288</ele>
        <time>2020-07-16T07:31:24.159Z</time>
      </trkpt>
      <trkpt lat="69.41246" lon="17.2603">
        <ele>12.536161</ele>
        <time>2020-07-16T07:31:27.612Z</time>
      </trkpt>
      <trkpt lat="69.41198" lon="17.26148">
        <ele>13.38731</ele>
        <time>2020-07-16T07:31:42.915Z</time>
      </trkpt>
      <trkpt lat="69.41156" lon="17.26226">
        <ele>14.724647</ele>
        <time>2020-07-16T07:31:56.706Z</time>
      </trkpt>
      <trkpt lat="69.41104" lon="17.26319">
        <ele>16.544361</ele>
        <time>2020-07-16T07:32:14.831Z</time>
      </trkpt>
      <trkpt lat="69.41056" lon="17.26406">
        <ele>18.213676</ele>
        <time>2020-07-16T07:32:32.241Z</time>
      </trkpt>
      <trkpt lat="69.41054" lon="17.2641">
        <ele>18.294463</ele>
        <time>2020-07-16T07:32:33.040Z</time>
      </trkpt>
      <trkpt lat="69.40967" lon="17.26566">
        <ele>17.885388</ele>
        <time>2020-07-16T07:32:53.993Z</time>
      </trkpt>
      <trkpt lat="69.40952" lon="17.26594">
        <ele>17.684319</ele>
        <time>2020-07-16T07:32:57.582Z</time>
      </trkpt>
      <trkpt lat="69.40939" lon="17.2662">
        <ele>17.507652</ele>
        <time>2020-07-16T07:32:59.693Z</time>
      </trkpt>
      <trkpt lat="69.40924" lon="17.26658">
        <ele>17.27767</ele>
        <time>2020-07-16T07:33:02.838Z</time>
      </trkpt>
      <trkpt lat="69.4091" lon="17.26691">
        <ele>17.083332</ele>
        <time>2020-07-16T07:33:04.971Z</time>
      </trkpt>
      <trkpt lat="69.40831" lon="17.26908">
        <ele>12.408131</ele>
        <time>2020-07-16T07:33:18.034Z</time>
      </trkpt>
      <trkpt lat="69.40765" lon="17.27031">
        <ele>8.436729</ele>
        <time>2020-07-16T07:33:27.245Z</time>
      </trkpt>
      <trkpt lat="69.40552" lon="17.27383">
        <ele>3.432624</ele>
        <time>2020-07-16T07:34:02.399Z</time>
      </trkpt>
      <trkpt lat="69.40515" lon="17.2748">
        <ele>3.134063</ele>
        <time>2020-07-16T07:34:11.094Z</time>
      </trkpt>
      <trkpt lat="69.40429" lon="17.27776">
        <ele>3.366175</ele>
        <time>2020-07-16T07:34:35.601Z</time>
      </trkpt>
      <trkpt lat="69.40391" lon="17.27871">
        <ele>3.969598</ele>
        <time>2020-07-16T07:34:46.046Z</time>
      </trkpt>
      <trkpt lat="69.40172" lon="17.28221">
        <ele>8.994713</ele>
        <time>2020-07-16T07:35:49.994Z</time>
      </trkpt>
      <trkpt lat="69.4016" lon="17.28275">
        <ele>9.099251</ele>
        <time>2020-07-16T07:35:55.628Z</time>
      </trkpt>
      <trkpt lat="69.40157" lon="17.28339">
        <ele>9.206955</ele>
        <time>2020-07-16T07:36:00.884Z</time>
      </trkpt>
      <trkpt lat="69.40163" lon="17.28405">
        <ele>9.319452</ele>
        <time>2020-07-16T07:36:06.681Z</time>
      </trkpt>
      <trkpt lat="69.40174" lon="17.28449">
        <ele>9.410918</ele>
        <time>2020-07-16T07:36:10.147Z</time>
      </trkpt>
      <trkpt lat="69.40183" lon="17.2847">
        <ele>9.463597</ele>
        <time>2020-07-16T07:36:13.244Z</time>
      </trkpt>
      <trkpt lat="69.40191" lon="17.28483">
        <ele>9.506991</ele>
        <time>2020-07-16T07:36:14.649Z</time>
      </trkpt>
      <trkpt lat="69.40228" lon="17.28502">
        <ele>9.68622</ele>
        <time>2020-07-16T07:36:21.190Z</time>
      </trkpt>
      <trkpt lat="69.40305" lon="17.28494">
        <ele>8.552756</ele>
        <time>2020-07-16T07:36:32.351Z</time>
      </trkpt>
      <trkpt lat="69.40339" lon="17.28504">
        <ele>7.547219</ele>
        <time>2020-07-16T07:36:36.934Z</time>
      </trkpt>
      <trkpt lat="69.4037" lon="17.28557">
        <ele>6.498572</ele>
        <time>2020-07-16T07:36:41.452Z</time>
      </trkpt>
      <trkpt lat="69.40386" lon="17.28613">
        <ele>5.756856</ele>
        <time>2020-07-16T07:36:44.665Z</time>
      </trkpt>
      <trkpt lat="69.40397" lon="17.28684">
        <ele>4.958109</ele>
        <time>2020-07-16T07:36:48.154Z</time>
      </trkpt>
      <trkpt lat="69.40396" lon="17.28801">
        <ele>4.008432</ele>
        <time>2020-07-16T07:36:53.494Z</time>
      </trkpt>
      <trkpt lat="69.40385" lon="17.28883">
        <ele>3.379943</ele>
        <time>2020-07-16T07:36:57.602Z</time>
      </trkpt>
      <trkpt lat="69.40336" lon="17.29124">
        <ele>1.374253</ele>
        <time>2020-07-16T07:37:11.679Z</time>
      </trkpt>
      <trkpt lat="69.40333" lon="17.2916">
        <ele>1.110709</ele>
        <time>2020-07-16T07:37:13.704Z</time>
      </trkpt>
      <trkpt lat="69.40332" lon="17.29176">
        <ele>0.993179</ele>
        <time>2020-07-16T07:37:14.649Z</time>
      </trkpt>
      <trkpt lat="69.40329" lon="17.2953">
        <ele>0.5821</ele>
        <time>2020-07-16T07:37:35.970Z</time>
      </trkpt>
      <trkpt lat="69.40328" lon="17.29544">
        <ele>0.568707</ele>
        <time>2020-07-16T07:37:36.874Z</time>
      </trkpt>
      <trkpt lat="69.40328" lon="17.2956">
        <ele>0.553399</ele>
        <time>2020-07-16T07:37:37.895Z</time>
      </trkpt>
      <trkpt lat="69.4032" lon="17.29609">
        <ele>0.500476</ele>
        <time>2020-07-16T07:37:41.394Z</time>
      </trkpt>
      <trkpt lat="69.40274" lon="17.29779">
        <ele>0.4604</ele>
        <time>2020-07-16T07:37:54.983Z</time>
      </trkpt>
      <trkpt lat="69.40253" lon="17.29878">
        <ele>0.49676</ele>
        <time>2020-07-16T07:38:02.300Z</time>
      </trkpt>
      <trkpt lat="69.40169" lon="17.30498">
        <ele>1.402472</ele>
        <time>2020-07-16T07:38:44.834Z</time>
      </trkpt>
      <trkpt lat="69.40158" lon="17.30637">
        <ele>1.993276</ele>
        <time>2020-07-16T07:38:55.446Z</time>
      </trkpt>
      <trkpt lat="69.40154" lon="17.30944">
        <ele>5.740807</ele>
        <time>2020-07-16T07:39:27.347Z</time>
      </trkpt>
      <trkpt lat="69.40141" lon="17.31077">
        <ele>7.409771</ele>
        <time>2020-07-16T07:39:42.378Z</time>
      </trkpt>
      <trkpt lat="69.40133" lon="17.31146">
        <ele>8.253389</ele>
        <time>2020-07-16T07:39:51.129Z</time>
      </trkpt>
      <trkpt lat="69.40116" lon="17.31243">
        <ele>9.4391</ele>
        <time>2020-07-16T07:40:03.510Z</time>
      </trkpt>
      <trkpt lat="69.40037" lon="17.31573">
        <ele>13.378178</ele>
        <time>2020-07-16T07:40:42.604Z</time>
      </trkpt>
      <trkpt lat="69.39735" lon="17.32789">
        <ele>9.996697</ele>
        <time>2020-07-16T07:42:03.880Z</time>
      </trkpt>
      <trkpt lat="69.39601" lon="17.33528">
        <ele>13.870297</ele>
        <time>2020-07-16T07:43:10.222Z</time>
      </trkpt>
      <trkpt lat="69.39583" lon="17.33677">
        <ele>14.739264</ele>
        <time>2020-07-16T07:43:23.193Z</time>
      </trkpt>
      <trkpt lat="69.39572" lon="17.33901">
        <ele>15.814233</ele>
        <time>2020-07-16T07:43:41.350Z</time>
      </trkpt>
      <trkpt lat="69.3956" lon="17.34022">
        <ele>16.389134</ele>
        <time>2020-07-16T07:43:51.113Z</time>
      </trkpt>
      <trkpt lat="69.39527" lon="17.34212">
        <ele>17.365702</ele>
        <time>2020-07-16T07:44:06.855Z</time>
      </trkpt>
      <trkpt lat="69.39514" lon="17.34321">
        <ele>18.184532</ele>
        <time>2020-07-16T07:44:15.257Z</time>
      </trkpt>
      <trkpt lat="69.39489" lon="17.34751">
        <ele>21.87399</ele>
        <time>2020-07-16T07:44:52.763Z</time>
      </trkpt>
      <trkpt lat="69.39489" lon="17.34981">
        <ele>26.47573</ele>
        <time>2020-07-16T07:45:20.585Z</time>
      </trkpt>
      <trkpt lat="69.39506" lon="17.3539">
        <ele>34.508972</ele>
        <time>2020-07-16T07:46:21.190Z</time>
      </trkpt>
      <trkpt lat="69.39507" lon="17.3549">
        <ele>36.395351</ele>
        <time>2020-07-16T07:46:36.195Z</time>
      </trkpt>
      <trkpt lat="69.395" lon="17.35997">
        <ele>39.448345</ele>
        <time>2020-07-16T07:47:23.614Z</time>
      </trkpt>
      <trkpt lat="69.39493" lon="17.36146">
        <ele>38.708116</ele>
        <time>2020-07-16T07:47:30.210Z</time>
      </trkpt>
      <trkpt lat="69.39422" lon="17.36545">
        <ele>28.444286</ele>
        <time>2020-07-16T07:47:47.873Z</time>
      </trkpt>
      <trkpt lat="69.394" lon="17.36777">
        <ele>22.566276</ele>
        <time>2020-07-16T07:47:57.449Z</time>
      </trkpt>
      <trkpt lat="69.39381" lon="17.36915">
        <ele>19.678048</ele>
        <time>2020-07-16T07:48:03.630Z</time>
      </trkpt>
      <trkpt lat="69.39338" lon="17.37075">
        <ele>15.775852</ele>
        <time>2020-07-16T07:48:12.220Z</time>
      </trkpt>
      <trkpt lat="69.39277" lon="17.37276">
        <ele>12.171918</ele>
        <time>2020-07-16T07:48:24.260Z</time>
      </trkpt>
      <trkpt lat="69.39259" lon="17.37324">
        <ele>11.368484</ele>
        <time>2020-07-16T07:48:27.485Z</time>
      </trkpt>
      <trkpt lat="69.39179" lon="17.37443">
        <ele>8.517691</ele>
        <time>2020-07-16T07:48:39.586Z</time>
      </trkpt>
      <trkpt lat="69.39147" lon="17.37532">
        <ele>7.839172</ele>
        <time>2020-07-16T07:48:45.621Z</time>
      </trkpt>
      <trkpt lat="69.39126" lon="17.37653">
        <ele>7.119423</ele>
        <time>2020-07-16T07:48:52.557Z</time>
      </trkpt>
      <trkpt lat="69.39111" lon="17.37847">
        <ele>6.059722</ele>
        <time>2020-07-16T07:49:03.507Z</time>
      </trkpt>
      <trkpt lat="69.3905" lon="17.38066">
        <ele>5.428047</ele>
        <time>2020-07-16T07:49:19.816Z</time>
      </trkpt>
      <trkpt lat="69.39028" lon="17.382">
        <ele>5.176969</ele>
        <time>2020-07-16T07:49:28.551Z</time>
      </trkpt>
      <trkpt lat="69.39022" lon="17.38332">
        <ele>4.947396</ele>
        <time>2020-07-16T07:49:36.436Z</time>
      </trkpt>
      <trkpt lat="69.39023" lon="17.38683">
        <ele>4.27967</ele>
        <time>2020-07-16T07:49:56.539Z</time>
      </trkpt>
      <trkpt lat="69.39017" lon="17.38886">
        <ele>4.055083</ele>
        <time>2020-07-16T07:50:08.171Z</time>
      </trkpt>
      <trkpt lat="69.39022" lon="17.38991">
        <ele>4.185003</ele>
        <time>2020-07-16T07:50:14.743Z</time>
      </trkpt>
      <trkpt lat="69.39039" lon="17.39127">
        <ele>4.363737</ele>
        <time>2020-07-16T07:50:24.416Z</time>
      </trkpt>
      <trkpt lat="69.39042" lon="17.39161">
        <ele>4.405728</ele>
        <time>2020-07-16T07:50:26.420Z</time>
      </trkpt>
      <trkpt lat="69.39042" lon="17.39194">
        <ele>4.447328</ele>
        <time>2020-07-16T07:50:29.220Z</time>
      </trkpt>
      <trkpt lat="69.39031" lon="17.39311">
        <ele>4.595288</ele>
        <time>2020-07-16T07:50:37.876Z</time>
      </trkpt>
      <trkpt lat="69.39004" lon="17.39437">
        <ele>5.727392</ele>
        <time>2020-07-16T07:50:48.890Z</time>
      </trkpt>
      <trkpt lat="69.38969" lon="17.39596">
        <ele>7.346264</ele>
        <time>2020-07-16T07:51:05.639Z</time>
      </trkpt>
      <trkpt lat="69.38906" lon="17.39873">
        <ele>11.792558</ele>
        <time>2020-07-16T07:51:39.514Z</time>
      </trkpt>
      <trkpt lat="69.38916" lon="17.39892">
        <ele>12.519046</ele>
        <time>2020-07-16T07:51:44.131Z</time>
      </trkpt>
      <trkpt lat="69.3893" lon="17.39894">
        <ele>13.301816</ele>
        <time>2020-07-16T07:51:48.446Z</time>
      </trkpt>
      <trkpt lat="69.39" lon="17.39734">
        <ele>18.528081</ele>
        <time>2020-07-16T07:52:22.799Z</time>
      </trkpt>
      <trkpt lat="69.39046" lon="17.39707">
        <ele>22.650479</ele>
        <time>2020-07-16T07:52:43.531Z</time>
      </trkpt>
      <trkpt lat="69.39074" lon="17.39714">
        <ele>25.533185</ele>
        <time>2020-07-16T07:52:57.798Z</time>
      </trkpt>
      <trkpt lat="69.39102" lon="17.39744">
        <ele>28.575964</ele>
        <time>2020-07-16T07:53:14.547Z</time>
      </trkpt>
      <trkpt lat="69.3912" lon="17.39781">
        <ele>30.858879</ele>
        <time>2020-07-16T07:53:27.052Z</time>
      </trkpt>
      <trkpt lat="69.39144" lon="17.39865">
        <ele>34.777786</ele>
        <time>2020-07-16T07:53:47.727Z</time>
      </trkpt>
      <trkpt lat="69.39152" lon="17.39926">
        <ele>37.096978</ele>
        <time>2020-07-16T07:53:58.053Z</time>
      </trkpt>
      <trkpt lat="69.39154" lon="17.39958">
        <ele>38.230863</ele>
        <time>2020-07-16T07:54:05.815Z</time>
      </trkpt>
      <trkpt lat="69.39154" lon="17.39998">
        <ele>39.50152</ele>
        <time>2020-07-16T07:54:12.610Z</time>
      </trkpt>
      <trkpt lat="69.39155" lon="17.40031">
        <ele>40.538961</ele>
        <time>2020-07-16T07:54:17.370Z</time>
      </trkpt>
      <trkpt lat="69.39154" lon="17.40063">
        <ele>41.577458</ele>
        <time>2020-07-16T07:54:24.775Z</time>
      </trkpt>
      <trkpt lat="69.39152" lon="17.40106">
        <ele>42.962823</ele>
        <time>2020-07-16T07:54:31.838Z</time>
      </trkpt>
      <trkpt lat="69.3912" lon="17.40374">
        <ele>51.920538</ele>
        <time>2020-07-16T07:55:19.685Z</time>
      </trkpt>
      <trkpt lat="69.39104" lon="17.40606">
        <ele>57.462665</ele>
        <time>2020-07-16T07:55:49.637Z</time>
      </trkpt>
      <trkpt lat="69.39103" lon="17.40735">
        <ele>60.039681</ele>
        <time>2020-07-16T07:56:05.184Z</time>
      </trkpt>
      <trkpt lat="69.3911" lon="17.41127">
        <ele>67.749821</ele>
        <time>2020-07-16T07:56:53.655Z</time>
      </trkpt>
      <trkpt lat="69.3909" lon="17.41941">
        <ele>83.633379</ele>
        <time>2020-07-16T07:58:35.326Z</time>
      </trkpt>
      <trkpt lat="69.39107" lon="17.42703">
        <ele>101.610372</ele>
        <time>2020-07-16T08:00:18.207Z</time>
      </trkpt>
      <trkpt lat="69.39132" lon="17.43167">
        <ele>115.259624</ele>
        <time>2020-07-16T08:01:34.282Z</time>
      </trkpt>
      <trkpt lat="69.39141" lon="17.43295">
        <ele>119.436634</ele>
        <time>2020-07-16T08:01:56.629Z</time>
      </trkpt>
      <trkpt lat="69.39156" lon="17.43493">
        <ele>125.885561</ele>
        <time>2020-07-16T08:02:30.416Z</time>
      </trkpt>
      <trkpt lat="69.39184" lon="17.43801">
        <ele>135.463868</ele>
        <time>2020-07-16T08:03:21.563Z</time>
      </trkpt>
      <trkpt lat="69.3925" lon="17.44325">
        <ele>152.239555</ele>
        <time>2020-07-16T08:04:47.975Z</time>
      </trkpt>
      <trkpt lat="69.39567" lon="17.46429">
        <ele>227.062367</ele>
        <time>2020-07-16T08:11:12.927Z</time>
      </trkpt>
      <trkpt lat="69.39581" lon="17.46541">
        <ele>231.02772</ele>
        <time>2020-07-16T08:11:32.792Z</time>
      </trkpt>
      <trkpt lat="69.39591" lon="17.46694">
        <ele>236.269076</ele>
        <time>2020-07-16T08:11:59.244Z</time>
      </trkpt>
      <trkpt lat="69.39593" lon="17.46921">
        <ele>244.415497</ele>
        <time>2020-07-16T08:12:38.897Z</time>
      </trkpt>
      <trkpt lat="69.39571" lon="17.47164">
        <ele>254.21078</ele>
        <time>2020-07-16T08:13:25.190Z</time>
      </trkpt>
      <trkpt lat="69.39522" lon="17.47462">
        <ele>267.376225</ele>
        <time>2020-07-16T08:14:31.695Z</time>
      </trkpt>
      <trkpt lat="69.395" lon="17.47639">
        <ele>275.005246</ele>
        <time>2020-07-16T08:15:09.906Z</time>
      </trkpt>
      <trkpt lat="69.39498" lon="17.47734">
        <ele>278.880029</ele>
        <time>2020-07-16T08:15:27.929Z</time>
      </trkpt>
      <trkpt lat="69.39503" lon="17.47839">
        <ele>282.419466</ele>
        <time>2020-07-16T08:15:46.515Z</time>
      </trkpt>
      <trkpt lat="69.39513" lon="17.47935">
        <ele>284.480045</ele>
        <time>2020-07-16T08:16:02.701Z</time>
      </trkpt>
      <trkpt lat="69.39531" lon="17.48023">
        <ele>286.597302</ele>
        <time>2020-07-16T08:16:17.709Z</time>
      </trkpt>
      <trkpt lat="69.39655" lon="17.48485">
        <ele>294.896935</ele>
        <time>2020-07-16T08:17:14.619Z</time>
      </trkpt>
      <trkpt lat="69.3968" lon="17.48601">
        <ele>296.088184</ele>
        <time>2020-07-16T08:17:24.429Z</time>
      </trkpt>
      <trkpt lat="69.39698" lon="17.48707">
        <ele>297.727452</ele>
        <time>2020-07-16T08:17:32.627Z</time>
      </trkpt>
      <trkpt lat="69.39737" lon="17.49134">
        <ele>306.61038</ele>
        <time>2020-07-16T08:18:24.405Z</time>
      </trkpt>
      <trkpt lat="69.3974" lon="17.49162">
        <ele>307.945358</ele>
        <time>2020-07-16T08:18:29.057Z</time>
      </trkpt>
      <trkpt lat="69.39748" lon="17.49205">
        <ele>311.862393</ele>
        <time>2020-07-16T08:18:42.405Z</time>
      </trkpt>
      <trkpt lat="69.39762" lon="17.49284">
        <ele>319.099914</ele>
        <time>2020-07-16T08:19:05.483Z</time>
      </trkpt>
      <trkpt lat="69.39774" lon="17.49339">
        <ele>324.341061</ele>
        <time>2020-07-16T08:19:22.973Z</time>
      </trkpt>
      <trkpt lat="69.39788" lon="17.49389">
        <ele>329.48191</ele>
        <time>2020-07-16T08:19:43.531Z</time>
      </trkpt>
      <trkpt lat="69.39878" lon="17.49669">
        <ele>365.217025</ele>
        <time>2020-07-16T08:21:48.574Z</time>
      </trkpt>
      <trkpt lat="69.4006" lon="17.50145">
        <ele>447.549185</ele>
        <time>2020-07-16T08:25:40.746Z</time>
      </trkpt>
      <trkpt lat="69.40214" lon="17.50476">
        <ele>514.070957</ele>
        <time>2020-07-16T08:28:43.258Z</time>
      </trkpt>
      <trkpt lat="69.40323" lon="17.5068">
        <ele>535.458034</ele>
        <time>2020-07-16T08:30:44.840Z</time>
      </trkpt>
      <trkpt lat="69.40745" lon="17.51433">
        <ele>527.868171</ele>
        <time>2020-07-16T08:32:00.930Z</time>
      </trkpt>
      <trkpt lat="69.40899" lon="17.51672">
        <ele>444.936341</ele>
        <time>2020-07-16T08:32:21.253Z</time>
      </trkpt>
      <trkpt lat="69.41023" lon="17.51832">
        <ele>353.536549</ele>
        <time>2020-07-16T08:32:37.970Z</time>
      </trkpt>
      <trkpt lat="69.41082" lon="17.51886">
        <ele>316.643728</ele>
        <time>2020-07-16T08:32:45.587Z</time>
      </trkpt>
      <trkpt lat="69.41117" lon="17.519">
        <ele>295.500258</ele>
        <time>2020-07-16T08:32:49.834Z</time>
      </trkpt>
      <trkpt lat="69.41164" lon="17.51877">
        <ele>267.211745</ele>
        <time>2020-07-16T08:32:55.348Z</time>
      </trkpt>
      <trkpt lat="69.41175" lon="17.51863">
        <ele>260.04152</ele>
        <time>2020-07-16T08:32:56.827Z</time>
      </trkpt>
      <trkpt lat="69.41198" lon="17.51811">
        <ele>242.952028</ele>
        <time>2020-07-16T08:32:59.907Z</time>
      </trkpt>
      <trkpt lat="69.41243" lon="17.5169">
        <ele>225.324268</ele>
        <time>2020-07-16T08:33:06.409Z</time>
      </trkpt>
      <trkpt lat="69.41264" lon="17.51637">
        <ele>217.393189</ele>
        <time>2020-07-16T08:33:09.341Z</time>
      </trkpt>
      <trkpt lat="69.41285" lon="17.51588">
        <ele>209.819704</ele>
        <time>2020-07-16T08:33:12.104Z</time>
      </trkpt>
      <trkpt lat="69.41332" lon="17.51513">
        <ele>194.553249</ele>
        <time>2020-07-16T08:33:17.869Z</time>
      </trkpt>
      <trkpt lat="69.41398" lon="17.51452">
        <ele>189.198992</ele>
        <time>2020-07-16T08:33:25.468Z</time>
      </trkpt>
      <trkpt lat="69.41655" lon="17.51339">
        <ele>181.845303</ele>
        <time>2020-07-16T08:34:03.826Z</time>
      </trkpt>
      <trkpt lat="69.41676" lon="17.51314">
        <ele>181.569764</ele>
        <time>2020-07-16T08:34:08.231Z</time>
      </trkpt>
      <trkpt lat="69.41699" lon="17.51258">
        <ele>181.018315</ele>
        <time>2020-07-16T08:34:13.387Z</time>
      </trkpt>
      <trkpt lat="69.41711" lon="17.51194">
        <ele>180.31395</ele>
        <time>2020-07-16T08:34:17.672Z</time>
      </trkpt>
      <trkpt lat="69.41719" lon="17.50932">
        <ele>177.822313</ele>
        <time>2020-07-16T08:34:30.979Z</time>
      </trkpt>
      <trkpt lat="69.41725" lon="17.50874">
        <ele>177.24557</ele>
        <time>2020-07-16T08:34:33.720Z</time>
      </trkpt>
      <trkpt lat="69.41738" lon="17.50821">
        <ele>176.632422</ele>
        <time>2020-07-16T08:34:36.479Z</time>
      </trkpt>
      <trkpt lat="69.41751" lon="17.50793">
        <ele>175.203168</ele>
        <time>2020-07-16T08:34:38.366Z</time>
      </trkpt>
      <trkpt lat="69.4177" lon="17.50773">
        <ele>173.005593</ele>
        <time>2020-07-16T08:34:40.685Z</time>
      </trkpt>
      <trkpt lat="69.41859" lon="17.50753">
        <ele>163.409261</ele>
        <time>2020-07-16T08:34:50.332Z</time>
      </trkpt>
      <trkpt lat="69.41978" lon="17.50628">
        <ele>146.666888</ele>
        <time>2020-07-16T08:35:03.625Z</time>
      </trkpt>
      <trkpt lat="69.42062" lon="17.50611">
        <ele>133.810467</ele>
        <time>2020-07-16T08:35:12.357Z</time>
      </trkpt>
      <trkpt lat="69.42088" lon="17.50592">
        <ele>129.764594</ele>
        <time>2020-07-16T08:35:15.127Z</time>
      </trkpt>
      <trkpt lat="69.42172" lon="17.50495">
        <ele>121.025741</ele>
        <time>2020-07-16T08:35:24.672Z</time>
      </trkpt>
      <trkpt lat="69.42256" lon="17.50503">
        <ele>112.923345</ele>
        <time>2020-07-16T08:35:34.481Z</time>
      </trkpt>
      <trkpt lat="69.4227" lon="17.50498">
        <ele>112.599146</ele>
        <time>2020-07-16T08:35:36.326Z</time>
      </trkpt>
      <trkpt lat="69.42282" lon="17.5048">
        <ele>112.800572</ele>
        <time>2020-07-16T08:35:38.333Z</time>
      </trkpt>
      <trkpt lat="69.42286" lon="17.50464">
        <ele>112.90668</ele>
        <time>2020-07-16T08:35:39.593Z</time>
      </trkpt>
      <trkpt lat="69.42289" lon="17.50452">
        <ele>112.978507</ele>
        <time>2020-07-16T08:35:40.553Z</time>
      </trkpt>
      <trkpt lat="69.42287" lon="17.50405">
        <ele>113.229831</ele>
        <time>2020-07-16T08:35:43.274Z</time>
      </trkpt>
      <trkpt lat="69.42284" lon="17.5039">
        <ele>113.322185</ele>
        <time>2020-07-16T08:35:44.598Z</time>
      </trkpt>
      <trkpt lat="69.42279" lon="17.50378">
        <ele>113.415721</ele>
        <time>2020-07-16T08:35:47.261Z</time>
      </trkpt>
      <trkpt lat="69.4226" lon="17.50354">
        <ele>113.736405</ele>
        <time>2020-07-16T08:35:51.787Z</time>
      </trkpt>
      <trkpt lat="69.42185" lon="17.50313">
        <ele>114.880635</ele>
        <time>2020-07-16T08:36:14.413Z</time>
      </trkpt>
      <trkpt lat="69.42139" lon="17.50262">
        <ele>114.65066</ele>
        <time>2020-07-16T08:36:32.153Z</time>
      </trkpt>
      <trkpt lat="69.42101" lon="17.50181">
        <ele>113.856663</ele>
        <time>2020-07-16T08:36:42.164Z</time>
      </trkpt>
      <trkpt lat="69.42079" lon="17.50101">
        <ele>113.250074</ele>
        <time>2020-07-16T08:36:47.401Z</time>
      </trkpt>
      <trkpt lat="69.42074" lon="17.50033">
        <ele>112.843278</ele>
        <time>2020-07-16T08:36:50.458Z</time>
      </trkpt>
      <trkpt lat="69.42086" lon="17.49994">
        <ele>112.544325</ele>
        <time>2020-07-16T08:36:52.549Z</time>
      </trkpt>
      <trkpt lat="69.42102" lon="17.49985">
        <ele>112.270266</ele>
        <time>2020-07-16T08:36:54.426Z</time>
      </trkpt>
      <trkpt lat="69.42116" lon="17.49995">
        <ele>111.241333</ele>
        <time>2020-07-16T08:36:56.132Z</time>
      </trkpt>
      <trkpt lat="69.42187" lon="17.50125">
        <ele>101.380731</ele>
        <time>2020-07-16T08:37:05.212Z</time>
      </trkpt>
      <trkpt lat="69.4222" lon="17.50169">
        <ele>97.043177</ele>
        <time>2020-07-16T08:37:09.112Z</time>
      </trkpt>
      <trkpt lat="69.42255" lon="17.50198">
        <ele>92.772104</ele>
        <time>2020-07-16T08:37:12.918Z</time>
      </trkpt>
      <trkpt lat="69.42291" lon="17.50212">
        <ele>87.783945</ele>
        <time>2020-07-16T08:37:16.690Z</time>
      </trkpt>
      <trkpt lat="69.42482" lon="17.50248">
        <ele>59.157461</ele>
        <time>2020-07-16T08:37:36.594Z</time>
      </trkpt>
      <trkpt lat="69.42519" lon="17.50246">
        <ele>54.261488</ele>
        <time>2020-07-16T08:37:40.417Z</time>
      </trkpt>
      <trkpt lat="69.42565" lon="17.50223">
        <ele>47.942406</ele>
        <time>2020-07-16T08:37:45.389Z</time>
      </trkpt>
      <trkpt lat="69.42605" lon="17.50185">
        <ele>42.279306</ele>
        <time>2020-07-16T08:37:49.892Z</time>
      </trkpt>
      <trkpt lat="69.42662" lon="17.50097">
        <ele>36.405882</ele>
        <time>2020-07-16T08:37:56.846Z</time>
      </trkpt>
      <trkpt lat="69.42762" lon="17.49861">
        <ele>27.172134</ele>
        <time>2020-07-16T08:38:11.958Z</time>
      </trkpt>
      <trkpt lat="69.42903" lon="17.49635">
        <ele>23.657393</ele>
        <time>2020-07-16T08:38:35.273Z</time>
      </trkpt>
      <trkpt lat="69.42995" lon="17.49428">
        <ele>22.552084</ele>
        <time>2020-07-16T08:38:55.775Z</time>
      </trkpt>
      <trkpt lat="69.43136" lon="17.49273">
        <ele>20.681146</ele>
        <time>2020-07-16T08:39:19.140Z</time>
      </trkpt>
      <trkpt lat="69.43175" lon="17.49202">
        <ele>19.768978</ele>
        <time>2020-07-16T08:39:25.490Z</time>
      </trkpt>
      <trkpt lat="69.43206" lon="17.49123">
        <ele>18.952664</ele>
        <time>2020-07-16T08:39:31.108Z</time>
      </trkpt>
      <trkpt lat="69.43329" lon="17.48672">
        <ele>14.087436</ele>
        <time>2020-07-16T08:39:58.415Z</time>
      </trkpt>
      <trkpt lat="69.43399" lon="17.48505">
        <ele>12.180641</ele>
        <time>2020-07-16T08:40:11.102Z</time>
      </trkpt>
      <trkpt lat="69.43405" lon="17.48486">
        <ele>11.992704</ele>
        <time>2020-07-16T08:40:12.395Z</time>
      </trkpt>
      <trkpt lat="69.43412" lon="17.48461">
        <ele>11.762548</ele>
        <time>2020-07-16T08:40:13.866Z</time>
      </trkpt>
      <trkpt lat="69.43417" lon="17.48443">
        <ele>11.600773</ele>
        <time>2020-07-16T08:40:15.130Z</time>
      </trkpt>
      <trkpt lat="69.43426" lon="17.48409">
        <ele>11.296698</ele>
        <time>2020-07-16T08:40:17.272Z</time>
      </trkpt>
      <trkpt lat="69.43428" lon="17.484">
        <ele>11.208559</ele>
        <time>2020-07-16T08:40:17.871Z</time>
      </trkpt>
      <trkpt lat="69.43431" lon="17.4839">
        <ele>11.127519</ele>
        <time>2020-07-16T08:40:18.357Z</time>
      </trkpt>
      <trkpt lat="69.43474" lon="17.48148">
        <ele>9.782209</ele>
        <time>2020-07-16T08:40:32.286Z</time>
      </trkpt>
      <trkpt lat="69.43529" lon="17.47799">
        <ele>8.788571</ele>
        <time>2020-07-16T08:40:53.497Z</time>
      </trkpt>
      <trkpt lat="69.43545" lon="17.477">
        <ele>9.442189</ele>
        <time>2020-07-16T08:41:01.904Z</time>
      </trkpt>
      <trkpt lat="69.43548" lon="17.47683">
        <ele>9.552538</ele>
        <time>2020-07-16T08:41:03.215Z</time>
      </trkpt>
      <trkpt lat="69.43551" lon="17.47659">
        <ele>9.708145</ele>
        <time>2020-07-16T08:41:05.021Z</time>
      </trkpt>
      <trkpt lat="69.43562" lon="17.47607">
        <ele>10.065753</ele>
        <time>2020-07-16T08:41:11.231Z</time>
      </trkpt>
      <trkpt lat="69.43589" lon="17.47526">
        <ele>10.736358</ele>
        <time>2020-07-16T08:41:21.390Z</time>
      </trkpt>
      <trkpt lat="69.43639" lon="17.47479">
        <ele>11.627728</ele>
        <time>2020-07-16T08:41:33.893Z</time>
      </trkpt>
      <trkpt lat="69.43654" lon="17.47476">
        <ele>11.817114</ele>
        <time>2020-07-16T08:41:38.284Z</time>
      </trkpt>
      <trkpt lat="69.43685" lon="17.47469">
        <ele>12.08652</ele>
        <time>2020-07-16T08:41:45.957Z</time>
      </trkpt>
      <trkpt lat="69.437" lon="17.47453">
        <ele>12.217966</ele>
        <time>2020-07-16T08:41:50.030Z</time>
      </trkpt>
      <trkpt lat="69.43714" lon="17.47428">
        <ele>12.359827</ele>
        <time>2020-07-16T08:41:53.297Z</time>
      </trkpt>
      <trkpt lat="69.43755" lon="17.47331">
        <ele>12.817114</ele>
        <time>2020-07-16T08:42:05.056Z</time>
      </trkpt>
      <trkpt lat="69.43827" lon="17.4716">
        <ele>12.802987</ele>
        <time>2020-07-16T08:42:19.940Z</time>
      </trkpt>
      <trkpt lat="69.43898" lon="17.46969">
        <ele>11.591435</ele>
        <time>2020-07-16T08:42:33.913Z</time>
      </trkpt>
      <trkpt lat="69.43908" lon="17.4693">
        <ele>11.379855</ele>
        <time>2020-07-16T08:42:36.531Z</time>
      </trkpt>
      <trkpt lat="69.43922" lon="17.46865">
        <ele>11.055898</ele>
        <time>2020-07-16T08:42:40.668Z</time>
      </trkpt>
      <trkpt lat="69.43942" lon="17.46764">
        <ele>11.103215</ele>
        <time>2020-07-16T08:42:47.309Z</time>
      </trkpt>
      <trkpt lat="69.44013" lon="17.4637">
        <ele>11.314189</ele>
        <time>2020-07-16T08:43:17.301Z</time>
      </trkpt>
      <trkpt lat="69.44037" lon="17.46241">
        <ele>11.464274</ele>
        <time>2020-07-16T08:43:27.687Z</time>
      </trkpt>
      <trkpt lat="69.44059" lon="17.46123">
        <ele>11.600362</ele>
        <time>2020-07-16T08:43:36.529Z</time>
      </trkpt>
      <trkpt lat="69.4407" lon="17.46053">
        <ele>11.678683</ele>
        <time>2020-07-16T08:43:41.616Z</time>
      </trkpt>
      <trkpt lat="69.44095" lon="17.45841">
        <ele>11.596927</ele>
        <time>2020-07-16T08:43:55.182Z</time>
      </trkpt>
      <trkpt lat="69.44108" lon="17.45743">
        <ele>11.422707</ele>
        <time>2020-07-16T08:44:01.199Z</time>
      </trkpt>
      <trkpt lat="69.44137" lon="17.45526">
        <ele>11.037308</ele>
        <time>2020-07-16T08:44:14.669Z</time>
      </trkpt>
      <trkpt lat="69.4414" lon="17.45506">
        <ele>11.001801</ele>
        <time>2020-07-16T08:44:15.886Z</time>
      </trkpt>
      <trkpt lat="69.44149" lon="17.4544">
        <ele>10.757376</ele>
        <time>2020-07-16T08:44:20.019Z</time>
      </trkpt>
      <trkpt lat="69.44152" lon="17.45422">
        <ele>10.650639</ele>
        <time>2020-07-16T08:44:21.169Z</time>
      </trkpt>
      <trkpt lat="69.4416" lon="17.45356">
        <ele>10.271579</ele>
        <time>2020-07-16T08:44:25.028Z</time>
      </trkpt>
      <trkpt lat="69.4418" lon="17.4516">
        <ele>9.170666</ele>
        <time>2020-07-16T08:44:35.645Z</time>
      </trkpt>
      <trkpt lat="69.44186" lon="17.45004">
        <ele>8.316662</ele>
        <time>2020-07-16T08:44:43.408Z</time>
      </trkpt>
      <trkpt lat="69.44187" lon="17.44915">
        <ele>7.695748</ele>
        <time>2020-07-16T08:44:47.601Z</time>
      </trkpt>
      <trkpt lat="69.44188" lon="17.44793">
        <ele>6.755723</ele>
        <time>2020-07-16T08:44:53.415Z</time>
      </trkpt>
      <trkpt lat="69.4419" lon="17.44646">
        <ele>5.623599</ele>
        <time>2020-07-16T08:45:00.499Z</time>
      </trkpt>
      <trkpt lat="69.44195" lon="17.44497">
        <ele>4.472759</ele>
        <time>2020-07-16T08:45:07.789Z</time>
      </trkpt>
      <trkpt lat="69.44207" lon="17.44217">
        <ele>3.543524</ele>
        <time>2020-07-16T08:45:22.854Z</time>
      </trkpt>
      <trkpt lat="69.4423" lon="17.436">
        <ele>2.378705</ele>
        <time>2020-07-16T08:46:00.748Z</time>
      </trkpt>
      <trkpt lat="69.44214" lon="17.43135">
        <ele>1.699346</ele>
        <time>2020-07-16T08:46:26.841Z</time>
      </trkpt>
      <trkpt lat="69.44207" lon="17.42975">
        <ele>1.448235</ele>
        <time>2020-07-16T08:46:36.260Z</time>
      </trkpt>
      <trkpt lat="69.44195" lon="17.42642">
        <ele>1.935334</ele>
        <time>2020-07-16T08:46:59.752Z</time>
      </trkpt>
      <trkpt lat="69.44192" lon="17.42584">
        <ele>2.041202</ele>
        <time>2020-07-16T08:47:03.798Z</time>
      </trkpt>
      <trkpt lat="69.44189" lon="17.42544">
        <ele>2.116226</ele>
        <time>2020-07-16T08:47:06.814Z</time>
      </trkpt>
      <trkpt lat="69.44184" lon="17.42503">
        <ele>2.196922</ele>
        <time>2020-07-16T08:47:09.732Z</time>
      </trkpt>
      <trkpt lat="69.44174" lon="17.42427">
        <ele>2.335926</ele>
        <time>2020-07-16T08:47:15.343Z</time>
      </trkpt>
      <trkpt lat="69.44169" lon="17.42361">
        <ele>2.383427</ele>
        <time>2020-07-16T08:47:20.245Z</time>
      </trkpt>
      <trkpt lat="69.44166" lon="17.42319">
        <ele>2.412983</ele>
        <time>2020-07-16T08:47:22.816Z</time>
      </trkpt>
      <trkpt lat="69.44151" lon="17.42179">
        <ele>2.516232</ele>
        <time>2020-07-16T08:47:32.901Z</time>
      </trkpt>
      <trkpt lat="69.44143" lon="17.42127">
        <ele>2.555315</ele>
        <time>2020-07-16T08:47:36.434Z</time>
      </trkpt>
      <trkpt lat="69.44139" lon="17.42102">
        <ele>2.574618</ele>
        <time>2020-07-16T08:47:38.266Z</time>
      </trkpt>
      <trkpt lat="69.4411" lon="17.41897">
        <ele>2.720554</ele>
        <time>2020-07-16T08:47:51.339Z</time>
      </trkpt>
      <trkpt lat="69.44059" lon="17.41529">
        <ele>2.936151</ele>
        <time>2020-07-16T08:48:16.630Z</time>
      </trkpt>
      <trkpt lat="69.43789" lon="17.40292">
        <ele>7.114059</ele>
        <time>2020-07-16T08:50:01.387Z</time>
      </trkpt>
      <trkpt lat="69.43703" lon="17.3993">
        <ele>8.514275</ele>
        <time>2020-07-16T08:50:35.563Z</time>
      </trkpt>
      <trkpt lat="69.43606" lon="17.39557">
        <ele>9.219719</ele>
        <time>2020-07-16T08:51:06.000Z</time>
      </trkpt>
      <trkpt lat="69.43566" lon="17.39399">
        <ele>9.252886</ele>
        <time>2020-07-16T08:51:17.534Z</time>
      </trkpt>
      <trkpt lat="69.43539" lon="17.39259">
        <ele>9.706971</ele>
        <time>2020-07-16T08:51:27.584Z</time>
      </trkpt>
      <trkpt lat="69.4353" lon="17.39133">
        <ele>10.310467</ele>
        <time>2020-07-16T08:51:35.915Z</time>
      </trkpt>
      <trkpt lat="69.4351" lon="17.38207">
        <ele>17.523795</ele>
        <time>2020-07-16T08:52:58.447Z</time>
      </trkpt>
      <trkpt lat="69.43513" lon="17.38161">
        <ele>18.114884</ele>
        <time>2020-07-16T08:53:03.458Z</time>
      </trkpt>
      <trkpt lat="69.4362" lon="17.37072">
        <ele>31.185044</ele>
        <time>2020-07-16T08:55:02.394Z</time>
      </trkpt>
      <trkpt lat="69.43635" lon="17.36929">
        <ele>32.462824</ele>
        <time>2020-07-16T08:55:13.294Z</time>
      </trkpt>
      <trkpt lat="69.43655" lon="17.3674">
        <ele>33.960151</ele>
        <time>2020-07-16T08:55:26.944Z</time>
      </trkpt>
      <trkpt lat="69.43672" lon="17.36568">
        <ele>35.200529</ele>
        <time>2020-07-16T08:55:40.715Z</time>
      </trkpt>
      <trkpt lat="69.43683" lon="17.36504">
        <ele>35.705698</ele>
        <time>2020-07-16T08:55:47.233Z</time>
      </trkpt>
      <trkpt lat="69.43697" lon="17.36448">
        <ele>36.181142</ele>
        <time>2020-07-16T08:55:53.830Z</time>
      </trkpt>
      <trkpt lat="69.43744" lon="17.36264">
        <ele>38.866373</ele>
        <time>2020-07-16T08:56:17.976Z</time>
      </trkpt>
      <trkpt lat="69.43872" lon="17.35781">
        <ele>44.942829</ele>
        <time>2020-07-16T08:57:25.419Z</time>
      </trkpt>
      <trkpt lat="69.44041" lon="17.35257">
        <ele>41.433756</ele>
        <time>2020-07-16T08:58:00.563Z</time>
      </trkpt>
      <trkpt lat="69.4408" lon="17.3512">
        <ele>38.806591</ele>
        <time>2020-07-16T08:58:07.860Z</time>
      </trkpt>
      <trkpt lat="69.44111" lon="17.34899">
        <ele>34.448809</ele>
        <time>2020-07-16T08:58:17.659Z</time>
      </trkpt>
      <trkpt lat="69.44138" lon="17.34659">
        <ele>31.418876</ele>
        <time>2020-07-16T08:58:28.338Z</time>
      </trkpt>
      <trkpt lat="69.44153" lon="17.34311">
        <ele>31.777483</ele>
        <time>2020-07-16T08:58:53.132Z</time>
      </trkpt>
      <trkpt lat="69.44152" lon="17.34212">
        <ele>32.332484</ele>
        <time>2020-07-16T08:59:04.136Z</time>
      </trkpt>
      <trkpt lat="69.44147" lon="17.34139">
        <ele>34.143828</ele>
        <time>2020-07-16T08:59:11.761Z</time>
      </trkpt>
      <trkpt lat="69.44156" lon="17.34134">
        <ele>34.774233</ele>
        <time>2020-07-16T08:59:16.549Z</time>
      </trkpt>
      <trkpt lat="69.4417" lon="17.34165">
        <ele>36.008584</ele>
        <time>2020-07-16T08:59:22.191Z</time>
      </trkpt>
      <trkpt lat="69.44191" lon="17.34392">
        <ele>41.75026</ele>
        <time>2020-07-16T08:59:55.747Z</time>
      </trkpt>
      <trkpt lat="69.44206" lon="17.34719">
        <ele>56.147925</ele>
        <time>2020-07-16T09:00:55.014Z</time>
      </trkpt>
      <trkpt lat="69.44206" lon="17.34928">
        <ele>67.18918</ele>
        <time>2020-07-16T09:01:50.535Z</time>
      </trkpt>
      <trkpt lat="69.44205" lon="17.34966">
        <ele>69.15584</ele>
        <time>2020-07-16T09:02:02.458Z</time>
      </trkpt>
      <trkpt lat="69.44211" lon="17.35043">
        <ele>73.62538</ele>
        <time>2020-07-16T09:02:24.028Z</time>
      </trkpt>
      <trkpt lat="69.44215" lon="17.35066">
        <ele>75.259744</ele>
        <time>2020-07-16T09:02:32.547Z</time>
      </trkpt>
      <trkpt lat="69.4423" lon="17.35135">
        <ele>80.166086</ele>
        <time>2020-07-16T09:02:55.758Z</time>
      </trkpt>
      <trkpt lat="69.44244" lon="17.3518">
        <ele>83.949766</ele>
        <time>2020-07-16T09:03:13.901Z</time>
      </trkpt>
      <trkpt lat="69.44261" lon="17.35209">
        <ele>87.401181</ele>
        <time>2020-07-16T09:03:31.824Z</time>
      </trkpt>
      <trkpt lat="69.44279" lon="17.35229">
        <ele>90.750518</ele>
        <time>2020-07-16T09:03:47.641Z</time>
      </trkpt>
      <trkpt lat="69.44297" lon="17.3523">
        <ele>93.792618</ele>
        <time>2020-07-16T09:04:03.601Z</time>
      </trkpt>
      <trkpt lat="69.45142" lon="17.34973">
        <ele>166.270119</ele>
        <time>2020-07-16T09:11:18.902Z</time>
      </trkpt>
      <trkpt lat="69.45163" lon="17.3496">
        <ele>163.562318</ele>
        <time>2020-07-16T09:11:21.168Z</time>
      </trkpt>
      <trkpt lat="69.4518" lon="17.34928">
        <ele>160.913312</ele>
        <time>2020-07-16T09:11:23.384Z</time>
      </trkpt>
      <trkpt lat="69.45219" lon="17.34762">
        <ele>149.472093</ele>
        <time>2020-07-16T09:11:30.978Z</time>
      </trkpt>
      <trkpt lat="69.45235" lon="17.34711">
        <ele>141.101118</ele>
        <time>2020-07-16T09:11:33.586Z</time>
      </trkpt>
      <trkpt lat="69.45255" lon="17.34674">
        <ele>132.538081</ele>
        <time>2020-07-16T09:11:36.248Z</time>
      </trkpt>
      <trkpt lat="69.45285" lon="17.34632">
        <ele>120.659753</ele>
        <time>2020-07-16T09:11:39.962Z</time>
      </trkpt>
      <trkpt lat="69.45293" lon="17.34623">
        <ele>117.818411</ele>
        <time>2020-07-16T09:11:40.826Z</time>
      </trkpt>
      <trkpt lat="69.45317" lon="17.34627">
        <ele>109.291889</ele>
        <time>2020-07-16T09:11:43.337Z</time>
      </trkpt>
      <trkpt lat="69.45365" lon="17.34667">
        <ele>91.420815</ele>
        <time>2020-07-16T09:11:48.620Z</time>
      </trkpt>
      <trkpt lat="69.45532" lon="17.34751">
        <ele>56.696387</ele>
        <time>2020-07-16T09:12:05.831Z</time>
      </trkpt>
      <trkpt lat="69.45578" lon="17.3479">
        <ele>50.54762</ele>
        <time>2020-07-16T09:12:11.070Z</time>
      </trkpt>
      <trkpt lat="69.45659" lon="17.34905">
        <ele>42.250284</ele>
        <time>2020-07-16T09:12:21.091Z</time>
      </trkpt>
      <trkpt lat="69.45687" lon="17.3497">
        <ele>38.907672</ele>
        <time>2020-07-16T09:12:25.315Z</time>
      </trkpt>
      <trkpt lat="69.45738" lon="17.35088">
        <ele>35.141516</ele>
        <time>2020-07-16T09:12:33.161Z</time>
      </trkpt>
      <trkpt lat="69.45795" lon="17.35158">
        <ele>32.516283</ele>
        <time>2020-07-16T09:12:40.768Z</time>
      </trkpt>
      <trkpt lat="69.4601" lon="17.35316">
        <ele>26.34003</ele>
        <time>2020-07-16T09:13:10.550Z</time>
      </trkpt>
      <trkpt lat="69.46057" lon="17.35342">
        <ele>25.774233</ele>
        <time>2020-07-16T09:13:18.902Z</time>
      </trkpt>
      <trkpt lat="69.46108" lon="17.3535">
        <ele>25.994195</ele>
        <time>2020-07-16T09:13:28.973Z</time>
      </trkpt>
      <trkpt lat="69.46143" lon="17.35338">
        <ele>26.144875</ele>
        <time>2020-07-16T09:13:36.380Z</time>
      </trkpt>
      <trkpt lat="69.46174" lon="17.35311">
        <ele>26.279508</ele>
        <time>2020-07-16T09:13:43.167Z</time>
      </trkpt>
      <trkpt lat="69.46241" lon="17.3521">
        <ele>26.146075</ele>
        <time>2020-07-16T09:13:58.519Z</time>
      </trkpt>
      <trkpt lat="69.46277" lon="17.35125">
        <ele>25.692158</ele>
        <time>2020-07-16T09:14:06.353Z</time>
      </trkpt>
      <trkpt lat="69.46358" lon="17.34858">
        <ele>24.438588</ele>
        <time>2020-07-16T09:14:23.840Z</time>
      </trkpt>
      <trkpt lat="69.46433" lon="17.34637">
        <ele>23.235234</ele>
        <time>2020-07-16T09:14:39.536Z</time>
      </trkpt>
      <trkpt lat="69.46455" lon="17.346">
        <ele>22.956872</ele>
        <time>2020-07-16T09:14:43.602Z</time>
      </trkpt>
      <trkpt lat="69.46637" lon="17.34384">
        <ele>24.473198</ele>
        <time>2020-07-16T09:15:25.775Z</time>
      </trkpt>
      <trkpt lat="69.46821" lon="17.3401">
        <ele>27.724233</ele>
        <time>2020-07-16T09:16:18.362Z</time>
      </trkpt>
      <trkpt lat="69.46896" lon="17.33872">
        <ele>28.348952</ele>
        <time>2020-07-16T09:16:36.787Z</time>
      </trkpt>
      <trkpt lat="69.47096" lon="17.3354">
        <ele>28.082367</ele>
        <time>2020-07-16T09:17:16.096Z</time>
      </trkpt>
      <trkpt lat="69.47165" lon="17.33463">
        <ele>27.45081</ele>
        <time>2020-07-16T09:17:27.776Z</time>
      </trkpt>
      <trkpt lat="69.47594" lon="17.33157">
        <ele>23.648794</ele>
        <time>2020-07-16T09:18:37.033Z</time>
      </trkpt>
      <trkpt lat="69.47658" lon="17.33126">
        <ele>23.153532</ele>
        <time>2020-07-16T09:18:47.417Z</time>
      </trkpt>
      <trkpt lat="69.47719" lon="17.33117">
        <ele>22.731502</ele>
        <time>2020-07-16T09:18:57.070Z</time>
      </trkpt>
      <trkpt lat="69.47854" lon="17.33128">
        <ele>21.925454</ele>
        <time>2020-07-16T09:19:18.815Z</time>
      </trkpt>
      <trkpt lat="69.48044" lon="17.33123">
        <ele>21.373297</ele>
        <time>2020-07-16T09:19:50.998Z</time>
      </trkpt>
      <trkpt lat="69.48162" lon="17.33162">
        <ele>21.485543</ele>
        <time>2020-07-16T09:20:12.956Z</time>
      </trkpt>
      <trkpt lat="69.48253" lon="17.33225">
        <ele>22.562669</ele>
        <time>2020-07-16T09:20:31.605Z</time>
      </trkpt>
      <trkpt lat="69.48343" lon="17.33264">
        <ele>23.852911</ele>
        <time>2020-07-16T09:20:51.968Z</time>
      </trkpt>
      <trkpt lat="69.48564" lon="17.33329">
        <ele>30.56104</ele>
        <time>2020-07-16T09:21:56.367Z</time>
      </trkpt>
      <trkpt lat="69.48659" lon="17.33333">
        <ele>33.097053</ele>
        <time>2020-07-16T09:22:23.653Z</time>
      </trkpt>
      <trkpt lat="69.48711" lon="17.33326">
        <ele>33.078906</ele>
        <time>2020-07-16T09:22:34.592Z</time>
      </trkpt>
      <trkpt lat="69.48766" lon="17.33331">
        <ele>30.972675</ele>
        <time>2020-07-16T09:22:42.737Z</time>
      </trkpt>
      <trkpt lat="69.48865" lon="17.33386">
        <ele>27.178522</ele>
        <time>2020-07-16T09:22:54.632Z</time>
      </trkpt>
      <trkpt lat="69.48899" lon="17.33418">
        <ele>24.314048</ele>
        <time>2020-07-16T09:22:58.617Z</time>
      </trkpt>
      <trkpt lat="69.48919" lon="17.33468">
        <ele>22.134068</ele>
        <time>2020-07-16T09:23:01.544Z</time>
      </trkpt>
      <trkpt lat="69.48931" lon="17.3353">
        <ele>20.10072</ele>
        <time>2020-07-16T09:23:04.290Z</time>
      </trkpt>
      <trkpt lat="69.48936" lon="17.33612">
        <ele>17.721354</ele>
        <time>2020-07-16T09:23:07.518Z</time>
      </trkpt>
      <trkpt lat="69.48929" lon="17.33831">
        <ele>11.823137</ele>
        <time>2020-07-16T09:23:16.223Z</time>
      </trkpt>
      <trkpt lat="69.48917" lon="17.34011">
        <ele>8.809545</ele>
        <time>2020-07-16T09:23:23.756Z</time>
      </trkpt>
      <trkpt lat="69.48908" lon="17.34087">
        <ele>7.493091</ele>
        <time>2020-07-16T09:23:27.216Z</time>
      </trkpt>
      <trkpt lat="69.48855" lon="17.34279">
        <ele>3.812322</ele>
        <time>2020-07-16T09:23:38.512Z</time>
      </trkpt>
      <trkpt lat="69.48789" lon="17.3465">
        <ele>1.905176</ele>
        <time>2020-07-16T09:24:00.789Z</time>
      </trkpt>
      <trkpt lat="69.48608" lon="17.35393">
        <ele>0.433651</ele>
        <time>2020-07-16T09:24:53.850Z</time>
      </trkpt>
      <trkpt lat="69.48595" lon="17.35473">
        <ele>0.343209</ele>
        <time>2020-07-16T09:24:59.184Z</time>
      </trkpt>
      <trkpt lat="69.4856" lon="17.35829">
        <ele>0.16573</ele>
        <time>2020-07-16T09:25:21.909Z</time>
      </trkpt>
      <trkpt lat="69.48539" lon="17.3597">
        <ele>0.124465</ele>
        <time>2020-07-16T09:25:31.384Z</time>
      </trkpt>
      <trkpt lat="69.48487" lon="17.3622">
        <ele>0.07776</ele>
        <time>2020-07-16T09:25:49.465Z</time>
      </trkpt>
      <trkpt lat="69.48403" lon="17.36573">
        <ele>0.070561</ele>
        <time>2020-07-16T09:26:16.020Z</time>
      </trkpt>
      <trkpt lat="69.48363" lon="17.3669">
        <ele>0.110454</ele>
        <time>2020-07-16T09:26:26.343Z</time>
      </trkpt>
      <trkpt lat="69.48315" lon="17.36806">
        <ele>0.154414</ele>
        <time>2020-07-16T09:26:37.835Z</time>
      </trkpt>
      <trkpt lat="69.48194" lon="17.37047">
        <ele>0.408653</ele>
        <time>2020-07-16T09:27:05.220Z</time>
      </trkpt>
      <trkpt lat="69.48169" lon="17.37118">
        <ele>0.474571</ele>
        <time>2020-07-16T09:27:11.688Z</time>
      </trkpt>
      <trkpt lat="69.48141" lon="17.37232">
        <ele>0.510829</ele>
        <time>2020-07-16T09:27:20.607Z</time>
      </trkpt>
      <trkpt lat="69.48127" lon="17.37327">
        <ele>0.514092</ele>
        <time>2020-07-16T09:27:27.162Z</time>
      </trkpt>
      <trkpt lat="69.48103" lon="17.37535">
        <ele>0.520976</ele>
        <time>2020-07-16T09:27:40.750Z</time>
      </trkpt>
      <trkpt lat="69.48086" lon="17.37627">
        <ele>0.522831</ele>
        <time>2020-07-16T09:27:47.205Z</time>
      </trkpt>
      <trkpt lat="69.48063" lon="17.37702">
        <ele>0.471942</ele>
        <time>2020-07-16T09:27:53.221Z</time>
      </trkpt>
      <trkpt lat="69.47957" lon="17.38017">
        <ele>0.308561</ele>
        <time>2020-07-16T09:28:19.696Z</time>
      </trkpt>
      <trkpt lat="69.47946" lon="17.38057">
        <ele>0.407537</ele>
        <time>2020-07-16T09:28:22.899Z</time>
      </trkpt>
      <trkpt lat="69.47932" lon="17.38169">
        <ele>0.639239</ele>
        <time>2020-07-16T09:28:30.519Z</time>
      </trkpt>
      <trkpt lat="69.47927" lon="17.38347">
        <ele>0.984849</ele>
        <time>2020-07-16T09:28:42.750Z</time>
      </trkpt>
      <trkpt lat="69.47922" lon="17.38434">
        <ele>1.15647</ele>
        <time>2020-07-16T09:28:49.226Z</time>
      </trkpt>
      <trkpt lat="69.4791" lon="17.38548">
        <ele>1.674792</ele>
        <time>2020-07-16T09:28:58.302Z</time>
      </trkpt>
      <trkpt lat="69.47851" lon="17.38953">
        <ele>4.404161</ele>
        <time>2020-07-16T09:29:35.559Z</time>
      </trkpt>
      <trkpt lat="69.47846" lon="17.39017">
        <ele>4.564645</ele>
        <time>2020-07-16T09:29:41.412Z</time>
      </trkpt>
      <trkpt lat="69.47848" lon="17.3915">
        <ele>4.841495</ele>
        <time>2020-07-16T09:29:52.189Z</time>
      </trkpt>
      <trkpt lat="69.47867" lon="17.39283">
        <ele>5.140505</ele>
        <time>2020-07-16T09:30:02.155Z</time>
      </trkpt>
      <trkpt lat="69.47899" lon="17.39406">
        <ele>5.45982</ele>
        <time>2020-07-16T09:30:11.366Z</time>
      </trkpt>
      <trkpt lat="69.47909" lon="17.39444">
        <ele>5.367279</ele>
        <time>2020-07-16T09:30:13.988Z</time>
      </trkpt>
      <trkpt lat="69.47988" lon="17.39746">
        <ele>3.207672</ele>
        <time>2020-07-16T09:30:32.886Z</time>
      </trkpt>
      <trkpt lat="69.48068" lon="17.40033">
        <ele>1.452156</ele>
        <time>2020-07-16T09:30:51.254Z</time>
      </trkpt>
      <trkpt lat="69.48089" lon="17.4012">
        <ele>0.993028</ele>
        <time>2020-07-16T09:30:57.038Z</time>
      </trkpt>
      <trkpt lat="69.481" lon="17.40173">
        <ele>0.722339</ele>
        <time>2020-07-16T09:31:00.572Z</time>
      </trkpt>
      <trkpt lat="69.4811" lon="17.40229">
        <ele>0.452164</ele>
        <time>2020-07-16T09:31:04.117Z</time>
      </trkpt>
      <trkpt lat="69.48118" lon="17.40293">
        <ele>0.305331</ele>
        <time>2020-07-16T09:31:08.098Z</time>
      </trkpt>
      <trkpt lat="69.48125" lon="17.40389">
        <ele>0.250441</ele>
        <time>2020-07-16T09:31:13.929Z</time>
      </trkpt>
      <trkpt lat="69.48126" lon="17.40507">
        <ele>0.184448</ele>
        <time>2020-07-16T09:31:21.145Z</time>
      </trkpt>
      <trkpt lat="69.48113" lon="17.40703">
        <ele>0.07218</ele>
        <time>2020-07-16T09:31:33.649Z</time>
      </trkpt>
      <trkpt lat="69.48097" lon="17.40836">
        <ele>0.126153</ele>
        <time>2020-07-16T09:31:42.472Z</time>
      </trkpt>
      <trkpt lat="69.47975" lon="17.41661">
        <ele>1.844725</ele>
        <time>2020-07-16T09:32:42.170Z</time>
      </trkpt>
      <trkpt lat="69.47963" lon="17.41803">
        <ele>3.062052</ele>
        <time>2020-07-16T09:32:55.410Z</time>
      </trkpt>
      <trkpt lat="69.47956" lon="17.41921">
        <ele>4.410613</ele>
        <time>2020-07-16T09:33:06.748Z</time>
      </trkpt>
      <trkpt lat="69.47954" lon="17.41951">
        <ele>4.756891</ele>
        <time>2020-07-16T09:33:09.374Z</time>
      </trkpt>
      <trkpt lat="69.47952" lon="17.41972">
        <ele>5.000493</ele>
        <time>2020-07-16T09:33:12.598Z</time>
      </trkpt>
      <trkpt lat="69.47933" lon="17.42104">
        <ele>6.598959</ele>
        <time>2020-07-16T09:33:27.030Z</time>
      </trkpt>
      <trkpt lat="69.47897" lon="17.4225">
        <ele>8.499999</ele>
        <time>2020-07-16T09:33:47.172Z</time>
      </trkpt>
      <trkpt lat="69.47808" lon="17.42467">
        <ele>11.84837</ele>
        <time>2020-07-16T09:34:19.825Z</time>
      </trkpt>
      <trkpt lat="69.47758" lon="17.42563">
        <ele>13.394378</ele>
        <time>2020-07-16T09:34:33.039Z</time>
      </trkpt>
      <trkpt lat="69.47729" lon="17.42622">
        <ele>14.135269</ele>
        <time>2020-07-16T09:34:39.608Z</time>
      </trkpt>
      <trkpt lat="69.47693" lon="17.42674">
        <ele>14.998423</ele>
        <time>2020-07-16T09:34:48.551Z</time>
      </trkpt>
      <trkpt lat="69.47607" lon="17.42763">
        <ele>17.937699</ele>
        <time>2020-07-16T09:35:12.517Z</time>
      </trkpt>
      <trkpt lat="69.47591" lon="17.42782">
        <ele>19.692206</ele>
        <time>2020-07-16T09:35:18.592Z</time>
      </trkpt>
      <trkpt lat="69.47572" lon="17.42809">
        <ele>21.907965</ele>
        <time>2020-07-16T09:35:25.503Z</time>
      </trkpt>
      <trkpt lat="69.47563" lon="17.42823">
        <ele>22.916918</ele>
        <time>2020-07-16T09:35:30.116Z</time>
      </trkpt>
      <trkpt lat="69.47531" lon="17.42902">
        <ele>27.285248</ele>
        <time>2020-07-16T09:35:50.454Z</time>
      </trkpt>
      <trkpt lat="69.47516" lon="17.42961">
        <ele>29.921733</ele>
        <time>2020-07-16T09:36:04.299Z</time>
      </trkpt>
      <trkpt lat="69.47497" lon="17.43096">
        <ele>35.273188</ele>
        <time>2020-07-16T09:36:36.311Z</time>
      </trkpt>
      <trkpt lat="69.47496" lon="17.4322">
        <ele>48.087909</ele>
        <time>2020-07-16T09:37:13.091Z</time>
      </trkpt>
      <trkpt lat="69.475" lon="17.4329">
        <ele>55.489813</ele>
        <time>2020-07-16T09:37:35.957Z</time>
      </trkpt>
      <trkpt lat="69.47506" lon="17.43329">
        <ele>59.889242</ele>
        <time>2020-07-16T09:37:49.626Z</time>
      </trkpt>
      <trkpt lat="69.47513" lon="17.43378">
        <ele>65.433704</ele>
        <time>2020-07-16T09:38:06.926Z</time>
      </trkpt>
      <trkpt lat="69.47532" lon="17.43466">
        <ele>76.168234</ele>
        <time>2020-07-16T09:38:40.733Z</time>
      </trkpt>
      <trkpt lat="69.47612" lon="17.43798">
        <ele>127.959464</ele>
        <time>2020-07-16T09:40:55.185Z</time>
      </trkpt>
      <trkpt lat="69.47988" lon="17.46087">
        <ele>404.791244</ele>
        <time>2020-07-16T09:54:51.716Z</time>
      </trkpt>
      <trkpt lat="69.48351" lon="17.48225">
        <ele>100.793177</ele>
        <time>2020-07-16T09:56:20.542Z</time>
      </trkpt>
      <trkpt lat="69.48381" lon="17.48356">
        <ele>79.170182</ele>
        <time>2020-07-16T09:56:26.453Z</time>
      </trkpt>
      <trkpt lat="69.48396" lon="17.48426">
        <ele>67.865253</ele>
        <time>2020-07-16T09:56:29.478Z</time>
      </trkpt>
      <trkpt lat="69.48412" lon="17.4849">
        <ele>56.894749</ele>
        <time>2020-07-16T09:56:32.393Z</time>
      </trkpt>
      <trkpt lat="69.48421" lon="17.48514">
        <ele>52.073613</ele>
        <time>2020-07-16T09:56:33.693Z</time>
      </trkpt>
      <trkpt lat="69.48475" lon="17.48619">
        <ele>33.237477</ele>
        <time>2020-07-16T09:56:40.469Z</time>
      </trkpt>
      <trkpt lat="69.48521" lon="17.48657">
        <ele>26.044285</ele>
        <time>2020-07-16T09:56:45.367Z</time>
      </trkpt>
      <trkpt lat="69.48545" lon="17.48665">
        <ele>22.502157</ele>
        <time>2020-07-16T09:56:47.841Z</time>
      </trkpt>
      <trkpt lat="69.48552" lon="17.48664">
        <ele>21.429691</ele>
        <time>2020-07-16T09:56:48.594Z</time>
      </trkpt>
      <trkpt lat="69.48549" lon="17.487">
        <ele>19.483716</ele>
        <time>2020-07-16T09:56:50.133Z</time>
      </trkpt>
      <trkpt lat="69.48522" lon="17.48848">
        <ele>10.63931</ele>
        <time>2020-07-16T09:56:57.091Z</time>
      </trkpt>
      <trkpt lat="69.48517" lon="17.48884">
        <ele>10.334948</ele>
        <time>2020-07-16T09:56:58.822Z</time>
      </trkpt>
      <trkpt lat="69.48514" lon="17.48929">
        <ele>10.100238</ele>
        <time>2020-07-16T09:57:00.756Z</time>
      </trkpt>
      <trkpt lat="69.48514" lon="17.48969">
        <ele>9.895097</ele>
        <time>2020-07-16T09:57:02.780Z</time>
      </trkpt>
      <trkpt lat="69.48522" lon="17.49059">
        <ele>9.425392</ele>
        <time>2020-07-16T09:57:07.095Z</time>
      </trkpt>
      <trkpt lat="69.4853" lon="17.49104">
        <ele>9.162754</ele>
        <time>2020-07-16T09:57:10.677Z</time>
      </trkpt>
      <trkpt lat="69.48545" lon="17.49157">
        <ele>8.815815</ele>
        <time>2020-07-16T09:57:15.222Z</time>
      </trkpt>
      <trkpt lat="69.48571" lon="17.49207">
        <ele>8.366826</ele>
        <time>2020-07-16T09:57:21.096Z</time>
      </trkpt>
      <trkpt lat="69.48606" lon="17.49253">
        <ele>7.94125</ele>
        <time>2020-07-16T09:57:28.430Z</time>
      </trkpt>
      <trkpt lat="69.48657" lon="17.49327">
        <ele>8.305146</ele>
        <time>2020-07-16T09:57:39.220Z</time>
      </trkpt>
      <trkpt lat="69.4908" lon="17.49901">
        <ele>11.079096</ele>
        <time>2020-07-16T09:59:13.591Z</time>
      </trkpt>
      <trkpt lat="69.49162" lon="17.50003">
        <ele>10.237386</ele>
        <time>2020-07-16T09:59:28.059Z</time>
      </trkpt>
      <trkpt lat="69.49374" lon="17.50197">
        <ele>7.223972</ele>
        <time>2020-07-16T10:00:00.276Z</time>
      </trkpt>
      <trkpt lat="69.49444" lon="17.50254">
        <ele>6.433818</ele>
        <time>2020-07-16T10:00:11.063Z</time>
      </trkpt>
      <trkpt lat="69.49475" lon="17.5028">
        <ele>6.55161</ele>
        <time>2020-07-16T10:00:15.992Z</time>
      </trkpt>
      <trkpt lat="69.49517" lon="17.50302">
        <ele>6.711465</ele>
        <time>2020-07-16T10:00:23.677Z</time>
      </trkpt>
      <trkpt lat="69.49585" lon="17.50292">
        <ele>6.969957</ele>
        <time>2020-07-16T10:00:38.866Z</time>
      </trkpt>
      <trkpt lat="69.49595" lon="17.50294">
        <ele>7.007537</ele>
        <time>2020-07-16T10:00:40.926Z</time>
      </trkpt>
      <trkpt lat="69.4961" lon="17.50303">
        <ele>7.168683</ele>
        <time>2020-07-16T10:00:44.721Z</time>
      </trkpt>
      <trkpt lat="69.49623" lon="17.50315">
        <ele>7.436946</ele>
        <time>2020-07-16T10:00:47.802Z</time>
      </trkpt>
      <trkpt lat="69.49639" lon="17.50335">
        <ele>7.779702</ele>
        <time>2020-07-16T10:00:52.284Z</time>
      </trkpt>
      <trkpt lat="69.49663" lon="17.50375">
        <ele>8.322652</ele>
        <time>2020-07-16T10:00:58.935Z</time>
      </trkpt>
      <trkpt lat="69.4968" lon="17.50417">
        <ele>8.771045</ele>
        <time>2020-07-16T10:01:04.746Z</time>
      </trkpt>
      <trkpt lat="69.49759" lon="17.50681">
        <ele>11.044382</ele>
        <time>2020-07-16T10:01:34.401Z</time>
      </trkpt>
      <trkpt lat="69.49773" lon="17.50728">
        <ele>11.379849</ele>
        <time>2020-07-16T10:01:39.218Z</time>
      </trkpt>
      <trkpt lat="69.49864" lon="17.51005">
        <ele>13.579453</ele>
        <time>2020-07-16T10:02:08.235Z</time>
      </trkpt>
      <trkpt lat="69.4988" lon="17.51063">
        <ele>14.521192</ele>
        <time>2020-07-16T10:02:14.515Z</time>
      </trkpt>
      <trkpt lat="69.49892" lon="17.5115">
        <ele>15.73103</ele>
        <time>2020-07-16T10:02:23.206Z</time>
      </trkpt>
      <trkpt lat="69.49924" lon="17.51645">
        <ele>21.722553</ele>
        <time>2020-07-16T10:03:21.421Z</time>
      </trkpt>
      <trkpt lat="69.49962" lon="17.5211">
        <ele>25.125203</ele>
        <time>2020-07-16T10:04:01.629Z</time>
      </trkpt>
      <trkpt lat="69.49963" lon="17.52122">
        <ele>25.123597</ele>
        <time>2020-07-16T10:04:03.672Z</time>
      </trkpt>
      <trkpt lat="69.49963" lon="17.52157">
        <ele>25.119177</ele>
        <time>2020-07-16T10:04:05.046Z</time>
      </trkpt>
      <trkpt lat="69.49962" lon="17.52217">
        <ele>25.111473</ele>
        <time>2020-07-16T10:04:10.614Z</time>
      </trkpt>
      <trkpt lat="69.49958" lon="17.52255">
        <ele>25.106343</ele>
        <time>2020-07-16T10:04:12.321Z</time>
      </trkpt>
      <trkpt lat="69.49952" lon="17.52298">
        <ele>25.100428</ele>
        <time>2020-07-16T10:04:15.663Z</time>
      </trkpt>
      <trkpt lat="69.49925" lon="17.52459">
        <ele>25.077439</ele>
        <time>2020-07-16T10:04:25.180Z</time>
      </trkpt>
      <trkpt lat="69.49875" lon="17.52626">
        <ele>25.346011</ele>
        <time>2020-07-16T10:04:37.649Z</time>
      </trkpt>
      <trkpt lat="69.4977" lon="17.52854">
        <ele>25.309699</ele>
        <time>2020-07-16T10:05:07.902Z</time>
      </trkpt>
      <trkpt lat="69.49639" lon="17.53251">
        <ele>21.583155</ele>
        <time>2020-07-16T10:05:34.108Z</time>
      </trkpt>
      <trkpt lat="69.49501" lon="17.5355">
        <ele>16.375887</ele>
        <time>2020-07-16T10:05:56.316Z</time>
      </trkpt>
      <trkpt lat="69.4941" lon="17.53795">
        <ele>14.161854</ele>
        <time>2020-07-16T10:06:14.290Z</time>
      </trkpt>
      <trkpt lat="69.4937" lon="17.53889">
        <ele>14.252443</ele>
        <time>2020-07-16T10:06:23.785Z</time>
      </trkpt>
      <trkpt lat="69.49366" lon="17.539">
        <ele>14.359804</ele>
        <time>2020-07-16T10:06:24.718Z</time>
      </trkpt>
      <trkpt lat="69.4934" lon="17.53984">
        <ele>15.089948</ele>
        <time>2020-07-16T10:06:32.990Z</time>
      </trkpt>
      <trkpt lat="69.493" lon="17.54306">
        <ele>17.544075</ele>
        <time>2020-07-16T10:07:05.117Z</time>
      </trkpt>
      <trkpt lat="69.49272" lon="17.54403">
        <ele>19.117011</ele>
        <time>2020-07-16T10:07:19.522Z</time>
      </trkpt>
      <trkpt lat="69.4913" lon="17.54767">
        <ele>22.794394</ele>
        <time>2020-07-16T10:08:15.344Z</time>
      </trkpt>
      <trkpt lat="69.49099" lon="17.54902">
        <ele>22.182176</ele>
        <time>2020-07-16T10:08:23.701Z</time>
      </trkpt>
      <trkpt lat="69.48961" lon="17.55309">
        <ele>12.89246</ele>
        <time>2020-07-16T10:08:46.962Z</time>
      </trkpt>
      <trkpt lat="69.48895" lon="17.55423">
        <ele>8.893294</ele>
        <time>2020-07-16T10:08:55.935Z</time>
      </trkpt>
      <trkpt lat="69.4883" lon="17.55512">
        <ele>5.742157</ele>
        <time>2020-07-16T10:09:04.790Z</time>
      </trkpt>
      <trkpt lat="69.48729" lon="17.55611">
        <ele>2.348806</ele>
        <time>2020-07-16T10:09:19.102Z</time>
      </trkpt>
      <trkpt lat="69.48689" lon="17.5562">
        <ele>1.882058</ele>
        <time>2020-07-16T10:09:25.154Z</time>
      </trkpt>
      <trkpt lat="69.48447" lon="17.55559">
        <ele>0.46191</ele>
        <time>2020-07-16T10:10:06.035Z</time>
      </trkpt>
      <trkpt lat="69.48334" lon="17.55554">
        <ele>0.787167</ele>
        <time>2020-07-16T10:10:27.676Z</time>
      </trkpt>
      <trkpt lat="69.48282" lon="17.55534">
        <ele>1.061415</ele>
        <time>2020-07-16T10:10:38.252Z</time>
      </trkpt>
      <trkpt lat="69.48263" lon="17.55514">
        <ele>1.167405</ele>
        <time>2020-07-16T10:10:42.284Z</time>
      </trkpt>
      <trkpt lat="69.48196" lon="17.55428">
        <ele>1.427374</ele>
        <time>2020-07-16T10:10:56.844Z</time>
      </trkpt>
      <trkpt lat="69.48158" lon="17.55373">
        <ele>1.519733</ele>
        <time>2020-07-16T10:11:04.949Z</time>
      </trkpt>
      <trkpt lat="69.48121" lon="17.55331">
        <ele>1.606903</ele>
        <time>2020-07-16T10:11:12.360Z</time>
      </trkpt>
      <trkpt lat="69.48096" lon="17.5532">
        <ele>1.660948</ele>
        <time>2020-07-16T10:11:16.830Z</time>
      </trkpt>
      <trkpt lat="69.47947" lon="17.55332">
        <ele>1.318017</ele>
        <time>2020-07-16T10:11:41.954Z</time>
      </trkpt>
      <trkpt lat="69.47866" lon="17.55301">
        <ele>1.129799</ele>
        <time>2020-07-16T10:11:55.676Z</time>
      </trkpt>
      <trkpt lat="69.47821" lon="17.5526">
        <ele>1.189518</ele>
        <time>2020-07-16T10:12:03.697Z</time>
      </trkpt>
      <trkpt lat="69.47581" lon="17.54973">
        <ele>2.637503</ele>
        <time>2020-07-16T10:12:53.571Z</time>
      </trkpt>
      <trkpt lat="69.47553" lon="17.54945">
        <ele>2.894865</ele>
        <time>2020-07-16T10:13:00.752Z</time>
      </trkpt>
      <trkpt lat="69.4751" lon="17.54914">
        <ele>4.446532</ele>
        <time>2020-07-16T10:13:12.101Z</time>
      </trkpt>
      <trkpt lat="69.47495" lon="17.54912">
        <ele>4.996625</ele>
        <time>2020-07-16T10:13:16.544Z</time>
      </trkpt>
      <trkpt lat="69.47468" lon="17.5493">
        <ele>6.026531</ele>
        <time>2020-07-16T10:13:25.404Z</time>
      </trkpt>
      <trkpt lat="69.47446" lon="17.54961">
        <ele>6.917643</ele>
        <time>2020-07-16T10:13:33.181Z</time>
      </trkpt>
      <trkpt lat="69.4739" lon="17.55091">
        <ele>9.563177</ele>
        <time>2020-07-16T10:13:56.574Z</time>
      </trkpt>
      <trkpt lat="69.47368" lon="17.55144">
        <ele>10.500689</ele>
        <time>2020-07-16T10:14:05.189Z</time>
      </trkpt>
      <trkpt lat="69.47362" lon="17.5516">
        <ele>10.780952</ele>
        <time>2020-07-16T10:14:08.256Z</time>
      </trkpt>
      <trkpt lat="69.47285" lon="17.55345">
        <ele>14.081413</ele>
        <time>2020-07-16T10:14:37.695Z</time>
      </trkpt>
      <trkpt lat="69.4727" lon="17.55398">
        <ele>14.86513</ele>
        <time>2020-07-16T10:14:44.116Z</time>
      </trkpt>
      <trkpt lat="69.47247" lon="17.55513">
        <ele>15.369983</ele>
        <time>2020-07-16T10:14:54.642Z</time>
      </trkpt>
      <trkpt lat="69.47228" lon="17.55649">
        <ele>15.296834</ele>
        <time>2020-07-16T10:15:03.858Z</time>
      </trkpt>
      <trkpt lat="69.472" lon="17.5597">
        <ele>15.397026</ele>
        <time>2020-07-16T10:15:21.735Z</time>
      </trkpt>
      <trkpt lat="69.47164" lon="17.56174">
        <ele>16.528978</ele>
        <time>2020-07-16T10:15:33.693Z</time>
      </trkpt>
      <trkpt lat="69.47127" lon="17.563">
        <ele>17.337137</ele>
        <time>2020-07-16T10:15:46.025Z</time>
      </trkpt>
      <trkpt lat="69.47068" lon="17.56451">
        <ele>24.710073</ele>
        <time>2020-07-16T10:16:20.841Z</time>
      </trkpt>
      <trkpt lat="69.47024" lon="17.56542">
        <ele>31.797386</ele>
        <time>2020-07-16T10:16:57.584Z</time>
      </trkpt>
      <trkpt lat="69.47" lon="17.5659">
        <ele>35.530891</ele>
        <time>2020-07-16T10:17:19.080Z</time>
      </trkpt>
      <trkpt lat="69.46986" lon="17.56618">
        <ele>37.750978</ele>
        <time>2020-07-16T10:17:32.039Z</time>
      </trkpt>
      <trkpt lat="69.46967" lon="17.56653">
        <ele>40.754875</ele>
        <time>2020-07-16T10:17:46.880Z</time>
      </trkpt>
      <trkpt lat="69.46939" lon="17.56673">
        <ele>42.188325</ele>
        <time>2020-07-16T10:18:06.979Z</time>
      </trkpt>
      <trkpt lat="69.46904" lon="17.56694">
        <ele>43.744775</ele>
        <time>2020-07-16T10:18:29.699Z</time>
      </trkpt>
      <trkpt lat="69.46881" lon="17.56717">
        <ele>44.842163</ele>
        <time>2020-07-16T10:18:44.866Z</time>
      </trkpt>
      <trkpt lat="69.46741" lon="17.57036">
        <ele>40.333695</ele>
        <time>2020-07-16T10:19:07.481Z</time>
      </trkpt>
      <trkpt lat="69.46712" lon="17.57154">
        <ele>35.266261</ele>
        <time>2020-07-16T10:19:13.029Z</time>
      </trkpt>
      <trkpt lat="69.46703" lon="17.57215">
        <ele>32.956548</ele>
        <time>2020-07-16T10:19:15.497Z</time>
      </trkpt>
      <trkpt lat="69.46684" lon="17.57272">
        <ele>30.512008</ele>
        <time>2020-07-16T10:19:18.396Z</time>
      </trkpt>
      <trkpt lat="69.46649" lon="17.57323">
        <ele>28.10742</ele>
        <time>2020-07-16T10:19:22.567Z</time>
      </trkpt>
      <trkpt lat="69.46288" lon="17.57699">
        <ele>15.837474</ele>
        <time>2020-07-16T10:20:14.899Z</time>
      </trkpt>
      <trkpt lat="69.46231" lon="17.57815">
        <ele>16.048147</ele>
        <time>2020-07-16T10:20:28.852Z</time>
      </trkpt>
      <trkpt lat="69.46167" lon="17.58056">
        <ele>20.749285</ele>
        <time>2020-07-16T10:21:01.704Z</time>
      </trkpt>
      <trkpt lat="69.45991" lon="17.58717">
        <ele>42.010132</ele>
        <time>2020-07-16T10:23:14.941Z</time>
      </trkpt>
      <trkpt lat="69.45942" lon="17.58932">
        <ele>41.574024</ele>
        <time>2020-07-16T10:23:31.673Z</time>
      </trkpt>
      <trkpt lat="69.4593" lon="17.59025">
        <ele>41.390129</ele>
        <time>2020-07-16T10:23:35.924Z</time>
      </trkpt>
      <trkpt lat="69.45925" lon="17.59101">
        <ele>41.247394</ele>
        <time>2020-07-16T10:23:39.001Z</time>
      </trkpt>
      <trkpt lat="69.45921" lon="17.59351">
        <ele>44.655176</ele>
        <time>2020-07-16T10:23:54.509Z</time>
      </trkpt>
      <trkpt lat="69.45909" lon="17.59431">
        <ele>46.49838</ele>
        <time>2020-07-16T10:24:00.785Z</time>
      </trkpt>
      <trkpt lat="69.45894" lon="17.59487">
        <ele>47.968025</ele>
        <time>2020-07-16T10:24:11.861Z</time>
      </trkpt>
      <trkpt lat="69.45889" lon="17.595">
        <ele>48.390518</ele>
        <time>2020-07-16T10:24:12.620Z</time>
      </trkpt>
      <trkpt lat="69.45882" lon="17.59517">
        <ele>48.943967</ele>
        <time>2020-07-16T10:24:21.122Z</time>
      </trkpt>
      <trkpt lat="69.45805" lon="17.59668">
        <ele>59.311283</ele>
        <time>2020-07-16T10:25:18.576Z</time>
      </trkpt>
      <trkpt lat="69.45775" lon="17.59821">
        <ele>69.540735</ele>
        <time>2020-07-16T10:26:13.251Z</time>
      </trkpt>
      <trkpt lat="69.45773" lon="17.59922">
        <ele>75.429963</ele>
        <time>2020-07-16T10:26:39.587Z</time>
      </trkpt>
      <trkpt lat="69.45788" lon="17.60008">
        <ele>81.080247</ele>
        <time>2020-07-16T10:27:02.003Z</time>
      </trkpt>
      <trkpt lat="69.45817" lon="17.60088">
        <ele>84.418859</ele>
        <time>2020-07-16T10:27:25.151Z</time>
      </trkpt>
      <trkpt lat="69.45867" lon="17.60187">
        <ele>88.859256</ele>
        <time>2020-07-16T10:27:53.376Z</time>
      </trkpt>
      <trkpt lat="69.45902" lon="17.60244">
        <ele>91.791431</ele>
        <time>2020-07-16T10:28:07.299Z</time>
      </trkpt>
      <trkpt lat="69.45956" lon="17.60359">
        <ele>93.587719</ele>
        <time>2020-07-16T10:28:23.552Z</time>
      </trkpt>
      <trkpt lat="69.45979" lon="17.60384">
        <ele>92.338503</ele>
        <time>2020-07-16T10:28:27.929Z</time>
      </trkpt>
      <trkpt lat="69.4605" lon="17.60379">
        <ele>88.629082</ele>
        <time>2020-07-16T10:28:37.093Z</time>
      </trkpt>
      <trkpt lat="69.46072" lon="17.60395">
        <ele>87.466118</ele>
        <time>2020-07-16T10:28:39.767Z</time>
      </trkpt>
      <trkpt lat="69.46092" lon="17.60423">
        <ele>86.329852</ele>
        <time>2020-07-16T10:28:42.183Z</time>
      </trkpt>
      <trkpt lat="69.46119" lon="17.60524">
        <ele>81.654796</ele>
        <time>2020-07-16T10:28:47.211Z</time>
      </trkpt>
      <trkpt lat="69.46136" lon="17.60639">
        <ele>75.961034</ele>
        <time>2020-07-16T10:28:52.002Z</time>
      </trkpt>
      <trkpt lat="69.46144" lon="17.60671">
        <ele>74.158442</ele>
        <time>2020-07-16T10:28:53.404Z</time>
      </trkpt>
      <trkpt lat="69.46152" lon="17.60716">
        <ele>71.802972</ele>
        <time>2020-07-16T10:28:55.336Z</time>
      </trkpt>
      <trkpt lat="69.46214" lon="17.61211">
        <ele>55.106084</ele>
        <time>2020-07-16T10:29:14.930Z</time>
      </trkpt>
      <trkpt lat="69.46216" lon="17.61302">
        <ele>53.084428</ele>
        <time>2020-07-16T10:29:19.335Z</time>
      </trkpt>
      <trkpt lat="69.46189" lon="17.61922">
        <ele>62.598651</ele>
        <time>2020-07-16T10:30:42.696Z</time>
      </trkpt>
      <trkpt lat="69.46185" lon="17.62093">
        <ele>71.884325</ele>
        <time>2020-07-16T10:31:15.807Z</time>
      </trkpt>
      <trkpt lat="69.4619" lon="17.62269">
        <ele>81.457647</ele>
        <time>2020-07-16T10:31:53.137Z</time>
      </trkpt>
      <trkpt lat="69.46214" lon="17.62589">
        <ele>103.304809</ele>
        <time>2020-07-16T10:33:37.699Z</time>
      </trkpt>
      <trkpt lat="69.4621" lon="17.6264">
        <ele>107.430764</ele>
        <time>2020-07-16T10:33:54.396Z</time>
      </trkpt>
      <trkpt lat="69.46204" lon="17.62676">
        <ele>110.65195</ele>
        <time>2020-07-16T10:34:06.343Z</time>
      </trkpt>
      <trkpt lat="69.46191" lon="17.62716">
        <ele>114.916256</ele>
        <time>2020-07-16T10:34:23.827Z</time>
      </trkpt>
      <trkpt lat="69.46174" lon="17.62744">
        <ele>119.456286</ele>
        <time>2020-07-16T10:34:40.513Z</time>
      </trkpt>
      <trkpt lat="69.46162" lon="17.62782">
        <ele>123.418705</ele>
        <time>2020-07-16T10:34:56.622Z</time>
      </trkpt>
      <trkpt lat="69.46154" lon="17.62837">
        <ele>128.186324</ele>
        <time>2020-07-16T10:35:15.174Z</time>
      </trkpt>
      <trkpt lat="69.46151" lon="17.62962">
        <ele>134.866405</ele>
        <time>2020-07-16T10:35:55.444Z</time>
      </trkpt>
      <trkpt lat="69.46172" lon="17.63264">
        <ele>148.17503</ele>
        <time>2020-07-16T10:36:57.989Z</time>
      </trkpt>
      <trkpt lat="69.46224" lon="17.63684">
        <ele>156.196772</ele>
        <time>2020-07-16T10:37:44.033Z</time>
      </trkpt>
      <trkpt lat="69.46333" lon="17.64252">
        <ele>154.271902</ele>
        <time>2020-07-16T10:38:29.116Z</time>
      </trkpt>
      <trkpt lat="69.46368" lon="17.64393">
        <ele>143.55446</ele>
        <time>2020-07-16T10:38:35.913Z</time>
      </trkpt>
      <trkpt lat="69.46412" lon="17.64502">
        <ele>129.850256</ele>
        <time>2020-07-16T10:38:42.154Z</time>
      </trkpt>
      <trkpt lat="69.46446" lon="17.64542">
        <ele>121.242084</ele>
        <time>2020-07-16T10:38:46.097Z</time>
      </trkpt>
      <trkpt lat="69.46491" lon="17.64525">
        <ele>110.413186</ele>
        <time>2020-07-16T10:38:50.990Z</time>
      </trkpt>
      <trkpt lat="69.46509" lon="17.64534">
        <ele>105.866576</ele>
        <time>2020-07-16T10:38:52.955Z</time>
      </trkpt>
      <trkpt lat="69.46546" lon="17.64581">
        <ele>95.445005</ele>
        <time>2020-07-16T10:38:57.160Z</time>
      </trkpt>
      <trkpt lat="69.46582" lon="17.64659">
        <ele>84.016685</ele>
        <time>2020-07-16T10:39:01.742Z</time>
      </trkpt>
      <trkpt lat="69.46605" lon="17.64766">
        <ele>72.782064</ele>
        <time>2020-07-16T10:39:06.239Z</time>
      </trkpt>
      <trkpt lat="69.46631" lon="17.65061">
        <ele>57.17985</ele>
        <time>2020-07-16T10:39:17.454Z</time>
      </trkpt>
      <trkpt lat="69.46698" lon="17.65379">
        <ele>44.747293</ele>
        <time>2020-07-16T10:39:32.278Z</time>
      </trkpt>
      <trkpt lat="69.4671" lon="17.65494">
        <ele>42.735645</ele>
        <time>2020-07-16T10:39:37.319Z</time>
      </trkpt>
      <trkpt lat="69.46729" lon="17.65862">
        <ele>37.272288</ele>
        <time>2020-07-16T10:39:53.942Z</time>
      </trkpt>
      <trkpt lat="69.46726" lon="17.65994">
        <ele>36.606841</ele>
        <time>2020-07-16T10:40:00.564Z</time>
      </trkpt>
      <trkpt lat="69.46686" lon="17.66293">
        <ele>35.032334</ele>
        <time>2020-07-16T10:40:18.431Z</time>
      </trkpt>
      <trkpt lat="69.46644" lon="17.66783">
        <ele>36.221076</ele>
        <time>2020-07-16T10:40:53.503Z</time>
      </trkpt>
      <trkpt lat="69.46617" lon="17.66896">
        <ele>38.055124</ele>
        <time>2020-07-16T10:41:05.450Z</time>
      </trkpt>
      <trkpt lat="69.46601" lon="17.67003">
        <ele>39.64041</ele>
        <time>2020-07-16T10:41:16.475Z</time>
      </trkpt>
      <trkpt lat="69.46607" lon="17.67796">
        <ele>54.324183</ele>
        <time>2020-07-16T10:42:55.945Z</time>
      </trkpt>
      <trkpt lat="69.46599" lon="17.68162">
        <ele>64.536561</ele>
        <time>2020-07-16T10:43:54.066Z</time>
      </trkpt>
      <trkpt lat="69.46583" lon="17.68535">
        <ele>74.563904</ele>
        <time>2020-07-16T10:44:51.258Z</time>
      </trkpt>
      <trkpt lat="69.46582" lon="17.68596">
        <ele>76.158924</ele>
        <time>2020-07-16T10:44:59.917Z</time>
      </trkpt>
      <trkpt lat="69.46584" lon="17.68686">
        <ele>78.496053</ele>
        <time>2020-07-16T10:45:12.529Z</time>
      </trkpt>
      <trkpt lat="69.46611" lon="17.68927">
        <ele>85.042092</ele>
        <time>2020-07-16T10:45:47.890Z</time>
      </trkpt>
      <trkpt lat="69.46636" lon="17.6926">
        <ele>93.754257</ele>
        <time>2020-07-16T10:46:37.468Z</time>
      </trkpt>
      <trkpt lat="69.46663" lon="17.69375">
        <ele>96.985563</ele>
        <time>2020-07-16T10:46:58.418Z</time>
      </trkpt>
      <trkpt lat="69.46701" lon="17.69464">
        <ele>100.157952</ele>
        <time>2020-07-16T10:47:18.698Z</time>
      </trkpt>
      <trkpt lat="69.46756" lon="17.69561">
        <ele>104.372081</ele>
        <time>2020-07-16T10:47:43.376Z</time>
      </trkpt>
      <trkpt lat="69.46802" lon="17.69606">
        <ele>106.926454</ele>
        <time>2020-07-16T10:47:59.986Z</time>
      </trkpt>
      <trkpt lat="69.46835" lon="17.69607">
        <ele>108.001287</ele>
        <time>2020-07-16T10:48:10.198Z</time>
      </trkpt>
      <trkpt lat="69.46983" lon="17.69547">
        <ele>112.677848</ele>
        <time>2020-07-16T10:48:49.307Z</time>
      </trkpt>
      <trkpt lat="69.47124" lon="17.6955">
        <ele>115.948013</ele>
        <time>2020-07-16T10:49:23.916Z</time>
      </trkpt>
      <trkpt lat="69.47162" lon="17.69518">
        <ele>116.974066</ele>
        <time>2020-07-16T10:49:34.311Z</time>
      </trkpt>
      <trkpt lat="69.47235" lon="17.69407">
        <ele>119.26031</ele>
        <time>2020-07-16T10:49:57.030Z</time>
      </trkpt>
      <trkpt lat="69.47265" lon="17.69398">
        <ele>120.082992</ele>
        <time>2020-07-16T10:50:05.617Z</time>
      </trkpt>
      <trkpt lat="69.47282" lon="17.69426">
        <ele>120.619354</ele>
        <time>2020-07-16T10:50:11.296Z</time>
      </trkpt>
      <trkpt lat="69.47291" lon="17.69469">
        <ele>121.108586</ele>
        <time>2020-07-16T10:50:16.499Z</time>
      </trkpt>
      <trkpt lat="69.47293" lon="17.69711">
        <ele>120.63267</ele>
        <time>2020-07-16T10:50:35.273Z</time>
      </trkpt>
      <trkpt lat="69.47315" lon="17.69858">
        <ele>120.143498</ele>
        <time>2020-07-16T10:50:43.380Z</time>
      </trkpt>
      <trkpt lat="69.47331" lon="17.69922">
        <ele>119.908201</ele>
        <time>2020-07-16T10:50:46.980Z</time>
      </trkpt>
      <trkpt lat="69.47371" lon="17.70112">
        <ele>116.898552</ele>
        <time>2020-07-16T10:50:56.613Z</time>
      </trkpt>
      <trkpt lat="69.47386" lon="17.70261">
        <ele>114.293738</ele>
        <time>2020-07-16T10:51:02.977Z</time>
      </trkpt>
      <trkpt lat="69.47438" lon="17.71119">
        <ele>101.357158</ele>
        <time>2020-07-16T10:51:40.652Z</time>
      </trkpt>
      <trkpt lat="69.47432" lon="17.7139">
        <ele>98.786396</ele>
        <time>2020-07-16T10:51:53.999Z</time>
      </trkpt>
      <trkpt lat="69.47411" lon="17.71963">
        <ele>96.382018</ele>
        <time>2020-07-16T10:52:25.552Z</time>
      </trkpt>
      <trkpt lat="69.47411" lon="17.72152">
        <ele>96.066181</ele>
        <time>2020-07-16T10:52:36.296Z</time>
      </trkpt>
      <trkpt lat="69.47422" lon="17.72294">
        <ele>95.83568</ele>
        <time>2020-07-16T10:52:44.713Z</time>
      </trkpt>
      <trkpt lat="69.47555" lon="17.73294">
        <ele>95.330197</ele>
        <time>2020-07-16T10:53:50.262Z</time>
      </trkpt>
      <trkpt lat="69.47593" lon="17.73662">
        <ele>95.51346</ele>
        <time>2020-07-16T10:54:15.376Z</time>
      </trkpt>
      <trkpt lat="69.47596" lon="17.73937">
        <ele>95.726088</ele>
        <time>2020-07-16T10:54:33.405Z</time>
      </trkpt>
      <trkpt lat="69.47597" lon="17.74092">
        <ele>95.681592</ele>
        <time>2020-07-16T10:54:43.315Z</time>
      </trkpt>
      <trkpt lat="69.47593" lon="17.74414">
        <ele>95.588792</ele>
        <time>2020-07-16T10:55:03.069Z</time>
      </trkpt>
      <trkpt lat="69.47578" lon="17.74585">
        <ele>95.416628</ele>
        <time>2020-07-16T10:55:13.424Z</time>
      </trkpt>
      <trkpt lat="69.47518" lon="17.74922">
        <ele>94.993064</ele>
        <time>2020-07-16T10:55:35.698Z</time>
      </trkpt>
      <trkpt lat="69.4748" lon="17.75188">
        <ele>95.151202</ele>
        <time>2020-07-16T10:55:53.566Z</time>
      </trkpt>
      <trkpt lat="69.47464" lon="17.75268">
        <ele>95.201739</ele>
        <time>2020-07-16T10:55:59.560Z</time>
      </trkpt>
      <trkpt lat="69.47386" lon="17.75534">
        <ele>95.286106</ele>
        <time>2020-07-16T10:56:23.653Z</time>
      </trkpt>
      <trkpt lat="69.47347" lon="17.7563">
        <ele>95.295543</ele>
        <time>2020-07-16T10:56:32.968Z</time>
      </trkpt>
      <trkpt lat="69.47324" lon="17.75683">
        <ele>95.30101</ele>
        <time>2020-07-16T10:56:37.906Z</time>
      </trkpt>
      <trkpt lat="69.47248" lon="17.75842">
        <ele>94.237283</ele>
        <time>2020-07-16T10:56:52.623Z</time>
      </trkpt>
      <trkpt lat="69.47244" lon="17.75851">
        <ele>94.168474</ele>
        <time>2020-07-16T10:56:53.184Z</time>
      </trkpt>
      <trkpt lat="69.47155" lon="17.76065">
        <ele>92.483588</ele>
        <time>2020-07-16T10:57:09.776Z</time>
      </trkpt>
      <trkpt lat="69.47058" lon="17.76473">
        <ele>90.327481</ele>
        <time>2020-07-16T10:57:35.836Z</time>
      </trkpt>
      <trkpt lat="69.47028" lon="17.76563">
        <ele>90.16359</ele>
        <time>2020-07-16T10:57:43.098Z</time>
      </trkpt>
      <trkpt lat="69.46993" lon="17.76617">
        <ele>90.008782</ele>
        <time>2020-07-16T10:57:50.118Z</time>
      </trkpt>
      <trkpt lat="69.46882" lon="17.76705">
        <ele>89.441479</ele>
        <time>2020-07-16T10:58:10.296Z</time>
      </trkpt>
      <trkpt lat="69.46856" lon="17.76736">
        <ele>89.19724</ele>
        <time>2020-07-16T10:58:15.073Z</time>
      </trkpt>
      <trkpt lat="69.46746" lon="17.76904">
        <ele>88.112281</ele>
        <time>2020-07-16T10:58:34.316Z</time>
      </trkpt>
      <trkpt lat="69.46728" lon="17.76947">
        <ele>87.328798</ele>
        <time>2020-07-16T10:58:37.702Z</time>
      </trkpt>
      <trkpt lat="69.46713" lon="17.77008">
        <ele>86.442779</ele>
        <time>2020-07-16T10:58:41.308Z</time>
      </trkpt>
      <trkpt lat="69.46705" lon="17.77114">
        <ele>85.131119</ele>
        <time>2020-07-16T10:58:46.426Z</time>
      </trkpt>
      <trkpt lat="69.46723" lon="17.774">
        <ele>81.386161</ele>
        <time>2020-07-16T10:58:59.116Z</time>
      </trkpt>
      <trkpt lat="69.46713" lon="17.7763">
        <ele>76.27802</ele>
        <time>2020-07-16T10:59:08.641Z</time>
      </trkpt>
      <trkpt lat="69.4672" lon="17.77878">
        <ele>70.75981</ele>
        <time>2020-07-16T10:59:18.720Z</time>
      </trkpt>
      <trkpt lat="69.46716" lon="17.78001">
        <ele>67.915765</ele>
        <time>2020-07-16T10:59:23.671Z</time>
      </trkpt>
      <trkpt lat="69.46701" lon="17.7812">
        <ele>64.985239</ele>
        <time>2020-07-16T10:59:28.776Z</time>
      </trkpt>
      <trkpt lat="69.46636" lon="17.78521">
        <ele>54.957636</ele>
        <time>2020-07-16T10:59:46.931Z</time>
      </trkpt>
      <trkpt lat="69.46581" lon="17.78749">
        <ele>48.910144</ele>
        <time>2020-07-16T10:59:58.338Z</time>
      </trkpt>
      <trkpt lat="69.46569" lon="17.78818">
        <ele>47.244206</ele>
        <time>2020-07-16T11:00:01.497Z</time>
      </trkpt>
      <trkpt lat="69.46562" lon="17.78911">
        <ele>45.264141</ele>
        <time>2020-07-16T11:00:05.405Z</time>
      </trkpt>
      <trkpt lat="69.46561" lon="17.79089">
        <ele>41.567194</ele>
        <time>2020-07-16T11:00:12.715Z</time>
      </trkpt>
      <trkpt lat="69.46557" lon="17.7917">
        <ele>39.857134</ele>
        <time>2020-07-16T11:00:16.105Z</time>
      </trkpt>
      <trkpt lat="69.46435" lon="17.80113">
        <ele>21.662067</ele>
        <time>2020-07-16T11:00:58.471Z</time>
      </trkpt>
      <trkpt lat="69.4642" lon="17.80322">
        <ele>18.654368</ele>
        <time>2020-07-16T11:01:08.154Z</time>
      </trkpt>
      <trkpt lat="69.46418" lon="17.80402">
        <ele>18.08147</ele>
        <time>2020-07-16T11:01:11.905Z</time>
      </trkpt>
      <trkpt lat="69.46408" lon="17.80816">
        <ele>15.193217</ele>
        <time>2020-07-16T11:01:33.109Z</time>
      </trkpt>
      <trkpt lat="69.46402" lon="17.81093">
        <ele>14.036985</ele>
        <time>2020-07-16T11:01:48.464Z</time>
      </trkpt>
      <trkpt lat="69.46369" lon="17.81401">
        <ele>12.368959</ele>
        <time>2020-07-16T11:02:05.353Z</time>
      </trkpt>
      <trkpt lat="69.46338" lon="17.81576">
        <ele>10.998175</ele>
        <time>2020-07-16T11:02:15.029Z</time>
      </trkpt>
      <trkpt lat="69.46319" lon="17.81634">
        <ele>10.448998</ele>
        <time>2020-07-16T11:02:18.771Z</time>
      </trkpt>
      <trkpt lat="69.46291" lon="17.81693">
        <ele>9.74767</ele>
        <time>2020-07-16T11:02:23.577Z</time>
      </trkpt>
      <trkpt lat="69.46282" lon="17.81706">
        <ele>9.568762</ele>
        <time>2020-07-16T11:02:24.885Z</time>
      </trkpt>
      <trkpt lat="69.46271" lon="17.81719">
        <ele>9.367828</ele>
        <time>2020-07-16T11:02:26.625Z</time>
      </trkpt>
      <trkpt lat="69.46201" lon="17.81775">
        <ele>8.174998</ele>
        <time>2020-07-16T11:02:37.078Z</time>
      </trkpt>
      <trkpt lat="69.46194" lon="17.81779">
        <ele>8.054237</ele>
        <time>2020-07-16T11:02:38.102Z</time>
      </trkpt>
      <trkpt lat="69.46191" lon="17.81795">
        <ele>7.953989</ele>
        <time>2020-07-16T11:02:38.939Z</time>
      </trkpt>
      <trkpt lat="69.46195" lon="17.81829">
        <ele>7.74818</ele>
        <time>2020-07-16T11:02:40.750Z</time>
      </trkpt>
      <trkpt lat="69.46205" lon="17.81851">
        <ele>7.543086</ele>
        <time>2020-07-16T11:02:42.636Z</time>
      </trkpt>
      <trkpt lat="69.46208" lon="17.81863">
        <ele>7.459708</ele>
        <time>2020-07-16T11:02:43.348Z</time>
      </trkpt>
      <trkpt lat="69.46216" lon="17.81887">
        <ele>7.265912</ele>
        <time>2020-07-16T11:02:44.991Z</time>
      </trkpt>
      <trkpt lat="69.46219" lon="17.81894">
        <ele>7.204834</ele>
        <time>2020-07-16T11:02:45.571Z</time>
      </trkpt>
      <trkpt lat="69.4623" lon="17.81921">
        <ele>6.970163</ele>
        <time>2020-07-16T11:02:47.794Z</time>
      </trkpt>
      <trkpt lat="69.46248" lon="17.81988">
        <ele>6.773795</ele>
        <time>2020-07-16T11:02:52.501Z</time>
      </trkpt>
      <trkpt lat="69.46256" lon="17.82085">
        <ele>7.138441</ele>
        <time>2020-07-16T11:02:58.365Z</time>
      </trkpt>
      <trkpt lat="69.46256" lon="17.82118">
        <ele>7.257686</ele>
        <time>2020-07-16T11:03:00.350Z</time>
      </trkpt>
      <trkpt lat="69.46254" lon="17.82145">
        <ele>7.357403</ele>
        <time>2020-07-16T11:03:01.798Z</time>
      </trkpt>
      <trkpt lat="69.46212" lon="17.82442">
        <ele>8.5175</ele>
        <time>2020-07-16T11:03:28.581Z</time>
      </trkpt>
      <trkpt lat="69.4619" lon="17.82587">
        <ele>11.078722</ele>
        <time>2020-07-16T11:03:43.502Z</time>
      </trkpt>
      <trkpt lat="69.46169" lon="17.82728">
        <ele>13.594223</ele>
        <time>2020-07-16T11:04:02.434Z</time>
      </trkpt>
      <trkpt lat="69.46133" lon="17.82974">
        <ele>17.766016</ele>
        <time>2020-07-16T11:04:37.155Z</time>
      </trkpt>
      <trkpt lat="69.46126" lon="17.83031">
        <ele>18.582824</ele>
        <time>2020-07-16T11:04:44.813Z</time>
      </trkpt>
      <trkpt lat="69.46123" lon="17.83061">
        <ele>18.998428</ele>
        <time>2020-07-16T11:04:49.135Z</time>
      </trkpt>
      <trkpt lat="69.46117" lon="17.8323">
        <ele>21.291494</ele>
        <time>2020-07-16T11:05:08.574Z</time>
      </trkpt>
      <trkpt lat="69.46124" lon="17.83426">
        <ele>23.682757</ele>
        <time>2020-07-16T11:05:26.448Z</time>
      </trkpt>
      <trkpt lat="69.46138" lon="17.83563">
        <ele>21.855826</ele>
        <time>2020-07-16T11:05:34.317Z</time>
      </trkpt>
      <trkpt lat="69.46157" lon="17.83646">
        <ele>20.606017</ele>
        <time>2020-07-16T11:05:38.857Z</time>
      </trkpt>
      <trkpt lat="69.46174" lon="17.83699">
        <ele>19.686254</ele>
        <time>2020-07-16T11:05:41.971Z</time>
      </trkpt>
      <trkpt lat="69.46197" lon="17.83766">
        <ele>18.493834</ele>
        <time>2020-07-16T11:05:45.814Z</time>
      </trkpt>
      <trkpt lat="69.46252" lon="17.83979">
        <ele>13.337036</ele>
        <time>2020-07-16T11:05:56.372Z</time>
      </trkpt>
      <trkpt lat="69.46279" lon="17.84105">
        <ele>9.896433</ele>
        <time>2020-07-16T11:06:02.228Z</time>
      </trkpt>
      <trkpt lat="69.46295" lon="17.84182">
        <ele>7.817861</ele>
        <time>2020-07-16T11:06:05.919Z</time>
      </trkpt>
      <trkpt lat="69.46342" lon="17.84382">
        <ele>4.271983</ele>
        <time>2020-07-16T11:06:16.205Z</time>
      </trkpt>
      <trkpt lat="69.46368" lon="17.84481">
        <ele>3.268764</ele>
        <time>2020-07-16T11:06:22.015Z</time>
      </trkpt>
      <trkpt lat="69.4638" lon="17.84522">
        <ele>2.827115</ele>
        <time>2020-07-16T11:06:24.758Z</time>
      </trkpt>
      <trkpt lat="69.46503" lon="17.84935">
        <ele>0.936116</ele>
        <time>2020-07-16T11:06:57.173Z</time>
      </trkpt>
      <trkpt lat="69.46527" lon="17.85018">
        <ele>0.855904</ele>
        <time>2020-07-16T11:07:03.868Z</time>
      </trkpt>
      <trkpt lat="69.46544" lon="17.85073">
        <ele>0.807747</ele>
        <time>2020-07-16T11:07:08.445Z</time>
      </trkpt>
      <trkpt lat="69.46581" lon="17.85184">
        <ele>0.809881</ele>
        <time>2020-07-16T11:07:17.992Z</time>
      </trkpt>
      <trkpt lat="69.46611" lon="17.85251">
        <ele>0.81137</ele>
        <time>2020-07-16T11:07:24.648Z</time>
      </trkpt>
      <trkpt lat="69.46673" lon="17.85351">
        <ele>0.8142</ele>
        <time>2020-07-16T11:07:37.479Z</time>
      </trkpt>
      <trkpt lat="69.46862" lon="17.85556">
        <ele>0.85595</ele>
        <time>2020-07-16T11:08:13.848Z</time>
      </trkpt>
      <trkpt lat="69.46908" lon="17.85588">
        <ele>0.863208</ele>
        <time>2020-07-16T11:08:22.238Z</time>
      </trkpt>
      <trkpt lat="69.46951" lon="17.85602">
        <ele>0.869817</ele>
        <time>2020-07-16T11:08:29.938Z</time>
      </trkpt>
      <trkpt lat="69.46961" lon="17.85602">
        <ele>0.871268</ele>
        <time>2020-07-16T11:08:31.806Z</time>
      </trkpt>
      <trkpt lat="69.46973" lon="17.85601">
        <ele>0.87321</ele>
        <time>2020-07-16T11:08:33.932Z</time>
      </trkpt>
      <trkpt lat="69.4707" lon="17.85564">
        <ele>0.972554</ele>
        <time>2020-07-16T11:08:51.618Z</time>
      </trkpt>
      <trkpt lat="69.47312" lon="17.85441">
        <ele>1.688689</ele>
        <time>2020-07-16T11:09:37.857Z</time>
      </trkpt>
      <trkpt lat="69.47506" lon="17.85245">
        <ele>2.236331</ele>
        <time>2020-07-16T11:10:17.718Z</time>
      </trkpt>
      <trkpt lat="69.47811" lon="17.84866">
        <ele>1.234592</ele>
        <time>2020-07-16T11:11:12.909Z</time>
      </trkpt>
      <trkpt lat="69.47936" lon="17.84782">
        <ele>0.957599</ele>
        <time>2020-07-16T11:11:34.984Z</time>
      </trkpt>
      <trkpt lat="69.48006" lon="17.84712">
        <ele>0.912823</ele>
        <time>2020-07-16T11:11:48.275Z</time>
      </trkpt>
      <trkpt lat="69.4802" lon="17.84697">
        <ele>0.903912</ele>
        <time>2020-07-16T11:11:51.007Z</time>
      </trkpt>
      <trkpt lat="69.48049" lon="17.84667">
        <ele>0.885264</ele>
        <time>2020-07-16T11:11:56.518Z</time>
      </trkpt>
      <trkpt lat="69.48182" lon="17.84576">
        <ele>0.804334</ele>
        <time>2020-07-16T11:12:20.687Z</time>
      </trkpt>
      <trkpt lat="69.48229" lon="17.84553">
        <ele>0.775822</ele>
        <time>2020-07-16T11:12:29.225Z</time>
      </trkpt>
      <trkpt lat="69.48392" lon="17.84469">
        <ele>0.615942</ele>
        <time>2020-07-16T11:12:58.112Z</time>
      </trkpt>
      <trkpt lat="69.48447" lon="17.8444">
        <ele>0.52027</ele>
        <time>2020-07-16T11:13:08.008Z</time>
      </trkpt>
      <trkpt lat="69.48459" lon="17.84433">
        <ele>0.494927</ele>
        <time>2020-07-16T11:13:10.167Z</time>
      </trkpt>
      <trkpt lat="69.4847" lon="17.84429">
        <ele>0.472958</ele>
        <time>2020-07-16T11:13:12.031Z</time>
      </trkpt>
      <trkpt lat="69.48482" lon="17.84422">
        <ele>0.446526</ele>
        <time>2020-07-16T11:13:14.291Z</time>
      </trkpt>
      <trkpt lat="69.48495" lon="17.8442">
        <ele>0.42145</ele>
        <time>2020-07-16T11:13:16.388Z</time>
      </trkpt>
      <trkpt lat="69.48504" lon="17.8442">
        <ele>0.402949</ele>
        <time>2020-07-16T11:13:17.918Z</time>
      </trkpt>
      <trkpt lat="69.4853" lon="17.84433">
        <ele>0.348633</ele>
        <time>2020-07-16T11:13:22.434Z</time>
      </trkpt>
      <trkpt lat="69.48564" lon="17.84477">
        <ele>0.273656</ele>
        <time>2020-07-16T11:13:28.595Z</time>
      </trkpt>
      <trkpt lat="69.48672" lon="17.84689">
        <ele>0.161932</ele>
        <time>2020-07-16T11:13:51.748Z</time>
      </trkpt>
      <trkpt lat="69.48737" lon="17.84811">
        <ele>0.123088</ele>
        <time>2020-07-16T11:14:05.714Z</time>
      </trkpt>
      <trkpt lat="69.48765" lon="17.84861">
        <ele>0.138058</ele>
        <time>2020-07-16T11:14:11.701Z</time>
      </trkpt>
      <trkpt lat="69.48792" lon="17.84903">
        <ele>0.151921</ele>
        <time>2020-07-16T11:14:17.246Z</time>
      </trkpt>
      <trkpt lat="69.48821" lon="17.8493">
        <ele>0.165701</ele>
        <time>2020-07-16T11:14:22.765Z</time>
      </trkpt>
      <trkpt lat="69.48859" lon="17.84945">
        <ele>0.18309</ele>
        <time>2020-07-16T11:14:29.719Z</time>
      </trkpt>
      <trkpt lat="69.4897" lon="17.84955">
        <ele>0.166575</ele>
        <time>2020-07-16T11:14:49.511Z</time>
      </trkpt>
      <trkpt lat="69.49001" lon="17.84977">
        <ele>0.152117</ele>
        <time>2020-07-16T11:14:55.136Z</time>
      </trkpt>
      <trkpt lat="69.49033" lon="17.85019">
        <ele>0.136204</ele>
        <time>2020-07-16T11:15:01.354Z</time>
      </trkpt>
      <trkpt lat="69.49081" lon="17.85093">
        <ele>0.116994</ele>
        <time>2020-07-16T11:15:10.982Z</time>
      </trkpt>
      <trkpt lat="69.49089" lon="17.85104">
        <ele>0.116132</ele>
        <time>2020-07-16T11:15:12.469Z</time>
      </trkpt>
      <trkpt lat="69.49197" lon="17.85213">
        <ele>0.104246</ele>
        <time>2020-07-16T11:15:32.885Z</time>
      </trkpt>
      <trkpt lat="69.49226" lon="17.85254">
        <ele>0.100939</ele>
        <time>2020-07-16T11:15:38.592Z</time>
      </trkpt>
      <trkpt lat="69.49312" lon="17.85387">
        <ele>0.139049</ele>
        <time>2020-07-16T11:15:56.221Z</time>
      </trkpt>
      <trkpt lat="69.4952" lon="17.85669">
        <ele>0.344615</ele>
        <time>2020-07-16T11:16:37.942Z</time>
      </trkpt>
      <trkpt lat="69.49686" lon="17.85941">
        <ele>0.649796</ele>
        <time>2020-07-16T11:17:13.390Z</time>
      </trkpt>
      <trkpt lat="69.4973" lon="17.8606">
        <ele>0.763237</ele>
        <time>2020-07-16T11:17:24.099Z</time>
      </trkpt>
      <trkpt lat="69.49777" lon="17.86291">
        <ele>0.957346</ele>
        <time>2020-07-16T11:17:41.590Z</time>
      </trkpt>
      <trkpt lat="69.49783" lon="17.86317">
        <ele>0.980175</ele>
        <time>2020-07-16T11:17:43.431Z</time>
      </trkpt>
      <trkpt lat="69.49798" lon="17.86373">
        <ele>1.030697</ele>
        <time>2020-07-16T11:17:48.236Z</time>
      </trkpt>
      <trkpt lat="69.49846" lon="17.86503">
        <ele>1.282422</ele>
        <time>2020-07-16T11:18:00.737Z</time>
      </trkpt>
      <trkpt lat="69.49915" lon="17.86618">
        <ele>1.643652</ele>
        <time>2020-07-16T11:18:16.312Z</time>
      </trkpt>
      <trkpt lat="69.49935" lon="17.86665">
        <ele>1.75952</ele>
        <time>2020-07-16T11:18:21.272Z</time>
      </trkpt>
      <trkpt lat="69.49977" lon="17.86844">
        <ele>2.110101</ele>
        <time>2020-07-16T11:18:35.917Z</time>
      </trkpt>
      <trkpt lat="69.50033" lon="17.86991">
        <ele>2.465353</ele>
        <time>2020-07-16T11:18:50.893Z</time>
      </trkpt>
      <trkpt lat="69.50045" lon="17.87045">
        <ele>2.568642</ele>
        <time>2020-07-16T11:18:55.138Z</time>
      </trkpt>
      <trkpt lat="69.50055" lon="17.87136">
        <ele>2.724434</ele>
        <time>2020-07-16T11:19:01.573Z</time>
      </trkpt>
      <trkpt lat="69.50058" lon="17.87185">
        <ele>2.751658</ele>
        <time>2020-07-16T11:19:04.922Z</time>
      </trkpt>
      <trkpt lat="69.50061" lon="17.87237">
        <ele>2.780412</ele>
        <time>2020-07-16T11:19:08.364Z</time>
      </trkpt>
      <trkpt lat="69.50071" lon="17.87402">
        <ele>2.871403</ele>
        <time>2020-07-16T11:19:19.298Z</time>
      </trkpt>
      <trkpt lat="69.50078" lon="17.87506">
        <ele>2.929555</ele>
        <time>2020-07-16T11:19:26.172Z</time>
      </trkpt>
      <trkpt lat="69.50096" lon="17.87754">
        <ele>2.80225</ele>
        <time>2020-07-16T11:19:41.800Z</time>
      </trkpt>
      <trkpt lat="69.50103" lon="17.87804">
        <ele>2.71092</ele>
        <time>2020-07-16T11:19:44.870Z</time>
      </trkpt>
      <trkpt lat="69.50112" lon="17.87882">
        <ele>2.567362</ele>
        <time>2020-07-16T11:19:49.639Z</time>
      </trkpt>
      <trkpt lat="69.50121" lon="17.87987">
        <ele>2.381905</ele>
        <time>2020-07-16T11:19:55.742Z</time>
      </trkpt>
      <trkpt lat="69.50125" lon="17.88085">
        <ele>2.212555</ele>
        <time>2020-07-16T11:20:01.251Z</time>
      </trkpt>
      <trkpt lat="69.50132" lon="17.88253">
        <ele>1.862116</ele>
        <time>2020-07-16T11:20:10.710Z</time>
      </trkpt>
      <trkpt lat="69.50135" lon="17.8837">
        <ele>1.602135</ele>
        <time>2020-07-16T11:20:17.244Z</time>
      </trkpt>
      <trkpt lat="69.50141" lon="17.88536">
        <ele>1.230711</ele>
        <time>2020-07-16T11:20:26.585Z</time>
      </trkpt>
      <trkpt lat="69.50151" lon="17.88643">
        <ele>0.982838</ele>
        <time>2020-07-16T11:20:33.154Z</time>
      </trkpt>
      <trkpt lat="69.50178" lon="17.88756">
        <ele>0.877622</ele>
        <time>2020-07-16T11:20:41.256Z</time>
      </trkpt>
      <trkpt lat="69.50186" lon="17.88783">
        <ele>0.851422</ele>
        <time>2020-07-16T11:20:43.380Z</time>
      </trkpt>
      <trkpt lat="69.502" lon="17.88829">
        <ele>0.805961</ele>
        <time>2020-07-16T11:20:47.065Z</time>
      </trkpt>
      <trkpt lat="69.50206" lon="17.8885">
        <ele>0.786556</ele>
        <time>2020-07-16T11:20:48.645Z</time>
      </trkpt>
      <trkpt lat="69.50215" lon="17.8889">
        <ele>0.752019</ele>
        <time>2020-07-16T11:20:51.428Z</time>
      </trkpt>
      <trkpt lat="69.50221" lon="17.88928">
        <ele>0.720406</ele>
        <time>2020-07-16T11:20:54.102Z</time>
      </trkpt>
      <trkpt lat="69.50225" lon="17.88956">
        <ele>0.698152</ele>
        <time>2020-07-16T11:20:56.003Z</time>
      </trkpt>
      <trkpt lat="69.50229" lon="17.88986">
        <ele>0.67434</ele>
        <time>2020-07-16T11:20:57.873Z</time>
      </trkpt>
      <trkpt lat="69.50244" lon="17.89125">
        <ele>0.681733</ele>
        <time>2020-07-16T11:21:06.811Z</time>
      </trkpt>
      <trkpt lat="69.50259" lon="17.89191">
        <ele>0.849491</ele>
        <time>2020-07-16T11:21:11.589Z</time>
      </trkpt>
      <trkpt lat="69.50279" lon="17.89246">
        <ele>1.019221</ele>
        <time>2020-07-16T11:21:17.063Z</time>
      </trkpt>
      <trkpt lat="69.50338" lon="17.89365">
        <ele>1.462624</ele>
        <time>2020-07-16T11:21:32.078Z</time>
      </trkpt>
      <trkpt lat="69.50366" lon="17.89457">
        <ele>1.735414</ele>
        <time>2020-07-16T11:21:41.061Z</time>
      </trkpt>
      <trkpt lat="69.50374" lon="17.89499">
        <ele>1.880991</ele>
        <time>2020-07-16T11:21:44.245Z</time>
      </trkpt>
      <trkpt lat="69.50379" lon="17.89525">
        <ele>1.972007</ele>
        <time>2020-07-16T11:21:46.769Z</time>
      </trkpt>
      <trkpt lat="69.50394" lon="17.8962">
        <ele>2.295471</ele>
        <time>2020-07-16T11:21:54.569Z</time>
      </trkpt>
      <trkpt lat="69.50397" lon="17.8964">
        <ele>2.363933</ele>
        <time>2020-07-16T11:21:56.209Z</time>
      </trkpt>
      <trkpt lat="69.50417" lon="17.89763">
        <ele>2.783868</ele>
        <time>2020-07-16T11:22:06.217Z</time>
      </trkpt>
      <trkpt lat="69.50498" lon="17.90124">
        <ele>3.597077</ele>
        <time>2020-07-16T11:22:35.710Z</time>
      </trkpt>
      <trkpt lat="69.50516" lon="17.90171">
        <ele>3.677877</ele>
        <time>2020-07-16T11:22:40.017Z</time>
      </trkpt>
      <trkpt lat="69.50538" lon="17.90198">
        <ele>3.755836</ele>
        <time>2020-07-16T11:22:44.477Z</time>
      </trkpt>
      <trkpt lat="69.50546" lon="17.90202">
        <ele>3.781862</ele>
        <time>2020-07-16T11:22:45.835Z</time>
      </trkpt>
      <trkpt lat="69.50593" lon="17.90223">
        <ele>3.777119</ele>
        <time>2020-07-16T11:22:54.816Z</time>
      </trkpt>
      <trkpt lat="69.50626" lon="17.90238">
        <ele>3.574111</ele>
        <time>2020-07-16T11:23:00.608Z</time>
      </trkpt>
      <trkpt lat="69.50656" lon="17.90252">
        <ele>3.391174</ele>
        <time>2020-07-16T11:23:05.508Z</time>
      </trkpt>
      <trkpt lat="69.50662" lon="17.90255">
        <ele>3.348396</ele>
        <time>2020-07-16T11:23:06.709Z</time>
      </trkpt>
      <trkpt lat="69.50676" lon="17.90262">
        <ele>3.262419</ele>
        <time>2020-07-16T11:23:08.992Z</time>
      </trkpt>
      <trkpt lat="69.50679" lon="17.90263">
        <ele>3.243261</ele>
        <time>2020-07-16T11:23:09.486Z</time>
      </trkpt>
      <trkpt lat="69.50718" lon="17.90281">
        <ele>3.002009</ele>
        <time>2020-07-16T11:23:15.532Z</time>
      </trkpt>
      <trkpt lat="69.50744" lon="17.90295">
        <ele>2.844104</ele>
        <time>2020-07-16T11:23:19.463Z</time>
      </trkpt>
      <trkpt lat="69.50735" lon="17.90493">
        <ele>2.06118</ele>
        <time>2020-07-16T11:23:30.203Z</time>
      </trkpt>
      <trkpt lat="69.50732" lon="17.90541">
        <ele>1.859608</ele>
        <time>2020-07-16T11:23:32.825Z</time>
      </trkpt>
      <trkpt lat="69.5073" lon="17.9057">
        <ele>1.731251</ele>
        <time>2020-07-16T11:23:34.274Z</time>
      </trkpt>
      <trkpt lat="69.50729" lon="17.90581">
        <ele>1.68564</ele>
        <time>2020-07-16T11:23:34.871Z</time>
      </trkpt>
      <trkpt lat="69.50723" lon="17.9063">
        <ele>1.468064</ele>
        <time>2020-07-16T11:23:37.675Z</time>
      </trkpt>
      <trkpt lat="69.50713" lon="17.90684">
        <ele>1.209599</ele>
        <time>2020-07-16T11:23:40.767Z</time>
      </trkpt>
      <trkpt lat="69.50698" lon="17.90773">
        <ele>0.798324</ele>
        <time>2020-07-16T11:23:45.826Z</time>
      </trkpt>
      <trkpt lat="69.50695" lon="17.90802">
        <ele>0.667256</ele>
        <time>2020-07-16T11:23:47.583Z</time>
      </trkpt>
      <trkpt lat="69.50693" lon="17.90825">
        <ele>0.608577</ele>
        <time>2020-07-16T11:23:48.914Z</time>
      </trkpt>
      <trkpt lat="69.50694" lon="17.90872">
        <ele>0.550988</ele>
        <time>2020-07-16T11:23:51.362Z</time>
      </trkpt>
      <trkpt lat="69.50656" lon="17.91066">
        <ele>0.282051</ele>
        <time>2020-07-16T11:24:02.175Z</time>
      </trkpt>
      <trkpt lat="69.50633" lon="17.91207">
        <ele>0.092032</ele>
        <time>2020-07-16T11:24:09.812Z</time>
      </trkpt>
      <trkpt lat="69.50631" lon="17.91329">
        <ele>0.000507</ele>
        <time>2020-07-16T11:24:15.770Z</time>
      </trkpt>
      <trkpt lat="69.50737" lon="17.91665">
        <ele>1.6E-5</ele>
        <time>2020-07-16T11:24:37.859Z</time>
      </trkpt>
      <trkpt lat="69.50946" lon="17.92053">
        <time>2020-07-16T11:25:12.610Z</time>
      </trkpt>
      <trkpt lat="69.51394" lon="17.92472">
        <time>2020-07-16T11:26:18.390Z</time>
      </trkpt>
      <trkpt lat="69.52121" lon="17.93278">
        <time>2020-07-16T11:28:07.093Z</time>
      </trkpt>
      <trkpt lat="69.54918" lon="17.96047">
        <time>2020-07-16T11:34:59.858Z</time>
      </trkpt>
      <trkpt lat="69.57822" lon="17.98689">
        <time>2020-07-16T11:42:04.775Z</time>
      </trkpt>
      <trkpt lat="69.59826" lon="18.00156">
        <time>2020-07-16T11:46:53.329Z</time>
      </trkpt>
      <trkpt lat="69.60404" lon="18.00294">
        <time>2020-07-16T11:48:14.190Z</time>
      </trkpt>
      <trkpt lat="69.60487" lon="18.00362">
        <time>2020-07-16T11:48:26.229Z</time>
      </trkpt>
      <trkpt lat="69.60646" lon="18.00731">
        <time>2020-07-16T11:48:54.776Z</time>
      </trkpt>
      <trkpt lat="69.60788" lon="18.01212">
        <time>2020-07-16T11:49:25.352Z</time>
      </trkpt>
      <trkpt lat="69.60934" lon="18.02027">
        <time>2020-07-16T11:50:09.958Z</time>
      </trkpt>
      <trkpt lat="69.60975" lon="18.02419">
        <time>2020-07-16T11:50:29.844Z</time>
      </trkpt>
      <trkpt lat="69.60987" lon="18.02842">
        <time>2020-07-16T11:50:50.480Z</time>
      </trkpt>
      <trkpt lat="69.6097" lon="18.03214">
        <ele>0.012872</ele>
        <time>2020-07-16T11:51:08.708Z</time>
      </trkpt>
      <trkpt lat="69.60928" lon="18.03365">
        <ele>0.025245</ele>
        <time>2020-07-16T11:51:18.125Z</time>
      </trkpt>
      <trkpt lat="69.60873" lon="18.03368">
        <ele>0.054562</ele>
        <time>2020-07-16T11:51:25.685Z</time>
      </trkpt>
      <trkpt lat="69.60822" lon="18.03337">
        <ele>0.148857</ele>
        <time>2020-07-16T11:51:33.043Z</time>
      </trkpt>
      <trkpt lat="69.60785" lon="18.03287">
        <ele>0.220918</ele>
        <time>2020-07-16T11:51:38.664Z</time>
      </trkpt>
      <trkpt lat="69.60785" lon="18.03186">
        <ele>0.283841</ele>
        <time>2020-07-16T11:51:43.577Z</time>
      </trkpt>
      <trkpt lat="69.60785" lon="18.03138">
        <ele>0.313767</ele>
        <time>2020-07-16T11:51:46.765Z</time>
      </trkpt>
      <trkpt lat="69.60785" lon="18.03129">
        <ele>0.319295</ele>
        <time>2020-07-16T11:51:47.337Z</time>
      </trkpt>
      <trkpt lat="69.60783" lon="18.03111">
        <ele>0.330685</ele>
        <time>2020-07-16T11:51:48.488Z</time>
      </trkpt>
      <trkpt lat="69.6078" lon="18.03093">
        <ele>0.343495</ele>
        <time>2020-07-16T11:51:49.793Z</time>
      </trkpt>
      <trkpt lat="69.60777" lon="18.03077">
        <ele>0.355927</ele>
        <time>2020-07-16T11:51:51.055Z</time>
      </trkpt>
      <trkpt lat="69.60765" lon="18.0305">
        <ele>0.405366</ele>
        <time>2020-07-16T11:51:53.933Z</time>
      </trkpt>
      <trkpt lat="69.60743" lon="18.03048">
        <ele>0.477299</ele>
        <time>2020-07-16T11:51:58.002Z</time>
      </trkpt>
      <trkpt lat="69.60739" lon="18.03051">
        <ele>0.489324</ele>
        <time>2020-07-16T11:51:58.760Z</time>
      </trkpt>
      <trkpt lat="69.60731" lon="18.03056">
        <ele>0.515287</ele>
        <time>2020-07-16T11:52:00.249Z</time>
      </trkpt>
      <trkpt lat="69.60638" lon="18.03133">
        <ele>0.829836</ele>
        <time>2020-07-16T11:52:18.297Z</time>
      </trkpt>
      <trkpt lat="69.60619" lon="18.03139">
        <ele>0.89175</ele>
        <time>2020-07-16T11:52:21.830Z</time>
      </trkpt>
      <trkpt lat="69.60604" lon="18.03135">
        <ele>0.942459</ele>
        <time>2020-07-16T11:52:24.543Z</time>
      </trkpt>
      <trkpt lat="69.60567" lon="18.03115">
        <ele>1.1746</ele>
        <time>2020-07-16T11:52:32.213Z</time>
      </trkpt>
      <trkpt lat="69.6051" lon="18.03058">
        <ele>1.551119</ele>
        <time>2020-07-16T11:52:45.377Z</time>
      </trkpt>
      <trkpt lat="69.60482" lon="18.03048">
        <ele>1.721945</ele>
        <time>2020-07-16T11:52:50.477Z</time>
      </trkpt>
      <trkpt lat="69.60459" lon="18.03052">
        <ele>1.868151</ele>
        <time>2020-07-16T11:52:54.606Z</time>
      </trkpt>
      <trkpt lat="69.60445" lon="18.0306">
        <ele>1.956044</ele>
        <time>2020-07-16T11:52:57.717Z</time>
      </trkpt>
      <trkpt lat="69.6041" lon="18.03081">
        <ele>2.140869</ele>
        <time>2020-07-16T11:53:04.566Z</time>
      </trkpt>
      <trkpt lat="69.60403" lon="18.03092">
        <ele>2.172837</ele>
        <time>2020-07-16T11:53:06.504Z</time>
      </trkpt>
      <trkpt lat="69.60401" lon="18.031">
        <ele>2.189328</ele>
        <time>2020-07-16T11:53:06.970Z</time>
      </trkpt>
      <trkpt lat="69.6039" lon="18.03305">
        <ele>2.509319</ele>
        <time>2020-07-16T11:53:21.079Z</time>
      </trkpt>
      <trkpt lat="69.60388" lon="18.03348">
        <ele>2.575278</ele>
        <time>2020-07-16T11:53:23.657Z</time>
      </trkpt>
      <trkpt lat="69.60387" lon="18.03379">
        <ele>2.623655</ele>
        <time>2020-07-16T11:53:26.314Z</time>
      </trkpt>
      <trkpt lat="69.60356" lon="18.0396">
        <ele>3.604104</ele>
        <time>2020-07-16T11:54:04.983Z</time>
      </trkpt>
      <trkpt lat="69.60354" lon="18.03996">
        <ele>3.666032</ele>
        <time>2020-07-16T11:54:07.796Z</time>
      </trkpt>
      <trkpt lat="69.60352" lon="18.04022">
        <ele>3.711148</ele>
        <time>2020-07-16T11:54:09.638Z</time>
      </trkpt>
      <trkpt lat="69.6035" lon="18.04049">
        <ele>3.798169</ele>
        <time>2020-07-16T11:54:11.548Z</time>
      </trkpt>
      <trkpt lat="69.60346" lon="18.04102">
        <ele>4.006857</ele>
        <time>2020-07-16T11:54:15.687Z</time>
      </trkpt>
      <trkpt lat="69.60314" lon="18.04302">
        <ele>4.846422</ele>
        <time>2020-07-16T11:54:31.866Z</time>
      </trkpt>
      <trkpt lat="69.60308" lon="18.04328">
        <ele>4.967898</ele>
        <time>2020-07-16T11:54:34.131Z</time>
      </trkpt>
      <trkpt lat="69.60294" lon="18.04385">
        <ele>5.23376</ele>
        <time>2020-07-16T11:54:39.466Z</time>
      </trkpt>
      <trkpt lat="69.60255" lon="18.04502">
        <ele>5.969786</ele>
        <time>2020-07-16T11:54:51.574Z</time>
      </trkpt>
      <trkpt lat="69.60142" lon="18.04749">
        <ele>8.681867</ele>
        <time>2020-07-16T11:55:26.009Z</time>
      </trkpt>
      <trkpt lat="69.60139" lon="18.04755">
        <ele>8.745878</ele>
        <time>2020-07-16T11:55:27.314Z</time>
      </trkpt>
      <trkpt lat="69.60145" lon="18.04799">
        <ele>9.063254</ele>
        <time>2020-07-16T11:55:31.413Z</time>
      </trkpt>
      <trkpt lat="69.60153" lon="18.04838">
        <ele>9.20928</ele>
        <time>2020-07-16T11:55:35.237Z</time>
      </trkpt>
      <trkpt lat="69.60162" lon="18.04883">
        <ele>9.324923</ele>
        <time>2020-07-16T11:55:40.167Z</time>
      </trkpt>
      <trkpt lat="69.6021" lon="18.05061">
        <ele>9.830817</ele>
        <time>2020-07-16T11:55:57.080Z</time>
      </trkpt>
      <trkpt lat="69.60221" lon="18.0509">
        <ele>9.92942</ele>
        <time>2020-07-16T11:56:00.443Z</time>
      </trkpt>
      <trkpt lat="69.6023" lon="18.0511">
        <ele>10.000962</ele>
        <time>2020-07-16T11:56:02.064Z</time>
      </trkpt>
      <trkpt lat="69.60234" lon="18.0512">
        <ele>10.033362</ele>
        <time>2020-07-16T11:56:02.886Z</time>
      </trkpt>
      <trkpt lat="69.6024" lon="18.05136">
        <ele>10.088321</ele>
        <time>2020-07-16T11:56:04.227Z</time>
      </trkpt>
      <trkpt lat="69.60249" lon="18.05156">
        <ele>10.158555</ele>
        <time>2020-07-16T11:56:06.179Z</time>
      </trkpt>
      <trkpt lat="69.60255" lon="18.05168">
        <ele>10.20928</ele>
        <time>2020-07-16T11:56:07.265Z</time>
      </trkpt>
      <trkpt lat="69.60265" lon="18.0519">
        <ele>10.289169</ele>
        <time>2020-07-16T11:56:09.143Z</time>
      </trkpt>
      <trkpt lat="69.60276" lon="18.05213">
        <ele>10.034263</ele>
        <time>2020-07-16T11:56:11.623Z</time>
      </trkpt>
      <trkpt lat="69.60288" lon="18.05235">
        <ele>9.77182</ele>
        <time>2020-07-16T11:56:13.495Z</time>
      </trkpt>
      <trkpt lat="69.60323" lon="18.05307">
        <ele>8.970827</ele>
        <time>2020-07-16T11:56:19.718Z</time>
      </trkpt>
      <trkpt lat="69.60345" lon="18.05352">
        <ele>8.469235</ele>
        <time>2020-07-16T11:56:23.472Z</time>
      </trkpt>
      <trkpt lat="69.60375" lon="18.05412">
        <ele>7.783471</ele>
        <time>2020-07-16T11:56:28.445Z</time>
      </trkpt>
      <trkpt lat="69.60388" lon="18.0544">
        <ele>7.485062</ele>
        <time>2020-07-16T11:56:30.753Z</time>
      </trkpt>
      <trkpt lat="69.60402" lon="18.05471">
        <ele>7.159847</ele>
        <time>2020-07-16T11:56:33.078Z</time>
      </trkpt>
      <trkpt lat="69.60423" lon="18.05535">
        <ele>7.003369</ele>
        <time>2020-07-16T11:56:37.491Z</time>
      </trkpt>
      <trkpt lat="69.6045" lon="18.05618">
        <ele>7.126309</ele>
        <time>2020-07-16T11:56:43.577Z</time>
      </trkpt>
      <trkpt lat="69.60454" lon="18.0563">
        <ele>7.143045</ele>
        <time>2020-07-16T11:56:44.317Z</time>
      </trkpt>
      <trkpt lat="69.60467" lon="18.0567">
        <ele>7.203836</ele>
        <time>2020-07-16T11:56:48.446Z</time>
      </trkpt>
      <trkpt lat="69.6048" lon="18.05712">
        <ele>7.265105</ele>
        <time>2020-07-16T11:56:51.892Z</time>
      </trkpt>
      <trkpt lat="69.60503" lon="18.0578">
        <ele>7.367134</ele>
        <time>2020-07-16T11:56:59.337Z</time>
      </trkpt>
      <trkpt lat="69.60513" lon="18.05811">
        <ele>7.413141</ele>
        <time>2020-07-16T11:57:03.023Z</time>
      </trkpt>
      <trkpt lat="69.6053" lon="18.05866">
        <ele>7.494417</ele>
        <time>2020-07-16T11:57:08.597Z</time>
      </trkpt>
      <trkpt lat="69.60552" lon="18.05935">
        <ele>8.446117</ele>
        <time>2020-07-16T11:57:17.261Z</time>
      </trkpt>
      <trkpt lat="69.60563" lon="18.05967">
        <ele>8.933014</ele>
        <time>2020-07-16T11:57:21.430Z</time>
      </trkpt>
      <trkpt lat="69.60584" lon="18.06015">
        <ele>9.806821</ele>
        <time>2020-07-16T11:57:28.825Z</time>
      </trkpt>
      <trkpt lat="69.60595" lon="18.06032">
        <ele>10.216435</ele>
        <time>2020-07-16T11:57:32.251Z</time>
      </trkpt>
      <trkpt lat="69.6062" lon="18.06066">
        <ele>11.096101</ele>
        <time>2020-07-16T11:57:40.892Z</time>
      </trkpt>
      <trkpt lat="69.60661" lon="18.06125">
        <ele>12.563384</ele>
        <time>2020-07-16T11:57:54.105Z</time>
      </trkpt>
      <trkpt lat="69.60664" lon="18.06133">
        <ele>12.701235</ele>
        <time>2020-07-16T11:57:55.506Z</time>
      </trkpt>
      <trkpt lat="69.60673" lon="18.06152">
        <ele>13.050119</ele>
        <time>2020-07-16T11:57:59.232Z</time>
      </trkpt>
      <trkpt lat="69.60695" lon="18.06218">
        <ele>13.989535</ele>
        <time>2020-07-16T11:58:08.729Z</time>
      </trkpt>
      <trkpt lat="69.60713" lon="18.06298">
        <ele>14.922384</ele>
        <time>2020-07-16T11:58:17.752Z</time>
      </trkpt>
      <trkpt lat="69.60714" lon="18.06305">
        <ele>15.0009</ele>
        <time>2020-07-16T11:58:19.047Z</time>
      </trkpt>
      <trkpt lat="69.60718" lon="18.06329">
        <ele>15.25923</ele>
        <time>2020-07-16T11:58:21.768Z</time>
      </trkpt>
      <trkpt lat="69.6073" lon="18.06418">
        <ele>16.20416</ele>
        <time>2020-07-16T11:58:30.888Z</time>
      </trkpt>
      <trkpt lat="69.60748" lon="18.06673">
        <ele>18.477613</ele>
        <time>2020-07-16T11:58:53.324Z</time>
      </trkpt>
      <trkpt lat="69.60766" lon="18.0685">
        <ele>19.010977</ele>
        <time>2020-07-16T11:59:07.450Z</time>
      </trkpt>
      <trkpt lat="69.60794" lon="18.06978">
        <ele>19.445935</ele>
        <time>2020-07-16T11:59:17.709Z</time>
      </trkpt>
      <trkpt lat="69.60815" lon="18.07033">
        <ele>19.680033</ele>
        <time>2020-07-16T11:59:22.920Z</time>
      </trkpt>
      <trkpt lat="69.60823" lon="18.07049">
        <ele>19.760567</ele>
        <time>2020-07-16T11:59:24.783Z</time>
      </trkpt>
      <trkpt lat="69.60831" lon="18.07066">
        <ele>19.843119</ele>
        <time>2020-07-16T11:59:26.501Z</time>
      </trkpt>
      <trkpt lat="69.60977" lon="18.07348">
        <ele>19.345728</ele>
        <time>2020-07-16T11:59:55.975Z</time>
      </trkpt>
      <trkpt lat="69.60979" lon="18.07352">
        <ele>19.339503</ele>
        <time>2020-07-16T11:59:56.270Z</time>
      </trkpt>
      <trkpt lat="69.60978" lon="18.07357">
        <ele>19.33372</ele>
        <time>2020-07-16T11:59:56.544Z</time>
      </trkpt>
      <trkpt lat="69.60945" lon="18.07557">
        <ele>19.887792</ele>
        <time>2020-07-16T12:00:10.479Z</time>
      </trkpt>
      <trkpt lat="69.60934" lon="18.07665">
        <ele>20.170585</ele>
        <time>2020-07-16T12:00:18.255Z</time>
      </trkpt>
      <trkpt lat="69.60926" lon="18.07853">
        <ele>20.686694</ele>
        <time>2020-07-16T12:00:33.087Z</time>
      </trkpt>
      <trkpt lat="69.60929" lon="18.08012">
        <ele>22.371077</ele>
        <time>2020-07-16T12:00:47.128Z</time>
      </trkpt>
      <trkpt lat="69.60965" lon="18.0871">
        <ele>30.512777</ele>
        <time>2020-07-16T12:01:59.260Z</time>
      </trkpt>
      <trkpt lat="69.61053" lon="18.09353">
        <ele>38.365169</ele>
        <time>2020-07-16T12:03:09.965Z</time>
      </trkpt>
      <trkpt lat="69.61096" lon="18.09511">
        <ele>38.005841</ele>
        <time>2020-07-16T12:03:23.601Z</time>
      </trkpt>
      <trkpt lat="69.6114" lon="18.09602">
        <ele>37.728824</ele>
        <time>2020-07-16T12:03:31.826Z</time>
      </trkpt>
      <trkpt lat="69.61172" lon="18.09643">
        <ele>37.552984</ele>
        <time>2020-07-16T12:03:36.562Z</time>
      </trkpt>
      <trkpt lat="69.6138" lon="18.09817">
        <ele>32.45748</ele>
        <time>2020-07-16T12:04:05.672Z</time>
      </trkpt>
      <trkpt lat="69.61413" lon="18.0987">
        <ele>31.713661</ele>
        <time>2020-07-16T12:04:11.630Z</time>
      </trkpt>
      <trkpt lat="69.61497" lon="18.10046">
        <ele>29.693906</ele>
        <time>2020-07-16T12:04:26.252Z</time>
      </trkpt>
      <trkpt lat="69.61534" lon="18.10109">
        <ele>28.773041</ele>
        <time>2020-07-16T12:04:32.583Z</time>
      </trkpt>
      <trkpt lat="69.61544" lon="18.10122">
        <ele>28.528659</ele>
        <time>2020-07-16T12:04:34.755Z</time>
      </trkpt>
      <trkpt lat="69.61553" lon="18.10135">
        <ele>28.28633</ele>
        <time>2020-07-16T12:04:35.991Z</time>
      </trkpt>
      <trkpt lat="69.61682" lon="18.10254">
        <ele>25.240467</ele>
        <time>2020-07-16T12:04:54.648Z</time>
      </trkpt>
      <trkpt lat="69.61745" lon="18.10343">
        <ele>23.865271</ele>
        <time>2020-07-16T12:05:04.278Z</time>
      </trkpt>
      <trkpt lat="69.61784" lon="18.1042">
        <ele>22.939773</ele>
        <time>2020-07-16T12:05:11.130Z</time>
      </trkpt>
      <trkpt lat="69.6182" lon="18.1051">
        <ele>22.008715</ele>
        <time>2020-07-16T12:05:18.052Z</time>
      </trkpt>
      <trkpt lat="69.61866" lon="18.10666">
        <ele>21.001009</ele>
        <time>2020-07-16T12:05:28.398Z</time>
      </trkpt>
      <trkpt lat="69.61932" lon="18.10999">
        <ele>19.586252</ele>
        <time>2020-07-16T12:05:48.170Z</time>
      </trkpt>
      <trkpt lat="69.62018" lon="18.11323">
        <ele>21.479011</ele>
        <time>2020-07-16T12:06:18.700Z</time>
      </trkpt>
      <trkpt lat="69.62058" lon="18.1153">
        <ele>24.699662</ele>
        <time>2020-07-16T12:06:43.921Z</time>
      </trkpt>
      <trkpt lat="69.62086" lon="18.11755">
        <ele>28.976481</ele>
        <time>2020-07-16T12:07:14.229Z</time>
      </trkpt>
      <trkpt lat="69.62123" lon="18.12133">
        <ele>36.228006</ele>
        <time>2020-07-16T12:08:05.736Z</time>
      </trkpt>
      <trkpt lat="69.6221" lon="18.12808">
        <ele>47.221385</ele>
        <time>2020-07-16T12:09:26.324Z</time>
      </trkpt>
      <trkpt lat="69.6224" lon="18.12985">
        <ele>47.128833</ele>
        <time>2020-07-16T12:09:41.014Z</time>
      </trkpt>
      <trkpt lat="69.62265" lon="18.13083">
        <ele>46.697971</ele>
        <time>2020-07-16T12:09:47.797Z</time>
      </trkpt>
      <trkpt lat="69.62294" lon="18.13171">
        <ele>46.265467</ele>
        <time>2020-07-16T12:09:53.731Z</time>
      </trkpt>
      <trkpt lat="69.62389" lon="18.13395">
        <ele>42.299812</ele>
        <time>2020-07-16T12:10:08.923Z</time>
      </trkpt>
      <trkpt lat="69.62439" lon="18.13595">
        <ele>38.633466</ele>
        <time>2020-07-16T12:10:19.417Z</time>
      </trkpt>
      <trkpt lat="69.62487" lon="18.1374">
        <ele>37.160006</ele>
        <time>2020-07-16T12:10:28.625Z</time>
      </trkpt>
      <trkpt lat="69.62511" lon="18.13861">
        <ele>36.320838</ele>
        <time>2020-07-16T12:10:35.688Z</time>
      </trkpt>
      <trkpt lat="69.62551" lon="18.1413">
        <ele>34.861832</ele>
        <time>2020-07-16T12:10:52.801Z</time>
      </trkpt>
      <trkpt lat="69.62586" lon="18.14274">
        <ele>34.435303</ele>
        <time>2020-07-16T12:11:03.671Z</time>
      </trkpt>
      <trkpt lat="69.62624" lon="18.14386">
        <ele>34.054006</ele>
        <time>2020-07-16T12:11:12.370Z</time>
      </trkpt>
      <trkpt lat="69.62822" lon="18.14896">
        <ele>32.176816</ele>
        <time>2020-07-16T12:11:51.396Z</time>
      </trkpt>
      <trkpt lat="69.6286" lon="18.15013">
        <ele>33.234642</ele>
        <time>2020-07-16T12:12:02.898Z</time>
      </trkpt>
      <trkpt lat="69.6292" lon="18.15262">
        <ele>38.766845</ele>
        <time>2020-07-16T12:12:34.246Z</time>
      </trkpt>
      <trkpt lat="69.62962" lon="18.15533">
        <ele>51.976299</ele>
        <time>2020-07-16T12:13:44.370Z</time>
      </trkpt>
      <trkpt lat="69.62964" lon="18.1555">
        <ele>52.78547</ele>
        <time>2020-07-16T12:13:49.379Z</time>
      </trkpt>
      <trkpt lat="69.62968" lon="18.15585">
        <ele>54.437706</ele>
        <time>2020-07-16T12:13:59.460Z</time>
      </trkpt>
      <trkpt lat="69.62972" lon="18.15638">
        <ele>56.89363</ele>
        <time>2020-07-16T12:14:11.194Z</time>
      </trkpt>
      <trkpt lat="69.62974" lon="18.15685">
        <ele>58.302085</ele>
        <time>2020-07-16T12:14:23.444Z</time>
      </trkpt>
      <trkpt lat="69.62977" lon="18.15748">
        <ele>59.649936</ele>
        <time>2020-07-16T12:14:36.922Z</time>
      </trkpt>
      <trkpt lat="69.62977" lon="18.15859">
        <ele>61.982898</ele>
        <time>2020-07-16T12:15:00.231Z</time>
      </trkpt>
      <trkpt lat="69.6297" lon="18.15989">
        <ele>64.750985</ele>
        <time>2020-07-16T12:15:26.042Z</time>
      </trkpt>
      <trkpt lat="69.62891" lon="18.16829">
        <ele>48.662653</ele>
        <time>2020-07-16T12:16:02.709Z</time>
      </trkpt>
      <trkpt lat="69.62887" lon="18.17222">
        <ele>31.468804</ele>
        <time>2020-07-16T12:16:17.549Z</time>
      </trkpt>
      <trkpt lat="69.62887" lon="18.17235">
        <ele>31.011055</ele>
        <time>2020-07-16T12:16:18.041Z</time>
      </trkpt>
      <trkpt lat="69.62886" lon="18.17289">
        <ele>29.052851</ele>
        <time>2020-07-16T12:16:20.070Z</time>
      </trkpt>
      <trkpt lat="69.62884" lon="18.17324">
        <ele>27.753002</ele>
        <time>2020-07-16T12:16:21.484Z</time>
      </trkpt>
      <trkpt lat="69.62882" lon="18.17346">
        <ele>26.918351</ele>
        <time>2020-07-16T12:16:22.307Z</time>
      </trkpt>
      <trkpt lat="69.62878" lon="18.17375">
        <ele>25.829686</ele>
        <time>2020-07-16T12:16:23.463Z</time>
      </trkpt>
      <trkpt lat="69.62859" lon="18.1746">
        <ele>22.119703</ele>
        <time>2020-07-16T12:16:27.310Z</time>
      </trkpt>
      <trkpt lat="69.62835" lon="18.17543">
        <ele>18.221279</ele>
        <time>2020-07-16T12:16:31.498Z</time>
      </trkpt>
      <trkpt lat="69.62828" lon="18.17567">
        <ele>17.082452</ele>
        <time>2020-07-16T12:16:33.280Z</time>
      </trkpt>
      <trkpt lat="69.62818" lon="18.17601">
        <ele>15.467895</ele>
        <time>2020-07-16T12:16:34.922Z</time>
      </trkpt>
      <trkpt lat="69.62803" lon="18.17645">
        <ele>14.511111</ele>
        <time>2020-07-16T12:16:38.663Z</time>
      </trkpt>
      <trkpt lat="69.6279" lon="18.17683">
        <ele>14.532693</ele>
        <time>2020-07-16T12:16:41.364Z</time>
      </trkpt>
      <trkpt lat="69.62775" lon="18.17721">
        <ele>14.554889</ele>
        <time>2020-07-16T12:16:45.798Z</time>
      </trkpt>
      <trkpt lat="69.62763" lon="18.17754">
        <ele>14.574415</ele>
        <time>2020-07-16T12:16:49.148Z</time>
      </trkpt>
      <trkpt lat="69.62695" lon="18.17994">
        <ele>14.696782</ele>
        <time>2020-07-16T12:17:13.837Z</time>
      </trkpt>
      <trkpt lat="69.62609" lon="18.18225">
        <ele>15.711708</ele>
        <time>2020-07-16T12:17:39.591Z</time>
      </trkpt>
      <trkpt lat="69.6252" lon="18.18533">
        <ele>15.516588</ele>
        <time>2020-07-16T12:18:05.531Z</time>
      </trkpt>
      <trkpt lat="69.62436" lon="18.18741">
        <ele>14.197481</ele>
        <time>2020-07-16T12:18:21.794Z</time>
      </trkpt>
      <trkpt lat="69.62411" lon="18.18828">
        <ele>12.810909</ele>
        <time>2020-07-16T12:18:26.792Z</time>
      </trkpt>
      <trkpt lat="69.62356" lon="18.19093">
        <ele>8.997657</ele>
        <time>2020-07-16T12:18:40.358Z</time>
      </trkpt>
      <trkpt lat="69.6235" lon="18.19119">
        <ele>8.604274</ele>
        <time>2020-07-16T12:18:41.639Z</time>
      </trkpt>
      <trkpt lat="69.62343" lon="18.19152">
        <ele>8.147174</ele>
        <time>2020-07-16T12:18:43.427Z</time>
      </trkpt>
      <trkpt lat="69.62334" lon="18.19211">
        <ele>7.600697</ele>
        <time>2020-07-16T12:18:46.250Z</time>
      </trkpt>
      <trkpt lat="69.6233" lon="18.19236">
        <ele>7.409615</ele>
        <time>2020-07-16T12:18:47.590Z</time>
      </trkpt>
      <trkpt lat="69.62324" lon="18.1929">
        <ele>7.002346</ele>
        <time>2020-07-16T12:18:50.278Z</time>
      </trkpt>
      <trkpt lat="69.62316" lon="18.19365">
        <ele>6.446081</ele>
        <time>2020-07-16T12:18:54.066Z</time>
      </trkpt>
      <trkpt lat="69.62312" lon="18.19401">
        <ele>6.17885</ele>
        <time>2020-07-16T12:18:55.709Z</time>
      </trkpt>
      <trkpt lat="69.62297" lon="18.19548">
        <ele>5.098643</ele>
        <time>2020-07-16T12:19:03.450Z</time>
      </trkpt>
      <trkpt lat="69.62294" lon="18.19578">
        <ele>4.87264</ele>
        <time>2020-07-16T12:19:05.268Z</time>
      </trkpt>
      <trkpt lat="69.62285" lon="18.1967">
        <ele>4.296773</ele>
        <time>2020-07-16T12:19:11.065Z</time>
      </trkpt>
      <trkpt lat="69.6228" lon="18.19722">
        <ele>4.348732</ele>
        <time>2020-07-16T12:19:14.426Z</time>
      </trkpt>
      <trkpt lat="69.62277" lon="18.19748">
        <ele>4.373671</ele>
        <time>2020-07-16T12:19:16.142Z</time>
      </trkpt>
      <trkpt lat="69.62267" lon="18.19852">
        <ele>4.477162</ele>
        <time>2020-07-16T12:19:23.017Z</time>
      </trkpt>
      <trkpt lat="69.6225" lon="18.19987">
        <ele>4.614378</ele>
        <time>2020-07-16T12:19:32.386Z</time>
      </trkpt>
      <trkpt lat="69.62226" lon="18.20101">
        <ele>4.742056</ele>
        <time>2020-07-16T12:19:41.243Z</time>
      </trkpt>
      <trkpt lat="69.62199" lon="18.20174">
        <ele>5.075184</ele>
        <time>2020-07-16T12:19:49.021Z</time>
      </trkpt>
      <trkpt lat="69.62134" lon="18.20303">
        <ele>6.082668</ele>
        <time>2020-07-16T12:20:06.561Z</time>
      </trkpt>
      <trkpt lat="69.62111" lon="18.20353">
        <ele>6.444846</ele>
        <time>2020-07-16T12:20:13.313Z</time>
      </trkpt>
      <trkpt lat="69.62089" lon="18.20397">
        <ele>6.789218</ele>
        <time>2020-07-16T12:20:19.569Z</time>
      </trkpt>
      <trkpt lat="69.62051" lon="18.2052">
        <ele>7.370402</ele>
        <time>2020-07-16T12:20:32.203Z</time>
      </trkpt>
      <trkpt lat="69.62025" lon="18.20666">
        <ele>7.867499</ele>
        <time>2020-07-16T12:20:43.957Z</time>
      </trkpt>
      <trkpt lat="69.62025" lon="18.2067">
        <ele>7.880441</ele>
        <time>2020-07-16T12:20:44.576Z</time>
      </trkpt>
      <trkpt lat="69.62017" lon="18.20753">
        <ele>8.140283</ele>
        <time>2020-07-16T12:20:50.702Z</time>
      </trkpt>
      <trkpt lat="69.62014" lon="18.208">
        <ele>8.28628</ele>
        <time>2020-07-16T12:20:54.308Z</time>
      </trkpt>
      <trkpt lat="69.62013" lon="18.20824">
        <ele>8.359977</ele>
        <time>2020-07-16T12:20:55.845Z</time>
      </trkpt>
      <trkpt lat="69.62011" lon="18.20839">
        <ele>8.407761</ele>
        <time>2020-07-16T12:20:56.594Z</time>
      </trkpt>
      <trkpt lat="69.62011" lon="18.20911">
        <ele>8.624399</ele>
        <time>2020-07-16T12:21:01.653Z</time>
      </trkpt>
      <trkpt lat="69.62017" lon="18.2101">
        <ele>8.583185</ele>
        <time>2020-07-16T12:21:08.052Z</time>
      </trkpt>
      <trkpt lat="69.62033" lon="18.21201">
        <ele>8.502551</ele>
        <time>2020-07-16T12:21:19.572Z</time>
      </trkpt>
      <trkpt lat="69.62049" lon="18.21333">
        <ele>8.445115</ele>
        <time>2020-07-16T12:21:27.495Z</time>
      </trkpt>
      <trkpt lat="69.62052" lon="18.21356">
        <ele>8.43474</ele>
        <time>2020-07-16T12:21:29.506Z</time>
      </trkpt>
      <trkpt lat="69.62058" lon="18.21398">
        <ele>8.416167</ele>
        <time>2020-07-16T12:21:31.916Z</time>
      </trkpt>
      <trkpt lat="69.62084" lon="18.21524">
        <ele>9.032547</ele>
        <time>2020-07-16T12:21:41.313Z</time>
      </trkpt>
      <trkpt lat="69.62171" lon="18.21778">
        <ele>10.640151</ele>
        <time>2020-07-16T12:22:08.162Z</time>
      </trkpt>
      <trkpt lat="69.62175" lon="18.2179">
        <ele>10.712829</ele>
        <time>2020-07-16T12:22:09.232Z</time>
      </trkpt>
      <trkpt lat="69.62186" lon="18.21827">
        <ele>11.41619</ele>
        <time>2020-07-16T12:22:15.734Z</time>
      </trkpt>
      <trkpt lat="69.62243" lon="18.21978">
        <ele>14.831525</ele>
        <time>2020-07-16T12:22:40.399Z</time>
      </trkpt>
      <trkpt lat="69.62245" lon="18.21983">
        <ele>14.965984</ele>
        <time>2020-07-16T12:22:41.965Z</time>
      </trkpt>
      <trkpt lat="69.6226" lon="18.22011">
        <ele>15.76463</ele>
        <time>2020-07-16T12:22:46.887Z</time>
      </trkpt>
      <trkpt lat="69.6228" lon="18.22039">
        <ele>16.715878</ele>
        <time>2020-07-16T12:22:55.635Z</time>
      </trkpt>
      <trkpt lat="69.62297" lon="18.2206">
        <ele>17.53486</ele>
        <time>2020-07-16T12:23:01.187Z</time>
      </trkpt>
      <trkpt lat="69.623" lon="18.22064">
        <ele>17.701709</ele>
        <time>2020-07-16T12:23:04.423Z</time>
      </trkpt>
      <trkpt lat="69.62449" lon="18.22245">
        <ele>22.84839</ele>
        <time>2020-07-16T12:23:54.113Z</time>
      </trkpt>
      <trkpt lat="69.6248" lon="18.22304">
        <ele>23.95855</ele>
        <time>2020-07-16T12:24:00.640Z</time>
      </trkpt>
      <trkpt lat="69.62502" lon="18.22379">
        <ele>23.503967</ele>
        <time>2020-07-16T12:24:06.235Z</time>
      </trkpt>
      <trkpt lat="69.62509" lon="18.22412">
        <ele>23.249093</ele>
        <time>2020-07-16T12:24:08.019Z</time>
      </trkpt>
      <trkpt lat="69.62511" lon="18.22426">
        <ele>23.150487</ele>
        <time>2020-07-16T12:24:08.690Z</time>
      </trkpt>
      <trkpt lat="69.62517" lon="18.22487">
        <ele>22.736984</ele>
        <time>2020-07-16T12:24:12.284Z</time>
      </trkpt>
      <trkpt lat="69.62518" lon="18.22594">
        <ele>22.032545</ele>
        <time>2020-07-16T12:24:17.440Z</time>
      </trkpt>
      <trkpt lat="69.62509" lon="18.22682">
        <ele>21.429912</ele>
        <time>2020-07-16T12:24:21.746Z</time>
      </trkpt>
      <trkpt lat="69.62492" lon="18.22766">
        <ele>20.783943</ele>
        <time>2020-07-16T12:24:26.203Z</time>
      </trkpt>
      <trkpt lat="69.62488" lon="18.22782">
        <ele>20.641406</ele>
        <time>2020-07-16T12:24:27.034Z</time>
      </trkpt>
      <trkpt lat="69.62483" lon="18.22796">
        <ele>20.453209</ele>
        <time>2020-07-16T12:24:27.860Z</time>
      </trkpt>
      <trkpt lat="69.62452" lon="18.22875">
        <ele>19.292782</ele>
        <time>2020-07-16T12:24:33.456Z</time>
      </trkpt>
      <trkpt lat="69.62444" lon="18.22893">
        <ele>19.004585</ele>
        <time>2020-07-16T12:24:34.892Z</time>
      </trkpt>
      <trkpt lat="69.6244" lon="18.22901">
        <ele>18.878114</ele>
        <time>2020-07-16T12:24:35.530Z</time>
      </trkpt>
      <trkpt lat="69.62423" lon="18.22945">
        <ele>18.238334</ele>
        <time>2020-07-16T12:24:38.607Z</time>
      </trkpt>
      <trkpt lat="69.62372" lon="18.23096">
        <ele>16.184425</ele>
        <time>2020-07-16T12:24:48.466Z</time>
      </trkpt>
      <trkpt lat="69.62309" lon="18.23379">
        <ele>13.500122</ele>
        <time>2020-07-16T12:25:04.214Z</time>
      </trkpt>
      <trkpt lat="69.62229" lon="18.23593">
        <ele>11.697638</ele>
        <time>2020-07-16T12:25:20.045Z</time>
      </trkpt>
      <trkpt lat="69.62218" lon="18.23613">
        <ele>11.696147</ele>
        <time>2020-07-16T12:25:21.894Z</time>
      </trkpt>
      <trkpt lat="69.62211" lon="18.23632">
        <ele>11.694984</ele>
        <time>2020-07-16T12:25:23.925Z</time>
      </trkpt>
      <trkpt lat="69.62126" lon="18.23851">
        <ele>11.681807</ele>
        <time>2020-07-16T12:25:45.445Z</time>
      </trkpt>
      <trkpt lat="69.62071" lon="18.24129">
        <ele>13.053704</ele>
        <time>2020-07-16T12:26:10.002Z</time>
      </trkpt>
      <trkpt lat="69.62049" lon="18.24195">
        <ele>13.520533</ele>
        <time>2020-07-16T12:26:17.082Z</time>
      </trkpt>
      <trkpt lat="69.61953" lon="18.24324">
        <ele>15.638287</ele>
        <time>2020-07-16T12:26:42.499Z</time>
      </trkpt>
      <trkpt lat="69.61906" lon="18.24407">
        <ele>17.043705</ele>
        <time>2020-07-16T12:26:56.371Z</time>
      </trkpt>
      <trkpt lat="69.61895" lon="18.24433">
        <ele>17.417469</ele>
        <time>2020-07-16T12:27:00.196Z</time>
      </trkpt>
      <trkpt lat="69.61891" lon="18.24442">
        <ele>17.534369</ele>
        <time>2020-07-16T12:27:01.839Z</time>
      </trkpt>
      <trkpt lat="69.61878" lon="18.24483">
        <ele>18.030711</ele>
        <time>2020-07-16T12:27:06.773Z</time>
      </trkpt>
      <trkpt lat="69.61853" lon="18.24609">
        <ele>19.487404</ele>
        <time>2020-07-16T12:27:21.511Z</time>
      </trkpt>
      <trkpt lat="69.61842" lon="18.24738">
        <ele>21.074835</ele>
        <time>2020-07-16T12:27:35.263Z</time>
      </trkpt>
      <trkpt lat="69.6184" lon="18.24925">
        <ele>23.324257</ele>
        <time>2020-07-16T12:27:55.226Z</time>
      </trkpt>
      <trkpt lat="69.61845" lon="18.25438">
        <ele>27.001002</ele>
        <time>2020-07-16T12:28:43.109Z</time>
      </trkpt>
      <trkpt lat="69.61841" lon="18.25658">
        <ele>26.695929</ele>
        <time>2020-07-16T12:28:55.258Z</time>
      </trkpt>
      <trkpt lat="69.61814" lon="18.25875">
        <ele>23.161221</ele>
        <time>2020-07-16T12:29:05.492Z</time>
      </trkpt>
      <trkpt lat="69.61806" lon="18.26107">
        <ele>19.4925</ele>
        <time>2020-07-16T12:29:14.908Z</time>
      </trkpt>
      <trkpt lat="69.61792" lon="18.2626">
        <ele>16.267518</ele>
        <time>2020-07-16T12:29:21.192Z</time>
      </trkpt>
      <trkpt lat="69.61772" lon="18.26361">
        <ele>13.906101</ele>
        <time>2020-07-16T12:29:25.848Z</time>
      </trkpt>
      <trkpt lat="69.61754" lon="18.2639">
        <ele>12.716167</ele>
        <time>2020-07-16T12:29:28.281Z</time>
      </trkpt>
      <trkpt lat="69.6174" lon="18.26408">
        <ele>11.788432</ele>
        <time>2020-07-16T12:29:30.106Z</time>
      </trkpt>
      <trkpt lat="69.61724" lon="18.26422">
        <ele>10.853522</ele>
        <time>2020-07-16T12:29:32.055Z</time>
      </trkpt>
      <trkpt lat="69.6151" lon="18.2657">
        <ele>4.245127</ele>
        <time>2020-07-16T12:30:01.454Z</time>
      </trkpt>
      <trkpt lat="69.61304" lon="18.26563">
        <ele>3.855894</ele>
        <time>2020-07-16T12:30:38.778Z</time>
      </trkpt>
      <trkpt lat="69.61237" lon="18.26573">
        <ele>4.268027</ele>
        <time>2020-07-16T12:30:52.304Z</time>
      </trkpt>
      <trkpt lat="69.61004" lon="18.26668">
        <ele>6.191281</ele>
        <time>2020-07-16T12:31:40.883Z</time>
      </trkpt>
      <trkpt lat="69.6092" lon="18.26723">
        <ele>7.2132</ele>
        <time>2020-07-16T12:31:59.548Z</time>
      </trkpt>
      <trkpt lat="69.6087" lon="18.26769">
        <ele>7.865905</ele>
        <time>2020-07-16T12:32:11.190Z</time>
      </trkpt>
      <trkpt lat="69.60829" lon="18.26845">
        <ele>8.473729</ele>
        <time>2020-07-16T12:32:21.950Z</time>
      </trkpt>
      <trkpt lat="69.6081" lon="18.26895">
        <ele>8.745012</ele>
        <time>2020-07-16T12:32:27.522Z</time>
      </trkpt>
      <trkpt lat="69.60783" lon="18.27014">
        <ele>9.225659</ele>
        <time>2020-07-16T12:32:38.216Z</time>
      </trkpt>
      <trkpt lat="69.60739" lon="18.27487">
        <ele>10.64548</ele>
        <time>2020-07-16T12:33:13.329Z</time>
      </trkpt>
      <trkpt lat="69.60733" lon="18.27605">
        <ele>10.884378</ele>
        <time>2020-07-16T12:33:21.407Z</time>
      </trkpt>
      <trkpt lat="69.60717" lon="18.27684">
        <ele>11.065706</ele>
        <time>2020-07-16T12:33:27.549Z</time>
      </trkpt>
      <trkpt lat="69.60692" lon="18.27733">
        <ele>11.237666</ele>
        <time>2020-07-16T12:33:33.375Z</time>
      </trkpt>
      <trkpt lat="69.60636" lon="18.27797">
        <ele>11.21296</ele>
        <time>2020-07-16T12:33:44.903Z</time>
      </trkpt>
      <trkpt lat="69.60528" lon="18.28094">
        <ele>10.586071</ele>
        <time>2020-07-16T12:34:10.027Z</time>
      </trkpt>
      <trkpt lat="69.60319" lon="18.28431">
        <ele>6.205052</ele>
        <time>2020-07-16T12:34:44.014Z</time>
      </trkpt>
      <trkpt lat="69.60312" lon="18.28443">
        <ele>6.021431</ele>
        <time>2020-07-16T12:34:45.152Z</time>
      </trkpt>
      <trkpt lat="69.60299" lon="18.28464">
        <ele>5.714069</ele>
        <time>2020-07-16T12:34:47.252Z</time>
      </trkpt>
      <trkpt lat="69.60237" lon="18.28567">
        <ele>4.235042</ele>
        <time>2020-07-16T12:34:57.099Z</time>
      </trkpt>
      <trkpt lat="69.60232" lon="18.28574">
        <ele>4.119552</ele>
        <time>2020-07-16T12:34:57.859Z</time>
      </trkpt>
      <trkpt lat="69.60217" lon="18.28598">
        <ele>3.862633</ele>
        <time>2020-07-16T12:35:00.309Z</time>
      </trkpt>
      <trkpt lat="69.60182" lon="18.28641">
        <ele>3.558486</ele>
        <time>2020-07-16T12:35:05.794Z</time>
      </trkpt>
      <trkpt lat="69.60159" lon="18.28651">
        <ele>3.372828</ele>
        <time>2020-07-16T12:35:09.378Z</time>
      </trkpt>
      <trkpt lat="69.60079" lon="18.28634">
        <ele>2.723381</ele>
        <time>2020-07-16T12:35:22.706Z</time>
      </trkpt>
      <trkpt lat="69.60051" lon="18.2863">
        <ele>2.495067</ele>
        <time>2020-07-16T12:35:27.916Z</time>
      </trkpt>
      <trkpt lat="69.60023" lon="18.28627">
        <ele>2.448249</ele>
        <time>2020-07-16T12:35:33.326Z</time>
      </trkpt>
      <trkpt lat="69.59944" lon="18.28612">
        <ele>2.351781</ele>
        <time>2020-07-16T12:35:47.319Z</time>
      </trkpt>
      <trkpt lat="69.59916" lon="18.28609">
        <ele>2.317683</ele>
        <time>2020-07-16T12:35:52.564Z</time>
      </trkpt>
      <trkpt lat="69.59903" lon="18.28608">
        <ele>2.301488</ele>
        <time>2020-07-16T12:35:54.638Z</time>
      </trkpt>
      <trkpt lat="69.5985" lon="18.28606">
        <ele>2.128819</ele>
        <time>2020-07-16T12:36:03.647Z</time>
      </trkpt>
      <trkpt lat="69.59798" lon="18.28639">
        <ele>1.777324</ele>
        <time>2020-07-16T12:36:11.934Z</time>
      </trkpt>
      <trkpt lat="69.59773" lon="18.28642">
        <ele>1.612187</ele>
        <time>2020-07-16T12:36:16.005Z</time>
      </trkpt>
      <trkpt lat="69.59685" lon="18.28527">
        <ele>1.005214</ele>
        <time>2020-07-16T12:36:31.357Z</time>
      </trkpt>
      <trkpt lat="69.59614" lon="18.28505">
        <ele>0.727087</ele>
        <time>2020-07-16T12:36:43.141Z</time>
      </trkpt>
      <trkpt lat="69.59588" lon="18.28505">
        <ele>0.62645</ele>
        <time>2020-07-16T12:36:47.520Z</time>
      </trkpt>
      <trkpt lat="69.5958" lon="18.28504">
        <ele>0.594825</ele>
        <time>2020-07-16T12:36:48.894Z</time>
      </trkpt>
      <trkpt lat="69.59566" lon="18.28503">
        <ele>0.539771</ele>
        <time>2020-07-16T12:36:51.299Z</time>
      </trkpt>
      <trkpt lat="69.59449" lon="18.28438">
        <ele>0.438927</ele>
        <time>2020-07-16T12:37:12.354Z</time>
      </trkpt>
      <trkpt lat="69.59442" lon="18.28434">
        <ele>0.446626</ele>
        <time>2020-07-16T12:37:13.710Z</time>
      </trkpt>
      <trkpt lat="69.59429" lon="18.28428">
        <ele>0.460333</ele>
        <time>2020-07-16T12:37:16.075Z</time>
      </trkpt>
      <trkpt lat="69.59399" lon="18.28415">
        <ele>0.491095</ele>
        <time>2020-07-16T12:37:21.506Z</time>
      </trkpt>
      <trkpt lat="69.59258" lon="18.28288">
        <ele>0.815064</ele>
        <time>2020-07-16T12:37:49.333Z</time>
      </trkpt>
      <trkpt lat="69.59237" lon="18.28277">
        <ele>0.874846</ele>
        <time>2020-07-16T12:37:53.295Z</time>
      </trkpt>
      <trkpt lat="69.59232" lon="18.28274">
        <ele>0.890988</ele>
        <time>2020-07-16T12:37:54.307Z</time>
      </trkpt>
      <trkpt lat="69.59122" lon="18.28204">
        <ele>1.248347</ele>
        <time>2020-07-16T12:38:15.358Z</time>
      </trkpt>
      <trkpt lat="69.59023" lon="18.28104">
        <ele>1.617589</ele>
        <time>2020-07-16T12:38:35.225Z</time>
      </trkpt>
      <trkpt lat="69.58987" lon="18.28068">
        <ele>1.7788</ele>
        <time>2020-07-16T12:38:42.541Z</time>
      </trkpt>
      <trkpt lat="69.58974" lon="18.28056">
        <ele>1.852421</ele>
        <time>2020-07-16T12:38:45.143Z</time>
      </trkpt>
      <trkpt lat="69.58902" lon="18.28001">
        <ele>2.256415</ele>
        <time>2020-07-16T12:38:59.929Z</time>
      </trkpt>
      <trkpt lat="69.58894" lon="18.27997">
        <ele>2.299547</ele>
        <time>2020-07-16T12:39:01.656Z</time>
      </trkpt>
      <trkpt lat="69.58875" lon="18.27985">
        <ele>2.404616</ele>
        <time>2020-07-16T12:39:05.438Z</time>
      </trkpt>
      <trkpt lat="69.58847" lon="18.27968">
        <ele>2.559206</ele>
        <time>2020-07-16T12:39:11.174Z</time>
      </trkpt>
      <trkpt lat="69.58843" lon="18.27966">
        <ele>2.583047</ele>
        <time>2020-07-16T12:39:11.996Z</time>
      </trkpt>
      <trkpt lat="69.58817" lon="18.27949">
        <ele>2.682583</ele>
        <time>2020-07-16T12:39:17.207Z</time>
      </trkpt>
      <trkpt lat="69.58788" lon="18.27929">
        <ele>2.708463</ele>
        <time>2020-07-16T12:39:23.051Z</time>
      </trkpt>
      <trkpt lat="69.58776" lon="18.27921">
        <ele>2.719032</ele>
        <time>2020-07-16T12:39:25.390Z</time>
      </trkpt>
      <trkpt lat="69.58757" lon="18.2791">
        <ele>2.735524</ele>
        <time>2020-07-16T12:39:29.084Z</time>
      </trkpt>
      <trkpt lat="69.58511" lon="18.27752">
        <ele>2.742829</ele>
        <time>2020-07-16T12:40:12.623Z</time>
      </trkpt>
      <trkpt lat="69.58507" lon="18.27748">
        <ele>2.740222</ele>
        <time>2020-07-16T12:40:13.318Z</time>
      </trkpt>
      <trkpt lat="69.58486" lon="18.27731">
        <ele>2.727142</ele>
        <time>2020-07-16T12:40:17.538Z</time>
      </trkpt>
      <trkpt lat="69.58462" lon="18.27707">
        <ele>2.837715</ele>
        <time>2020-07-16T12:40:22.151Z</time>
      </trkpt>
      <trkpt lat="69.58451" lon="18.27693">
        <ele>2.933148</ele>
        <time>2020-07-16T12:40:24.579Z</time>
      </trkpt>
      <trkpt lat="69.58418" lon="18.27654">
        <ele>3.204758</ele>
        <time>2020-07-16T12:40:31.389Z</time>
      </trkpt>
      <trkpt lat="69.58374" lon="18.276">
        <ele>3.581303</ele>
        <time>2020-07-16T12:40:41.212Z</time>
      </trkpt>
      <trkpt lat="69.58371" lon="18.27596">
        <ele>3.606701</ele>
        <time>2020-07-16T12:40:41.980Z</time>
      </trkpt>
      <trkpt lat="69.58352" lon="18.27573">
        <ele>3.766941</ele>
        <time>2020-07-16T12:40:46.285Z</time>
      </trkpt>
      <trkpt lat="69.58321" lon="18.27539">
        <ele>4.024115</ele>
        <time>2020-07-16T12:40:53.473Z</time>
      </trkpt>
      <trkpt lat="69.58273" lon="18.2752">
        <ele>4.775927</ele>
        <time>2020-07-16T12:41:03.998Z</time>
      </trkpt>
      <trkpt lat="69.58263" lon="18.27524">
        <ele>4.954213</ele>
        <time>2020-07-16T12:41:06.622Z</time>
      </trkpt>
      <trkpt lat="69.58253" lon="18.27529">
        <ele>5.132438</ele>
        <time>2020-07-16T12:41:08.642Z</time>
      </trkpt>
      <trkpt lat="69.58193" lon="18.27606">
        <ele>6.331159</ele>
        <time>2020-07-16T12:41:24.608Z</time>
      </trkpt>
      <trkpt lat="69.58154" lon="18.27682">
        <ele>7.183674</ele>
        <time>2020-07-16T12:41:35.999Z</time>
      </trkpt>
      <trkpt lat="69.5814" lon="18.27754">
        <ele>7.661802</ele>
        <time>2020-07-16T12:41:43.368Z</time>
      </trkpt>
      <trkpt lat="69.58145" lon="18.27835">
        <ele>8.125285</ele>
        <time>2020-07-16T12:41:50.227Z</time>
      </trkpt>
      <trkpt lat="69.58147" lon="18.27855">
        <ele>8.248755</ele>
        <time>2020-07-16T12:41:52.307Z</time>
      </trkpt>
      <trkpt lat="69.58152" lon="18.27878">
        <ele>8.402809</ele>
        <time>2020-07-16T12:41:54.643Z</time>
      </trkpt>
      <trkpt lat="69.58159" lon="18.27909">
        <ele>8.610336</ele>
        <time>2020-07-16T12:41:57.833Z</time>
      </trkpt>
      <trkpt lat="69.58163" lon="18.27923">
        <ele>8.710103</ele>
        <time>2020-07-16T12:41:59.302Z</time>
      </trkpt>
      <trkpt lat="69.58168" lon="18.27939">
        <ele>8.831467</ele>
        <time>2020-07-16T12:42:01.459Z</time>
      </trkpt>
      <trkpt lat="69.58183" lon="18.27979">
        <ele>9.165023</ele>
        <time>2020-07-16T12:42:05.854Z</time>
      </trkpt>
      <trkpt lat="69.58195" lon="18.28012">
        <ele>9.44344</ele>
        <time>2020-07-16T12:42:10.017Z</time>
      </trkpt>
      <trkpt lat="69.5821" lon="18.28039">
        <ele>9.726216</ele>
        <time>2020-07-16T12:42:13.526Z</time>
      </trkpt>
      <trkpt lat="69.58229" lon="18.28068">
        <ele>10.072491</ele>
        <time>2020-07-16T12:42:18.308Z</time>
      </trkpt>
      <trkpt lat="69.58279" lon="18.28113">
        <ele>9.823282</ele>
        <time>2020-07-16T12:42:28.555Z</time>
      </trkpt>
      <trkpt lat="69.58294" lon="18.28125">
        <ele>9.634984</ele>
        <time>2020-07-16T12:42:31.500Z</time>
      </trkpt>
      <trkpt lat="69.58316" lon="18.2814">
        <ele>9.359932</ele>
        <time>2020-07-16T12:42:35.069Z</time>
      </trkpt>
      <trkpt lat="69.58467" lon="18.28255">
        <ele>7.487345</ele>
        <time>2020-07-16T12:42:56.565Z</time>
      </trkpt>
      <trkpt lat="69.58475" lon="18.28261">
        <ele>7.383808</ele>
        <time>2020-07-16T12:42:57.639Z</time>
      </trkpt>
      <trkpt lat="69.58487" lon="18.2827">
        <ele>7.23772</ele>
        <time>2020-07-16T12:42:59.568Z</time>
      </trkpt>
      <trkpt lat="69.58606" lon="18.28405">
        <ele>6.147837</ele>
        <time>2020-07-16T12:43:20.176Z</time>
      </trkpt>
      <trkpt lat="69.58611" lon="18.28411">
        <ele>6.194472</ele>
        <time>2020-07-16T12:43:21.070Z</time>
      </trkpt>
      <trkpt lat="69.58624" lon="18.28427">
        <ele>6.316898</ele>
        <time>2020-07-16T12:43:24.285Z</time>
      </trkpt>
      <trkpt lat="69.58804" lon="18.28659">
        <ele>8.176069</ele>
        <time>2020-07-16T12:44:07.319Z</time>
      </trkpt>
      <trkpt lat="69.58815" lon="18.28674">
        <ele>8.307697</ele>
        <time>2020-07-16T12:44:10.753Z</time>
      </trkpt>
      <trkpt lat="69.58822" lon="18.28683">
        <ele>8.404834</ele>
        <time>2020-07-16T12:44:12.059Z</time>
      </trkpt>
      <trkpt lat="69.58855" lon="18.28715">
        <ele>8.798955</ele>
        <time>2020-07-16T12:44:19.357Z</time>
      </trkpt>
      <trkpt lat="69.58879" lon="18.28733">
        <ele>9.078663</ele>
        <time>2020-07-16T12:44:24.047Z</time>
      </trkpt>
      <trkpt lat="69.58895" lon="18.28743">
        <ele>9.267484</ele>
        <time>2020-07-16T12:44:27.729Z</time>
      </trkpt>
      <trkpt lat="69.58934" lon="18.28773">
        <ele>9.747392</ele>
        <time>2020-07-16T12:44:36.223Z</time>
      </trkpt>
      <trkpt lat="69.5895" lon="18.28787">
        <ele>9.948544</ele>
        <time>2020-07-16T12:44:39.628Z</time>
      </trkpt>
      <trkpt lat="69.58952" lon="18.28789">
        <ele>9.974198</ele>
        <time>2020-07-16T12:44:40.891Z</time>
      </trkpt>
      <trkpt lat="69.59124" lon="18.29033">
        <ele>11.988767</ele>
        <time>2020-07-16T12:45:22.628Z</time>
      </trkpt>
      <trkpt lat="69.59326" lon="18.29278">
        <ele>12.402319</ele>
        <time>2020-07-16T12:46:03.287Z</time>
      </trkpt>
      <trkpt lat="69.59434" lon="18.29386">
        <ele>12.060852</ele>
        <time>2020-07-16T12:46:21.626Z</time>
      </trkpt>
      <trkpt lat="69.59454" lon="18.29405">
        <ele>11.974424</ele>
        <time>2020-07-16T12:46:24.969Z</time>
      </trkpt>
      <trkpt lat="69.59463" lon="18.29413">
        <ele>11.936103</ele>
        <time>2020-07-16T12:46:26.554Z</time>
      </trkpt>
      <trkpt lat="69.59527" lon="18.29471">
        <ele>11.671218</ele>
        <time>2020-07-16T12:46:37.154Z</time>
      </trkpt>
      <trkpt lat="69.59528" lon="18.29473">
        <ele>11.664367</ele>
        <time>2020-07-16T12:46:37.559Z</time>
      </trkpt>
      <trkpt lat="69.59551" lon="18.29494">
        <ele>11.570558</ele>
        <time>2020-07-16T12:46:41.569Z</time>
      </trkpt>
      <trkpt lat="69.59594" lon="18.29532">
        <ele>11.466598</ele>
        <time>2020-07-16T12:46:49.505Z</time>
      </trkpt>
      <trkpt lat="69.59629" lon="18.29566">
        <ele>11.635776</ele>
        <time>2020-07-16T12:46:57.343Z</time>
      </trkpt>
      <trkpt lat="69.59636" lon="18.29573">
        <ele>11.670796</ele>
        <time>2020-07-16T12:46:59.193Z</time>
      </trkpt>
      <trkpt lat="69.59716" lon="18.29678">
        <ele>12.067129</ele>
        <time>2020-07-16T12:47:16.570Z</time>
      </trkpt>
      <trkpt lat="69.59743" lon="18.29722">
        <ele>12.208132</ele>
        <time>2020-07-16T12:47:22.664Z</time>
      </trkpt>
      <trkpt lat="69.59759" lon="18.29749">
        <ele>12.153122</ele>
        <time>2020-07-16T12:47:26.233Z</time>
      </trkpt>
      <trkpt lat="69.59896" lon="18.2997">
        <ele>10.833094</ele>
        <time>2020-07-16T12:47:51.324Z</time>
      </trkpt>
      <trkpt lat="69.59938" lon="18.30016">
        <ele>10.149967</ele>
        <time>2020-07-16T12:47:57.412Z</time>
      </trkpt>
      <trkpt lat="69.59979" lon="18.30044">
        <ele>9.392333</ele>
        <time>2020-07-16T12:48:03.171Z</time>
      </trkpt>
      <trkpt lat="69.60189" lon="18.30136">
        <ele>7.379152</ele>
        <time>2020-07-16T12:48:34.135Z</time>
      </trkpt>
      <trkpt lat="69.60195" lon="18.30141">
        <ele>7.370081</ele>
        <time>2020-07-16T12:48:35.224Z</time>
      </trkpt>
      <trkpt lat="69.60199" lon="18.30144">
        <ele>7.364852</ele>
        <time>2020-07-16T12:48:36.426Z</time>
      </trkpt>
      <trkpt lat="69.60296" lon="18.30264">
        <ele>8.690302</ele>
        <time>2020-07-16T12:49:02.250Z</time>
      </trkpt>
      <trkpt lat="69.603" lon="18.30267">
        <ele>8.815042</ele>
        <time>2020-07-16T12:49:03.723Z</time>
      </trkpt>
      <trkpt lat="69.60316" lon="18.30273">
        <ele>9.317793</ele>
        <time>2020-07-16T12:49:08.188Z</time>
      </trkpt>
      <trkpt lat="69.60388" lon="18.30301">
        <ele>11.637739</ele>
        <time>2020-07-16T12:49:30.053Z</time>
      </trkpt>
      <trkpt lat="69.6041" lon="18.30306">
        <ele>12.325654</ele>
        <time>2020-07-16T12:49:36.689Z</time>
      </trkpt>
      <trkpt lat="69.60439" lon="18.30315">
        <ele>13.155722</ele>
        <time>2020-07-16T12:49:45.251Z</time>
      </trkpt>
      <trkpt lat="69.60501" lon="18.30345">
        <ele>14.4193</ele>
        <time>2020-07-16T12:50:02.700Z</time>
      </trkpt>
      <trkpt lat="69.60575" lon="18.3042">
        <ele>15.985748</ele>
        <time>2020-07-16T12:50:21.400Z</time>
      </trkpt>
      <trkpt lat="69.6073" lon="18.30642">
        <ele>16.369991</ele>
        <time>2020-07-16T12:50:50.941Z</time>
      </trkpt>
      <trkpt lat="69.60797" lon="18.30765">
        <ele>16.353467</ele>
        <time>2020-07-16T12:51:04.788Z</time>
      </trkpt>
      <trkpt lat="69.60817" lon="18.30813">
        <ele>16.378548</ele>
        <time>2020-07-16T12:51:09.091Z</time>
      </trkpt>
      <trkpt lat="69.60835" lon="18.30865">
        <ele>16.403225</ele>
        <time>2020-07-16T12:51:13.941Z</time>
      </trkpt>
      <trkpt lat="69.60862" lon="18.31011">
        <ele>16.459068</ele>
        <time>2020-07-16T12:51:24.643Z</time>
      </trkpt>
      <trkpt lat="69.60961" lon="18.31769">
        <ele>17.401043</ele>
        <time>2020-07-16T12:52:19.747Z</time>
      </trkpt>
      <trkpt lat="69.6101" lon="18.32284">
        <ele>17.554101</ele>
        <time>2020-07-16T12:52:50.861Z</time>
      </trkpt>
      <trkpt lat="69.61042" lon="18.32526">
        <ele>17.721182</ele>
        <time>2020-07-16T12:53:08.297Z</time>
      </trkpt>
      <trkpt lat="69.61055" lon="18.32592">
        <ele>18.003569</ele>
        <time>2020-07-16T12:53:13.690Z</time>
      </trkpt>
      <trkpt lat="69.6106" lon="18.32615">
        <ele>18.144034</ele>
        <time>2020-07-16T12:53:15.851Z</time>
      </trkpt>
      <trkpt lat="69.61116" lon="18.3286">
        <ele>19.699889</ele>
        <time>2020-07-16T12:53:39.367Z</time>
      </trkpt>
      <trkpt lat="69.61192" lon="18.33258">
        <ele>21.688859</ele>
        <time>2020-07-16T12:54:17.317Z</time>
      </trkpt>
      <trkpt lat="69.61244" lon="18.33465">
        <ele>22.425257</ele>
        <time>2020-07-16T12:54:33.431Z</time>
      </trkpt>
      <trkpt lat="69.61263" lon="18.3353">
        <ele>22.261242</ele>
        <time>2020-07-16T12:54:38.843Z</time>
      </trkpt>
      <trkpt lat="69.61278" lon="18.33578">
        <ele>22.141818</ele>
        <time>2020-07-16T12:54:42.328Z</time>
      </trkpt>
      <trkpt lat="69.61289" lon="18.33617">
        <ele>22.043939</ele>
        <time>2020-07-16T12:54:45.302Z</time>
      </trkpt>
      <trkpt lat="69.61291" lon="18.33622">
        <ele>22.030953</ele>
        <time>2020-07-16T12:54:45.582Z</time>
      </trkpt>
      <trkpt lat="69.6145" lon="18.34113">
        <ele>21.05141</ele>
        <time>2020-07-16T12:55:23.019Z</time>
      </trkpt>
      <trkpt lat="69.61496" lon="18.34313">
        <ele>21.088712</ele>
        <time>2020-07-16T12:55:39.841Z</time>
      </trkpt>
      <trkpt lat="69.61534" lon="18.34532">
        <ele>21.402766</ele>
        <time>2020-07-16T12:55:56.930Z</time>
      </trkpt>
      <trkpt lat="69.61568" lon="18.34665">
        <ele>21.494211</ele>
        <time>2020-07-16T12:56:07.345Z</time>
      </trkpt>
      <trkpt lat="69.61601" lon="18.34756">
        <ele>21.003725</ele>
        <time>2020-07-16T12:56:14.838Z</time>
      </trkpt>
      <trkpt lat="69.61812" lon="18.35248">
        <ele>18.116457</ele>
        <time>2020-07-16T12:56:54.961Z</time>
      </trkpt>
      <trkpt lat="69.62007" lon="18.35856">
        <ele>18.747626</ele>
        <time>2020-07-16T12:57:49.398Z</time>
      </trkpt>
      <trkpt lat="69.62083" lon="18.36165">
        <ele>19.925729</ele>
        <time>2020-07-16T12:58:17.364Z</time>
      </trkpt>
      <trkpt lat="69.62257" lon="18.3697">
        <ele>24.421517</ele>
        <time>2020-07-16T12:59:31.665Z</time>
      </trkpt>
      <trkpt lat="69.6231" lon="18.37149">
        <ele>24.590757</ele>
        <time>2020-07-16T12:59:48.155Z</time>
      </trkpt>
      <trkpt lat="69.6244" lon="18.37504">
        <ele>24.074254</ele>
        <time>2020-07-16T13:00:17.929Z</time>
      </trkpt>
      <trkpt lat="69.62454" lon="18.37545">
        <ele>23.909728</ele>
        <time>2020-07-16T13:00:20.687Z</time>
      </trkpt>
      <trkpt lat="69.6247" lon="18.37587">
        <ele>23.724642</ele>
        <time>2020-07-16T13:00:24.289Z</time>
      </trkpt>
      <trkpt lat="69.62661" lon="18.38086">
        <ele>21.031558</ele>
        <time>2020-07-16T13:01:03.946Z</time>
      </trkpt>
      <trkpt lat="69.62808" lon="18.38541">
        <ele>19.163599</ele>
        <time>2020-07-16T13:01:37.300Z</time>
      </trkpt>
      <trkpt lat="69.6284" lon="18.38659">
        <ele>18.962728</ele>
        <time>2020-07-16T13:01:45.991Z</time>
      </trkpt>
      <trkpt lat="69.63059" lon="18.39629">
        <ele>18.815328</ele>
        <time>2020-07-16T13:02:59.030Z</time>
      </trkpt>
      <trkpt lat="69.6309" lon="18.39747">
        <ele>18.616669</ele>
        <time>2020-07-16T13:03:07.696Z</time>
      </trkpt>
      <trkpt lat="69.63124" lon="18.39821">
        <ele>18.22471</ele>
        <time>2020-07-16T13:03:14.594Z</time>
      </trkpt>
      <trkpt lat="69.63239" lon="18.40035">
        <ele>16.672112</ele>
        <time>2020-07-16T13:03:35.706Z</time>
      </trkpt>
      <trkpt lat="69.63405" lon="18.40235">
        <ele>12.71351</ele>
        <time>2020-07-16T13:04:00.242Z</time>
      </trkpt>
      <trkpt lat="69.63407" lon="18.40237">
        <ele>12.674484</ele>
        <time>2020-07-16T13:04:00.490Z</time>
      </trkpt>
      <trkpt lat="69.63423" lon="18.40256">
        <ele>12.392052</ele>
        <time>2020-07-16T13:04:03.001Z</time>
      </trkpt>
      <trkpt lat="69.63439" lon="18.40274">
        <ele>12.122982</ele>
        <time>2020-07-16T13:04:05.448Z</time>
      </trkpt>
      <trkpt lat="69.63449" lon="18.40286">
        <ele>11.936911</ele>
        <time>2020-07-16T13:04:06.883Z</time>
      </trkpt>
      <trkpt lat="69.63454" lon="18.40292">
        <ele>11.849336</ele>
        <time>2020-07-16T13:04:07.704Z</time>
      </trkpt>
      <trkpt lat="69.63474" lon="18.40315">
        <ele>11.50697</ele>
        <time>2020-07-16T13:04:10.603Z</time>
      </trkpt>
      <trkpt lat="69.63489" lon="18.40333">
        <ele>11.241351</ele>
        <time>2020-07-16T13:04:13.091Z</time>
      </trkpt>
      <trkpt lat="69.635" lon="18.40346">
        <ele>11.045375</ele>
        <time>2020-07-16T13:04:15.127Z</time>
      </trkpt>
      <trkpt lat="69.63567" lon="18.40428">
        <ele>10.210735</ele>
        <time>2020-07-16T13:04:26.306Z</time>
      </trkpt>
      <trkpt lat="69.63606" lon="18.40508">
        <ele>10.537486</ele>
        <time>2020-07-16T13:04:36.046Z</time>
      </trkpt>
      <trkpt lat="69.63645" lon="18.40629">
        <ele>10.925795</ele>
        <time>2020-07-16T13:04:48.761Z</time>
      </trkpt>
      <trkpt lat="69.63709" lon="18.40886">
        <ele>11.719493</ele>
        <time>2020-07-16T13:05:11.453Z</time>
      </trkpt>
      <trkpt lat="69.63714" lon="18.40902">
        <ele>11.777463</ele>
        <time>2020-07-16T13:05:13.330Z</time>
      </trkpt>
      <trkpt lat="69.63722" lon="18.40927">
        <ele>11.875177</ele>
        <time>2020-07-16T13:05:15.646Z</time>
      </trkpt>
      <trkpt lat="69.6374" lon="18.40975">
        <ele>12.062382</ele>
        <time>2020-07-16T13:05:20.512Z</time>
      </trkpt>
      <trkpt lat="69.63746" lon="18.40989">
        <ele>12.122669</ele>
        <time>2020-07-16T13:05:21.953Z</time>
      </trkpt>
      <trkpt lat="69.63757" lon="18.41013">
        <ele>12.231516</ele>
        <time>2020-07-16T13:05:24.302Z</time>
      </trkpt>
      <trkpt lat="69.63811" lon="18.41099">
        <ele>12.710529</ele>
        <time>2020-07-16T13:05:36.866Z</time>
      </trkpt>
      <trkpt lat="69.63913" lon="18.41212">
        <ele>14.537854</ele>
        <time>2020-07-16T13:06:00.534Z</time>
      </trkpt>
      <trkpt lat="69.63917" lon="18.41216">
        <ele>14.622092</ele>
        <time>2020-07-16T13:06:02.083Z</time>
      </trkpt>
      <trkpt lat="69.63938" lon="18.41238">
        <ele>14.989457</ele>
        <time>2020-07-16T13:06:07.210Z</time>
      </trkpt>
      <trkpt lat="69.6395" lon="18.41252">
        <ele>15.205277</ele>
        <time>2020-07-16T13:06:10.632Z</time>
      </trkpt>
      <trkpt lat="69.63974" lon="18.41276">
        <ele>15.635645</ele>
        <time>2020-07-16T13:06:16.780Z</time>
      </trkpt>
      <trkpt lat="69.63998" lon="18.41302">
        <ele>16.37698</ele>
        <time>2020-07-16T13:06:23.743Z</time>
      </trkpt>
      <trkpt lat="69.64019" lon="18.41326">
        <ele>17.160616</ele>
        <time>2020-07-16T13:06:30.170Z</time>
      </trkpt>
      <trkpt lat="69.64039" lon="18.41346">
        <ele>17.879902</ele>
        <time>2020-07-16T13:06:35.983Z</time>
      </trkpt>
      <trkpt lat="69.64061" lon="18.41372">
        <ele>18.676729</ele>
        <time>2020-07-16T13:06:42.453Z</time>
      </trkpt>
      <trkpt lat="69.64067" lon="18.41386">
        <ele>18.945623</ele>
        <time>2020-07-16T13:06:44.767Z</time>
      </trkpt>
      <trkpt lat="69.64082" lon="18.41462">
        <ele>19.959996</ele>
        <time>2020-07-16T13:06:53.449Z</time>
      </trkpt>
      <trkpt lat="69.64088" lon="18.4155">
        <ele>21.019517</ele>
        <time>2020-07-16T13:07:02.696Z</time>
      </trkpt>
      <trkpt lat="69.64088" lon="18.41561">
        <ele>21.150651</ele>
        <time>2020-07-16T13:07:04.185Z</time>
      </trkpt>
      <trkpt lat="69.64088" lon="18.41578">
        <ele>21.35605</ele>
        <time>2020-07-16T13:07:06.227Z</time>
      </trkpt>
      <trkpt lat="69.64088" lon="18.41592">
        <ele>21.520603</ele>
        <time>2020-07-16T13:07:08.022Z</time>
      </trkpt>
      <trkpt lat="69.64073" lon="18.41742">
        <ele>24.25991</ele>
        <time>2020-07-16T13:07:24.702Z</time>
      </trkpt>
      <trkpt lat="69.64061" lon="18.41829">
        <ele>26.028535</ele>
        <time>2020-07-16T13:07:35.615Z</time>
      </trkpt>
      <trkpt lat="69.64054" lon="18.41888">
        <ele>27.2095</ele>
        <time>2020-07-16T13:07:43.674Z</time>
      </trkpt>
      <trkpt lat="69.64035" lon="18.42073">
        <ele>30.855729</ele>
        <time>2020-07-16T13:08:07.639Z</time>
      </trkpt>
      <trkpt lat="69.64018" lon="18.42549">
        <ele>42.383021</ele>
        <time>2020-07-16T13:09:16.702Z</time>
      </trkpt>
      <trkpt lat="69.64015" lon="18.42619">
        <ele>44.105105</ele>
        <time>2020-07-16T13:09:26.662Z</time>
      </trkpt>
      <trkpt lat="69.64012" lon="18.42753">
        <ele>46.849077</ele>
        <time>2020-07-16T13:09:44.471Z</time>
      </trkpt>
      <trkpt lat="69.64005" lon="18.42847">
        <ele>48.784591</ele>
        <time>2020-07-16T13:09:57.244Z</time>
      </trkpt>
      <trkpt lat="69.63991" lon="18.42921">
        <ele>50.470722</ele>
        <time>2020-07-16T13:10:07.993Z</time>
      </trkpt>
      <trkpt lat="69.63934" lon="18.43122">
        <ele>55.568372</ele>
        <time>2020-07-16T13:10:38.914Z</time>
      </trkpt>
      <trkpt lat="69.6393" lon="18.43134">
        <ele>55.849538</ele>
        <time>2020-07-16T13:10:40.737Z</time>
      </trkpt>
      <trkpt lat="69.63914" lon="18.43193">
        <ele>57.155605</ele>
        <time>2020-07-16T13:10:48.907Z</time>
      </trkpt>
      <trkpt lat="69.63899" lon="18.43247">
        <ele>58.356909</ele>
        <time>2020-07-16T13:10:56.177Z</time>
      </trkpt>
      <trkpt lat="69.63878" lon="18.43318">
        <ele>60.00845</ele>
        <time>2020-07-16T13:11:06.939Z</time>
      </trkpt>
      <trkpt lat="69.63868" lon="18.43353">
        <ele>60.791298</ele>
        <time>2020-07-16T13:11:12.671Z</time>
      </trkpt>
      <trkpt lat="69.63823" lon="18.43502">
        <ele>64.335092</ele>
        <time>2020-07-16T13:11:36.939Z</time>
      </trkpt>
      <trkpt lat="69.63739" lon="18.43716">
        <ele>70.803254</ele>
        <time>2020-07-16T13:12:18.239Z</time>
      </trkpt>
      <trkpt lat="69.63708" lon="18.43813">
        <ele>73.478773</ele>
        <time>2020-07-16T13:12:35.073Z</time>
      </trkpt>
      <trkpt lat="69.63676" lon="18.43952">
        <ele>76.347708</ele>
        <time>2020-07-16T13:12:55.714Z</time>
      </trkpt>
      <trkpt lat="69.63662" lon="18.44064">
        <ele>78.334575</ele>
        <time>2020-07-16T13:13:10.288Z</time>
      </trkpt>
      <trkpt lat="69.6362" lon="18.44522">
        <ele>84.690085</ele>
        <time>2020-07-16T13:14:01.382Z</time>
      </trkpt>
      <trkpt lat="69.6362" lon="18.44634">
        <ele>85.726651</ele>
        <time>2020-07-16T13:14:11.554Z</time>
      </trkpt>
      <trkpt lat="69.63637" lon="18.4475">
        <ele>86.897785</ele>
        <time>2020-07-16T13:14:21.434Z</time>
      </trkpt>
      <trkpt lat="69.63686" lon="18.44975">
        <ele>88.334618</ele>
        <time>2020-07-16T13:14:40.866Z</time>
      </trkpt>
      <trkpt lat="69.63701" lon="18.45043">
        <ele>88.645047</ele>
        <time>2020-07-16T13:14:46.367Z</time>
      </trkpt>
      <trkpt lat="69.63704" lon="18.45055">
        <ele>88.700213</ele>
        <time>2020-07-16T13:14:47.380Z</time>
      </trkpt>
      <trkpt lat="69.63713" lon="18.45096">
        <ele>88.890789</ele>
        <time>2020-07-16T13:14:50.455Z</time>
      </trkpt>
      <trkpt lat="69.63977" lon="18.46287">
        <ele>96.835286</ele>
        <time>2020-07-16T13:16:44.842Z</time>
      </trkpt>
      <trkpt lat="69.64014" lon="18.4641">
        <ele>97.822979</ele>
        <time>2020-07-16T13:16:58.160Z</time>
      </trkpt>
      <trkpt lat="69.64067" lon="18.46508">
        <ele>98.946302</ele>
        <time>2020-07-16T13:17:12.718Z</time>
      </trkpt>
      <trkpt lat="69.6408" lon="18.46525">
        <ele>99.233774</ele>
        <time>2020-07-16T13:17:16.078Z</time>
      </trkpt>
      <trkpt lat="69.64089" lon="18.46537">
        <ele>99.436341</ele>
        <time>2020-07-16T13:17:18.275Z</time>
      </trkpt>
      <trkpt lat="69.64538" lon="18.47173">
        <ele>110.472642</ele>
        <time>2020-07-16T13:19:20.860Z</time>
      </trkpt>
      <trkpt lat="69.64552" lon="18.47203">
        <ele>111.309772</ele>
        <time>2020-07-16T13:19:27.128Z</time>
      </trkpt>
      <trkpt lat="69.64574" lon="18.47276">
        <ele>113.249492</ele>
        <time>2020-07-16T13:19:38.329Z</time>
      </trkpt>
      <trkpt lat="69.64586" lon="18.47359">
        <ele>115.111162</ele>
        <time>2020-07-16T13:19:49.511Z</time>
      </trkpt>
      <trkpt lat="69.64591" lon="18.474">
        <ele>115.974135</ele>
        <time>2020-07-16T13:19:55.723Z</time>
      </trkpt>
      <trkpt lat="69.64593" lon="18.47426">
        <ele>116.524645</ele>
        <time>2020-07-16T13:19:58.695Z</time>
      </trkpt>
      <trkpt lat="69.64597" lon="18.47459">
        <ele>117.246899</ele>
        <time>2020-07-16T13:20:03.310Z</time>
      </trkpt>
      <trkpt lat="69.64612" lon="18.4753">
        <ele>118.921107</ele>
        <time>2020-07-16T13:20:14.467Z</time>
      </trkpt>
      <trkpt lat="69.64616" lon="18.47545">
        <ele>119.32281</ele>
        <time>2020-07-16T13:20:17.313Z</time>
      </trkpt>
      <trkpt lat="69.64625" lon="18.47573">
        <ele>120.098408</ele>
        <time>2020-07-16T13:20:23.497Z</time>
      </trkpt>
      <trkpt lat="69.64883" lon="18.48323">
        <ele>145.774613</ele>
        <time>2020-07-16T13:22:53.425Z</time>
      </trkpt>
      <trkpt lat="69.64931" lon="18.4848">
        <ele>149.457322</ele>
        <time>2020-07-16T13:23:19.486Z</time>
      </trkpt>
      <trkpt lat="69.64941" lon="18.48543">
        <ele>150.605632</ele>
        <time>2020-07-16T13:23:27.703Z</time>
      </trkpt>
      <trkpt lat="69.64955" lon="18.48686">
        <ele>153.042117</ele>
        <time>2020-07-16T13:23:44.314Z</time>
      </trkpt>
      <trkpt lat="69.64957" lon="18.4875">
        <ele>154.094237</ele>
        <time>2020-07-16T13:23:51.140Z</time>
      </trkpt>
      <trkpt lat="69.64956" lon="18.49314">
        <ele>159.737652</ele>
        <time>2020-07-16T13:24:43.333Z</time>
      </trkpt>
      <trkpt lat="69.64977" lon="18.4967">
        <ele>161.275717</ele>
        <time>2020-07-16T13:25:10.889Z</time>
      </trkpt>
      <trkpt lat="69.64981" lon="18.49745">
        <ele>161.588233</ele>
        <time>2020-07-16T13:25:16.239Z</time>
      </trkpt>
      <trkpt lat="69.64989" lon="18.49865">
        <ele>162.011073</ele>
        <time>2020-07-16T13:25:24.487Z</time>
      </trkpt>
      <trkpt lat="69.64991" lon="18.49896">
        <ele>162.060817</ele>
        <time>2020-07-16T13:25:26.703Z</time>
      </trkpt>
      <trkpt lat="69.64996" lon="18.49964">
        <ele>162.170274</ele>
        <time>2020-07-16T13:25:31.302Z</time>
      </trkpt>
      <trkpt lat="69.65074" lon="18.51246">
        <ele>164.401983</ele>
        <time>2020-07-16T13:26:58.391Z</time>
      </trkpt>
      <trkpt lat="69.65074" lon="18.51356">
        <ele>164.626843</ele>
        <time>2020-07-16T13:27:06.282Z</time>
      </trkpt>
      <trkpt lat="69.65056" lon="18.51886">
        <ele>166.763562</ele>
        <time>2020-07-16T13:27:46.291Z</time>
      </trkpt>
      <trkpt lat="69.65058" lon="18.52076">
        <ele>168.068618</ele>
        <time>2020-07-16T13:28:01.089Z</time>
      </trkpt>
      <trkpt lat="69.65168" lon="18.53605">
        <ele>179.860404</ele>
        <time>2020-07-16T13:30:15.150Z</time>
      </trkpt>
      <trkpt lat="69.6519" lon="18.53884">
        <ele>182.884397</ele>
        <time>2020-07-16T13:30:45.687Z</time>
      </trkpt>
      <trkpt lat="69.65208" lon="18.54018">
        <ele>183.393804</ele>
        <time>2020-07-16T13:30:59.138Z</time>
      </trkpt>
      <trkpt lat="69.6523" lon="18.54136">
        <ele>183.66138</ele>
        <time>2020-07-16T13:31:10.056Z</time>
      </trkpt>
      <trkpt lat="69.65258" lon="18.54248">
        <ele>183.935073</ele>
        <time>2020-07-16T13:31:18.534Z</time>
      </trkpt>
      <trkpt lat="69.65315" lon="18.54427">
        <ele>182.991728</ele>
        <time>2020-07-16T13:31:30.226Z</time>
      </trkpt>
      <trkpt lat="69.65494" lon="18.54862">
        <ele>176.917608</ele>
        <time>2020-07-16T13:32:00.638Z</time>
      </trkpt>
      <trkpt lat="69.65983" lon="18.56151">
        <ele>172.124999</ele>
        <time>2020-07-16T13:33:51.200Z</time>
      </trkpt>
      <trkpt lat="69.65986" lon="18.56159">
        <ele>172.055405</ele>
        <time>2020-07-16T13:33:51.766Z</time>
      </trkpt>
      <trkpt lat="69.65989" lon="18.56165">
        <ele>172.007173</ele>
        <time>2020-07-16T13:33:52.151Z</time>
      </trkpt>
      <trkpt lat="69.66076" lon="18.56401">
        <ele>170.074117</ele>
        <time>2020-07-16T13:34:09.236Z</time>
      </trkpt>
      <trkpt lat="69.66107" lon="18.56491">
        <ele>169.29162</ele>
        <time>2020-07-16T13:34:15.276Z</time>
      </trkpt>
      <trkpt lat="69.66136" lon="18.5657">
        <ele>168.549638</ele>
        <time>2020-07-16T13:34:20.882Z</time>
      </trkpt>
      <trkpt lat="69.66207" lon="18.56805">
        <ele>166.516424</ele>
        <time>2020-07-16T13:34:36.321Z</time>
      </trkpt>
      <trkpt lat="69.66268" lon="18.57031">
        <ele>165.810093</ele>
        <time>2020-07-16T13:34:51.762Z</time>
      </trkpt>
      <trkpt lat="69.66307" lon="18.57195">
        <ele>165.336463</ele>
        <time>2020-07-16T13:35:03.890Z</time>
      </trkpt>
      <trkpt lat="69.66381" lon="18.57551">
        <ele>164.6979</ele>
        <time>2020-07-16T13:35:29.794Z</time>
      </trkpt>
      <trkpt lat="69.66907" lon="18.60811">
        <ele>144.976224</ele>
        <time>2020-07-16T13:38:33.948Z</time>
      </trkpt>
      <trkpt lat="69.67062" lon="18.61806">
        <ele>126.237608</ele>
        <time>2020-07-16T13:39:19.375Z</time>
      </trkpt>
      <trkpt lat="69.67069" lon="18.61851">
        <ele>125.320167</ele>
        <time>2020-07-16T13:39:21.399Z</time>
      </trkpt>
      <trkpt lat="69.6707" lon="18.61858">
        <ele>125.188982</ele>
        <time>2020-07-16T13:39:21.678Z</time>
      </trkpt>
      <trkpt lat="69.67092" lon="18.61998">
        <ele>122.737117</ele>
        <time>2020-07-16T13:39:28.304Z</time>
      </trkpt>
      <trkpt lat="69.67096" lon="18.62022">
        <ele>122.378002</ele>
        <time>2020-07-16T13:39:29.320Z</time>
      </trkpt>
      <trkpt lat="69.67102" lon="18.62063">
        <ele>121.722943</ele>
        <time>2020-07-16T13:39:31.291Z</time>
      </trkpt>
      <trkpt lat="69.672" lon="18.62671">
        <ele>112.366835</ele>
        <time>2020-07-16T13:40:01.075Z</time>
      </trkpt>
      <trkpt lat="69.67224" lon="18.62795">
        <ele>110.44512</ele>
        <time>2020-07-16T13:40:07.269Z</time>
      </trkpt>
      <trkpt lat="69.6731" lon="18.63027">
        <ele>105.018477</ele>
        <time>2020-07-16T13:40:21.883Z</time>
      </trkpt>
      <trkpt lat="69.67372" lon="18.63163">
        <ele>101.32269</ele>
        <time>2020-07-16T13:40:31.339Z</time>
      </trkpt>
      <trkpt lat="69.67488" lon="18.63325">
        <ele>93.261017</ele>
        <time>2020-07-16T13:40:46.501Z</time>
      </trkpt>
      <trkpt lat="69.67538" lon="18.63411">
        <ele>89.499082</ele>
        <time>2020-07-16T13:40:53.220Z</time>
      </trkpt>
      <trkpt lat="69.6765" lon="18.63517">
        <ele>80.367691</ele>
        <time>2020-07-16T13:41:06.493Z</time>
      </trkpt>
      <trkpt lat="69.67728" lon="18.63624">
        <ele>73.634494</ele>
        <time>2020-07-16T13:41:16.306Z</time>
      </trkpt>
      <trkpt lat="69.67822" lon="18.63786">
        <ele>65.296491</ele>
        <time>2020-07-16T13:41:28.617Z</time>
      </trkpt>
      <trkpt lat="69.67892" lon="18.6396">
        <ele>58.525529</ele>
        <time>2020-07-16T13:41:39.237Z</time>
      </trkpt>
      <trkpt lat="69.68168" lon="18.64766">
        <ele>31.540951</ele>
        <time>2020-07-16T13:42:24.658Z</time>
      </trkpt>
      <trkpt lat="69.68192" lon="18.64822">
        <ele>29.437479</ele>
        <time>2020-07-16T13:42:28.171Z</time>
      </trkpt>
      <trkpt lat="69.68224" lon="18.64873">
        <ele>26.933758</ele>
        <time>2020-07-16T13:42:32.362Z</time>
      </trkpt>
      <trkpt lat="69.68248" lon="18.64905">
        <ele>25.103624</ele>
        <time>2020-07-16T13:42:35.403Z</time>
      </trkpt>
      <trkpt lat="69.68284" lon="18.64951">
        <ele>22.75563</ele>
        <time>2020-07-16T13:42:39.947Z</time>
      </trkpt>
      <trkpt lat="69.68466" lon="18.6518">
        <ele>12.296061</ele>
        <time>2020-07-16T13:43:03.599Z</time>
      </trkpt>
      <trkpt lat="69.68545" lon="18.65337">
        <ele>8.929327</ele>
        <time>2020-07-16T13:43:16.386Z</time>
      </trkpt>
      <trkpt lat="69.68548" lon="18.65342">
        <ele>8.804561</ele>
        <time>2020-07-16T13:43:16.782Z</time>
      </trkpt>
      <trkpt lat="69.68546" lon="18.65353">
        <ele>8.643398</ele>
        <time>2020-07-16T13:43:17.634Z</time>
      </trkpt>
      <trkpt lat="69.68511" lon="18.65491">
        <ele>7.815337</ele>
        <time>2020-07-16T13:43:26.549Z</time>
      </trkpt>
      <trkpt lat="69.68501" lon="18.65536">
        <ele>7.756235</ele>
        <time>2020-07-16T13:43:29.367Z</time>
      </trkpt>
      <trkpt lat="69.68497" lon="18.6555">
        <ele>7.737727</ele>
        <time>2020-07-16T13:43:30.368Z</time>
      </trkpt>
      <trkpt lat="69.68495" lon="18.65557">
        <ele>7.727712</ele>
        <time>2020-07-16T13:43:31.150Z</time>
      </trkpt>
      <trkpt lat="69.68478" lon="18.65655">
        <ele>7.607946</ele>
        <time>2020-07-16T13:43:37.644Z</time>
      </trkpt>
      <trkpt lat="69.68469" lon="18.65747">
        <ele>7.503415</ele>
        <time>2020-07-16T13:43:43.579Z</time>
      </trkpt>
      <trkpt lat="69.68459" lon="18.66018">
        <ele>8.566965</ele>
        <time>2020-07-16T13:44:03.902Z</time>
      </trkpt>
      <trkpt lat="69.68458" lon="18.66048">
        <ele>8.803261</ele>
        <time>2020-07-16T13:44:06.045Z</time>
      </trkpt>
      <trkpt lat="69.68456" lon="18.66121">
        <ele>9.379771</ele>
        <time>2020-07-16T13:44:12.306Z</time>
      </trkpt>
      <trkpt lat="69.68456" lon="18.66211">
        <ele>10.076118</ele>
        <time>2020-07-16T13:44:20.278Z</time>
      </trkpt>
      <trkpt lat="69.68457" lon="18.66259">
        <ele>10.454378</ele>
        <time>2020-07-16T13:44:24.308Z</time>
      </trkpt>
      <trkpt lat="69.68457" lon="18.66287">
        <ele>10.672197</ele>
        <time>2020-07-16T13:44:27.574Z</time>
      </trkpt>
      <trkpt lat="69.68468" lon="18.66417">
        <ele>12.112836</ele>
        <time>2020-07-16T13:44:40.890Z</time>
      </trkpt>
      <trkpt lat="69.68484" lon="18.6652">
        <ele>14.146056</ele>
        <time>2020-07-16T13:44:53.153Z</time>
      </trkpt>
      <trkpt lat="69.6855" lon="18.66779">
        <ele>19.916674</ele>
        <time>2020-07-16T13:45:33.611Z</time>
      </trkpt>
      <trkpt lat="69.68574" lon="18.6694">
        <ele>23.220331</ele>
        <time>2020-07-16T13:45:56.468Z</time>
      </trkpt>
      <trkpt lat="69.68593" lon="18.67228">
        <ele>28.837497</ele>
        <time>2020-07-16T13:46:33.456Z</time>
      </trkpt>
      <trkpt lat="69.68595" lon="18.67375">
        <ele>31.09111</ele>
        <time>2020-07-16T13:46:50.797Z</time>
      </trkpt>
      <trkpt lat="69.68591" lon="18.67575">
        <ele>32.681873</ele>
        <time>2020-07-16T13:47:10.531Z</time>
      </trkpt>
      <trkpt lat="69.68589" lon="18.67651">
        <ele>33.286358</ele>
        <time>2020-07-16T13:47:16.926Z</time>
      </trkpt>
      <trkpt lat="69.68583" lon="18.67757">
        <ele>34.134977</ele>
        <time>2020-07-16T13:47:24.628Z</time>
      </trkpt>
      <trkpt lat="69.68579" lon="18.67804">
        <ele>34.517091</ele>
        <time>2020-07-16T13:47:27.732Z</time>
      </trkpt>
      <trkpt lat="69.68577" lon="18.67854">
        <ele>34.734143</ele>
        <time>2020-07-16T13:47:30.956Z</time>
      </trkpt>
      <trkpt lat="69.68565" lon="18.68037">
        <ele>33.987542</ele>
        <time>2020-07-16T13:47:41.332Z</time>
      </trkpt>
      <trkpt lat="69.68542" lon="18.68384">
        <ele>32.377744</ele>
        <time>2020-07-16T13:47:58.987Z</time>
      </trkpt>
      <trkpt lat="69.68519" lon="18.68561">
        <ele>30.674395</ele>
        <time>2020-07-16T13:48:08.851Z</time>
      </trkpt>
      <trkpt lat="69.68516" lon="18.6858">
        <ele>30.486687</ele>
        <time>2020-07-16T13:48:09.744Z</time>
      </trkpt>
      <trkpt lat="69.68507" lon="18.68641">
        <ele>29.883094</ele>
        <time>2020-07-16T13:48:13.185Z</time>
      </trkpt>
      <trkpt lat="69.68499" lon="18.68694">
        <ele>29.36293</ele>
        <time>2020-07-16T13:48:15.747Z</time>
      </trkpt>
      <trkpt lat="69.68491" lon="18.68747">
        <ele>28.835333</ele>
        <time>2020-07-16T13:48:18.534Z</time>
      </trkpt>
      <trkpt lat="69.68488" lon="18.68768">
        <ele>28.634751</ele>
        <time>2020-07-16T13:48:19.429Z</time>
      </trkpt>
      <trkpt lat="69.68469" lon="18.68901">
        <ele>26.699789</ele>
        <time>2020-07-16T13:48:25.559Z</time>
      </trkpt>
      <trkpt lat="69.68462" lon="18.6895">
        <ele>25.777346</ele>
        <time>2020-07-16T13:48:28.005Z</time>
      </trkpt>
      <trkpt lat="69.68459" lon="18.68968">
        <ele>25.447243</ele>
        <time>2020-07-16T13:48:28.723Z</time>
      </trkpt>
      <trkpt lat="69.68448" lon="18.6906">
        <ele>23.751557</ele>
        <time>2020-07-16T13:48:32.906Z</time>
      </trkpt>
      <trkpt lat="69.68444" lon="18.69101">
        <ele>23.024532</ele>
        <time>2020-07-16T13:48:34.653Z</time>
      </trkpt>
      <trkpt lat="69.68441" lon="18.6915">
        <ele>22.164108</ele>
        <time>2020-07-16T13:48:36.741Z</time>
      </trkpt>
      <trkpt lat="69.68439" lon="18.69169">
        <ele>21.829114</ele>
        <time>2020-07-16T13:48:37.454Z</time>
      </trkpt>
      <trkpt lat="69.68439" lon="18.6936">
        <ele>18.953917</ele>
        <time>2020-07-16T13:48:45.607Z</time>
      </trkpt>
      <trkpt lat="69.6845" lon="18.69502">
        <ele>18.366657</ele>
        <time>2020-07-16T13:48:51.977Z</time>
      </trkpt>
      <trkpt lat="69.68457" lon="18.69565">
        <ele>18.099278</ele>
        <time>2020-07-16T13:48:55.103Z</time>
      </trkpt>
      <trkpt lat="69.68458" lon="18.69572">
        <ele>18.068677</ele>
        <time>2020-07-16T13:48:55.417Z</time>
      </trkpt>
      <trkpt lat="69.68459" lon="18.6958">
        <ele>18.033478</ele>
        <time>2020-07-16T13:48:55.838Z</time>
      </trkpt>
      <trkpt lat="69.68465" lon="18.69643">
        <ele>17.765211</ele>
        <time>2020-07-16T13:49:00.019Z</time>
      </trkpt>
      <trkpt lat="69.6847" lon="18.69797">
        <ele>17.143134</ele>
        <time>2020-07-16T13:49:12.168Z</time>
      </trkpt>
      <trkpt lat="69.6845" lon="18.70109">
        <ele>19.955478</ele>
        <time>2020-07-16T13:49:42.038Z</time>
      </trkpt>
      <trkpt lat="69.68449" lon="18.70134">
        <ele>20.218718</ele>
        <time>2020-07-16T13:49:45.255Z</time>
      </trkpt>
      <trkpt lat="69.68445" lon="18.70135">
        <ele>20.356766</ele>
        <time>2020-07-16T13:49:46.809Z</time>
      </trkpt>
      <trkpt lat="69.68438" lon="18.70136">
        <ele>20.580723</ele>
        <time>2020-07-16T13:49:49.099Z</time>
      </trkpt>
      <trkpt lat="69.68441" lon="18.70172">
        <ele>20.980527</ele>
        <time>2020-07-16T13:49:51.936Z</time>
      </trkpt>
      <trkpt lat="69.68443" lon="18.70424">
        <ele>23.610967</ele>
        <time>2020-07-16T13:50:18.329Z</time>
      </trkpt>
      <trkpt lat="69.68437" lon="18.70511">
        <ele>24.507874</ele>
        <time>2020-07-16T13:50:26.944Z</time>
      </trkpt>
      <trkpt lat="69.68427" lon="18.70586">
        <ele>25.325022</ele>
        <time>2020-07-16T13:50:34.425Z</time>
      </trkpt>
      <trkpt lat="69.68358" lon="18.70863">
        <ele>28.610808</ele>
        <time>2020-07-16T13:51:06.764Z</time>
      </trkpt>
      <trkpt lat="69.68314" lon="18.71091">
        <ele>30.800921</ele>
        <time>2020-07-16T13:51:31.927Z</time>
      </trkpt>
      <trkpt lat="69.68246" lon="18.71342">
        <ele>32.353066</ele>
        <time>2020-07-16T13:51:58.376Z</time>
      </trkpt>
      <trkpt lat="69.68243" lon="18.71361">
        <ele>32.386356</ele>
        <time>2020-07-16T13:52:00.149Z</time>
      </trkpt>
      <trkpt lat="69.68237" lon="18.71401">
        <ele>32.453543</ele>
        <time>2020-07-16T13:52:02.846Z</time>
      </trkpt>
      <trkpt lat="69.68217" lon="18.71573">
        <ele>32.732733</ele>
        <time>2020-07-16T13:52:14.786Z</time>
      </trkpt>
      <trkpt lat="69.68208" lon="18.71719">
        <ele>32.774809</ele>
        <time>2020-07-16T13:52:23.479Z</time>
      </trkpt>
      <trkpt lat="69.68207" lon="18.71733">
        <ele>32.729289</ele>
        <time>2020-07-16T13:52:24.402Z</time>
      </trkpt>
      <trkpt lat="69.68205" lon="18.71749">
        <ele>32.673441</ele>
        <time>2020-07-16T13:52:25.338Z</time>
      </trkpt>
      <trkpt lat="69.68198" lon="18.71922">
        <ele>32.101937</ele>
        <time>2020-07-16T13:52:34.856Z</time>
      </trkpt>
      <trkpt lat="69.68198" lon="18.71939">
        <ele>32.048204</ele>
        <time>2020-07-16T13:52:35.805Z</time>
      </trkpt>
      <trkpt lat="69.68198" lon="18.71957">
        <ele>31.989584</ele>
        <time>2020-07-16T13:52:36.725Z</time>
      </trkpt>
      <trkpt lat="69.68201" lon="18.72168">
        <ele>31.296905</ele>
        <time>2020-07-16T13:52:48.785Z</time>
      </trkpt>
      <trkpt lat="69.68202" lon="18.72213">
        <ele>31.198263</ele>
        <time>2020-07-16T13:52:51.390Z</time>
      </trkpt>
      <trkpt lat="69.68204" lon="18.72249">
        <ele>31.182724</ele>
        <time>2020-07-16T13:52:53.343Z</time>
      </trkpt>
      <trkpt lat="69.68214" lon="18.72532">
        <ele>31.059635</ele>
        <time>2020-07-16T13:53:11.009Z</time>
      </trkpt>
      <trkpt lat="69.68214" lon="18.7256">
        <ele>31.047738</ele>
        <time>2020-07-16T13:53:12.628Z</time>
      </trkpt>
      <trkpt lat="69.68214" lon="18.72577">
        <ele>31.040082</ele>
        <time>2020-07-16T13:53:14.331Z</time>
      </trkpt>
      <trkpt lat="69.68219" lon="18.72791">
        <ele>31.000255</ele>
        <time>2020-07-16T13:53:29.162Z</time>
      </trkpt>
      <trkpt lat="69.68217" lon="18.72861">
        <ele>31.016293</ele>
        <time>2020-07-16T13:53:33.868Z</time>
      </trkpt>
      <trkpt lat="69.68227" lon="18.7296">
        <ele>31.039764</ele>
        <time>2020-07-16T13:53:41.025Z</time>
      </trkpt>
      <trkpt lat="69.68232" lon="18.73118">
        <ele>31.076018</ele>
        <time>2020-07-16T13:53:51.025Z</time>
      </trkpt>
      <trkpt lat="69.68232" lon="18.73128">
        <ele>31.078254</ele>
        <time>2020-07-16T13:53:51.587Z</time>
      </trkpt>
      <trkpt lat="69.68231" lon="18.73139">
        <ele>31.080774</ele>
        <time>2020-07-16T13:53:52.481Z</time>
      </trkpt>
      <trkpt lat="69.68231" lon="18.73333">
        <ele>31.377135</ele>
        <time>2020-07-16T13:54:04.103Z</time>
      </trkpt>
      <trkpt lat="69.68232" lon="18.73358">
        <ele>31.440899</ele>
        <time>2020-07-16T13:54:06.026Z</time>
      </trkpt>
      <trkpt lat="69.68233" lon="18.73383">
        <ele>31.505933</ele>
        <time>2020-07-16T13:54:07.348Z</time>
      </trkpt>
      <trkpt lat="69.68238" lon="18.73493">
        <ele>31.787325</ele>
        <time>2020-07-16T13:54:15.277Z</time>
      </trkpt>
      <trkpt lat="69.68238" lon="18.73505">
        <ele>31.81831</ele>
        <time>2020-07-16T13:54:15.839Z</time>
      </trkpt>
      <trkpt lat="69.68238" lon="18.73521">
        <ele>31.857661</ele>
        <time>2020-07-16T13:54:17.552Z</time>
      </trkpt>
      <trkpt lat="69.68216" lon="18.73834">
        <ele>33.25353</ele>
        <time>2020-07-16T13:54:43.597Z</time>
      </trkpt>
      <trkpt lat="69.68213" lon="18.73859">
        <ele>33.474247</ele>
        <time>2020-07-16T13:54:46.754Z</time>
      </trkpt>
      <trkpt lat="69.68213" lon="18.73862">
        <ele>33.496345</ele>
        <time>2020-07-16T13:54:47.012Z</time>
      </trkpt>
      <trkpt lat="69.68212" lon="18.73874">
        <ele>33.598414</ele>
        <time>2020-07-16T13:54:48.162Z</time>
      </trkpt>
      <trkpt lat="69.68207" lon="18.73924">
        <ele>34.034455</ele>
        <time>2020-07-16T13:54:52.686Z</time>
      </trkpt>
      <trkpt lat="69.68191" lon="18.74036">
        <ele>35.049817</ele>
        <time>2020-07-16T13:55:04.668Z</time>
      </trkpt>
      <trkpt lat="69.68187" lon="18.74057">
        <ele>35.241747</ele>
        <time>2020-07-16T13:55:07.443Z</time>
      </trkpt>
      <trkpt lat="69.68167" lon="18.74152">
        <ele>36.172025</ele>
        <time>2020-07-16T13:55:18.186Z</time>
      </trkpt>
      <trkpt lat="69.68165" lon="18.74163">
        <ele>36.283401</ele>
        <time>2020-07-16T13:55:19.578Z</time>
      </trkpt>
      <trkpt lat="69.68088" lon="18.74511">
        <ele>36.859676</ele>
        <time>2020-07-16T13:55:52.497Z</time>
      </trkpt>
      <trkpt lat="69.68085" lon="18.74519">
        <ele>36.863715</ele>
        <time>2020-07-16T13:55:53.304Z</time>
      </trkpt>
      <trkpt lat="69.68077" lon="18.74542">
        <ele>36.874408</ele>
        <time>2020-07-16T13:55:55.012Z</time>
      </trkpt>
      <trkpt lat="69.68028" lon="18.74623">
        <ele>35.782453</ele>
        <time>2020-07-16T13:56:03.229Z</time>
      </trkpt>
      <trkpt lat="69.67951" lon="18.7466">
        <ele>30.417877</ele>
        <time>2020-07-16T13:56:12.942Z</time>
      </trkpt>
      <trkpt lat="69.67936" lon="18.74663">
        <ele>29.40013</ele>
        <time>2020-07-16T13:56:14.690Z</time>
      </trkpt>
      <trkpt lat="69.67931" lon="18.74664">
        <ele>29.01863</ele>
        <time>2020-07-16T13:56:15.319Z</time>
      </trkpt>
      <trkpt lat="69.67872" lon="18.74675">
        <ele>24.960487</ele>
        <time>2020-07-16T13:56:22.029Z</time>
      </trkpt>
      <trkpt lat="69.67846" lon="18.74681">
        <ele>22.812222</ele>
        <time>2020-07-16T13:56:25.060Z</time>
      </trkpt>
      <trkpt lat="69.67822" lon="18.74689">
        <ele>20.760318</ele>
        <time>2020-07-16T13:56:27.804Z</time>
      </trkpt>
      <trkpt lat="69.67818" lon="18.7469">
        <ele>20.417131</ele>
        <time>2020-07-16T13:56:28.304Z</time>
      </trkpt>
      <trkpt lat="69.67804" lon="18.74693">
        <ele>19.236157</ele>
        <time>2020-07-16T13:56:29.846Z</time>
      </trkpt>
      <trkpt lat="69.67782" lon="18.74701">
        <ele>17.326572</ele>
        <time>2020-07-16T13:56:32.465Z</time>
      </trkpt>
      <trkpt lat="69.67777" lon="18.74709">
        <ele>16.864715</ele>
        <time>2020-07-16T13:56:33.056Z</time>
      </trkpt>
      <trkpt lat="69.67772" lon="18.74716">
        <ele>16.40422</ele>
        <time>2020-07-16T13:56:33.657Z</time>
      </trkpt>
      <trkpt lat="69.67758" lon="18.74743">
        <ele>14.907514</ele>
        <time>2020-07-16T13:56:35.765Z</time>
      </trkpt>
      <trkpt lat="69.67734" lon="18.74758">
        <ele>12.875814</ele>
        <time>2020-07-16T13:56:38.557Z</time>
      </trkpt>
      <trkpt lat="69.67733" lon="18.74759">
        <ele>12.738476</ele>
        <time>2020-07-16T13:56:38.726Z</time>
      </trkpt>
      <trkpt lat="69.67733" lon="18.74769">
        <ele>12.425417</ele>
        <time>2020-07-16T13:56:39.191Z</time>
      </trkpt>
      <trkpt lat="69.67733" lon="18.74775">
        <ele>12.249725</ele>
        <time>2020-07-16T13:56:40.640Z</time>
      </trkpt>
      <trkpt lat="69.67734" lon="18.74786">
        <ele>11.926227</ele>
        <time>2020-07-16T13:56:43.284Z</time>
      </trkpt>
      <trkpt lat="69.67734" lon="18.74798">
        <ele>11.562142</ele>
        <time>2020-07-16T13:56:46.262Z</time>
      </trkpt>
      <trkpt lat="69.67734" lon="18.74807">
        <ele>11.290291</ele>
        <time>2020-07-16T13:56:48.469Z</time>
      </trkpt>
      <trkpt lat="69.67733" lon="18.74824">
        <ele>10.794697</ele>
        <time>2020-07-16T13:56:49.124Z</time>
      </trkpt>
      <trkpt lat="69.67727" lon="18.74859">
        <ele>9.65437</ele>
        <time>2020-07-16T13:56:50.666Z</time>
      </trkpt>
      <trkpt lat="69.67724" lon="18.74871">
        <ele>9.203958</ele>
        <time>2020-07-16T13:56:51.408Z</time>
      </trkpt>
      <trkpt lat="69.6772" lon="18.74885">
        <ele>9.031131</ele>
        <time>2020-07-16T13:56:52.302Z</time>
      </trkpt>
      <trkpt lat="69.67678" lon="18.74992">
        <ele>7.972622</ele>
        <time>2020-07-16T13:56:59.644Z</time>
      </trkpt>
      <trkpt lat="69.67676" lon="18.74996">
        <ele>7.919315</ele>
        <time>2020-07-16T13:57:00.087Z</time>
      </trkpt>
      <trkpt lat="69.67673" lon="18.75001">
        <ele>7.851605</ele>
        <time>2020-07-16T13:57:00.535Z</time>
      </trkpt>
      <trkpt lat="69.67657" lon="18.75019">
        <ele>7.532896</ele>
        <time>2020-07-16T13:57:03.842Z</time>
      </trkpt>
      <trkpt lat="69.67649" lon="18.75032">
        <ele>7.35278</ele>
        <time>2020-07-16T13:57:05.501Z</time>
      </trkpt>
      <trkpt lat="69.67637" lon="18.7505">
        <ele>7.09358</ele>
        <time>2020-07-16T13:57:07.625Z</time>
      </trkpt>
      <trkpt lat="69.67586" lon="18.75157">
        <ele>5.893396</ele>
        <time>2020-07-16T13:57:20.276Z</time>
      </trkpt>
      <trkpt lat="69.67581" lon="18.75171">
        <ele>5.767492</ele>
        <time>2020-07-16T13:57:21.816Z</time>
      </trkpt>
      <trkpt lat="69.67573" lon="18.75195">
        <ele>5.737643</ele>
        <time>2020-07-16T13:57:24.174Z</time>
      </trkpt>
      <trkpt lat="69.67525" lon="18.7539">
        <ele>5.839158</ele>
        <time>2020-07-16T13:57:40.350Z</time>
      </trkpt>
      <trkpt lat="69.67519" lon="18.75415">
        <ele>5.852083</ele>
        <time>2020-07-16T13:57:42.609Z</time>
      </trkpt>
      <trkpt lat="69.67515" lon="18.7543">
        <ele>5.859713</ele>
        <time>2020-07-16T13:57:43.941Z</time>
      </trkpt>
      <trkpt lat="69.67496" lon="18.75521">
        <ele>5.904831</ele>
        <time>2020-07-16T13:57:50.726Z</time>
      </trkpt>
      <trkpt lat="69.67493" lon="18.75533">
        <ele>5.910831</ele>
        <time>2020-07-16T13:57:51.722Z</time>
      </trkpt>
      <trkpt lat="69.67491" lon="18.75544">
        <ele>5.916522</ele>
        <time>2020-07-16T13:57:52.437Z</time>
      </trkpt>
      <trkpt lat="69.67454" lon="18.75707">
        <ele>5.641663</ele>
        <time>2020-07-16T13:58:04.237Z</time>
      </trkpt>
      <trkpt lat="69.67435" lon="18.75817">
        <ele>5.346693</ele>
        <time>2020-07-16T13:58:11.316Z</time>
      </trkpt>
      <trkpt lat="69.67434" lon="18.7583">
        <ele>5.314185</ele>
        <time>2020-07-16T13:58:12.048Z</time>
      </trkpt>
      <trkpt lat="69.67433" lon="18.7584">
        <ele>5.28764</ele>
        <time>2020-07-16T13:58:12.591Z</time>
      </trkpt>
      <trkpt lat="69.67428" lon="18.75947">
        <ele>5.026476</ele>
        <time>2020-07-16T13:58:18.687Z</time>
      </trkpt>
      <trkpt lat="69.67433" lon="18.76082">
        <ele>4.697892</ele>
        <time>2020-07-16T13:58:26.435Z</time>
      </trkpt>
      <trkpt lat="69.67504" lon="18.7661">
        <ele>3.968752</ele>
        <time>2020-07-16T13:59:00.577Z</time>
      </trkpt>
      <trkpt lat="69.67526" lon="18.76698">
        <ele>4.118296</ele>
        <time>2020-07-16T13:59:08.162Z</time>
      </trkpt>
      <trkpt lat="69.6756" lon="18.76788">
        <ele>4.30082</ele>
        <time>2020-07-16T13:59:17.890Z</time>
      </trkpt>
      <trkpt lat="69.67659" lon="18.77009">
        <ele>4.460869</ele>
        <time>2020-07-16T13:59:43.594Z</time>
      </trkpt>
      <trkpt lat="69.67694" lon="18.77059">
        <ele>4.32855</ele>
        <time>2020-07-16T13:59:50.849Z</time>
      </trkpt>
      <trkpt lat="69.67696" lon="18.77064">
        <ele>4.320141</ele>
        <time>2020-07-16T13:59:51.685Z</time>
      </trkpt>
      <trkpt lat="69.67698" lon="18.77069">
        <ele>4.311243</ele>
        <time>2020-07-16T13:59:51.999Z</time>
      </trkpt>
      <trkpt lat="69.6772" lon="18.77148">
        <ele>4.190303</ele>
        <time>2020-07-16T13:59:58.067Z</time>
      </trkpt>
      <trkpt lat="69.6783" lon="18.77389">
        <ele>3.042947</ele>
        <time>2020-07-16T14:00:19.970Z</time>
      </trkpt>
      <trkpt lat="69.67836" lon="18.774">
        <ele>2.95998</ele>
        <time>2020-07-16T14:00:21.012Z</time>
      </trkpt>
      <trkpt lat="69.67841" lon="18.77408">
        <ele>2.898964</ele>
        <time>2020-07-16T14:00:21.896Z</time>
      </trkpt>
      <trkpt lat="69.67843" lon="18.77414">
        <ele>2.864383</ele>
        <time>2020-07-16T14:00:22.399Z</time>
      </trkpt>
      <trkpt lat="69.67846" lon="18.77423">
        <ele>2.81489</ele>
        <time>2020-07-16T14:00:23.055Z</time>
      </trkpt>
      <trkpt lat="69.67892" lon="18.7754">
        <ele>2.107035</ele>
        <time>2020-07-16T14:00:32.857Z</time>
      </trkpt>
      <trkpt lat="69.67977" lon="18.77814">
        <ele>1.205184</ele>
        <time>2020-07-16T14:00:54.103Z</time>
      </trkpt>
      <trkpt lat="69.67993" lon="18.77867">
        <ele>1.04507</ele>
        <time>2020-07-16T14:00:58.375Z</time>
      </trkpt>
      <trkpt lat="69.68" lon="18.77894">
        <ele>0.96826</ele>
        <time>2020-07-16T14:01:00.362Z</time>
      </trkpt>
      <trkpt lat="69.68049" lon="18.78047">
        <ele>0.770439</ele>
        <time>2020-07-16T14:01:13.090Z</time>
      </trkpt>
      <trkpt lat="69.68073" lon="18.78125">
        <ele>0.775026</ele>
        <time>2020-07-16T14:01:19.852Z</time>
      </trkpt>
      <trkpt lat="69.68078" lon="18.78142">
        <ele>0.77601</ele>
        <time>2020-07-16T14:01:21.358Z</time>
      </trkpt>
      <trkpt lat="69.68087" lon="18.78169">
        <ele>0.777629</ele>
        <time>2020-07-16T14:01:23.871Z</time>
      </trkpt>
      <trkpt lat="69.68089" lon="18.78176">
        <ele>0.778028</ele>
        <time>2020-07-16T14:01:24.419Z</time>
      </trkpt>
      <trkpt lat="69.68097" lon="18.78202">
        <ele>0.779498</ele>
        <time>2020-07-16T14:01:26.532Z</time>
      </trkpt>
      <trkpt lat="69.68113" lon="18.78259">
        <ele>0.782785</ele>
        <time>2020-07-16T14:01:31.625Z</time>
      </trkpt>
      <trkpt lat="69.68125" lon="18.78298">
        <ele>0.785012</ele>
        <time>2020-07-16T14:01:35.127Z</time>
      </trkpt>
      <trkpt lat="69.68131" lon="18.78321">
        <ele>0.786288</ele>
        <time>2020-07-16T14:01:37.064Z</time>
      </trkpt>
      <trkpt lat="69.68138" lon="18.78346">
        <ele>0.78767</ele>
        <time>2020-07-16T14:01:39.047Z</time>
      </trkpt>
      <trkpt lat="69.68145" lon="18.78374">
        <ele>0.796347</ele>
        <time>2020-07-16T14:01:41.485Z</time>
      </trkpt>
      <trkpt lat="69.68149" lon="18.78391">
        <ele>0.802286</ele>
        <time>2020-07-16T14:01:42.874Z</time>
      </trkpt>
      <trkpt lat="69.68183" lon="18.78581">
        <ele>0.865964</ele>
        <time>2020-07-16T14:01:57.040Z</time>
      </trkpt>
      <trkpt lat="69.68197" lon="18.78613">
        <ele>0.881668</ele>
        <time>2020-07-16T14:02:00.412Z</time>
      </trkpt>
      <trkpt lat="69.68201" lon="18.7863">
        <ele>0.887557</ele>
        <time>2020-07-16T14:02:01.847Z</time>
      </trkpt>
      <trkpt lat="69.68202" lon="18.78636">
        <ele>0.889497</ele>
        <time>2020-07-16T14:02:03.432Z</time>
      </trkpt>
      <trkpt lat="69.68204" lon="18.7865">
        <ele>0.894314</ele>
        <time>2020-07-16T14:02:07.349Z</time>
      </trkpt>
      <trkpt lat="69.68205" lon="18.78656">
        <ele>0.896241</ele>
        <time>2020-07-16T14:02:08.918Z</time>
      </trkpt>
      <trkpt lat="69.68206" lon="18.78662">
        <ele>0.898104</ele>
        <time>2020-07-16T14:02:09.268Z</time>
      </trkpt>
      <trkpt lat="69.68208" lon="18.78739">
        <ele>0.9213</ele>
        <time>2020-07-16T14:02:14.467Z</time>
      </trkpt>
      <trkpt lat="69.68286" lon="18.79202">
        <ele>0.596307</ele>
        <time>2020-07-16T14:02:46.151Z</time>
      </trkpt>
      <trkpt lat="69.6829" lon="18.79225">
        <ele>0.576476</ele>
        <time>2020-07-16T14:02:47.666Z</time>
      </trkpt>
      <trkpt lat="69.68307" lon="18.79325">
        <ele>0.533238</ele>
        <time>2020-07-16T14:02:54.837Z</time>
      </trkpt>
      <trkpt lat="69.68311" lon="18.79351">
        <ele>0.530845</ele>
        <time>2020-07-16T14:02:56.786Z</time>
      </trkpt>
      <trkpt lat="69.68314" lon="18.79369">
        <ele>0.529165</ele>
        <time>2020-07-16T14:02:58.062Z</time>
      </trkpt>
      <trkpt lat="69.68347" lon="18.7957">
        <ele>0.5107</ele>
        <time>2020-07-16T14:03:12.420Z</time>
      </trkpt>
      <trkpt lat="69.68358" lon="18.79667">
        <ele>0.502155</ele>
        <time>2020-07-16T14:03:19.105Z</time>
      </trkpt>
      <trkpt lat="69.68364" lon="18.79717">
        <ele>0.497737</ele>
        <time>2020-07-16T14:03:22.554Z</time>
      </trkpt>
      <trkpt lat="69.68365" lon="18.79742">
        <ele>0.495588</ele>
        <time>2020-07-16T14:03:24.206Z</time>
      </trkpt>
      <trkpt lat="69.68369" lon="18.79786">
        <ele>0.485871</ele>
        <time>2020-07-16T14:03:27.053Z</time>
      </trkpt>
      <trkpt lat="69.68372" lon="18.79817">
        <ele>0.478725</ele>
        <time>2020-07-16T14:03:29.053Z</time>
      </trkpt>
      <trkpt lat="69.68377" lon="18.79892">
        <ele>0.46111</ele>
        <time>2020-07-16T14:03:33.873Z</time>
      </trkpt>
      <trkpt lat="69.68382" lon="18.79981">
        <ele>0.440505</ele>
        <time>2020-07-16T14:03:39.665Z</time>
      </trkpt>
      <trkpt lat="69.68381" lon="18.80089">
        <ele>0.416076</ele>
        <time>2020-07-16T14:03:46.476Z</time>
      </trkpt>
      <trkpt lat="69.68381" lon="18.80098">
        <ele>0.413854</ele>
        <time>2020-07-16T14:03:47.023Z</time>
      </trkpt>
      <trkpt lat="69.6838" lon="18.80107">
        <ele>0.411766</ele>
        <time>2020-07-16T14:03:49.234Z</time>
      </trkpt>
      <trkpt lat="69.6838" lon="18.80126">
        <ele>0.407481</ele>
        <time>2020-07-16T14:03:53.783Z</time>
      </trkpt>
      <trkpt lat="69.68379" lon="18.80135">
        <ele>0.405349</ele>
        <time>2020-07-16T14:03:56.064Z</time>
      </trkpt>
      <trkpt lat="69.68379" lon="18.80144">
        <ele>0.40335</ele>
        <time>2020-07-16T14:03:56.618Z</time>
      </trkpt>
      <trkpt lat="69.68379" lon="18.80158">
        <ele>0.400091</ele>
        <time>2020-07-16T14:03:57.507Z</time>
      </trkpt>
      <trkpt lat="69.68372" lon="18.80705">
        <ele>0.431747</ele>
        <time>2020-07-16T14:04:32.546Z</time>
      </trkpt>
      <trkpt lat="69.68388" lon="18.8133">
        <ele>1.060647</ele>
        <time>2020-07-16T14:05:15.827Z</time>
      </trkpt>
      <trkpt lat="69.68394" lon="18.81371">
        <ele>1.070169</ele>
        <time>2020-07-16T14:05:18.800Z</time>
      </trkpt>
      <trkpt lat="69.68394" lon="18.81377">
        <ele>1.071411</ele>
        <time>2020-07-16T14:05:19.362Z</time>
      </trkpt>
      <trkpt lat="69.68395" lon="18.81381">
        <ele>1.072465</ele>
        <time>2020-07-16T14:05:19.689Z</time>
      </trkpt>
      <trkpt lat="69.68395" lon="18.81388">
        <ele>1.073865</ele>
        <time>2020-07-16T14:05:21.263Z</time>
      </trkpt>
      <trkpt lat="69.68395" lon="18.81393">
        <ele>1.075024</ele>
        <time>2020-07-16T14:05:22.591Z</time>
      </trkpt>
      <trkpt lat="69.68395" lon="18.814">
        <ele>1.076392</ele>
        <time>2020-07-16T14:05:24.132Z</time>
      </trkpt>
      <trkpt lat="69.68396" lon="18.81405">
        <ele>1.077573</ele>
        <time>2020-07-16T14:05:25.468Z</time>
      </trkpt>
      <trkpt lat="69.68396" lon="18.81412">
        <ele>1.079116</ele>
        <time>2020-07-16T14:05:27.219Z</time>
      </trkpt>
      <trkpt lat="69.68396" lon="18.8142">
        <ele>1.080722</ele>
        <time>2020-07-16T14:05:27.725Z</time>
      </trkpt>
      <trkpt lat="69.68392" lon="18.81459">
        <ele>1.08949</ele>
        <time>2020-07-16T14:05:30.430Z</time>
      </trkpt>
      <trkpt lat="69.68411" lon="18.82216">
        <ele>0.89571</ele>
        <time>2020-07-16T14:06:18.546Z</time>
      </trkpt>
      <trkpt lat="69.68412" lon="18.82258">
        <ele>0.867975</ele>
        <time>2020-07-16T14:06:21.076Z</time>
      </trkpt>
      <trkpt lat="69.68416" lon="18.8243">
        <ele>0.71685</ele>
        <time>2020-07-16T14:06:31.690Z</time>
      </trkpt>
      <trkpt lat="69.68418" lon="18.82516">
        <ele>0.630479</ele>
        <time>2020-07-16T14:06:36.929Z</time>
      </trkpt>
      <trkpt lat="69.68429" lon="18.82905">
        <ele>0.293162</ele>
        <time>2020-07-16T14:07:01.016Z</time>
      </trkpt>
      <trkpt lat="69.68431" lon="18.8298">
        <ele>0.279239</ele>
        <time>2020-07-16T14:07:05.740Z</time>
      </trkpt>
      <trkpt lat="69.68435" lon="18.83152">
        <ele>0.24746</ele>
        <time>2020-07-16T14:07:16.784Z</time>
      </trkpt>
      <trkpt lat="69.68437" lon="18.83233">
        <ele>0.23247</ele>
        <time>2020-07-16T14:07:22.039Z</time>
      </trkpt>
      <trkpt lat="69.68441" lon="18.83343">
        <ele>0.21194</ele>
        <time>2020-07-16T14:07:29.240Z</time>
      </trkpt>
      <trkpt lat="69.68441" lon="18.83347">
        <ele>0.211176</ele>
        <time>2020-07-16T14:07:29.507Z</time>
      </trkpt>
      <trkpt lat="69.68444" lon="18.83398">
        <ele>0.221689</ele>
        <time>2020-07-16T14:07:32.812Z</time>
      </trkpt>
      <trkpt lat="69.68446" lon="18.83424">
        <ele>0.228646</ele>
        <time>2020-07-16T14:07:34.574Z</time>
      </trkpt>
      <trkpt lat="69.68447" lon="18.83437">
        <ele>0.231857</ele>
        <time>2020-07-16T14:07:35.465Z</time>
      </trkpt>
      <trkpt lat="69.68495" lon="18.84007">
        <ele>0.332305</ele>
        <time>2020-07-16T14:08:14.030Z</time>
      </trkpt>
      <trkpt lat="69.68504" lon="18.84109">
        <ele>0.324298</ele>
        <time>2020-07-16T14:08:20.756Z</time>
      </trkpt>
      <trkpt lat="69.68508" lon="18.84156">
        <ele>0.320679</ele>
        <time>2020-07-16T14:08:23.767Z</time>
      </trkpt>
      <trkpt lat="69.6853" lon="18.84413">
        <ele>0.331386</ele>
        <time>2020-07-16T14:08:40.909Z</time>
      </trkpt>
      <trkpt lat="69.68538" lon="18.84496">
        <ele>0.373459</ele>
        <time>2020-07-16T14:08:46.306Z</time>
      </trkpt>
      <trkpt lat="69.68541" lon="18.84525">
        <ele>0.388684</ele>
        <time>2020-07-16T14:08:48.250Z</time>
      </trkpt>
      <trkpt lat="69.68545" lon="18.84557">
        <ele>0.405576</ele>
        <time>2020-07-16T14:08:50.414Z</time>
      </trkpt>
      <trkpt lat="69.68551" lon="18.84591">
        <ele>0.42419</ele>
        <time>2020-07-16T14:08:52.961Z</time>
      </trkpt>
      <trkpt lat="69.68557" lon="18.84618">
        <ele>0.440338</ele>
        <time>2020-07-16T14:08:55.049Z</time>
      </trkpt>
      <trkpt lat="69.6862" lon="18.84839">
        <ele>0.719124</ele>
        <time>2020-07-16T14:09:14.002Z</time>
      </trkpt>
      <trkpt lat="69.68626" lon="18.84862">
        <ele>0.834662</ele>
        <time>2020-07-16T14:09:16.174Z</time>
      </trkpt>
      <trkpt lat="69.68641" lon="18.84911">
        <ele>1.083</ele>
        <time>2020-07-16T14:09:20.850Z</time>
      </trkpt>
      <trkpt lat="69.68697" lon="18.85106">
        <ele>2.059441</ele>
        <time>2020-07-16T14:09:40.102Z</time>
      </trkpt>
      <trkpt lat="69.68716" lon="18.85173">
        <ele>2.393406</ele>
        <time>2020-07-16T14:09:46.864Z</time>
      </trkpt>
      <trkpt lat="69.68718" lon="18.85182">
        <ele>2.434631</ele>
        <time>2020-07-16T14:09:47.983Z</time>
      </trkpt>
      <trkpt lat="69.68844" lon="18.85617">
        <ele>6.679794</ele>
        <time>2020-07-16T14:10:39.869Z</time>
      </trkpt>
      <trkpt lat="69.68862" lon="18.85646">
        <ele>6.919872</ele>
        <time>2020-07-16T14:10:44.626Z</time>
      </trkpt>
      <trkpt lat="69.68863" lon="18.85649">
        <ele>6.936361</ele>
        <time>2020-07-16T14:10:45.709Z</time>
      </trkpt>
      <trkpt lat="69.68864" lon="18.85655">
        <ele>6.963527</ele>
        <time>2020-07-16T14:10:47.348Z</time>
      </trkpt>
      <trkpt lat="69.68865" lon="18.8566">
        <ele>6.984667</ele>
        <time>2020-07-16T14:10:48.625Z</time>
      </trkpt>
      <trkpt lat="69.68866" lon="18.85666">
        <ele>7.014234</ele>
        <time>2020-07-16T14:10:50.417Z</time>
      </trkpt>
      <trkpt lat="69.68868" lon="18.85671">
        <ele>7.03836</ele>
        <time>2020-07-16T14:10:51.855Z</time>
      </trkpt>
      <trkpt lat="69.68869" lon="18.85674">
        <ele>7.061665</ele>
        <time>2020-07-16T14:10:53.270Z</time>
      </trkpt>
      <trkpt lat="69.6887" lon="18.85678">
        <ele>7.081647</ele>
        <time>2020-07-16T14:10:53.730Z</time>
      </trkpt>
      <trkpt lat="69.68873" lon="18.85717">
        <ele>7.239246</ele>
        <time>2020-07-16T14:10:56.736Z</time>
      </trkpt>
      <trkpt lat="69.68968" lon="18.86044">
        <ele>8.557169</ele>
        <time>2020-07-16T14:11:28.607Z</time>
      </trkpt>
      <trkpt lat="69.68973" lon="18.86059">
        <ele>8.517273</ele>
        <time>2020-07-16T14:11:29.703Z</time>
      </trkpt>
      <trkpt lat="69.68977" lon="18.86074">
        <ele>8.47857</ele>
        <time>2020-07-16T14:11:30.789Z</time>
      </trkpt>
      <trkpt lat="69.69008" lon="18.86179">
        <ele>8.204216</ele>
        <time>2020-07-16T14:11:38.622Z</time>
      </trkpt>
      <trkpt lat="69.69012" lon="18.86194">
        <ele>8.166731</ele>
        <time>2020-07-16T14:11:39.621Z</time>
      </trkpt>
      <trkpt lat="69.69017" lon="18.86215">
        <ele>8.113053</ele>
        <time>2020-07-16T14:11:41.141Z</time>
      </trkpt>
      <trkpt lat="69.6902" lon="18.86223">
        <ele>8.08986</ele>
        <time>2020-07-16T14:11:41.725Z</time>
      </trkpt>
      <trkpt lat="69.69053" lon="18.8634">
        <ele>7.787332</ele>
        <time>2020-07-16T14:11:50.312Z</time>
      </trkpt>
      <trkpt lat="69.69055" lon="18.86346">
        <ele>7.771088</ele>
        <time>2020-07-16T14:11:50.735Z</time>
      </trkpt>
      <trkpt lat="69.69062" lon="18.86366">
        <ele>7.716533</ele>
        <time>2020-07-16T14:11:52.510Z</time>
      </trkpt>
      <trkpt lat="69.69065" lon="18.86377">
        <ele>7.686871</ele>
        <time>2020-07-16T14:11:53.303Z</time>
      </trkpt>
      <trkpt lat="69.69071" lon="18.86397">
        <ele>7.640876</ele>
        <time>2020-07-16T14:11:54.785Z</time>
      </trkpt>
      <trkpt lat="69.69073" lon="18.86403">
        <ele>7.630427</ele>
        <time>2020-07-16T14:11:55.237Z</time>
      </trkpt>
      <trkpt lat="69.69074" lon="18.86407">
        <ele>7.623755</ele>
        <time>2020-07-16T14:11:55.477Z</time>
      </trkpt>
      <trkpt lat="69.69098" lon="18.86492">
        <ele>7.479012</ele>
        <time>2020-07-16T14:12:01.946Z</time>
      </trkpt>
      <trkpt lat="69.69116" lon="18.86556">
        <ele>7.369864</ele>
        <time>2020-07-16T14:12:06.922Z</time>
      </trkpt>
      <trkpt lat="69.69124" lon="18.86584">
        <ele>7.323602</ele>
        <time>2020-07-16T14:12:08.901Z</time>
      </trkpt>
      <trkpt lat="69.69132" lon="18.86619">
        <ele>7.266127</ele>
        <time>2020-07-16T14:12:11.771Z</time>
      </trkpt>
      <trkpt lat="69.69145" lon="18.86644">
        <ele>7.208183</ele>
        <time>2020-07-16T14:12:14.346Z</time>
      </trkpt>
      <trkpt lat="69.69153" lon="18.86649">
        <ele>7.177423</ele>
        <time>2020-07-16T14:12:15.786Z</time>
      </trkpt>
      <trkpt lat="69.69154" lon="18.8665">
        <ele>7.173847</ele>
        <time>2020-07-16T14:12:16.023Z</time>
      </trkpt>
      <trkpt lat="69.69155" lon="18.86652">
        <ele>7.167573</ele>
        <time>2020-07-16T14:12:16.321Z</time>
      </trkpt>
      <trkpt lat="69.69159" lon="18.86657">
        <ele>7.152247</ele>
        <time>2020-07-16T14:12:17.132Z</time>
      </trkpt>
      <trkpt lat="69.6916" lon="18.86663">
        <ele>7.143779</ele>
        <time>2020-07-16T14:12:18.689Z</time>
      </trkpt>
      <trkpt lat="69.69161" lon="18.8667">
        <ele>7.134925</ele>
        <time>2020-07-16T14:12:20.296Z</time>
      </trkpt>
      <trkpt lat="69.69162" lon="18.86675">
        <ele>7.127207</ele>
        <time>2020-07-16T14:12:21.738Z</time>
      </trkpt>
      <trkpt lat="69.69163" lon="18.8668">
        <ele>7.1179</ele>
        <time>2020-07-16T14:12:23.438Z</time>
      </trkpt>
      <trkpt lat="69.69165" lon="18.86686">
        <ele>7.108295</ele>
        <time>2020-07-16T14:12:25.188Z</time>
      </trkpt>
      <trkpt lat="69.69168" lon="18.86697">
        <ele>7.08946</ele>
        <time>2020-07-16T14:12:26.056Z</time>
      </trkpt>
      <trkpt lat="69.6917" lon="18.86706">
        <ele>7.075672</ele>
        <time>2020-07-16T14:12:26.605Z</time>
      </trkpt>
      <trkpt lat="69.69178" lon="18.86765">
        <ele>6.991743</ele>
        <time>2020-07-16T14:12:30.998Z</time>
      </trkpt>
      <trkpt lat="69.69256" lon="18.87034">
        <ele>7.186826</ele>
        <time>2020-07-16T14:12:54.660Z</time>
      </trkpt>
      <trkpt lat="69.69262" lon="18.87051">
        <ele>7.201619</ele>
        <time>2020-07-16T14:12:56.133Z</time>
      </trkpt>
      <trkpt lat="69.69266" lon="18.87065">
        <ele>7.21399</ele>
        <time>2020-07-16T14:12:57.414Z</time>
      </trkpt>
      <trkpt lat="69.69372" lon="18.87427">
        <ele>7.059542</ele>
        <time>2020-07-16T14:13:28.446Z</time>
      </trkpt>
      <trkpt lat="69.69387" lon="18.87476">
        <ele>7.01169</ele>
        <time>2020-07-16T14:13:32.219Z</time>
      </trkpt>
      <trkpt lat="69.69419" lon="18.87585">
        <ele>6.812363</ele>
        <time>2020-07-16T14:13:40.813Z</time>
      </trkpt>
      <trkpt lat="69.69436" lon="18.87642">
        <ele>6.413622</ele>
        <time>2020-07-16T14:13:45.133Z</time>
      </trkpt>
      <trkpt lat="69.69441" lon="18.87662">
        <ele>6.28219</ele>
        <time>2020-07-16T14:13:46.630Z</time>
      </trkpt>
      <trkpt lat="69.69456" lon="18.87712">
        <ele>5.940845</ele>
        <time>2020-07-16T14:13:49.965Z</time>
      </trkpt>
      <trkpt lat="69.69535" lon="18.87993">
        <ele>4.026264</ele>
        <time>2020-07-16T14:14:08.996Z</time>
      </trkpt>
      <trkpt lat="69.69537" lon="18.88006">
        <ele>3.943557</ele>
        <time>2020-07-16T14:14:09.659Z</time>
      </trkpt>
      <trkpt lat="69.69545" lon="18.88041">
        <ele>3.720553</ele>
        <time>2020-07-16T14:14:11.715Z</time>
      </trkpt>
      <trkpt lat="69.69557" lon="18.88086">
        <ele>3.401756</ele>
        <time>2020-07-16T14:14:14.698Z</time>
      </trkpt>
      <trkpt lat="69.69559" lon="18.88092">
        <ele>3.35613</ele>
        <time>2020-07-16T14:14:15.085Z</time>
      </trkpt>
      <trkpt lat="69.69561" lon="18.88094">
        <ele>3.320577</ele>
        <time>2020-07-16T14:14:15.446Z</time>
      </trkpt>
      <trkpt lat="69.69575" lon="18.88109">
        <ele>3.08214</ele>
        <time>2020-07-16T14:14:17.605Z</time>
      </trkpt>
      <trkpt lat="69.69582" lon="18.88153">
        <ele>2.815186</ele>
        <time>2020-07-16T14:14:19.998Z</time>
      </trkpt>
      <trkpt lat="69.69585" lon="18.88169">
        <ele>2.722312</ele>
        <time>2020-07-16T14:14:20.874Z</time>
      </trkpt>
      <trkpt lat="69.69587" lon="18.88182">
        <ele>2.634048</ele>
        <time>2020-07-16T14:14:21.747Z</time>
      </trkpt>
      <trkpt lat="69.6959" lon="18.88197">
        <ele>2.542121</ele>
        <time>2020-07-16T14:14:22.554Z</time>
      </trkpt>
      <trkpt lat="69.69593" lon="18.88207">
        <ele>2.474029</ele>
        <time>2020-07-16T14:14:23.131Z</time>
      </trkpt>
      <trkpt lat="69.69609" lon="18.88268">
        <ele>2.046881</ele>
        <time>2020-07-16T14:14:27.190Z</time>
      </trkpt>
      <trkpt lat="69.69611" lon="18.88273">
        <ele>2.011624</ele>
        <time>2020-07-16T14:14:27.474Z</time>
      </trkpt>
      <trkpt lat="69.69615" lon="18.88285">
        <ele>1.917455</ele>
        <time>2020-07-16T14:14:28.322Z</time>
      </trkpt>
      <trkpt lat="69.69628" lon="18.88326">
        <ele>1.606764</ele>
        <time>2020-07-16T14:14:31.278Z</time>
      </trkpt>
      <trkpt lat="69.69629" lon="18.88363">
        <ele>1.402634</ele>
        <time>2020-07-16T14:14:33.248Z</time>
      </trkpt>
      <trkpt lat="69.69631" lon="18.88368">
        <ele>1.362064</ele>
        <time>2020-07-16T14:14:33.606Z</time>
      </trkpt>
      <trkpt lat="69.6963" lon="18.88376">
        <ele>1.322619</ele>
        <time>2020-07-16T14:14:34.083Z</time>
      </trkpt>
      <trkpt lat="69.69628" lon="18.88392">
        <ele>1.293527</ele>
        <time>2020-07-16T14:14:38.113Z</time>
      </trkpt>
      <trkpt lat="69.69627" lon="18.88403">
        <ele>1.274299</ele>
        <time>2020-07-16T14:14:40.816Z</time>
      </trkpt>
      <trkpt lat="69.69625" lon="18.88411">
        <ele>1.258459</ele>
        <time>2020-07-16T14:14:41.405Z</time>
      </trkpt>
      <trkpt lat="69.69604" lon="18.88412">
        <ele>1.152665</ele>
        <time>2020-07-16T14:14:44.796Z</time>
      </trkpt>
      <trkpt lat="69.69595" lon="18.88438">
        <ele>1.087228</ele>
        <time>2020-07-16T14:14:47.215Z</time>
      </trkpt>
      <trkpt lat="69.69573" lon="18.88608">
        <ele>0.77214</ele>
        <time>2020-07-16T14:14:57.795Z</time>
      </trkpt>
      <trkpt lat="69.6957" lon="18.88624">
        <ele>0.740044</ele>
        <time>2020-07-16T14:14:59.080Z</time>
      </trkpt>
      <trkpt lat="69.69565" lon="18.88646">
        <ele>0.694297</ele>
        <time>2020-07-16T14:15:00.717Z</time>
      </trkpt>
      <trkpt lat="69.69537" lon="18.88822">
        <ele>0.4016</ele>
        <time>2020-07-16T14:15:13.060Z</time>
      </trkpt>
      <trkpt lat="69.69534" lon="18.88839">
        <ele>0.390588</ele>
        <time>2020-07-16T14:15:14.130Z</time>
      </trkpt>
      <trkpt lat="69.69527" lon="18.88887">
        <ele>0.358642</ele>
        <time>2020-07-16T14:15:17.419Z</time>
      </trkpt>
      <trkpt lat="69.69495" lon="18.89069">
        <ele>0.234542</ele>
        <time>2020-07-16T14:15:30.257Z</time>
      </trkpt>
      <trkpt lat="69.69459" lon="18.89234">
        <ele>0.115856</ele>
        <time>2020-07-16T14:15:42.366Z</time>
      </trkpt>
      <trkpt lat="69.69392" lon="18.89481">
        <ele>0.050712</ele>
        <time>2020-07-16T14:16:02.415Z</time>
      </trkpt>
      <trkpt lat="69.69316" lon="18.89698">
        <ele>0.035795</ele>
        <time>2020-07-16T14:16:22.363Z</time>
      </trkpt>
      <trkpt lat="69.68996" lon="18.90532">
        <ele>0.435439</ele>
        <time>2020-07-16T14:17:43.701Z</time>
      </trkpt>
      <trkpt lat="69.68935" lon="18.90676">
        <ele>0.537999</ele>
        <time>2020-07-16T14:17:58.909Z</time>
      </trkpt>
      <trkpt lat="69.68879" lon="18.90772">
        <ele>0.673312</ele>
        <time>2020-07-16T14:18:11.596Z</time>
      </trkpt>
      <trkpt lat="69.68816" lon="18.90843">
        <ele>0.811861</ele>
        <time>2020-07-16T14:18:24.573Z</time>
      </trkpt>
      <trkpt lat="69.68743" lon="18.90885">
        <ele>1.0002</ele>
        <time>2020-07-16T14:18:38.759Z</time>
      </trkpt>
      <trkpt lat="69.68737" lon="18.90887">
        <ele>1.021871</ele>
        <time>2020-07-16T14:18:40.054Z</time>
      </trkpt>
      <trkpt lat="69.68729" lon="18.90888">
        <ele>1.044746</ele>
        <time>2020-07-16T14:18:41.351Z</time>
      </trkpt>
      <trkpt lat="69.68701" lon="18.90908">
        <ele>1.138004</ele>
        <time>2020-07-16T14:18:46.646Z</time>
      </trkpt>
      <trkpt lat="69.68657" lon="18.90906">
        <ele>1.282165</ele>
        <time>2020-07-16T14:18:55.132Z</time>
      </trkpt>
      <trkpt lat="69.6861" lon="18.90888">
        <ele>1.432791</ele>
        <time>2020-07-16T14:19:04.065Z</time>
      </trkpt>
      <trkpt lat="69.68549" lon="18.90842">
        <ele>1.681835</ele>
        <time>2020-07-16T14:19:16.496Z</time>
      </trkpt>
      <trkpt lat="69.68525" lon="18.90819">
        <ele>1.784175</ele>
        <time>2020-07-16T14:19:21.201Z</time>
      </trkpt>
      <trkpt lat="69.68522" lon="18.90814">
        <ele>1.799306</ele>
        <time>2020-07-16T14:19:22.148Z</time>
      </trkpt>
      <trkpt lat="69.68457" lon="18.90721">
        <ele>2.098595</ele>
        <time>2020-07-16T14:19:36.241Z</time>
      </trkpt>
      <trkpt lat="69.68353" lon="18.90533">
        <ele>2.114788</ele>
        <time>2020-07-16T14:19:58.668Z</time>
      </trkpt>
      <trkpt lat="69.68351" lon="18.9053">
        <ele>2.112264</ele>
        <time>2020-07-16T14:19:59.028Z</time>
      </trkpt>
      <trkpt lat="69.68348" lon="18.90524">
        <ele>2.108059</ele>
        <time>2020-07-16T14:20:01.488Z</time>
      </trkpt>
      <trkpt lat="69.68342" lon="18.90515">
        <ele>2.10023</ele>
        <time>2020-07-16T14:20:06.130Z</time>
      </trkpt>
      <trkpt lat="69.6834" lon="18.9051">
        <ele>2.096412</ele>
        <time>2020-07-16T14:20:08.347Z</time>
      </trkpt>
      <trkpt lat="69.68336" lon="18.90499">
        <ele>2.090205</ele>
        <time>2020-07-16T14:20:09.122Z</time>
      </trkpt>
      <trkpt lat="69.68287" lon="18.90339">
        <ele>1.983733</ele>
        <time>2020-07-16T14:20:21.418Z</time>
      </trkpt>
      <trkpt lat="69.6824" lon="18.90255">
        <ele>1.777615</ele>
        <time>2020-07-16T14:20:30.564Z</time>
      </trkpt>
      <trkpt lat="69.68178" lon="18.90202">
        <ele>1.536294</ele>
        <time>2020-07-16T14:20:41.299Z</time>
      </trkpt>
      <trkpt lat="69.68036" lon="18.9011">
        <ele>1.218658</ele>
        <time>2020-07-16T14:21:06.694Z</time>
      </trkpt>
      <trkpt lat="69.67987" lon="18.90093">
        <ele>1.153724</ele>
        <time>2020-07-16T14:21:15.382Z</time>
      </trkpt>
      <trkpt lat="69.67936" lon="18.90112">
        <ele>1.075692</ele>
        <time>2020-07-16T14:21:24.286Z</time>
      </trkpt>
      <trkpt lat="69.6791" lon="18.90146">
        <ele>1.015397</ele>
        <time>2020-07-16T14:21:29.314Z</time>
      </trkpt>
      <trkpt lat="69.67887" lon="18.90226">
        <ele>0.940397</ele>
        <time>2020-07-16T14:21:35.543Z</time>
      </trkpt>
      <trkpt lat="69.67886" lon="18.90227">
        <ele>0.938192</ele>
        <time>2020-07-16T14:21:35.710Z</time>
      </trkpt>
      <trkpt lat="69.67882" lon="18.90231">
        <ele>0.930706</ele>
        <time>2020-07-16T14:21:38.197Z</time>
      </trkpt>
      <trkpt lat="69.67875" lon="18.9024">
        <ele>0.913991</ele>
        <time>2020-07-16T14:21:43.825Z</time>
      </trkpt>
      <trkpt lat="69.6787" lon="18.90248">
        <ele>0.902128</ele>
        <time>2020-07-16T14:21:47.742Z</time>
      </trkpt>
      <trkpt lat="69.67868" lon="18.9025">
        <ele>0.898435</ele>
        <time>2020-07-16T14:21:48.077Z</time>
      </trkpt>
      <trkpt lat="69.67866" lon="18.90252">
        <ele>0.89283</ele>
        <time>2020-07-16T14:21:48.560Z</time>
      </trkpt>
      <trkpt lat="69.67863" lon="18.90253">
        <ele>0.886333</ele>
        <time>2020-07-16T14:21:49.082Z</time>
      </trkpt>
      <trkpt lat="69.67805" lon="18.90285">
        <ele>0.763386</ele>
        <time>2020-07-16T14:21:59.704Z</time>
      </trkpt>
      <trkpt lat="69.67685" lon="18.90441">
        <ele>0.469441</ele>
        <time>2020-07-16T14:22:23.214Z</time>
      </trkpt>
      <trkpt lat="69.67682" lon="18.90446">
        <ele>0.462335</ele>
        <time>2020-07-16T14:22:23.829Z</time>
      </trkpt>
      <trkpt lat="69.67671" lon="18.90462">
        <ele>0.435324</ele>
        <time>2020-07-16T14:22:25.944Z</time>
      </trkpt>
      <trkpt lat="69.67562" lon="18.90642">
        <ele>0.279988</ele>
        <time>2020-07-16T14:22:48.773Z</time>
      </trkpt>
      <trkpt lat="69.67517" lon="18.90698">
        <ele>0.250849</ele>
        <time>2020-07-16T14:22:57.787Z</time>
      </trkpt>
      <trkpt lat="69.67456" lon="18.90734">
        <ele>0.222824</ele>
        <time>2020-07-16T14:23:09.419Z</time>
      </trkpt>
      <trkpt lat="69.67359" lon="18.90749">
        <ele>0.265757</ele>
        <time>2020-07-16T14:23:27.615Z</time>
      </trkpt>
      <trkpt lat="69.67319" lon="18.90779">
        <ele>0.284344</ele>
        <time>2020-07-16T14:23:35.429Z</time>
      </trkpt>
      <trkpt lat="69.67274" lon="18.90852">
        <ele>0.314373</ele>
        <time>2020-07-16T14:23:44.893Z</time>
      </trkpt>
      <trkpt lat="69.67229" lon="18.90998">
        <ele>0.371371</ele>
        <time>2020-07-16T14:23:57.531Z</time>
      </trkpt>
      <trkpt lat="69.67225" lon="18.91014">
        <ele>0.377052</ele>
        <time>2020-07-16T14:23:58.743Z</time>
      </trkpt>
      <trkpt lat="69.67215" lon="18.91077">
        <ele>0.397576</ele>
        <time>2020-07-16T14:24:03.289Z</time>
      </trkpt>
      <trkpt lat="69.67203" lon="18.91211">
        <ele>0.437846</ele>
        <time>2020-07-16T14:24:12.273Z</time>
      </trkpt>
      <trkpt lat="69.672" lon="18.91279">
        <ele>0.56184</ele>
        <time>2020-07-16T14:24:16.999Z</time>
      </trkpt>
      <trkpt lat="69.67201" lon="18.91288">
        <ele>0.60106</ele>
        <time>2020-07-16T14:24:17.729Z</time>
      </trkpt>
      <trkpt lat="69.67215" lon="18.91474">
        <ele>1.379336</ele>
        <time>2020-07-16T14:24:31.745Z</time>
      </trkpt>
      <trkpt lat="69.6722" lon="18.91642">
        <ele>2.069728</ele>
        <time>2020-07-16T14:24:44.895Z</time>
      </trkpt>
      <trkpt lat="69.67221" lon="18.91661">
        <ele>2.14844</ele>
        <time>2020-07-16T14:24:46.433Z</time>
      </trkpt>
      <trkpt lat="69.67226" lon="18.918">
        <ele>2.882633</ele>
        <time>2020-07-16T14:24:58.714Z</time>
      </trkpt>
      <trkpt lat="69.67226" lon="18.91817">
        <ele>3.027174</ele>
        <time>2020-07-16T14:25:00.266Z</time>
      </trkpt>
      <trkpt lat="69.67222" lon="18.91819">
        <ele>3.130175</ele>
        <time>2020-07-16T14:25:01.147Z</time>
      </trkpt>
      <trkpt lat="69.67217" lon="18.91822">
        <ele>3.262871</ele>
        <time>2020-07-16T14:25:02.329Z</time>
      </trkpt>
      <trkpt lat="69.67213" lon="18.91825">
        <ele>3.359478</ele>
        <time>2020-07-16T14:25:03.258Z</time>
      </trkpt>
      <trkpt lat="69.67182" lon="18.91847">
        <ele>4.140212</ele>
        <time>2020-07-16T14:25:11.821Z</time>
      </trkpt>
      <trkpt lat="69.67173" lon="18.91854">
        <ele>4.364922</ele>
        <time>2020-07-16T14:25:14.136Z</time>
      </trkpt>
      <trkpt lat="69.67166" lon="18.91859">
        <ele>4.556141</ele>
        <time>2020-07-16T14:25:16.432Z</time>
      </trkpt>
      <trkpt lat="69.67131" lon="18.91883">
        <ele>5.435828</ele>
        <time>2020-07-16T14:25:26.279Z</time>
      </trkpt>
      <trkpt lat="69.67124" lon="18.9189">
        <ele>5.629032</ele>
        <time>2020-07-16T14:25:28.927Z</time>
      </trkpt>
      <trkpt lat="69.67112" lon="18.91906">
        <ele>5.943108</ele>
        <time>2020-07-16T14:25:32.887Z</time>
      </trkpt>
      <trkpt lat="69.67101" lon="18.91926">
        <ele>6.2758</ele>
        <time>2020-07-16T14:25:36.080Z</time>
      </trkpt>
      <trkpt lat="69.67097" lon="18.91933">
        <ele>6.398841</ele>
        <time>2020-07-16T14:25:38.041Z</time>
      </trkpt>
      <trkpt lat="69.6702" lon="18.92067">
        <ele>7.508003</ele>
        <time>2020-07-16T14:25:59.839Z</time>
      </trkpt>
      <trkpt lat="69.6701" lon="18.92098">
        <ele>7.621667</ele>
        <time>2020-07-16T14:26:02.491Z</time>
      </trkpt>
      <trkpt lat="69.67007" lon="18.92138">
        <ele>7.730994</ele>
        <time>2020-07-16T14:26:05.259Z</time>
      </trkpt>
      <trkpt lat="69.67008" lon="18.92148">
        <ele>7.756204</ele>
        <time>2020-07-16T14:26:06.681Z</time>
      </trkpt>
      <trkpt lat="69.67004" lon="18.92153">
        <ele>7.785434</ele>
        <time>2020-07-16T14:26:07.417Z</time>
      </trkpt>
      <trkpt lat="69.67002" lon="18.92157">
        <ele>7.807324</ele>
        <time>2020-07-16T14:26:09.446Z</time>
      </trkpt>
      <trkpt lat="69.67001" lon="18.9215">
        <ele>7.827766</ele>
        <time>2020-07-16T14:26:09.813Z</time>
      </trkpt>
      <trkpt lat="69.66999" lon="18.92117">
        <ele>7.916134</ele>
        <time>2020-07-16T14:26:12.399Z</time>
      </trkpt>
      <trkpt lat="69.66999" lon="18.92103">
        <ele>7.951774</ele>
        <time>2020-07-16T14:26:13.112Z</time>
      </trkpt>
      <trkpt lat="69.66999" lon="18.92088">
        <ele>7.992401</ele>
        <time>2020-07-16T14:26:13.932Z</time>
      </trkpt>
      <trkpt lat="69.66994" lon="18.92062">
        <ele>8.072466</ele>
        <time>2020-07-16T14:26:16.531Z</time>
      </trkpt>
      <trkpt lat="69.66989" lon="18.92055">
        <ele>8.112887</ele>
        <time>2020-07-16T14:26:17.270Z</time>
      </trkpt>
      <trkpt lat="69.66978" lon="18.92027">
        <ele>8.223277</ele>
        <time>2020-07-16T14:26:19.433Z</time>
      </trkpt>
      <trkpt lat="69.66973" lon="18.92009">
        <ele>8.285568</ele>
        <time>2020-07-16T14:26:20.935Z</time>
      </trkpt>
      <trkpt lat="69.66967" lon="18.91981">
        <ele>8.369035</ele>
        <time>2020-07-16T14:26:22.910Z</time>
      </trkpt>
      <trkpt lat="69.66964" lon="18.91972">
        <ele>8.385789</ele>
        <time>2020-07-16T14:26:23.569Z</time>
      </trkpt>
      <trkpt lat="69.66951" lon="18.91885">
        <ele>8.38207</ele>
        <time>2020-07-16T14:26:29.184Z</time>
      </trkpt>
      <trkpt lat="69.66949" lon="18.91843">
        <ele>8.380406</ele>
        <time>2020-07-16T14:26:31.319Z</time>
      </trkpt>
      <trkpt lat="69.66946" lon="18.91822">
        <ele>8.379538</ele>
        <time>2020-07-16T14:26:32.563Z</time>
      </trkpt>
      <trkpt lat="69.6693" lon="18.91742">
        <ele>8.375875</ele>
        <time>2020-07-16T14:26:38.183Z</time>
      </trkpt>
      <trkpt lat="69.66921" lon="18.91718">
        <ele>8.374489</ele>
        <time>2020-07-16T14:26:40.775Z</time>
      </trkpt>
      <trkpt lat="69.66898" lon="18.91666">
        <ele>8.371199</ele>
        <time>2020-07-16T14:26:45.488Z</time>
      </trkpt>
      <trkpt lat="69.66875" lon="18.91616">
        <ele>8.367905</ele>
        <time>2020-07-16T14:26:50.790Z</time>
      </trkpt>
      <trkpt lat="69.66871" lon="18.9162">
        <ele>8.367434</ele>
        <time>2020-07-16T14:26:52.155Z</time>
      </trkpt>
      <trkpt lat="69.66866" lon="18.91627">
        <ele>8.366858</ele>
        <time>2020-07-16T14:26:54.207Z</time>
      </trkpt>
      <trkpt lat="69.66864" lon="18.91635">
        <ele>8.366447</ele>
        <time>2020-07-16T14:26:55.353Z</time>
      </trkpt>
      <trkpt lat="69.66859" lon="18.91656">
        <ele>8.363825</ele>
        <time>2020-07-16T14:26:57.568Z</time>
      </trkpt>
      <trkpt lat="69.66856" lon="18.9165">
        <ele>8.360307</ele>
        <time>2020-07-16T14:27:00.427Z</time>
      </trkpt>
      <trkpt lat="69.66854" lon="18.91645">
        <ele>8.358165</ele>
        <time>2020-07-16T14:27:00.828Z</time>
      </trkpt>
      <trkpt lat="69.66852" lon="18.91636">
        <ele>8.354715</ele>
        <time>2020-07-16T14:27:01.481Z</time>
      </trkpt>
      <trkpt lat="69.66847" lon="18.91617">
        <ele>8.347606</ele>
        <time>2020-07-16T14:27:03.428Z</time>
      </trkpt>
      <trkpt lat="69.66843" lon="18.91604">
        <ele>8.342536</ele>
        <time>2020-07-16T14:27:05.385Z</time>
      </trkpt>
      <trkpt lat="69.66789" lon="18.915">
        <ele>8.287141</ele>
        <time>2020-07-16T14:27:16.715Z</time>
      </trkpt>
      <trkpt lat="69.66755" lon="18.91481">
        <ele>8.257186</ele>
        <time>2020-07-16T14:27:22.832Z</time>
      </trkpt>
      <trkpt lat="69.66752" lon="18.91478">
        <ele>8.25483</ele>
        <time>2020-07-16T14:27:24.082Z</time>
      </trkpt>
      <trkpt lat="69.6675" lon="18.91471">
        <ele>8.251802</ele>
        <time>2020-07-16T14:27:26.580Z</time>
      </trkpt>
      <trkpt lat="69.66748" lon="18.91466">
        <ele>8.249742</ele>
        <time>2020-07-16T14:27:28.252Z</time>
      </trkpt>
      <trkpt lat="69.66746" lon="18.91461">
        <ele>8.247621</ele>
        <time>2020-07-16T14:27:29.974Z</time>
      </trkpt>
      <trkpt lat="69.66744" lon="18.91456">
        <ele>8.245391</ele>
        <time>2020-07-16T14:27:31.802Z</time>
      </trkpt>
      <trkpt lat="69.66742" lon="18.91451">
        <ele>8.24302</ele>
        <time>2020-07-16T14:27:33.736Z</time>
      </trkpt>
      <trkpt lat="69.6673" lon="18.91387">
        <ele>8.221653</ele>
        <time>2020-07-16T14:27:38.468Z</time>
      </trkpt>
      <trkpt lat="69.66728" lon="18.91378">
        <ele>8.217846</ele>
        <time>2020-07-16T14:27:39.394Z</time>
      </trkpt>
      <trkpt lat="69.66726" lon="18.91373">
        <ele>8.215786</ele>
        <time>2020-07-16T14:27:39.698Z</time>
      </trkpt>
      <trkpt lat="69.66724" lon="18.91367">
        <ele>8.21333</ele>
        <time>2020-07-16T14:27:40.012Z</time>
      </trkpt>
      <trkpt lat="69.66698" lon="18.91307">
        <ele>7.488114</ele>
        <time>2020-07-16T14:27:45.086Z</time>
      </trkpt>
      <trkpt lat="69.6655" lon="18.91025">
        <ele>3.576296</ele>
        <time>2020-07-16T14:28:08.844Z</time>
      </trkpt>
      <trkpt lat="69.66536" lon="18.91008">
        <ele>3.338088</ele>
        <time>2020-07-16T14:28:11.017Z</time>
      </trkpt>
      <trkpt lat="69.66522" lon="18.90993">
        <ele>3.113847</ele>
        <time>2020-07-16T14:28:13.180Z</time>
      </trkpt>
      <trkpt lat="69.66377" lon="18.909">
        <ele>1.198027</ele>
        <time>2020-07-16T14:28:35.889Z</time>
      </trkpt>
      <trkpt lat="69.66369" lon="18.90896">
        <ele>1.173822</ele>
        <time>2020-07-16T14:28:37.289Z</time>
      </trkpt>
      <trkpt lat="69.66359" lon="18.90895">
        <ele>1.143474</ele>
        <time>2020-07-16T14:28:39.015Z</time>
      </trkpt>
      <trkpt lat="69.66183" lon="18.90803">
        <ele>0.851055</ele>
        <time>2020-07-16T14:29:10.508Z</time>
      </trkpt>
      <trkpt lat="69.66121" lon="18.90794">
        <ele>0.995505</ele>
        <time>2020-07-16T14:29:22.165Z</time>
      </trkpt>
      <trkpt lat="69.66071" lon="18.90801">
        <ele>1.110863</ele>
        <time>2020-07-16T14:29:31.662Z</time>
      </trkpt>
      <trkpt lat="69.66038" lon="18.90806">
        <ele>1.19343</ele>
        <time>2020-07-16T14:29:38.075Z</time>
      </trkpt>
      <trkpt lat="69.65862" lon="18.90828">
        <ele>1.660904</ele>
        <time>2020-07-16T14:30:11.280Z</time>
      </trkpt>
      <trkpt lat="69.6581" lon="18.90807">
        <ele>1.532378</ele>
        <time>2020-07-16T14:30:20.516Z</time>
      </trkpt>
      <trkpt lat="69.65794" lon="18.90793">
        <ele>1.493352</ele>
        <time>2020-07-16T14:30:23.339Z</time>
      </trkpt>
      <trkpt lat="69.65783" lon="18.90782">
        <ele>1.464559</ele>
        <time>2020-07-16T14:30:25.295Z</time>
      </trkpt>
      <trkpt lat="69.65702" lon="18.90661">
        <ele>1.244987</ele>
        <time>2020-07-16T14:30:40.642Z</time>
      </trkpt>
      <trkpt lat="69.65676" lon="18.9062">
        <ele>1.154446</ele>
        <time>2020-07-16T14:30:45.616Z</time>
      </trkpt>
      <trkpt lat="69.65615" lon="18.90528">
        <ele>0.944333</ele>
        <time>2020-07-16T14:30:57.118Z</time>
      </trkpt>
      <trkpt lat="69.65539" lon="18.90421">
        <ele>0.69533</ele>
        <time>2020-07-16T14:31:11.727Z</time>
      </trkpt>
      <trkpt lat="69.65526" lon="18.90411">
        <ele>0.699335</ele>
        <time>2020-07-16T14:31:13.993Z</time>
      </trkpt>
      <trkpt lat="69.65517" lon="18.90405">
        <ele>0.702113</ele>
        <time>2020-07-16T14:31:15.614Z</time>
      </trkpt>
      <trkpt lat="69.65301" lon="18.90347">
        <ele>0.823208</ele>
        <time>2020-07-16T14:31:54.916Z</time>
      </trkpt>
      <trkpt lat="69.65275" lon="18.90339">
        <ele>0.855229</ele>
        <time>2020-07-16T14:31:59.788Z</time>
      </trkpt>
      <trkpt lat="69.65248" lon="18.90334">
        <ele>0.887044</ele>
        <time>2020-07-16T14:32:04.617Z</time>
      </trkpt>
      <trkpt lat="69.65222" lon="18.90325">
        <ele>0.919146</ele>
        <time>2020-07-16T14:32:09.509Z</time>
      </trkpt>
      <trkpt lat="69.65199" lon="18.90315">
        <ele>0.946451</ele>
        <time>2020-07-16T14:32:13.626Z</time>
      </trkpt>
      <trkpt lat="69.65195" lon="18.90312">
        <ele>0.951825</ele>
        <time>2020-07-16T14:32:16.786Z</time>
      </trkpt>
      <trkpt lat="69.6519" lon="18.90308">
        <ele>0.957308</ele>
        <time>2020-07-16T14:32:19.949Z</time>
      </trkpt>
      <trkpt lat="69.65179" lon="18.90297">
        <ele>0.962921</ele>
        <time>2020-07-16T14:32:22.250Z</time>
      </trkpt>
      <trkpt lat="69.65144" lon="18.90258">
        <ele>0.950553</ele>
        <time>2020-07-16T14:32:29.233Z</time>
      </trkpt>
      <trkpt lat="69.65049" lon="18.90102">
        <ele>0.913948</ele>
        <time>2020-07-16T14:32:49.482Z</time>
      </trkpt>
      <trkpt lat="69.65024" lon="18.90059">
        <ele>0.903847</ele>
        <time>2020-07-16T14:32:54.781Z</time>
      </trkpt>
      <trkpt lat="69.64988" lon="18.90001">
        <ele>0.88399</ele>
        <time>2020-07-16T14:33:02.085Z</time>
      </trkpt>
      <trkpt lat="69.64953" lon="18.89945">
        <ele>0.864164</ele>
        <time>2020-07-16T14:33:09.495Z</time>
      </trkpt>
      <trkpt lat="69.64934" lon="18.89916">
        <ele>0.853881</ele>
        <time>2020-07-16T14:33:13.215Z</time>
      </trkpt>
      <trkpt lat="69.64916" lon="18.89892">
        <ele>0.843815</ele>
        <time>2020-07-16T14:33:17.095Z</time>
      </trkpt>
      <trkpt lat="69.64877" lon="18.89883">
        <ele>0.82468</ele>
        <time>2020-07-16T14:33:24.338Z</time>
      </trkpt>
      <trkpt lat="69.64862" lon="18.89885">
        <ele>0.81734</ele>
        <time>2020-07-16T14:33:27.083Z</time>
      </trkpt>
      <trkpt lat="69.64849" lon="18.89888">
        <ele>0.873502</ele>
        <time>2020-07-16T14:33:29.701Z</time>
      </trkpt>
      <trkpt lat="69.64775" lon="18.89931">
        <ele>1.227602</ele>
        <time>2020-07-16T14:33:44.651Z</time>
      </trkpt>
      <trkpt lat="69.64734" lon="18.89951">
        <ele>1.422297</ele>
        <time>2020-07-16T14:33:53.214Z</time>
      </trkpt>
      <trkpt lat="69.64688" lon="18.89974">
        <ele>1.643013</ele>
        <time>2020-07-16T14:34:03.198Z</time>
      </trkpt>
      <trkpt lat="69.64548" lon="18.90037">
        <ele>2.087793</ele>
        <time>2020-07-16T14:34:31.799Z</time>
      </trkpt>
      <trkpt lat="69.64517" lon="18.90052">
        <ele>2.182526</ele>
        <time>2020-07-16T14:34:37.349Z</time>
      </trkpt>
      <trkpt lat="69.64494" lon="18.90064">
        <ele>2.150569</ele>
        <time>2020-07-16T14:34:41.467Z</time>
      </trkpt>
      <trkpt lat="69.64491" lon="18.90065">
        <ele>2.132496</ele>
        <time>2020-07-16T14:34:42.020Z</time>
      </trkpt>
      <trkpt lat="69.64481" lon="18.90069">
        <ele>2.074831</ele>
        <time>2020-07-16T14:34:43.737Z</time>
      </trkpt>
      <trkpt lat="69.64467" lon="18.90076">
        <ele>1.999051</ele>
        <time>2020-07-16T14:34:46.001Z</time>
      </trkpt>
      <trkpt lat="69.64455" lon="18.90082">
        <ele>1.929601</ele>
        <time>2020-07-16T14:34:48.020Z</time>
      </trkpt>
      <trkpt lat="69.64442" lon="18.90086">
        <ele>1.85847</ele>
        <time>2020-07-16T14:34:50.094Z</time>
      </trkpt>
      <trkpt lat="69.64438" lon="18.90089">
        <ele>1.834436</ele>
        <time>2020-07-16T14:34:50.773Z</time>
      </trkpt>
      <trkpt lat="69.64388" lon="18.90099">
        <ele>1.554918</ele>
        <time>2020-07-16T14:34:58.835Z</time>
      </trkpt>
      <trkpt lat="69.6437" lon="18.90099">
        <ele>1.455877</ele>
        <time>2020-07-16T14:35:01.647Z</time>
      </trkpt>
      <trkpt lat="69.64343" lon="18.90098">
        <ele>1.304492</ele>
        <time>2020-07-16T14:35:05.968Z</time>
      </trkpt>
      <trkpt lat="69.64315" lon="18.90096">
        <ele>1.189634</ele>
        <time>2020-07-16T14:35:10.542Z</time>
      </trkpt>
      <trkpt lat="69.6426" lon="18.90093">
        <ele>1.063049</ele>
        <time>2020-07-16T14:35:19.945Z</time>
      </trkpt>
      <trkpt lat="69.64222" lon="18.90092">
        <ele>0.976005</ele>
        <time>2020-07-16T14:35:26.524Z</time>
      </trkpt>
      <trkpt lat="69.6419" lon="18.90089">
        <ele>0.902864</ele>
        <time>2020-07-16T14:35:32.098Z</time>
      </trkpt>
      <trkpt lat="69.64183" lon="18.90089">
        <ele>0.886186</ele>
        <time>2020-07-16T14:35:33.807Z</time>
      </trkpt>
      <trkpt lat="69.64183" lon="18.90073">
        <ele>0.873708</ele>
        <time>2020-07-16T14:35:34.776Z</time>
      </trkpt>
      <trkpt lat="69.64183" lon="18.90065">
        <ele>0.866953</ele>
        <time>2020-07-16T14:35:35.304Z</time>
      </trkpt>
      <trkpt lat="69.64172" lon="18.90063">
        <ele>0.843168</ele>
        <time>2020-07-16T14:35:37.167Z</time>
      </trkpt>
      <trkpt lat="69.64103" lon="18.9006">
        <ele>0.728125</ele>
        <time>2020-07-16T14:35:49.459Z</time>
      </trkpt>
      <trkpt lat="69.64097" lon="18.9006">
        <ele>0.719356</ele>
        <time>2020-07-16T14:35:50.543Z</time>
      </trkpt>
      <trkpt lat="69.64075" lon="18.90065">
        <ele>0.688443</ele>
        <time>2020-07-16T14:35:54.281Z</time>
      </trkpt>
      <trkpt lat="69.64006" lon="18.90108">
        <ele>0.585358</ele>
        <time>2020-07-16T14:36:06.500Z</time>
      </trkpt>
      <trkpt lat="69.63996" lon="18.90116">
        <ele>0.569927</ele>
        <time>2020-07-16T14:36:08.311Z</time>
      </trkpt>
      <trkpt lat="69.63992" lon="18.90119">
        <ele>0.563104</ele>
        <time>2020-07-16T14:36:09.090Z</time>
      </trkpt>
      <trkpt lat="69.63944" lon="18.90152">
        <ele>0.510456</ele>
        <time>2020-07-16T14:36:17.480Z</time>
      </trkpt>
      <trkpt lat="69.63934" lon="18.9016">
        <ele>0.500136</ele>
        <time>2020-07-16T14:36:19.351Z</time>
      </trkpt>
      <trkpt lat="69.63935" lon="18.90169">
        <ele>0.496913</ele>
        <time>2020-07-16T14:36:19.995Z</time>
      </trkpt>
      <trkpt lat="69.63936" lon="18.90183">
        <ele>0.492258</ele>
        <time>2020-07-16T14:36:20.904Z</time>
      </trkpt>
      <trkpt lat="69.63932" lon="18.90187">
        <ele>0.488577</ele>
        <time>2020-07-16T14:36:21.565Z</time>
      </trkpt>
      <trkpt lat="69.63904" lon="18.90206">
        <ele>0.461907</ele>
        <time>2020-07-16T14:36:26.549Z</time>
      </trkpt>
      <trkpt lat="69.63882" lon="18.90224">
        <ele>0.43991</ele>
        <time>2020-07-16T14:36:30.654Z</time>
      </trkpt>
      <trkpt lat="69.63865" lon="18.90236">
        <ele>0.424102</ele>
        <time>2020-07-16T14:36:33.609Z</time>
      </trkpt>
      <trkpt lat="69.63761" lon="18.90276">
        <ele>0.725736</ele>
        <time>2020-07-16T14:36:52.652Z</time>
      </trkpt>
      <trkpt lat="69.63709" lon="18.90323">
        <ele>1.081195</ele>
        <time>2020-07-16T14:37:03.411Z</time>
      </trkpt>
      <trkpt lat="69.63674" lon="18.9037">
        <ele>1.338552</ele>
        <time>2020-07-16T14:37:11.693Z</time>
      </trkpt>
      <trkpt lat="69.63652" lon="18.90399">
        <ele>1.497338</ele>
        <time>2020-07-16T14:37:16.751Z</time>
      </trkpt>
      <trkpt lat="69.63623" lon="18.90437">
        <ele>1.920144</ele>
        <time>2020-07-16T14:37:23.502Z</time>
      </trkpt>
      <trkpt lat="69.63584" lon="18.90488">
        <ele>2.623897</ele>
        <time>2020-07-16T14:37:33.237Z</time>
      </trkpt>
      <trkpt lat="69.63564" lon="18.90515">
        <ele>2.989489</ele>
        <time>2020-07-16T14:37:38.715Z</time>
      </trkpt>
      <trkpt lat="69.63505" lon="18.90596">
        <ele>4.063893</ele>
        <time>2020-07-16T14:37:53.889Z</time>
      </trkpt>
      <trkpt lat="69.63484" lon="18.90623">
        <ele>4.43928</ele>
        <time>2020-07-16T14:37:59.553Z</time>
      </trkpt>
      <trkpt lat="69.63477" lon="18.90634">
        <ele>4.542617</ele>
        <time>2020-07-16T14:38:01.501Z</time>
      </trkpt>
      <trkpt lat="69.63473" lon="18.90642">
        <ele>4.576881</ele>
        <time>2020-07-16T14:38:02.609Z</time>
      </trkpt>
      <trkpt lat="69.63469" lon="18.90646">
        <ele>4.607226</ele>
        <time>2020-07-16T14:38:04.016Z</time>
      </trkpt>
      <trkpt lat="69.63442" lon="18.90683">
        <ele>4.821393</ele>
        <time>2020-07-16T14:38:10.808Z</time>
      </trkpt>
      <trkpt lat="69.63413" lon="18.90744">
        <ele>5.07934</ele>
        <time>2020-07-16T14:38:18.780Z</time>
      </trkpt>
      <trkpt lat="69.63351" lon="18.90935">
        <ele>5.728281</ele>
        <time>2020-07-16T14:38:35.668Z</time>
      </trkpt>
      <trkpt lat="69.63347" lon="18.90949">
        <ele>5.773682</ele>
        <time>2020-07-16T14:38:37.075Z</time>
      </trkpt>
      <trkpt lat="69.63327" lon="18.91011">
        <ele>5.502788</ele>
        <time>2020-07-16T14:38:41.604Z</time>
      </trkpt>
      <trkpt lat="69.63318" lon="18.91038">
        <ele>5.351228</ele>
        <time>2020-07-16T14:38:44.014Z</time>
      </trkpt>
      <trkpt lat="69.63312" lon="18.91047">
        <ele>5.272741</ele>
        <time>2020-07-16T14:38:45.025Z</time>
      </trkpt>
      <trkpt lat="69.63307" lon="18.91013">
        <ele>5.128541</ele>
        <time>2020-07-16T14:38:46.799Z</time>
      </trkpt>
      <trkpt lat="69.63304" lon="18.91018">
        <ele>5.089202</ele>
        <time>2020-07-16T14:38:47.323Z</time>
      </trkpt>
      <trkpt lat="69.63297" lon="18.91029">
        <ele>4.997124</ele>
        <time>2020-07-16T14:38:48.900Z</time>
      </trkpt>
      <trkpt lat="69.63296" lon="18.91032">
        <ele>4.977262</ele>
        <time>2020-07-16T14:38:49.155Z</time>
      </trkpt>
      <trkpt lat="69.63284" lon="18.91046">
        <ele>4.824219</ele>
        <time>2020-07-16T14:38:51.090Z</time>
      </trkpt>
      <trkpt lat="69.63224" lon="18.91127">
        <ele>4.064801</ele>
        <time>2020-07-16T14:39:00.778Z</time>
      </trkpt>
      <trkpt lat="69.63205" lon="18.9116">
        <ele>3.800193</ele>
        <time>2020-07-16T14:39:03.949Z</time>
      </trkpt>
      <trkpt lat="69.63195" lon="18.91172">
        <ele>3.679573</ele>
        <time>2020-07-16T14:39:05.536Z</time>
      </trkpt>
      <trkpt lat="69.6319" lon="18.91177">
        <ele>3.622219</ele>
        <time>2020-07-16T14:39:06.234Z</time>
      </trkpt>
      <trkpt lat="69.63176" lon="18.91189">
        <ele>3.460592</ele>
        <time>2020-07-16T14:39:08.186Z</time>
      </trkpt>
      <trkpt lat="69.6313" lon="18.91218">
        <ele>2.929038</ele>
        <time>2020-07-16T14:39:15.365Z</time>
      </trkpt>
      <trkpt lat="69.63117" lon="18.91232">
        <ele>2.768465</ele>
        <time>2020-07-16T14:39:17.546Z</time>
      </trkpt>
      <trkpt lat="69.63112" lon="18.91239">
        <ele>2.709175</ele>
        <time>2020-07-16T14:39:18.329Z</time>
      </trkpt>
      <trkpt lat="69.63083" lon="18.913">
        <ele>2.304758</ele>
        <time>2020-07-16T14:39:23.954Z</time>
      </trkpt>
      <trkpt lat="69.63061" lon="18.91375">
        <ele>1.924506</ele>
        <time>2020-07-16T14:39:29.339Z</time>
      </trkpt>
      <trkpt lat="69.63054" lon="18.91402">
        <ele>1.792611</ele>
        <time>2020-07-16T14:39:31.228Z</time>
      </trkpt>
      <trkpt lat="69.63049" lon="18.91425">
        <ele>1.700261</ele>
        <time>2020-07-16T14:39:32.847Z</time>
      </trkpt>
      <trkpt lat="69.63019" lon="18.9154">
        <ele>1.819038</ele>
        <time>2020-07-16T14:39:41.050Z</time>
      </trkpt>
      <trkpt lat="69.6301" lon="18.91579">
        <ele>1.857824</ele>
        <time>2020-07-16T14:39:44.128Z</time>
      </trkpt>
      <trkpt lat="69.63006" lon="18.91593">
        <ele>1.872093</ele>
        <time>2020-07-16T14:39:45.226Z</time>
      </trkpt>
      <trkpt lat="69.6299" lon="18.91665">
        <ele>1.943385</ele>
        <time>2020-07-16T14:39:50.834Z</time>
      </trkpt>
      <trkpt lat="69.62983" lon="18.9172">
        <ele>1.991612</ele>
        <time>2020-07-16T14:39:54.653Z</time>
      </trkpt>
      <trkpt lat="69.62985" lon="18.91737">
        <ele>2.005272</ele>
        <time>2020-07-16T14:39:55.830Z</time>
      </trkpt>
      <trkpt lat="69.6298" lon="18.91757">
        <ele>2.024817</ele>
        <time>2020-07-16T14:39:58.495Z</time>
      </trkpt>
      <trkpt lat="69.62963" lon="18.91848">
        <ele>2.110373</ele>
        <time>2020-07-16T14:40:10.166Z</time>
      </trkpt>
      <trkpt lat="69.62963" lon="18.91858">
        <ele>2.118663</ele>
        <time>2020-07-16T14:40:11.233Z</time>
      </trkpt>
      <trkpt lat="69.62963" lon="18.91859">
        <ele>2.120153</ele>
        <time>2020-07-16T14:40:11.440Z</time>
      </trkpt>
      <trkpt lat="69.62972" lon="18.919">
        <ele>2.252539</ele>
        <time>2020-07-16T14:40:15.853Z</time>
      </trkpt>
      <trkpt lat="69.62975" lon="18.91908">
        <ele>2.290272</ele>
        <time>2020-07-16T14:40:17.025Z</time>
      </trkpt>
      <trkpt lat="69.62985" lon="18.91916">
        <ele>2.385828</ele>
        <time>2020-07-16T14:40:20.064Z</time>
      </trkpt>
      <trkpt lat="69.62999" lon="18.91918">
        <ele>2.506921</ele>
        <time>2020-07-16T14:40:23.718Z</time>
      </trkpt>
      <trkpt lat="69.63022" lon="18.91976">
        <ele>2.776019</ele>
        <time>2020-07-16T14:40:31.972Z</time>
      </trkpt>
      <trkpt lat="69.63048" lon="18.92051">
        <ele>3.105303</ele>
        <time>2020-07-16T14:40:42.100Z</time>
      </trkpt>
      <trkpt lat="69.63057" lon="18.92056">
        <ele>3.178207</ele>
        <time>2020-07-16T14:40:44.397Z</time>
      </trkpt>
      <trkpt lat="69.63074" lon="18.91998">
        <ele>3.409602</ele>
        <time>2020-07-16T14:40:51.161Z</time>
      </trkpt>
      <trkpt lat="69.63092" lon="18.92042">
        <ele>3.617765</ele>
        <time>2020-07-16T14:40:56.280Z</time>
      </trkpt>
      <trkpt lat="69.63105" lon="18.92073">
        <ele>3.68688</ele>
        <time>2020-07-16T14:40:59.561Z</time>
      </trkpt>
      <trkpt lat="69.6317" lon="18.92229">
        <ele>3.336549</ele>
        <time>2020-07-16T14:41:14.629Z</time>
      </trkpt>
      <trkpt lat="69.6317" lon="18.92231">
        <ele>3.333061</ele>
        <time>2020-07-16T14:41:14.798Z</time>
      </trkpt>
      <trkpt lat="69.63173" lon="18.92237">
        <ele>3.320204</ele>
        <time>2020-07-16T14:41:15.319Z</time>
      </trkpt>
      <trkpt lat="69.63176" lon="18.92247">
        <ele>3.299082</ele>
        <time>2020-07-16T14:41:16.148Z</time>
      </trkpt>
      <trkpt lat="69.63177" lon="18.92248">
        <ele>3.294776</ele>
        <time>2020-07-16T14:41:16.293Z</time>
      </trkpt>
      <trkpt lat="69.63182" lon="18.92257">
        <ele>3.273092</ele>
        <time>2020-07-16T14:41:16.996Z</time>
      </trkpt>
      <trkpt lat="69.6323" lon="18.92377">
        <ele>3.009614</ele>
        <time>2020-07-16T14:41:26.994Z</time>
      </trkpt>
      <trkpt lat="69.63235" lon="18.9239">
        <ele>2.980992</ele>
        <time>2020-07-16T14:41:27.930Z</time>
      </trkpt>
      <trkpt lat="69.63239" lon="18.92399">
        <ele>2.959058</ele>
        <time>2020-07-16T14:41:28.606Z</time>
      </trkpt>
      <trkpt lat="69.6327" lon="18.92475">
        <ele>2.74018</ele>
        <time>2020-07-16T14:41:34.978Z</time>
      </trkpt>
      <trkpt lat="69.6328" lon="18.92499">
        <ele>2.668627</ele>
        <time>2020-07-16T14:41:37.143Z</time>
      </trkpt>
      <trkpt lat="69.63284" lon="18.92508">
        <ele>2.642863</ele>
        <time>2020-07-16T14:41:37.924Z</time>
      </trkpt>
      <trkpt lat="69.63287" lon="18.92518">
        <ele>2.615348</ele>
        <time>2020-07-16T14:41:38.642Z</time>
      </trkpt>
      <trkpt lat="69.63311" lon="18.92576">
        <ele>2.450303</ele>
        <time>2020-07-16T14:41:43.543Z</time>
      </trkpt>
      <trkpt lat="69.63314" lon="18.92585">
        <ele>2.42438</ele>
        <time>2020-07-16T14:41:44.259Z</time>
      </trkpt>
      <trkpt lat="69.63321" lon="18.92595">
        <ele>2.381762</ele>
        <time>2020-07-16T14:41:45.592Z</time>
      </trkpt>
      <trkpt lat="69.63345" lon="18.92615">
        <ele>2.249779</ele>
        <time>2020-07-16T14:41:49.745Z</time>
      </trkpt>
      <trkpt lat="69.63346" lon="18.92614">
        <ele>2.243399</ele>
        <time>2020-07-16T14:41:49.908Z</time>
      </trkpt>
      <trkpt lat="69.63346" lon="18.92611">
        <ele>2.238246</ele>
        <time>2020-07-16T14:41:50.065Z</time>
      </trkpt>
      <trkpt lat="69.63347" lon="18.92603">
        <ele>2.222337</ele>
        <time>2020-07-16T14:41:50.533Z</time>
      </trkpt>
      <trkpt lat="69.63355" lon="18.92607">
        <ele>2.179931</ele>
        <time>2020-07-16T14:41:51.939Z</time>
      </trkpt>
      <trkpt lat="69.63367" lon="18.9261">
        <ele>2.112011</ele>
        <time>2020-07-16T14:41:54.077Z</time>
      </trkpt>
      <trkpt lat="69.6337" lon="18.92612">
        <ele>2.094675</ele>
        <time>2020-07-16T14:41:54.616Z</time>
      </trkpt>
      <trkpt lat="69.63377" lon="18.92614">
        <ele>2.061623</ele>
        <time>2020-07-16T14:41:55.706Z</time>
      </trkpt>
      <trkpt lat="69.63382" lon="18.92619">
        <ele>2.030382</ele>
        <time>2020-07-16T14:41:56.734Z</time>
      </trkpt>
      <trkpt lat="69.6339" lon="18.92625">
        <ele>2.028257</ele>
        <time>2020-07-16T14:41:58.522Z</time>
      </trkpt>
      <trkpt lat="69.63415" lon="18.92671">
        <ele>2.273919</ele>
        <time>2020-07-16T14:42:04.166Z</time>
      </trkpt>
      <trkpt lat="69.63444" lon="18.92738">
        <ele>2.578821</ele>
        <time>2020-07-16T14:42:12.245Z</time>
      </trkpt>
      <trkpt lat="69.63447" lon="18.92743">
        <ele>2.60325</ele>
        <time>2020-07-16T14:42:13.082Z</time>
      </trkpt>
      <trkpt lat="69.63505" lon="18.92839">
        <ele>3.154173</ele>
        <time>2020-07-16T14:42:27.635Z</time>
      </trkpt>
      <trkpt lat="69.6352" lon="18.92853">
        <ele>3.283264</ele>
        <time>2020-07-16T14:42:30.817Z</time>
      </trkpt>
      <trkpt lat="69.63531" lon="18.92864">
        <ele>3.38147</ele>
        <time>2020-07-16T14:42:33.287Z</time>
      </trkpt>
      <trkpt lat="69.63545" lon="18.9288">
        <ele>3.48183</ele>
        <time>2020-07-16T14:42:36.423Z</time>
      </trkpt>
      <trkpt lat="69.63557" lon="18.92896">
        <ele>3.508721</ele>
        <time>2020-07-16T14:42:38.722Z</time>
      </trkpt>
      <trkpt lat="69.63562" lon="18.92905">
        <ele>3.521808</ele>
        <time>2020-07-16T14:42:40.101Z</time>
      </trkpt>
      <trkpt lat="69.63567" lon="18.92912">
        <ele>3.531931</ele>
        <time>2020-07-16T14:42:40.969Z</time>
      </trkpt>
      <trkpt lat="69.63569" lon="18.92917">
        <ele>3.538331</ele>
        <time>2020-07-16T14:42:41.494Z</time>
      </trkpt>
      <trkpt lat="69.63582" lon="18.92945">
        <ele>3.571558</ele>
        <time>2020-07-16T14:42:44.573Z</time>
      </trkpt>
      <trkpt lat="69.63608" lon="18.93035">
        <ele>3.653878</ele>
        <time>2020-07-16T14:42:52.002Z</time>
      </trkpt>
      <trkpt lat="69.63614" lon="18.93068">
        <ele>3.680851</ele>
        <time>2020-07-16T14:42:54.516Z</time>
      </trkpt>
      <trkpt lat="69.63617" lon="18.93083">
        <ele>3.692602</ele>
        <time>2020-07-16T14:42:55.523Z</time>
      </trkpt>
      <trkpt lat="69.63621" lon="18.93101">
        <ele>3.707245</ele>
        <time>2020-07-16T14:42:57.130Z</time>
      </trkpt>
      <trkpt lat="69.63616" lon="18.93107">
        <ele>3.716718</ele>
        <time>2020-07-16T14:42:57.856Z</time>
      </trkpt>
      <trkpt lat="69.63614" lon="18.93115">
        <ele>3.72415</ele>
        <time>2020-07-16T14:42:58.587Z</time>
      </trkpt>
      <trkpt lat="69.63636" lon="18.93231">
        <ele>3.816869</ele>
        <time>2020-07-16T14:43:07.293Z</time>
      </trkpt>
      <trkpt lat="69.63639" lon="18.93249">
        <ele>3.831387</ele>
        <time>2020-07-16T14:43:08.444Z</time>
      </trkpt>
      <trkpt lat="69.63643" lon="18.93265">
        <ele>3.837738</ele>
        <time>2020-07-16T14:43:09.732Z</time>
      </trkpt>
      <trkpt lat="69.63664" lon="18.93327">
        <ele>3.764646</ele>
        <time>2020-07-16T14:43:14.994Z</time>
      </trkpt>
      <trkpt lat="69.63693" lon="18.93367">
        <ele>3.688731</ele>
        <time>2020-07-16T14:43:20.704Z</time>
      </trkpt>
      <trkpt lat="69.63698" lon="18.93371">
        <ele>3.675417</ele>
        <time>2020-07-16T14:43:21.594Z</time>
      </trkpt>
      <trkpt lat="69.637" lon="18.93349">
        <ele>3.656854</ele>
        <time>2020-07-16T14:43:23.127Z</time>
      </trkpt>
      <trkpt lat="69.63705" lon="18.93356">
        <ele>3.642353</ele>
        <time>2020-07-16T14:43:24.011Z</time>
      </trkpt>
      <trkpt lat="69.6372" lon="18.93375">
        <ele>3.603906</ele>
        <time>2020-07-16T14:43:26.770Z</time>
      </trkpt>
      <trkpt lat="69.63722" lon="18.93377">
        <ele>3.597921</ele>
        <time>2020-07-16T14:43:27.151Z</time>
      </trkpt>
      <trkpt lat="69.63759" lon="18.93423">
        <ele>3.501754</ele>
        <time>2020-07-16T14:43:34.036Z</time>
      </trkpt>
      <trkpt lat="69.63779" lon="18.9345">
        <ele>3.449676</ele>
        <time>2020-07-16T14:43:37.972Z</time>
      </trkpt>
      <trkpt lat="69.6382" lon="18.93513">
        <ele>3.371463</ele>
        <time>2020-07-16T14:43:46.199Z</time>
      </trkpt>
      <trkpt lat="69.63833" lon="18.93535">
        <ele>3.35094</ele>
        <time>2020-07-16T14:43:48.985Z</time>
      </trkpt>
      <trkpt lat="69.63889" lon="18.93628">
        <ele>3.266359</ele>
        <time>2020-07-16T14:44:00.189Z</time>
      </trkpt>
      <trkpt lat="69.63923" lon="18.93687">
        <ele>3.214585</ele>
        <time>2020-07-16T14:44:07.076Z</time>
      </trkpt>
      <trkpt lat="69.63939" lon="18.93716">
        <ele>3.189263</ele>
        <time>2020-07-16T14:44:10.352Z</time>
      </trkpt>
      <trkpt lat="69.63957" lon="18.93747">
        <ele>3.167729</ele>
        <time>2020-07-16T14:44:13.953Z</time>
      </trkpt>
      <trkpt lat="69.63974" lon="18.93781">
        <ele>3.152723</ele>
        <time>2020-07-16T14:44:17.419Z</time>
      </trkpt>
      <trkpt lat="69.6398" lon="18.93793">
        <ele>3.147256</ele>
        <time>2020-07-16T14:44:18.850Z</time>
      </trkpt>
      <trkpt lat="69.64027" lon="18.9388">
        <ele>3.106557</ele>
        <time>2020-07-16T14:44:28.170Z</time>
      </trkpt>
      <trkpt lat="69.6404" lon="18.939">
        <ele>3.095977</ele>
        <time>2020-07-16T14:44:30.783Z</time>
      </trkpt>
      <trkpt lat="69.64042" lon="18.93905">
        <ele>3.093929</ele>
        <time>2020-07-16T14:44:31.278Z</time>
      </trkpt>
      <trkpt lat="69.64105" lon="18.94016">
        <ele>3.056346</ele>
        <time>2020-07-16T14:44:44.983Z</time>
      </trkpt>
      <trkpt lat="69.64114" lon="18.94032">
        <ele>3.078689</ele>
        <time>2020-07-16T14:44:46.741Z</time>
      </trkpt>
      <trkpt lat="69.64124" lon="18.94052">
        <ele>3.105448</ele>
        <time>2020-07-16T14:44:49.163Z</time>
      </trkpt>
      <trkpt lat="69.64171" lon="18.94134">
        <ele>3.226895</ele>
        <time>2020-07-16T14:44:59.739Z</time>
      </trkpt>
      <trkpt lat="69.64178" lon="18.94145">
        <ele>3.245111</ele>
        <time>2020-07-16T14:45:01.282Z</time>
      </trkpt>
      <trkpt lat="69.64189" lon="18.94161">
        <ele>3.272588</ele>
        <time>2020-07-16T14:45:03.400Z</time>
      </trkpt>
      <trkpt lat="69.64195" lon="18.94168">
        <ele>3.286677</ele>
        <time>2020-07-16T14:45:04.795Z</time>
      </trkpt>
      <trkpt lat="69.64243" lon="18.94208">
        <ele>3.396542</ele>
        <time>2020-07-16T14:45:13.471Z</time>
      </trkpt>
      <trkpt lat="69.64248" lon="18.94208">
        <ele>3.406917</ele>
        <time>2020-07-16T14:45:14.586Z</time>
      </trkpt>
      <trkpt lat="69.64252" lon="18.94221">
        <ele>3.421474</ele>
        <time>2020-07-16T14:45:15.635Z</time>
      </trkpt>
      <trkpt lat="69.64264" lon="18.9425">
        <ele>3.45595</ele>
        <time>2020-07-16T14:45:18.636Z</time>
      </trkpt>
      <trkpt lat="69.64283" lon="18.94299">
        <ele>3.512107</ele>
        <time>2020-07-16T14:45:23.330Z</time>
      </trkpt>
      <trkpt lat="69.6431" lon="18.94369">
        <ele>3.592513</ele>
        <time>2020-07-16T14:45:30.296Z</time>
      </trkpt>
      <trkpt lat="69.64353" lon="18.94479">
        <ele>3.718527</ele>
        <time>2020-07-16T14:45:41.007Z</time>
      </trkpt>
      <trkpt lat="69.64359" lon="18.94498">
        <ele>3.737665</ele>
        <time>2020-07-16T14:45:42.612Z</time>
      </trkpt>
      <trkpt lat="69.64416" lon="18.94644">
        <ele>4.002977</ele>
        <time>2020-07-16T14:45:56.320Z</time>
      </trkpt>
      <trkpt lat="69.64459" lon="18.9475">
        <ele>4.297911</ele>
        <time>2020-07-16T14:46:07.250Z</time>
      </trkpt>
      <trkpt lat="69.64459" lon="18.94752">
        <ele>4.302192</ele>
        <time>2020-07-16T14:46:07.463Z</time>
      </trkpt>
      <trkpt lat="69.64467" lon="18.94775">
        <ele>4.359294</ele>
        <time>2020-07-16T14:46:09.649Z</time>
      </trkpt>
      <trkpt lat="69.64474" lon="18.94794">
        <ele>4.410929</ele>
        <time>2020-07-16T14:46:11.626Z</time>
      </trkpt>
      <trkpt lat="69.64502" lon="18.94868">
        <ele>4.609769</ele>
        <time>2020-07-16T14:46:19.246Z</time>
      </trkpt>
      <trkpt lat="69.64506" lon="18.94876">
        <ele>4.63346</ele>
        <time>2020-07-16T14:46:20.217Z</time>
      </trkpt>
      <trkpt lat="69.64508" lon="18.94883">
        <ele>4.650584</ele>
        <time>2020-07-16T14:46:20.909Z</time>
      </trkpt>
      <trkpt lat="69.64541" lon="18.94964">
        <ele>4.991265</ele>
        <time>2020-07-16T14:46:29.743Z</time>
      </trkpt>
      <trkpt lat="69.64549" lon="18.94987">
        <ele>5.124476</ele>
        <time>2020-07-16T14:46:32.075Z</time>
      </trkpt>
      <trkpt lat="69.64603" lon="18.95126">
        <ele>5.942858</ele>
        <time>2020-07-16T14:46:47.178Z</time>
      </trkpt>
      <trkpt lat="69.64611" lon="18.95146">
        <ele>6.061595</ele>
        <time>2020-07-16T14:46:49.626Z</time>
      </trkpt>
      <trkpt lat="69.6462" lon="18.95161">
        <ele>6.18038</ele>
        <time>2020-07-16T14:46:51.847Z</time>
      </trkpt>
      <trkpt lat="69.64696" lon="18.9529">
        <ele>7.344221</ele>
        <time>2020-07-16T14:47:11.646Z</time>
      </trkpt>
      <trkpt lat="69.64704" lon="18.95298">
        <ele>7.487554</ele>
        <time>2020-07-16T14:47:13.828Z</time>
      </trkpt>
      <trkpt lat="69.64771" lon="18.95377">
        <ele>8.667184</ele>
        <time>2020-07-16T14:47:30.806Z</time>
      </trkpt>
      <trkpt lat="69.6478" lon="18.95388">
        <ele>8.828416</ele>
        <time>2020-07-16T14:47:33.200Z</time>
      </trkpt>
      <trkpt lat="69.6479" lon="18.95401">
        <ele>9.00789</ele>
        <time>2020-07-16T14:47:35.785Z</time>
      </trkpt>
      <trkpt lat="69.64846" lon="18.95463">
        <ele>9.755845</ele>
        <time>2020-07-16T14:47:50.140Z</time>
      </trkpt>
      <trkpt lat="69.64858" lon="18.95476">
        <ele>9.755845</ele>
        <time>2020-07-16T14:47:52.928Z</time>
      </trkpt>
      <trkpt lat="69.64866" lon="18.95485">
        <ele>9.755845</ele>
        <time>2020-07-16T14:47:54.807Z</time>
      </trkpt>
      <trkpt lat="69.64874" lon="18.95494">
        <ele>9.755845</ele>
        <time>2020-07-16T14:47:56.651Z</time>
      </trkpt>
      <trkpt lat="69.64879" lon="18.95499">
        <ele>9.755845</ele>
        <time>2020-07-16T14:47:58.037Z</time>
      </trkpt>
      <trkpt lat="69.6489" lon="18.9551">
        <ele>9.755845</ele>
        <time>2020-07-16T14:48:00.548Z</time>
      </trkpt>
      <trkpt lat="69.64902" lon="18.95524">
        <ele>9.755845</ele>
        <time>2020-07-16T14:48:03.309Z</time>
      </trkpt>
      <trkpt lat="69.64913" lon="18.95535">
        <ele>9.755845</ele>
        <time>2020-07-16T14:48:06.158Z</time>
      </trkpt>
      <trkpt lat="69.64952" lon="18.95579">
        <ele>9.755845</ele>
        <time>2020-07-16T14:48:14.912Z</time>
      </trkpt>
      <trkpt lat="69.6495" lon="18.95593">
        <ele>9.755845</ele>
        <time>2020-07-16T14:48:18.487Z</time>
      </trkpt>
      <trkpt lat="69.64945" lon="18.95588">
        <ele>9.755845</ele>
        <time>2020-07-16T14:48:21.813Z</time>
      </trkpt>
    </trkseg>
  </trk>
  <trk>
    <name><![CDATA[6bis_Tromsø-Kiruna: 483km]]></name>
    <trkseg>
      <trkpt lat="69.66463" lon="18.95847">
        <ele>79.63904</ele>
        <time>2020-08-27T10:23:13.897Z</time>
      </trkpt>
      <trkpt lat="69.66539" lon="18.95893">
        <ele>79.63904</ele>
        <time>2020-08-27T10:23:39.034Z</time>
      </trkpt>
      <trkpt lat="69.66546" lon="18.95883">
        <ele>79.63904</ele>
        <time>2020-08-27T10:23:41.616Z</time>
      </trkpt>
      <trkpt lat="69.66552" lon="18.9583">
        <ele>80.690565</ele>
        <time>2020-08-27T10:23:48.378Z</time>
      </trkpt>
      <trkpt lat="69.66553" lon="18.95814">
        <ele>81.090331</ele>
        <time>2020-08-27T10:23:51.468Z</time>
      </trkpt>
      <trkpt lat="69.66554" lon="18.95798">
        <ele>81.488818</ele>
        <time>2020-08-27T10:23:53.947Z</time>
      </trkpt>
      <trkpt lat="69.66557" lon="18.95775">
        <ele>82.058574</ele>
        <time>2020-08-27T10:23:56.382Z</time>
      </trkpt>
      <trkpt lat="69.6656" lon="18.95743">
        <ele>82.868624</ele>
        <time>2020-08-27T10:24:00.461Z</time>
      </trkpt>
      <trkpt lat="69.66562" lon="18.95722">
        <ele>83.367691</ele>
        <time>2020-08-27T10:24:04.433Z</time>
      </trkpt>
      <trkpt lat="69.66563" lon="18.95681">
        <ele>84.362002</ele>
        <time>2020-08-27T10:24:10.830Z</time>
      </trkpt>
      <trkpt lat="69.66559" lon="18.95666">
        <ele>84.788714</ele>
        <time>2020-08-27T10:24:13.234Z</time>
      </trkpt>
      <trkpt lat="69.66515" lon="18.95629">
        <ele>87.969166</ele>
        <time>2020-08-27T10:24:32.880Z</time>
      </trkpt>
      <trkpt lat="69.66502" lon="18.95615">
        <ele>88.910614</ele>
        <time>2020-08-27T10:24:40.261Z</time>
      </trkpt>
      <trkpt lat="69.66478" lon="18.95589">
        <ele>90.675201</ele>
        <time>2020-08-27T10:24:50.649Z</time>
      </trkpt>
      <trkpt lat="69.66445" lon="18.95555">
        <ele>92.731841</ele>
        <time>2020-08-27T10:25:05.681Z</time>
      </trkpt>
      <trkpt lat="69.66424" lon="18.95534">
        <ele>93.724362</ele>
        <time>2020-08-27T10:25:13.913Z</time>
      </trkpt>
      <trkpt lat="69.66408" lon="18.95521">
        <ele>94.4646</ele>
        <time>2020-08-27T10:25:19.380Z</time>
      </trkpt>
      <trkpt lat="69.66385" lon="18.95506">
        <ele>95.522288</ele>
        <time>2020-08-27T10:25:27.264Z</time>
      </trkpt>
      <trkpt lat="69.66372" lon="18.95497">
        <ele>96.141035</ele>
        <time>2020-08-27T10:25:31.995Z</time>
      </trkpt>
      <trkpt lat="69.66355" lon="18.95486">
        <ele>96.898676</ele>
        <time>2020-08-27T10:25:37.672Z</time>
      </trkpt>
      <trkpt lat="69.66271" lon="18.95418">
        <ele>100.395296</ele>
        <time>2020-08-27T10:26:02.102Z</time>
      </trkpt>
      <trkpt lat="69.66223" lon="18.95271">
        <ele>101.745834</ele>
        <time>2020-08-27T10:26:18.947Z</time>
      </trkpt>
      <trkpt lat="69.66218" lon="18.95256">
        <ele>101.880633</ele>
        <time>2020-08-27T10:26:20.936Z</time>
      </trkpt>
      <trkpt lat="69.66214" lon="18.95247">
        <ele>101.97602</ele>
        <time>2020-08-27T10:26:22.411Z</time>
      </trkpt>
      <trkpt lat="69.66144" lon="18.95069">
        <ele>103.583709</ele>
        <time>2020-08-27T10:26:44.304Z</time>
      </trkpt>
      <trkpt lat="69.66128" lon="18.95025">
        <ele>103.687672</ele>
        <time>2020-08-27T10:26:50.121Z</time>
      </trkpt>
      <trkpt lat="69.66122" lon="18.95012">
        <ele>103.718659</ele>
        <time>2020-08-27T10:26:51.518Z</time>
      </trkpt>
      <trkpt lat="69.66086" lon="18.94865">
        <ele>104.003412</ele>
        <time>2020-08-27T10:27:04.902Z</time>
      </trkpt>
      <trkpt lat="69.66085" lon="18.94862">
        <ele>104.01059</ele>
        <time>2020-08-27T10:27:05.354Z</time>
      </trkpt>
      <trkpt lat="69.66075" lon="18.94824">
        <ele>104.085846</ele>
        <time>2020-08-27T10:27:08.227Z</time>
      </trkpt>
      <trkpt lat="69.66037" lon="18.94678">
        <ele>104.241215</ele>
        <time>2020-08-27T10:27:19.632Z</time>
      </trkpt>
      <trkpt lat="69.66031" lon="18.94671">
        <ele>104.126323</ele>
        <time>2020-08-27T10:27:20.556Z</time>
      </trkpt>
      <trkpt lat="69.66025" lon="18.94667">
        <ele>104.008274</ele>
        <time>2020-08-27T10:27:21.483Z</time>
      </trkpt>
      <trkpt lat="69.6601" lon="18.94674">
        <ele>103.700537</ele>
        <time>2020-08-27T10:27:23.974Z</time>
      </trkpt>
      <trkpt lat="69.66004" lon="18.94678">
        <ele>103.578973</ele>
        <time>2020-08-27T10:27:24.935Z</time>
      </trkpt>
      <trkpt lat="69.66005" lon="18.9466">
        <ele>103.458629</ele>
        <time>2020-08-27T10:27:25.925Z</time>
      </trkpt>
      <trkpt lat="69.66008" lon="18.94582">
        <ele>102.927401</ele>
        <time>2020-08-27T10:27:29.838Z</time>
      </trkpt>
      <trkpt lat="69.66009" lon="18.94557">
        <ele>102.761118</ele>
        <time>2020-08-27T10:27:31.195Z</time>
      </trkpt>
      <trkpt lat="69.66009" lon="18.94541">
        <ele>102.650137</ele>
        <time>2020-08-27T10:27:32.021Z</time>
      </trkpt>
      <trkpt lat="69.66019" lon="18.94423">
        <ele>101.834912</ele>
        <time>2020-08-27T10:27:38.163Z</time>
      </trkpt>
      <trkpt lat="69.66022" lon="18.94405">
        <ele>101.700123</ele>
        <time>2020-08-27T10:27:39.071Z</time>
      </trkpt>
      <trkpt lat="69.66025" lon="18.94391">
        <ele>101.596301</ele>
        <time>2020-08-27T10:27:39.786Z</time>
      </trkpt>
      <trkpt lat="69.66059" lon="18.94254">
        <ele>100.426568</ele>
        <time>2020-08-27T10:27:48.513Z</time>
      </trkpt>
      <trkpt lat="69.66063" lon="18.94238">
        <ele>100.271885</ele>
        <time>2020-08-27T10:27:49.450Z</time>
      </trkpt>
      <trkpt lat="69.66064" lon="18.94234">
        <ele>100.232324</ele>
        <time>2020-08-27T10:27:49.667Z</time>
      </trkpt>
      <trkpt lat="69.66101" lon="18.94096">
        <ele>98.933381</ele>
        <time>2020-08-27T10:27:58.488Z</time>
      </trkpt>
      <trkpt lat="69.66104" lon="18.9408">
        <ele>98.791695</ele>
        <time>2020-08-27T10:27:59.364Z</time>
      </trkpt>
      <trkpt lat="69.66108" lon="18.9406">
        <ele>98.624045</ele>
        <time>2020-08-27T10:28:00.378Z</time>
      </trkpt>
      <trkpt lat="69.66113" lon="18.94015">
        <ele>98.26331</ele>
        <time>2020-08-27T10:28:03.032Z</time>
      </trkpt>
      <trkpt lat="69.66114" lon="18.93939">
        <ele>97.696493</ele>
        <time>2020-08-27T10:28:06.959Z</time>
      </trkpt>
      <trkpt lat="69.66114" lon="18.9392">
        <ele>97.55398</ele>
        <time>2020-08-27T10:28:08.123Z</time>
      </trkpt>
      <trkpt lat="69.66114" lon="18.93909">
        <ele>97.470764</ele>
        <time>2020-08-27T10:28:08.675Z</time>
      </trkpt>
      <trkpt lat="69.66113" lon="18.93879">
        <ele>97.243673</ele>
        <time>2020-08-27T10:28:10.182Z</time>
      </trkpt>
      <trkpt lat="69.66111" lon="18.93856">
        <ele>97.071043</ele>
        <time>2020-08-27T10:28:11.355Z</time>
      </trkpt>
      <trkpt lat="69.6611" lon="18.93844">
        <ele>96.972587</ele>
        <time>2020-08-27T10:28:12.052Z</time>
      </trkpt>
      <trkpt lat="69.66108" lon="18.93824">
        <ele>96.799758</ele>
        <time>2020-08-27T10:28:13.291Z</time>
      </trkpt>
      <trkpt lat="69.66108" lon="18.93816">
        <ele>96.731536</ele>
        <time>2020-08-27T10:28:13.861Z</time>
      </trkpt>
      <trkpt lat="69.66107" lon="18.93804">
        <ele>96.628429</ele>
        <time>2020-08-27T10:28:14.677Z</time>
      </trkpt>
      <trkpt lat="69.66107" lon="18.93792">
        <ele>96.53059</ele>
        <time>2020-08-27T10:28:15.483Z</time>
      </trkpt>
      <trkpt lat="69.66106" lon="18.93758">
        <ele>96.247742</ele>
        <time>2020-08-27T10:28:17.934Z</time>
      </trkpt>
      <trkpt lat="69.66105" lon="18.93739">
        <ele>96.083962</ele>
        <time>2020-08-27T10:28:19.291Z</time>
      </trkpt>
      <trkpt lat="69.66105" lon="18.93731">
        <ele>96.018216</ele>
        <time>2020-08-27T10:28:19.867Z</time>
      </trkpt>
      <trkpt lat="69.66102" lon="18.93685">
        <ele>95.625399</ele>
        <time>2020-08-27T10:28:23.028Z</time>
      </trkpt>
      <trkpt lat="69.66102" lon="18.93672">
        <ele>95.511226</ele>
        <time>2020-08-27T10:28:23.959Z</time>
      </trkpt>
      <trkpt lat="69.66102" lon="18.9365">
        <ele>95.33398</ele>
        <time>2020-08-27T10:28:25.927Z</time>
      </trkpt>
      <trkpt lat="69.66105" lon="18.9361">
        <ele>94.993286</ele>
        <time>2020-08-27T10:28:29.533Z</time>
      </trkpt>
      <trkpt lat="69.66106" lon="18.93589">
        <ele>94.806584</ele>
        <time>2020-08-27T10:28:31.354Z</time>
      </trkpt>
      <trkpt lat="69.6611" lon="18.93559">
        <ele>94.546308</ele>
        <time>2020-08-27T10:28:34.210Z</time>
      </trkpt>
      <trkpt lat="69.66113" lon="18.93525">
        <ele>94.253718</ele>
        <time>2020-08-27T10:28:37.253Z</time>
      </trkpt>
      <trkpt lat="69.66118" lon="18.93494">
        <ele>93.965594</ele>
        <time>2020-08-27T10:28:39.999Z</time>
      </trkpt>
      <trkpt lat="69.66137" lon="18.93375">
        <ele>92.861578</ele>
        <time>2020-08-27T10:28:51.092Z</time>
      </trkpt>
      <trkpt lat="69.66151" lon="18.93257">
        <ele>90.94616</ele>
        <time>2020-08-27T10:29:01.123Z</time>
      </trkpt>
      <trkpt lat="69.66154" lon="18.93239">
        <ele>90.623211</ele>
        <time>2020-08-27T10:29:02.560Z</time>
      </trkpt>
      <trkpt lat="69.66156" lon="18.9322">
        <ele>90.281079</ele>
        <time>2020-08-27T10:29:04.072Z</time>
      </trkpt>
      <trkpt lat="69.66157" lon="18.93215">
        <ele>90.189844</ele>
        <time>2020-08-27T10:29:04.362Z</time>
      </trkpt>
      <trkpt lat="69.66165" lon="18.93165">
        <ele>89.255355</ele>
        <time>2020-08-27T10:29:07.887Z</time>
      </trkpt>
      <trkpt lat="69.66173" lon="18.93123">
        <ele>88.435128</ele>
        <time>2020-08-27T10:29:10.560Z</time>
      </trkpt>
      <trkpt lat="69.66176" lon="18.93121">
        <ele>88.311411</ele>
        <time>2020-08-27T10:29:10.894Z</time>
      </trkpt>
      <trkpt lat="69.66183" lon="18.93109">
        <ele>87.902826</ele>
        <time>2020-08-27T10:29:12.165Z</time>
      </trkpt>
      <trkpt lat="69.66186" lon="18.931">
        <ele>87.686089</ele>
        <time>2020-08-27T10:29:12.726Z</time>
      </trkpt>
      <trkpt lat="69.66188" lon="18.93094">
        <ele>87.548502</ele>
        <time>2020-08-27T10:29:13.079Z</time>
      </trkpt>
      <trkpt lat="69.6619" lon="18.9308">
        <ele>87.274547</ele>
        <time>2020-08-27T10:29:13.724Z</time>
      </trkpt>
      <trkpt lat="69.66194" lon="18.93002">
        <ele>85.951076</ele>
        <time>2020-08-27T10:29:17.316Z</time>
      </trkpt>
      <trkpt lat="69.66194" lon="18.9299">
        <ele>85.737502</ele>
        <time>2020-08-27T10:29:17.852Z</time>
      </trkpt>
      <trkpt lat="69.66197" lon="18.92989">
        <ele>85.566758</ele>
        <time>2020-08-27T10:29:18.274Z</time>
      </trkpt>
      <trkpt lat="69.66213" lon="18.92974">
        <ele>84.781441</ele>
        <time>2020-08-27T10:29:20.421Z</time>
      </trkpt>
      <trkpt lat="69.66228" lon="18.92924">
        <ele>83.524452</ele>
        <time>2020-08-27T10:29:23.623Z</time>
      </trkpt>
      <trkpt lat="69.66232" lon="18.92914">
        <ele>83.192233</ele>
        <time>2020-08-27T10:29:24.185Z</time>
      </trkpt>
      <trkpt lat="69.66234" lon="18.92906">
        <ele>82.916413</ele>
        <time>2020-08-27T10:29:24.936Z</time>
      </trkpt>
      <trkpt lat="69.66246" lon="18.92857">
        <ele>81.44385</ele>
        <time>2020-08-27T10:29:29.790Z</time>
      </trkpt>
      <trkpt lat="69.66246" lon="18.92847">
        <ele>81.191513</ele>
        <time>2020-08-27T10:29:30.481Z</time>
      </trkpt>
      <trkpt lat="69.6625" lon="18.92809">
        <ele>80.208729</ele>
        <time>2020-08-27T10:29:32.618Z</time>
      </trkpt>
      <trkpt lat="69.66252" lon="18.92781">
        <ele>79.503521</ele>
        <time>2020-08-27T10:29:34.580Z</time>
      </trkpt>
      <trkpt lat="69.66253" lon="18.92782">
        <ele>79.443247</ele>
        <time>2020-08-27T10:29:34.673Z</time>
      </trkpt>
      <trkpt lat="69.66292" lon="18.92801">
        <ele>76.60758</ele>
        <time>2020-08-27T10:29:39.451Z</time>
      </trkpt>
      <trkpt lat="69.66309" lon="18.92803">
        <ele>75.410499</ele>
        <time>2020-08-27T10:29:41.324Z</time>
      </trkpt>
      <trkpt lat="69.66311" lon="18.92803">
        <ele>75.260864</ele>
        <time>2020-08-27T10:29:41.573Z</time>
      </trkpt>
      <trkpt lat="69.66337" lon="18.92797">
        <ele>73.431686</ele>
        <time>2020-08-27T10:29:44.975Z</time>
      </trkpt>
      <trkpt lat="69.66339" lon="18.92795">
        <ele>73.261389</ele>
        <time>2020-08-27T10:29:45.238Z</time>
      </trkpt>
      <trkpt lat="69.66345" lon="18.92792">
        <ele>72.875989</ele>
        <time>2020-08-27T10:29:45.809Z</time>
      </trkpt>
      <trkpt lat="69.66405" lon="18.92748">
        <ele>67.729826</ele>
        <time>2020-08-27T10:29:53.327Z</time>
      </trkpt>
      <trkpt lat="69.6641" lon="18.92746">
        <ele>67.261048</ele>
        <time>2020-08-27T10:29:53.902Z</time>
      </trkpt>
      <trkpt lat="69.6641" lon="18.92742">
        <ele>67.114065</ele>
        <time>2020-08-27T10:29:54.069Z</time>
      </trkpt>
      <trkpt lat="69.66426" lon="18.92668">
        <ele>64.342438</ele>
        <time>2020-08-27T10:29:57.624Z</time>
      </trkpt>
      <trkpt lat="69.66485" lon="18.92558">
        <ele>57.939705</ele>
        <time>2020-08-27T10:30:05.379Z</time>
      </trkpt>
      <trkpt lat="69.66541" lon="18.92497">
        <ele>52.196467</ele>
        <time>2020-08-27T10:30:11.769Z</time>
      </trkpt>
      <trkpt lat="69.66624" lon="18.92441">
        <ele>43.536015</ele>
        <time>2020-08-27T10:30:21.129Z</time>
      </trkpt>
      <trkpt lat="69.6663" lon="18.9243">
        <ele>42.790964</ele>
        <time>2020-08-27T10:30:21.885Z</time>
      </trkpt>
      <trkpt lat="69.66632" lon="18.92427">
        <ele>42.5461</ele>
        <time>2020-08-27T10:30:22.218Z</time>
      </trkpt>
      <trkpt lat="69.66654" lon="18.92382">
        <ele>39.771272</ele>
        <time>2020-08-27T10:30:26.368Z</time>
      </trkpt>
      <trkpt lat="69.66767" lon="18.92314">
        <ele>29.471558</ele>
        <time>2020-08-27T10:30:43.510Z</time>
      </trkpt>
      <trkpt lat="69.6678" lon="18.92303">
        <ele>28.371972</ele>
        <time>2020-08-27T10:30:45.541Z</time>
      </trkpt>
      <trkpt lat="69.6679" lon="18.92291">
        <ele>27.40614</ele>
        <time>2020-08-27T10:30:47.316Z</time>
      </trkpt>
      <trkpt lat="69.66816" lon="18.9224">
        <ele>24.827103</ele>
        <time>2020-08-27T10:30:52.377Z</time>
      </trkpt>
      <trkpt lat="69.66822" lon="18.92222">
        <ele>24.078478</ele>
        <time>2020-08-27T10:30:53.730Z</time>
      </trkpt>
      <trkpt lat="69.66826" lon="18.92207">
        <ele>23.542102</ele>
        <time>2020-08-27T10:30:54.865Z</time>
      </trkpt>
      <trkpt lat="69.66829" lon="18.92193">
        <ele>23.061034</ele>
        <time>2020-08-27T10:30:55.824Z</time>
      </trkpt>
      <trkpt lat="69.66832" lon="18.92177">
        <ele>22.522477</ele>
        <time>2020-08-27T10:30:56.821Z</time>
      </trkpt>
      <trkpt lat="69.66834" lon="18.92156">
        <ele>21.878498</ele>
        <time>2020-08-27T10:30:58.050Z</time>
      </trkpt>
      <trkpt lat="69.66837" lon="18.92136">
        <ele>21.256718</ele>
        <time>2020-08-27T10:30:59.173Z</time>
      </trkpt>
      <trkpt lat="69.66895" lon="18.92221">
        <ele>17.946404</ele>
        <time>2020-08-27T10:31:09.695Z</time>
      </trkpt>
      <trkpt lat="69.669" lon="18.92228">
        <ele>17.654037</ele>
        <time>2020-08-27T10:31:10.831Z</time>
      </trkpt>
      <trkpt lat="69.66927" lon="18.92188">
        <ele>16.113722</ele>
        <time>2020-08-27T10:31:17.782Z</time>
      </trkpt>
      <trkpt lat="69.66944" lon="18.92147">
        <ele>15.000144</ele>
        <time>2020-08-27T10:31:22.842Z</time>
      </trkpt>
      <trkpt lat="69.66956" lon="18.92123">
        <ele>14.265494</ele>
        <time>2020-08-27T10:31:25.969Z</time>
      </trkpt>
      <trkpt lat="69.66957" lon="18.92127">
        <ele>14.163114</ele>
        <time>2020-08-27T10:31:26.225Z</time>
      </trkpt>
      <trkpt lat="69.66959" lon="18.92132">
        <ele>14.018241</ele>
        <time>2020-08-27T10:31:28.220Z</time>
      </trkpt>
      <trkpt lat="69.66962" lon="18.92138">
        <ele>13.850618</ele>
        <time>2020-08-27T10:31:30.571Z</time>
      </trkpt>
      <trkpt lat="69.66963" lon="18.92142">
        <ele>13.752391</ele>
        <time>2020-08-27T10:31:30.902Z</time>
      </trkpt>
      <trkpt lat="69.66965" lon="18.9215">
        <ele>13.60321</ele>
        <time>2020-08-27T10:31:32.933Z</time>
      </trkpt>
      <trkpt lat="69.66971" lon="18.92145">
        <ele>13.276201</ele>
        <time>2020-08-27T10:31:33.819Z</time>
      </trkpt>
      <trkpt lat="69.66982" lon="18.92139">
        <ele>12.711912</ele>
        <time>2020-08-27T10:31:35.146Z</time>
      </trkpt>
      <trkpt lat="69.66988" lon="18.92145">
        <ele>12.403413</ele>
        <time>2020-08-27T10:31:35.970Z</time>
      </trkpt>
      <trkpt lat="69.66992" lon="18.92154">
        <ele>12.131144</ele>
        <time>2020-08-27T10:31:36.648Z</time>
      </trkpt>
      <trkpt lat="69.66996" lon="18.92166">
        <ele>11.91991</ele>
        <time>2020-08-27T10:31:37.416Z</time>
      </trkpt>
      <trkpt lat="69.66998" lon="18.92163">
        <ele>11.835875</ele>
        <time>2020-08-27T10:31:39.053Z</time>
      </trkpt>
      <trkpt lat="69.67" lon="18.9216">
        <ele>11.751841</ele>
        <time>2020-08-27T10:31:40.678Z</time>
      </trkpt>
      <trkpt lat="69.67002" lon="18.92157">
        <ele>11.660736</ele>
        <time>2020-08-27T10:31:42.416Z</time>
      </trkpt>
      <trkpt lat="69.67004" lon="18.92153">
        <ele>11.556706</ele>
        <time>2020-08-27T10:31:44.445Z</time>
      </trkpt>
      <trkpt lat="69.67008" lon="18.92148">
        <ele>11.417796</ele>
        <time>2020-08-27T10:31:44.960Z</time>
      </trkpt>
      <trkpt lat="69.67007" lon="18.92138">
        <ele>11.297992</ele>
        <time>2020-08-27T10:31:45.334Z</time>
      </trkpt>
      <trkpt lat="69.6701" lon="18.92098">
        <ele>10.778439</ele>
        <time>2020-08-27T10:31:47.203Z</time>
      </trkpt>
      <trkpt lat="69.6702" lon="18.92067">
        <ele>10.238271</ele>
        <time>2020-08-27T10:31:49.326Z</time>
      </trkpt>
      <trkpt lat="69.67097" lon="18.91933">
        <ele>7.014813</ele>
        <time>2020-08-27T10:32:01.382Z</time>
      </trkpt>
      <trkpt lat="69.67101" lon="18.91926">
        <ele>6.835334</ele>
        <time>2020-08-27T10:32:01.989Z</time>
      </trkpt>
      <trkpt lat="69.67112" lon="18.91906">
        <ele>6.350043</ele>
        <time>2020-08-27T10:32:03.936Z</time>
      </trkpt>
      <trkpt lat="69.67124" lon="18.9189">
        <ele>5.891906</ele>
        <time>2020-08-27T10:32:05.625Z</time>
      </trkpt>
      <trkpt lat="69.67131" lon="18.91883">
        <ele>5.610653</ele>
        <time>2020-08-27T10:32:06.620Z</time>
      </trkpt>
      <trkpt lat="69.67166" lon="18.91859">
        <ele>4.796379</ele>
        <time>2020-08-27T10:32:11.613Z</time>
      </trkpt>
      <trkpt lat="69.67173" lon="18.91854">
        <ele>4.619379</ele>
        <time>2020-08-27T10:32:12.647Z</time>
      </trkpt>
      <trkpt lat="69.67182" lon="18.91847">
        <ele>4.411379</ele>
        <time>2020-08-27T10:32:13.996Z</time>
      </trkpt>
      <trkpt lat="69.67213" lon="18.91825">
        <ele>3.6887</ele>
        <time>2020-08-27T10:32:18.456Z</time>
      </trkpt>
      <trkpt lat="69.67217" lon="18.91822">
        <ele>3.599276</ele>
        <time>2020-08-27T10:32:19.051Z</time>
      </trkpt>
      <trkpt lat="69.67222" lon="18.91819">
        <ele>3.476448</ele>
        <time>2020-08-27T10:32:19.924Z</time>
      </trkpt>
      <trkpt lat="69.67226" lon="18.91817">
        <ele>3.381105</ele>
        <time>2020-08-27T10:32:20.603Z</time>
      </trkpt>
      <trkpt lat="69.67226" lon="18.918">
        <ele>3.247312</ele>
        <time>2020-08-27T10:32:21.443Z</time>
      </trkpt>
      <trkpt lat="69.67221" lon="18.91661">
        <ele>2.138005</ele>
        <time>2020-08-27T10:32:28.570Z</time>
      </trkpt>
      <trkpt lat="69.6722" lon="18.91642">
        <ele>1.985252</ele>
        <time>2020-08-27T10:32:29.607Z</time>
      </trkpt>
      <trkpt lat="69.67215" lon="18.91474">
        <ele>1.245868</ele>
        <time>2020-08-27T10:32:38.905Z</time>
      </trkpt>
      <trkpt lat="69.67201" lon="18.91288">
        <ele>0.804578</ele>
        <time>2020-08-27T10:32:49.822Z</time>
      </trkpt>
      <trkpt lat="69.672" lon="18.91279">
        <ele>0.782341</ele>
        <time>2020-08-27T10:32:50.355Z</time>
      </trkpt>
      <trkpt lat="69.67203" lon="18.91211">
        <ele>0.623113</ele>
        <time>2020-08-27T10:32:54.530Z</time>
      </trkpt>
      <trkpt lat="69.67215" lon="18.91077">
        <ele>0.302388</ele>
        <time>2020-08-27T10:33:03.382Z</time>
      </trkpt>
      <trkpt lat="69.67225" lon="18.91014">
        <ele>0.289462</ele>
        <time>2020-08-27T10:33:07.924Z</time>
      </trkpt>
      <trkpt lat="69.67229" lon="18.90998">
        <ele>0.289134</ele>
        <time>2020-08-27T10:33:09.241Z</time>
      </trkpt>
      <trkpt lat="69.67274" lon="18.90852">
        <ele>0.285843</ele>
        <time>2020-08-27T10:33:21.858Z</time>
      </trkpt>
      <trkpt lat="69.67319" lon="18.90779">
        <ele>0.283364</ele>
        <time>2020-08-27T10:33:31.395Z</time>
      </trkpt>
      <trkpt lat="69.67359" lon="18.90749">
        <ele>0.277813</ele>
        <time>2020-08-27T10:33:39.140Z</time>
      </trkpt>
      <trkpt lat="69.67456" lon="18.90734">
        <ele>0.240468</ele>
        <time>2020-08-27T10:33:56.921Z</time>
      </trkpt>
      <trkpt lat="69.67517" lon="18.90698">
        <ele>0.216376</ele>
        <time>2020-08-27T10:34:08.527Z</time>
      </trkpt>
      <trkpt lat="69.67562" lon="18.90642">
        <ele>0.263282</ele>
        <time>2020-08-27T10:34:17.783Z</time>
      </trkpt>
      <trkpt lat="69.67671" lon="18.90462">
        <ele>0.428005</ele>
        <time>2020-08-27T10:34:41.729Z</time>
      </trkpt>
      <trkpt lat="69.67682" lon="18.90446">
        <ele>0.443728</ele>
        <time>2020-08-27T10:34:44.107Z</time>
      </trkpt>
      <trkpt lat="69.67685" lon="18.90441">
        <ele>0.447865</ele>
        <time>2020-08-27T10:34:44.663Z</time>
      </trkpt>
      <trkpt lat="69.67805" lon="18.90285">
        <ele>0.763966</ele>
        <time>2020-08-27T10:35:10.239Z</time>
      </trkpt>
      <trkpt lat="69.67863" lon="18.90253">
        <ele>0.898658</ele>
        <time>2020-08-27T10:35:21.587Z</time>
      </trkpt>
      <trkpt lat="69.67866" lon="18.90252">
        <ele>0.904129</ele>
        <time>2020-08-27T10:35:22.262Z</time>
      </trkpt>
      <trkpt lat="69.67868" lon="18.9025">
        <ele>0.908849</ele>
        <time>2020-08-27T10:35:22.763Z</time>
      </trkpt>
      <trkpt lat="69.6787" lon="18.90248">
        <ele>0.911959</ele>
        <time>2020-08-27T10:35:23.115Z</time>
      </trkpt>
      <trkpt lat="69.67875" lon="18.9024">
        <ele>0.921948</ele>
        <time>2020-08-27T10:35:27.033Z</time>
      </trkpt>
      <trkpt lat="69.67882" lon="18.90231">
        <ele>0.936024</ele>
        <time>2020-08-27T10:35:32.660Z</time>
      </trkpt>
      <trkpt lat="69.67886" lon="18.90227">
        <ele>0.942327</ele>
        <time>2020-08-27T10:35:35.147Z</time>
      </trkpt>
      <trkpt lat="69.67887" lon="18.90226">
        <ele>0.944184</ele>
        <time>2020-08-27T10:35:35.397Z</time>
      </trkpt>
      <trkpt lat="69.6791" lon="18.90146">
        <ele>1.00734</ele>
        <time>2020-08-27T10:35:42.038Z</time>
      </trkpt>
      <trkpt lat="69.67936" lon="18.90112">
        <ele>1.058113</ele>
        <time>2020-08-27T10:35:47.328Z</time>
      </trkpt>
      <trkpt lat="69.67987" lon="18.90093">
        <ele>1.147945</ele>
        <time>2020-08-27T10:35:56.725Z</time>
      </trkpt>
      <trkpt lat="69.68036" lon="18.9011">
        <ele>1.235093</ele>
        <time>2020-08-27T10:36:05.735Z</time>
      </trkpt>
      <trkpt lat="69.68178" lon="18.90202">
        <ele>1.492062</ele>
        <time>2020-08-27T10:36:32.374Z</time>
      </trkpt>
      <trkpt lat="69.6824" lon="18.90255">
        <ele>1.724141</ele>
        <time>2020-08-27T10:36:44.867Z</time>
      </trkpt>
      <trkpt lat="69.68287" lon="18.90339">
        <ele>1.944457</ele>
        <time>2020-08-27T10:36:55.565Z</time>
      </trkpt>
      <trkpt lat="69.68336" lon="18.90499">
        <ele>2.2272</ele>
        <time>2020-08-27T10:37:09.761Z</time>
      </trkpt>
      <trkpt lat="69.6834" lon="18.9051">
        <ele>2.220926</ele>
        <time>2020-08-27T10:37:10.940Z</time>
      </trkpt>
      <trkpt lat="69.68342" lon="18.90515">
        <ele>2.217067</ele>
        <time>2020-08-27T10:37:13.157Z</time>
      </trkpt>
      <trkpt lat="69.68348" lon="18.90524">
        <ele>2.209153</ele>
        <time>2020-08-27T10:37:17.799Z</time>
      </trkpt>
      <trkpt lat="69.68351" lon="18.9053">
        <ele>2.204902</ele>
        <time>2020-08-27T10:37:20.259Z</time>
      </trkpt>
      <trkpt lat="69.68353" lon="18.90533">
        <ele>2.202351</ele>
        <time>2020-08-27T10:37:20.674Z</time>
      </trkpt>
      <trkpt lat="69.68457" lon="18.90721">
        <ele>2.054994</ele>
        <time>2020-08-27T10:37:42.288Z</time>
      </trkpt>
      <trkpt lat="69.68522" lon="18.90814">
        <ele>1.842519</ele>
        <time>2020-08-27T10:37:54.198Z</time>
      </trkpt>
      <trkpt lat="69.68525" lon="18.90819">
        <ele>1.826259</ele>
        <time>2020-08-27T10:37:54.697Z</time>
      </trkpt>
      <trkpt lat="69.68549" lon="18.90842">
        <ele>1.716277</ele>
        <time>2020-08-27T10:37:58.855Z</time>
      </trkpt>
      <trkpt lat="69.6861" lon="18.90888">
        <ele>1.433999</ele>
        <time>2020-08-27T10:38:09.282Z</time>
      </trkpt>
      <trkpt lat="69.68657" lon="18.90906">
        <ele>1.225833</ele>
        <time>2020-08-27T10:38:17.113Z</time>
      </trkpt>
      <trkpt lat="69.68701" lon="18.90908">
        <ele>1.112045</ele>
        <time>2020-08-27T10:38:24.675Z</time>
      </trkpt>
      <trkpt lat="69.68729" lon="18.90888">
        <ele>1.041569</ele>
        <time>2020-08-27T10:38:29.735Z</time>
      </trkpt>
      <trkpt lat="69.68737" lon="18.90887">
        <ele>1.024282</ele>
        <time>2020-08-27T10:38:30.971Z</time>
      </trkpt>
      <trkpt lat="69.68743" lon="18.90885">
        <ele>1.007905</ele>
        <time>2020-08-27T10:38:32.211Z</time>
      </trkpt>
      <trkpt lat="69.68816" lon="18.90843">
        <ele>0.827442</ele>
        <time>2020-08-27T10:38:45.618Z</time>
      </trkpt>
      <trkpt lat="69.68879" lon="18.90772">
        <ele>0.685422</ele>
        <time>2020-08-27T10:38:57.703Z</time>
      </trkpt>
      <trkpt lat="69.68935" lon="18.90676">
        <ele>0.555847</ele>
        <time>2020-08-27T10:39:09.456Z</time>
      </trkpt>
      <trkpt lat="69.68996" lon="18.90532">
        <ele>0.411483</ele>
        <time>2020-08-27T10:39:23.618Z</time>
      </trkpt>
      <trkpt lat="69.69316" lon="18.89698">
        <ele>0.048992</ele>
        <time>2020-08-27T10:40:42.786Z</time>
      </trkpt>
      <trkpt lat="69.69392" lon="18.89481">
        <ele>0.027643</ele>
        <time>2020-08-27T10:41:02.681Z</time>
      </trkpt>
      <trkpt lat="69.69459" lon="18.89234">
        <ele>0.148307</ele>
        <time>2020-08-27T10:41:23.158Z</time>
      </trkpt>
      <trkpt lat="69.69495" lon="18.89069">
        <ele>0.230429</ele>
        <time>2020-08-27T10:41:36.276Z</time>
      </trkpt>
      <trkpt lat="69.69527" lon="18.88887">
        <ele>0.379813</ele>
        <time>2020-08-27T10:41:49.790Z</time>
      </trkpt>
      <trkpt lat="69.69534" lon="18.88839">
        <ele>0.418268</ele>
        <time>2020-08-27T10:41:53.287Z</time>
      </trkpt>
      <trkpt lat="69.69537" lon="18.88822">
        <ele>0.431523</ele>
        <time>2020-08-27T10:41:54.574Z</time>
      </trkpt>
      <trkpt lat="69.69565" lon="18.88646">
        <ele>0.573208</ele>
        <time>2020-08-27T10:42:07.215Z</time>
      </trkpt>
      <trkpt lat="69.6957" lon="18.88624">
        <ele>0.592471</ele>
        <time>2020-08-27T10:42:08.966Z</time>
      </trkpt>
      <trkpt lat="69.69573" lon="18.88608">
        <ele>0.638951</ele>
        <time>2020-08-27T10:42:10.081Z</time>
      </trkpt>
      <trkpt lat="69.69595" lon="18.88438">
        <ele>1.170783</ele>
        <time>2020-08-27T10:42:23.169Z</time>
      </trkpt>
      <trkpt lat="69.69604" lon="18.88412">
        <ele>1.281234</ele>
        <time>2020-08-27T10:42:25.604Z</time>
      </trkpt>
      <trkpt lat="69.69625" lon="18.88411">
        <ele>1.4598</ele>
        <time>2020-08-27T10:42:30.214Z</time>
      </trkpt>
      <trkpt lat="69.69627" lon="18.88403">
        <ele>1.486537</ele>
        <time>2020-08-27T10:42:30.795Z</time>
      </trkpt>
      <trkpt lat="69.69628" lon="18.88392">
        <ele>1.518992</ele>
        <time>2020-08-27T10:42:33.498Z</time>
      </trkpt>
      <trkpt lat="69.6963" lon="18.88376">
        <ele>1.568095</ele>
        <time>2020-08-27T10:42:37.528Z</time>
      </trkpt>
      <trkpt lat="69.69631" lon="18.88368">
        <ele>1.593907</ele>
        <time>2020-08-27T10:42:38.242Z</time>
      </trkpt>
      <trkpt lat="69.69629" lon="18.88363">
        <ele>1.61548</ele>
        <time>2020-08-27T10:42:38.917Z</time>
      </trkpt>
      <trkpt lat="69.69628" lon="18.88326">
        <ele>1.724031</ele>
        <time>2020-08-27T10:42:41.654Z</time>
      </trkpt>
      <trkpt lat="69.69615" lon="18.88285">
        <ele>1.889246</ele>
        <time>2020-08-27T10:42:45.897Z</time>
      </trkpt>
      <trkpt lat="69.69611" lon="18.88273">
        <ele>1.939323</ele>
        <time>2020-08-27T10:42:47.285Z</time>
      </trkpt>
      <trkpt lat="69.69609" lon="18.88268">
        <ele>1.958071</ele>
        <time>2020-08-27T10:42:47.989Z</time>
      </trkpt>
      <trkpt lat="69.69593" lon="18.88207">
        <ele>2.263692</ele>
        <time>2020-08-27T10:42:53.827Z</time>
      </trkpt>
      <trkpt lat="69.6959" lon="18.88197">
        <ele>2.341496</ele>
        <time>2020-08-27T10:42:54.972Z</time>
      </trkpt>
      <trkpt lat="69.69587" lon="18.88182">
        <ele>2.446535</ele>
        <time>2020-08-27T10:42:56.409Z</time>
      </trkpt>
      <trkpt lat="69.69585" lon="18.88169">
        <ele>2.547389</ele>
        <time>2020-08-27T10:42:57.546Z</time>
      </trkpt>
      <trkpt lat="69.69582" lon="18.88153">
        <ele>2.65351</ele>
        <time>2020-08-27T10:42:58.838Z</time>
      </trkpt>
      <trkpt lat="69.69575" lon="18.88109">
        <ele>2.958541</ele>
        <time>2020-08-27T10:43:02.838Z</time>
      </trkpt>
      <trkpt lat="69.69561" lon="18.88094">
        <ele>3.230987</ele>
        <time>2020-08-27T10:43:06.368Z</time>
      </trkpt>
      <trkpt lat="69.69559" lon="18.88092">
        <ele>3.271612</ele>
        <time>2020-08-27T10:43:06.792Z</time>
      </trkpt>
      <trkpt lat="69.69557" lon="18.88086">
        <ele>3.323746</ele>
        <time>2020-08-27T10:43:07.700Z</time>
      </trkpt>
      <trkpt lat="69.69545" lon="18.88041">
        <ele>3.688014</ele>
        <time>2020-08-27T10:43:12.650Z</time>
      </trkpt>
      <trkpt lat="69.69537" lon="18.88006">
        <ele>3.942827</ele>
        <time>2020-08-27T10:43:16.218Z</time>
      </trkpt>
      <trkpt lat="69.69535" lon="18.87993">
        <ele>4.037332</ele>
        <time>2020-08-27T10:43:18.016Z</time>
      </trkpt>
      <trkpt lat="69.69456" lon="18.87712">
        <ele>5.922627</ele>
        <time>2020-08-27T10:43:48.284Z</time>
      </trkpt>
      <trkpt lat="69.69441" lon="18.87662">
        <ele>6.156983</ele>
        <time>2020-08-27T10:43:53.900Z</time>
      </trkpt>
      <trkpt lat="69.69436" lon="18.87642">
        <ele>6.24722</ele>
        <time>2020-08-27T10:43:55.647Z</time>
      </trkpt>
      <trkpt lat="69.69419" lon="18.87585">
        <ele>6.520983</ele>
        <time>2020-08-27T10:44:01.267Z</time>
      </trkpt>
      <trkpt lat="69.69387" lon="18.87476">
        <ele>7.040255</ele>
        <time>2020-08-27T10:44:11.334Z</time>
      </trkpt>
      <trkpt lat="69.69372" lon="18.87427">
        <ele>7.261511</ele>
        <time>2020-08-27T10:44:15.879Z</time>
      </trkpt>
      <trkpt lat="69.69266" lon="18.87065">
        <ele>7.220299</ele>
        <time>2020-08-27T10:44:46.120Z</time>
      </trkpt>
      <trkpt lat="69.69262" lon="18.87051">
        <ele>7.218659</ele>
        <time>2020-08-27T10:44:47.260Z</time>
      </trkpt>
      <trkpt lat="69.69256" lon="18.87034">
        <ele>7.216642</ele>
        <time>2020-08-27T10:44:48.705Z</time>
      </trkpt>
      <trkpt lat="69.69178" lon="18.86765">
        <ele>7.115052</ele>
        <time>2020-08-27T10:45:10.567Z</time>
      </trkpt>
      <trkpt lat="69.6917" lon="18.86706">
        <ele>7.096625</ele>
        <time>2020-08-27T10:45:14.539Z</time>
      </trkpt>
      <trkpt lat="69.69168" lon="18.86697">
        <ele>7.093598</ele>
        <time>2020-08-27T10:45:15.234Z</time>
      </trkpt>
      <trkpt lat="69.69165" lon="18.86686">
        <ele>7.089462</ele>
        <time>2020-08-27T10:45:16.084Z</time>
      </trkpt>
      <trkpt lat="69.69163" lon="18.8668">
        <ele>7.087354</ele>
        <time>2020-08-27T10:45:17.834Z</time>
      </trkpt>
      <trkpt lat="69.69163" lon="18.8668">
        <ele>7.087161</ele>
        <time>2020-08-27T10:45:18.050Z</time>
      </trkpt>
      <trkpt lat="69.69169" lon="18.86664">
        <ele>7.080668</ele>
        <time>2020-08-27T10:45:19.533Z</time>
      </trkpt>
      <trkpt lat="69.69171" lon="18.86652">
        <ele>7.076703</ele>
        <time>2020-08-27T10:45:20.801Z</time>
      </trkpt>
      <trkpt lat="69.69167" lon="18.86654">
        <ele>7.073554</ele>
        <time>2020-08-27T10:45:21.399Z</time>
      </trkpt>
      <trkpt lat="69.6916" lon="18.86663">
        <ele>7.067218</ele>
        <time>2020-08-27T10:45:22.790Z</time>
      </trkpt>
      <trkpt lat="69.69159" lon="18.86657">
        <ele>7.079829</ele>
        <time>2020-08-27T10:45:24.346Z</time>
      </trkpt>
      <trkpt lat="69.69155" lon="18.86652">
        <ele>7.102654</ele>
        <time>2020-08-27T10:45:25.070Z</time>
      </trkpt>
      <trkpt lat="69.69154" lon="18.8665">
        <ele>7.111997</ele>
        <time>2020-08-27T10:45:25.367Z</time>
      </trkpt>
      <trkpt lat="69.69153" lon="18.86649">
        <ele>7.117322</ele>
        <time>2020-08-27T10:45:25.516Z</time>
      </trkpt>
      <trkpt lat="69.69145" lon="18.86644">
        <ele>7.163131</ele>
        <time>2020-08-27T10:45:27.278Z</time>
      </trkpt>
      <trkpt lat="69.69132" lon="18.86619">
        <ele>7.249423</ele>
        <time>2020-08-27T10:45:30.324Z</time>
      </trkpt>
      <trkpt lat="69.69124" lon="18.86584">
        <ele>7.335016</ele>
        <time>2020-08-27T10:45:33.177Z</time>
      </trkpt>
      <trkpt lat="69.69116" lon="18.86556">
        <ele>7.403912</ele>
        <time>2020-08-27T10:45:36.008Z</time>
      </trkpt>
      <trkpt lat="69.69098" lon="18.86492">
        <ele>7.566458</ele>
        <time>2020-08-27T10:45:41.623Z</time>
      </trkpt>
      <trkpt lat="69.69074" lon="18.86407">
        <ele>7.782014</ele>
        <time>2020-08-27T10:45:49.486Z</time>
      </trkpt>
      <trkpt lat="69.69073" lon="18.86403">
        <ele>7.79195</ele>
        <time>2020-08-27T10:45:49.980Z</time>
      </trkpt>
      <trkpt lat="69.69071" lon="18.86397">
        <ele>7.807511</ele>
        <time>2020-08-27T10:45:50.701Z</time>
      </trkpt>
      <trkpt lat="69.69065" lon="18.86377">
        <ele>7.85785</ele>
        <time>2020-08-27T10:45:52.322Z</time>
      </trkpt>
      <trkpt lat="69.69062" lon="18.86366">
        <ele>7.886948</ele>
        <time>2020-08-27T10:45:53.425Z</time>
      </trkpt>
      <trkpt lat="69.69055" lon="18.86346">
        <ele>7.940468</ele>
        <time>2020-08-27T10:45:55.160Z</time>
      </trkpt>
      <trkpt lat="69.69053" lon="18.8634">
        <ele>7.956404</ele>
        <time>2020-08-27T10:45:55.862Z</time>
      </trkpt>
      <trkpt lat="69.6902" lon="18.86223">
        <ele>8.179168</ele>
        <time>2020-08-27T10:46:07.193Z</time>
      </trkpt>
      <trkpt lat="69.69017" lon="18.86215">
        <ele>8.19199</ele>
        <time>2020-08-27T10:46:08.218Z</time>
      </trkpt>
      <trkpt lat="69.69012" lon="18.86194">
        <ele>8.221664</ele>
        <time>2020-08-27T10:46:10.223Z</time>
      </trkpt>
      <trkpt lat="69.69008" lon="18.86179">
        <ele>8.242387</ele>
        <time>2020-08-27T10:46:11.759Z</time>
      </trkpt>
      <trkpt lat="69.68977" lon="18.86074">
        <ele>8.394058</ele>
        <time>2020-08-27T10:46:21.958Z</time>
      </trkpt>
      <trkpt lat="69.68973" lon="18.86059">
        <ele>8.415454</ele>
        <time>2020-08-27T10:46:23.442Z</time>
      </trkpt>
      <trkpt lat="69.68968" lon="18.86044">
        <ele>8.437509</ele>
        <time>2020-08-27T10:46:24.977Z</time>
      </trkpt>
      <trkpt lat="69.68873" lon="18.85717">
        <ele>7.491806</ele>
        <time>2020-08-27T10:46:50.213Z</time>
      </trkpt>
      <trkpt lat="69.6887" lon="18.85678">
        <ele>7.291456</ele>
        <time>2020-08-27T10:46:52.106Z</time>
      </trkpt>
      <trkpt lat="69.68869" lon="18.85674">
        <ele>7.266054</ele>
        <time>2020-08-27T10:46:52.351Z</time>
      </trkpt>
      <trkpt lat="69.68868" lon="18.85671">
        <ele>7.236428</ele>
        <time>2020-08-27T10:46:53.766Z</time>
      </trkpt>
      <trkpt lat="69.68868" lon="18.85669">
        <ele>7.227199</ele>
        <time>2020-08-27T10:46:53.949Z</time>
      </trkpt>
      <trkpt lat="69.68871" lon="18.85659">
        <ele>7.160212</ele>
        <time>2020-08-27T10:46:54.696Z</time>
      </trkpt>
      <trkpt lat="69.68874" lon="18.8564">
        <ele>7.049836</ele>
        <time>2020-08-27T10:46:55.967Z</time>
      </trkpt>
      <trkpt lat="69.68869" lon="18.85648">
        <ele>6.95488</ele>
        <time>2020-08-27T10:46:56.938Z</time>
      </trkpt>
      <trkpt lat="69.68864" lon="18.85655">
        <ele>6.882211</ele>
        <time>2020-08-27T10:46:57.680Z</time>
      </trkpt>
      <trkpt lat="69.68863" lon="18.85649">
        <ele>6.847675</ele>
        <time>2020-08-27T10:46:59.318Z</time>
      </trkpt>
      <trkpt lat="69.68862" lon="18.85646">
        <ele>6.826714</ele>
        <time>2020-08-27T10:46:59.470Z</time>
      </trkpt>
      <trkpt lat="69.68844" lon="18.85617">
        <ele>6.521513</ele>
        <time>2020-08-27T10:47:02.776Z</time>
      </trkpt>
      <trkpt lat="69.68718" lon="18.85182">
        <ele>2.432086</ele>
        <time>2020-08-27T10:47:31.011Z</time>
      </trkpt>
      <trkpt lat="69.68716" lon="18.85173">
        <ele>2.350058</ele>
        <time>2020-08-27T10:47:31.514Z</time>
      </trkpt>
      <trkpt lat="69.68697" lon="18.85106">
        <ele>1.901654</ele>
        <time>2020-08-27T10:47:36.288Z</time>
      </trkpt>
      <trkpt lat="69.68641" lon="18.84911">
        <ele>1.1211</ele>
        <time>2020-08-27T10:47:50.528Z</time>
      </trkpt>
      <trkpt lat="69.68626" lon="18.84862">
        <ele>0.922582</ele>
        <time>2020-08-27T10:47:54.274Z</time>
      </trkpt>
      <trkpt lat="69.6862" lon="18.84839">
        <ele>0.830222</ele>
        <time>2020-08-27T10:47:56.015Z</time>
      </trkpt>
      <trkpt lat="69.68557" lon="18.84618">
        <ele>0.41023</ele>
        <time>2020-08-27T10:48:13.839Z</time>
      </trkpt>
      <trkpt lat="69.68551" lon="18.84591">
        <ele>0.402002</ele>
        <time>2020-08-27T10:48:15.968Z</time>
      </trkpt>
      <trkpt lat="69.68545" lon="18.84557">
        <ele>0.392519</ele>
        <time>2020-08-27T10:48:18.303Z</time>
      </trkpt>
      <trkpt lat="69.68541" lon="18.84525">
        <ele>0.383912</ele>
        <time>2020-08-27T10:48:20.550Z</time>
      </trkpt>
      <trkpt lat="69.68538" lon="18.84496">
        <ele>0.376155</ele>
        <time>2020-08-27T10:48:22.602Z</time>
      </trkpt>
      <trkpt lat="69.6853" lon="18.84413">
        <ele>0.354719</ele>
        <time>2020-08-27T10:48:28.219Z</time>
      </trkpt>
      <trkpt lat="69.68508" lon="18.84156">
        <ele>0.320232</ele>
        <time>2020-08-27T10:48:45.367Z</time>
      </trkpt>
      <trkpt lat="69.68504" lon="18.84109">
        <ele>0.320147</ele>
        <time>2020-08-27T10:48:48.511Z</time>
      </trkpt>
      <trkpt lat="69.68495" lon="18.84007">
        <ele>0.319959</ele>
        <time>2020-08-27T10:48:55.403Z</time>
      </trkpt>
      <trkpt lat="69.68447" lon="18.83437">
        <ele>0.240321</ele>
        <time>2020-08-27T10:49:32.759Z</time>
      </trkpt>
      <trkpt lat="69.68446" lon="18.83424">
        <ele>0.237524</ele>
        <time>2020-08-27T10:49:33.491Z</time>
      </trkpt>
      <trkpt lat="69.68444" lon="18.83398">
        <ele>0.231462</ele>
        <time>2020-08-27T10:49:35.205Z</time>
      </trkpt>
      <trkpt lat="69.68441" lon="18.83347">
        <ele>0.219874</ele>
        <time>2020-08-27T10:49:38.539Z</time>
      </trkpt>
      <trkpt lat="69.68441" lon="18.83343">
        <ele>0.218941</ele>
        <time>2020-08-27T10:49:38.810Z</time>
      </trkpt>
      <trkpt lat="69.68437" lon="18.83233">
        <ele>0.215252</ele>
        <time>2020-08-27T10:49:45.968Z</time>
      </trkpt>
      <trkpt lat="69.68435" lon="18.83152">
        <ele>0.240727</ele>
        <time>2020-08-27T10:49:51.202Z</time>
      </trkpt>
      <trkpt lat="69.68431" lon="18.8298">
        <ele>0.294734</ele>
        <time>2020-08-27T10:50:02.391Z</time>
      </trkpt>
      <trkpt lat="69.68429" lon="18.82905">
        <ele>0.318395</ele>
        <time>2020-08-27T10:50:07.421Z</time>
      </trkpt>
      <trkpt lat="69.68418" lon="18.82516">
        <ele>0.61988</ele>
        <time>2020-08-27T10:50:33.871Z</time>
      </trkpt>
      <trkpt lat="69.68416" lon="18.8243">
        <ele>0.710628</ele>
        <time>2020-08-27T10:50:39.747Z</time>
      </trkpt>
      <trkpt lat="69.68412" lon="18.82258">
        <ele>0.892946</ele>
        <time>2020-08-27T10:50:51.436Z</time>
      </trkpt>
      <trkpt lat="69.68411" lon="18.82216">
        <ele>0.92926</ele>
        <time>2020-08-27T10:50:54.483Z</time>
      </trkpt>
      <trkpt lat="69.68392" lon="18.81459">
        <ele>1.171982</ele>
        <time>2020-08-27T10:51:44.934Z</time>
      </trkpt>
      <trkpt lat="69.68396" lon="18.8142">
        <ele>1.158125</ele>
        <time>2020-08-27T10:51:47.256Z</time>
      </trkpt>
      <trkpt lat="69.68396" lon="18.81412">
        <ele>1.155586</ele>
        <time>2020-08-27T10:51:47.726Z</time>
      </trkpt>
      <trkpt lat="69.68396" lon="18.81405">
        <ele>1.153147</ele>
        <time>2020-08-27T10:51:49.477Z</time>
      </trkpt>
      <trkpt lat="69.68407" lon="18.81395">
        <ele>1.141521</ele>
        <time>2020-08-27T10:51:51.916Z</time>
      </trkpt>
      <trkpt lat="69.68395" lon="18.81388">
        <ele>1.129534</ele>
        <time>2020-08-27T10:51:53.825Z</time>
      </trkpt>
      <trkpt lat="69.68395" lon="18.81381">
        <ele>1.127321</ele>
        <time>2020-08-27T10:51:55.399Z</time>
      </trkpt>
      <trkpt lat="69.68394" lon="18.81377">
        <ele>1.125655</ele>
        <time>2020-08-27T10:51:55.708Z</time>
      </trkpt>
      <trkpt lat="69.68394" lon="18.81371">
        <ele>1.123692</ele>
        <time>2020-08-27T10:51:55.991Z</time>
      </trkpt>
      <trkpt lat="69.68388" lon="18.8133">
        <ele>1.108641</ele>
        <time>2020-08-27T10:51:59.048Z</time>
      </trkpt>
      <trkpt lat="69.68372" lon="18.80705">
        <ele>0.429344</ele>
        <time>2020-08-27T10:52:36.788Z</time>
      </trkpt>
      <trkpt lat="69.68379" lon="18.80158">
        <ele>0.397346</ele>
        <time>2020-08-27T10:53:12.513Z</time>
      </trkpt>
      <trkpt lat="69.68379" lon="18.80144">
        <ele>0.400656</ele>
        <time>2020-08-27T10:53:13.471Z</time>
      </trkpt>
      <trkpt lat="69.68379" lon="18.80135">
        <ele>0.402686</ele>
        <time>2020-08-27T10:53:14.044Z</time>
      </trkpt>
      <trkpt lat="69.6838" lon="18.80126">
        <ele>0.404852</ele>
        <time>2020-08-27T10:53:16.325Z</time>
      </trkpt>
      <trkpt lat="69.6838" lon="18.80107">
        <ele>0.409204</ele>
        <time>2020-08-27T10:53:20.875Z</time>
      </trkpt>
      <trkpt lat="69.68381" lon="18.80098">
        <ele>0.411325</ele>
        <time>2020-08-27T10:53:23.085Z</time>
      </trkpt>
      <trkpt lat="69.68381" lon="18.80089">
        <ele>0.413582</ele>
        <time>2020-08-27T10:53:23.821Z</time>
      </trkpt>
      <trkpt lat="69.68382" lon="18.79981">
        <ele>0.438396</ele>
        <time>2020-08-27T10:53:30.880Z</time>
      </trkpt>
      <trkpt lat="69.68377" lon="18.79892">
        <ele>0.459326</ele>
        <time>2020-08-27T10:53:36.770Z</time>
      </trkpt>
      <trkpt lat="69.68372" lon="18.79817">
        <ele>0.477218</ele>
        <time>2020-08-27T10:53:41.956Z</time>
      </trkpt>
      <trkpt lat="69.68369" lon="18.79786">
        <ele>0.484477</ele>
        <time>2020-08-27T10:53:44.008Z</time>
      </trkpt>
      <trkpt lat="69.68365" lon="18.79742">
        <ele>0.49494</ele>
        <time>2020-08-27T10:53:47.003Z</time>
      </trkpt>
      <trkpt lat="69.68364" lon="18.79717">
        <ele>0.500842</ele>
        <time>2020-08-27T10:53:48.688Z</time>
      </trkpt>
      <trkpt lat="69.68358" lon="18.79667">
        <ele>0.506044</ele>
        <time>2020-08-27T10:53:52.074Z</time>
      </trkpt>
      <trkpt lat="69.68347" lon="18.7957">
        <ele>0.516105</ele>
        <time>2020-08-27T10:53:58.616Z</time>
      </trkpt>
      <trkpt lat="69.68314" lon="18.79369">
        <ele>0.537845</ele>
        <time>2020-08-27T10:54:12.806Z</time>
      </trkpt>
      <trkpt lat="69.68311" lon="18.79351">
        <ele>0.539823</ele>
        <time>2020-08-27T10:54:14.132Z</time>
      </trkpt>
      <trkpt lat="69.68307" lon="18.79325">
        <ele>0.542639</ele>
        <time>2020-08-27T10:54:15.899Z</time>
      </trkpt>
      <trkpt lat="69.6829" lon="18.79225">
        <ele>0.56684</ele>
        <time>2020-08-27T10:54:23.194Z</time>
      </trkpt>
      <trkpt lat="69.68286" lon="18.79202">
        <ele>0.58672</ele>
        <time>2020-08-27T10:54:24.994Z</time>
      </trkpt>
      <trkpt lat="69.68208" lon="18.78739">
        <ele>0.941441</ele>
        <time>2020-08-27T10:54:59.811Z</time>
      </trkpt>
      <trkpt lat="69.68206" lon="18.78662">
        <ele>0.912835</ele>
        <time>2020-08-27T10:55:04.701Z</time>
      </trkpt>
      <trkpt lat="69.68205" lon="18.78656">
        <ele>0.910537</ele>
        <time>2020-08-27T10:55:05.188Z</time>
      </trkpt>
      <trkpt lat="69.68204" lon="18.7865">
        <ele>0.908161</ele>
        <time>2020-08-27T10:55:06.757Z</time>
      </trkpt>
      <trkpt lat="69.68202" lon="18.78636">
        <ele>0.902221</ele>
        <time>2020-08-27T10:55:10.674Z</time>
      </trkpt>
      <trkpt lat="69.68201" lon="18.7863">
        <ele>0.899828</ele>
        <time>2020-08-27T10:55:12.260Z</time>
      </trkpt>
      <trkpt lat="69.68197" lon="18.78613">
        <ele>0.892566</ele>
        <time>2020-08-27T10:55:13.410Z</time>
      </trkpt>
      <trkpt lat="69.68183" lon="18.78581">
        <ele>0.873199</ele>
        <time>2020-08-27T10:55:16.857Z</time>
      </trkpt>
      <trkpt lat="69.68149" lon="18.78391">
        <ele>0.794669</ele>
        <time>2020-08-27T10:55:30.358Z</time>
      </trkpt>
      <trkpt lat="69.68145" lon="18.78374">
        <ele>0.787345</ele>
        <time>2020-08-27T10:55:31.564Z</time>
      </trkpt>
      <trkpt lat="69.68138" lon="18.78346">
        <ele>0.774655</ele>
        <time>2020-08-27T10:55:33.630Z</time>
      </trkpt>
      <trkpt lat="69.68131" lon="18.78321">
        <ele>0.766765</ele>
        <time>2020-08-27T10:55:35.718Z</time>
      </trkpt>
      <trkpt lat="69.68125" lon="18.78298">
        <ele>0.768681</ele>
        <time>2020-08-27T10:55:37.555Z</time>
      </trkpt>
      <trkpt lat="69.68113" lon="18.78259">
        <ele>0.772024</ele>
        <time>2020-08-27T10:55:40.632Z</time>
      </trkpt>
      <trkpt lat="69.68097" lon="18.78202">
        <ele>0.776957</ele>
        <time>2020-08-27T10:55:45.258Z</time>
      </trkpt>
      <trkpt lat="69.68089" lon="18.78176">
        <ele>0.779165</ele>
        <time>2020-08-27T10:55:47.489Z</time>
      </trkpt>
      <trkpt lat="69.68087" lon="18.78169">
        <ele>0.779763</ele>
        <time>2020-08-27T10:55:48.127Z</time>
      </trkpt>
      <trkpt lat="69.68078" lon="18.78142">
        <ele>0.782195</ele>
        <time>2020-08-27T10:55:50.390Z</time>
      </trkpt>
      <trkpt lat="69.68073" lon="18.78125">
        <ele>0.783672</ele>
        <time>2020-08-27T10:55:51.804Z</time>
      </trkpt>
      <trkpt lat="69.68049" lon="18.78047">
        <ele>0.790558</ele>
        <time>2020-08-27T10:55:58.569Z</time>
      </trkpt>
      <trkpt lat="69.68" lon="18.77894">
        <ele>0.94415</ele>
        <time>2020-08-27T10:56:12.785Z</time>
      </trkpt>
      <trkpt lat="69.67993" lon="18.77867">
        <ele>1.025138</ele>
        <time>2020-08-27T10:56:15.214Z</time>
      </trkpt>
      <trkpt lat="69.67977" lon="18.77814">
        <ele>1.193962</ele>
        <time>2020-08-27T10:56:20.112Z</time>
      </trkpt>
      <trkpt lat="69.67892" lon="18.7754">
        <ele>2.088844</ele>
        <time>2020-08-27T10:56:46.794Z</time>
      </trkpt>
      <trkpt lat="69.67846" lon="18.77423">
        <ele>2.801574</ele>
        <time>2020-08-27T10:57:00.544Z</time>
      </trkpt>
      <trkpt lat="69.67843" lon="18.77414">
        <ele>2.851408</ele>
        <time>2020-08-27T10:57:01.560Z</time>
      </trkpt>
      <trkpt lat="69.67841" lon="18.77408">
        <ele>2.886227</ele>
        <time>2020-08-27T10:57:02.194Z</time>
      </trkpt>
      <trkpt lat="69.67836" lon="18.774">
        <ele>2.947664</ele>
        <time>2020-08-27T10:57:03.329Z</time>
      </trkpt>
      <trkpt lat="69.6783" lon="18.77389">
        <ele>3.031201</ele>
        <time>2020-08-27T10:57:05.185Z</time>
      </trkpt>
      <trkpt lat="69.6772" lon="18.77148">
        <ele>4.228688</ele>
        <time>2020-08-27T10:57:36.223Z</time>
      </trkpt>
      <trkpt lat="69.67698" lon="18.77069">
        <ele>4.317324</ele>
        <time>2020-08-27T10:57:43.507Z</time>
      </trkpt>
      <trkpt lat="69.67696" lon="18.77064">
        <ele>4.323845</ele>
        <time>2020-08-27T10:57:44.636Z</time>
      </trkpt>
      <trkpt lat="69.67694" lon="18.77059">
        <ele>4.330008</ele>
        <time>2020-08-27T10:57:44.951Z</time>
      </trkpt>
      <trkpt lat="69.67659" lon="18.77009">
        <ele>4.426983</ele>
        <time>2020-08-27T10:57:52.219Z</time>
      </trkpt>
      <trkpt lat="69.6756" lon="18.76788">
        <ele>4.313606</ele>
        <time>2020-08-27T10:58:13.621Z</time>
      </trkpt>
      <trkpt lat="69.67526" lon="18.76698">
        <ele>4.145979</ele>
        <time>2020-08-27T10:58:21.290Z</time>
      </trkpt>
      <trkpt lat="69.67504" lon="18.7661">
        <ele>4.008641</ele>
        <time>2020-08-27T10:58:27.850Z</time>
      </trkpt>
      <trkpt lat="69.67433" lon="18.76082">
        <ele>4.721446</ele>
        <time>2020-08-27T10:59:07.210Z</time>
      </trkpt>
      <trkpt lat="69.67428" lon="18.75947">
        <ele>5.019088</ele>
        <time>2020-08-27T10:59:17.354Z</time>
      </trkpt>
      <trkpt lat="69.67433" lon="18.7584">
        <ele>5.270697</ele>
        <time>2020-08-27T10:59:25.545Z</time>
      </trkpt>
      <trkpt lat="69.67434" lon="18.7583">
        <ele>5.29627</ele>
        <time>2020-08-27T10:59:26.540Z</time>
      </trkpt>
      <trkpt lat="69.67435" lon="18.75817">
        <ele>5.327588</ele>
        <time>2020-08-27T10:59:27.619Z</time>
      </trkpt>
      <trkpt lat="69.67454" lon="18.75707">
        <ele>5.611766</ele>
        <time>2020-08-27T10:59:36.542Z</time>
      </trkpt>
      <trkpt lat="69.67491" lon="18.75544">
        <ele>5.948126</ele>
        <time>2020-08-27T10:59:49.996Z</time>
      </trkpt>
      <trkpt lat="69.67493" lon="18.75533">
        <ele>5.939628</ele>
        <time>2020-08-27T10:59:51.099Z</time>
      </trkpt>
      <trkpt lat="69.67496" lon="18.75521">
        <ele>5.930671</ele>
        <time>2020-08-27T10:59:51.936Z</time>
      </trkpt>
      <trkpt lat="69.67515" lon="18.7543">
        <ele>5.863301</ele>
        <time>2020-08-27T10:59:58.903Z</time>
      </trkpt>
      <trkpt lat="69.67519" lon="18.75415">
        <ele>5.851909</ele>
        <time>2020-08-27T10:59:59.932Z</time>
      </trkpt>
      <trkpt lat="69.67525" lon="18.7539">
        <ele>5.83261</ele>
        <time>2020-08-27T11:00:01.686Z</time>
      </trkpt>
      <trkpt lat="69.67573" lon="18.75195">
        <ele>5.681029</ele>
        <time>2020-08-27T11:00:16.495Z</time>
      </trkpt>
      <trkpt lat="69.67581" lon="18.75171">
        <ele>5.659744</ele>
        <time>2020-08-27T11:00:18.507Z</time>
      </trkpt>
      <trkpt lat="69.67586" lon="18.75157">
        <ele>5.647637</ele>
        <time>2020-08-27T11:00:19.536Z</time>
      </trkpt>
      <trkpt lat="69.67637" lon="18.7505">
        <ele>4.989357</ele>
        <time>2020-08-27T11:00:30.531Z</time>
      </trkpt>
      <trkpt lat="69.67649" lon="18.75032">
        <ele>4.844573</ele>
        <time>2020-08-27T11:00:32.524Z</time>
      </trkpt>
      <trkpt lat="69.67657" lon="18.75019">
        <ele>4.743964</ele>
        <time>2020-08-27T11:00:34.311Z</time>
      </trkpt>
      <trkpt lat="69.67673" lon="18.75001">
        <ele>4.565939</ele>
        <time>2020-08-27T11:00:37.129Z</time>
      </trkpt>
      <trkpt lat="69.67676" lon="18.74996">
        <ele>4.528117</ele>
        <time>2020-08-27T11:00:37.660Z</time>
      </trkpt>
      <trkpt lat="69.67678" lon="18.74992">
        <ele>4.498341</ele>
        <time>2020-08-27T11:00:38.018Z</time>
      </trkpt>
      <trkpt lat="69.6772" lon="18.74885">
        <ele>3.907078</ele>
        <time>2020-08-27T11:00:46.695Z</time>
      </trkpt>
      <trkpt lat="69.67724" lon="18.74871">
        <ele>3.839605</ele>
        <time>2020-08-27T11:00:47.686Z</time>
      </trkpt>
      <trkpt lat="69.67727" lon="18.74859">
        <ele>3.783692</ele>
        <time>2020-08-27T11:00:48.628Z</time>
      </trkpt>
      <trkpt lat="69.67733" lon="18.74824">
        <ele>3.669696</ele>
        <time>2020-08-27T11:00:50.618Z</time>
      </trkpt>
      <trkpt lat="69.67734" lon="18.74807">
        <ele>3.625536</ele>
        <time>2020-08-27T11:00:51.667Z</time>
      </trkpt>
      <trkpt lat="69.67734" lon="18.74798">
        <ele>3.601313</ele>
        <time>2020-08-27T11:00:53.874Z</time>
      </trkpt>
      <trkpt lat="69.67734" lon="18.74786">
        <ele>3.568871</ele>
        <time>2020-08-27T11:00:56.849Z</time>
      </trkpt>
      <trkpt lat="69.67733" lon="18.74775">
        <ele>3.540046</ele>
        <time>2020-08-27T11:00:59.491Z</time>
      </trkpt>
      <trkpt lat="69.67733" lon="18.74769">
        <ele>3.524391</ele>
        <time>2020-08-27T11:01:00.938Z</time>
      </trkpt>
      <trkpt lat="69.67733" lon="18.74759">
        <ele>3.496495</ele>
        <time>2020-08-27T11:01:01.593Z</time>
      </trkpt>
      <trkpt lat="69.67732" lon="18.74742">
        <ele>3.451714</ele>
        <time>2020-08-27T11:01:02.369Z</time>
      </trkpt>
      <trkpt lat="69.67725" lon="18.74685">
        <ele>3.290765</ele>
        <time>2020-08-27T11:01:05.783Z</time>
      </trkpt>
      <trkpt lat="69.67709" lon="18.74618">
        <ele>3.076689</ele>
        <time>2020-08-27T11:01:10.242Z</time>
      </trkpt>
      <trkpt lat="69.67701" lon="18.74608">
        <ele>3.010161</ele>
        <time>2020-08-27T11:01:11.531Z</time>
      </trkpt>
      <trkpt lat="69.67697" lon="18.74604">
        <ele>2.982727</ele>
        <time>2020-08-27T11:01:12.403Z</time>
      </trkpt>
      <trkpt lat="69.67647" lon="18.74569">
        <ele>2.586595</ele>
        <time>2020-08-27T11:01:20.949Z</time>
      </trkpt>
      <trkpt lat="69.67641" lon="18.74563">
        <ele>2.541161</ele>
        <time>2020-08-27T11:01:22.038Z</time>
      </trkpt>
      <trkpt lat="69.67629" lon="18.74554">
        <ele>2.450475</ele>
        <time>2020-08-27T11:01:23.933Z</time>
      </trkpt>
      <trkpt lat="69.67569" lon="18.74509">
        <ele>3.611183</ele>
        <time>2020-08-27T11:01:38.528Z</time>
      </trkpt>
      <trkpt lat="69.67563" lon="18.74506">
        <ele>3.746946</ele>
        <time>2020-08-27T11:01:39.394Z</time>
      </trkpt>
      <trkpt lat="69.67557" lon="18.74502">
        <ele>3.909463</ele>
        <time>2020-08-27T11:01:41.970Z</time>
      </trkpt>
      <trkpt lat="69.67492" lon="18.74448">
        <ele>5.51079</ele>
        <time>2020-08-27T11:01:59.963Z</time>
      </trkpt>
      <trkpt lat="69.67489" lon="18.74445">
        <ele>5.586776</ele>
        <time>2020-08-27T11:02:01.412Z</time>
      </trkpt>
      <trkpt lat="69.67486" lon="18.74442">
        <ele>5.652423</ele>
        <time>2020-08-27T11:02:02.826Z</time>
      </trkpt>
      <trkpt lat="69.67451" lon="18.74414">
        <ele>6.53211</ele>
        <time>2020-08-27T11:02:13.276Z</time>
      </trkpt>
      <trkpt lat="69.67449" lon="18.74414">
        <ele>6.574862</ele>
        <time>2020-08-27T11:02:14.450Z</time>
      </trkpt>
      <trkpt lat="69.67437" lon="18.74416">
        <ele>6.923307</ele>
        <time>2020-08-27T11:02:17.052Z</time>
      </trkpt>
      <trkpt lat="69.67418" lon="18.74414">
        <ele>7.547078</ele>
        <time>2020-08-27T11:02:22.543Z</time>
      </trkpt>
      <trkpt lat="69.67414" lon="18.74411">
        <ele>7.690753</ele>
        <time>2020-08-27T11:02:24.740Z</time>
      </trkpt>
      <trkpt lat="69.67412" lon="18.7441">
        <ele>7.757591</ele>
        <time>2020-08-27T11:02:25.624Z</time>
      </trkpt>
      <trkpt lat="69.67298" lon="18.74427">
        <ele>11.44853</ele>
        <time>2020-08-27T11:02:59.146Z</time>
      </trkpt>
      <trkpt lat="69.67288" lon="18.7443">
        <ele>11.771244</ele>
        <time>2020-08-27T11:03:01.702Z</time>
      </trkpt>
      <trkpt lat="69.67247" lon="18.74438">
        <ele>13.018577</ele>
        <time>2020-08-27T11:03:12.446Z</time>
      </trkpt>
      <trkpt lat="69.67187" lon="18.74466">
        <ele>14.700978</ele>
        <time>2020-08-27T11:03:28.361Z</time>
      </trkpt>
      <trkpt lat="69.67078" lon="18.74559">
        <ele>17.744176</ele>
        <time>2020-08-27T11:04:00.635Z</time>
      </trkpt>
      <trkpt lat="69.67051" lon="18.74584">
        <ele>18.30188</ele>
        <time>2020-08-27T11:04:08.397Z</time>
      </trkpt>
      <trkpt lat="69.67034" lon="18.74599">
        <ele>18.651985</ele>
        <time>2020-08-27T11:04:13.303Z</time>
      </trkpt>
      <trkpt lat="69.66997" lon="18.74629">
        <ele>19.394002</ele>
        <time>2020-08-27T11:04:22.901Z</time>
      </trkpt>
      <trkpt lat="69.66973" lon="18.74652">
        <ele>19.88283</ele>
        <time>2020-08-27T11:04:29.125Z</time>
      </trkpt>
      <trkpt lat="69.66947" lon="18.74676">
        <ele>20.404457</ele>
        <time>2020-08-27T11:04:35.595Z</time>
      </trkpt>
      <trkpt lat="69.6688" lon="18.7476">
        <ele>20.814188</ele>
        <time>2020-08-27T11:04:51.143Z</time>
      </trkpt>
      <trkpt lat="69.66878" lon="18.74765">
        <ele>20.805006</ele>
        <time>2020-08-27T11:04:51.860Z</time>
      </trkpt>
      <trkpt lat="69.66878" lon="18.74769">
        <ele>20.7995</ele>
        <time>2020-08-27T11:04:52.126Z</time>
      </trkpt>
      <trkpt lat="69.66881" lon="18.74783">
        <ele>20.780439</ele>
        <time>2020-08-27T11:04:53.281Z</time>
      </trkpt>
      <trkpt lat="69.66829" lon="18.74853">
        <ele>20.589364</ele>
        <time>2020-08-27T11:05:03.258Z</time>
      </trkpt>
      <trkpt lat="69.66808" lon="18.74882">
        <ele>20.51095</ele>
        <time>2020-08-27T11:05:06.847Z</time>
      </trkpt>
      <trkpt lat="69.66805" lon="18.74885">
        <ele>20.502853</ele>
        <time>2020-08-27T11:05:07.293Z</time>
      </trkpt>
      <trkpt lat="69.66787" lon="18.74911">
        <ele>20.434934</ele>
        <time>2020-08-27T11:05:10.265Z</time>
      </trkpt>
      <trkpt lat="69.66735" lon="18.75">
        <ele>19.81987</ele>
        <time>2020-08-27T11:05:19.353Z</time>
      </trkpt>
      <trkpt lat="69.66601" lon="18.75316">
        <ele>17.008844</ele>
        <time>2020-08-27T11:05:45.352Z</time>
      </trkpt>
      <trkpt lat="69.6659" lon="18.75336">
        <ele>16.642569</ele>
        <time>2020-08-27T11:05:47.287Z</time>
      </trkpt>
      <trkpt lat="69.66584" lon="18.75345">
        <ele>16.470514</ele>
        <time>2020-08-27T11:05:48.134Z</time>
      </trkpt>
      <trkpt lat="69.66483" lon="18.75457">
        <ele>13.520445</ele>
        <time>2020-08-27T11:06:02.205Z</time>
      </trkpt>
      <trkpt lat="69.66466" lon="18.75473">
        <ele>13.038798</ele>
        <time>2020-08-27T11:06:04.756Z</time>
      </trkpt>
      <trkpt lat="69.66446" lon="18.75491">
        <ele>12.508735</ele>
        <time>2020-08-27T11:06:07.380Z</time>
      </trkpt>
      <trkpt lat="69.66431" lon="18.75503">
        <ele>12.137777</ele>
        <time>2020-08-27T11:06:09.606Z</time>
      </trkpt>
      <trkpt lat="69.6643" lon="18.75504">
        <ele>12.090503</ele>
        <time>2020-08-27T11:06:09.803Z</time>
      </trkpt>
      <trkpt lat="69.66425" lon="18.75506">
        <ele>11.96591</ele>
        <time>2020-08-27T11:06:10.379Z</time>
      </trkpt>
      <trkpt lat="69.66378" lon="18.75506">
        <ele>10.819394</ele>
        <time>2020-08-27T11:06:16.575Z</time>
      </trkpt>
      <trkpt lat="69.66328" lon="18.75449">
        <ele>9.499345</ele>
        <time>2020-08-27T11:06:23.854Z</time>
      </trkpt>
      <trkpt lat="69.65992" lon="18.74696">
        <ele>6.903335</ele>
        <time>2020-08-27T11:07:33.924Z</time>
      </trkpt>
      <trkpt lat="69.65943" lon="18.74623">
        <ele>7.268227</ele>
        <time>2020-08-27T11:07:45.771Z</time>
      </trkpt>
      <trkpt lat="69.65893" lon="18.74593">
        <ele>7.600074</ele>
        <time>2020-08-27T11:07:55.996Z</time>
      </trkpt>
      <trkpt lat="69.65888" lon="18.74591">
        <ele>7.636448</ele>
        <time>2020-08-27T11:07:57.633Z</time>
      </trkpt>
      <trkpt lat="69.65864" lon="18.74584">
        <ele>7.792701</ele>
        <time>2020-08-27T11:08:02.174Z</time>
      </trkpt>
      <trkpt lat="69.65831" lon="18.74574">
        <ele>8.019487</ele>
        <time>2020-08-27T11:08:09.087Z</time>
      </trkpt>
      <trkpt lat="69.65807" lon="18.74567">
        <ele>8.196682</ele>
        <time>2020-08-27T11:08:14.344Z</time>
      </trkpt>
      <trkpt lat="69.65783" lon="18.74561">
        <ele>8.37157</ele>
        <time>2020-08-27T11:08:19.531Z</time>
      </trkpt>
      <trkpt lat="69.65771" lon="18.74558">
        <ele>8.456429</ele>
        <time>2020-08-27T11:08:21.839Z</time>
      </trkpt>
      <trkpt lat="69.65696" lon="18.74536">
        <ele>8.998122</ele>
        <time>2020-08-27T11:08:36.691Z</time>
      </trkpt>
      <trkpt lat="69.65512" lon="18.74445">
        <ele>9.73467</ele>
        <time>2020-08-27T11:09:12.496Z</time>
      </trkpt>
      <trkpt lat="69.65463" lon="18.74415">
        <ele>9.621839</ele>
        <time>2020-08-27T11:09:21.624Z</time>
      </trkpt>
      <trkpt lat="69.65412" lon="18.74384">
        <ele>9.315011</ele>
        <time>2020-08-27T11:09:30.422Z</time>
      </trkpt>
      <trkpt lat="69.65278" lon="18.74301">
        <ele>8.185428</ele>
        <time>2020-08-27T11:09:51.695Z</time>
      </trkpt>
      <trkpt lat="69.65205" lon="18.7423">
        <ele>7.092896</ele>
        <time>2020-08-27T11:10:03.055Z</time>
      </trkpt>
      <trkpt lat="69.65197" lon="18.7422">
        <ele>6.968733</ele>
        <time>2020-08-27T11:10:04.330Z</time>
      </trkpt>
      <trkpt lat="69.65185" lon="18.74203">
        <ele>6.772522</ele>
        <time>2020-08-27T11:10:06.293Z</time>
      </trkpt>
      <trkpt lat="69.65174" lon="18.74188">
        <ele>6.605876</ele>
        <time>2020-08-27T11:10:08.048Z</time>
      </trkpt>
      <trkpt lat="69.65143" lon="18.74142">
        <ele>6.130775</ele>
        <time>2020-08-27T11:10:13.081Z</time>
      </trkpt>
      <trkpt lat="69.65121" lon="18.74105">
        <ele>5.839295</ele>
        <time>2020-08-27T11:10:16.809Z</time>
      </trkpt>
      <trkpt lat="69.65106" lon="18.74081">
        <ele>5.649421</ele>
        <time>2020-08-27T11:10:19.322Z</time>
      </trkpt>
      <trkpt lat="69.65067" lon="18.74018">
        <ele>5.146195</ele>
        <time>2020-08-27T11:10:25.903Z</time>
      </trkpt>
      <trkpt lat="69.65034" lon="18.73964">
        <ele>4.720341</ele>
        <time>2020-08-27T11:10:31.738Z</time>
      </trkpt>
      <trkpt lat="69.64983" lon="18.73881">
        <ele>4.169121</ele>
        <time>2020-08-27T11:10:41.372Z</time>
      </trkpt>
      <trkpt lat="69.64973" lon="18.73863">
        <ele>4.170475</ele>
        <time>2020-08-27T11:10:43.543Z</time>
      </trkpt>
      <trkpt lat="69.64957" lon="18.73838">
        <ele>4.17243</ele>
        <time>2020-08-27T11:10:46.684Z</time>
      </trkpt>
      <trkpt lat="69.64935" lon="18.73801">
        <ele>4.175271</ele>
        <time>2020-08-27T11:10:51.394Z</time>
      </trkpt>
      <trkpt lat="69.64926" lon="18.73786">
        <ele>4.176395</ele>
        <time>2020-08-27T11:10:53.224Z</time>
      </trkpt>
      <trkpt lat="69.6483" lon="18.7363">
        <ele>4.177871</ele>
        <time>2020-08-27T11:11:13.788Z</time>
      </trkpt>
      <trkpt lat="69.6471" lon="18.73433">
        <ele>3.945759</ele>
        <time>2020-08-27T11:11:37.701Z</time>
      </trkpt>
      <trkpt lat="69.64594" lon="18.73244">
        <ele>3.890391</ele>
        <time>2020-08-27T11:12:00.071Z</time>
      </trkpt>
      <trkpt lat="69.64559" lon="18.73187">
        <ele>3.891872</ele>
        <time>2020-08-27T11:12:07.323Z</time>
      </trkpt>
      <trkpt lat="69.64532" lon="18.73143">
        <ele>3.892991</ele>
        <time>2020-08-27T11:12:13.108Z</time>
      </trkpt>
      <trkpt lat="69.64446" lon="18.73002">
        <ele>4.695061</ele>
        <time>2020-08-27T11:12:33.356Z</time>
      </trkpt>
      <trkpt lat="69.64441" lon="18.72995">
        <ele>4.745165</ele>
        <time>2020-08-27T11:12:34.495Z</time>
      </trkpt>
      <trkpt lat="69.64428" lon="18.72973">
        <ele>4.881137</ele>
        <time>2020-08-27T11:12:37.718Z</time>
      </trkpt>
      <trkpt lat="69.6441" lon="18.72943">
        <ele>5.071469</ele>
        <time>2020-08-27T11:12:42.185Z</time>
      </trkpt>
      <trkpt lat="69.64378" lon="18.72895">
        <ele>5.398146</ele>
        <time>2020-08-27T11:12:49.979Z</time>
      </trkpt>
      <trkpt lat="69.64367" lon="18.7288">
        <ele>5.514689</ele>
        <time>2020-08-27T11:12:52.758Z</time>
      </trkpt>
      <trkpt lat="69.64359" lon="18.72871">
        <ele>5.593797</ele>
        <time>2020-08-27T11:12:54.494Z</time>
      </trkpt>
      <trkpt lat="69.64338" lon="18.72848">
        <ele>5.833635</ele>
        <time>2020-08-27T11:12:59.361Z</time>
      </trkpt>
      <trkpt lat="69.64299" lon="18.72811">
        <ele>6.264886</ele>
        <time>2020-08-27T11:13:08.255Z</time>
      </trkpt>
      <trkpt lat="69.6419" lon="18.72712">
        <ele>7.442887</ele>
        <time>2020-08-27T11:13:32.510Z</time>
      </trkpt>
      <trkpt lat="69.64147" lon="18.72673">
        <ele>7.63731</ele>
        <time>2020-08-27T11:13:41.761Z</time>
      </trkpt>
      <trkpt lat="69.6411" lon="18.7264">
        <ele>7.801858</ele>
        <time>2020-08-27T11:13:49.446Z</time>
      </trkpt>
      <trkpt lat="69.64021" lon="18.7256">
        <ele>8.188574</ele>
        <time>2020-08-27T11:14:06.467Z</time>
      </trkpt>
      <trkpt lat="69.63994" lon="18.72535">
        <ele>8.173647</ele>
        <time>2020-08-27T11:14:11.343Z</time>
      </trkpt>
      <trkpt lat="69.63976" lon="18.72516">
        <ele>8.163607</ele>
        <time>2020-08-27T11:14:14.767Z</time>
      </trkpt>
      <trkpt lat="69.63964" lon="18.72503">
        <ele>8.156894</ele>
        <time>2020-08-27T11:14:16.890Z</time>
      </trkpt>
      <trkpt lat="69.63917" lon="18.72438">
        <ele>8.129776</ele>
        <time>2020-08-27T11:14:25.971Z</time>
      </trkpt>
      <trkpt lat="69.63876" lon="18.72371">
        <ele>8.104767</ele>
        <time>2020-08-27T11:14:34.282Z</time>
      </trkpt>
      <trkpt lat="69.63836" lon="18.72307">
        <ele>8.181672</ele>
        <time>2020-08-27T11:14:42.767Z</time>
      </trkpt>
      <trkpt lat="69.63745" lon="18.72178">
        <ele>8.497509</ele>
        <time>2020-08-27T11:15:01.483Z</time>
      </trkpt>
      <trkpt lat="69.63738" lon="18.72171">
        <ele>8.519355</ele>
        <time>2020-08-27T11:15:03.060Z</time>
      </trkpt>
      <trkpt lat="69.6373" lon="18.72163">
        <ele>8.547258</ele>
        <time>2020-08-27T11:15:04.693Z</time>
      </trkpt>
      <trkpt lat="69.63598" lon="18.72078">
        <ele>9.208933</ele>
        <time>2020-08-27T11:15:31.585Z</time>
      </trkpt>
      <trkpt lat="69.63581" lon="18.7207">
        <ele>9.304897</ele>
        <time>2020-08-27T11:15:34.765Z</time>
      </trkpt>
      <trkpt lat="69.63567" lon="18.72063">
        <ele>9.38051</ele>
        <time>2020-08-27T11:15:37.570Z</time>
      </trkpt>
      <trkpt lat="69.63452" lon="18.71997">
        <ele>9.638949</ele>
        <time>2020-08-27T11:16:00.359Z</time>
      </trkpt>
      <trkpt lat="69.63405" lon="18.71985">
        <ele>9.633736</ele>
        <time>2020-08-27T11:16:09.216Z</time>
      </trkpt>
      <trkpt lat="69.63344" lon="18.72007">
        <ele>9.627004</ele>
        <time>2020-08-27T11:16:19.317Z</time>
      </trkpt>
      <trkpt lat="69.63292" lon="18.7206">
        <ele>9.010478</ele>
        <time>2020-08-27T11:16:27.857Z</time>
      </trkpt>
      <trkpt lat="69.63264" lon="18.72094">
        <ele>8.6616</ele>
        <time>2020-08-27T11:16:32.387Z</time>
      </trkpt>
      <trkpt lat="69.6322" lon="18.72146">
        <ele>8.11493</ele>
        <time>2020-08-27T11:16:39.460Z</time>
      </trkpt>
      <trkpt lat="69.63195" lon="18.72177">
        <ele>7.798688</ele>
        <time>2020-08-27T11:16:43.482Z</time>
      </trkpt>
      <trkpt lat="69.63158" lon="18.72221">
        <ele>7.530859</ele>
        <time>2020-08-27T11:16:49.456Z</time>
      </trkpt>
      <trkpt lat="69.63096" lon="18.72298">
        <ele>7.460776</ele>
        <time>2020-08-27T11:17:00.142Z</time>
      </trkpt>
      <trkpt lat="69.63068" lon="18.72332">
        <ele>7.429652</ele>
        <time>2020-08-27T11:17:05.532Z</time>
      </trkpt>
      <trkpt lat="69.63064" lon="18.72337">
        <ele>7.425237</ele>
        <time>2020-08-27T11:17:06.316Z</time>
      </trkpt>
      <trkpt lat="69.63052" lon="18.72351">
        <ele>7.411891</ele>
        <time>2020-08-27T11:17:08.713Z</time>
      </trkpt>
      <trkpt lat="69.63032" lon="18.72376">
        <ele>7.389794</ele>
        <time>2020-08-27T11:17:13.347Z</time>
      </trkpt>
      <trkpt lat="69.63029" lon="18.72381">
        <ele>7.385871</ele>
        <time>2020-08-27T11:17:14.173Z</time>
      </trkpt>
      <trkpt lat="69.63016" lon="18.72397">
        <ele>7.371321</ele>
        <time>2020-08-27T11:17:16.872Z</time>
      </trkpt>
      <trkpt lat="69.63013" lon="18.72401">
        <ele>7.368036</ele>
        <time>2020-08-27T11:17:17.641Z</time>
      </trkpt>
      <trkpt lat="69.62996" lon="18.72425">
        <ele>7.732794</ele>
        <time>2020-08-27T11:17:22.211Z</time>
      </trkpt>
      <trkpt lat="69.62983" lon="18.72446">
        <ele>8.083399</ele>
        <time>2020-08-27T11:17:25.205Z</time>
      </trkpt>
      <trkpt lat="69.62973" lon="18.72466">
        <ele>8.378582</ele>
        <time>2020-08-27T11:17:28.348Z</time>
      </trkpt>
      <trkpt lat="69.62966" lon="18.72481">
        <ele>8.592591</ele>
        <time>2020-08-27T11:17:30.492Z</time>
      </trkpt>
      <trkpt lat="69.62952" lon="18.72512">
        <ele>9.005671</ele>
        <time>2020-08-27T11:17:34.637Z</time>
      </trkpt>
      <trkpt lat="69.62945" lon="18.7253">
        <ele>9.223807</ele>
        <time>2020-08-27T11:17:37.274Z</time>
      </trkpt>
      <trkpt lat="69.62932" lon="18.72568">
        <ele>9.668241</ele>
        <time>2020-08-27T11:17:41.856Z</time>
      </trkpt>
      <trkpt lat="69.62923" lon="18.726">
        <ele>10.012294</ele>
        <time>2020-08-27T11:17:45.979Z</time>
      </trkpt>
      <trkpt lat="69.62918" lon="18.72619">
        <ele>10.207205</ele>
        <time>2020-08-27T11:17:48.181Z</time>
      </trkpt>
      <trkpt lat="69.62909" lon="18.7266">
        <ele>10.613553</ele>
        <time>2020-08-27T11:17:52.474Z</time>
      </trkpt>
      <trkpt lat="69.62907" lon="18.72673">
        <ele>10.733195</ele>
        <time>2020-08-27T11:17:53.998Z</time>
      </trkpt>
      <trkpt lat="69.62904" lon="18.72685">
        <ele>10.847333</ele>
        <time>2020-08-27T11:17:55.511Z</time>
      </trkpt>
      <trkpt lat="69.629" lon="18.72708">
        <ele>11.060401</ele>
        <time>2020-08-27T11:17:58.003Z</time>
      </trkpt>
      <trkpt lat="69.629" lon="18.7271">
        <ele>11.084754</ele>
        <time>2020-08-27T11:17:58.318Z</time>
      </trkpt>
      <trkpt lat="69.62896" lon="18.72735">
        <ele>11.309443</ele>
        <time>2020-08-27T11:18:00.697Z</time>
      </trkpt>
      <trkpt lat="69.62892" lon="18.72765">
        <ele>11.572418</ele>
        <time>2020-08-27T11:18:03.750Z</time>
      </trkpt>
      <trkpt lat="69.62885" lon="18.72823">
        <ele>12.255742</ele>
        <time>2020-08-27T11:18:09.857Z</time>
      </trkpt>
      <trkpt lat="69.62877" lon="18.72889">
        <ele>13.06321</ele>
        <time>2020-08-27T11:18:17.041Z</time>
      </trkpt>
      <trkpt lat="69.62845" lon="18.73206">
        <ele>16.876986</ele>
        <time>2020-08-27T11:18:49.977Z</time>
      </trkpt>
      <trkpt lat="69.62845" lon="18.73359">
        <ele>18.52144</ele>
        <time>2020-08-27T11:19:05.143Z</time>
      </trkpt>
      <trkpt lat="69.62861" lon="18.73484">
        <ele>19.888119</ele>
        <time>2020-08-27T11:19:17.976Z</time>
      </trkpt>
      <trkpt lat="69.6295" lon="18.73905">
        <ele>23.539734</ele>
        <time>2020-08-27T11:20:03.692Z</time>
      </trkpt>
      <trkpt lat="69.62955" lon="18.73939">
        <ele>23.660367</ele>
        <time>2020-08-27T11:20:06.573Z</time>
      </trkpt>
      <trkpt lat="69.62958" lon="18.73961">
        <ele>23.737783</ele>
        <time>2020-08-27T11:20:08.250Z</time>
      </trkpt>
      <trkpt lat="69.62972" lon="18.74184">
        <ele>24.471594</ele>
        <time>2020-08-27T11:20:22.184Z</time>
      </trkpt>
      <trkpt lat="69.62973" lon="18.74224">
        <ele>24.498019</ele>
        <time>2020-08-27T11:20:24.886Z</time>
      </trkpt>
      <trkpt lat="69.62973" lon="18.74249">
        <ele>24.282174</ele>
        <time>2020-08-27T11:20:25.944Z</time>
      </trkpt>
      <trkpt lat="69.62969" lon="18.74383">
        <ele>23.104554</ele>
        <time>2020-08-27T11:20:32.696Z</time>
      </trkpt>
      <trkpt lat="69.62956" lon="18.74523">
        <ele>21.831032</ele>
        <time>2020-08-27T11:20:39.619Z</time>
      </trkpt>
      <trkpt lat="69.62954" lon="18.74549">
        <ele>21.597309</ele>
        <time>2020-08-27T11:20:40.687Z</time>
      </trkpt>
      <trkpt lat="69.6295" lon="18.74577">
        <ele>21.332211</ele>
        <time>2020-08-27T11:20:42.068Z</time>
      </trkpt>
      <trkpt lat="69.62911" lon="18.74876">
        <ele>18.906513</ele>
        <time>2020-08-27T11:20:56.599Z</time>
      </trkpt>
      <trkpt lat="69.62904" lon="18.74933">
        <ele>18.504055</ele>
        <time>2020-08-27T11:20:59.433Z</time>
      </trkpt>
      <trkpt lat="69.629" lon="18.74962">
        <ele>18.299095</ele>
        <time>2020-08-27T11:21:00.880Z</time>
      </trkpt>
      <trkpt lat="69.62893" lon="18.75015">
        <ele>17.925318</ele>
        <time>2020-08-27T11:21:03.896Z</time>
      </trkpt>
      <trkpt lat="69.62888" lon="18.7505">
        <ele>17.677304</ele>
        <time>2020-08-27T11:21:05.805Z</time>
      </trkpt>
      <trkpt lat="69.6288" lon="18.75112">
        <ele>17.241722</ele>
        <time>2020-08-27T11:21:09.438Z</time>
      </trkpt>
      <trkpt lat="69.62876" lon="18.75144">
        <ele>17.015842</ele>
        <time>2020-08-27T11:21:11.211Z</time>
      </trkpt>
      <trkpt lat="69.62868" lon="18.75203">
        <ele>16.638878</ele>
        <time>2020-08-27T11:21:14.870Z</time>
      </trkpt>
      <trkpt lat="69.62757" lon="18.76046">
        <ele>18.557598</ele>
        <time>2020-08-27T11:22:17.387Z</time>
      </trkpt>
      <trkpt lat="69.62749" lon="18.76111">
        <ele>18.759898</ele>
        <time>2020-08-27T11:22:22.622Z</time>
      </trkpt>
      <trkpt lat="69.62742" lon="18.76163">
        <ele>18.918923</ele>
        <time>2020-08-27T11:22:26.966Z</time>
      </trkpt>
      <trkpt lat="69.62717" lon="18.76375">
        <ele>19.62904</ele>
        <time>2020-08-27T11:22:44.154Z</time>
      </trkpt>
      <trkpt lat="69.62699" lon="18.76615">
        <ele>20.409724</ele>
        <time>2020-08-27T11:23:01.877Z</time>
      </trkpt>
      <trkpt lat="69.62698" lon="18.76635">
        <ele>20.473071</ele>
        <time>2020-08-27T11:23:03.414Z</time>
      </trkpt>
      <trkpt lat="69.62697" lon="18.76651">
        <ele>20.524059</ele>
        <time>2020-08-27T11:23:04.448Z</time>
      </trkpt>
      <trkpt lat="69.62689" lon="18.76901">
        <ele>20.577053</ele>
        <time>2020-08-27T11:23:20.274Z</time>
      </trkpt>
      <trkpt lat="69.62688" lon="18.76964">
        <ele>20.580284</ele>
        <time>2020-08-27T11:23:24.225Z</time>
      </trkpt>
      <trkpt lat="69.62688" lon="18.77015">
        <ele>20.582893</ele>
        <time>2020-08-27T11:23:27.123Z</time>
      </trkpt>
      <trkpt lat="69.62694" lon="18.77274">
        <ele>20.799848</ele>
        <time>2020-08-27T11:23:42.349Z</time>
      </trkpt>
      <trkpt lat="69.62714" lon="18.77589">
        <ele>21.503932</ele>
        <time>2020-08-27T11:24:04.146Z</time>
      </trkpt>
      <trkpt lat="69.62717" lon="18.77629">
        <ele>21.594175</ele>
        <time>2020-08-27T11:24:07.200Z</time>
      </trkpt>
      <trkpt lat="69.62725" lon="18.77747">
        <ele>22.197883</ele>
        <time>2020-08-27T11:24:16.643Z</time>
      </trkpt>
      <trkpt lat="69.62772" lon="18.78435">
        <ele>27.690521</ele>
        <time>2020-08-27T11:25:20.233Z</time>
      </trkpt>
      <trkpt lat="69.62779" lon="18.78542">
        <ele>28.516026</ele>
        <time>2020-08-27T11:25:30.033Z</time>
      </trkpt>
      <trkpt lat="69.62783" lon="18.78601">
        <ele>28.966743</ele>
        <time>2020-08-27T11:25:35.423Z</time>
      </trkpt>
      <trkpt lat="69.62817" lon="18.79123">
        <ele>30.462667</ele>
        <time>2020-08-27T11:26:14.629Z</time>
      </trkpt>
      <trkpt lat="69.62817" lon="18.79349">
        <ele>29.245871</ele>
        <time>2020-08-27T11:26:26.233Z</time>
      </trkpt>
      <trkpt lat="69.62797" lon="18.79568">
        <ele>26.992935</ele>
        <time>2020-08-27T11:26:36.656Z</time>
      </trkpt>
      <trkpt lat="69.6273" lon="18.79918">
        <ele>22.17909</ele>
        <time>2020-08-27T11:26:53.927Z</time>
      </trkpt>
      <trkpt lat="69.62726" lon="18.79934">
        <ele>21.940489</ele>
        <time>2020-08-27T11:26:54.607Z</time>
      </trkpt>
      <trkpt lat="69.62721" lon="18.79959">
        <ele>21.533963</ele>
        <time>2020-08-27T11:26:55.981Z</time>
      </trkpt>
      <trkpt lat="69.62691" lon="18.80094">
        <ele>19.417012</ele>
        <time>2020-08-27T11:27:03.396Z</time>
      </trkpt>
      <trkpt lat="69.6269" lon="18.80098">
        <ele>19.349317</ele>
        <time>2020-08-27T11:27:03.579Z</time>
      </trkpt>
      <trkpt lat="69.62687" lon="18.8011">
        <ele>19.14272</ele>
        <time>2020-08-27T11:27:04.219Z</time>
      </trkpt>
      <trkpt lat="69.62652" lon="18.80238">
        <ele>18.38789</ele>
        <time>2020-08-27T11:27:12.260Z</time>
      </trkpt>
      <trkpt lat="69.62616" lon="18.80332">
        <ele>18.166611</ele>
        <time>2020-08-27T11:27:19.569Z</time>
      </trkpt>
      <trkpt lat="69.62569" lon="18.80432">
        <ele>17.894822</ele>
        <time>2020-08-27T11:27:31.677Z</time>
      </trkpt>
      <trkpt lat="69.62522" lon="18.80505">
        <ele>17.839251</ele>
        <time>2020-08-27T11:27:42.976Z</time>
      </trkpt>
      <trkpt lat="69.62516" lon="18.80511">
        <ele>17.863798</ele>
        <time>2020-08-27T11:27:44.620Z</time>
      </trkpt>
      <trkpt lat="69.62505" lon="18.80525">
        <ele>17.911449</ele>
        <time>2020-08-27T11:27:47.305Z</time>
      </trkpt>
      <trkpt lat="69.6244" lon="18.80584">
        <ele>18.175293</ele>
        <time>2020-08-27T11:28:00.804Z</time>
      </trkpt>
      <trkpt lat="69.62375" lon="18.80611">
        <ele>18.430438</ele>
        <time>2020-08-27T11:28:12.624Z</time>
      </trkpt>
      <trkpt lat="69.62358" lon="18.80614">
        <ele>18.317858</ele>
        <time>2020-08-27T11:28:15.656Z</time>
      </trkpt>
      <trkpt lat="69.62352" lon="18.80616">
        <ele>18.246775</ele>
        <time>2020-08-27T11:28:16.667Z</time>
      </trkpt>
      <trkpt lat="69.62346" lon="18.80617">
        <ele>18.18489</ele>
        <time>2020-08-27T11:28:17.397Z</time>
      </trkpt>
      <trkpt lat="69.61961" lon="18.8072">
        <ele>14.17949</ele>
        <time>2020-08-27T11:29:15.360Z</time>
      </trkpt>
      <trkpt lat="69.61953" lon="18.80723">
        <ele>14.195832</ele>
        <time>2020-08-27T11:29:16.958Z</time>
      </trkpt>
      <trkpt lat="69.61949" lon="18.80724">
        <ele>14.204003</ele>
        <time>2020-08-27T11:29:17.822Z</time>
      </trkpt>
      <trkpt lat="69.6192" lon="18.80731">
        <ele>14.26196</ele>
        <time>2020-08-27T11:29:23.391Z</time>
      </trkpt>
      <trkpt lat="69.61895" lon="18.80737">
        <ele>14.312731</ele>
        <time>2020-08-27T11:29:28.310Z</time>
      </trkpt>
      <trkpt lat="69.6188" lon="18.80741">
        <ele>14.34287</ele>
        <time>2020-08-27T11:29:31.603Z</time>
      </trkpt>
      <trkpt lat="69.61799" lon="18.80763">
        <ele>14.691744</ele>
        <time>2020-08-27T11:29:49.051Z</time>
      </trkpt>
      <trkpt lat="69.61778" lon="18.80769">
        <ele>14.850752</ele>
        <time>2020-08-27T11:29:53.814Z</time>
      </trkpt>
      <trkpt lat="69.61765" lon="18.80771">
        <ele>14.950089</ele>
        <time>2020-08-27T11:29:56.518Z</time>
      </trkpt>
      <trkpt lat="69.6163" lon="18.80808">
        <ele>15.902764</ele>
        <time>2020-08-27T11:30:23.109Z</time>
      </trkpt>
      <trkpt lat="69.61605" lon="18.80814">
        <ele>16.020323</ele>
        <time>2020-08-27T11:30:27.428Z</time>
      </trkpt>
      <trkpt lat="69.61574" lon="18.80819">
        <ele>16.169532</ele>
        <time>2020-08-27T11:30:33.168Z</time>
      </trkpt>
      <trkpt lat="69.61474" lon="18.80803">
        <ele>16.64584</ele>
        <time>2020-08-27T11:30:52.931Z</time>
      </trkpt>
      <trkpt lat="69.61451" lon="18.80798">
        <ele>16.839717</ele>
        <time>2020-08-27T11:30:57.691Z</time>
      </trkpt>
      <trkpt lat="69.61436" lon="18.80794">
        <ele>16.961002</ele>
        <time>2020-08-27T11:31:00.598Z</time>
      </trkpt>
      <trkpt lat="69.61419" lon="18.8079">
        <ele>17.106436</ele>
        <time>2020-08-27T11:31:04.093Z</time>
      </trkpt>
      <trkpt lat="69.61413" lon="18.80789">
        <ele>17.161829</ele>
        <time>2020-08-27T11:31:05.623Z</time>
      </trkpt>
      <trkpt lat="69.61364" lon="18.80776">
        <ele>17.569411</ele>
        <time>2020-08-27T11:31:15.556Z</time>
      </trkpt>
      <trkpt lat="69.61309" lon="18.80764">
        <ele>18.032663</ele>
        <time>2020-08-27T11:31:27.128Z</time>
      </trkpt>
      <trkpt lat="69.61278" lon="18.80755">
        <ele>18.216083</ele>
        <time>2020-08-27T11:31:33.589Z</time>
      </trkpt>
      <trkpt lat="69.61217" lon="18.80741">
        <ele>18.448535</ele>
        <time>2020-08-27T11:31:45.697Z</time>
      </trkpt>
      <trkpt lat="69.61203" lon="18.80738">
        <ele>18.500923</ele>
        <time>2020-08-27T11:31:48.307Z</time>
      </trkpt>
      <trkpt lat="69.61174" lon="18.80732">
        <ele>18.614063</ele>
        <time>2020-08-27T11:31:53.890Z</time>
      </trkpt>
      <trkpt lat="69.61155" lon="18.80727">
        <ele>18.686254</ele>
        <time>2020-08-27T11:31:57.435Z</time>
      </trkpt>
      <trkpt lat="69.61148" lon="18.80725">
        <ele>18.709847</ele>
        <time>2020-08-27T11:31:58.542Z</time>
      </trkpt>
      <trkpt lat="69.60948" lon="18.80682">
        <ele>18.656977</ele>
        <time>2020-08-27T11:32:33.838Z</time>
      </trkpt>
      <trkpt lat="69.60929" lon="18.80686">
        <ele>18.640346</ele>
        <time>2020-08-27T11:32:37.126Z</time>
      </trkpt>
      <trkpt lat="69.60919" lon="18.8069">
        <ele>18.635342</ele>
        <time>2020-08-27T11:32:38.836Z</time>
      </trkpt>
      <trkpt lat="69.60881" lon="18.80723">
        <ele>18.615234</ele>
        <time>2020-08-27T11:32:45.702Z</time>
      </trkpt>
      <trkpt lat="69.60752" lon="18.80878">
        <ele>18.547635</ele>
        <time>2020-08-27T11:33:10.577Z</time>
      </trkpt>
      <trkpt lat="69.60675" lon="18.80973">
        <ele>18.520139</ele>
        <time>2020-08-27T11:33:26.305Z</time>
      </trkpt>
      <trkpt lat="69.60657" lon="18.80995">
        <ele>18.513566</ele>
        <time>2020-08-27T11:33:29.948Z</time>
      </trkpt>
      <trkpt lat="69.60623" lon="18.81038">
        <ele>18.501393</ele>
        <time>2020-08-27T11:33:36.359Z</time>
      </trkpt>
      <trkpt lat="69.60612" lon="18.8105">
        <ele>18.497606</ele>
        <time>2020-08-27T11:33:38.301Z</time>
      </trkpt>
      <trkpt lat="69.60593" lon="18.81075">
        <ele>18.308355</ele>
        <time>2020-08-27T11:33:41.829Z</time>
      </trkpt>
      <trkpt lat="69.60581" lon="18.81088">
        <ele>18.087991</ele>
        <time>2020-08-27T11:33:43.841Z</time>
      </trkpt>
      <trkpt lat="69.60549" lon="18.81125">
        <ele>17.463698</ele>
        <time>2020-08-27T11:33:49.259Z</time>
      </trkpt>
      <trkpt lat="69.6054" lon="18.81136">
        <ele>17.283589</ele>
        <time>2020-08-27T11:33:50.695Z</time>
      </trkpt>
      <trkpt lat="69.6046" lon="18.81191">
        <ele>15.806131</ele>
        <time>2020-08-27T11:34:02.358Z</time>
      </trkpt>
      <trkpt lat="69.60424" lon="18.81194">
        <ele>15.048461</ele>
        <time>2020-08-27T11:34:07.114Z</time>
      </trkpt>
      <trkpt lat="69.60383" lon="18.81176">
        <ele>13.449187</ele>
        <time>2020-08-27T11:34:12.456Z</time>
      </trkpt>
      <trkpt lat="69.60324" lon="18.81097">
        <ele>10.932651</ele>
        <time>2020-08-27T11:34:20.515Z</time>
      </trkpt>
      <trkpt lat="69.60248" lon="18.80915">
        <ele>7.526933</ele>
        <time>2020-08-27T11:34:32.950Z</time>
      </trkpt>
      <trkpt lat="69.60243" lon="18.80902">
        <ele>7.35767</ele>
        <time>2020-08-27T11:34:33.730Z</time>
      </trkpt>
      <trkpt lat="69.60236" lon="18.80883">
        <ele>7.103924</ele>
        <time>2020-08-27T11:34:35.051Z</time>
      </trkpt>
      <trkpt lat="69.60201" lon="18.80799">
        <ele>5.961866</ele>
        <time>2020-08-27T11:34:41.150Z</time>
      </trkpt>
      <trkpt lat="69.60188" lon="18.80767">
        <ele>5.534102</ele>
        <time>2020-08-27T11:34:43.358Z</time>
      </trkpt>
      <trkpt lat="69.60179" lon="18.80746">
        <ele>5.2393</ele>
        <time>2020-08-27T11:34:45.108Z</time>
      </trkpt>
      <trkpt lat="69.60139" lon="18.80659">
        <ele>3.983915</ele>
        <time>2020-08-27T11:34:52.514Z</time>
      </trkpt>
      <trkpt lat="69.60136" lon="18.80653">
        <ele>3.88557</ele>
        <time>2020-08-27T11:34:53.042Z</time>
      </trkpt>
      <trkpt lat="69.60121" lon="18.80623">
        <ele>3.863765</ele>
        <time>2020-08-27T11:34:55.788Z</time>
      </trkpt>
      <trkpt lat="69.60086" lon="18.80552">
        <ele>4.114488</ele>
        <time>2020-08-27T11:35:03.959Z</time>
      </trkpt>
      <trkpt lat="69.60067" lon="18.80514">
        <ele>4.250641</ele>
        <time>2020-08-27T11:35:08.512Z</time>
      </trkpt>
      <trkpt lat="69.6006" lon="18.80503">
        <ele>4.295312</ele>
        <time>2020-08-27T11:35:10.216Z</time>
      </trkpt>
      <trkpt lat="69.6001" lon="18.80421">
        <ele>4.630084</ele>
        <time>2020-08-27T11:35:22.513Z</time>
      </trkpt>
      <trkpt lat="69.60002" lon="18.80412">
        <ele>4.682031</ele>
        <time>2020-08-27T11:35:24.707Z</time>
      </trkpt>
      <trkpt lat="69.59997" lon="18.80407">
        <ele>4.712239</ele>
        <time>2020-08-27T11:35:25.952Z</time>
      </trkpt>
      <trkpt lat="69.59982" lon="18.80391">
        <ele>4.80718</ele>
        <time>2020-08-27T11:35:29.533Z</time>
      </trkpt>
      <trkpt lat="69.59963" lon="18.80378">
        <ele>5.036637</ele>
        <time>2020-08-27T11:35:33.984Z</time>
      </trkpt>
      <trkpt lat="69.59955" lon="18.80374">
        <ele>5.143093</ele>
        <time>2020-08-27T11:35:35.624Z</time>
      </trkpt>
      <trkpt lat="69.59945" lon="18.80369">
        <ele>5.280192</ele>
        <time>2020-08-27T11:35:38.045Z</time>
      </trkpt>
      <trkpt lat="69.59887" lon="18.80356">
        <ele>6.059464</ele>
        <time>2020-08-27T11:35:51.058Z</time>
      </trkpt>
      <trkpt lat="69.59864" lon="18.80355">
        <ele>6.362139</ele>
        <time>2020-08-27T11:35:56.093Z</time>
      </trkpt>
      <trkpt lat="69.59855" lon="18.80354">
        <ele>6.493498</ele>
        <time>2020-08-27T11:35:58.284Z</time>
      </trkpt>
      <trkpt lat="69.59811" lon="18.8035">
        <ele>7.074914</ele>
        <time>2020-08-27T11:36:07.553Z</time>
      </trkpt>
      <trkpt lat="69.59788" lon="18.80348">
        <ele>7.368994</ele>
        <time>2020-08-27T11:36:12.586Z</time>
      </trkpt>
      <trkpt lat="69.59785" lon="18.80347">
        <ele>7.410882</ele>
        <time>2020-08-27T11:36:13.308Z</time>
      </trkpt>
      <trkpt lat="69.59767" lon="18.80345">
        <ele>7.638856</ele>
        <time>2020-08-27T11:36:17.196Z</time>
      </trkpt>
      <trkpt lat="69.59766" lon="18.80345">
        <ele>7.649939</ele>
        <time>2020-08-27T11:36:17.405Z</time>
      </trkpt>
      <trkpt lat="69.59742" lon="18.80344">
        <ele>7.935701</ele>
        <time>2020-08-27T11:36:22.571Z</time>
      </trkpt>
      <trkpt lat="69.59657" lon="18.80335">
        <ele>8.991658</ele>
        <time>2020-08-27T11:36:41.210Z</time>
      </trkpt>
      <trkpt lat="69.59631" lon="18.80333">
        <ele>9.309459</ele>
        <time>2020-08-27T11:36:46.818Z</time>
      </trkpt>
      <trkpt lat="69.59606" lon="18.80332">
        <ele>9.641036</ele>
        <time>2020-08-27T11:36:52.389Z</time>
      </trkpt>
      <trkpt lat="69.59507" lon="18.80308">
        <ele>10.993832</ele>
        <time>2020-08-27T11:37:14.206Z</time>
      </trkpt>
      <trkpt lat="69.59405" lon="18.80242">
        <ele>12.364249</ele>
        <time>2020-08-27T11:37:37.952Z</time>
      </trkpt>
      <trkpt lat="69.59379" lon="18.80223">
        <ele>12.67973</ele>
        <time>2020-08-27T11:37:43.860Z</time>
      </trkpt>
      <trkpt lat="69.59359" lon="18.80207">
        <ele>12.926899</ele>
        <time>2020-08-27T11:37:48.663Z</time>
      </trkpt>
      <trkpt lat="69.59313" lon="18.80172">
        <ele>13.493948</ele>
        <time>2020-08-27T11:37:58.949Z</time>
      </trkpt>
      <trkpt lat="69.59282" lon="18.80147">
        <ele>13.887127</ele>
        <time>2020-08-27T11:38:05.921Z</time>
      </trkpt>
      <trkpt lat="69.59241" lon="18.80115">
        <ele>14.045641</ele>
        <time>2020-08-27T11:38:14.183Z</time>
      </trkpt>
      <trkpt lat="69.59232" lon="18.80108">
        <ele>14.038955</ele>
        <time>2020-08-27T11:38:16.010Z</time>
      </trkpt>
      <trkpt lat="69.59221" lon="18.80099">
        <ele>14.031088</ele>
        <time>2020-08-27T11:38:18.138Z</time>
      </trkpt>
      <trkpt lat="69.59212" lon="18.80092">
        <ele>14.024573</ele>
        <time>2020-08-27T11:38:19.876Z</time>
      </trkpt>
      <trkpt lat="69.59209" lon="18.8009">
        <ele>14.022334</ele>
        <time>2020-08-27T11:38:20.475Z</time>
      </trkpt>
      <trkpt lat="69.59206" lon="18.80088">
        <ele>14.020523</ele>
        <time>2020-08-27T11:38:20.933Z</time>
      </trkpt>
      <trkpt lat="69.5918" lon="18.80067">
        <ele>14.001559</ele>
        <time>2020-08-27T11:38:25.719Z</time>
      </trkpt>
      <trkpt lat="69.59144" lon="18.80032">
        <ele>13.975078</ele>
        <time>2020-08-27T11:38:32.194Z</time>
      </trkpt>
      <trkpt lat="69.59132" lon="18.80019">
        <ele>13.966197</ele>
        <time>2020-08-27T11:38:34.316Z</time>
      </trkpt>
      <trkpt lat="69.59124" lon="18.80009">
        <ele>13.959965</ele>
        <time>2020-08-27T11:38:35.707Z</time>
      </trkpt>
      <trkpt lat="69.5903" lon="18.79892">
        <ele>13.958511</ele>
        <time>2020-08-27T11:38:52.197Z</time>
      </trkpt>
      <trkpt lat="69.5901" lon="18.79871">
        <ele>13.963919</ele>
        <time>2020-08-27T11:38:55.748Z</time>
      </trkpt>
      <trkpt lat="69.5901" lon="18.79871">
        <ele>13.964059</ele>
        <time>2020-08-27T11:38:55.841Z</time>
      </trkpt>
      <trkpt lat="69.58921" lon="18.79787">
        <ele>14.091539</ele>
        <time>2020-08-27T11:39:14.263Z</time>
      </trkpt>
      <trkpt lat="69.5891" lon="18.79778">
        <ele>14.23425</ele>
        <time>2020-08-27T11:39:16.501Z</time>
      </trkpt>
      <trkpt lat="69.58898" lon="18.79768">
        <ele>14.393614</ele>
        <time>2020-08-27T11:39:19.304Z</time>
      </trkpt>
      <trkpt lat="69.58882" lon="18.79754">
        <ele>14.610406</ele>
        <time>2020-08-27T11:39:23.039Z</time>
      </trkpt>
      <trkpt lat="69.58844" lon="18.79718">
        <ele>15.116842</ele>
        <time>2020-08-27T11:39:31.827Z</time>
      </trkpt>
      <trkpt lat="69.5884" lon="18.79714">
        <ele>15.173442</ele>
        <time>2020-08-27T11:39:32.761Z</time>
      </trkpt>
      <trkpt lat="69.58825" lon="18.797">
        <ele>15.384772</ele>
        <time>2020-08-27T11:39:36.661Z</time>
      </trkpt>
      <trkpt lat="69.58804" lon="18.79682">
        <ele>15.661129</ele>
        <time>2020-08-27T11:39:41.396Z</time>
      </trkpt>
      <trkpt lat="69.58782" lon="18.79662">
        <ele>15.956069</ele>
        <time>2020-08-27T11:39:46.760Z</time>
      </trkpt>
      <trkpt lat="69.58778" lon="18.79658">
        <ele>16.014027</ele>
        <time>2020-08-27T11:39:47.760Z</time>
      </trkpt>
      <trkpt lat="69.58734" lon="18.79618">
        <ele>16.484345</ele>
        <time>2020-08-27T11:39:57.974Z</time>
      </trkpt>
      <trkpt lat="69.58673" lon="18.79563">
        <ele>17.002404</ele>
        <time>2020-08-27T11:40:11.859Z</time>
      </trkpt>
      <trkpt lat="69.58629" lon="18.79522">
        <ele>17.37126</ele>
        <time>2020-08-27T11:40:20.901Z</time>
      </trkpt>
      <trkpt lat="69.5862" lon="18.79513">
        <ele>17.448074</ele>
        <time>2020-08-27T11:40:22.674Z</time>
      </trkpt>
      <trkpt lat="69.58587" lon="18.79483">
        <ele>17.722358</ele>
        <time>2020-08-27T11:40:29.025Z</time>
      </trkpt>
      <trkpt lat="69.58563" lon="18.79461">
        <ele>17.756717</ele>
        <time>2020-08-27T11:40:33.787Z</time>
      </trkpt>
      <trkpt lat="69.58461" lon="18.79369">
        <ele>17.849817</ele>
        <time>2020-08-27T11:40:53.248Z</time>
      </trkpt>
      <trkpt lat="69.58443" lon="18.79353">
        <ele>17.865643</ele>
        <time>2020-08-27T11:40:56.531Z</time>
      </trkpt>
      <trkpt lat="69.58429" lon="18.79339">
        <ele>17.879091</ele>
        <time>2020-08-27T11:40:59.271Z</time>
      </trkpt>
      <trkpt lat="69.58393" lon="18.79307">
        <ele>17.844747</ele>
        <time>2020-08-27T11:41:05.963Z</time>
      </trkpt>
      <trkpt lat="69.58372" lon="18.79288">
        <ele>17.799585</ele>
        <time>2020-08-27T11:41:09.771Z</time>
      </trkpt>
      <trkpt lat="69.58354" lon="18.7927">
        <ele>17.758284</ele>
        <time>2020-08-27T11:41:13.192Z</time>
      </trkpt>
      <trkpt lat="69.58299" lon="18.79212">
        <ele>17.634609</ele>
        <time>2020-08-27T11:41:23.293Z</time>
      </trkpt>
      <trkpt lat="69.58222" lon="18.79101">
        <ele>17.343999</ele>
        <time>2020-08-27T11:41:37.435Z</time>
      </trkpt>
      <trkpt lat="69.58206" lon="18.79077">
        <ele>17.229739</ele>
        <time>2020-08-27T11:41:40.557Z</time>
      </trkpt>
      <trkpt lat="69.58175" lon="18.79028">
        <ele>17.014404</ele>
        <time>2020-08-27T11:41:46.318Z</time>
      </trkpt>
      <trkpt lat="69.58067" lon="18.78861">
        <ele>16.150715</ele>
        <time>2020-08-27T11:42:06.195Z</time>
      </trkpt>
      <trkpt lat="69.58051" lon="18.78836">
        <ele>15.951194</ele>
        <time>2020-08-27T11:42:09.007Z</time>
      </trkpt>
      <trkpt lat="69.58041" lon="18.7882">
        <ele>15.828322</ele>
        <time>2020-08-27T11:42:10.848Z</time>
      </trkpt>
      <trkpt lat="69.58025" lon="18.78796">
        <ele>15.627551</ele>
        <time>2020-08-27T11:42:13.554Z</time>
      </trkpt>
      <trkpt lat="69.57975" lon="18.78718">
        <ele>15.002983</ele>
        <time>2020-08-27T11:42:22.231Z</time>
      </trkpt>
      <trkpt lat="69.57947" lon="18.78675">
        <ele>14.651354</ele>
        <time>2020-08-27T11:42:27.145Z</time>
      </trkpt>
      <trkpt lat="69.57913" lon="18.78625">
        <ele>13.990792</ele>
        <time>2020-08-27T11:42:32.729Z</time>
      </trkpt>
      <trkpt lat="69.57913" lon="18.78624">
        <ele>13.97738</ele>
        <time>2020-08-27T11:42:32.784Z</time>
      </trkpt>
      <trkpt lat="69.57908" lon="18.78617">
        <ele>13.850647</ele>
        <time>2020-08-27T11:42:33.542Z</time>
      </trkpt>
      <trkpt lat="69.57877" lon="18.78565">
        <ele>12.981176</ele>
        <time>2020-08-27T11:42:39.014Z</time>
      </trkpt>
      <trkpt lat="69.57874" lon="18.78561">
        <ele>12.903803</ele>
        <time>2020-08-27T11:42:39.488Z</time>
      </trkpt>
      <trkpt lat="69.57837" lon="18.78501">
        <ele>11.881251</ele>
        <time>2020-08-27T11:42:45.439Z</time>
      </trkpt>
      <trkpt lat="69.5782" lon="18.78471">
        <ele>11.391904</ele>
        <time>2020-08-27T11:42:47.988Z</time>
      </trkpt>
      <trkpt lat="69.57809" lon="18.78453">
        <ele>11.079486</ele>
        <time>2020-08-27T11:42:49.728Z</time>
      </trkpt>
      <trkpt lat="69.57803" lon="18.78443">
        <ele>10.915909</ele>
        <time>2020-08-27T11:42:50.560Z</time>
      </trkpt>
      <trkpt lat="69.57799" lon="18.78429">
        <ele>10.773512</ele>
        <time>2020-08-27T11:42:51.303Z</time>
      </trkpt>
      <trkpt lat="69.57784" lon="18.78394">
        <ele>10.304872</ele>
        <time>2020-08-27T11:42:53.836Z</time>
      </trkpt>
      <trkpt lat="69.57781" lon="18.78386">
        <ele>10.20763</ele>
        <time>2020-08-27T11:42:54.400Z</time>
      </trkpt>
      <trkpt lat="69.57782" lon="18.78378">
        <ele>10.140494</ele>
        <time>2020-08-27T11:42:54.773Z</time>
      </trkpt>
      <trkpt lat="69.57775" lon="18.78344">
        <ele>9.756414</ele>
        <time>2020-08-27T11:42:56.418Z</time>
      </trkpt>
      <trkpt lat="69.57764" lon="18.78341">
        <ele>9.43801</ele>
        <time>2020-08-27T11:42:57.958Z</time>
      </trkpt>
      <trkpt lat="69.57761" lon="18.78345">
        <ele>9.330617</ele>
        <time>2020-08-27T11:42:58.488Z</time>
      </trkpt>
      <trkpt lat="69.57759" lon="18.7835">
        <ele>9.250738</ele>
        <time>2020-08-27T11:42:58.848Z</time>
      </trkpt>
      <trkpt lat="69.57756" lon="18.78363">
        <ele>9.105303</ele>
        <time>2020-08-27T11:42:59.544Z</time>
      </trkpt>
      <trkpt lat="69.57756" lon="18.78366">
        <ele>9.070772</ele>
        <time>2020-08-27T11:42:59.681Z</time>
      </trkpt>
      <trkpt lat="69.57756" lon="18.78371">
        <ele>9.0208</ele>
        <time>2020-08-27T11:42:59.882Z</time>
      </trkpt>
      <trkpt lat="69.57757" lon="18.78393">
        <ele>8.791861</ele>
        <time>2020-08-27T11:43:00.870Z</time>
      </trkpt>
      <trkpt lat="69.57758" lon="18.78398">
        <ele>8.730286</ele>
        <time>2020-08-27T11:43:01.124Z</time>
      </trkpt>
      <trkpt lat="69.57749" lon="18.78454">
        <ele>8.116297</ele>
        <time>2020-08-27T11:43:04.098Z</time>
      </trkpt>
      <trkpt lat="69.57748" lon="18.78474">
        <ele>7.902932</ele>
        <time>2020-08-27T11:43:05.018Z</time>
      </trkpt>
      <trkpt lat="69.57744" lon="18.78489">
        <ele>7.718573</ele>
        <time>2020-08-27T11:43:05.787Z</time>
      </trkpt>
      <trkpt lat="69.5773" lon="18.78531">
        <ele>7.126537</ele>
        <time>2020-08-27T11:43:08.658Z</time>
      </trkpt>
      <trkpt lat="69.57707" lon="18.78569">
        <ele>6.34754</ele>
        <time>2020-08-27T11:43:12.161Z</time>
      </trkpt>
      <trkpt lat="69.57684" lon="18.78586">
        <ele>5.682502</ele>
        <time>2020-08-27T11:43:15.196Z</time>
      </trkpt>
      <trkpt lat="69.57661" lon="18.78585">
        <ele>5.015038</ele>
        <time>2020-08-27T11:43:18.427Z</time>
      </trkpt>
      <trkpt lat="69.57622" lon="18.78541">
        <ele>4.518936</ele>
        <time>2020-08-27T11:43:24.212Z</time>
      </trkpt>
      <trkpt lat="69.5758" lon="18.78432">
        <ele>3.959966</ele>
        <time>2020-08-27T11:43:33.023Z</time>
      </trkpt>
      <trkpt lat="69.57517" lon="18.78254">
        <ele>3.106763</ele>
        <time>2020-08-27T11:43:48.264Z</time>
      </trkpt>
      <trkpt lat="69.57468" lon="18.78115">
        <ele>2.77865</ele>
        <time>2020-08-27T11:44:00.691Z</time>
      </trkpt>
      <trkpt lat="69.57432" lon="18.78028">
        <ele>2.554125</ele>
        <time>2020-08-27T11:44:08.951Z</time>
      </trkpt>
      <trkpt lat="69.57394" lon="18.77966">
        <ele>2.343409</ele>
        <time>2020-08-27T11:44:16.329Z</time>
      </trkpt>
      <trkpt lat="69.5735" lon="18.77929">
        <ele>2.011593</ele>
        <time>2020-08-27T11:44:23.696Z</time>
      </trkpt>
      <trkpt lat="69.57307" lon="18.7792">
        <ele>1.633353</ele>
        <time>2020-08-27T11:44:30.620Z</time>
      </trkpt>
      <trkpt lat="69.57262" lon="18.77939">
        <ele>1.230035</ele>
        <time>2020-08-27T11:44:38.087Z</time>
      </trkpt>
      <trkpt lat="69.57217" lon="18.77989">
        <ele>0.805515</ele>
        <time>2020-08-27T11:44:46.082Z</time>
      </trkpt>
      <trkpt lat="69.57182" lon="18.78056">
        <ele>0.5923</ele>
        <time>2020-08-27T11:44:53.130Z</time>
      </trkpt>
      <trkpt lat="69.57147" lon="18.78156">
        <ele>0.430448</ele>
        <time>2020-08-27T11:45:01.690Z</time>
      </trkpt>
      <trkpt lat="69.57086" lon="18.78361">
        <ele>0.121822</ele>
        <time>2020-08-27T11:45:18.645Z</time>
      </trkpt>
      <trkpt lat="69.56146" lon="18.81462">
        <ele>4.009823</ele>
        <time>2020-08-27T11:49:54.756Z</time>
      </trkpt>
      <trkpt lat="69.56144" lon="18.81467">
        <ele>4.029031</ele>
        <time>2020-08-27T11:49:55.451Z</time>
      </trkpt>
      <trkpt lat="69.56119" lon="18.81549">
        <ele>5.201726</ele>
        <time>2020-08-27T11:50:07.231Z</time>
      </trkpt>
      <trkpt lat="69.56079" lon="18.8166">
        <ele>7.388247</ele>
        <time>2020-08-27T11:50:25.411Z</time>
      </trkpt>
      <trkpt lat="69.56045" lon="18.81723">
        <ele>8.977528</ele>
        <time>2020-08-27T11:50:39.153Z</time>
      </trkpt>
      <trkpt lat="69.56001" lon="18.81775">
        <ele>10.885891</ele>
        <time>2020-08-27T11:50:55.679Z</time>
      </trkpt>
      <trkpt lat="69.5595" lon="18.81799">
        <ele>11.45298</ele>
        <time>2020-08-27T11:51:10.817Z</time>
      </trkpt>
      <trkpt lat="69.55899" lon="18.8179">
        <ele>11.733571</ele>
        <time>2020-08-27T11:51:24.083Z</time>
      </trkpt>
      <trkpt lat="69.5585" lon="18.81747">
        <ele>12.018717</ele>
        <time>2020-08-27T11:51:32.158Z</time>
      </trkpt>
      <trkpt lat="69.55806" lon="18.81675">
        <ele>11.556879</ele>
        <time>2020-08-27T11:51:39.388Z</time>
      </trkpt>
      <trkpt lat="69.55773" lon="18.81588">
        <ele>9.657979</ele>
        <time>2020-08-27T11:51:45.349Z</time>
      </trkpt>
      <trkpt lat="69.55768" lon="18.81575">
        <ele>9.401938</ele>
        <time>2020-08-27T11:51:46.021Z</time>
      </trkpt>
      <trkpt lat="69.55765" lon="18.81561">
        <ele>9.142225</ele>
        <time>2020-08-27T11:51:46.738Z</time>
      </trkpt>
      <trkpt lat="69.55734" lon="18.81414">
        <ele>6.635662</ele>
        <time>2020-08-27T11:51:54.407Z</time>
      </trkpt>
      <trkpt lat="69.55732" lon="18.81403">
        <ele>6.459069</ele>
        <time>2020-08-27T11:51:54.850Z</time>
      </trkpt>
      <trkpt lat="69.55732" lon="18.81389">
        <ele>6.24746</ele>
        <time>2020-08-27T11:51:55.418Z</time>
      </trkpt>
      <trkpt lat="69.55729" lon="18.8134">
        <ele>5.528621</ele>
        <time>2020-08-27T11:51:57.888Z</time>
      </trkpt>
      <trkpt lat="69.55729" lon="18.81328">
        <ele>5.360326</ele>
        <time>2020-08-27T11:51:58.402Z</time>
      </trkpt>
      <trkpt lat="69.5573" lon="18.81325">
        <ele>5.291806</ele>
        <time>2020-08-27T11:51:58.632Z</time>
      </trkpt>
      <trkpt lat="69.55733" lon="18.81314">
        <ele>5.089429</ele>
        <time>2020-08-27T11:51:59.228Z</time>
      </trkpt>
      <trkpt lat="69.55733" lon="18.81309">
        <ele>5.021904</ele>
        <time>2020-08-27T11:51:59.396Z</time>
      </trkpt>
      <trkpt lat="69.55733" lon="18.81305">
        <ele>4.953613</ele>
        <time>2020-08-27T11:51:59.565Z</time>
      </trkpt>
      <trkpt lat="69.55732" lon="18.81282">
        <ele>4.66335</ele>
        <time>2020-08-27T11:52:00.491Z</time>
      </trkpt>
      <trkpt lat="69.55731" lon="18.81278">
        <ele>4.636239</ele>
        <time>2020-08-27T11:52:00.709Z</time>
      </trkpt>
      <trkpt lat="69.5573" lon="18.81275">
        <ele>4.607567</ele>
        <time>2020-08-27T11:52:00.954Z</time>
      </trkpt>
      <trkpt lat="69.55718" lon="18.81264">
        <ele>4.394588</ele>
        <time>2020-08-27T11:52:02.894Z</time>
      </trkpt>
      <trkpt lat="69.55709" lon="18.81282">
        <ele>4.205833</ele>
        <time>2020-08-27T11:52:04.202Z</time>
      </trkpt>
      <trkpt lat="69.55709" lon="18.81286">
        <ele>4.177937</ele>
        <time>2020-08-27T11:52:04.372Z</time>
      </trkpt>
      <trkpt lat="69.55705" lon="18.81291">
        <ele>4.106163</ele>
        <time>2020-08-27T11:52:04.853Z</time>
      </trkpt>
      <trkpt lat="69.55687" lon="18.81307">
        <ele>3.784689</ele>
        <time>2020-08-27T11:52:07.616Z</time>
      </trkpt>
      <trkpt lat="69.55682" lon="18.81314">
        <ele>3.691236</ele>
        <time>2020-08-27T11:52:08.392Z</time>
      </trkpt>
      <trkpt lat="69.5563" lon="18.81334">
        <ele>2.79442</ele>
        <time>2020-08-27T11:52:15.679Z</time>
      </trkpt>
      <trkpt lat="69.55595" lon="18.81347">
        <ele>2.192186</ele>
        <time>2020-08-27T11:52:21.856Z</time>
      </trkpt>
      <trkpt lat="69.55513" lon="18.81373">
        <ele>2.016456</ele>
        <time>2020-08-27T11:52:38.743Z</time>
      </trkpt>
      <trkpt lat="69.55465" lon="18.81341">
        <ele>2.435168</ele>
        <time>2020-08-27T11:52:49.041Z</time>
      </trkpt>
      <trkpt lat="69.55346" lon="18.81085">
        <ele>3.845002</ele>
        <time>2020-08-27T11:53:20.289Z</time>
      </trkpt>
      <trkpt lat="69.55313" lon="18.80974">
        <ele>4.388752</ele>
        <time>2020-08-27T11:53:30.993Z</time>
      </trkpt>
      <trkpt lat="69.55312" lon="18.80969">
        <ele>4.409882</ele>
        <time>2020-08-27T11:53:31.489Z</time>
      </trkpt>
      <trkpt lat="69.55308" lon="18.80944">
        <ele>4.516031</ele>
        <time>2020-08-27T11:53:33.609Z</time>
      </trkpt>
      <trkpt lat="69.55288" lon="18.80834">
        <ele>4.980256</ele>
        <time>2020-08-27T11:53:42.658Z</time>
      </trkpt>
      <trkpt lat="69.55285" lon="18.80817">
        <ele>5.052142</ele>
        <time>2020-08-27T11:53:44.273Z</time>
      </trkpt>
      <trkpt lat="69.55283" lon="18.80804">
        <ele>5.098597</ele>
        <time>2020-08-27T11:53:45.402Z</time>
      </trkpt>
      <trkpt lat="69.55253" lon="18.80643">
        <ele>5.647551</ele>
        <time>2020-08-27T11:53:59.434Z</time>
      </trkpt>
      <trkpt lat="69.55218" lon="18.80492">
        <ele>6.193979</ele>
        <time>2020-08-27T11:54:12.651Z</time>
      </trkpt>
      <trkpt lat="69.5521" lon="18.80463">
        <ele>6.298867</ele>
        <time>2020-08-27T11:54:15.322Z</time>
      </trkpt>
      <trkpt lat="69.55194" lon="18.80401">
        <ele>6.531869</ele>
        <time>2020-08-27T11:54:20.379Z</time>
      </trkpt>
      <trkpt lat="69.55183" lon="18.8036">
        <ele>6.569265</ele>
        <time>2020-08-27T11:54:23.676Z</time>
      </trkpt>
      <trkpt lat="69.55168" lon="18.80308">
        <ele>6.478468</ele>
        <time>2020-08-27T11:54:28.020Z</time>
      </trkpt>
      <trkpt lat="69.55153" lon="18.80255">
        <ele>6.387177</ele>
        <time>2020-08-27T11:54:32.043Z</time>
      </trkpt>
      <trkpt lat="69.55121" lon="18.80169">
        <ele>6.219492</ele>
        <time>2020-08-27T11:54:39.427Z</time>
      </trkpt>
      <trkpt lat="69.54959" lon="18.79847">
        <ele>5.627259</ele>
        <time>2020-08-27T11:55:10.641Z</time>
      </trkpt>
      <trkpt lat="69.5493" lon="18.79811">
        <ele>5.549662</ele>
        <time>2020-08-27T11:55:16.804Z</time>
      </trkpt>
      <trkpt lat="69.54828" lon="18.79732">
        <ele>6.860986</ele>
        <time>2020-08-27T11:55:38.903Z</time>
      </trkpt>
      <trkpt lat="69.54826" lon="18.7973">
        <ele>6.906298</ele>
        <time>2020-08-27T11:55:40.430Z</time>
      </trkpt>
      <trkpt lat="69.54823" lon="18.79726">
        <ele>6.959845</ele>
        <time>2020-08-27T11:55:40.992Z</time>
      </trkpt>
      <trkpt lat="69.5469" lon="18.79518">
        <ele>9.858411</ele>
        <time>2020-08-27T11:56:19.350Z</time>
      </trkpt>
      <trkpt lat="69.54648" lon="18.79473">
        <ele>10.767097</ele>
        <time>2020-08-27T11:56:30.583Z</time>
      </trkpt>
      <trkpt lat="69.54575" lon="18.79431">
        <ele>12.286893</ele>
        <time>2020-08-27T11:56:48.540Z</time>
      </trkpt>
      <trkpt lat="69.54551" lon="18.79395">
        <ele>12.50404</ele>
        <time>2020-08-27T11:56:54.650Z</time>
      </trkpt>
      <trkpt lat="69.54525" lon="18.79335">
        <ele>12.620293</ele>
        <time>2020-08-27T11:57:01.926Z</time>
      </trkpt>
      <trkpt lat="69.54521" lon="18.79321">
        <ele>12.643345</ele>
        <time>2020-08-27T11:57:03.697Z</time>
      </trkpt>
      <trkpt lat="69.54517" lon="18.79309">
        <ele>12.662568</ele>
        <time>2020-08-27T11:57:04.826Z</time>
      </trkpt>
      <trkpt lat="69.54515" lon="18.79303">
        <ele>12.671714</ele>
        <time>2020-08-27T11:57:05.325Z</time>
      </trkpt>
      <trkpt lat="69.54507" lon="18.79263">
        <ele>12.72876</ele>
        <time>2020-08-27T11:57:08.570Z</time>
      </trkpt>
      <trkpt lat="69.54505" lon="18.79252">
        <ele>12.743371</ele>
        <time>2020-08-27T11:57:09.208Z</time>
      </trkpt>
      <trkpt lat="69.54503" lon="18.79239">
        <ele>12.760727</ele>
        <time>2020-08-27T11:57:10.418Z</time>
      </trkpt>
      <trkpt lat="69.54481" lon="18.79036">
        <ele>13.017535</ele>
        <time>2020-08-27T11:57:23.404Z</time>
      </trkpt>
      <trkpt lat="69.5448" lon="18.79016">
        <ele>13.042381</ele>
        <time>2020-08-27T11:57:24.503Z</time>
      </trkpt>
      <trkpt lat="69.54478" lon="18.78977">
        <ele>12.911377</ele>
        <time>2020-08-27T11:57:26.650Z</time>
      </trkpt>
      <trkpt lat="69.54476" lon="18.78953">
        <ele>12.751249</ele>
        <time>2020-08-27T11:57:27.849Z</time>
      </trkpt>
      <trkpt lat="69.54425" lon="18.78377">
        <ele>9.382796</ele>
        <time>2020-08-27T11:57:56.967Z</time>
      </trkpt>
      <trkpt lat="69.54361" lon="18.77943">
        <ele>8.602981</ele>
        <time>2020-08-27T11:58:23.664Z</time>
      </trkpt>
      <trkpt lat="69.54356" lon="18.77911">
        <ele>8.805966</ele>
        <time>2020-08-27T11:58:26.215Z</time>
      </trkpt>
      <trkpt lat="69.54346" lon="18.77845">
        <ele>9.228232</ele>
        <time>2020-08-27T11:58:31.758Z</time>
      </trkpt>
      <trkpt lat="69.5433" lon="18.77745">
        <ele>9.875278</ele>
        <time>2020-08-27T11:58:40.928Z</time>
      </trkpt>
      <trkpt lat="69.543" lon="18.77555">
        <ele>11.103493</ele>
        <time>2020-08-27T11:59:00.846Z</time>
      </trkpt>
      <trkpt lat="69.54288" lon="18.77479">
        <ele>11.888535</ele>
        <time>2020-08-27T11:59:08.862Z</time>
      </trkpt>
      <trkpt lat="69.54275" lon="18.77385">
        <ele>12.859647</ele>
        <time>2020-08-27T11:59:18.737Z</time>
      </trkpt>
      <trkpt lat="69.54273" lon="18.77368">
        <ele>13.03865</ele>
        <time>2020-08-27T11:59:20.832Z</time>
      </trkpt>
      <trkpt lat="69.54271" lon="18.77353">
        <ele>13.180626</ele>
        <time>2020-08-27T11:59:22.668Z</time>
      </trkpt>
      <trkpt lat="69.54266" lon="18.77203">
        <ele>14.639063</ele>
        <time>2020-08-27T11:59:37.254Z</time>
      </trkpt>
      <trkpt lat="69.54283" lon="18.76819">
        <ele>16.685564</ele>
        <time>2020-08-27T12:00:09.161Z</time>
      </trkpt>
      <trkpt lat="69.54284" lon="18.76802">
        <ele>16.728814</ele>
        <time>2020-08-27T12:00:10.470Z</time>
      </trkpt>
      <trkpt lat="69.54284" lon="18.76792">
        <ele>16.754981</ele>
        <time>2020-08-27T12:00:10.969Z</time>
      </trkpt>
      <trkpt lat="69.54292" lon="18.76547">
        <ele>17.383885</ele>
        <time>2020-08-27T12:00:26.023Z</time>
      </trkpt>
      <trkpt lat="69.54294" lon="18.76516">
        <ele>17.353536</ele>
        <time>2020-08-27T12:00:27.749Z</time>
      </trkpt>
      <trkpt lat="69.54295" lon="18.76486">
        <ele>17.307813</ele>
        <time>2020-08-27T12:00:29.414Z</time>
      </trkpt>
      <trkpt lat="69.54317" lon="18.76021">
        <ele>16.624977</ele>
        <time>2020-08-27T12:00:56.166Z</time>
      </trkpt>
      <trkpt lat="69.54321" lon="18.7596">
        <ele>16.718022</ele>
        <time>2020-08-27T12:00:59.989Z</time>
      </trkpt>
      <trkpt lat="69.54325" lon="18.75907">
        <ele>16.800676</ele>
        <time>2020-08-27T12:01:03.700Z</time>
      </trkpt>
      <trkpt lat="69.54341" lon="18.75668">
        <ele>17.168665</ele>
        <time>2020-08-27T12:01:20.222Z</time>
      </trkpt>
      <trkpt lat="69.54349" lon="18.75386">
        <ele>17.898633</ele>
        <time>2020-08-27T12:01:40.929Z</time>
      </trkpt>
      <trkpt lat="69.54382" lon="18.74732">
        <ele>20.02379</ele>
        <time>2020-08-27T12:02:30.500Z</time>
      </trkpt>
      <trkpt lat="69.54383" lon="18.74546">
        <ele>20.511521</ele>
        <time>2020-08-27T12:02:43.218Z</time>
      </trkpt>
      <trkpt lat="69.54366" lon="18.74342">
        <ele>20.068622</ele>
        <time>2020-08-27T12:02:56.081Z</time>
      </trkpt>
      <trkpt lat="69.54249" lon="18.73345">
        <ele>15.707457</ele>
        <time>2020-08-27T12:03:50.408Z</time>
      </trkpt>
      <trkpt lat="69.54229" lon="18.73004">
        <ele>14.746139</ele>
        <time>2020-08-27T12:04:09.936Z</time>
      </trkpt>
      <trkpt lat="69.54213" lon="18.72909">
        <ele>14.90703</ele>
        <time>2020-08-27T12:04:16.547Z</time>
      </trkpt>
      <trkpt lat="69.54147" lon="18.72631">
        <ele>15.427953</ele>
        <time>2020-08-27T12:04:40.113Z</time>
      </trkpt>
      <trkpt lat="69.54127" lon="18.72501">
        <ele>15.642699</ele>
        <time>2020-08-27T12:04:50.448Z</time>
      </trkpt>
      <trkpt lat="69.54123" lon="18.72407">
        <ele>15.785357</ele>
        <time>2020-08-27T12:04:57.341Z</time>
      </trkpt>
      <trkpt lat="69.54129" lon="18.71886">
        <ele>16.368266</ele>
        <time>2020-08-27T12:05:30.721Z</time>
      </trkpt>
      <trkpt lat="69.54129" lon="18.71806">
        <ele>16.404372</ele>
        <time>2020-08-27T12:05:35.447Z</time>
      </trkpt>
      <trkpt lat="69.54129" lon="18.71768">
        <ele>16.421359</ele>
        <time>2020-08-27T12:05:37.507Z</time>
      </trkpt>
      <trkpt lat="69.54124" lon="18.71607">
        <ele>16.494336</ele>
        <time>2020-08-27T12:05:47.773Z</time>
      </trkpt>
      <trkpt lat="69.54087" lon="18.71329">
        <ele>17.676822</ele>
        <time>2020-08-27T12:06:09.876Z</time>
      </trkpt>
      <trkpt lat="69.54077" lon="18.71254">
        <ele>18.048654</ele>
        <time>2020-08-27T12:06:16.400Z</time>
      </trkpt>
      <trkpt lat="69.54069" lon="18.71199">
        <ele>18.319151</ele>
        <time>2020-08-27T12:06:21.693Z</time>
      </trkpt>
      <trkpt lat="69.54057" lon="18.71121">
        <ele>18.709531</ele>
        <time>2020-08-27T12:06:28.470Z</time>
      </trkpt>
      <trkpt lat="69.54025" lon="18.70979">
        <ele>19.137222</ele>
        <time>2020-08-27T12:06:41.881Z</time>
      </trkpt>
      <trkpt lat="69.54018" lon="18.70921">
        <ele>19.257803</ele>
        <time>2020-08-27T12:06:47.228Z</time>
      </trkpt>
      <trkpt lat="69.53995" lon="18.70424">
        <ele>19.238152</ele>
        <time>2020-08-27T12:07:17.681Z</time>
      </trkpt>
      <trkpt lat="69.53971" lon="18.70101">
        <ele>18.063126</ele>
        <time>2020-08-27T12:07:34.737Z</time>
      </trkpt>
      <trkpt lat="69.53955" lon="18.69935">
        <ele>17.252415</ele>
        <time>2020-08-27T12:07:43.540Z</time>
      </trkpt>
      <trkpt lat="69.53823" lon="18.69234">
        <ele>14.175205</ele>
        <time>2020-08-27T12:08:25.677Z</time>
      </trkpt>
      <trkpt lat="69.53752" lon="18.6874">
        <ele>14.544486</ele>
        <time>2020-08-27T12:09:00.829Z</time>
      </trkpt>
      <trkpt lat="69.53743" lon="18.6868">
        <ele>14.659555</ele>
        <time>2020-08-27T12:09:05.679Z</time>
      </trkpt>
      <trkpt lat="69.53736" lon="18.68628">
        <ele>14.828364</ele>
        <time>2020-08-27T12:09:09.872Z</time>
      </trkpt>
      <trkpt lat="69.53725" lon="18.68558">
        <ele>15.055985</ele>
        <time>2020-08-27T12:09:15.582Z</time>
      </trkpt>
      <trkpt lat="69.53718" lon="18.68511">
        <ele>15.209431</ele>
        <time>2020-08-27T12:09:19.240Z</time>
      </trkpt>
      <trkpt lat="69.53711" lon="18.68468">
        <ele>15.351026</ele>
        <time>2020-08-27T12:09:22.868Z</time>
      </trkpt>
      <trkpt lat="69.53701" lon="18.68403">
        <ele>15.565421</ele>
        <time>2020-08-27T12:09:28.044Z</time>
      </trkpt>
      <trkpt lat="69.53691" lon="18.68344">
        <ele>15.758292</ele>
        <time>2020-08-27T12:09:32.801Z</time>
      </trkpt>
      <trkpt lat="69.53687" lon="18.68312">
        <ele>15.864156</ele>
        <time>2020-08-27T12:09:35.393Z</time>
      </trkpt>
      <trkpt lat="69.53659" lon="18.68135">
        <ele>15.941335</ele>
        <time>2020-08-27T12:09:49.026Z</time>
      </trkpt>
      <trkpt lat="69.53643" lon="18.68035">
        <ele>15.728778</ele>
        <time>2020-08-27T12:09:55.894Z</time>
      </trkpt>
      <trkpt lat="69.53611" lon="18.67835">
        <ele>15.299255</ele>
        <time>2020-08-27T12:10:07.717Z</time>
      </trkpt>
      <trkpt lat="69.53607" lon="18.67806">
        <ele>15.238435</ele>
        <time>2020-08-27T12:10:09.389Z</time>
      </trkpt>
      <trkpt lat="69.53601" lon="18.67773">
        <ele>15.168278</ele>
        <time>2020-08-27T12:10:11.126Z</time>
      </trkpt>
      <trkpt lat="69.53597" lon="18.67747">
        <ele>15.106679</ele>
        <time>2020-08-27T12:10:12.673Z</time>
      </trkpt>
      <trkpt lat="69.5358" lon="18.6764">
        <ele>14.821635</ele>
        <time>2020-08-27T12:10:18.723Z</time>
      </trkpt>
      <trkpt lat="69.53562" lon="18.67521">
        <ele>14.506691</ele>
        <time>2020-08-27T12:10:25.474Z</time>
      </trkpt>
      <trkpt lat="69.53524" lon="18.67284">
        <ele>13.928125</ele>
        <time>2020-08-27T12:10:40.917Z</time>
      </trkpt>
      <trkpt lat="69.53499" lon="18.67119">
        <ele>14.834152</ele>
        <time>2020-08-27T12:10:54.937Z</time>
      </trkpt>
      <trkpt lat="69.53494" lon="18.67082">
        <ele>15.04088</ele>
        <time>2020-08-27T12:10:58.265Z</time>
      </trkpt>
      <trkpt lat="69.53485" lon="18.67025">
        <ele>15.354071</ele>
        <time>2020-08-27T12:11:03.286Z</time>
      </trkpt>
      <trkpt lat="69.53472" lon="18.66933">
        <ele>15.856266</ele>
        <time>2020-08-27T12:11:11.340Z</time>
      </trkpt>
      <trkpt lat="69.53457" lon="18.66835">
        <ele>16.396501</ele>
        <time>2020-08-27T12:11:20.443Z</time>
      </trkpt>
      <trkpt lat="69.53445" lon="18.66753">
        <ele>16.82558</ele>
        <time>2020-08-27T12:11:27.943Z</time>
      </trkpt>
      <trkpt lat="69.53439" lon="18.6671">
        <ele>17.046556</ele>
        <time>2020-08-27T12:11:31.782Z</time>
      </trkpt>
      <trkpt lat="69.53425" lon="18.66616">
        <ele>17.5323</ele>
        <time>2020-08-27T12:11:40.324Z</time>
      </trkpt>
      <trkpt lat="69.53418" lon="18.6657">
        <ele>17.773811</ele>
        <time>2020-08-27T12:11:44.459Z</time>
      </trkpt>
      <trkpt lat="69.53412" lon="18.66526">
        <ele>17.999732</ele>
        <time>2020-08-27T12:11:48.049Z</time>
      </trkpt>
      <trkpt lat="69.5341" lon="18.66514">
        <ele>18.057895</ele>
        <time>2020-08-27T12:11:48.936Z</time>
      </trkpt>
      <trkpt lat="69.53406" lon="18.66488">
        <ele>18.193983</ele>
        <time>2020-08-27T12:11:51.032Z</time>
      </trkpt>
      <trkpt lat="69.53403" lon="18.66462">
        <ele>18.327591</ele>
        <time>2020-08-27T12:11:53.198Z</time>
      </trkpt>
      <trkpt lat="69.53379" lon="18.66261">
        <ele>18.885491</ele>
        <time>2020-08-27T12:12:07.822Z</time>
      </trkpt>
      <trkpt lat="69.53376" lon="18.66228">
        <ele>18.861156</ele>
        <time>2020-08-27T12:12:10.316Z</time>
      </trkpt>
      <trkpt lat="69.53374" lon="18.66193">
        <ele>18.835377</ele>
        <time>2020-08-27T12:12:12.886Z</time>
      </trkpt>
      <trkpt lat="69.53366" lon="18.66026">
        <ele>18.714797</ele>
        <time>2020-08-27T12:12:23.918Z</time>
      </trkpt>
      <trkpt lat="69.53367" lon="18.65825">
        <ele>18.502352</ele>
        <time>2020-08-27T12:12:34.907Z</time>
      </trkpt>
      <trkpt lat="69.53368" lon="18.65755">
        <ele>17.826745</ele>
        <time>2020-08-27T12:12:38.426Z</time>
      </trkpt>
      <trkpt lat="69.53369" lon="18.65636">
        <ele>16.664996</ele>
        <time>2020-08-27T12:12:44.127Z</time>
      </trkpt>
      <trkpt lat="69.53374" lon="18.65274">
        <ele>13.208612</ele>
        <time>2020-08-27T12:13:00.438Z</time>
      </trkpt>
      <trkpt lat="69.53372" lon="18.64991">
        <ele>10.8509</ele>
        <time>2020-08-27T12:13:13.730Z</time>
      </trkpt>
      <trkpt lat="69.53371" lon="18.64971">
        <ele>10.685317</ele>
        <time>2020-08-27T12:13:14.601Z</time>
      </trkpt>
      <trkpt lat="69.53364" lon="18.64831">
        <ele>9.503127</ele>
        <time>2020-08-27T12:13:21.835Z</time>
      </trkpt>
      <trkpt lat="69.53346" lon="18.64422">
        <ele>8.587037</ele>
        <time>2020-08-27T12:13:45.532Z</time>
      </trkpt>
      <trkpt lat="69.53346" lon="18.64405">
        <ele>8.556031</ele>
        <time>2020-08-27T12:13:46.746Z</time>
      </trkpt>
      <trkpt lat="69.53346" lon="18.64376">
        <ele>8.502961</ele>
        <time>2020-08-27T12:13:48.521Z</time>
      </trkpt>
      <trkpt lat="69.53361" lon="18.64111">
        <ele>8.047629</ele>
        <time>2020-08-27T12:14:05.100Z</time>
      </trkpt>
      <trkpt lat="69.53413" lon="18.637">
        <ele>7.231532</ele>
        <time>2020-08-27T12:14:29.646Z</time>
      </trkpt>
      <trkpt lat="69.53426" lon="18.63561">
        <ele>6.862107</ele>
        <time>2020-08-27T12:14:37.450Z</time>
      </trkpt>
      <trkpt lat="69.53438" lon="18.63392">
        <ele>6.423897</ele>
        <time>2020-08-27T12:14:46.706Z</time>
      </trkpt>
      <trkpt lat="69.53456" lon="18.62985">
        <ele>6.34614</ele>
        <time>2020-08-27T12:15:12.444Z</time>
      </trkpt>
      <trkpt lat="69.53457" lon="18.62958">
        <ele>6.358806</ele>
        <time>2020-08-27T12:15:14.231Z</time>
      </trkpt>
      <trkpt lat="69.53459" lon="18.62905">
        <ele>6.383882</ele>
        <time>2020-08-27T12:15:17.943Z</time>
      </trkpt>
      <trkpt lat="69.53468" lon="18.62706">
        <ele>6.411589</ele>
        <time>2020-08-27T12:15:31.433Z</time>
      </trkpt>
      <trkpt lat="69.53468" lon="18.62694">
        <ele>6.40817</ele>
        <time>2020-08-27T12:15:32.486Z</time>
      </trkpt>
      <trkpt lat="69.53469" lon="18.62654">
        <ele>6.396894</ele>
        <time>2020-08-27T12:15:35.010Z</time>
      </trkpt>
      <trkpt lat="69.53464" lon="18.62096">
        <ele>6.05126</ele>
        <time>2020-08-27T12:16:08.351Z</time>
      </trkpt>
      <trkpt lat="69.53463" lon="18.62073">
        <ele>6.021824</ele>
        <time>2020-08-27T12:16:09.501Z</time>
      </trkpt>
      <trkpt lat="69.53462" lon="18.62041">
        <ele>5.979715</ele>
        <time>2020-08-27T12:16:11.426Z</time>
      </trkpt>
      <trkpt lat="69.53462" lon="18.62007">
        <ele>5.934543</ele>
        <time>2020-08-27T12:16:13.503Z</time>
      </trkpt>
      <trkpt lat="69.53461" lon="18.61979">
        <ele>5.898362</ele>
        <time>2020-08-27T12:16:14.977Z</time>
      </trkpt>
      <trkpt lat="69.5346" lon="18.6186">
        <ele>5.743305</ele>
        <time>2020-08-27T12:16:21.851Z</time>
      </trkpt>
      <trkpt lat="69.53456" lon="18.61643">
        <ele>5.658263</ele>
        <time>2020-08-27T12:16:34.959Z</time>
      </trkpt>
      <trkpt lat="69.53451" lon="18.61306">
        <ele>5.76219</ele>
        <time>2020-08-27T12:16:57.074Z</time>
      </trkpt>
      <trkpt lat="69.53445" lon="18.612">
        <ele>5.71175</ele>
        <time>2020-08-27T12:17:03.736Z</time>
      </trkpt>
      <trkpt lat="69.53444" lon="18.61167">
        <ele>5.668946</ele>
        <time>2020-08-27T12:17:06.065Z</time>
      </trkpt>
      <trkpt lat="69.53442" lon="18.6114">
        <ele>5.63433</ele>
        <time>2020-08-27T12:17:07.754Z</time>
      </trkpt>
      <trkpt lat="69.53431" lon="18.60961">
        <ele>5.403389</ele>
        <time>2020-08-27T12:17:18.576Z</time>
      </trkpt>
      <trkpt lat="69.53428" lon="18.60919">
        <ele>5.349513</ele>
        <time>2020-08-27T12:17:21.086Z</time>
      </trkpt>
      <trkpt lat="69.53426" lon="18.60904">
        <ele>5.329599</ele>
        <time>2020-08-27T12:17:21.841Z</time>
      </trkpt>
      <trkpt lat="69.53364" lon="18.60434">
        <ele>4.496205</ele>
        <time>2020-08-27T12:17:50.257Z</time>
      </trkpt>
      <trkpt lat="69.53334" lon="18.60296">
        <ele>4.198857</ele>
        <time>2020-08-27T12:17:59.845Z</time>
      </trkpt>
      <trkpt lat="69.53293" lon="18.60149">
        <ele>3.993357</ele>
        <time>2020-08-27T12:18:11.182Z</time>
      </trkpt>
      <trkpt lat="69.5328" lon="18.6011">
        <ele>3.938855</ele>
        <time>2020-08-27T12:18:14.335Z</time>
      </trkpt>
      <trkpt lat="69.53273" lon="18.60084">
        <ele>3.902664</ele>
        <time>2020-08-27T12:18:16.402Z</time>
      </trkpt>
      <trkpt lat="69.53212" lon="18.59872">
        <ele>3.603235</ele>
        <time>2020-08-27T12:18:32.697Z</time>
      </trkpt>
      <trkpt lat="69.53111" lon="18.59726">
        <ele>3.084896</ele>
        <time>2020-08-27T12:18:51.195Z</time>
      </trkpt>
      <trkpt lat="69.53046" lon="18.59584">
        <ele>2.93034</ele>
        <time>2020-08-27T12:19:04.846Z</time>
      </trkpt>
      <trkpt lat="69.53036" lon="18.59557">
        <ele>2.993198</ele>
        <time>2020-08-27T12:19:07.071Z</time>
      </trkpt>
      <trkpt lat="69.53025" lon="18.59529">
        <ele>3.060993</ele>
        <time>2020-08-27T12:19:09.633Z</time>
      </trkpt>
      <trkpt lat="69.52977" lon="18.59405">
        <ele>3.361082</ele>
        <time>2020-08-27T12:19:22.007Z</time>
      </trkpt>
      <trkpt lat="69.52886" lon="18.59272">
        <ele>4.341547</ele>
        <time>2020-08-27T12:19:44.284Z</time>
      </trkpt>
      <trkpt lat="69.52863" lon="18.59237">
        <ele>4.794543</ele>
        <time>2020-08-27T12:19:50.163Z</time>
      </trkpt>
      <trkpt lat="69.52849" lon="18.59217">
        <ele>5.07248</ele>
        <time>2020-08-27T12:19:54.315Z</time>
      </trkpt>
      <trkpt lat="69.52813" lon="18.59159">
        <ele>5.793647</ele>
        <time>2020-08-27T12:20:04.127Z</time>
      </trkpt>
      <trkpt lat="69.52771" lon="18.59052">
        <ele>6.774058</ele>
        <time>2020-08-27T12:20:17.498Z</time>
      </trkpt>
      <trkpt lat="69.52768" lon="18.59041">
        <ele>6.871541</ele>
        <time>2020-08-27T12:20:19.000Z</time>
      </trkpt>
      <trkpt lat="69.52763" lon="18.59028">
        <ele>7.002011</ele>
        <time>2020-08-27T12:20:20.635Z</time>
      </trkpt>
      <trkpt lat="69.52633" lon="18.58594">
        <ele>11.404875</ele>
        <time>2020-08-27T12:21:08.800Z</time>
      </trkpt>
      <trkpt lat="69.52608" lon="18.58488">
        <ele>12.851363</ele>
        <time>2020-08-27T12:21:20.986Z</time>
      </trkpt>
      <trkpt lat="69.5259" lon="18.58371">
        <ele>14.297139</ele>
        <time>2020-08-27T12:21:33.902Z</time>
      </trkpt>
      <trkpt lat="69.52551" lon="18.58052">
        <ele>18.134588</ele>
        <time>2020-08-27T12:22:10.560Z</time>
      </trkpt>
      <trkpt lat="69.5253" lon="18.57802">
        <ele>21.055469</ele>
        <time>2020-08-27T12:22:36.688Z</time>
      </trkpt>
      <trkpt lat="69.52519" lon="18.57484">
        <ele>22.680051</ele>
        <time>2020-08-27T12:23:02.097Z</time>
      </trkpt>
      <trkpt lat="69.52515" lon="18.57084">
        <ele>23.656663</ele>
        <time>2020-08-27T12:23:26.642Z</time>
      </trkpt>
      <trkpt lat="69.52484" lon="18.56733">
        <ele>24.399878</ele>
        <time>2020-08-27T12:23:52.318Z</time>
      </trkpt>
      <trkpt lat="69.52444" lon="18.56451">
        <ele>24.380568</ele>
        <time>2020-08-27T12:24:14.678Z</time>
      </trkpt>
      <trkpt lat="69.52256" lon="18.55244">
        <ele>18.8589</ele>
        <time>2020-08-27T12:25:24.325Z</time>
      </trkpt>
      <trkpt lat="69.52151" lon="18.54522">
        <ele>10.659926</ele>
        <time>2020-08-27T12:25:59.562Z</time>
      </trkpt>
      <trkpt lat="69.5211" lon="18.54275">
        <ele>8.421771</ele>
        <time>2020-08-27T12:26:13.432Z</time>
      </trkpt>
      <trkpt lat="69.52108" lon="18.54264">
        <ele>8.365537</ele>
        <time>2020-08-27T12:26:14.006Z</time>
      </trkpt>
      <trkpt lat="69.521" lon="18.54228">
        <ele>8.185587</ele>
        <time>2020-08-27T12:26:16.622Z</time>
      </trkpt>
      <trkpt lat="69.52098" lon="18.54221">
        <ele>8.149628</ele>
        <time>2020-08-27T12:26:17.297Z</time>
      </trkpt>
      <trkpt lat="69.52034" lon="18.54016">
        <ele>7.004285</ele>
        <time>2020-08-27T12:26:32.264Z</time>
      </trkpt>
      <trkpt lat="69.51957" lon="18.53684">
        <ele>5.824023</ele>
        <time>2020-08-27T12:26:53.071Z</time>
      </trkpt>
      <trkpt lat="69.51952" lon="18.53661">
        <ele>5.751472</ele>
        <time>2020-08-27T12:26:54.452Z</time>
      </trkpt>
      <trkpt lat="69.51946" lon="18.53641">
        <ele>5.687279</ele>
        <time>2020-08-27T12:26:55.703Z</time>
      </trkpt>
      <trkpt lat="69.51914" lon="18.53556">
        <ele>5.371086</ele>
        <time>2020-08-27T12:27:03.332Z</time>
      </trkpt>
      <trkpt lat="69.51876" lon="18.53478">
        <ele>6.245603</ele>
        <time>2020-08-27T12:27:13.726Z</time>
      </trkpt>
      <trkpt lat="69.51857" lon="18.53443">
        <ele>6.922201</ele>
        <time>2020-08-27T12:27:18.341Z</time>
      </trkpt>
      <trkpt lat="69.51846" lon="18.53422">
        <ele>7.312902</ele>
        <time>2020-08-27T12:27:22.348Z</time>
      </trkpt>
      <trkpt lat="69.51785" lon="18.53311">
        <ele>9.461284</ele>
        <time>2020-08-27T12:27:43.522Z</time>
      </trkpt>
      <trkpt lat="69.51759" lon="18.53243">
        <ele>10.513946</ele>
        <time>2020-08-27T12:27:55.308Z</time>
      </trkpt>
      <trkpt lat="69.51738" lon="18.53143">
        <ele>11.634664</ele>
        <time>2020-08-27T12:28:09.168Z</time>
      </trkpt>
      <trkpt lat="69.51729" lon="18.53021">
        <ele>12.815782</ele>
        <time>2020-08-27T12:28:22.673Z</time>
      </trkpt>
      <trkpt lat="69.51733" lon="18.52844">
        <ele>14.488771</ele>
        <time>2020-08-27T12:28:39.097Z</time>
      </trkpt>
      <trkpt lat="69.51745" lon="18.52708">
        <ele>15.270668</ele>
        <time>2020-08-27T12:28:48.926Z</time>
      </trkpt>
      <trkpt lat="69.51758" lon="18.52634">
        <ele>14.675321</ele>
        <time>2020-08-27T12:28:53.109Z</time>
      </trkpt>
      <trkpt lat="69.518" lon="18.52467">
        <ele>13.214952</ele>
        <time>2020-08-27T12:29:02.795Z</time>
      </trkpt>
      <trkpt lat="69.51819" lon="18.52364">
        <ele>12.380324</ele>
        <time>2020-08-27T12:29:08.247Z</time>
      </trkpt>
      <trkpt lat="69.51823" lon="18.52335">
        <ele>12.160278</ele>
        <time>2020-08-27T12:29:09.542Z</time>
      </trkpt>
      <trkpt lat="69.51826" lon="18.52304">
        <ele>11.930047</ele>
        <time>2020-08-27T12:29:11.066Z</time>
      </trkpt>
      <trkpt lat="69.51833" lon="18.52193">
        <ele>11.745897</ele>
        <time>2020-08-27T12:29:16.410Z</time>
      </trkpt>
      <trkpt lat="69.51831" lon="18.52094">
        <ele>11.655054</ele>
        <time>2020-08-27T12:29:21.263Z</time>
      </trkpt>
      <trkpt lat="69.51782" lon="18.51467">
        <ele>12.932557</ele>
        <time>2020-08-27T12:30:10.756Z</time>
      </trkpt>
      <trkpt lat="69.51779" lon="18.51436">
        <ele>13.082588</ele>
        <time>2020-08-27T12:30:14.127Z</time>
      </trkpt>
      <trkpt lat="69.51766" lon="18.51315">
        <ele>13.688541</ele>
        <time>2020-08-27T12:30:24.281Z</time>
      </trkpt>
      <trkpt lat="69.51753" lon="18.51143">
        <ele>13.503098</ele>
        <time>2020-08-27T12:30:36.833Z</time>
      </trkpt>
      <trkpt lat="69.51756" lon="18.50742">
        <ele>12.707508</ele>
        <time>2020-08-27T12:30:57.887Z</time>
      </trkpt>
      <trkpt lat="69.51742" lon="18.50566">
        <ele>12.678651</ele>
        <time>2020-08-27T12:31:06.914Z</time>
      </trkpt>
      <trkpt lat="69.51693" lon="18.50283">
        <ele>12.850533</ele>
        <time>2020-08-27T12:31:28.584Z</time>
      </trkpt>
      <trkpt lat="69.51659" lon="18.50051">
        <ele>16.105612</ele>
        <time>2020-08-27T12:31:53.954Z</time>
      </trkpt>
      <trkpt lat="69.51569" lon="18.49632">
        <ele>23.089018</ele>
        <time>2020-08-27T12:32:51.838Z</time>
      </trkpt>
      <trkpt lat="69.51507" lon="18.49151">
        <ele>29.866498</ele>
        <time>2020-08-27T12:33:46.566Z</time>
      </trkpt>
      <trkpt lat="69.51501" lon="18.49098">
        <ele>30.465593</ele>
        <time>2020-08-27T12:33:51.739Z</time>
      </trkpt>
      <trkpt lat="69.51499" lon="18.49077">
        <ele>30.709927</ele>
        <time>2020-08-27T12:33:54.213Z</time>
      </trkpt>
      <trkpt lat="69.51465" lon="18.48703">
        <ele>33.196807</ele>
        <time>2020-08-27T12:34:27.052Z</time>
      </trkpt>
      <trkpt lat="69.51422" lon="18.47933">
        <ele>33.073997</ele>
        <time>2020-08-27T12:35:13.382Z</time>
      </trkpt>
      <trkpt lat="69.51319" lon="18.46771">
        <ele>27.306117</ele>
        <time>2020-08-27T12:36:15.849Z</time>
      </trkpt>
      <trkpt lat="69.51284" lon="18.46069">
        <ele>23.451312</ele>
        <time>2020-08-27T12:36:51.044Z</time>
      </trkpt>
      <trkpt lat="69.51269" lon="18.4594">
        <ele>22.854292</ele>
        <time>2020-08-27T12:36:58.820Z</time>
      </trkpt>
      <trkpt lat="69.51234" lon="18.45733">
        <ele>23.115643</ele>
        <time>2020-08-27T12:37:13.661Z</time>
      </trkpt>
      <trkpt lat="69.51117" lon="18.45123">
        <ele>26.349534</ele>
        <time>2020-08-27T12:38:08.261Z</time>
      </trkpt>
      <trkpt lat="69.51066" lon="18.44952">
        <ele>27.901835</ele>
        <time>2020-08-27T12:38:27.788Z</time>
      </trkpt>
      <trkpt lat="69.50985" lon="18.44756">
        <ele>30.779008</ele>
        <time>2020-08-27T12:38:55.978Z</time>
      </trkpt>
      <trkpt lat="69.5084" lon="18.44453">
        <ele>35.851214</ele>
        <time>2020-08-27T12:39:45.284Z</time>
      </trkpt>
      <trkpt lat="69.50769" lon="18.44345">
        <ele>37.872078</ele>
        <time>2020-08-27T12:40:07.088Z</time>
      </trkpt>
      <trkpt lat="69.5058" lon="18.44223">
        <ele>39.681522</ele>
        <time>2020-08-27T12:40:51.875Z</time>
      </trkpt>
      <trkpt lat="69.50525" lon="18.44201">
        <ele>38.3958</ele>
        <time>2020-08-27T12:41:00.151Z</time>
      </trkpt>
      <trkpt lat="69.50339" lon="18.44209">
        <ele>30.548403</ele>
        <time>2020-08-27T12:41:22.606Z</time>
      </trkpt>
      <trkpt lat="69.50274" lon="18.44229">
        <ele>26.770751</ele>
        <time>2020-08-27T12:41:30.099Z</time>
      </trkpt>
      <trkpt lat="69.50255" lon="18.44241">
        <ele>25.681406</ele>
        <time>2020-08-27T12:41:32.362Z</time>
      </trkpt>
      <trkpt lat="69.50242" lon="18.44253">
        <ele>24.972099</ele>
        <time>2020-08-27T12:41:34.045Z</time>
      </trkpt>
      <trkpt lat="69.5023" lon="18.44264">
        <ele>24.352022</ele>
        <time>2020-08-27T12:41:35.530Z</time>
      </trkpt>
      <trkpt lat="69.50225" lon="18.44269">
        <ele>24.081417</ele>
        <time>2020-08-27T12:41:36.133Z</time>
      </trkpt>
      <trkpt lat="69.50217" lon="18.44278">
        <ele>23.650102</ele>
        <time>2020-08-27T12:41:37.113Z</time>
      </trkpt>
      <trkpt lat="69.50137" lon="18.44394">
        <ele>19.138469</ele>
        <time>2020-08-27T12:41:47.936Z</time>
      </trkpt>
      <trkpt lat="69.50056" lon="18.4457">
        <ele>15.987194</ele>
        <time>2020-08-27T12:42:01.103Z</time>
      </trkpt>
      <trkpt lat="69.50036" lon="18.44631">
        <ele>15.483647</ele>
        <time>2020-08-27T12:42:05.654Z</time>
      </trkpt>
      <trkpt lat="69.5003" lon="18.44648">
        <ele>15.353543</ele>
        <time>2020-08-27T12:42:06.621Z</time>
      </trkpt>
      <trkpt lat="69.49997" lon="18.44797">
        <ele>14.302546</ele>
        <time>2020-08-27T12:42:16.790Z</time>
      </trkpt>
      <trkpt lat="69.49991" lon="18.44839">
        <ele>14.038408</ele>
        <time>2020-08-27T12:42:19.005Z</time>
      </trkpt>
      <trkpt lat="69.4999" lon="18.44849">
        <ele>13.978261</ele>
        <time>2020-08-27T12:42:19.670Z</time>
      </trkpt>
      <trkpt lat="69.49987" lon="18.44872">
        <ele>14.020114</ele>
        <time>2020-08-27T12:42:21.639Z</time>
      </trkpt>
      <trkpt lat="69.49935" lon="18.45318">
        <ele>15.787311</ele>
        <time>2020-08-27T12:42:57.364Z</time>
      </trkpt>
      <trkpt lat="69.49901" lon="18.4552">
        <ele>16.564051</ele>
        <time>2020-08-27T12:43:16.278Z</time>
      </trkpt>
      <trkpt lat="69.49843" lon="18.45721">
        <ele>17.452105</ele>
        <time>2020-08-27T12:43:35.128Z</time>
      </trkpt>
      <trkpt lat="69.49672" lon="18.46178">
        <ele>17.258651</ele>
        <time>2020-08-27T12:44:14.390Z</time>
      </trkpt>
      <trkpt lat="69.49582" lon="18.46432">
        <ele>17.677385</ele>
        <time>2020-08-27T12:44:39.424Z</time>
      </trkpt>
      <trkpt lat="69.49553" lon="18.46516">
        <ele>17.620027</ele>
        <time>2020-08-27T12:44:47.654Z</time>
      </trkpt>
      <trkpt lat="69.49505" lon="18.46675">
        <ele>17.264867</ele>
        <time>2020-08-27T12:45:00.496Z</time>
      </trkpt>
      <trkpt lat="69.4948" lon="18.46739">
        <ele>17.102338</ele>
        <time>2020-08-27T12:45:05.894Z</time>
      </trkpt>
      <trkpt lat="69.49431" lon="18.46815">
        <ele>16.814366</ele>
        <time>2020-08-27T12:45:14.199Z</time>
      </trkpt>
      <trkpt lat="69.49334" lon="18.46926">
        <ele>16.046425</ele>
        <time>2020-08-27T12:45:29.058Z</time>
      </trkpt>
      <trkpt lat="69.49302" lon="18.46985">
        <ele>15.766561</ele>
        <time>2020-08-27T12:45:36.346Z</time>
      </trkpt>
      <trkpt lat="69.49275" lon="18.47065">
        <ele>15.710839</ele>
        <time>2020-08-27T12:45:44.673Z</time>
      </trkpt>
      <trkpt lat="69.49238" lon="18.47225">
        <ele>17.023321</ele>
        <time>2020-08-27T12:46:00.043Z</time>
      </trkpt>
      <trkpt lat="69.4923" lon="18.47249">
        <ele>17.243938</ele>
        <time>2020-08-27T12:46:03.657Z</time>
      </trkpt>
      <trkpt lat="69.49215" lon="18.47291">
        <ele>17.650675</ele>
        <time>2020-08-27T12:46:08.459Z</time>
      </trkpt>
      <trkpt lat="69.49168" lon="18.47393">
        <ele>18.81606</ele>
        <time>2020-08-27T12:46:24.073Z</time>
      </trkpt>
      <trkpt lat="69.49104" lon="18.47478">
        <ele>19.479995</ele>
        <time>2020-08-27T12:46:41.729Z</time>
      </trkpt>
      <trkpt lat="69.48999" lon="18.47649">
        <ele>20.353679</ele>
        <time>2020-08-27T12:47:03.445Z</time>
      </trkpt>
      <trkpt lat="69.48774" lon="18.47914">
        <ele>19.061776</ele>
        <time>2020-08-27T12:47:42.844Z</time>
      </trkpt>
      <trkpt lat="69.48699" lon="18.47984">
        <ele>18.648036</ele>
        <time>2020-08-27T12:47:55.869Z</time>
      </trkpt>
      <trkpt lat="69.4861" lon="18.48048">
        <ele>18.388051</ele>
        <time>2020-08-27T12:48:11.202Z</time>
      </trkpt>
      <trkpt lat="69.48542" lon="18.48123">
        <ele>18.303514</ele>
        <time>2020-08-27T12:48:24.056Z</time>
      </trkpt>
      <trkpt lat="69.48176" lon="18.48349">
        <ele>18.421982</ele>
        <time>2020-08-27T12:49:33.792Z</time>
      </trkpt>
      <trkpt lat="69.48092" lon="18.48356">
        <ele>17.399189</ele>
        <time>2020-08-27T12:49:46.366Z</time>
      </trkpt>
      <trkpt lat="69.47769" lon="18.48313">
        <ele>10.572428</ele>
        <time>2020-08-27T12:50:30.255Z</time>
      </trkpt>
      <trkpt lat="69.47739" lon="18.48319">
        <ele>10.956971</ele>
        <time>2020-08-27T12:50:35.503Z</time>
      </trkpt>
      <trkpt lat="69.47699" lon="18.48328">
        <ele>11.479015</ele>
        <time>2020-08-27T12:50:43.991Z</time>
      </trkpt>
      <trkpt lat="69.4761" lon="18.48329">
        <ele>12.614386</ele>
        <time>2020-08-27T12:51:06.427Z</time>
      </trkpt>
      <trkpt lat="69.47532" lon="18.48295">
        <ele>14.719885</ele>
        <time>2020-08-27T12:51:29.652Z</time>
      </trkpt>
      <trkpt lat="69.4748" lon="18.4825">
        <ele>16.299087</ele>
        <time>2020-08-27T12:51:44.990Z</time>
      </trkpt>
      <trkpt lat="69.47369" lon="18.48109">
        <ele>18.506466</ele>
        <time>2020-08-27T12:52:15.471Z</time>
      </trkpt>
      <trkpt lat="69.47305" lon="18.48051">
        <ele>19.059086</ele>
        <time>2020-08-27T12:52:29.034Z</time>
      </trkpt>
      <trkpt lat="69.4727" lon="18.48007">
        <ele>19.368986</ele>
        <time>2020-08-27T12:52:35.476Z</time>
      </trkpt>
      <trkpt lat="69.47226" lon="18.47922">
        <ele>18.503887</ele>
        <time>2020-08-27T12:52:43.611Z</time>
      </trkpt>
      <trkpt lat="69.46956" lon="18.47328">
        <ele>9.993246</ele>
        <time>2020-08-27T12:53:29.048Z</time>
      </trkpt>
      <trkpt lat="69.46927" lon="18.47248">
        <ele>9.543101</ele>
        <time>2020-08-27T12:53:34.665Z</time>
      </trkpt>
      <trkpt lat="69.46906" lon="18.47161">
        <ele>9.126176</ele>
        <time>2020-08-27T12:53:40.086Z</time>
      </trkpt>
      <trkpt lat="69.469" lon="18.47138">
        <ele>9.015763</ele>
        <time>2020-08-27T12:53:41.392Z</time>
      </trkpt>
      <trkpt lat="69.46897" lon="18.47129">
        <ele>8.966851</ele>
        <time>2020-08-27T12:53:42.284Z</time>
      </trkpt>
      <trkpt lat="69.46871" lon="18.47087">
        <ele>8.625681</ele>
        <time>2020-08-27T12:53:47.206Z</time>
      </trkpt>
      <trkpt lat="69.46807" lon="18.47052">
        <ele>9.173587</ele>
        <time>2020-08-27T12:54:01.084Z</time>
      </trkpt>
      <trkpt lat="69.46741" lon="18.46966">
        <ele>11.455183</ele>
        <time>2020-08-27T12:54:20.835Z</time>
      </trkpt>
      <trkpt lat="69.46736" lon="18.46964">
        <ele>11.622724</ele>
        <time>2020-08-27T12:54:22.574Z</time>
      </trkpt>
      <trkpt lat="69.46732" lon="18.46963">
        <ele>11.742764</ele>
        <time>2020-08-27T12:54:24.654Z</time>
      </trkpt>
      <trkpt lat="69.46657" lon="18.46963">
        <ele>14.062969</ele>
        <time>2020-08-27T12:54:48.475Z</time>
      </trkpt>
      <trkpt lat="69.46627" lon="18.46943">
        <ele>14.85849</ele>
        <time>2020-08-27T12:54:57.628Z</time>
      </trkpt>
      <trkpt lat="69.46613" lon="18.46929">
        <ele>15.258709</ele>
        <time>2020-08-27T12:55:02.803Z</time>
      </trkpt>
      <trkpt lat="69.46596" lon="18.46911">
        <ele>15.739831</ele>
        <time>2020-08-27T12:55:07.911Z</time>
      </trkpt>
      <trkpt lat="69.46471" lon="18.46765">
        <ele>18.303557</ele>
        <time>2020-08-27T12:55:40.770Z</time>
      </trkpt>
      <trkpt lat="69.46446" lon="18.46707">
        <ele>17.931749</ele>
        <time>2020-08-27T12:55:45.627Z</time>
      </trkpt>
      <trkpt lat="69.46393" lon="18.4654">
        <ele>17.005974</ele>
        <time>2020-08-27T12:55:56.690Z</time>
      </trkpt>
      <trkpt lat="69.46367" lon="18.46482">
        <ele>16.613469</ele>
        <time>2020-08-27T12:56:01.300Z</time>
      </trkpt>
      <trkpt lat="69.46322" lon="18.46408">
        <ele>16.180842</ele>
        <time>2020-08-27T12:56:08.404Z</time>
      </trkpt>
      <trkpt lat="69.46277" lon="18.46377">
        <ele>15.8274</ele>
        <time>2020-08-27T12:56:15.045Z</time>
      </trkpt>
      <trkpt lat="69.46075" lon="18.46497">
        <ele>17.040169</ele>
        <time>2020-08-27T12:56:55.671Z</time>
      </trkpt>
      <trkpt lat="69.46034" lon="18.4657">
        <ele>17.849257</ele>
        <time>2020-08-27T12:57:08.783Z</time>
      </trkpt>
      <trkpt lat="69.45997" lon="18.4673">
        <ele>20.14441</ele>
        <time>2020-08-27T12:57:29.579Z</time>
      </trkpt>
      <trkpt lat="69.45981" lon="18.46779">
        <ele>21.079708</ele>
        <time>2020-08-27T12:57:37.019Z</time>
      </trkpt>
      <trkpt lat="69.45925" lon="18.46856">
        <ele>23.577079</ele>
        <time>2020-08-27T12:57:56.331Z</time>
      </trkpt>
      <trkpt lat="69.45914" lon="18.46861">
        <ele>24.000138</ele>
        <time>2020-08-27T12:58:00.227Z</time>
      </trkpt>
      <trkpt lat="69.45909" lon="18.46863">
        <ele>24.20072</ele>
        <time>2020-08-27T12:58:01.748Z</time>
      </trkpt>
      <trkpt lat="69.45858" lon="18.46852">
        <ele>26.111787</ele>
        <time>2020-08-27T12:58:16.941Z</time>
      </trkpt>
      <trkpt lat="69.45835" lon="18.46869">
        <ele>26.96658</ele>
        <time>2020-08-27T12:58:24.697Z</time>
      </trkpt>
      <trkpt lat="69.45784" lon="18.46963">
        <ele>29.048042</ele>
        <time>2020-08-27T12:58:42.403Z</time>
      </trkpt>
      <trkpt lat="69.45717" lon="18.47116">
        <ele>31.866963</ele>
        <time>2020-08-27T12:59:05.748Z</time>
      </trkpt>
      <trkpt lat="69.45637" lon="18.47201">
        <ele>33.781705</ele>
        <time>2020-08-27T12:59:28.562Z</time>
      </trkpt>
      <trkpt lat="69.45607" lon="18.47253">
        <ele>34.571981</ele>
        <time>2020-08-27T12:59:37.378Z</time>
      </trkpt>
      <trkpt lat="69.45518" lon="18.47402">
        <ele>35.303849</ele>
        <time>2020-08-27T13:00:00.070Z</time>
      </trkpt>
      <trkpt lat="69.45237" lon="18.47857">
        <ele>30.85043</ele>
        <time>2020-08-27T13:00:47.888Z</time>
      </trkpt>
      <trkpt lat="69.45117" lon="18.48007">
        <ele>25.553912</ele>
        <time>2020-08-27T13:01:04.113Z</time>
      </trkpt>
      <trkpt lat="69.45111" lon="18.48013">
        <ele>25.312879</ele>
        <time>2020-08-27T13:01:04.772Z</time>
      </trkpt>
      <trkpt lat="69.45055" lon="18.4808">
        <ele>22.789288</ele>
        <time>2020-08-27T13:01:12.212Z</time>
      </trkpt>
      <trkpt lat="69.44978" lon="18.48175">
        <ele>19.271919</ele>
        <time>2020-08-27T13:01:22.409Z</time>
      </trkpt>
      <trkpt lat="69.4491" lon="18.48257">
        <ele>16.57188</ele>
        <time>2020-08-27T13:01:32.302Z</time>
      </trkpt>
      <trkpt lat="69.44774" lon="18.48421">
        <ele>13.695035</ele>
        <time>2020-08-27T13:01:53.391Z</time>
      </trkpt>
      <trkpt lat="69.44761" lon="18.48437">
        <ele>13.413805</ele>
        <time>2020-08-27T13:01:55.626Z</time>
      </trkpt>
      <trkpt lat="69.44749" lon="18.48454">
        <ele>13.239439</ele>
        <time>2020-08-27T13:01:57.574Z</time>
      </trkpt>
      <trkpt lat="69.44735" lon="18.48476">
        <ele>13.022484</ele>
        <time>2020-08-27T13:02:00.021Z</time>
      </trkpt>
      <trkpt lat="69.44723" lon="18.48498">
        <ele>12.83829</ele>
        <time>2020-08-27T13:02:02.178Z</time>
      </trkpt>
      <trkpt lat="69.44717" lon="18.48513">
        <ele>12.729569</ele>
        <time>2020-08-27T13:02:03.370Z</time>
      </trkpt>
      <trkpt lat="69.44712" lon="18.48526">
        <ele>12.639997</ele>
        <time>2020-08-27T13:02:04.397Z</time>
      </trkpt>
      <trkpt lat="69.44696" lon="18.48573">
        <ele>12.32947</ele>
        <time>2020-08-27T13:02:07.966Z</time>
      </trkpt>
      <trkpt lat="69.44659" lon="18.48663">
        <ele>11.67924</ele>
        <time>2020-08-27T13:02:15.253Z</time>
      </trkpt>
      <trkpt lat="69.44653" lon="18.48674">
        <ele>11.588247</ele>
        <time>2020-08-27T13:02:16.254Z</time>
      </trkpt>
      <trkpt lat="69.44642" lon="18.48695">
        <ele>11.407152</ele>
        <time>2020-08-27T13:02:18.305Z</time>
      </trkpt>
      <trkpt lat="69.44625" lon="18.48723">
        <ele>11.145391</ele>
        <time>2020-08-27T13:02:21.148Z</time>
      </trkpt>
      <trkpt lat="69.44609" lon="18.48746">
        <ele>10.892108</ele>
        <time>2020-08-27T13:02:23.811Z</time>
      </trkpt>
      <trkpt lat="69.44584" lon="18.48779">
        <ele>10.449359</ele>
        <time>2020-08-27T13:02:27.961Z</time>
      </trkpt>
      <trkpt lat="69.44568" lon="18.48797">
        <ele>10.185553</ele>
        <time>2020-08-27T13:02:30.488Z</time>
      </trkpt>
      <trkpt lat="69.44524" lon="18.4884">
        <ele>9.441922</ele>
        <time>2020-08-27T13:02:37.450Z</time>
      </trkpt>
      <trkpt lat="69.44426" lon="18.48965">
        <ele>7.73592</ele>
        <time>2020-08-27T13:02:52.893Z</time>
      </trkpt>
      <trkpt lat="69.44356" lon="18.49071">
        <ele>6.434545</ele>
        <time>2020-08-27T13:03:04.272Z</time>
      </trkpt>
      <trkpt lat="69.44299" lon="18.49176">
        <ele>5.317324</ele>
        <time>2020-08-27T13:03:14.248Z</time>
      </trkpt>
      <trkpt lat="69.44242" lon="18.49321">
        <ele>4.529243</ele>
        <time>2020-08-27T13:03:25.717Z</time>
      </trkpt>
      <trkpt lat="69.44115" lon="18.4983">
        <ele>2.623854</ele>
        <time>2020-08-27T13:04:00.662Z</time>
      </trkpt>
      <trkpt lat="69.4403" lon="18.50192">
        <ele>1.588807</ele>
        <time>2020-08-27T13:04:25.167Z</time>
      </trkpt>
      <trkpt lat="69.43981" lon="18.50444">
        <ele>0.979129</ele>
        <time>2020-08-27T13:04:41.767Z</time>
      </trkpt>
      <trkpt lat="69.43881" lon="18.51029">
        <ele>0.357673</ele>
        <time>2020-08-27T13:05:20.832Z</time>
      </trkpt>
      <trkpt lat="69.43856" lon="18.51148">
        <ele>0.281602</ele>
        <time>2020-08-27T13:05:29.237Z</time>
      </trkpt>
      <trkpt lat="69.4384" lon="18.51214">
        <ele>0.236848</ele>
        <time>2020-08-27T13:05:34.170Z</time>
      </trkpt>
      <trkpt lat="69.43765" lon="18.51501">
        <ele>0.218124</ele>
        <time>2020-08-27T13:05:56.220Z</time>
      </trkpt>
      <trkpt lat="69.43758" lon="18.51526">
        <ele>0.227442</ele>
        <time>2020-08-27T13:05:58.282Z</time>
      </trkpt>
      <trkpt lat="69.43715" lon="18.51659">
        <ele>0.278284</ele>
        <time>2020-08-27T13:06:09.796Z</time>
      </trkpt>
      <trkpt lat="69.43702" lon="18.51718">
        <ele>0.297814</ele>
        <time>2020-08-27T13:06:14.353Z</time>
      </trkpt>
      <trkpt lat="69.43695" lon="18.51787">
        <ele>0.438566</ele>
        <time>2020-08-27T13:06:19.199Z</time>
      </trkpt>
      <trkpt lat="69.43687" lon="18.51953">
        <ele>0.844081</ele>
        <time>2020-08-27T13:06:30.707Z</time>
      </trkpt>
      <trkpt lat="69.43681" lon="18.52003">
        <ele>0.974931</ele>
        <time>2020-08-27T13:06:34.496Z</time>
      </trkpt>
      <trkpt lat="69.43535" lon="18.52558">
        <ele>2.809513</ele>
        <time>2020-08-27T13:07:25.022Z</time>
      </trkpt>
      <trkpt lat="69.43496" lon="18.52656">
        <ele>2.95271</ele>
        <time>2020-08-27T13:07:34.980Z</time>
      </trkpt>
      <trkpt lat="69.43399" lon="18.5283">
        <ele>2.93582</ele>
        <time>2020-08-27T13:07:55.156Z</time>
      </trkpt>
      <trkpt lat="69.43295" lon="18.53101">
        <ele>2.60831</ele>
        <time>2020-08-27T13:08:18.693Z</time>
      </trkpt>
      <trkpt lat="69.43263" lon="18.53204">
        <ele>2.464695</ele>
        <time>2020-08-27T13:08:26.914Z</time>
      </trkpt>
      <trkpt lat="69.43198" lon="18.53473">
        <ele>2.334227</ele>
        <time>2020-08-27T13:08:47.340Z</time>
      </trkpt>
      <trkpt lat="69.43146" lon="18.53632">
        <ele>2.281649</ele>
        <time>2020-08-27T13:09:01.050Z</time>
      </trkpt>
      <trkpt lat="69.43136" lon="18.53657">
        <ele>2.267668</ele>
        <time>2020-08-27T13:09:03.286Z</time>
      </trkpt>
      <trkpt lat="69.43127" lon="18.5368">
        <ele>2.220683</ele>
        <time>2020-08-27T13:09:05.486Z</time>
      </trkpt>
      <trkpt lat="69.4308" lon="18.538">
        <ele>1.985262</ele>
        <time>2020-08-27T13:09:16.054Z</time>
      </trkpt>
      <trkpt lat="69.43056" lon="18.53863">
        <ele>1.860668</ele>
        <time>2020-08-27T13:09:21.524Z</time>
      </trkpt>
      <trkpt lat="69.42982" lon="18.54064">
        <ele>1.473447</ele>
        <time>2020-08-27T13:09:38.450Z</time>
      </trkpt>
      <trkpt lat="69.42952" lon="18.5422">
        <ele>1.239565</ele>
        <time>2020-08-27T13:09:48.622Z</time>
      </trkpt>
      <trkpt lat="69.42946" lon="18.54257">
        <ele>1.18566</ele>
        <time>2020-08-27T13:09:51.026Z</time>
      </trkpt>
      <trkpt lat="69.42944" lon="18.5427">
        <ele>1.166094</ele>
        <time>2020-08-27T13:09:51.890Z</time>
      </trkpt>
      <trkpt lat="69.42938" lon="18.54299">
        <ele>1.12127</ele>
        <time>2020-08-27T13:09:53.902Z</time>
      </trkpt>
      <trkpt lat="69.42858" lon="18.5454">
        <ele>1.118845</ele>
        <time>2020-08-27T13:10:14.239Z</time>
      </trkpt>
      <trkpt lat="69.42836" lon="18.54611">
        <ele>1.225819</ele>
        <time>2020-08-27T13:10:20.315Z</time>
      </trkpt>
      <trkpt lat="69.42817" lon="18.54675">
        <ele>1.322322</ele>
        <time>2020-08-27T13:10:25.941Z</time>
      </trkpt>
      <trkpt lat="69.42801" lon="18.54723">
        <ele>1.397348</ele>
        <time>2020-08-27T13:10:30.464Z</time>
      </trkpt>
      <trkpt lat="69.42776" lon="18.54804">
        <ele>1.614726</ele>
        <time>2020-08-27T13:10:38.285Z</time>
      </trkpt>
      <trkpt lat="69.42725" lon="18.54954">
        <ele>2.895798</ele>
        <time>2020-08-27T13:10:54.365Z</time>
      </trkpt>
      <trkpt lat="69.42565" lon="18.55339">
        <ele>6.988482</ele>
        <time>2020-08-27T13:11:46.960Z</time>
      </trkpt>
      <trkpt lat="69.42495" lon="18.55563">
        <ele>8.802993</ele>
        <time>2020-08-27T13:12:12.708Z</time>
      </trkpt>
      <trkpt lat="69.42451" lon="18.55665">
        <ele>9.301119</ele>
        <time>2020-08-27T13:12:25.195Z</time>
      </trkpt>
      <trkpt lat="69.42417" lon="18.55744">
        <ele>9.68236</ele>
        <time>2020-08-27T13:12:33.869Z</time>
      </trkpt>
      <trkpt lat="69.42356" lon="18.55883">
        <ele>9.672359</ele>
        <time>2020-08-27T13:12:47.458Z</time>
      </trkpt>
      <trkpt lat="69.42198" lon="18.56265">
        <ele>7.093973</ele>
        <time>2020-08-27T13:13:17.907Z</time>
      </trkpt>
      <trkpt lat="69.42183" lon="18.56303">
        <ele>6.815099</ele>
        <time>2020-08-27T13:13:20.761Z</time>
      </trkpt>
      <trkpt lat="69.42132" lon="18.56428">
        <ele>5.893007</ele>
        <time>2020-08-27T13:13:30.598Z</time>
      </trkpt>
      <trkpt lat="69.42072" lon="18.5658">
        <ele>5.912259</ele>
        <time>2020-08-27T13:13:43.615Z</time>
      </trkpt>
      <trkpt lat="69.42025" lon="18.56698">
        <ele>6.491308</ele>
        <time>2020-08-27T13:13:56.060Z</time>
      </trkpt>
      <trkpt lat="69.41938" lon="18.56944">
        <ele>8.687575</ele>
        <time>2020-08-27T13:14:27.694Z</time>
      </trkpt>
      <trkpt lat="69.41803" lon="18.57234">
        <ele>13.229033</ele>
        <time>2020-08-27T13:15:15.151Z</time>
      </trkpt>
      <trkpt lat="69.41666" lon="18.57447">
        <ele>16.176878</ele>
        <time>2020-08-27T13:15:51.964Z</time>
      </trkpt>
      <trkpt lat="69.41449" lon="18.57712">
        <ele>17.147767</ele>
        <time>2020-08-27T13:16:37.106Z</time>
      </trkpt>
      <trkpt lat="69.41359" lon="18.57915">
        <ele>16.948254</ele>
        <time>2020-08-27T13:16:56.761Z</time>
      </trkpt>
      <trkpt lat="69.41177" lon="18.58258">
        <ele>14.306081</ele>
        <time>2020-08-27T13:17:29.799Z</time>
      </trkpt>
      <trkpt lat="69.41139" lon="18.58317">
        <ele>13.566432</ele>
        <time>2020-08-27T13:17:35.933Z</time>
      </trkpt>
      <trkpt lat="69.41055" lon="18.58417">
        <ele>11.995973</ele>
        <time>2020-08-27T13:17:48.988Z</time>
      </trkpt>
      <trkpt lat="69.41016" lon="18.58505">
        <ele>11.100979</ele>
        <time>2020-08-27T13:17:56.042Z</time>
      </trkpt>
      <trkpt lat="69.41008" lon="18.58533">
        <ele>10.862228</ele>
        <time>2020-08-27T13:17:57.833Z</time>
      </trkpt>
      <trkpt lat="69.4099" lon="18.58593">
        <ele>10.359483</ele>
        <time>2020-08-27T13:18:01.777Z</time>
      </trkpt>
      <trkpt lat="69.40951" lon="18.58697">
        <ele>9.38329</ele>
        <time>2020-08-27T13:18:09.419Z</time>
      </trkpt>
      <trkpt lat="69.40906" lon="18.58806">
        <ele>8.437532</ele>
        <time>2020-08-27T13:18:18.006Z</time>
      </trkpt>
      <trkpt lat="69.40881" lon="18.58867">
        <ele>8.007369</ele>
        <time>2020-08-27T13:18:22.838Z</time>
      </trkpt>
      <trkpt lat="69.40753" lon="18.59142">
        <ele>6.466676</ele>
        <time>2020-08-27T13:18:47.093Z</time>
      </trkpt>
      <trkpt lat="69.40671" lon="18.59429">
        <ele>6.63632</ele>
        <time>2020-08-27T13:19:11.743Z</time>
      </trkpt>
      <trkpt lat="69.40548" lon="18.5977">
        <ele>9.766296</ele>
        <time>2020-08-27T13:19:52.504Z</time>
      </trkpt>
      <trkpt lat="69.40469" lon="18.59937">
        <ele>12.377711</ele>
        <time>2020-08-27T13:20:19.841Z</time>
      </trkpt>
      <trkpt lat="69.40447" lon="18.59962">
        <ele>13.029359</ele>
        <time>2020-08-27T13:20:26.148Z</time>
      </trkpt>
      <trkpt lat="69.40427" lon="18.5996">
        <ele>13.598692</ele>
        <time>2020-08-27T13:20:31.528Z</time>
      </trkpt>
      <trkpt lat="69.40412" lon="18.59951">
        <ele>14.034814</ele>
        <time>2020-08-27T13:20:35.890Z</time>
      </trkpt>
      <trkpt lat="69.40407" lon="18.59948">
        <ele>14.169654</ele>
        <time>2020-08-27T13:20:37.401Z</time>
      </trkpt>
      <trkpt lat="69.40269" lon="18.59834">
        <ele>17.166284</ele>
        <time>2020-08-27T13:21:14.178Z</time>
      </trkpt>
      <trkpt lat="69.40035" lon="18.59614">
        <ele>20.244955</ele>
        <time>2020-08-27T13:22:05.938Z</time>
      </trkpt>
      <trkpt lat="69.4001" lon="18.596">
        <ele>20.494945</ele>
        <time>2020-08-27T13:22:10.859Z</time>
      </trkpt>
      <trkpt lat="69.40009" lon="18.59629">
        <ele>20.592968</ele>
        <time>2020-08-27T13:22:13.772Z</time>
      </trkpt>
      <trkpt lat="69.40016" lon="18.59668">
        <ele>20.739933</ele>
        <time>2020-08-27T13:22:17.015Z</time>
      </trkpt>
      <trkpt lat="69.40047" lon="18.5975">
        <ele>21.152588</ele>
        <time>2020-08-27T13:22:26.352Z</time>
      </trkpt>
      <trkpt lat="69.40065" lon="18.59803">
        <ele>21.405189</ele>
        <time>2020-08-27T13:22:32.502Z</time>
      </trkpt>
      <trkpt lat="69.40074" lon="18.59829">
        <ele>21.534057</ele>
        <time>2020-08-27T13:22:34.906Z</time>
      </trkpt>
      <trkpt lat="69.40091" lon="18.59878">
        <ele>21.765986</ele>
        <time>2020-08-27T13:22:40.397Z</time>
      </trkpt>
      <trkpt lat="69.40078" lon="18.59915">
        <ele>21.940236</ele>
        <time>2020-08-27T13:22:43.939Z</time>
      </trkpt>
      <trkpt lat="69.40073" lon="18.59932">
        <ele>22.020085</ele>
        <time>2020-08-27T13:22:45.924Z</time>
      </trkpt>
      <trkpt lat="69.4007" lon="18.59944">
        <ele>21.983276</ele>
        <time>2020-08-27T13:22:47.089Z</time>
      </trkpt>
      <trkpt lat="69.40063" lon="18.60001">
        <ele>21.682181</ele>
        <time>2020-08-27T13:22:51.055Z</time>
      </trkpt>
      <trkpt lat="69.40059" lon="18.60097">
        <ele>21.196086</ele>
        <time>2020-08-27T13:22:57.295Z</time>
      </trkpt>
      <trkpt lat="69.40051" lon="18.60146">
        <ele>20.922082</ele>
        <time>2020-08-27T13:23:00.717Z</time>
      </trkpt>
      <trkpt lat="69.40044" lon="18.60156">
        <ele>20.814607</ele>
        <time>2020-08-27T13:23:01.909Z</time>
      </trkpt>
      <trkpt lat="69.39963" lon="18.60165">
        <ele>19.665713</ele>
        <time>2020-08-27T13:23:13.975Z</time>
      </trkpt>
      <trkpt lat="69.39816" lon="18.60413">
        <ele>12.151103</ele>
        <time>2020-08-27T13:23:35.924Z</time>
      </trkpt>
      <trkpt lat="69.39812" lon="18.60423">
        <ele>11.892123</ele>
        <time>2020-08-27T13:23:36.536Z</time>
      </trkpt>
      <trkpt lat="69.39779" lon="18.6048">
        <ele>10.39457</ele>
        <time>2020-08-27T13:23:41.381Z</time>
      </trkpt>
      <trkpt lat="69.39764" lon="18.60501">
        <ele>9.831491</ele>
        <time>2020-08-27T13:23:43.725Z</time>
      </trkpt>
      <trkpt lat="69.39754" lon="18.60502">
        <ele>9.476087</ele>
        <time>2020-08-27T13:23:45.226Z</time>
      </trkpt>
      <trkpt lat="69.39748" lon="18.60503">
        <ele>9.274861</ele>
        <time>2020-08-27T13:23:45.888Z</time>
      </trkpt>
      <trkpt lat="69.39744" lon="18.60525">
        <ele>8.994099</ele>
        <time>2020-08-27T13:23:46.962Z</time>
      </trkpt>
      <trkpt lat="69.39728" lon="18.60557">
        <ele>8.330817</ele>
        <time>2020-08-27T13:23:49.786Z</time>
      </trkpt>
      <trkpt lat="69.39701" lon="18.60563">
        <ele>7.433395</ele>
        <time>2020-08-27T13:23:53.090Z</time>
      </trkpt>
      <trkpt lat="69.39696" lon="18.60553">
        <ele>7.211317</ele>
        <time>2020-08-27T13:23:54.108Z</time>
      </trkpt>
      <trkpt lat="69.39674" lon="18.60448">
        <ele>5.773349</ele>
        <time>2020-08-27T13:23:59.792Z</time>
      </trkpt>
      <trkpt lat="69.39668" lon="18.60441">
        <ele>5.566354</ele>
        <time>2020-08-27T13:24:00.577Z</time>
      </trkpt>
      <trkpt lat="69.39651" lon="18.60438">
        <ele>5.064968</ele>
        <time>2020-08-27T13:24:03.559Z</time>
      </trkpt>
      <trkpt lat="69.39621" lon="18.60434">
        <ele>4.89</ele>
        <time>2020-08-27T13:24:08.226Z</time>
      </trkpt>
      <trkpt lat="69.39609" lon="18.60434">
        <ele>4.818679</ele>
        <time>2020-08-27T13:24:10.592Z</time>
      </trkpt>
      <trkpt lat="69.39574" lon="18.60442">
        <ele>4.614586</ele>
        <time>2020-08-27T13:24:16.660Z</time>
      </trkpt>
      <trkpt lat="69.3955" lon="18.6045">
        <ele>4.471611</ele>
        <time>2020-08-27T13:24:20.868Z</time>
      </trkpt>
      <trkpt lat="69.39528" lon="18.60457">
        <ele>4.340483</ele>
        <time>2020-08-27T13:24:24.608Z</time>
      </trkpt>
      <trkpt lat="69.39524" lon="18.60456">
        <ele>4.321061</ele>
        <time>2020-08-27T13:24:25.137Z</time>
      </trkpt>
      <trkpt lat="69.39522" lon="18.60452">
        <ele>4.302741</ele>
        <time>2020-08-27T13:24:25.709Z</time>
      </trkpt>
      <trkpt lat="69.39521" lon="18.60456">
        <ele>4.291966</ele>
        <time>2020-08-27T13:24:26.096Z</time>
      </trkpt>
      <trkpt lat="69.39463" lon="18.60497">
        <ele>3.936558</ele>
        <time>2020-08-27T13:24:35.989Z</time>
      </trkpt>
      <trkpt lat="69.39451" lon="18.60512">
        <ele>3.854128</ele>
        <time>2020-08-27T13:24:38.286Z</time>
      </trkpt>
      <trkpt lat="69.39439" lon="18.60526">
        <ele>3.76957</ele>
        <time>2020-08-27T13:24:40.265Z</time>
      </trkpt>
      <trkpt lat="69.39368" lon="18.60608">
        <ele>3.275743</ele>
        <time>2020-08-27T13:24:52.551Z</time>
      </trkpt>
      <trkpt lat="69.39344" lon="18.60636">
        <ele>3.109376</ele>
        <time>2020-08-27T13:24:56.651Z</time>
      </trkpt>
      <trkpt lat="69.39335" lon="18.60647">
        <ele>3.044472</ele>
        <time>2020-08-27T13:24:58.221Z</time>
      </trkpt>
      <trkpt lat="69.39327" lon="18.60658">
        <ele>2.992674</ele>
        <time>2020-08-27T13:24:59.562Z</time>
      </trkpt>
      <trkpt lat="69.39315" lon="18.60675">
        <ele>2.903608</ele>
        <time>2020-08-27T13:25:01.745Z</time>
      </trkpt>
      <trkpt lat="69.39249" lon="18.60753">
        <ele>3.157971</ele>
        <time>2020-08-27T13:25:13.531Z</time>
      </trkpt>
      <trkpt lat="69.39195" lon="18.60814">
        <ele>3.411584</ele>
        <time>2020-08-27T13:25:24.151Z</time>
      </trkpt>
      <trkpt lat="69.39151" lon="18.60853">
        <ele>3.61173</ele>
        <time>2020-08-27T13:25:34.371Z</time>
      </trkpt>
      <trkpt lat="69.39148" lon="18.6086">
        <ele>3.628925</ele>
        <time>2020-08-27T13:25:35.426Z</time>
      </trkpt>
      <trkpt lat="69.39144" lon="18.60857">
        <ele>3.649448</ele>
        <time>2020-08-27T13:25:36.432Z</time>
      </trkpt>
      <trkpt lat="69.39139" lon="18.60857">
        <ele>3.779575</ele>
        <time>2020-08-27T13:25:37.335Z</time>
      </trkpt>
      <trkpt lat="69.39136" lon="18.60858">
        <ele>3.885261</ele>
        <time>2020-08-27T13:25:37.937Z</time>
      </trkpt>
      <trkpt lat="69.39135" lon="18.60844">
        <ele>4.072502</ele>
        <time>2020-08-27T13:25:38.900Z</time>
      </trkpt>
      <trkpt lat="69.39119" lon="18.60851">
        <ele>4.632474</ele>
        <time>2020-08-27T13:25:43.639Z</time>
      </trkpt>
      <trkpt lat="69.39078" lon="18.60858">
        <ele>6.088021</ele>
        <time>2020-08-27T13:25:54.969Z</time>
      </trkpt>
      <trkpt lat="69.39062" lon="18.60857">
        <ele>6.673755</ele>
        <time>2020-08-27T13:25:59.282Z</time>
      </trkpt>
      <trkpt lat="69.39043" lon="18.60853">
        <ele>7.360697</ele>
        <time>2020-08-27T13:26:05.852Z</time>
      </trkpt>
      <trkpt lat="69.38986" lon="18.60821">
        <ele>9.42348</ele>
        <time>2020-08-27T13:26:24.439Z</time>
      </trkpt>
      <trkpt lat="69.38977" lon="18.60812">
        <ele>9.769957</ele>
        <time>2020-08-27T13:26:28.084Z</time>
      </trkpt>
      <trkpt lat="69.38955" lon="18.60788">
        <ele>10.363127</ele>
        <time>2020-08-27T13:26:35.345Z</time>
      </trkpt>
      <trkpt lat="69.38932" lon="18.60754">
        <ele>10.860706</ele>
        <time>2020-08-27T13:26:43.160Z</time>
      </trkpt>
      <trkpt lat="69.38924" lon="18.60738">
        <ele>11.066</ele>
        <time>2020-08-27T13:26:46.664Z</time>
      </trkpt>
      <trkpt lat="69.38912" lon="18.60715">
        <ele>11.338077</ele>
        <time>2020-08-27T13:26:51.211Z</time>
      </trkpt>
      <trkpt lat="69.38898" lon="18.60686">
        <ele>11.675258</ele>
        <time>2020-08-27T13:26:55.819Z</time>
      </trkpt>
      <trkpt lat="69.38864" lon="18.60614">
        <ele>12.494059</ele>
        <time>2020-08-27T13:27:06.770Z</time>
      </trkpt>
      <trkpt lat="69.38705" lon="18.6027">
        <ele>11.084412</ele>
        <time>2020-08-27T13:27:36.518Z</time>
      </trkpt>
      <trkpt lat="69.38671" lon="18.60225">
        <ele>10.451682</ele>
        <time>2020-08-27T13:27:41.408Z</time>
      </trkpt>
      <trkpt lat="69.38637" lon="18.6022">
        <ele>9.968603</ele>
        <time>2020-08-27T13:27:45.903Z</time>
      </trkpt>
      <trkpt lat="69.38566" lon="18.60314">
        <ele>8.845161</ele>
        <time>2020-08-27T13:27:56.831Z</time>
      </trkpt>
      <trkpt lat="69.38319" lon="18.60702">
        <ele>8.572537</ele>
        <time>2020-08-27T13:28:48.201Z</time>
      </trkpt>
      <trkpt lat="69.38291" lon="18.60765">
        <ele>8.974808</ele>
        <time>2020-08-27T13:28:56.218Z</time>
      </trkpt>
      <trkpt lat="69.38245" lon="18.60917">
        <ele>9.750189</ele>
        <time>2020-08-27T13:29:12.679Z</time>
      </trkpt>
      <trkpt lat="69.38222" lon="18.60977">
        <ele>10.099662</ele>
        <time>2020-08-27T13:29:19.888Z</time>
      </trkpt>
      <trkpt lat="69.38178" lon="18.61051">
        <ele>10.287743</ele>
        <time>2020-08-27T13:29:30.248Z</time>
      </trkpt>
      <trkpt lat="69.38142" lon="18.61086">
        <ele>10.396381</ele>
        <time>2020-08-27T13:29:37.494Z</time>
      </trkpt>
      <trkpt lat="69.38129" lon="18.61096">
        <ele>10.435917</ele>
        <time>2020-08-27T13:29:40.539Z</time>
      </trkpt>
      <trkpt lat="69.38116" lon="18.61102">
        <ele>10.472853</ele>
        <time>2020-08-27T13:29:42.476Z</time>
      </trkpt>
      <trkpt lat="69.38077" lon="18.61097">
        <ele>10.587139</ele>
        <time>2020-08-27T13:29:49.428Z</time>
      </trkpt>
      <trkpt lat="69.38014" lon="18.61016">
        <ele>10.492597</ele>
        <time>2020-08-27T13:30:00.755Z</time>
      </trkpt>
      <trkpt lat="69.37995" lon="18.61017">
        <ele>10.401725</ele>
        <time>2020-08-27T13:30:04.114Z</time>
      </trkpt>
      <trkpt lat="69.37978" lon="18.61038">
        <ele>10.317026</ele>
        <time>2020-08-27T13:30:06.720Z</time>
      </trkpt>
      <trkpt lat="69.37761" lon="18.61525">
        <ele>9.431366</ele>
        <time>2020-08-27T13:30:54.013Z</time>
      </trkpt>
      <trkpt lat="69.37743" lon="18.6158">
        <ele>9.368005</ele>
        <time>2020-08-27T13:30:58.749Z</time>
      </trkpt>
      <trkpt lat="69.37696" lon="18.6177">
        <ele>9.174602</ele>
        <time>2020-08-27T13:31:12.837Z</time>
      </trkpt>
      <trkpt lat="69.37601" lon="18.61978">
        <ele>9.582408</ele>
        <time>2020-08-27T13:31:32.936Z</time>
      </trkpt>
      <trkpt lat="69.37566" lon="18.62048">
        <ele>10.189176</ele>
        <time>2020-08-27T13:31:41.246Z</time>
      </trkpt>
      <trkpt lat="69.3756" lon="18.62064">
        <ele>10.309424</ele>
        <time>2020-08-27T13:31:42.674Z</time>
      </trkpt>
      <trkpt lat="69.37539" lon="18.62144">
        <ele>10.807927</ele>
        <time>2020-08-27T13:31:50.159Z</time>
      </trkpt>
      <trkpt lat="69.37472" lon="18.6251">
        <ele>16.676164</ele>
        <time>2020-08-27T13:32:34.441Z</time>
      </trkpt>
      <trkpt lat="69.37452" lon="18.62594">
        <ele>18.626247</ele>
        <time>2020-08-27T13:32:48.524Z</time>
      </trkpt>
      <trkpt lat="69.37275" lon="18.63052">
        <ele>34.592702</ele>
        <time>2020-08-27T13:34:29.916Z</time>
      </trkpt>
      <trkpt lat="69.37256" lon="18.63098">
        <ele>35.172213</ele>
        <time>2020-08-27T13:34:37.891Z</time>
      </trkpt>
      <trkpt lat="69.37226" lon="18.63174">
        <ele>36.116839</ele>
        <time>2020-08-27T13:34:49.033Z</time>
      </trkpt>
      <trkpt lat="69.37169" lon="18.63313">
        <ele>37.871352</ele>
        <time>2020-08-27T13:35:05.865Z</time>
      </trkpt>
      <trkpt lat="69.3714" lon="18.63384">
        <ele>38.452725</ele>
        <time>2020-08-27T13:35:12.170Z</time>
      </trkpt>
      <trkpt lat="69.37133" lon="18.63403">
        <ele>38.297719</ele>
        <time>2020-08-27T13:35:13.585Z</time>
      </trkpt>
      <trkpt lat="69.37069" lon="18.63624">
        <ele>36.663724</ele>
        <time>2020-08-27T13:35:27.834Z</time>
      </trkpt>
      <trkpt lat="69.36884" lon="18.64056">
        <ele>32.398053</ele>
        <time>2020-08-27T13:36:01.761Z</time>
      </trkpt>
      <trkpt lat="69.36806" lon="18.64428">
        <ele>31.343951</ele>
        <time>2020-08-27T13:36:26.229Z</time>
      </trkpt>
      <trkpt lat="69.36705" lon="18.65143">
        <ele>30.201792</ele>
        <time>2020-08-27T13:37:16.268Z</time>
      </trkpt>
      <trkpt lat="69.3669" lon="18.65189">
        <ele>29.789368</ele>
        <time>2020-08-27T13:37:19.458Z</time>
      </trkpt>
      <trkpt lat="69.36648" lon="18.65247">
        <ele>28.944021</ele>
        <time>2020-08-27T13:37:25.699Z</time>
      </trkpt>
      <trkpt lat="69.36622" lon="18.65303">
        <ele>28.341701</ele>
        <time>2020-08-27T13:37:29.946Z</time>
      </trkpt>
      <trkpt lat="69.36531" lon="18.65616">
        <ele>24.150606</ele>
        <time>2020-08-27T13:37:48.211Z</time>
      </trkpt>
      <trkpt lat="69.36418" lon="18.66291">
        <ele>18.659768</ele>
        <time>2020-08-27T13:38:26.014Z</time>
      </trkpt>
      <trkpt lat="69.36402" lon="18.66616">
        <ele>16.423163</ele>
        <time>2020-08-27T13:38:42.838Z</time>
      </trkpt>
      <trkpt lat="69.36381" lon="18.66839">
        <ele>14.345508</ele>
        <time>2020-08-27T13:38:53.925Z</time>
      </trkpt>
      <trkpt lat="69.36328" lon="18.67026">
        <ele>11.828512</ele>
        <time>2020-08-27T13:39:04.951Z</time>
      </trkpt>
      <trkpt lat="69.36302" lon="18.67283">
        <ele>9.0749</ele>
        <time>2020-08-27T13:39:17.209Z</time>
      </trkpt>
      <trkpt lat="69.36223" lon="18.6762">
        <ele>5.121884</ele>
        <time>2020-08-27T13:39:36.351Z</time>
      </trkpt>
      <trkpt lat="69.36165" lon="18.67972">
        <ele>2.84315</ele>
        <time>2020-08-27T13:39:56.295Z</time>
      </trkpt>
      <trkpt lat="69.36147" lon="18.68031">
        <ele>2.388602</ele>
        <time>2020-08-27T13:40:00.417Z</time>
      </trkpt>
      <trkpt lat="69.36106" lon="18.68124">
        <ele>1.936074</ele>
        <time>2020-08-27T13:40:08.531Z</time>
      </trkpt>
      <trkpt lat="69.36077" lon="18.68236">
        <ele>1.572593</ele>
        <time>2020-08-27T13:40:16.310Z</time>
      </trkpt>
      <trkpt lat="69.36067" lon="18.68282">
        <ele>1.432016</ele>
        <time>2020-08-27T13:40:19.307Z</time>
      </trkpt>
      <trkpt lat="69.36049" lon="18.68367">
        <ele>1.170662</ele>
        <time>2020-08-27T13:40:25.084Z</time>
      </trkpt>
      <trkpt lat="69.35956" lon="18.68806">
        <ele>0.596534</ele>
        <time>2020-08-27T13:40:55.880Z</time>
      </trkpt>
      <trkpt lat="69.35928" lon="18.68918">
        <ele>0.52431</ele>
        <time>2020-08-27T13:41:04.476Z</time>
      </trkpt>
      <trkpt lat="69.3592" lon="18.68945">
        <ele>0.521916</ele>
        <time>2020-08-27T13:41:06.711Z</time>
      </trkpt>
      <trkpt lat="69.35908" lon="18.68985">
        <ele>0.51826</ele>
        <time>2020-08-27T13:41:10.001Z</time>
      </trkpt>
      <trkpt lat="69.3588" lon="18.69056">
        <ele>0.510956</ele>
        <time>2020-08-27T13:41:16.677Z</time>
      </trkpt>
      <trkpt lat="69.35847" lon="18.69119">
        <ele>0.503034</ele>
        <time>2020-08-27T13:41:23.932Z</time>
      </trkpt>
      <trkpt lat="69.35835" lon="18.69138">
        <ele>0.500383</ele>
        <time>2020-08-27T13:41:26.424Z</time>
      </trkpt>
      <trkpt lat="69.35823" lon="18.69153">
        <ele>0.497837</ele>
        <time>2020-08-27T13:41:28.722Z</time>
      </trkpt>
      <trkpt lat="69.35751" lon="18.69229">
        <ele>0.433721</ele>
        <time>2020-08-27T13:41:42.344Z</time>
      </trkpt>
      <trkpt lat="69.35694" lon="18.69265">
        <ele>0.367131</ele>
        <time>2020-08-27T13:41:52.405Z</time>
      </trkpt>
      <trkpt lat="69.35691" lon="18.69266">
        <ele>0.363198</ele>
        <time>2020-08-27T13:41:53.012Z</time>
      </trkpt>
      <trkpt lat="69.35673" lon="18.69268">
        <ele>0.342736</ele>
        <time>2020-08-27T13:41:56.075Z</time>
      </trkpt>
      <trkpt lat="69.35669" lon="18.69269">
        <ele>0.337304</ele>
        <time>2020-08-27T13:41:56.872Z</time>
      </trkpt>
      <trkpt lat="69.3564" lon="18.69272">
        <ele>0.30414</ele>
        <time>2020-08-27T13:42:01.871Z</time>
      </trkpt>
      <trkpt lat="69.3562" lon="18.69281">
        <ele>0.289226</ele>
        <time>2020-08-27T13:42:05.346Z</time>
      </trkpt>
      <trkpt lat="69.35601" lon="18.69309">
        <ele>0.315862</ele>
        <time>2020-08-27T13:42:09.069Z</time>
      </trkpt>
      <trkpt lat="69.35573" lon="18.69405">
        <ele>0.370926</ele>
        <time>2020-08-27T13:42:16.857Z</time>
      </trkpt>
      <trkpt lat="69.35538" lon="18.69548">
        <ele>0.447799</ele>
        <time>2020-08-27T13:42:27.939Z</time>
      </trkpt>
      <trkpt lat="69.35519" lon="18.69629">
        <ele>0.49121</ele>
        <time>2020-08-27T13:42:34.454Z</time>
      </trkpt>
      <trkpt lat="69.35479" lon="18.69804">
        <ele>1.09774</ele>
        <time>2020-08-27T13:42:48.652Z</time>
      </trkpt>
      <trkpt lat="69.35418" lon="18.70189">
        <ele>2.695296</ele>
        <time>2020-08-27T13:43:21.358Z</time>
      </trkpt>
      <trkpt lat="69.35409" lon="18.70254">
        <ele>3.039302</ele>
        <time>2020-08-27T13:43:27.433Z</time>
      </trkpt>
      <trkpt lat="69.354" lon="18.70315">
        <ele>3.363544</ele>
        <time>2020-08-27T13:43:32.940Z</time>
      </trkpt>
      <trkpt lat="69.35377" lon="18.70446">
        <ele>4.077584</ele>
        <time>2020-08-27T13:43:44.699Z</time>
      </trkpt>
      <trkpt lat="69.3535" lon="18.70548">
        <ele>4.700364</ele>
        <time>2020-08-27T13:43:54.398Z</time>
      </trkpt>
      <trkpt lat="69.35328" lon="18.70617">
        <ele>4.897717</ele>
        <time>2020-08-27T13:44:01.349Z</time>
      </trkpt>
      <trkpt lat="69.35249" lon="18.7085">
        <ele>5.301557</ele>
        <time>2020-08-27T13:44:22.654Z</time>
      </trkpt>
      <trkpt lat="69.35232" lon="18.70902">
        <ele>5.391061</ele>
        <time>2020-08-27T13:44:27.246Z</time>
      </trkpt>
      <trkpt lat="69.35176" lon="18.711">
        <ele>5.545315</ele>
        <time>2020-08-27T13:44:42.602Z</time>
      </trkpt>
      <trkpt lat="69.35093" lon="18.71445">
        <ele>5.916386</ele>
        <time>2020-08-27T13:45:10.209Z</time>
      </trkpt>
      <trkpt lat="69.35061" lon="18.71582">
        <ele>6.247536</ele>
        <time>2020-08-27T13:45:22.044Z</time>
      </trkpt>
      <trkpt lat="69.35028" lon="18.71717">
        <ele>6.575531</ele>
        <time>2020-08-27T13:45:33.720Z</time>
      </trkpt>
      <trkpt lat="69.35012" lon="18.71785">
        <ele>6.712531</ele>
        <time>2020-08-27T13:45:39.335Z</time>
      </trkpt>
      <trkpt lat="69.34989" lon="18.71881">
        <ele>6.747244</ele>
        <time>2020-08-27T13:45:47.318Z</time>
      </trkpt>
      <trkpt lat="69.34941" lon="18.72081">
        <ele>6.819514</ele>
        <time>2020-08-27T13:46:03.067Z</time>
      </trkpt>
      <trkpt lat="69.34899" lon="18.72298">
        <ele>6.542439</ele>
        <time>2020-08-27T13:46:17.445Z</time>
      </trkpt>
      <trkpt lat="69.34887" lon="18.72383">
        <ele>6.277587</ele>
        <time>2020-08-27T13:46:22.601Z</time>
      </trkpt>
      <trkpt lat="69.34861" lon="18.72567">
        <ele>5.710929</ele>
        <time>2020-08-27T13:46:33.570Z</time>
      </trkpt>
      <trkpt lat="69.34803" lon="18.72983">
        <ele>4.243751</ele>
        <time>2020-08-27T13:46:57.918Z</time>
      </trkpt>
      <trkpt lat="69.34788" lon="18.73064">
        <ele>3.932203</ele>
        <time>2020-08-27T13:47:02.785Z</time>
      </trkpt>
      <trkpt lat="69.34745" lon="18.73239">
        <ele>3.787006</ele>
        <time>2020-08-27T13:47:14.820Z</time>
      </trkpt>
      <trkpt lat="69.34745" lon="18.73239">
        <ele>3.787006</ele>
        <time>2020-08-27T13:47:14.827Z</time>
      </trkpt>
      <trkpt lat="69.34719" lon="18.73445">
        <ele>4.004662</ele>
        <time>2020-08-27T13:47:28.853Z</time>
      </trkpt>
      <trkpt lat="69.34699" lon="18.73691">
        <ele>5.197083</ele>
        <time>2020-08-27T13:47:48.611Z</time>
      </trkpt>
      <trkpt lat="69.34698" lon="18.73776">
        <ele>6.131577</ele>
        <time>2020-08-27T13:47:56.623Z</time>
      </trkpt>
      <trkpt lat="69.34724" lon="18.74106">
        <ele>9.835292</ele>
        <time>2020-08-27T13:48:32.735Z</time>
      </trkpt>
      <trkpt lat="69.34735" lon="18.74242">
        <ele>11.012382</ele>
        <time>2020-08-27T13:48:47.720Z</time>
      </trkpt>
      <trkpt lat="69.34746" lon="18.74381">
        <ele>12.210449</ele>
        <time>2020-08-27T13:49:01.610Z</time>
      </trkpt>
      <trkpt lat="69.34751" lon="18.74438">
        <ele>12.702719</ele>
        <time>2020-08-27T13:49:07.280Z</time>
      </trkpt>
      <trkpt lat="69.34836" lon="18.75508">
        <ele>15.06559</ele>
        <time>2020-08-27T13:50:19.612Z</time>
      </trkpt>
      <trkpt lat="69.34841" lon="18.75564">
        <ele>15.126755</ele>
        <time>2020-08-27T13:50:23.220Z</time>
      </trkpt>
      <trkpt lat="69.34843" lon="18.75586">
        <ele>15.151285</ele>
        <time>2020-08-27T13:50:24.735Z</time>
      </trkpt>
      <trkpt lat="69.34859" lon="18.75781">
        <ele>16.477577</ele>
        <time>2020-08-27T13:50:39.055Z</time>
      </trkpt>
      <trkpt lat="69.34873" lon="18.75998">
        <ele>17.9719</ele>
        <time>2020-08-27T13:50:58.065Z</time>
      </trkpt>
      <trkpt lat="69.34868" lon="18.76111">
        <ele>18.969607</ele>
        <time>2020-08-27T13:51:09.795Z</time>
      </trkpt>
      <trkpt lat="69.34862" lon="18.76144">
        <ele>19.663716</ele>
        <time>2020-08-27T13:51:13.828Z</time>
      </trkpt>
      <trkpt lat="69.34847" lon="18.76179">
        <ele>20.660589</ele>
        <time>2020-08-27T13:51:19.749Z</time>
      </trkpt>
      <trkpt lat="69.34794" lon="18.7625">
        <ele>23.758065</ele>
        <time>2020-08-27T13:51:39.674Z</time>
      </trkpt>
      <trkpt lat="69.34782" lon="18.76299">
        <ele>24.851146</ele>
        <time>2020-08-27T13:51:47.246Z</time>
      </trkpt>
      <trkpt lat="69.34774" lon="18.76367">
        <ele>26.181277</ele>
        <time>2020-08-27T13:51:56.763Z</time>
      </trkpt>
      <trkpt lat="69.34772" lon="18.76454">
        <ele>27.790036</ele>
        <time>2020-08-27T13:52:08.646Z</time>
      </trkpt>
      <trkpt lat="69.34784" lon="18.76747">
        <ele>34.836954</ele>
        <time>2020-08-27T13:52:50.565Z</time>
      </trkpt>
      <trkpt lat="69.34777" lon="18.76889">
        <ele>38.291808</ele>
        <time>2020-08-27T13:53:10.897Z</time>
      </trkpt>
      <trkpt lat="69.34761" lon="18.76973">
        <ele>40.566493</ele>
        <time>2020-08-27T13:53:24.310Z</time>
      </trkpt>
      <trkpt lat="69.34669" lon="18.77315">
        <ele>49.939266</ele>
        <time>2020-08-27T13:54:23.113Z</time>
      </trkpt>
      <trkpt lat="69.34608" lon="18.77538">
        <ele>53.775932</ele>
        <time>2020-08-27T13:54:55.884Z</time>
      </trkpt>
      <trkpt lat="69.34553" lon="18.77739">
        <ele>56.58267</ele>
        <time>2020-08-27T13:55:20.356Z</time>
      </trkpt>
      <trkpt lat="69.34444" lon="18.78137">
        <ele>54.304135</ele>
        <time>2020-08-27T13:55:47.349Z</time>
      </trkpt>
      <trkpt lat="69.34391" lon="18.78329">
        <ele>50.032567</ele>
        <time>2020-08-27T13:55:57.429Z</time>
      </trkpt>
      <trkpt lat="69.34363" lon="18.78431">
        <ele>47.35266</ele>
        <time>2020-08-27T13:56:02.807Z</time>
      </trkpt>
      <trkpt lat="69.34351" lon="18.78479">
        <ele>46.146794</ele>
        <time>2020-08-27T13:56:05.151Z</time>
      </trkpt>
      <trkpt lat="69.34349" lon="18.78487">
        <ele>45.928495</ele>
        <time>2020-08-27T13:56:05.592Z</time>
      </trkpt>
      <trkpt lat="69.34328" lon="18.78563">
        <ele>43.955709</ele>
        <time>2020-08-27T13:56:09.481Z</time>
      </trkpt>
      <trkpt lat="69.343" lon="18.78692">
        <ele>41.606179</ele>
        <time>2020-08-27T13:56:15.770Z</time>
      </trkpt>
      <trkpt lat="69.34245" lon="18.79135">
        <ele>35.772191</ele>
        <time>2020-08-27T13:56:37.092Z</time>
      </trkpt>
      <trkpt lat="69.34238" lon="18.79179">
        <ele>35.662424</ele>
        <time>2020-08-27T13:56:39.619Z</time>
      </trkpt>
      <trkpt lat="69.34231" lon="18.7922">
        <ele>35.558685</ele>
        <time>2020-08-27T13:56:42.117Z</time>
      </trkpt>
      <trkpt lat="69.341" lon="18.79732">
        <ele>36.165547</ele>
        <time>2020-08-27T13:57:25.951Z</time>
      </trkpt>
      <trkpt lat="69.33989" lon="18.80146">
        <ele>39.080559</ele>
        <time>2020-08-27T13:58:12.205Z</time>
      </trkpt>
      <trkpt lat="69.33934" lon="18.80353">
        <ele>39.988673</ele>
        <time>2020-08-27T13:58:32.323Z</time>
      </trkpt>
      <trkpt lat="69.33909" lon="18.80447">
        <ele>39.406828</ele>
        <time>2020-08-27T13:58:39.654Z</time>
      </trkpt>
      <trkpt lat="69.3389" lon="18.80523">
        <ele>38.954448</ele>
        <time>2020-08-27T13:58:45.165Z</time>
      </trkpt>
      <trkpt lat="69.33887" lon="18.80537">
        <ele>38.878978</ele>
        <time>2020-08-27T13:58:45.865Z</time>
      </trkpt>
      <trkpt lat="69.33886" lon="18.80544">
        <ele>38.834851</ele>
        <time>2020-08-27T13:58:46.381Z</time>
      </trkpt>
      <trkpt lat="69.33869" lon="18.8068">
        <ele>38.131494</ele>
        <time>2020-08-27T13:58:53.326Z</time>
      </trkpt>
      <trkpt lat="69.33867" lon="18.80709">
        <ele>37.988197</ele>
        <time>2020-08-27T13:58:54.653Z</time>
      </trkpt>
      <trkpt lat="69.33867" lon="18.80723">
        <ele>37.919862</ele>
        <time>2020-08-27T13:58:55.223Z</time>
      </trkpt>
      <trkpt lat="69.33866" lon="18.80755">
        <ele>37.618539</ele>
        <time>2020-08-27T13:58:56.639Z</time>
      </trkpt>
      <trkpt lat="69.33866" lon="18.808">
        <ele>36.832898</ele>
        <time>2020-08-27T13:58:58.597Z</time>
      </trkpt>
      <trkpt lat="69.33866" lon="18.80853">
        <ele>35.924562</ele>
        <time>2020-08-27T13:59:00.858Z</time>
      </trkpt>
      <trkpt lat="69.33868" lon="18.81013">
        <ele>33.160814</ele>
        <time>2020-08-27T13:59:07.698Z</time>
      </trkpt>
      <trkpt lat="69.33869" lon="18.81126">
        <ele>31.208819</ele>
        <time>2020-08-27T13:59:12.517Z</time>
      </trkpt>
      <trkpt lat="69.33872" lon="18.81468">
        <ele>25.646647</ele>
        <time>2020-08-27T13:59:27.037Z</time>
      </trkpt>
      <trkpt lat="69.33882" lon="18.81695">
        <ele>22.06115</ele>
        <time>2020-08-27T13:59:37.207Z</time>
      </trkpt>
      <trkpt lat="69.33886" lon="18.81785">
        <ele>20.818112</ele>
        <time>2020-08-27T13:59:41.346Z</time>
      </trkpt>
      <trkpt lat="69.3389" lon="18.81859">
        <ele>20.164859</ele>
        <time>2020-08-27T13:59:44.739Z</time>
      </trkpt>
      <trkpt lat="69.33898" lon="18.82028">
        <ele>18.659059</ele>
        <time>2020-08-27T13:59:52.821Z</time>
      </trkpt>
      <trkpt lat="69.33914" lon="18.8236">
        <ele>16.288859</ele>
        <time>2020-08-27T14:00:09.768Z</time>
      </trkpt>
      <trkpt lat="69.3392" lon="18.82495">
        <ele>15.910095</ele>
        <time>2020-08-27T14:00:17.548Z</time>
      </trkpt>
      <trkpt lat="69.33928" lon="18.82667">
        <ele>15.423668</ele>
        <time>2020-08-27T14:00:27.846Z</time>
      </trkpt>
      <trkpt lat="69.33936" lon="18.82817">
        <ele>14.861746</ele>
        <time>2020-08-27T14:00:37.096Z</time>
      </trkpt>
      <trkpt lat="69.33937" lon="18.82987">
        <ele>13.869861</ele>
        <time>2020-08-27T14:00:46.307Z</time>
      </trkpt>
      <trkpt lat="69.33936" lon="18.83015">
        <ele>13.706416</ele>
        <time>2020-08-27T14:00:47.850Z</time>
      </trkpt>
      <trkpt lat="69.33932" lon="18.83063">
        <ele>13.418775</ele>
        <time>2020-08-27T14:00:50.306Z</time>
      </trkpt>
      <trkpt lat="69.33921" lon="18.8316">
        <ele>12.825853</ele>
        <time>2020-08-27T14:00:55.419Z</time>
      </trkpt>
      <trkpt lat="69.33915" lon="18.83201">
        <ele>12.563541</ele>
        <time>2020-08-27T14:00:57.670Z</time>
      </trkpt>
      <trkpt lat="69.33908" lon="18.83242">
        <ele>12.301374</ele>
        <time>2020-08-27T14:00:59.769Z</time>
      </trkpt>
      <trkpt lat="69.33875" lon="18.8339">
        <ele>10.19465</ele>
        <time>2020-08-27T14:01:07.907Z</time>
      </trkpt>
      <trkpt lat="69.33843" lon="18.83499">
        <ele>8.372133</ele>
        <time>2020-08-27T14:01:14.031Z</time>
      </trkpt>
      <trkpt lat="69.33773" lon="18.83676">
        <ele>5.155699</ele>
        <time>2020-08-27T14:01:25.883Z</time>
      </trkpt>
      <trkpt lat="69.33747" lon="18.83729">
        <ele>4.402738</ele>
        <time>2020-08-27T14:01:30.100Z</time>
      </trkpt>
      <trkpt lat="69.33701" lon="18.83826">
        <ele>3.078957</ele>
        <time>2020-08-27T14:01:37.791Z</time>
      </trkpt>
      <trkpt lat="69.3362" lon="18.83997">
        <ele>2.00783</ele>
        <time>2020-08-27T14:01:52.881Z</time>
      </trkpt>
      <trkpt lat="69.33604" lon="18.84064">
        <ele>2.637056</ele>
        <time>2020-08-27T14:01:58.987Z</time>
      </trkpt>
      <trkpt lat="69.33594" lon="18.8416">
        <ele>3.410704</ele>
        <time>2020-08-27T14:02:07.413Z</time>
      </trkpt>
      <trkpt lat="69.33594" lon="18.84171">
        <ele>3.495354</ele>
        <time>2020-08-27T14:02:08.427Z</time>
      </trkpt>
      <trkpt lat="69.33592" lon="18.84214">
        <ele>3.838564</ele>
        <time>2020-08-27T14:02:12.695Z</time>
      </trkpt>
      <trkpt lat="69.33591" lon="18.84257">
        <ele>4.173</ele>
        <time>2020-08-27T14:02:16.907Z</time>
      </trkpt>
      <trkpt lat="69.33595" lon="18.84355">
        <ele>4.940457</ele>
        <time>2020-08-27T14:02:27.807Z</time>
      </trkpt>
      <trkpt lat="69.33598" lon="18.84376">
        <ele>5.105487</ele>
        <time>2020-08-27T14:02:30.333Z</time>
      </trkpt>
      <trkpt lat="69.33602" lon="18.84412">
        <ele>5.485081</ele>
        <time>2020-08-27T14:02:34.819Z</time>
      </trkpt>
      <trkpt lat="69.33617" lon="18.84529">
        <ele>8.080439</ele>
        <time>2020-08-27T14:02:50.042Z</time>
      </trkpt>
      <trkpt lat="69.33629" lon="18.84622">
        <ele>10.138771</ele>
        <time>2020-08-27T14:03:02.996Z</time>
      </trkpt>
      <trkpt lat="69.33644" lon="18.84749">
        <ele>12.927639</ele>
        <time>2020-08-27T14:03:21.342Z</time>
      </trkpt>
      <trkpt lat="69.3365" lon="18.84849">
        <ele>15.037276</ele>
        <time>2020-08-27T14:03:35.654Z</time>
      </trkpt>
      <trkpt lat="69.33644" lon="18.84935">
        <ele>16.811389</ele>
        <time>2020-08-27T14:03:47.416Z</time>
      </trkpt>
      <trkpt lat="69.3353" lon="18.85466">
        <ele>28.440237</ele>
        <time>2020-08-27T14:05:05.483Z</time>
      </trkpt>
      <trkpt lat="69.33503" lon="18.85585">
        <ele>30.529906</ele>
        <time>2020-08-27T14:05:21.136Z</time>
      </trkpt>
      <trkpt lat="69.33483" lon="18.85673">
        <ele>32.082597</ele>
        <time>2020-08-27T14:05:32.073Z</time>
      </trkpt>
      <trkpt lat="69.33452" lon="18.85816">
        <ele>33.955474</ele>
        <time>2020-08-27T14:05:48.374Z</time>
      </trkpt>
      <trkpt lat="69.33413" lon="18.85993">
        <ele>34.905003</ele>
        <time>2020-08-27T14:06:06.267Z</time>
      </trkpt>
      <trkpt lat="69.33349" lon="18.86284">
        <ele>35.316536</ele>
        <time>2020-08-27T14:06:28.517Z</time>
      </trkpt>
      <trkpt lat="69.33328" lon="18.86379">
        <ele>34.578123</ele>
        <time>2020-08-27T14:06:34.405Z</time>
      </trkpt>
      <trkpt lat="69.33269" lon="18.86647">
        <ele>32.322525</ele>
        <time>2020-08-27T14:06:49.589Z</time>
      </trkpt>
      <trkpt lat="69.3322" lon="18.86878">
        <ele>28.401746</ele>
        <time>2020-08-27T14:07:01.420Z</time>
      </trkpt>
      <trkpt lat="69.33202" lon="18.8711">
        <ele>24.989182</ele>
        <time>2020-08-27T14:07:11.781Z</time>
      </trkpt>
      <trkpt lat="69.33132" lon="18.87421">
        <ele>20.283046</ele>
        <time>2020-08-27T14:07:28.021Z</time>
      </trkpt>
      <trkpt lat="69.33115" lon="18.87557">
        <ele>18.738119</ele>
        <time>2020-08-27T14:07:34.797Z</time>
      </trkpt>
      <trkpt lat="69.33083" lon="18.87946">
        <ele>19.100076</ele>
        <time>2020-08-27T14:07:59.032Z</time>
      </trkpt>
      <trkpt lat="69.33123" lon="18.88275">
        <ele>22.664222</ele>
        <time>2020-08-27T14:08:36.246Z</time>
      </trkpt>
      <trkpt lat="69.33126" lon="18.88293">
        <ele>22.92679</ele>
        <time>2020-08-27T14:08:39.818Z</time>
      </trkpt>
      <trkpt lat="69.33128" lon="18.88304">
        <ele>23.083331</ele>
        <time>2020-08-27T14:08:41.964Z</time>
      </trkpt>
      <trkpt lat="69.33138" lon="18.88345">
        <ele>23.770307</ele>
        <time>2020-08-27T14:08:46.469Z</time>
      </trkpt>
      <trkpt lat="69.3317" lon="18.88426">
        <ele>25.38683</ele>
        <time>2020-08-27T14:08:59.502Z</time>
      </trkpt>
      <trkpt lat="69.33177" lon="18.88445">
        <ele>25.770797</ele>
        <time>2020-08-27T14:09:04.543Z</time>
      </trkpt>
      <trkpt lat="69.33212" lon="18.88541">
        <ele>26.069389</ele>
        <time>2020-08-27T14:09:16.176Z</time>
      </trkpt>
      <trkpt lat="69.33223" lon="18.88572">
        <ele>26.089519</ele>
        <time>2020-08-27T14:09:19.503Z</time>
      </trkpt>
      <trkpt lat="69.33243" lon="18.8864">
        <ele>26.130313</ele>
        <time>2020-08-27T14:09:26.198Z</time>
      </trkpt>
      <trkpt lat="69.33245" lon="18.88654">
        <ele>26.137554</ele>
        <time>2020-08-27T14:09:27.314Z</time>
      </trkpt>
      <trkpt lat="69.3325" lon="18.88654">
        <ele>26.143596</ele>
        <time>2020-08-27T14:09:28.414Z</time>
      </trkpt>
      <trkpt lat="69.33252" lon="18.88654">
        <ele>26.145713</ele>
        <time>2020-08-27T14:09:28.780Z</time>
      </trkpt>
      <trkpt lat="69.33253" lon="18.88656">
        <ele>26.147675</ele>
        <time>2020-08-27T14:09:29.087Z</time>
      </trkpt>
      <trkpt lat="69.33256" lon="18.88672">
        <ele>26.155755</ele>
        <time>2020-08-27T14:09:29.916Z</time>
      </trkpt>
      <trkpt lat="69.33259" lon="18.88737">
        <ele>26.186106</ele>
        <time>2020-08-27T14:09:33.368Z</time>
      </trkpt>
      <trkpt lat="69.33258" lon="18.88772">
        <ele>26.202602</ele>
        <time>2020-08-27T14:09:35.282Z</time>
      </trkpt>
      <trkpt lat="69.33256" lon="18.88794">
        <ele>26.213135</ele>
        <time>2020-08-27T14:09:36.301Z</time>
      </trkpt>
      <trkpt lat="69.33252" lon="18.8884">
        <ele>26.235384</ele>
        <time>2020-08-27T14:09:38.738Z</time>
      </trkpt>
      <trkpt lat="69.33224" lon="18.89057">
        <ele>23.50763</ele>
        <time>2020-08-27T14:09:49.190Z</time>
      </trkpt>
      <trkpt lat="69.33175" lon="18.89445">
        <ele>17.685482</ele>
        <time>2020-08-27T14:10:07.246Z</time>
      </trkpt>
      <trkpt lat="69.3313" lon="18.89803">
        <ele>11.856183</ele>
        <time>2020-08-27T14:10:23.863Z</time>
      </trkpt>
      <trkpt lat="69.33114" lon="18.89921">
        <ele>10.759738</ele>
        <time>2020-08-27T14:10:29.482Z</time>
      </trkpt>
      <trkpt lat="69.33096" lon="18.90071">
        <ele>9.664419</ele>
        <time>2020-08-27T14:10:36.912Z</time>
      </trkpt>
      <trkpt lat="69.3309" lon="18.90201">
        <ele>8.762467</ele>
        <time>2020-08-27T14:10:43.567Z</time>
      </trkpt>
      <trkpt lat="69.33116" lon="18.90593">
        <ele>8.841916</ele>
        <time>2020-08-27T14:11:11.645Z</time>
      </trkpt>
      <trkpt lat="69.33118" lon="18.90597">
        <ele>8.860113</ele>
        <time>2020-08-27T14:11:12.631Z</time>
      </trkpt>
      <trkpt lat="69.33121" lon="18.90613">
        <ele>8.919339</ele>
        <time>2020-08-27T14:11:14.543Z</time>
      </trkpt>
      <trkpt lat="69.33124" lon="18.90649">
        <ele>9.042111</ele>
        <time>2020-08-27T14:11:17.072Z</time>
      </trkpt>
      <trkpt lat="69.33121" lon="18.90763">
        <ele>9.42502</ele>
        <time>2020-08-27T14:11:26.322Z</time>
      </trkpt>
      <trkpt lat="69.33088" lon="18.90841">
        <ele>9.597475</ele>
        <time>2020-08-27T14:11:35.820Z</time>
      </trkpt>
      <trkpt lat="69.33023" lon="18.91119">
        <ele>9.511986</ele>
        <time>2020-08-27T14:11:57.648Z</time>
      </trkpt>
      <trkpt lat="69.33014" lon="18.91177">
        <ele>9.495637</ele>
        <time>2020-08-27T14:12:00.997Z</time>
      </trkpt>
      <trkpt lat="69.33012" lon="18.91187">
        <ele>9.492891</ele>
        <time>2020-08-27T14:12:01.538Z</time>
      </trkpt>
      <trkpt lat="69.33003" lon="18.91227">
        <ele>9.406012</ele>
        <time>2020-08-27T14:12:03.972Z</time>
      </trkpt>
      <trkpt lat="69.32986" lon="18.91294">
        <ele>8.82124</ele>
        <time>2020-08-27T14:12:08.260Z</time>
      </trkpt>
      <trkpt lat="69.32983" lon="18.91304">
        <ele>8.718319</ele>
        <time>2020-08-27T14:12:08.884Z</time>
      </trkpt>
      <trkpt lat="69.32895" lon="18.91613">
        <ele>5.85531</ele>
        <time>2020-08-27T14:12:28.267Z</time>
      </trkpt>
      <trkpt lat="69.32878" lon="18.91695">
        <ele>5.26866</ele>
        <time>2020-08-27T14:12:32.913Z</time>
      </trkpt>
      <trkpt lat="69.32854" lon="18.9187">
        <ele>4.131797</ele>
        <time>2020-08-27T14:12:42.366Z</time>
      </trkpt>
      <trkpt lat="69.32818" lon="18.91978">
        <ele>3.235801</ele>
        <time>2020-08-27T14:12:50.067Z</time>
      </trkpt>
      <trkpt lat="69.32816" lon="18.9198">
        <ele>3.196763</ele>
        <time>2020-08-27T14:12:50.396Z</time>
      </trkpt>
      <trkpt lat="69.32814" lon="18.91975">
        <ele>3.151269</ele>
        <time>2020-08-27T14:12:50.782Z</time>
      </trkpt>
      <trkpt lat="69.32812" lon="18.91965">
        <ele>3.078437</ele>
        <time>2020-08-27T14:12:51.432Z</time>
      </trkpt>
      <trkpt lat="69.32779" lon="18.92025">
        <ele>2.646577</ele>
        <time>2020-08-27T14:12:57.336Z</time>
      </trkpt>
      <trkpt lat="69.32757" lon="18.9208">
        <ele>2.523212</ele>
        <time>2020-08-27T14:13:02.027Z</time>
      </trkpt>
      <trkpt lat="69.32745" lon="18.92139">
        <ele>2.424851</ele>
        <time>2020-08-27T14:13:05.893Z</time>
      </trkpt>
      <trkpt lat="69.3274" lon="18.92207">
        <ele>2.323305</ele>
        <time>2020-08-27T14:13:09.864Z</time>
      </trkpt>
      <trkpt lat="69.32742" lon="18.92279">
        <ele>2.217251</ele>
        <time>2020-08-27T14:13:14.103Z</time>
      </trkpt>
      <trkpt lat="69.32744" lon="18.92316">
        <ele>2.162651</ele>
        <time>2020-08-27T14:13:16.358Z</time>
      </trkpt>
      <trkpt lat="69.3275" lon="18.92413">
        <ele>2.017374</ele>
        <time>2020-08-27T14:13:22.930Z</time>
      </trkpt>
      <trkpt lat="69.32759" lon="18.9252">
        <ele>2.283689</ele>
        <time>2020-08-27T14:13:30.499Z</time>
      </trkpt>
      <trkpt lat="69.32794" lon="18.92712">
        <ele>3.11655</ele>
        <time>2020-08-27T14:13:46.347Z</time>
      </trkpt>
      <trkpt lat="69.32797" lon="18.92734">
        <ele>3.20825</ele>
        <time>2020-08-27T14:13:48.265Z</time>
      </trkpt>
      <trkpt lat="69.32802" lon="18.92769">
        <ele>3.355348</ele>
        <time>2020-08-27T14:13:51.456Z</time>
      </trkpt>
      <trkpt lat="69.32811" lon="18.92951">
        <ele>4.064321</ele>
        <time>2020-08-27T14:14:06.295Z</time>
      </trkpt>
      <trkpt lat="69.32812" lon="18.93079">
        <ele>4.555156</ele>
        <time>2020-08-27T14:14:16.767Z</time>
      </trkpt>
      <trkpt lat="69.32812" lon="18.9321">
        <ele>5.056626</ele>
        <time>2020-08-27T14:14:27.244Z</time>
      </trkpt>
      <trkpt lat="69.32807" lon="18.93329">
        <ele>5.512135</ele>
        <time>2020-08-27T14:14:35.545Z</time>
      </trkpt>
      <trkpt lat="69.32795" lon="18.93401">
        <ele>5.819945</ele>
        <time>2020-08-27T14:14:41.142Z</time>
      </trkpt>
      <trkpt lat="69.3277" lon="18.93472">
        <ele>5.918091</ele>
        <time>2020-08-27T14:14:47.878Z</time>
      </trkpt>
      <trkpt lat="69.32742" lon="18.93506">
        <ele>5.944506</ele>
        <time>2020-08-27T14:14:53.207Z</time>
      </trkpt>
      <trkpt lat="69.32725" lon="18.93521">
        <ele>5.960054</ele>
        <time>2020-08-27T14:14:56.227Z</time>
      </trkpt>
      <trkpt lat="69.32711" lon="18.93535">
        <ele>5.9735</ele>
        <time>2020-08-27T14:14:58.810Z</time>
      </trkpt>
      <trkpt lat="69.3268" lon="18.93571">
        <ele>6.002886</ele>
        <time>2020-08-27T14:15:04.557Z</time>
      </trkpt>
      <trkpt lat="69.32628" lon="18.93663">
        <ele>6.133101</ele>
        <time>2020-08-27T14:15:15.699Z</time>
      </trkpt>
      <trkpt lat="69.32623" lon="18.93672">
        <ele>6.200997</ele>
        <time>2020-08-27T14:15:16.663Z</time>
      </trkpt>
      <trkpt lat="69.32592" lon="18.93739">
        <ele>6.673431</ele>
        <time>2020-08-27T14:15:24.177Z</time>
      </trkpt>
      <trkpt lat="69.32552" lon="18.93855">
        <ele>7.366288</ele>
        <time>2020-08-27T14:15:36.881Z</time>
      </trkpt>
      <trkpt lat="69.32434" lon="18.94365">
        <ele>10.667405</ele>
        <time>2020-08-27T14:16:28.140Z</time>
      </trkpt>
      <trkpt lat="69.32375" lon="18.94592">
        <ele>11.662297</ele>
        <time>2020-08-27T14:16:50.024Z</time>
      </trkpt>
      <trkpt lat="69.32359" lon="18.94654">
        <ele>11.825011</ele>
        <time>2020-08-27T14:16:55.525Z</time>
      </trkpt>
      <trkpt lat="69.32313" lon="18.94895">
        <ele>12.320673</ele>
        <time>2020-08-27T14:17:13.333Z</time>
      </trkpt>
      <trkpt lat="69.32176" lon="18.95375">
        <ele>10.836281</ele>
        <time>2020-08-27T14:17:48.690Z</time>
      </trkpt>
      <trkpt lat="69.32133" lon="18.95569">
        <ele>9.776305</ele>
        <time>2020-08-27T14:18:00.855Z</time>
      </trkpt>
      <trkpt lat="69.32113" lon="18.95637">
        <ele>9.359352</ele>
        <time>2020-08-27T14:18:05.315Z</time>
      </trkpt>
      <trkpt lat="69.32109" lon="18.95647">
        <ele>9.287246</ele>
        <time>2020-08-27T14:18:06.166Z</time>
      </trkpt>
      <trkpt lat="69.32101" lon="18.95663">
        <ele>9.164901</ele>
        <time>2020-08-27T14:18:07.403Z</time>
      </trkpt>
      <trkpt lat="69.32066" lon="18.95709">
        <ele>8.646848</ele>
        <time>2020-08-27T14:18:12.830Z</time>
      </trkpt>
      <trkpt lat="69.32038" lon="18.95712">
        <ele>8.262738</ele>
        <time>2020-08-27T14:18:16.974Z</time>
      </trkpt>
      <trkpt lat="69.32025" lon="18.95706">
        <ele>8.086338</ele>
        <time>2020-08-27T14:18:18.724Z</time>
      </trkpt>
      <trkpt lat="69.32018" lon="18.95699">
        <ele>7.978557</ele>
        <time>2020-08-27T14:18:19.869Z</time>
      </trkpt>
      <trkpt lat="69.32005" lon="18.95683">
        <ele>7.78501</ele>
        <time>2020-08-27T14:18:22.094Z</time>
      </trkpt>
      <trkpt lat="69.31994" lon="18.95664">
        <ele>7.613687</ele>
        <time>2020-08-27T14:18:23.863Z</time>
      </trkpt>
      <trkpt lat="69.31968" lon="18.9562">
        <ele>7.209724</ele>
        <time>2020-08-27T14:18:28.427Z</time>
      </trkpt>
      <trkpt lat="69.31927" lon="18.95574">
        <ele>6.645757</ele>
        <time>2020-08-27T14:18:35.752Z</time>
      </trkpt>
      <trkpt lat="69.31889" lon="18.95573">
        <ele>6.781857</ele>
        <time>2020-08-27T14:18:42.092Z</time>
      </trkpt>
      <trkpt lat="69.3187" lon="18.9558">
        <ele>6.849299</ele>
        <time>2020-08-27T14:18:45.537Z</time>
      </trkpt>
      <trkpt lat="69.31843" lon="18.95594">
        <ele>6.948027</ele>
        <time>2020-08-27T14:18:50.769Z</time>
      </trkpt>
      <trkpt lat="69.31789" lon="18.95626">
        <ele>7.1499</ele>
        <time>2020-08-27T14:19:02.325Z</time>
      </trkpt>
      <trkpt lat="69.31752" lon="18.95647">
        <ele>7.285384</ele>
        <time>2020-08-27T14:19:10.107Z</time>
      </trkpt>
      <trkpt lat="69.3172" lon="18.95663">
        <ele>7.331454</ele>
        <time>2020-08-27T14:19:16.765Z</time>
      </trkpt>
      <trkpt lat="69.31693" lon="18.95673">
        <ele>7.369753</ele>
        <time>2020-08-27T14:19:22.144Z</time>
      </trkpt>
      <trkpt lat="69.31655" lon="18.95681">
        <ele>7.423931</ele>
        <time>2020-08-27T14:19:29.215Z</time>
      </trkpt>
      <trkpt lat="69.31645" lon="18.95678">
        <ele>7.437846</ele>
        <time>2020-08-27T14:19:30.954Z</time>
      </trkpt>
      <trkpt lat="69.31638" lon="18.95675">
        <ele>7.448587</ele>
        <time>2020-08-27T14:19:32.247Z</time>
      </trkpt>
      <trkpt lat="69.31627" lon="18.95669">
        <ele>7.463616</ele>
        <time>2020-08-27T14:19:34.054Z</time>
      </trkpt>
      <trkpt lat="69.31618" lon="18.9566">
        <ele>7.477879</ele>
        <time>2020-08-27T14:19:35.771Z</time>
      </trkpt>
      <trkpt lat="69.31608" lon="18.95651">
        <ele>7.491905</ele>
        <time>2020-08-27T14:19:37.424Z</time>
      </trkpt>
      <trkpt lat="69.31481" lon="18.95507">
        <ele>7.321795</ele>
        <time>2020-08-27T14:20:00.057Z</time>
      </trkpt>
      <trkpt lat="69.31444" lon="18.95495">
        <ele>7.242053</ele>
        <time>2020-08-27T14:20:06.559Z</time>
      </trkpt>
      <trkpt lat="69.31421" lon="18.95506">
        <ele>7.192542</ele>
        <time>2020-08-27T14:20:10.890Z</time>
      </trkpt>
      <trkpt lat="69.31412" lon="18.95515">
        <ele>7.171067</ele>
        <time>2020-08-27T14:20:12.539Z</time>
      </trkpt>
      <trkpt lat="69.314" lon="18.9553">
        <ele>7.196761</ele>
        <time>2020-08-27T14:20:14.953Z</time>
      </trkpt>
      <trkpt lat="69.31363" lon="18.9562">
        <ele>7.535806</ele>
        <time>2020-08-27T14:20:24.335Z</time>
      </trkpt>
      <trkpt lat="69.31349" lon="18.95693">
        <ele>7.737483</ele>
        <time>2020-08-27T14:20:30.062Z</time>
      </trkpt>
      <trkpt lat="69.31318" lon="18.95925">
        <ele>8.340807</ele>
        <time>2020-08-27T14:20:48.192Z</time>
      </trkpt>
      <trkpt lat="69.31264" lon="18.96095">
        <ele>9.569447</ele>
        <time>2020-08-27T14:21:06.198Z</time>
      </trkpt>
      <trkpt lat="69.31244" lon="18.96178">
        <ele>10.150238</ele>
        <time>2020-08-27T14:21:14.425Z</time>
      </trkpt>
      <trkpt lat="69.3124" lon="18.96201">
        <ele>10.296879</ele>
        <time>2020-08-27T14:21:16.472Z</time>
      </trkpt>
      <trkpt lat="69.31222" lon="18.96294">
        <ele>10.898028</ele>
        <time>2020-08-27T14:21:25.202Z</time>
      </trkpt>
      <trkpt lat="69.3122" lon="18.96303">
        <ele>10.957839</ele>
        <time>2020-08-27T14:21:26.390Z</time>
      </trkpt>
      <trkpt lat="69.31185" lon="18.96505">
        <ele>13.298618</ele>
        <time>2020-08-27T14:21:45.632Z</time>
      </trkpt>
      <trkpt lat="69.31117" lon="18.96894">
        <ele>18.793616</ele>
        <time>2020-08-27T14:22:32.900Z</time>
      </trkpt>
      <trkpt lat="69.31083" lon="18.9709">
        <ele>22.052376</ele>
        <time>2020-08-27T14:23:00.476Z</time>
      </trkpt>
      <trkpt lat="69.31048" lon="18.97275">
        <ele>24.971698</ele>
        <time>2020-08-27T14:23:22.693Z</time>
      </trkpt>
      <trkpt lat="69.31029" lon="18.97322">
        <ele>24.436378</ele>
        <time>2020-08-27T14:23:29.336Z</time>
      </trkpt>
      <trkpt lat="69.31009" lon="18.97346">
        <ele>23.973613</ele>
        <time>2020-08-27T14:23:33.120Z</time>
      </trkpt>
      <trkpt lat="69.31001" lon="18.97349">
        <ele>23.789261</ele>
        <time>2020-08-27T14:23:36.249Z</time>
      </trkpt>
      <trkpt lat="69.30993" lon="18.97351">
        <ele>23.610437</ele>
        <time>2020-08-27T14:23:37.225Z</time>
      </trkpt>
      <trkpt lat="69.30937" lon="18.97341">
        <ele>22.420447</ele>
        <time>2020-08-27T14:23:44.626Z</time>
      </trkpt>
      <trkpt lat="69.30907" lon="18.9735">
        <ele>21.774803</ele>
        <time>2020-08-27T14:23:48.205Z</time>
      </trkpt>
      <trkpt lat="69.30878" lon="18.97384">
        <ele>20.956607</ele>
        <time>2020-08-27T14:23:51.960Z</time>
      </trkpt>
      <trkpt lat="69.30822" lon="18.97482">
        <ele>17.400312</ele>
        <time>2020-08-27T14:23:59.555Z</time>
      </trkpt>
      <trkpt lat="69.30796" lon="18.97528">
        <ele>15.710014</ele>
        <time>2020-08-27T14:24:03.166Z</time>
      </trkpt>
      <trkpt lat="69.3079" lon="18.97538">
        <ele>15.331075</ele>
        <time>2020-08-27T14:24:04.021Z</time>
      </trkpt>
      <trkpt lat="69.30775" lon="18.97567">
        <ele>14.377165</ele>
        <time>2020-08-27T14:24:06.117Z</time>
      </trkpt>
      <trkpt lat="69.30738" lon="18.97648">
        <ele>11.817205</ele>
        <time>2020-08-27T14:24:11.858Z</time>
      </trkpt>
      <trkpt lat="69.30734" lon="18.97657">
        <ele>11.547596</ele>
        <time>2020-08-27T14:24:12.553Z</time>
      </trkpt>
      <trkpt lat="69.30708" lon="18.97721">
        <ele>11.038972</ele>
        <time>2020-08-27T14:24:16.907Z</time>
      </trkpt>
      <trkpt lat="69.30544" lon="18.98145">
        <ele>9.625768</ele>
        <time>2020-08-27T14:24:54.492Z</time>
      </trkpt>
      <trkpt lat="69.30479" lon="18.98411">
        <ele>10.184032</ele>
        <time>2020-08-27T14:25:19.122Z</time>
      </trkpt>
      <trkpt lat="69.30455" lon="18.98459">
        <ele>10.24738</ele>
        <time>2020-08-27T14:25:25.415Z</time>
      </trkpt>
      <trkpt lat="69.30423" lon="18.98479">
        <ele>10.315744</ele>
        <time>2020-08-27T14:25:32.066Z</time>
      </trkpt>
      <trkpt lat="69.30398" lon="18.98472">
        <ele>10.368884</ele>
        <time>2020-08-27T14:25:36.914Z</time>
      </trkpt>
      <trkpt lat="69.30378" lon="18.98451">
        <ele>10.414173</ele>
        <time>2020-08-27T14:25:40.802Z</time>
      </trkpt>
      <trkpt lat="69.30359" lon="18.98411">
        <ele>10.463891</ele>
        <time>2020-08-27T14:25:44.884Z</time>
      </trkpt>
      <trkpt lat="69.30344" lon="18.98356">
        <ele>10.515741</ele>
        <time>2020-08-27T14:25:48.902Z</time>
      </trkpt>
      <trkpt lat="69.3033" lon="18.98263">
        <ele>10.314528</ele>
        <time>2020-08-27T14:25:54.494Z</time>
      </trkpt>
      <trkpt lat="69.30306" lon="18.97938">
        <ele>9.024636</ele>
        <time>2020-08-27T14:26:12.073Z</time>
      </trkpt>
      <trkpt lat="69.30288" lon="18.9785">
        <ele>8.628178</ele>
        <time>2020-08-27T14:26:17.702Z</time>
      </trkpt>
      <trkpt lat="69.30247" lon="18.97762">
        <ele>8.093349</ele>
        <time>2020-08-27T14:26:25.650Z</time>
      </trkpt>
      <trkpt lat="69.30202" lon="18.97732">
        <ele>7.603051</ele>
        <time>2020-08-27T14:26:33.101Z</time>
      </trkpt>
      <trkpt lat="69.3019" lon="18.9773">
        <ele>7.483268</ele>
        <time>2020-08-27T14:26:35.262Z</time>
      </trkpt>
      <trkpt lat="69.30179" lon="18.97728">
        <ele>7.361345</ele>
        <time>2020-08-27T14:26:37.091Z</time>
      </trkpt>
      <trkpt lat="69.30147" lon="18.977">
        <ele>7.009546</ele>
        <time>2020-08-27T14:26:41.993Z</time>
      </trkpt>
      <trkpt lat="69.30129" lon="18.97663">
        <ele>6.773602</ele>
        <time>2020-08-27T14:26:45.262Z</time>
      </trkpt>
      <trkpt lat="69.30118" lon="18.97621">
        <ele>6.502873</ele>
        <time>2020-08-27T14:26:47.994Z</time>
      </trkpt>
      <trkpt lat="69.30111" lon="18.97519">
        <ele>5.81701</ele>
        <time>2020-08-27T14:26:53.414Z</time>
      </trkpt>
      <trkpt lat="69.30118" lon="18.97428">
        <ele>5.207813</ele>
        <time>2020-08-27T14:26:58.210Z</time>
      </trkpt>
      <trkpt lat="69.30123" lon="18.97389">
        <ele>4.93149</ele>
        <time>2020-08-27T14:27:00.247Z</time>
      </trkpt>
      <trkpt lat="69.30127" lon="18.97362">
        <ele>4.739032</ele>
        <time>2020-08-27T14:27:01.631Z</time>
      </trkpt>
      <trkpt lat="69.30134" lon="18.9729">
        <ele>4.25268</ele>
        <time>2020-08-27T14:27:05.355Z</time>
      </trkpt>
      <trkpt lat="69.30129" lon="18.97228">
        <ele>3.836341</ele>
        <time>2020-08-27T14:27:08.525Z</time>
      </trkpt>
      <trkpt lat="69.30114" lon="18.97177">
        <ele>3.402549</ele>
        <time>2020-08-27T14:27:11.720Z</time>
      </trkpt>
      <trkpt lat="69.30098" lon="18.97156">
        <ele>3.217453</ele>
        <time>2020-08-27T14:27:14.312Z</time>
      </trkpt>
      <trkpt lat="69.30079" lon="18.97154">
        <ele>3.040692</ele>
        <time>2020-08-27T14:27:16.975Z</time>
      </trkpt>
      <trkpt lat="69.30059" lon="18.9717">
        <ele>2.852628</ele>
        <time>2020-08-27T14:27:20.034Z</time>
      </trkpt>
      <trkpt lat="69.29988" lon="18.97271">
        <ele>2.116582</ele>
        <time>2020-08-27T14:27:32.887Z</time>
      </trkpt>
      <trkpt lat="69.29976" lon="18.9729">
        <ele>1.994426</ele>
        <time>2020-08-27T14:27:35.184Z</time>
      </trkpt>
      <trkpt lat="69.29963" lon="18.97311">
        <ele>1.859924</ele>
        <time>2020-08-27T14:27:37.760Z</time>
      </trkpt>
      <trkpt lat="69.29914" lon="18.9743">
        <ele>1.598435</ele>
        <time>2020-08-27T14:27:49.036Z</time>
      </trkpt>
      <trkpt lat="69.29903" lon="18.97455">
        <ele>1.568037</ele>
        <time>2020-08-27T14:27:51.551Z</time>
      </trkpt>
      <trkpt lat="69.29895" lon="18.9747">
        <ele>1.549339</ele>
        <time>2020-08-27T14:27:53.155Z</time>
      </trkpt>
      <trkpt lat="69.2983" lon="18.97552">
        <ele>1.39955</ele>
        <time>2020-08-27T14:28:05.624Z</time>
      </trkpt>
      <trkpt lat="69.29823" lon="18.97557">
        <ele>1.384043</ele>
        <time>2020-08-27T14:28:06.890Z</time>
      </trkpt>
      <trkpt lat="69.29811" lon="18.97566">
        <ele>1.358847</ele>
        <time>2020-08-27T14:28:08.826Z</time>
      </trkpt>
      <trkpt lat="69.29733" lon="18.9763">
        <ele>1.087786</ele>
        <time>2020-08-27T14:28:22.496Z</time>
      </trkpt>
      <trkpt lat="69.2971" lon="18.97674">
        <ele>0.984195</ele>
        <time>2020-08-27T14:28:27.100Z</time>
      </trkpt>
      <trkpt lat="69.29688" lon="18.97738">
        <ele>0.868371</ele>
        <time>2020-08-27T14:28:32.301Z</time>
      </trkpt>
      <trkpt lat="69.29646" lon="18.97916">
        <ele>0.669037</ele>
        <time>2020-08-27T14:28:45.308Z</time>
      </trkpt>
      <trkpt lat="69.29608" lon="18.98143">
        <ele>0.720483</ele>
        <time>2020-08-27T14:29:01.256Z</time>
      </trkpt>
      <trkpt lat="69.29558" lon="18.98331">
        <ele>0.767397</ele>
        <time>2020-08-27T14:29:16.756Z</time>
      </trkpt>
      <trkpt lat="69.29512" lon="18.98659">
        <ele>0.822992</ele>
        <time>2020-08-27T14:29:39.544Z</time>
      </trkpt>
      <trkpt lat="69.29491" lon="18.9873">
        <ele>0.837518</ele>
        <time>2020-08-27T14:29:45.197Z</time>
      </trkpt>
      <trkpt lat="69.29464" lon="18.98781">
        <ele>0.782796</ele>
        <time>2020-08-27T14:29:50.787Z</time>
      </trkpt>
      <trkpt lat="69.29457" lon="18.98795">
        <ele>0.757769</ele>
        <time>2020-08-27T14:29:52.220Z</time>
      </trkpt>
      <trkpt lat="69.29448" lon="18.98815">
        <ele>0.724697</ele>
        <time>2020-08-27T14:29:54.102Z</time>
      </trkpt>
      <trkpt lat="69.29429" lon="18.98872">
        <ele>0.64478</ele>
        <time>2020-08-27T14:29:58.799Z</time>
      </trkpt>
      <trkpt lat="69.29413" lon="18.98951">
        <ele>0.550496</ele>
        <time>2020-08-27T14:30:04.292Z</time>
      </trkpt>
      <trkpt lat="69.29411" lon="18.98973">
        <ele>0.527293</ele>
        <time>2020-08-27T14:30:05.584Z</time>
      </trkpt>
      <trkpt lat="69.29407" lon="18.99013">
        <ele>0.483947</ele>
        <time>2020-08-27T14:30:08.136Z</time>
      </trkpt>
      <trkpt lat="69.29394" lon="18.99237">
        <ele>0.299221</ele>
        <time>2020-08-27T14:30:21.608Z</time>
      </trkpt>
      <trkpt lat="69.29371" lon="18.99513">
        <ele>0.214206</ele>
        <time>2020-08-27T14:30:39.133Z</time>
      </trkpt>
      <trkpt lat="69.29372" lon="18.9982">
        <ele>0.469221</ele>
        <time>2020-08-27T14:30:59.005Z</time>
      </trkpt>
      <trkpt lat="69.29364" lon="18.99906">
        <ele>0.648977</ele>
        <time>2020-08-27T14:31:04.987Z</time>
      </trkpt>
      <trkpt lat="69.29351" lon="18.9998">
        <ele>0.8173</ele>
        <time>2020-08-27T14:31:10.734Z</time>
      </trkpt>
      <trkpt lat="69.29277" lon="19.00245">
        <ele>2.069897</ele>
        <time>2020-08-27T14:31:35.908Z</time>
      </trkpt>
      <trkpt lat="69.29248" lon="19.00411">
        <ele>3.150308</ele>
        <time>2020-08-27T14:31:50.992Z</time>
      </trkpt>
      <trkpt lat="69.29227" lon="19.0049">
        <ele>3.72287</ele>
        <time>2020-08-27T14:31:59.323Z</time>
      </trkpt>
      <trkpt lat="69.29125" lon="19.00702">
        <ele>6.975627</ele>
        <time>2020-08-27T14:32:32.194Z</time>
      </trkpt>
      <trkpt lat="69.29029" lon="19.00833">
        <ele>9.82374</ele>
        <time>2020-08-27T14:33:02.492Z</time>
      </trkpt>
      <trkpt lat="69.28936" lon="19.01075">
        <ele>12.776852</ele>
        <time>2020-08-27T14:33:35.553Z</time>
      </trkpt>
      <trkpt lat="69.28931" lon="19.01089">
        <ele>12.940711</ele>
        <time>2020-08-27T14:33:37.863Z</time>
      </trkpt>
      <trkpt lat="69.28925" lon="19.01081">
        <ele>13.080852</ele>
        <time>2020-08-27T14:33:38.885Z</time>
      </trkpt>
      <trkpt lat="69.28911" lon="19.01086">
        <ele>13.39706</ele>
        <time>2020-08-27T14:33:41.951Z</time>
      </trkpt>
      <trkpt lat="69.28879" lon="19.01154">
        <ele>13.005596</ele>
        <time>2020-08-27T14:33:49.255Z</time>
      </trkpt>
      <trkpt lat="69.28875" lon="19.01158">
        <ele>12.962995</ele>
        <time>2020-08-27T14:33:49.926Z</time>
      </trkpt>
      <trkpt lat="69.2887" lon="19.01161">
        <ele>12.914896</ele>
        <time>2020-08-27T14:33:51.277Z</time>
      </trkpt>
      <trkpt lat="69.28835" lon="19.01159">
        <ele>12.570916</ele>
        <time>2020-08-27T14:33:56.832Z</time>
      </trkpt>
      <trkpt lat="69.28773" lon="19.01207">
        <ele>11.946615</ele>
        <time>2020-08-27T14:34:06.027Z</time>
      </trkpt>
      <trkpt lat="69.28752" lon="19.01199">
        <ele>11.736519</ele>
        <time>2020-08-27T14:34:09.037Z</time>
      </trkpt>
      <trkpt lat="69.28749" lon="19.01193">
        <ele>11.698079</ele>
        <time>2020-08-27T14:34:09.537Z</time>
      </trkpt>
      <trkpt lat="69.28747" lon="19.0119">
        <ele>11.676296</ele>
        <time>2020-08-27T14:34:09.774Z</time>
      </trkpt>
      <trkpt lat="69.28737" lon="19.01158">
        <ele>11.428678</ele>
        <time>2020-08-27T14:34:11.771Z</time>
      </trkpt>
      <trkpt lat="69.2873" lon="19.01103">
        <ele>11.047139</ele>
        <time>2020-08-27T14:34:14.489Z</time>
      </trkpt>
      <trkpt lat="69.28729" lon="19.00812">
        <ele>9.146188</ele>
        <time>2020-08-27T14:34:29.040Z</time>
      </trkpt>
      <trkpt lat="69.28727" lon="19.00734">
        <ele>8.640128</ele>
        <time>2020-08-27T14:34:32.845Z</time>
      </trkpt>
      <trkpt lat="69.28725" lon="19.00612">
        <ele>8.732926</ele>
        <time>2020-08-27T14:34:40.241Z</time>
      </trkpt>
      <trkpt lat="69.28724" lon="19.00579">
        <ele>8.920138</ele>
        <time>2020-08-27T14:34:42.408Z</time>
      </trkpt>
      <trkpt lat="69.28724" lon="19.00567">
        <ele>8.984742</ele>
        <time>2020-08-27T14:34:43.172Z</time>
      </trkpt>
      <trkpt lat="69.28725" lon="19.0055">
        <ele>9.075311</ele>
        <time>2020-08-27T14:34:44.145Z</time>
      </trkpt>
      <trkpt lat="69.28726" lon="19.00519">
        <ele>9.248991</ele>
        <time>2020-08-27T14:34:46.679Z</time>
      </trkpt>
      <trkpt lat="69.28727" lon="19.00497">
        <ele>9.374634</ele>
        <time>2020-08-27T14:34:48.512Z</time>
      </trkpt>
      <trkpt lat="69.28731" lon="19.00446">
        <ele>9.664668</ele>
        <time>2020-08-27T14:34:52.151Z</time>
      </trkpt>
      <trkpt lat="69.28736" lon="19.00396">
        <ele>9.95077</ele>
        <time>2020-08-27T14:34:56.768Z</time>
      </trkpt>
      <trkpt lat="69.28747" lon="19.0031">
        <ele>10.453668</ele>
        <time>2020-08-27T14:35:04.985Z</time>
      </trkpt>
      <trkpt lat="69.28753" lon="19.00259">
        <ele>10.748471</ele>
        <time>2020-08-27T14:35:09.998Z</time>
      </trkpt>
      <trkpt lat="69.28758" lon="19.0021">
        <ele>11.030947</ele>
        <time>2020-08-27T14:35:15.726Z</time>
      </trkpt>
      <trkpt lat="69.28762" lon="19.00097">
        <ele>12.311049</ele>
        <time>2020-08-27T14:35:27.960Z</time>
      </trkpt>
      <trkpt lat="69.2876" lon="19.00023">
        <ele>13.227269</ele>
        <time>2020-08-27T14:35:35.945Z</time>
      </trkpt>
      <trkpt lat="69.28747" lon="18.99727">
        <ele>16.936001</ele>
        <time>2020-08-27T14:36:07.599Z</time>
      </trkpt>
      <trkpt lat="69.28746" lon="18.99695">
        <ele>17.338681</ele>
        <time>2020-08-27T14:36:10.643Z</time>
      </trkpt>
      <trkpt lat="69.28735" lon="18.99443">
        <ele>18.407683</ele>
        <time>2020-08-27T14:36:32.728Z</time>
      </trkpt>
      <trkpt lat="69.28722" lon="18.99322">
        <ele>18.906132</ele>
        <time>2020-08-27T14:36:41.956Z</time>
      </trkpt>
      <trkpt lat="69.28719" lon="18.99244">
        <ele>19.214512</ele>
        <time>2020-08-27T14:36:46.646Z</time>
      </trkpt>
      <trkpt lat="69.2872" lon="18.99182">
        <ele>19.42394</ele>
        <time>2020-08-27T14:36:50.304Z</time>
      </trkpt>
      <trkpt lat="69.28721" lon="18.99152">
        <ele>19.254531</ele>
        <time>2020-08-27T14:36:51.837Z</time>
      </trkpt>
      <trkpt lat="69.28706" lon="18.98946">
        <ele>18.07019</ele>
        <time>2020-08-27T14:37:02.803Z</time>
      </trkpt>
      <trkpt lat="69.28705" lon="18.98928">
        <ele>17.962617</ele>
        <time>2020-08-27T14:37:03.811Z</time>
      </trkpt>
      <trkpt lat="69.28701" lon="18.98872">
        <ele>17.639995</ele>
        <time>2020-08-27T14:37:06.665Z</time>
      </trkpt>
      <trkpt lat="69.28697" lon="18.98786">
        <ele>17.147867</ele>
        <time>2020-08-27T14:37:11.109Z</time>
      </trkpt>
      <trkpt lat="69.28697" lon="18.98775">
        <ele>17.089405</ele>
        <time>2020-08-27T14:37:11.562Z</time>
      </trkpt>
      <trkpt lat="69.28699" lon="18.9872">
        <ele>16.774222</ele>
        <time>2020-08-27T14:37:14.325Z</time>
      </trkpt>
      <trkpt lat="69.28699" lon="18.98608">
        <ele>16.090829</ele>
        <time>2020-08-27T14:37:19.808Z</time>
      </trkpt>
      <trkpt lat="69.28667" lon="18.98412">
        <ele>14.72189</ele>
        <time>2020-08-27T14:37:30.334Z</time>
      </trkpt>
      <trkpt lat="69.28659" lon="18.98317">
        <ele>14.097743</ele>
        <time>2020-08-27T14:37:35.158Z</time>
      </trkpt>
      <trkpt lat="69.28658" lon="18.97445">
        <ele>12.813308</ele>
        <time>2020-08-27T14:38:26.478Z</time>
      </trkpt>
      <trkpt lat="69.28648" lon="18.97362">
        <ele>12.940097</ele>
        <time>2020-08-27T14:38:33.130Z</time>
      </trkpt>
      <trkpt lat="69.2861" lon="18.97211">
        <ele>13.216233</ele>
        <time>2020-08-27T14:38:47.327Z</time>
      </trkpt>
      <trkpt lat="69.286" lon="18.97099">
        <ele>13.541409</ele>
        <time>2020-08-27T14:38:56.441Z</time>
      </trkpt>
      <trkpt lat="69.28609" lon="18.96991">
        <ele>13.852855</ele>
        <time>2020-08-27T14:39:05.012Z</time>
      </trkpt>
      <trkpt lat="69.2866" lon="18.96759">
        <ele>14.619158</ele>
        <time>2020-08-27T14:39:23.963Z</time>
      </trkpt>
      <trkpt lat="69.28673" lon="18.96595">
        <ele>14.537148</ele>
        <time>2020-08-27T14:39:34.344Z</time>
      </trkpt>
      <trkpt lat="69.2868" lon="18.96093">
        <ele>14.336799</ele>
        <time>2020-08-27T14:40:04.684Z</time>
      </trkpt>
      <trkpt lat="69.28645" lon="18.95825">
        <ele>14.27905</ele>
        <time>2020-08-27T14:40:22.762Z</time>
      </trkpt>
      <trkpt lat="69.28643" lon="18.95806">
        <ele>14.275086</ele>
        <time>2020-08-27T14:40:24.242Z</time>
      </trkpt>
      <trkpt lat="69.28641" lon="18.95786">
        <ele>14.270862</ele>
        <time>2020-08-27T14:40:25.585Z</time>
      </trkpt>
      <trkpt lat="69.28644" lon="18.95724">
        <ele>14.349778</ele>
        <time>2020-08-27T14:40:29.439Z</time>
      </trkpt>
      <trkpt lat="69.28653" lon="18.95662">
        <ele>14.475933</ele>
        <time>2020-08-27T14:40:33.755Z</time>
      </trkpt>
      <trkpt lat="69.28658" lon="18.95615">
        <ele>14.571954</ele>
        <time>2020-08-27T14:40:36.916Z</time>
      </trkpt>
      <trkpt lat="69.28702" lon="18.95326">
        <ele>15.171873</ele>
        <time>2020-08-27T14:40:59.140Z</time>
      </trkpt>
      <trkpt lat="69.2872" lon="18.95217">
        <ele>15.703007</ele>
        <time>2020-08-27T14:41:07.970Z</time>
      </trkpt>
      <trkpt lat="69.28739" lon="18.9509">
        <ele>16.460478</ele>
        <time>2020-08-27T14:41:19.071Z</time>
      </trkpt>
      <trkpt lat="69.28773" lon="18.94852">
        <ele>17.867487</ele>
        <time>2020-08-27T14:41:40.662Z</time>
      </trkpt>
      <trkpt lat="69.28803" lon="18.94748">
        <ele>18.081336</ele>
        <time>2020-08-27T14:41:52.382Z</time>
      </trkpt>
      <trkpt lat="69.28836" lon="18.94662">
        <ele>18.151294</ele>
        <time>2020-08-27T14:42:01.716Z</time>
      </trkpt>
      <trkpt lat="69.28848" lon="18.9463">
        <ele>18.177266</ele>
        <time>2020-08-27T14:42:04.975Z</time>
      </trkpt>
      <trkpt lat="69.28891" lon="18.94509">
        <ele>18.271756</ele>
        <time>2020-08-27T14:42:14.556Z</time>
      </trkpt>
      <trkpt lat="69.28918" lon="18.94451">
        <ele>18.052838</ele>
        <time>2020-08-27T14:42:19.508Z</time>
      </trkpt>
      <trkpt lat="69.28926" lon="18.94441">
        <ele>17.897795</ele>
        <time>2020-08-27T14:42:20.633Z</time>
      </trkpt>
      <trkpt lat="69.28933" lon="18.94435">
        <ele>17.761703</ele>
        <time>2020-08-27T14:42:21.485Z</time>
      </trkpt>
      <trkpt lat="69.28989" lon="18.94451">
        <ele>16.711685</ele>
        <time>2020-08-27T14:42:29.860Z</time>
      </trkpt>
      <trkpt lat="69.28995" lon="18.94457">
        <ele>16.587822</ele>
        <time>2020-08-27T14:42:30.748Z</time>
      </trkpt>
      <trkpt lat="69.29002" lon="18.94466">
        <ele>16.437955</ele>
        <time>2020-08-27T14:42:31.680Z</time>
      </trkpt>
      <trkpt lat="69.29044" lon="18.94558">
        <ele>15.450824</ele>
        <time>2020-08-27T14:42:39.406Z</time>
      </trkpt>
      <trkpt lat="69.29065" lon="18.9457">
        <ele>15.043466</ele>
        <time>2020-08-27T14:42:42.235Z</time>
      </trkpt>
      <trkpt lat="69.29203" lon="18.94435">
        <ele>13.643948</ele>
        <time>2020-08-27T14:43:05.144Z</time>
      </trkpt>
      <trkpt lat="69.29217" lon="18.94424">
        <ele>13.505954</ele>
        <time>2020-08-27T14:43:08.479Z</time>
      </trkpt>
      <trkpt lat="69.29236" lon="18.94413">
        <ele>13.327312</ele>
        <time>2020-08-27T14:43:11.299Z</time>
      </trkpt>
      <trkpt lat="69.2928" lon="18.94409">
        <ele>13.22657</ele>
        <time>2020-08-27T14:43:18.696Z</time>
      </trkpt>
      <trkpt lat="69.29298" lon="18.94429">
        <ele>13.198966</ele>
        <time>2020-08-27T14:43:21.927Z</time>
      </trkpt>
      <trkpt lat="69.29333" lon="18.94494">
        <ele>13.139048</ele>
        <time>2020-08-27T14:43:28.679Z</time>
      </trkpt>
      <trkpt lat="69.2936" lon="18.94502">
        <ele>13.100207</ele>
        <time>2020-08-27T14:43:33.831Z</time>
      </trkpt>
      <trkpt lat="69.29391" lon="18.94449">
        <ele>13.048915</ele>
        <time>2020-08-27T14:43:40.078Z</time>
      </trkpt>
      <trkpt lat="69.29433" lon="18.94279">
        <ele>13.684691</ele>
        <time>2020-08-27T14:43:54.960Z</time>
      </trkpt>
      <trkpt lat="69.29461" lon="18.94158">
        <ele>14.279318</ele>
        <time>2020-08-27T14:44:06.261Z</time>
      </trkpt>
      <trkpt lat="69.29494" lon="18.94005">
        <ele>15.016724</ele>
        <time>2020-08-27T14:44:20.444Z</time>
      </trkpt>
      <trkpt lat="69.29509" lon="18.93938">
        <ele>15.519552</ele>
        <time>2020-08-27T14:44:26.826Z</time>
      </trkpt>
      <trkpt lat="69.29515" lon="18.9391">
        <ele>15.761408</ele>
        <time>2020-08-27T14:44:29.602Z</time>
      </trkpt>
      <trkpt lat="69.29631" lon="18.93385">
        <ele>22.494308</ele>
        <time>2020-08-27T14:45:24.235Z</time>
      </trkpt>
      <trkpt lat="69.29634" lon="18.93366">
        <ele>22.863199</ele>
        <time>2020-08-27T14:45:27.139Z</time>
      </trkpt>
      <trkpt lat="69.29636" lon="18.93354">
        <ele>23.105329</ele>
        <time>2020-08-27T14:45:29.075Z</time>
      </trkpt>
      <trkpt lat="69.2964" lon="18.93282">
        <ele>24.42423</ele>
        <time>2020-08-27T14:45:38.231Z</time>
      </trkpt>
      <trkpt lat="69.29637" lon="18.93196">
        <ele>25.995206</ele>
        <time>2020-08-27T14:45:50.238Z</time>
      </trkpt>
      <trkpt lat="69.29634" lon="18.93119">
        <ele>27.403161</ele>
        <time>2020-08-27T14:46:01.801Z</time>
      </trkpt>
      <trkpt lat="69.29631" lon="18.93036">
        <ele>29.172318</ele>
        <time>2020-08-27T14:46:15.183Z</time>
      </trkpt>
      <trkpt lat="69.29619" lon="18.92662">
        <ele>38.20454</ele>
        <time>2020-08-27T14:47:12.705Z</time>
      </trkpt>
      <trkpt lat="69.29624" lon="18.92515">
        <ele>40.556171</ele>
        <time>2020-08-27T14:47:29.544Z</time>
      </trkpt>
      <trkpt lat="69.29792" lon="18.9155">
        <ele>41.369709</ele>
        <time>2020-08-27T14:48:36.464Z</time>
      </trkpt>
      <trkpt lat="69.29816" lon="18.91431">
        <ele>40.827848</ele>
        <time>2020-08-27T14:48:43.519Z</time>
      </trkpt>
      <trkpt lat="69.29837" lon="18.9134">
        <ele>40.396784</ele>
        <time>2020-08-27T14:48:49.159Z</time>
      </trkpt>
      <trkpt lat="69.29872" lon="18.91199">
        <ele>39.746874</ele>
        <time>2020-08-27T14:48:58.193Z</time>
      </trkpt>
      <trkpt lat="69.299" lon="18.91027">
        <ele>39.207547</ele>
        <time>2020-08-27T14:49:08.577Z</time>
      </trkpt>
      <trkpt lat="69.29933" lon="18.90647">
        <ele>38.156449</ele>
        <time>2020-08-27T14:49:31.223Z</time>
      </trkpt>
      <trkpt lat="69.29943" lon="18.90581">
        <ele>37.995645</ele>
        <time>2020-08-27T14:49:35.443Z</time>
      </trkpt>
      <trkpt lat="69.29959" lon="18.90521">
        <ele>37.82592</ele>
        <time>2020-08-27T14:49:39.756Z</time>
      </trkpt>
      <trkpt lat="69.29987" lon="18.90457">
        <ele>37.598329</ele>
        <time>2020-08-27T14:49:45.431Z</time>
      </trkpt>
      <trkpt lat="69.30026" lon="18.90395">
        <ele>37.31561</ele>
        <time>2020-08-27T14:49:52.553Z</time>
      </trkpt>
      <trkpt lat="69.30078" lon="18.90346">
        <ele>37.227058</ele>
        <time>2020-08-27T14:50:01.412Z</time>
      </trkpt>
      <trkpt lat="69.30102" lon="18.90276">
        <ele>37.222928</ele>
        <time>2020-08-27T14:50:07.255Z</time>
      </trkpt>
      <trkpt lat="69.30208" lon="18.89628">
        <ele>37.027005</ele>
        <time>2020-08-27T14:50:55.649Z</time>
      </trkpt>
      <trkpt lat="69.30294" lon="18.88971">
        <ele>33.051056</ele>
        <time>2020-08-27T14:51:30.875Z</time>
      </trkpt>
      <trkpt lat="69.30326" lon="18.88863">
        <ele>32.168819</ele>
        <time>2020-08-27T14:51:37.500Z</time>
      </trkpt>
      <trkpt lat="69.30414" lon="18.88701">
        <ele>30.839648</ele>
        <time>2020-08-27T14:51:52.648Z</time>
      </trkpt>
      <trkpt lat="69.30427" lon="18.88665">
        <ele>31.301085</ele>
        <time>2020-08-27T14:51:57.695Z</time>
      </trkpt>
      <trkpt lat="69.30437" lon="18.88615">
        <ele>31.815477</ele>
        <time>2020-08-27T14:52:01.203Z</time>
      </trkpt>
      <trkpt lat="69.30442" lon="18.88559">
        <ele>32.325525</ele>
        <time>2020-08-27T14:52:07.024Z</time>
      </trkpt>
      <trkpt lat="69.30439" lon="18.88427">
        <ele>33.506212</ele>
        <time>2020-08-27T14:52:18.997Z</time>
      </trkpt>
      <trkpt lat="69.30437" lon="18.88397">
        <ele>33.776626</ele>
        <time>2020-08-27T14:52:22.526Z</time>
      </trkpt>
      <trkpt lat="69.30436" lon="18.88373">
        <ele>33.99993</ele>
        <time>2020-08-27T14:52:26.051Z</time>
      </trkpt>
      <trkpt lat="69.30428" lon="18.88009">
        <ele>38.149705</ele>
        <time>2020-08-27T14:53:07.328Z</time>
      </trkpt>
      <trkpt lat="69.30426" lon="18.8708">
        <ele>46.70503</ele>
        <time>2020-08-27T14:54:35.290Z</time>
      </trkpt>
      <trkpt lat="69.3043" lon="18.86939">
        <ele>46.953201</ele>
        <time>2020-08-27T14:54:45.532Z</time>
      </trkpt>
      <trkpt lat="69.30446" lon="18.86825">
        <ele>47.168964</ele>
        <time>2020-08-27T14:54:53.351Z</time>
      </trkpt>
      <trkpt lat="69.30468" lon="18.86718">
        <ele>46.723784</ele>
        <time>2020-08-27T14:54:59.760Z</time>
      </trkpt>
      <trkpt lat="69.30473" lon="18.86692">
        <ele>46.187436</ele>
        <time>2020-08-27T14:55:00.991Z</time>
      </trkpt>
      <trkpt lat="69.30485" lon="18.86605">
        <ele>44.458448</ele>
        <time>2020-08-27T14:55:05.233Z</time>
      </trkpt>
      <trkpt lat="69.3049" lon="18.86479">
        <ele>42.12103</ele>
        <time>2020-08-27T14:55:10.679Z</time>
      </trkpt>
      <trkpt lat="69.30489" lon="18.86416">
        <ele>40.973224</ele>
        <time>2020-08-27T14:55:13.296Z</time>
      </trkpt>
      <trkpt lat="69.30484" lon="18.86214">
        <ele>36.974733</ele>
        <time>2020-08-27T14:55:21.440Z</time>
      </trkpt>
      <trkpt lat="69.30475" lon="18.85834">
        <ele>27.358644</ele>
        <time>2020-08-27T14:55:36.686Z</time>
      </trkpt>
      <trkpt lat="69.30479" lon="18.85746">
        <ele>25.114415</ele>
        <time>2020-08-27T14:55:40.406Z</time>
      </trkpt>
      <trkpt lat="69.3049" lon="18.85663">
        <ele>24.368446</ele>
        <time>2020-08-27T14:55:44.183Z</time>
      </trkpt>
      <trkpt lat="69.30505" lon="18.85605">
        <ele>23.767928</ele>
        <time>2020-08-27T14:55:47.289Z</time>
      </trkpt>
      <trkpt lat="69.30529" lon="18.85544">
        <ele>22.994931</ele>
        <time>2020-08-27T14:55:51.382Z</time>
      </trkpt>
      <trkpt lat="69.30718" lon="18.85152">
        <ele>23.266045</ele>
        <time>2020-08-27T14:56:35.227Z</time>
      </trkpt>
      <trkpt lat="69.30728" lon="18.85128">
        <ele>23.479469</ele>
        <time>2020-08-27T14:56:38.926Z</time>
      </trkpt>
      <trkpt lat="69.30741" lon="18.8509">
        <ele>23.806985</ele>
        <time>2020-08-27T14:56:46.619Z</time>
      </trkpt>
      <trkpt lat="69.30832" lon="18.8483">
        <ele>31.535912</ele>
        <time>2020-08-27T14:57:36.957Z</time>
      </trkpt>
      <trkpt lat="69.30841" lon="18.84806">
        <ele>32.291908</ele>
        <time>2020-08-27T14:57:43.062Z</time>
      </trkpt>
      <trkpt lat="69.30858" lon="18.8476">
        <ele>33.679855</ele>
        <time>2020-08-27T14:57:50.834Z</time>
      </trkpt>
      <trkpt lat="69.3088" lon="18.84694">
        <ele>35.481869</ele>
        <time>2020-08-27T14:58:02.790Z</time>
      </trkpt>
      <trkpt lat="69.30949" lon="18.84497">
        <ele>40.061705</ele>
        <time>2020-08-27T14:58:37.376Z</time>
      </trkpt>
      <trkpt lat="69.3099" lon="18.84381">
        <ele>42.760733</ele>
        <time>2020-08-27T14:58:54.020Z</time>
      </trkpt>
      <trkpt lat="69.31034" lon="18.84255">
        <ele>44.354021</ele>
        <time>2020-08-27T14:59:10.926Z</time>
      </trkpt>
      <trkpt lat="69.31072" lon="18.84146">
        <ele>45.499489</ele>
        <time>2020-08-27T14:59:24.859Z</time>
      </trkpt>
      <trkpt lat="69.31076" lon="18.84136">
        <ele>45.608226</ele>
        <time>2020-08-27T14:59:26.105Z</time>
      </trkpt>
      <trkpt lat="69.31117" lon="18.84019">
        <ele>46.827812</ele>
        <time>2020-08-27T14:59:39.729Z</time>
      </trkpt>
      <trkpt lat="69.31432" lon="18.83121">
        <ele>47.747913</ele>
        <time>2020-08-27T15:01:02.640Z</time>
      </trkpt>
      <trkpt lat="69.31511" lon="18.82891">
        <ele>47.099419</ele>
        <time>2020-08-27T15:01:20.289Z</time>
      </trkpt>
      <trkpt lat="69.31539" lon="18.82835">
        <ele>46.621656</ele>
        <time>2020-08-27T15:01:25.408Z</time>
      </trkpt>
      <trkpt lat="69.31845" lon="18.82517">
        <ele>41.860244</ele>
        <time>2020-08-27T15:02:13.326Z</time>
      </trkpt>
      <trkpt lat="69.31851" lon="18.8251">
        <ele>41.802577</ele>
        <time>2020-08-27T15:02:14.247Z</time>
      </trkpt>
      <trkpt lat="69.31856" lon="18.82504">
        <ele>41.753296</ele>
        <time>2020-08-27T15:02:15.144Z</time>
      </trkpt>
      <trkpt lat="69.31868" lon="18.82486">
        <ele>41.639782</ele>
        <time>2020-08-27T15:02:17.120Z</time>
      </trkpt>
      <trkpt lat="69.31911" lon="18.82397">
        <ele>41.186289</ele>
        <time>2020-08-27T15:02:25.147Z</time>
      </trkpt>
      <trkpt lat="69.31963" lon="18.82245">
        <ele>40.549063</ele>
        <time>2020-08-27T15:02:37.103Z</time>
      </trkpt>
      <trkpt lat="69.31995" lon="18.82094">
        <ele>40.568209</ele>
        <time>2020-08-27T15:02:48.848Z</time>
      </trkpt>
      <trkpt lat="69.32023" lon="18.81902">
        <ele>40.811478</ele>
        <time>2020-08-27T15:03:03.333Z</time>
      </trkpt>
      <trkpt lat="69.32026" lon="18.81874">
        <ele>40.845736</ele>
        <time>2020-08-27T15:03:05.585Z</time>
      </trkpt>
      <trkpt lat="69.32038" lon="18.8176">
        <ele>40.984255</ele>
        <time>2020-08-27T15:03:13.821Z</time>
      </trkpt>
      <trkpt lat="69.32088" lon="18.811">
        <ele>40.396338</ele>
        <time>2020-08-27T15:03:56.459Z</time>
      </trkpt>
      <trkpt lat="69.32088" lon="18.80952">
        <ele>39.643655</ele>
        <time>2020-08-27T15:04:04.683Z</time>
      </trkpt>
      <trkpt lat="69.32078" lon="18.8078">
        <ele>38.750318</ele>
        <time>2020-08-27T15:04:13.278Z</time>
      </trkpt>
      <trkpt lat="69.32076" lon="18.80748">
        <ele>38.58313</ele>
        <time>2020-08-27T15:04:14.844Z</time>
      </trkpt>
      <trkpt lat="69.32075" lon="18.8071">
        <ele>38.087996</ele>
        <time>2020-08-27T15:04:16.525Z</time>
      </trkpt>
      <trkpt lat="69.32083" lon="18.80484">
        <ele>34.469687</ele>
        <time>2020-08-27T15:04:26.646Z</time>
      </trkpt>
      <trkpt lat="69.32088" lon="18.80389">
        <ele>32.954498</ele>
        <time>2020-08-27T15:04:30.696Z</time>
      </trkpt>
      <trkpt lat="69.32091" lon="18.80344">
        <ele>32.229424</ele>
        <time>2020-08-27T15:04:32.656Z</time>
      </trkpt>
      <trkpt lat="69.32092" lon="18.80307">
        <ele>31.640533</ele>
        <time>2020-08-27T15:04:34.161Z</time>
      </trkpt>
      <trkpt lat="69.32101" lon="18.80155">
        <ele>29.179489</ele>
        <time>2020-08-27T15:04:40.732Z</time>
      </trkpt>
      <trkpt lat="69.32103" lon="18.80121">
        <ele>28.628738</ele>
        <time>2020-08-27T15:04:42.128Z</time>
      </trkpt>
      <trkpt lat="69.32133" lon="18.79555">
        <ele>21.180558</ele>
        <time>2020-08-27T15:05:07.499Z</time>
      </trkpt>
      <trkpt lat="69.32132" lon="18.79457">
        <ele>20.551179</ele>
        <time>2020-08-27T15:05:12.621Z</time>
      </trkpt>
      <trkpt lat="69.32125" lon="18.79346">
        <ele>19.822643</ele>
        <time>2020-08-27T15:05:18.893Z</time>
      </trkpt>
      <trkpt lat="69.32124" lon="18.79335">
        <ele>19.75004</ele>
        <time>2020-08-27T15:05:19.571Z</time>
      </trkpt>
      <trkpt lat="69.32106" lon="18.79141">
        <ele>19.218212</ele>
        <time>2020-08-27T15:05:32.346Z</time>
      </trkpt>
      <trkpt lat="69.32078" lon="18.78825">
        <ele>19.876004</ele>
        <time>2020-08-27T15:05:56.294Z</time>
      </trkpt>
      <trkpt lat="69.32075" lon="18.78788">
        <ele>19.951627</ele>
        <time>2020-08-27T15:05:59.005Z</time>
      </trkpt>
      <trkpt lat="69.32071" lon="18.78742">
        <ele>20.048312</ele>
        <time>2020-08-27T15:06:02.446Z</time>
      </trkpt>
      <trkpt lat="69.32044" lon="18.78291">
        <ele>20.134809</ele>
        <time>2020-08-27T15:06:31.917Z</time>
      </trkpt>
      <trkpt lat="69.32049" lon="18.78226">
        <ele>20.135728</ele>
        <time>2020-08-27T15:06:35.711Z</time>
      </trkpt>
      <trkpt lat="69.32082" lon="18.78122">
        <ele>19.942845</ele>
        <time>2020-08-27T15:06:43.580Z</time>
      </trkpt>
      <trkpt lat="69.32144" lon="18.77945">
        <ele>19.597641</ele>
        <time>2020-08-27T15:06:58.096Z</time>
      </trkpt>
      <trkpt lat="69.32167" lon="18.7788">
        <ele>19.470884</ele>
        <time>2020-08-27T15:07:03.699Z</time>
      </trkpt>
      <trkpt lat="69.32182" lon="18.77836">
        <ele>19.432858</ele>
        <time>2020-08-27T15:07:07.683Z</time>
      </trkpt>
      <trkpt lat="69.32194" lon="18.77801">
        <ele>19.426072</ele>
        <time>2020-08-27T15:07:10.528Z</time>
      </trkpt>
      <trkpt lat="69.32203" lon="18.77772">
        <ele>19.420382</ele>
        <time>2020-08-27T15:07:13.109Z</time>
      </trkpt>
      <trkpt lat="69.32229" lon="18.77646">
        <ele>19.399292</ele>
        <time>2020-08-27T15:07:22.319Z</time>
      </trkpt>
      <trkpt lat="69.32237" lon="18.77501">
        <ele>19.378291</ele>
        <time>2020-08-27T15:07:31.958Z</time>
      </trkpt>
      <trkpt lat="69.32239" lon="18.766">
        <ele>18.338309</ele>
        <time>2020-08-27T15:08:26.182Z</time>
      </trkpt>
      <trkpt lat="69.32232" lon="18.76459">
        <ele>18.073439</ele>
        <time>2020-08-27T15:08:34.075Z</time>
      </trkpt>
      <trkpt lat="69.32219" lon="18.76336">
        <ele>17.739022</ele>
        <time>2020-08-27T15:08:41.215Z</time>
      </trkpt>
      <trkpt lat="69.32213" lon="18.76294">
        <ele>17.585079</ele>
        <time>2020-08-27T15:08:43.648Z</time>
      </trkpt>
      <trkpt lat="69.32175" lon="18.76036">
        <ele>16.634806</ele>
        <time>2020-08-27T15:08:58.991Z</time>
      </trkpt>
      <trkpt lat="69.32155" lon="18.75879">
        <ele>16.117076</ele>
        <time>2020-08-27T15:09:08.121Z</time>
      </trkpt>
      <trkpt lat="69.32146" lon="18.75747">
        <ele>15.810447</ele>
        <time>2020-08-27T15:09:15.828Z</time>
      </trkpt>
      <trkpt lat="69.32136" lon="18.7558">
        <ele>15.426493</ele>
        <time>2020-08-27T15:09:25.433Z</time>
      </trkpt>
      <trkpt lat="69.32118" lon="18.75281">
        <ele>15.048223</ele>
        <time>2020-08-27T15:09:43.206Z</time>
      </trkpt>
      <trkpt lat="69.32111" lon="18.75094">
        <ele>15.030449</ele>
        <time>2020-08-27T15:09:55.169Z</time>
      </trkpt>
      <trkpt lat="69.3211" lon="18.74914">
        <ele>15.014972</ele>
        <time>2020-08-27T15:10:07.185Z</time>
      </trkpt>
      <trkpt lat="69.3211" lon="18.74434">
        <ele>15.481989</ele>
        <time>2020-08-27T15:10:39.307Z</time>
      </trkpt>
      <trkpt lat="69.32109" lon="18.74149">
        <ele>15.486096</ele>
        <time>2020-08-27T15:10:57.006Z</time>
      </trkpt>
      <trkpt lat="69.32105" lon="18.74">
        <ele>15.472449</ele>
        <time>2020-08-27T15:11:06.259Z</time>
      </trkpt>
      <trkpt lat="69.32101" lon="18.73943">
        <ele>15.467149</ele>
        <time>2020-08-27T15:11:09.794Z</time>
      </trkpt>
      <trkpt lat="69.32098" lon="18.73894">
        <ele>15.462168</ele>
        <time>2020-08-27T15:11:12.994Z</time>
      </trkpt>
      <trkpt lat="69.3209" lon="18.73791">
        <ele>15.441596</ele>
        <time>2020-08-27T15:11:19.688Z</time>
      </trkpt>
      <trkpt lat="69.32076" lon="18.73612">
        <ele>15.405967</ele>
        <time>2020-08-27T15:11:31.146Z</time>
      </trkpt>
      <trkpt lat="69.32067" lon="18.73481">
        <ele>15.379876</ele>
        <time>2020-08-27T15:11:39.567Z</time>
      </trkpt>
      <trkpt lat="69.3206" lon="18.73382">
        <ele>15.346311</ele>
        <time>2020-08-27T15:11:45.929Z</time>
      </trkpt>
      <trkpt lat="69.32055" lon="18.7322">
        <ele>15.193881</ele>
        <time>2020-08-27T15:11:55.889Z</time>
      </trkpt>
      <trkpt lat="69.32071" lon="18.72747">
        <ele>14.906396</ele>
        <time>2020-08-27T15:12:24.042Z</time>
      </trkpt>
      <trkpt lat="69.32071" lon="18.72693">
        <ele>14.913492</ele>
        <time>2020-08-27T15:12:27.237Z</time>
      </trkpt>
      <trkpt lat="69.3207" lon="18.72681">
        <ele>14.915021</ele>
        <time>2020-08-27T15:12:28.093Z</time>
      </trkpt>
      <trkpt lat="69.32056" lon="18.72186">
        <ele>14.936856</ele>
        <time>2020-08-27T15:13:01.270Z</time>
      </trkpt>
      <trkpt lat="69.32059" lon="18.72044">
        <ele>14.924762</ele>
        <time>2020-08-27T15:13:10.159Z</time>
      </trkpt>
      <trkpt lat="69.32063" lon="18.71983">
        <ele>14.919431</ele>
        <time>2020-08-27T15:13:14.165Z</time>
      </trkpt>
      <trkpt lat="69.32069" lon="18.71908">
        <ele>14.912906</ele>
        <time>2020-08-27T15:13:18.624Z</time>
      </trkpt>
      <trkpt lat="69.32103" lon="18.71435">
        <ele>13.760378</ele>
        <time>2020-08-27T15:13:45.731Z</time>
      </trkpt>
      <trkpt lat="69.3211" lon="18.71195">
        <ele>13.41355</ele>
        <time>2020-08-27T15:13:59.542Z</time>
      </trkpt>
      <trkpt lat="69.32109" lon="18.71023">
        <ele>13.218691</ele>
        <time>2020-08-27T15:14:09.929Z</time>
      </trkpt>
      <trkpt lat="69.32105" lon="18.70798">
        <ele>13.105422</ele>
        <time>2020-08-27T15:14:24.120Z</time>
      </trkpt>
      <trkpt lat="69.32103" lon="18.70712">
        <ele>13.172741</ele>
        <time>2020-08-27T15:14:29.706Z</time>
      </trkpt>
      <trkpt lat="69.32095" lon="18.70002">
        <ele>14.084538</ele>
        <time>2020-08-27T15:15:16.878Z</time>
      </trkpt>
      <trkpt lat="69.32094" lon="18.69905">
        <ele>14.257682</ele>
        <time>2020-08-27T15:15:23.765Z</time>
      </trkpt>
      <trkpt lat="69.32094" lon="18.69864">
        <ele>14.33043</ele>
        <time>2020-08-27T15:15:26.654Z</time>
      </trkpt>
      <trkpt lat="69.32092" lon="18.697">
        <ele>15.404361</ele>
        <time>2020-08-27T15:15:38.931Z</time>
      </trkpt>
      <trkpt lat="69.32087" lon="18.6936">
        <ele>17.742305</ele>
        <time>2020-08-27T15:16:09.134Z</time>
      </trkpt>
      <trkpt lat="69.32085" lon="18.69323">
        <ele>18.111691</ele>
        <time>2020-08-27T15:16:12.891Z</time>
      </trkpt>
      <trkpt lat="69.32074" lon="18.69163">
        <ele>20.002162</ele>
        <time>2020-08-27T15:16:28.922Z</time>
      </trkpt>
      <trkpt lat="69.32052" lon="18.68855">
        <ele>23.672781</ele>
        <time>2020-08-27T15:17:02.140Z</time>
      </trkpt>
      <trkpt lat="69.32025" lon="18.68704">
        <ele>24.631889</ele>
        <time>2020-08-27T15:17:18.183Z</time>
      </trkpt>
      <trkpt lat="69.31994" lon="18.68592">
        <ele>25.399363</ele>
        <time>2020-08-27T15:17:30.636Z</time>
      </trkpt>
      <trkpt lat="69.31876" lon="18.68255">
        <ele>24.776954</ele>
        <time>2020-08-27T15:17:59.375Z</time>
      </trkpt>
      <trkpt lat="69.31824" lon="18.68061">
        <ele>23.194125</ele>
        <time>2020-08-27T15:18:10.571Z</time>
      </trkpt>
      <trkpt lat="69.31789" lon="18.67911">
        <ele>20.201027</ele>
        <time>2020-08-27T15:18:18.455Z</time>
      </trkpt>
      <trkpt lat="69.31715" lon="18.676">
        <ele>14.118779</ele>
        <time>2020-08-27T15:18:34.457Z</time>
      </trkpt>
      <trkpt lat="69.31713" lon="18.67591">
        <ele>13.972115</ele>
        <time>2020-08-27T15:18:34.919Z</time>
      </trkpt>
      <trkpt lat="69.3169" lon="18.67494">
        <ele>12.371316</ele>
        <time>2020-08-27T15:18:40.030Z</time>
      </trkpt>
      <trkpt lat="69.31669" lon="18.67407">
        <ele>10.933789</ele>
        <time>2020-08-27T15:18:44.700Z</time>
      </trkpt>
      <trkpt lat="69.31664" lon="18.67387">
        <ele>10.600178</ele>
        <time>2020-08-27T15:18:45.799Z</time>
      </trkpt>
      <trkpt lat="69.31637" lon="18.67274">
        <ele>8.730603</ele>
        <time>2020-08-27T15:18:52.026Z</time>
      </trkpt>
      <trkpt lat="69.31592" lon="18.67089">
        <ele>6.953171</ele>
        <time>2020-08-27T15:19:02.783Z</time>
      </trkpt>
      <trkpt lat="69.31565" lon="18.67022">
        <ele>6.414851</ele>
        <time>2020-08-27T15:19:07.884Z</time>
      </trkpt>
      <trkpt lat="69.31528" lon="18.66974">
        <ele>5.799448</ele>
        <time>2020-08-27T15:19:13.992Z</time>
      </trkpt>
      <trkpt lat="69.31447" lon="18.66926">
        <ele>5.518045</ele>
        <time>2020-08-27T15:19:28.510Z</time>
      </trkpt>
      <trkpt lat="69.31437" lon="18.66915">
        <ele>5.645282</ele>
        <time>2020-08-27T15:19:30.540Z</time>
      </trkpt>
      <trkpt lat="69.3143" lon="18.66905">
        <ele>5.751642</ele>
        <time>2020-08-27T15:19:32.234Z</time>
      </trkpt>
      <trkpt lat="69.314" lon="18.66827">
        <ele>6.271776</ele>
        <time>2020-08-27T15:19:40.644Z</time>
      </trkpt>
      <trkpt lat="69.31394" lon="18.66806">
        <ele>6.393776</ele>
        <time>2020-08-27T15:19:42.697Z</time>
      </trkpt>
      <trkpt lat="69.31386" lon="18.66777">
        <ele>6.557495</ele>
        <time>2020-08-27T15:19:45.736Z</time>
      </trkpt>
      <trkpt lat="69.31306" lon="18.66503">
        <ele>9.42887</ele>
        <time>2020-08-27T15:20:18.171Z</time>
      </trkpt>
      <trkpt lat="69.31271" lon="18.66415">
        <ele>10.97779</ele>
        <time>2020-08-27T15:20:32.198Z</time>
      </trkpt>
      <trkpt lat="69.31244" lon="18.66376">
        <ele>12.005225</ele>
        <time>2020-08-27T15:20:41.552Z</time>
      </trkpt>
      <trkpt lat="69.31216" lon="18.66354">
        <ele>12.966759</ele>
        <time>2020-08-27T15:20:49.999Z</time>
      </trkpt>
      <trkpt lat="69.31149" lon="18.66346">
        <ele>15.197142</ele>
        <time>2020-08-27T15:21:09.630Z</time>
      </trkpt>
      <trkpt lat="69.31136" lon="18.66342">
        <ele>15.644458</ele>
        <time>2020-08-27T15:21:14.086Z</time>
      </trkpt>
      <trkpt lat="69.31126" lon="18.66335">
        <ele>16.009557</ele>
        <time>2020-08-27T15:21:17.380Z</time>
      </trkpt>
      <trkpt lat="69.31099" lon="18.66303">
        <ele>16.99293</ele>
        <time>2020-08-27T15:21:25.914Z</time>
      </trkpt>
      <trkpt lat="69.31072" lon="18.66244">
        <ele>18.141215</ele>
        <time>2020-08-27T15:21:35.559Z</time>
      </trkpt>
      <trkpt lat="69.31042" lon="18.66161">
        <ele>19.459716</ele>
        <time>2020-08-27T15:21:47.020Z</time>
      </trkpt>
      <trkpt lat="69.31032" lon="18.66133">
        <ele>19.640315</ele>
        <time>2020-08-27T15:21:50.329Z</time>
      </trkpt>
      <trkpt lat="69.31028" lon="18.66124">
        <ele>19.699659</ele>
        <time>2020-08-27T15:21:51.700Z</time>
      </trkpt>
      <trkpt lat="69.31012" lon="18.66076">
        <ele>19.998642</ele>
        <time>2020-08-27T15:21:57.966Z</time>
      </trkpt>
      <trkpt lat="69.3077" lon="18.65404">
        <ele>22.577441</ele>
        <time>2020-08-27T15:23:05.796Z</time>
      </trkpt>
      <trkpt lat="69.30738" lon="18.65315">
        <ele>22.256306</ele>
        <time>2020-08-27T15:23:12.897Z</time>
      </trkpt>
      <trkpt lat="69.30728" lon="18.65284">
        <ele>22.146463</ele>
        <time>2020-08-27T15:23:15.371Z</time>
      </trkpt>
      <trkpt lat="69.30723" lon="18.65273">
        <ele>22.1019</ele>
        <time>2020-08-27T15:23:16.355Z</time>
      </trkpt>
      <trkpt lat="69.30713" lon="18.65247">
        <ele>22.002581</ele>
        <time>2020-08-27T15:23:18.422Z</time>
      </trkpt>
      <trkpt lat="69.30671" lon="18.65174">
        <ele>21.645868</ele>
        <time>2020-08-27T15:23:25.969Z</time>
      </trkpt>
      <trkpt lat="69.30631" lon="18.65145">
        <ele>21.188367</ele>
        <time>2020-08-27T15:23:31.945Z</time>
      </trkpt>
      <trkpt lat="69.3059" lon="18.65155">
        <ele>20.486873</ele>
        <time>2020-08-27T15:23:37.872Z</time>
      </trkpt>
      <trkpt lat="69.30543" lon="18.65208">
        <ele>19.61385</ele>
        <time>2020-08-27T15:23:45.315Z</time>
      </trkpt>
      <trkpt lat="69.30515" lon="18.65249">
        <ele>19.070736</ele>
        <time>2020-08-27T15:23:49.981Z</time>
      </trkpt>
      <trkpt lat="69.30443" lon="18.65351">
        <ele>17.392805</ele>
        <time>2020-08-27T15:24:01.238Z</time>
      </trkpt>
      <trkpt lat="69.30369" lon="18.65462">
        <ele>15.318706</ele>
        <time>2020-08-27T15:24:12.818Z</time>
      </trkpt>
      <trkpt lat="69.30363" lon="18.65473">
        <ele>15.142158</ele>
        <time>2020-08-27T15:24:13.726Z</time>
      </trkpt>
      <trkpt lat="69.30349" lon="18.65504">
        <ele>14.699319</ele>
        <time>2020-08-27T15:24:16.143Z</time>
      </trkpt>
      <trkpt lat="69.30315" lon="18.65596">
        <ele>13.517163</ele>
        <time>2020-08-27T15:24:22.391Z</time>
      </trkpt>
      <trkpt lat="69.30302" lon="18.65635">
        <ele>13.029848</ele>
        <time>2020-08-27T15:24:24.832Z</time>
      </trkpt>
      <trkpt lat="69.30246" lon="18.65796">
        <ele>11.003441</ele>
        <time>2020-08-27T15:24:35.164Z</time>
      </trkpt>
      <trkpt lat="69.30222" lon="18.65865">
        <ele>10.122565</ele>
        <time>2020-08-27T15:24:39.984Z</time>
      </trkpt>
      <trkpt lat="69.30152" lon="18.66066">
        <ele>9.557217</ele>
        <time>2020-08-27T15:24:55.399Z</time>
      </trkpt>
      <trkpt lat="69.3008" lon="18.66268">
        <ele>9.881798</ele>
        <time>2020-08-27T15:25:16.672Z</time>
      </trkpt>
      <trkpt lat="69.30024" lon="18.66425">
        <ele>11.076762</ele>
        <time>2020-08-27T15:25:36.300Z</time>
      </trkpt>
      <trkpt lat="69.29846" lon="18.66859">
        <ele>14.791526</ele>
        <time>2020-08-27T15:26:30.128Z</time>
      </trkpt>
      <trkpt lat="69.29728" lon="18.67228">
        <ele>16.898855</ele>
        <time>2020-08-27T15:27:08.774Z</time>
      </trkpt>
      <trkpt lat="69.29693" lon="18.6734">
        <ele>17.45993</ele>
        <time>2020-08-27T15:27:19.628Z</time>
      </trkpt>
      <trkpt lat="69.29657" lon="18.67456">
        <ele>17.239654</ele>
        <time>2020-08-27T15:27:30.314Z</time>
      </trkpt>
      <trkpt lat="69.29598" lon="18.67614">
        <ele>16.749913</ele>
        <time>2020-08-27T15:27:43.753Z</time>
      </trkpt>
      <trkpt lat="69.29557" lon="18.67685">
        <ele>16.458959</ele>
        <time>2020-08-27T15:27:50.704Z</time>
      </trkpt>
      <trkpt lat="69.29524" lon="18.67718">
        <ele>15.688767</ele>
        <time>2020-08-27T15:27:55.480Z</time>
      </trkpt>
      <trkpt lat="69.29511" lon="18.67729">
        <ele>15.352417</ele>
        <time>2020-08-27T15:27:57.401Z</time>
      </trkpt>
      <trkpt lat="69.29483" lon="18.67752">
        <ele>14.666526</ele>
        <time>2020-08-27T15:28:01.422Z</time>
      </trkpt>
      <trkpt lat="69.2945" lon="18.67777">
        <ele>13.867697</ele>
        <time>2020-08-27T15:28:06.034Z</time>
      </trkpt>
      <trkpt lat="69.29419" lon="18.67802">
        <ele>13.10665</ele>
        <time>2020-08-27T15:28:10.410Z</time>
      </trkpt>
      <trkpt lat="69.29353" lon="18.6788">
        <ele>11.561952</ele>
        <time>2020-08-27T15:28:20.053Z</time>
      </trkpt>
      <trkpt lat="69.28868" lon="18.68601">
        <ele>1.83826</ele>
        <time>2020-08-27T15:29:38.681Z</time>
      </trkpt>
      <trkpt lat="69.28805" lon="18.68697">
        <ele>1.205338</ele>
        <time>2020-08-27T15:29:50.014Z</time>
      </trkpt>
      <trkpt lat="69.28738" lon="18.68802">
        <ele>0.608839</ele>
        <time>2020-08-27T15:30:02.908Z</time>
      </trkpt>
      <trkpt lat="69.28706" lon="18.68864">
        <ele>0.583961</ele>
        <time>2020-08-27T15:30:09.742Z</time>
      </trkpt>
      <trkpt lat="69.2868" lon="18.68957">
        <ele>0.557135</ele>
        <time>2020-08-27T15:30:17.280Z</time>
      </trkpt>
      <trkpt lat="69.28672" lon="18.68995">
        <ele>0.547187</ele>
        <time>2020-08-27T15:30:20.108Z</time>
      </trkpt>
      <trkpt lat="69.28653" lon="18.6909">
        <ele>0.522508</ele>
        <time>2020-08-27T15:30:27.074Z</time>
      </trkpt>
      <trkpt lat="69.28624" lon="18.69184">
        <ele>0.494336</ele>
        <time>2020-08-27T15:30:35.061Z</time>
      </trkpt>
      <trkpt lat="69.28566" lon="18.69254">
        <ele>0.455757</ele>
        <time>2020-08-27T15:30:46.310Z</time>
      </trkpt>
      <trkpt lat="69.2854" lon="18.69298">
        <ele>0.437435</ele>
        <time>2020-08-27T15:30:51.586Z</time>
      </trkpt>
      <trkpt lat="69.28491" lon="18.69466">
        <ele>0.390509</ele>
        <time>2020-08-27T15:31:05.009Z</time>
      </trkpt>
      <trkpt lat="69.28485" lon="18.69489">
        <ele>0.378133</ele>
        <time>2020-08-27T15:31:06.754Z</time>
      </trkpt>
      <trkpt lat="69.28481" lon="18.69506">
        <ele>0.368642</ele>
        <time>2020-08-27T15:31:08.097Z</time>
      </trkpt>
      <trkpt lat="69.28464" lon="18.69569">
        <ele>0.334275</ele>
        <time>2020-08-27T15:31:12.892Z</time>
      </trkpt>
      <trkpt lat="69.28402" lon="18.69798">
        <ele>0.20732</ele>
        <time>2020-08-27T15:31:30.732Z</time>
      </trkpt>
      <trkpt lat="69.2839" lon="18.69845">
        <ele>0.181392</ele>
        <time>2020-08-27T15:31:34.388Z</time>
      </trkpt>
      <trkpt lat="69.28365" lon="18.69971">
        <ele>0.151972</ele>
        <time>2020-08-27T15:31:43.386Z</time>
      </trkpt>
      <trkpt lat="69.28318" lon="18.70325">
        <ele>0.102665</ele>
        <time>2020-08-27T15:32:07.120Z</time>
      </trkpt>
      <trkpt lat="69.28289" lon="18.70447">
        <ele>0.10732</ele>
        <time>2020-08-27T15:32:16.400Z</time>
      </trkpt>
      <trkpt lat="69.28283" lon="18.70467">
        <ele>0.108847</ele>
        <time>2020-08-27T15:32:18.023Z</time>
      </trkpt>
      <trkpt lat="69.28265" lon="18.70525">
        <ele>0.113277</ele>
        <time>2020-08-27T15:32:22.890Z</time>
      </trkpt>
      <trkpt lat="69.28192" lon="18.70766">
        <ele>0.177504</ele>
        <time>2020-08-27T15:32:43.043Z</time>
      </trkpt>
      <trkpt lat="69.2816" lon="18.709">
        <ele>0.371332</ele>
        <time>2020-08-27T15:32:53.531Z</time>
      </trkpt>
      <trkpt lat="69.28135" lon="18.71059">
        <ele>0.58012</ele>
        <time>2020-08-27T15:33:05.227Z</time>
      </trkpt>
      <trkpt lat="69.28116" lon="18.71174">
        <ele>0.732448</ele>
        <time>2020-08-27T15:33:13.971Z</time>
      </trkpt>
      <trkpt lat="69.281" lon="18.71301">
        <ele>1.38977</ele>
        <time>2020-08-27T15:33:23.509Z</time>
      </trkpt>
      <trkpt lat="69.28093" lon="18.71542">
        <ele>2.612155</ele>
        <time>2020-08-27T15:33:42.761Z</time>
      </trkpt>
      <trkpt lat="69.28086" lon="18.71618">
        <ele>3.006227</ele>
        <time>2020-08-27T15:33:49.223Z</time>
      </trkpt>
      <trkpt lat="69.28073" lon="18.71683">
        <ele>3.502346</ele>
        <time>2020-08-27T15:33:55.760Z</time>
      </trkpt>
      <trkpt lat="69.28055" lon="18.71727">
        <ele>4.366809</ele>
        <time>2020-08-27T15:34:01.579Z</time>
      </trkpt>
      <trkpt lat="69.28047" lon="18.7174">
        <ele>4.670346</ele>
        <time>2020-08-27T15:34:03.902Z</time>
      </trkpt>
      <trkpt lat="69.2804" lon="18.71751">
        <ele>4.978238</ele>
        <time>2020-08-27T15:34:06.396Z</time>
      </trkpt>
      <trkpt lat="69.28014" lon="18.71771">
        <ele>5.943068</ele>
        <time>2020-08-27T15:34:14.248Z</time>
      </trkpt>
      <trkpt lat="69.27997" lon="18.71771">
        <ele>6.568127</ele>
        <time>2020-08-27T15:34:19.675Z</time>
      </trkpt>
      <trkpt lat="69.27993" lon="18.71769">
        <ele>6.692388</ele>
        <time>2020-08-27T15:34:20.993Z</time>
      </trkpt>
      <trkpt lat="69.27981" lon="18.71759">
        <ele>7.152153</ele>
        <time>2020-08-27T15:34:24.366Z</time>
      </trkpt>
      <trkpt lat="69.2797" lon="18.7175">
        <ele>7.548584</ele>
        <time>2020-08-27T15:34:27.754Z</time>
      </trkpt>
      <trkpt lat="69.27962" lon="18.71741">
        <ele>7.868389</ele>
        <time>2020-08-27T15:34:30.746Z</time>
      </trkpt>
      <trkpt lat="69.27949" lon="18.71724">
        <ele>8.368917</ele>
        <time>2020-08-27T15:34:34.858Z</time>
      </trkpt>
      <trkpt lat="69.27921" lon="18.71689">
        <ele>9.469246</ele>
        <time>2020-08-27T15:34:44.658Z</time>
      </trkpt>
      <trkpt lat="69.27906" lon="18.71672">
        <ele>10.109216</ele>
        <time>2020-08-27T15:34:49.890Z</time>
      </trkpt>
      <trkpt lat="69.27894" lon="18.71662">
        <ele>10.57054</ele>
        <time>2020-08-27T15:34:54.230Z</time>
      </trkpt>
      <trkpt lat="69.27848" lon="18.71636">
        <ele>12.453625</ele>
        <time>2020-08-27T15:35:10.540Z</time>
      </trkpt>
      <trkpt lat="69.27749" lon="18.7163">
        <ele>16.351775</ele>
        <time>2020-08-27T15:35:40.792Z</time>
      </trkpt>
      <trkpt lat="69.27743" lon="18.71629">
        <ele>16.58903</ele>
        <time>2020-08-27T15:35:43.033Z</time>
      </trkpt>
      <trkpt lat="69.2773" lon="18.71627">
        <ele>16.843285</ele>
        <time>2020-08-27T15:35:45.870Z</time>
      </trkpt>
      <trkpt lat="69.27685" lon="18.71607">
        <ele>16.570934</ele>
        <time>2020-08-27T15:35:55.674Z</time>
      </trkpt>
      <trkpt lat="69.27657" lon="18.71585">
        <ele>16.39776</ele>
        <time>2020-08-27T15:36:01.718Z</time>
      </trkpt>
      <trkpt lat="69.2763" lon="18.71566">
        <ele>16.231437</ele>
        <time>2020-08-27T15:36:06.433Z</time>
      </trkpt>
      <trkpt lat="69.27579" lon="18.71543">
        <ele>15.93034</ele>
        <time>2020-08-27T15:36:13.526Z</time>
      </trkpt>
      <trkpt lat="69.27505" lon="18.71532">
        <ele>13.277047</ele>
        <time>2020-08-27T15:36:22.733Z</time>
      </trkpt>
      <trkpt lat="69.27463" lon="18.71526">
        <ele>11.332417</ele>
        <time>2020-08-27T15:36:27.762Z</time>
      </trkpt>
      <trkpt lat="69.27396" lon="18.71516">
        <ele>8.222676</ele>
        <time>2020-08-27T15:36:35.842Z</time>
      </trkpt>
      <trkpt lat="69.27301" lon="18.71505">
        <ele>5.068068</ele>
        <time>2020-08-27T15:36:47.679Z</time>
      </trkpt>
      <trkpt lat="69.27257" lon="18.71527">
        <ele>3.730322</ele>
        <time>2020-08-27T15:36:53.649Z</time>
      </trkpt>
      <trkpt lat="69.27208" lon="18.71576">
        <ele>2.176076</ele>
        <time>2020-08-27T15:37:01.288Z</time>
      </trkpt>
      <trkpt lat="69.27195" lon="18.71597">
        <ele>2.182779</ele>
        <time>2020-08-27T15:37:03.633Z</time>
      </trkpt>
      <trkpt lat="69.27163" lon="18.71646">
        <ele>2.684016</ele>
        <time>2020-08-27T15:37:09.616Z</time>
      </trkpt>
      <trkpt lat="69.27116" lon="18.71712">
        <ele>3.40518</ele>
        <time>2020-08-27T15:37:21.532Z</time>
      </trkpt>
      <trkpt lat="69.27064" lon="18.71762">
        <ele>4.156478</ele>
        <time>2020-08-27T15:37:34.749Z</time>
      </trkpt>
      <trkpt lat="69.2703" lon="18.71796">
        <ele>4.918719</ele>
        <time>2020-08-27T15:37:44.810Z</time>
      </trkpt>
      <trkpt lat="69.27019" lon="18.71808">
        <ele>5.419967</ele>
        <time>2020-08-27T15:37:48.942Z</time>
      </trkpt>
      <trkpt lat="69.26877" lon="18.71941">
        <ele>11.453679</ele>
        <time>2020-08-27T15:38:36.337Z</time>
      </trkpt>
      <trkpt lat="69.26847" lon="18.7194">
        <ele>12.697135</ele>
        <time>2020-08-27T15:38:45.793Z</time>
      </trkpt>
      <trkpt lat="69.26818" lon="18.71922">
        <ele>13.887839</ele>
        <time>2020-08-27T15:38:53.968Z</time>
      </trkpt>
      <trkpt lat="69.26812" lon="18.71916">
        <ele>14.171037</ele>
        <time>2020-08-27T15:38:56.875Z</time>
      </trkpt>
      <trkpt lat="69.26789" lon="18.71893">
        <ele>15.188917</ele>
        <time>2020-08-27T15:39:03.889Z</time>
      </trkpt>
      <trkpt lat="69.26718" lon="18.71824">
        <ele>18.2581</ele>
        <time>2020-08-27T15:39:27.476Z</time>
      </trkpt>
      <trkpt lat="69.26529" lon="18.71746">
        <ele>25.141812</ele>
        <time>2020-08-27T15:40:26.531Z</time>
      </trkpt>
      <trkpt lat="69.26311" lon="18.71593">
        <ele>25.862203</ele>
        <time>2020-08-27T15:41:10.114Z</time>
      </trkpt>
      <trkpt lat="69.26291" lon="18.71574">
        <ele>25.316741</ele>
        <time>2020-08-27T15:41:12.886Z</time>
      </trkpt>
      <trkpt lat="69.26281" lon="18.71562">
        <ele>25.035003</ele>
        <time>2020-08-27T15:41:14.386Z</time>
      </trkpt>
      <trkpt lat="69.26275" lon="18.71553">
        <ele>24.847795</ele>
        <time>2020-08-27T15:41:15.336Z</time>
      </trkpt>
      <trkpt lat="69.26259" lon="18.71533">
        <ele>24.410746</ele>
        <time>2020-08-27T15:41:17.499Z</time>
      </trkpt>
      <trkpt lat="69.26214" lon="18.71479">
        <ele>23.147224</ele>
        <time>2020-08-27T15:41:23.834Z</time>
      </trkpt>
      <trkpt lat="69.26157" lon="18.71429">
        <ele>21.517983</ele>
        <time>2020-08-27T15:41:31.338Z</time>
      </trkpt>
      <trkpt lat="69.25859" lon="18.71308">
        <ele>13.059801</ele>
        <time>2020-08-27T15:42:11.773Z</time>
      </trkpt>
      <trkpt lat="69.25719" lon="18.71207">
        <ele>11.029307</ele>
        <time>2020-08-27T15:42:31.709Z</time>
      </trkpt>
      <trkpt lat="69.25607" lon="18.71055">
        <ele>11.639908</ele>
        <time>2020-08-27T15:42:56.638Z</time>
      </trkpt>
      <trkpt lat="69.25454" lon="18.70984">
        <ele>15.478092</ele>
        <time>2020-08-27T15:43:42.809Z</time>
      </trkpt>
      <trkpt lat="69.25418" lon="18.70949">
        <ele>15.818732</ele>
        <time>2020-08-27T15:43:53.077Z</time>
      </trkpt>
      <trkpt lat="69.25394" lon="18.70895">
        <ele>16.091215</ele>
        <time>2020-08-27T15:44:00.266Z</time>
      </trkpt>
      <trkpt lat="69.25377" lon="18.70828">
        <ele>16.34622</ele>
        <time>2020-08-27T15:44:06.139Z</time>
      </trkpt>
      <trkpt lat="69.25298" lon="18.70279">
        <ele>13.859953</ele>
        <time>2020-08-27T15:44:35.874Z</time>
      </trkpt>
      <trkpt lat="69.25234" lon="18.70042">
        <ele>11.986276</ele>
        <time>2020-08-27T15:44:50.655Z</time>
      </trkpt>
      <trkpt lat="69.25224" lon="18.69972">
        <ele>11.52612</ele>
        <time>2020-08-27T15:44:54.583Z</time>
      </trkpt>
      <trkpt lat="69.2522" lon="18.69906">
        <ele>11.120797</ele>
        <time>2020-08-27T15:44:57.947Z</time>
      </trkpt>
      <trkpt lat="69.2522" lon="18.69877">
        <ele>10.947889</ele>
        <time>2020-08-27T15:44:59.590Z</time>
      </trkpt>
      <trkpt lat="69.25221" lon="18.69845">
        <ele>10.752809</ele>
        <time>2020-08-27T15:45:01.174Z</time>
      </trkpt>
      <trkpt lat="69.25225" lon="18.69778">
        <ele>10.340981</ele>
        <time>2020-08-27T15:45:04.895Z</time>
      </trkpt>
      <trkpt lat="69.25232" lon="18.69707">
        <ele>10.103978</ele>
        <time>2020-08-27T15:45:08.696Z</time>
      </trkpt>
      <trkpt lat="69.25242" lon="18.69605">
        <ele>9.866352</ele>
        <time>2020-08-27T15:45:14.451Z</time>
      </trkpt>
      <trkpt lat="69.25249" lon="18.69483">
        <ele>9.58769</ele>
        <time>2020-08-27T15:45:21.535Z</time>
      </trkpt>
      <trkpt lat="69.25244" lon="18.69321">
        <ele>9.222861</ele>
        <time>2020-08-27T15:45:30.793Z</time>
      </trkpt>
      <trkpt lat="69.25236" lon="18.6918">
        <ele>9.638897</ele>
        <time>2020-08-27T15:45:40.439Z</time>
      </trkpt>
      <trkpt lat="69.25232" lon="18.69118">
        <ele>10.059232</ele>
        <time>2020-08-27T15:45:45.359Z</time>
      </trkpt>
      <trkpt lat="69.25223" lon="18.68962">
        <ele>11.113426</ele>
        <time>2020-08-27T15:45:58.187Z</time>
      </trkpt>
      <trkpt lat="69.2522" lon="18.68886">
        <ele>11.621324</ele>
        <time>2020-08-27T15:46:05.666Z</time>
      </trkpt>
      <trkpt lat="69.25223" lon="18.68842">
        <ele>11.920962</ele>
        <time>2020-08-27T15:46:10.211Z</time>
      </trkpt>
      <trkpt lat="69.25225" lon="18.68826">
        <ele>12.035575</ele>
        <time>2020-08-27T15:46:12.393Z</time>
      </trkpt>
      <trkpt lat="69.25233" lon="18.68785">
        <ele>12.344509</ele>
        <time>2020-08-27T15:46:16.185Z</time>
      </trkpt>
      <trkpt lat="69.25236" lon="18.68763">
        <ele>12.531159</ele>
        <time>2020-08-27T15:46:18.562Z</time>
      </trkpt>
      <trkpt lat="69.25256" lon="18.68667">
        <ele>13.998925</ele>
        <time>2020-08-27T15:46:30.092Z</time>
      </trkpt>
      <trkpt lat="69.25258" lon="18.68657">
        <ele>14.158303</ele>
        <time>2020-08-27T15:46:31.521Z</time>
      </trkpt>
      <trkpt lat="69.25259" lon="18.68648">
        <ele>14.281364</ele>
        <time>2020-08-27T15:46:32.844Z</time>
      </trkpt>
      <trkpt lat="69.25259" lon="18.68627">
        <ele>14.568228</ele>
        <time>2020-08-27T15:46:34.703Z</time>
      </trkpt>
      <trkpt lat="69.25252" lon="18.68592">
        <ele>15.107472</ele>
        <time>2020-08-27T15:46:38.264Z</time>
      </trkpt>
      <trkpt lat="69.25248" lon="18.68587">
        <ele>15.253716</ele>
        <time>2020-08-27T15:46:39.565Z</time>
      </trkpt>
      <trkpt lat="69.25246" lon="18.68584">
        <ele>15.369795</ele>
        <time>2020-08-27T15:46:40.815Z</time>
      </trkpt>
      <trkpt lat="69.25159" lon="18.68621">
        <ele>18.645919</ele>
        <time>2020-08-27T15:47:07.228Z</time>
      </trkpt>
      <trkpt lat="69.2513" lon="18.68607">
        <ele>19.876646</ele>
        <time>2020-08-27T15:47:16.687Z</time>
      </trkpt>
      <trkpt lat="69.25081" lon="18.68549">
        <ele>22.378303</ele>
        <time>2020-08-27T15:47:33.169Z</time>
      </trkpt>
      <trkpt lat="69.25022" lon="18.68467">
        <ele>25.491242</ele>
        <time>2020-08-27T15:47:54.614Z</time>
      </trkpt>
      <trkpt lat="69.24955" lon="18.68376">
        <ele>29.329625</ele>
        <time>2020-08-27T15:48:21.090Z</time>
      </trkpt>
      <trkpt lat="69.24901" lon="18.68302">
        <ele>32.867736</ele>
        <time>2020-08-27T15:48:43.576Z</time>
      </trkpt>
      <trkpt lat="69.24815" lon="18.68184">
        <ele>38.456125</ele>
        <time>2020-08-27T15:49:19.319Z</time>
      </trkpt>
      <trkpt lat="69.24748" lon="18.68101">
        <ele>41.878026</ele>
        <time>2020-08-27T15:49:45.356Z</time>
      </trkpt>
      <trkpt lat="69.24689" lon="18.68043">
        <ele>44.788376</ele>
        <time>2020-08-27T15:50:05.747Z</time>
      </trkpt>
      <trkpt lat="69.24641" lon="18.68011">
        <ele>46.850402</ele>
        <time>2020-08-27T15:50:20.117Z</time>
      </trkpt>
      <trkpt lat="69.24573" lon="18.67994">
        <ele>47.76525</ele>
        <time>2020-08-27T15:50:37.329Z</time>
      </trkpt>
      <trkpt lat="69.24554" lon="18.67995">
        <ele>48.0285</ele>
        <time>2020-08-27T15:50:41.959Z</time>
      </trkpt>
      <trkpt lat="69.24524" lon="18.67998">
        <ele>48.431099</ele>
        <time>2020-08-27T15:50:48.037Z</time>
      </trkpt>
      <trkpt lat="69.24448" lon="18.68021">
        <ele>48.785913</ele>
        <time>2020-08-27T15:51:01.056Z</time>
      </trkpt>
      <trkpt lat="69.24399" lon="18.68049">
        <ele>47.900338</ele>
        <time>2020-08-27T15:51:08.492Z</time>
      </trkpt>
      <trkpt lat="69.24387" lon="18.68057">
        <ele>47.6824</ele>
        <time>2020-08-27T15:51:10.202Z</time>
      </trkpt>
      <trkpt lat="69.24354" lon="18.68084">
        <ele>47.076675</ele>
        <time>2020-08-27T15:51:15.004Z</time>
      </trkpt>
      <trkpt lat="69.24325" lon="18.68111">
        <ele>46.525885</ele>
        <time>2020-08-27T15:51:19.321Z</time>
      </trkpt>
      <trkpt lat="69.24242" lon="18.68214">
        <ele>44.668457</ele>
        <time>2020-08-27T15:51:31.523Z</time>
      </trkpt>
      <trkpt lat="69.2412" lon="18.6844">
        <ele>41.880372</ele>
        <time>2020-08-27T15:51:51.941Z</time>
      </trkpt>
      <trkpt lat="69.24083" lon="18.68496">
        <ele>41.618842</ele>
        <time>2020-08-27T15:51:58.306Z</time>
      </trkpt>
      <trkpt lat="69.2403" lon="18.68535">
        <ele>41.273868</ele>
        <time>2020-08-27T15:52:07.366Z</time>
      </trkpt>
      <trkpt lat="69.23988" lon="18.68535">
        <ele>41.010103</ele>
        <time>2020-08-27T15:52:15.106Z</time>
      </trkpt>
      <trkpt lat="69.23917" lon="18.6851">
        <ele>41.461306</ele>
        <time>2020-08-27T15:52:29.574Z</time>
      </trkpt>
      <trkpt lat="69.23843" lon="18.68482">
        <ele>42.179215</ele>
        <time>2020-08-27T15:52:45.618Z</time>
      </trkpt>
      <trkpt lat="69.23669" lon="18.68414">
        <ele>44.215156</ele>
        <time>2020-08-27T15:53:23.635Z</time>
      </trkpt>
      <trkpt lat="69.2366" lon="18.68409">
        <ele>44.324582</ele>
        <time>2020-08-27T15:53:25.801Z</time>
      </trkpt>
      <trkpt lat="69.23657" lon="18.68406">
        <ele>44.358957</ele>
        <time>2020-08-27T15:53:26.447Z</time>
      </trkpt>
      <trkpt lat="69.23647" lon="18.68397">
        <ele>44.49742</ele>
        <time>2020-08-27T15:53:28.747Z</time>
      </trkpt>
      <trkpt lat="69.23582" lon="18.68321">
        <ele>45.564681</ele>
        <time>2020-08-27T15:53:44.244Z</time>
      </trkpt>
      <trkpt lat="69.2357" lon="18.68302">
        <ele>45.805608</ele>
        <time>2020-08-27T15:53:47.175Z</time>
      </trkpt>
      <trkpt lat="69.2356" lon="18.68284">
        <ele>46.025195</ele>
        <time>2020-08-27T15:53:50.345Z</time>
      </trkpt>
      <trkpt lat="69.23516" lon="18.6819">
        <ele>46.988758</ele>
        <time>2020-08-27T15:54:02.957Z</time>
      </trkpt>
      <trkpt lat="69.23483" lon="18.68098">
        <ele>47.806816</ele>
        <time>2020-08-27T15:54:14.257Z</time>
      </trkpt>
      <trkpt lat="69.23348" lon="18.67587">
        <ele>52.432471</ele>
        <time>2020-08-27T15:55:11.163Z</time>
      </trkpt>
      <trkpt lat="69.23334" lon="18.67534">
        <ele>52.705858</ele>
        <time>2020-08-27T15:55:16.622Z</time>
      </trkpt>
      <trkpt lat="69.23324" lon="18.67498">
        <ele>52.897351</ele>
        <time>2020-08-27T15:55:20.381Z</time>
      </trkpt>
      <trkpt lat="69.23289" lon="18.67401">
        <ele>53.455331</ele>
        <time>2020-08-27T15:55:30.722Z</time>
      </trkpt>
      <trkpt lat="69.23235" lon="18.67299">
        <ele>54.105152</ele>
        <time>2020-08-27T15:55:43.383Z</time>
      </trkpt>
      <trkpt lat="69.23184" lon="18.67242">
        <ele>53.997486</ele>
        <time>2020-08-27T15:55:52.793Z</time>
      </trkpt>
      <trkpt lat="69.23109" lon="18.67203">
        <ele>53.84752</ele>
        <time>2020-08-27T15:56:05.392Z</time>
      </trkpt>
      <trkpt lat="69.23092" lon="18.67198">
        <ele>53.813692</ele>
        <time>2020-08-27T15:56:08.199Z</time>
      </trkpt>
      <trkpt lat="69.22995" lon="18.67169">
        <ele>54.080525</ele>
        <time>2020-08-27T15:56:25.320Z</time>
      </trkpt>
      <trkpt lat="69.22964" lon="18.67159">
        <ele>54.214494</ele>
        <time>2020-08-27T15:56:31.159Z</time>
      </trkpt>
      <trkpt lat="69.22802" lon="18.67109">
        <ele>55.732705</ele>
        <time>2020-08-27T15:57:05.802Z</time>
      </trkpt>
      <trkpt lat="69.22726" lon="18.67086">
        <ele>56.767853</ele>
        <time>2020-08-27T15:57:23.200Z</time>
      </trkpt>
      <trkpt lat="69.22585" lon="18.67043">
        <ele>59.072917</ele>
        <time>2020-08-27T15:57:56.507Z</time>
      </trkpt>
      <trkpt lat="69.2251" lon="18.67006">
        <ele>60.239645</ele>
        <time>2020-08-27T15:58:13.921Z</time>
      </trkpt>
      <trkpt lat="69.22485" lon="18.6699">
        <ele>60.582658</ele>
        <time>2020-08-27T15:58:20.168Z</time>
      </trkpt>
      <trkpt lat="69.22366" lon="18.66912">
        <ele>62.171949</ele>
        <time>2020-08-27T15:58:46.786Z</time>
      </trkpt>
      <trkpt lat="69.22359" lon="18.66908">
        <ele>62.263116</ele>
        <time>2020-08-27T15:58:48.453Z</time>
      </trkpt>
      <trkpt lat="69.22353" lon="18.66904">
        <ele>62.30143</ele>
        <time>2020-08-27T15:58:49.714Z</time>
      </trkpt>
      <trkpt lat="69.22281" lon="18.66856">
        <ele>62.45613</ele>
        <time>2020-08-27T15:59:04.071Z</time>
      </trkpt>
      <trkpt lat="69.22222" lon="18.66816">
        <ele>62.582503</ele>
        <time>2020-08-27T15:59:14.969Z</time>
      </trkpt>
      <trkpt lat="69.22181" lon="18.66789">
        <ele>62.66544</ele>
        <time>2020-08-27T15:59:22.019Z</time>
      </trkpt>
      <trkpt lat="69.22151" lon="18.66771">
        <ele>62.539238</ele>
        <time>2020-08-27T15:59:27.057Z</time>
      </trkpt>
      <trkpt lat="69.22081" lon="18.66741">
        <ele>62.2463</ele>
        <time>2020-08-27T15:59:38.512Z</time>
      </trkpt>
      <trkpt lat="69.22009" lon="18.66739">
        <ele>61.945845</ele>
        <time>2020-08-27T15:59:50.472Z</time>
      </trkpt>
      <trkpt lat="69.21984" lon="18.66744">
        <ele>62.115249</ele>
        <time>2020-08-27T15:59:54.728Z</time>
      </trkpt>
      <trkpt lat="69.21872" lon="18.66768">
        <ele>63.227973</ele>
        <time>2020-08-27T16:00:16.914Z</time>
      </trkpt>
      <trkpt lat="69.21772" lon="18.66792">
        <ele>65.631288</ele>
        <time>2020-08-27T16:00:42.540Z</time>
      </trkpt>
      <trkpt lat="69.21648" lon="18.66784">
        <ele>70.165394</ele>
        <time>2020-08-27T16:01:21.301Z</time>
      </trkpt>
      <trkpt lat="69.21585" lon="18.66753">
        <ele>73.008666</ele>
        <time>2020-08-27T16:01:42.803Z</time>
      </trkpt>
      <trkpt lat="69.21517" lon="18.66689">
        <ele>76.219172</ele>
        <time>2020-08-27T16:02:06.220Z</time>
      </trkpt>
      <trkpt lat="69.21508" lon="18.6668">
        <ele>76.62228</ele>
        <time>2020-08-27T16:02:09.677Z</time>
      </trkpt>
      <trkpt lat="69.21504" lon="18.66675">
        <ele>76.819672</ele>
        <time>2020-08-27T16:02:10.975Z</time>
      </trkpt>
      <trkpt lat="69.21468" lon="18.66637">
        <ele>78.482543</ele>
        <time>2020-08-27T16:02:22.654Z</time>
      </trkpt>
      <trkpt lat="69.21402" lon="18.66568">
        <ele>80.761262</ele>
        <time>2020-08-27T16:02:43.236Z</time>
      </trkpt>
      <trkpt lat="69.21361" lon="18.66526">
        <ele>82.172609</ele>
        <time>2020-08-27T16:02:55.443Z</time>
      </trkpt>
      <trkpt lat="69.21292" lon="18.66431">
        <ele>84.600162</ele>
        <time>2020-08-27T16:03:15.625Z</time>
      </trkpt>
      <trkpt lat="69.21283" lon="18.66414">
        <ele>84.909664</ele>
        <time>2020-08-27T16:03:18.635Z</time>
      </trkpt>
      <trkpt lat="69.21265" lon="18.66378">
        <ele>85.560751</ele>
        <time>2020-08-27T16:03:24.386Z</time>
      </trkpt>
      <trkpt lat="69.21233" lon="18.66305">
        <ele>86.763112</ele>
        <time>2020-08-27T16:03:35.376Z</time>
      </trkpt>
      <trkpt lat="69.21214" lon="18.66257">
        <ele>87.494606</ele>
        <time>2020-08-27T16:03:42.362Z</time>
      </trkpt>
      <trkpt lat="69.21197" lon="18.66211">
        <ele>88.187781</ele>
        <time>2020-08-27T16:03:49.311Z</time>
      </trkpt>
      <trkpt lat="69.21141" lon="18.66016">
        <ele>90.831999</ele>
        <time>2020-08-27T16:04:13.356Z</time>
      </trkpt>
      <trkpt lat="69.21137" lon="18.65995">
        <ele>91.087643</ele>
        <time>2020-08-27T16:04:15.977Z</time>
      </trkpt>
      <trkpt lat="69.21132" lon="18.65964">
        <ele>91.457476</ele>
        <time>2020-08-27T16:04:19.517Z</time>
      </trkpt>
      <trkpt lat="69.21112" lon="18.65822">
        <ele>93.082962</ele>
        <time>2020-08-27T16:04:33.927Z</time>
      </trkpt>
      <trkpt lat="69.21093" lon="18.65677">
        <ele>94.735913</ele>
        <time>2020-08-27T16:04:49.126Z</time>
      </trkpt>
      <trkpt lat="69.21075" lon="18.65545">
        <ele>96.451811</ele>
        <time>2020-08-27T16:05:03.017Z</time>
      </trkpt>
      <trkpt lat="69.21047" lon="18.65329">
        <ele>99.28239</ele>
        <time>2020-08-27T16:05:26.230Z</time>
      </trkpt>
      <trkpt lat="69.21019" lon="18.65135">
        <ele>102.069589</ele>
        <time>2020-08-27T16:05:48.911Z</time>
      </trkpt>
      <trkpt lat="69.20964" lon="18.64856">
        <ele>106.997249</ele>
        <time>2020-08-27T16:06:25.410Z</time>
      </trkpt>
      <trkpt lat="69.20823" lon="18.64235">
        <ele>117.545644</ele>
        <time>2020-08-27T16:07:48.748Z</time>
      </trkpt>
      <trkpt lat="69.20804" lon="18.6415">
        <ele>118.434733</ele>
        <time>2020-08-27T16:07:58.270Z</time>
      </trkpt>
      <trkpt lat="69.2075" lon="18.63915">
        <ele>120.895797</ele>
        <time>2020-08-27T16:08:21.781Z</time>
      </trkpt>
      <trkpt lat="69.20707" lon="18.63727">
        <ele>121.646256</ele>
        <time>2020-08-27T16:08:38.080Z</time>
      </trkpt>
      <trkpt lat="69.20623" lon="18.63357">
        <ele>122.648102</ele>
        <time>2020-08-27T16:09:09.197Z</time>
      </trkpt>
      <trkpt lat="69.20585" lon="18.63193">
        <ele>122.811533</ele>
        <time>2020-08-27T16:09:22.358Z</time>
      </trkpt>
      <trkpt lat="69.20516" lon="18.6296">
        <ele>122.646705</ele>
        <time>2020-08-27T16:09:41.109Z</time>
      </trkpt>
      <trkpt lat="69.2048" lon="18.62861">
        <ele>122.319823</ele>
        <time>2020-08-27T16:09:49.169Z</time>
      </trkpt>
      <trkpt lat="69.20405" lon="18.62653">
        <ele>121.533856</ele>
        <time>2020-08-27T16:10:05.612Z</time>
      </trkpt>
      <trkpt lat="69.20372" lon="18.62557">
        <ele>121.015496</ele>
        <time>2020-08-27T16:10:12.816Z</time>
      </trkpt>
      <trkpt lat="69.20356" lon="18.62509">
        <ele>120.765668</ele>
        <time>2020-08-27T16:10:16.350Z</time>
      </trkpt>
      <trkpt lat="69.20347" lon="18.62475">
        <ele>120.598227</ele>
        <time>2020-08-27T16:10:18.611Z</time>
      </trkpt>
      <trkpt lat="69.20295" lon="18.62253">
        <ele>119.609491</ele>
        <time>2020-08-27T16:10:33.207Z</time>
      </trkpt>
      <trkpt lat="69.2028" lon="18.62178">
        <ele>119.33029</ele>
        <time>2020-08-27T16:10:37.938Z</time>
      </trkpt>
      <trkpt lat="69.20267" lon="18.62108">
        <ele>119.06528</ele>
        <time>2020-08-27T16:10:42.419Z</time>
      </trkpt>
      <trkpt lat="69.20241" lon="18.6196">
        <ele>118.525213</ele>
        <time>2020-08-27T16:10:51.847Z</time>
      </trkpt>
      <trkpt lat="69.20229" lon="18.61876">
        <ele>118.22755</ele>
        <time>2020-08-27T16:10:56.971Z</time>
      </trkpt>
      <trkpt lat="69.20207" lon="18.61728">
        <ele>116.888506</ele>
        <time>2020-08-27T16:11:05.596Z</time>
      </trkpt>
      <trkpt lat="69.20186" lon="18.61579">
        <ele>115.430198</ele>
        <time>2020-08-27T16:11:13.637Z</time>
      </trkpt>
      <trkpt lat="69.20169" lon="18.61461">
        <ele>114.275932</ele>
        <time>2020-08-27T16:11:19.433Z</time>
      </trkpt>
      <trkpt lat="69.20164" lon="18.6143">
        <ele>113.971628</ele>
        <time>2020-08-27T16:11:20.919Z</time>
      </trkpt>
      <trkpt lat="69.20142" lon="18.61273">
        <ele>111.237723</ele>
        <time>2020-08-27T16:11:28.380Z</time>
      </trkpt>
      <trkpt lat="69.2014" lon="18.6126">
        <ele>110.981497</ele>
        <time>2020-08-27T16:11:28.966Z</time>
      </trkpt>
      <trkpt lat="69.20128" lon="18.61178">
        <ele>109.324678</ele>
        <time>2020-08-27T16:11:32.811Z</time>
      </trkpt>
      <trkpt lat="69.20121" lon="18.61135">
        <ele>108.425954</ele>
        <time>2020-08-27T16:11:34.862Z</time>
      </trkpt>
      <trkpt lat="69.20111" lon="18.61081">
        <ele>107.300119</ele>
        <time>2020-08-27T16:11:37.359Z</time>
      </trkpt>
      <trkpt lat="69.2008" lon="18.60944">
        <ele>104.248877</ele>
        <time>2020-08-27T16:11:44.154Z</time>
      </trkpt>
      <trkpt lat="69.20043" lon="18.60825">
        <ele>101.524792</ele>
        <time>2020-08-27T16:11:50.790Z</time>
      </trkpt>
      <trkpt lat="69.20025" lon="18.60776">
        <ele>100.311641</ele>
        <time>2020-08-27T16:11:53.741Z</time>
      </trkpt>
      <trkpt lat="69.20007" lon="18.60728">
        <ele>99.103141</ele>
        <time>2020-08-27T16:11:56.796Z</time>
      </trkpt>
      <trkpt lat="69.19963" lon="18.60621">
        <ele>96.304094</ele>
        <time>2020-08-27T16:12:04.054Z</time>
      </trkpt>
      <trkpt lat="69.19932" lon="18.60546">
        <ele>95.077126</ele>
        <time>2020-08-27T16:12:09.303Z</time>
      </trkpt>
      <trkpt lat="69.19876" lon="18.60405">
        <ele>93.970311</ele>
        <time>2020-08-27T16:12:20.185Z</time>
      </trkpt>
      <trkpt lat="69.19837" lon="18.6031">
        <ele>93.212135</ele>
        <time>2020-08-27T16:12:28.486Z</time>
      </trkpt>
      <trkpt lat="69.19811" lon="18.60245">
        <ele>92.737072</ele>
        <time>2020-08-27T16:12:34.224Z</time>
      </trkpt>
      <trkpt lat="69.19805" lon="18.6023">
        <ele>92.686893</ele>
        <time>2020-08-27T16:12:36.147Z</time>
      </trkpt>
      <trkpt lat="69.19746" lon="18.60085">
        <ele>92.211292</ele>
        <time>2020-08-27T16:12:50.495Z</time>
      </trkpt>
      <trkpt lat="69.19502" lon="18.5948">
        <ele>88.139684</ele>
        <time>2020-08-27T16:13:39.557Z</time>
      </trkpt>
      <trkpt lat="69.19401" lon="18.59232">
        <ele>84.949633</ele>
        <time>2020-08-27T16:13:57.971Z</time>
      </trkpt>
      <trkpt lat="69.19387" lon="18.59199">
        <ele>84.108419</ele>
        <time>2020-08-27T16:14:00.367Z</time>
      </trkpt>
      <trkpt lat="69.18983" lon="18.5825">
        <ele>58.06599</ele>
        <time>2020-08-27T16:15:04.453Z</time>
      </trkpt>
      <trkpt lat="69.18978" lon="18.58236">
        <ele>57.411003</ele>
        <time>2020-08-27T16:15:05.291Z</time>
      </trkpt>
      <trkpt lat="69.18958" lon="18.58188">
        <ele>55.158441</ele>
        <time>2020-08-27T16:15:08.233Z</time>
      </trkpt>
      <trkpt lat="69.18911" lon="18.5805">
        <ele>49.305011</ele>
        <time>2020-08-27T16:15:15.703Z</time>
      </trkpt>
      <trkpt lat="69.18873" lon="18.57899">
        <ele>43.626258</ele>
        <time>2020-08-27T16:15:22.872Z</time>
      </trkpt>
      <trkpt lat="69.18854" lon="18.57808">
        <ele>40.71549</ele>
        <time>2020-08-27T16:15:27.067Z</time>
      </trkpt>
      <trkpt lat="69.1882" lon="18.57647">
        <ele>35.562603</ele>
        <time>2020-08-27T16:15:34.585Z</time>
      </trkpt>
      <trkpt lat="69.18784" lon="18.57521">
        <ele>31.130903</ele>
        <time>2020-08-27T16:15:41.127Z</time>
      </trkpt>
      <trkpt lat="69.1874" lon="18.5743">
        <ele>28.222201</ele>
        <time>2020-08-27T16:15:47.510Z</time>
      </trkpt>
      <trkpt lat="69.18418" lon="18.56938">
        <ele>15.558951</ele>
        <time>2020-08-27T16:16:34.845Z</time>
      </trkpt>
      <trkpt lat="69.18415" lon="18.56935">
        <ele>15.528916</ele>
        <time>2020-08-27T16:16:35.161Z</time>
      </trkpt>
      <trkpt lat="69.18402" lon="18.57069">
        <ele>14.985651</ele>
        <time>2020-08-27T16:16:42.878Z</time>
      </trkpt>
      <trkpt lat="69.18353" lon="18.57576">
        <ele>14.329351</ele>
        <time>2020-08-27T16:17:18.151Z</time>
      </trkpt>
      <trkpt lat="69.1834" lon="18.57628">
        <ele>14.385016</ele>
        <time>2020-08-27T16:17:22.491Z</time>
      </trkpt>
      <trkpt lat="69.18319" lon="18.5766">
        <ele>14.44661</ele>
        <time>2020-08-27T16:17:27.060Z</time>
      </trkpt>
      <trkpt lat="69.18311" lon="18.57663">
        <ele>14.465374</ele>
        <time>2020-08-27T16:17:28.532Z</time>
      </trkpt>
      <trkpt lat="69.183" lon="18.57663">
        <ele>14.493286</ele>
        <time>2020-08-27T16:17:30.502Z</time>
      </trkpt>
      <trkpt lat="69.18259" lon="18.57657">
        <ele>14.345833</ele>
        <time>2020-08-27T16:17:37.921Z</time>
      </trkpt>
      <trkpt lat="69.18235" lon="18.5767">
        <ele>14.203294</ele>
        <time>2020-08-27T16:17:42.203Z</time>
      </trkpt>
      <trkpt lat="69.18131" lon="18.5786">
        <ele>13.485249</ele>
        <time>2020-08-27T16:18:01.924Z</time>
      </trkpt>
      <trkpt lat="69.18094" lon="18.57878">
        <ele>12.975031</ele>
        <time>2020-08-27T16:18:07.627Z</time>
      </trkpt>
      <trkpt lat="69.18068" lon="18.57855">
        <ele>12.609394</ele>
        <time>2020-08-27T16:18:11.578Z</time>
      </trkpt>
      <trkpt lat="69.18017" lon="18.57748">
        <ele>11.726106</ele>
        <time>2020-08-27T16:18:21.030Z</time>
      </trkpt>
      <trkpt lat="69.17951" lon="18.57659">
        <ele>10.761734</ele>
        <time>2020-08-27T16:18:31.650Z</time>
      </trkpt>
      <trkpt lat="69.17912" lon="18.57563">
        <ele>10.132933</ele>
        <time>2020-08-27T16:18:39.317Z</time>
      </trkpt>
      <trkpt lat="69.17891" lon="18.57527">
        <ele>9.836709</ele>
        <time>2020-08-27T16:18:42.962Z</time>
      </trkpt>
      <trkpt lat="69.17813" lon="18.57478">
        <ele>8.858083</ele>
        <time>2020-08-27T16:18:55.439Z</time>
      </trkpt>
      <trkpt lat="69.17756" lon="18.57479">
        <ele>8.697431</ele>
        <time>2020-08-27T16:19:04.691Z</time>
      </trkpt>
      <trkpt lat="69.17754" lon="18.5748">
        <ele>8.692468</ele>
        <time>2020-08-27T16:19:05.014Z</time>
      </trkpt>
      <trkpt lat="69.17678" lon="18.57511">
        <ele>8.511499</ele>
        <time>2020-08-27T16:19:18.419Z</time>
      </trkpt>
      <trkpt lat="69.17611" lon="18.5754">
        <ele>8.468608</ele>
        <time>2020-08-27T16:19:30.720Z</time>
      </trkpt>
      <trkpt lat="69.1754" lon="18.57571">
        <ele>8.705642</ele>
        <time>2020-08-27T16:19:44.382Z</time>
      </trkpt>
      <trkpt lat="69.17517" lon="18.5758">
        <ele>8.783398</ele>
        <time>2020-08-27T16:19:48.908Z</time>
      </trkpt>
      <trkpt lat="69.17389" lon="18.57637">
        <ele>9.239278</ele>
        <time>2020-08-27T16:20:13.809Z</time>
      </trkpt>
      <trkpt lat="69.1727" lon="18.57688">
        <ele>9.680589</ele>
        <time>2020-08-27T16:20:36.504Z</time>
      </trkpt>
      <trkpt lat="69.17192" lon="18.57722">
        <ele>9.883889</ele>
        <time>2020-08-27T16:20:51.173Z</time>
      </trkpt>
      <trkpt lat="69.17144" lon="18.57743">
        <ele>10.011892</ele>
        <time>2020-08-27T16:21:00.377Z</time>
      </trkpt>
      <trkpt lat="69.17001" lon="18.57806">
        <ele>10.366462</ele>
        <time>2020-08-27T16:21:27.325Z</time>
      </trkpt>
      <trkpt lat="69.1685" lon="18.57872">
        <ele>10.742998</ele>
        <time>2020-08-27T16:21:55.785Z</time>
      </trkpt>
      <trkpt lat="69.16742" lon="18.5792">
        <ele>11.023593</ele>
        <time>2020-08-27T16:22:16.192Z</time>
      </trkpt>
      <trkpt lat="69.16611" lon="18.57977">
        <ele>11.567752</ele>
        <time>2020-08-27T16:22:41.288Z</time>
      </trkpt>
      <trkpt lat="69.16573" lon="18.57994">
        <ele>11.726001</ele>
        <time>2020-08-27T16:22:48.710Z</time>
      </trkpt>
      <trkpt lat="69.16449" lon="18.58048">
        <ele>12.381285</ele>
        <time>2020-08-27T16:23:13.496Z</time>
      </trkpt>
      <trkpt lat="69.16432" lon="18.58055">
        <ele>12.468871</ele>
        <time>2020-08-27T16:23:16.781Z</time>
      </trkpt>
      <trkpt lat="69.16423" lon="18.58059">
        <ele>12.518019</ele>
        <time>2020-08-27T16:23:18.599Z</time>
      </trkpt>
      <trkpt lat="69.16374" lon="18.58081">
        <ele>12.770067</ele>
        <time>2020-08-27T16:23:28.294Z</time>
      </trkpt>
      <trkpt lat="69.16219" lon="18.5815">
        <ele>13.461619</ele>
        <time>2020-08-27T16:23:58.586Z</time>
      </trkpt>
      <trkpt lat="69.16159" lon="18.58176">
        <ele>13.663493</ele>
        <time>2020-08-27T16:24:10.201Z</time>
      </trkpt>
      <trkpt lat="69.16155" lon="18.58178">
        <ele>13.675566</ele>
        <time>2020-08-27T16:24:10.937Z</time>
      </trkpt>
      <trkpt lat="69.16151" lon="18.5818">
        <ele>13.688245</ele>
        <time>2020-08-27T16:24:11.732Z</time>
      </trkpt>
      <trkpt lat="69.16063" lon="18.58219">
        <ele>13.961054</ele>
        <time>2020-08-27T16:24:28.516Z</time>
      </trkpt>
      <trkpt lat="69.1606" lon="18.5822">
        <ele>13.968174</ele>
        <time>2020-08-27T16:24:28.964Z</time>
      </trkpt>
      <trkpt lat="69.15976" lon="18.58257">
        <ele>14.130179</ele>
        <time>2020-08-27T16:24:44.766Z</time>
      </trkpt>
      <trkpt lat="69.14865" lon="18.58751">
        <ele>15.378279</ele>
        <time>2020-08-27T16:28:09.801Z</time>
      </trkpt>
      <trkpt lat="69.14858" lon="18.58754">
        <ele>15.371366</ele>
        <time>2020-08-27T16:28:11.142Z</time>
      </trkpt>
      <trkpt lat="69.14826" lon="18.5877">
        <ele>15.34109</ele>
        <time>2020-08-27T16:28:16.696Z</time>
      </trkpt>
      <trkpt lat="69.14788" lon="18.58794">
        <ele>15.301087</ele>
        <time>2020-08-27T16:28:23.312Z</time>
      </trkpt>
      <trkpt lat="69.14786" lon="18.58796">
        <ele>15.286566</ele>
        <time>2020-08-27T16:28:23.719Z</time>
      </trkpt>
      <trkpt lat="69.14779" lon="18.588">
        <ele>15.24628</ele>
        <time>2020-08-27T16:28:24.790Z</time>
      </trkpt>
      <trkpt lat="69.14764" lon="18.58812">
        <ele>15.148783</ele>
        <time>2020-08-27T16:28:27.438Z</time>
      </trkpt>
      <trkpt lat="69.14746" lon="18.58827">
        <ele>15.032142</ele>
        <time>2020-08-27T16:28:30.577Z</time>
      </trkpt>
      <trkpt lat="69.14675" lon="18.58914">
        <ele>14.562814</ele>
        <time>2020-08-27T16:28:42.999Z</time>
      </trkpt>
      <trkpt lat="69.14612" lon="18.59004">
        <ele>14.171172</ele>
        <time>2020-08-27T16:28:54.192Z</time>
      </trkpt>
      <trkpt lat="69.14588" lon="18.5904">
        <ele>14.08166</ele>
        <time>2020-08-27T16:28:58.737Z</time>
      </trkpt>
      <trkpt lat="69.14585" lon="18.59044">
        <ele>14.071297</ele>
        <time>2020-08-27T16:28:59.236Z</time>
      </trkpt>
      <trkpt lat="69.14577" lon="18.59054">
        <ele>14.041968</ele>
        <time>2020-08-27T16:29:00.757Z</time>
      </trkpt>
      <trkpt lat="69.14562" lon="18.59072">
        <ele>13.990425</ele>
        <time>2020-08-27T16:29:03.334Z</time>
      </trkpt>
      <trkpt lat="69.14526" lon="18.59107">
        <ele>13.867246</ele>
        <time>2020-08-27T16:29:09.663Z</time>
      </trkpt>
      <trkpt lat="69.1451" lon="18.59139">
        <ele>13.804169</ele>
        <time>2020-08-27T16:29:13.009Z</time>
      </trkpt>
      <trkpt lat="69.14474" lon="18.59327">
        <ele>13.724301</ele>
        <time>2020-08-27T16:29:26.658Z</time>
      </trkpt>
      <trkpt lat="69.14474" lon="18.59328">
        <ele>13.726707</ele>
        <time>2020-08-27T16:29:26.744Z</time>
      </trkpt>
      <trkpt lat="69.14469" lon="18.59345">
        <ele>13.760678</ele>
        <time>2020-08-27T16:29:28.234Z</time>
      </trkpt>
      <trkpt lat="69.14461" lon="18.59368">
        <ele>13.80725</ele>
        <time>2020-08-27T16:29:30.219Z</time>
      </trkpt>
      <trkpt lat="69.14454" lon="18.59388">
        <ele>13.849892</ele>
        <time>2020-08-27T16:29:32.088Z</time>
      </trkpt>
      <trkpt lat="69.14443" lon="18.59423">
        <ele>13.922898</ele>
        <time>2020-08-27T16:29:35.493Z</time>
      </trkpt>
      <trkpt lat="69.14434" lon="18.59449">
        <ele>13.978896</ele>
        <time>2020-08-27T16:29:37.924Z</time>
      </trkpt>
      <trkpt lat="69.14427" lon="18.59466">
        <ele>14.01675</ele>
        <time>2020-08-27T16:29:39.692Z</time>
      </trkpt>
      <trkpt lat="69.14416" lon="18.59493">
        <ele>14.079074</ele>
        <time>2020-08-27T16:29:42.584Z</time>
      </trkpt>
      <trkpt lat="69.1439" lon="18.59571">
        <ele>14.244209</ele>
        <time>2020-08-27T16:29:50.183Z</time>
      </trkpt>
      <trkpt lat="69.1438" lon="18.59607">
        <ele>14.314719</ele>
        <time>2020-08-27T16:29:53.598Z</time>
      </trkpt>
      <trkpt lat="69.14375" lon="18.59628">
        <ele>14.352981</ele>
        <time>2020-08-27T16:29:55.590Z</time>
      </trkpt>
      <trkpt lat="69.14347" lon="18.59744">
        <ele>14.170981</ele>
        <time>2020-08-27T16:30:05.561Z</time>
      </trkpt>
      <trkpt lat="69.14293" lon="18.59868">
        <ele>13.752867</ele>
        <time>2020-08-27T16:30:17.265Z</time>
      </trkpt>
      <trkpt lat="69.14286" lon="18.59889">
        <ele>13.692089</ele>
        <time>2020-08-27T16:30:18.904Z</time>
      </trkpt>
      <trkpt lat="69.14284" lon="18.59895">
        <ele>13.677169</ele>
        <time>2020-08-27T16:30:19.281Z</time>
      </trkpt>
      <trkpt lat="69.14281" lon="18.59907">
        <ele>13.642553</ele>
        <time>2020-08-27T16:30:20.179Z</time>
      </trkpt>
      <trkpt lat="69.14267" lon="18.59936">
        <ele>13.539223</ele>
        <time>2020-08-27T16:30:22.665Z</time>
      </trkpt>
      <trkpt lat="69.14258" lon="18.59961">
        <ele>13.46449</ele>
        <time>2020-08-27T16:30:24.543Z</time>
      </trkpt>
      <trkpt lat="69.14256" lon="18.59966">
        <ele>13.448124</ele>
        <time>2020-08-27T16:30:24.960Z</time>
      </trkpt>
      <trkpt lat="69.14209" lon="18.59905">
        <ele>12.659463</ele>
        <time>2020-08-27T16:30:32.226Z</time>
      </trkpt>
      <trkpt lat="69.14144" lon="18.59825">
        <ele>11.159484</ele>
        <time>2020-08-27T16:30:42.006Z</time>
      </trkpt>
      <trkpt lat="69.14131" lon="18.59808">
        <ele>10.847772</ele>
        <time>2020-08-27T16:30:43.996Z</time>
      </trkpt>
      <trkpt lat="69.14119" lon="18.59793">
        <ele>10.566269</ele>
        <time>2020-08-27T16:30:45.808Z</time>
      </trkpt>
      <trkpt lat="69.1411" lon="18.59782">
        <ele>10.359313</ele>
        <time>2020-08-27T16:30:47.101Z</time>
      </trkpt>
      <trkpt lat="69.14079" lon="18.59744">
        <ele>9.635636</ele>
        <time>2020-08-27T16:30:51.749Z</time>
      </trkpt>
      <trkpt lat="69.14064" lon="18.59725">
        <ele>9.392485</ele>
        <time>2020-08-27T16:30:54.016Z</time>
      </trkpt>
      <trkpt lat="69.13939" lon="18.5957">
        <ele>7.93072</ele>
        <time>2020-08-27T16:31:15.192Z</time>
      </trkpt>
      <trkpt lat="69.13928" lon="18.59556">
        <ele>7.803167</ele>
        <time>2020-08-27T16:31:17.145Z</time>
      </trkpt>
      <trkpt lat="69.139" lon="18.59521">
        <ele>7.550958</ele>
        <time>2020-08-27T16:31:22.368Z</time>
      </trkpt>
      <trkpt lat="69.13903" lon="18.59498">
        <ele>7.529983</ele>
        <time>2020-08-27T16:31:24.874Z</time>
      </trkpt>
      <trkpt lat="69.13908" lon="18.59456">
        <ele>7.491444</ele>
        <time>2020-08-27T16:31:29.530Z</time>
      </trkpt>
      <trkpt lat="69.13901" lon="18.5945">
        <ele>7.47273</ele>
        <time>2020-08-27T16:31:30.799Z</time>
      </trkpt>
      <trkpt lat="69.1387" lon="18.59413">
        <ele>7.391293</ele>
        <time>2020-08-27T16:31:36.615Z</time>
      </trkpt>
      <trkpt lat="69.13856" lon="18.59398">
        <ele>7.353935</ele>
        <time>2020-08-27T16:31:39.184Z</time>
      </trkpt>
      <trkpt lat="69.13828" lon="18.59372">
        <ele>7.28259</ele>
        <time>2020-08-27T16:31:44.251Z</time>
      </trkpt>
      <trkpt lat="69.13757" lon="18.59299">
        <ele>7.128421</ele>
        <time>2020-08-27T16:31:57.449Z</time>
      </trkpt>
      <trkpt lat="69.13749" lon="18.59296">
        <ele>7.123789</ele>
        <time>2020-08-27T16:31:58.846Z</time>
      </trkpt>
      <trkpt lat="69.13746" lon="18.59323">
        <ele>7.118024</ele>
        <time>2020-08-27T16:32:00.701Z</time>
      </trkpt>
      <trkpt lat="69.13745" lon="18.59327">
        <ele>7.117113</ele>
        <time>2020-08-27T16:32:01.016Z</time>
      </trkpt>
      <trkpt lat="69.13727" lon="18.593">
        <ele>7.104883</ele>
        <time>2020-08-27T16:32:04.622Z</time>
      </trkpt>
      <trkpt lat="69.13643" lon="18.59151">
        <ele>7.046172</ele>
        <time>2020-08-27T16:32:22.454Z</time>
      </trkpt>
      <trkpt lat="69.13641" lon="18.59147">
        <ele>7.04483</ele>
        <time>2020-08-27T16:32:22.813Z</time>
      </trkpt>
      <trkpt lat="69.13643" lon="18.59151">
        <ele>7.043489</ele>
        <time>2020-08-27T16:32:23.249Z</time>
      </trkpt>
      <trkpt lat="69.13727" lon="18.593">
        <ele>6.861218</ele>
        <time>2020-08-27T16:32:40.358Z</time>
      </trkpt>
      <trkpt lat="69.13745" lon="18.59327">
        <ele>6.816805</ele>
        <time>2020-08-27T16:32:43.905Z</time>
      </trkpt>
      <trkpt lat="69.13746" lon="18.59323">
        <ele>6.813498</ele>
        <time>2020-08-27T16:32:44.153Z</time>
      </trkpt>
      <trkpt lat="69.13749" lon="18.59296">
        <ele>6.792563</ele>
        <time>2020-08-27T16:32:45.862Z</time>
      </trkpt>
      <trkpt lat="69.13752" lon="18.59205">
        <ele>6.722219</ele>
        <time>2020-08-27T16:32:51.596Z</time>
      </trkpt>
      <trkpt lat="69.13765" lon="18.58954">
        <ele>7.536704</ele>
        <time>2020-08-27T16:33:08.425Z</time>
      </trkpt>
      <trkpt lat="69.13765" lon="18.58884">
        <ele>7.947425</ele>
        <time>2020-08-27T16:33:13.394Z</time>
      </trkpt>
      <trkpt lat="69.13759" lon="18.58796">
        <ele>8.465235</ele>
        <time>2020-08-27T16:33:19.960Z</time>
      </trkpt>
      <trkpt lat="69.13436" lon="18.56852">
        <ele>40.320119</ele>
        <time>2020-08-27T16:37:16.572Z</time>
      </trkpt>
      <trkpt lat="69.13426" lon="18.56796">
        <ele>41.74815</ele>
        <time>2020-08-27T16:37:31.414Z</time>
      </trkpt>
      <trkpt lat="69.13417" lon="18.56757">
        <ele>44.269356</ele>
        <time>2020-08-27T16:37:43.509Z</time>
      </trkpt>
      <trkpt lat="69.13404" lon="18.5672">
        <ele>47.237726</ele>
        <time>2020-08-27T16:37:56.599Z</time>
      </trkpt>
      <trkpt lat="69.13391" lon="18.56702">
        <ele>49.536967</ele>
        <time>2020-08-27T16:38:07.659Z</time>
      </trkpt>
      <trkpt lat="69.13393" lon="18.56685">
        <ele>50.561303</ele>
        <time>2020-08-27T16:38:12.184Z</time>
      </trkpt>
      <trkpt lat="69.13397" lon="18.56652">
        <ele>52.545016</ele>
        <time>2020-08-27T16:38:22.373Z</time>
      </trkpt>
      <trkpt lat="69.13419" lon="18.56541">
        <ele>59.740858</ele>
        <time>2020-08-27T16:38:57.938Z</time>
      </trkpt>
      <trkpt lat="69.13447" lon="18.56459">
        <ele>66.2116</ele>
        <time>2020-08-27T16:39:30.299Z</time>
      </trkpt>
      <trkpt lat="69.13505" lon="18.56351">
        <ele>72.946464</ele>
        <time>2020-08-27T16:40:12.356Z</time>
      </trkpt>
      <trkpt lat="69.13526" lon="18.56314">
        <ele>74.275215</ele>
        <time>2020-08-27T16:40:21.711Z</time>
      </trkpt>
      <trkpt lat="69.1357" lon="18.5624">
        <ele>77.118709</ele>
        <time>2020-08-27T16:40:37.974Z</time>
      </trkpt>
      <trkpt lat="69.13614" lon="18.56195">
        <ele>79.705237</ele>
        <time>2020-08-27T16:40:49.510Z</time>
      </trkpt>
      <trkpt lat="69.13791" lon="18.56144">
        <ele>74.347952</ele>
        <time>2020-08-27T16:41:11.963Z</time>
      </trkpt>
      <trkpt lat="69.13849" lon="18.56115">
        <ele>71.14945</ele>
        <time>2020-08-27T16:41:18.961Z</time>
      </trkpt>
      <trkpt lat="69.14266" lon="18.55833">
        <ele>44.996059</ele>
        <time>2020-08-27T16:42:09.323Z</time>
      </trkpt>
      <trkpt lat="69.14353" lon="18.55785">
        <ele>39.390375</ele>
        <time>2020-08-27T16:42:19.540Z</time>
      </trkpt>
      <trkpt lat="69.14544" lon="18.55735">
        <ele>27.398219</ele>
        <time>2020-08-27T16:42:41.825Z</time>
      </trkpt>
      <trkpt lat="69.14603" lon="18.5568">
        <ele>24.586492</ele>
        <time>2020-08-27T16:42:49.214Z</time>
      </trkpt>
      <trkpt lat="69.1481" lon="18.55435">
        <ele>16.863708</ele>
        <time>2020-08-27T16:43:18.753Z</time>
      </trkpt>
      <trkpt lat="69.14875" lon="18.55359">
        <ele>15.418993</ele>
        <time>2020-08-27T16:43:28.910Z</time>
      </trkpt>
      <trkpt lat="69.14952" lon="18.55267">
        <ele>14.512268</ele>
        <time>2020-08-27T16:43:41.478Z</time>
      </trkpt>
      <trkpt lat="69.14964" lon="18.55253">
        <ele>14.376574</ele>
        <time>2020-08-27T16:43:43.414Z</time>
      </trkpt>
      <trkpt lat="69.15189" lon="18.54986">
        <ele>13.460903</ele>
        <time>2020-08-27T16:44:25.404Z</time>
      </trkpt>
      <trkpt lat="69.15303" lon="18.54852">
        <ele>13.860559</ele>
        <time>2020-08-27T16:44:48.851Z</time>
      </trkpt>
      <trkpt lat="69.15335" lon="18.54814">
        <ele>13.9731</ele>
        <time>2020-08-27T16:44:55.681Z</time>
      </trkpt>
      <trkpt lat="69.15403" lon="18.5476">
        <ele>14.391482</ele>
        <time>2020-08-27T16:45:09.794Z</time>
      </trkpt>
      <trkpt lat="69.15456" lon="18.54756">
        <ele>14.727288</ele>
        <time>2020-08-27T16:45:20.317Z</time>
      </trkpt>
      <trkpt lat="69.15504" lon="18.54762">
        <ele>15.030856</ele>
        <time>2020-08-27T16:45:29.870Z</time>
      </trkpt>
      <trkpt lat="69.15543" lon="18.54768">
        <ele>15.320308</ele>
        <time>2020-08-27T16:45:37.609Z</time>
      </trkpt>
      <trkpt lat="69.15589" lon="18.54778">
        <ele>15.711643</ele>
        <time>2020-08-27T16:45:46.924Z</time>
      </trkpt>
      <trkpt lat="69.15629" lon="18.54784">
        <ele>16.043651</ele>
        <time>2020-08-27T16:45:54.993Z</time>
      </trkpt>
      <trkpt lat="69.1573" lon="18.54784">
        <ele>16.985877</ele>
        <time>2020-08-27T16:46:16.335Z</time>
      </trkpt>
      <trkpt lat="69.15758" lon="18.54766">
        <ele>17.315211</ele>
        <time>2020-08-27T16:46:22.549Z</time>
      </trkpt>
      <trkpt lat="69.15805" lon="18.54705">
        <ele>17.913214</ele>
        <time>2020-08-27T16:46:33.891Z</time>
      </trkpt>
      <trkpt lat="69.15854" lon="18.54593">
        <ele>18.640974</ele>
        <time>2020-08-27T16:46:47.737Z</time>
      </trkpt>
      <trkpt lat="69.16018" lon="18.54146">
        <ele>20.748895</ele>
        <time>2020-08-27T16:47:35.623Z</time>
      </trkpt>
      <trkpt lat="69.16033" lon="18.54106">
        <ele>20.84648</ele>
        <time>2020-08-27T16:47:39.674Z</time>
      </trkpt>
      <trkpt lat="69.16063" lon="18.54024">
        <ele>21.043556</ele>
        <time>2020-08-27T16:47:47.743Z</time>
      </trkpt>
      <trkpt lat="69.16077" lon="18.53985">
        <ele>21.138507</ele>
        <time>2020-08-27T16:47:51.572Z</time>
      </trkpt>
      <trkpt lat="69.1608" lon="18.53976">
        <ele>21.157835</ele>
        <time>2020-08-27T16:47:52.354Z</time>
      </trkpt>
      <trkpt lat="69.16264" lon="18.53474">
        <ele>21.796726</ele>
        <time>2020-08-27T16:48:39.646Z</time>
      </trkpt>
      <trkpt lat="69.1638" lon="18.5317">
        <ele>22.079797</ele>
        <time>2020-08-27T16:49:09.006Z</time>
      </trkpt>
      <trkpt lat="69.16415" lon="18.53111">
        <ele>22.007496</ele>
        <time>2020-08-27T16:49:16.392Z</time>
      </trkpt>
      <trkpt lat="69.16475" lon="18.53042">
        <ele>21.892492</ele>
        <time>2020-08-27T16:49:27.837Z</time>
      </trkpt>
      <trkpt lat="69.16721" lon="18.52806">
        <ele>20.914163</ele>
        <time>2020-08-27T16:50:10.795Z</time>
      </trkpt>
      <trkpt lat="69.16773" lon="18.52755">
        <ele>20.807336</ele>
        <time>2020-08-27T16:50:19.945Z</time>
      </trkpt>
      <trkpt lat="69.17668" lon="18.51886">
        <ele>18.985126</ele>
        <time>2020-08-27T16:53:04.214Z</time>
      </trkpt>
      <trkpt lat="69.17731" lon="18.51824">
        <ele>18.863399</ele>
        <time>2020-08-27T16:53:15.735Z</time>
      </trkpt>
      <trkpt lat="69.17762" lon="18.51795">
        <ele>18.721373</ele>
        <time>2020-08-27T16:53:21.225Z</time>
      </trkpt>
      <trkpt lat="69.17823" lon="18.51736">
        <ele>18.423457</ele>
        <time>2020-08-27T16:53:32.115Z</time>
      </trkpt>
      <trkpt lat="69.17901" lon="18.51646">
        <ele>18.039141</ele>
        <time>2020-08-27T16:53:45.773Z</time>
      </trkpt>
      <trkpt lat="69.17979" lon="18.51504">
        <ele>17.145976</ele>
        <time>2020-08-27T16:54:00.497Z</time>
      </trkpt>
      <trkpt lat="69.18379" lon="18.50571">
        <ele>11.380053</ele>
        <time>2020-08-27T16:55:19.791Z</time>
      </trkpt>
      <trkpt lat="69.18462" lon="18.50378">
        <ele>10.12702</ele>
        <time>2020-08-27T16:55:36.140Z</time>
      </trkpt>
      <trkpt lat="69.18501" lon="18.50285">
        <ele>9.682508</ele>
        <time>2020-08-27T16:55:44.012Z</time>
      </trkpt>
      <trkpt lat="69.18595" lon="18.50066">
        <ele>8.627522</ele>
        <time>2020-08-27T16:56:03.408Z</time>
      </trkpt>
      <trkpt lat="69.186" lon="18.50052">
        <ele>8.569057</ele>
        <time>2020-08-27T16:56:04.476Z</time>
      </trkpt>
      <trkpt lat="69.18628" lon="18.49987">
        <ele>8.369194</ele>
        <time>2020-08-27T16:56:10.424Z</time>
      </trkpt>
      <trkpt lat="69.18703" lon="18.49812">
        <ele>7.835937</ele>
        <time>2020-08-27T16:56:26.492Z</time>
      </trkpt>
      <trkpt lat="69.18711" lon="18.49793">
        <ele>7.778032</ele>
        <time>2020-08-27T16:56:28.138Z</time>
      </trkpt>
      <trkpt lat="69.18751" lon="18.49701">
        <ele>7.512981</ele>
        <time>2020-08-27T16:56:36.710Z</time>
      </trkpt>
      <trkpt lat="69.18744" lon="18.49674">
        <ele>7.461413</ele>
        <time>2020-08-27T16:56:39.341Z</time>
      </trkpt>
      <trkpt lat="69.18749" lon="18.49665">
        <ele>7.434464</ele>
        <time>2020-08-27T16:56:40.314Z</time>
      </trkpt>
      <trkpt lat="69.1878" lon="18.49605">
        <ele>7.268029</ele>
        <time>2020-08-27T16:56:46.763Z</time>
      </trkpt>
      <trkpt lat="69.18825" lon="18.49497">
        <ele>6.998556</ele>
        <time>2020-08-27T16:56:57.075Z</time>
      </trkpt>
      <trkpt lat="69.18865" lon="18.49404">
        <ele>6.766794</ele>
        <time>2020-08-27T16:57:05.992Z</time>
      </trkpt>
      <trkpt lat="69.18881" lon="18.49369">
        <ele>6.675028</ele>
        <time>2020-08-27T16:57:09.470Z</time>
      </trkpt>
      <trkpt lat="69.18891" lon="18.49347">
        <ele>6.615782</ele>
        <time>2020-08-27T16:57:11.767Z</time>
      </trkpt>
      <trkpt lat="69.18902" lon="18.49326">
        <ele>6.552603</ele>
        <time>2020-08-27T16:57:14.112Z</time>
      </trkpt>
      <trkpt lat="69.19061" lon="18.49055">
        <ele>5.679942</ele>
        <time>2020-08-27T16:57:46.144Z</time>
      </trkpt>
      <trkpt lat="69.19069" lon="18.4904">
        <ele>5.629283</ele>
        <time>2020-08-27T16:57:47.897Z</time>
      </trkpt>
      <trkpt lat="69.19077" lon="18.49028">
        <ele>5.587992</ele>
        <time>2020-08-27T16:57:49.285Z</time>
      </trkpt>
      <trkpt lat="69.1913" lon="18.48954">
        <ele>5.293044</ele>
        <time>2020-08-27T16:57:59.576Z</time>
      </trkpt>
      <trkpt lat="69.19323" lon="18.4864">
        <ele>4.252756</ele>
        <time>2020-08-27T16:58:38.194Z</time>
      </trkpt>
      <trkpt lat="69.19325" lon="18.48638">
        <ele>4.240236</ele>
        <time>2020-08-27T16:58:38.629Z</time>
      </trkpt>
      <trkpt lat="69.1933" lon="18.48632">
        <ele>4.219803</ele>
        <time>2020-08-27T16:58:39.611Z</time>
      </trkpt>
      <trkpt lat="69.1946" lon="18.48416">
        <ele>3.773272</ele>
        <time>2020-08-27T16:59:06.279Z</time>
      </trkpt>
      <trkpt lat="69.19479" lon="18.48383">
        <ele>3.706768</ele>
        <time>2020-08-27T16:59:10.322Z</time>
      </trkpt>
      <trkpt lat="69.19484" lon="18.48375">
        <ele>3.691629</ele>
        <time>2020-08-27T16:59:11.302Z</time>
      </trkpt>
      <trkpt lat="69.19572" lon="18.48229">
        <ele>3.470985</ele>
        <time>2020-08-27T16:59:29.695Z</time>
      </trkpt>
      <trkpt lat="69.19582" lon="18.48215">
        <ele>3.447791</ele>
        <time>2020-08-27T16:59:31.617Z</time>
      </trkpt>
      <trkpt lat="69.19585" lon="18.48208">
        <ele>3.438736</ele>
        <time>2020-08-27T16:59:32.327Z</time>
      </trkpt>
      <trkpt lat="69.19743" lon="18.47948">
        <ele>3.152062</ele>
        <time>2020-08-27T17:00:05.275Z</time>
      </trkpt>
      <trkpt lat="69.19937" lon="18.47632">
        <ele>3.012544</ele>
        <time>2020-08-27T17:00:46.686Z</time>
      </trkpt>
      <trkpt lat="69.20082" lon="18.47394">
        <ele>3.001012</ele>
        <time>2020-08-27T17:01:17.928Z</time>
      </trkpt>
      <trkpt lat="69.20182" lon="18.47227">
        <ele>3.090594</ele>
        <time>2020-08-27T17:01:39.551Z</time>
      </trkpt>
      <trkpt lat="69.20186" lon="18.47203">
        <ele>3.100418</ele>
        <time>2020-08-27T17:01:41.427Z</time>
      </trkpt>
      <trkpt lat="69.20185" lon="18.47141">
        <ele>3.12257</ele>
        <time>2020-08-27T17:01:45.637Z</time>
      </trkpt>
      <trkpt lat="69.20196" lon="18.47103">
        <ele>3.139882</ele>
        <time>2020-08-27T17:01:48.966Z</time>
      </trkpt>
      <trkpt lat="69.20214" lon="18.47094">
        <ele>3.157649</ele>
        <time>2020-08-27T17:01:52.363Z</time>
      </trkpt>
      <trkpt lat="69.20245" lon="18.47127">
        <ele>3.216177</ele>
        <time>2020-08-27T17:01:58.764Z</time>
      </trkpt>
      <trkpt lat="69.20272" lon="18.47086">
        <ele>3.319019</ele>
        <time>2020-08-27T17:02:04.691Z</time>
      </trkpt>
      <trkpt lat="69.20279" lon="18.47074">
        <ele>3.34883</ele>
        <time>2020-08-27T17:02:06.401Z</time>
      </trkpt>
      <trkpt lat="69.20306" lon="18.47027">
        <ele>3.453942</ele>
        <time>2020-08-27T17:02:12.504Z</time>
      </trkpt>
      <trkpt lat="69.20427" lon="18.46784">
        <ele>3.896763</ele>
        <time>2020-08-27T17:02:42.149Z</time>
      </trkpt>
      <trkpt lat="69.20443" lon="18.4672">
        <ele>3.95833</ele>
        <time>2020-08-27T17:02:47.517Z</time>
      </trkpt>
      <trkpt lat="69.20446" lon="18.46715">
        <ele>3.965501</ele>
        <time>2020-08-27T17:02:48.210Z</time>
      </trkpt>
      <trkpt lat="69.20474" lon="18.46672">
        <ele>4.037394</ele>
        <time>2020-08-27T17:02:54.412Z</time>
      </trkpt>
      <trkpt lat="69.20479" lon="18.46667">
        <ele>4.047547</ele>
        <time>2020-08-27T17:02:55.357Z</time>
      </trkpt>
      <trkpt lat="69.20521" lon="18.46643">
        <ele>4.144235</ele>
        <time>2020-08-27T17:03:03.658Z</time>
      </trkpt>
      <trkpt lat="69.20541" lon="18.46659">
        <ele>4.179984</ele>
        <time>2020-08-27T17:03:07.431Z</time>
      </trkpt>
      <trkpt lat="69.20614" lon="18.46669">
        <ele>4.062988</ele>
        <time>2020-08-27T17:03:21.080Z</time>
      </trkpt>
      <trkpt lat="69.20741" lon="18.46735">
        <ele>3.861048</ele>
        <time>2020-08-27T17:03:44.015Z</time>
      </trkpt>
      <trkpt lat="69.20757" lon="18.46743">
        <ele>3.837241</ele>
        <time>2020-08-27T17:03:46.829Z</time>
      </trkpt>
      <trkpt lat="69.20797" lon="18.46759">
        <ele>3.77763</ele>
        <time>2020-08-27T17:03:54.019Z</time>
      </trkpt>
      <trkpt lat="69.20926" lon="18.46816">
        <ele>3.615787</ele>
        <time>2020-08-27T17:04:17.994Z</time>
      </trkpt>
      <trkpt lat="69.20936" lon="18.46818">
        <ele>3.610959</ele>
        <time>2020-08-27T17:04:19.805Z</time>
      </trkpt>
      <trkpt lat="69.2096" lon="18.46822">
        <ele>3.599031</ele>
        <time>2020-08-27T17:04:24.289Z</time>
      </trkpt>
      <trkpt lat="69.20975" lon="18.46825">
        <ele>3.591609</ele>
        <time>2020-08-27T17:04:27.068Z</time>
      </trkpt>
      <trkpt lat="69.21005" lon="18.46837">
        <ele>3.576141</ele>
        <time>2020-08-27T17:04:32.854Z</time>
      </trkpt>
      <trkpt lat="69.21012" lon="18.4684">
        <ele>3.572825</ele>
        <time>2020-08-27T17:04:34.103Z</time>
      </trkpt>
      <trkpt lat="69.21018" lon="18.46844">
        <ele>3.569922</ele>
        <time>2020-08-27T17:04:35.172Z</time>
      </trkpt>
      <trkpt lat="69.21023" lon="18.4685">
        <ele>3.567113</ele>
        <time>2020-08-27T17:04:36.248Z</time>
      </trkpt>
      <trkpt lat="69.2103" lon="18.46861">
        <ele>3.562875</ele>
        <time>2020-08-27T17:04:37.797Z</time>
      </trkpt>
      <trkpt lat="69.21276" lon="18.46972">
        <ele>3.443746</ele>
        <time>2020-08-27T17:05:23.087Z</time>
      </trkpt>
      <trkpt lat="69.21286" lon="18.46972">
        <ele>3.479096</ele>
        <time>2020-08-27T17:05:24.980Z</time>
      </trkpt>
      <trkpt lat="69.21291" lon="18.46965">
        <ele>3.497047</ele>
        <time>2020-08-27T17:05:26.232Z</time>
      </trkpt>
      <trkpt lat="69.21299" lon="18.46957">
        <ele>3.52503</ele>
        <time>2020-08-27T17:05:28.202Z</time>
      </trkpt>
      <trkpt lat="69.2132" lon="18.46967">
        <ele>3.597528</ele>
        <time>2020-08-27T17:05:33.478Z</time>
      </trkpt>
      <trkpt lat="69.2134" lon="18.46969">
        <ele>3.664554</ele>
        <time>2020-08-27T17:05:38.263Z</time>
      </trkpt>
      <trkpt lat="69.21351" lon="18.46963">
        <ele>3.701916</ele>
        <time>2020-08-27T17:05:41.132Z</time>
      </trkpt>
      <trkpt lat="69.21365" lon="18.4694">
        <ele>3.758397</ele>
        <time>2020-08-27T17:05:45.164Z</time>
      </trkpt>
      <trkpt lat="69.21374" lon="18.46921">
        <ele>3.795036</ele>
        <time>2020-08-27T17:05:47.845Z</time>
      </trkpt>
      <trkpt lat="69.21375" lon="18.46915">
        <ele>3.8045</ele>
        <time>2020-08-27T17:05:48.585Z</time>
      </trkpt>
      <trkpt lat="69.21468" lon="18.46565">
        <ele>4.945586</ele>
        <time>2020-08-27T17:06:21.322Z</time>
      </trkpt>
      <trkpt lat="69.21485" lon="18.46505">
        <ele>5.193894</ele>
        <time>2020-08-27T17:06:27.359Z</time>
      </trkpt>
      <trkpt lat="69.21486" lon="18.46509">
        <ele>5.214816</ele>
        <time>2020-08-27T17:06:27.815Z</time>
      </trkpt>
      <trkpt lat="69.21492" lon="18.46521">
        <ele>5.276395</ele>
        <time>2020-08-27T17:06:29.234Z</time>
      </trkpt>
      <trkpt lat="69.21598" lon="18.46114">
        <ele>7.266638</ele>
        <time>2020-08-27T17:07:07.653Z</time>
      </trkpt>
      <trkpt lat="69.21661" lon="18.4587">
        <ele>8.694025</ele>
        <time>2020-08-27T17:07:31.490Z</time>
      </trkpt>
      <trkpt lat="69.21715" lon="18.45661">
        <ele>9.980577</ele>
        <time>2020-08-27T17:07:52.072Z</time>
      </trkpt>
      <trkpt lat="69.21828" lon="18.45223">
        <ele>12.710612</ele>
        <time>2020-08-27T17:08:35.109Z</time>
      </trkpt>
      <trkpt lat="69.21907" lon="18.44792">
        <ele>15.244622</ele>
        <time>2020-08-27T17:09:14.082Z</time>
      </trkpt>
      <trkpt lat="69.21918" lon="18.44747">
        <ele>15.507681</ele>
        <time>2020-08-27T17:09:18.488Z</time>
      </trkpt>
      <trkpt lat="69.21921" lon="18.44733">
        <ele>15.583525</ele>
        <time>2020-08-27T17:09:19.965Z</time>
      </trkpt>
      <trkpt lat="69.21956" lon="18.44628">
        <ele>16.211611</ele>
        <time>2020-08-27T17:09:31.234Z</time>
      </trkpt>
      <trkpt lat="69.2198" lon="18.44564">
        <ele>16.625509</ele>
        <time>2020-08-27T17:09:38.622Z</time>
      </trkpt>
      <trkpt lat="69.22034" lon="18.44423">
        <ele>17.542455</ele>
        <time>2020-08-27T17:09:54.562Z</time>
      </trkpt>
      <trkpt lat="69.22038" lon="18.44412">
        <ele>17.613714</ele>
        <time>2020-08-27T17:09:55.794Z</time>
      </trkpt>
      <trkpt lat="69.22169" lon="18.44066">
        <ele>18.620822</ele>
        <time>2020-08-27T17:10:30.771Z</time>
      </trkpt>
      <trkpt lat="69.22196" lon="18.43968">
        <ele>18.753049</ele>
        <time>2020-08-27T17:10:38.979Z</time>
      </trkpt>
      <trkpt lat="69.22209" lon="18.43892">
        <ele>18.836959</ele>
        <time>2020-08-27T17:10:44.473Z</time>
      </trkpt>
      <trkpt lat="69.22219" lon="18.43792">
        <ele>18.940246</ele>
        <time>2020-08-27T17:10:51.235Z</time>
      </trkpt>
      <trkpt lat="69.22222" lon="18.437">
        <ele>19.032274</ele>
        <time>2020-08-27T17:10:57.299Z</time>
      </trkpt>
      <trkpt lat="69.22219" lon="18.43592">
        <ele>19.140858</ele>
        <time>2020-08-27T17:11:04.560Z</time>
      </trkpt>
      <trkpt lat="69.22192" lon="18.43355">
        <ele>19.964941</ele>
        <time>2020-08-27T17:11:21.615Z</time>
      </trkpt>
      <trkpt lat="69.219" lon="18.41399">
        <ele>27.32657</ele>
        <time>2020-08-27T17:14:00.494Z</time>
      </trkpt>
      <trkpt lat="69.21808" lon="18.404">
        <ele>32.816122</ele>
        <time>2020-08-27T17:15:23.967Z</time>
      </trkpt>
      <trkpt lat="69.21794" lon="18.40192">
        <ele>33.886006</ele>
        <time>2020-08-27T17:15:41.299Z</time>
      </trkpt>
      <trkpt lat="69.21794" lon="18.40167">
        <ele>33.978821</ele>
        <time>2020-08-27T17:15:43.485Z</time>
      </trkpt>
      <trkpt lat="69.21793" lon="18.40152">
        <ele>34.036755</ele>
        <time>2020-08-27T17:15:44.748Z</time>
      </trkpt>
      <trkpt lat="69.21795" lon="18.40024">
        <ele>34.529735</ele>
        <time>2020-08-27T17:15:54.814Z</time>
      </trkpt>
      <trkpt lat="69.21805" lon="18.39902">
        <ele>35.005812</ele>
        <time>2020-08-27T17:16:04.311Z</time>
      </trkpt>
      <trkpt lat="69.21822" lon="18.3978">
        <ele>35.509946</ele>
        <time>2020-08-27T17:16:13.998Z</time>
      </trkpt>
      <trkpt lat="69.2185" lon="18.39659">
        <ele>35.366482</ele>
        <time>2020-08-27T17:16:22.879Z</time>
      </trkpt>
      <trkpt lat="69.21858" lon="18.39632">
        <ele>35.308186</ele>
        <time>2020-08-27T17:16:25.256Z</time>
      </trkpt>
      <trkpt lat="69.21864" lon="18.39614">
        <ele>35.268982</ele>
        <time>2020-08-27T17:16:26.620Z</time>
      </trkpt>
      <trkpt lat="69.21916" lon="18.39489">
        <ele>34.95469</ele>
        <time>2020-08-27T17:16:37.861Z</time>
      </trkpt>
      <trkpt lat="69.21925" lon="18.39475">
        <ele>34.910243</ele>
        <time>2020-08-27T17:16:39.344Z</time>
      </trkpt>
      <trkpt lat="69.21931" lon="18.39465">
        <ele>34.877366</ele>
        <time>2020-08-27T17:16:40.421Z</time>
      </trkpt>
      <trkpt lat="69.22206" lon="18.39099">
        <ele>31.710274</ele>
        <time>2020-08-27T17:17:26.897Z</time>
      </trkpt>
      <trkpt lat="69.22272" lon="18.39013">
        <ele>30.964107</ele>
        <time>2020-08-27T17:17:38.062Z</time>
      </trkpt>
      <trkpt lat="69.22401" lon="18.38842">
        <ele>30.196404</ele>
        <time>2020-08-27T17:18:00.790Z</time>
      </trkpt>
      <trkpt lat="69.22519" lon="18.38675">
        <ele>31.026381</ele>
        <time>2020-08-27T17:18:25.440Z</time>
      </trkpt>
      <trkpt lat="69.22533" lon="18.38647">
        <ele>31.243143</ele>
        <time>2020-08-27T17:18:29.215Z</time>
      </trkpt>
      <trkpt lat="69.2254" lon="18.38632">
        <ele>31.355101</ele>
        <time>2020-08-27T17:18:31.601Z</time>
      </trkpt>
      <trkpt lat="69.22585" lon="18.38504">
        <ele>32.158054</ele>
        <time>2020-08-27T17:18:46.926Z</time>
      </trkpt>
      <trkpt lat="69.22613" lon="18.38379">
        <ele>33.968601</ele>
        <time>2020-08-27T17:19:01.498Z</time>
      </trkpt>
      <trkpt lat="69.22619" lon="18.38344">
        <ele>34.47236</ele>
        <time>2020-08-27T17:19:05.328Z</time>
      </trkpt>
      <trkpt lat="69.22627" lon="18.38297">
        <ele>35.154444</ele>
        <time>2020-08-27T17:19:11.075Z</time>
      </trkpt>
      <trkpt lat="69.22642" lon="18.38128">
        <ele>37.43993</ele>
        <time>2020-08-27T17:19:29.946Z</time>
      </trkpt>
      <trkpt lat="69.22667" lon="18.3765">
        <ele>44.436482</ele>
        <time>2020-08-27T17:20:25.402Z</time>
      </trkpt>
      <trkpt lat="69.22682" lon="18.37496">
        <ele>46.614713</ele>
        <time>2020-08-27T17:20:42.336Z</time>
      </trkpt>
      <trkpt lat="69.22715" lon="18.37326">
        <ele>47.931784</ele>
        <time>2020-08-27T17:21:01.063Z</time>
      </trkpt>
      <trkpt lat="69.22799" lon="18.37015">
        <ele>49.868446</ele>
        <time>2020-08-27T17:21:30.363Z</time>
      </trkpt>
      <trkpt lat="69.22817" lon="18.36929">
        <ele>49.828952</ele>
        <time>2020-08-27T17:21:36.136Z</time>
      </trkpt>
      <trkpt lat="69.22839" lon="18.36808">
        <ele>49.775092</ele>
        <time>2020-08-27T17:21:44.078Z</time>
      </trkpt>
      <trkpt lat="69.22841" lon="18.36796">
        <ele>49.769913</ele>
        <time>2020-08-27T17:21:44.782Z</time>
      </trkpt>
      <trkpt lat="69.22859" lon="18.36695">
        <ele>49.725208</ele>
        <time>2020-08-27T17:21:51.528Z</time>
      </trkpt>
      <trkpt lat="69.22862" lon="18.36678">
        <ele>49.717865</ele>
        <time>2020-08-27T17:21:52.451Z</time>
      </trkpt>
      <trkpt lat="69.22874" lon="18.36588">
        <ele>49.865284</ele>
        <time>2020-08-27T17:21:58.447Z</time>
      </trkpt>
      <trkpt lat="69.22876" lon="18.36488">
        <ele>50.08469</ele>
        <time>2020-08-27T17:22:04.873Z</time>
      </trkpt>
      <trkpt lat="69.22876" lon="18.36469">
        <ele>50.126291</ele>
        <time>2020-08-27T17:22:05.883Z</time>
      </trkpt>
      <trkpt lat="69.22874" lon="18.36439">
        <ele>50.192338</ele>
        <time>2020-08-27T17:22:08.617Z</time>
      </trkpt>
      <trkpt lat="69.22861" lon="18.36342">
        <ele>50.41837</ele>
        <time>2020-08-27T17:22:16.315Z</time>
      </trkpt>
      <trkpt lat="69.22799" lon="18.36102">
        <ele>50.783564</ele>
        <time>2020-08-27T17:22:39.097Z</time>
      </trkpt>
      <trkpt lat="69.2279" lon="18.36053">
        <ele>50.769428</ele>
        <time>2020-08-27T17:22:43.505Z</time>
      </trkpt>
      <trkpt lat="69.22788" lon="18.36043">
        <ele>50.766536</ele>
        <time>2020-08-27T17:22:44.075Z</time>
      </trkpt>
      <trkpt lat="69.22777" lon="18.35931">
        <ele>50.736915</ele>
        <time>2020-08-27T17:22:51.530Z</time>
      </trkpt>
      <trkpt lat="69.22773" lon="18.35784">
        <ele>50.699362</ele>
        <time>2020-08-27T17:22:59.909Z</time>
      </trkpt>
      <trkpt lat="69.22773" lon="18.35717">
        <ele>50.647083</ele>
        <time>2020-08-27T17:23:03.430Z</time>
      </trkpt>
      <trkpt lat="69.22774" lon="18.35627">
        <ele>50.080107</ele>
        <time>2020-08-27T17:23:08.101Z</time>
      </trkpt>
      <trkpt lat="69.22772" lon="18.35519">
        <ele>49.402071</ele>
        <time>2020-08-27T17:23:13.422Z</time>
      </trkpt>
      <trkpt lat="69.2277" lon="18.35485">
        <ele>49.185927</ele>
        <time>2020-08-27T17:23:15.085Z</time>
      </trkpt>
      <trkpt lat="69.22769" lon="18.35469">
        <ele>49.080468</ele>
        <time>2020-08-27T17:23:15.905Z</time>
      </trkpt>
      <trkpt lat="69.2276" lon="18.35385">
        <ele>48.531272</ele>
        <time>2020-08-27T17:23:20.195Z</time>
      </trkpt>
      <trkpt lat="69.22754" lon="18.35338">
        <ele>48.219615</ele>
        <time>2020-08-27T17:23:22.661Z</time>
      </trkpt>
      <trkpt lat="69.22754" lon="18.35333">
        <ele>48.181626</ele>
        <time>2020-08-27T17:23:22.929Z</time>
      </trkpt>
      <trkpt lat="69.2267" lon="18.34636">
        <ele>45.022942</ele>
        <time>2020-08-27T17:24:02.448Z</time>
      </trkpt>
      <trkpt lat="69.22637" lon="18.34368">
        <ele>44.450563</ele>
        <time>2020-08-27T17:24:19.133Z</time>
      </trkpt>
      <trkpt lat="69.22606" lon="18.34112">
        <ele>44.28697</ele>
        <time>2020-08-27T17:24:36.180Z</time>
      </trkpt>
      <trkpt lat="69.22601" lon="18.34077">
        <ele>44.298118</ele>
        <time>2020-08-27T17:24:38.579Z</time>
      </trkpt>
      <trkpt lat="69.22593" lon="18.34028">
        <ele>44.313969</ele>
        <time>2020-08-27T17:24:42.124Z</time>
      </trkpt>
      <trkpt lat="69.22588" lon="18.34001">
        <ele>44.322578</ele>
        <time>2020-08-27T17:24:43.999Z</time>
      </trkpt>
      <trkpt lat="69.22581" lon="18.33963">
        <ele>44.335435</ele>
        <time>2020-08-27T17:24:46.830Z</time>
      </trkpt>
      <trkpt lat="69.22576" lon="18.33941">
        <ele>44.343076</ele>
        <time>2020-08-27T17:24:48.586Z</time>
      </trkpt>
      <trkpt lat="69.22566" lon="18.33895">
        <ele>44.358996</ele>
        <time>2020-08-27T17:24:52.079Z</time>
      </trkpt>
      <trkpt lat="69.22517" lon="18.33689">
        <ele>44.396736</ele>
        <time>2020-08-27T17:25:08.340Z</time>
      </trkpt>
      <trkpt lat="69.22495" lon="18.33593">
        <ele>44.404062</ele>
        <time>2020-08-27T17:25:15.861Z</time>
      </trkpt>
      <trkpt lat="69.22483" lon="18.33537">
        <ele>44.408221</ele>
        <time>2020-08-27T17:25:20.074Z</time>
      </trkpt>
      <trkpt lat="69.22472" lon="18.33483">
        <ele>44.412149</ele>
        <time>2020-08-27T17:25:23.986Z</time>
      </trkpt>
      <trkpt lat="69.22439" lon="18.33264">
        <ele>44.08266</ele>
        <time>2020-08-27T17:25:38.259Z</time>
      </trkpt>
      <trkpt lat="69.22435" lon="18.3322">
        <ele>43.957587</ele>
        <time>2020-08-27T17:25:40.915Z</time>
      </trkpt>
      <trkpt lat="69.2243" lon="18.33161">
        <ele>43.793965</ele>
        <time>2020-08-27T17:25:44.322Z</time>
      </trkpt>
      <trkpt lat="69.22427" lon="18.33109">
        <ele>43.65178</ele>
        <time>2020-08-27T17:25:47.304Z</time>
      </trkpt>
      <trkpt lat="69.22423" lon="18.33041">
        <ele>43.463298</ele>
        <time>2020-08-27T17:25:51.107Z</time>
      </trkpt>
      <trkpt lat="69.22418" lon="18.32903">
        <ele>43.088893</ele>
        <time>2020-08-27T17:25:58.677Z</time>
      </trkpt>
      <trkpt lat="69.22415" lon="18.32799">
        <ele>42.613107</ele>
        <time>2020-08-27T17:26:04.243Z</time>
      </trkpt>
      <trkpt lat="69.22407" lon="18.32502">
        <ele>41.163961</ele>
        <time>2020-08-27T17:26:20.018Z</time>
      </trkpt>
      <trkpt lat="69.22403" lon="18.32339">
        <ele>40.299229</ele>
        <time>2020-08-27T17:26:28.643Z</time>
      </trkpt>
      <trkpt lat="69.22396" lon="18.32096">
        <ele>38.743548</ele>
        <time>2020-08-27T17:26:41.281Z</time>
      </trkpt>
      <trkpt lat="69.22381" lon="18.31568">
        <ele>34.978134</ele>
        <time>2020-08-27T17:27:07.513Z</time>
      </trkpt>
      <trkpt lat="69.22373" lon="18.31266">
        <ele>32.896029</ele>
        <time>2020-08-27T17:27:22.504Z</time>
      </trkpt>
      <trkpt lat="69.22368" lon="18.31103">
        <ele>32.002954</ele>
        <time>2020-08-27T17:27:30.867Z</time>
      </trkpt>
      <trkpt lat="69.22366" lon="18.31001">
        <ele>31.445537</ele>
        <time>2020-08-27T17:27:36.260Z</time>
      </trkpt>
      <trkpt lat="69.22366" lon="18.30953">
        <ele>31.185805</ele>
        <time>2020-08-27T17:27:38.850Z</time>
      </trkpt>
      <trkpt lat="69.22363" lon="18.30952">
        <ele>31.131569</ele>
        <time>2020-08-27T17:27:39.356Z</time>
      </trkpt>
      <trkpt lat="69.22349" lon="18.30946">
        <ele>30.921506</ele>
        <time>2020-08-27T17:27:41.489Z</time>
      </trkpt>
      <trkpt lat="69.22295" lon="18.30896">
        <ele>30.47881</ele>
        <time>2020-08-27T17:27:50.527Z</time>
      </trkpt>
      <trkpt lat="69.2215" lon="18.30759">
        <ele>29.688552</ele>
        <time>2020-08-27T17:28:16.188Z</time>
      </trkpt>
      <trkpt lat="69.22104" lon="18.30703">
        <ele>29.448845</ele>
        <time>2020-08-27T17:28:24.829Z</time>
      </trkpt>
      <trkpt lat="69.22073" lon="18.3064">
        <ele>29.269324</ele>
        <time>2020-08-27T17:28:31.224Z</time>
      </trkpt>
      <trkpt lat="69.22056" lon="18.30596">
        <ele>29.160727</ele>
        <time>2020-08-27T17:28:35.052Z</time>
      </trkpt>
      <trkpt lat="69.22055" lon="18.30591">
        <ele>29.150465</ele>
        <time>2020-08-27T17:28:35.394Z</time>
      </trkpt>
      <trkpt lat="69.22039" lon="18.30543">
        <ele>29.039697</ele>
        <time>2020-08-27T17:28:39.264Z</time>
      </trkpt>
      <trkpt lat="69.22025" lon="18.30499">
        <ele>28.93992</ele>
        <time>2020-08-27T17:28:42.685Z</time>
      </trkpt>
      <trkpt lat="69.22012" lon="18.30459">
        <ele>28.788619</ele>
        <time>2020-08-27T17:28:45.783Z</time>
      </trkpt>
      <trkpt lat="69.21902" lon="18.301">
        <ele>27.173532</ele>
        <time>2020-08-27T17:29:11.846Z</time>
      </trkpt>
      <trkpt lat="69.21809" lon="18.29799">
        <ele>25.778468</ele>
        <time>2020-08-27T17:29:33.438Z</time>
      </trkpt>
      <trkpt lat="69.21768" lon="18.2967">
        <ele>25.366401</ele>
        <time>2020-08-27T17:29:43.063Z</time>
      </trkpt>
      <trkpt lat="69.21619" lon="18.29208">
        <ele>25.585205</ele>
        <time>2020-08-27T17:30:22.328Z</time>
      </trkpt>
      <trkpt lat="69.21562" lon="18.29023">
        <ele>26.295778</ele>
        <time>2020-08-27T17:30:40.898Z</time>
      </trkpt>
      <trkpt lat="69.21455" lon="18.28666">
        <ele>28.968723</ele>
        <time>2020-08-27T17:31:20.742Z</time>
      </trkpt>
      <trkpt lat="69.21422" lon="18.28557">
        <ele>29.734001</ele>
        <time>2020-08-27T17:31:32.535Z</time>
      </trkpt>
      <trkpt lat="69.2141" lon="18.28503">
        <ele>29.859272</ele>
        <time>2020-08-27T17:31:37.675Z</time>
      </trkpt>
      <trkpt lat="69.21383" lon="18.28342">
        <ele>30.20086</ele>
        <time>2020-08-27T17:31:50.676Z</time>
      </trkpt>
      <trkpt lat="69.21365" lon="18.28225">
        <ele>30.443906</ele>
        <time>2020-08-27T17:31:59.134Z</time>
      </trkpt>
      <trkpt lat="69.2136" lon="18.28189">
        <ele>30.519684</ele>
        <time>2020-08-27T17:32:01.571Z</time>
      </trkpt>
      <trkpt lat="69.21308" lon="18.27861">
        <ele>30.115746</ele>
        <time>2020-08-27T17:32:22.163Z</time>
      </trkpt>
      <trkpt lat="69.21298" lon="18.278">
        <ele>29.990593</ele>
        <time>2020-08-27T17:32:25.970Z</time>
      </trkpt>
      <trkpt lat="69.21282" lon="18.2772">
        <ele>29.819225</ele>
        <time>2020-08-27T17:32:31.236Z</time>
      </trkpt>
      <trkpt lat="69.21218" lon="18.27403">
        <ele>29.599743</ele>
        <time>2020-08-27T17:32:53.491Z</time>
      </trkpt>
      <trkpt lat="69.2117" lon="18.27114">
        <ele>29.59507</ele>
        <time>2020-08-27T17:33:14.314Z</time>
      </trkpt>
      <trkpt lat="69.21084" lon="18.26596">
        <ele>30.174585</ele>
        <time>2020-08-27T17:33:51.517Z</time>
      </trkpt>
      <trkpt lat="69.21014" lon="18.26165">
        <ele>31.481719</ele>
        <time>2020-08-27T17:34:25.716Z</time>
      </trkpt>
      <trkpt lat="69.21" lon="18.26096">
        <ele>31.833834</ele>
        <time>2020-08-27T17:34:31.882Z</time>
      </trkpt>
      <trkpt lat="69.2099" lon="18.26056">
        <ele>32.051652</ele>
        <time>2020-08-27T17:34:35.833Z</time>
      </trkpt>
      <trkpt lat="69.20988" lon="18.26048">
        <ele>32.094922</ele>
        <time>2020-08-27T17:34:36.598Z</time>
      </trkpt>
      <trkpt lat="69.20929" lon="18.25832">
        <ele>33.295564</ele>
        <time>2020-08-27T17:34:58.646Z</time>
      </trkpt>
      <trkpt lat="69.20873" lon="18.25637">
        <ele>34.332155</ele>
        <time>2020-08-27T17:35:18.466Z</time>
      </trkpt>
      <trkpt lat="69.20868" lon="18.2562">
        <ele>34.417784</ele>
        <time>2020-08-27T17:35:20.026Z</time>
      </trkpt>
      <trkpt lat="69.20817" lon="18.25428">
        <ele>35.265692</ele>
        <time>2020-08-27T17:35:37.724Z</time>
      </trkpt>
      <trkpt lat="69.20785" lon="18.25316">
        <ele>35.518649</ele>
        <time>2020-08-27T17:35:47.807Z</time>
      </trkpt>
      <trkpt lat="69.20757" lon="18.2522">
        <ele>35.736385</ele>
        <time>2020-08-27T17:35:56.649Z</time>
      </trkpt>
      <trkpt lat="69.20752" lon="18.25203">
        <ele>35.775752</ele>
        <time>2020-08-27T17:35:57.922Z</time>
      </trkpt>
      <trkpt lat="69.20748" lon="18.25189">
        <ele>35.809636</ele>
        <time>2020-08-27T17:35:59.258Z</time>
      </trkpt>
      <trkpt lat="69.20734" lon="18.25144">
        <ele>35.915125</ele>
        <time>2020-08-27T17:36:03.448Z</time>
      </trkpt>
      <trkpt lat="69.20727" lon="18.25124">
        <ele>35.965458</ele>
        <time>2020-08-27T17:36:05.098Z</time>
      </trkpt>
      <trkpt lat="69.20718" lon="18.25105">
        <ele>36.019836</ele>
        <time>2020-08-27T17:36:07.174Z</time>
      </trkpt>
      <trkpt lat="69.20699" lon="18.25074">
        <ele>35.951764</ele>
        <time>2020-08-27T17:36:10.957Z</time>
      </trkpt>
      <trkpt lat="69.20678" lon="18.25043">
        <ele>35.785413</ele>
        <time>2020-08-27T17:36:15.493Z</time>
      </trkpt>
      <trkpt lat="69.20669" lon="18.25032">
        <ele>35.721763</ele>
        <time>2020-08-27T17:36:16.962Z</time>
      </trkpt>
      <trkpt lat="69.2065" lon="18.25007">
        <ele>35.580854</ele>
        <time>2020-08-27T17:36:20.678Z</time>
      </trkpt>
      <trkpt lat="69.20641" lon="18.24994">
        <ele>35.508898</ele>
        <time>2020-08-27T17:36:22.594Z</time>
      </trkpt>
      <trkpt lat="69.20638" lon="18.24989">
        <ele>35.487151</ele>
        <time>2020-08-27T17:36:23.008Z</time>
      </trkpt>
      <trkpt lat="69.20624" lon="18.24955">
        <ele>35.363654</ele>
        <time>2020-08-27T17:36:26.163Z</time>
      </trkpt>
      <trkpt lat="69.20612" lon="18.24886">
        <ele>35.177306</ele>
        <time>2020-08-27T17:36:30.362Z</time>
      </trkpt>
      <trkpt lat="69.20594" lon="18.24669">
        <ele>34.398526</ele>
        <time>2020-08-27T17:36:42.155Z</time>
      </trkpt>
      <trkpt lat="69.20591" lon="18.24545">
        <ele>33.726899</ele>
        <time>2020-08-27T17:36:48.436Z</time>
      </trkpt>
      <trkpt lat="69.20592" lon="18.24505">
        <ele>33.509244</ele>
        <time>2020-08-27T17:36:50.433Z</time>
      </trkpt>
      <trkpt lat="69.20594" lon="18.24424">
        <ele>33.069967</ele>
        <time>2020-08-27T17:36:54.615Z</time>
      </trkpt>
      <trkpt lat="69.20592" lon="18.24253">
        <ele>32.140655</ele>
        <time>2020-08-27T17:37:03.566Z</time>
      </trkpt>
      <trkpt lat="69.2056" lon="18.23899">
        <ele>31.070082</ele>
        <time>2020-08-27T17:37:23.853Z</time>
      </trkpt>
      <trkpt lat="69.20531" lon="18.23816">
        <ele>30.735059</ele>
        <time>2020-08-27T17:37:31.023Z</time>
      </trkpt>
      <trkpt lat="69.2045" lon="18.237">
        <ele>30.279007</ele>
        <time>2020-08-27T17:37:46.187Z</time>
      </trkpt>
      <trkpt lat="69.20432" lon="18.23648">
        <ele>30.159699</ele>
        <time>2020-08-27T17:37:50.514Z</time>
      </trkpt>
      <trkpt lat="69.20418" lon="18.23582">
        <ele>30.036841</ele>
        <time>2020-08-27T17:37:54.945Z</time>
      </trkpt>
      <trkpt lat="69.2041" lon="18.23522">
        <ele>29.931368</ele>
        <time>2020-08-27T17:37:58.687Z</time>
      </trkpt>
      <trkpt lat="69.2037" lon="18.23229">
        <ele>29.450455</ele>
        <time>2020-08-27T17:38:16.860Z</time>
      </trkpt>
      <trkpt lat="69.20344" lon="18.23033">
        <ele>29.135704</ele>
        <time>2020-08-27T17:38:29.362Z</time>
      </trkpt>
      <trkpt lat="69.20335" lon="18.22826">
        <ele>28.942581</ele>
        <time>2020-08-27T17:38:42.438Z</time>
      </trkpt>
      <trkpt lat="69.20332" lon="18.22788">
        <ele>28.915419</ele>
        <time>2020-08-27T17:38:44.795Z</time>
      </trkpt>
      <trkpt lat="69.20323" lon="18.22677">
        <ele>28.833806</ele>
        <time>2020-08-27T17:38:51.853Z</time>
      </trkpt>
      <trkpt lat="69.2032" lon="18.22549">
        <ele>28.741987</ele>
        <time>2020-08-27T17:38:59.721Z</time>
      </trkpt>
      <trkpt lat="69.20328" lon="18.22446">
        <ele>28.655004</ele>
        <time>2020-08-27T17:39:05.985Z</time>
      </trkpt>
      <trkpt lat="69.20329" lon="18.22434">
        <ele>28.640791</ele>
        <time>2020-08-27T17:39:06.797Z</time>
      </trkpt>
      <trkpt lat="69.20331" lon="18.22424">
        <ele>28.629235</ele>
        <time>2020-08-27T17:39:07.295Z</time>
      </trkpt>
      <trkpt lat="69.20359" lon="18.22275">
        <ele>28.446029</ele>
        <time>2020-08-27T17:39:17.756Z</time>
      </trkpt>
      <trkpt lat="69.20397" lon="18.2213">
        <ele>28.250062</ele>
        <time>2020-08-27T17:39:28.533Z</time>
      </trkpt>
      <trkpt lat="69.20412" lon="18.22083">
        <ele>28.182662</ele>
        <time>2020-08-27T17:39:32.022Z</time>
      </trkpt>
      <trkpt lat="69.2042" lon="18.22056">
        <ele>28.14324</ele>
        <time>2020-08-27T17:39:34.509Z</time>
      </trkpt>
      <trkpt lat="69.20431" lon="18.22001">
        <ele>28.175308</ele>
        <time>2020-08-27T17:39:38.288Z</time>
      </trkpt>
      <trkpt lat="69.20454" lon="18.21832">
        <ele>28.277675</ele>
        <time>2020-08-27T17:39:49.925Z</time>
      </trkpt>
      <trkpt lat="69.20481" lon="18.21727">
        <ele>28.351792</ele>
        <time>2020-08-27T17:39:58.513Z</time>
      </trkpt>
      <trkpt lat="69.20554" lon="18.21555">
        <ele>28.861564</ele>
        <time>2020-08-27T17:40:16.886Z</time>
      </trkpt>
      <trkpt lat="69.20619" lon="18.21327">
        <ele>29.806148</ele>
        <time>2020-08-27T17:40:38.132Z</time>
      </trkpt>
      <trkpt lat="69.20735" lon="18.21028">
        <ele>33.339121</ele>
        <time>2020-08-27T17:41:15.693Z</time>
      </trkpt>
      <trkpt lat="69.20781" lon="18.20875">
        <ele>35.673273</ele>
        <time>2020-08-27T17:41:37.573Z</time>
      </trkpt>
      <trkpt lat="69.20798" lon="18.20778">
        <ele>37.636342</ele>
        <time>2020-08-27T17:41:50.059Z</time>
      </trkpt>
      <trkpt lat="69.20803" lon="18.20738">
        <ele>38.405154</ele>
        <time>2020-08-27T17:41:55.157Z</time>
      </trkpt>
      <trkpt lat="69.20809" lon="18.20689">
        <ele>39.335496</ele>
        <time>2020-08-27T17:42:01.565Z</time>
      </trkpt>
      <trkpt lat="69.20823" lon="18.20578">
        <ele>41.477954</ele>
        <time>2020-08-27T17:42:16.498Z</time>
      </trkpt>
      <trkpt lat="69.2085" lon="18.20433">
        <ele>44.361075</ele>
        <time>2020-08-27T17:42:38.202Z</time>
      </trkpt>
      <trkpt lat="69.20872" lon="18.20214">
        <ele>47.914934</ele>
        <time>2020-08-27T17:43:07.032Z</time>
      </trkpt>
      <trkpt lat="69.20901" lon="18.19986">
        <ele>51.701045</ele>
        <time>2020-08-27T17:43:33.052Z</time>
      </trkpt>
      <trkpt lat="69.20982" lon="18.18657">
        <ele>55.494521</ele>
        <time>2020-08-27T17:45:11.539Z</time>
      </trkpt>
      <trkpt lat="69.20926" lon="18.18032">
        <ele>52.712856</ele>
        <time>2020-08-27T17:45:45.183Z</time>
      </trkpt>
      <trkpt lat="69.20902" lon="18.17642">
        <ele>49.229465</ele>
        <time>2020-08-27T17:46:04.288Z</time>
      </trkpt>
      <trkpt lat="69.20893" lon="18.17569">
        <ele>48.521155</ele>
        <time>2020-08-27T17:46:07.970Z</time>
      </trkpt>
      <trkpt lat="69.20877" lon="18.17521">
        <ele>47.928537</ele>
        <time>2020-08-27T17:46:11.051Z</time>
      </trkpt>
      <trkpt lat="69.20831" lon="18.17435">
        <ele>46.469181</ele>
        <time>2020-08-27T17:46:18.388Z</time>
      </trkpt>
      <trkpt lat="69.20811" lon="18.17367">
        <ele>45.624485</ele>
        <time>2020-08-27T17:46:22.633Z</time>
      </trkpt>
      <trkpt lat="69.20782" lon="18.17176">
        <ele>43.671565</ele>
        <time>2020-08-27T17:46:32.510Z</time>
      </trkpt>
      <trkpt lat="69.20767" lon="18.17111">
        <ele>42.988167</ele>
        <time>2020-08-27T17:46:36.333Z</time>
      </trkpt>
      <trkpt lat="69.20748" lon="18.17068">
        <ele>42.576252</ele>
        <time>2020-08-27T17:46:39.678Z</time>
      </trkpt>
      <trkpt lat="69.2069" lon="18.17011">
        <ele>41.517255</ele>
        <time>2020-08-27T17:46:48.563Z</time>
      </trkpt>
      <trkpt lat="69.20644" lon="18.16944">
        <ele>40.616867</ele>
        <time>2020-08-27T17:46:56.315Z</time>
      </trkpt>
      <trkpt lat="69.20619" lon="18.1689">
        <ele>40.084325</ele>
        <time>2020-08-27T17:47:00.924Z</time>
      </trkpt>
      <trkpt lat="69.20605" lon="18.16806">
        <ele>39.619598</ele>
        <time>2020-08-27T17:47:05.948Z</time>
      </trkpt>
      <trkpt lat="69.20599" lon="18.1667">
        <ele>38.976006</ele>
        <time>2020-08-27T17:47:13.266Z</time>
      </trkpt>
      <trkpt lat="69.20586" lon="18.1654">
        <ele>38.338832</ele>
        <time>2020-08-27T17:47:20.502Z</time>
      </trkpt>
      <trkpt lat="69.20579" lon="18.16407">
        <ele>37.707122</ele>
        <time>2020-08-27T17:47:27.573Z</time>
      </trkpt>
      <trkpt lat="69.20592" lon="18.15978">
        <ele>35.864937</ele>
        <time>2020-08-27T17:47:50.277Z</time>
      </trkpt>
      <trkpt lat="69.20609" lon="18.1576">
        <ele>35.226894</ele>
        <time>2020-08-27T17:48:03.225Z</time>
      </trkpt>
      <trkpt lat="69.206" lon="18.15607">
        <ele>34.950236</ele>
        <time>2020-08-27T17:48:12.373Z</time>
      </trkpt>
      <trkpt lat="69.20597" lon="18.15563">
        <ele>34.871726</ele>
        <time>2020-08-27T17:48:15.196Z</time>
      </trkpt>
      <trkpt lat="69.20597" lon="18.15563">
        <ele>34.871726</ele>
        <time>2020-08-27T17:48:15.197Z</time>
      </trkpt>
      <trkpt lat="69.20595" lon="18.15527">
        <ele>34.805828</ele>
        <time>2020-08-27T17:48:17.369Z</time>
      </trkpt>
      <trkpt lat="69.20594" lon="18.15461">
        <ele>34.689462</ele>
        <time>2020-08-27T17:48:21.435Z</time>
      </trkpt>
      <trkpt lat="69.20603" lon="18.15393">
        <ele>34.560612</ele>
        <time>2020-08-27T17:48:25.744Z</time>
      </trkpt>
      <trkpt lat="69.20696" lon="18.14913">
        <ele>33.756594</ele>
        <time>2020-08-27T17:48:57.649Z</time>
      </trkpt>
      <trkpt lat="69.20698" lon="18.14899">
        <ele>33.765814</ele>
        <time>2020-08-27T17:48:58.347Z</time>
      </trkpt>
      <trkpt lat="69.207" lon="18.14862">
        <ele>33.789712</ele>
        <time>2020-08-27T17:49:00.845Z</time>
      </trkpt>
      <trkpt lat="69.20687" lon="18.14411">
        <ele>34.146023</ele>
        <time>2020-08-27T17:49:31.070Z</time>
      </trkpt>
      <trkpt lat="69.20638" lon="18.13908">
        <ele>35.54555</ele>
        <time>2020-08-27T17:50:09.240Z</time>
      </trkpt>
      <trkpt lat="69.20606" lon="18.13435">
        <ele>36.864913</ele>
        <time>2020-08-27T17:50:43.523Z</time>
      </trkpt>
      <trkpt lat="69.20576" lon="18.13126">
        <ele>38.622172</ele>
        <time>2020-08-27T17:51:08.005Z</time>
      </trkpt>
      <trkpt lat="69.20567" lon="18.12803">
        <ele>41.784542</ele>
        <time>2020-08-27T17:51:37.270Z</time>
      </trkpt>
      <trkpt lat="69.20532" lon="18.12261">
        <ele>51.355742</ele>
        <time>2020-08-27T17:52:42.176Z</time>
      </trkpt>
      <trkpt lat="69.20517" lon="18.1213">
        <ele>54.505175</ele>
        <time>2020-08-27T17:53:01.611Z</time>
      </trkpt>
      <trkpt lat="69.20508" lon="18.12076">
        <ele>55.877561</ele>
        <time>2020-08-27T17:53:10.827Z</time>
      </trkpt>
      <trkpt lat="69.20494" lon="18.11993">
        <ele>57.996411</ele>
        <time>2020-08-27T17:53:24.858Z</time>
      </trkpt>
      <trkpt lat="69.2044" lon="18.1165">
        <ele>68.689575</ele>
        <time>2020-08-27T17:54:25.654Z</time>
      </trkpt>
      <trkpt lat="69.20387" lon="18.11385">
        <ele>75.826444</ele>
        <time>2020-08-27T17:55:10.200Z</time>
      </trkpt>
      <trkpt lat="69.20222" lon="18.10324">
        <ele>95.126743</ele>
        <time>2020-08-27T17:57:28.027Z</time>
      </trkpt>
      <trkpt lat="69.20197" lon="18.10242">
        <ele>96.261204</ele>
        <time>2020-08-27T17:57:36.573Z</time>
      </trkpt>
      <trkpt lat="69.20115" lon="18.1005">
        <ele>95.343692</ele>
        <time>2020-08-27T17:57:53.537Z</time>
      </trkpt>
      <trkpt lat="69.2008" lon="18.09864">
        <ele>93.420819</ele>
        <time>2020-08-27T17:58:03.073Z</time>
      </trkpt>
      <trkpt lat="69.20013" lon="18.09643">
        <ele>89.479265</ele>
        <time>2020-08-27T17:58:15.806Z</time>
      </trkpt>
      <trkpt lat="69.19956" lon="18.09405">
        <ele>85.060173</ele>
        <time>2020-08-27T17:58:28.369Z</time>
      </trkpt>
      <trkpt lat="69.19863" lon="18.09106">
        <ele>80.793654</ele>
        <time>2020-08-27T17:58:46.926Z</time>
      </trkpt>
      <trkpt lat="69.19844" lon="18.08997">
        <ele>79.501158</ele>
        <time>2020-08-27T17:58:52.962Z</time>
      </trkpt>
      <trkpt lat="69.19821" lon="18.08751">
        <ele>77.480621</ele>
        <time>2020-08-27T17:59:05.632Z</time>
      </trkpt>
      <trkpt lat="69.19803" lon="18.08643">
        <ele>76.536402</ele>
        <time>2020-08-27T17:59:11.721Z</time>
      </trkpt>
      <trkpt lat="69.198" lon="18.08616">
        <ele>76.314603</ele>
        <time>2020-08-27T17:59:13.051Z</time>
      </trkpt>
      <trkpt lat="69.19799" lon="18.08609">
        <ele>76.255053</ele>
        <time>2020-08-27T17:59:13.388Z</time>
      </trkpt>
      <trkpt lat="69.19794" lon="18.08538">
        <ele>75.680328</ele>
        <time>2020-08-27T17:59:17.230Z</time>
      </trkpt>
      <trkpt lat="69.19799" lon="18.08341">
        <ele>72.520717</ele>
        <time>2020-08-27T17:59:26.461Z</time>
      </trkpt>
      <trkpt lat="69.19797" lon="18.0826">
        <ele>71.117017</ele>
        <time>2020-08-27T17:59:30.373Z</time>
      </trkpt>
      <trkpt lat="69.19777" lon="18.08056">
        <ele>67.446841</ele>
        <time>2020-08-27T17:59:39.008Z</time>
      </trkpt>
      <trkpt lat="69.19776" lon="18.08044">
        <ele>67.220961</ele>
        <time>2020-08-27T17:59:39.547Z</time>
      </trkpt>
      <trkpt lat="69.19768" lon="18.07968">
        <ele>65.204772</ele>
        <time>2020-08-27T17:59:42.945Z</time>
      </trkpt>
      <trkpt lat="69.19767" lon="18.07964">
        <ele>65.074359</ele>
        <time>2020-08-27T17:59:43.116Z</time>
      </trkpt>
      <trkpt lat="69.19763" lon="18.07883">
        <ele>62.487272</ele>
        <time>2020-08-27T17:59:46.641Z</time>
      </trkpt>
      <trkpt lat="69.19769" lon="18.07676">
        <ele>55.981933</ele>
        <time>2020-08-27T17:59:54.781Z</time>
      </trkpt>
      <trkpt lat="69.19768" lon="18.0766">
        <ele>55.469173</ele>
        <time>2020-08-27T17:59:55.377Z</time>
      </trkpt>
      <trkpt lat="69.19766" lon="18.07604">
        <ele>53.712491</ele>
        <time>2020-08-27T17:59:57.655Z</time>
      </trkpt>
      <trkpt lat="69.19763" lon="18.07551">
        <ele>52.020739</ele>
        <time>2020-08-27T17:59:59.693Z</time>
      </trkpt>
      <trkpt lat="69.19761" lon="18.07534">
        <ele>51.470016</ele>
        <time>2020-08-27T18:00:00.380Z</time>
      </trkpt>
      <trkpt lat="69.1976" lon="18.07513">
        <ele>50.778763</ele>
        <time>2020-08-27T18:00:01.286Z</time>
      </trkpt>
      <trkpt lat="69.19753" lon="18.07439">
        <ele>48.649438</ele>
        <time>2020-08-27T18:00:04.286Z</time>
      </trkpt>
      <trkpt lat="69.19749" lon="18.07386">
        <ele>47.129372</ele>
        <time>2020-08-27T18:00:06.542Z</time>
      </trkpt>
      <trkpt lat="69.19696" lon="18.06743">
        <ele>29.288045</ele>
        <time>2020-08-27T18:00:33.256Z</time>
      </trkpt>
      <trkpt lat="69.19694" lon="18.06731">
        <ele>28.978301</ele>
        <time>2020-08-27T18:00:33.695Z</time>
      </trkpt>
      <trkpt lat="69.19694" lon="18.06725">
        <ele>28.819999</ele>
        <time>2020-08-27T18:00:33.945Z</time>
      </trkpt>
      <trkpt lat="69.19682" lon="18.06673">
        <ele>27.214434</ele>
        <time>2020-08-27T18:00:36.556Z</time>
      </trkpt>
      <trkpt lat="69.19682" lon="18.0666">
        <ele>26.886158</ele>
        <time>2020-08-27T18:00:37.082Z</time>
      </trkpt>
      <trkpt lat="69.19676" lon="18.06653">
        <ele>26.428013</ele>
        <time>2020-08-27T18:00:37.785Z</time>
      </trkpt>
      <trkpt lat="69.19651" lon="18.06589">
        <ele>23.951914</ele>
        <time>2020-08-27T18:00:41.951Z</time>
      </trkpt>
      <trkpt lat="69.19641" lon="18.06546">
        <ele>23.108158</ele>
        <time>2020-08-27T18:00:44.225Z</time>
      </trkpt>
      <trkpt lat="69.19631" lon="18.06503">
        <ele>22.501054</ele>
        <time>2020-08-27T18:00:46.430Z</time>
      </trkpt>
      <trkpt lat="69.19611" lon="18.06394">
        <ele>21.02108</ele>
        <time>2020-08-27T18:00:51.952Z</time>
      </trkpt>
      <trkpt lat="69.19603" lon="18.06355">
        <ele>20.478372</ele>
        <time>2020-08-27T18:00:54.240Z</time>
      </trkpt>
      <trkpt lat="69.19599" lon="18.06328">
        <ele>20.125993</ele>
        <time>2020-08-27T18:00:55.658Z</time>
      </trkpt>
      <trkpt lat="69.19578" lon="18.06234">
        <ele>18.793906</ele>
        <time>2020-08-27T18:01:01.482Z</time>
      </trkpt>
      <trkpt lat="69.19572" lon="18.0621">
        <ele>18.445629</ele>
        <time>2020-08-27T18:01:03.032Z</time>
      </trkpt>
      <trkpt lat="69.19565" lon="18.06185">
        <ele>18.060177</ele>
        <time>2020-08-27T18:01:04.771Z</time>
      </trkpt>
      <trkpt lat="69.19521" lon="18.0608">
        <ele>17.645852</ele>
        <time>2020-08-27T18:01:14.902Z</time>
      </trkpt>
      <trkpt lat="69.19435" lon="18.05969">
        <ele>18.124161</ele>
        <time>2020-08-27T18:01:36.175Z</time>
      </trkpt>
      <trkpt lat="69.19394" lon="18.0594">
        <ele>18.335637</ele>
        <time>2020-08-27T18:01:45.210Z</time>
      </trkpt>
      <trkpt lat="69.1932" lon="18.05926">
        <ele>18.604277</ele>
        <time>2020-08-27T18:01:59.609Z</time>
      </trkpt>
      <trkpt lat="69.19297" lon="18.05918">
        <ele>18.686909</ele>
        <time>2020-08-27T18:02:03.948Z</time>
      </trkpt>
      <trkpt lat="69.19278" lon="18.05907">
        <ele>18.756779</ele>
        <time>2020-08-27T18:02:07.750Z</time>
      </trkpt>
      <trkpt lat="69.19245" lon="18.0586">
        <ele>18.88756</ele>
        <time>2020-08-27T18:02:15.027Z</time>
      </trkpt>
      <trkpt lat="69.19237" lon="18.05838">
        <ele>18.928011</ele>
        <time>2020-08-27T18:02:17.158Z</time>
      </trkpt>
      <trkpt lat="69.19222" lon="18.05799">
        <ele>19.01937</ele>
        <time>2020-08-27T18:02:21.348Z</time>
      </trkpt>
      <trkpt lat="69.19202" lon="18.05763">
        <ele>19.277439</ele>
        <time>2020-08-27T18:02:25.980Z</time>
      </trkpt>
      <trkpt lat="69.19165" lon="18.05742">
        <ele>19.688232</ele>
        <time>2020-08-27T18:02:33.562Z</time>
      </trkpt>
      <trkpt lat="69.19122" lon="18.05728">
        <ele>20.162987</ele>
        <time>2020-08-27T18:02:42.904Z</time>
      </trkpt>
      <trkpt lat="69.191" lon="18.05722">
        <ele>20.397908</ele>
        <time>2020-08-27T18:02:47.683Z</time>
      </trkpt>
      <trkpt lat="69.19065" lon="18.05721">
        <ele>20.78466</ele>
        <time>2020-08-27T18:02:56.530Z</time>
      </trkpt>
      <trkpt lat="69.19038" lon="18.05728">
        <ele>21.126384</ele>
        <time>2020-08-27T18:03:03.497Z</time>
      </trkpt>
      <trkpt lat="69.19009" lon="18.05737">
        <ele>21.548163</ele>
        <time>2020-08-27T18:03:10.699Z</time>
      </trkpt>
      <trkpt lat="69.18908" lon="18.05747">
        <ele>23.055319</ele>
        <time>2020-08-27T18:03:34.793Z</time>
      </trkpt>
      <trkpt lat="69.18848" lon="18.05799">
        <ele>23.543001</ele>
        <time>2020-08-27T18:03:48.316Z</time>
      </trkpt>
      <trkpt lat="69.18811" lon="18.05805">
        <ele>23.424201</ele>
        <time>2020-08-27T18:03:55.488Z</time>
      </trkpt>
      <trkpt lat="69.18793" lon="18.05779">
        <ele>23.356288</ele>
        <time>2020-08-27T18:03:59.243Z</time>
      </trkpt>
      <trkpt lat="69.18754" lon="18.05658">
        <ele>23.170273</ele>
        <time>2020-08-27T18:04:08.585Z</time>
      </trkpt>
      <trkpt lat="69.18711" lon="18.05625">
        <ele>22.999146</ele>
        <time>2020-08-27T18:04:15.817Z</time>
      </trkpt>
      <trkpt lat="69.18676" lon="18.05546">
        <ele>22.631848</ele>
        <time>2020-08-27T18:04:23.074Z</time>
      </trkpt>
      <trkpt lat="69.18673" lon="18.05544">
        <ele>22.608281</ele>
        <time>2020-08-27T18:04:23.411Z</time>
      </trkpt>
      <trkpt lat="69.18671" lon="18.05543">
        <ele>22.584714</ele>
        <time>2020-08-27T18:04:23.860Z</time>
      </trkpt>
      <trkpt lat="69.18662" lon="18.05546">
        <ele>22.516093</ele>
        <time>2020-08-27T18:04:25.628Z</time>
      </trkpt>
      <trkpt lat="69.18654" lon="18.05548">
        <ele>22.450509</ele>
        <time>2020-08-27T18:04:27.237Z</time>
      </trkpt>
      <trkpt lat="69.1865" lon="18.05546">
        <ele>22.416565</ele>
        <time>2020-08-27T18:04:27.811Z</time>
      </trkpt>
      <trkpt lat="69.18642" lon="18.05522">
        <ele>22.317452</ele>
        <time>2020-08-27T18:04:29.646Z</time>
      </trkpt>
      <trkpt lat="69.18641" lon="18.05511">
        <ele>22.284575</ele>
        <time>2020-08-27T18:04:30.208Z</time>
      </trkpt>
      <trkpt lat="69.18637" lon="18.05508">
        <ele>22.249062</ele>
        <time>2020-08-27T18:04:31.276Z</time>
      </trkpt>
      <trkpt lat="69.18615" lon="18.05478">
        <ele>22.046671</ele>
        <time>2020-08-27T18:04:35.582Z</time>
      </trkpt>
      <trkpt lat="69.18575" lon="18.05452">
        <ele>21.707294</ele>
        <time>2020-08-27T18:04:42.062Z</time>
      </trkpt>
      <trkpt lat="69.18487" lon="18.05442">
        <ele>20.322438</ele>
        <time>2020-08-27T18:04:55.962Z</time>
      </trkpt>
      <trkpt lat="69.18483" lon="18.05443">
        <ele>20.254765</ele>
        <time>2020-08-27T18:04:56.665Z</time>
      </trkpt>
      <trkpt lat="69.18463" lon="18.05453">
        <ele>19.898028</ele>
        <time>2020-08-27T18:04:59.944Z</time>
      </trkpt>
      <trkpt lat="69.18436" lon="18.05471">
        <ele>19.414078</ele>
        <time>2020-08-27T18:05:03.903Z</time>
      </trkpt>
      <trkpt lat="69.18432" lon="18.05476">
        <ele>19.327937</ele>
        <time>2020-08-27T18:05:04.741Z</time>
      </trkpt>
      <trkpt lat="69.18423" lon="18.05479">
        <ele>19.176667</ele>
        <time>2020-08-27T18:05:06.047Z</time>
      </trkpt>
      <trkpt lat="69.18418" lon="18.05479">
        <ele>19.079515</ele>
        <time>2020-08-27T18:05:06.718Z</time>
      </trkpt>
      <trkpt lat="69.18388" lon="18.0548">
        <ele>18.562128</ele>
        <time>2020-08-27T18:05:10.706Z</time>
      </trkpt>
      <trkpt lat="69.18384" lon="18.0548">
        <ele>18.493236</ele>
        <time>2020-08-27T18:05:11.167Z</time>
      </trkpt>
      <trkpt lat="69.18371" lon="18.05478">
        <ele>18.104367</ele>
        <time>2020-08-27T18:05:12.783Z</time>
      </trkpt>
      <trkpt lat="69.18269" lon="18.05542">
        <ele>13.652298</ele>
        <time>2020-08-27T18:05:25.748Z</time>
      </trkpt>
      <trkpt lat="69.18259" lon="18.05555">
        <ele>13.169281</ele>
        <time>2020-08-27T18:05:27.105Z</time>
      </trkpt>
      <trkpt lat="69.18253" lon="18.05529">
        <ele>12.720505</ele>
        <time>2020-08-27T18:05:28.551Z</time>
      </trkpt>
      <trkpt lat="69.1824" lon="18.05542">
        <ele>12.102038</ele>
        <time>2020-08-27T18:05:30.245Z</time>
      </trkpt>
      <trkpt lat="69.18155" lon="18.05653">
        <ele>8.891251</ele>
        <time>2020-08-27T18:05:42.018Z</time>
      </trkpt>
      <trkpt lat="69.18131" lon="18.05685">
        <ele>8.099501</ele>
        <time>2020-08-27T18:05:45.337Z</time>
      </trkpt>
      <trkpt lat="69.18103" lon="18.05715">
        <ele>7.198377</ele>
        <time>2020-08-27T18:05:49.296Z</time>
      </trkpt>
      <trkpt lat="69.18" lon="18.05784">
        <ele>4.978053</ele>
        <time>2020-08-27T18:06:04.777Z</time>
      </trkpt>
      <trkpt lat="69.17966" lon="18.05829">
        <ele>4.686187</ele>
        <time>2020-08-27T18:06:10.711Z</time>
      </trkpt>
      <trkpt lat="69.17932" lon="18.05898">
        <ele>4.362112</ele>
        <time>2020-08-27T18:06:17.575Z</time>
      </trkpt>
      <trkpt lat="69.17907" lon="18.05979">
        <ele>4.068441</ele>
        <time>2020-08-27T18:06:24.047Z</time>
      </trkpt>
      <trkpt lat="69.17891" lon="18.06063">
        <ele>4.037343</ele>
        <time>2020-08-27T18:06:29.877Z</time>
      </trkpt>
      <trkpt lat="69.1788" lon="18.06162">
        <ele>4.300493</ele>
        <time>2020-08-27T18:06:36.672Z</time>
      </trkpt>
      <trkpt lat="69.17877" lon="18.06258">
        <ele>4.545966</ele>
        <time>2020-08-27T18:06:43.514Z</time>
      </trkpt>
      <trkpt lat="69.17877" lon="18.06308">
        <ele>4.671397</ele>
        <time>2020-08-27T18:06:47.009Z</time>
      </trkpt>
      <trkpt lat="69.17879" lon="18.06365">
        <ele>4.818459</ele>
        <time>2020-08-27T18:06:51.337Z</time>
      </trkpt>
      <trkpt lat="69.17882" lon="18.06514">
        <ele>5.196707</ele>
        <time>2020-08-27T18:07:03.227Z</time>
      </trkpt>
      <trkpt lat="69.17882" lon="18.0657">
        <ele>5.438397</ele>
        <time>2020-08-27T18:07:07.947Z</time>
      </trkpt>
      <trkpt lat="69.17881" lon="18.0662">
        <ele>5.664977</ele>
        <time>2020-08-27T18:07:11.835Z</time>
      </trkpt>
      <trkpt lat="69.1787" lon="18.06799">
        <ele>6.490201</ele>
        <time>2020-08-27T18:07:26.552Z</time>
      </trkpt>
      <trkpt lat="69.17865" lon="18.06859">
        <ele>6.772323</ele>
        <time>2020-08-27T18:07:31.300Z</time>
      </trkpt>
      <trkpt lat="69.17867" lon="18.06862">
        <ele>6.809765</ele>
        <time>2020-08-27T18:07:32.255Z</time>
      </trkpt>
      <trkpt lat="69.17872" lon="18.06867">
        <ele>6.87312</ele>
        <time>2020-08-27T18:07:33.538Z</time>
      </trkpt>
      <trkpt lat="69.17875" lon="18.06869">
        <ele>6.914439</ele>
        <time>2020-08-27T18:07:34.547Z</time>
      </trkpt>
      <trkpt lat="69.17874" lon="18.06883">
        <ele>6.981345</ele>
        <time>2020-08-27T18:07:35.533Z</time>
      </trkpt>
      <trkpt lat="69.17867" lon="18.06932">
        <ele>7.223691</ele>
        <time>2020-08-27T18:07:39.597Z</time>
      </trkpt>
      <trkpt lat="69.17861" lon="18.06956">
        <ele>7.350209</ele>
        <time>2020-08-27T18:07:41.892Z</time>
      </trkpt>
      <trkpt lat="69.17858" lon="18.06969">
        <ele>7.426572</ele>
        <time>2020-08-27T18:07:43.047Z</time>
      </trkpt>
      <trkpt lat="69.1781" lon="18.07258">
        <ele>7.99521</ele>
        <time>2020-08-27T18:08:05.213Z</time>
      </trkpt>
      <trkpt lat="69.17789" lon="18.07417">
        <ele>8.268794</ele>
        <time>2020-08-27T18:08:15.754Z</time>
      </trkpt>
      <trkpt lat="69.17741" lon="18.08005">
        <ele>9.407853</ele>
        <time>2020-08-27T18:08:58.754Z</time>
      </trkpt>
      <trkpt lat="69.17739" lon="18.08013">
        <ele>9.40276</ele>
        <time>2020-08-27T18:08:59.283Z</time>
      </trkpt>
      <trkpt lat="69.1774" lon="18.08024">
        <ele>9.395808</ele>
        <time>2020-08-27T18:09:00.561Z</time>
      </trkpt>
      <trkpt lat="69.17726" lon="18.08142">
        <ele>9.323457</ele>
        <time>2020-08-27T18:09:11.515Z</time>
      </trkpt>
      <trkpt lat="69.17723" lon="18.08161">
        <ele>9.31099</ele>
        <time>2020-08-27T18:09:13.582Z</time>
      </trkpt>
      <trkpt lat="69.1772" lon="18.08175">
        <ele>9.301427</ele>
        <time>2020-08-27T18:09:14.981Z</time>
      </trkpt>
      <trkpt lat="69.17695" lon="18.08247">
        <ele>9.2424</ele>
        <time>2020-08-27T18:09:22.895Z</time>
      </trkpt>
      <trkpt lat="69.17688" lon="18.08259">
        <ele>9.228567</ele>
        <time>2020-08-27T18:09:24.756Z</time>
      </trkpt>
      <trkpt lat="69.17683" lon="18.08266">
        <ele>9.220015</ele>
        <time>2020-08-27T18:09:25.845Z</time>
      </trkpt>
      <trkpt lat="69.17646" lon="18.08302">
        <ele>9.155159</ele>
        <time>2020-08-27T18:09:34.179Z</time>
      </trkpt>
      <trkpt lat="69.17615" lon="18.08311">
        <ele>8.738781</ele>
        <time>2020-08-27T18:09:40.620Z</time>
      </trkpt>
      <trkpt lat="69.17609" lon="18.08309">
        <ele>8.638299</ele>
        <time>2020-08-27T18:09:41.757Z</time>
      </trkpt>
      <trkpt lat="69.17596" lon="18.08304">
        <ele>8.442502</ele>
        <time>2020-08-27T18:09:44.451Z</time>
      </trkpt>
      <trkpt lat="69.17586" lon="18.083">
        <ele>8.27925</ele>
        <time>2020-08-27T18:09:46.671Z</time>
      </trkpt>
      <trkpt lat="69.17567" lon="18.08288">
        <ele>7.978061</ele>
        <time>2020-08-27T18:09:49.234Z</time>
      </trkpt>
      <trkpt lat="69.17548" lon="18.08281">
        <ele>7.685162</ele>
        <time>2020-08-27T18:09:52.024Z</time>
      </trkpt>
      <trkpt lat="69.1753" lon="18.0829">
        <ele>7.392385</ele>
        <time>2020-08-27T18:09:54.473Z</time>
      </trkpt>
      <trkpt lat="69.17475" lon="18.08358">
        <ele>6.456559</ele>
        <time>2020-08-27T18:10:03.051Z</time>
      </trkpt>
      <trkpt lat="69.17447" lon="18.08428">
        <ele>6.795534</ele>
        <time>2020-08-27T18:10:08.910Z</time>
      </trkpt>
      <trkpt lat="69.17428" lon="18.08542">
        <ele>7.471012</ele>
        <time>2020-08-27T18:10:17.575Z</time>
      </trkpt>
      <trkpt lat="69.17424" lon="18.08565">
        <ele>7.61235</ele>
        <time>2020-08-27T18:10:19.409Z</time>
      </trkpt>
      <trkpt lat="69.17419" lon="18.08589">
        <ele>7.762446</ele>
        <time>2020-08-27T18:10:22.295Z</time>
      </trkpt>
      <trkpt lat="69.17412" lon="18.08633">
        <ele>8.015681</ele>
        <time>2020-08-27T18:10:26.911Z</time>
      </trkpt>
      <trkpt lat="69.17405" lon="18.08711">
        <ele>8.445473</ele>
        <time>2020-08-27T18:10:34.670Z</time>
      </trkpt>
      <trkpt lat="69.17403" lon="18.08736">
        <ele>8.586361</ele>
        <time>2020-08-27T18:10:37.220Z</time>
      </trkpt>
      <trkpt lat="69.17393" lon="18.08843">
        <ele>9.344695</ele>
        <time>2020-08-27T18:10:48.196Z</time>
      </trkpt>
      <trkpt lat="69.17394" lon="18.08966">
        <ele>10.912351</ele>
        <time>2020-08-27T18:11:00.892Z</time>
      </trkpt>
      <trkpt lat="69.17392" lon="18.08982">
        <ele>11.127997</ele>
        <time>2020-08-27T18:11:03.336Z</time>
      </trkpt>
      <trkpt lat="69.1739" lon="18.09005">
        <ele>11.427051</ele>
        <time>2020-08-27T18:11:06.313Z</time>
      </trkpt>
      <trkpt lat="69.17381" lon="18.09069">
        <ele>12.30719</ele>
        <time>2020-08-27T18:11:13.608Z</time>
      </trkpt>
      <trkpt lat="69.17372" lon="18.09255">
        <ele>14.697876</ele>
        <time>2020-08-27T18:11:34.073Z</time>
      </trkpt>
      <trkpt lat="69.17374" lon="18.09424">
        <ele>16.104082</ele>
        <time>2020-08-27T18:11:52.043Z</time>
      </trkpt>
      <trkpt lat="69.17388" lon="18.0955">
        <ele>16.859267</ele>
        <time>2020-08-27T18:12:02.777Z</time>
      </trkpt>
      <trkpt lat="69.17435" lon="18.09796">
        <ele>18.40911</ele>
        <time>2020-08-27T18:12:24.026Z</time>
      </trkpt>
      <trkpt lat="69.17446" lon="18.09879">
        <ele>18.515241</ele>
        <time>2020-08-27T18:12:30.288Z</time>
      </trkpt>
      <trkpt lat="69.17451" lon="18.09937">
        <ele>18.587916</ele>
        <time>2020-08-27T18:12:34.496Z</time>
      </trkpt>
      <trkpt lat="69.17453" lon="18.09971">
        <ele>18.628662</ele>
        <time>2020-08-27T18:12:36.814Z</time>
      </trkpt>
      <trkpt lat="69.17454" lon="18.1009">
        <ele>18.772894</ele>
        <time>2020-08-27T18:12:44.996Z</time>
      </trkpt>
      <trkpt lat="69.17449" lon="18.10198">
        <ele>18.904061</ele>
        <time>2020-08-27T18:12:52.381Z</time>
      </trkpt>
      <trkpt lat="69.17393" lon="18.10608">
        <ele>19.503647</ele>
        <time>2020-08-27T18:13:23.178Z</time>
      </trkpt>
      <trkpt lat="69.17392" lon="18.10617">
        <ele>19.516741</ele>
        <time>2020-08-27T18:13:23.888Z</time>
      </trkpt>
      <trkpt lat="69.17388" lon="18.10649">
        <ele>19.564069</ele>
        <time>2020-08-27T18:13:26.387Z</time>
      </trkpt>
      <trkpt lat="69.17381" lon="18.10702">
        <ele>19.644317</ele>
        <time>2020-08-27T18:13:30.409Z</time>
      </trkpt>
      <trkpt lat="69.17353" lon="18.1089">
        <ele>19.878679</ele>
        <time>2020-08-27T18:13:44.932Z</time>
      </trkpt>
      <trkpt lat="69.17345" lon="18.10955">
        <ele>19.953677</ele>
        <time>2020-08-27T18:13:50.019Z</time>
      </trkpt>
      <trkpt lat="69.17321" lon="18.11095">
        <ele>20.120583</ele>
        <time>2020-08-27T18:14:00.628Z</time>
      </trkpt>
      <trkpt lat="69.17314" lon="18.11127">
        <ele>20.161079</ele>
        <time>2020-08-27T18:14:03.293Z</time>
      </trkpt>
      <trkpt lat="69.17309" lon="18.11146">
        <ele>20.186712</ele>
        <time>2020-08-27T18:14:04.846Z</time>
      </trkpt>
      <trkpt lat="69.17276" lon="18.11282">
        <ele>20.393612</ele>
        <time>2020-08-27T18:14:15.690Z</time>
      </trkpt>
      <trkpt lat="69.17265" lon="18.11312">
        <ele>20.454819</ele>
        <time>2020-08-27T18:14:18.548Z</time>
      </trkpt>
      <trkpt lat="69.1726" lon="18.11319">
        <ele>20.477687</ele>
        <time>2020-08-27T18:14:19.579Z</time>
      </trkpt>
      <trkpt lat="69.17255" lon="18.11326">
        <ele>20.498187</ele>
        <time>2020-08-27T18:14:20.468Z</time>
      </trkpt>
      <trkpt lat="69.17027" lon="18.11476">
        <ele>23.27963</ele>
        <time>2020-08-27T18:15:08.727Z</time>
      </trkpt>
      <trkpt lat="69.17023" lon="18.11478">
        <ele>23.367491</ele>
        <time>2020-08-27T18:15:09.886Z</time>
      </trkpt>
      <trkpt lat="69.17018" lon="18.11473">
        <ele>23.481221</ele>
        <time>2020-08-27T18:15:11.764Z</time>
      </trkpt>
      <trkpt lat="69.17017" lon="18.11469">
        <ele>23.508888</ele>
        <time>2020-08-27T18:15:12.125Z</time>
      </trkpt>
      <trkpt lat="69.17016" lon="18.11462">
        <ele>23.563874</ele>
        <time>2020-08-27T18:15:12.863Z</time>
      </trkpt>
      <trkpt lat="69.17004" lon="18.11473">
        <ele>23.825846</ele>
        <time>2020-08-27T18:15:17.500Z</time>
      </trkpt>
      <trkpt lat="69.16993" lon="18.11486">
        <ele>24.062629</ele>
        <time>2020-08-27T18:15:20.652Z</time>
      </trkpt>
      <trkpt lat="69.1699" lon="18.11478">
        <ele>24.148306</ele>
        <time>2020-08-27T18:15:22.116Z</time>
      </trkpt>
      <trkpt lat="69.16983" lon="18.11476">
        <ele>24.274398</ele>
        <time>2020-08-27T18:15:23.974Z</time>
      </trkpt>
      <trkpt lat="69.16959" lon="18.11512">
        <ele>25.095551</ele>
        <time>2020-08-27T18:15:33.243Z</time>
      </trkpt>
      <trkpt lat="69.16955" lon="18.11517">
        <ele>25.241788</ele>
        <time>2020-08-27T18:15:34.579Z</time>
      </trkpt>
      <trkpt lat="69.16957" lon="18.11527">
        <ele>25.414558</ele>
        <time>2020-08-27T18:15:35.830Z</time>
      </trkpt>
      <trkpt lat="69.16959" lon="18.11537">
        <ele>25.572855</ele>
        <time>2020-08-27T18:15:37.377Z</time>
      </trkpt>
      <trkpt lat="69.1693" lon="18.11578">
        <ele>26.880996</ele>
        <time>2020-08-27T18:15:47.968Z</time>
      </trkpt>
      <trkpt lat="69.16923" lon="18.11587">
        <ele>27.212669</ele>
        <time>2020-08-27T18:15:51.564Z</time>
      </trkpt>
      <trkpt lat="69.16871" lon="18.11635">
        <ele>29.408679</ele>
        <time>2020-08-27T18:16:09.865Z</time>
      </trkpt>
      <trkpt lat="69.16734" lon="18.11691">
        <ele>30.913791</ele>
        <time>2020-08-27T18:16:45.777Z</time>
      </trkpt>
      <trkpt lat="69.16418" lon="18.11702">
        <ele>21.121951</ele>
        <time>2020-08-27T18:17:25.350Z</time>
      </trkpt>
      <trkpt lat="69.16408" lon="18.11706">
        <ele>20.761303</ele>
        <time>2020-08-27T18:17:26.616Z</time>
      </trkpt>
      <trkpt lat="69.16384" lon="18.1171">
        <ele>19.957009</ele>
        <time>2020-08-27T18:17:29.644Z</time>
      </trkpt>
      <trkpt lat="69.16251" lon="18.11694">
        <ele>15.98344</ele>
        <time>2020-08-27T18:17:47.163Z</time>
      </trkpt>
      <trkpt lat="69.16213" lon="18.1173">
        <ele>15.568278</ele>
        <time>2020-08-27T18:17:53.627Z</time>
      </trkpt>
      <trkpt lat="69.16193" lon="18.11783">
        <ele>15.280208</ele>
        <time>2020-08-27T18:17:58.335Z</time>
      </trkpt>
      <trkpt lat="69.16181" lon="18.11834">
        <ele>15.053223</ele>
        <time>2020-08-27T18:18:02.140Z</time>
      </trkpt>
      <trkpt lat="69.16177" lon="18.11854">
        <ele>14.964726</ele>
        <time>2020-08-27T18:18:03.605Z</time>
      </trkpt>
      <trkpt lat="69.16171" lon="18.11892">
        <ele>14.810156</ele>
        <time>2020-08-27T18:18:05.906Z</time>
      </trkpt>
      <trkpt lat="69.16167" lon="18.11916">
        <ele>14.710605</ele>
        <time>2020-08-27T18:18:07.635Z</time>
      </trkpt>
      <trkpt lat="69.16138" lon="18.12085">
        <ele>13.76171</ele>
        <time>2020-08-27T18:18:18.208Z</time>
      </trkpt>
      <trkpt lat="69.16131" lon="18.12122">
        <ele>13.481388</ele>
        <time>2020-08-27T18:18:20.523Z</time>
      </trkpt>
      <trkpt lat="69.16128" lon="18.12137">
        <ele>13.370007</ele>
        <time>2020-08-27T18:18:21.314Z</time>
      </trkpt>
      <trkpt lat="69.16122" lon="18.12167">
        <ele>13.14242</ele>
        <time>2020-08-27T18:18:23.118Z</time>
      </trkpt>
      <trkpt lat="69.16108" lon="18.1223">
        <ele>12.648711</ele>
        <time>2020-08-27T18:18:27.035Z</time>
      </trkpt>
      <trkpt lat="69.16104" lon="18.12248">
        <ele>12.516805</ele>
        <time>2020-08-27T18:18:28.061Z</time>
      </trkpt>
      <trkpt lat="69.16083" lon="18.12344">
        <ele>11.764499</ele>
        <time>2020-08-27T18:18:33.640Z</time>
      </trkpt>
      <trkpt lat="69.16079" lon="18.12363">
        <ele>11.622725</ele>
        <time>2020-08-27T18:18:34.734Z</time>
      </trkpt>
      <trkpt lat="69.16075" lon="18.12381">
        <ele>11.481204</ele>
        <time>2020-08-27T18:18:35.802Z</time>
      </trkpt>
      <trkpt lat="69.16058" lon="18.12467">
        <ele>10.758525</ele>
        <time>2020-08-27T18:18:40.509Z</time>
      </trkpt>
      <trkpt lat="69.16054" lon="18.1249">
        <ele>10.521467</ele>
        <time>2020-08-27T18:18:41.628Z</time>
      </trkpt>
      <trkpt lat="69.16051" lon="18.12515">
        <ele>10.265316</ele>
        <time>2020-08-27T18:18:42.887Z</time>
      </trkpt>
      <trkpt lat="69.16034" lon="18.12672">
        <ele>8.726523</ele>
        <time>2020-08-27T18:18:50.579Z</time>
      </trkpt>
      <trkpt lat="69.16033" lon="18.12689">
        <ele>8.565263</ele>
        <time>2020-08-27T18:18:51.335Z</time>
      </trkpt>
      <trkpt lat="69.16031" lon="18.12721">
        <ele>8.256721</ele>
        <time>2020-08-27T18:18:52.880Z</time>
      </trkpt>
      <trkpt lat="69.16032" lon="18.12911">
        <ele>6.469869</ele>
        <time>2020-08-27T18:19:02.056Z</time>
      </trkpt>
      <trkpt lat="69.16035" lon="18.12989">
        <ele>6.18245</ele>
        <time>2020-08-27T18:19:06.133Z</time>
      </trkpt>
      <trkpt lat="69.16036" lon="18.13013">
        <ele>6.160104</ele>
        <time>2020-08-27T18:19:07.434Z</time>
      </trkpt>
      <trkpt lat="69.1604" lon="18.13076">
        <ele>6.100951</ele>
        <time>2020-08-27T18:19:11.037Z</time>
      </trkpt>
      <trkpt lat="69.16042" lon="18.13134">
        <ele>6.046831</ele>
        <time>2020-08-27T18:19:14.236Z</time>
      </trkpt>
      <trkpt lat="69.16052" lon="18.13318">
        <ele>5.875093</ele>
        <time>2020-08-27T18:19:26.295Z</time>
      </trkpt>
      <trkpt lat="69.16055" lon="18.13387">
        <ele>5.810725</ele>
        <time>2020-08-27T18:19:31.096Z</time>
      </trkpt>
      <trkpt lat="69.16057" lon="18.1343">
        <ele>5.771335</ele>
        <time>2020-08-27T18:19:34.380Z</time>
      </trkpt>
      <trkpt lat="69.1606" lon="18.13492">
        <ele>6.037736</ele>
        <time>2020-08-27T18:19:39.166Z</time>
      </trkpt>
      <trkpt lat="69.16078" lon="18.13878">
        <ele>7.995175</ele>
        <time>2020-08-27T18:20:12.269Z</time>
      </trkpt>
      <trkpt lat="69.16085" lon="18.14028">
        <ele>8.173624</ele>
        <time>2020-08-27T18:20:23.211Z</time>
      </trkpt>
      <trkpt lat="69.16086" lon="18.14105">
        <ele>8.065547</ele>
        <time>2020-08-27T18:20:27.767Z</time>
      </trkpt>
      <trkpt lat="69.16087" lon="18.14153">
        <ele>7.999305</ele>
        <time>2020-08-27T18:20:30.611Z</time>
      </trkpt>
      <trkpt lat="69.16087" lon="18.14163">
        <ele>7.985471</ele>
        <time>2020-08-27T18:20:31.067Z</time>
      </trkpt>
      <trkpt lat="69.16085" lon="18.14224">
        <ele>7.898918</ele>
        <time>2020-08-27T18:20:34.541Z</time>
      </trkpt>
      <trkpt lat="69.16082" lon="18.14294">
        <ele>7.800338</ele>
        <time>2020-08-27T18:20:38.219Z</time>
      </trkpt>
      <trkpt lat="69.16072" lon="18.14421">
        <ele>7.619455</ele>
        <time>2020-08-27T18:20:45.387Z</time>
      </trkpt>
      <trkpt lat="69.16061" lon="18.14555">
        <ele>7.819127</ele>
        <time>2020-08-27T18:20:53.741Z</time>
      </trkpt>
      <trkpt lat="69.16056" lon="18.14623">
        <ele>7.950791</ele>
        <time>2020-08-27T18:20:58.172Z</time>
      </trkpt>
      <trkpt lat="69.16053" lon="18.14676">
        <ele>8.05341</ele>
        <time>2020-08-27T18:21:01.709Z</time>
      </trkpt>
      <trkpt lat="69.16049" lon="18.14723">
        <ele>8.14501</ele>
        <time>2020-08-27T18:21:04.910Z</time>
      </trkpt>
      <trkpt lat="69.16041" lon="18.14821">
        <ele>8.335374</ele>
        <time>2020-08-27T18:21:12.157Z</time>
      </trkpt>
      <trkpt lat="69.16028" lon="18.1497">
        <ele>8.827831</ele>
        <time>2020-08-27T18:21:24.885Z</time>
      </trkpt>
      <trkpt lat="69.16013" lon="18.15096">
        <ele>9.758906</ele>
        <time>2020-08-27T18:21:36.979Z</time>
      </trkpt>
      <trkpt lat="69.15998" lon="18.15172">
        <ele>10.365398</ele>
        <time>2020-08-27T18:21:45.202Z</time>
      </trkpt>
      <trkpt lat="69.15934" lon="18.15405">
        <ele>12.382559</ele>
        <time>2020-08-27T18:22:09.762Z</time>
      </trkpt>
      <trkpt lat="69.15873" lon="18.15721">
        <ele>14.539868</ele>
        <time>2020-08-27T18:22:39.335Z</time>
      </trkpt>
      <trkpt lat="69.15824" lon="18.15871">
        <ele>15.623924</ele>
        <time>2020-08-27T18:22:56.494Z</time>
      </trkpt>
      <trkpt lat="69.15767" lon="18.15977">
        <ele>16.524576</ele>
        <time>2020-08-27T18:23:12.069Z</time>
      </trkpt>
      <trkpt lat="69.15706" lon="18.16055">
        <ele>17.420952</ele>
        <time>2020-08-27T18:23:26.676Z</time>
      </trkpt>
      <trkpt lat="69.15482" lon="18.16234">
        <ele>17.597201</ele>
        <time>2020-08-27T18:24:09.468Z</time>
      </trkpt>
      <trkpt lat="69.15445" lon="18.16266">
        <ele>17.302226</ele>
        <time>2020-08-27T18:24:15.414Z</time>
      </trkpt>
      <trkpt lat="69.1543" lon="18.1628">
        <ele>17.179647</ele>
        <time>2020-08-27T18:24:17.906Z</time>
      </trkpt>
      <trkpt lat="69.15416" lon="18.16295">
        <ele>17.062554</ele>
        <time>2020-08-27T18:24:20.133Z</time>
      </trkpt>
      <trkpt lat="69.15398" lon="18.16317">
        <ele>16.907924</ele>
        <time>2020-08-27T18:24:23.237Z</time>
      </trkpt>
      <trkpt lat="69.15351" lon="18.16393">
        <ele>16.485889</ele>
        <time>2020-08-27T18:24:31.433Z</time>
      </trkpt>
      <trkpt lat="69.15334" lon="18.16424">
        <ele>16.34222</ele>
        <time>2020-08-27T18:24:34.407Z</time>
      </trkpt>
      <trkpt lat="69.15325" lon="18.16446">
        <ele>16.252428</ele>
        <time>2020-08-27T18:24:36.121Z</time>
      </trkpt>
      <trkpt lat="69.15279" lon="18.16563">
        <ele>15.793743</ele>
        <time>2020-08-27T18:24:45.178Z</time>
      </trkpt>
      <trkpt lat="69.15188" lon="18.16847">
        <ele>16.23874</ele>
        <time>2020-08-27T18:25:10.453Z</time>
      </trkpt>
      <trkpt lat="69.15177" lon="18.16883">
        <ele>16.517741</ele>
        <time>2020-08-27T18:25:14.650Z</time>
      </trkpt>
      <trkpt lat="69.15171" lon="18.16902">
        <ele>16.682873</ele>
        <time>2020-08-27T18:25:17.211Z</time>
      </trkpt>
      <trkpt lat="69.15159" lon="18.16933">
        <ele>16.954349</ele>
        <time>2020-08-27T18:25:21.009Z</time>
      </trkpt>
      <trkpt lat="69.15162" lon="18.16941">
        <ele>17.021567</ele>
        <time>2020-08-27T18:25:22.043Z</time>
      </trkpt>
      <trkpt lat="69.15163" lon="18.16947">
        <ele>17.062179</ele>
        <time>2020-08-27T18:25:22.691Z</time>
      </trkpt>
      <trkpt lat="69.15164" lon="18.16958">
        <ele>17.128521</ele>
        <time>2020-08-27T18:25:23.724Z</time>
      </trkpt>
      <trkpt lat="69.15159" lon="18.16962">
        <ele>17.211549</ele>
        <time>2020-08-27T18:25:25.212Z</time>
      </trkpt>
      <trkpt lat="69.15157" lon="18.16964">
        <ele>17.250849</ele>
        <time>2020-08-27T18:25:25.757Z</time>
      </trkpt>
      <trkpt lat="69.15143" lon="18.16989">
        <ele>17.532732</ele>
        <time>2020-08-27T18:25:29.732Z</time>
      </trkpt>
      <trkpt lat="69.15126" lon="18.17019">
        <ele>17.87456</ele>
        <time>2020-08-27T18:25:35.280Z</time>
      </trkpt>
      <trkpt lat="69.15103" lon="18.17052">
        <ele>18.316417</ele>
        <time>2020-08-27T18:25:41.899Z</time>
      </trkpt>
      <trkpt lat="69.15081" lon="18.17066">
        <ele>18.790484</ele>
        <time>2020-08-27T18:25:47.921Z</time>
      </trkpt>
      <trkpt lat="69.15072" lon="18.17067">
        <ele>18.978103</ele>
        <time>2020-08-27T18:25:50.547Z</time>
      </trkpt>
      <trkpt lat="69.15064" lon="18.17067">
        <ele>19.138772</ele>
        <time>2020-08-27T18:25:52.862Z</time>
      </trkpt>
      <trkpt lat="69.15002" lon="18.17059">
        <ele>20.421172</ele>
        <time>2020-08-27T18:26:08.993Z</time>
      </trkpt>
      <trkpt lat="69.14892" lon="18.16953">
        <ele>22.209411</ele>
        <time>2020-08-27T18:26:34.702Z</time>
      </trkpt>
      <trkpt lat="69.14882" lon="18.1694">
        <ele>22.267835</ele>
        <time>2020-08-27T18:26:36.668Z</time>
      </trkpt>
      <trkpt lat="69.14866" lon="18.16913">
        <ele>22.375861</ele>
        <time>2020-08-27T18:26:40.579Z</time>
      </trkpt>
      <trkpt lat="69.14825" lon="18.1683">
        <ele>22.664534</ele>
        <time>2020-08-27T18:26:50.291Z</time>
      </trkpt>
      <trkpt lat="69.14814" lon="18.16794">
        <ele>22.75958</ele>
        <time>2020-08-27T18:26:53.601Z</time>
      </trkpt>
      <trkpt lat="69.14803" lon="18.16754">
        <ele>22.861656</ele>
        <time>2020-08-27T18:26:56.823Z</time>
      </trkpt>
      <trkpt lat="69.1479" lon="18.16711">
        <ele>22.973213</ele>
        <time>2020-08-27T18:27:00.524Z</time>
      </trkpt>
      <trkpt lat="69.14775" lon="18.16585">
        <ele>22.730385</ele>
        <time>2020-08-27T18:27:08.672Z</time>
      </trkpt>
      <trkpt lat="69.14759" lon="18.16353">
        <ele>22.203313</ele>
        <time>2020-08-27T18:27:22.389Z</time>
      </trkpt>
      <trkpt lat="69.14755" lon="18.16292">
        <ele>22.064937</ele>
        <time>2020-08-27T18:27:25.732Z</time>
      </trkpt>
      <trkpt lat="69.14751" lon="18.16228">
        <ele>21.918253</ele>
        <time>2020-08-27T18:27:29.361Z</time>
      </trkpt>
      <trkpt lat="69.14749" lon="18.16213">
        <ele>21.883631</ele>
        <time>2020-08-27T18:27:30.142Z</time>
      </trkpt>
      <trkpt lat="69.14748" lon="18.16199">
        <ele>21.796527</ele>
        <time>2020-08-27T18:27:30.984Z</time>
      </trkpt>
      <trkpt lat="69.14746" lon="18.16181">
        <ele>21.649441</ele>
        <time>2020-08-27T18:27:31.926Z</time>
      </trkpt>
      <trkpt lat="69.14723" lon="18.16014">
        <ele>20.18085</ele>
        <time>2020-08-27T18:27:41.489Z</time>
      </trkpt>
      <trkpt lat="69.14715" lon="18.15971">
        <ele>19.793704</ele>
        <time>2020-08-27T18:27:43.960Z</time>
      </trkpt>
      <trkpt lat="69.1471" lon="18.1598">
        <ele>19.657485</ele>
        <time>2020-08-27T18:27:44.819Z</time>
      </trkpt>
      <trkpt lat="69.14706" lon="18.1597">
        <ele>19.531387</ele>
        <time>2020-08-27T18:27:45.529Z</time>
      </trkpt>
      <trkpt lat="69.14693" lon="18.15939">
        <ele>19.149678</ele>
        <time>2020-08-27T18:27:47.688Z</time>
      </trkpt>
      <trkpt lat="69.14653" lon="18.15752">
        <ele>17.022606</ele>
        <time>2020-08-27T18:27:57.994Z</time>
      </trkpt>
      <trkpt lat="69.14648" lon="18.15734">
        <ele>16.67665</ele>
        <time>2020-08-27T18:27:58.993Z</time>
      </trkpt>
      <trkpt lat="69.14651" lon="18.15726">
        <ele>16.479594</ele>
        <time>2020-08-27T18:27:59.607Z</time>
      </trkpt>
      <trkpt lat="69.14655" lon="18.15716">
        <ele>16.264633</ele>
        <time>2020-08-27T18:28:00.272Z</time>
      </trkpt>
      <trkpt lat="69.14649" lon="18.15693">
        <ele>15.799898</ele>
        <time>2020-08-27T18:28:01.609Z</time>
      </trkpt>
      <trkpt lat="69.14643" lon="18.15671">
        <ele>15.387168</ele>
        <time>2020-08-27T18:28:02.848Z</time>
      </trkpt>
      <trkpt lat="69.14635" lon="18.15643">
        <ele>14.837562</ele>
        <time>2020-08-27T18:28:04.421Z</time>
      </trkpt>
      <trkpt lat="69.1463" lon="18.15623">
        <ele>14.453587</ele>
        <time>2020-08-27T18:28:05.480Z</time>
      </trkpt>
      <trkpt lat="69.14606" lon="18.15547">
        <ele>12.880086</ele>
        <time>2020-08-27T18:28:09.901Z</time>
      </trkpt>
      <trkpt lat="69.14573" lon="18.15449">
        <ele>10.800623</ele>
        <time>2020-08-27T18:28:15.794Z</time>
      </trkpt>
      <trkpt lat="69.1457" lon="18.1544">
        <ele>10.59095</ele>
        <time>2020-08-27T18:28:16.360Z</time>
      </trkpt>
      <trkpt lat="69.14551" lon="18.15383">
        <ele>9.479706</ele>
        <time>2020-08-27T18:28:19.691Z</time>
      </trkpt>
      <trkpt lat="69.14543" lon="18.15371">
        <ele>9.171015</ele>
        <time>2020-08-27T18:28:20.758Z</time>
      </trkpt>
      <trkpt lat="69.14528" lon="18.15353">
        <ele>8.591939</ele>
        <time>2020-08-27T18:28:22.727Z</time>
      </trkpt>
      <trkpt lat="69.14524" lon="18.15346">
        <ele>8.427389</ele>
        <time>2020-08-27T18:28:23.261Z</time>
      </trkpt>
      <trkpt lat="69.1452" lon="18.15338">
        <ele>8.240487</ele>
        <time>2020-08-27T18:28:23.954Z</time>
      </trkpt>
      <trkpt lat="69.14518" lon="18.15334">
        <ele>8.15417</ele>
        <time>2020-08-27T18:28:24.254Z</time>
      </trkpt>
      <trkpt lat="69.14515" lon="18.15325">
        <ele>8.001388</ele>
        <time>2020-08-27T18:28:24.791Z</time>
      </trkpt>
      <trkpt lat="69.14512" lon="18.15319">
        <ele>7.889187</ele>
        <time>2020-08-27T18:28:25.185Z</time>
      </trkpt>
      <trkpt lat="69.14512" lon="18.15312">
        <ele>7.795205</ele>
        <time>2020-08-27T18:28:25.478Z</time>
      </trkpt>
      <trkpt lat="69.14506" lon="18.15266">
        <ele>7.178916</ele>
        <time>2020-08-27T18:28:27.735Z</time>
      </trkpt>
      <trkpt lat="69.14466" lon="18.15117">
        <ele>4.82794</ele>
        <time>2020-08-27T18:28:36.362Z</time>
      </trkpt>
      <trkpt lat="69.14464" lon="18.15109">
        <ele>4.702938</ele>
        <time>2020-08-27T18:28:36.775Z</time>
      </trkpt>
      <trkpt lat="69.14456" lon="18.15083">
        <ele>4.254873</ele>
        <time>2020-08-27T18:28:38.539Z</time>
      </trkpt>
      <trkpt lat="69.14438" lon="18.15042">
        <ele>3.585496</ele>
        <time>2020-08-27T18:28:41.744Z</time>
      </trkpt>
      <trkpt lat="69.1443" lon="18.15029">
        <ele>3.704241</ele>
        <time>2020-08-27T18:28:43.127Z</time>
      </trkpt>
      <trkpt lat="69.14393" lon="18.14969">
        <ele>4.288396</ele>
        <time>2020-08-27T18:28:49.809Z</time>
      </trkpt>
      <trkpt lat="69.14388" lon="18.1496">
        <ele>4.368714</ele>
        <time>2020-08-27T18:28:51.128Z</time>
      </trkpt>
      <trkpt lat="69.14386" lon="18.14955">
        <ele>4.403219</ele>
        <time>2020-08-27T18:28:51.657Z</time>
      </trkpt>
      <trkpt lat="69.14376" lon="18.1492">
        <ele>4.618285</ele>
        <time>2020-08-27T18:28:54.916Z</time>
      </trkpt>
      <trkpt lat="69.14373" lon="18.14886">
        <ele>4.785274</ele>
        <time>2020-08-27T18:28:57.382Z</time>
      </trkpt>
      <trkpt lat="69.14372" lon="18.14876">
        <ele>4.833075</ele>
        <time>2020-08-27T18:28:58.381Z</time>
      </trkpt>
      <trkpt lat="69.14372" lon="18.14865">
        <ele>4.887186</ele>
        <time>2020-08-27T18:28:59.384Z</time>
      </trkpt>
      <trkpt lat="69.14372" lon="18.14854">
        <ele>4.937823</ele>
        <time>2020-08-27T18:29:00.380Z</time>
      </trkpt>
      <trkpt lat="69.14372" lon="18.14848">
        <ele>4.969099</ele>
        <time>2020-08-27T18:29:01.049Z</time>
      </trkpt>
      <trkpt lat="69.14368" lon="18.14848">
        <ele>5.015009</ele>
        <time>2020-08-27T18:29:01.909Z</time>
      </trkpt>
      <trkpt lat="69.1434" lon="18.14864">
        <ele>5.404884</ele>
        <time>2020-08-27T18:29:08.772Z</time>
      </trkpt>
      <trkpt lat="69.14335" lon="18.1487">
        <ele>5.477448</ele>
        <time>2020-08-27T18:29:10.487Z</time>
      </trkpt>
      <trkpt lat="69.14331" lon="18.14876">
        <ele>5.537722</ele>
        <time>2020-08-27T18:29:11.792Z</time>
      </trkpt>
      <trkpt lat="69.14327" lon="18.1487">
        <ele>5.598954</ele>
        <time>2020-08-27T18:29:13.141Z</time>
      </trkpt>
      <trkpt lat="69.14287" lon="18.14796">
        <ele>7.319649</ele>
        <time>2020-08-27T18:29:28.501Z</time>
      </trkpt>
      <trkpt lat="69.14285" lon="18.14789">
        <ele>7.527552</ele>
        <time>2020-08-27T18:29:30.245Z</time>
      </trkpt>
      <trkpt lat="69.14265" lon="18.14701">
        <ele>9.997347</ele>
        <time>2020-08-27T18:29:42.878Z</time>
      </trkpt>
      <trkpt lat="69.14255" lon="18.14658">
        <ele>11.215898</ele>
        <time>2020-08-27T18:29:49.309Z</time>
      </trkpt>
      <trkpt lat="69.14234" lon="18.14552">
        <ele>14.099621</ele>
        <time>2020-08-27T18:30:06.908Z</time>
      </trkpt>
      <trkpt lat="69.14233" lon="18.14538">
        <ele>14.434349</ele>
        <time>2020-08-27T18:30:09.238Z</time>
      </trkpt>
      <trkpt lat="69.14231" lon="18.14533">
        <ele>14.594499</ele>
        <time>2020-08-27T18:30:11.364Z</time>
      </trkpt>
      <trkpt lat="69.14222" lon="18.14294">
        <ele>20.60385</ele>
        <time>2020-08-27T18:30:49.283Z</time>
      </trkpt>
      <trkpt lat="69.1422" lon="18.14239">
        <ele>22.082601</ele>
        <time>2020-08-27T18:30:57.797Z</time>
      </trkpt>
      <trkpt lat="69.14219" lon="18.14211">
        <ele>22.835318</ele>
        <time>2020-08-27T18:31:03.397Z</time>
      </trkpt>
      <trkpt lat="69.14215" lon="18.14033">
        <ele>27.644728</ele>
        <time>2020-08-27T18:31:29.918Z</time>
      </trkpt>
      <trkpt lat="69.14215" lon="18.1392">
        <ele>30.67672</ele>
        <time>2020-08-27T18:31:46.277Z</time>
      </trkpt>
      <trkpt lat="69.14216" lon="18.13835">
        <ele>32.170643</ele>
        <time>2020-08-27T18:31:57.813Z</time>
      </trkpt>
      <trkpt lat="69.14216" lon="18.13603">
        <ele>35.025529</ele>
        <time>2020-08-27T18:32:24.999Z</time>
      </trkpt>
      <trkpt lat="69.14191" lon="18.13366">
        <ele>37.40565</ele>
        <time>2020-08-27T18:32:45.557Z</time>
      </trkpt>
      <trkpt lat="69.14189" lon="18.13343">
        <ele>37.136365</ele>
        <time>2020-08-27T18:32:47.244Z</time>
      </trkpt>
      <trkpt lat="69.14187" lon="18.13334">
        <ele>37.007857</ele>
        <time>2020-08-27T18:32:47.873Z</time>
      </trkpt>
      <trkpt lat="69.14165" lon="18.13277">
        <ele>36.063397</ele>
        <time>2020-08-27T18:32:52.227Z</time>
      </trkpt>
      <trkpt lat="69.14139" lon="18.13167">
        <ele>34.536634</ele>
        <time>2020-08-27T18:32:58.098Z</time>
      </trkpt>
      <trkpt lat="69.1413" lon="18.1303">
        <ele>32.935215</ele>
        <time>2020-08-27T18:33:04.283Z</time>
      </trkpt>
      <trkpt lat="69.1414" lon="18.12961">
        <ele>32.070927</ele>
        <time>2020-08-27T18:33:07.465Z</time>
      </trkpt>
      <trkpt lat="69.14153" lon="18.12915">
        <ele>31.094249</ele>
        <time>2020-08-27T18:33:10.004Z</time>
      </trkpt>
      <trkpt lat="69.14153" lon="18.12911">
        <ele>31.027129</ele>
        <time>2020-08-27T18:33:10.146Z</time>
      </trkpt>
      <trkpt lat="69.14113" lon="18.12599">
        <ele>24.964471</ele>
        <time>2020-08-27T18:33:24.208Z</time>
      </trkpt>
      <trkpt lat="69.14083" lon="18.1247">
        <ele>22.540801</ele>
        <time>2020-08-27T18:33:31.002Z</time>
      </trkpt>
      <trkpt lat="69.14054" lon="18.12406">
        <ele>22.005903</ele>
        <time>2020-08-27T18:33:36.173Z</time>
      </trkpt>
      <trkpt lat="69.14051" lon="18.12399">
        <ele>21.944911</ele>
        <time>2020-08-27T18:33:36.833Z</time>
      </trkpt>
      <trkpt lat="69.14063" lon="18.12376">
        <ele>21.733878</ele>
        <time>2020-08-27T18:33:39.688Z</time>
      </trkpt>
      <trkpt lat="69.14068" lon="18.12366">
        <ele>21.643209</ele>
        <time>2020-08-27T18:33:40.879Z</time>
      </trkpt>
      <trkpt lat="69.14056" lon="18.1232">
        <ele>21.347031</ele>
        <time>2020-08-27T18:33:44.303Z</time>
      </trkpt>
      <trkpt lat="69.14043" lon="18.12271">
        <ele>21.029058</ele>
        <time>2020-08-27T18:33:47.823Z</time>
      </trkpt>
      <trkpt lat="69.14023" lon="18.12197">
        <ele>20.547242</ele>
        <time>2020-08-27T18:33:53.450Z</time>
      </trkpt>
      <trkpt lat="69.14006" lon="18.12132">
        <ele>20.119021</ele>
        <time>2020-08-27T18:33:58.576Z</time>
      </trkpt>
      <trkpt lat="69.13983" lon="18.12049">
        <ele>19.6769</ele>
        <time>2020-08-27T18:34:05.222Z</time>
      </trkpt>
      <trkpt lat="69.13981" lon="18.12038">
        <ele>19.628213</ele>
        <time>2020-08-27T18:34:06.084Z</time>
      </trkpt>
      <trkpt lat="69.13967" lon="18.11908">
        <ele>19.069269</ele>
        <time>2020-08-27T18:34:15.083Z</time>
      </trkpt>
      <trkpt lat="69.1394" lon="18.11501">
        <ele>16.77592</ele>
        <time>2020-08-27T18:34:36.920Z</time>
      </trkpt>
      <trkpt lat="69.13945" lon="18.11472">
        <ele>16.518581</ele>
        <time>2020-08-27T18:34:38.625Z</time>
      </trkpt>
      <trkpt lat="69.13957" lon="18.11455">
        <ele>16.213488</ele>
        <time>2020-08-27T18:34:40.646Z</time>
      </trkpt>
      <trkpt lat="69.13968" lon="18.11452">
        <ele>15.966842</ele>
        <time>2020-08-27T18:34:42.047Z</time>
      </trkpt>
      <trkpt lat="69.13964" lon="18.11389">
        <ele>15.456963</ele>
        <time>2020-08-27T18:34:45.118Z</time>
      </trkpt>
      <trkpt lat="69.13959" lon="18.11184">
        <ele>13.859463</ele>
        <time>2020-08-27T18:34:55.279Z</time>
      </trkpt>
      <trkpt lat="69.13963" lon="18.11016">
        <ele>13.343652</ele>
        <time>2020-08-27T18:35:03.781Z</time>
      </trkpt>
      <trkpt lat="69.13963" lon="18.10988">
        <ele>13.258429</ele>
        <time>2020-08-27T18:35:05.131Z</time>
      </trkpt>
      <trkpt lat="69.13963" lon="18.10966">
        <ele>13.193042</ele>
        <time>2020-08-27T18:35:06.871Z</time>
      </trkpt>
      <trkpt lat="69.13939" lon="18.10645">
        <ele>12.607976</ele>
        <time>2020-08-27T18:35:26.920Z</time>
      </trkpt>
      <trkpt lat="69.13934" lon="18.10247">
        <ele>14.392868</ele>
        <time>2020-08-27T18:35:57.898Z</time>
      </trkpt>
      <trkpt lat="69.13925" lon="18.10186">
        <ele>14.782779</ele>
        <time>2020-08-27T18:36:03.880Z</time>
      </trkpt>
      <trkpt lat="69.13883" lon="18.10035">
        <ele>16.815567</ele>
        <time>2020-08-27T18:36:22.674Z</time>
      </trkpt>
      <trkpt lat="69.1388" lon="18.10022">
        <ele>16.976974</ele>
        <time>2020-08-27T18:36:25.326Z</time>
      </trkpt>
      <trkpt lat="69.13871" lon="18.09987">
        <ele>17.440206</ele>
        <time>2020-08-27T18:36:29.553Z</time>
      </trkpt>
      <trkpt lat="69.13863" lon="18.09954">
        <ele>17.855265</ele>
        <time>2020-08-27T18:36:32.878Z</time>
      </trkpt>
      <trkpt lat="69.13843" lon="18.09863">
        <ele>18.985475</ele>
        <time>2020-08-27T18:36:44.100Z</time>
      </trkpt>
      <trkpt lat="69.13812" lon="18.09714">
        <ele>20.291312</ele>
        <time>2020-08-27T18:37:02.141Z</time>
      </trkpt>
      <trkpt lat="69.13647" lon="18.09022">
        <ele>21.578501</ele>
        <time>2020-08-27T18:37:59.343Z</time>
      </trkpt>
      <trkpt lat="69.13617" lon="18.08888">
        <ele>21.098066</ele>
        <time>2020-08-27T18:38:07.134Z</time>
      </trkpt>
      <trkpt lat="69.13614" lon="18.08877">
        <ele>21.02005</ele>
        <time>2020-08-27T18:38:07.737Z</time>
      </trkpt>
      <trkpt lat="69.13608" lon="18.08852">
        <ele>20.838323</ele>
        <time>2020-08-27T18:38:09.117Z</time>
      </trkpt>
      <trkpt lat="69.13579" lon="18.08753">
        <ele>20.058485</ele>
        <time>2020-08-27T18:38:15.224Z</time>
      </trkpt>
      <trkpt lat="69.13552" lon="18.0868">
        <ele>19.42735</ele>
        <time>2020-08-27T18:38:20.249Z</time>
      </trkpt>
      <trkpt lat="69.1354" lon="18.08648">
        <ele>19.144251</ele>
        <time>2020-08-27T18:38:23.006Z</time>
      </trkpt>
      <trkpt lat="69.13517" lon="18.08594">
        <ele>18.633072</ele>
        <time>2020-08-27T18:38:27.908Z</time>
      </trkpt>
      <trkpt lat="69.13509" lon="18.08577">
        <ele>18.467976</ele>
        <time>2020-08-27T18:38:29.325Z</time>
      </trkpt>
      <trkpt lat="69.13474" lon="18.08503">
        <ele>19.186344</ele>
        <time>2020-08-27T18:38:37.908Z</time>
      </trkpt>
      <trkpt lat="69.13458" lon="18.0847">
        <ele>19.559033</ele>
        <time>2020-08-27T18:38:42.861Z</time>
      </trkpt>
      <trkpt lat="69.13442" lon="18.08439">
        <ele>19.942507</ele>
        <time>2020-08-27T18:38:46.614Z</time>
      </trkpt>
      <trkpt lat="69.13437" lon="18.08433">
        <ele>20.031461</ele>
        <time>2020-08-27T18:38:47.913Z</time>
      </trkpt>
      <trkpt lat="69.13426" lon="18.08419">
        <ele>20.264064</ele>
        <time>2020-08-27T18:38:51.507Z</time>
      </trkpt>
      <trkpt lat="69.1338" lon="18.08373">
        <ele>21.189416</ele>
        <time>2020-08-27T18:39:03.209Z</time>
      </trkpt>
      <trkpt lat="69.1334" lon="18.08312">
        <ele>22.216533</ele>
        <time>2020-08-27T18:39:16.826Z</time>
      </trkpt>
      <trkpt lat="69.13309" lon="18.08238">
        <ele>23.564272</ele>
        <time>2020-08-27T18:39:30.840Z</time>
      </trkpt>
      <trkpt lat="69.13279" lon="18.08145">
        <ele>25.02572</ele>
        <time>2020-08-27T18:39:43.942Z</time>
      </trkpt>
      <trkpt lat="69.13268" lon="18.08103">
        <ele>25.637665</ele>
        <time>2020-08-27T18:39:48.346Z</time>
      </trkpt>
      <trkpt lat="69.13261" lon="18.08114">
        <ele>25.908859</ele>
        <time>2020-08-27T18:39:51.700Z</time>
      </trkpt>
      <trkpt lat="69.13237" lon="18.08106">
        <ele>26.681084</ele>
        <time>2020-08-27T18:39:57.264Z</time>
      </trkpt>
      <trkpt lat="69.13213" lon="18.08037">
        <ele>27.743342</ele>
        <time>2020-08-27T18:40:06.305Z</time>
      </trkpt>
      <trkpt lat="69.13204" lon="18.07994">
        <ele>27.911418</ele>
        <time>2020-08-27T18:40:12.023Z</time>
      </trkpt>
      <trkpt lat="69.13188" lon="18.07922">
        <ele>28.185144</ele>
        <time>2020-08-27T18:40:19.066Z</time>
      </trkpt>
      <trkpt lat="69.13167" lon="18.07808">
        <ele>28.605426</ele>
        <time>2020-08-27T18:40:29.465Z</time>
      </trkpt>
      <trkpt lat="69.13157" lon="18.07725">
        <ele>28.893492</ele>
        <time>2020-08-27T18:40:35.235Z</time>
      </trkpt>
      <trkpt lat="69.13155" lon="18.07698">
        <ele>28.983739</ele>
        <time>2020-08-27T18:40:37.241Z</time>
      </trkpt>
      <trkpt lat="69.13155" lon="18.07669">
        <ele>29.077915</ele>
        <time>2020-08-27T18:40:38.784Z</time>
      </trkpt>
      <trkpt lat="69.13153" lon="18.07559">
        <ele>29.388268</ele>
        <time>2020-08-27T18:40:46.114Z</time>
      </trkpt>
      <trkpt lat="69.13158" lon="18.07484">
        <ele>29.4446</ele>
        <time>2020-08-27T18:40:51.117Z</time>
      </trkpt>
      <trkpt lat="69.1316" lon="18.07469">
        <ele>29.455751</ele>
        <time>2020-08-27T18:40:51.851Z</time>
      </trkpt>
      <trkpt lat="69.13165" lon="18.07431">
        <ele>29.48674</ele>
        <time>2020-08-27T18:40:54.598Z</time>
      </trkpt>
      <trkpt lat="69.13174" lon="18.07381">
        <ele>29.528246</ele>
        <time>2020-08-27T18:40:58.084Z</time>
      </trkpt>
      <trkpt lat="69.13177" lon="18.07366">
        <ele>29.540477</ele>
        <time>2020-08-27T18:40:59.132Z</time>
      </trkpt>
      <trkpt lat="69.13181" lon="18.07329">
        <ele>29.568961</ele>
        <time>2020-08-27T18:41:01.774Z</time>
      </trkpt>
      <trkpt lat="69.13185" lon="18.07281">
        <ele>29.605481</ele>
        <time>2020-08-27T18:41:04.818Z</time>
      </trkpt>
      <trkpt lat="69.13194" lon="18.07194">
        <ele>29.672482</ele>
        <time>2020-08-27T18:41:11.352Z</time>
      </trkpt>
      <trkpt lat="69.13206" lon="18.07141">
        <ele>29.718134</ele>
        <time>2020-08-27T18:41:15.650Z</time>
      </trkpt>
      <trkpt lat="69.13272" lon="18.06975">
        <ele>30.876033</ele>
        <time>2020-08-27T18:41:36.978Z</time>
      </trkpt>
      <trkpt lat="69.13293" lon="18.06825">
        <ele>31.744864</ele>
        <time>2020-08-27T18:41:50.541Z</time>
      </trkpt>
      <trkpt lat="69.13298" lon="18.0678">
        <ele>31.995007</ele>
        <time>2020-08-27T18:41:54.615Z</time>
      </trkpt>
      <trkpt lat="69.133" lon="18.06753">
        <ele>32.145608</ele>
        <time>2020-08-27T18:41:56.970Z</time>
      </trkpt>
      <trkpt lat="69.13311" lon="18.06606">
        <ele>32.945194</ele>
        <time>2020-08-27T18:42:09.443Z</time>
      </trkpt>
      <trkpt lat="69.13313" lon="18.06595">
        <ele>33.017261</ele>
        <time>2020-08-27T18:42:10.743Z</time>
      </trkpt>
      <trkpt lat="69.13316" lon="18.06587">
        <ele>33.078775</ele>
        <time>2020-08-27T18:42:11.647Z</time>
      </trkpt>
      <trkpt lat="69.1332" lon="18.06583">
        <ele>33.140839</ele>
        <time>2020-08-27T18:42:12.508Z</time>
      </trkpt>
      <trkpt lat="69.13319" lon="18.06567">
        <ele>33.2282</ele>
        <time>2020-08-27T18:42:14.089Z</time>
      </trkpt>
      <trkpt lat="69.13293" lon="18.06436">
        <ele>34.025659</ele>
        <time>2020-08-27T18:42:26.798Z</time>
      </trkpt>
      <trkpt lat="69.13246" lon="18.06287">
        <ele>35.081928</ele>
        <time>2020-08-27T18:42:43.122Z</time>
      </trkpt>
      <trkpt lat="69.13227" lon="18.06232">
        <ele>34.964318</ele>
        <time>2020-08-27T18:42:48.706Z</time>
      </trkpt>
      <trkpt lat="69.13177" lon="18.06089">
        <ele>34.411611</ele>
        <time>2020-08-27T18:43:00.484Z</time>
      </trkpt>
      <trkpt lat="69.1317" lon="18.06065">
        <ele>34.327537</ele>
        <time>2020-08-27T18:43:02.077Z</time>
      </trkpt>
      <trkpt lat="69.13166" lon="18.06046">
        <ele>34.263798</ele>
        <time>2020-08-27T18:43:03.874Z</time>
      </trkpt>
      <trkpt lat="69.13159" lon="18.06051">
        <ele>34.212082</ele>
        <time>2020-08-27T18:43:04.834Z</time>
      </trkpt>
      <trkpt lat="69.1315" lon="18.06007">
        <ele>34.071792</ele>
        <time>2020-08-27T18:43:07.433Z</time>
      </trkpt>
      <trkpt lat="69.13144" lon="18.05936">
        <ele>33.870994</ele>
        <time>2020-08-27T18:43:11.768Z</time>
      </trkpt>
      <trkpt lat="69.13144" lon="18.05929">
        <ele>33.850399</ele>
        <time>2020-08-27T18:43:12.061Z</time>
      </trkpt>
      <trkpt lat="69.13147" lon="18.05929">
        <ele>33.828656</ele>
        <time>2020-08-27T18:43:12.416Z</time>
      </trkpt>
      <trkpt lat="69.13151" lon="18.05927">
        <ele>33.797929</ele>
        <time>2020-08-27T18:43:12.922Z</time>
      </trkpt>
      <trkpt lat="69.13147" lon="18.05854">
        <ele>32.935627</ele>
        <time>2020-08-27T18:43:16.810Z</time>
      </trkpt>
      <trkpt lat="69.13135" lon="18.05768">
        <ele>31.598256</ele>
        <time>2020-08-27T18:43:21.047Z</time>
      </trkpt>
      <trkpt lat="69.13091" lon="18.05659">
        <ele>29.227296</ele>
        <time>2020-08-27T18:43:27.939Z</time>
      </trkpt>
      <trkpt lat="69.13084" lon="18.05641">
        <ele>28.819108</ele>
        <time>2020-08-27T18:43:29.215Z</time>
      </trkpt>
      <trkpt lat="69.13079" lon="18.05647">
        <ele>28.617247</ele>
        <time>2020-08-27T18:43:30.124Z</time>
      </trkpt>
      <trkpt lat="69.13069" lon="18.05622">
        <ele>28.074972</ele>
        <time>2020-08-27T18:43:31.655Z</time>
      </trkpt>
      <trkpt lat="69.13052" lon="18.05544">
        <ele>26.727358</ele>
        <time>2020-08-27T18:43:35.781Z</time>
      </trkpt>
      <trkpt lat="69.13046" lon="18.05424">
        <ele>25.347778</ele>
        <time>2020-08-27T18:43:41.350Z</time>
      </trkpt>
      <trkpt lat="69.13046" lon="18.05414">
        <ele>25.242477</ele>
        <time>2020-08-27T18:43:41.719Z</time>
      </trkpt>
      <trkpt lat="69.1304" lon="18.05408">
        <ele>25.044884</ele>
        <time>2020-08-27T18:43:42.741Z</time>
      </trkpt>
      <trkpt lat="69.12924" lon="18.05205">
        <ele>21.041294</ele>
        <time>2020-08-27T18:44:03.123Z</time>
      </trkpt>
      <trkpt lat="69.12902" lon="18.05181">
        <ele>21.513941</ele>
        <time>2020-08-27T18:44:07.895Z</time>
      </trkpt>
      <trkpt lat="69.12885" lon="18.05169">
        <ele>21.864191</ele>
        <time>2020-08-27T18:44:11.085Z</time>
      </trkpt>
      <trkpt lat="69.12874" lon="18.05159">
        <ele>22.080178</ele>
        <time>2020-08-27T18:44:13.881Z</time>
      </trkpt>
      <trkpt lat="69.12848" lon="18.05118">
        <ele>22.685202</ele>
        <time>2020-08-27T18:44:21.373Z</time>
      </trkpt>
      <trkpt lat="69.12797" lon="18.05008">
        <ele>23.958736</ele>
        <time>2020-08-27T18:44:40.804Z</time>
      </trkpt>
      <trkpt lat="69.12789" lon="18.04995">
        <ele>24.145617</ele>
        <time>2020-08-27T18:44:43.593Z</time>
      </trkpt>
      <trkpt lat="69.12781" lon="18.04981">
        <ele>24.336686</ele>
        <time>2020-08-27T18:44:47.548Z</time>
      </trkpt>
      <trkpt lat="69.1276" lon="18.04955">
        <ele>25.401774</ele>
        <time>2020-08-27T18:44:54.348Z</time>
      </trkpt>
      <trkpt lat="69.12753" lon="18.04948">
        <ele>25.912844</ele>
        <time>2020-08-27T18:44:57.292Z</time>
      </trkpt>
      <trkpt lat="69.12711" lon="18.04896">
        <ele>29.284304</ele>
        <time>2020-08-27T18:45:16.265Z</time>
      </trkpt>
      <trkpt lat="69.12603" lon="18.04739">
        <ele>38.085303</ele>
        <time>2020-08-27T18:46:13.354Z</time>
      </trkpt>
      <trkpt lat="69.12588" lon="18.04716">
        <ele>39.234335</ele>
        <time>2020-08-27T18:46:21.985Z</time>
      </trkpt>
      <trkpt lat="69.12552" lon="18.04671">
        <ele>41.862556</ele>
        <time>2020-08-27T18:46:38.798Z</time>
      </trkpt>
      <trkpt lat="69.12515" lon="18.04622">
        <ele>44.662737</ele>
        <time>2020-08-27T18:46:55.922Z</time>
      </trkpt>
      <trkpt lat="69.12466" lon="18.04555">
        <ele>48.307955</ele>
        <time>2020-08-27T18:47:17.502Z</time>
      </trkpt>
      <trkpt lat="69.12411" lon="18.04485">
        <ele>51.373559</ele>
        <time>2020-08-27T18:47:39.081Z</time>
      </trkpt>
      <trkpt lat="69.12346" lon="18.04472">
        <ele>54.0949</ele>
        <time>2020-08-27T18:48:01.822Z</time>
      </trkpt>
      <trkpt lat="69.12331" lon="18.0445">
        <ele>54.801444</ele>
        <time>2020-08-27T18:48:07.783Z</time>
      </trkpt>
      <trkpt lat="69.12301" lon="18.04367">
        <ele>56.525981</ele>
        <time>2020-08-27T18:48:20.634Z</time>
      </trkpt>
      <trkpt lat="69.12292" lon="18.04346">
        <ele>57.01092</ele>
        <time>2020-08-27T18:48:23.580Z</time>
      </trkpt>
      <trkpt lat="69.12273" lon="18.04303">
        <ele>57.155951</ele>
        <time>2020-08-27T18:48:31.394Z</time>
      </trkpt>
      <trkpt lat="69.12244" lon="18.04229">
        <ele>57.006775</ele>
        <time>2020-08-27T18:48:39.729Z</time>
      </trkpt>
      <trkpt lat="69.12236" lon="18.04191">
        <ele>56.944631</ele>
        <time>2020-08-27T18:48:43.230Z</time>
      </trkpt>
      <trkpt lat="69.12213" lon="18.0388">
        <ele>56.278465</ele>
        <time>2020-08-27T18:49:02.274Z</time>
      </trkpt>
      <trkpt lat="69.12211" lon="18.03864">
        <ele>56.068418</ele>
        <time>2020-08-27T18:49:02.991Z</time>
      </trkpt>
      <trkpt lat="69.12206" lon="18.03819">
        <ele>55.465629</ele>
        <time>2020-08-27T18:49:05.472Z</time>
      </trkpt>
      <trkpt lat="69.12195" lon="18.03754">
        <ele>54.559637</ele>
        <time>2020-08-27T18:49:09.103Z</time>
      </trkpt>
      <trkpt lat="69.12185" lon="18.03719">
        <ele>53.96923</ele>
        <time>2020-08-27T18:49:11.644Z</time>
      </trkpt>
      <trkpt lat="69.12144" lon="18.03644">
        <ele>52.238345</ele>
        <time>2020-08-27T18:49:18.415Z</time>
      </trkpt>
      <trkpt lat="69.11979" lon="18.0354">
        <ele>46.524353</ele>
        <time>2020-08-27T18:49:43.210Z</time>
      </trkpt>
      <trkpt lat="69.11954" lon="18.03529">
        <ele>45.702613</ele>
        <time>2020-08-27T18:49:47.029Z</time>
      </trkpt>
      <trkpt lat="69.11949" lon="18.03527">
        <ele>45.539491</ele>
        <time>2020-08-27T18:49:47.657Z</time>
      </trkpt>
      <trkpt lat="69.11895" lon="18.0347">
        <ele>44.062957</ele>
        <time>2020-08-27T18:49:56.459Z</time>
      </trkpt>
      <trkpt lat="69.11885" lon="18.03452">
        <ele>43.952122</ele>
        <time>2020-08-27T18:49:58.142Z</time>
      </trkpt>
      <trkpt lat="69.1188" lon="18.03444">
        <ele>43.90291</ele>
        <time>2020-08-27T18:49:58.875Z</time>
      </trkpt>
      <trkpt lat="69.11839" lon="18.03402">
        <ele>43.500707</ele>
        <time>2020-08-27T18:50:05.808Z</time>
      </trkpt>
      <trkpt lat="69.11819" lon="18.03381">
        <ele>43.300582</ele>
        <time>2020-08-27T18:50:09.376Z</time>
      </trkpt>
      <trkpt lat="69.11812" lon="18.03373">
        <ele>43.236991</ele>
        <time>2020-08-27T18:50:10.315Z</time>
      </trkpt>
      <trkpt lat="69.11802" lon="18.03362">
        <ele>43.137637</ele>
        <time>2020-08-27T18:50:12.747Z</time>
      </trkpt>
      <trkpt lat="69.11775" lon="18.03348">
        <ele>42.879591</ele>
        <time>2020-08-27T18:50:18.137Z</time>
      </trkpt>
      <trkpt lat="69.11699" lon="18.03344">
        <ele>44.732432</ele>
        <time>2020-08-27T18:50:37.801Z</time>
      </trkpt>
      <trkpt lat="69.11518" lon="18.03168">
        <ele>55.987657</ele>
        <time>2020-08-27T18:51:55.147Z</time>
      </trkpt>
      <trkpt lat="69.11463" lon="18.03093">
        <ele>60.73076</ele>
        <time>2020-08-27T18:52:23.929Z</time>
      </trkpt>
      <trkpt lat="69.11391" lon="18.02994">
        <ele>66.804045</ele>
        <time>2020-08-27T18:53:01.790Z</time>
      </trkpt>
      <trkpt lat="69.11308" lon="18.02881">
        <ele>73.02161</ele>
        <time>2020-08-27T18:53:43.034Z</time>
      </trkpt>
      <trkpt lat="69.11082" lon="18.02577">
        <ele>86.024828</ele>
        <time>2020-08-27T18:55:11.618Z</time>
      </trkpt>
      <trkpt lat="69.10965" lon="18.02417">
        <ele>89.614898</ele>
        <time>2020-08-27T18:55:48.977Z</time>
      </trkpt>
      <trkpt lat="69.10851" lon="18.02259">
        <ele>91.158263</ele>
        <time>2020-08-27T18:56:21.744Z</time>
      </trkpt>
      <trkpt lat="69.10825" lon="18.02219">
        <ele>91.216753</ele>
        <time>2020-08-27T18:56:27.539Z</time>
      </trkpt>
      <trkpt lat="69.10801" lon="18.02192">
        <ele>91.265662</ele>
        <time>2020-08-27T18:56:31.799Z</time>
      </trkpt>
      <trkpt lat="69.10789" lon="18.02175">
        <ele>91.291837</ele>
        <time>2020-08-27T18:56:34.006Z</time>
      </trkpt>
      <trkpt lat="69.10757" lon="18.02117">
        <ele>91.31212</ele>
        <time>2020-08-27T18:56:40.346Z</time>
      </trkpt>
      <trkpt lat="69.10751" lon="18.02044">
        <ele>90.944021</ele>
        <time>2020-08-27T18:56:44.831Z</time>
      </trkpt>
      <trkpt lat="69.10753" lon="18.02021">
        <ele>90.8269</ele>
        <time>2020-08-27T18:56:46.260Z</time>
      </trkpt>
      <trkpt lat="69.10759" lon="18.0198">
        <ele>90.613911</ele>
        <time>2020-08-27T18:56:48.860Z</time>
      </trkpt>
      <trkpt lat="69.10766" lon="18.01926">
        <ele>90.330622</ele>
        <time>2020-08-27T18:56:52.314Z</time>
      </trkpt>
      <trkpt lat="69.10771" lon="18.01884">
        <ele>90.115299</ele>
        <time>2020-08-27T18:56:54.957Z</time>
      </trkpt>
      <trkpt lat="69.10776" lon="18.01841">
        <ele>89.896329</ele>
        <time>2020-08-27T18:56:57.590Z</time>
      </trkpt>
      <trkpt lat="69.10788" lon="18.01738">
        <ele>89.366451</ele>
        <time>2020-08-27T18:57:03.992Z</time>
      </trkpt>
      <trkpt lat="69.10801" lon="18.0159">
        <ele>88.886063</ele>
        <time>2020-08-27T18:57:13.119Z</time>
      </trkpt>
      <trkpt lat="69.10802" lon="18.01514">
        <ele>88.865511</ele>
        <time>2020-08-27T18:57:18.083Z</time>
      </trkpt>
      <trkpt lat="69.10795" lon="18.01423">
        <ele>88.840188</ele>
        <time>2020-08-27T18:57:25.365Z</time>
      </trkpt>
      <trkpt lat="69.10777" lon="18.01326">
        <ele>88.810787</ele>
        <time>2020-08-27T18:57:34.357Z</time>
      </trkpt>
      <trkpt lat="69.10746" lon="18.01174">
        <ele>88.742331</ele>
        <time>2020-08-27T18:57:47.185Z</time>
      </trkpt>
      <trkpt lat="69.10717" lon="18.01068">
        <ele>88.225</ele>
        <time>2020-08-27T18:57:55.729Z</time>
      </trkpt>
      <trkpt lat="69.10613" lon="18.0082">
        <ele>86.731404</ele>
        <time>2020-08-27T18:58:18.412Z</time>
      </trkpt>
      <trkpt lat="69.10413" lon="18.00408">
        <ele>85.298362</ele>
        <time>2020-08-27T18:59:01.528Z</time>
      </trkpt>
      <trkpt lat="69.10316" lon="18.00278">
        <ele>85.984426</ele>
        <time>2020-08-27T18:59:27.792Z</time>
      </trkpt>
      <trkpt lat="69.1023" lon="18.00129">
        <ele>89.337504</ele>
        <time>2020-08-27T18:59:57.491Z</time>
      </trkpt>
      <trkpt lat="69.10068" lon="17.99961">
        <ele>96.572979</ele>
        <time>2020-08-27T19:00:55.481Z</time>
      </trkpt>
      <trkpt lat="69.09933" lon="17.99769">
        <ele>104.267791</ele>
        <time>2020-08-27T19:01:52.364Z</time>
      </trkpt>
      <trkpt lat="69.09822" lon="17.99716">
        <ele>110.314392</ele>
        <time>2020-08-27T19:02:34.530Z</time>
      </trkpt>
      <trkpt lat="69.09793" lon="17.99683">
        <ele>111.676495</ele>
        <time>2020-08-27T19:02:45.280Z</time>
      </trkpt>
      <trkpt lat="69.09752" lon="17.99596">
        <ele>113.888084</ele>
        <time>2020-08-27T19:03:01.943Z</time>
      </trkpt>
      <trkpt lat="69.09696" lon="17.99439">
        <ele>117.326536</ele>
        <time>2020-08-27T19:03:28.542Z</time>
      </trkpt>
      <trkpt lat="69.09681" lon="17.99381">
        <ele>118.381747</ele>
        <time>2020-08-27T19:03:37.401Z</time>
      </trkpt>
      <trkpt lat="69.0968" lon="17.99369">
        <ele>118.528338</ele>
        <time>2020-08-27T19:03:38.362Z</time>
      </trkpt>
      <trkpt lat="69.09623" lon="17.99369">
        <ele>120.525343</ele>
        <time>2020-08-27T19:03:56.067Z</time>
      </trkpt>
      <trkpt lat="69.09568" lon="17.99367">
        <ele>122.439153</ele>
        <time>2020-08-27T19:04:11.685Z</time>
      </trkpt>
      <trkpt lat="69.09509" lon="17.99337">
        <ele>124.397173</ele>
        <time>2020-08-27T19:04:28.557Z</time>
      </trkpt>
      <trkpt lat="69.09445" lon="17.99272">
        <ele>125.382476</ele>
        <time>2020-08-27T19:04:45.486Z</time>
      </trkpt>
      <trkpt lat="69.09323" lon="17.99093">
        <ele>127.390988</ele>
        <time>2020-08-27T19:05:12.971Z</time>
      </trkpt>
      <trkpt lat="69.09253" lon="17.99053">
        <ele>128.443507</ele>
        <time>2020-08-27T19:05:27.972Z</time>
      </trkpt>
      <trkpt lat="69.09161" lon="17.9902">
        <ele>130.06193</ele>
        <time>2020-08-27T19:05:50.631Z</time>
      </trkpt>
      <trkpt lat="69.09049" lon="17.98952">
        <ele>133.604828</ele>
        <time>2020-08-27T19:06:23.017Z</time>
      </trkpt>
      <trkpt lat="69.08876" lon="17.98772">
        <ele>139.121755</ele>
        <time>2020-08-27T19:07:15.572Z</time>
      </trkpt>
      <trkpt lat="69.08852" lon="17.98746">
        <ele>139.896896</ele>
        <time>2020-08-27T19:07:22.354Z</time>
      </trkpt>
      <trkpt lat="69.08832" lon="17.98723">
        <ele>140.490313</ele>
        <time>2020-08-27T19:07:27.526Z</time>
      </trkpt>
      <trkpt lat="69.08752" lon="17.98615">
        <ele>141.682865</ele>
        <time>2020-08-27T19:07:48.149Z</time>
      </trkpt>
      <trkpt lat="69.08623" lon="17.98357">
        <ele>143.626344</ele>
        <time>2020-08-27T19:08:20.294Z</time>
      </trkpt>
      <trkpt lat="69.08398" lon="17.97965">
        <ele>147.307449</ele>
        <time>2020-08-27T19:09:18.541Z</time>
      </trkpt>
      <trkpt lat="69.08302" lon="17.97878">
        <ele>150.00559</ele>
        <time>2020-08-27T19:09:45.936Z</time>
      </trkpt>
      <trkpt lat="69.08158" lon="17.97807">
        <ele>154.130236</ele>
        <time>2020-08-27T19:10:27.809Z</time>
      </trkpt>
      <trkpt lat="69.08118" lon="17.97778">
        <ele>155.074714</ele>
        <time>2020-08-27T19:10:38.696Z</time>
      </trkpt>
      <trkpt lat="69.08037" lon="17.97676">
        <ele>157.126273</ele>
        <time>2020-08-27T19:11:00.030Z</time>
      </trkpt>
      <trkpt lat="69.0796" lon="17.97557">
        <ele>158.245804</ele>
        <time>2020-08-27T19:11:18.140Z</time>
      </trkpt>
      <trkpt lat="69.07881" lon="17.97493">
        <ele>159.215586</ele>
        <time>2020-08-27T19:11:35.355Z</time>
      </trkpt>
      <trkpt lat="69.07832" lon="17.97442">
        <ele>160.271942</ele>
        <time>2020-08-27T19:11:46.776Z</time>
      </trkpt>
      <trkpt lat="69.07573" lon="17.97101">
        <ele>168.26753</ele>
        <time>2020-08-27T19:13:04.205Z</time>
      </trkpt>
      <trkpt lat="69.07484" lon="17.96941">
        <ele>171.907354</ele>
        <time>2020-08-27T19:13:36.128Z</time>
      </trkpt>
      <trkpt lat="69.07377" lon="17.96707">
        <ele>176.407202</ele>
        <time>2020-08-27T19:14:16.642Z</time>
      </trkpt>
      <trkpt lat="69.07359" lon="17.96665">
        <ele>176.81181</ele>
        <time>2020-08-27T19:14:23.114Z</time>
      </trkpt>
      <trkpt lat="69.07317" lon="17.96577">
        <ele>177.679111</ele>
        <time>2020-08-27T19:14:35.680Z</time>
      </trkpt>
      <trkpt lat="69.06951" lon="17.95806">
        <ele>180.185579</ele>
        <time>2020-08-27T19:16:02.215Z</time>
      </trkpt>
      <trkpt lat="69.06714" lon="17.9542">
        <ele>180.789603</ele>
        <time>2020-08-27T19:16:53.358Z</time>
      </trkpt>
      <trkpt lat="69.06502" lon="17.95239">
        <ele>180.536733</ele>
        <time>2020-08-27T19:17:32.831Z</time>
      </trkpt>
      <trkpt lat="69.0644" lon="17.95161">
        <ele>179.908177</ele>
        <time>2020-08-27T19:17:43.383Z</time>
      </trkpt>
      <trkpt lat="69.06332" lon="17.95073">
        <ele>178.369908</ele>
        <time>2020-08-27T19:17:59.807Z</time>
      </trkpt>
      <trkpt lat="69.06146" lon="17.94883">
        <ele>175.771903</ele>
        <time>2020-08-27T19:18:28.923Z</time>
      </trkpt>
      <trkpt lat="69.05841" lon="17.94615">
        <ele>175.191526</ele>
        <time>2020-08-27T19:19:25.379Z</time>
      </trkpt>
      <trkpt lat="69.05739" lon="17.94555">
        <ele>175.254135</ele>
        <time>2020-08-27T19:19:43.613Z</time>
      </trkpt>
      <trkpt lat="69.05637" lon="17.94545">
        <ele>175.4266</ele>
        <time>2020-08-27T19:20:02.043Z</time>
      </trkpt>
      <trkpt lat="69.05493" lon="17.94427">
        <ele>176.680278</ele>
        <time>2020-08-27T19:20:32.541Z</time>
      </trkpt>
      <trkpt lat="69.05321" lon="17.94372">
        <ele>178.791379</ele>
        <time>2020-08-27T19:21:11.670Z</time>
      </trkpt>
      <trkpt lat="69.05224" lon="17.94296">
        <ele>179.861651</ele>
        <time>2020-08-27T19:21:33.578Z</time>
      </trkpt>
      <trkpt lat="69.0521" lon="17.9428">
        <ele>179.962396</ele>
        <time>2020-08-27T19:21:36.735Z</time>
      </trkpt>
      <trkpt lat="69.05187" lon="17.94251">
        <ele>180.138313</ele>
        <time>2020-08-27T19:21:41.679Z</time>
      </trkpt>
      <trkpt lat="69.05141" lon="17.9418">
        <ele>180.497937</ele>
        <time>2020-08-27T19:21:51.810Z</time>
      </trkpt>
      <trkpt lat="69.05131" lon="17.94161">
        <ele>180.582999</ele>
        <time>2020-08-27T19:21:53.982Z</time>
      </trkpt>
      <trkpt lat="69.05116" lon="17.9413">
        <ele>180.712803</ele>
        <time>2020-08-27T19:21:57.662Z</time>
      </trkpt>
      <trkpt lat="69.05026" lon="17.93909">
        <ele>181.700928</ele>
        <time>2020-08-27T19:22:20.125Z</time>
      </trkpt>
      <trkpt lat="69.05018" lon="17.9389">
        <ele>181.79112</ele>
        <time>2020-08-27T19:22:22.325Z</time>
      </trkpt>
      <trkpt lat="69.0501" lon="17.93872">
        <ele>181.874901</ele>
        <time>2020-08-27T19:22:24.459Z</time>
      </trkpt>
      <trkpt lat="69.05003" lon="17.93857">
        <ele>181.95225</ele>
        <time>2020-08-27T19:22:26.460Z</time>
      </trkpt>
      <trkpt lat="69.04982" lon="17.93812">
        <ele>182.176459</ele>
        <time>2020-08-27T19:22:32.562Z</time>
      </trkpt>
      <trkpt lat="69.04966" lon="17.9378">
        <ele>182.386061</ele>
        <time>2020-08-27T19:22:37.208Z</time>
      </trkpt>
      <trkpt lat="69.04946" lon="17.93743">
        <ele>182.930048</ele>
        <time>2020-08-27T19:22:43.012Z</time>
      </trkpt>
      <trkpt lat="69.04913" lon="17.93687">
        <ele>183.832167</ele>
        <time>2020-08-27T19:22:52.691Z</time>
      </trkpt>
      <trkpt lat="69.04869" lon="17.93618">
        <ele>185.019323</ele>
        <time>2020-08-27T19:23:05.934Z</time>
      </trkpt>
      <trkpt lat="69.04788" lon="17.93495">
        <ele>186.979051</ele>
        <time>2020-08-27T19:23:30.224Z</time>
      </trkpt>
      <trkpt lat="69.04722" lon="17.93392">
        <ele>188.21232</ele>
        <time>2020-08-27T19:23:48.681Z</time>
      </trkpt>
      <trkpt lat="69.04678" lon="17.933">
        <ele>189.104236</ele>
        <time>2020-08-27T19:24:00.761Z</time>
      </trkpt>
      <trkpt lat="69.04612" lon="17.93035">
        <ele>188.745777</ele>
        <time>2020-08-27T19:24:21.824Z</time>
      </trkpt>
      <trkpt lat="69.04549" lon="17.92871">
        <ele>188.088203</ele>
        <time>2020-08-27T19:24:34.381Z</time>
      </trkpt>
      <trkpt lat="69.0451" lon="17.92788">
        <ele>186.810508</ele>
        <time>2020-08-27T19:24:41.034Z</time>
      </trkpt>
      <trkpt lat="69.04395" lon="17.9254">
        <ele>183.16996</ele>
        <time>2020-08-27T19:25:00.299Z</time>
      </trkpt>
      <trkpt lat="69.04348" lon="17.92438">
        <ele>182.296108</ele>
        <time>2020-08-27T19:25:08.724Z</time>
      </trkpt>
      <trkpt lat="69.04284" lon="17.92301">
        <ele>181.123617</ele>
        <time>2020-08-27T19:25:20.934Z</time>
      </trkpt>
      <trkpt lat="69.04264" lon="17.92257">
        <ele>180.750774</ele>
        <time>2020-08-27T19:25:25.155Z</time>
      </trkpt>
      <trkpt lat="69.04196" lon="17.92115">
        <ele>180.644942</ele>
        <time>2020-08-27T19:25:39.981Z</time>
      </trkpt>
      <trkpt lat="69.04154" lon="17.92055">
        <ele>180.58928</ele>
        <time>2020-08-27T19:25:48.606Z</time>
      </trkpt>
      <trkpt lat="69.04143" lon="17.92044">
        <ele>180.576071</ele>
        <time>2020-08-27T19:25:50.712Z</time>
      </trkpt>
      <trkpt lat="69.041" lon="17.92001">
        <ele>180.54114</ele>
        <time>2020-08-27T19:25:58.898Z</time>
      </trkpt>
      <trkpt lat="69.04057" lon="17.91939">
        <ele>180.583348</ele>
        <time>2020-08-27T19:26:07.635Z</time>
      </trkpt>
      <trkpt lat="69.03945" lon="17.91637">
        <ele>180.70974</ele>
        <time>2020-08-27T19:26:35.740Z</time>
      </trkpt>
      <trkpt lat="69.03902" lon="17.91545">
        <ele>180.743184</ele>
        <time>2020-08-27T19:26:45.750Z</time>
      </trkpt>
      <trkpt lat="69.0381" lon="17.91393">
        <ele>180.789925</ele>
        <time>2020-08-27T19:27:05.090Z</time>
      </trkpt>
      <trkpt lat="69.03725" lon="17.91291">
        <ele>180.727221</ele>
        <time>2020-08-27T19:27:21.432Z</time>
      </trkpt>
      <trkpt lat="69.03685" lon="17.91215">
        <ele>180.694505</ele>
        <time>2020-08-27T19:27:29.827Z</time>
      </trkpt>
      <trkpt lat="69.0364" lon="17.91079">
        <ele>180.699824</ele>
        <time>2020-08-27T19:27:41.217Z</time>
      </trkpt>
      <trkpt lat="69.03576" lon="17.90768">
        <ele>180.765519</ele>
        <time>2020-08-27T19:28:04.398Z</time>
      </trkpt>
      <trkpt lat="69.0357" lon="17.90736">
        <ele>180.792903</ele>
        <time>2020-08-27T19:28:06.774Z</time>
      </trkpt>
      <trkpt lat="69.03559" lon="17.90677">
        <ele>180.947968</ele>
        <time>2020-08-27T19:28:11.407Z</time>
      </trkpt>
      <trkpt lat="69.03548" lon="17.90601">
        <ele>181.141891</ele>
        <time>2020-08-27T19:28:17.286Z</time>
      </trkpt>
      <trkpt lat="69.03536" lon="17.90459">
        <ele>181.484608</ele>
        <time>2020-08-27T19:28:28.027Z</time>
      </trkpt>
      <trkpt lat="69.03508" lon="17.90034">
        <ele>182.444536</ele>
        <time>2020-08-27T19:28:59.502Z</time>
      </trkpt>
      <trkpt lat="69.03501" lon="17.89936">
        <ele>182.654753</ele>
        <time>2020-08-27T19:29:06.494Z</time>
      </trkpt>
      <trkpt lat="69.03496" lon="17.89735">
        <ele>183.071</ele>
        <time>2020-08-27T19:29:20.262Z</time>
      </trkpt>
      <trkpt lat="69.03504" lon="17.89577">
        <ele>183.365866</ele>
        <time>2020-08-27T19:29:30.831Z</time>
      </trkpt>
      <trkpt lat="69.03608" lon="17.88437">
        <ele>185.587227</ele>
        <time>2020-08-27T19:30:53.569Z</time>
      </trkpt>
      <trkpt lat="69.03711" lon="17.87827">
        <ele>186.804692</ele>
        <time>2020-08-27T19:31:41.139Z</time>
      </trkpt>
      <trkpt lat="69.03749" lon="17.87516">
        <ele>186.963701</ele>
        <time>2020-08-27T19:32:02.954Z</time>
      </trkpt>
      <trkpt lat="69.03765" lon="17.87441">
        <ele>187.005836</ele>
        <time>2020-08-27T19:32:08.450Z</time>
      </trkpt>
      <trkpt lat="69.03828" lon="17.87202">
        <ele>186.513823</ele>
        <time>2020-08-27T19:32:26.119Z</time>
      </trkpt>
      <trkpt lat="69.03841" lon="17.87114">
        <ele>186.310623</ele>
        <time>2020-08-27T19:32:31.647Z</time>
      </trkpt>
      <trkpt lat="69.03851" lon="17.86995">
        <ele>186.048194</ele>
        <time>2020-08-27T19:32:38.608Z</time>
      </trkpt>
      <trkpt lat="69.03939" lon="17.85425">
        <ele>181.103247</ele>
        <time>2020-08-27T19:34:07.653Z</time>
      </trkpt>
      <trkpt lat="69.0394" lon="17.85256">
        <ele>180.835301</ele>
        <time>2020-08-27T19:34:17.537Z</time>
      </trkpt>
      <trkpt lat="69.0392" lon="17.84759">
        <ele>180.38954</ele>
        <time>2020-08-27T19:34:48.284Z</time>
      </trkpt>
      <trkpt lat="69.03968" lon="17.84102">
        <ele>180.977919</ele>
        <time>2020-08-27T19:35:32.817Z</time>
      </trkpt>
      <trkpt lat="69.03966" lon="17.84003">
        <ele>181.126175</ele>
        <time>2020-08-27T19:35:39.892Z</time>
      </trkpt>
      <trkpt lat="69.03959" lon="17.83939">
        <ele>181.365579</ele>
        <time>2020-08-27T19:35:44.765Z</time>
      </trkpt>
      <trkpt lat="69.03915" lon="17.83723">
        <ele>182.722336</ele>
        <time>2020-08-27T19:36:04.033Z</time>
      </trkpt>
      <trkpt lat="69.03911" lon="17.83696">
        <ele>182.878175</ele>
        <time>2020-08-27T19:36:06.501Z</time>
      </trkpt>
      <trkpt lat="69.03908" lon="17.83665">
        <ele>183.054469</ele>
        <time>2020-08-27T19:36:09.238Z</time>
      </trkpt>
      <trkpt lat="69.03903" lon="17.83533">
        <ele>183.779093</ele>
        <time>2020-08-27T19:36:20.706Z</time>
      </trkpt>
      <trkpt lat="69.03904" lon="17.83182">
        <ele>187.092009</ele>
        <time>2020-08-27T19:36:54.264Z</time>
      </trkpt>
      <trkpt lat="69.03929" lon="17.8282">
        <ele>190.420505</ele>
        <time>2020-08-27T19:37:30.005Z</time>
      </trkpt>
      <trkpt lat="69.03935" lon="17.82488">
        <ele>193.130285</ele>
        <time>2020-08-27T19:37:59.272Z</time>
      </trkpt>
      <trkpt lat="69.03948" lon="17.82225">
        <ele>194.503276</ele>
        <time>2020-08-27T19:38:20.629Z</time>
      </trkpt>
      <trkpt lat="69.03957" lon="17.82114">
        <ele>195.095964</ele>
        <time>2020-08-27T19:38:29.704Z</time>
      </trkpt>
      <trkpt lat="69.03975" lon="17.82">
        <ele>195.623689</ele>
        <time>2020-08-27T19:38:39.401Z</time>
      </trkpt>
      <trkpt lat="69.04003" lon="17.81916">
        <ele>195.653959</ele>
        <time>2020-08-27T19:38:48.041Z</time>
      </trkpt>
      <trkpt lat="69.04034" lon="17.81858">
        <ele>195.681757</ele>
        <time>2020-08-27T19:38:55.575Z</time>
      </trkpt>
      <trkpt lat="69.04068" lon="17.81838">
        <ele>195.707285</ele>
        <time>2020-08-27T19:39:01.899Z</time>
      </trkpt>
      <trkpt lat="69.04109" lon="17.81832">
        <ele>195.737983</ele>
        <time>2020-08-27T19:39:08.791Z</time>
      </trkpt>
      <trkpt lat="69.04159" lon="17.81887">
        <ele>194.498304</ele>
        <time>2020-08-27T19:39:16.897Z</time>
      </trkpt>
      <trkpt lat="69.04465" lon="17.82598">
        <ele>176.871505</ele>
        <time>2020-08-27T19:40:06.480Z</time>
      </trkpt>
      <trkpt lat="69.04485" lon="17.82636">
        <ele>175.262615</ele>
        <time>2020-08-27T19:40:09.182Z</time>
      </trkpt>
      <trkpt lat="69.04522" lon="17.82683">
        <ele>172.503327</ele>
        <time>2020-08-27T19:40:13.802Z</time>
      </trkpt>
      <trkpt lat="69.04562" lon="17.82684">
        <ele>169.863662</ele>
        <time>2020-08-27T19:40:18.179Z</time>
      </trkpt>
      <trkpt lat="69.04596" lon="17.82667">
        <ele>166.941017</ele>
        <time>2020-08-27T19:40:22.066Z</time>
      </trkpt>
      <trkpt lat="69.04751" lon="17.82421">
        <ele>152.685384</ele>
        <time>2020-08-27T19:40:42.000Z</time>
      </trkpt>
      <trkpt lat="69.0479" lon="17.82397">
        <ele>149.972044</ele>
        <time>2020-08-27T19:40:46.719Z</time>
      </trkpt>
      <trkpt lat="69.04909" lon="17.82412">
        <ele>142.094889</ele>
        <time>2020-08-27T19:41:00.704Z</time>
      </trkpt>
      <trkpt lat="69.04963" lon="17.82388">
        <ele>138.869385</ele>
        <time>2020-08-27T19:41:07.153Z</time>
      </trkpt>
      <trkpt lat="69.05097" lon="17.8228">
        <ele>131.011332</ele>
        <time>2020-08-27T19:41:23.528Z</time>
      </trkpt>
      <trkpt lat="69.05168" lon="17.82208">
        <ele>127.534127</ele>
        <time>2020-08-27T19:41:32.640Z</time>
      </trkpt>
      <trkpt lat="69.05204" lon="17.82149">
        <ele>125.626471</ele>
        <time>2020-08-27T19:41:37.856Z</time>
      </trkpt>
      <trkpt lat="69.05232" lon="17.82093">
        <ele>124.03062</ele>
        <time>2020-08-27T19:41:42.360Z</time>
      </trkpt>
      <trkpt lat="69.05287" lon="17.81976">
        <ele>122.836251</ele>
        <time>2020-08-27T19:41:51.753Z</time>
      </trkpt>
      <trkpt lat="69.05413" lon="17.81697">
        <ele>120.683967</ele>
        <time>2020-08-27T19:42:16.985Z</time>
      </trkpt>
      <trkpt lat="69.05444" lon="17.81586">
        <ele>120.379352</ele>
        <time>2020-08-27T19:42:25.348Z</time>
      </trkpt>
      <trkpt lat="69.05452" lon="17.81496">
        <ele>120.181543</ele>
        <time>2020-08-27T19:42:30.780Z</time>
      </trkpt>
      <trkpt lat="69.05475" lon="17.81005">
        <ele>119.369305</ele>
        <time>2020-08-27T19:43:00.261Z</time>
      </trkpt>
      <trkpt lat="69.05471" lon="17.80869">
        <ele>119.173533</ele>
        <time>2020-08-27T19:43:08.397Z</time>
      </trkpt>
      <trkpt lat="69.05469" lon="17.80847">
        <ele>119.167876</ele>
        <time>2020-08-27T19:43:09.922Z</time>
      </trkpt>
      <trkpt lat="69.05463" lon="17.80806">
        <ele>119.185551</ele>
        <time>2020-08-27T19:43:12.461Z</time>
      </trkpt>
      <trkpt lat="69.054" lon="17.80461">
        <ele>119.33603</ele>
        <time>2020-08-27T19:43:37.429Z</time>
      </trkpt>
      <trkpt lat="69.05394" lon="17.80405">
        <ele>119.364143</ele>
        <time>2020-08-27T19:43:41.489Z</time>
      </trkpt>
      <trkpt lat="69.05393" lon="17.80309">
        <ele>119.700265</ele>
        <time>2020-08-27T19:43:48.687Z</time>
      </trkpt>
      <trkpt lat="69.0541" lon="17.80192">
        <ele>120.139963</ele>
        <time>2020-08-27T19:43:58.280Z</time>
      </trkpt>
      <trkpt lat="69.05451" lon="17.80075">
        <ele>120.712072</ele>
        <time>2020-08-27T19:44:11.078Z</time>
      </trkpt>
      <trkpt lat="69.05476" lon="17.79985">
        <ele>121.10375</ele>
        <time>2020-08-27T19:44:19.872Z</time>
      </trkpt>
      <trkpt lat="69.05515" lon="17.79765">
        <ele>121.597487</ele>
        <time>2020-08-27T19:44:37.680Z</time>
      </trkpt>
      <trkpt lat="69.0552" lon="17.797">
        <ele>121.731052</ele>
        <time>2020-08-27T19:44:42.083Z</time>
      </trkpt>
      <trkpt lat="69.05525" lon="17.79638">
        <ele>121.85889</ele>
        <time>2020-08-27T19:44:46.122Z</time>
      </trkpt>
      <trkpt lat="69.05516" lon="17.7935">
        <ele>122.682839</ele>
        <time>2020-08-27T19:45:05.787Z</time>
      </trkpt>
      <trkpt lat="69.0552" lon="17.79237">
        <ele>123.08302</ele>
        <time>2020-08-27T19:45:14.207Z</time>
      </trkpt>
      <trkpt lat="69.05527" lon="17.79144">
        <ele>123.417758</ele>
        <time>2020-08-27T19:45:21.456Z</time>
      </trkpt>
      <trkpt lat="69.05542" lon="17.7904">
        <ele>123.813818</ele>
        <time>2020-08-27T19:45:30.576Z</time>
      </trkpt>
      <trkpt lat="69.05608" lon="17.78642">
        <ele>126.613159</ele>
        <time>2020-08-27T19:46:08.765Z</time>
      </trkpt>
      <trkpt lat="69.05639" lon="17.78527">
        <ele>127.376692</ele>
        <time>2020-08-27T19:46:20.323Z</time>
      </trkpt>
      <trkpt lat="69.05678" lon="17.78437">
        <ele>127.867963</ele>
        <time>2020-08-27T19:46:31.289Z</time>
      </trkpt>
      <trkpt lat="69.05869" lon="17.78095">
        <ele>129.776106</ele>
        <time>2020-08-27T19:47:16.680Z</time>
      </trkpt>
      <trkpt lat="69.05905" lon="17.78003">
        <ele>130.125931</ele>
        <time>2020-08-27T19:47:26.414Z</time>
      </trkpt>
      <trkpt lat="69.05925" lon="17.77863">
        <ele>130.827375</ele>
        <time>2020-08-27T19:47:37.488Z</time>
      </trkpt>
      <trkpt lat="69.05942" lon="17.77669">
        <ele>131.885815</ele>
        <time>2020-08-27T19:47:54.253Z</time>
      </trkpt>
      <trkpt lat="69.05951" lon="17.77402">
        <ele>132.848401</ele>
        <time>2020-08-27T19:48:17.110Z</time>
      </trkpt>
      <trkpt lat="69.05955" lon="17.77351">
        <ele>132.82482</ele>
        <time>2020-08-27T19:48:21.253Z</time>
      </trkpt>
      <trkpt lat="69.05959" lon="17.77309">
        <ele>132.804992</ele>
        <time>2020-08-27T19:48:24.740Z</time>
      </trkpt>
      <trkpt lat="69.06007" lon="17.76955">
        <ele>131.754664</ele>
        <time>2020-08-27T19:48:46.749Z</time>
      </trkpt>
      <trkpt lat="69.06037" lon="17.76679">
        <ele>126.652408</ele>
        <time>2020-08-27T19:48:59.199Z</time>
      </trkpt>
      <trkpt lat="69.06075" lon="17.76539">
        <ele>123.444479</ele>
        <time>2020-08-27T19:49:06.461Z</time>
      </trkpt>
      <trkpt lat="69.06094" lon="17.76502">
        <ele>121.751922</ele>
        <time>2020-08-27T19:49:09.190Z</time>
      </trkpt>
      <trkpt lat="69.06117" lon="17.76472">
        <ele>119.946765</ele>
        <time>2020-08-27T19:49:12.054Z</time>
      </trkpt>
      <trkpt lat="69.06124" lon="17.76462">
        <ele>119.390469</ele>
        <time>2020-08-27T19:49:12.915Z</time>
      </trkpt>
      <trkpt lat="69.06187" lon="17.76364">
        <ele>114.23613</ele>
        <time>2020-08-27T19:49:21.060Z</time>
      </trkpt>
      <trkpt lat="69.06229" lon="17.76277">
        <ele>110.616352</ele>
        <time>2020-08-27T19:49:27.126Z</time>
      </trkpt>
      <trkpt lat="69.06236" lon="17.76253">
        <ele>110.101336</ele>
        <time>2020-08-27T19:49:28.362Z</time>
      </trkpt>
      <trkpt lat="69.06251" lon="17.76183">
        <ele>108.744734</ele>
        <time>2020-08-27T19:49:31.861Z</time>
      </trkpt>
      <trkpt lat="69.06263" lon="17.7609">
        <ele>107.095409</ele>
        <time>2020-08-27T19:49:36.179Z</time>
      </trkpt>
      <trkpt lat="69.06263" lon="17.75886">
        <ele>103.716967</ele>
        <time>2020-08-27T19:49:45.228Z</time>
      </trkpt>
      <trkpt lat="69.06264" lon="17.75853">
        <ele>103.171941</ele>
        <time>2020-08-27T19:49:46.667Z</time>
      </trkpt>
      <trkpt lat="69.06263" lon="17.75738">
        <ele>102.220355</ele>
        <time>2020-08-27T19:49:52.385Z</time>
      </trkpt>
      <trkpt lat="69.06264" lon="17.7569">
        <ele>102.039973</ele>
        <time>2020-08-27T19:49:55.006Z</time>
      </trkpt>
      <trkpt lat="69.06264" lon="17.7564">
        <ele>101.853252</ele>
        <time>2020-08-27T19:49:57.830Z</time>
      </trkpt>
      <trkpt lat="69.06263" lon="17.7536">
        <ele>100.796266</ele>
        <time>2020-08-27T19:50:14.462Z</time>
      </trkpt>
      <trkpt lat="69.06263" lon="17.75282">
        <ele>100.450535</ele>
        <time>2020-08-27T19:50:19.085Z</time>
      </trkpt>
      <trkpt lat="69.06263" lon="17.75265">
        <ele>100.358555</ele>
        <time>2020-08-27T19:50:20.513Z</time>
      </trkpt>
      <trkpt lat="69.06255" lon="17.75038">
        <ele>99.086739</ele>
        <time>2020-08-27T19:50:34.163Z</time>
      </trkpt>
      <trkpt lat="69.06259" lon="17.74923">
        <ele>98.441676</ele>
        <time>2020-08-27T19:50:39.874Z</time>
      </trkpt>
      <trkpt lat="69.06269" lon="17.7484">
        <ele>97.951315</ele>
        <time>2020-08-27T19:50:44.024Z</time>
      </trkpt>
      <trkpt lat="69.06303" lon="17.74646">
        <ele>94.510476</ele>
        <time>2020-08-27T19:50:53.862Z</time>
      </trkpt>
      <trkpt lat="69.0631" lon="17.74589">
        <ele>93.444195</ele>
        <time>2020-08-27T19:50:56.559Z</time>
      </trkpt>
      <trkpt lat="69.06311" lon="17.74578">
        <ele>93.247029</ele>
        <time>2020-08-27T19:50:57.038Z</time>
      </trkpt>
      <trkpt lat="69.06313" lon="17.7447">
        <ele>91.351997</ele>
        <time>2020-08-27T19:51:01.646Z</time>
      </trkpt>
      <trkpt lat="69.063" lon="17.74292">
        <ele>88.128898</ele>
        <time>2020-08-27T19:51:09.211Z</time>
      </trkpt>
      <trkpt lat="69.06298" lon="17.74153">
        <ele>85.505956</ele>
        <time>2020-08-27T19:51:15.091Z</time>
      </trkpt>
      <trkpt lat="69.06298" lon="17.74114">
        <ele>84.782263</ele>
        <time>2020-08-27T19:51:16.711Z</time>
      </trkpt>
      <trkpt lat="69.06299" lon="17.74097">
        <ele>84.451468</ele>
        <time>2020-08-27T19:51:17.433Z</time>
      </trkpt>
      <trkpt lat="69.06301" lon="17.74001">
        <ele>82.641079</ele>
        <time>2020-08-27T19:51:21.598Z</time>
      </trkpt>
      <trkpt lat="69.06303" lon="17.73822">
        <ele>79.467609</ele>
        <time>2020-08-27T19:51:29.574Z</time>
      </trkpt>
      <trkpt lat="69.06305" lon="17.73731">
        <ele>78.920298</ele>
        <time>2020-08-27T19:51:33.694Z</time>
      </trkpt>
      <trkpt lat="69.06305" lon="17.73641">
        <ele>78.378753</ele>
        <time>2020-08-27T19:51:37.949Z</time>
      </trkpt>
      <trkpt lat="69.06304" lon="17.73577">
        <ele>77.994868</ele>
        <time>2020-08-27T19:51:41.323Z</time>
      </trkpt>
      <trkpt lat="69.06275" lon="17.73579">
        <ele>77.505979</ele>
        <time>2020-08-27T19:51:45.875Z</time>
      </trkpt>
      <trkpt lat="69.06192" lon="17.73567">
        <ele>76.795567</ele>
        <time>2020-08-27T19:52:00.883Z</time>
      </trkpt>
      <trkpt lat="69.06164" lon="17.7354">
        <ele>77.105797</ele>
        <time>2020-08-27T19:52:07.152Z</time>
      </trkpt>
      <trkpt lat="69.06142" lon="17.73508">
        <ele>77.373951</ele>
        <time>2020-08-27T19:52:12.969Z</time>
      </trkpt>
      <trkpt lat="69.06126" lon="17.7348">
        <ele>77.570022</ele>
        <time>2020-08-27T19:52:17.136Z</time>
      </trkpt>
      <trkpt lat="69.06119" lon="17.73465">
        <ele>77.664297</ele>
        <time>2020-08-27T19:52:19.087Z</time>
      </trkpt>
      <trkpt lat="69.06111" lon="17.73449">
        <ele>77.769231</ele>
        <time>2020-08-27T19:52:21.324Z</time>
      </trkpt>
      <trkpt lat="69.06101" lon="17.7343">
        <ele>77.896164</ele>
        <time>2020-08-27T19:52:23.974Z</time>
      </trkpt>
      <trkpt lat="69.06088" lon="17.73408">
        <ele>78.057624</ele>
        <time>2020-08-27T19:52:27.282Z</time>
      </trkpt>
      <trkpt lat="69.06076" lon="17.73391">
        <ele>78.204185</ele>
        <time>2020-08-27T19:52:30.413Z</time>
      </trkpt>
      <trkpt lat="69.06063" lon="17.73377">
        <ele>78.351519</ele>
        <time>2020-08-27T19:52:33.384Z</time>
      </trkpt>
      <trkpt lat="69.06037" lon="17.73359">
        <ele>78.717616</ele>
        <time>2020-08-27T19:52:39.276Z</time>
      </trkpt>
      <trkpt lat="69.06026" lon="17.73353">
        <ele>78.887045</ele>
        <time>2020-08-27T19:52:41.624Z</time>
      </trkpt>
      <trkpt lat="69.05982" lon="17.73353">
        <ele>79.557587</ele>
        <time>2020-08-27T19:52:51.004Z</time>
      </trkpt>
      <trkpt lat="69.05918" lon="17.73371">
        <ele>80.534252</ele>
        <time>2020-08-27T19:53:05.390Z</time>
      </trkpt>
      <trkpt lat="69.05854" lon="17.73363">
        <ele>81.799884</ele>
        <time>2020-08-27T19:53:21.005Z</time>
      </trkpt>
      <trkpt lat="69.05838" lon="17.73358">
        <ele>82.249994</ele>
        <time>2020-08-27T19:53:25.135Z</time>
      </trkpt>
      <trkpt lat="69.05801" lon="17.73338">
        <ele>83.328006</ele>
        <time>2020-08-27T19:53:35.031Z</time>
      </trkpt>
      <trkpt lat="69.05785" lon="17.73324">
        <ele>83.812504</ele>
        <time>2020-08-27T19:53:39.468Z</time>
      </trkpt>
      <trkpt lat="69.05769" lon="17.73312">
        <ele>84.302557</ele>
        <time>2020-08-27T19:53:44.291Z</time>
      </trkpt>
      <trkpt lat="69.05737" lon="17.73286">
        <ele>85.25429</ele>
        <time>2020-08-27T19:53:53.697Z</time>
      </trkpt>
      <trkpt lat="69.05625" lon="17.73189">
        <ele>88.576609</ele>
        <time>2020-08-27T19:54:27.801Z</time>
      </trkpt>
      <trkpt lat="69.0556" lon="17.73159">
        <ele>90.425993</ele>
        <time>2020-08-27T19:54:45.255Z</time>
      </trkpt>
      <trkpt lat="69.05457" lon="17.7315">
        <ele>92.137969</ele>
        <time>2020-08-27T19:55:09.275Z</time>
      </trkpt>
      <trkpt lat="69.05327" lon="17.73165">
        <ele>93.381001</ele>
        <time>2020-08-27T19:55:35.142Z</time>
      </trkpt>
      <trkpt lat="69.0529" lon="17.73158">
        <ele>93.480568</ele>
        <time>2020-08-27T19:55:42.007Z</time>
      </trkpt>
      <trkpt lat="69.05151" lon="17.73015">
        <ele>93.94447</ele>
        <time>2020-08-27T19:56:09.322Z</time>
      </trkpt>
      <trkpt lat="69.05092" lon="17.72986">
        <ele>94.26658</ele>
        <time>2020-08-27T19:56:20.682Z</time>
      </trkpt>
      <trkpt lat="69.05024" lon="17.73012">
        <ele>94.636825</ele>
        <time>2020-08-27T19:56:34.066Z</time>
      </trkpt>
      <trkpt lat="69.04803" lon="17.73174">
        <ele>97.347787</ele>
        <time>2020-08-27T19:57:23.179Z</time>
      </trkpt>
      <trkpt lat="69.04751" lon="17.73177">
        <ele>98.405497</ele>
        <time>2020-08-27T19:57:36.243Z</time>
      </trkpt>
      <trkpt lat="69.04721" lon="17.73157">
        <ele>99.018517</ele>
        <time>2020-08-27T19:57:43.698Z</time>
      </trkpt>
      <trkpt lat="69.04699" lon="17.73136">
        <ele>99.493433</ele>
        <time>2020-08-27T19:57:49.468Z</time>
      </trkpt>
      <trkpt lat="69.04684" lon="17.73121">
        <ele>99.825315</ele>
        <time>2020-08-27T19:57:53.832Z</time>
      </trkpt>
      <trkpt lat="69.04629" lon="17.73066">
        <ele>100.882132</ele>
        <time>2020-08-27T19:58:08.373Z</time>
      </trkpt>
      <trkpt lat="69.04549" lon="17.73039">
        <ele>102.053768</ele>
        <time>2020-08-27T19:58:28.128Z</time>
      </trkpt>
      <trkpt lat="69.04476" lon="17.73052">
        <ele>103.122379</ele>
        <time>2020-08-27T19:58:42.742Z</time>
      </trkpt>
      <trkpt lat="69.04388" lon="17.73093">
        <ele>103.010054</ele>
        <time>2020-08-27T19:58:59.102Z</time>
      </trkpt>
      <trkpt lat="69.0438" lon="17.731">
        <ele>102.992939</ele>
        <time>2020-08-27T19:59:00.472Z</time>
      </trkpt>
      <trkpt lat="69.04375" lon="17.73105">
        <ele>102.984287</ele>
        <time>2020-08-27T19:59:01.207Z</time>
      </trkpt>
      <trkpt lat="69.04243" lon="17.73181">
        <ele>102.655706</ele>
        <time>2020-08-27T19:59:23.300Z</time>
      </trkpt>
      <trkpt lat="69.0422" lon="17.73194">
        <ele>102.581448</ele>
        <time>2020-08-27T19:59:27.176Z</time>
      </trkpt>
      <trkpt lat="69.04205" lon="17.73201">
        <ele>102.535359</ele>
        <time>2020-08-27T19:59:29.633Z</time>
      </trkpt>
      <trkpt lat="69.04162" lon="17.73214">
        <ele>102.399694</ele>
        <time>2020-08-27T19:59:37.028Z</time>
      </trkpt>
      <trkpt lat="69.04148" lon="17.73215">
        <ele>102.354451</ele>
        <time>2020-08-27T19:59:39.548Z</time>
      </trkpt>
      <trkpt lat="69.04124" lon="17.73213">
        <ele>102.279552</ele>
        <time>2020-08-27T19:59:43.710Z</time>
      </trkpt>
      <trkpt lat="69.04031" lon="17.73211">
        <ele>103.543493</ele>
        <time>2020-08-27T20:00:01.504Z</time>
      </trkpt>
      <trkpt lat="69.03917" lon="17.73263">
        <ele>105.556369</ele>
        <time>2020-08-27T20:00:31.036Z</time>
      </trkpt>
      <trkpt lat="69.03903" lon="17.73272">
        <ele>105.987366</ele>
        <time>2020-08-27T20:00:35.516Z</time>
      </trkpt>
      <trkpt lat="69.03808" lon="17.73322">
        <ele>108.851078</ele>
        <time>2020-08-27T20:01:02.567Z</time>
      </trkpt>
      <trkpt lat="69.03803" lon="17.73324">
        <ele>109.004278</ele>
        <time>2020-08-27T20:01:04.330Z</time>
      </trkpt>
      <trkpt lat="69.03743" lon="17.73352">
        <ele>110.362344</ele>
        <time>2020-08-27T20:01:20.774Z</time>
      </trkpt>
      <trkpt lat="69.03699" lon="17.73359">
        <ele>110.700441</ele>
        <time>2020-08-27T20:01:31.144Z</time>
      </trkpt>
      <trkpt lat="69.03671" lon="17.73361">
        <ele>110.919932</ele>
        <time>2020-08-27T20:01:36.997Z</time>
      </trkpt>
      <trkpt lat="69.03655" lon="17.73361">
        <ele>111.043639</ele>
        <time>2020-08-27T20:01:40.020Z</time>
      </trkpt>
      <trkpt lat="69.03614" lon="17.7337">
        <ele>111.369942</ele>
        <time>2020-08-27T20:01:46.742Z</time>
      </trkpt>
      <trkpt lat="69.03552" lon="17.73432">
        <ele>111.487676</ele>
        <time>2020-08-27T20:01:57.362Z</time>
      </trkpt>
      <trkpt lat="69.03525" lon="17.73472">
        <ele>111.383259</ele>
        <time>2020-08-27T20:02:02.312Z</time>
      </trkpt>
      <trkpt lat="69.03505" lon="17.735">
        <ele>111.309999</ele>
        <time>2020-08-27T20:02:05.647Z</time>
      </trkpt>
      <trkpt lat="69.0347" lon="17.73545">
        <ele>111.177864</ele>
        <time>2020-08-27T20:02:11.981Z</time>
      </trkpt>
      <trkpt lat="69.03456" lon="17.73563">
        <ele>111.125307</ele>
        <time>2020-08-27T20:02:14.825Z</time>
      </trkpt>
      <trkpt lat="69.03256" lon="17.73805">
        <ele>112.152405</ele>
        <time>2020-08-27T20:02:57.609Z</time>
      </trkpt>
      <trkpt lat="69.0323" lon="17.73826">
        <ele>112.37342</ele>
        <time>2020-08-27T20:03:03.796Z</time>
      </trkpt>
      <trkpt lat="69.03215" lon="17.73838">
        <ele>112.498647</ele>
        <time>2020-08-27T20:03:07.040Z</time>
      </trkpt>
      <trkpt lat="69.03207" lon="17.73844">
        <ele>112.568171</ele>
        <time>2020-08-27T20:03:09.187Z</time>
      </trkpt>
      <trkpt lat="69.03144" lon="17.73855">
        <ele>113.070854</ele>
        <time>2020-08-27T20:03:22.377Z</time>
      </trkpt>
      <trkpt lat="69.03133" lon="17.73857">
        <ele>113.158923</ele>
        <time>2020-08-27T20:03:24.910Z</time>
      </trkpt>
      <trkpt lat="69.03115" lon="17.73856">
        <ele>113.309759</ele>
        <time>2020-08-27T20:03:28.733Z</time>
      </trkpt>
      <trkpt lat="69.02855" lon="17.73806">
        <ele>113.890036</ele>
        <time>2020-08-27T20:04:15.100Z</time>
      </trkpt>
      <trkpt lat="69.02759" lon="17.73822">
        <ele>114.268004</ele>
        <time>2020-08-27T20:04:33.207Z</time>
      </trkpt>
      <trkpt lat="69.02737" lon="17.73829">
        <ele>114.355188</ele>
        <time>2020-08-27T20:04:37.417Z</time>
      </trkpt>
      <trkpt lat="69.02732" lon="17.7383">
        <ele>114.373635</ele>
        <time>2020-08-27T20:04:38.668Z</time>
      </trkpt>
      <trkpt lat="69.02617" lon="17.7385">
        <ele>115.55366</ele>
        <time>2020-08-27T20:05:03.524Z</time>
      </trkpt>
      <trkpt lat="69.02479" lon="17.73807">
        <ele>117.338962</ele>
        <time>2020-08-27T20:05:33.633Z</time>
      </trkpt>
      <trkpt lat="69.02362" lon="17.73762">
        <ele>119.140829</ele>
        <time>2020-08-27T20:06:00.348Z</time>
      </trkpt>
      <trkpt lat="69.02332" lon="17.73751">
        <ele>120.135023</ele>
        <time>2020-08-27T20:06:07.773Z</time>
      </trkpt>
      <trkpt lat="69.02199" lon="17.73709">
        <ele>124.521784</ele>
        <time>2020-08-27T20:06:45.799Z</time>
      </trkpt>
      <trkpt lat="69.02139" lon="17.73715">
        <ele>127.505474</ele>
        <time>2020-08-27T20:07:06.059Z</time>
      </trkpt>
      <trkpt lat="69.02037" lon="17.73748">
        <ele>133.17783</ele>
        <time>2020-08-27T20:07:43.614Z</time>
      </trkpt>
      <trkpt lat="69.01982" lon="17.73763">
        <ele>136.65483</ele>
        <time>2020-08-27T20:08:04.089Z</time>
      </trkpt>
      <trkpt lat="69.01935" lon="17.7378">
        <ele>140.185418</ele>
        <time>2020-08-27T20:08:22.336Z</time>
      </trkpt>
      <trkpt lat="69.01851" lon="17.73805">
        <ele>146.470798</ele>
        <time>2020-08-27T20:08:59.949Z</time>
      </trkpt>
      <trkpt lat="69.01808" lon="17.73804">
        <ele>149.943149</ele>
        <time>2020-08-27T20:09:18.843Z</time>
      </trkpt>
      <trkpt lat="69.01787" lon="17.73796">
        <ele>151.729762</ele>
        <time>2020-08-27T20:09:27.731Z</time>
      </trkpt>
      <trkpt lat="69.01777" lon="17.73789">
        <ele>152.625967</ele>
        <time>2020-08-27T20:09:32.822Z</time>
      </trkpt>
      <trkpt lat="69.01726" lon="17.73731">
        <ele>157.439789</ele>
        <time>2020-08-27T20:09:57.418Z</time>
      </trkpt>
      <trkpt lat="69.01698" lon="17.73676">
        <ele>160.390986</ele>
        <time>2020-08-27T20:10:13.507Z</time>
      </trkpt>
      <trkpt lat="69.01677" lon="17.73611">
        <ele>163.102938</ele>
        <time>2020-08-27T20:10:28.818Z</time>
      </trkpt>
      <trkpt lat="69.01643" lon="17.73445">
        <ele>168.970606</ele>
        <time>2020-08-27T20:11:00.647Z</time>
      </trkpt>
      <trkpt lat="69.01598" lon="17.73179">
        <ele>177.929689</ele>
        <time>2020-08-27T20:11:47.664Z</time>
      </trkpt>
      <trkpt lat="69.01575" lon="17.73098">
        <ele>180.657446</ele>
        <time>2020-08-27T20:12:04.348Z</time>
      </trkpt>
      <trkpt lat="69.01546" lon="17.73042">
        <ele>182.882059</ele>
        <time>2020-08-27T20:12:19.363Z</time>
      </trkpt>
      <trkpt lat="69.0145" lon="17.72952">
        <ele>189.286029</ele>
        <time>2020-08-27T20:12:58.494Z</time>
      </trkpt>
      <trkpt lat="69.01308" lon="17.72846">
        <ele>193.353877</ele>
        <time>2020-08-27T20:13:38.290Z</time>
      </trkpt>
      <trkpt lat="69.01221" lon="17.72797">
        <ele>194.378411</ele>
        <time>2020-08-27T20:13:53.756Z</time>
      </trkpt>
      <trkpt lat="69.01182" lon="17.72791">
        <ele>194.18481</ele>
        <time>2020-08-27T20:14:00.012Z</time>
      </trkpt>
      <trkpt lat="69.01075" lon="17.72815">
        <ele>193.64979</ele>
        <time>2020-08-27T20:14:17.127Z</time>
      </trkpt>
      <trkpt lat="69.01003" lon="17.72785">
        <ele>193.103154</ele>
        <time>2020-08-27T20:14:29.664Z</time>
      </trkpt>
      <trkpt lat="69.00876" lon="17.72754">
        <ele>191.89604</ele>
        <time>2020-08-27T20:14:49.509Z</time>
      </trkpt>
      <trkpt lat="69.00843" lon="17.72742">
        <ele>191.226496</ele>
        <time>2020-08-27T20:14:54.532Z</time>
      </trkpt>
      <trkpt lat="69.0082" lon="17.72734">
        <ele>190.763541</ele>
        <time>2020-08-27T20:14:57.763Z</time>
      </trkpt>
      <trkpt lat="69.00693" lon="17.72686">
        <ele>188.20159</ele>
        <time>2020-08-27T20:15:15.360Z</time>
      </trkpt>
      <trkpt lat="69.00678" lon="17.72682">
        <ele>187.880727</ele>
        <time>2020-08-27T20:15:17.378Z</time>
      </trkpt>
      <trkpt lat="69.00481" lon="17.72638">
        <ele>184.024332</ele>
        <time>2020-08-27T20:15:45.296Z</time>
      </trkpt>
      <trkpt lat="69.00397" lon="17.72619">
        <ele>182.664933</ele>
        <time>2020-08-27T20:15:57.579Z</time>
      </trkpt>
      <trkpt lat="69.00369" lon="17.72614">
        <ele>182.225804</ele>
        <time>2020-08-27T20:16:01.632Z</time>
      </trkpt>
      <trkpt lat="69.00341" lon="17.7261">
        <ele>182.029706</ele>
        <time>2020-08-27T20:16:05.877Z</time>
      </trkpt>
      <trkpt lat="69.00213" lon="17.72602">
        <ele>181.794449</ele>
        <time>2020-08-27T20:16:27.429Z</time>
      </trkpt>
      <trkpt lat="69.0008" lon="17.72533">
        <ele>183.278741</ele>
        <time>2020-08-27T20:16:57.665Z</time>
      </trkpt>
      <trkpt lat="68.9997" lon="17.72502">
        <ele>184.579385</ele>
        <time>2020-08-27T20:17:24.517Z</time>
      </trkpt>
      <trkpt lat="68.9981" lon="17.72411">
        <ele>184.478102</ele>
        <time>2020-08-27T20:17:55.024Z</time>
      </trkpt>
      <trkpt lat="68.99771" lon="17.72366">
        <ele>182.765631</ele>
        <time>2020-08-27T20:18:00.596Z</time>
      </trkpt>
      <trkpt lat="68.99746" lon="17.72317">
        <ele>181.527545</ele>
        <time>2020-08-27T20:18:04.424Z</time>
      </trkpt>
      <trkpt lat="68.99672" lon="17.72076">
        <ele>176.60441</ele>
        <time>2020-08-27T20:18:17.907Z</time>
      </trkpt>
      <trkpt lat="68.99641" lon="17.72001">
        <ele>174.392223</ele>
        <time>2020-08-27T20:18:22.679Z</time>
      </trkpt>
      <trkpt lat="68.99592" lon="17.71935">
        <ele>171.446012</ele>
        <time>2020-08-27T20:18:29.100Z</time>
      </trkpt>
      <trkpt lat="68.99537" lon="17.71913">
        <ele>168.455285</ele>
        <time>2020-08-27T20:18:35.923Z</time>
      </trkpt>
      <trkpt lat="68.99521" lon="17.71916">
        <ele>167.868262</ele>
        <time>2020-08-27T20:18:37.871Z</time>
      </trkpt>
      <trkpt lat="68.99503" lon="17.71924">
        <ele>167.408612</ele>
        <time>2020-08-27T20:18:40.194Z</time>
      </trkpt>
      <trkpt lat="68.99087" lon="17.72226">
        <ele>155.577434</ele>
        <time>2020-08-27T20:19:39.131Z</time>
      </trkpt>
      <trkpt lat="68.99013" lon="17.72255">
        <ele>153.133728</ele>
        <time>2020-08-27T20:19:48.675Z</time>
      </trkpt>
      <trkpt lat="68.98997" lon="17.72259">
        <ele>152.456505</ele>
        <time>2020-08-27T20:19:50.633Z</time>
      </trkpt>
      <trkpt lat="68.98933" lon="17.72272">
        <ele>149.294829</ele>
        <time>2020-08-27T20:19:58.489Z</time>
      </trkpt>
      <trkpt lat="68.98822" lon="17.72296">
        <ele>143.825053</ele>
        <time>2020-08-27T20:20:11.805Z</time>
      </trkpt>
      <trkpt lat="68.98757" lon="17.72282">
        <ele>140.754152</ele>
        <time>2020-08-27T20:20:19.833Z</time>
      </trkpt>
      <trkpt lat="68.98699" lon="17.7223">
        <ele>137.943079</ele>
        <time>2020-08-27T20:20:27.247Z</time>
      </trkpt>
      <trkpt lat="68.98511" lon="17.72004">
        <ele>128.898319</ele>
        <time>2020-08-27T20:20:52.729Z</time>
      </trkpt>
      <trkpt lat="68.98464" lon="17.71973">
        <ele>126.823812</ele>
        <time>2020-08-27T20:20:58.730Z</time>
      </trkpt>
      <trkpt lat="68.98406" lon="17.71988">
        <ele>124.275752</ele>
        <time>2020-08-27T20:21:06.050Z</time>
      </trkpt>
      <trkpt lat="68.9829" lon="17.72087">
        <ele>118.796939</ele>
        <time>2020-08-27T20:21:21.075Z</time>
      </trkpt>
      <trkpt lat="68.98275" lon="17.72099">
        <ele>117.97714</ele>
        <time>2020-08-27T20:21:23.072Z</time>
      </trkpt>
      <trkpt lat="68.98262" lon="17.72111">
        <ele>117.311278</ele>
        <time>2020-08-27T20:21:24.604Z</time>
      </trkpt>
      <trkpt lat="68.98228" lon="17.7214">
        <ele>115.468017</ele>
        <time>2020-08-27T20:21:28.974Z</time>
      </trkpt>
      <trkpt lat="68.98206" lon="17.72161">
        <ele>114.278836</ele>
        <time>2020-08-27T20:21:31.812Z</time>
      </trkpt>
      <trkpt lat="68.98193" lon="17.72174">
        <ele>113.52037</ele>
        <time>2020-08-27T20:21:33.519Z</time>
      </trkpt>
      <trkpt lat="68.98116" lon="17.72279">
        <ele>108.775682</ele>
        <time>2020-08-27T20:21:43.597Z</time>
      </trkpt>
      <trkpt lat="68.98072" lon="17.72355">
        <ele>105.510201</ele>
        <time>2020-08-27T20:21:49.625Z</time>
      </trkpt>
      <trkpt lat="68.97945" lon="17.72573">
        <ele>95.781685</ele>
        <time>2020-08-27T20:22:06.968Z</time>
      </trkpt>
      <trkpt lat="68.97891" lon="17.72687">
        <ele>91.088337</ele>
        <time>2020-08-27T20:22:14.816Z</time>
      </trkpt>
      <trkpt lat="68.97743" lon="17.73073">
        <ele>76.355003</ele>
        <time>2020-08-27T20:22:37.949Z</time>
      </trkpt>
      <trkpt lat="68.97592" lon="17.73317">
        <ele>63.87199</ele>
        <time>2020-08-27T20:22:57.772Z</time>
      </trkpt>
      <trkpt lat="68.97573" lon="17.73367">
        <ele>62.020936</ele>
        <time>2020-08-27T20:23:00.813Z</time>
      </trkpt>
      <trkpt lat="68.9753" lon="17.7355">
        <ele>57.757465</ele>
        <time>2020-08-27T20:23:10.139Z</time>
      </trkpt>
      <trkpt lat="68.97512" lon="17.73605">
        <ele>56.431093</ele>
        <time>2020-08-27T20:23:13.381Z</time>
      </trkpt>
      <trkpt lat="68.97479" lon="17.73667">
        <ele>54.449015</ele>
        <time>2020-08-27T20:23:18.282Z</time>
      </trkpt>
      <trkpt lat="68.97411" lon="17.73767">
        <ele>50.976557</ele>
        <time>2020-08-27T20:23:27.858Z</time>
      </trkpt>
      <trkpt lat="68.97389" lon="17.73825">
        <ele>49.879145</ele>
        <time>2020-08-27T20:23:31.761Z</time>
      </trkpt>
      <trkpt lat="68.97374" lon="17.73885">
        <ele>48.924654</ele>
        <time>2020-08-27T20:23:35.200Z</time>
      </trkpt>
      <trkpt lat="68.97361" lon="17.73949">
        <ele>47.973483</ele>
        <time>2020-08-27T20:23:38.600Z</time>
      </trkpt>
      <trkpt lat="68.97352" lon="17.73991">
        <ele>47.347428</ele>
        <time>2020-08-27T20:23:40.886Z</time>
      </trkpt>
      <trkpt lat="68.9729" lon="17.74278">
        <ele>43.295086</ele>
        <time>2020-08-27T20:23:56.449Z</time>
      </trkpt>
      <trkpt lat="68.97172" lon="17.74643">
        <ele>37.801647</ele>
        <time>2020-08-27T20:24:19.696Z</time>
      </trkpt>
      <trkpt lat="68.97141" lon="17.74757">
        <ele>36.291843</ele>
        <time>2020-08-27T20:24:26.383Z</time>
      </trkpt>
      <trkpt lat="68.97124" lon="17.74822">
        <ele>35.427939</ele>
        <time>2020-08-27T20:24:30.277Z</time>
      </trkpt>
      <trkpt lat="68.97115" lon="17.74852">
        <ele>35.026046</ele>
        <time>2020-08-27T20:24:32.006Z</time>
      </trkpt>
      <trkpt lat="68.97081" lon="17.74946">
        <ele>34.200918</ele>
        <time>2020-08-27T20:24:38.497Z</time>
      </trkpt>
      <trkpt lat="68.96995" lon="17.75123">
        <ele>33.532018</ele>
        <time>2020-08-27T20:24:55.301Z</time>
      </trkpt>
      <trkpt lat="68.96973" lon="17.75184">
        <ele>33.335847</ele>
        <time>2020-08-27T20:25:01.578Z</time>
      </trkpt>
      <trkpt lat="68.96957" lon="17.75225">
        <ele>33.297316</ele>
        <time>2020-08-27T20:25:06.745Z</time>
      </trkpt>
      <trkpt lat="68.96901" lon="17.75342">
        <ele>34.183727</ele>
        <time>2020-08-27T20:25:23.242Z</time>
      </trkpt>
      <trkpt lat="68.96856" lon="17.75398">
        <ele>34.803034</ele>
        <time>2020-08-27T20:25:35.138Z</time>
      </trkpt>
      <trkpt lat="68.96788" lon="17.75445">
        <ele>35.409821</ele>
        <time>2020-08-27T20:25:49.816Z</time>
      </trkpt>
      <trkpt lat="68.96711" lon="17.75473">
        <ele>34.951388</ele>
        <time>2020-08-27T20:26:01.728Z</time>
      </trkpt>
      <trkpt lat="68.96695" lon="17.7547">
        <ele>34.851991</ele>
        <time>2020-08-27T20:26:04.654Z</time>
      </trkpt>
      <trkpt lat="68.96678" lon="17.75464">
        <ele>34.750638</ele>
        <time>2020-08-27T20:26:06.997Z</time>
      </trkpt>
      <trkpt lat="68.96617" lon="17.75427">
        <ele>34.506251</ele>
        <time>2020-08-27T20:26:16.906Z</time>
      </trkpt>
      <trkpt lat="68.96603" lon="17.75431">
        <ele>34.639633</ele>
        <time>2020-08-27T20:26:18.892Z</time>
      </trkpt>
      <trkpt lat="68.96592" lon="17.75441">
        <ele>34.752575</ele>
        <time>2020-08-27T20:26:21.188Z</time>
      </trkpt>
      <trkpt lat="68.96583" lon="17.75459">
        <ele>34.862507</ele>
        <time>2020-08-27T20:26:23.090Z</time>
      </trkpt>
      <trkpt lat="68.96576" lon="17.75481">
        <ele>34.964529</ele>
        <time>2020-08-27T20:26:24.640Z</time>
      </trkpt>
      <trkpt lat="68.96569" lon="17.75511">
        <ele>35.089276</ele>
        <time>2020-08-27T20:26:27.246Z</time>
      </trkpt>
      <trkpt lat="68.9656" lon="17.75552">
        <ele>35.253277</ele>
        <time>2020-08-27T20:26:30.140Z</time>
      </trkpt>
      <trkpt lat="68.96533" lon="17.75702">
        <ele>35.839358</ele>
        <time>2020-08-27T20:26:44.012Z</time>
      </trkpt>
      <trkpt lat="68.96524" lon="17.75753">
        <ele>36.035004</ele>
        <time>2020-08-27T20:26:49.219Z</time>
      </trkpt>
      <trkpt lat="68.9652" lon="17.75786">
        <ele>36.155848</ele>
        <time>2020-08-27T20:26:52.894Z</time>
      </trkpt>
      <trkpt lat="68.96512" lon="17.75905">
        <ele>37.189634</ele>
        <time>2020-08-27T20:27:05.540Z</time>
      </trkpt>
      <trkpt lat="68.96508" lon="17.75962">
        <ele>37.702505</ele>
        <time>2020-08-27T20:27:11.831Z</time>
      </trkpt>
      <trkpt lat="68.96493" lon="17.76046">
        <ele>38.5183</ele>
        <time>2020-08-27T20:27:21.061Z</time>
      </trkpt>
      <trkpt lat="68.9649" lon="17.76055">
        <ele>38.627414</ele>
        <time>2020-08-27T20:27:22.391Z</time>
      </trkpt>
      <trkpt lat="68.96486" lon="17.76068">
        <ele>38.780807</ele>
        <time>2020-08-27T20:27:23.867Z</time>
      </trkpt>
      <trkpt lat="68.96481" lon="17.76081">
        <ele>38.955497</ele>
        <time>2020-08-27T20:27:25.705Z</time>
      </trkpt>
      <trkpt lat="68.96475" lon="17.76094">
        <ele>39.12907</ele>
        <time>2020-08-27T20:27:27.603Z</time>
      </trkpt>
      <trkpt lat="68.96467" lon="17.76109">
        <ele>39.373226</ele>
        <time>2020-08-27T20:27:30.412Z</time>
      </trkpt>
      <trkpt lat="68.96439" lon="17.76128">
        <ele>40.072308</ele>
        <time>2020-08-27T20:27:37.329Z</time>
      </trkpt>
      <trkpt lat="68.96239" lon="17.7615">
        <ele>41.570286</ele>
        <time>2020-08-27T20:28:15.785Z</time>
      </trkpt>
      <trkpt lat="68.96146" lon="17.76204">
        <ele>41.949538</ele>
        <time>2020-08-27T20:28:33.562Z</time>
      </trkpt>
      <trkpt lat="68.96135" lon="17.76214">
        <ele>41.997156</ele>
        <time>2020-08-27T20:28:35.634Z</time>
      </trkpt>
      <trkpt lat="68.9612" lon="17.76224">
        <ele>42.05964</ele>
        <time>2020-08-27T20:28:38.598Z</time>
      </trkpt>
      <trkpt lat="68.96107" lon="17.76237">
        <ele>42.116388</ele>
        <time>2020-08-27T20:28:41.504Z</time>
      </trkpt>
      <trkpt lat="68.96082" lon="17.76257">
        <ele>42.218225</ele>
        <time>2020-08-27T20:28:46.161Z</time>
      </trkpt>
      <trkpt lat="68.96073" lon="17.76265">
        <ele>42.25835</ele>
        <time>2020-08-27T20:28:48.384Z</time>
      </trkpt>
      <trkpt lat="68.96024" lon="17.76288">
        <ele>42.672521</ele>
        <time>2020-08-27T20:28:58.024Z</time>
      </trkpt>
      <trkpt lat="68.95984" lon="17.76283">
        <ele>43.051218</ele>
        <time>2020-08-27T20:29:06.646Z</time>
      </trkpt>
      <trkpt lat="68.95875" lon="17.76228">
        <ele>44.026071</ele>
        <time>2020-08-27T20:29:30.378Z</time>
      </trkpt>
      <trkpt lat="68.95719" lon="17.7617">
        <ele>44.814014</ele>
        <time>2020-08-27T20:30:01.739Z</time>
      </trkpt>
      <trkpt lat="68.95675" lon="17.76126">
        <ele>44.262071</ele>
        <time>2020-08-27T20:30:09.346Z</time>
      </trkpt>
      <trkpt lat="68.95651" lon="17.76084">
        <ele>43.803732</ele>
        <time>2020-08-27T20:30:13.629Z</time>
      </trkpt>
      <trkpt lat="68.95627" lon="17.76019">
        <ele>43.251104</ele>
        <time>2020-08-27T20:30:18.541Z</time>
      </trkpt>
      <trkpt lat="68.9552" lon="17.75628">
        <ele>40.020636</ele>
        <time>2020-08-27T20:30:42.495Z</time>
      </trkpt>
      <trkpt lat="68.95467" lon="17.75464">
        <ele>38.428484</ele>
        <time>2020-08-27T20:30:53.804Z</time>
      </trkpt>
      <trkpt lat="68.95404" lon="17.75336">
        <ele>38.482165</ele>
        <time>2020-08-27T20:31:07.163Z</time>
      </trkpt>
      <trkpt lat="68.95333" lon="17.75251">
        <ele>38.654807</ele>
        <time>2020-08-27T20:31:22.710Z</time>
      </trkpt>
      <trkpt lat="68.95319" lon="17.75239">
        <ele>38.688468</ele>
        <time>2020-08-27T20:31:25.932Z</time>
      </trkpt>
      <trkpt lat="68.95288" lon="17.75221">
        <ele>38.844678</ele>
        <time>2020-08-27T20:31:32.771Z</time>
      </trkpt>
      <trkpt lat="68.95137" lon="17.75185">
        <ele>39.964165</ele>
        <time>2020-08-27T20:32:04.298Z</time>
      </trkpt>
      <trkpt lat="68.95106" lon="17.75156">
        <ele>40.010283</ele>
        <time>2020-08-27T20:32:09.907Z</time>
      </trkpt>
      <trkpt lat="68.95024" lon="17.7504">
        <ele>39.820702</ele>
        <time>2020-08-27T20:32:25.374Z</time>
      </trkpt>
      <trkpt lat="68.94951" lon="17.74979">
        <ele>39.697132</ele>
        <time>2020-08-27T20:32:38.215Z</time>
      </trkpt>
      <trkpt lat="68.94887" lon="17.74934">
        <ele>39.799933</ele>
        <time>2020-08-27T20:32:49.651Z</time>
      </trkpt>
      <trkpt lat="68.94742" lon="17.74861">
        <ele>40.314096</ele>
        <time>2020-08-27T20:33:17.613Z</time>
      </trkpt>
      <trkpt lat="68.94594" lon="17.74731">
        <ele>41.635965</ele>
        <time>2020-08-27T20:33:50.361Z</time>
      </trkpt>
      <trkpt lat="68.94463" lon="17.7468">
        <ele>42.904378</ele>
        <time>2020-08-27T20:34:19.142Z</time>
      </trkpt>
      <trkpt lat="68.94408" lon="17.74613">
        <ele>43.045809</ele>
        <time>2020-08-27T20:34:30.566Z</time>
      </trkpt>
      <trkpt lat="68.94366" lon="17.74511">
        <ele>42.769295</ele>
        <time>2020-08-27T20:34:40.050Z</time>
      </trkpt>
      <trkpt lat="68.94354" lon="17.74476">
        <ele>42.684317</ele>
        <time>2020-08-27T20:34:42.929Z</time>
      </trkpt>
      <trkpt lat="68.94318" lon="17.7437">
        <ele>42.426324</ele>
        <time>2020-08-27T20:34:50.951Z</time>
      </trkpt>
      <trkpt lat="68.94281" lon="17.74251">
        <ele>41.929551</ele>
        <time>2020-08-27T20:34:59.611Z</time>
      </trkpt>
      <trkpt lat="68.9428" lon="17.74248">
        <ele>41.913534</ele>
        <time>2020-08-27T20:34:59.760Z</time>
      </trkpt>
      <trkpt lat="68.94272" lon="17.74217">
        <ele>41.754381</ele>
        <time>2020-08-27T20:35:01.836Z</time>
      </trkpt>
      <trkpt lat="68.9422" lon="17.73945">
        <ele>40.453807</ele>
        <time>2020-08-27T20:35:18.853Z</time>
      </trkpt>
      <trkpt lat="68.94196" lon="17.73874">
        <ele>39.844591</ele>
        <time>2020-08-27T20:35:24.246Z</time>
      </trkpt>
      <trkpt lat="68.94159" lon="17.73809">
        <ele>38.676569</ele>
        <time>2020-08-27T20:35:30.890Z</time>
      </trkpt>
      <trkpt lat="68.9411" lon="17.73734">
        <ele>37.165472</ele>
        <time>2020-08-27T20:35:38.544Z</time>
      </trkpt>
      <trkpt lat="68.94054" lon="17.73652">
        <ele>35.483707</ele>
        <time>2020-08-27T20:35:46.518Z</time>
      </trkpt>
      <trkpt lat="68.94024" lon="17.73606">
        <ele>33.835201</ele>
        <time>2020-08-27T20:35:50.811Z</time>
      </trkpt>
      <trkpt lat="68.94007" lon="17.73579">
        <ele>32.87469</ele>
        <time>2020-08-27T20:35:53.091Z</time>
      </trkpt>
      <trkpt lat="68.93996" lon="17.7356">
        <ele>32.223727</ele>
        <time>2020-08-27T20:35:54.682Z</time>
      </trkpt>
      <trkpt lat="68.93981" lon="17.73537">
        <ele>31.36395</ele>
        <time>2020-08-27T20:35:56.670Z</time>
      </trkpt>
      <trkpt lat="68.93899" lon="17.73437">
        <ele>26.854498</ele>
        <time>2020-08-27T20:36:07.493Z</time>
      </trkpt>
      <trkpt lat="68.93884" lon="17.73418">
        <ele>26.2587</ele>
        <time>2020-08-27T20:36:09.362Z</time>
      </trkpt>
      <trkpt lat="68.93877" lon="17.73407">
        <ele>26.108016</ele>
        <time>2020-08-27T20:36:10.448Z</time>
      </trkpt>
      <trkpt lat="68.93843" lon="17.73343">
        <ele>25.389801</ele>
        <time>2020-08-27T20:36:15.470Z</time>
      </trkpt>
      <trkpt lat="68.93806" lon="17.73248">
        <ele>24.486708</ele>
        <time>2020-08-27T20:36:22.557Z</time>
      </trkpt>
      <trkpt lat="68.93723" lon="17.73025">
        <ele>24.52437</ele>
        <time>2020-08-27T20:36:45.654Z</time>
      </trkpt>
      <trkpt lat="68.93695" lon="17.7295">
        <ele>25.778806</ele>
        <time>2020-08-27T20:36:56.146Z</time>
      </trkpt>
      <trkpt lat="68.93648" lon="17.72848">
        <ele>27.710463</ele>
        <time>2020-08-27T20:37:13.740Z</time>
      </trkpt>
      <trkpt lat="68.93569" lon="17.72755">
        <ele>31.293967</ele>
        <time>2020-08-27T20:37:44.973Z</time>
      </trkpt>
      <trkpt lat="68.9352" lon="17.72667">
        <ele>34.170023</ele>
        <time>2020-08-27T20:38:05.451Z</time>
      </trkpt>
      <trkpt lat="68.93504" lon="17.72628">
        <ele>35.254875</ele>
        <time>2020-08-27T20:38:12.735Z</time>
      </trkpt>
      <trkpt lat="68.93489" lon="17.72594">
        <ele>36.207081</ele>
        <time>2020-08-27T20:38:19.342Z</time>
      </trkpt>
      <trkpt lat="68.9345" lon="17.7254">
        <ele>38.230907</ele>
        <time>2020-08-27T20:38:32.332Z</time>
      </trkpt>
      <trkpt lat="68.93411" lon="17.7252">
        <ele>39.633777</ele>
        <time>2020-08-27T20:38:44.004Z</time>
      </trkpt>
      <trkpt lat="68.93388" lon="17.72523">
        <ele>40.435513</ele>
        <time>2020-08-27T20:38:51.229Z</time>
      </trkpt>
      <trkpt lat="68.93356" lon="17.72529">
        <ele>41.581548</ele>
        <time>2020-08-27T20:39:00.617Z</time>
      </trkpt>
      <trkpt lat="68.93311" lon="17.72527">
        <ele>43.15573</ele>
        <time>2020-08-27T20:39:12.998Z</time>
      </trkpt>
      <trkpt lat="68.9329" lon="17.72522">
        <ele>43.907683</ele>
        <time>2020-08-27T20:39:18.227Z</time>
      </trkpt>
      <trkpt lat="68.93277" lon="17.72516">
        <ele>44.373677</ele>
        <time>2020-08-27T20:39:22.559Z</time>
      </trkpt>
      <trkpt lat="68.93227" lon="17.72487">
        <ele>46.298594</ele>
        <time>2020-08-27T20:39:36.477Z</time>
      </trkpt>
      <trkpt lat="68.93188" lon="17.72498">
        <ele>47.756189</ele>
        <time>2020-08-27T20:39:48.567Z</time>
      </trkpt>
      <trkpt lat="68.93148" lon="17.72533">
        <ele>49.325916</ele>
        <time>2020-08-27T20:40:02.058Z</time>
      </trkpt>
      <trkpt lat="68.93099" lon="17.7264">
        <ele>51.513405</ele>
        <time>2020-08-27T20:40:20.678Z</time>
      </trkpt>
      <trkpt lat="68.93092" lon="17.72648">
        <ele>51.748342</ele>
        <time>2020-08-27T20:40:24.188Z</time>
      </trkpt>
      <trkpt lat="68.93084" lon="17.72652">
        <ele>51.986074</ele>
        <time>2020-08-27T20:40:26.306Z</time>
      </trkpt>
      <trkpt lat="68.93067" lon="17.7265">
        <ele>52.465183</ele>
        <time>2020-08-27T20:40:30.527Z</time>
      </trkpt>
      <trkpt lat="68.93013" lon="17.7259">
        <ele>54.173031</ele>
        <time>2020-08-27T20:40:47.591Z</time>
      </trkpt>
      <trkpt lat="68.92994" lon="17.72581">
        <ele>54.748135</ele>
        <time>2020-08-27T20:40:52.597Z</time>
      </trkpt>
      <trkpt lat="68.92972" lon="17.72578">
        <ele>55.364199</ele>
        <time>2020-08-27T20:40:58.100Z</time>
      </trkpt>
      <trkpt lat="68.9294" lon="17.72576">
        <ele>56.26998</ele>
        <time>2020-08-27T20:41:06.130Z</time>
      </trkpt>
      <trkpt lat="68.92895" lon="17.7256">
        <ele>56.101057</ele>
        <time>2020-08-27T20:41:15.005Z</time>
      </trkpt>
      <trkpt lat="68.92864" lon="17.72536">
        <ele>55.980936</ele>
        <time>2020-08-27T20:41:20.837Z</time>
      </trkpt>
      <trkpt lat="68.92841" lon="17.72516">
        <ele>55.892712</ele>
        <time>2020-08-27T20:41:24.709Z</time>
      </trkpt>
      <trkpt lat="68.92806" lon="17.72468">
        <ele>55.746187</ele>
        <time>2020-08-27T20:41:30.727Z</time>
      </trkpt>
      <trkpt lat="68.92771" lon="17.72406">
        <ele>55.477572</ele>
        <time>2020-08-27T20:41:36.808Z</time>
      </trkpt>
      <trkpt lat="68.92735" lon="17.72343">
        <ele>54.122355</ele>
        <time>2020-08-27T20:41:42.876Z</time>
      </trkpt>
      <trkpt lat="68.92722" lon="17.72326">
        <ele>53.683809</ele>
        <time>2020-08-27T20:41:44.836Z</time>
      </trkpt>
      <trkpt lat="68.92712" lon="17.72317">
        <ele>53.350053</ele>
        <time>2020-08-27T20:41:46.064Z</time>
      </trkpt>
      <trkpt lat="68.92704" lon="17.72312">
        <ele>53.061905</ele>
        <time>2020-08-27T20:41:47.195Z</time>
      </trkpt>
      <trkpt lat="68.92655" lon="17.7232">
        <ele>51.517964</ele>
        <time>2020-08-27T20:41:53.442Z</time>
      </trkpt>
      <trkpt lat="68.92591" lon="17.72379">
        <ele>49.333688</ele>
        <time>2020-08-27T20:42:01.913Z</time>
      </trkpt>
      <trkpt lat="68.92581" lon="17.72379">
        <ele>48.998578</ele>
        <time>2020-08-27T20:42:03.275Z</time>
      </trkpt>
      <trkpt lat="68.92569" lon="17.72375">
        <ele>48.610727</ele>
        <time>2020-08-27T20:42:04.637Z</time>
      </trkpt>
      <trkpt lat="68.92533" lon="17.72345">
        <ele>47.372851</ele>
        <time>2020-08-27T20:42:09.598Z</time>
      </trkpt>
      <trkpt lat="68.9251" lon="17.72355">
        <ele>46.628841</ele>
        <time>2020-08-27T20:42:12.805Z</time>
      </trkpt>
      <trkpt lat="68.92496" lon="17.72385">
        <ele>46.030883</ele>
        <time>2020-08-27T20:42:15.122Z</time>
      </trkpt>
      <trkpt lat="68.92459" lon="17.72508">
        <ele>44.130201</ele>
        <time>2020-08-27T20:42:22.803Z</time>
      </trkpt>
      <trkpt lat="68.92388" lon="17.72637">
        <ele>41.591253</ele>
        <time>2020-08-27T20:42:34.070Z</time>
      </trkpt>
      <trkpt lat="68.92351" lon="17.72681">
        <ele>40.412179</ele>
        <time>2020-08-27T20:42:39.361Z</time>
      </trkpt>
      <trkpt lat="68.92344" lon="17.72683">
        <ele>40.187263</ele>
        <time>2020-08-27T20:42:40.402Z</time>
      </trkpt>
      <trkpt lat="68.92333" lon="17.72685">
        <ele>39.850511</ele>
        <time>2020-08-27T20:42:41.804Z</time>
      </trkpt>
      <trkpt lat="68.92323" lon="17.72682">
        <ele>39.563207</ele>
        <time>2020-08-27T20:42:43.298Z</time>
      </trkpt>
      <trkpt lat="68.92282" lon="17.72659">
        <ele>38.105551</ele>
        <time>2020-08-27T20:42:49.067Z</time>
      </trkpt>
      <trkpt lat="68.92269" lon="17.72654">
        <ele>37.423073</ele>
        <time>2020-08-27T20:42:50.766Z</time>
      </trkpt>
      <trkpt lat="68.92248" lon="17.72654">
        <ele>36.28255</ele>
        <time>2020-08-27T20:42:53.490Z</time>
      </trkpt>
      <trkpt lat="68.92232" lon="17.72658">
        <ele>35.470965</ele>
        <time>2020-08-27T20:42:55.299Z</time>
      </trkpt>
      <trkpt lat="68.92212" lon="17.72663">
        <ele>34.384238</ele>
        <time>2020-08-27T20:42:57.715Z</time>
      </trkpt>
      <trkpt lat="68.92176" lon="17.72659">
        <ele>32.497818</ele>
        <time>2020-08-27T20:43:01.845Z</time>
      </trkpt>
      <trkpt lat="68.9214" lon="17.72617">
        <ele>30.446601</ele>
        <time>2020-08-27T20:43:06.412Z</time>
      </trkpt>
      <trkpt lat="68.92127" lon="17.72592">
        <ele>29.617385</ele>
        <time>2020-08-27T20:43:08.241Z</time>
      </trkpt>
      <trkpt lat="68.92123" lon="17.72584">
        <ele>29.356109</ele>
        <time>2020-08-27T20:43:08.778Z</time>
      </trkpt>
      <trkpt lat="68.92107" lon="17.72547">
        <ele>28.400835</ele>
        <time>2020-08-27T20:43:11.498Z</time>
      </trkpt>
      <trkpt lat="68.92097" lon="17.72519">
        <ele>27.769053</ele>
        <time>2020-08-27T20:43:13.114Z</time>
      </trkpt>
      <trkpt lat="68.92059" lon="17.72364">
        <ele>24.837095</ele>
        <time>2020-08-27T20:43:21.464Z</time>
      </trkpt>
      <trkpt lat="68.92039" lon="17.72332">
        <ele>23.830919</ele>
        <time>2020-08-27T20:43:24.326Z</time>
      </trkpt>
      <trkpt lat="68.92019" lon="17.72332">
        <ele>22.977568</ele>
        <time>2020-08-27T20:43:26.653Z</time>
      </trkpt>
      <trkpt lat="68.92004" lon="17.72353">
        <ele>22.225016</ele>
        <time>2020-08-27T20:43:29.025Z</time>
      </trkpt>
      <trkpt lat="68.91983" lon="17.7243">
        <ele>21.240997</ele>
        <time>2020-08-27T20:43:33.490Z</time>
      </trkpt>
      <trkpt lat="68.91976" lon="17.72468">
        <ele>21.211452</ele>
        <time>2020-08-27T20:43:35.832Z</time>
      </trkpt>
      <trkpt lat="68.91965" lon="17.72528">
        <ele>21.166057</ele>
        <time>2020-08-27T20:43:39.756Z</time>
      </trkpt>
      <trkpt lat="68.91934" lon="17.72632">
        <ele>21.075431</ele>
        <time>2020-08-27T20:43:48.110Z</time>
      </trkpt>
      <trkpt lat="68.91931" lon="17.72639">
        <ele>21.067813</ele>
        <time>2020-08-27T20:43:49.185Z</time>
      </trkpt>
      <trkpt lat="68.9192" lon="17.72657">
        <ele>21.044321</ele>
        <time>2020-08-27T20:43:51.245Z</time>
      </trkpt>
      <trkpt lat="68.91908" lon="17.72673">
        <ele>21.019012</ele>
        <time>2020-08-27T20:43:54.567Z</time>
      </trkpt>
      <trkpt lat="68.9189" lon="17.72691">
        <ele>20.982721</ele>
        <time>2020-08-27T20:43:58.676Z</time>
      </trkpt>
      <trkpt lat="68.91855" lon="17.72716">
        <ele>20.971985</ele>
        <time>2020-08-27T20:44:07.088Z</time>
      </trkpt>
      <trkpt lat="68.91832" lon="17.72734">
        <ele>21.172508</ele>
        <time>2020-08-27T20:44:12.942Z</time>
      </trkpt>
      <trkpt lat="68.91809" lon="17.72758">
        <ele>21.371515</ele>
        <time>2020-08-27T20:44:17.894Z</time>
      </trkpt>
      <trkpt lat="68.91784" lon="17.72802">
        <ele>21.609282</ele>
        <time>2020-08-27T20:44:23.725Z</time>
      </trkpt>
      <trkpt lat="68.91773" lon="17.72828">
        <ele>21.723324</ele>
        <time>2020-08-27T20:44:26.872Z</time>
      </trkpt>
      <trkpt lat="68.91759" lon="17.72863">
        <ele>21.879259</ele>
        <time>2020-08-27T20:44:30.052Z</time>
      </trkpt>
      <trkpt lat="68.91715" lon="17.72935">
        <ele>22.294567</ele>
        <time>2020-08-27T20:44:40.737Z</time>
      </trkpt>
      <trkpt lat="68.91634" lon="17.72997">
        <ele>21.907458</ele>
        <time>2020-08-27T20:44:56.229Z</time>
      </trkpt>
      <trkpt lat="68.91602" lon="17.73041">
        <ele>21.671599</ele>
        <time>2020-08-27T20:45:01.832Z</time>
      </trkpt>
      <trkpt lat="68.9155" lon="17.7312">
        <ele>21.281894</ele>
        <time>2020-08-27T20:45:10.754Z</time>
      </trkpt>
      <trkpt lat="68.91512" lon="17.73214">
        <ele>20.582171</ele>
        <time>2020-08-27T20:45:17.825Z</time>
      </trkpt>
      <trkpt lat="68.91485" lon="17.733">
        <ele>19.912241</ele>
        <time>2020-08-27T20:45:23.830Z</time>
      </trkpt>
      <trkpt lat="68.91477" lon="17.73325">
        <ele>19.712385</ele>
        <time>2020-08-27T20:45:25.785Z</time>
      </trkpt>
      <trkpt lat="68.91472" lon="17.73338">
        <ele>19.614293</ele>
        <time>2020-08-27T20:45:26.749Z</time>
      </trkpt>
      <trkpt lat="68.91463" lon="17.73365">
        <ele>19.39081</ele>
        <time>2020-08-27T20:45:28.647Z</time>
      </trkpt>
      <trkpt lat="68.91448" lon="17.73396">
        <ele>19.098284</ele>
        <time>2020-08-27T20:45:31.534Z</time>
      </trkpt>
      <trkpt lat="68.91427" lon="17.73431">
        <ele>18.692917</ele>
        <time>2020-08-27T20:45:35.122Z</time>
      </trkpt>
      <trkpt lat="68.91421" lon="17.73441">
        <ele>18.583555</ele>
        <time>2020-08-27T20:45:36.157Z</time>
      </trkpt>
      <trkpt lat="68.91415" lon="17.73456">
        <ele>18.445532</ele>
        <time>2020-08-27T20:45:37.455Z</time>
      </trkpt>
      <trkpt lat="68.91407" lon="17.73481">
        <ele>18.258179</ele>
        <time>2020-08-27T20:45:39.049Z</time>
      </trkpt>
      <trkpt lat="68.91398" lon="17.73512">
        <ele>18.071323</ele>
        <time>2020-08-27T20:45:41.173Z</time>
      </trkpt>
      <trkpt lat="68.91381" lon="17.73599">
        <ele>17.598157</ele>
        <time>2020-08-27T20:45:46.238Z</time>
      </trkpt>
      <trkpt lat="68.9137" lon="17.73677">
        <ele>17.190454</ele>
        <time>2020-08-27T20:45:50.541Z</time>
      </trkpt>
      <trkpt lat="68.91354" lon="17.73781">
        <ele>16.652664</ele>
        <time>2020-08-27T20:45:56.555Z</time>
      </trkpt>
      <trkpt lat="68.9134" lon="17.73865">
        <ele>16.202228</ele>
        <time>2020-08-27T20:46:01.977Z</time>
      </trkpt>
      <trkpt lat="68.91324" lon="17.7395">
        <ele>15.854539</ele>
        <time>2020-08-27T20:46:07.542Z</time>
      </trkpt>
      <trkpt lat="68.91309" lon="17.74036">
        <ele>15.749137</ele>
        <time>2020-08-27T20:46:13.167Z</time>
      </trkpt>
      <trkpt lat="68.91284" lon="17.74193">
        <ele>15.561381</ele>
        <time>2020-08-27T20:46:23.276Z</time>
      </trkpt>
      <trkpt lat="68.91252" lon="17.74367">
        <ele>15.347477</ele>
        <time>2020-08-27T20:46:36.152Z</time>
      </trkpt>
      <trkpt lat="68.9123" lon="17.74454">
        <ele>15.150875</ele>
        <time>2020-08-27T20:46:43.355Z</time>
      </trkpt>
      <trkpt lat="68.91202" lon="17.7456">
        <ele>14.897605</ele>
        <time>2020-08-27T20:46:51.766Z</time>
      </trkpt>
      <trkpt lat="68.91164" lon="17.74708">
        <ele>14.54797</ele>
        <time>2020-08-27T20:47:02.067Z</time>
      </trkpt>
      <trkpt lat="68.91122" lon="17.7487">
        <ele>14.021347</ele>
        <time>2020-08-27T20:47:12.802Z</time>
      </trkpt>
      <trkpt lat="68.91091" lon="17.7499">
        <ele>13.543678</ele>
        <time>2020-08-27T20:47:20.479Z</time>
      </trkpt>
      <trkpt lat="68.91006" lon="17.75317">
        <ele>13.337236</ele>
        <time>2020-08-27T20:47:45.061Z</time>
      </trkpt>
      <trkpt lat="68.90988" lon="17.75389">
        <ele>13.648712</ele>
        <time>2020-08-27T20:47:53.053Z</time>
      </trkpt>
      <trkpt lat="68.90979" lon="17.75422">
        <ele>13.787209</ele>
        <time>2020-08-27T20:47:56.591Z</time>
      </trkpt>
      <trkpt lat="68.90977" lon="17.75429">
        <ele>13.81717</ele>
        <time>2020-08-27T20:47:57.518Z</time>
      </trkpt>
      <trkpt lat="68.90973" lon="17.75445">
        <ele>13.886701</ele>
        <time>2020-08-27T20:47:59.399Z</time>
      </trkpt>
      <trkpt lat="68.90949" lon="17.7554">
        <ele>14.292583</ele>
        <time>2020-08-27T20:48:09.411Z</time>
      </trkpt>
      <trkpt lat="68.90923" lon="17.75634">
        <ele>14.250228</ele>
        <time>2020-08-27T20:48:18.260Z</time>
      </trkpt>
      <trkpt lat="68.909" lon="17.75708">
        <ele>13.793723</ele>
        <time>2020-08-27T20:48:24.421Z</time>
      </trkpt>
      <trkpt lat="68.90883" lon="17.75765">
        <ele>13.440998</ele>
        <time>2020-08-27T20:48:28.662Z</time>
      </trkpt>
      <trkpt lat="68.9087" lon="17.75805">
        <ele>13.192157</ele>
        <time>2020-08-27T20:48:31.432Z</time>
      </trkpt>
      <trkpt lat="68.90853" lon="17.75862">
        <ele>12.839738</ele>
        <time>2020-08-27T20:48:35.195Z</time>
      </trkpt>
      <trkpt lat="68.90838" lon="17.7591">
        <ele>12.539891</ele>
        <time>2020-08-27T20:48:38.260Z</time>
      </trkpt>
      <trkpt lat="68.9079" lon="17.76061">
        <ele>11.23528</ele>
        <time>2020-08-27T20:48:47.635Z</time>
      </trkpt>
      <trkpt lat="68.90741" lon="17.76219">
        <ele>9.625999</ele>
        <time>2020-08-27T20:48:57.579Z</time>
      </trkpt>
      <trkpt lat="68.90729" lon="17.76258">
        <ele>9.228074</ele>
        <time>2020-08-27T20:49:00.276Z</time>
      </trkpt>
      <trkpt lat="68.90724" lon="17.76278">
        <ele>9.041216</ele>
        <time>2020-08-27T20:49:01.415Z</time>
      </trkpt>
      <trkpt lat="68.90717" lon="17.76307">
        <ele>8.770276</ele>
        <time>2020-08-27T20:49:03.691Z</time>
      </trkpt>
      <trkpt lat="68.90695" lon="17.76443">
        <ele>8.533961</ele>
        <time>2020-08-27T20:49:13.393Z</time>
      </trkpt>
      <trkpt lat="68.90668" lon="17.76748">
        <ele>9.350158</ele>
        <time>2020-08-27T20:49:37.807Z</time>
      </trkpt>
      <trkpt lat="68.90621" lon="17.7699">
        <ele>10.299467</ele>
        <time>2020-08-27T20:49:58.196Z</time>
      </trkpt>
      <trkpt lat="68.9055" lon="17.77431">
        <ele>11.759439</ele>
        <time>2020-08-27T20:50:36.113Z</time>
      </trkpt>
      <trkpt lat="68.90531" lon="17.77577">
        <ele>11.951739</ele>
        <time>2020-08-27T20:50:45.787Z</time>
      </trkpt>
      <trkpt lat="68.90525" lon="17.77617">
        <ele>12.005964</ele>
        <time>2020-08-27T20:50:50.004Z</time>
      </trkpt>
      <trkpt lat="68.9052" lon="17.7764">
        <ele>12.039781</ele>
        <time>2020-08-27T20:50:51.303Z</time>
      </trkpt>
      <trkpt lat="68.90489" lon="17.77711">
        <ele>12.177257</ele>
        <time>2020-08-27T20:50:58.112Z</time>
      </trkpt>
      <trkpt lat="68.90339" lon="17.77929">
        <ele>11.452784</ele>
        <time>2020-08-27T20:51:25.622Z</time>
      </trkpt>
      <trkpt lat="68.90275" lon="17.78045">
        <ele>11.757543</ele>
        <time>2020-08-27T20:51:39.933Z</time>
      </trkpt>
      <trkpt lat="68.90238" lon="17.78155">
        <ele>12.04818</ele>
        <time>2020-08-27T20:51:52.183Z</time>
      </trkpt>
      <trkpt lat="68.90129" lon="17.78561">
        <ele>11.698624</ele>
        <time>2020-08-27T20:52:26.670Z</time>
      </trkpt>
      <trkpt lat="68.90119" lon="17.78596">
        <ele>11.610666</ele>
        <time>2020-08-27T20:52:29.070Z</time>
      </trkpt>
      <trkpt lat="68.90104" lon="17.78646">
        <ele>11.481236</ele>
        <time>2020-08-27T20:52:32.357Z</time>
      </trkpt>
      <trkpt lat="68.90082" lon="17.78713">
        <ele>11.098647</ele>
        <time>2020-08-27T20:52:36.788Z</time>
      </trkpt>
      <trkpt lat="68.90071" lon="17.78748">
        <ele>10.754906</ele>
        <time>2020-08-27T20:52:39.088Z</time>
      </trkpt>
      <trkpt lat="68.90044" lon="17.7883">
        <ele>9.959807</ele>
        <time>2020-08-27T20:52:44.166Z</time>
      </trkpt>
      <trkpt lat="68.89988" lon="17.78998">
        <ele>8.304686</ele>
        <time>2020-08-27T20:52:55.569Z</time>
      </trkpt>
      <trkpt lat="68.89949" lon="17.79114">
        <ele>8.172578</ele>
        <time>2020-08-27T20:53:05.407Z</time>
      </trkpt>
      <trkpt lat="68.89929" lon="17.79175">
        <ele>8.556549</ele>
        <time>2020-08-27T20:53:12.045Z</time>
      </trkpt>
      <trkpt lat="68.89905" lon="17.7924">
        <ele>8.97892</ele>
        <time>2020-08-27T20:53:19.596Z</time>
      </trkpt>
      <trkpt lat="68.89856" lon="17.79351">
        <ele>9.783375</ele>
        <time>2020-08-27T20:53:34.624Z</time>
      </trkpt>
      <trkpt lat="68.89802" lon="17.79423">
        <ele>10.587249</ele>
        <time>2020-08-27T20:53:50.551Z</time>
      </trkpt>
      <trkpt lat="68.89771" lon="17.79452">
        <ele>11.046456</ele>
        <time>2020-08-27T20:53:58.469Z</time>
      </trkpt>
      <trkpt lat="68.89756" lon="17.79463">
        <ele>11.261942</ele>
        <time>2020-08-27T20:54:01.676Z</time>
      </trkpt>
      <trkpt lat="68.89723" lon="17.79482">
        <ele>11.72237</ele>
        <time>2020-08-27T20:54:08.830Z</time>
      </trkpt>
      <trkpt lat="68.89678" lon="17.79497">
        <ele>12.364686</ele>
        <time>2020-08-27T20:54:18.337Z</time>
      </trkpt>
      <trkpt lat="68.89669" lon="17.79496">
        <ele>12.481738</ele>
        <time>2020-08-27T20:54:20.301Z</time>
      </trkpt>
      <trkpt lat="68.89658" lon="17.7949">
        <ele>12.542739</ele>
        <time>2020-08-27T20:54:22.256Z</time>
      </trkpt>
      <trkpt lat="68.89595" lon="17.79402">
        <ele>12.114207</ele>
        <time>2020-08-27T20:54:35.305Z</time>
      </trkpt>
      <trkpt lat="68.8957" lon="17.79385">
        <ele>11.958802</ele>
        <time>2020-08-27T20:54:39.570Z</time>
      </trkpt>
      <trkpt lat="68.89529" lon="17.794">
        <ele>11.707586</ele>
        <time>2020-08-27T20:54:45.991Z</time>
      </trkpt>
      <trkpt lat="68.89482" lon="17.79466">
        <ele>11.12824</ele>
        <time>2020-08-27T20:54:53.467Z</time>
      </trkpt>
      <trkpt lat="68.89467" lon="17.79496">
        <ele>10.704322</ele>
        <time>2020-08-27T20:54:56.162Z</time>
      </trkpt>
      <trkpt lat="68.89449" lon="17.79532">
        <ele>10.20496</ele>
        <time>2020-08-27T20:54:59.118Z</time>
      </trkpt>
      <trkpt lat="68.89416" lon="17.7961">
        <ele>9.236438</ele>
        <time>2020-08-27T20:55:04.929Z</time>
      </trkpt>
      <trkpt lat="68.89401" lon="17.79655">
        <ele>8.727918</ele>
        <time>2020-08-27T20:55:07.844Z</time>
      </trkpt>
      <trkpt lat="68.89306" lon="17.79961">
        <ele>6.840748</ele>
        <time>2020-08-27T20:55:28.529Z</time>
      </trkpt>
      <trkpt lat="68.89309" lon="17.79972">
        <ele>6.808143</ele>
        <time>2020-08-27T20:55:30.147Z</time>
      </trkpt>
      <trkpt lat="68.89269" lon="17.801">
        <ele>6.40855</ele>
        <time>2020-08-27T20:55:44.927Z</time>
      </trkpt>
      <trkpt lat="68.89256" lon="17.80147">
        <ele>6.26894</ele>
        <time>2020-08-27T20:55:50.367Z</time>
      </trkpt>
      <trkpt lat="68.89233" lon="17.80192">
        <ele>6.452474</ele>
        <time>2020-08-27T20:55:57.841Z</time>
      </trkpt>
      <trkpt lat="68.8922" lon="17.80209">
        <ele>6.587802</ele>
        <time>2020-08-27T20:56:01.053Z</time>
      </trkpt>
      <trkpt lat="68.89214" lon="17.80213">
        <ele>6.651246</ele>
        <time>2020-08-27T20:56:02.863Z</time>
      </trkpt>
      <trkpt lat="68.89209" lon="17.80215">
        <ele>6.702844</ele>
        <time>2020-08-27T20:56:04.225Z</time>
      </trkpt>
      <trkpt lat="68.89075" lon="17.80302">
        <ele>8.029629</ele>
        <time>2020-08-27T20:56:42.215Z</time>
      </trkpt>
      <trkpt lat="68.89042" lon="17.80342">
        <ele>8.353585</ele>
        <time>2020-08-27T20:56:50.266Z</time>
      </trkpt>
      <trkpt lat="68.89028" lon="17.80359">
        <ele>8.495886</ele>
        <time>2020-08-27T20:56:53.508Z</time>
      </trkpt>
      <trkpt lat="68.89" lon="17.80392">
        <ele>8.764778</ele>
        <time>2020-08-27T20:57:00.383Z</time>
      </trkpt>
      <trkpt lat="68.88994" lon="17.8042">
        <ele>8.873766</ele>
        <time>2020-08-27T20:57:04.524Z</time>
      </trkpt>
      <trkpt lat="68.88988" lon="17.80434">
        <ele>8.944704</ele>
        <time>2020-08-27T20:57:07.502Z</time>
      </trkpt>
      <trkpt lat="68.88984" lon="17.80439">
        <ele>8.987908</ele>
        <time>2020-08-27T20:57:08.919Z</time>
      </trkpt>
      <trkpt lat="68.88973" lon="17.80446">
        <ele>9.089881</ele>
        <time>2020-08-27T20:57:11.896Z</time>
      </trkpt>
      <trkpt lat="68.88963" lon="17.80439">
        <ele>9.183408</ele>
        <time>2020-08-27T20:57:15.664Z</time>
      </trkpt>
      <trkpt lat="68.88932" lon="17.80477">
        <ele>9.48758</ele>
        <time>2020-08-27T20:57:27.135Z</time>
      </trkpt>
      <trkpt lat="68.8892" lon="17.80494">
        <ele>9.608969</ele>
        <time>2020-08-27T20:57:31.653Z</time>
      </trkpt>
      <trkpt lat="68.88885" lon="17.80594">
        <ele>11.140498</ele>
        <time>2020-08-27T20:57:47.541Z</time>
      </trkpt>
      <trkpt lat="68.88839" lon="17.80842">
        <ele>14.201764</ele>
        <time>2020-08-27T20:58:22.608Z</time>
      </trkpt>
      <trkpt lat="68.88827" lon="17.809">
        <ele>14.927095</ele>
        <time>2020-08-27T20:58:31.456Z</time>
      </trkpt>
      <trkpt lat="68.88768" lon="17.81103">
        <ele>15.748237</ele>
        <time>2020-08-27T20:59:00.596Z</time>
      </trkpt>
      <trkpt lat="68.88737" lon="17.81182">
        <ele>16.06669</ele>
        <time>2020-08-27T20:59:11.044Z</time>
      </trkpt>
      <trkpt lat="68.88659" lon="17.8132">
        <ele>15.297461</ele>
        <time>2020-08-27T20:59:28.852Z</time>
      </trkpt>
      <trkpt lat="68.88572" lon="17.81521">
        <ele>12.379609</ele>
        <time>2020-08-27T20:59:49.384Z</time>
      </trkpt>
      <trkpt lat="68.88489" lon="17.81779">
        <ele>10.206113</ele>
        <time>2020-08-27T21:00:12.999Z</time>
      </trkpt>
      <trkpt lat="68.88446" lon="17.81997">
        <ele>8.992936</ele>
        <time>2020-08-27T21:00:32.455Z</time>
      </trkpt>
      <trkpt lat="68.88431" lon="17.82046">
        <ele>9.011384</ele>
        <time>2020-08-27T21:00:37.896Z</time>
      </trkpt>
      <trkpt lat="68.88414" lon="17.82086">
        <ele>9.02868</ele>
        <time>2020-08-27T21:00:43.052Z</time>
      </trkpt>
      <trkpt lat="68.88346" lon="17.82186">
        <ele>9.088969</ele>
        <time>2020-08-27T21:01:03.070Z</time>
      </trkpt>
      <trkpt lat="68.88294" lon="17.82245">
        <ele>9.065829</ele>
        <time>2020-08-27T21:01:15.779Z</time>
      </trkpt>
      <trkpt lat="68.8827" lon="17.82258">
        <ele>8.934853</ele>
        <time>2020-08-27T21:01:21.502Z</time>
      </trkpt>
      <trkpt lat="68.88245" lon="17.82267">
        <ele>8.792236</ele>
        <time>2020-08-27T21:01:26.927Z</time>
      </trkpt>
      <trkpt lat="68.88235" lon="17.82265">
        <ele>8.739238</ele>
        <time>2020-08-27T21:01:28.898Z</time>
      </trkpt>
      <trkpt lat="68.88224" lon="17.82263">
        <ele>8.676768</ele>
        <time>2020-08-27T21:01:30.653Z</time>
      </trkpt>
      <trkpt lat="68.88196" lon="17.82256">
        <ele>8.520851</ele>
        <time>2020-08-27T21:01:35.807Z</time>
      </trkpt>
      <trkpt lat="68.88193" lon="17.82245">
        <ele>8.492816</ele>
        <time>2020-08-27T21:01:36.670Z</time>
      </trkpt>
      <trkpt lat="68.88192" lon="17.8224">
        <ele>8.482754</ele>
        <time>2020-08-27T21:01:36.888Z</time>
      </trkpt>
      <trkpt lat="68.88182" lon="17.82236">
        <ele>8.425398</ele>
        <time>2020-08-27T21:01:39.001Z</time>
      </trkpt>
      <trkpt lat="68.88129" lon="17.8223">
        <ele>8.131683</ele>
        <time>2020-08-27T21:01:50.940Z</time>
      </trkpt>
      <trkpt lat="68.88106" lon="17.82248">
        <ele>8.012232</ele>
        <time>2020-08-27T21:01:55.705Z</time>
      </trkpt>
      <trkpt lat="68.88072" lon="17.82281">
        <ele>7.824937</ele>
        <time>2020-08-27T21:02:03.098Z</time>
      </trkpt>
      <trkpt lat="68.88019" lon="17.82356">
        <ele>7.524838</ele>
        <time>2020-08-27T21:02:15.809Z</time>
      </trkpt>
      <trkpt lat="68.87986" lon="17.82416">
        <ele>7.322174</ele>
        <time>2020-08-27T21:02:25.561Z</time>
      </trkpt>
      <trkpt lat="68.87955" lon="17.82477">
        <ele>7.178901</ele>
        <time>2020-08-27T21:02:34.993Z</time>
      </trkpt>
      <trkpt lat="68.87892" lon="17.82632">
        <ele>6.998235</ele>
        <time>2020-08-27T21:02:54.141Z</time>
      </trkpt>
      <trkpt lat="68.8787" lon="17.82687">
        <ele>6.933993</ele>
        <time>2020-08-27T21:03:01.225Z</time>
      </trkpt>
      <trkpt lat="68.87868" lon="17.82678">
        <ele>6.925775</ele>
        <time>2020-08-27T21:03:01.880Z</time>
      </trkpt>
      <trkpt lat="68.87839" lon="17.82749">
        <ele>6.844324</ele>
        <time>2020-08-27T21:03:08.057Z</time>
      </trkpt>
      <trkpt lat="68.87822" lon="17.82787">
        <ele>7.031655</ele>
        <time>2020-08-27T21:03:11.765Z</time>
      </trkpt>
      <trkpt lat="68.87814" lon="17.828">
        <ele>7.164776</ele>
        <time>2020-08-27T21:03:13.362Z</time>
      </trkpt>
      <trkpt lat="68.87792" lon="17.82832">
        <ele>7.499403</ele>
        <time>2020-08-27T21:03:17.679Z</time>
      </trkpt>
      <trkpt lat="68.87779" lon="17.82855">
        <ele>7.715634</ele>
        <time>2020-08-27T21:03:20.353Z</time>
      </trkpt>
      <trkpt lat="68.87753" lon="17.82911">
        <ele>8.162741</ele>
        <time>2020-08-27T21:03:27.074Z</time>
      </trkpt>
      <trkpt lat="68.87743" lon="17.82937">
        <ele>8.343365</ele>
        <time>2020-08-27T21:03:30.479Z</time>
      </trkpt>
      <trkpt lat="68.87733" lon="17.82967">
        <ele>8.543524</ele>
        <time>2020-08-27T21:03:33.680Z</time>
      </trkpt>
      <trkpt lat="68.87708" lon="17.83065">
        <ele>9.134313</ele>
        <time>2020-08-27T21:03:45.282Z</time>
      </trkpt>
      <trkpt lat="68.87702" lon="17.83089">
        <ele>9.278853</ele>
        <time>2020-08-27T21:03:48.480Z</time>
      </trkpt>
      <trkpt lat="68.87698" lon="17.83108">
        <ele>9.627986</ele>
        <time>2020-08-27T21:03:50.868Z</time>
      </trkpt>
      <trkpt lat="68.87667" lon="17.83231">
        <ele>11.900232</ele>
        <time>2020-08-27T21:04:08.122Z</time>
      </trkpt>
      <trkpt lat="68.87664" lon="17.83245">
        <ele>12.161473</ele>
        <time>2020-08-27T21:04:10.628Z</time>
      </trkpt>
      <trkpt lat="68.87662" lon="17.83257">
        <ele>12.371899</ele>
        <time>2020-08-27T21:04:12.063Z</time>
      </trkpt>
      <trkpt lat="68.87659" lon="17.83268">
        <ele>12.563151</ele>
        <time>2020-08-27T21:04:13.762Z</time>
      </trkpt>
      <trkpt lat="68.87653" lon="17.83306">
        <ele>13.196574</ele>
        <time>2020-08-27T21:04:19.149Z</time>
      </trkpt>
      <trkpt lat="68.87648" lon="17.83342">
        <ele>13.794736</ele>
        <time>2020-08-27T21:04:23.842Z</time>
      </trkpt>
      <trkpt lat="68.87644" lon="17.83374">
        <ele>14.320433</ele>
        <time>2020-08-27T21:04:28.422Z</time>
      </trkpt>
      <trkpt lat="68.87642" lon="17.83389">
        <ele>14.568577</ele>
        <time>2020-08-27T21:04:30.689Z</time>
      </trkpt>
      <trkpt lat="68.87622" lon="17.83544">
        <ele>17.038489</ele>
        <time>2020-08-27T21:04:48.118Z</time>
      </trkpt>
      <trkpt lat="68.8762" lon="17.83558">
        <ele>17.200526</ele>
        <time>2020-08-27T21:04:50.030Z</time>
      </trkpt>
      <trkpt lat="68.876" lon="17.83654">
        <ele>18.463681</ele>
        <time>2020-08-27T21:05:00.453Z</time>
      </trkpt>
      <trkpt lat="68.87591" lon="17.83679">
        <ele>18.864078</ele>
        <time>2020-08-27T21:05:03.687Z</time>
      </trkpt>
      <trkpt lat="68.87586" lon="17.83691">
        <ele>19.070314</ele>
        <time>2020-08-27T21:05:04.653Z</time>
      </trkpt>
      <trkpt lat="68.87565" lon="17.83732">
        <ele>19.886671</ele>
        <time>2020-08-27T21:05:12.318Z</time>
      </trkpt>
      <trkpt lat="68.8756" lon="17.8374">
        <ele>20.070316</ele>
        <time>2020-08-27T21:05:13.132Z</time>
      </trkpt>
      <trkpt lat="68.87553" lon="17.8375">
        <ele>20.323469</ele>
        <time>2020-08-27T21:05:14.961Z</time>
      </trkpt>
      <trkpt lat="68.87532" lon="17.8377">
        <ele>20.998892</ele>
        <time>2020-08-27T21:05:21.156Z</time>
      </trkpt>
      <trkpt lat="68.87496" lon="17.83779">
        <ele>22.154052</ele>
        <time>2020-08-27T21:05:32.011Z</time>
      </trkpt>
      <trkpt lat="68.87488" lon="17.83783">
        <ele>22.410926</ele>
        <time>2020-08-27T21:05:34.069Z</time>
      </trkpt>
      <trkpt lat="68.87482" lon="17.83789">
        <ele>22.615044</ele>
        <time>2020-08-27T21:05:36.343Z</time>
      </trkpt>
      <trkpt lat="68.87466" lon="17.83838">
        <ele>23.797554</ele>
        <time>2020-08-27T21:05:43.737Z</time>
      </trkpt>
      <trkpt lat="68.87465" lon="17.83847">
        <ele>23.963955</ele>
        <time>2020-08-27T21:05:44.863Z</time>
      </trkpt>
      <trkpt lat="68.87463" lon="17.8387">
        <ele>24.398274</ele>
        <time>2020-08-27T21:05:47.743Z</time>
      </trkpt>
      <trkpt lat="68.87463" lon="17.83945">
        <ele>25.7296</ele>
        <time>2020-08-27T21:05:56.611Z</time>
      </trkpt>
      <trkpt lat="68.87467" lon="17.84034">
        <ele>27.330512</ele>
        <time>2020-08-27T21:06:07.304Z</time>
      </trkpt>
      <trkpt lat="68.87468" lon="17.84043">
        <ele>27.497335</ele>
        <time>2020-08-27T21:06:08.787Z</time>
      </trkpt>
      <trkpt lat="68.8747" lon="17.84097">
        <ele>28.464679</ele>
        <time>2020-08-27T21:06:15.886Z</time>
      </trkpt>
      <trkpt lat="68.87471" lon="17.84145">
        <ele>29.319013</ele>
        <time>2020-08-27T21:06:21.982Z</time>
      </trkpt>
      <trkpt lat="68.8747" lon="17.84192">
        <ele>30.15591</ele>
        <time>2020-08-27T21:06:28.265Z</time>
      </trkpt>
      <trkpt lat="68.87464" lon="17.84292">
        <ele>31.66119</ele>
        <time>2020-08-27T21:06:41.894Z</time>
      </trkpt>
      <trkpt lat="68.87459" lon="17.8433">
        <ele>31.924434</ele>
        <time>2020-08-27T21:06:46.942Z</time>
      </trkpt>
      <trkpt lat="68.87454" lon="17.8436">
        <ele>32.144977</ele>
        <time>2020-08-27T21:06:50.983Z</time>
      </trkpt>
      <trkpt lat="68.87437" lon="17.84432">
        <ele>32.70419</ele>
        <time>2020-08-27T21:07:00.167Z</time>
      </trkpt>
      <trkpt lat="68.87429" lon="17.84459">
        <ele>32.936113</ele>
        <time>2020-08-27T21:07:03.691Z</time>
      </trkpt>
      <trkpt lat="68.87398" lon="17.84546">
        <ele>33.736493</ele>
        <time>2020-08-27T21:07:13.020Z</time>
      </trkpt>
      <trkpt lat="68.8739" lon="17.84576">
        <ele>33.987021</ele>
        <time>2020-08-27T21:07:14.951Z</time>
      </trkpt>
      <trkpt lat="68.87382" lon="17.84606">
        <ele>34.22588</ele>
        <time>2020-08-27T21:07:16.996Z</time>
      </trkpt>
      <trkpt lat="68.8737" lon="17.84675">
        <ele>34.730315</ele>
        <time>2020-08-27T21:07:21.044Z</time>
      </trkpt>
      <trkpt lat="68.87368" lon="17.84692">
        <ele>34.740594</ele>
        <time>2020-08-27T21:07:22.106Z</time>
      </trkpt>
      <trkpt lat="68.87366" lon="17.8471">
        <ele>34.71782</ele>
        <time>2020-08-27T21:07:23.231Z</time>
      </trkpt>
      <trkpt lat="68.87361" lon="17.84707">
        <ele>34.701503</ele>
        <time>2020-08-27T21:07:23.929Z</time>
      </trkpt>
      <trkpt lat="68.87355" lon="17.84702">
        <ele>34.6802</ele>
        <time>2020-08-27T21:07:24.822Z</time>
      </trkpt>
      <trkpt lat="68.87346" lon="17.84701">
        <ele>34.652212</ele>
        <time>2020-08-27T21:07:25.948Z</time>
      </trkpt>
      <trkpt lat="68.8733" lon="17.84738">
        <ele>34.58213</ele>
        <time>2020-08-27T21:07:29.972Z</time>
      </trkpt>
      <trkpt lat="68.87322" lon="17.84775">
        <ele>34.530686</ele>
        <time>2020-08-27T21:07:32.129Z</time>
      </trkpt>
      <trkpt lat="68.8731" lon="17.84834">
        <ele>34.451197</ele>
        <time>2020-08-27T21:07:36.985Z</time>
      </trkpt>
      <trkpt lat="68.87298" lon="17.84893">
        <ele>34.370664</ele>
        <time>2020-08-27T21:07:41.677Z</time>
      </trkpt>
      <trkpt lat="68.87277" lon="17.84966">
        <ele>34.260204</ele>
        <time>2020-08-27T21:07:47.674Z</time>
      </trkpt>
      <trkpt lat="68.87255" lon="17.84975">
        <ele>34.186539</ele>
        <time>2020-08-27T21:07:51.598Z</time>
      </trkpt>
      <trkpt lat="68.87247" lon="17.84965">
        <ele>34.205188</ele>
        <time>2020-08-27T21:07:52.991Z</time>
      </trkpt>
      <trkpt lat="68.87243" lon="17.84979">
        <ele>34.31208</ele>
        <time>2020-08-27T21:07:55.384Z</time>
      </trkpt>
      <trkpt lat="68.87149" lon="17.85251">
        <ele>36.589891</ele>
        <time>2020-08-27T21:08:29.192Z</time>
      </trkpt>
      <trkpt lat="68.87126" lon="17.853">
        <ele>37.071434</ele>
        <time>2020-08-27T21:08:37.231Z</time>
      </trkpt>
      <trkpt lat="68.87103" lon="17.85316">
        <ele>36.908736</ele>
        <time>2020-08-27T21:08:42.864Z</time>
      </trkpt>
      <trkpt lat="68.87076" lon="17.85289">
        <ele>36.472581</ele>
        <time>2020-08-27T21:08:49.290Z</time>
      </trkpt>
      <trkpt lat="68.87066" lon="17.85285">
        <ele>36.319115</ele>
        <time>2020-08-27T21:08:50.988Z</time>
      </trkpt>
      <trkpt lat="68.87063" lon="17.85286">
        <ele>36.267451</ele>
        <time>2020-08-27T21:08:51.922Z</time>
      </trkpt>
      <trkpt lat="68.87052" lon="17.85349">
        <ele>35.880277</ele>
        <time>2020-08-27T21:08:57.090Z</time>
      </trkpt>
      <trkpt lat="68.87031" lon="17.85351">
        <ele>35.54632</ele>
        <time>2020-08-27T21:09:01.610Z</time>
      </trkpt>
      <trkpt lat="68.87029" lon="17.85359">
        <ele>35.497293</ele>
        <time>2020-08-27T21:09:02.335Z</time>
      </trkpt>
      <trkpt lat="68.86947" lon="17.8529">
        <ele>33.357616</ele>
        <time>2020-08-27T21:09:13.288Z</time>
      </trkpt>
      <trkpt lat="68.8693" lon="17.85277">
        <ele>32.107045</ele>
        <time>2020-08-27T21:09:15.339Z</time>
      </trkpt>
      <trkpt lat="68.86916" lon="17.85268">
        <ele>31.112165</ele>
        <time>2020-08-27T21:09:16.927Z</time>
      </trkpt>
      <trkpt lat="68.86875" lon="17.85261">
        <ele>28.203312</ele>
        <time>2020-08-27T21:09:21.669Z</time>
      </trkpt>
      <trkpt lat="68.86865" lon="17.85261">
        <ele>27.484551</ele>
        <time>2020-08-27T21:09:22.811Z</time>
      </trkpt>
      <trkpt lat="68.86854" lon="17.85264">
        <ele>26.679047</ele>
        <time>2020-08-27T21:09:24.073Z</time>
      </trkpt>
      <trkpt lat="68.86842" lon="17.85267">
        <ele>25.864482</ele>
        <time>2020-08-27T21:09:25.390Z</time>
      </trkpt>
      <trkpt lat="68.86824" lon="17.85275">
        <ele>24.54646</ele>
        <time>2020-08-27T21:09:27.506Z</time>
      </trkpt>
      <trkpt lat="68.86797" lon="17.85288">
        <ele>22.634749</ele>
        <time>2020-08-27T21:09:30.543Z</time>
      </trkpt>
      <trkpt lat="68.8679" lon="17.85293">
        <ele>22.121621</ele>
        <time>2020-08-27T21:09:31.356Z</time>
      </trkpt>
      <trkpt lat="68.86785" lon="17.85297">
        <ele>21.748892</ele>
        <time>2020-08-27T21:09:31.937Z</time>
      </trkpt>
      <trkpt lat="68.86779" lon="17.85302">
        <ele>21.363186</ele>
        <time>2020-08-27T21:09:32.592Z</time>
      </trkpt>
      <trkpt lat="68.86752" lon="17.85338">
        <ele>19.527287</ele>
        <time>2020-08-27T21:09:36.000Z</time>
      </trkpt>
      <trkpt lat="68.86728" lon="17.8539">
        <ele>17.621539</ele>
        <time>2020-08-27T21:09:39.490Z</time>
      </trkpt>
      <trkpt lat="68.86705" lon="17.85454">
        <ele>15.587974</ele>
        <time>2020-08-27T21:09:43.275Z</time>
      </trkpt>
      <trkpt lat="68.86676" lon="17.85564">
        <ele>12.537599</ele>
        <time>2020-08-27T21:09:48.971Z</time>
      </trkpt>
      <trkpt lat="68.86603" lon="17.86026">
        <ele>7.684319</ele>
        <time>2020-08-27T21:10:13.029Z</time>
      </trkpt>
      <trkpt lat="68.86598" lon="17.86197">
        <ele>7.957009</ele>
        <time>2020-08-27T21:10:29.460Z</time>
      </trkpt>
      <trkpt lat="68.86598" lon="17.86258">
        <ele>8.539387</ele>
        <time>2020-08-27T21:10:36.723Z</time>
      </trkpt>
      <trkpt lat="68.86597" lon="17.86281">
        <ele>8.758932</ele>
        <time>2020-08-27T21:10:38.402Z</time>
      </trkpt>
      <trkpt lat="68.86595" lon="17.86307">
        <ele>9.019962</ele>
        <time>2020-08-27T21:10:40.273Z</time>
      </trkpt>
      <trkpt lat="68.86594" lon="17.86312">
        <ele>9.071998</ele>
        <time>2020-08-27T21:10:40.992Z</time>
      </trkpt>
      <trkpt lat="68.8659" lon="17.86337">
        <ele>9.323399</ele>
        <time>2020-08-27T21:10:45.490Z</time>
      </trkpt>
      <trkpt lat="68.8657" lon="17.86402">
        <ele>10.140982</ele>
        <time>2020-08-27T21:10:52.339Z</time>
      </trkpt>
      <trkpt lat="68.86567" lon="17.86407">
        <ele>10.231751</ele>
        <time>2020-08-27T21:10:54.921Z</time>
      </trkpt>
      <trkpt lat="68.86557" lon="17.86423">
        <ele>10.54752</ele>
        <time>2020-08-27T21:10:57.597Z</time>
      </trkpt>
      <trkpt lat="68.8655" lon="17.86431">
        <ele>10.745204</ele>
        <time>2020-08-27T21:10:58.814Z</time>
      </trkpt>
      <trkpt lat="68.86542" lon="17.86436">
        <ele>10.953315</ele>
        <time>2020-08-27T21:11:00.802Z</time>
      </trkpt>
      <trkpt lat="68.86531" lon="17.86438">
        <ele>11.265704</ele>
        <time>2020-08-27T21:11:05.782Z</time>
      </trkpt>
      <trkpt lat="68.86499" lon="17.86415">
        <ele>11.835644</ele>
        <time>2020-08-27T21:11:14.938Z</time>
      </trkpt>
      <trkpt lat="68.8648" lon="17.86374">
        <ele>11.752036</ele>
        <time>2020-08-27T21:11:19.321Z</time>
      </trkpt>
      <trkpt lat="68.86437" lon="17.8621">
        <ele>11.49456</ele>
        <time>2020-08-27T21:11:34.623Z</time>
      </trkpt>
      <trkpt lat="68.86422" lon="17.86095">
        <ele>11.337604</ele>
        <time>2020-08-27T21:11:40.484Z</time>
      </trkpt>
      <trkpt lat="68.86417" lon="17.86005">
        <ele>11.176488</ele>
        <time>2020-08-27T21:11:44.754Z</time>
      </trkpt>
      <trkpt lat="68.8642" lon="17.85912">
        <ele>10.678395</ele>
        <time>2020-08-27T21:11:49.225Z</time>
      </trkpt>
      <trkpt lat="68.86427" lon="17.8582">
        <ele>10.178213</ele>
        <time>2020-08-27T21:11:53.939Z</time>
      </trkpt>
      <trkpt lat="68.86453" lon="17.85631">
        <ele>9.1009</ele>
        <time>2020-08-27T21:12:04.853Z</time>
      </trkpt>
      <trkpt lat="68.86465" lon="17.85522">
        <ele>8.651191</ele>
        <time>2020-08-27T21:12:11.933Z</time>
      </trkpt>
      <trkpt lat="68.86472" lon="17.85451">
        <ele>8.992735</ele>
        <time>2020-08-27T21:12:17.153Z</time>
      </trkpt>
      <trkpt lat="68.86493" lon="17.85099">
        <ele>10.651383</ele>
        <time>2020-08-27T21:12:46.552Z</time>
      </trkpt>
      <trkpt lat="68.86517" lon="17.84423">
        <ele>15.640384</ele>
        <time>2020-08-27T21:13:47.179Z</time>
      </trkpt>
      <trkpt lat="68.86518" lon="17.84281">
        <ele>16.686454</ele>
        <time>2020-08-27T21:13:59.934Z</time>
      </trkpt>
      <trkpt lat="68.86506" lon="17.8395">
        <ele>19.029147</ele>
        <time>2020-08-27T21:14:28.785Z</time>
      </trkpt>
      <trkpt lat="68.86461" lon="17.83501">
        <ele>21.898121</ele>
        <time>2020-08-27T21:15:08.232Z</time>
      </trkpt>
      <trkpt lat="68.86453" lon="17.83424">
        <ele>22.293259</ele>
        <time>2020-08-27T21:15:14.750Z</time>
      </trkpt>
      <trkpt lat="68.86446" lon="17.83377">
        <ele>22.545875</ele>
        <time>2020-08-27T21:15:19.316Z</time>
      </trkpt>
      <trkpt lat="68.86407" lon="17.83198">
        <ele>23.568975</ele>
        <time>2020-08-27T21:15:35.359Z</time>
      </trkpt>
      <trkpt lat="68.86391" lon="17.8306">
        <ele>24.342296</ele>
        <time>2020-08-27T21:15:46.139Z</time>
      </trkpt>
      <trkpt lat="68.86373" lon="17.82803">
        <ele>25.916162</ele>
        <time>2020-08-27T21:16:07.316Z</time>
      </trkpt>
      <trkpt lat="68.86363" lon="17.82665">
        <ele>26.757772</ele>
        <time>2020-08-27T21:16:19.455Z</time>
      </trkpt>
      <trkpt lat="68.8635" lon="17.82488">
        <ele>28.933904</ele>
        <time>2020-08-27T21:16:36.835Z</time>
      </trkpt>
      <trkpt lat="68.86331" lon="17.82335">
        <ele>31.158213</ele>
        <time>2020-08-27T21:16:54.416Z</time>
      </trkpt>
      <trkpt lat="68.86306" lon="17.8224">
        <ele>32.771519</ele>
        <time>2020-08-27T21:17:09.059Z</time>
      </trkpt>
      <trkpt lat="68.8626" lon="17.82131">
        <ele>34.966706</ele>
        <time>2020-08-27T21:17:28.998Z</time>
      </trkpt>
      <trkpt lat="68.86207" lon="17.82054">
        <ele>37.07663</ele>
        <time>2020-08-27T21:17:47.037Z</time>
      </trkpt>
      <trkpt lat="68.86188" lon="17.82035">
        <ele>37.791951</ele>
        <time>2020-08-27T21:17:53.376Z</time>
      </trkpt>
      <trkpt lat="68.86177" lon="17.82023">
        <ele>38.227504</ele>
        <time>2020-08-27T21:17:56.436Z</time>
      </trkpt>
      <trkpt lat="68.86148" lon="17.81994">
        <ele>39.319487</ele>
        <time>2020-08-27T21:18:04.886Z</time>
      </trkpt>
      <trkpt lat="68.8613" lon="17.81972">
        <ele>40.009852</ele>
        <time>2020-08-27T21:18:09.764Z</time>
      </trkpt>
      <trkpt lat="68.86061" lon="17.81843">
        <ele>41.004803</ele>
        <time>2020-08-27T21:18:29.133Z</time>
      </trkpt>
      <trkpt lat="68.86038" lon="17.81813">
        <ele>41.272617</ele>
        <time>2020-08-27T21:18:33.628Z</time>
      </trkpt>
      <trkpt lat="68.86004" lon="17.81789">
        <ele>41.651274</ele>
        <time>2020-08-27T21:18:39.990Z</time>
      </trkpt>
      <trkpt lat="68.85952" lon="17.81791">
        <ele>42.318587</ele>
        <time>2020-08-27T21:18:49.946Z</time>
      </trkpt>
      <trkpt lat="68.8585" lon="17.81837">
        <ele>44.519201</ele>
        <time>2020-08-27T21:19:13.359Z</time>
      </trkpt>
      <trkpt lat="68.85792" lon="17.81882">
        <ele>45.811548</ele>
        <time>2020-08-27T21:19:29.691Z</time>
      </trkpt>
      <trkpt lat="68.85752" lon="17.81954">
        <ele>48.296555</ele>
        <time>2020-08-27T21:19:45.466Z</time>
      </trkpt>
      <trkpt lat="68.85719" lon="17.82072">
        <ele>51.289756</ele>
        <time>2020-08-27T21:20:04.547Z</time>
      </trkpt>
      <trkpt lat="68.85705" lon="17.82184">
        <ele>53.675477</ele>
        <time>2020-08-27T21:20:20.902Z</time>
      </trkpt>
      <trkpt lat="68.85699" lon="17.8229">
        <ele>55.846093</ele>
        <time>2020-08-27T21:20:36.102Z</time>
      </trkpt>
      <trkpt lat="68.85696" lon="17.82336">
        <ele>56.974344</ele>
        <time>2020-08-27T21:20:42.764Z</time>
      </trkpt>
      <trkpt lat="68.85688" lon="17.824">
        <ele>58.617775</ele>
        <time>2020-08-27T21:20:52.248Z</time>
      </trkpt>
      <trkpt lat="68.85683" lon="17.82427">
        <ele>59.369676</ele>
        <time>2020-08-27T21:20:56.764Z</time>
      </trkpt>
      <trkpt lat="68.85674" lon="17.8247">
        <ele>60.560558</ele>
        <time>2020-08-27T21:21:03.886Z</time>
      </trkpt>
      <trkpt lat="68.85617" lon="17.82684">
        <ele>67.070521</ele>
        <time>2020-08-27T21:21:42.290Z</time>
      </trkpt>
      <trkpt lat="68.85558" lon="17.82866">
        <ele>73.120149</ele>
        <time>2020-08-27T21:22:16.350Z</time>
      </trkpt>
      <trkpt lat="68.85515" lon="17.82966">
        <ele>76.998559</ele>
        <time>2020-08-27T21:22:39.340Z</time>
      </trkpt>
      <trkpt lat="68.85462" lon="17.83045">
        <ele>81.148532</ele>
        <time>2020-08-27T21:23:03.177Z</time>
      </trkpt>
      <trkpt lat="68.85452" lon="17.83062">
        <ele>81.967443</ele>
        <time>2020-08-27T21:23:07.886Z</time>
      </trkpt>
      <trkpt lat="68.85445" lon="17.83076">
        <ele>82.597107</ele>
        <time>2020-08-27T21:23:10.771Z</time>
      </trkpt>
      <trkpt lat="68.85437" lon="17.83092">
        <ele>83.259614</ele>
        <time>2020-08-27T21:23:15.740Z</time>
      </trkpt>
      <trkpt lat="68.85336" lon="17.83363">
        <ele>93.347255</ele>
        <time>2020-08-27T21:24:14.327Z</time>
      </trkpt>
      <trkpt lat="68.85332" lon="17.83372">
        <ele>93.622988</ele>
        <time>2020-08-27T21:24:17.759Z</time>
      </trkpt>
      <trkpt lat="68.85316" lon="17.83407">
        <ele>94.54935</ele>
        <time>2020-08-27T21:24:24.305Z</time>
      </trkpt>
      <trkpt lat="68.85237" lon="17.83548">
        <ele>98.835714</ele>
        <time>2020-08-27T21:24:55.756Z</time>
      </trkpt>
      <trkpt lat="68.8516" lon="17.83642">
        <ele>102.1378</ele>
        <time>2020-08-27T21:25:19.080Z</time>
      </trkpt>
      <trkpt lat="68.85111" lon="17.83676">
        <ele>103.249215</ele>
        <time>2020-08-27T21:25:30.898Z</time>
      </trkpt>
      <trkpt lat="68.85026" lon="17.83678">
        <ele>105.129857</ele>
        <time>2020-08-27T21:25:50.963Z</time>
      </trkpt>
      <trkpt lat="68.84988" lon="17.837">
        <ele>106.147904</ele>
        <time>2020-08-27T21:26:00.486Z</time>
      </trkpt>
      <trkpt lat="68.84891" lon="17.83858">
        <ele>109.643674</ele>
        <time>2020-08-27T21:26:31.492Z</time>
      </trkpt>
      <trkpt lat="68.84806" lon="17.83917">
        <ele>112.541251</ele>
        <time>2020-08-27T21:26:58.223Z</time>
      </trkpt>
      <trkpt lat="68.8478" lon="17.83945">
        <ele>113.53163</ele>
        <time>2020-08-27T21:27:06.807Z</time>
      </trkpt>
      <trkpt lat="68.8471" lon="17.84081">
        <ele>116.568357</ele>
        <time>2020-08-27T21:27:32.443Z</time>
      </trkpt>
      <trkpt lat="68.84676" lon="17.84122">
        <ele>117.689223</ele>
        <time>2020-08-27T21:27:42.513Z</time>
      </trkpt>
      <trkpt lat="68.8463" lon="17.84136">
        <ele>118.294523</ele>
        <time>2020-08-27T21:27:54.112Z</time>
      </trkpt>
      <trkpt lat="68.84553" lon="17.841">
        <ele>119.312049</ele>
        <time>2020-08-27T21:28:10.869Z</time>
      </trkpt>
      <trkpt lat="68.84522" lon="17.84098">
        <ele>119.717765</ele>
        <time>2020-08-27T21:28:16.777Z</time>
      </trkpt>
      <trkpt lat="68.84418" lon="17.84143">
        <ele>119.681337</ele>
        <time>2020-08-27T21:28:34.592Z</time>
      </trkpt>
      <trkpt lat="68.84355" lon="17.84188">
        <ele>119.508439</ele>
        <time>2020-08-27T21:28:45.278Z</time>
      </trkpt>
      <trkpt lat="68.8433" lon="17.84225">
        <ele>119.445324</ele>
        <time>2020-08-27T21:28:49.978Z</time>
      </trkpt>
      <trkpt lat="68.84305" lon="17.84286">
        <ele>119.505807</ele>
        <time>2020-08-27T21:28:55.747Z</time>
      </trkpt>
      <trkpt lat="68.84244" lon="17.84505">
        <ele>119.684359</ele>
        <time>2020-08-27T21:29:13.845Z</time>
      </trkpt>
      <trkpt lat="68.84215" lon="17.8459">
        <ele>119.759455</ele>
        <time>2020-08-27T21:29:22.092Z</time>
      </trkpt>
      <trkpt lat="68.8417" lon="17.84672">
        <ele>120.851419</ele>
        <time>2020-08-27T21:29:33.713Z</time>
      </trkpt>
      <trkpt lat="68.84152" lon="17.8469">
        <ele>121.232973</ele>
        <time>2020-08-27T21:29:37.938Z</time>
      </trkpt>
      <trkpt lat="68.84138" lon="17.84701">
        <ele>121.542745</ele>
        <time>2020-08-27T21:29:41.382Z</time>
      </trkpt>
      <trkpt lat="68.84122" lon="17.84708">
        <ele>121.876644</ele>
        <time>2020-08-27T21:29:45.163Z</time>
      </trkpt>
      <trkpt lat="68.84109" lon="17.84711">
        <ele>122.157037</ele>
        <time>2020-08-27T21:29:48.902Z</time>
      </trkpt>
      <trkpt lat="68.84095" lon="17.84711">
        <ele>122.432269</ele>
        <time>2020-08-27T21:29:52.474Z</time>
      </trkpt>
      <trkpt lat="68.84078" lon="17.84707">
        <ele>122.787338</ele>
        <time>2020-08-27T21:29:56.816Z</time>
      </trkpt>
      <trkpt lat="68.84066" lon="17.84702">
        <ele>123.040848</ele>
        <time>2020-08-27T21:30:00.657Z</time>
      </trkpt>
      <trkpt lat="68.84018" lon="17.84669">
        <ele>124.665594</ele>
        <time>2020-08-27T21:30:14.685Z</time>
      </trkpt>
      <trkpt lat="68.83976" lon="17.84653">
        <ele>126.441835</ele>
        <time>2020-08-27T21:30:27.394Z</time>
      </trkpt>
      <trkpt lat="68.83965" lon="17.84654">
        <ele>126.872736</ele>
        <time>2020-08-27T21:30:31.134Z</time>
      </trkpt>
      <trkpt lat="68.83959" lon="17.84655">
        <ele>127.157202</ele>
        <time>2020-08-27T21:30:33.399Z</time>
      </trkpt>
      <trkpt lat="68.8394" lon="17.8466">
        <ele>127.939773</ele>
        <time>2020-08-27T21:30:38.798Z</time>
      </trkpt>
      <trkpt lat="68.83928" lon="17.84665">
        <ele>128.438524</ele>
        <time>2020-08-27T21:30:43.179Z</time>
      </trkpt>
      <trkpt lat="68.83647" lon="17.84801">
        <ele>141.334657</ele>
        <time>2020-08-27T21:32:15.993Z</time>
      </trkpt>
      <trkpt lat="68.83539" lon="17.84854">
        <ele>146.468232</ele>
        <time>2020-08-27T21:32:52.213Z</time>
      </trkpt>
      <trkpt lat="68.83492" lon="17.84886">
        <ele>148.722539</ele>
        <time>2020-08-27T21:33:08.331Z</time>
      </trkpt>
      <trkpt lat="68.83457" lon="17.84924">
        <ele>150.445691</ele>
        <time>2020-08-27T21:33:20.660Z</time>
      </trkpt>
      <trkpt lat="68.8331" lon="17.85173">
        <ele>158.256506</ele>
        <time>2020-08-27T21:34:17.131Z</time>
      </trkpt>
      <trkpt lat="68.83267" lon="17.85205">
        <ele>160.097828</ele>
        <time>2020-08-27T21:34:30.720Z</time>
      </trkpt>
      <trkpt lat="68.83234" lon="17.85204">
        <ele>161.51829</ele>
        <time>2020-08-27T21:34:40.940Z</time>
      </trkpt>
      <trkpt lat="68.83224" lon="17.85198">
        <ele>161.94611</ele>
        <time>2020-08-27T21:34:44.299Z</time>
      </trkpt>
      <trkpt lat="68.83213" lon="17.8519">
        <ele>162.400479</ele>
        <time>2020-08-27T21:34:47.613Z</time>
      </trkpt>
      <trkpt lat="68.8318" lon="17.8515">
        <ele>163.893861</ele>
        <time>2020-08-27T21:34:58.436Z</time>
      </trkpt>
      <trkpt lat="68.83095" lon="17.85002">
        <ele>167.732348</ele>
        <time>2020-08-27T21:35:28.659Z</time>
      </trkpt>
      <trkpt lat="68.83068" lon="17.84973">
        <ele>168.826871</ele>
        <time>2020-08-27T21:35:37.126Z</time>
      </trkpt>
      <trkpt lat="68.8304" lon="17.84959">
        <ele>169.916233</ele>
        <time>2020-08-27T21:35:45.583Z</time>
      </trkpt>
      <trkpt lat="68.83008" lon="17.84963">
        <ele>171.132575</ele>
        <time>2020-08-27T21:35:55.385Z</time>
      </trkpt>
      <trkpt lat="68.82984" lon="17.84981">
        <ele>172.060946</ele>
        <time>2020-08-27T21:36:03.089Z</time>
      </trkpt>
      <trkpt lat="68.82915" lon="17.85077">
        <ele>174.907116</ele>
        <time>2020-08-27T21:36:26.627Z</time>
      </trkpt>
      <trkpt lat="68.82882" lon="17.85109">
        <ele>176.190453</ele>
        <time>2020-08-27T21:36:36.859Z</time>
      </trkpt>
      <trkpt lat="68.82842" lon="17.8512">
        <ele>177.467516</ele>
        <time>2020-08-27T21:36:48.265Z</time>
      </trkpt>
      <trkpt lat="68.82796" lon="17.85104">
        <ele>178.548681</ele>
        <time>2020-08-27T21:37:00.790Z</time>
      </trkpt>
      <trkpt lat="68.8261" lon="17.84976">
        <ele>182.577553</ele>
        <time>2020-08-27T21:37:46.416Z</time>
      </trkpt>
      <trkpt lat="68.82566" lon="17.84916">
        <ele>183.426835</ele>
        <time>2020-08-27T21:37:57.254Z</time>
      </trkpt>
      <trkpt lat="68.8247" lon="17.84753">
        <ele>186.067335</ele>
        <time>2020-08-27T21:38:23.884Z</time>
      </trkpt>
      <trkpt lat="68.82443" lon="17.84731">
        <ele>186.92756</ele>
        <time>2020-08-27T21:38:31.406Z</time>
      </trkpt>
      <trkpt lat="68.82398" lon="17.84724">
        <ele>188.2865</ele>
        <time>2020-08-27T21:38:45.029Z</time>
      </trkpt>
      <trkpt lat="68.82388" lon="17.84727">
        <ele>188.580922</ele>
        <time>2020-08-27T21:38:47.920Z</time>
      </trkpt>
      <trkpt lat="68.82378" lon="17.84732">
        <ele>188.908487</ele>
        <time>2020-08-27T21:38:51.455Z</time>
      </trkpt>
      <trkpt lat="68.82341" lon="17.84767">
        <ele>190.104662</ele>
        <time>2020-08-27T21:39:02.888Z</time>
      </trkpt>
      <trkpt lat="68.82308" lon="17.84825">
        <ele>191.410801</ele>
        <time>2020-08-27T21:39:14.350Z</time>
      </trkpt>
      <trkpt lat="68.82302" lon="17.84839">
        <ele>191.681305</ele>
        <time>2020-08-27T21:39:17.021Z</time>
      </trkpt>
      <trkpt lat="68.82291" lon="17.84868">
        <ele>192.214363</ele>
        <time>2020-08-27T21:39:21.961Z</time>
      </trkpt>
      <trkpt lat="68.82232" lon="17.85025">
        <ele>194.961736</ele>
        <time>2020-08-27T21:39:45.231Z</time>
      </trkpt>
      <trkpt lat="68.82203" lon="17.85074">
        <ele>195.996754</ele>
        <time>2020-08-27T21:39:54.293Z</time>
      </trkpt>
      <trkpt lat="68.82175" lon="17.85103">
        <ele>196.374962</ele>
        <time>2020-08-27T21:40:02.331Z</time>
      </trkpt>
      <trkpt lat="68.82027" lon="17.85151">
        <ele>198.200332</ele>
        <time>2020-08-27T21:40:33.035Z</time>
      </trkpt>
      <trkpt lat="68.81896" lon="17.85176">
        <ele>198.236115</ele>
        <time>2020-08-27T21:40:56.941Z</time>
      </trkpt>
      <trkpt lat="68.81872" lon="17.85173">
        <ele>198.242523</ele>
        <time>2020-08-27T21:41:00.946Z</time>
      </trkpt>
      <trkpt lat="68.81846" lon="17.85164">
        <ele>198.204969</ele>
        <time>2020-08-27T21:41:05.216Z</time>
      </trkpt>
      <trkpt lat="68.81772" lon="17.85111">
        <ele>197.721748</ele>
        <time>2020-08-27T21:41:17.571Z</time>
      </trkpt>
      <trkpt lat="68.8175" lon="17.85088">
        <ele>197.575306</ele>
        <time>2020-08-27T21:41:21.157Z</time>
      </trkpt>
      <trkpt lat="68.81737" lon="17.85074">
        <ele>197.484119</ele>
        <time>2020-08-27T21:41:23.543Z</time>
      </trkpt>
      <trkpt lat="68.81715" lon="17.8505">
        <ele>197.335097</ele>
        <time>2020-08-27T21:41:27.219Z</time>
      </trkpt>
      <trkpt lat="68.81644" lon="17.8498">
        <ele>197.100685</ele>
        <time>2020-08-27T21:41:39.562Z</time>
      </trkpt>
      <trkpt lat="68.81616" lon="17.84956">
        <ele>197.0928</ele>
        <time>2020-08-27T21:41:44.530Z</time>
      </trkpt>
      <trkpt lat="68.81581" lon="17.84928">
        <ele>197.083042</ele>
        <time>2020-08-27T21:41:51.018Z</time>
      </trkpt>
      <trkpt lat="68.81301" lon="17.84708">
        <ele>198.033066</ele>
        <time>2020-08-27T21:42:47.133Z</time>
      </trkpt>
      <trkpt lat="68.81244" lon="17.84633">
        <ele>198.243427</ele>
        <time>2020-08-27T21:42:59.200Z</time>
      </trkpt>
      <trkpt lat="68.8124" lon="17.84625">
        <ele>198.260119</ele>
        <time>2020-08-27T21:43:00.339Z</time>
      </trkpt>
      <trkpt lat="68.81232" lon="17.84607">
        <ele>198.295888</ele>
        <time>2020-08-27T21:43:02.329Z</time>
      </trkpt>
      <trkpt lat="68.81205" lon="17.84531">
        <ele>198.423261</ele>
        <time>2020-08-27T21:43:09.589Z</time>
      </trkpt>
      <trkpt lat="68.81133" lon="17.8426">
        <ele>197.972475</ele>
        <time>2020-08-27T21:43:31.165Z</time>
      </trkpt>
      <trkpt lat="68.81099" lon="17.84153">
        <ele>197.677901</ele>
        <time>2020-08-27T21:43:39.465Z</time>
      </trkpt>
      <trkpt lat="68.80864" lon="17.83573">
        <ele>192.065854</ele>
        <time>2020-08-27T21:44:24.711Z</time>
      </trkpt>
      <trkpt lat="68.80801" lon="17.83456">
        <ele>190.380457</ele>
        <time>2020-08-27T21:44:34.850Z</time>
      </trkpt>
      <trkpt lat="68.80744" lon="17.83375">
        <ele>188.898556</ele>
        <time>2020-08-27T21:44:43.407Z</time>
      </trkpt>
      <trkpt lat="68.80689" lon="17.83322">
        <ele>187.555735</ele>
        <time>2020-08-27T21:44:51.252Z</time>
      </trkpt>
      <trkpt lat="68.80638" lon="17.833">
        <ele>186.366212</ele>
        <time>2020-08-27T21:44:58.620Z</time>
      </trkpt>
      <trkpt lat="68.80628" lon="17.83299">
        <ele>186.16842</ele>
        <time>2020-08-27T21:45:00.011Z</time>
      </trkpt>
      <trkpt lat="68.80606" lon="17.833">
        <ele>186.072982</ele>
        <time>2020-08-27T21:45:03.454Z</time>
      </trkpt>
      <trkpt lat="68.80454" lon="17.83325">
        <ele>185.420944</ele>
        <time>2020-08-27T21:45:29.401Z</time>
      </trkpt>
      <trkpt lat="68.80425" lon="17.83326">
        <ele>185.433419</ele>
        <time>2020-08-27T21:45:35.265Z</time>
      </trkpt>
      <trkpt lat="68.80407" lon="17.83324">
        <ele>185.45325</ele>
        <time>2020-08-27T21:45:38.762Z</time>
      </trkpt>
      <trkpt lat="68.80368" lon="17.8331">
        <ele>185.498552</ele>
        <time>2020-08-27T21:45:46.386Z</time>
      </trkpt>
      <trkpt lat="68.80329" lon="17.83277">
        <ele>185.545955</ele>
        <time>2020-08-27T21:45:54.163Z</time>
      </trkpt>
      <trkpt lat="68.80263" lon="17.83176">
        <ele>185.374192</ele>
        <time>2020-08-27T21:46:07.359Z</time>
      </trkpt>
      <trkpt lat="68.8022" lon="17.83064">
        <ele>184.646274</ele>
        <time>2020-08-27T21:46:16.644Z</time>
      </trkpt>
      <trkpt lat="68.80103" lon="17.82683">
        <ele>181.640362</ele>
        <time>2020-08-27T21:46:42.537Z</time>
      </trkpt>
      <trkpt lat="68.80031" lon="17.82499">
        <ele>179.446616</ele>
        <time>2020-08-27T21:46:55.997Z</time>
      </trkpt>
      <trkpt lat="68.79977" lon="17.82389">
        <ele>177.521892</ele>
        <time>2020-08-27T21:47:04.955Z</time>
      </trkpt>
      <trkpt lat="68.79781" lon="17.82033">
        <ele>170.416716</ele>
        <time>2020-08-27T21:47:35.902Z</time>
      </trkpt>
      <trkpt lat="68.79575" lon="17.81553">
        <ele>161.629216</ele>
        <time>2020-08-27T21:48:11.019Z</time>
      </trkpt>
      <trkpt lat="68.79495" lon="17.81382">
        <ele>158.044117</ele>
        <time>2020-08-27T21:48:24.285Z</time>
      </trkpt>
      <trkpt lat="68.79383" lon="17.81196">
        <ele>151.785524</ele>
        <time>2020-08-27T21:48:40.571Z</time>
      </trkpt>
      <trkpt lat="68.79329" lon="17.81088">
        <ele>148.121689</ele>
        <time>2020-08-27T21:48:48.305Z</time>
      </trkpt>
      <trkpt lat="68.79296" lon="17.81014">
        <ele>145.641691</ele>
        <time>2020-08-27T21:48:53.234Z</time>
      </trkpt>
      <trkpt lat="68.79249" lon="17.80908">
        <ele>141.563665</ele>
        <time>2020-08-27T21:49:00.203Z</time>
      </trkpt>
      <trkpt lat="68.79151" lon="17.8061">
        <ele>132.188457</ele>
        <time>2020-08-27T21:49:17.083Z</time>
      </trkpt>
      <trkpt lat="68.79049" lon="17.80391">
        <ele>125.112208</ele>
        <time>2020-08-27T21:49:32.577Z</time>
      </trkpt>
      <trkpt lat="68.78976" lon="17.80249">
        <ele>121.229378</ele>
        <time>2020-08-27T21:49:43.677Z</time>
      </trkpt>
      <trkpt lat="68.78932" lon="17.80188">
        <ele>119.194918</ele>
        <time>2020-08-27T21:49:49.884Z</time>
      </trkpt>
      <trkpt lat="68.78902" lon="17.80164">
        <ele>117.908568</ele>
        <time>2020-08-27T21:49:53.835Z</time>
      </trkpt>
      <trkpt lat="68.78804" lon="17.80156">
        <ele>114.333604</ele>
        <time>2020-08-27T21:50:06.452Z</time>
      </trkpt>
      <trkpt lat="68.78787" lon="17.8015">
        <ele>113.727402</ele>
        <time>2020-08-27T21:50:08.666Z</time>
      </trkpt>
      <trkpt lat="68.78776" lon="17.80144">
        <ele>113.331712</ele>
        <time>2020-08-27T21:50:10.151Z</time>
      </trkpt>
      <trkpt lat="68.78746" lon="17.80112">
        <ele>112.209516</ele>
        <time>2020-08-27T21:50:14.329Z</time>
      </trkpt>
      <trkpt lat="68.78716" lon="17.8005">
        <ele>110.894414</ele>
        <time>2020-08-27T21:50:19.210Z</time>
      </trkpt>
      <trkpt lat="68.78708" lon="17.80025">
        <ele>110.437946</ele>
        <time>2020-08-27T21:50:20.767Z</time>
      </trkpt>
      <trkpt lat="68.78679" lon="17.79926">
        <ele>108.481739</ele>
        <time>2020-08-27T21:50:26.589Z</time>
      </trkpt>
      <trkpt lat="68.78654" lon="17.7986">
        <ele>107.003217</ele>
        <time>2020-08-27T21:50:31.025Z</time>
      </trkpt>
      <trkpt lat="68.78627" lon="17.79816">
        <ele>105.685875</ele>
        <time>2020-08-27T21:50:34.976Z</time>
      </trkpt>
      <trkpt lat="68.78462" lon="17.79647">
        <ele>96.413394</ele>
        <time>2020-08-27T21:50:56.172Z</time>
      </trkpt>
      <trkpt lat="68.78362" lon="17.79545">
        <ele>89.109991</ele>
        <time>2020-08-27T21:51:08.470Z</time>
      </trkpt>
      <trkpt lat="68.78356" lon="17.79539">
        <ele>88.550885</ele>
        <time>2020-08-27T21:51:09.231Z</time>
      </trkpt>
      <trkpt lat="68.78332" lon="17.79512">
        <ele>86.345372</ele>
        <time>2020-08-27T21:51:12.171Z</time>
      </trkpt>
      <trkpt lat="68.78245" lon="17.79356">
        <ele>77.447848</ele>
        <time>2020-08-27T21:51:23.555Z</time>
      </trkpt>
      <trkpt lat="68.78195" lon="17.79321">
        <ele>72.822197</ele>
        <time>2020-08-27T21:51:29.224Z</time>
      </trkpt>
      <trkpt lat="68.78181" lon="17.79321">
        <ele>71.49089</ele>
        <time>2020-08-27T21:51:30.844Z</time>
      </trkpt>
      <trkpt lat="68.7817" lon="17.79323">
        <ele>70.509228</ele>
        <time>2020-08-27T21:51:32.017Z</time>
      </trkpt>
      <trkpt lat="68.78097" lon="17.7938">
        <ele>63.691438</ele>
        <time>2020-08-27T21:51:40.369Z</time>
      </trkpt>
      <trkpt lat="68.78047" lon="17.79456">
        <ele>59.12143</ele>
        <time>2020-08-27T21:51:46.735Z</time>
      </trkpt>
      <trkpt lat="68.78009" lon="17.79547">
        <ele>55.885862</ele>
        <time>2020-08-27T21:51:52.482Z</time>
      </trkpt>
      <trkpt lat="68.77958" lon="17.79733">
        <ele>50.378789</ele>
        <time>2020-08-27T21:52:02.597Z</time>
      </trkpt>
      <trkpt lat="68.77956" lon="17.79739">
        <ele>50.219093</ele>
        <time>2020-08-27T21:52:02.854Z</time>
      </trkpt>
      <trkpt lat="68.77946" lon="17.79772">
        <ele>49.206996</ele>
        <time>2020-08-27T21:52:04.795Z</time>
      </trkpt>
      <trkpt lat="68.77936" lon="17.798">
        <ele>48.513078</ele>
        <time>2020-08-27T21:52:06.623Z</time>
      </trkpt>
      <trkpt lat="68.77923" lon="17.79829">
        <ele>47.796215</ele>
        <time>2020-08-27T21:52:08.564Z</time>
      </trkpt>
      <trkpt lat="68.77858" lon="17.79931">
        <ele>44.539246</ele>
        <time>2020-08-27T21:52:17.920Z</time>
      </trkpt>
      <trkpt lat="68.77842" lon="17.79949">
        <ele>43.80533</ele>
        <time>2020-08-27T21:52:20.106Z</time>
      </trkpt>
      <trkpt lat="68.77733" lon="17.80071">
        <ele>38.905511</ele>
        <time>2020-08-27T21:52:35.024Z</time>
      </trkpt>
      <trkpt lat="68.77711" lon="17.80092">
        <ele>38.017378</ele>
        <time>2020-08-27T21:52:37.890Z</time>
      </trkpt>
      <trkpt lat="68.77691" lon="17.80108">
        <ele>37.194864</ele>
        <time>2020-08-27T21:52:40.509Z</time>
      </trkpt>
      <trkpt lat="68.77678" lon="17.80116">
        <ele>36.660206</ele>
        <time>2020-08-27T21:52:42.328Z</time>
      </trkpt>
      <trkpt lat="68.77654" lon="17.80129">
        <ele>35.677636</ele>
        <time>2020-08-27T21:52:45.499Z</time>
      </trkpt>
      <trkpt lat="68.77642" lon="17.80135">
        <ele>35.19907</ele>
        <time>2020-08-27T21:52:47.124Z</time>
      </trkpt>
      <trkpt lat="68.77626" lon="17.80141">
        <ele>34.559616</ele>
        <time>2020-08-27T21:52:49.138Z</time>
      </trkpt>
      <trkpt lat="68.77544" lon="17.80144">
        <ele>30.610757</ele>
        <time>2020-08-27T21:52:59.063Z</time>
      </trkpt>
      <trkpt lat="68.77482" lon="17.80113">
        <ele>27.471706</ele>
        <time>2020-08-27T21:53:06.708Z</time>
      </trkpt>
      <trkpt lat="68.77467" lon="17.80101">
        <ele>26.738216</ele>
        <time>2020-08-27T21:53:08.461Z</time>
      </trkpt>
      <trkpt lat="68.7746" lon="17.80094">
        <ele>26.33057</ele>
        <time>2020-08-27T21:53:09.485Z</time>
      </trkpt>
      <trkpt lat="68.77426" lon="17.80062">
        <ele>24.593977</ele>
        <time>2020-08-27T21:53:13.776Z</time>
      </trkpt>
      <trkpt lat="68.7734" lon="17.79965">
        <ele>20.10068</ele>
        <time>2020-08-27T21:53:25.024Z</time>
      </trkpt>
      <trkpt lat="68.77276" lon="17.79908">
        <ele>16.867267</ele>
        <time>2020-08-27T21:53:33.243Z</time>
      </trkpt>
      <trkpt lat="68.77046" lon="17.79788">
        <ele>10.782561</ele>
        <time>2020-08-27T21:54:03.600Z</time>
      </trkpt>
      <trkpt lat="68.76999" lon="17.79795">
        <ele>11.189943</ele>
        <time>2020-08-27T21:54:12.209Z</time>
      </trkpt>
      <trkpt lat="68.76965" lon="17.79842">
        <ele>11.512508</ele>
        <time>2020-08-27T21:54:20.834Z</time>
      </trkpt>
      <trkpt lat="68.76959" lon="17.79858">
        <ele>11.587392</ele>
        <time>2020-08-27T21:54:22.863Z</time>
      </trkpt>
      <trkpt lat="68.76952" lon="17.79878">
        <ele>11.671791</ele>
        <time>2020-08-27T21:54:28.133Z</time>
      </trkpt>
      <trkpt lat="68.76927" lon="17.80006">
        <ele>13.098252</ele>
        <time>2020-08-27T21:54:44.934Z</time>
      </trkpt>
      <trkpt lat="68.76914" lon="17.80173">
        <ele>16.180455</ele>
        <time>2020-08-27T21:55:07.630Z</time>
      </trkpt>
      <trkpt lat="68.76904" lon="17.80227">
        <ele>17.282139</ele>
        <time>2020-08-27T21:55:14.191Z</time>
      </trkpt>
      <trkpt lat="68.76901" lon="17.80236">
        <ele>17.503837</ele>
        <time>2020-08-27T21:55:17.662Z</time>
      </trkpt>
      <trkpt lat="68.76893" lon="17.80255">
        <ele>18.02012</ele>
        <time>2020-08-27T21:55:20.533Z</time>
      </trkpt>
      <trkpt lat="68.76888" lon="17.80264">
        <ele>18.321822</ele>
        <time>2020-08-27T21:55:22.023Z</time>
      </trkpt>
      <trkpt lat="68.76879" lon="17.80277">
        <ele>18.831538</ele>
        <time>2020-08-27T21:55:24.357Z</time>
      </trkpt>
      <trkpt lat="68.76874" lon="17.80281">
        <ele>19.092153</ele>
        <time>2020-08-27T21:55:26.453Z</time>
      </trkpt>
      <trkpt lat="68.7687" lon="17.80283">
        <ele>19.285404</ele>
        <time>2020-08-27T21:55:29.021Z</time>
      </trkpt>
      <trkpt lat="68.76858" lon="17.80286">
        <ele>19.885939</ele>
        <time>2020-08-27T21:55:32.267Z</time>
      </trkpt>
      <trkpt lat="68.76797" lon="17.80262">
        <ele>22.617565</ele>
        <time>2020-08-27T21:55:52.465Z</time>
      </trkpt>
      <trkpt lat="68.76753" lon="17.80276">
        <ele>24.462325</ele>
        <time>2020-08-27T21:56:06.201Z</time>
      </trkpt>
      <trkpt lat="68.76741" lon="17.80283">
        <ele>24.957967</ele>
        <time>2020-08-27T21:56:08.813Z</time>
      </trkpt>
      <trkpt lat="68.76722" lon="17.80298">
        <ele>25.790457</ele>
        <time>2020-08-27T21:56:14.794Z</time>
      </trkpt>
      <trkpt lat="68.76506" lon="17.8052">
        <ele>35.807661</ele>
        <time>2020-08-27T21:57:28.630Z</time>
      </trkpt>
      <trkpt lat="68.76484" lon="17.8054">
        <ele>36.661876</ele>
        <time>2020-08-27T21:57:36.509Z</time>
      </trkpt>
      <trkpt lat="68.76469" lon="17.80553">
        <ele>37.144516</ele>
        <time>2020-08-27T21:57:41.481Z</time>
      </trkpt>
      <trkpt lat="68.76378" lon="17.80615">
        <ele>40.046927</ele>
        <time>2020-08-27T21:58:09.383Z</time>
      </trkpt>
      <trkpt lat="68.76359" lon="17.80622">
        <ele>40.625401</ele>
        <time>2020-08-27T21:58:14.422Z</time>
      </trkpt>
      <trkpt lat="68.76344" lon="17.80626">
        <ele>41.095638</ele>
        <time>2020-08-27T21:58:18.328Z</time>
      </trkpt>
      <trkpt lat="68.76297" lon="17.80631">
        <ele>41.829254</ele>
        <time>2020-08-27T21:58:27.775Z</time>
      </trkpt>
      <trkpt lat="68.76199" lon="17.80613">
        <ele>41.741335</ele>
        <time>2020-08-27T21:58:45.343Z</time>
      </trkpt>
      <trkpt lat="68.76148" lon="17.80605">
        <ele>41.696718</ele>
        <time>2020-08-27T21:58:53.065Z</time>
      </trkpt>
      <trkpt lat="68.76049" lon="17.80587">
        <ele>41.44442</ele>
        <time>2020-08-27T21:59:08.430Z</time>
      </trkpt>
      <trkpt lat="68.76002" lon="17.8058">
        <ele>41.316255</ele>
        <time>2020-08-27T21:59:16.636Z</time>
      </trkpt>
      <trkpt lat="68.75944" lon="17.80604">
        <ele>41.339261</ele>
        <time>2020-08-27T21:59:28.774Z</time>
      </trkpt>
      <trkpt lat="68.75905" lon="17.80638">
        <ele>41.664277</ele>
        <time>2020-08-27T21:59:37.967Z</time>
      </trkpt>
      <trkpt lat="68.75829" lon="17.80715">
        <ele>42.307469</ele>
        <time>2020-08-27T21:59:55.147Z</time>
      </trkpt>
      <trkpt lat="68.75801" lon="17.8074">
        <ele>42.54111</ele>
        <time>2020-08-27T22:00:00.189Z</time>
      </trkpt>
      <trkpt lat="68.7579" lon="17.80749">
        <ele>42.632211</ele>
        <time>2020-08-27T22:00:03.312Z</time>
      </trkpt>
      <trkpt lat="68.75776" lon="17.80758">
        <ele>42.477551</ele>
        <time>2020-08-27T22:00:05.415Z</time>
      </trkpt>
      <trkpt lat="68.75751" lon="17.80768">
        <ele>42.198797</ele>
        <time>2020-08-27T22:00:10.622Z</time>
      </trkpt>
      <trkpt lat="68.75728" lon="17.80773">
        <ele>41.945842</ele>
        <time>2020-08-27T22:00:14.160Z</time>
      </trkpt>
      <trkpt lat="68.75701" lon="17.80778">
        <ele>41.650128</ele>
        <time>2020-08-27T22:00:18.369Z</time>
      </trkpt>
      <trkpt lat="68.75671" lon="17.80791">
        <ele>41.31272</ele>
        <time>2020-08-27T22:00:22.999Z</time>
      </trkpt>
      <trkpt lat="68.75658" lon="17.80802">
        <ele>41.170275</ele>
        <time>2020-08-27T22:00:24.781Z</time>
      </trkpt>
      <trkpt lat="68.75647" lon="17.80813">
        <ele>41.043298</ele>
        <time>2020-08-27T22:00:26.866Z</time>
      </trkpt>
      <trkpt lat="68.75575" lon="17.80884">
        <ele>39.644562</ele>
        <time>2020-08-27T22:00:37.231Z</time>
      </trkpt>
      <trkpt lat="68.75482" lon="17.80904">
        <ele>37.403798</ele>
        <time>2020-08-27T22:00:50.367Z</time>
      </trkpt>
      <trkpt lat="68.75436" lon="17.80934">
        <ele>36.247918</ele>
        <time>2020-08-27T22:00:56.662Z</time>
      </trkpt>
      <trkpt lat="68.75406" lon="17.80979">
        <ele>34.821341</ele>
        <time>2020-08-27T22:01:01.249Z</time>
      </trkpt>
      <trkpt lat="68.75346" lon="17.81115">
        <ele>31.61206</ele>
        <time>2020-08-27T22:01:10.875Z</time>
      </trkpt>
      <trkpt lat="68.75339" lon="17.81128">
        <ele>31.266449</ele>
        <time>2020-08-27T22:01:11.959Z</time>
      </trkpt>
      <trkpt lat="68.75334" lon="17.81136">
        <ele>31.008642</ele>
        <time>2020-08-27T22:01:12.649Z</time>
      </trkpt>
      <trkpt lat="68.75307" lon="17.81162">
        <ele>29.857257</ele>
        <time>2020-08-27T22:01:16.150Z</time>
      </trkpt>
      <trkpt lat="68.75271" lon="17.81178">
        <ele>28.273761</ele>
        <time>2020-08-27T22:01:20.653Z</time>
      </trkpt>
      <trkpt lat="68.75247" lon="17.8119">
        <ele>27.124133</ele>
        <time>2020-08-27T22:01:23.669Z</time>
      </trkpt>
      <trkpt lat="68.75241" lon="17.81194">
        <ele>26.846647</ele>
        <time>2020-08-27T22:01:24.355Z</time>
      </trkpt>
      <trkpt lat="68.75186" lon="17.81247">
        <ele>24.172514</ele>
        <time>2020-08-27T22:01:31.340Z</time>
      </trkpt>
      <trkpt lat="68.75133" lon="17.81362">
        <ele>21.039287</ele>
        <time>2020-08-27T22:01:39.784Z</time>
      </trkpt>
      <trkpt lat="68.75106" lon="17.81438">
        <ele>19.211829</ele>
        <time>2020-08-27T22:01:44.702Z</time>
      </trkpt>
      <trkpt lat="68.75099" lon="17.8146">
        <ele>18.670878</ele>
        <time>2020-08-27T22:01:46.208Z</time>
      </trkpt>
      <trkpt lat="68.75074" lon="17.81517">
        <ele>17.121382</ele>
        <time>2020-08-27T22:01:50.311Z</time>
      </trkpt>
      <trkpt lat="68.75039" lon="17.81565">
        <ele>15.223144</ele>
        <time>2020-08-27T22:01:55.060Z</time>
      </trkpt>
      <trkpt lat="68.74998" lon="17.81588">
        <ele>13.192972</ele>
        <time>2020-08-27T22:02:00.026Z</time>
      </trkpt>
      <trkpt lat="68.74954" lon="17.81584">
        <ele>11.057601</ele>
        <time>2020-08-27T22:02:05.155Z</time>
      </trkpt>
      <trkpt lat="68.74947" lon="17.81581">
        <ele>10.708027</ele>
        <time>2020-08-27T22:02:05.925Z</time>
      </trkpt>
      <trkpt lat="68.74924" lon="17.8157">
        <ele>9.516768</ele>
        <time>2020-08-27T22:02:08.765Z</time>
      </trkpt>
      <trkpt lat="68.7492" lon="17.81568">
        <ele>9.268054</ele>
        <time>2020-08-27T22:02:09.365Z</time>
      </trkpt>
      <trkpt lat="68.74914" lon="17.81564">
        <ele>8.958701</ele>
        <time>2020-08-27T22:02:10.051Z</time>
      </trkpt>
      <trkpt lat="68.74902" lon="17.81555">
        <ele>8.341127</ele>
        <time>2020-08-27T22:02:11.484Z</time>
      </trkpt>
      <trkpt lat="68.7488" lon="17.81535">
        <ele>7.15429</ele>
        <time>2020-08-27T22:02:14.320Z</time>
      </trkpt>
      <trkpt lat="68.74865" lon="17.81521">
        <ele>6.378605</ele>
        <time>2020-08-27T22:02:16.139Z</time>
      </trkpt>
      <trkpt lat="68.74863" lon="17.81519">
        <ele>6.254833</ele>
        <time>2020-08-27T22:02:16.440Z</time>
      </trkpt>
      <trkpt lat="68.74838" lon="17.81492">
        <ele>4.879647</ele>
        <time>2020-08-27T22:02:19.725Z</time>
      </trkpt>
      <trkpt lat="68.74833" lon="17.81486">
        <ele>4.608545</ele>
        <time>2020-08-27T22:02:20.363Z</time>
      </trkpt>
      <trkpt lat="68.74805" lon="17.81454">
        <ele>3.08519</ele>
        <time>2020-08-27T22:02:24.029Z</time>
      </trkpt>
      <trkpt lat="68.74801" lon="17.81449">
        <ele>2.871917</ele>
        <time>2020-08-27T22:02:24.536Z</time>
      </trkpt>
      <trkpt lat="68.74768" lon="17.81386">
        <ele>2.231235</ele>
        <time>2020-08-27T22:02:29.798Z</time>
      </trkpt>
      <trkpt lat="68.7476" lon="17.81362">
        <ele>2.064908</ele>
        <time>2020-08-27T22:02:31.499Z</time>
      </trkpt>
      <trkpt lat="68.74754" lon="17.81343">
        <ele>1.946423</ele>
        <time>2020-08-27T22:02:32.773Z</time>
      </trkpt>
      <trkpt lat="68.7475" lon="17.81325">
        <ele>1.832949</ele>
        <time>2020-08-27T22:02:34.053Z</time>
      </trkpt>
      <trkpt lat="68.74731" lon="17.81243">
        <ele>1.346302</ele>
        <time>2020-08-27T22:02:39.790Z</time>
      </trkpt>
      <trkpt lat="68.74712" lon="17.8116">
        <ele>0.864235</ele>
        <time>2020-08-27T22:02:45.649Z</time>
      </trkpt>
      <trkpt lat="68.74705" lon="17.81107">
        <ele>0.580026</ele>
        <time>2020-08-27T22:02:49.250Z</time>
      </trkpt>
      <trkpt lat="68.74703" lon="17.81014">
        <ele>0.362965</ele>
        <time>2020-08-27T22:02:55.315Z</time>
      </trkpt>
      <trkpt lat="68.74704" lon="17.8096">
        <ele>0.496116</ele>
        <time>2020-08-27T22:02:59.069Z</time>
      </trkpt>
      <trkpt lat="68.74707" lon="17.80747">
        <ele>1.019137</ele>
        <time>2020-08-27T22:03:14.290Z</time>
      </trkpt>
      <trkpt lat="68.74709" lon="17.80623">
        <ele>1.324691</ele>
        <time>2020-08-27T22:03:23.708Z</time>
      </trkpt>
      <trkpt lat="68.74709" lon="17.8053">
        <ele>1.604365</ele>
        <time>2020-08-27T22:03:31.062Z</time>
      </trkpt>
      <trkpt lat="68.74711" lon="17.80418">
        <ele>2.150272</ele>
        <time>2020-08-27T22:03:40.196Z</time>
      </trkpt>
      <trkpt lat="68.74713" lon="17.80309">
        <ele>2.680085</ele>
        <time>2020-08-27T22:03:49.142Z</time>
      </trkpt>
      <trkpt lat="68.74714" lon="17.80261">
        <ele>2.91525</ele>
        <time>2020-08-27T22:03:53.260Z</time>
      </trkpt>
      <trkpt lat="68.74716" lon="17.8022">
        <ele>3.116821</ele>
        <time>2020-08-27T22:03:56.563Z</time>
      </trkpt>
      <trkpt lat="68.74719" lon="17.80171">
        <ele>3.360397</ele>
        <time>2020-08-27T22:04:00.821Z</time>
      </trkpt>
      <trkpt lat="68.74725" lon="17.80098">
        <ele>3.722532</ele>
        <time>2020-08-27T22:04:06.747Z</time>
      </trkpt>
      <trkpt lat="68.74729" lon="17.80055">
        <ele>3.92512</ele>
        <time>2020-08-27T22:04:10.247Z</time>
      </trkpt>
      <trkpt lat="68.7475" lon="17.7982">
        <ele>4.52879</ele>
        <time>2020-08-27T22:04:27.917Z</time>
      </trkpt>
      <trkpt lat="68.74756" lon="17.79768">
        <ele>4.66552</ele>
        <time>2020-08-27T22:04:31.842Z</time>
      </trkpt>
      <trkpt lat="68.74758" lon="17.79759">
        <ele>4.691281</ele>
        <time>2020-08-27T22:04:32.577Z</time>
      </trkpt>
      <trkpt lat="68.74763" lon="17.79738">
        <ele>4.755332</ele>
        <time>2020-08-27T22:04:34.622Z</time>
      </trkpt>
      <trkpt lat="68.74825" lon="17.7961">
        <ele>5.174091</ele>
        <time>2020-08-27T22:04:49.593Z</time>
      </trkpt>
      <trkpt lat="68.74843" lon="17.79553">
        <ele>5.205581</ele>
        <time>2020-08-27T22:04:54.412Z</time>
      </trkpt>
      <trkpt lat="68.74861" lon="17.79465">
        <ele>5.248154</ele>
        <time>2020-08-27T22:05:01.132Z</time>
      </trkpt>
      <trkpt lat="68.74862" lon="17.79463">
        <ele>5.249444</ele>
        <time>2020-08-27T22:05:01.657Z</time>
      </trkpt>
      <trkpt lat="68.74888" lon="17.79379">
        <ele>5.295587</ele>
        <time>2020-08-27T22:05:08.785Z</time>
      </trkpt>
      <trkpt lat="68.74984" lon="17.79166">
        <ele>5.286821</ele>
        <time>2020-08-27T22:05:30.331Z</time>
      </trkpt>
      <trkpt lat="68.75018" lon="17.79126">
        <ele>5.247324</ele>
        <time>2020-08-27T22:05:36.612Z</time>
      </trkpt>
      <trkpt lat="68.75087" lon="17.79076">
        <ele>5.172932</ele>
        <time>2020-08-27T22:05:48.911Z</time>
      </trkpt>
      <trkpt lat="68.75114" lon="17.79032">
        <ele>5.119166</ele>
        <time>2020-08-27T22:05:54.892Z</time>
      </trkpt>
      <trkpt lat="68.75136" lon="17.78952">
        <ele>5.054259</ele>
        <time>2020-08-27T22:06:01.484Z</time>
      </trkpt>
      <trkpt lat="68.75166" lon="17.78741">
        <ele>4.908588</ele>
        <time>2020-08-27T22:06:15.448Z</time>
      </trkpt>
      <trkpt lat="68.7517" lon="17.78717">
        <ele>4.891277</ele>
        <time>2020-08-27T22:06:17.261Z</time>
      </trkpt>
      <trkpt lat="68.75177" lon="17.78689">
        <ele>4.869962</ele>
        <time>2020-08-27T22:06:19.073Z</time>
      </trkpt>
      <trkpt lat="68.75189" lon="17.78651">
        <ele>4.872033</ele>
        <time>2020-08-27T22:06:22.099Z</time>
      </trkpt>
      <trkpt lat="68.752" lon="17.78624">
        <ele>4.920741</ele>
        <time>2020-08-27T22:06:24.496Z</time>
      </trkpt>
      <trkpt lat="68.75213" lon="17.78594">
        <ele>4.979192</ele>
        <time>2020-08-27T22:06:27.505Z</time>
      </trkpt>
      <trkpt lat="68.75222" lon="17.78575">
        <ele>5.01605</ele>
        <time>2020-08-27T22:06:29.768Z</time>
      </trkpt>
      <trkpt lat="68.75231" lon="17.78559">
        <ele>5.050288</ele>
        <time>2020-08-27T22:06:31.768Z</time>
      </trkpt>
      <trkpt lat="68.75243" lon="17.78539">
        <ele>5.096223</ele>
        <time>2020-08-27T22:06:34.236Z</time>
      </trkpt>
      <trkpt lat="68.7527" lon="17.78499">
        <ele>5.198432</ele>
        <time>2020-08-27T22:06:40.476Z</time>
      </trkpt>
      <trkpt lat="68.75278" lon="17.78489">
        <ele>5.22709</ele>
        <time>2020-08-27T22:06:41.967Z</time>
      </trkpt>
      <trkpt lat="68.75289" lon="17.78475">
        <ele>5.268495</ele>
        <time>2020-08-27T22:06:44.321Z</time>
      </trkpt>
      <trkpt lat="68.75309" lon="17.78451">
        <ele>5.339884</ele>
        <time>2020-08-27T22:06:48.473Z</time>
      </trkpt>
      <trkpt lat="68.75348" lon="17.78408">
        <ele>5.595214</ele>
        <time>2020-08-27T22:06:56.691Z</time>
      </trkpt>
      <trkpt lat="68.75366" lon="17.78385">
        <ele>5.872776</ele>
        <time>2020-08-27T22:07:01.289Z</time>
      </trkpt>
      <trkpt lat="68.7541" lon="17.78298">
        <ele>6.648926</ele>
        <time>2020-08-27T22:07:12.918Z</time>
      </trkpt>
      <trkpt lat="68.75632" lon="17.7767">
        <ele>12.158457</ele>
        <time>2020-08-27T22:08:28.057Z</time>
      </trkpt>
      <trkpt lat="68.7569" lon="17.77504">
        <ele>13.924754</ele>
        <time>2020-08-27T22:08:48.711Z</time>
      </trkpt>
      <trkpt lat="68.75727" lon="17.77401">
        <ele>15.037964</ele>
        <time>2020-08-27T22:09:02.167Z</time>
      </trkpt>
      <trkpt lat="68.7576" lon="17.77304">
        <ele>15.766174</ele>
        <time>2020-08-27T22:09:14.426Z</time>
      </trkpt>
      <trkpt lat="68.75825" lon="17.7712">
        <ele>17.156606</ele>
        <time>2020-08-27T22:09:35.887Z</time>
      </trkpt>
      <trkpt lat="68.75867" lon="17.77002">
        <ele>17.709188</ele>
        <time>2020-08-27T22:09:47.655Z</time>
      </trkpt>
      <trkpt lat="68.75903" lon="17.76899">
        <ele>17.601992</ele>
        <time>2020-08-27T22:09:56.782Z</time>
      </trkpt>
      <trkpt lat="68.75922" lon="17.76842">
        <ele>17.543306</ele>
        <time>2020-08-27T22:10:01.471Z</time>
      </trkpt>
      <trkpt lat="68.75944" lon="17.76781">
        <ele>17.479488</ele>
        <time>2020-08-27T22:10:06.425Z</time>
      </trkpt>
      <trkpt lat="68.75947" lon="17.76772">
        <ele>17.469882</ele>
        <time>2020-08-27T22:10:07.156Z</time>
      </trkpt>
      <trkpt lat="68.75959" lon="17.76739">
        <ele>17.435946</ele>
        <time>2020-08-27T22:10:09.786Z</time>
      </trkpt>
      <trkpt lat="68.7598" lon="17.76686">
        <ele>17.385174</ele>
        <time>2020-08-27T22:10:14.396Z</time>
      </trkpt>
      <trkpt lat="68.75989" lon="17.76667">
        <ele>17.456884</ele>
        <time>2020-08-27T22:10:16.208Z</time>
      </trkpt>
      <trkpt lat="68.76002" lon="17.76642">
        <ele>17.558723</ele>
        <time>2020-08-27T22:10:18.902Z</time>
      </trkpt>
      <trkpt lat="68.76012" lon="17.76626">
        <ele>17.632331</ele>
        <time>2020-08-27T22:10:20.934Z</time>
      </trkpt>
      <trkpt lat="68.76021" lon="17.76613">
        <ele>17.694784</ele>
        <time>2020-08-27T22:10:22.626Z</time>
      </trkpt>
      <trkpt lat="68.7603" lon="17.76602">
        <ele>17.758046</ele>
        <time>2020-08-27T22:10:24.428Z</time>
      </trkpt>
      <trkpt lat="68.76043" lon="17.76588">
        <ele>17.843815</ele>
        <time>2020-08-27T22:10:26.987Z</time>
      </trkpt>
      <trkpt lat="68.76059" lon="17.76574">
        <ele>17.951254</ele>
        <time>2020-08-27T22:10:30.166Z</time>
      </trkpt>
      <trkpt lat="68.76072" lon="17.76565">
        <ele>18.038426</ele>
        <time>2020-08-27T22:10:32.901Z</time>
      </trkpt>
      <trkpt lat="68.76168" lon="17.76546">
        <ele>18.89837</ele>
        <time>2020-08-27T22:10:54.767Z</time>
      </trkpt>
      <trkpt lat="68.76196" lon="17.76512">
        <ele>19.459919</ele>
        <time>2020-08-27T22:11:02.327Z</time>
      </trkpt>
      <trkpt lat="68.76226" lon="17.76444">
        <ele>20.179312</ele>
        <time>2020-08-27T22:11:12.074Z</time>
      </trkpt>
      <trkpt lat="68.76261" lon="17.76349">
        <ele>21.083112</ele>
        <time>2020-08-27T22:11:24.433Z</time>
      </trkpt>
      <trkpt lat="68.76346" lon="17.76115">
        <ele>21.664122</ele>
        <time>2020-08-27T22:11:50.544Z</time>
      </trkpt>
      <trkpt lat="68.76376" lon="17.76031">
        <ele>21.571924</ele>
        <time>2020-08-27T22:11:57.527Z</time>
      </trkpt>
      <trkpt lat="68.76385" lon="17.76005">
        <ele>21.543748</ele>
        <time>2020-08-27T22:11:59.570Z</time>
      </trkpt>
      <trkpt lat="68.76422" lon="17.75907">
        <ele>21.258786</ele>
        <time>2020-08-27T22:12:06.966Z</time>
      </trkpt>
      <trkpt lat="68.7646" lon="17.75797">
        <ele>19.654638</ele>
        <time>2020-08-27T22:12:14.328Z</time>
      </trkpt>
      <trkpt lat="68.76476" lon="17.75744">
        <ele>18.935273</ele>
        <time>2020-08-27T22:12:17.483Z</time>
      </trkpt>
      <trkpt lat="68.76485" lon="17.75711">
        <ele>18.498851</ele>
        <time>2020-08-27T22:12:19.563Z</time>
      </trkpt>
      <trkpt lat="68.76493" lon="17.75684">
        <ele>18.125612</ele>
        <time>2020-08-27T22:12:21.241Z</time>
      </trkpt>
      <trkpt lat="68.76503" lon="17.75653">
        <ele>17.675581</ele>
        <time>2020-08-27T22:12:23.204Z</time>
      </trkpt>
      <trkpt lat="68.76511" lon="17.75636">
        <ele>17.384461</ele>
        <time>2020-08-27T22:12:24.542Z</time>
      </trkpt>
      <trkpt lat="68.76522" lon="17.75617">
        <ele>17.008285</ele>
        <time>2020-08-27T22:12:26.259Z</time>
      </trkpt>
      <trkpt lat="68.76525" lon="17.75613">
        <ele>16.907581</ele>
        <time>2020-08-27T22:12:26.643Z</time>
      </trkpt>
      <trkpt lat="68.76547" lon="17.75601">
        <ele>16.259923</ele>
        <time>2020-08-27T22:12:29.682Z</time>
      </trkpt>
      <trkpt lat="68.76613" lon="17.75608">
        <ele>14.087496</ele>
        <time>2020-08-27T22:12:38.154Z</time>
      </trkpt>
      <trkpt lat="68.76629" lon="17.75592">
        <ele>13.50645</ele>
        <time>2020-08-27T22:12:40.433Z</time>
      </trkpt>
      <trkpt lat="68.76648" lon="17.75548">
        <ele>12.692139</ele>
        <time>2020-08-27T22:12:43.673Z</time>
      </trkpt>
      <trkpt lat="68.76672" lon="17.75471">
        <ele>11.459117</ele>
        <time>2020-08-27T22:12:48.436Z</time>
      </trkpt>
      <trkpt lat="68.76675" lon="17.75462">
        <ele>11.311729</ele>
        <time>2020-08-27T22:12:48.979Z</time>
      </trkpt>
      <trkpt lat="68.76708" lon="17.75408">
        <ele>10.045893</ele>
        <time>2020-08-27T22:12:54.014Z</time>
      </trkpt>
      <trkpt lat="68.76752" lon="17.75396">
        <ele>8.727976</ele>
        <time>2020-08-27T22:12:59.777Z</time>
      </trkpt>
      <trkpt lat="68.76811" lon="17.75408">
        <ele>6.974093</ele>
        <time>2020-08-27T22:13:07.354Z</time>
      </trkpt>
      <trkpt lat="68.76854" lon="17.75415">
        <ele>5.678779</ele>
        <time>2020-08-27T22:13:13.110Z</time>
      </trkpt>
      <trkpt lat="68.76905" lon="17.75421">
        <ele>4.714761</ele>
        <time>2020-08-27T22:13:20.204Z</time>
      </trkpt>
      <trkpt lat="68.76934" lon="17.75398">
        <ele>4.560133</ele>
        <time>2020-08-27T22:13:24.689Z</time>
      </trkpt>
      <trkpt lat="68.76944" lon="17.75384">
        <ele>4.507065</ele>
        <time>2020-08-27T22:13:26.153Z</time>
      </trkpt>
      <trkpt lat="68.76971" lon="17.75334">
        <ele>4.341515</ele>
        <time>2020-08-27T22:13:31.755Z</time>
      </trkpt>
      <trkpt lat="68.76992" lon="17.75293">
        <ele>4.20992</ele>
        <time>2020-08-27T22:13:36.699Z</time>
      </trkpt>
      <trkpt lat="68.77009" lon="17.75261">
        <ele>4.106332</ele>
        <time>2020-08-27T22:13:40.892Z</time>
      </trkpt>
      <trkpt lat="68.77035" lon="17.75208">
        <ele>3.942332</ele>
        <time>2020-08-27T22:13:47.698Z</time>
      </trkpt>
      <trkpt lat="68.77071" lon="17.75098">
        <ele>4.179477</ele>
        <time>2020-08-27T22:13:58.347Z</time>
      </trkpt>
      <trkpt lat="68.77079" lon="17.75058">
        <ele>4.265263</ele>
        <time>2020-08-27T22:14:02.162Z</time>
      </trkpt>
      <trkpt lat="68.77093" lon="17.74985">
        <ele>4.419894</ele>
        <time>2020-08-27T22:14:08.095Z</time>
      </trkpt>
      <trkpt lat="68.77123" lon="17.7489">
        <ele>4.65775</ele>
        <time>2020-08-27T22:14:17.218Z</time>
      </trkpt>
      <trkpt lat="68.77132" lon="17.74874">
        <ele>4.71424</ele>
        <time>2020-08-27T22:14:18.990Z</time>
      </trkpt>
      <trkpt lat="68.77163" lon="17.74822">
        <ele>4.865915</ele>
        <time>2020-08-27T22:14:25.082Z</time>
      </trkpt>
      <trkpt lat="68.77256" lon="17.7467">
        <ele>4.963083</ele>
        <time>2020-08-27T22:14:44.725Z</time>
      </trkpt>
      <trkpt lat="68.77263" lon="17.74658">
        <ele>4.970128</ele>
        <time>2020-08-27T22:14:45.818Z</time>
      </trkpt>
      <trkpt lat="68.77271" lon="17.74642">
        <ele>4.979438</ele>
        <time>2020-08-27T22:14:48.644Z</time>
      </trkpt>
      <trkpt lat="68.77286" lon="17.74603">
        <ele>4.997464</ele>
        <time>2020-08-27T22:14:51.838Z</time>
      </trkpt>
      <trkpt lat="68.77289" lon="17.74587">
        <ele>5.003281</ele>
        <time>2020-08-27T22:14:52.762Z</time>
      </trkpt>
      <trkpt lat="68.7729" lon="17.74579">
        <ele>5.005904</ele>
        <time>2020-08-27T22:14:54.066Z</time>
      </trkpt>
      <trkpt lat="68.77285" lon="17.74429">
        <ele>5.235551</ele>
        <time>2020-08-27T22:15:04.201Z</time>
      </trkpt>
      <trkpt lat="68.77289" lon="17.74377">
        <ele>5.341754</ele>
        <time>2020-08-27T22:15:07.783Z</time>
      </trkpt>
      <trkpt lat="68.77293" lon="17.74358">
        <ele>5.384039</ele>
        <time>2020-08-27T22:15:09.919Z</time>
      </trkpt>
      <trkpt lat="68.77296" lon="17.74348">
        <ele>5.409055</ele>
        <time>2020-08-27T22:15:10.528Z</time>
      </trkpt>
      <trkpt lat="68.77311" lon="17.74305">
        <ele>5.528531</ele>
        <time>2020-08-27T22:15:14.509Z</time>
      </trkpt>
      <trkpt lat="68.77363" lon="17.74183">
        <ele>5.896362</ele>
        <time>2020-08-27T22:15:28.216Z</time>
      </trkpt>
      <trkpt lat="68.77406" lon="17.74082">
        <ele>6.594685</ele>
        <time>2020-08-27T22:15:40.058Z</time>
      </trkpt>
      <trkpt lat="68.77436" lon="17.74011">
        <ele>7.22175</ele>
        <time>2020-08-27T22:15:48.302Z</time>
      </trkpt>
      <trkpt lat="68.77457" lon="17.73962">
        <ele>7.651365</ele>
        <time>2020-08-27T22:15:54.854Z</time>
      </trkpt>
      <trkpt lat="68.77492" lon="17.73855">
        <ele>8.471876</ele>
        <time>2020-08-27T22:16:07.256Z</time>
      </trkpt>
      <trkpt lat="68.77501" lon="17.73816">
        <ele>8.738676</ele>
        <time>2020-08-27T22:16:11.864Z</time>
      </trkpt>
      <trkpt lat="68.77525" lon="17.73719">
        <ele>9.748743</ele>
        <time>2020-08-27T22:16:22.550Z</time>
      </trkpt>
      <trkpt lat="68.77546" lon="17.73631">
        <ele>10.718144</ele>
        <time>2020-08-27T22:16:32.727Z</time>
      </trkpt>
      <trkpt lat="68.77591" lon="17.73437">
        <ele>12.812798</ele>
        <time>2020-08-27T22:16:53.905Z</time>
      </trkpt>
      <trkpt lat="68.77602" lon="17.73362">
        <ele>13.655565</ele>
        <time>2020-08-27T22:17:00.909Z</time>
      </trkpt>
      <trkpt lat="68.77638" lon="17.72912">
        <ele>20.1355</ele>
        <time>2020-08-27T22:17:51.695Z</time>
      </trkpt>
      <trkpt lat="68.77639" lon="17.72894">
        <ele>20.394209</ele>
        <time>2020-08-27T22:17:53.789Z</time>
      </trkpt>
      <trkpt lat="68.77639" lon="17.72871">
        <ele>20.756928</ele>
        <time>2020-08-27T22:17:58.118Z</time>
      </trkpt>
      <trkpt lat="68.77638" lon="17.72628">
        <ele>24.598531</ele>
        <time>2020-08-27T22:18:26.839Z</time>
      </trkpt>
      <trkpt lat="68.77651" lon="17.72469">
        <ele>27.192393</ele>
        <time>2020-08-27T22:18:47.034Z</time>
      </trkpt>
      <trkpt lat="68.77687" lon="17.72178">
        <ele>29.944272</ele>
        <time>2020-08-27T22:19:15.304Z</time>
      </trkpt>
      <trkpt lat="68.77694" lon="17.7212">
        <ele>30.382467</ele>
        <time>2020-08-27T22:19:20.309Z</time>
      </trkpt>
      <trkpt lat="68.77701" lon="17.72065">
        <ele>30.803068</ele>
        <time>2020-08-27T22:19:25.054Z</time>
      </trkpt>
      <trkpt lat="68.77712" lon="17.71975">
        <ele>31.475288</ele>
        <time>2020-08-27T22:19:32.581Z</time>
      </trkpt>
      <trkpt lat="68.77787" lon="17.71347">
        <ele>34.052219</ele>
        <time>2020-08-27T22:20:22.849Z</time>
      </trkpt>
      <trkpt lat="68.77859" lon="17.7084">
        <ele>37.141859</ele>
        <time>2020-08-27T22:21:04.877Z</time>
      </trkpt>
      <trkpt lat="68.77879" lon="17.70626">
        <ele>39.252833</ele>
        <time>2020-08-27T22:21:28.014Z</time>
      </trkpt>
      <trkpt lat="68.77882" lon="17.70546">
        <ele>40.02369</ele>
        <time>2020-08-27T22:21:36.544Z</time>
      </trkpt>
      <trkpt lat="68.77882" lon="17.70527">
        <ele>40.207277</ele>
        <time>2020-08-27T22:21:38.880Z</time>
      </trkpt>
      <trkpt lat="68.77894" lon="17.70135">
        <ele>43.399563</ele>
        <time>2020-08-27T22:22:19.472Z</time>
      </trkpt>
      <trkpt lat="68.77904" lon="17.69969">
        <ele>43.694792</ele>
        <time>2020-08-27T22:22:29.131Z</time>
      </trkpt>
      <trkpt lat="68.77923" lon="17.69819">
        <ele>42.206651</ele>
        <time>2020-08-27T22:22:37.166Z</time>
      </trkpt>
      <trkpt lat="68.77988" lon="17.69408">
        <ele>38.173038</ele>
        <time>2020-08-27T22:22:57.878Z</time>
      </trkpt>
      <trkpt lat="68.77997" lon="17.69279">
        <ele>37.088971</ele>
        <time>2020-08-27T22:23:04.324Z</time>
      </trkpt>
      <trkpt lat="68.77998" lon="17.6921">
        <ele>36.516769</ele>
        <time>2020-08-27T22:23:07.737Z</time>
      </trkpt>
      <trkpt lat="68.78" lon="17.69125">
        <ele>35.807605</ele>
        <time>2020-08-27T22:23:12.426Z</time>
      </trkpt>
      <trkpt lat="68.77993" lon="17.68285">
        <ele>36.248093</ele>
        <time>2020-08-27T22:24:13.307Z</time>
      </trkpt>
      <trkpt lat="68.78047" lon="17.67273">
        <ele>33.127493</ele>
        <time>2020-08-27T22:25:09.218Z</time>
      </trkpt>
      <trkpt lat="68.78057" lon="17.66932">
        <ele>32.777739</ele>
        <time>2020-08-27T22:25:33.002Z</time>
      </trkpt>
      <trkpt lat="68.78056" lon="17.66855">
        <ele>32.797944</ele>
        <time>2020-08-27T22:25:38.645Z</time>
      </trkpt>
      <trkpt lat="68.78036" lon="17.66648">
        <ele>32.853868</ele>
        <time>2020-08-27T22:25:53.121Z</time>
      </trkpt>
      <trkpt lat="68.78027" lon="17.665">
        <ele>32.229841</ele>
        <time>2020-08-27T22:26:01.449Z</time>
      </trkpt>
      <trkpt lat="68.78028" lon="17.66329">
        <ele>31.350049</ele>
        <time>2020-08-27T22:26:09.761Z</time>
      </trkpt>
      <trkpt lat="68.78041" lon="17.66141">
        <ele>30.359083</ele>
        <time>2020-08-27T22:26:19.933Z</time>
      </trkpt>
      <trkpt lat="68.78057" lon="17.65951">
        <ele>30.958292</ele>
        <time>2020-08-27T22:26:32.189Z</time>
      </trkpt>
      <trkpt lat="68.78057" lon="17.65944">
        <ele>30.983195</ele>
        <time>2020-08-27T22:26:32.845Z</time>
      </trkpt>
      <trkpt lat="68.78062" lon="17.65885">
        <ele>31.207192</ele>
        <time>2020-08-27T22:26:36.699Z</time>
      </trkpt>
      <trkpt lat="68.78066" lon="17.6584">
        <ele>31.372248</ele>
        <time>2020-08-27T22:26:41.049Z</time>
      </trkpt>
      <trkpt lat="68.78071" lon="17.657">
        <ele>31.885695</ele>
        <time>2020-08-27T22:26:52.860Z</time>
      </trkpt>
      <trkpt lat="68.78068" lon="17.65554">
        <ele>32.683041</ele>
        <time>2020-08-27T22:27:08.720Z</time>
      </trkpt>
      <trkpt lat="68.78033" lon="17.65148">
        <ele>35.397379</ele>
        <time>2020-08-27T22:27:45.244Z</time>
      </trkpt>
      <trkpt lat="68.7803" lon="17.65099">
        <ele>35.123661</ele>
        <time>2020-08-27T22:27:47.863Z</time>
      </trkpt>
      <trkpt lat="68.78027" lon="17.65052">
        <ele>34.85997</ele>
        <time>2020-08-27T22:27:50.960Z</time>
      </trkpt>
      <trkpt lat="68.78026" lon="17.65043">
        <ele>34.809665</ele>
        <time>2020-08-27T22:27:51.491Z</time>
      </trkpt>
      <trkpt lat="68.78024" lon="17.6501">
        <ele>34.627305</ele>
        <time>2020-08-27T22:27:53.075Z</time>
      </trkpt>
      <trkpt lat="68.78019" lon="17.64866">
        <ele>33.830097</ele>
        <time>2020-08-27T22:28:00.682Z</time>
      </trkpt>
      <trkpt lat="68.78017" lon="17.64517">
        <ele>31.600913</ele>
        <time>2020-08-27T22:28:17.806Z</time>
      </trkpt>
      <trkpt lat="68.78031" lon="17.64252">
        <ele>29.540152</ele>
        <time>2020-08-27T22:28:32.247Z</time>
      </trkpt>
      <trkpt lat="68.78034" lon="17.64212">
        <ele>29.225446</ele>
        <time>2020-08-27T22:28:34.382Z</time>
      </trkpt>
      <trkpt lat="68.78038" lon="17.64124">
        <ele>28.228045</ele>
        <time>2020-08-27T22:28:38.596Z</time>
      </trkpt>
      <trkpt lat="68.7805" lon="17.6402">
        <ele>26.581907</ele>
        <time>2020-08-27T22:28:43.639Z</time>
      </trkpt>
      <trkpt lat="68.78067" lon="17.63919">
        <ele>24.911005</ele>
        <time>2020-08-27T22:28:48.711Z</time>
      </trkpt>
      <trkpt lat="68.78081" lon="17.63829">
        <ele>23.427068</ele>
        <time>2020-08-27T22:28:53.201Z</time>
      </trkpt>
      <trkpt lat="68.78101" lon="17.63699">
        <ele>21.299376</ele>
        <time>2020-08-27T22:28:59.381Z</time>
      </trkpt>
      <trkpt lat="68.78102" lon="17.63691">
        <ele>21.156641</ele>
        <time>2020-08-27T22:28:59.763Z</time>
      </trkpt>
      <trkpt lat="68.78104" lon="17.63676">
        <ele>20.889026</ele>
        <time>2020-08-27T22:29:00.454Z</time>
      </trkpt>
      <trkpt lat="68.7812" lon="17.63576">
        <ele>19.138501</ele>
        <time>2020-08-27T22:29:05.017Z</time>
      </trkpt>
      <trkpt lat="68.78126" lon="17.63541">
        <ele>18.5077</ele>
        <time>2020-08-27T22:29:06.676Z</time>
      </trkpt>
      <trkpt lat="68.7813" lon="17.63517">
        <ele>18.091067</ele>
        <time>2020-08-27T22:29:07.770Z</time>
      </trkpt>
      <trkpt lat="68.78139" lon="17.63473">
        <ele>17.274172</ele>
        <time>2020-08-27T22:29:09.922Z</time>
      </trkpt>
      <trkpt lat="68.78158" lon="17.63384">
        <ele>15.608622</ele>
        <time>2020-08-27T22:29:14.546Z</time>
      </trkpt>
      <trkpt lat="68.78163" lon="17.63355">
        <ele>15.078856</ele>
        <time>2020-08-27T22:29:16.120Z</time>
      </trkpt>
      <trkpt lat="68.78173" lon="17.63296">
        <ele>14.024182</ele>
        <time>2020-08-27T22:29:19.295Z</time>
      </trkpt>
      <trkpt lat="68.78176" lon="17.63276">
        <ele>13.665659</ele>
        <time>2020-08-27T22:29:20.464Z</time>
      </trkpt>
      <trkpt lat="68.78179" lon="17.63256">
        <ele>13.375817</ele>
        <time>2020-08-27T22:29:21.613Z</time>
      </trkpt>
      <trkpt lat="68.78185" lon="17.63216">
        <ele>13.339368</ele>
        <time>2020-08-27T22:29:23.902Z</time>
      </trkpt>
      <trkpt lat="68.78193" lon="17.63166">
        <ele>13.292602</ele>
        <time>2020-08-27T22:29:26.852Z</time>
      </trkpt>
      <trkpt lat="68.78205" lon="17.63082">
        <ele>13.214837</ele>
        <time>2020-08-27T22:29:32.090Z</time>
      </trkpt>
      <trkpt lat="68.78236" lon="17.62865">
        <ele>13.014738</ele>
        <time>2020-08-27T22:29:46.780Z</time>
      </trkpt>
      <trkpt lat="68.78272" lon="17.62608">
        <ele>14.207422</ele>
        <time>2020-08-27T22:30:11.656Z</time>
      </trkpt>
      <trkpt lat="68.78293" lon="17.62474">
        <ele>15.107955</ele>
        <time>2020-08-27T22:30:24.110Z</time>
      </trkpt>
      <trkpt lat="68.78305" lon="17.6241">
        <ele>15.550143</ele>
        <time>2020-08-27T22:30:30.298Z</time>
      </trkpt>
      <trkpt lat="68.78323" lon="17.62316">
        <ele>16.084561</ele>
        <time>2020-08-27T22:30:39.169Z</time>
      </trkpt>
      <trkpt lat="68.78403" lon="17.61891">
        <ele>17.031194</ele>
        <time>2020-08-27T22:31:13.454Z</time>
      </trkpt>
      <trkpt lat="68.7842" lon="17.61804">
        <ele>16.702027</ele>
        <time>2020-08-27T22:31:19.194Z</time>
      </trkpt>
      <trkpt lat="68.7843" lon="17.61756">
        <ele>16.517429</ele>
        <time>2020-08-27T22:31:22.260Z</time>
      </trkpt>
      <trkpt lat="68.78469" lon="17.61589">
        <ele>15.864281</ele>
        <time>2020-08-27T22:31:33.080Z</time>
      </trkpt>
      <trkpt lat="68.78533" lon="17.61402">
        <ele>15.085486</ele>
        <time>2020-08-27T22:31:46.939Z</time>
      </trkpt>
      <trkpt lat="68.78587" lon="17.61083">
        <ele>14.135434</ele>
        <time>2020-08-27T22:32:08.350Z</time>
      </trkpt>
      <trkpt lat="68.78602" lon="17.60988">
        <ele>13.989747</ele>
        <time>2020-08-27T22:32:14.336Z</time>
      </trkpt>
      <trkpt lat="68.78621" lon="17.60864">
        <ele>13.834506</ele>
        <time>2020-08-27T22:32:22.229Z</time>
      </trkpt>
      <trkpt lat="68.78637" lon="17.60765">
        <ele>13.711031</ele>
        <time>2020-08-27T22:32:28.885Z</time>
      </trkpt>
      <trkpt lat="68.78655" lon="17.6068">
        <ele>13.597246</ele>
        <time>2020-08-27T22:32:35.309Z</time>
      </trkpt>
      <trkpt lat="68.78677" lon="17.60606">
        <ele>13.506777</ele>
        <time>2020-08-27T22:32:41.410Z</time>
      </trkpt>
      <trkpt lat="68.78684" lon="17.60582">
        <ele>13.494332</ele>
        <time>2020-08-27T22:32:43.550Z</time>
      </trkpt>
      <trkpt lat="68.78699" lon="17.6051">
        <ele>13.461616</ele>
        <time>2020-08-27T22:32:48.986Z</time>
      </trkpt>
      <trkpt lat="68.78731" lon="17.60253">
        <ele>13.353408</ele>
        <time>2020-08-27T22:33:04.928Z</time>
      </trkpt>
      <trkpt lat="68.78747" lon="17.60186">
        <ele>13.321651</ele>
        <time>2020-08-27T22:33:10.753Z</time>
      </trkpt>
      <trkpt lat="68.78752" lon="17.60172">
        <ele>13.326541</ele>
        <time>2020-08-27T22:33:12.641Z</time>
      </trkpt>
      <trkpt lat="68.7877" lon="17.60131">
        <ele>13.360697</ele>
        <time>2020-08-27T22:33:17.128Z</time>
      </trkpt>
      <trkpt lat="68.78778" lon="17.60109">
        <ele>13.377578</ele>
        <time>2020-08-27T22:33:19.537Z</time>
      </trkpt>
      <trkpt lat="68.78784" lon="17.60093">
        <ele>13.38962</ele>
        <time>2020-08-27T22:33:21.190Z</time>
      </trkpt>
      <trkpt lat="68.78799" lon="17.60028">
        <ele>13.430884</ele>
        <time>2020-08-27T22:33:26.654Z</time>
      </trkpt>
      <trkpt lat="68.78812" lon="17.59941">
        <ele>13.480606</ele>
        <time>2020-08-27T22:33:32.788Z</time>
      </trkpt>
      <trkpt lat="68.78817" lon="17.59893">
        <ele>13.507021</ele>
        <time>2020-08-27T22:33:35.904Z</time>
      </trkpt>
      <trkpt lat="68.7882" lon="17.59844">
        <ele>13.533498</ele>
        <time>2020-08-27T22:33:39.040Z</time>
      </trkpt>
      <trkpt lat="68.78835" lon="17.59578">
        <ele>13.290233</ele>
        <time>2020-08-27T22:33:55.562Z</time>
      </trkpt>
      <trkpt lat="68.78845" lon="17.5951">
        <ele>13.167734</ele>
        <time>2020-08-27T22:34:00.057Z</time>
      </trkpt>
      <trkpt lat="68.78956" lon="17.59183">
        <ele>12.683665</ele>
        <time>2020-08-27T22:34:26.374Z</time>
      </trkpt>
      <trkpt lat="68.7902" lon="17.58834">
        <ele>12.389244</ele>
        <time>2020-08-27T22:34:52.821Z</time>
      </trkpt>
      <trkpt lat="68.79047" lon="17.58619">
        <ele>11.925596</ele>
        <time>2020-08-27T22:35:07.560Z</time>
      </trkpt>
      <trkpt lat="68.79064" lon="17.5853">
        <ele>11.721904</ele>
        <time>2020-08-27T22:35:13.149Z</time>
      </trkpt>
      <trkpt lat="68.7911" lon="17.58342">
        <ele>10.061564</ele>
        <time>2020-08-27T22:35:24.697Z</time>
      </trkpt>
      <trkpt lat="68.79168" lon="17.58051">
        <ele>6.788477</ele>
        <time>2020-08-27T22:35:40.266Z</time>
      </trkpt>
      <trkpt lat="68.79196" lon="17.57984">
        <ele>6.369575</ele>
        <time>2020-08-27T22:35:45.282Z</time>
      </trkpt>
      <trkpt lat="68.79227" lon="17.57933">
        <ele>6.046555</ele>
        <time>2020-08-27T22:35:50.380Z</time>
      </trkpt>
      <trkpt lat="68.79239" lon="17.57914">
        <ele>5.930705</ele>
        <time>2020-08-27T22:35:52.333Z</time>
      </trkpt>
      <trkpt lat="68.79262" lon="17.57856">
        <ele>5.651503</ele>
        <time>2020-08-27T22:35:57.412Z</time>
      </trkpt>
      <trkpt lat="68.79266" lon="17.5784">
        <ele>5.589124</ele>
        <time>2020-08-27T22:35:58.687Z</time>
      </trkpt>
      <trkpt lat="68.79271" lon="17.5782">
        <ele>5.514983</ele>
        <time>2020-08-27T22:36:00.163Z</time>
      </trkpt>
      <trkpt lat="68.7931" lon="17.57618">
        <ele>5.505566</ele>
        <time>2020-08-27T22:36:17.874Z</time>
      </trkpt>
      <trkpt lat="68.79319" lon="17.57543">
        <ele>5.898514</ele>
        <time>2020-08-27T22:36:24.485Z</time>
      </trkpt>
      <trkpt lat="68.79321" lon="17.57517">
        <ele>6.025146</ele>
        <time>2020-08-27T22:36:27.199Z</time>
      </trkpt>
      <trkpt lat="68.79325" lon="17.57452">
        <ele>6.351942</ele>
        <time>2020-08-27T22:36:32.306Z</time>
      </trkpt>
      <trkpt lat="68.79328" lon="17.57398">
        <ele>6.622012</ele>
        <time>2020-08-27T22:36:36.594Z</time>
      </trkpt>
      <trkpt lat="68.79329" lon="17.57379">
        <ele>6.717314</ele>
        <time>2020-08-27T22:36:38.129Z</time>
      </trkpt>
      <trkpt lat="68.7933" lon="17.57366">
        <ele>6.78124</ele>
        <time>2020-08-27T22:36:39.311Z</time>
      </trkpt>
      <trkpt lat="68.79333" lon="17.57322">
        <ele>7.002827</ele>
        <time>2020-08-27T22:36:43.565Z</time>
      </trkpt>
      <trkpt lat="68.79334" lon="17.57311">
        <ele>7.056922</ele>
        <time>2020-08-27T22:36:44.503Z</time>
      </trkpt>
      <trkpt lat="68.79334" lon="17.57306">
        <ele>7.085763</ele>
        <time>2020-08-27T22:36:44.733Z</time>
      </trkpt>
      <trkpt lat="68.79341" lon="17.57262">
        <ele>7.323125</ele>
        <time>2020-08-27T22:36:48.727Z</time>
      </trkpt>
      <trkpt lat="68.79354" lon="17.57228">
        <ele>7.566702</ele>
        <time>2020-08-27T22:36:52.851Z</time>
      </trkpt>
      <trkpt lat="68.79408" lon="17.57161">
        <ele>8.361632</ele>
        <time>2020-08-27T22:37:05.991Z</time>
      </trkpt>
      <trkpt lat="68.79427" lon="17.5712">
        <ele>8.690413</ele>
        <time>2020-08-27T22:37:10.613Z</time>
      </trkpt>
      <trkpt lat="68.79514" lon="17.56812">
        <ele>10.07243</ele>
        <time>2020-08-27T22:37:43.253Z</time>
      </trkpt>
      <trkpt lat="68.79545" lon="17.5667">
        <ele>10.217822</ele>
        <time>2020-08-27T22:37:54.533Z</time>
      </trkpt>
      <trkpt lat="68.79548" lon="17.56655">
        <ele>10.233459</ele>
        <time>2020-08-27T22:37:56.012Z</time>
      </trkpt>
      <trkpt lat="68.79573" lon="17.56538">
        <ele>10.353059</ele>
        <time>2020-08-27T22:38:04.658Z</time>
      </trkpt>
      <trkpt lat="68.79577" lon="17.56516">
        <ele>10.375791</ele>
        <time>2020-08-27T22:38:05.801Z</time>
      </trkpt>
      <trkpt lat="68.79623" lon="17.56315">
        <ele>8.977031</ele>
        <time>2020-08-27T22:38:18.271Z</time>
      </trkpt>
      <trkpt lat="68.79683" lon="17.5612">
        <ele>7.293433</ele>
        <time>2020-08-27T22:38:31.011Z</time>
      </trkpt>
      <trkpt lat="68.79704" lon="17.56058">
        <ele>7.114684</ele>
        <time>2020-08-27T22:38:35.522Z</time>
      </trkpt>
      <trkpt lat="68.7974" lon="17.55946">
        <ele>7.056555</ele>
        <time>2020-08-27T22:38:44.400Z</time>
      </trkpt>
      <trkpt lat="68.79789" lon="17.55796">
        <ele>6.978136</ele>
        <time>2020-08-27T22:38:58.318Z</time>
      </trkpt>
      <trkpt lat="68.79828" lon="17.55679">
        <ele>7.074832</ele>
        <time>2020-08-27T22:39:11.106Z</time>
      </trkpt>
      <trkpt lat="68.79855" lon="17.55596">
        <ele>7.269286</ele>
        <time>2020-08-27T22:39:19.432Z</time>
      </trkpt>
      <trkpt lat="68.79886" lon="17.55501">
        <ele>7.494314</ele>
        <time>2020-08-27T22:39:28.381Z</time>
      </trkpt>
      <trkpt lat="68.79909" lon="17.55434">
        <ele>7.653368</ele>
        <time>2020-08-27T22:39:34.545Z</time>
      </trkpt>
      <trkpt lat="68.79946" lon="17.55319">
        <ele>7.787899</ele>
        <time>2020-08-27T22:39:44.369Z</time>
      </trkpt>
      <trkpt lat="68.79962" lon="17.5527">
        <ele>7.761873</ele>
        <time>2020-08-27T22:39:48.370Z</time>
      </trkpt>
      <trkpt lat="68.79983" lon="17.55186">
        <ele>7.722432</ele>
        <time>2020-08-27T22:39:54.433Z</time>
      </trkpt>
      <trkpt lat="68.80023" lon="17.54999">
        <ele>7.637658</ele>
        <time>2020-08-27T22:40:08.177Z</time>
      </trkpt>
      <trkpt lat="68.80035" lon="17.54944">
        <ele>7.680988</ele>
        <time>2020-08-27T22:40:12.335Z</time>
      </trkpt>
      <trkpt lat="68.8005" lon="17.54867">
        <ele>8.035351</ele>
        <time>2020-08-27T22:40:18.317Z</time>
      </trkpt>
      <trkpt lat="68.80062" lon="17.54794">
        <ele>8.364223</ele>
        <time>2020-08-27T22:40:24.099Z</time>
      </trkpt>
      <trkpt lat="68.80078" lon="17.54691">
        <ele>8.819596</ele>
        <time>2020-08-27T22:40:32.950Z</time>
      </trkpt>
      <trkpt lat="68.80128" lon="17.54372">
        <ele>10.047039</ele>
        <time>2020-08-27T22:41:02.896Z</time>
      </trkpt>
      <trkpt lat="68.80139" lon="17.54323">
        <ele>10.208574</ele>
        <time>2020-08-27T22:41:07.749Z</time>
      </trkpt>
      <trkpt lat="68.8014" lon="17.54317">
        <ele>10.227474</ele>
        <time>2020-08-27T22:41:08.461Z</time>
      </trkpt>
      <trkpt lat="68.80179" lon="17.54164">
        <ele>10.748078</ele>
        <time>2020-08-27T22:41:21.571Z</time>
      </trkpt>
      <trkpt lat="68.80185" lon="17.5414">
        <ele>10.828168</ele>
        <time>2020-08-27T22:41:23.640Z</time>
      </trkpt>
      <trkpt lat="68.8019" lon="17.54122">
        <ele>10.888463</ele>
        <time>2020-08-27T22:41:24.749Z</time>
      </trkpt>
      <trkpt lat="68.80292" lon="17.53728">
        <ele>9.912074</ele>
        <time>2020-08-27T22:41:52.417Z</time>
      </trkpt>
      <trkpt lat="68.80302" lon="17.53655">
        <ele>9.741088</ele>
        <time>2020-08-27T22:41:57.061Z</time>
      </trkpt>
      <trkpt lat="68.80322" lon="17.53427">
        <ele>9.579644</ele>
        <time>2020-08-27T22:42:11.500Z</time>
      </trkpt>
      <trkpt lat="68.80333" lon="17.53368">
        <ele>9.533007</ele>
        <time>2020-08-27T22:42:15.826Z</time>
      </trkpt>
      <trkpt lat="68.80367" lon="17.53251">
        <ele>9.43027</ele>
        <time>2020-08-27T22:42:25.593Z</time>
      </trkpt>
      <trkpt lat="68.80769" lon="17.51911">
        <ele>9.12718</ele>
        <time>2020-08-27T22:44:18.592Z</time>
      </trkpt>
      <trkpt lat="68.81091" lon="17.51156">
        <ele>7.109982</ele>
        <time>2020-08-27T22:45:26.063Z</time>
      </trkpt>
      <trkpt lat="68.81277" lon="17.50539">
        <ele>9.7177</ele>
        <time>2020-08-27T22:46:26.877Z</time>
      </trkpt>
      <trkpt lat="68.81334" lon="17.50265">
        <ele>11.507642</ele>
        <time>2020-08-27T22:46:53.990Z</time>
      </trkpt>
      <trkpt lat="68.81387" lon="17.50001">
        <ele>13.878098</ele>
        <time>2020-08-27T22:47:21.643Z</time>
      </trkpt>
      <trkpt lat="68.81402" lon="17.49927">
        <ele>14.541807</ele>
        <time>2020-08-27T22:47:29.461Z</time>
      </trkpt>
      <trkpt lat="68.81424" lon="17.49789">
        <ele>15.584255</ele>
        <time>2020-08-27T22:47:43.163Z</time>
      </trkpt>
      <trkpt lat="68.8151" lon="17.49138">
        <ele>18.753117</ele>
        <time>2020-08-27T22:48:38.699Z</time>
      </trkpt>
      <trkpt lat="68.81632" lon="17.48544">
        <ele>19.869601</ele>
        <time>2020-08-27T22:49:25.144Z</time>
      </trkpt>
      <trkpt lat="68.81642" lon="17.48459">
        <ele>19.927818</ele>
        <time>2020-08-27T22:49:31.135Z</time>
      </trkpt>
      <trkpt lat="68.81652" lon="17.48288">
        <ele>19.969206</ele>
        <time>2020-08-27T22:49:41.422Z</time>
      </trkpt>
      <trkpt lat="68.81654" lon="17.48253">
        <ele>19.977746</ele>
        <time>2020-08-27T22:49:44.755Z</time>
      </trkpt>
      <trkpt lat="68.81657" lon="17.48214">
        <ele>19.987168</ele>
        <time>2020-08-27T22:49:46.900Z</time>
      </trkpt>
      <trkpt lat="68.81675" lon="17.48073">
        <ele>20.023029</ele>
        <time>2020-08-27T22:49:57.659Z</time>
      </trkpt>
      <trkpt lat="68.81705" lon="17.47922">
        <ele>19.859179</ele>
        <time>2020-08-27T22:50:08.352Z</time>
      </trkpt>
      <trkpt lat="68.81722" lon="17.47838">
        <ele>19.693322</ele>
        <time>2020-08-27T22:50:14.405Z</time>
      </trkpt>
      <trkpt lat="68.81836" lon="17.47268">
        <ele>17.110178</ele>
        <time>2020-08-27T22:50:51.939Z</time>
      </trkpt>
      <trkpt lat="68.8189" lon="17.46911">
        <ele>13.94327</ele>
        <time>2020-08-27T22:51:09.976Z</time>
      </trkpt>
      <trkpt lat="68.81945" lon="17.46651">
        <ele>11.986203</ele>
        <time>2020-08-27T22:51:24.888Z</time>
      </trkpt>
      <trkpt lat="68.81963" lon="17.46533">
        <ele>13.274731</ele>
        <time>2020-08-27T22:51:33.660Z</time>
      </trkpt>
      <trkpt lat="68.81965" lon="17.46513">
        <ele>13.48665</ele>
        <time>2020-08-27T22:51:34.558Z</time>
      </trkpt>
      <trkpt lat="68.81967" lon="17.46489">
        <ele>13.736641</ele>
        <time>2020-08-27T22:51:38.843Z</time>
      </trkpt>
      <trkpt lat="68.81969" lon="17.46392">
        <ele>14.715068</ele>
        <time>2020-08-27T22:51:48.203Z</time>
      </trkpt>
      <trkpt lat="68.81956" lon="17.4607">
        <ele>20.272772</ele>
        <time>2020-08-27T22:52:32.968Z</time>
      </trkpt>
      <trkpt lat="68.81935" lon="17.45834">
        <ele>26.621818</ele>
        <time>2020-08-27T22:53:13.575Z</time>
      </trkpt>
      <trkpt lat="68.81918" lon="17.45707">
        <ele>29.832855</ele>
        <time>2020-08-27T22:53:32.304Z</time>
      </trkpt>
      <trkpt lat="68.81908" lon="17.45656">
        <ele>30.56846</ele>
        <time>2020-08-27T22:53:40.623Z</time>
      </trkpt>
      <trkpt lat="68.819" lon="17.45618">
        <ele>31.132142</ele>
        <time>2020-08-27T22:53:45.524Z</time>
      </trkpt>
      <trkpt lat="68.81805" lon="17.45228">
        <ele>36.190872</ele>
        <time>2020-08-27T22:54:29.871Z</time>
      </trkpt>
      <trkpt lat="68.81792" lon="17.4515">
        <ele>36.482822</ele>
        <time>2020-08-27T22:54:35.105Z</time>
      </trkpt>
      <trkpt lat="68.81759" lon="17.44303">
        <ele>38.809073</ele>
        <time>2020-08-27T22:55:36.114Z</time>
      </trkpt>
      <trkpt lat="68.81729" lon="17.44058">
        <ele>39.562149</ele>
        <time>2020-08-27T22:55:55.983Z</time>
      </trkpt>
      <trkpt lat="68.81721" lon="17.43994">
        <ele>39.756739</ele>
        <time>2020-08-27T22:56:01.304Z</time>
      </trkpt>
      <trkpt lat="68.8172" lon="17.43966">
        <ele>39.838389</ele>
        <time>2020-08-27T22:56:03.348Z</time>
      </trkpt>
      <trkpt lat="68.81719" lon="17.43952">
        <ele>39.880113</ele>
        <time>2020-08-27T22:56:03.971Z</time>
      </trkpt>
      <trkpt lat="68.81716" lon="17.43726">
        <ele>39.817296</ele>
        <time>2020-08-27T22:56:20.619Z</time>
      </trkpt>
      <trkpt lat="68.81705" lon="17.43583">
        <ele>39.480382</ele>
        <time>2020-08-27T22:56:30.316Z</time>
      </trkpt>
      <trkpt lat="68.81648" lon="17.43294">
        <ele>38.011221</ele>
        <time>2020-08-27T22:56:47.047Z</time>
      </trkpt>
      <trkpt lat="68.81638" lon="17.43204">
        <ele>37.22069</ele>
        <time>2020-08-27T22:56:51.958Z</time>
      </trkpt>
      <trkpt lat="68.81633" lon="17.43146">
        <ele>36.716676</ele>
        <time>2020-08-27T22:56:54.911Z</time>
      </trkpt>
      <trkpt lat="68.81626" lon="17.43091">
        <ele>36.225704</ele>
        <time>2020-08-27T22:56:58.151Z</time>
      </trkpt>
      <trkpt lat="68.81511" lon="17.42554">
        <ele>29.214708</ele>
        <time>2020-08-27T22:57:27.795Z</time>
      </trkpt>
      <trkpt lat="68.81507" lon="17.42533">
        <ele>28.925848</ele>
        <time>2020-08-27T22:57:28.909Z</time>
      </trkpt>
      <trkpt lat="68.81503" lon="17.42506">
        <ele>28.56951</ele>
        <time>2020-08-27T22:57:30.273Z</time>
      </trkpt>
      <trkpt lat="68.81501" lon="17.42482">
        <ele>28.246164</ele>
        <time>2020-08-27T22:57:31.458Z</time>
      </trkpt>
      <trkpt lat="68.81501" lon="17.42462">
        <ele>27.984467</ele>
        <time>2020-08-27T22:57:32.227Z</time>
      </trkpt>
      <trkpt lat="68.81525" lon="17.42119">
        <ele>23.439284</ele>
        <time>2020-08-27T22:57:47.954Z</time>
      </trkpt>
      <trkpt lat="68.81518" lon="17.4201">
        <ele>22.287299</ele>
        <time>2020-08-27T22:57:53.319Z</time>
      </trkpt>
      <trkpt lat="68.81515" lon="17.41995">
        <ele>22.361911</ele>
        <time>2020-08-27T22:57:54.160Z</time>
      </trkpt>
      <trkpt lat="68.8151" lon="17.41977">
        <ele>22.452846</ele>
        <time>2020-08-27T22:57:56.723Z</time>
      </trkpt>
      <trkpt lat="68.81482" lon="17.4192">
        <ele>22.850646</ele>
        <time>2020-08-27T22:58:03.092Z</time>
      </trkpt>
      <trkpt lat="68.81438" lon="17.41887">
        <ele>23.376792</ele>
        <time>2020-08-27T22:58:13.213Z</time>
      </trkpt>
      <trkpt lat="68.81406" lon="17.41867">
        <ele>23.754573</ele>
        <time>2020-08-27T22:58:21.702Z</time>
      </trkpt>
      <trkpt lat="68.81379" lon="17.4185">
        <ele>24.069701</ele>
        <time>2020-08-27T22:58:29.027Z</time>
      </trkpt>
      <trkpt lat="68.81334" lon="17.41818">
        <ele>25.007972</ele>
        <time>2020-08-27T22:58:42.480Z</time>
      </trkpt>
      <trkpt lat="68.8116" lon="17.41706">
        <ele>29.070967</ele>
        <time>2020-08-27T22:59:28.880Z</time>
      </trkpt>
      <trkpt lat="68.81114" lon="17.41649">
        <ele>29.291155</ele>
        <time>2020-08-27T22:59:39.874Z</time>
      </trkpt>
      <trkpt lat="68.81079" lon="17.41579">
        <ele>29.481674</ele>
        <time>2020-08-27T22:59:47.995Z</time>
      </trkpt>
      <trkpt lat="68.81034" lon="17.41438">
        <ele>29.593831</ele>
        <time>2020-08-27T22:59:58.575Z</time>
      </trkpt>
      <trkpt lat="68.80924" lon="17.40912">
        <ele>27.00774</ele>
        <time>2020-08-27T23:00:29.677Z</time>
      </trkpt>
      <trkpt lat="68.80886" lon="17.40763">
        <ele>27.569144</ele>
        <time>2020-08-27T23:00:42.858Z</time>
      </trkpt>
      <trkpt lat="68.80734" lon="17.4041">
        <ele>31.923092</ele>
        <time>2020-08-27T23:01:39.159Z</time>
      </trkpt>
      <trkpt lat="68.80662" lon="17.40277">
        <ele>33.458688</ele>
        <time>2020-08-27T23:02:00.290Z</time>
      </trkpt>
      <trkpt lat="68.80626" lon="17.40189">
        <ele>33.681251</ele>
        <time>2020-08-27T23:02:10.040Z</time>
      </trkpt>
      <trkpt lat="68.80594" lon="17.40103">
        <ele>33.886681</ele>
        <time>2020-08-27T23:02:17.847Z</time>
      </trkpt>
      <trkpt lat="68.80586" lon="17.40081">
        <ele>33.93752</ele>
        <time>2020-08-27T23:02:19.645Z</time>
      </trkpt>
      <trkpt lat="68.80526" lon="17.39917">
        <ele>33.77346</ele>
        <time>2020-08-27T23:02:32.888Z</time>
      </trkpt>
      <trkpt lat="68.80424" lon="17.39637">
        <ele>32.671458</ele>
        <time>2020-08-27T23:02:56.054Z</time>
      </trkpt>
      <trkpt lat="68.80396" lon="17.39562">
        <ele>32.048977</ele>
        <time>2020-08-27T23:03:02.474Z</time>
      </trkpt>
      <trkpt lat="68.80349" lon="17.39436">
        <ele>31.015642</ele>
        <time>2020-08-27T23:03:12.207Z</time>
      </trkpt>
      <trkpt lat="68.80305" lon="17.39315">
        <ele>30.024468</ele>
        <time>2020-08-27T23:03:20.750Z</time>
      </trkpt>
      <trkpt lat="68.80263" lon="17.39203">
        <ele>28.482283</ele>
        <time>2020-08-27T23:03:28.462Z</time>
      </trkpt>
      <trkpt lat="68.80248" lon="17.39166">
        <ele>27.949243</ele>
        <time>2020-08-27T23:03:31.178Z</time>
      </trkpt>
      <trkpt lat="68.80226" lon="17.39117">
        <ele>27.198304</ele>
        <time>2020-08-27T23:03:34.889Z</time>
      </trkpt>
      <trkpt lat="68.80221" lon="17.39108">
        <ele>27.04242</ele>
        <time>2020-08-27T23:03:35.678Z</time>
      </trkpt>
      <trkpt lat="68.80214" lon="17.39093">
        <ele>26.802633</ele>
        <time>2020-08-27T23:03:36.856Z</time>
      </trkpt>
      <trkpt lat="68.80211" lon="17.39085">
        <ele>26.678816</ele>
        <time>2020-08-27T23:03:37.456Z</time>
      </trkpt>
      <trkpt lat="68.80208" lon="17.39079">
        <ele>26.58161</ele>
        <time>2020-08-27T23:03:37.919Z</time>
      </trkpt>
      <trkpt lat="68.80198" lon="17.39056">
        <ele>26.240351</ele>
        <time>2020-08-27T23:03:39.675Z</time>
      </trkpt>
      <trkpt lat="68.80182" lon="17.39019">
        <ele>25.682051</ele>
        <time>2020-08-27T23:03:42.424Z</time>
      </trkpt>
      <trkpt lat="68.80157" lon="17.38958">
        <ele>25.067144</ele>
        <time>2020-08-27T23:03:46.930Z</time>
      </trkpt>
      <trkpt lat="68.80048" lon="17.38675">
        <ele>23.739284</ele>
        <time>2020-08-27T23:04:10.656Z</time>
      </trkpt>
      <trkpt lat="68.7991" lon="17.38318">
        <ele>24.520371</ele>
        <time>2020-08-27T23:04:48.026Z</time>
      </trkpt>
      <trkpt lat="68.79804" lon="17.38045">
        <ele>25.976106</ele>
        <time>2020-08-27T23:05:18.756Z</time>
      </trkpt>
      <trkpt lat="68.79779" lon="17.37978">
        <ele>26.338505</ele>
        <time>2020-08-27T23:05:26.541Z</time>
      </trkpt>
      <trkpt lat="68.79734" lon="17.3786">
        <ele>26.406314</ele>
        <time>2020-08-27T23:05:39.607Z</time>
      </trkpt>
      <trkpt lat="68.79697" lon="17.37765">
        <ele>26.409215</ele>
        <time>2020-08-27T23:05:48.715Z</time>
      </trkpt>
      <trkpt lat="68.79662" lon="17.37676">
        <ele>26.411967</ele>
        <time>2020-08-27T23:05:56.831Z</time>
      </trkpt>
      <trkpt lat="68.79645" lon="17.37633">
        <ele>26.41327</ele>
        <time>2020-08-27T23:06:00.304Z</time>
      </trkpt>
      <trkpt lat="68.79622" lon="17.37566">
        <ele>25.72284</ele>
        <time>2020-08-27T23:06:05.313Z</time>
      </trkpt>
      <trkpt lat="68.79612" lon="17.37531">
        <ele>25.3559</ele>
        <time>2020-08-27T23:06:07.684Z</time>
      </trkpt>
      <trkpt lat="68.79601" lon="17.37491">
        <ele>24.942109</ele>
        <time>2020-08-27T23:06:10.152Z</time>
      </trkpt>
      <trkpt lat="68.79554" lon="17.37288">
        <ele>22.961455</ele>
        <time>2020-08-27T23:06:21.837Z</time>
      </trkpt>
      <trkpt lat="68.79536" lon="17.3718">
        <ele>22.004237</ele>
        <time>2020-08-27T23:06:27.564Z</time>
      </trkpt>
      <trkpt lat="68.79533" lon="17.37165">
        <ele>21.879993</ele>
        <time>2020-08-27T23:06:28.354Z</time>
      </trkpt>
      <trkpt lat="68.79489" lon="17.36909">
        <ele>19.735632</ele>
        <time>2020-08-27T23:06:42.571Z</time>
      </trkpt>
      <trkpt lat="68.79466" lon="17.36773">
        <ele>18.605238</ele>
        <time>2020-08-27T23:06:50.323Z</time>
      </trkpt>
      <trkpt lat="68.7946" lon="17.36739">
        <ele>18.525231</ele>
        <time>2020-08-27T23:06:52.605Z</time>
      </trkpt>
      <trkpt lat="68.79441" lon="17.36632">
        <ele>18.381934</ele>
        <time>2020-08-27T23:06:59.557Z</time>
      </trkpt>
      <trkpt lat="68.79405" lon="17.36434">
        <ele>18.118359</ele>
        <time>2020-08-27T23:07:13.453Z</time>
      </trkpt>
      <trkpt lat="68.79397" lon="17.36403">
        <ele>18.073255</ele>
        <time>2020-08-27T23:07:15.790Z</time>
      </trkpt>
      <trkpt lat="68.79392" lon="17.36387">
        <ele>18.04717</ele>
        <time>2020-08-27T23:07:17.708Z</time>
      </trkpt>
      <trkpt lat="68.79293" lon="17.36126">
        <ele>18.143502</ele>
        <time>2020-08-27T23:07:43.465Z</time>
      </trkpt>
      <trkpt lat="68.79214" lon="17.35915">
        <ele>17.975912</ele>
        <time>2020-08-27T23:08:03.007Z</time>
      </trkpt>
      <trkpt lat="68.79206" lon="17.35894">
        <ele>17.910729</ele>
        <time>2020-08-27T23:08:04.742Z</time>
      </trkpt>
      <trkpt lat="68.79141" lon="17.35723">
        <ele>17.355116</ele>
        <time>2020-08-27T23:08:19.000Z</time>
      </trkpt>
      <trkpt lat="68.79045" lon="17.35469">
        <ele>16.463313</ele>
        <time>2020-08-27T23:08:39.675Z</time>
      </trkpt>
      <trkpt lat="68.79002" lon="17.35355">
        <ele>16.052783</ele>
        <time>2020-08-27T23:08:49.293Z</time>
      </trkpt>
      <trkpt lat="68.78966" lon="17.35255">
        <ele>15.817341</ele>
        <time>2020-08-27T23:08:58.208Z</time>
      </trkpt>
      <trkpt lat="68.78953" lon="17.35216">
        <ele>15.764333</ele>
        <time>2020-08-27T23:09:01.738Z</time>
      </trkpt>
      <trkpt lat="68.78919" lon="17.35101">
        <ele>15.617989</ele>
        <time>2020-08-27T23:09:11.698Z</time>
      </trkpt>
      <trkpt lat="68.78854" lon="17.34831">
        <ele>14.852518</ele>
        <time>2020-08-27T23:09:31.172Z</time>
      </trkpt>
      <trkpt lat="68.78754" lon="17.34456">
        <ele>12.641652</ele>
        <time>2020-08-27T23:09:55.282Z</time>
      </trkpt>
      <trkpt lat="68.78695" lon="17.34233">
        <ele>11.883285</ele>
        <time>2020-08-27T23:10:10.485Z</time>
      </trkpt>
      <trkpt lat="68.78596" lon="17.33862">
        <ele>12.293594</ele>
        <time>2020-08-27T23:10:43.557Z</time>
      </trkpt>
      <trkpt lat="68.78537" lon="17.33663">
        <ele>12.844385</ele>
        <time>2020-08-27T23:11:03.274Z</time>
      </trkpt>
      <trkpt lat="68.78524" lon="17.33628">
        <ele>12.901315</ele>
        <time>2020-08-27T23:11:07.095Z</time>
      </trkpt>
      <trkpt lat="68.78501" lon="17.3357">
        <ele>12.995899</ele>
        <time>2020-08-27T23:11:13.216Z</time>
      </trkpt>
      <trkpt lat="68.78441" lon="17.33415">
        <ele>13.248226</ele>
        <time>2020-08-27T23:11:28.583Z</time>
      </trkpt>
      <trkpt lat="68.78378" lon="17.33253">
        <ele>12.502063</ele>
        <time>2020-08-27T23:11:42.309Z</time>
      </trkpt>
      <trkpt lat="68.78339" lon="17.33134">
        <ele>11.780772</ele>
        <time>2020-08-27T23:11:50.669Z</time>
      </trkpt>
      <trkpt lat="68.78311" lon="17.32999">
        <ele>11.08178</ele>
        <time>2020-08-27T23:11:58.742Z</time>
      </trkpt>
      <trkpt lat="68.78303" lon="17.32945">
        <ele>10.930671</ele>
        <time>2020-08-27T23:12:01.912Z</time>
      </trkpt>
      <trkpt lat="68.78301" lon="17.32928">
        <ele>10.886879</ele>
        <time>2020-08-27T23:12:02.857Z</time>
      </trkpt>
      <trkpt lat="68.78299" lon="17.32917">
        <ele>10.856426</ele>
        <time>2020-08-27T23:12:03.459Z</time>
      </trkpt>
      <trkpt lat="68.78283" lon="17.32818">
        <ele>10.588633</ele>
        <time>2020-08-27T23:12:09.443Z</time>
      </trkpt>
      <trkpt lat="68.78265" lon="17.32756">
        <ele>10.389099</ele>
        <time>2020-08-27T23:12:14.025Z</time>
      </trkpt>
      <trkpt lat="68.78238" lon="17.32691">
        <ele>10.142857</ele>
        <time>2020-08-27T23:12:19.828Z</time>
      </trkpt>
      <trkpt lat="68.78167" lon="17.32524">
        <ele>10.158221</ele>
        <time>2020-08-27T23:12:37.641Z</time>
      </trkpt>
      <trkpt lat="68.78138" lon="17.3244">
        <ele>10.437213</ele>
        <time>2020-08-27T23:12:46.589Z</time>
      </trkpt>
      <trkpt lat="68.78111" lon="17.32261">
        <ele>10.905033</ele>
        <time>2020-08-27T23:13:01.377Z</time>
      </trkpt>
      <trkpt lat="68.78052" lon="17.3207">
        <ele>11.081319</ele>
        <time>2020-08-27T23:13:18.117Z</time>
      </trkpt>
      <trkpt lat="68.78037" lon="17.32019">
        <ele>11.097614</ele>
        <time>2020-08-27T23:13:22.610Z</time>
      </trkpt>
      <trkpt lat="68.7803" lon="17.31992">
        <ele>11.106215</ele>
        <time>2020-08-27T23:13:24.652Z</time>
      </trkpt>
      <trkpt lat="68.78011" lon="17.31917">
        <ele>11.128991</ele>
        <time>2020-08-27T23:13:30.526Z</time>
      </trkpt>
      <trkpt lat="68.7801" lon="17.31915">
        <ele>11.129557</ele>
        <time>2020-08-27T23:13:30.645Z</time>
      </trkpt>
      <trkpt lat="68.7794" lon="17.3163">
        <ele>11.500272</ele>
        <time>2020-08-27T23:13:52.155Z</time>
      </trkpt>
      <trkpt lat="68.77895" lon="17.31417">
        <ele>11.85346</ele>
        <time>2020-08-27T23:14:10.586Z</time>
      </trkpt>
      <trkpt lat="68.77849" lon="17.3123">
        <ele>13.017318</ele>
        <time>2020-08-27T23:14:28.532Z</time>
      </trkpt>
      <trkpt lat="68.77833" lon="17.31166">
        <ele>13.426025</ele>
        <time>2020-08-27T23:14:35.196Z</time>
      </trkpt>
      <trkpt lat="68.778" lon="17.31019">
        <ele>14.351989</ele>
        <time>2020-08-27T23:14:49.960Z</time>
      </trkpt>
      <trkpt lat="68.77784" lon="17.30914">
        <ele>14.655855</ele>
        <time>2020-08-27T23:14:59.755Z</time>
      </trkpt>
      <trkpt lat="68.77761" lon="17.30602">
        <ele>15.18408</ele>
        <time>2020-08-27T23:15:22.528Z</time>
      </trkpt>
      <trkpt lat="68.77709" lon="17.30126">
        <ele>13.632865</ele>
        <time>2020-08-27T23:15:50.017Z</time>
      </trkpt>
      <trkpt lat="68.77705" lon="17.29941">
        <ele>13.006475</ele>
        <time>2020-08-27T23:15:59.703Z</time>
      </trkpt>
      <trkpt lat="68.77726" lon="17.29574">
        <ele>12.11043</ele>
        <time>2020-08-27T23:16:21.164Z</time>
      </trkpt>
      <trkpt lat="68.7772" lon="17.29328">
        <ele>13.532253</ele>
        <time>2020-08-27T23:16:39.992Z</time>
      </trkpt>
      <trkpt lat="68.77712" lon="17.29222">
        <ele>14.308133</ele>
        <time>2020-08-27T23:16:49.586Z</time>
      </trkpt>
      <trkpt lat="68.77693" lon="17.29117">
        <ele>15.140037</ele>
        <time>2020-08-27T23:17:01.162Z</time>
      </trkpt>
      <trkpt lat="68.77627" lon="17.28899">
        <ele>18.175522</ele>
        <time>2020-08-27T23:17:32.355Z</time>
      </trkpt>
      <trkpt lat="68.77573" lon="17.2866">
        <ele>21.371144</ele>
        <time>2020-08-27T23:18:00.883Z</time>
      </trkpt>
      <trkpt lat="68.77518" lon="17.28493">
        <ele>21.920562</ele>
        <time>2020-08-27T23:18:19.252Z</time>
      </trkpt>
      <trkpt lat="68.77473" lon="17.28403">
        <ele>22.29067</ele>
        <time>2020-08-27T23:18:28.944Z</time>
      </trkpt>
      <trkpt lat="68.77452" lon="17.28334">
        <ele>22.512182</ele>
        <time>2020-08-27T23:18:34.035Z</time>
      </trkpt>
      <trkpt lat="68.77446" lon="17.28292">
        <ele>22.637068</ele>
        <time>2020-08-27T23:18:36.466Z</time>
      </trkpt>
      <trkpt lat="68.77446" lon="17.28248">
        <ele>22.776958</ele>
        <time>2020-08-27T23:18:38.828Z</time>
      </trkpt>
      <trkpt lat="68.77484" lon="17.27889">
        <ele>23.950579</ele>
        <time>2020-08-27T23:19:04.822Z</time>
      </trkpt>
      <trkpt lat="68.77488" lon="17.27754">
        <ele>26.188955</ele>
        <time>2020-08-27T23:19:19.584Z</time>
      </trkpt>
      <trkpt lat="68.77473" lon="17.27647">
        <ele>29.019072</ele>
        <time>2020-08-27T23:19:34.393Z</time>
      </trkpt>
      <trkpt lat="68.77392" lon="17.27378">
        <ele>37.741647</ele>
        <time>2020-08-27T23:20:32.774Z</time>
      </trkpt>
      <trkpt lat="68.77358" lon="17.27266">
        <ele>41.442776</ele>
        <time>2020-08-27T23:20:57.477Z</time>
      </trkpt>
      <trkpt lat="68.77332" lon="17.27183">
        <ele>44.168642</ele>
        <time>2020-08-27T23:21:14.274Z</time>
      </trkpt>
      <trkpt lat="68.77301" lon="17.27079">
        <ele>47.568776</ele>
        <time>2020-08-27T23:21:33.061Z</time>
      </trkpt>
      <trkpt lat="68.77225" lon="17.26944">
        <ele>48.808589</ele>
        <time>2020-08-27T23:21:56.985Z</time>
      </trkpt>
      <trkpt lat="68.77205" lon="17.2693">
        <ele>48.760176</ele>
        <time>2020-08-27T23:22:01.074Z</time>
      </trkpt>
      <trkpt lat="68.7718" lon="17.26935">
        <ele>48.7024</ele>
        <time>2020-08-27T23:22:04.569Z</time>
      </trkpt>
      <trkpt lat="68.77139" lon="17.26979">
        <ele>48.598465</ele>
        <time>2020-08-27T23:22:10.528Z</time>
      </trkpt>
      <trkpt lat="68.77127" lon="17.27">
        <ele>48.565873</ele>
        <time>2020-08-27T23:22:12.303Z</time>
      </trkpt>
      <trkpt lat="68.77126" lon="17.27001">
        <ele>48.564717</ele>
        <time>2020-08-27T23:22:12.363Z</time>
      </trkpt>
      <trkpt lat="68.77067" lon="17.2711">
        <ele>45.772389</ele>
        <time>2020-08-27T23:22:21.237Z</time>
      </trkpt>
      <trkpt lat="68.77038" lon="17.27147">
        <ele>44.442225</ele>
        <time>2020-08-27T23:22:25.338Z</time>
      </trkpt>
      <trkpt lat="68.77031" lon="17.27151">
        <ele>44.142027</ele>
        <time>2020-08-27T23:22:26.093Z</time>
      </trkpt>
      <trkpt lat="68.77031" lon="17.27151">
        <ele>44.142027</ele>
        <time>2020-08-27T23:22:26.097Z</time>
      </trkpt>
      <trkpt lat="68.77017" lon="17.27155">
        <ele>43.586576</ele>
        <time>2020-08-27T23:22:27.892Z</time>
      </trkpt>
      <trkpt lat="68.76997" lon="17.27149">
        <ele>42.732026</ele>
        <time>2020-08-27T23:22:30.280Z</time>
      </trkpt>
      <trkpt lat="68.76987" lon="17.27141">
        <ele>42.279258</ele>
        <time>2020-08-27T23:22:31.636Z</time>
      </trkpt>
      <trkpt lat="68.76942" lon="17.27103">
        <ele>40.834134</ele>
        <time>2020-08-27T23:22:37.720Z</time>
      </trkpt>
      <trkpt lat="68.76812" lon="17.26993">
        <ele>39.238705</ele>
        <time>2020-08-27T23:22:57.872Z</time>
      </trkpt>
      <trkpt lat="68.76776" lon="17.26964">
        <ele>39.030296</ele>
        <time>2020-08-27T23:23:06.365Z</time>
      </trkpt>
      <trkpt lat="68.76716" lon="17.26912">
        <ele>39.744501</ele>
        <time>2020-08-27T23:23:21.706Z</time>
      </trkpt>
      <trkpt lat="68.76669" lon="17.26873">
        <ele>40.295612</ele>
        <time>2020-08-27T23:23:33.735Z</time>
      </trkpt>
      <trkpt lat="68.76639" lon="17.26848">
        <ele>40.646814</ele>
        <time>2020-08-27T23:23:40.005Z</time>
      </trkpt>
      <trkpt lat="68.76623" lon="17.26832">
        <ele>40.83716</ele>
        <time>2020-08-27T23:23:42.798Z</time>
      </trkpt>
      <trkpt lat="68.76574" lon="17.26761">
        <ele>40.249751</ele>
        <time>2020-08-27T23:23:52.878Z</time>
      </trkpt>
      <trkpt lat="68.76549" lon="17.26699">
        <ele>39.750926</ele>
        <time>2020-08-27T23:23:58.063Z</time>
      </trkpt>
      <trkpt lat="68.76544" lon="17.26679">
        <ele>39.62381</ele>
        <time>2020-08-27T23:23:59.393Z</time>
      </trkpt>
      <trkpt lat="68.76538" lon="17.26652">
        <ele>39.455545</ele>
        <time>2020-08-27T23:24:00.836Z</time>
      </trkpt>
      <trkpt lat="68.76511" lon="17.26418">
        <ele>38.156279</ele>
        <time>2020-08-27T23:24:12.959Z</time>
      </trkpt>
      <trkpt lat="68.76501" lon="17.26375">
        <ele>37.910545</ele>
        <time>2020-08-27T23:24:15.371Z</time>
      </trkpt>
      <trkpt lat="68.76481" lon="17.26335">
        <ele>37.588684</ele>
        <time>2020-08-27T23:24:18.944Z</time>
      </trkpt>
      <trkpt lat="68.76424" lon="17.26261">
        <ele>36.75219</ele>
        <time>2020-08-27T23:24:28.396Z</time>
      </trkpt>
      <trkpt lat="68.76402" lon="17.26231">
        <ele>36.432223</ele>
        <time>2020-08-27T23:24:32.423Z</time>
      </trkpt>
      <trkpt lat="68.76337" lon="17.26117">
        <ele>35.72227</ele>
        <time>2020-08-27T23:24:45.277Z</time>
      </trkpt>
      <trkpt lat="68.76293" lon="17.2603">
        <ele>35.443545</ele>
        <time>2020-08-27T23:24:55.299Z</time>
      </trkpt>
      <trkpt lat="68.76283" lon="17.26008">
        <ele>35.377071</ele>
        <time>2020-08-27T23:24:57.279Z</time>
      </trkpt>
      <trkpt lat="68.76222" lon="17.25813">
        <ele>34.698109</ele>
        <time>2020-08-27T23:25:12.446Z</time>
      </trkpt>
      <trkpt lat="68.76186" lon="17.25731">
        <ele>33.928761</ele>
        <time>2020-08-27T23:25:19.122Z</time>
      </trkpt>
      <trkpt lat="68.76176" lon="17.25715">
        <ele>33.725532</ele>
        <time>2020-08-27T23:25:20.686Z</time>
      </trkpt>
      <trkpt lat="68.76113" lon="17.25626">
        <ele>32.546336</ele>
        <time>2020-08-27T23:25:30.534Z</time>
      </trkpt>
      <trkpt lat="68.7607" lon="17.25567">
        <ele>32.052872</ele>
        <time>2020-08-27T23:25:37.553Z</time>
      </trkpt>
      <trkpt lat="68.7606" lon="17.25553">
        <ele>32.100849</ele>
        <time>2020-08-27T23:25:39.441Z</time>
      </trkpt>
      <trkpt lat="68.7603" lon="17.25516">
        <ele>32.233971</ele>
        <time>2020-08-27T23:25:44.538Z</time>
      </trkpt>
      <trkpt lat="68.75994" lon="17.25479">
        <ele>32.391257</ele>
        <time>2020-08-27T23:25:51.631Z</time>
      </trkpt>
      <trkpt lat="68.75961" lon="17.25467">
        <ele>32.531796</ele>
        <time>2020-08-27T23:25:58.304Z</time>
      </trkpt>
      <trkpt lat="68.75923" lon="17.25468">
        <ele>32.686312</ele>
        <time>2020-08-27T23:26:06.716Z</time>
      </trkpt>
      <trkpt lat="68.75887" lon="17.25495">
        <ele>33.334972</ele>
        <time>2020-08-27T23:26:16.459Z</time>
      </trkpt>
      <trkpt lat="68.75862" lon="17.25538">
        <ele>34.016888</ele>
        <time>2020-08-27T23:26:25.640Z</time>
      </trkpt>
      <trkpt lat="68.7584" lon="17.25596">
        <ele>34.7243</ele>
        <time>2020-08-27T23:26:35.380Z</time>
      </trkpt>
      <trkpt lat="68.75782" lon="17.25798">
        <ele>36.880661</ele>
        <time>2020-08-27T23:26:57.784Z</time>
      </trkpt>
      <trkpt lat="68.75775" lon="17.25814">
        <ele>36.76253</ele>
        <time>2020-08-27T23:27:00.035Z</time>
      </trkpt>
      <trkpt lat="68.75766" lon="17.25833">
        <ele>36.584362</ele>
        <time>2020-08-27T23:27:01.695Z</time>
      </trkpt>
      <trkpt lat="68.75721" lon="17.25878">
        <ele>35.823254</ele>
        <time>2020-08-27T23:27:10.294Z</time>
      </trkpt>
      <trkpt lat="68.75712" lon="17.25886">
        <ele>35.68449</ele>
        <time>2020-08-27T23:27:11.749Z</time>
      </trkpt>
      <trkpt lat="68.75707" lon="17.25893">
        <ele>35.597861</ele>
        <time>2020-08-27T23:27:12.499Z</time>
      </trkpt>
      <trkpt lat="68.75684" lon="17.2595">
        <ele>35.108704</ele>
        <time>2020-08-27T23:27:17.084Z</time>
      </trkpt>
      <trkpt lat="68.75674" lon="17.26014">
        <ele>34.713587</ele>
        <time>2020-08-27T23:27:20.444Z</time>
      </trkpt>
      <trkpt lat="68.75671" lon="17.26046">
        <ele>34.528867</ele>
        <time>2020-08-27T23:27:22.063Z</time>
      </trkpt>
      <trkpt lat="68.75668" lon="17.26108">
        <ele>34.169209</ele>
        <time>2020-08-27T23:27:24.943Z</time>
      </trkpt>
      <trkpt lat="68.75647" lon="17.26226">
        <ele>32.819123</ele>
        <time>2020-08-27T23:27:30.610Z</time>
      </trkpt>
      <trkpt lat="68.75582" lon="17.2643">
        <ele>29.823421</ele>
        <time>2020-08-27T23:27:43.294Z</time>
      </trkpt>
      <trkpt lat="68.75542" lon="17.26549">
        <ele>28.488062</ele>
        <time>2020-08-27T23:27:52.436Z</time>
      </trkpt>
      <trkpt lat="68.7552" lon="17.26613">
        <ele>28.316088</ele>
        <time>2020-08-27T23:27:58.180Z</time>
      </trkpt>
      <trkpt lat="68.7548" lon="17.2671">
        <ele>28.025401</ele>
        <time>2020-08-27T23:28:07.395Z</time>
      </trkpt>
      <trkpt lat="68.75453" lon="17.26765">
        <ele>27.842412</ele>
        <time>2020-08-27T23:28:12.859Z</time>
      </trkpt>
      <trkpt lat="68.75438" lon="17.26796">
        <ele>27.739097</ele>
        <time>2020-08-27T23:28:16.823Z</time>
      </trkpt>
      <trkpt lat="68.7541" lon="17.26856">
        <ele>27.330836</ele>
        <time>2020-08-27T23:28:23.543Z</time>
      </trkpt>
      <trkpt lat="68.75409" lon="17.26858">
        <ele>27.304225</ele>
        <time>2020-08-27T23:28:23.656Z</time>
      </trkpt>
      <trkpt lat="68.75319" lon="17.27002">
        <ele>24.864624</ele>
        <time>2020-08-27T23:28:38.739Z</time>
      </trkpt>
      <trkpt lat="68.75296" lon="17.2708">
        <ele>24.007834</ele>
        <time>2020-08-27T23:28:43.333Z</time>
      </trkpt>
      <trkpt lat="68.75246" lon="17.27293">
        <ele>22.005595</ele>
        <time>2020-08-27T23:28:54.782Z</time>
      </trkpt>
      <trkpt lat="68.75217" lon="17.27474">
        <ele>20.487114</ele>
        <time>2020-08-27T23:29:04.825Z</time>
      </trkpt>
      <trkpt lat="68.75189" lon="17.27805">
        <ele>21.067933</ele>
        <time>2020-08-27T23:29:29.807Z</time>
      </trkpt>
      <trkpt lat="68.7516" lon="17.27992">
        <ele>22.415942</ele>
        <time>2020-08-27T23:29:49.766Z</time>
      </trkpt>
      <trkpt lat="68.75141" lon="17.28197">
        <ele>24.039616</ele>
        <time>2020-08-27T23:30:11.234Z</time>
      </trkpt>
      <trkpt lat="68.75063" lon="17.28624">
        <ele>26.660365</ele>
        <time>2020-08-27T23:30:53.128Z</time>
      </trkpt>
      <trkpt lat="68.75016" lon="17.28796">
        <ele>26.176698</ele>
        <time>2020-08-27T23:31:05.394Z</time>
      </trkpt>
      <trkpt lat="68.74988" lon="17.28999">
        <ele>25.254475</ele>
        <time>2020-08-27T23:31:16.339Z</time>
      </trkpt>
      <trkpt lat="68.74951" lon="17.29123">
        <ele>23.736682</ele>
        <time>2020-08-27T23:31:23.867Z</time>
      </trkpt>
      <trkpt lat="68.74926" lon="17.29267">
        <ele>22.2165</ele>
        <time>2020-08-27T23:31:31.518Z</time>
      </trkpt>
      <trkpt lat="68.74869" lon="17.29432">
        <ele>20.819486</ele>
        <time>2020-08-27T23:31:43.200Z</time>
      </trkpt>
      <trkpt lat="68.74846" lon="17.29592">
        <ele>20.383731</ele>
        <time>2020-08-27T23:31:53.542Z</time>
      </trkpt>
      <trkpt lat="68.74796" lon="17.29822">
        <ele>19.49298</ele>
        <time>2020-08-27T23:32:11.780Z</time>
      </trkpt>
      <trkpt lat="68.74756" lon="17.29916">
        <ele>18.57275</ele>
        <time>2020-08-27T23:32:19.818Z</time>
      </trkpt>
      <trkpt lat="68.74735" lon="17.29948">
        <ele>18.152284</ele>
        <time>2020-08-27T23:32:23.461Z</time>
      </trkpt>
      <trkpt lat="68.74715" lon="17.29975">
        <ele>17.7632</ele>
        <time>2020-08-27T23:32:26.487Z</time>
      </trkpt>
      <trkpt lat="68.74651" lon="17.30059">
        <ele>16.372711</ele>
        <time>2020-08-27T23:32:35.962Z</time>
      </trkpt>
      <trkpt lat="68.74639" lon="17.30082">
        <ele>15.917804</ele>
        <time>2020-08-27T23:32:37.848Z</time>
      </trkpt>
      <trkpt lat="68.74633" lon="17.30099">
        <ele>15.629484</ele>
        <time>2020-08-27T23:32:38.932Z</time>
      </trkpt>
      <trkpt lat="68.74611" lon="17.30182">
        <ele>14.444945</ele>
        <time>2020-08-27T23:32:43.615Z</time>
      </trkpt>
      <trkpt lat="68.74553" lon="17.30486">
        <ele>10.972102</ele>
        <time>2020-08-27T23:32:59.789Z</time>
      </trkpt>
      <trkpt lat="68.74542" lon="17.30569">
        <ele>11.000938</ele>
        <time>2020-08-27T23:33:04.685Z</time>
      </trkpt>
      <trkpt lat="68.74535" lon="17.30688">
        <ele>11.040282</ele>
        <time>2020-08-27T23:33:11.840Z</time>
      </trkpt>
      <trkpt lat="68.74528" lon="17.31053">
        <ele>13.055262</ele>
        <time>2020-08-27T23:33:42.752Z</time>
      </trkpt>
      <trkpt lat="68.74514" lon="17.3121">
        <ele>15.657352</ele>
        <time>2020-08-27T23:34:00.831Z</time>
      </trkpt>
      <trkpt lat="68.74491" lon="17.31359">
        <ele>18.251919</ele>
        <time>2020-08-27T23:34:21.718Z</time>
      </trkpt>
      <trkpt lat="68.74483" lon="17.31611">
        <ele>24.895727</ele>
        <time>2020-08-27T23:35:00.722Z</time>
      </trkpt>
      <trkpt lat="68.74469" lon="17.31718">
        <ele>28.189728</ele>
        <time>2020-08-27T23:35:19.699Z</time>
      </trkpt>
      <trkpt lat="68.74394" lon="17.31957">
        <ele>36.148108</ele>
        <time>2020-08-27T23:36:10.702Z</time>
      </trkpt>
      <trkpt lat="68.74358" lon="17.32037">
        <ele>38.771208</ele>
        <time>2020-08-27T23:36:29.660Z</time>
      </trkpt>
      <trkpt lat="68.74247" lon="17.32182">
        <ele>43.859583</ele>
        <time>2020-08-27T23:37:05.244Z</time>
      </trkpt>
      <trkpt lat="68.7422" lon="17.32199">
        <ele>44.075761</ele>
        <time>2020-08-27T23:37:10.305Z</time>
      </trkpt>
      <trkpt lat="68.74165" lon="17.32206">
        <ele>44.505403</ele>
        <time>2020-08-27T23:37:20.512Z</time>
      </trkpt>
      <trkpt lat="68.74156" lon="17.32213">
        <ele>44.582263</ele>
        <time>2020-08-27T23:37:21.852Z</time>
      </trkpt>
      <trkpt lat="68.74153" lon="17.32215">
        <ele>44.600494</ele>
        <time>2020-08-27T23:37:22.173Z</time>
      </trkpt>
      <trkpt lat="68.74126" lon="17.32254">
        <ele>44.839476</ele>
        <time>2020-08-27T23:37:27.775Z</time>
      </trkpt>
      <trkpt lat="68.7411" lon="17.32307">
        <ele>44.971864</ele>
        <time>2020-08-27T23:37:32.379Z</time>
      </trkpt>
      <trkpt lat="68.74102" lon="17.32361">
        <ele>44.979593</ele>
        <time>2020-08-27T23:37:35.569Z</time>
      </trkpt>
      <trkpt lat="68.74096" lon="17.3245">
        <ele>44.991424</ele>
        <time>2020-08-27T23:37:40.911Z</time>
      </trkpt>
      <trkpt lat="68.74094" lon="17.32514">
        <ele>44.999719</ele>
        <time>2020-08-27T23:37:45.489Z</time>
      </trkpt>
      <trkpt lat="68.74094" lon="17.32578">
        <ele>45.008062</ele>
        <time>2020-08-27T23:37:49.452Z</time>
      </trkpt>
      <trkpt lat="68.74104" lon="17.33051">
        <ele>43.987983</ele>
        <time>2020-08-27T23:38:22.906Z</time>
      </trkpt>
      <trkpt lat="68.74092" lon="17.3314">
        <ele>43.633431</ele>
        <time>2020-08-27T23:38:27.664Z</time>
      </trkpt>
      <trkpt lat="68.74064" lon="17.33252">
        <ele>42.921101</ele>
        <time>2020-08-27T23:38:34.137Z</time>
      </trkpt>
      <trkpt lat="68.74052" lon="17.33305">
        <ele>41.806052</ele>
        <time>2020-08-27T23:38:37.142Z</time>
      </trkpt>
      <trkpt lat="68.74049" lon="17.33318">
        <ele>41.534311</ele>
        <time>2020-08-27T23:38:37.861Z</time>
      </trkpt>
      <trkpt lat="68.74048" lon="17.33324">
        <ele>41.42389</ele>
        <time>2020-08-27T23:38:38.093Z</time>
      </trkpt>
      <trkpt lat="68.74035" lon="17.33403">
        <ele>39.872708</ele>
        <time>2020-08-27T23:38:42.159Z</time>
      </trkpt>
      <trkpt lat="68.74027" lon="17.3349">
        <ele>38.274376</ele>
        <time>2020-08-27T23:38:46.069Z</time>
      </trkpt>
      <trkpt lat="68.74028" lon="17.33653">
        <ele>35.37328</ele>
        <time>2020-08-27T23:38:52.957Z</time>
      </trkpt>
      <trkpt lat="68.7403" lon="17.33849">
        <ele>31.880344</ele>
        <time>2020-08-27T23:39:01.443Z</time>
      </trkpt>
      <trkpt lat="68.74032" lon="17.33966">
        <ele>29.788331</ele>
        <time>2020-08-27T23:39:06.630Z</time>
      </trkpt>
      <trkpt lat="68.74033" lon="17.34297">
        <ele>24.206052</ele>
        <time>2020-08-27T23:39:21.444Z</time>
      </trkpt>
      <trkpt lat="68.74022" lon="17.34459">
        <ele>21.849439</ele>
        <time>2020-08-27T23:39:29.162Z</time>
      </trkpt>
      <trkpt lat="68.73963" lon="17.35084">
        <ele>12.706273</ele>
        <time>2020-08-27T23:39:58.821Z</time>
      </trkpt>
      <trkpt lat="68.73956" lon="17.35157">
        <ele>11.631358</ele>
        <time>2020-08-27T23:40:02.237Z</time>
      </trkpt>
      <trkpt lat="68.73948" lon="17.3532">
        <ele>10.329247</ele>
        <time>2020-08-27T23:40:09.911Z</time>
      </trkpt>
      <trkpt lat="68.7396" lon="17.35433">
        <ele>9.46865</ele>
        <time>2020-08-27T23:40:15.572Z</time>
      </trkpt>
      <trkpt lat="68.73975" lon="17.35486">
        <ele>8.977444</ele>
        <time>2020-08-27T23:40:19.032Z</time>
      </trkpt>
      <trkpt lat="68.7407" lon="17.3568">
        <ele>7.989548</ele>
        <time>2020-08-27T23:40:40.816Z</time>
      </trkpt>
      <trkpt lat="68.74085" lon="17.3573">
        <ele>8.067463</ele>
        <time>2020-08-27T23:40:45.815Z</time>
      </trkpt>
      <trkpt lat="68.74094" lon="17.35789">
        <ele>8.146278</ele>
        <time>2020-08-27T23:40:50.964Z</time>
      </trkpt>
      <trkpt lat="68.74098" lon="17.35881">
        <ele>8.259309</ele>
        <time>2020-08-27T23:40:58.109Z</time>
      </trkpt>
      <trkpt lat="68.74112" lon="17.36683">
        <ele>6.356692</ele>
        <time>2020-08-27T23:41:45.105Z</time>
      </trkpt>
      <trkpt lat="68.74117" lon="17.36771">
        <ele>5.939004</ele>
        <time>2020-08-27T23:41:49.655Z</time>
      </trkpt>
      <trkpt lat="68.74132" lon="17.36872">
        <ele>5.42988</ele>
        <time>2020-08-27T23:41:55.272Z</time>
      </trkpt>
      <trkpt lat="68.74146" lon="17.36931">
        <ele>5.097714</ele>
        <time>2020-08-27T23:41:58.920Z</time>
      </trkpt>
      <trkpt lat="68.74169" lon="17.36988">
        <ele>4.95929</ele>
        <time>2020-08-27T23:42:03.468Z</time>
      </trkpt>
      <trkpt lat="68.74281" lon="17.37155">
        <ele>4.989471</ele>
        <time>2020-08-27T23:42:25.309Z</time>
      </trkpt>
      <trkpt lat="68.74402" lon="17.37415">
        <ele>7.155613</ele>
        <time>2020-08-27T23:43:03.003Z</time>
      </trkpt>
      <trkpt lat="68.74415" lon="17.37467">
        <ele>7.558102</ele>
        <time>2020-08-27T23:43:08.486Z</time>
      </trkpt>
      <trkpt lat="68.74442" lon="17.37649">
        <ele>8.573014</ele>
        <time>2020-08-27T23:43:24.619Z</time>
      </trkpt>
      <trkpt lat="68.74508" lon="17.37911">
        <ele>9.765353</ele>
        <time>2020-08-27T23:43:48.734Z</time>
      </trkpt>
      <trkpt lat="68.74569" lon="17.38289">
        <ele>10.875032</ele>
        <time>2020-08-27T23:44:18.712Z</time>
      </trkpt>
      <trkpt lat="68.74591" lon="17.3849">
        <ele>11.316173</ele>
        <time>2020-08-27T23:44:34.171Z</time>
      </trkpt>
      <trkpt lat="68.74593" lon="17.38697">
        <ele>11.507403</ele>
        <time>2020-08-27T23:44:48.078Z</time>
      </trkpt>
      <trkpt lat="68.74614" lon="17.3905">
        <ele>12.129516</ele>
        <time>2020-08-27T23:45:11.563Z</time>
      </trkpt>
      <trkpt lat="68.74648" lon="17.39373">
        <ele>13.289503</ele>
        <time>2020-08-27T23:45:37.272Z</time>
      </trkpt>
      <trkpt lat="68.74661" lon="17.39556">
        <ele>14.288495</ele>
        <time>2020-08-27T23:45:53.677Z</time>
      </trkpt>
      <trkpt lat="68.74675" lon="17.39932">
        <ele>16.385448</ele>
        <time>2020-08-27T23:46:26.777Z</time>
      </trkpt>
      <trkpt lat="68.74663" lon="17.40255">
        <ele>16.097976</ele>
        <time>2020-08-27T23:46:46.516Z</time>
      </trkpt>
      <trkpt lat="68.74661" lon="17.40288">
        <ele>16.067835</ele>
        <time>2020-08-27T23:46:48.376Z</time>
      </trkpt>
      <trkpt lat="68.74652" lon="17.40392">
        <ele>15.973386</ele>
        <time>2020-08-27T23:46:54.273Z</time>
      </trkpt>
      <trkpt lat="68.74641" lon="17.40505">
        <ele>15.817777</ele>
        <time>2020-08-27T23:47:00.812Z</time>
      </trkpt>
      <trkpt lat="68.74639" lon="17.40526">
        <ele>15.788111</ele>
        <time>2020-08-27T23:47:02.072Z</time>
      </trkpt>
      <trkpt lat="68.74619" lon="17.40733">
        <ele>15.49636</ele>
        <time>2020-08-27T23:47:14.290Z</time>
      </trkpt>
      <trkpt lat="68.74604" lon="17.40893">
        <ele>15.423724</ele>
        <time>2020-08-27T23:47:25.613Z</time>
      </trkpt>
      <trkpt lat="68.746" lon="17.40953">
        <ele>15.965729</ele>
        <time>2020-08-27T23:47:30.629Z</time>
      </trkpt>
      <trkpt lat="68.74596" lon="17.41034">
        <ele>16.702222</ele>
        <time>2020-08-27T23:47:37.601Z</time>
      </trkpt>
      <trkpt lat="68.74589" lon="17.41227">
        <ele>18.4412</ele>
        <time>2020-08-27T23:47:55.898Z</time>
      </trkpt>
      <trkpt lat="68.74587" lon="17.4131">
        <ele>19.185239</ele>
        <time>2020-08-27T23:48:04.631Z</time>
      </trkpt>
      <trkpt lat="68.74582" lon="17.41443">
        <ele>20.995203</ele>
        <time>2020-08-27T23:48:19.561Z</time>
      </trkpt>
      <trkpt lat="68.74578" lon="17.41585">
        <ele>23.487802</ele>
        <time>2020-08-27T23:48:36.386Z</time>
      </trkpt>
      <trkpt lat="68.74573" lon="17.41737">
        <ele>26.159542</ele>
        <time>2020-08-27T23:48:54.765Z</time>
      </trkpt>
      <trkpt lat="68.7457" lon="17.41845">
        <ele>28.058931</ele>
        <time>2020-08-27T23:49:08.570Z</time>
      </trkpt>
      <trkpt lat="68.74558" lon="17.42142">
        <ele>34.708875</ele>
        <time>2020-08-27T23:49:49.305Z</time>
      </trkpt>
      <trkpt lat="68.74551" lon="17.42226">
        <ele>36.64023</ele>
        <time>2020-08-27T23:50:00.713Z</time>
      </trkpt>
      <trkpt lat="68.74548" lon="17.42262">
        <ele>37.474683</ele>
        <time>2020-08-27T23:50:05.780Z</time>
      </trkpt>
      <trkpt lat="68.74452" lon="17.43072">
        <ele>58.369549</ele>
        <time>2020-08-27T23:52:10.918Z</time>
      </trkpt>
      <trkpt lat="68.74443" lon="17.43123">
        <ele>59.712354</ele>
        <time>2020-08-27T23:52:19.978Z</time>
      </trkpt>
      <trkpt lat="68.74434" lon="17.43162">
        <ele>60.820115</ele>
        <time>2020-08-27T23:52:26.827Z</time>
      </trkpt>
      <trkpt lat="68.74331" lon="17.43548">
        <ele>67.080794</ele>
        <time>2020-08-27T23:53:24.113Z</time>
      </trkpt>
      <trkpt lat="68.74265" lon="17.43718">
        <ele>67.19671</ele>
        <time>2020-08-27T23:53:36.735Z</time>
      </trkpt>
      <trkpt lat="68.74259" lon="17.43735">
        <ele>66.920163</ele>
        <time>2020-08-27T23:53:37.769Z</time>
      </trkpt>
      <trkpt lat="68.74252" lon="17.43763">
        <ele>66.49784</ele>
        <time>2020-08-27T23:53:39.272Z</time>
      </trkpt>
      <trkpt lat="68.74245" lon="17.43797">
        <ele>65.998687</ele>
        <time>2020-08-27T23:53:41.432Z</time>
      </trkpt>
      <trkpt lat="68.74208" lon="17.43992">
        <ele>63.274826</ele>
        <time>2020-08-27T23:53:51.676Z</time>
      </trkpt>
      <trkpt lat="68.74198" lon="17.44046">
        <ele>62.528984</ele>
        <time>2020-08-27T23:53:54.396Z</time>
      </trkpt>
      <trkpt lat="68.74174" lon="17.44144">
        <ele>60.471081</ele>
        <time>2020-08-27T23:53:59.431Z</time>
      </trkpt>
      <trkpt lat="68.74163" lon="17.44175">
        <ele>59.670927</ele>
        <time>2020-08-27T23:54:01.369Z</time>
      </trkpt>
      <trkpt lat="68.74151" lon="17.44208">
        <ele>58.841816</ele>
        <time>2020-08-27T23:54:03.311Z</time>
      </trkpt>
      <trkpt lat="68.74105" lon="17.44355">
        <ele>55.289204</ele>
        <time>2020-08-27T23:54:11.996Z</time>
      </trkpt>
      <trkpt lat="68.74095" lon="17.44386">
        <ele>54.51756</ele>
        <time>2020-08-27T23:54:14.024Z</time>
      </trkpt>
      <trkpt lat="68.74085" lon="17.44411">
        <ele>53.839373</ele>
        <time>2020-08-27T23:54:15.543Z</time>
      </trkpt>
      <trkpt lat="68.74017" lon="17.44566">
        <ele>49.076117</ele>
        <time>2020-08-27T23:54:26.054Z</time>
      </trkpt>
      <trkpt lat="68.73945" lon="17.44845">
        <ele>42.670982</ele>
        <time>2020-08-27T23:54:40.819Z</time>
      </trkpt>
      <trkpt lat="68.73859" lon="17.45075">
        <ele>38.234863</ele>
        <time>2020-08-27T23:54:56.208Z</time>
      </trkpt>
      <trkpt lat="68.7379" lon="17.4531">
        <ele>35.506392</ele>
        <time>2020-08-27T23:55:11.110Z</time>
      </trkpt>
      <trkpt lat="68.73778" lon="17.45415">
        <ele>34.788784</ele>
        <time>2020-08-27T23:55:16.881Z</time>
      </trkpt>
      <trkpt lat="68.73768" lon="17.455">
        <ele>34.206927</ele>
        <time>2020-08-27T23:55:21.754Z</time>
      </trkpt>
      <trkpt lat="68.73752" lon="17.45633">
        <ele>33.436146</ele>
        <time>2020-08-27T23:55:29.666Z</time>
      </trkpt>
      <trkpt lat="68.73743" lon="17.45694">
        <ele>33.276294</ele>
        <time>2020-08-27T23:55:33.941Z</time>
      </trkpt>
      <trkpt lat="68.73698" lon="17.45899">
        <ele>32.689757</ele>
        <time>2020-08-27T23:55:47.221Z</time>
      </trkpt>
      <trkpt lat="68.73687" lon="17.45937">
        <ele>32.570819</ele>
        <time>2020-08-27T23:55:50.786Z</time>
      </trkpt>
      <trkpt lat="68.73675" lon="17.45975">
        <ele>32.445995</ele>
        <time>2020-08-27T23:55:53.718Z</time>
      </trkpt>
      <trkpt lat="68.7361" lon="17.46115">
        <ele>31.023386</ele>
        <time>2020-08-27T23:56:08.740Z</time>
      </trkpt>
      <trkpt lat="68.73604" lon="17.46131">
        <ele>30.855606</ele>
        <time>2020-08-27T23:56:09.768Z</time>
      </trkpt>
      <trkpt lat="68.73578" lon="17.46213">
        <ele>30.039064</ele>
        <time>2020-08-27T23:56:15.320Z</time>
      </trkpt>
      <trkpt lat="68.73562" lon="17.46258">
        <ele>29.578964</ele>
        <time>2020-08-27T23:56:18.520Z</time>
      </trkpt>
      <trkpt lat="68.73527" lon="17.46333">
        <ele>28.670089</ele>
        <time>2020-08-27T23:56:24.102Z</time>
      </trkpt>
      <trkpt lat="68.73503" lon="17.46375">
        <ele>27.119999</ele>
        <time>2020-08-27T23:56:27.782Z</time>
      </trkpt>
      <trkpt lat="68.7349" lon="17.46396">
        <ele>26.26309</ele>
        <time>2020-08-27T23:56:29.489Z</time>
      </trkpt>
      <trkpt lat="68.73446" lon="17.46456">
        <ele>23.497173</ele>
        <time>2020-08-27T23:56:35.570Z</time>
      </trkpt>
      <trkpt lat="68.73411" lon="17.46489">
        <ele>21.40302</ele>
        <time>2020-08-27T23:56:39.901Z</time>
      </trkpt>
      <trkpt lat="68.73404" lon="17.46493">
        <ele>20.987473</ele>
        <time>2020-08-27T23:56:40.723Z</time>
      </trkpt>
      <trkpt lat="68.73389" lon="17.46498">
        <ele>20.129969</ele>
        <time>2020-08-27T23:56:42.380Z</time>
      </trkpt>
      <trkpt lat="68.73257" lon="17.46481">
        <ele>13.203561</ele>
        <time>2020-08-27T23:56:57.592Z</time>
      </trkpt>
      <trkpt lat="68.73238" lon="17.46482">
        <ele>12.210429</ele>
        <time>2020-08-27T23:56:59.843Z</time>
      </trkpt>
      <trkpt lat="68.73224" lon="17.46485">
        <ele>11.477448</ele>
        <time>2020-08-27T23:57:01.753Z</time>
      </trkpt>
      <trkpt lat="68.73206" lon="17.4649">
        <ele>10.524676</ele>
        <time>2020-08-27T23:57:04.274Z</time>
      </trkpt>
      <trkpt lat="68.73174" lon="17.46511">
        <ele>9.259061</ele>
        <time>2020-08-27T23:57:08.933Z</time>
      </trkpt>
      <trkpt lat="68.73163" lon="17.46522">
        <ele>9.434652</ele>
        <time>2020-08-27T23:57:10.516Z</time>
      </trkpt>
      <trkpt lat="68.73152" lon="17.46533">
        <ele>9.616256</ele>
        <time>2020-08-27T23:57:12.421Z</time>
      </trkpt>
      <trkpt lat="68.73092" lon="17.466">
        <ele>10.584279</ele>
        <time>2020-08-27T23:57:22.881Z</time>
      </trkpt>
      <trkpt lat="68.73086" lon="17.46608">
        <ele>10.695091</ele>
        <time>2020-08-27T23:57:24.327Z</time>
      </trkpt>
      <trkpt lat="68.73083" lon="17.46611">
        <ele>10.742352</ele>
        <time>2020-08-27T23:57:25.782Z</time>
      </trkpt>
      <trkpt lat="68.73053" lon="17.46652">
        <ele>11.247122</ele>
        <time>2020-08-27T23:57:34.035Z</time>
      </trkpt>
      <trkpt lat="68.73036" lon="17.46699">
        <ele>11.612567</ele>
        <time>2020-08-27T23:57:42.989Z</time>
      </trkpt>
      <trkpt lat="68.73006" lon="17.46917">
        <ele>18.018466</ele>
        <time>2020-08-27T23:58:14.566Z</time>
      </trkpt>
      <trkpt lat="68.73001" lon="17.46944">
        <ele>19.047046</ele>
        <time>2020-08-27T23:58:20.102Z</time>
      </trkpt>
      <trkpt lat="68.72997" lon="17.46964">
        <ele>19.847189</ele>
        <time>2020-08-27T23:58:24.367Z</time>
      </trkpt>
      <trkpt lat="68.72986" lon="17.47004">
        <ele>21.544008</ele>
        <time>2020-08-27T23:58:33.818Z</time>
      </trkpt>
      <trkpt lat="68.72983" lon="17.47012">
        <ele>21.931594</ele>
        <time>2020-08-27T23:58:35.927Z</time>
      </trkpt>
      <trkpt lat="68.72977" lon="17.47028">
        <ele>22.698941</ele>
        <time>2020-08-27T23:58:39.651Z</time>
      </trkpt>
      <trkpt lat="68.72969" lon="17.47046">
        <ele>23.625744</ele>
        <time>2020-08-27T23:58:45.494Z</time>
      </trkpt>
      <trkpt lat="68.72903" lon="17.47152">
        <ele>31.744012</ele>
        <time>2020-08-27T23:59:28.321Z</time>
      </trkpt>
      <trkpt lat="68.72877" lon="17.47197">
        <ele>36.057102</ele>
        <time>2020-08-27T23:59:48.182Z</time>
      </trkpt>
      <trkpt lat="68.72864" lon="17.47215">
        <ele>37.981617</ele>
        <time>2020-08-27T23:59:57.085Z</time>
      </trkpt>
      <trkpt lat="68.7284" lon="17.47239">
        <ele>41.542799</ele>
        <time>2020-08-28T00:00:13.473Z</time>
      </trkpt>
      <trkpt lat="68.72781" lon="17.47249">
        <ele>49.758138</ele>
        <time>2020-08-28T00:00:51.629Z</time>
      </trkpt>
      <trkpt lat="68.72757" lon="17.47265">
        <ele>53.096881</ele>
        <time>2020-08-28T00:01:08.555Z</time>
      </trkpt>
      <trkpt lat="68.72575" lon="17.47481">
        <ele>76.958615</ele>
        <time>2020-08-28T00:03:06.241Z</time>
      </trkpt>
      <trkpt lat="68.72525" lon="17.47517">
        <ele>79.267016</ele>
        <time>2020-08-28T00:03:26.847Z</time>
      </trkpt>
      <trkpt lat="68.72488" lon="17.475">
        <ele>80.977002</ele>
        <time>2020-08-28T00:03:38.679Z</time>
      </trkpt>
      <trkpt lat="68.72425" lon="17.47394">
        <ele>84.259752</ele>
        <time>2020-08-28T00:03:53.804Z</time>
      </trkpt>
      <trkpt lat="68.72407" lon="17.47377">
        <ele>83.851787</ele>
        <time>2020-08-28T00:03:56.960Z</time>
      </trkpt>
      <trkpt lat="68.72397" lon="17.47373">
        <ele>83.629269</ele>
        <time>2020-08-28T00:03:58.090Z</time>
      </trkpt>
      <trkpt lat="68.72396" lon="17.47372">
        <ele>83.598827</ele>
        <time>2020-08-28T00:03:58.552Z</time>
      </trkpt>
      <trkpt lat="68.72301" lon="17.4731">
        <ele>81.335691</ele>
        <time>2020-08-28T00:04:11.615Z</time>
      </trkpt>
      <trkpt lat="68.72241" lon="17.47346">
        <ele>79.993033</ele>
        <time>2020-08-28T00:04:19.573Z</time>
      </trkpt>
      <trkpt lat="68.72182" lon="17.47318">
        <ele>79.215201</ele>
        <time>2020-08-28T00:04:28.011Z</time>
      </trkpt>
      <trkpt lat="68.72139" lon="17.47334">
        <ele>78.646276</ele>
        <time>2020-08-28T00:04:34.626Z</time>
      </trkpt>
      <trkpt lat="68.72077" lon="17.4733">
        <ele>77.831056</ele>
        <time>2020-08-28T00:04:44.870Z</time>
      </trkpt>
      <trkpt lat="68.71984" lon="17.47413">
        <ele>78.376821</ele>
        <time>2020-08-28T00:05:03.132Z</time>
      </trkpt>
      <trkpt lat="68.71949" lon="17.47385">
        <ele>78.625091</ele>
        <time>2020-08-28T00:05:10.786Z</time>
      </trkpt>
      <trkpt lat="68.71939" lon="17.47365">
        <ele>78.709185</ele>
        <time>2020-08-28T00:05:13.363Z</time>
      </trkpt>
      <trkpt lat="68.7191" lon="17.47294">
        <ele>78.970606</ele>
        <time>2020-08-28T00:05:22.033Z</time>
      </trkpt>
      <trkpt lat="68.71889" lon="17.47256">
        <ele>79.217795</ele>
        <time>2020-08-28T00:05:27.860Z</time>
      </trkpt>
      <trkpt lat="68.71859" lon="17.47246">
        <ele>79.523187</ele>
        <time>2020-08-28T00:05:35.072Z</time>
      </trkpt>
      <trkpt lat="68.71834" lon="17.47261">
        <ele>79.784841</ele>
        <time>2020-08-28T00:05:41.262Z</time>
      </trkpt>
      <trkpt lat="68.71782" lon="17.47325">
        <ele>80.354564</ele>
        <time>2020-08-28T00:05:53.361Z</time>
      </trkpt>
      <trkpt lat="68.71745" lon="17.47355">
        <ele>80.734838</ele>
        <time>2020-08-28T00:06:00.230Z</time>
      </trkpt>
      <trkpt lat="68.71676" lon="17.47393">
        <ele>80.283617</ele>
        <time>2020-08-28T00:06:12.052Z</time>
      </trkpt>
      <trkpt lat="68.71664" lon="17.47401">
        <ele>80.190957</ele>
        <time>2020-08-28T00:06:13.916Z</time>
      </trkpt>
      <trkpt lat="68.71633" lon="17.47427">
        <ele>79.950067</ele>
        <time>2020-08-28T00:06:19.052Z</time>
      </trkpt>
      <trkpt lat="68.71594" lon="17.4747">
        <ele>79.636599</ele>
        <time>2020-08-28T00:06:25.584Z</time>
      </trkpt>
      <trkpt lat="68.71588" lon="17.47483">
        <ele>79.578495</ele>
        <time>2020-08-28T00:06:26.527Z</time>
      </trkpt>
      <trkpt lat="68.71583" lon="17.47497">
        <ele>79.525147</ele>
        <time>2020-08-28T00:06:28.708Z</time>
      </trkpt>
      <trkpt lat="68.71549" lon="17.47627">
        <ele>78.945173</ele>
        <time>2020-08-28T00:06:37.136Z</time>
      </trkpt>
      <trkpt lat="68.71531" lon="17.4765">
        <ele>78.735627</ele>
        <time>2020-08-28T00:06:40.152Z</time>
      </trkpt>
      <trkpt lat="68.71517" lon="17.47642">
        <ele>78.580742</ele>
        <time>2020-08-28T00:06:42.366Z</time>
      </trkpt>
      <trkpt lat="68.71504" lon="17.47617">
        <ele>78.414285</ele>
        <time>2020-08-28T00:06:44.969Z</time>
      </trkpt>
      <trkpt lat="68.71475" lon="17.47433">
        <ele>77.644439</ele>
        <time>2020-08-28T00:06:56.625Z</time>
      </trkpt>
      <trkpt lat="68.71458" lon="17.47389">
        <ele>77.20497</ele>
        <time>2020-08-28T00:07:00.292Z</time>
      </trkpt>
      <trkpt lat="68.71439" lon="17.47373">
        <ele>76.741248</ele>
        <time>2020-08-28T00:07:03.143Z</time>
      </trkpt>
      <trkpt lat="68.71389" lon="17.47388">
        <ele>75.505851</ele>
        <time>2020-08-28T00:07:10.449Z</time>
      </trkpt>
      <trkpt lat="68.71249" lon="17.47467">
        <ele>70.903902</ele>
        <time>2020-08-28T00:07:29.122Z</time>
      </trkpt>
      <trkpt lat="68.71164" lon="17.47528">
        <ele>66.666166</ele>
        <time>2020-08-28T00:07:39.848Z</time>
      </trkpt>
      <trkpt lat="68.71087" lon="17.47642">
        <ele>61.786483</ele>
        <time>2020-08-28T00:07:50.032Z</time>
      </trkpt>
      <trkpt lat="68.70919" lon="17.47989">
        <ele>50.066668</ele>
        <time>2020-08-28T00:08:14.451Z</time>
      </trkpt>
      <trkpt lat="68.70893" lon="17.48078">
        <ele>48.494343</ele>
        <time>2020-08-28T00:08:19.680Z</time>
      </trkpt>
      <trkpt lat="68.70861" lon="17.48259">
        <ele>46.077641</ele>
        <time>2020-08-28T00:08:30.363Z</time>
      </trkpt>
      <trkpt lat="68.70838" lon="17.48322">
        <ele>46.708257</ele>
        <time>2020-08-28T00:08:36.483Z</time>
      </trkpt>
      <trkpt lat="68.70814" lon="17.48355">
        <ele>47.237223</ele>
        <time>2020-08-28T00:08:42.703Z</time>
      </trkpt>
      <trkpt lat="68.70668" lon="17.48499">
        <ele>50.798677</ele>
        <time>2020-08-28T00:09:25.977Z</time>
      </trkpt>
      <trkpt lat="68.70632" lon="17.4851">
        <ele>51.963389</ele>
        <time>2020-08-28T00:09:36.915Z</time>
      </trkpt>
      <trkpt lat="68.70598" lon="17.48482">
        <ele>53.105836</ele>
        <time>2020-08-28T00:09:47.253Z</time>
      </trkpt>
      <trkpt lat="68.70572" lon="17.48444">
        <ele>54.067008</ele>
        <time>2020-08-28T00:09:55.431Z</time>
      </trkpt>
      <trkpt lat="68.70571" lon="17.48442">
        <ele>54.111488</ele>
        <time>2020-08-28T00:09:56.098Z</time>
      </trkpt>
      <trkpt lat="68.70554" lon="17.48417">
        <ele>54.726239</ele>
        <time>2020-08-28T00:10:01.209Z</time>
      </trkpt>
      <trkpt lat="68.70496" lon="17.4833">
        <ele>55.62011</ele>
        <time>2020-08-28T00:10:18.542Z</time>
      </trkpt>
      <trkpt lat="68.7044" lon="17.48267">
        <ele>56.044473</ele>
        <time>2020-08-28T00:10:32.817Z</time>
      </trkpt>
      <trkpt lat="68.70419" lon="17.48265">
        <ele>56.189105</ele>
        <time>2020-08-28T00:10:36.526Z</time>
      </trkpt>
      <trkpt lat="68.70392" lon="17.48281">
        <ele>56.384754</ele>
        <time>2020-08-28T00:10:40.666Z</time>
      </trkpt>
      <trkpt lat="68.70378" lon="17.48292">
        <ele>56.484526</ele>
        <time>2020-08-28T00:10:42.614Z</time>
      </trkpt>
      <trkpt lat="68.70357" lon="17.48309">
        <ele>55.949336</ele>
        <time>2020-08-28T00:10:45.683Z</time>
      </trkpt>
      <trkpt lat="68.70339" lon="17.48322">
        <ele>55.135543</ele>
        <time>2020-08-28T00:10:48.191Z</time>
      </trkpt>
      <trkpt lat="68.70318" lon="17.48334">
        <ele>54.241885</ele>
        <time>2020-08-28T00:10:51.090Z</time>
      </trkpt>
      <trkpt lat="68.70308" lon="17.48336">
        <ele>53.79937</ele>
        <time>2020-08-28T00:10:52.342Z</time>
      </trkpt>
      <trkpt lat="68.70281" lon="17.4833">
        <ele>52.664545</ele>
        <time>2020-08-28T00:10:55.824Z</time>
      </trkpt>
      <trkpt lat="68.70141" lon="17.48243">
        <ele>45.611468</ele>
        <time>2020-08-28T00:11:12.900Z</time>
      </trkpt>
      <trkpt lat="68.70116" lon="17.48243">
        <ele>44.130761</ele>
        <time>2020-08-28T00:11:15.890Z</time>
      </trkpt>
      <trkpt lat="68.70089" lon="17.48284">
        <ele>42.301317</ele>
        <time>2020-08-28T00:11:19.486Z</time>
      </trkpt>
      <trkpt lat="68.70043" lon="17.48412">
        <ele>38.419923</ele>
        <time>2020-08-28T00:11:27.139Z</time>
      </trkpt>
      <trkpt lat="68.70016" lon="17.48553">
        <ele>35.500358</ele>
        <time>2020-08-28T00:11:33.915Z</time>
      </trkpt>
      <trkpt lat="68.70009" lon="17.48594">
        <ele>34.667398</ele>
        <time>2020-08-28T00:11:35.950Z</time>
      </trkpt>
      <trkpt lat="68.70005" lon="17.48609">
        <ele>34.339198</ele>
        <time>2020-08-28T00:11:36.659Z</time>
      </trkpt>
      <trkpt lat="68.69984" lon="17.48665">
        <ele>32.88279</ele>
        <time>2020-08-28T00:11:40.306Z</time>
      </trkpt>
      <trkpt lat="68.69947" lon="17.48732">
        <ele>30.660228</ele>
        <time>2020-08-28T00:11:45.596Z</time>
      </trkpt>
      <trkpt lat="68.69932" lon="17.48778">
        <ele>29.532937</ele>
        <time>2020-08-28T00:11:48.631Z</time>
      </trkpt>
      <trkpt lat="68.6991" lon="17.48987">
        <ele>29.063542</ele>
        <time>2020-08-28T00:11:59.421Z</time>
      </trkpt>
      <trkpt lat="68.69904" lon="17.49085">
        <ele>28.982726</ele>
        <time>2020-08-28T00:12:06.881Z</time>
      </trkpt>
      <trkpt lat="68.699" lon="17.49125">
        <ele>28.948573</ele>
        <time>2020-08-28T00:12:10.585Z</time>
      </trkpt>
      <trkpt lat="68.69894" lon="17.49161">
        <ele>28.916719</ele>
        <time>2020-08-28T00:12:13.501Z</time>
      </trkpt>
      <trkpt lat="68.69874" lon="17.49252">
        <ele>28.829093</ele>
        <time>2020-08-28T00:12:22.749Z</time>
      </trkpt>
      <trkpt lat="68.69833" lon="17.4943">
        <ele>30.630999</ele>
        <time>2020-08-28T00:12:43.166Z</time>
      </trkpt>
      <trkpt lat="68.6981" lon="17.49529">
        <ele>31.680225</ele>
        <time>2020-08-28T00:12:55.866Z</time>
      </trkpt>
      <trkpt lat="68.69767" lon="17.49724">
        <ele>33.244244</ele>
        <time>2020-08-28T00:13:16.245Z</time>
      </trkpt>
      <trkpt lat="68.69757" lon="17.49868">
        <ele>33.267142</ele>
        <time>2020-08-28T00:13:25.679Z</time>
      </trkpt>
      <trkpt lat="68.69755" lon="17.4989">
        <ele>33.270679</ele>
        <time>2020-08-28T00:13:27.766Z</time>
      </trkpt>
      <trkpt lat="68.69752" lon="17.49905">
        <ele>33.273273</ele>
        <time>2020-08-28T00:13:28.739Z</time>
      </trkpt>
      <trkpt lat="68.69748" lon="17.49926">
        <ele>33.276954</ele>
        <time>2020-08-28T00:13:30.134Z</time>
      </trkpt>
      <trkpt lat="68.69744" lon="17.49943">
        <ele>33.280179</ele>
        <time>2020-08-28T00:13:31.153Z</time>
      </trkpt>
      <trkpt lat="68.6964" lon="17.50311">
        <ele>32.62861</ele>
        <time>2020-08-28T00:13:58.347Z</time>
      </trkpt>
      <trkpt lat="68.69615" lon="17.50433">
        <ele>32.252723</ele>
        <time>2020-08-28T00:14:06.733Z</time>
      </trkpt>
      <trkpt lat="68.6961" lon="17.50521">
        <ele>32.014119</ele>
        <time>2020-08-28T00:14:12.616Z</time>
      </trkpt>
      <trkpt lat="68.6961" lon="17.50551">
        <ele>31.842023</ele>
        <time>2020-08-28T00:14:14.098Z</time>
      </trkpt>
      <trkpt lat="68.6961" lon="17.50596">
        <ele>31.506958</ele>
        <time>2020-08-28T00:14:16.900Z</time>
      </trkpt>
      <trkpt lat="68.69601" lon="17.50686">
        <ele>30.811948</ele>
        <time>2020-08-28T00:14:21.585Z</time>
      </trkpt>
      <trkpt lat="68.69588" lon="17.50751">
        <ele>30.265049</ele>
        <time>2020-08-28T00:14:25.191Z</time>
      </trkpt>
      <trkpt lat="68.69547" lon="17.50862">
        <ele>29.071377</ele>
        <time>2020-08-28T00:14:33.414Z</time>
      </trkpt>
      <trkpt lat="68.69533" lon="17.509">
        <ele>28.681013</ele>
        <time>2020-08-28T00:14:36.030Z</time>
      </trkpt>
      <trkpt lat="68.69499" lon="17.50991">
        <ele>27.412702</ele>
        <time>2020-08-28T00:14:42.372Z</time>
      </trkpt>
      <trkpt lat="68.69475" lon="17.51062">
        <ele>26.352086</ele>
        <time>2020-08-28T00:14:46.874Z</time>
      </trkpt>
      <trkpt lat="68.69461" lon="17.51135">
        <ele>25.425406</ele>
        <time>2020-08-28T00:14:50.796Z</time>
      </trkpt>
      <trkpt lat="68.69454" lon="17.51215">
        <ele>24.514984</ele>
        <time>2020-08-28T00:14:54.634Z</time>
      </trkpt>
      <trkpt lat="68.69459" lon="17.51366">
        <ele>22.845428</ele>
        <time>2020-08-28T00:15:01.980Z</time>
      </trkpt>
      <trkpt lat="68.69451" lon="17.51436">
        <ele>22.06952</ele>
        <time>2020-08-28T00:15:05.785Z</time>
      </trkpt>
      <trkpt lat="68.69407" lon="17.51608">
        <ele>19.853546</ele>
        <time>2020-08-28T00:15:16.096Z</time>
      </trkpt>
      <trkpt lat="68.69336" lon="17.51969">
        <ele>15.687187</ele>
        <time>2020-08-28T00:15:35.502Z</time>
      </trkpt>
      <trkpt lat="68.69291" lon="17.52303">
        <ele>12.724619</ele>
        <time>2020-08-28T00:15:53.187Z</time>
      </trkpt>
      <trkpt lat="68.69268" lon="17.52588">
        <ele>12.434648</ele>
        <time>2020-08-28T00:16:10.651Z</time>
      </trkpt>
      <trkpt lat="68.69262" lon="17.52666">
        <ele>12.355288</ele>
        <time>2020-08-28T00:16:16.479Z</time>
      </trkpt>
      <trkpt lat="68.69256" lon="17.5274">
        <ele>12.361695</ele>
        <time>2020-08-28T00:16:22.296Z</time>
      </trkpt>
      <trkpt lat="68.69247" lon="17.52848">
        <ele>13.123934</ele>
        <time>2020-08-28T00:16:32.251Z</time>
      </trkpt>
      <trkpt lat="68.69238" lon="17.5297">
        <ele>13.984124</ele>
        <time>2020-08-28T00:16:44.333Z</time>
      </trkpt>
      <trkpt lat="68.69216" lon="17.53179">
        <ele>15.483249</ele>
        <time>2020-08-28T00:17:03.615Z</time>
      </trkpt>
      <trkpt lat="68.69212" lon="17.53201">
        <ele>15.661987</ele>
        <time>2020-08-28T00:17:06.082Z</time>
      </trkpt>
      <trkpt lat="68.69206" lon="17.53229">
        <ele>15.65907</ele>
        <time>2020-08-28T00:17:08.653Z</time>
      </trkpt>
      <trkpt lat="68.69196" lon="17.53272">
        <ele>15.561081</ele>
        <time>2020-08-28T00:17:12.507Z</time>
      </trkpt>
      <trkpt lat="68.69174" lon="17.53349">
        <ele>15.376227</ele>
        <time>2020-08-28T00:17:19.678Z</time>
      </trkpt>
      <trkpt lat="68.6916" lon="17.53387">
        <ele>15.274132</ele>
        <time>2020-08-28T00:17:23.630Z</time>
      </trkpt>
      <trkpt lat="68.69141" lon="17.53435">
        <ele>15.139198</ele>
        <time>2020-08-28T00:17:27.865Z</time>
      </trkpt>
      <trkpt lat="68.69051" lon="17.53641">
        <ele>13.326109</ele>
        <time>2020-08-28T00:17:44.007Z</time>
      </trkpt>
      <trkpt lat="68.6901" lon="17.538">
        <ele>11.110481</ele>
        <time>2020-08-28T00:17:53.030Z</time>
      </trkpt>
      <trkpt lat="68.69003" lon="17.53833">
        <ele>10.692912</ele>
        <time>2020-08-28T00:17:54.790Z</time>
      </trkpt>
      <trkpt lat="68.68966" lon="17.54035">
        <ele>8.177365</ele>
        <time>2020-08-28T00:18:05.637Z</time>
      </trkpt>
      <trkpt lat="68.68952" lon="17.54111">
        <ele>7.270741</ele>
        <time>2020-08-28T00:18:09.658Z</time>
      </trkpt>
      <trkpt lat="68.68904" lon="17.54379">
        <ele>4.080186</ele>
        <time>2020-08-28T00:18:24.059Z</time>
      </trkpt>
      <trkpt lat="68.6889" lon="17.54449">
        <ele>3.739333</ele>
        <time>2020-08-28T00:18:28.158Z</time>
      </trkpt>
      <trkpt lat="68.68883" lon="17.54481">
        <ele>3.659594</ele>
        <time>2020-08-28T00:18:30.117Z</time>
      </trkpt>
      <trkpt lat="68.68876" lon="17.54507">
        <ele>3.59055</ele>
        <time>2020-08-28T00:18:31.709Z</time>
      </trkpt>
      <trkpt lat="68.68866" lon="17.54539">
        <ele>3.499824</ele>
        <time>2020-08-28T00:18:33.932Z</time>
      </trkpt>
      <trkpt lat="68.68828" lon="17.54623">
        <ele>3.212229</ele>
        <time>2020-08-28T00:18:41.266Z</time>
      </trkpt>
      <trkpt lat="68.68822" lon="17.54631">
        <ele>3.174282</ele>
        <time>2020-08-28T00:18:42.218Z</time>
      </trkpt>
      <trkpt lat="68.68803" lon="17.54656">
        <ele>3.048638</ele>
        <time>2020-08-28T00:18:45.769Z</time>
      </trkpt>
      <trkpt lat="68.68791" lon="17.54668">
        <ele>2.9713</ele>
        <time>2020-08-28T00:18:47.945Z</time>
      </trkpt>
      <trkpt lat="68.68783" lon="17.54674">
        <ele>2.92459</ele>
        <time>2020-08-28T00:18:49.253Z</time>
      </trkpt>
      <trkpt lat="68.68527" lon="17.54854">
        <ele>13.157463</ele>
        <time>2020-08-28T00:20:05.440Z</time>
      </trkpt>
      <trkpt lat="68.68489" lon="17.54888">
        <ele>16.052031</ele>
        <time>2020-08-28T00:20:23.020Z</time>
      </trkpt>
      <trkpt lat="68.68448" lon="17.54967">
        <ele>19.735777</ele>
        <time>2020-08-28T00:20:48.741Z</time>
      </trkpt>
      <trkpt lat="68.6844" lon="17.5499">
        <ele>20.545442</ele>
        <time>2020-08-28T00:20:55.737Z</time>
      </trkpt>
      <trkpt lat="68.68436" lon="17.55004">
        <ele>21.023486</ele>
        <time>2020-08-28T00:20:59.260Z</time>
      </trkpt>
      <trkpt lat="68.68432" lon="17.55021">
        <ele>21.545091</ele>
        <time>2020-08-28T00:21:02.325Z</time>
      </trkpt>
      <trkpt lat="68.68428" lon="17.5504">
        <ele>21.888402</ele>
        <time>2020-08-28T00:21:06.780Z</time>
      </trkpt>
      <trkpt lat="68.68425" lon="17.55048">
        <ele>22.038606</ele>
        <time>2020-08-28T00:21:08.878Z</time>
      </trkpt>
      <trkpt lat="68.68437" lon="17.55077">
        <ele>22.673171</ele>
        <time>2020-08-28T00:21:16.066Z</time>
      </trkpt>
      <trkpt lat="68.68446" lon="17.55111">
        <ele>23.310274</ele>
        <time>2020-08-28T00:21:22.640Z</time>
      </trkpt>
      <trkpt lat="68.68457" lon="17.55165">
        <ele>24.233196</ele>
        <time>2020-08-28T00:21:32.302Z</time>
      </trkpt>
      <trkpt lat="68.68464" lon="17.55205">
        <ele>24.896733</ele>
        <time>2020-08-28T00:21:38.450Z</time>
      </trkpt>
      <trkpt lat="68.68477" lon="17.55277">
        <ele>26.1093</ele>
        <time>2020-08-28T00:21:48.438Z</time>
      </trkpt>
      <trkpt lat="68.685" lon="17.55399">
        <ele>28.147728</ele>
        <time>2020-08-28T00:22:02.295Z</time>
      </trkpt>
      <trkpt lat="68.68505" lon="17.55426">
        <ele>28.604681</ele>
        <time>2020-08-28T00:22:03.593Z</time>
      </trkpt>
      <trkpt lat="68.68571" lon="17.55794">
        <ele>20.194272</ele>
        <time>2020-08-28T00:22:20.753Z</time>
      </trkpt>
      <trkpt lat="68.68573" lon="17.55855">
        <ele>18.793918</ele>
        <time>2020-08-28T00:22:23.270Z</time>
      </trkpt>
      <trkpt lat="68.6857" lon="17.55923">
        <ele>17.559841</ele>
        <time>2020-08-28T00:22:26.076Z</time>
      </trkpt>
      <trkpt lat="68.68557" lon="17.5601">
        <ele>16.724199</ele>
        <time>2020-08-28T00:22:30.055Z</time>
      </trkpt>
      <trkpt lat="68.68541" lon="17.56065">
        <ele>16.108721</ele>
        <time>2020-08-28T00:22:33.126Z</time>
      </trkpt>
      <trkpt lat="68.68447" lon="17.56285">
        <ele>13.708291</ele>
        <time>2020-08-28T00:22:53.429Z</time>
      </trkpt>
      <trkpt lat="68.68422" lon="17.56364">
        <ele>14.858408</ele>
        <time>2020-08-28T00:23:04.724Z</time>
      </trkpt>
      <trkpt lat="68.68409" lon="17.56458">
        <ele>15.934499</ele>
        <time>2020-08-28T00:23:15.657Z</time>
      </trkpt>
      <trkpt lat="68.68413" lon="17.56557">
        <ele>17.022453</ele>
        <time>2020-08-28T00:23:26.289Z</time>
      </trkpt>
      <trkpt lat="68.68422" lon="17.5661">
        <ele>17.638442</ele>
        <time>2020-08-28T00:23:33.671Z</time>
      </trkpt>
      <trkpt lat="68.6843" lon="17.56654">
        <ele>18.183937</ele>
        <time>2020-08-28T00:23:37.840Z</time>
      </trkpt>
      <trkpt lat="68.68474" lon="17.56865">
        <ele>20.332208</ele>
        <time>2020-08-28T00:24:03.601Z</time>
      </trkpt>
      <trkpt lat="68.68483" lon="17.56916">
        <ele>20.811134</ele>
        <time>2020-08-28T00:24:07.871Z</time>
      </trkpt>
      <trkpt lat="68.6849" lon="17.5695">
        <ele>21.133843</ele>
        <time>2020-08-28T00:24:12.462Z</time>
      </trkpt>
      <trkpt lat="68.6851" lon="17.57101">
        <ele>22.477559</ele>
        <time>2020-08-28T00:24:23.998Z</time>
      </trkpt>
      <trkpt lat="68.6852" lon="17.57282">
        <ele>24.125371</ele>
        <time>2020-08-28T00:24:39.380Z</time>
      </trkpt>
      <trkpt lat="68.68512" lon="17.57873">
        <ele>28.960414</ele>
        <time>2020-08-28T00:25:38.832Z</time>
      </trkpt>
      <trkpt lat="68.68507" lon="17.57969">
        <ele>29.598739</ele>
        <time>2020-08-28T00:25:46.669Z</time>
      </trkpt>
      <trkpt lat="68.68496" lon="17.58047">
        <ele>30.138674</ele>
        <time>2020-08-28T00:25:52.964Z</time>
      </trkpt>
      <trkpt lat="68.68492" lon="17.58083">
        <ele>30.389445</ele>
        <time>2020-08-28T00:25:55.502Z</time>
      </trkpt>
      <trkpt lat="68.6849" lon="17.58136">
        <ele>30.665667</ele>
        <time>2020-08-28T00:25:59.190Z</time>
      </trkpt>
      <trkpt lat="68.68491" lon="17.58147">
        <ele>30.6582</ele>
        <time>2020-08-28T00:26:00.092Z</time>
      </trkpt>
      <trkpt lat="68.68492" lon="17.58174">
        <ele>30.640913</ele>
        <time>2020-08-28T00:26:01.644Z</time>
      </trkpt>
      <trkpt lat="68.68498" lon="17.58218">
        <ele>30.610352</ele>
        <time>2020-08-28T00:26:04.597Z</time>
      </trkpt>
      <trkpt lat="68.68513" lon="17.58305">
        <ele>30.547958</ele>
        <time>2020-08-28T00:26:10.323Z</time>
      </trkpt>
      <trkpt lat="68.68516" lon="17.5835">
        <ele>30.517913</ele>
        <time>2020-08-28T00:26:13.054Z</time>
      </trkpt>
      <trkpt lat="68.68514" lon="17.58402">
        <ele>30.483648</ele>
        <time>2020-08-28T00:26:16.571Z</time>
      </trkpt>
      <trkpt lat="68.68498" lon="17.58504">
        <ele>30.410981</ele>
        <time>2020-08-28T00:26:23.216Z</time>
      </trkpt>
      <trkpt lat="68.68483" lon="17.5857">
        <ele>30.360455</ele>
        <time>2020-08-28T00:26:27.615Z</time>
      </trkpt>
      <trkpt lat="68.68443" lon="17.58672">
        <ele>31.078252</ele>
        <time>2020-08-28T00:26:37.525Z</time>
      </trkpt>
      <trkpt lat="68.68436" lon="17.58695">
        <ele>31.241373</ele>
        <time>2020-08-28T00:26:39.997Z</time>
      </trkpt>
      <trkpt lat="68.68428" lon="17.58725">
        <ele>31.450858</ele>
        <time>2020-08-28T00:26:43.285Z</time>
      </trkpt>
      <trkpt lat="68.68348" lon="17.59071">
        <ele>33.465464</ele>
        <time>2020-08-28T00:27:21.114Z</time>
      </trkpt>
      <trkpt lat="68.68325" lon="17.59202">
        <ele>33.982946</ele>
        <time>2020-08-28T00:27:33.313Z</time>
      </trkpt>
      <trkpt lat="68.68322" lon="17.59226">
        <ele>34.070679</ele>
        <time>2020-08-28T00:27:35.424Z</time>
      </trkpt>
      <trkpt lat="68.68306" lon="17.59342">
        <ele>34.515067</ele>
        <time>2020-08-28T00:27:45.300Z</time>
      </trkpt>
      <trkpt lat="68.68258" lon="17.59695">
        <ele>31.750002</ele>
        <time>2020-08-28T00:28:05.041Z</time>
      </trkpt>
      <trkpt lat="68.68254" lon="17.59759">
        <ele>31.076296</ele>
        <time>2020-08-28T00:28:07.964Z</time>
      </trkpt>
      <trkpt lat="68.68257" lon="17.59857">
        <ele>30.053708</ele>
        <time>2020-08-28T00:28:12.298Z</time>
      </trkpt>
      <trkpt lat="68.68262" lon="17.59941">
        <ele>28.872772</ele>
        <time>2020-08-28T00:28:16.062Z</time>
      </trkpt>
      <trkpt lat="68.68267" lon="17.60015">
        <ele>27.643681</ele>
        <time>2020-08-28T00:28:19.307Z</time>
      </trkpt>
      <trkpt lat="68.68266" lon="17.60078">
        <ele>26.596963</ele>
        <time>2020-08-28T00:28:22.149Z</time>
      </trkpt>
      <trkpt lat="68.68255" lon="17.6016">
        <ele>25.168398</ele>
        <time>2020-08-28T00:28:26.011Z</time>
      </trkpt>
      <trkpt lat="68.68195" lon="17.60366">
        <ele>21.013741</ele>
        <time>2020-08-28T00:28:37.919Z</time>
      </trkpt>
      <trkpt lat="68.6817" lon="17.60481">
        <ele>19.464706</ele>
        <time>2020-08-28T00:28:44.639Z</time>
      </trkpt>
      <trkpt lat="68.68167" lon="17.605">
        <ele>19.227587</ele>
        <time>2020-08-28T00:28:45.778Z</time>
      </trkpt>
      <trkpt lat="68.6816" lon="17.60554">
        <ele>18.564461</ele>
        <time>2020-08-28T00:28:48.503Z</time>
      </trkpt>
      <trkpt lat="68.68142" lon="17.6072">
        <ele>16.5563</ele>
        <time>2020-08-28T00:28:56.942Z</time>
      </trkpt>
      <trkpt lat="68.68127" lon="17.6093">
        <ele>14.378316</ele>
        <time>2020-08-28T00:29:06.852Z</time>
      </trkpt>
      <trkpt lat="68.68127" lon="17.61205">
        <ele>11.758643</ele>
        <time>2020-08-28T00:29:20.258Z</time>
      </trkpt>
      <trkpt lat="68.68122" lon="17.61286">
        <ele>11.09032</ele>
        <time>2020-08-28T00:29:24.839Z</time>
      </trkpt>
      <trkpt lat="68.68118" lon="17.61328">
        <ele>11.190463</ele>
        <time>2020-08-28T00:29:27.060Z</time>
      </trkpt>
      <trkpt lat="68.68115" lon="17.61354">
        <ele>11.251402</ele>
        <time>2020-08-28T00:29:29.144Z</time>
      </trkpt>
      <trkpt lat="68.68103" lon="17.61444">
        <ele>11.473363</ele>
        <time>2020-08-28T00:29:35.540Z</time>
      </trkpt>
      <trkpt lat="68.68082" lon="17.61543">
        <ele>11.736105</ele>
        <time>2020-08-28T00:29:44.221Z</time>
      </trkpt>
      <trkpt lat="68.67998" lon="17.61786">
        <ele>12.324224</ele>
        <time>2020-08-28T00:30:12.867Z</time>
      </trkpt>
      <trkpt lat="68.67985" lon="17.61839">
        <ele>12.383566</ele>
        <time>2020-08-28T00:30:17.926Z</time>
      </trkpt>
      <trkpt lat="68.67972" lon="17.61929">
        <ele>12.473121</ele>
        <time>2020-08-28T00:30:24.160Z</time>
      </trkpt>
      <trkpt lat="68.67948" lon="17.62205">
        <ele>12.231142</ele>
        <time>2020-08-28T00:30:40.709Z</time>
      </trkpt>
      <trkpt lat="68.67941" lon="17.62277">
        <ele>11.834732</ele>
        <time>2020-08-28T00:30:44.458Z</time>
      </trkpt>
      <trkpt lat="68.67935" lon="17.62327">
        <ele>11.551892</ele>
        <time>2020-08-28T00:30:47.402Z</time>
      </trkpt>
      <trkpt lat="68.67896" lon="17.62582">
        <ele>10.084625</ele>
        <time>2020-08-28T00:31:01.865Z</time>
      </trkpt>
      <trkpt lat="68.67892" lon="17.62607">
        <ele>9.978928</ele>
        <time>2020-08-28T00:31:03.222Z</time>
      </trkpt>
      <trkpt lat="68.67881" lon="17.62667">
        <ele>9.771868</ele>
        <time>2020-08-28T00:31:06.897Z</time>
      </trkpt>
      <trkpt lat="68.6786" lon="17.62766">
        <ele>9.417207</ele>
        <time>2020-08-28T00:31:13.692Z</time>
      </trkpt>
      <trkpt lat="68.67835" lon="17.62874">
        <ele>9.023135</ele>
        <time>2020-08-28T00:31:20.883Z</time>
      </trkpt>
      <trkpt lat="68.67826" lon="17.62908">
        <ele>8.892905</ele>
        <time>2020-08-28T00:31:23.469Z</time>
      </trkpt>
      <trkpt lat="68.67775" lon="17.63042">
        <ele>8.57757</ele>
        <time>2020-08-28T00:31:35.229Z</time>
      </trkpt>
      <trkpt lat="68.67759" lon="17.63105">
        <ele>8.658474</ele>
        <time>2020-08-28T00:31:40.168Z</time>
      </trkpt>
      <trkpt lat="68.67747" lon="17.6318">
        <ele>8.74461</ele>
        <time>2020-08-28T00:31:45.516Z</time>
      </trkpt>
      <trkpt lat="68.67738" lon="17.63336">
        <ele>8.90945</ele>
        <time>2020-08-28T00:31:56.944Z</time>
      </trkpt>
      <trkpt lat="68.6773" lon="17.63409">
        <ele>8.98885</ele>
        <time>2020-08-28T00:32:02.109Z</time>
      </trkpt>
      <trkpt lat="68.67674" lon="17.63646">
        <ele>9.921686</ele>
        <time>2020-08-28T00:32:24.174Z</time>
      </trkpt>
      <trkpt lat="68.67667" lon="17.63675">
        <ele>10.045412</ele>
        <time>2020-08-28T00:32:27.686Z</time>
      </trkpt>
      <trkpt lat="68.67654" lon="17.63731">
        <ele>10.282663</ele>
        <time>2020-08-28T00:32:32.159Z</time>
      </trkpt>
      <trkpt lat="68.67607" lon="17.63955">
        <ele>10.673512</ele>
        <time>2020-08-28T00:32:52.032Z</time>
      </trkpt>
      <trkpt lat="68.67473" lon="17.64503">
        <ele>9.448425</ele>
        <time>2020-08-28T00:33:30.408Z</time>
      </trkpt>
      <trkpt lat="68.67466" lon="17.64543">
        <ele>9.317826</ele>
        <time>2020-08-28T00:33:32.761Z</time>
      </trkpt>
      <trkpt lat="68.67461" lon="17.6457">
        <ele>9.232246</ele>
        <time>2020-08-28T00:33:34.263Z</time>
      </trkpt>
      <trkpt lat="68.67444" lon="17.64699">
        <ele>8.831748</ele>
        <time>2020-08-28T00:33:42.467Z</time>
      </trkpt>
      <trkpt lat="68.67421" lon="17.64807">
        <ele>8.880078</ele>
        <time>2020-08-28T00:33:49.944Z</time>
      </trkpt>
      <trkpt lat="68.67405" lon="17.64858">
        <ele>8.908496</ele>
        <time>2020-08-28T00:33:54.649Z</time>
      </trkpt>
      <trkpt lat="68.67368" lon="17.64934">
        <ele>8.961476</ele>
        <time>2020-08-28T00:34:03.050Z</time>
      </trkpt>
      <trkpt lat="68.67352" lon="17.6497">
        <ele>8.985824</ele>
        <time>2020-08-28T00:34:07.465Z</time>
      </trkpt>
      <trkpt lat="68.6735" lon="17.64975">
        <ele>8.98896</ele>
        <time>2020-08-28T00:34:08.582Z</time>
      </trkpt>
      <trkpt lat="68.673" lon="17.65105">
        <ele>8.792705</ele>
        <time>2020-08-28T00:34:21.330Z</time>
      </trkpt>
      <trkpt lat="68.67268" lon="17.65212">
        <ele>8.361208</ele>
        <time>2020-08-28T00:34:29.928Z</time>
      </trkpt>
      <trkpt lat="68.67264" lon="17.65232">
        <ele>8.288085</ele>
        <time>2020-08-28T00:34:31.418Z</time>
      </trkpt>
      <trkpt lat="68.67262" lon="17.6524">
        <ele>8.258519</ele>
        <time>2020-08-28T00:34:31.936Z</time>
      </trkpt>
      <trkpt lat="68.67252" lon="17.65316">
        <ele>8.004442</ele>
        <time>2020-08-28T00:34:36.645Z</time>
      </trkpt>
      <trkpt lat="68.67251" lon="17.65342">
        <ele>7.922554</ele>
        <time>2020-08-28T00:34:38.024Z</time>
      </trkpt>
      <trkpt lat="68.6725" lon="17.65409">
        <ele>7.710704</ele>
        <time>2020-08-28T00:34:41.443Z</time>
      </trkpt>
      <trkpt lat="68.67243" lon="17.65486">
        <ele>7.437752</ele>
        <time>2020-08-28T00:34:45.433Z</time>
      </trkpt>
      <trkpt lat="68.67235" lon="17.65524">
        <ele>7.0992</ele>
        <time>2020-08-28T00:34:47.698Z</time>
      </trkpt>
      <trkpt lat="68.6721" lon="17.6559">
        <ele>6.363547</ele>
        <time>2020-08-28T00:34:52.500Z</time>
      </trkpt>
      <trkpt lat="68.67164" lon="17.65667">
        <ele>5.23776</ele>
        <time>2020-08-28T00:34:59.676Z</time>
      </trkpt>
      <trkpt lat="68.6714" lon="17.65723">
        <ele>4.594902</ele>
        <time>2020-08-28T00:35:03.856Z</time>
      </trkpt>
      <trkpt lat="68.67094" lon="17.6593">
        <ele>3.995137</ele>
        <time>2020-08-28T00:35:17.581Z</time>
      </trkpt>
      <trkpt lat="68.67079" lon="17.65982">
        <ele>4.135248</ele>
        <time>2020-08-28T00:35:21.782Z</time>
      </trkpt>
      <trkpt lat="68.67056" lon="17.66052">
        <ele>4.336817</ele>
        <time>2020-08-28T00:35:28.427Z</time>
      </trkpt>
      <trkpt lat="68.67045" lon="17.66083">
        <ele>4.427573</ele>
        <time>2020-08-28T00:35:31.973Z</time>
      </trkpt>
      <trkpt lat="68.66987" lon="17.66199">
        <ele>5.280389</ele>
        <time>2020-08-28T00:35:49.354Z</time>
      </trkpt>
      <trkpt lat="68.66976" lon="17.66225">
        <ele>5.838531</ele>
        <time>2020-08-28T00:35:52.964Z</time>
      </trkpt>
      <trkpt lat="68.66968" lon="17.66246">
        <ele>6.270545</ele>
        <time>2020-08-28T00:35:55.992Z</time>
      </trkpt>
      <trkpt lat="68.66951" lon="17.66301">
        <ele>7.286294</ele>
        <time>2020-08-28T00:36:03.046Z</time>
      </trkpt>
      <trkpt lat="68.66939" lon="17.66345">
        <ele>8.055992</ele>
        <time>2020-08-28T00:36:08.820Z</time>
      </trkpt>
      <trkpt lat="68.66926" lon="17.66407">
        <ele>9.061759</ele>
        <time>2020-08-28T00:36:16.441Z</time>
      </trkpt>
      <trkpt lat="68.66905" lon="17.66559">
        <ele>11.36941</ele>
        <time>2020-08-28T00:36:37.055Z</time>
      </trkpt>
      <trkpt lat="68.66889" lon="17.66742">
        <ele>16.117885</ele>
        <time>2020-08-28T00:37:02.487Z</time>
      </trkpt>
      <trkpt lat="68.66868" lon="17.66804">
        <ele>18.369548</ele>
        <time>2020-08-28T00:37:14.014Z</time>
      </trkpt>
      <trkpt lat="68.66861" lon="17.66817">
        <ele>19.019954</ele>
        <time>2020-08-28T00:37:17.791Z</time>
      </trkpt>
      <trkpt lat="68.6684" lon="17.66852">
        <ele>20.826883</ele>
        <time>2020-08-28T00:37:27.830Z</time>
      </trkpt>
      <trkpt lat="68.66799" lon="17.66944">
        <ele>24.807704</ele>
        <time>2020-08-28T00:37:52.336Z</time>
      </trkpt>
      <trkpt lat="68.66769" lon="17.67049">
        <ele>29.353313</ele>
        <time>2020-08-28T00:38:18.108Z</time>
      </trkpt>
      <trkpt lat="68.66751" lon="17.67122">
        <ele>32.391677</ele>
        <time>2020-08-28T00:38:34.837Z</time>
      </trkpt>
      <trkpt lat="68.66733" lon="17.67202">
        <ele>35.678357</ele>
        <time>2020-08-28T00:38:51.291Z</time>
      </trkpt>
      <trkpt lat="68.66724" lon="17.67237">
        <ele>37.159596</ele>
        <time>2020-08-28T00:38:58.465Z</time>
      </trkpt>
      <trkpt lat="68.66717" lon="17.67262">
        <ele>38.275411</ele>
        <time>2020-08-28T00:39:03.392Z</time>
      </trkpt>
      <trkpt lat="68.66708" lon="17.67287">
        <ele>39.457951</ele>
        <time>2020-08-28T00:39:09.914Z</time>
      </trkpt>
      <trkpt lat="68.66637" lon="17.6743">
        <ele>46.207679</ele>
        <time>2020-08-28T00:39:50.860Z</time>
      </trkpt>
      <trkpt lat="68.66599" lon="17.67559">
        <ele>50.226041</ele>
        <time>2020-08-28T00:40:14.497Z</time>
      </trkpt>
      <trkpt lat="68.66587" lon="17.67607">
        <ele>51.611653</ele>
        <time>2020-08-28T00:40:21.087Z</time>
      </trkpt>
      <trkpt lat="68.66578" lon="17.67642">
        <ele>52.630159</ele>
        <time>2020-08-28T00:40:25.264Z</time>
      </trkpt>
      <trkpt lat="68.66553" lon="17.67824">
        <ele>56.882778</ele>
        <time>2020-08-28T00:40:48.930Z</time>
      </trkpt>
      <trkpt lat="68.66523" lon="17.67891">
        <ele>59.033802</ele>
        <time>2020-08-28T00:41:02.510Z</time>
      </trkpt>
      <trkpt lat="68.66496" lon="17.67937">
        <ele>60.853297</ele>
        <time>2020-08-28T00:41:14.224Z</time>
      </trkpt>
      <trkpt lat="68.66437" lon="17.68034">
        <ele>64.821667</ele>
        <time>2020-08-28T00:41:39.376Z</time>
      </trkpt>
      <trkpt lat="68.66402" lon="17.68077">
        <ele>67.781707</ele>
        <time>2020-08-28T00:41:55.128Z</time>
      </trkpt>
      <trkpt lat="68.66343" lon="17.68097">
        <ele>72.350384</ele>
        <time>2020-08-28T00:42:21.607Z</time>
      </trkpt>
      <trkpt lat="68.66324" lon="17.68137">
        <ele>74.198156</ele>
        <time>2020-08-28T00:42:32.426Z</time>
      </trkpt>
      <trkpt lat="68.663" lon="17.68314">
        <ele>79.479557</ele>
        <time>2020-08-28T00:43:01.194Z</time>
      </trkpt>
      <trkpt lat="68.66286" lon="17.68533">
        <ele>85.584223</ele>
        <time>2020-08-28T00:43:38.417Z</time>
      </trkpt>
      <trkpt lat="68.66274" lon="17.68589">
        <ele>87.382879</ele>
        <time>2020-08-28T00:43:47.201Z</time>
      </trkpt>
      <trkpt lat="68.66244" lon="17.6866">
        <ele>90.340863</ele>
        <time>2020-08-28T00:44:03.098Z</time>
      </trkpt>
      <trkpt lat="68.66241" lon="17.68668">
        <ele>90.658853</ele>
        <time>2020-08-28T00:44:06.073Z</time>
      </trkpt>
      <trkpt lat="68.66233" lon="17.68694">
        <ele>91.591181</ele>
        <time>2020-08-28T00:44:10.389Z</time>
      </trkpt>
      <trkpt lat="68.66227" lon="17.68735">
        <ele>92.542464</ele>
        <time>2020-08-28T00:44:15.344Z</time>
      </trkpt>
      <trkpt lat="68.66226" lon="17.68747">
        <ele>92.773889</ele>
        <time>2020-08-28T00:44:17.543Z</time>
      </trkpt>
      <trkpt lat="68.66218" lon="17.68855">
        <ele>94.938452</ele>
        <time>2020-08-28T00:44:33.431Z</time>
      </trkpt>
      <trkpt lat="68.66199" lon="17.68995">
        <ele>97.855639</ele>
        <time>2020-08-28T00:44:52.068Z</time>
      </trkpt>
      <trkpt lat="68.66155" lon="17.69135">
        <ele>101.490621</ele>
        <time>2020-08-28T00:45:14.280Z</time>
      </trkpt>
      <trkpt lat="68.6615" lon="17.69148">
        <ele>101.868643</ele>
        <time>2020-08-28T00:45:16.625Z</time>
      </trkpt>
      <trkpt lat="68.66139" lon="17.69176">
        <ele>102.668804</ele>
        <time>2020-08-28T00:45:21.026Z</time>
      </trkpt>
      <trkpt lat="68.66116" lon="17.69226">
        <ele>104.212007</ele>
        <time>2020-08-28T00:45:29.337Z</time>
      </trkpt>
      <trkpt lat="68.6611" lon="17.69236">
        <ele>104.60093</ele>
        <time>2020-08-28T00:45:31.681Z</time>
      </trkpt>
      <trkpt lat="68.66101" lon="17.69252">
        <ele>105.192957</ele>
        <time>2020-08-28T00:45:35.040Z</time>
      </trkpt>
      <trkpt lat="68.66054" lon="17.69309">
        <ele>107.916803</ele>
        <time>2020-08-28T00:45:51.866Z</time>
      </trkpt>
      <trkpt lat="68.66034" lon="17.69322">
        <ele>109.002506</ele>
        <time>2020-08-28T00:45:59.303Z</time>
      </trkpt>
      <trkpt lat="68.66026" lon="17.69327">
        <ele>109.463116</ele>
        <time>2020-08-28T00:46:02.727Z</time>
      </trkpt>
      <trkpt lat="68.6599" lon="17.69356">
        <ele>111.702871</ele>
        <time>2020-08-28T00:46:17.568Z</time>
      </trkpt>
      <trkpt lat="68.65937" lon="17.69461">
        <ele>118.292076</ele>
        <time>2020-08-28T00:46:47.339Z</time>
      </trkpt>
      <trkpt lat="68.65915" lon="17.69492">
        <ele>120.760034</ele>
        <time>2020-08-28T00:46:59.886Z</time>
      </trkpt>
      <trkpt lat="68.65866" lon="17.69523">
        <ele>125.836706</ele>
        <time>2020-08-28T00:47:27.508Z</time>
      </trkpt>
      <trkpt lat="68.65801" lon="17.69544">
        <ele>132.693945</ele>
        <time>2020-08-28T00:48:04.650Z</time>
      </trkpt>
      <trkpt lat="68.65764" lon="17.69586">
        <ele>137.152851</ele>
        <time>2020-08-28T00:48:27.594Z</time>
      </trkpt>
      <trkpt lat="68.65749" lon="17.69636">
        <ele>139.786393</ele>
        <time>2020-08-28T00:48:40.895Z</time>
      </trkpt>
      <trkpt lat="68.65738" lon="17.69712">
        <ele>143.032093</ele>
        <time>2020-08-28T00:48:56.500Z</time>
      </trkpt>
      <trkpt lat="68.65729" lon="17.70045">
        <ele>153.955884</ele>
        <time>2020-08-28T00:49:55.223Z</time>
      </trkpt>
      <trkpt lat="68.65719" lon="17.70092">
        <ele>155.406867</ele>
        <time>2020-08-28T00:50:04.246Z</time>
      </trkpt>
      <trkpt lat="68.6571" lon="17.70106">
        <ele>156.168634</ele>
        <time>2020-08-28T00:50:07.687Z</time>
      </trkpt>
      <trkpt lat="68.65702" lon="17.70102">
        <ele>156.737702</ele>
        <time>2020-08-28T00:50:10.667Z</time>
      </trkpt>
      <trkpt lat="68.65699" lon="17.70098">
        <ele>156.954548</ele>
        <time>2020-08-28T00:50:12.984Z</time>
      </trkpt>
      <trkpt lat="68.65697" lon="17.70091">
        <ele>157.193559</ele>
        <time>2020-08-28T00:50:14.316Z</time>
      </trkpt>
      <trkpt lat="68.65695" lon="17.70076">
        <ele>157.611388</ele>
        <time>2020-08-28T00:50:16.186Z</time>
      </trkpt>
      <trkpt lat="68.65695" lon="17.70063">
        <ele>157.96116</ele>
        <time>2020-08-28T00:50:17.785Z</time>
      </trkpt>
      <trkpt lat="68.65698" lon="17.69939">
        <ele>161.238013</ele>
        <time>2020-08-28T00:50:33.144Z</time>
      </trkpt>
      <trkpt lat="68.65698" lon="17.69889">
        <ele>162.304868</ele>
        <time>2020-08-28T00:50:40.310Z</time>
      </trkpt>
      <trkpt lat="68.65688" lon="17.69777">
        <ele>163.464855</ele>
        <time>2020-08-28T00:50:52.790Z</time>
      </trkpt>
      <trkpt lat="68.65658" lon="17.69563">
        <ele>165.768264</ele>
        <time>2020-08-28T00:51:13.741Z</time>
      </trkpt>
      <trkpt lat="68.65659" lon="17.69444">
        <ele>166.956624</ele>
        <time>2020-08-28T00:51:23.940Z</time>
      </trkpt>
      <trkpt lat="68.65669" lon="17.69373">
        <ele>167.555193</ele>
        <time>2020-08-28T00:51:29.858Z</time>
      </trkpt>
      <trkpt lat="68.65692" lon="17.693">
        <ele>168.258657</ele>
        <time>2020-08-28T00:51:37.466Z</time>
      </trkpt>
      <trkpt lat="68.65768" lon="17.69188">
        <ele>169.984951</ele>
        <time>2020-08-28T00:51:57.635Z</time>
      </trkpt>
      <trkpt lat="68.65787" lon="17.69142">
        <ele>170.48485</ele>
        <time>2020-08-28T00:52:04.258Z</time>
      </trkpt>
      <trkpt lat="68.65794" lon="17.69103">
        <ele>170.93779</ele>
        <time>2020-08-28T00:52:08.741Z</time>
      </trkpt>
      <trkpt lat="68.65795" lon="17.69057">
        <ele>171.734953</ele>
        <time>2020-08-28T00:52:13.630Z</time>
      </trkpt>
      <trkpt lat="68.65784" lon="17.6898">
        <ele>173.167822</ele>
        <time>2020-08-28T00:52:22.866Z</time>
      </trkpt>
      <trkpt lat="68.65759" lon="17.68938">
        <ele>174.538741</ele>
        <time>2020-08-28T00:52:32.171Z</time>
      </trkpt>
      <trkpt lat="68.65737" lon="17.68939">
        <ele>175.597724</ele>
        <time>2020-08-28T00:52:39.653Z</time>
      </trkpt>
      <trkpt lat="68.65717" lon="17.68963">
        <ele>176.630781</ele>
        <time>2020-08-28T00:52:47.277Z</time>
      </trkpt>
      <trkpt lat="68.65575" lon="17.69208">
        <ele>185.994663</ele>
        <time>2020-08-28T00:53:49.536Z</time>
      </trkpt>
      <trkpt lat="68.65529" lon="17.69245">
        <ele>188.830728</ele>
        <time>2020-08-28T00:54:07.629Z</time>
      </trkpt>
      <trkpt lat="68.65471" lon="17.69253">
        <ele>191.896817</ele>
        <time>2020-08-28T00:54:29.208Z</time>
      </trkpt>
      <trkpt lat="68.65376" lon="17.69256">
        <ele>196.452452</ele>
        <time>2020-08-28T00:55:01.241Z</time>
      </trkpt>
      <trkpt lat="68.65358" lon="17.69255">
        <ele>197.323164</ele>
        <time>2020-08-28T00:55:06.730Z</time>
      </trkpt>
      <trkpt lat="68.65293" lon="17.69235">
        <ele>199.414416</ele>
        <time>2020-08-28T00:55:25.503Z</time>
      </trkpt>
      <trkpt lat="68.65286" lon="17.69234">
        <ele>199.563245</ele>
        <time>2020-08-28T00:55:27.504Z</time>
      </trkpt>
      <trkpt lat="68.65279" lon="17.69229">
        <ele>199.70765</ele>
        <time>2020-08-28T00:55:29.433Z</time>
      </trkpt>
      <trkpt lat="68.65261" lon="17.69235">
        <ele>200.084529</ele>
        <time>2020-08-28T00:55:33.895Z</time>
      </trkpt>
      <trkpt lat="68.65259" lon="17.69236">
        <ele>200.116142</ele>
        <time>2020-08-28T00:55:34.413Z</time>
      </trkpt>
      <trkpt lat="68.65241" lon="17.6925">
        <ele>200.513556</ele>
        <time>2020-08-28T00:55:39.138Z</time>
      </trkpt>
      <trkpt lat="68.65234" lon="17.69258">
        <ele>200.654265</ele>
        <time>2020-08-28T00:55:40.868Z</time>
      </trkpt>
      <trkpt lat="68.65221" lon="17.69217">
        <ele>201.061333</ele>
        <time>2020-08-28T00:55:45.070Z</time>
      </trkpt>
      <trkpt lat="68.65172" lon="17.69094">
        <ele>202.355676</ele>
        <time>2020-08-28T00:55:59.272Z</time>
      </trkpt>
      <trkpt lat="68.65086" lon="17.6893">
        <ele>203.167098</ele>
        <time>2020-08-28T00:56:20.136Z</time>
      </trkpt>
      <trkpt lat="68.65082" lon="17.68926">
        <ele>203.200015</ele>
        <time>2020-08-28T00:56:21.188Z</time>
      </trkpt>
      <trkpt lat="68.64956" lon="17.68688">
        <ele>204.313688</ele>
        <time>2020-08-28T00:56:52.126Z</time>
      </trkpt>
      <trkpt lat="68.64952" lon="17.68679">
        <ele>204.353013</ele>
        <time>2020-08-28T00:56:53.326Z</time>
      </trkpt>
      <trkpt lat="68.64667" lon="17.68142">
        <ele>206.293763</ele>
        <time>2020-08-28T00:58:01.835Z</time>
      </trkpt>
      <trkpt lat="68.64595" lon="17.68045">
        <ele>206.491761</ele>
        <time>2020-08-28T00:58:16.163Z</time>
      </trkpt>
      <trkpt lat="68.64532" lon="17.68006">
        <ele>206.683252</ele>
        <time>2020-08-28T00:58:27.091Z</time>
      </trkpt>
      <trkpt lat="68.64194" lon="17.67989">
        <ele>209.776262</ele>
        <time>2020-08-28T00:59:33.289Z</time>
      </trkpt>
      <trkpt lat="68.64142" lon="17.67976">
        <ele>212.65274</ele>
        <time>2020-08-28T00:59:50.099Z</time>
      </trkpt>
      <trkpt lat="68.64109" lon="17.6795">
        <ele>214.56143</ele>
        <time>2020-08-28T01:00:02.602Z</time>
      </trkpt>
      <trkpt lat="68.64022" lon="17.67843">
        <ele>220.319773</ele>
        <time>2020-08-28T01:00:44.996Z</time>
      </trkpt>
      <trkpt lat="68.63955" lon="17.67795">
        <ele>225.510624</ele>
        <time>2020-08-28T01:01:16.375Z</time>
      </trkpt>
      <trkpt lat="68.63931" lon="17.67786">
        <ele>227.346592</ele>
        <time>2020-08-28T01:01:27.386Z</time>
      </trkpt>
      <trkpt lat="68.63816" lon="17.67741">
        <ele>233.926087</ele>
        <time>2020-08-28T01:02:10.846Z</time>
      </trkpt>
      <trkpt lat="68.63646" lon="17.67675">
        <ele>238.510251</ele>
        <time>2020-08-28T01:02:52.818Z</time>
      </trkpt>
      <trkpt lat="68.63604" lon="17.67649">
        <ele>238.897553</ele>
        <time>2020-08-28T01:03:01.510Z</time>
      </trkpt>
      <trkpt lat="68.63568" lon="17.67611">
        <ele>239.230094</ele>
        <time>2020-08-28T01:03:08.841Z</time>
      </trkpt>
      <trkpt lat="68.63451" lon="17.67434">
        <ele>239.79424</ele>
        <time>2020-08-28T01:03:33.795Z</time>
      </trkpt>
      <trkpt lat="68.63409" lon="17.67386">
        <ele>239.841954</ele>
        <time>2020-08-28T01:03:41.964Z</time>
      </trkpt>
      <trkpt lat="68.63374" lon="17.67363">
        <ele>239.880342</ele>
        <time>2020-08-28T01:03:48.496Z</time>
      </trkpt>
      <trkpt lat="68.6333" lon="17.67352">
        <ele>239.897608</ele>
        <time>2020-08-28T01:03:56.321Z</time>
      </trkpt>
      <trkpt lat="68.63267" lon="17.6737">
        <ele>239.891574</ele>
        <time>2020-08-28T01:04:07.615Z</time>
      </trkpt>
      <trkpt lat="68.63155" lon="17.67438">
        <ele>239.962759</ele>
        <time>2020-08-28T01:04:27.972Z</time>
      </trkpt>
      <trkpt lat="68.6314" lon="17.67446">
        <ele>240.014538</ele>
        <time>2020-08-28T01:04:30.712Z</time>
      </trkpt>
      <trkpt lat="68.631" lon="17.67458">
        <ele>240.14994</ele>
        <time>2020-08-28T01:04:37.782Z</time>
      </trkpt>
      <trkpt lat="68.63052" lon="17.67447">
        <ele>240.310738</ele>
        <time>2020-08-28T01:04:46.242Z</time>
      </trkpt>
      <trkpt lat="68.63014" lon="17.67418">
        <ele>240.444999</ele>
        <time>2020-08-28T01:04:54.518Z</time>
      </trkpt>
      <trkpt lat="68.62977" lon="17.67372">
        <ele>241.1821</ele>
        <time>2020-08-28T01:05:03.493Z</time>
      </trkpt>
      <trkpt lat="68.62952" lon="17.67332">
        <ele>241.888321</ele>
        <time>2020-08-28T01:05:10.028Z</time>
      </trkpt>
      <trkpt lat="68.62942" lon="17.67312">
        <ele>242.20232</ele>
        <time>2020-08-28T01:05:13.063Z</time>
      </trkpt>
      <trkpt lat="68.62929" lon="17.67285">
        <ele>242.606544</ele>
        <time>2020-08-28T01:05:17.027Z</time>
      </trkpt>
      <trkpt lat="68.62898" lon="17.67217">
        <ele>243.587986</ele>
        <time>2020-08-28T01:05:27.496Z</time>
      </trkpt>
      <trkpt lat="68.62829" lon="17.67088">
        <ele>246.213197</ele>
        <time>2020-08-28T01:05:52.222Z</time>
      </trkpt>
      <trkpt lat="68.62752" lon="17.67009">
        <ele>249.798321</ele>
        <time>2020-08-28T01:06:18.929Z</time>
      </trkpt>
      <trkpt lat="68.62706" lon="17.66947">
        <ele>252.077405</ele>
        <time>2020-08-28T01:06:35.754Z</time>
      </trkpt>
      <trkpt lat="68.62478" lon="17.66566">
        <ele>264.907801</ele>
        <time>2020-08-28T01:08:03.494Z</time>
      </trkpt>
      <trkpt lat="68.62406" lon="17.66418">
        <ele>269.584096</ele>
        <time>2020-08-28T01:08:35.706Z</time>
      </trkpt>
      <trkpt lat="68.6239" lon="17.66379">
        <ele>270.666962</ele>
        <time>2020-08-28T01:08:43.331Z</time>
      </trkpt>
      <trkpt lat="68.62374" lon="17.66338">
        <ele>271.544211</ele>
        <time>2020-08-28T01:08:50.901Z</time>
      </trkpt>
      <trkpt lat="68.6234" lon="17.66232">
        <ele>273.649704</ele>
        <time>2020-08-28T01:09:08.282Z</time>
      </trkpt>
      <trkpt lat="68.62298" lon="17.66069">
        <ele>276.609542</ele>
        <time>2020-08-28T01:09:31.944Z</time>
      </trkpt>
      <trkpt lat="68.62237" lon="17.65811">
        <ele>277.91701</ele>
        <time>2020-08-28T01:09:56.609Z</time>
      </trkpt>
      <trkpt lat="68.62195" lon="17.65629">
        <ele>277.8901</ele>
        <time>2020-08-28T01:10:09.099Z</time>
      </trkpt>
      <trkpt lat="68.62193" lon="17.65621">
        <ele>277.888896</ele>
        <time>2020-08-28T01:10:09.555Z</time>
      </trkpt>
      <trkpt lat="68.62101" lon="17.65226">
        <ele>274.594061</ele>
        <time>2020-08-28T01:10:33.174Z</time>
      </trkpt>
      <trkpt lat="68.62086" lon="17.6516">
        <ele>273.992599</ele>
        <time>2020-08-28T01:10:37.086Z</time>
      </trkpt>
      <trkpt lat="68.62059" lon="17.65047">
        <ele>273.306109</ele>
        <time>2020-08-28T01:10:44.104Z</time>
      </trkpt>
      <trkpt lat="68.61944" lon="17.64554">
        <ele>270.904786</ele>
        <time>2020-08-28T01:11:16.864Z</time>
      </trkpt>
      <trkpt lat="68.61923" lon="17.64472">
        <ele>270.642919</ele>
        <time>2020-08-28T01:11:22.890Z</time>
      </trkpt>
      <trkpt lat="68.6192" lon="17.64463">
        <ele>270.614498</ele>
        <time>2020-08-28T01:11:23.500Z</time>
      </trkpt>
      <trkpt lat="68.61915" lon="17.64446">
        <ele>270.555821</ele>
        <time>2020-08-28T01:11:24.886Z</time>
      </trkpt>
      <trkpt lat="68.61909" lon="17.64427">
        <ele>270.488487</ele>
        <time>2020-08-28T01:11:26.466Z</time>
      </trkpt>
      <trkpt lat="68.61895" lon="17.6439">
        <ele>270.353867</ele>
        <time>2020-08-28T01:11:29.590Z</time>
      </trkpt>
      <trkpt lat="68.61884" lon="17.64366">
        <ele>270.253273</ele>
        <time>2020-08-28T01:11:32.005Z</time>
      </trkpt>
      <trkpt lat="68.61871" lon="17.64341">
        <ele>270.20308</ele>
        <time>2020-08-28T01:11:34.732Z</time>
      </trkpt>
      <trkpt lat="68.61854" lon="17.64314">
        <ele>270.179261</ele>
        <time>2020-08-28T01:11:38.103Z</time>
      </trkpt>
      <trkpt lat="68.61842" lon="17.643">
        <ele>270.163731</ele>
        <time>2020-08-28T01:11:40.360Z</time>
      </trkpt>
      <trkpt lat="68.6182" lon="17.6428">
        <ele>270.136194</ele>
        <time>2020-08-28T01:11:44.304Z</time>
      </trkpt>
      <trkpt lat="68.61817" lon="17.64277">
        <ele>270.131966</ele>
        <time>2020-08-28T01:11:44.928Z</time>
      </trkpt>
      <trkpt lat="68.61804" lon="17.64269">
        <ele>270.116189</ele>
        <time>2020-08-28T01:11:47.249Z</time>
      </trkpt>
      <trkpt lat="68.61693" lon="17.64223">
        <ele>270.000003</ele>
        <time>2020-08-28T01:12:07.170Z</time>
      </trkpt>
      <trkpt lat="68.61652" lon="17.64189">
        <ele>270.000003</ele>
        <time>2020-08-28T01:12:14.795Z</time>
      </trkpt>
      <trkpt lat="68.61618" lon="17.64139">
        <ele>270.000003</ele>
        <time>2020-08-28T01:12:21.674Z</time>
      </trkpt>
      <trkpt lat="68.61586" lon="17.6408">
        <ele>270.000003</ele>
        <time>2020-08-28T01:12:28.583Z</time>
      </trkpt>
      <trkpt lat="68.61558" lon="17.64028">
        <ele>270.000003</ele>
        <time>2020-08-28T01:12:34.658Z</time>
      </trkpt>
      <trkpt lat="68.61506" lon="17.63942">
        <ele>270.00593</ele>
        <time>2020-08-28T01:12:45.543Z</time>
      </trkpt>
      <trkpt lat="68.61463" lon="17.63891">
        <ele>270.011436</ele>
        <time>2020-08-28T01:12:53.895Z</time>
      </trkpt>
      <trkpt lat="68.61445" lon="17.63875">
        <ele>270.013695</ele>
        <time>2020-08-28T01:12:57.307Z</time>
      </trkpt>
      <trkpt lat="68.61426" lon="17.63862">
        <ele>270.016072</ele>
        <time>2020-08-28T01:13:00.917Z</time>
      </trkpt>
      <trkpt lat="68.61196" lon="17.63741">
        <ele>270.143569</ele>
        <time>2020-08-28T01:13:42.755Z</time>
      </trkpt>
      <trkpt lat="68.61145" lon="17.63729">
        <ele>270.370398</ele>
        <time>2020-08-28T01:13:51.884Z</time>
      </trkpt>
      <trkpt lat="68.61024" lon="17.63728">
        <ele>270.942338</ele>
        <time>2020-08-28T01:14:15.077Z</time>
      </trkpt>
      <trkpt lat="68.60949" lon="17.63689">
        <ele>272.581689</ele>
        <time>2020-08-28T01:14:33.282Z</time>
      </trkpt>
      <trkpt lat="68.60927" lon="17.63665">
        <ele>273.096507</ele>
        <time>2020-08-28T01:14:39.334Z</time>
      </trkpt>
      <trkpt lat="68.60915" lon="17.63648">
        <ele>273.383147</ele>
        <time>2020-08-28T01:14:43.535Z</time>
      </trkpt>
      <trkpt lat="68.60866" lon="17.63562">
        <ele>274.628402</ele>
        <time>2020-08-28T01:14:58.734Z</time>
      </trkpt>
      <trkpt lat="68.60794" lon="17.63415">
        <ele>275.903023</ele>
        <time>2020-08-28T01:15:22.532Z</time>
      </trkpt>
      <trkpt lat="68.60648" lon="17.63114">
        <ele>276.949393</ele>
        <time>2020-08-28T01:15:56.196Z</time>
      </trkpt>
      <trkpt lat="68.60577" lon="17.62947">
        <ele>276.683109</ele>
        <time>2020-08-28T01:16:10.673Z</time>
      </trkpt>
      <trkpt lat="68.60535" lon="17.62815">
        <ele>277.457064</ele>
        <time>2020-08-28T01:16:22.103Z</time>
      </trkpt>
      <trkpt lat="68.60485" lon="17.62639">
        <ele>278.451152</ele>
        <time>2020-08-28T01:16:40.290Z</time>
      </trkpt>
      <trkpt lat="68.60416" lon="17.62392">
        <ele>282.080618</ele>
        <time>2020-08-28T01:17:12.616Z</time>
      </trkpt>
      <trkpt lat="68.60386" lon="17.62297">
        <ele>283.913233</ele>
        <time>2020-08-28T01:17:27.366Z</time>
      </trkpt>
      <trkpt lat="68.60357" lon="17.62223">
        <ele>285.522079</ele>
        <time>2020-08-28T01:17:40.776Z</time>
      </trkpt>
      <trkpt lat="68.60308" lon="17.62142">
        <ele>288.389107</ele>
        <time>2020-08-28T01:18:00.062Z</time>
      </trkpt>
      <trkpt lat="68.60267" lon="17.62105">
        <ele>290.661932</ele>
        <time>2020-08-28T01:18:14.364Z</time>
      </trkpt>
      <trkpt lat="68.6009" lon="17.62009">
        <ele>302.097214</ele>
        <time>2020-08-28T01:19:19.809Z</time>
      </trkpt>
      <trkpt lat="68.60039" lon="17.61963">
        <ele>306.151019</ele>
        <time>2020-08-28T01:19:43.617Z</time>
      </trkpt>
      <trkpt lat="68.6" lon="17.61914">
        <ele>309.421715</ele>
        <time>2020-08-28T01:20:03.924Z</time>
      </trkpt>
      <trkpt lat="68.59891" lon="17.61754">
        <ele>322.32607</ele>
        <time>2020-08-28T01:21:08.262Z</time>
      </trkpt>
      <trkpt lat="68.59813" lon="17.6164">
        <ele>330.673759</ele>
        <time>2020-08-28T01:21:54.919Z</time>
      </trkpt>
      <trkpt lat="68.59749" lon="17.61541">
        <ele>336.501261</ele>
        <time>2020-08-28T01:22:30.069Z</time>
      </trkpt>
      <trkpt lat="68.59723" lon="17.61494">
        <ele>339.042054</ele>
        <time>2020-08-28T01:22:43.630Z</time>
      </trkpt>
      <trkpt lat="68.59716" lon="17.6148">
        <ele>339.746264</ele>
        <time>2020-08-28T01:22:47.818Z</time>
      </trkpt>
      <trkpt lat="68.59667" lon="17.6137">
        <ele>341.439349</ele>
        <time>2020-08-28T01:23:06.100Z</time>
      </trkpt>
      <trkpt lat="68.59625" lon="17.61241">
        <ele>339.819021</ele>
        <time>2020-08-28T01:23:16.438Z</time>
      </trkpt>
      <trkpt lat="68.59598" lon="17.61148">
        <ele>338.716153</ele>
        <time>2020-08-28T01:23:21.804Z</time>
      </trkpt>
      <trkpt lat="68.59567" lon="17.61026">
        <ele>336.188724</ele>
        <time>2020-08-28T01:23:27.980Z</time>
      </trkpt>
      <trkpt lat="68.59422" lon="17.60454">
        <ele>306.910753</ele>
        <time>2020-08-28T01:23:55.020Z</time>
      </trkpt>
      <trkpt lat="68.59382" lon="17.60357">
        <ele>300.62599</ele>
        <time>2020-08-28T01:24:00.761Z</time>
      </trkpt>
      <trkpt lat="68.5934" lon="17.60307">
        <ele>295.55456</ele>
        <time>2020-08-28T01:24:05.690Z</time>
      </trkpt>
      <trkpt lat="68.59289" lon="17.60298">
        <ele>291.778989</ele>
        <time>2020-08-28T01:24:11.330Z</time>
      </trkpt>
      <trkpt lat="68.59236" lon="17.60334">
        <ele>287.775194</ele>
        <time>2020-08-28T01:24:17.462Z</time>
      </trkpt>
      <trkpt lat="68.59214" lon="17.60363">
        <ele>285.998268</ele>
        <time>2020-08-28T01:24:20.262Z</time>
      </trkpt>
      <trkpt lat="68.59101" lon="17.60579">
        <ele>280.226584</ele>
        <time>2020-08-28T01:24:38.032Z</time>
      </trkpt>
      <trkpt lat="68.59047" lon="17.60652">
        <ele>278.585668</ele>
        <time>2020-08-28T01:24:47.286Z</time>
      </trkpt>
      <trkpt lat="68.58997" lon="17.60666">
        <ele>276.656335</ele>
        <time>2020-08-28T01:24:54.361Z</time>
      </trkpt>
      <trkpt lat="68.58943" lon="17.60628">
        <ele>273.793802</ele>
        <time>2020-08-28T01:25:01.780Z</time>
      </trkpt>
      <trkpt lat="68.5891" lon="17.6057">
        <ele>271.840156</ele>
        <time>2020-08-28T01:25:06.457Z</time>
      </trkpt>
      <trkpt lat="68.58891" lon="17.60511">
        <ele>270.364842</ele>
        <time>2020-08-28T01:25:09.837Z</time>
      </trkpt>
      <trkpt lat="68.58866" lon="17.60377">
        <ele>266.174373</ele>
        <time>2020-08-28T01:25:15.938Z</time>
      </trkpt>
      <trkpt lat="68.58862" lon="17.60325">
        <ele>263.996864</ele>
        <time>2020-08-28T01:25:18.060Z</time>
      </trkpt>
      <trkpt lat="68.58864" lon="17.602">
        <ele>258.916542</ele>
        <time>2020-08-28T01:25:22.900Z</time>
      </trkpt>
      <trkpt lat="68.58887" lon="17.60037">
        <ele>251.829136</ele>
        <time>2020-08-28T01:25:29.679Z</time>
      </trkpt>
      <trkpt lat="68.58924" lon="17.59841">
        <ele>244.580518</ele>
        <time>2020-08-28T01:25:38.407Z</time>
      </trkpt>
      <trkpt lat="68.58954" lon="17.59681">
        <ele>239.398099</ele>
        <time>2020-08-28T01:25:45.805Z</time>
      </trkpt>
      <trkpt lat="68.58986" lon="17.59482">
        <ele>233.709016</ele>
        <time>2020-08-28T01:25:55.314Z</time>
      </trkpt>
      <trkpt lat="68.58991" lon="17.59399">
        <ele>232.235062</ele>
        <time>2020-08-28T01:25:59.431Z</time>
      </trkpt>
      <trkpt lat="68.58991" lon="17.59319">
        <ele>230.838077</ele>
        <time>2020-08-28T01:26:03.245Z</time>
      </trkpt>
      <trkpt lat="68.58973" lon="17.59162">
        <ele>227.985056</ele>
        <time>2020-08-28T01:26:10.723Z</time>
      </trkpt>
      <trkpt lat="68.58952" lon="17.59079">
        <ele>226.229845</ele>
        <time>2020-08-28T01:26:15.112Z</time>
      </trkpt>
      <trkpt lat="68.58925" lon="17.5901">
        <ele>223.121946</ele>
        <time>2020-08-28T01:26:19.409Z</time>
      </trkpt>
      <trkpt lat="68.58891" lon="17.58956">
        <ele>219.583452</ele>
        <time>2020-08-28T01:26:23.879Z</time>
      </trkpt>
      <trkpt lat="68.58853" lon="17.58914">
        <ele>215.957272</ele>
        <time>2020-08-28T01:26:28.373Z</time>
      </trkpt>
      <trkpt lat="68.58678" lon="17.58758">
        <ele>197.245488</ele>
        <time>2020-08-28T01:26:48.232Z</time>
      </trkpt>
      <trkpt lat="68.58612" lon="17.58744">
        <ele>190.191642</ele>
        <time>2020-08-28T01:26:55.370Z</time>
      </trkpt>
      <trkpt lat="68.58587" lon="17.58761">
        <ele>188.44196</ele>
        <time>2020-08-28T01:26:58.102Z</time>
      </trkpt>
      <trkpt lat="68.58548" lon="17.58815">
        <ele>185.335255</ele>
        <time>2020-08-28T01:27:03.101Z</time>
      </trkpt>
      <trkpt lat="68.58525" lon="17.58876">
        <ele>183.119239</ele>
        <time>2020-08-28T01:27:06.755Z</time>
      </trkpt>
      <trkpt lat="68.58517" lon="17.58907">
        <ele>182.105529</ele>
        <time>2020-08-28T01:27:08.511Z</time>
      </trkpt>
      <trkpt lat="68.58458" lon="17.59217">
        <ele>174.005052</ele>
        <time>2020-08-28T01:27:23.899Z</time>
      </trkpt>
      <trkpt lat="68.58438" lon="17.5927">
        <ele>172.429973</ele>
        <time>2020-08-28T01:27:27.361Z</time>
      </trkpt>
      <trkpt lat="68.58398" lon="17.59332">
        <ele>169.775335</ele>
        <time>2020-08-28T01:27:32.760Z</time>
      </trkpt>
      <trkpt lat="68.58381" lon="17.59347">
        <ele>168.747122</ele>
        <time>2020-08-28T01:27:35.015Z</time>
      </trkpt>
      <trkpt lat="68.58366" lon="17.59359">
        <ele>167.843282</ele>
        <time>2020-08-28T01:27:36.733Z</time>
      </trkpt>
      <trkpt lat="68.58307" lon="17.59388">
        <ele>163.436564</ele>
        <time>2020-08-28T01:27:43.578Z</time>
      </trkpt>
      <trkpt lat="68.58263" lon="17.59435">
        <ele>159.831879</ele>
        <time>2020-08-28T01:27:48.794Z</time>
      </trkpt>
      <trkpt lat="68.58124" lon="17.59718">
        <ele>147.203118</ele>
        <time>2020-08-28T01:28:08.643Z</time>
      </trkpt>
      <trkpt lat="68.58083" lon="17.5979">
        <ele>143.778936</ele>
        <time>2020-08-28T01:28:14.059Z</time>
      </trkpt>
      <trkpt lat="68.57996" lon="17.59931">
        <ele>139.844255</ele>
        <time>2020-08-28T01:28:26.385Z</time>
      </trkpt>
      <trkpt lat="68.5798" lon="17.59957">
        <ele>139.453629</ele>
        <time>2020-08-28T01:28:28.762Z</time>
      </trkpt>
      <trkpt lat="68.57967" lon="17.59974">
        <ele>139.160095</ele>
        <time>2020-08-28T01:28:31.361Z</time>
      </trkpt>
      <trkpt lat="68.57956" lon="17.59987">
        <ele>138.895969</ele>
        <time>2020-08-28T01:28:32.923Z</time>
      </trkpt>
      <trkpt lat="68.57932" lon="17.60004">
        <ele>138.395922</ele>
        <time>2020-08-28T01:28:37.728Z</time>
      </trkpt>
      <trkpt lat="68.57869" lon="17.60013">
        <ele>137.858149</ele>
        <time>2020-08-28T01:28:50.481Z</time>
      </trkpt>
      <trkpt lat="68.57833" lon="17.59994">
        <ele>138.79922</ele>
        <time>2020-08-28T01:29:00.267Z</time>
      </trkpt>
      <trkpt lat="68.57799" lon="17.59955">
        <ele>139.760621</ele>
        <time>2020-08-28T01:29:13.310Z</time>
      </trkpt>
      <trkpt lat="68.57774" lon="17.5991">
        <ele>140.52379</ele>
        <time>2020-08-28T01:29:22.980Z</time>
      </trkpt>
      <trkpt lat="68.57743" lon="17.59829">
        <ele>141.642185</ele>
        <time>2020-08-28T01:29:34.142Z</time>
      </trkpt>
      <trkpt lat="68.57716" lon="17.59728">
        <ele>141.154444</ele>
        <time>2020-08-28T01:29:42.940Z</time>
      </trkpt>
      <trkpt lat="68.57697" lon="17.59592">
        <ele>139.460736</ele>
        <time>2020-08-28T01:29:50.684Z</time>
      </trkpt>
      <trkpt lat="68.57633" lon="17.58665">
        <ele>122.433885</ele>
        <time>2020-08-28T01:30:31.670Z</time>
      </trkpt>
      <trkpt lat="68.57622" lon="17.58557">
        <ele>120.199461</ele>
        <time>2020-08-28T01:30:36.456Z</time>
      </trkpt>
      <trkpt lat="68.576" lon="17.58435">
        <ele>117.476663</ele>
        <time>2020-08-28T01:30:42.459Z</time>
      </trkpt>
      <trkpt lat="68.57585" lon="17.5838">
        <ele>116.144484</ele>
        <time>2020-08-28T01:30:45.516Z</time>
      </trkpt>
      <trkpt lat="68.57563" lon="17.58323">
        <ele>115.154215</ele>
        <time>2020-08-28T01:30:49.257Z</time>
      </trkpt>
      <trkpt lat="68.57524" lon="17.58258">
        <ele>113.650737</ele>
        <time>2020-08-28T01:30:55.068Z</time>
      </trkpt>
      <trkpt lat="68.57189" lon="17.57961">
        <ele>102.372696</ele>
        <time>2020-08-28T01:31:43.153Z</time>
      </trkpt>
      <trkpt lat="68.5703" lon="17.57726">
        <ele>91.661761</ele>
        <time>2020-08-28T01:32:04.133Z</time>
      </trkpt>
      <trkpt lat="68.5699" lon="17.57673">
        <ele>88.371202</ele>
        <time>2020-08-28T01:32:09.172Z</time>
      </trkpt>
      <trkpt lat="68.56963" lon="17.57645">
        <ele>86.237295</ele>
        <time>2020-08-28T01:32:12.453Z</time>
      </trkpt>
      <trkpt lat="68.56937" lon="17.57625">
        <ele>84.283767</ele>
        <time>2020-08-28T01:32:15.440Z</time>
      </trkpt>
      <trkpt lat="68.56887" lon="17.57591">
        <ele>80.666865</ele>
        <time>2020-08-28T01:32:21.261Z</time>
      </trkpt>
      <trkpt lat="68.56847" lon="17.57552">
        <ele>77.712194</ele>
        <time>2020-08-28T01:32:26.114Z</time>
      </trkpt>
      <trkpt lat="68.56829" lon="17.57534">
        <ele>76.416594</ele>
        <time>2020-08-28T01:32:28.344Z</time>
      </trkpt>
      <trkpt lat="68.56822" lon="17.57529">
        <ele>75.889577</ele>
        <time>2020-08-28T01:32:29.183Z</time>
      </trkpt>
      <trkpt lat="68.56812" lon="17.57526">
        <ele>75.206235</ele>
        <time>2020-08-28T01:32:30.318Z</time>
      </trkpt>
      <trkpt lat="68.56756" lon="17.57529">
        <ele>71.333408</ele>
        <time>2020-08-28T01:32:36.936Z</time>
      </trkpt>
      <trkpt lat="68.56744" lon="17.57529">
        <ele>70.808773</ele>
        <time>2020-08-28T01:32:38.303Z</time>
      </trkpt>
      <trkpt lat="68.56724" lon="17.57523">
        <ele>69.99196</ele>
        <time>2020-08-28T01:32:40.727Z</time>
      </trkpt>
      <trkpt lat="68.56702" lon="17.57513">
        <ele>69.071642</ele>
        <time>2020-08-28T01:32:43.368Z</time>
      </trkpt>
      <trkpt lat="68.56653" lon="17.57488">
        <ele>66.99525</ele>
        <time>2020-08-28T01:32:49.627Z</time>
      </trkpt>
      <trkpt lat="68.56545" lon="17.57465">
        <ele>63.161451</ele>
        <time>2020-08-28T01:33:03.941Z</time>
      </trkpt>
      <trkpt lat="68.56494" lon="17.57446">
        <ele>62.068214</ele>
        <time>2020-08-28T01:33:11.281Z</time>
      </trkpt>
      <trkpt lat="68.56479" lon="17.57434">
        <ele>61.717703</ele>
        <time>2020-08-28T01:33:13.587Z</time>
      </trkpt>
      <trkpt lat="68.56395" lon="17.5731">
        <ele>59.621326</ele>
        <time>2020-08-28T01:33:27.361Z</time>
      </trkpt>
      <trkpt lat="68.56326" lon="17.57196">
        <ele>57.448559</ele>
        <time>2020-08-28T01:33:38.378Z</time>
      </trkpt>
      <trkpt lat="68.56324" lon="17.57202">
        <ele>57.381311</ele>
        <time>2020-08-28T01:33:38.799Z</time>
      </trkpt>
      <trkpt lat="68.56322" lon="17.57209">
        <ele>57.294444</ele>
        <time>2020-08-28T01:33:39.239Z</time>
      </trkpt>
      <trkpt lat="68.5632" lon="17.57215">
        <ele>57.203599</ele>
        <time>2020-08-28T01:33:39.715Z</time>
      </trkpt>
      <trkpt lat="68.56317" lon="17.57219">
        <ele>57.110465</ele>
        <time>2020-08-28T01:33:40.175Z</time>
      </trkpt>
      <trkpt lat="68.56307" lon="17.57219">
        <ele>56.85941</ele>
        <time>2020-08-28T01:33:41.370Z</time>
      </trkpt>
      <trkpt lat="68.56299" lon="17.57213">
        <ele>56.627874</ele>
        <time>2020-08-28T01:33:42.534Z</time>
      </trkpt>
      <trkpt lat="68.56288" lon="17.57205">
        <ele>56.324735</ele>
        <time>2020-08-28T01:33:44.116Z</time>
      </trkpt>
      <trkpt lat="68.56274" lon="17.57195">
        <ele>55.933266</ele>
        <time>2020-08-28T01:33:46.023Z</time>
      </trkpt>
      <trkpt lat="68.56239" lon="17.57166">
        <ele>54.882226</ele>
        <time>2020-08-28T01:33:50.732Z</time>
      </trkpt>
      <trkpt lat="68.56218" lon="17.57146">
        <ele>54.08351</ele>
        <time>2020-08-28T01:33:53.619Z</time>
      </trkpt>
      <trkpt lat="68.56201" lon="17.57129">
        <ele>53.442933</ele>
        <time>2020-08-28T01:33:55.961Z</time>
      </trkpt>
      <trkpt lat="68.56128" lon="17.57059">
        <ele>50.661566</ele>
        <time>2020-08-28T01:34:06.013Z</time>
      </trkpt>
      <trkpt lat="68.56125" lon="17.57058">
        <ele>50.566734</ele>
        <time>2020-08-28T01:34:06.311Z</time>
      </trkpt>
      <trkpt lat="68.5612" lon="17.57052">
        <ele>50.383794</ele>
        <time>2020-08-28T01:34:06.921Z</time>
      </trkpt>
      <trkpt lat="68.56103" lon="17.57017">
        <ele>49.604523</ele>
        <time>2020-08-28T01:34:09.711Z</time>
      </trkpt>
      <trkpt lat="68.56066" lon="17.56992">
        <ele>48.354028</ele>
        <time>2020-08-28T01:34:14.401Z</time>
      </trkpt>
      <trkpt lat="68.56039" lon="17.56959">
        <ele>47.47278</ele>
        <time>2020-08-28T01:34:18.292Z</time>
      </trkpt>
      <trkpt lat="68.56003" lon="17.56874">
        <ele>46.06614</ele>
        <time>2020-08-28T01:34:24.498Z</time>
      </trkpt>
      <trkpt lat="68.55985" lon="17.56822">
        <ele>45.303862</ele>
        <time>2020-08-28T01:34:27.913Z</time>
      </trkpt>
      <trkpt lat="68.55978" lon="17.56802">
        <ele>45.008031</ele>
        <time>2020-08-28T01:34:29.264Z</time>
      </trkpt>
      <trkpt lat="68.55953" lon="17.56738">
        <ele>44.000981</ele>
        <time>2020-08-28T01:34:34.034Z</time>
      </trkpt>
      <trkpt lat="68.55931" lon="17.56708">
        <ele>43.397991</ele>
        <time>2020-08-28T01:34:37.559Z</time>
      </trkpt>
      <trkpt lat="68.55922" lon="17.56693">
        <ele>43.286883</ele>
        <time>2020-08-28T01:34:39.051Z</time>
      </trkpt>
      <trkpt lat="68.55918" lon="17.56686">
        <ele>43.239835</ele>
        <time>2020-08-28T01:34:39.685Z</time>
      </trkpt>
      <trkpt lat="68.55899" lon="17.56626">
        <ele>42.938594</ele>
        <time>2020-08-28T01:34:43.922Z</time>
      </trkpt>
      <trkpt lat="68.5581" lon="17.56452">
        <ele>41.801621</ele>
        <time>2020-08-28T01:35:01.728Z</time>
      </trkpt>
      <trkpt lat="68.55734" lon="17.56345">
        <ele>40.193632</ele>
        <time>2020-08-28T01:35:15.293Z</time>
      </trkpt>
      <trkpt lat="68.55708" lon="17.56327">
        <ele>39.614811</ele>
        <time>2020-08-28T01:35:19.335Z</time>
      </trkpt>
      <trkpt lat="68.55706" lon="17.56316">
        <ele>39.507126</ele>
        <time>2020-08-28T01:35:20.019Z</time>
      </trkpt>
      <trkpt lat="68.55703" lon="17.56305">
        <ele>39.407046</ele>
        <time>2020-08-28T01:35:20.628Z</time>
      </trkpt>
      <trkpt lat="68.55688" lon="17.56274">
        <ele>39.006027</ele>
        <time>2020-08-28T01:35:23.365Z</time>
      </trkpt>
      <trkpt lat="68.55666" lon="17.56209">
        <ele>38.308992</ele>
        <time>2020-08-28T01:35:27.631Z</time>
      </trkpt>
      <trkpt lat="68.55649" lon="17.56174">
        <ele>37.858693</ele>
        <time>2020-08-28T01:35:30.271Z</time>
      </trkpt>
      <trkpt lat="68.55633" lon="17.5614">
        <ele>36.897672</ele>
        <time>2020-08-28T01:35:32.867Z</time>
      </trkpt>
      <trkpt lat="68.55626" lon="17.56125">
        <ele>36.419408</ele>
        <time>2020-08-28T01:35:33.897Z</time>
      </trkpt>
      <trkpt lat="68.55597" lon="17.56064">
        <ele>34.415052</ele>
        <time>2020-08-28T01:35:38.282Z</time>
      </trkpt>
      <trkpt lat="68.55567" lon="17.55994">
        <ele>32.194508</ele>
        <time>2020-08-28T01:35:43.085Z</time>
      </trkpt>
      <trkpt lat="68.55558" lon="17.55975">
        <ele>31.574145</ele>
        <time>2020-08-28T01:35:44.327Z</time>
      </trkpt>
      <trkpt lat="68.55547" lon="17.55958">
        <ele>30.909927</ele>
        <time>2020-08-28T01:35:45.800Z</time>
      </trkpt>
      <trkpt lat="68.55532" lon="17.55937">
        <ele>29.960885</ele>
        <time>2020-08-28T01:35:47.804Z</time>
      </trkpt>
      <trkpt lat="68.55522" lon="17.55924">
        <ele>29.324148</ele>
        <time>2020-08-28T01:35:49.075Z</time>
      </trkpt>
      <trkpt lat="68.55479" lon="17.5588">
        <ele>26.920103</ele>
        <time>2020-08-28T01:35:54.412Z</time>
      </trkpt>
      <trkpt lat="68.55434" lon="17.55849">
        <ele>24.599077</ele>
        <time>2020-08-28T01:36:00.026Z</time>
      </trkpt>
      <trkpt lat="68.55422" lon="17.55848">
        <ele>24.02437</ele>
        <time>2020-08-28T01:36:01.317Z</time>
      </trkpt>
      <trkpt lat="68.55405" lon="17.55845">
        <ele>23.170981</ele>
        <time>2020-08-28T01:36:03.494Z</time>
      </trkpt>
      <trkpt lat="68.55401" lon="17.55844">
        <ele>22.987576</ele>
        <time>2020-08-28T01:36:03.994Z</time>
      </trkpt>
      <trkpt lat="68.55397" lon="17.55842">
        <ele>22.752617</ele>
        <time>2020-08-28T01:36:04.568Z</time>
      </trkpt>
      <trkpt lat="68.55388" lon="17.55837">
        <ele>22.324997</ele>
        <time>2020-08-28T01:36:05.602Z</time>
      </trkpt>
      <trkpt lat="68.55385" lon="17.55833">
        <ele>22.152912</ele>
        <time>2020-08-28T01:36:06.015Z</time>
      </trkpt>
      <trkpt lat="68.55378" lon="17.55827">
        <ele>21.796063</ele>
        <time>2020-08-28T01:36:06.956Z</time>
      </trkpt>
      <trkpt lat="68.55088" lon="17.55828">
        <ele>10.709412</ele>
        <time>2020-08-28T01:36:46.403Z</time>
      </trkpt>
      <trkpt lat="68.55027" lon="17.55807">
        <ele>8.335401</ele>
        <time>2020-08-28T01:36:54.382Z</time>
      </trkpt>
      <trkpt lat="68.55009" lon="17.55803">
        <ele>7.659591</ele>
        <time>2020-08-28T01:36:56.714Z</time>
      </trkpt>
      <trkpt lat="68.55013" lon="17.5579">
        <ele>7.419419</ele>
        <time>2020-08-28T01:36:57.558Z</time>
      </trkpt>
      <trkpt lat="68.55002" lon="17.55785">
        <ele>6.991797</ele>
        <time>2020-08-28T01:36:58.924Z</time>
      </trkpt>
      <trkpt lat="68.54952" lon="17.55765">
        <ele>5.398624</ele>
        <time>2020-08-28T01:37:05.422Z</time>
      </trkpt>
      <trkpt lat="68.54935" lon="17.55746">
        <ele>5.028787</ele>
        <time>2020-08-28T01:37:07.852Z</time>
      </trkpt>
      <trkpt lat="68.54924" lon="17.55725">
        <ele>4.771444</ele>
        <time>2020-08-28T01:37:09.586Z</time>
      </trkpt>
      <trkpt lat="68.54925" lon="17.55717">
        <ele>4.709992</ele>
        <time>2020-08-28T01:37:09.995Z</time>
      </trkpt>
      <trkpt lat="68.54923" lon="17.55695">
        <ele>4.543422</ele>
        <time>2020-08-28T01:37:11.180Z</time>
      </trkpt>
      <trkpt lat="68.5492" lon="17.55691">
        <ele>4.492355</ele>
        <time>2020-08-28T01:37:11.536Z</time>
      </trkpt>
      <trkpt lat="68.54916" lon="17.55688">
        <ele>4.408137</ele>
        <time>2020-08-28T01:37:12.098Z</time>
      </trkpt>
      <trkpt lat="68.54908" lon="17.55699">
        <ele>4.236661</ele>
        <time>2020-08-28T01:37:13.242Z</time>
      </trkpt>
      <trkpt lat="68.54908" lon="17.55729">
        <ele>4.016297</ele>
        <time>2020-08-28T01:37:14.757Z</time>
      </trkpt>
      <trkpt lat="68.5491" lon="17.55735">
        <ele>3.95822</ele>
        <time>2020-08-28T01:37:15.181Z</time>
      </trkpt>
      <trkpt lat="68.54899" lon="17.55787">
        <ele>3.518945</ele>
        <time>2020-08-28T01:37:18.302Z</time>
      </trkpt>
      <trkpt lat="68.54881" lon="17.55827">
        <ele>3.068833</ele>
        <time>2020-08-28T01:37:21.997Z</time>
      </trkpt>
      <trkpt lat="68.54868" lon="17.55853">
        <ele>2.759148</ele>
        <time>2020-08-28T01:37:24.609Z</time>
      </trkpt>
      <trkpt lat="68.54829" lon="17.55921">
        <ele>2.279764</ele>
        <time>2020-08-28T01:37:32.752Z</time>
      </trkpt>
      <trkpt lat="68.54833" lon="17.55938">
        <ele>2.298937</ele>
        <time>2020-08-28T01:37:34.475Z</time>
      </trkpt>
      <trkpt lat="68.54724" lon="17.56125">
        <ele>2.617173</ele>
        <time>2020-08-28T01:38:00.633Z</time>
      </trkpt>
      <trkpt lat="68.54666" lon="17.56237">
        <ele>2.50702</ele>
        <time>2020-08-28T01:38:13.662Z</time>
      </trkpt>
      <trkpt lat="68.54653" lon="17.56263">
        <ele>2.453536</ele>
        <time>2020-08-28T01:38:17.227Z</time>
      </trkpt>
      <trkpt lat="68.54645" lon="17.56271">
        <ele>2.421717</ele>
        <time>2020-08-28T01:38:18.716Z</time>
      </trkpt>
      <trkpt lat="68.54622" lon="17.56307">
        <ele>2.330659</ele>
        <time>2020-08-28T01:38:23.432Z</time>
      </trkpt>
      <trkpt lat="68.54606" lon="17.56336">
        <ele>2.262481</ele>
        <time>2020-08-28T01:38:26.744Z</time>
      </trkpt>
      <trkpt lat="68.5459" lon="17.56361">
        <ele>2.200013</ele>
        <time>2020-08-28T01:38:29.906Z</time>
      </trkpt>
      <trkpt lat="68.54558" lon="17.56422">
        <ele>2.065233</ele>
        <time>2020-08-28T01:38:36.422Z</time>
      </trkpt>
      <trkpt lat="68.54549" lon="17.5643">
        <ele>2.038216</ele>
        <time>2020-08-28T01:38:38.065Z</time>
      </trkpt>
      <trkpt lat="68.54547" lon="17.56406">
        <ele>2.018339</ele>
        <time>2020-08-28T01:38:39.506Z</time>
      </trkpt>
      <trkpt lat="68.54525" lon="17.56426">
        <ele>1.969111</ele>
        <time>2020-08-28T01:38:43.060Z</time>
      </trkpt>
      <trkpt lat="68.54409" lon="17.56531">
        <ele>1.704969</ele>
        <time>2020-08-28T01:39:04.602Z</time>
      </trkpt>
      <trkpt lat="68.54342" lon="17.56656">
        <ele>1.967258</ele>
        <time>2020-08-28T01:39:19.377Z</time>
      </trkpt>
      <trkpt lat="68.54271" lon="17.56824">
        <ele>2.436891</ele>
        <time>2020-08-28T01:39:37.691Z</time>
      </trkpt>
      <trkpt lat="68.54222" lon="17.5694">
        <ele>3.117908</ele>
        <time>2020-08-28T01:39:51.717Z</time>
      </trkpt>
      <trkpt lat="68.54171" lon="17.5706">
        <ele>4.046829</ele>
        <time>2020-08-28T01:40:06.785Z</time>
      </trkpt>
      <trkpt lat="68.54132" lon="17.57145">
        <ele>4.74044</ele>
        <time>2020-08-28T01:40:18.428Z</time>
      </trkpt>
      <trkpt lat="68.54095" lon="17.57226">
        <ele>5.357775</ele>
        <time>2020-08-28T01:40:29.409Z</time>
      </trkpt>
      <trkpt lat="68.54003" lon="17.57363">
        <ele>6.604099</ele>
        <time>2020-08-28T01:40:51.785Z</time>
      </trkpt>
      <trkpt lat="68.53906" lon="17.57451">
        <ele>8.074014</ele>
        <time>2020-08-28T01:41:13.203Z</time>
      </trkpt>
      <trkpt lat="68.53856" lon="17.57461">
        <ele>8.912474</ele>
        <time>2020-08-28T01:41:24.624Z</time>
      </trkpt>
      <trkpt lat="68.5385" lon="17.57459">
        <ele>9.013195</ele>
        <time>2020-08-28T01:41:25.789Z</time>
      </trkpt>
      <trkpt lat="68.53824" lon="17.57459">
        <ele>9.446457</ele>
        <time>2020-08-28T01:41:32.622Z</time>
      </trkpt>
      <trkpt lat="68.53804" lon="17.57453">
        <ele>9.773445</ele>
        <time>2020-08-28T01:41:37.167Z</time>
      </trkpt>
      <trkpt lat="68.53783" lon="17.57445">
        <ele>10.136581</ele>
        <time>2020-08-28T01:41:42.691Z</time>
      </trkpt>
      <trkpt lat="68.53769" lon="17.57438">
        <ele>10.495254</ele>
        <time>2020-08-28T01:41:46.077Z</time>
      </trkpt>
      <trkpt lat="68.53763" lon="17.57434">
        <ele>10.677686</ele>
        <time>2020-08-28T01:41:48.125Z</time>
      </trkpt>
      <trkpt lat="68.53717" lon="17.57385">
        <ele>12.169584</ele>
        <time>2020-08-28T01:42:00.662Z</time>
      </trkpt>
      <trkpt lat="68.53693" lon="17.57354">
        <ele>12.952239</ele>
        <time>2020-08-28T01:42:08.158Z</time>
      </trkpt>
      <trkpt lat="68.53661" lon="17.57304">
        <ele>14.058374</ele>
        <time>2020-08-28T01:42:18.573Z</time>
      </trkpt>
      <trkpt lat="68.53606" lon="17.57251">
        <ele>16.118164</ele>
        <time>2020-08-28T01:42:34.617Z</time>
      </trkpt>
      <trkpt lat="68.53589" lon="17.57243">
        <ele>17.327483</ele>
        <time>2020-08-28T01:42:39.277Z</time>
      </trkpt>
      <trkpt lat="68.53571" lon="17.57239">
        <ele>18.6197</ele>
        <time>2020-08-28T01:42:44.935Z</time>
      </trkpt>
      <trkpt lat="68.53553" lon="17.57238">
        <ele>19.901376</ele>
        <time>2020-08-28T01:42:51.407Z</time>
      </trkpt>
      <trkpt lat="68.53483" lon="17.57236">
        <ele>24.895994</ele>
        <time>2020-08-28T01:43:20.901Z</time>
      </trkpt>
      <trkpt lat="68.53438" lon="17.57238">
        <ele>28.166231</ele>
        <time>2020-08-28T01:43:43.097Z</time>
      </trkpt>
      <trkpt lat="68.5338" lon="17.57256">
        <ele>33.962636</ele>
        <time>2020-08-28T01:44:14.406Z</time>
      </trkpt>
      <trkpt lat="68.53274" lon="17.57281">
        <ele>44.91627</ele>
        <time>2020-08-28T01:45:12.638Z</time>
      </trkpt>
      <trkpt lat="68.53214" lon="17.57263">
        <ele>47.920887</ele>
        <time>2020-08-28T01:45:37.654Z</time>
      </trkpt>
      <trkpt lat="68.5317" lon="17.57229">
        <ele>49.052075</ele>
        <time>2020-08-28T01:45:51.034Z</time>
      </trkpt>
      <trkpt lat="68.53125" lon="17.5717">
        <ele>50.298547</ele>
        <time>2020-08-28T01:46:01.076Z</time>
      </trkpt>
      <trkpt lat="68.53052" lon="17.57025">
        <ele>49.333262</ele>
        <time>2020-08-28T01:46:13.457Z</time>
      </trkpt>
      <trkpt lat="68.53028" lon="17.56996">
        <ele>48.221592</ele>
        <time>2020-08-28T01:46:16.666Z</time>
      </trkpt>
      <trkpt lat="68.52846" lon="17.5683">
        <ele>38.89724</ele>
        <time>2020-08-28T01:46:39.684Z</time>
      </trkpt>
      <trkpt lat="68.52829" lon="17.56815">
        <ele>37.931228</ele>
        <time>2020-08-28T01:46:41.715Z</time>
      </trkpt>
      <trkpt lat="68.52789" lon="17.56779">
        <ele>35.593002</ele>
        <time>2020-08-28T01:46:46.707Z</time>
      </trkpt>
      <trkpt lat="68.52732" lon="17.5674">
        <ele>32.569494</ele>
        <time>2020-08-28T01:46:53.806Z</time>
      </trkpt>
      <trkpt lat="68.52687" lon="17.56721">
        <ele>30.505416</ele>
        <time>2020-08-28T01:46:59.325Z</time>
      </trkpt>
      <trkpt lat="68.52637" lon="17.56701">
        <ele>28.201844</ele>
        <time>2020-08-28T01:47:05.700Z</time>
      </trkpt>
      <trkpt lat="68.5253" lon="17.56664">
        <ele>23.357288</ele>
        <time>2020-08-28T01:47:19.107Z</time>
      </trkpt>
      <trkpt lat="68.52377" lon="17.56614">
        <ele>17.115774</ele>
        <time>2020-08-28T01:47:38.132Z</time>
      </trkpt>
      <trkpt lat="68.52305" lon="17.566">
        <ele>15.723225</ele>
        <time>2020-08-28T01:47:47.434Z</time>
      </trkpt>
      <trkpt lat="68.5223" lon="17.56601">
        <ele>14.256919</ele>
        <time>2020-08-28T01:47:59.258Z</time>
      </trkpt>
      <trkpt lat="68.52054" lon="17.56637">
        <ele>17.262335</ele>
        <time>2020-08-28T01:48:43.277Z</time>
      </trkpt>
      <trkpt lat="68.52014" lon="17.56645">
        <ele>17.939401</ele>
        <time>2020-08-28T01:48:53.593Z</time>
      </trkpt>
      <trkpt lat="68.5199" lon="17.5665">
        <ele>18.316451</ele>
        <time>2020-08-28T01:48:59.495Z</time>
      </trkpt>
      <trkpt lat="68.51968" lon="17.5665">
        <ele>18.658128</ele>
        <time>2020-08-28T01:49:04.807Z</time>
      </trkpt>
      <trkpt lat="68.51964" lon="17.5665">
        <ele>18.717478</ele>
        <time>2020-08-28T01:49:05.715Z</time>
      </trkpt>
      <trkpt lat="68.51953" lon="17.56645">
        <ele>18.898795</ele>
        <time>2020-08-28T01:49:08.240Z</time>
      </trkpt>
      <trkpt lat="68.51917" lon="17.56615">
        <ele>19.481162</ele>
        <time>2020-08-28T01:49:16.374Z</time>
      </trkpt>
      <trkpt lat="68.51895" lon="17.56584">
        <ele>19.869801</ele>
        <time>2020-08-28T01:49:21.892Z</time>
      </trkpt>
      <trkpt lat="68.51822" lon="17.5644">
        <ele>21.392257</ele>
        <time>2020-08-28T01:49:40.243Z</time>
      </trkpt>
      <trkpt lat="68.51796" lon="17.56374">
        <ele>22.030806</ele>
        <time>2020-08-28T01:49:48.180Z</time>
      </trkpt>
      <trkpt lat="68.51743" lon="17.56218">
        <ele>23.397234</ele>
        <time>2020-08-28T01:50:08.347Z</time>
      </trkpt>
      <trkpt lat="68.51711" lon="17.56129">
        <ele>24.196552</ele>
        <time>2020-08-28T01:50:20.714Z</time>
      </trkpt>
      <trkpt lat="68.51667" lon="17.56033">
        <ele>25.180071</ele>
        <time>2020-08-28T01:50:35.120Z</time>
      </trkpt>
      <trkpt lat="68.51618" lon="17.55937">
        <ele>26.243852</ele>
        <time>2020-08-28T01:50:49.768Z</time>
      </trkpt>
      <trkpt lat="68.51616" lon="17.55934">
        <ele>26.27307</ele>
        <time>2020-08-28T01:50:49.962Z</time>
      </trkpt>
      <trkpt lat="68.5152" lon="17.5575">
        <ele>25.019786</ele>
        <time>2020-08-28T01:51:09.307Z</time>
      </trkpt>
      <trkpt lat="68.51499" lon="17.5571">
        <ele>24.585058</ele>
        <time>2020-08-28T01:51:12.736Z</time>
      </trkpt>
      <trkpt lat="68.51379" lon="17.55484">
        <ele>20.343589</ele>
        <time>2020-08-28T01:51:31.422Z</time>
      </trkpt>
      <trkpt lat="68.51347" lon="17.55417">
        <ele>18.845314</ele>
        <time>2020-08-28T01:51:36.384Z</time>
      </trkpt>
      <trkpt lat="68.51331" lon="17.55365">
        <ele>17.909381</ele>
        <time>2020-08-28T01:51:39.520Z</time>
      </trkpt>
      <trkpt lat="68.51311" lon="17.55272">
        <ele>16.631714</ele>
        <time>2020-08-28T01:51:44.735Z</time>
      </trkpt>
      <trkpt lat="68.513" lon="17.55178">
        <ele>15.864049</ele>
        <time>2020-08-28T01:51:49.563Z</time>
      </trkpt>
      <trkpt lat="68.51294" lon="17.55091">
        <ele>15.16647</ele>
        <time>2020-08-28T01:51:53.990Z</time>
      </trkpt>
      <trkpt lat="68.51291" lon="17.55046">
        <ele>14.814796</ele>
        <time>2020-08-28T01:51:56.636Z</time>
      </trkpt>
      <trkpt lat="68.51279" lon="17.54943">
        <ele>13.961205</ele>
        <time>2020-08-28T01:52:02.309Z</time>
      </trkpt>
      <trkpt lat="68.51256" lon="17.54852">
        <ele>13.097084</ele>
        <time>2020-08-28T01:52:08.102Z</time>
      </trkpt>
      <trkpt lat="68.51229" lon="17.54795">
        <ele>13.236468</ele>
        <time>2020-08-28T01:52:13.062Z</time>
      </trkpt>
      <trkpt lat="68.51194" lon="17.54749">
        <ele>13.466073</ele>
        <time>2020-08-28T01:52:20.072Z</time>
      </trkpt>
      <trkpt lat="68.51087" lon="17.5463">
        <ele>14.253911</ele>
        <time>2020-08-28T01:52:46.170Z</time>
      </trkpt>
      <trkpt lat="68.51052" lon="17.54595">
        <ele>15.059881</ele>
        <time>2020-08-28T01:52:55.542Z</time>
      </trkpt>
      <trkpt lat="68.51033" lon="17.5458">
        <ele>15.485813</ele>
        <time>2020-08-28T01:53:00.880Z</time>
      </trkpt>
      <trkpt lat="68.50969" lon="17.54558">
        <ele>16.88038</ele>
        <time>2020-08-28T01:53:17.299Z</time>
      </trkpt>
      <trkpt lat="68.50921" lon="17.54536">
        <ele>17.950651</ele>
        <time>2020-08-28T01:53:30.008Z</time>
      </trkpt>
      <trkpt lat="68.50901" lon="17.54522">
        <ele>18.063492</ele>
        <time>2020-08-28T01:53:35.312Z</time>
      </trkpt>
      <trkpt lat="68.50879" lon="17.545">
        <ele>18.134788</ele>
        <time>2020-08-28T01:53:40.125Z</time>
      </trkpt>
      <trkpt lat="68.50729" lon="17.54264">
        <ele>18.678304</ele>
        <time>2020-08-28T01:54:09.449Z</time>
      </trkpt>
      <trkpt lat="68.50704" lon="17.54248">
        <ele>18.766925</ele>
        <time>2020-08-28T01:54:14.162Z</time>
      </trkpt>
      <trkpt lat="68.50676" lon="17.54252">
        <ele>18.863993</ele>
        <time>2020-08-28T01:54:19.410Z</time>
      </trkpt>
      <trkpt lat="68.50653" lon="17.54272">
        <ele>18.949177</ele>
        <time>2020-08-28T01:54:24.126Z</time>
      </trkpt>
      <trkpt lat="68.50631" lon="17.543">
        <ele>19.032752</ele>
        <time>2020-08-28T01:54:28.983Z</time>
      </trkpt>
      <trkpt lat="68.50622" lon="17.54315">
        <ele>19.071186</ele>
        <time>2020-08-28T01:54:31.186Z</time>
      </trkpt>
      <trkpt lat="68.50566" lon="17.54414">
        <ele>19.214299</ele>
        <time>2020-08-28T01:54:45.098Z</time>
      </trkpt>
      <trkpt lat="68.50551" lon="17.5444">
        <ele>19.229175</ele>
        <time>2020-08-28T01:54:48.664Z</time>
      </trkpt>
      <trkpt lat="68.50528" lon="17.54474">
        <ele>19.250148</ele>
        <time>2020-08-28T01:54:53.816Z</time>
      </trkpt>
      <trkpt lat="68.50521" lon="17.54482">
        <ele>19.256333</ele>
        <time>2020-08-28T01:54:55.346Z</time>
      </trkpt>
      <trkpt lat="68.50516" lon="17.54488">
        <ele>19.260487</ele>
        <time>2020-08-28T01:54:56.501Z</time>
      </trkpt>
      <trkpt lat="68.50496" lon="17.5451">
        <ele>19.278064</ele>
        <time>2020-08-28T01:55:00.636Z</time>
      </trkpt>
      <trkpt lat="68.50477" lon="17.54528">
        <ele>19.294794</ele>
        <time>2020-08-28T01:55:04.298Z</time>
      </trkpt>
      <trkpt lat="68.50458" lon="17.54541">
        <ele>19.310223</ele>
        <time>2020-08-28T01:55:07.181Z</time>
      </trkpt>
      <trkpt lat="68.50438" lon="17.54551">
        <ele>19.326929</ele>
        <time>2020-08-28T01:55:10.448Z</time>
      </trkpt>
      <trkpt lat="68.50421" lon="17.54557">
        <ele>19.251192</ele>
        <time>2020-08-28T01:55:12.823Z</time>
      </trkpt>
      <trkpt lat="68.50387" lon="17.54563">
        <ele>18.935485</ele>
        <time>2020-08-28T01:55:17.935Z</time>
      </trkpt>
      <trkpt lat="68.50337" lon="17.54552">
        <ele>18.476924</ele>
        <time>2020-08-28T01:55:25.551Z</time>
      </trkpt>
      <trkpt lat="68.503" lon="17.54533">
        <ele>18.129508</ele>
        <time>2020-08-28T01:55:31.294Z</time>
      </trkpt>
      <trkpt lat="68.50282" lon="17.54524">
        <ele>17.967117</ele>
        <time>2020-08-28T01:55:33.965Z</time>
      </trkpt>
      <trkpt lat="68.50266" lon="17.54515">
        <ele>17.812178</ele>
        <time>2020-08-28T01:55:36.680Z</time>
      </trkpt>
      <trkpt lat="68.50162" lon="17.5446">
        <ele>19.217698</ele>
        <time>2020-08-28T01:55:56.874Z</time>
      </trkpt>
      <trkpt lat="68.50097" lon="17.54425">
        <ele>20.318152</ele>
        <time>2020-08-28T01:56:15.299Z</time>
      </trkpt>
      <trkpt lat="68.50067" lon="17.54408">
        <ele>20.940954</ele>
        <time>2020-08-28T01:56:24.611Z</time>
      </trkpt>
      <trkpt lat="68.50014" lon="17.54358">
        <ele>22.458304</ele>
        <time>2020-08-28T01:56:40.008Z</time>
      </trkpt>
      <trkpt lat="68.5" lon="17.54337">
        <ele>22.894759</ele>
        <time>2020-08-28T01:56:44.568Z</time>
      </trkpt>
      <trkpt lat="68.49988" lon="17.54317">
        <ele>23.282584</ele>
        <time>2020-08-28T01:56:48.246Z</time>
      </trkpt>
      <trkpt lat="68.49962" lon="17.54265">
        <ele>24.155232</ele>
        <time>2020-08-28T01:56:56.376Z</time>
      </trkpt>
      <trkpt lat="68.49952" lon="17.54241">
        <ele>24.524699</ele>
        <time>2020-08-28T01:57:00.303Z</time>
      </trkpt>
      <trkpt lat="68.4994" lon="17.54208">
        <ele>24.987034</ele>
        <time>2020-08-28T01:57:04.284Z</time>
      </trkpt>
      <trkpt lat="68.49904" lon="17.54079">
        <ele>25.989319</ele>
        <time>2020-08-28T01:57:18.993Z</time>
      </trkpt>
      <trkpt lat="68.49894" lon="17.53985">
        <ele>26.379385</ele>
        <time>2020-08-28T01:57:27.212Z</time>
      </trkpt>
      <trkpt lat="68.49893" lon="17.53957">
        <ele>26.495006</ele>
        <time>2020-08-28T01:57:28.917Z</time>
      </trkpt>
      <trkpt lat="68.49891" lon="17.53832">
        <ele>26.990694</ele>
        <time>2020-08-28T01:57:37.977Z</time>
      </trkpt>
      <trkpt lat="68.49883" lon="17.53707">
        <ele>27.497164</ele>
        <time>2020-08-28T01:57:47.142Z</time>
      </trkpt>
      <trkpt lat="68.49879" lon="17.53677">
        <ele>27.495055</ele>
        <time>2020-08-28T01:57:49.511Z</time>
      </trkpt>
      <trkpt lat="68.4987" lon="17.53619">
        <ele>27.354107</ele>
        <time>2020-08-28T01:57:54.107Z</time>
      </trkpt>
      <trkpt lat="68.49857" lon="17.53565">
        <ele>27.210767</ele>
        <time>2020-08-28T01:57:58.766Z</time>
      </trkpt>
      <trkpt lat="68.49839" lon="17.53502">
        <ele>27.032974</ele>
        <time>2020-08-28T01:58:04.000Z</time>
      </trkpt>
      <trkpt lat="68.4978" lon="17.5332">
        <ele>26.49331</ele>
        <time>2020-08-28T01:58:17.315Z</time>
      </trkpt>
      <trkpt lat="68.49769" lon="17.53283">
        <ele>26.363312</ele>
        <time>2020-08-28T01:58:19.694Z</time>
      </trkpt>
      <trkpt lat="68.49759" lon="17.53247">
        <ele>26.229101</ele>
        <time>2020-08-28T01:58:22.027Z</time>
      </trkpt>
      <trkpt lat="68.49751" lon="17.53213">
        <ele>26.110321</ele>
        <time>2020-08-28T01:58:24.209Z</time>
      </trkpt>
      <trkpt lat="68.49738" lon="17.53134">
        <ele>25.851754</ele>
        <time>2020-08-28T01:58:29.056Z</time>
      </trkpt>
      <trkpt lat="68.49734" lon="17.53092">
        <ele>25.719291</ele>
        <time>2020-08-28T01:58:31.523Z</time>
      </trkpt>
      <trkpt lat="68.49731" lon="17.53049">
        <ele>25.590923</ele>
        <time>2020-08-28T01:58:33.979Z</time>
      </trkpt>
      <trkpt lat="68.4973" lon="17.52992">
        <ele>25.418992</ele>
        <time>2020-08-28T01:58:37.362Z</time>
      </trkpt>
      <trkpt lat="68.49732" lon="17.52876">
        <ele>25.072363</ele>
        <time>2020-08-28T01:58:44.386Z</time>
      </trkpt>
      <trkpt lat="68.49732" lon="17.52812">
        <ele>25.101497</ele>
        <time>2020-08-28T01:58:48.785Z</time>
      </trkpt>
      <trkpt lat="68.49723" lon="17.52604">
        <ele>25.828853</ele>
        <time>2020-08-28T01:59:05.747Z</time>
      </trkpt>
      <trkpt lat="68.49697" lon="17.52427">
        <ele>26.493111</ele>
        <time>2020-08-28T01:59:23.932Z</time>
      </trkpt>
      <trkpt lat="68.49671" lon="17.52325">
        <ele>26.155966</ele>
        <time>2020-08-28T01:59:31.084Z</time>
      </trkpt>
      <trkpt lat="68.49617" lon="17.52185">
        <ele>24.517388</ele>
        <time>2020-08-28T01:59:41.460Z</time>
      </trkpt>
      <trkpt lat="68.49594" lon="17.52144">
        <ele>23.909423</ele>
        <time>2020-08-28T01:59:45.299Z</time>
      </trkpt>
      <trkpt lat="68.4959" lon="17.52137">
        <ele>23.810301</ele>
        <time>2020-08-28T01:59:45.784Z</time>
      </trkpt>
      <trkpt lat="68.49545" lon="17.52071">
        <ele>22.737008</ele>
        <time>2020-08-28T01:59:52.440Z</time>
      </trkpt>
      <trkpt lat="68.49484" lon="17.51996">
        <ele>22.417307</ele>
        <time>2020-08-28T02:00:01.345Z</time>
      </trkpt>
      <trkpt lat="68.49434" lon="17.51945">
        <ele>22.164379</ele>
        <time>2020-08-28T02:00:09.815Z</time>
      </trkpt>
      <trkpt lat="68.494" lon="17.51923">
        <ele>21.996213</ele>
        <time>2020-08-28T02:00:17.705Z</time>
      </trkpt>
      <trkpt lat="68.49359" lon="17.51902">
        <ele>22.879086</ele>
        <time>2020-08-28T02:00:29.034Z</time>
      </trkpt>
      <trkpt lat="68.4935" lon="17.51897">
        <ele>23.351223</ele>
        <time>2020-08-28T02:00:32.040Z</time>
      </trkpt>
      <trkpt lat="68.49284" lon="17.51868">
        <ele>26.654695</ele>
        <time>2020-08-28T02:00:55.668Z</time>
      </trkpt>
      <trkpt lat="68.49136" lon="17.51804">
        <ele>33.974377</ele>
        <time>2020-08-28T02:01:50.180Z</time>
      </trkpt>
      <trkpt lat="68.49066" lon="17.51823">
        <ele>37.408501</ele>
        <time>2020-08-28T02:02:13.633Z</time>
      </trkpt>
      <trkpt lat="68.49017" lon="17.5188">
        <ele>39.72892</ele>
        <time>2020-08-28T02:02:29.563Z</time>
      </trkpt>
      <trkpt lat="68.48999" lon="17.51913">
        <ele>40.23918</ele>
        <time>2020-08-28T02:02:36.016Z</time>
      </trkpt>
      <trkpt lat="68.48975" lon="17.51959">
        <ele>40.947157</ele>
        <time>2020-08-28T02:02:44.165Z</time>
      </trkpt>
      <trkpt lat="68.48821" lon="17.52273">
        <ele>44.089825</ele>
        <time>2020-08-28T02:03:29.392Z</time>
      </trkpt>
      <trkpt lat="68.4876" lon="17.52382">
        <ele>44.348689</ele>
        <time>2020-08-28T02:03:42.256Z</time>
      </trkpt>
      <trkpt lat="68.48682" lon="17.52462">
        <ele>43.533504</ele>
        <time>2020-08-28T02:03:54.571Z</time>
      </trkpt>
      <trkpt lat="68.48606" lon="17.52485">
        <ele>42.104155</ele>
        <time>2020-08-28T02:04:05.357Z</time>
      </trkpt>
      <trkpt lat="68.48578" lon="17.52483">
        <ele>41.575646</ele>
        <time>2020-08-28T02:04:09.217Z</time>
      </trkpt>
      <trkpt lat="68.48551" lon="17.52467">
        <ele>41.053193</ele>
        <time>2020-08-28T02:04:13.054Z</time>
      </trkpt>
      <trkpt lat="68.48527" lon="17.5245">
        <ele>40.462926</ele>
        <time>2020-08-28T02:04:16.509Z</time>
      </trkpt>
      <trkpt lat="68.48522" lon="17.52434">
        <ele>40.283231</ele>
        <time>2020-08-28T02:04:17.484Z</time>
      </trkpt>
      <trkpt lat="68.4852" lon="17.52421">
        <ele>40.156305</ele>
        <time>2020-08-28T02:04:18.219Z</time>
      </trkpt>
      <trkpt lat="68.48513" lon="17.52407">
        <ele>39.961117</ele>
        <time>2020-08-28T02:04:19.367Z</time>
      </trkpt>
      <trkpt lat="68.48502" lon="17.52408">
        <ele>39.688318</ele>
        <time>2020-08-28T02:04:20.980Z</time>
      </trkpt>
      <trkpt lat="68.48497" lon="17.52415">
        <ele>39.561365</ele>
        <time>2020-08-28T02:04:21.691Z</time>
      </trkpt>
      <trkpt lat="68.48495" lon="17.52422">
        <ele>39.48248</ele>
        <time>2020-08-28T02:04:22.112Z</time>
      </trkpt>
      <trkpt lat="68.48493" lon="17.52436">
        <ele>39.348233</ele>
        <time>2020-08-28T02:04:22.873Z</time>
      </trkpt>
      <trkpt lat="68.48492" lon="17.52451">
        <ele>39.221735</ele>
        <time>2020-08-28T02:04:23.606Z</time>
      </trkpt>
      <trkpt lat="68.48493" lon="17.52459">
        <ele>39.147645</ele>
        <time>2020-08-28T02:04:24.038Z</time>
      </trkpt>
      <trkpt lat="68.48497" lon="17.52476">
        <ele>38.970986</ele>
        <time>2020-08-28T02:04:25.155Z</time>
      </trkpt>
      <trkpt lat="68.48499" lon="17.52498">
        <ele>38.779138</ele>
        <time>2020-08-28T02:04:26.231Z</time>
      </trkpt>
      <trkpt lat="68.48491" lon="17.52625">
        <ele>37.657277</ele>
        <time>2020-08-28T02:04:32.719Z</time>
      </trkpt>
      <trkpt lat="68.48486" lon="17.52667">
        <ele>37.272394</ele>
        <time>2020-08-28T02:04:35.087Z</time>
      </trkpt>
      <trkpt lat="68.48478" lon="17.52716">
        <ele>36.793874</ele>
        <time>2020-08-28T02:04:37.803Z</time>
      </trkpt>
      <trkpt lat="68.48449" lon="17.52826">
        <ele>35.26463</ele>
        <time>2020-08-28T02:04:44.569Z</time>
      </trkpt>
      <trkpt lat="68.48405" lon="17.52945">
        <ele>33.32439</ele>
        <time>2020-08-28T02:04:52.869Z</time>
      </trkpt>
      <trkpt lat="68.48194" lon="17.53495">
        <ele>21.599925</ele>
        <time>2020-08-28T02:05:29.717Z</time>
      </trkpt>
      <trkpt lat="68.48158" lon="17.53591">
        <ele>18.820308</ele>
        <time>2020-08-28T02:05:35.687Z</time>
      </trkpt>
      <trkpt lat="68.48151" lon="17.53611">
        <ele>18.217937</ele>
        <time>2020-08-28T02:05:36.953Z</time>
      </trkpt>
      <trkpt lat="68.48149" lon="17.53617">
        <ele>18.056791</ele>
        <time>2020-08-28T02:05:37.301Z</time>
      </trkpt>
      <trkpt lat="68.48103" lon="17.53752">
        <ele>14.323365</ele>
        <time>2020-08-28T02:05:45.176Z</time>
      </trkpt>
      <trkpt lat="68.48051" lon="17.53926">
        <ele>9.855226</ele>
        <time>2020-08-28T02:05:54.711Z</time>
      </trkpt>
      <trkpt lat="68.4803" lon="17.5402">
        <ele>7.674702</ele>
        <time>2020-08-28T02:05:59.451Z</time>
      </trkpt>
      <trkpt lat="68.48014" lon="17.54131">
        <ele>5.280416</ele>
        <time>2020-08-28T02:06:04.889Z</time>
      </trkpt>
      <trkpt lat="68.48008" lon="17.54289">
        <ele>3.565487</ele>
        <time>2020-08-28T02:06:12.443Z</time>
      </trkpt>
      <trkpt lat="68.4802" lon="17.54726">
        <ele>0.860083</ele>
        <time>2020-08-28T02:06:36.621Z</time>
      </trkpt>
      <trkpt lat="68.48004" lon="17.54863">
        <ele>0.690963</ele>
        <time>2020-08-28T02:06:45.878Z</time>
      </trkpt>
      <trkpt lat="68.47948" lon="17.55127">
        <ele>0.395655</ele>
        <time>2020-08-28T02:07:05.495Z</time>
      </trkpt>
      <trkpt lat="68.47944" lon="17.55153">
        <ele>0.461274</ele>
        <time>2020-08-28T02:07:07.396Z</time>
      </trkpt>
      <trkpt lat="68.47941" lon="17.55184">
        <ele>0.535201</ele>
        <time>2020-08-28T02:07:09.475Z</time>
      </trkpt>
      <trkpt lat="68.47938" lon="17.55214">
        <ele>0.606089</ele>
        <time>2020-08-28T02:07:11.539Z</time>
      </trkpt>
      <trkpt lat="68.47936" lon="17.55352">
        <ele>0.926117</ele>
        <time>2020-08-28T02:07:20.856Z</time>
      </trkpt>
      <trkpt lat="68.4794" lon="17.55456">
        <ele>1.168558</ele>
        <time>2020-08-28T02:07:27.968Z</time>
      </trkpt>
      <trkpt lat="68.47944" lon="17.55577">
        <ele>1.450539</ele>
        <time>2020-08-28T02:07:37.784Z</time>
      </trkpt>
      <trkpt lat="68.47954" lon="17.55853">
        <ele>4.518002</ele>
        <time>2020-08-28T02:08:03.641Z</time>
      </trkpt>
      <trkpt lat="68.47954" lon="17.55897">
        <ele>5.032253</ele>
        <time>2020-08-28T02:08:08.307Z</time>
      </trkpt>
      <trkpt lat="68.47952" lon="17.55942">
        <ele>5.559849</ele>
        <time>2020-08-28T02:08:13.905Z</time>
      </trkpt>
      <trkpt lat="68.47942" lon="17.56052">
        <ele>6.88221</ele>
        <time>2020-08-28T02:08:27.232Z</time>
      </trkpt>
      <trkpt lat="68.47915" lon="17.5619">
        <ele>9.172303</ele>
        <time>2020-08-28T02:08:45.703Z</time>
      </trkpt>
      <trkpt lat="68.47898" lon="17.56249">
        <ele>10.319598</ele>
        <time>2020-08-28T02:08:54.946Z</time>
      </trkpt>
      <trkpt lat="68.47879" lon="17.56305">
        <ele>11.48491</ele>
        <time>2020-08-28T02:09:04.718Z</time>
      </trkpt>
      <trkpt lat="68.47842" lon="17.56375">
        <ele>13.36473</ele>
        <time>2020-08-28T02:09:18.514Z</time>
      </trkpt>
      <trkpt lat="68.4778" lon="17.56431">
        <ele>14.444778</ele>
        <time>2020-08-28T02:09:37.241Z</time>
      </trkpt>
      <trkpt lat="68.47755" lon="17.5644">
        <ele>14.253648</ele>
        <time>2020-08-28T02:09:43.161Z</time>
      </trkpt>
      <trkpt lat="68.47724" lon="17.56448">
        <ele>14.028723</ele>
        <time>2020-08-28T02:09:47.667Z</time>
      </trkpt>
      <trkpt lat="68.47669" lon="17.56461">
        <ele>13.618185</ele>
        <time>2020-08-28T02:09:55.475Z</time>
      </trkpt>
      <trkpt lat="68.47604" lon="17.56476">
        <ele>12.034433</ele>
        <time>2020-08-28T02:10:03.841Z</time>
      </trkpt>
      <trkpt lat="68.47582" lon="17.56484">
        <ele>11.068343</ele>
        <time>2020-08-28T02:10:06.460Z</time>
      </trkpt>
      <trkpt lat="68.4755" lon="17.5651">
        <ele>9.597809</ele>
        <time>2020-08-28T02:10:10.481Z</time>
      </trkpt>
      <trkpt lat="68.47504" lon="17.56582">
        <ele>7.27255</ele>
        <time>2020-08-28T02:10:16.916Z</time>
      </trkpt>
      <trkpt lat="68.47479" lon="17.56651">
        <ele>5.718369</ele>
        <time>2020-08-28T02:10:21.295Z</time>
      </trkpt>
      <trkpt lat="68.47463" lon="17.56721">
        <ele>5.240024</ele>
        <time>2020-08-28T02:10:25.182Z</time>
      </trkpt>
      <trkpt lat="68.47458" lon="17.56746">
        <ele>5.13796</ele>
        <time>2020-08-28T02:10:26.478Z</time>
      </trkpt>
      <trkpt lat="68.47448" lon="17.56808">
        <ele>4.878</ele>
        <time>2020-08-28T02:10:30.791Z</time>
      </trkpt>
      <trkpt lat="68.47432" lon="17.56932">
        <ele>4.381904</ele>
        <time>2020-08-28T02:10:38.449Z</time>
      </trkpt>
      <trkpt lat="68.47421" lon="17.57101">
        <ele>3.731166</ele>
        <time>2020-08-28T02:10:50.321Z</time>
      </trkpt>
      <trkpt lat="68.47421" lon="17.57153">
        <ele>3.590265</ele>
        <time>2020-08-28T02:10:54.293Z</time>
      </trkpt>
      <trkpt lat="68.47422" lon="17.57191">
        <ele>3.517686</ele>
        <time>2020-08-28T02:10:57.208Z</time>
      </trkpt>
      <trkpt lat="68.47425" lon="17.57253">
        <ele>3.401592</ele>
        <time>2020-08-28T02:11:02.240Z</time>
      </trkpt>
      <trkpt lat="68.47517" lon="17.58415">
        <ele>0.938963</ele>
        <time>2020-08-28T02:12:15.117Z</time>
      </trkpt>
      <trkpt lat="68.47528" lon="17.58566">
        <ele>0.54513</ele>
        <time>2020-08-28T02:12:24.623Z</time>
      </trkpt>
      <trkpt lat="68.47537" lon="17.58653">
        <ele>0.452337</ele>
        <time>2020-08-28T02:12:30.346Z</time>
      </trkpt>
      <trkpt lat="68.4754" lon="17.58685">
        <ele>0.418926</ele>
        <time>2020-08-28T02:12:32.346Z</time>
      </trkpt>
      <trkpt lat="68.47587" lon="17.59093">
        <ele>0.039369</ele>
        <time>2020-08-28T02:12:59.586Z</time>
      </trkpt>
      <trkpt lat="68.47604" lon="17.59241">
        <ele>0.025032</ele>
        <time>2020-08-28T02:13:09.801Z</time>
      </trkpt>
      <trkpt lat="68.47605" lon="17.59452">
        <ele>0.005645</ele>
        <time>2020-08-28T02:13:24.189Z</time>
      </trkpt>
      <trkpt lat="68.4761" lon="17.59585">
        <ele>3.0E-6</ele>
        <time>2020-08-28T02:13:33.316Z</time>
      </trkpt>
      <trkpt lat="68.47613" lon="17.60157">
        <ele>3.0E-6</ele>
        <time>2020-08-28T02:14:12.394Z</time>
      </trkpt>
      <trkpt lat="68.47603" lon="17.60906">
        <ele>0.018678</ele>
        <time>2020-08-28T02:15:03.568Z</time>
      </trkpt>
      <trkpt lat="68.47621" lon="17.61858">
        <ele>0.626613</ele>
        <time>2020-08-28T02:16:09.294Z</time>
      </trkpt>
      <trkpt lat="68.47615" lon="17.62188">
        <ele>3.220871</ele>
        <time>2020-08-28T02:16:36.776Z</time>
      </trkpt>
      <trkpt lat="68.47629" lon="17.6235">
        <ele>5.021697</ele>
        <time>2020-08-28T02:16:55.221Z</time>
      </trkpt>
      <trkpt lat="68.47636" lon="17.62397">
        <ele>5.574643</ele>
        <time>2020-08-28T02:17:01.440Z</time>
      </trkpt>
      <trkpt lat="68.47643" lon="17.62392">
        <ele>5.788176</ele>
        <time>2020-08-28T02:17:03.941Z</time>
      </trkpt>
      <trkpt lat="68.47649" lon="17.62453">
        <ele>6.908675</ele>
        <time>2020-08-28T02:17:12.470Z</time>
      </trkpt>
      <trkpt lat="68.47666" lon="17.6258">
        <ele>9.940943</ele>
        <time>2020-08-28T02:17:30.381Z</time>
      </trkpt>
      <trkpt lat="68.47669" lon="17.62602">
        <ele>10.488669</ele>
        <time>2020-08-28T02:17:34.146Z</time>
      </trkpt>
      <trkpt lat="68.47673" lon="17.62623">
        <ele>11.013264</ele>
        <time>2020-08-28T02:17:37.313Z</time>
      </trkpt>
      <trkpt lat="68.47678" lon="17.62651">
        <ele>11.726639</ele>
        <time>2020-08-28T02:17:41.533Z</time>
      </trkpt>
      <trkpt lat="68.47694" lon="17.62748">
        <ele>14.131077</ele>
        <time>2020-08-28T02:17:57.026Z</time>
      </trkpt>
      <trkpt lat="68.4771" lon="17.62876">
        <ele>17.201271</ele>
        <time>2020-08-28T02:18:16.761Z</time>
      </trkpt>
      <trkpt lat="68.47715" lon="17.63037">
        <ele>20.808697</ele>
        <time>2020-08-28T02:18:39.342Z</time>
      </trkpt>
      <trkpt lat="68.47705" lon="17.63127">
        <ele>22.920419</ele>
        <time>2020-08-28T02:18:52.104Z</time>
      </trkpt>
      <trkpt lat="68.4767" lon="17.633">
        <ele>27.34659</ele>
        <time>2020-08-28T02:19:17.817Z</time>
      </trkpt>
      <trkpt lat="68.47658" lon="17.63398">
        <ele>30.127633</ele>
        <time>2020-08-28T02:19:32.299Z</time>
      </trkpt>
      <trkpt lat="68.47653" lon="17.6353">
        <ele>33.99304</ele>
        <time>2020-08-28T02:19:51.832Z</time>
      </trkpt>
      <trkpt lat="68.47651" lon="17.64132">
        <ele>51.912886</ele>
        <time>2020-08-28T02:21:34.596Z</time>
      </trkpt>
      <trkpt lat="68.47649" lon="17.6418">
        <ele>53.37953</ele>
        <time>2020-08-28T02:21:43.097Z</time>
      </trkpt>
      <trkpt lat="68.47644" lon="17.6424">
        <ele>55.250242</ele>
        <time>2020-08-28T02:21:52.234Z</time>
      </trkpt>
      <trkpt lat="68.47629" lon="17.64344">
        <ele>58.197483</ele>
        <time>2020-08-28T02:22:08.941Z</time>
      </trkpt>
      <trkpt lat="68.47617" lon="17.64397">
        <ele>59.413141</ele>
        <time>2020-08-28T02:22:17.409Z</time>
      </trkpt>
      <trkpt lat="68.47529" lon="17.64641">
        <ele>66.138621</ele>
        <time>2020-08-28T02:22:59.123Z</time>
      </trkpt>
      <trkpt lat="68.47431" lon="17.6495">
        <ele>73.360264</ele>
        <time>2020-08-28T02:23:49.184Z</time>
      </trkpt>
      <trkpt lat="68.47377" lon="17.65124">
        <ele>76.657629</ele>
        <time>2020-08-28T02:24:16.940Z</time>
      </trkpt>
      <trkpt lat="68.47315" lon="17.6532">
        <ele>79.418374</ele>
        <time>2020-08-28T02:24:42.734Z</time>
      </trkpt>
      <trkpt lat="68.47266" lon="17.65434">
        <ele>81.280093</ele>
        <time>2020-08-28T02:24:56.331Z</time>
      </trkpt>
      <trkpt lat="68.47208" lon="17.65513">
        <ele>83.092851</ele>
        <time>2020-08-28T02:25:12.052Z</time>
      </trkpt>
      <trkpt lat="68.47164" lon="17.65573">
        <ele>84.476012</ele>
        <time>2020-08-28T02:25:25.047Z</time>
      </trkpt>
      <trkpt lat="68.47174" lon="17.65632">
        <ele>85.147914</ele>
        <time>2020-08-28T02:25:33.342Z</time>
      </trkpt>
      <trkpt lat="68.47179" lon="17.65682">
        <ele>85.67429</ele>
        <time>2020-08-28T02:25:38.272Z</time>
      </trkpt>
      <trkpt lat="68.47177" lon="17.65756">
        <ele>86.894822</ele>
        <time>2020-08-28T02:25:46.367Z</time>
      </trkpt>
      <trkpt lat="68.47169" lon="17.65821">
        <ele>88.143955</ele>
        <time>2020-08-28T02:25:56.261Z</time>
      </trkpt>
      <trkpt lat="68.47148" lon="17.6589">
        <ele>89.757319</ele>
        <time>2020-08-28T02:26:07.774Z</time>
      </trkpt>
      <trkpt lat="68.47129" lon="17.65942">
        <ele>91.087717</ele>
        <time>2020-08-28T02:26:17.841Z</time>
      </trkpt>
      <trkpt lat="68.47074" lon="17.66039">
        <ele>94.29359</ele>
        <time>2020-08-28T02:26:40.775Z</time>
      </trkpt>
      <trkpt lat="68.47072" lon="17.66043">
        <ele>94.44547</ele>
        <time>2020-08-28T02:26:42.450Z</time>
      </trkpt>
      <trkpt lat="68.47015" lon="17.6614">
        <ele>95.510461</ele>
        <time>2020-08-28T02:26:59.984Z</time>
      </trkpt>
      <trkpt lat="68.46974" lon="17.66211">
        <ele>96.143791</ele>
        <time>2020-08-28T02:27:10.427Z</time>
      </trkpt>
      <trkpt lat="68.46946" lon="17.66257">
        <ele>96.577793</ele>
        <time>2020-08-28T02:27:16.471Z</time>
      </trkpt>
      <trkpt lat="68.4686" lon="17.66407">
        <ele>96.87138</ele>
        <time>2020-08-28T02:27:31.921Z</time>
      </trkpt>
      <trkpt lat="68.4681" lon="17.66516">
        <ele>96.683666</ele>
        <time>2020-08-28T02:27:41.780Z</time>
      </trkpt>
      <trkpt lat="68.46793" lon="17.66568">
        <ele>96.608937</ele>
        <time>2020-08-28T02:27:46.445Z</time>
      </trkpt>
      <trkpt lat="68.46769" lon="17.66669">
        <ele>97.643729</ele>
        <time>2020-08-28T02:27:55.932Z</time>
      </trkpt>
      <trkpt lat="68.46752" lon="17.66812">
        <ele>100.852144</ele>
        <time>2020-08-28T02:28:12.270Z</time>
      </trkpt>
      <trkpt lat="68.4675" lon="17.66916">
        <ele>103.071712</ele>
        <time>2020-08-28T02:28:27.992Z</time>
      </trkpt>
      <trkpt lat="68.46757" lon="17.67023">
        <ele>105.387346</ele>
        <time>2020-08-28T02:28:45.970Z</time>
      </trkpt>
      <trkpt lat="68.46779" lon="17.67155">
        <ele>109.297718</ele>
        <time>2020-08-28T02:29:10.223Z</time>
      </trkpt>
      <trkpt lat="68.46789" lon="17.6719">
        <ele>110.738993</ele>
        <time>2020-08-28T02:29:18.599Z</time>
      </trkpt>
      <trkpt lat="68.46792" lon="17.67204">
        <ele>111.301206</ele>
        <time>2020-08-28T02:29:22.363Z</time>
      </trkpt>
      <trkpt lat="68.46865" lon="17.67376">
        <ele>119.867561</ele>
        <time>2020-08-28T02:30:07.929Z</time>
      </trkpt>
      <trkpt lat="68.46889" lon="17.6746">
        <ele>123.219721</ele>
        <time>2020-08-28T02:30:26.457Z</time>
      </trkpt>
      <trkpt lat="68.46905" lon="17.6755">
        <ele>125.048024</ele>
        <time>2020-08-28T02:30:41.036Z</time>
      </trkpt>
      <trkpt lat="68.46914" lon="17.67657">
        <ele>127.068981</ele>
        <time>2020-08-28T02:30:54.665Z</time>
      </trkpt>
      <trkpt lat="68.4691" lon="17.67898">
        <ele>131.499255</ele>
        <time>2020-08-28T02:31:21.544Z</time>
      </trkpt>
      <trkpt lat="68.46911" lon="17.68">
        <ele>132.810214</ele>
        <time>2020-08-28T02:31:31.704Z</time>
      </trkpt>
      <trkpt lat="68.46917" lon="17.68086">
        <ele>133.754663</ele>
        <time>2020-08-28T02:31:40.084Z</time>
      </trkpt>
      <trkpt lat="68.46928" lon="17.68167">
        <ele>134.682407</ele>
        <time>2020-08-28T02:31:48.194Z</time>
      </trkpt>
      <trkpt lat="68.46955" lon="17.68288">
        <ele>136.207742</ele>
        <time>2020-08-28T02:32:01.571Z</time>
      </trkpt>
      <trkpt lat="68.46987" lon="17.68379">
        <ele>137.734896</ele>
        <time>2020-08-28T02:32:13.972Z</time>
      </trkpt>
      <trkpt lat="68.47083" lon="17.68579">
        <ele>143.57486</ele>
        <time>2020-08-28T02:32:53.421Z</time>
      </trkpt>
      <trkpt lat="68.47127" lon="17.68763">
        <ele>147.847103</ele>
        <time>2020-08-28T02:33:23.633Z</time>
      </trkpt>
      <trkpt lat="68.47143" lon="17.68921">
        <ele>151.558249</ele>
        <time>2020-08-28T02:33:47.494Z</time>
      </trkpt>
      <trkpt lat="68.47143" lon="17.6906">
        <ele>154.701881</ele>
        <time>2020-08-28T02:34:07.584Z</time>
      </trkpt>
      <trkpt lat="68.47133" lon="17.69208">
        <ele>157.534824</ele>
        <time>2020-08-28T02:34:27.709Z</time>
      </trkpt>
      <trkpt lat="68.47105" lon="17.6941">
        <ele>159.742799</ele>
        <time>2020-08-28T02:34:51.385Z</time>
      </trkpt>
      <trkpt lat="68.47085" lon="17.6954">
        <ele>161.199656</ele>
        <time>2020-08-28T02:35:03.496Z</time>
      </trkpt>
      <trkpt lat="68.47055" lon="17.69744">
        <ele>162.343956</ele>
        <time>2020-08-28T02:35:17.953Z</time>
      </trkpt>
      <trkpt lat="68.47033" lon="17.69922">
        <ele>162.697736</ele>
        <time>2020-08-28T02:35:28.646Z</time>
      </trkpt>
      <trkpt lat="68.47006" lon="17.70228">
        <ele>166.066389</ele>
        <time>2020-08-28T02:35:56.051Z</time>
      </trkpt>
      <trkpt lat="68.47003" lon="17.70322">
        <ele>168.070151</ele>
        <time>2020-08-28T02:36:08.170Z</time>
      </trkpt>
      <trkpt lat="68.47001" lon="17.70417">
        <ele>170.073089</ele>
        <time>2020-08-28T02:36:21.874Z</time>
      </trkpt>
      <trkpt lat="68.47002" lon="17.70472">
        <ele>171.223149</ele>
        <time>2020-08-28T02:36:31.328Z</time>
      </trkpt>
      <trkpt lat="68.47017" lon="17.70635">
        <ele>176.170642</ele>
        <time>2020-08-28T02:36:59.031Z</time>
      </trkpt>
      <trkpt lat="68.47062" lon="17.70895">
        <ele>188.271388</ele>
        <time>2020-08-28T02:37:58.161Z</time>
      </trkpt>
      <trkpt lat="68.47069" lon="17.70966">
        <ele>191.396472</ele>
        <time>2020-08-28T02:38:13.592Z</time>
      </trkpt>
      <trkpt lat="68.47077" lon="17.71054">
        <ele>195.414689</ele>
        <time>2020-08-28T02:38:33.152Z</time>
      </trkpt>
      <trkpt lat="68.47088" lon="17.71219">
        <ele>203.759387</ele>
        <time>2020-08-28T02:39:11.032Z</time>
      </trkpt>
      <trkpt lat="68.47102" lon="17.71383">
        <ele>212.085335</ele>
        <time>2020-08-28T02:39:50.536Z</time>
      </trkpt>
      <trkpt lat="68.47152" lon="17.71815">
        <ele>232.430032</ele>
        <time>2020-08-28T02:41:30.436Z</time>
      </trkpt>
      <trkpt lat="68.47209" lon="17.72324">
        <ele>250.374366</ele>
        <time>2020-08-28T02:43:01.401Z</time>
      </trkpt>
      <trkpt lat="68.4723" lon="17.72451">
        <ele>254.159271</ele>
        <time>2020-08-28T02:43:20.583Z</time>
      </trkpt>
      <trkpt lat="68.47249" lon="17.72532">
        <ele>255.343924</ele>
        <time>2020-08-28T02:43:32.311Z</time>
      </trkpt>
      <trkpt lat="68.47297" lon="17.72715">
        <ele>258.131532</ele>
        <time>2020-08-28T02:43:55.576Z</time>
      </trkpt>
      <trkpt lat="68.47352" lon="17.72922">
        <ele>260.585261</ele>
        <time>2020-08-28T02:44:17.178Z</time>
      </trkpt>
      <trkpt lat="68.47368" lon="17.72981">
        <ele>260.99925</ele>
        <time>2020-08-28T02:44:22.901Z</time>
      </trkpt>
      <trkpt lat="68.47431" lon="17.73256">
        <ele>262.939005</ele>
        <time>2020-08-28T02:44:47.620Z</time>
      </trkpt>
      <trkpt lat="68.47502" lon="17.73586">
        <ele>268.864237</ele>
        <time>2020-08-28T02:45:32.245Z</time>
      </trkpt>
      <trkpt lat="68.47514" lon="17.73641">
        <ele>269.858282</ele>
        <time>2020-08-28T02:45:41.401Z</time>
      </trkpt>
      <trkpt lat="68.47565" lon="17.73871">
        <ele>274.180274</ele>
        <time>2020-08-28T02:46:16.093Z</time>
      </trkpt>
      <trkpt lat="68.47597" lon="17.74016">
        <ele>276.895913</ele>
        <time>2020-08-28T02:46:36.103Z</time>
      </trkpt>
      <trkpt lat="68.47634" lon="17.74178">
        <ele>278.220478</ele>
        <time>2020-08-28T02:46:53.749Z</time>
      </trkpt>
      <trkpt lat="68.47639" lon="17.74207">
        <ele>278.213289</ele>
        <time>2020-08-28T02:46:56.048Z</time>
      </trkpt>
      <trkpt lat="68.47666" lon="17.74324">
        <ele>278.182846</ele>
        <time>2020-08-28T02:47:05.775Z</time>
      </trkpt>
      <trkpt lat="68.47733" lon="17.74633">
        <ele>275.995033</ele>
        <time>2020-08-28T02:47:24.498Z</time>
      </trkpt>
      <trkpt lat="68.47928" lon="17.7552">
        <ele>259.288178</ele>
        <time>2020-08-28T02:48:10.609Z</time>
      </trkpt>
      <trkpt lat="68.47942" lon="17.75592">
        <ele>258.170856</ele>
        <time>2020-08-28T02:48:14.295Z</time>
      </trkpt>
      <trkpt lat="68.47964" lon="17.75707">
        <ele>256.389753</ele>
        <time>2020-08-28T02:48:20.546Z</time>
      </trkpt>
      <trkpt lat="68.47981" lon="17.75808">
        <ele>255.502864</ele>
        <time>2020-08-28T02:48:26.283Z</time>
      </trkpt>
      <trkpt lat="68.48004" lon="17.75943">
        <ele>256.497556</ele>
        <time>2020-08-28T02:48:34.928Z</time>
      </trkpt>
      <trkpt lat="68.48035" lon="17.76081">
        <ele>257.582945</ele>
        <time>2020-08-28T02:48:50.663Z</time>
      </trkpt>
      <trkpt lat="68.48084" lon="17.76213">
        <ele>259.674946</ele>
        <time>2020-08-28T02:49:11.642Z</time>
      </trkpt>
      <trkpt lat="68.48139" lon="17.76301">
        <ele>264.467527</ele>
        <time>2020-08-28T02:49:38.597Z</time>
      </trkpt>
      <trkpt lat="68.48171" lon="17.76335">
        <ele>267.068089</ele>
        <time>2020-08-28T02:49:54.288Z</time>
      </trkpt>
      <trkpt lat="68.48225" lon="17.76363">
        <ele>271.25776</ele>
        <time>2020-08-28T02:50:19.381Z</time>
      </trkpt>
      <trkpt lat="68.48239" lon="17.76364">
        <ele>272.257597</ele>
        <time>2020-08-28T02:50:26.497Z</time>
      </trkpt>
      <trkpt lat="68.48241" lon="17.76364">
        <ele>272.390958</ele>
        <time>2020-08-28T02:50:27.354Z</time>
      </trkpt>
      <trkpt lat="68.48266" lon="17.76363">
        <ele>273.959691</ele>
        <time>2020-08-28T02:50:38.125Z</time>
      </trkpt>
      <trkpt lat="68.48303" lon="17.76349">
        <ele>276.341351</ele>
        <time>2020-08-28T02:50:54.499Z</time>
      </trkpt>
      <trkpt lat="68.48357" lon="17.76302">
        <ele>279.935249</ele>
        <time>2020-08-28T02:51:17.565Z</time>
      </trkpt>
      <trkpt lat="68.48458" lon="17.76129">
        <ele>284.266346</ele>
        <time>2020-08-28T02:51:52.103Z</time>
      </trkpt>
      <trkpt lat="68.48516" lon="17.76051">
        <ele>284.974004</ele>
        <time>2020-08-28T02:52:03.597Z</time>
      </trkpt>
      <trkpt lat="68.48584" lon="17.75999">
        <ele>285.032554</ele>
        <time>2020-08-28T02:52:15.737Z</time>
      </trkpt>
      <trkpt lat="68.48638" lon="17.75979">
        <ele>283.401976</ele>
        <time>2020-08-28T02:52:23.825Z</time>
      </trkpt>
      <trkpt lat="68.48687" lon="17.75974">
        <ele>281.945696</ele>
        <time>2020-08-28T02:52:30.459Z</time>
      </trkpt>
      <trkpt lat="68.48738" lon="17.75975">
        <ele>280.428035</ele>
        <time>2020-08-28T02:52:36.921Z</time>
      </trkpt>
      <trkpt lat="68.48851" lon="17.75988">
        <ele>270.694618</ele>
        <time>2020-08-28T02:52:49.584Z</time>
      </trkpt>
      <trkpt lat="68.48886" lon="17.7601">
        <ele>267.490224</ele>
        <time>2020-08-28T02:52:53.417Z</time>
      </trkpt>
      <trkpt lat="68.48922" lon="17.76052">
        <ele>263.964213</ele>
        <time>2020-08-28T02:52:57.674Z</time>
      </trkpt>
      <trkpt lat="68.48942" lon="17.76081">
        <ele>262.251845</ele>
        <time>2020-08-28T02:53:00.059Z</time>
      </trkpt>
      <trkpt lat="68.48966" lon="17.76122">
        <ele>260.057203</ele>
        <time>2020-08-28T02:53:03.234Z</time>
      </trkpt>
      <trkpt lat="68.48984" lon="17.76147">
        <ele>258.548887</ele>
        <time>2020-08-28T02:53:05.511Z</time>
      </trkpt>
      <trkpt lat="68.49003" lon="17.76169">
        <ele>257.0088</ele>
        <time>2020-08-28T02:53:07.700Z</time>
      </trkpt>
      <trkpt lat="68.49043" lon="17.76202">
        <ele>253.800542</ele>
        <time>2020-08-28T02:53:12.508Z</time>
      </trkpt>
      <trkpt lat="68.4908" lon="17.7624">
        <ele>250.821345</ele>
        <time>2020-08-28T02:53:17.131Z</time>
      </trkpt>
      <trkpt lat="68.49127" lon="17.76314">
        <ele>250.089489</ele>
        <time>2020-08-28T02:53:25.695Z</time>
      </trkpt>
      <trkpt lat="68.49175" lon="17.76453">
        <ele>249.728786</ele>
        <time>2020-08-28T02:53:38.528Z</time>
      </trkpt>
      <trkpt lat="68.49195" lon="17.76547">
        <ele>249.523098</ele>
        <time>2020-08-28T02:53:46.142Z</time>
      </trkpt>
      <trkpt lat="68.49235" lon="17.76837">
        <ele>251.253687</ele>
        <time>2020-08-28T02:54:10.297Z</time>
      </trkpt>
      <trkpt lat="68.49272" lon="17.7698">
        <ele>252.537549</ele>
        <time>2020-08-28T02:54:26.769Z</time>
      </trkpt>
      <trkpt lat="68.49308" lon="17.77064">
        <ele>254.183345</ele>
        <time>2020-08-28T02:54:40.160Z</time>
      </trkpt>
      <trkpt lat="68.49433" lon="17.77288">
        <ele>261.809087</ele>
        <time>2020-08-28T02:55:32.394Z</time>
      </trkpt>
      <trkpt lat="68.49466" lon="17.7736">
        <ele>264.11806</ele>
        <time>2020-08-28T02:55:49.500Z</time>
      </trkpt>
      <trkpt lat="68.49506" lon="17.7749">
        <ele>267.573078</ele>
        <time>2020-08-28T02:56:13.111Z</time>
      </trkpt>
      <trkpt lat="68.49529" lon="17.77609">
        <ele>270.298456</ele>
        <time>2020-08-28T02:56:30.409Z</time>
      </trkpt>
      <trkpt lat="68.49542" lon="17.7769">
        <ele>272.102282</ele>
        <time>2020-08-28T02:56:41.268Z</time>
      </trkpt>
      <trkpt lat="68.49545" lon="17.77709">
        <ele>272.300334</ele>
        <time>2020-08-28T02:56:43.433Z</time>
      </trkpt>
      <trkpt lat="68.49552" lon="17.77752">
        <ele>272.714632</ele>
        <time>2020-08-28T02:56:48.708Z</time>
      </trkpt>
      <trkpt lat="68.49558" lon="17.77795">
        <ele>273.136309</ele>
        <time>2020-08-28T02:56:53.798Z</time>
      </trkpt>
      <trkpt lat="68.49609" lon="17.78115">
        <ele>276.236754</ele>
        <time>2020-08-28T02:57:25.052Z</time>
      </trkpt>
      <trkpt lat="68.49624" lon="17.78209">
        <ele>276.694058</ele>
        <time>2020-08-28T02:57:32.446Z</time>
      </trkpt>
      <trkpt lat="68.49718" lon="17.78812">
        <ele>278.343326</ele>
        <time>2020-08-28T02:58:19.686Z</time>
      </trkpt>
      <trkpt lat="68.49771" lon="17.79144">
        <ele>279.392339</ele>
        <time>2020-08-28T02:58:46.264Z</time>
      </trkpt>
      <trkpt lat="68.49795" lon="17.79288">
        <ele>280.069654</ele>
        <time>2020-08-28T02:58:57.922Z</time>
      </trkpt>
      <trkpt lat="68.49869" lon="17.79622">
        <ele>282.976986</ele>
        <time>2020-08-28T02:59:31.117Z</time>
      </trkpt>
      <trkpt lat="68.49914" lon="17.79774">
        <ele>285.260254</ele>
        <time>2020-08-28T02:59:52.304Z</time>
      </trkpt>
      <trkpt lat="68.49938" lon="17.79844">
        <ele>286.374454</ele>
        <time>2020-08-28T03:00:03.488Z</time>
      </trkpt>
      <trkpt lat="68.50007" lon="17.80018">
        <ele>288.479535</ele>
        <time>2020-08-28T03:00:33.788Z</time>
      </trkpt>
      <trkpt lat="68.50072" lon="17.80133">
        <ele>290.097136</ele>
        <time>2020-08-28T03:00:50.345Z</time>
      </trkpt>
      <trkpt lat="68.50091" lon="17.80154">
        <ele>290.51435</ele>
        <time>2020-08-28T03:00:53.452Z</time>
      </trkpt>
      <trkpt lat="68.50109" lon="17.80169">
        <ele>290.143076</ele>
        <time>2020-08-28T03:00:56.292Z</time>
      </trkpt>
      <trkpt lat="68.50126" lon="17.80178">
        <ele>289.793855</ele>
        <time>2020-08-28T03:00:58.682Z</time>
      </trkpt>
      <trkpt lat="68.50157" lon="17.80186">
        <ele>289.161464</ele>
        <time>2020-08-28T03:01:03.019Z</time>
      </trkpt>
      <trkpt lat="68.50178" lon="17.80188">
        <ele>288.733507</ele>
        <time>2020-08-28T03:01:05.738Z</time>
      </trkpt>
      <trkpt lat="68.50367" lon="17.802">
        <ele>286.671514</ele>
        <time>2020-08-28T03:01:31.782Z</time>
      </trkpt>
      <trkpt lat="68.50404" lon="17.80213">
        <ele>286.600851</ele>
        <time>2020-08-28T03:01:40.195Z</time>
      </trkpt>
      <trkpt lat="68.50459" lon="17.80261">
        <ele>286.908255</ele>
        <time>2020-08-28T03:01:55.352Z</time>
      </trkpt>
      <trkpt lat="68.50489" lon="17.80298">
        <ele>287.893988</ele>
        <time>2020-08-28T03:02:04.853Z</time>
      </trkpt>
      <trkpt lat="68.50557" lon="17.80425">
        <ele>290.407588</ele>
        <time>2020-08-28T03:02:28.786Z</time>
      </trkpt>
      <trkpt lat="68.50585" lon="17.8051">
        <ele>291.704536</ele>
        <time>2020-08-28T03:02:40.388Z</time>
      </trkpt>
      <trkpt lat="68.50595" lon="17.80544">
        <ele>292.165635</ele>
        <time>2020-08-28T03:02:44.797Z</time>
      </trkpt>
      <trkpt lat="68.506" lon="17.80562">
        <ele>292.400564</ele>
        <time>2020-08-28T03:02:46.657Z</time>
      </trkpt>
      <trkpt lat="68.50623" lon="17.80662">
        <ele>293.61973</ele>
        <time>2020-08-28T03:02:57.441Z</time>
      </trkpt>
      <trkpt lat="68.50642" lon="17.80775">
        <ele>294.890055</ele>
        <time>2020-08-28T03:03:08.914Z</time>
      </trkpt>
      <trkpt lat="68.50663" lon="17.81003">
        <ele>297.597279</ele>
        <time>2020-08-28T03:03:32.429Z</time>
      </trkpt>
      <trkpt lat="68.50669" lon="17.81066">
        <ele>299.015265</ele>
        <time>2020-08-28T03:03:39.675Z</time>
      </trkpt>
      <trkpt lat="68.50674" lon="17.81128">
        <ele>300.396893</ele>
        <time>2020-08-28T03:03:47.049Z</time>
      </trkpt>
      <trkpt lat="68.5069" lon="17.81258">
        <ele>303.402787</ele>
        <time>2020-08-28T03:04:05.147Z</time>
      </trkpt>
      <trkpt lat="68.50716" lon="17.81379">
        <ele>306.456099</ele>
        <time>2020-08-28T03:04:26.204Z</time>
      </trkpt>
      <trkpt lat="68.50766" lon="17.81538">
        <ele>312.434211</ele>
        <time>2020-08-28T03:05:01.783Z</time>
      </trkpt>
      <trkpt lat="68.50791" lon="17.81646">
        <ele>316.478788</ele>
        <time>2020-08-28T03:05:24.110Z</time>
      </trkpt>
      <trkpt lat="68.50826" lon="17.81883">
        <ele>324.053388</ele>
        <time>2020-08-28T03:06:06.298Z</time>
      </trkpt>
      <trkpt lat="68.50846" lon="17.81987">
        <ele>326.55489</ele>
        <time>2020-08-28T03:06:24.696Z</time>
      </trkpt>
      <trkpt lat="68.50949" lon="17.82279">
        <ele>334.456778</ele>
        <time>2020-08-28T03:07:13.960Z</time>
      </trkpt>
      <trkpt lat="68.51001" lon="17.8248">
        <ele>337.386595</ele>
        <time>2020-08-28T03:07:37.617Z</time>
      </trkpt>
      <trkpt lat="68.51078" lon="17.82922">
        <ele>343.63203</ele>
        <time>2020-08-28T03:08:27.307Z</time>
      </trkpt>
      <trkpt lat="68.51106" lon="17.83153">
        <ele>347.08143</ele>
        <time>2020-08-28T03:08:56.240Z</time>
      </trkpt>
      <trkpt lat="68.51112" lon="17.83218">
        <ele>348.177826</ele>
        <time>2020-08-28T03:09:04.478Z</time>
      </trkpt>
      <trkpt lat="68.51125" lon="17.83358">
        <ele>350.545309</ele>
        <time>2020-08-28T03:09:22.198Z</time>
      </trkpt>
      <trkpt lat="68.51262" lon="17.85035">
        <ele>376.93081</ele>
        <time>2020-08-28T03:12:38.515Z</time>
      </trkpt>
      <trkpt lat="68.51307" lon="17.85493">
        <ele>383.774453</ele>
        <time>2020-08-28T03:13:31.288Z</time>
      </trkpt>
      <trkpt lat="68.51384" lon="17.86095">
        <ele>392.464346</ele>
        <time>2020-08-28T03:14:41.343Z</time>
      </trkpt>
      <trkpt lat="68.51451" lon="17.86517">
        <ele>397.655581</ele>
        <time>2020-08-28T03:15:29.296Z</time>
      </trkpt>
      <trkpt lat="68.51456" lon="17.86547">
        <ele>397.920406</ele>
        <time>2020-08-28T03:15:32.774Z</time>
      </trkpt>
      <trkpt lat="68.51462" lon="17.8657">
        <ele>398.139927</ele>
        <time>2020-08-28T03:15:35.179Z</time>
      </trkpt>
      <trkpt lat="68.51477" lon="17.86638">
        <ele>398.783277</ele>
        <time>2020-08-28T03:15:42.753Z</time>
      </trkpt>
      <trkpt lat="68.51508" lon="17.86726">
        <ele>399.750858</ele>
        <time>2020-08-28T03:15:53.514Z</time>
      </trkpt>
      <trkpt lat="68.51576" lon="17.86889">
        <ele>399.618851</ele>
        <time>2020-08-28T03:16:11.609Z</time>
      </trkpt>
      <trkpt lat="68.51604" lon="17.86987">
        <ele>398.900739</ele>
        <time>2020-08-28T03:16:18.508Z</time>
      </trkpt>
      <trkpt lat="68.51608" lon="17.87011">
        <ele>398.746285</ele>
        <time>2020-08-28T03:16:20.129Z</time>
      </trkpt>
      <trkpt lat="68.51612" lon="17.87033">
        <ele>398.606477</ele>
        <time>2020-08-28T03:16:21.241Z</time>
      </trkpt>
      <trkpt lat="68.51626" lon="17.8716">
        <ele>397.836188</ele>
        <time>2020-08-28T03:16:27.675Z</time>
      </trkpt>
      <trkpt lat="68.51628" lon="17.872">
        <ele>397.426395</ele>
        <time>2020-08-28T03:16:29.716Z</time>
      </trkpt>
      <trkpt lat="68.51629" lon="17.87233">
        <ele>396.667265</ele>
        <time>2020-08-28T03:16:31.091Z</time>
      </trkpt>
      <trkpt lat="68.51627" lon="17.87355">
        <ele>393.847195</ele>
        <time>2020-08-28T03:16:36.358Z</time>
      </trkpt>
      <trkpt lat="68.51618" lon="17.87509">
        <ele>390.237122</ele>
        <time>2020-08-28T03:16:42.970Z</time>
      </trkpt>
      <trkpt lat="68.51616" lon="17.87544">
        <ele>389.40412</ele>
        <time>2020-08-28T03:16:44.422Z</time>
      </trkpt>
      <trkpt lat="68.51604" lon="17.87705">
        <ele>385.750877</ele>
        <time>2020-08-28T03:16:51.255Z</time>
      </trkpt>
      <trkpt lat="68.5158" lon="17.88036">
        <ele>379.462359</ele>
        <time>2020-08-28T03:17:05.828Z</time>
      </trkpt>
      <trkpt lat="68.51556" lon="17.88368">
        <ele>376.536913</ele>
        <time>2020-08-28T03:17:23.426Z</time>
      </trkpt>
      <trkpt lat="68.51533" lon="17.88691">
        <ele>375.812594</ele>
        <time>2020-08-28T03:17:46.314Z</time>
      </trkpt>
      <trkpt lat="68.51471" lon="17.89551">
        <ele>376.065622</ele>
        <time>2020-08-28T03:18:47.471Z</time>
      </trkpt>
      <trkpt lat="68.51441" lon="17.89856">
        <ele>372.024222</ele>
        <time>2020-08-28T03:19:02.992Z</time>
      </trkpt>
      <trkpt lat="68.51412" lon="17.90086">
        <ele>368.128249</ele>
        <time>2020-08-28T03:19:13.528Z</time>
      </trkpt>
      <trkpt lat="68.51377" lon="17.90331">
        <ele>361.029569</ele>
        <time>2020-08-28T03:19:24.474Z</time>
      </trkpt>
      <trkpt lat="68.51376" lon="17.90339">
        <ele>360.795573</ele>
        <time>2020-08-28T03:19:24.832Z</time>
      </trkpt>
      <trkpt lat="68.5136" lon="17.90457">
        <ele>357.395933</ele>
        <time>2020-08-28T03:19:30.036Z</time>
      </trkpt>
      <trkpt lat="68.51303" lon="17.90886">
        <ele>344.325125</ele>
        <time>2020-08-28T03:19:48.958Z</time>
      </trkpt>
      <trkpt lat="68.51272" lon="17.91168">
        <ele>336.012739</ele>
        <time>2020-08-28T03:20:01.057Z</time>
      </trkpt>
      <trkpt lat="68.51262" lon="17.91271">
        <ele>333.056072</ele>
        <time>2020-08-28T03:20:05.446Z</time>
      </trkpt>
      <trkpt lat="68.5124" lon="17.91613">
        <ele>324.811435</ele>
        <time>2020-08-28T03:20:20.081Z</time>
      </trkpt>
      <trkpt lat="68.51231" lon="17.91861">
        <ele>320.355153</ele>
        <time>2020-08-28T03:20:31.419Z</time>
      </trkpt>
      <trkpt lat="68.51229" lon="17.92092">
        <ele>317.732454</ele>
        <time>2020-08-28T03:20:42.590Z</time>
      </trkpt>
      <trkpt lat="68.5123" lon="17.92217">
        <ele>316.918762</ele>
        <time>2020-08-28T03:20:49.079Z</time>
      </trkpt>
      <trkpt lat="68.51241" lon="17.92397">
        <ele>315.732312</ele>
        <time>2020-08-28T03:20:59.537Z</time>
      </trkpt>
      <trkpt lat="68.51246" lon="17.92437">
        <ele>315.463526</ele>
        <time>2020-08-28T03:21:01.910Z</time>
      </trkpt>
      <trkpt lat="68.51257" lon="17.92494">
        <ele>315.308581</ele>
        <time>2020-08-28T03:21:06.003Z</time>
      </trkpt>
      <trkpt lat="68.51324" lon="17.92752">
        <ele>314.766872</ele>
        <time>2020-08-28T03:21:26.090Z</time>
      </trkpt>
      <trkpt lat="68.51357" lon="17.92947">
        <ele>313.882644</ele>
        <time>2020-08-28T03:21:38.726Z</time>
      </trkpt>
      <trkpt lat="68.51375" lon="17.93177">
        <ele>312.208406</ele>
        <time>2020-08-28T03:21:50.796Z</time>
      </trkpt>
      <trkpt lat="68.51376" lon="17.93304">
        <ele>311.309494</ele>
        <time>2020-08-28T03:21:56.975Z</time>
      </trkpt>
      <trkpt lat="68.5137" lon="17.93437">
        <ele>310.609793</ele>
        <time>2020-08-28T03:22:03.626Z</time>
      </trkpt>
      <trkpt lat="68.51343" lon="17.93671">
        <ele>309.484722</ele>
        <time>2020-08-28T03:22:16.737Z</time>
      </trkpt>
      <trkpt lat="68.51332" lon="17.93736">
        <ele>309.157623</ele>
        <time>2020-08-28T03:22:21.080Z</time>
      </trkpt>
      <trkpt lat="68.51295" lon="17.93886">
        <ele>309.412861</ele>
        <time>2020-08-28T03:22:33.978Z</time>
      </trkpt>
      <trkpt lat="68.51226" lon="17.94062">
        <ele>310.833872</ele>
        <time>2020-08-28T03:22:56.076Z</time>
      </trkpt>
      <trkpt lat="68.51138" lon="17.94204">
        <ele>312.882922</ele>
        <time>2020-08-28T03:23:22.000Z</time>
      </trkpt>
      <trkpt lat="68.51117" lon="17.94231">
        <ele>313.442811</ele>
        <time>2020-08-28T03:23:27.856Z</time>
      </trkpt>
      <trkpt lat="68.51081" lon="17.94274">
        <ele>314.407677</ele>
        <time>2020-08-28T03:23:37.890Z</time>
      </trkpt>
      <trkpt lat="68.51007" lon="17.94355">
        <ele>316.529498</ele>
        <time>2020-08-28T03:23:58.330Z</time>
      </trkpt>
      <trkpt lat="68.50965" lon="17.94404">
        <ele>318.112407</ele>
        <time>2020-08-28T03:24:11.153Z</time>
      </trkpt>
      <trkpt lat="68.5093" lon="17.94454">
        <ele>319.462165</ele>
        <time>2020-08-28T03:24:22.622Z</time>
      </trkpt>
      <trkpt lat="68.50919" lon="17.94475">
        <ele>319.93126</ele>
        <time>2020-08-28T03:24:27.192Z</time>
      </trkpt>
      <trkpt lat="68.50902" lon="17.94508">
        <ele>320.646256</ele>
        <time>2020-08-28T03:24:33.098Z</time>
      </trkpt>
      <trkpt lat="68.50898" lon="17.94519">
        <ele>320.851967</ele>
        <time>2020-08-28T03:24:35.032Z</time>
      </trkpt>
      <trkpt lat="68.50885" lon="17.94555">
        <ele>321.476948</ele>
        <time>2020-08-28T03:24:40.883Z</time>
      </trkpt>
      <trkpt lat="68.50876" lon="17.94583">
        <ele>321.95227</ele>
        <time>2020-08-28T03:24:44.684Z</time>
      </trkpt>
      <trkpt lat="68.50863" lon="17.94629">
        <ele>322.590469</ele>
        <time>2020-08-28T03:24:51.713Z</time>
      </trkpt>
      <trkpt lat="68.50819" lon="17.94826">
        <ele>325.01185</ele>
        <time>2020-08-28T03:25:16.089Z</time>
      </trkpt>
      <trkpt lat="68.50789" lon="17.94929">
        <ele>326.391413</ele>
        <time>2020-08-28T03:25:28.999Z</time>
      </trkpt>
      <trkpt lat="68.50748" lon="17.95014">
        <ele>327.235601</ele>
        <time>2020-08-28T03:25:40.662Z</time>
      </trkpt>
      <trkpt lat="68.50648" lon="17.95122">
        <ele>327.146815</ele>
        <time>2020-08-28T03:25:58.336Z</time>
      </trkpt>
      <trkpt lat="68.50609" lon="17.95192">
        <ele>327.107856</ele>
        <time>2020-08-28T03:26:05.641Z</time>
      </trkpt>
      <trkpt lat="68.5058" lon="17.95278">
        <ele>327.625091</ele>
        <time>2020-08-28T03:26:12.893Z</time>
      </trkpt>
      <trkpt lat="68.50549" lon="17.95423">
        <ele>328.444817</ele>
        <time>2020-08-28T03:26:25.208Z</time>
      </trkpt>
      <trkpt lat="68.50496" lon="17.95716">
        <ele>331.032636</ele>
        <time>2020-08-28T03:26:57.087Z</time>
      </trkpt>
      <trkpt lat="68.50448" lon="17.95986">
        <ele>335.207941</ele>
        <time>2020-08-28T03:27:32.151Z</time>
      </trkpt>
      <trkpt lat="68.50336" lon="17.96608">
        <ele>344.249206</ele>
        <time>2020-08-28T03:28:47.509Z</time>
      </trkpt>
      <trkpt lat="68.5031" lon="17.96751">
        <ele>345.899904</ele>
        <time>2020-08-28T03:29:02.762Z</time>
      </trkpt>
      <trkpt lat="68.50282" lon="17.969">
        <ele>347.638982</ele>
        <time>2020-08-28T03:29:18.433Z</time>
      </trkpt>
      <trkpt lat="68.50248" lon="17.97067">
        <ele>349.665739</ele>
        <time>2020-08-28T03:29:36.686Z</time>
      </trkpt>
      <trkpt lat="68.50211" lon="17.97194">
        <ele>351.371395</ele>
        <time>2020-08-28T03:29:52.346Z</time>
      </trkpt>
      <trkpt lat="68.50182" lon="17.97271">
        <ele>352.555997</ele>
        <time>2020-08-28T03:30:03.970Z</time>
      </trkpt>
      <trkpt lat="68.50131" lon="17.9736">
        <ele>354.325857</ele>
        <time>2020-08-28T03:30:21.666Z</time>
      </trkpt>
      <trkpt lat="68.50093" lon="17.97402">
        <ele>355.528695</ele>
        <time>2020-08-28T03:30:33.378Z</time>
      </trkpt>
      <trkpt lat="68.50036" lon="17.97434">
        <ele>357.241086</ele>
        <time>2020-08-28T03:30:49.505Z</time>
      </trkpt>
      <trkpt lat="68.49995" lon="17.97436">
        <ele>358.446887</ele>
        <time>2020-08-28T03:31:00.140Z</time>
      </trkpt>
      <trkpt lat="68.49917" lon="17.97409">
        <ele>359.397672</ele>
        <time>2020-08-28T03:31:18.170Z</time>
      </trkpt>
      <trkpt lat="68.499" lon="17.97407">
        <ele>359.589504</ele>
        <time>2020-08-28T03:31:21.866Z</time>
      </trkpt>
      <trkpt lat="68.49878" lon="17.97412">
        <ele>359.838815</ele>
        <time>2020-08-28T03:31:26.354Z</time>
      </trkpt>
      <trkpt lat="68.49867" lon="17.97417">
        <ele>359.95985</ele>
        <time>2020-08-28T03:31:28.549Z</time>
      </trkpt>
      <trkpt lat="68.49857" lon="17.97423">
        <ele>360.077192</ele>
        <time>2020-08-28T03:31:30.594Z</time>
      </trkpt>
      <trkpt lat="68.49845" lon="17.97431">
        <ele>360.213263</ele>
        <time>2020-08-28T03:31:32.904Z</time>
      </trkpt>
      <trkpt lat="68.49831" lon="17.97443">
        <ele>360.37475</ele>
        <time>2020-08-28T03:31:35.703Z</time>
      </trkpt>
      <trkpt lat="68.49791" lon="17.97484">
        <ele>360.585102</ele>
        <time>2020-08-28T03:31:43.583Z</time>
      </trkpt>
      <trkpt lat="68.49751" lon="17.97525">
        <ele>360.590175</ele>
        <time>2020-08-28T03:31:51.455Z</time>
      </trkpt>
      <trkpt lat="68.49534" lon="17.97749">
        <ele>360.483144</ele>
        <time>2020-08-28T03:32:32.273Z</time>
      </trkpt>
      <trkpt lat="68.49475" lon="17.97802">
        <ele>360.421957</ele>
        <time>2020-08-28T03:32:42.947Z</time>
      </trkpt>
      <trkpt lat="68.49426" lon="17.97829">
        <ele>360.390805</ele>
        <time>2020-08-28T03:32:51.602Z</time>
      </trkpt>
      <trkpt lat="68.49417" lon="17.97832">
        <ele>360.38454</ele>
        <time>2020-08-28T03:32:53.363Z</time>
      </trkpt>
      <trkpt lat="68.49405" lon="17.97836">
        <ele>360.37752</ele>
        <time>2020-08-28T03:32:55.235Z</time>
      </trkpt>
      <trkpt lat="68.49366" lon="17.97837">
        <ele>360.352781</ele>
        <time>2020-08-28T03:33:02.100Z</time>
      </trkpt>
      <trkpt lat="68.49245" lon="17.97801">
        <ele>360.865821</ele>
        <time>2020-08-28T03:33:23.819Z</time>
      </trkpt>
      <trkpt lat="68.49171" lon="17.97818">
        <ele>361.634244</ele>
        <time>2020-08-28T03:33:37.883Z</time>
      </trkpt>
      <trkpt lat="68.4903" lon="17.97877">
        <ele>366.192526</ele>
        <time>2020-08-28T03:34:17.147Z</time>
      </trkpt>
      <trkpt lat="68.48918" lon="17.97925">
        <ele>371.738677</ele>
        <time>2020-08-28T03:34:58.221Z</time>
      </trkpt>
      <trkpt lat="68.48846" lon="17.97954">
        <ele>376.702976</ele>
        <time>2020-08-28T03:35:28.643Z</time>
      </trkpt>
      <trkpt lat="68.4878" lon="17.97966">
        <ele>381.1404</ele>
        <time>2020-08-28T03:35:55.323Z</time>
      </trkpt>
      <trkpt lat="68.48673" lon="17.97944">
        <ele>387.274553</ele>
        <time>2020-08-28T03:36:35.567Z</time>
      </trkpt>
      <trkpt lat="68.4862" lon="17.97916">
        <ele>390.250584</ele>
        <time>2020-08-28T03:36:54.747Z</time>
      </trkpt>
      <trkpt lat="68.48478" lon="17.97796">
        <ele>396.471087</ele>
        <time>2020-08-28T03:37:39.678Z</time>
      </trkpt>
      <trkpt lat="68.48424" lon="17.97768">
        <ele>398.500659</ele>
        <time>2020-08-28T03:37:54.502Z</time>
      </trkpt>
      <trkpt lat="68.48373" lon="17.97768">
        <ele>401.038067</ele>
        <time>2020-08-28T03:38:09.989Z</time>
      </trkpt>
      <trkpt lat="68.48316" lon="17.97799">
        <ele>404.088085</ele>
        <time>2020-08-28T03:38:28.956Z</time>
      </trkpt>
      <trkpt lat="68.48304" lon="17.97809">
        <ele>404.734423</ele>
        <time>2020-08-28T03:38:33.022Z</time>
      </trkpt>
      <trkpt lat="68.48296" lon="17.97815">
        <ele>405.188829</ele>
        <time>2020-08-28T03:38:36.627Z</time>
      </trkpt>
      <trkpt lat="68.48197" lon="17.97905">
        <ele>411.155357</ele>
        <time>2020-08-28T03:39:18.215Z</time>
      </trkpt>
      <trkpt lat="68.48102" lon="17.97945">
        <ele>417.30287</ele>
        <time>2020-08-28T03:39:57.964Z</time>
      </trkpt>
      <trkpt lat="68.48034" lon="17.97951">
        <ele>420.503449</ele>
        <time>2020-08-28T03:40:20.937Z</time>
      </trkpt>
      <trkpt lat="68.47874" lon="17.97913">
        <ele>424.235627</ele>
        <time>2020-08-28T03:40:56.973Z</time>
      </trkpt>
      <trkpt lat="68.47854" lon="17.97919">
        <ele>424.858093</ele>
        <time>2020-08-28T03:41:00.695Z</time>
      </trkpt>
      <trkpt lat="68.47842" lon="17.97924">
        <ele>425.224788</ele>
        <time>2020-08-28T03:41:04.186Z</time>
      </trkpt>
      <trkpt lat="68.478" lon="17.97962">
        <ele>426.561708</ele>
        <time>2020-08-28T03:41:15.184Z</time>
      </trkpt>
      <trkpt lat="68.4776" lon="17.98037">
        <ele>428.049202</ele>
        <time>2020-08-28T03:41:28.521Z</time>
      </trkpt>
      <trkpt lat="68.47749" lon="17.98067">
        <ele>428.540088</ele>
        <time>2020-08-28T03:41:34.104Z</time>
      </trkpt>
      <trkpt lat="68.47737" lon="17.98105">
        <ele>429.098507</ele>
        <time>2020-08-28T03:41:39.424Z</time>
      </trkpt>
      <trkpt lat="68.47509" lon="17.99153">
        <ele>450.08469</ele>
        <time>2020-08-28T03:44:19.213Z</time>
      </trkpt>
      <trkpt lat="68.47472" lon="17.99309">
        <ele>450.885666</ele>
        <time>2020-08-28T03:44:29.483Z</time>
      </trkpt>
      <trkpt lat="68.47408" lon="17.99526">
        <ele>449.9811</ele>
        <time>2020-08-28T03:44:43.047Z</time>
      </trkpt>
      <trkpt lat="68.47399" lon="17.99555">
        <ele>449.691543</ele>
        <time>2020-08-28T03:44:44.918Z</time>
      </trkpt>
      <trkpt lat="68.47371" lon="17.99646">
        <ele>448.77503</ele>
        <time>2020-08-28T03:44:50.804Z</time>
      </trkpt>
      <trkpt lat="68.47357" lon="17.99691">
        <ele>448.333615</ele>
        <time>2020-08-28T03:44:54.128Z</time>
      </trkpt>
      <trkpt lat="68.47319" lon="17.99859">
        <ele>447.562306</ele>
        <time>2020-08-28T03:45:05.386Z</time>
      </trkpt>
      <trkpt lat="68.47285" lon="18.00147">
        <ele>447.487781</ele>
        <time>2020-08-28T03:45:25.665Z</time>
      </trkpt>
      <trkpt lat="68.47245" lon="18.00356">
        <ele>448.285218</ele>
        <time>2020-08-28T03:45:42.694Z</time>
      </trkpt>
      <trkpt lat="68.47203" lon="18.00497">
        <ele>449.31333</ele>
        <time>2020-08-28T03:45:57.931Z</time>
      </trkpt>
      <trkpt lat="68.47118" lon="18.00706">
        <ele>451.220651</ele>
        <time>2020-08-28T03:46:27.406Z</time>
      </trkpt>
      <trkpt lat="68.47071" lon="18.00808">
        <ele>452.313357</ele>
        <time>2020-08-28T03:46:42.437Z</time>
      </trkpt>
      <trkpt lat="68.47051" lon="18.00855">
        <ele>452.799804</ele>
        <time>2020-08-28T03:46:48.738Z</time>
      </trkpt>
      <trkpt lat="68.47001" lon="18.00984">
        <ele>453.258784</ele>
        <time>2020-08-28T03:47:03.149Z</time>
      </trkpt>
      <trkpt lat="68.4691" lon="18.01251">
        <ele>452.237169</ele>
        <time>2020-08-28T03:47:23.362Z</time>
      </trkpt>
      <trkpt lat="68.46903" lon="18.01267">
        <ele>452.165811</ele>
        <time>2020-08-28T03:47:24.685Z</time>
      </trkpt>
      <trkpt lat="68.46899" lon="18.01277">
        <ele>452.123512</ele>
        <time>2020-08-28T03:47:25.351Z</time>
      </trkpt>
      <trkpt lat="68.46858" lon="18.01357">
        <ele>451.79932</ele>
        <time>2020-08-28T03:47:33.084Z</time>
      </trkpt>
      <trkpt lat="68.46819" lon="18.014">
        <ele>451.530267</ele>
        <time>2020-08-28T03:47:39.549Z</time>
      </trkpt>
      <trkpt lat="68.46666" lon="18.01465">
        <ele>450.807369</ele>
        <time>2020-08-28T03:48:06.820Z</time>
      </trkpt>
      <trkpt lat="68.46657" lon="18.01473">
        <ele>450.786614</ele>
        <time>2020-08-28T03:48:09.130Z</time>
      </trkpt>
      <trkpt lat="68.46635" lon="18.01496">
        <ele>450.733285</ele>
        <time>2020-08-28T03:48:12.880Z</time>
      </trkpt>
      <trkpt lat="68.46593" lon="18.01555">
        <ele>450.625598</ele>
        <time>2020-08-28T03:48:21.507Z</time>
      </trkpt>
      <trkpt lat="68.46553" lon="18.01642">
        <ele>450.341926</ele>
        <time>2020-08-28T03:48:29.565Z</time>
      </trkpt>
      <trkpt lat="68.46528" lon="18.01717">
        <ele>449.923841</ele>
        <time>2020-08-28T03:48:35.344Z</time>
      </trkpt>
      <trkpt lat="68.46495" lon="18.01845">
        <ele>449.277166</ele>
        <time>2020-08-28T03:48:43.779Z</time>
      </trkpt>
      <trkpt lat="68.46478" lon="18.01926">
        <ele>448.891443</ele>
        <time>2020-08-28T03:48:48.906Z</time>
      </trkpt>
      <trkpt lat="68.4646" lon="18.02023">
        <ele>448.47408</ele>
        <time>2020-08-28T03:48:55.007Z</time>
      </trkpt>
      <trkpt lat="68.46378" lon="18.02472">
        <ele>447.356054</ele>
        <time>2020-08-28T03:49:24.609Z</time>
      </trkpt>
      <trkpt lat="68.46312" lon="18.02762">
        <ele>447.674261</ele>
        <time>2020-08-28T03:49:48.097Z</time>
      </trkpt>
      <trkpt lat="68.46297" lon="18.02814">
        <ele>447.7356</ele>
        <time>2020-08-28T03:49:52.892Z</time>
      </trkpt>
      <trkpt lat="68.46287" lon="18.0285">
        <ele>447.778376</ele>
        <time>2020-08-28T03:49:56.499Z</time>
      </trkpt>
      <trkpt lat="68.46203" lon="18.031">
        <ele>448.283471</ele>
        <time>2020-08-28T03:50:21.259Z</time>
      </trkpt>
      <trkpt lat="68.46181" lon="18.03155">
        <ele>448.404934</ele>
        <time>2020-08-28T03:50:26.950Z</time>
      </trkpt>
      <trkpt lat="68.46146" lon="18.03239">
        <ele>448.397142</ele>
        <time>2020-08-28T03:50:35.058Z</time>
      </trkpt>
      <trkpt lat="68.46091" lon="18.03349">
        <ele>447.946609</ele>
        <time>2020-08-28T03:50:46.202Z</time>
      </trkpt>
      <trkpt lat="68.46008" lon="18.03489">
        <ele>447.335322</ele>
        <time>2020-08-28T03:51:01.403Z</time>
      </trkpt>
      <trkpt lat="68.45988" lon="18.03513">
        <ele>447.339944</ele>
        <time>2020-08-28T03:51:04.844Z</time>
      </trkpt>
      <trkpt lat="68.45959" lon="18.0354">
        <ele>447.346256</ele>
        <time>2020-08-28T03:51:09.719Z</time>
      </trkpt>
      <trkpt lat="68.45888" lon="18.03562">
        <ele>447.361307</ele>
        <time>2020-08-28T03:51:21.751Z</time>
      </trkpt>
      <trkpt lat="68.45875" lon="18.03561">
        <ele>447.363979</ele>
        <time>2020-08-28T03:51:23.962Z</time>
      </trkpt>
      <trkpt lat="68.45863" lon="18.03559">
        <ele>447.366591</ele>
        <time>2020-08-28T03:51:26.222Z</time>
      </trkpt>
      <trkpt lat="68.45695" lon="18.03525">
        <ele>450.686152</ele>
        <time>2020-08-28T03:52:07.179Z</time>
      </trkpt>
      <trkpt lat="68.45682" lon="18.03522">
        <ele>450.970213</ele>
        <time>2020-08-28T03:52:10.684Z</time>
      </trkpt>
      <trkpt lat="68.45669" lon="18.0352">
        <ele>451.275373</ele>
        <time>2020-08-28T03:52:14.621Z</time>
      </trkpt>
      <trkpt lat="68.45632" lon="18.035">
        <ele>452.742312</ele>
        <time>2020-08-28T03:52:25.738Z</time>
      </trkpt>
      <trkpt lat="68.45615" lon="18.03486">
        <ele>453.582399</ele>
        <time>2020-08-28T03:52:31.311Z</time>
      </trkpt>
      <trkpt lat="68.4559" lon="18.03462">
        <ele>454.800607</ele>
        <time>2020-08-28T03:52:39.726Z</time>
      </trkpt>
      <trkpt lat="68.45517" lon="18.03359">
        <ele>458.621413</ele>
        <time>2020-08-28T03:53:07.993Z</time>
      </trkpt>
      <trkpt lat="68.45452" lon="18.03295">
        <ele>462.207518</ele>
        <time>2020-08-28T03:53:31.762Z</time>
      </trkpt>
      <trkpt lat="68.45405" lon="18.03276">
        <ele>464.864551</ele>
        <time>2020-08-28T03:53:49.413Z</time>
      </trkpt>
      <trkpt lat="68.45317" lon="18.03264">
        <ele>469.792177</ele>
        <time>2020-08-28T03:54:21.995Z</time>
      </trkpt>
      <trkpt lat="68.45269" lon="18.03253">
        <ele>471.441727</ele>
        <time>2020-08-28T03:54:38.255Z</time>
      </trkpt>
      <trkpt lat="68.4521" lon="18.03227">
        <ele>473.41314</ele>
        <time>2020-08-28T03:54:56.001Z</time>
      </trkpt>
      <trkpt lat="68.45186" lon="18.03217">
        <ele>474.225789</ele>
        <time>2020-08-28T03:55:02.564Z</time>
      </trkpt>
      <trkpt lat="68.45117" lon="18.03218">
        <ele>475.841427</ele>
        <time>2020-08-28T03:55:18.462Z</time>
      </trkpt>
      <trkpt lat="68.45061" lon="18.03271">
        <ele>475.77979</ele>
        <time>2020-08-28T03:55:28.496Z</time>
      </trkpt>
      <trkpt lat="68.45048" lon="18.0329">
        <ele>475.765081</ele>
        <time>2020-08-28T03:55:30.693Z</time>
      </trkpt>
      <trkpt lat="68.45039" lon="18.03308">
        <ele>475.752958</ele>
        <time>2020-08-28T03:55:32.535Z</time>
      </trkpt>
      <trkpt lat="68.45007" lon="18.03385">
        <ele>475.70859</ele>
        <time>2020-08-28T03:55:39.545Z</time>
      </trkpt>
      <trkpt lat="68.44967" lon="18.03541">
        <ele>475.471125</ele>
        <time>2020-08-28T03:55:51.113Z</time>
      </trkpt>
      <trkpt lat="68.44934" lon="18.03711">
        <ele>475.087896</ele>
        <time>2020-08-28T03:56:02.602Z</time>
      </trkpt>
      <trkpt lat="68.44917" lon="18.03802">
        <ele>474.883797</ele>
        <time>2020-08-28T03:56:08.732Z</time>
      </trkpt>
      <trkpt lat="68.44902" lon="18.03876">
        <ele>474.714913</ele>
        <time>2020-08-28T03:56:13.881Z</time>
      </trkpt>
      <trkpt lat="68.44897" lon="18.03901">
        <ele>474.667544</ele>
        <time>2020-08-28T03:56:15.476Z</time>
      </trkpt>
      <trkpt lat="68.44875" lon="18.03987">
        <ele>474.514726</ele>
        <time>2020-08-28T03:56:21.900Z</time>
      </trkpt>
      <trkpt lat="68.44832" lon="18.0411">
        <ele>474.265746</ele>
        <time>2020-08-28T03:56:32.474Z</time>
      </trkpt>
      <trkpt lat="68.44806" lon="18.0418">
        <ele>474.116773</ele>
        <time>2020-08-28T03:56:38.511Z</time>
      </trkpt>
      <trkpt lat="68.44753" lon="18.04316">
        <ele>474.161486</ele>
        <time>2020-08-28T03:56:50.889Z</time>
      </trkpt>
      <trkpt lat="68.44709" lon="18.04432">
        <ele>474.472161</ele>
        <time>2020-08-28T03:57:02.082Z</time>
      </trkpt>
      <trkpt lat="68.44694" lon="18.0447">
        <ele>474.574436</ele>
        <time>2020-08-28T03:57:06.044Z</time>
      </trkpt>
      <trkpt lat="68.44688" lon="18.04485">
        <ele>474.615158</ele>
        <time>2020-08-28T03:57:07.620Z</time>
      </trkpt>
      <trkpt lat="68.4461" lon="18.04685">
        <ele>476.773855</ele>
        <time>2020-08-28T03:57:31.605Z</time>
      </trkpt>
      <trkpt lat="68.4459" lon="18.04743">
        <ele>477.808221</ele>
        <time>2020-08-28T03:57:39.544Z</time>
      </trkpt>
      <trkpt lat="68.44528" lon="18.04903">
        <ele>480.775115</ele>
        <time>2020-08-28T03:58:07.586Z</time>
      </trkpt>
      <trkpt lat="68.44505" lon="18.04964">
        <ele>482.338821</ele>
        <time>2020-08-28T03:58:19.108Z</time>
      </trkpt>
      <trkpt lat="68.44462" lon="18.05083">
        <ele>485.730457</ele>
        <time>2020-08-28T03:58:40.964Z</time>
      </trkpt>
      <trkpt lat="68.44455" lon="18.05105">
        <ele>486.30149</ele>
        <time>2020-08-28T03:58:45.326Z</time>
      </trkpt>
      <trkpt lat="68.44449" lon="18.05125">
        <ele>486.838589</ele>
        <time>2020-08-28T03:58:49.261Z</time>
      </trkpt>
      <trkpt lat="68.44418" lon="18.05262">
        <ele>490.100099</ele>
        <time>2020-08-28T03:59:09.758Z</time>
      </trkpt>
      <trkpt lat="68.44404" lon="18.05383">
        <ele>492.388268</ele>
        <time>2020-08-28T03:59:25.901Z</time>
      </trkpt>
      <trkpt lat="68.44399" lon="18.05516">
        <ele>494.61989</ele>
        <time>2020-08-28T03:59:42.528Z</time>
      </trkpt>
      <trkpt lat="68.44408" lon="18.05673">
        <ele>497.272173</ele>
        <time>2020-08-28T03:59:59.880Z</time>
      </trkpt>
      <trkpt lat="68.44414" lon="18.05726">
        <ele>498.184455</ele>
        <time>2020-08-28T04:00:06.105Z</time>
      </trkpt>
      <trkpt lat="68.44432" lon="18.05864">
        <ele>500.818735</ele>
        <time>2020-08-28T04:00:23.731Z</time>
      </trkpt>
      <trkpt lat="68.44445" lon="18.05977">
        <ele>503.040433</ele>
        <time>2020-08-28T04:00:38.388Z</time>
      </trkpt>
      <trkpt lat="68.44448" lon="18.06074">
        <ele>504.855863</ele>
        <time>2020-08-28T04:00:50.833Z</time>
      </trkpt>
      <trkpt lat="68.44436" lon="18.0624">
        <ele>508.033607</ele>
        <time>2020-08-28T04:01:13.178Z</time>
      </trkpt>
      <trkpt lat="68.44414" lon="18.06354">
        <ele>510.224872</ele>
        <time>2020-08-28T04:01:29.956Z</time>
      </trkpt>
      <trkpt lat="68.44322" lon="18.06617">
        <ele>516.204116</ele>
        <time>2020-08-28T04:02:12.970Z</time>
      </trkpt>
      <trkpt lat="68.44307" lon="18.0669">
        <ele>516.982556</ele>
        <time>2020-08-28T04:02:21.516Z</time>
      </trkpt>
      <trkpt lat="68.44302" lon="18.06727">
        <ele>517.259061</ele>
        <time>2020-08-28T04:02:25.266Z</time>
      </trkpt>
      <trkpt lat="68.44292" lon="18.06814">
        <ele>517.88496</ele>
        <time>2020-08-28T04:02:33.601Z</time>
      </trkpt>
      <trkpt lat="68.4429" lon="18.06952">
        <ele>518.835528</ele>
        <time>2020-08-28T04:02:45.259Z</time>
      </trkpt>
      <trkpt lat="68.44309" lon="18.07254">
        <ele>520.238697</ele>
        <time>2020-08-28T04:03:07.695Z</time>
      </trkpt>
      <trkpt lat="68.4431" lon="18.07376">
        <ele>520.498934</ele>
        <time>2020-08-28T04:03:16.467Z</time>
      </trkpt>
      <trkpt lat="68.44302" lon="18.07553">
        <ele>520.880931</ele>
        <time>2020-08-28T04:03:29.483Z</time>
      </trkpt>
      <trkpt lat="68.4429" lon="18.07652">
        <ele>521.004991</ele>
        <time>2020-08-28T04:03:36.995Z</time>
      </trkpt>
      <trkpt lat="68.44267" lon="18.07785">
        <ele>521.09609</ele>
        <time>2020-08-28T04:03:47.538Z</time>
      </trkpt>
      <trkpt lat="68.44241" lon="18.07885">
        <ele>521.171544</ele>
        <time>2020-08-28T04:03:55.911Z</time>
      </trkpt>
      <trkpt lat="68.4416" lon="18.08116">
        <ele>520.648618</ele>
        <time>2020-08-28T04:04:15.644Z</time>
      </trkpt>
      <trkpt lat="68.44087" lon="18.08351">
        <ele>519.476677</ele>
        <time>2020-08-28T04:04:32.908Z</time>
      </trkpt>
      <trkpt lat="68.44065" lon="18.08438">
        <ele>518.306373</ele>
        <time>2020-08-28T04:04:38.419Z</time>
      </trkpt>
      <trkpt lat="68.44056" lon="18.08477">
        <ele>517.733051</ele>
        <time>2020-08-28T04:04:40.705Z</time>
      </trkpt>
      <trkpt lat="68.4401" lon="18.08711">
        <ele>514.40933</ele>
        <time>2020-08-28T04:04:53.328Z</time>
      </trkpt>
      <trkpt lat="68.43948" lon="18.09185">
        <ele>505.700793</ele>
        <time>2020-08-28T04:05:15.553Z</time>
      </trkpt>
      <trkpt lat="68.43915" lon="18.09363">
        <ele>503.091779</ele>
        <time>2020-08-28T04:05:24.612Z</time>
      </trkpt>
      <trkpt lat="68.43886" lon="18.09458">
        <ele>501.883616</ele>
        <time>2020-08-28T04:05:30.527Z</time>
      </trkpt>
      <trkpt lat="68.43862" lon="18.09537">
        <ele>500.87536</ele>
        <time>2020-08-28T04:05:35.752Z</time>
      </trkpt>
      <trkpt lat="68.43828" lon="18.0966">
        <ele>499.501042</ele>
        <time>2020-08-28T04:05:44.260Z</time>
      </trkpt>
      <trkpt lat="68.43744" lon="18.10009">
        <ele>499.70497</ele>
        <time>2020-08-28T04:06:12.771Z</time>
      </trkpt>
      <trkpt lat="68.43674" lon="18.10192">
        <ele>500.897435</ele>
        <time>2020-08-28T04:06:33.297Z</time>
      </trkpt>
      <trkpt lat="68.43626" lon="18.10291">
        <ele>501.817374</ele>
        <time>2020-08-28T04:06:46.671Z</time>
      </trkpt>
      <trkpt lat="68.43606" lon="18.10343">
        <ele>502.245237</ele>
        <time>2020-08-28T04:06:53.521Z</time>
      </trkpt>
      <trkpt lat="68.43545" lon="18.10546">
        <ele>505.201369</ele>
        <time>2020-08-28T04:07:19.738Z</time>
      </trkpt>
      <trkpt lat="68.43526" lon="18.1065">
        <ele>506.645571</ele>
        <time>2020-08-28T04:07:32.606Z</time>
      </trkpt>
      <trkpt lat="68.43522" lon="18.10678">
        <ele>507.020869</ele>
        <time>2020-08-28T04:07:36.512Z</time>
      </trkpt>
      <trkpt lat="68.43507" lon="18.10762">
        <ele>508.183441</ele>
        <time>2020-08-28T04:07:46.836Z</time>
      </trkpt>
      <trkpt lat="68.43501" lon="18.10803">
        <ele>508.720775</ele>
        <time>2020-08-28T04:07:51.260Z</time>
      </trkpt>
      <trkpt lat="68.43485" lon="18.10903">
        <ele>510.031474</ele>
        <time>2020-08-28T04:08:03.358Z</time>
      </trkpt>
      <trkpt lat="68.43483" lon="18.10918">
        <ele>510.227442</ele>
        <time>2020-08-28T04:08:05.259Z</time>
      </trkpt>
      <trkpt lat="68.43481" lon="18.10933">
        <ele>510.406518</ele>
        <time>2020-08-28T04:08:07.394Z</time>
      </trkpt>
      <trkpt lat="68.43462" lon="18.1104">
        <ele>511.824645</ele>
        <time>2020-08-28T04:08:20.477Z</time>
      </trkpt>
      <trkpt lat="68.43453" lon="18.11085">
        <ele>512.441233</ele>
        <time>2020-08-28T04:08:25.622Z</time>
      </trkpt>
      <trkpt lat="68.43446" lon="18.11131">
        <ele>513.034013</ele>
        <time>2020-08-28T04:08:30.629Z</time>
      </trkpt>
      <trkpt lat="68.43431" lon="18.11194">
        <ele>513.922151</ele>
        <time>2020-08-28T04:08:37.936Z</time>
      </trkpt>
      <trkpt lat="68.43421" lon="18.11241">
        <ele>514.43346</ele>
        <time>2020-08-28T04:08:42.664Z</time>
      </trkpt>
      <trkpt lat="68.43413" lon="18.1127">
        <ele>514.437426</ele>
        <time>2020-08-28T04:08:46.348Z</time>
      </trkpt>
      <trkpt lat="68.43387" lon="18.11364">
        <ele>514.450055</ele>
        <time>2020-08-28T04:08:56.071Z</time>
      </trkpt>
      <trkpt lat="68.43332" lon="18.11535">
        <ele>514.474474</ele>
        <time>2020-08-28T04:09:10.750Z</time>
      </trkpt>
      <trkpt lat="68.4331" lon="18.11584">
        <ele>514.482978</ele>
        <time>2020-08-28T04:09:14.961Z</time>
      </trkpt>
      <trkpt lat="68.43282" lon="18.11634">
        <ele>513.294304</ele>
        <time>2020-08-28T04:09:19.370Z</time>
      </trkpt>
      <trkpt lat="68.43263" lon="18.11667">
        <ele>512.268185</ele>
        <time>2020-08-28T04:09:22.186Z</time>
      </trkpt>
      <trkpt lat="68.43209" lon="18.11716">
        <ele>509.675803</ele>
        <time>2020-08-28T04:09:29.295Z</time>
      </trkpt>
      <trkpt lat="68.4318" lon="18.11733">
        <ele>508.338688</ele>
        <time>2020-08-28T04:09:32.860Z</time>
      </trkpt>
      <trkpt lat="68.43114" lon="18.11762">
        <ele>505.063879</ele>
        <time>2020-08-28T04:09:40.660Z</time>
      </trkpt>
      <trkpt lat="68.43031" lon="18.11817">
        <ele>500.412247</ele>
        <time>2020-08-28T04:09:50.591Z</time>
      </trkpt>
      <trkpt lat="68.43001" lon="18.11856">
        <ele>498.568459</ele>
        <time>2020-08-28T04:09:54.654Z</time>
      </trkpt>
      <trkpt lat="68.42984" lon="18.11885">
        <ele>497.496091</ele>
        <time>2020-08-28T04:09:57.071Z</time>
      </trkpt>
      <trkpt lat="68.42947" lon="18.11962">
        <ele>496.037628</ele>
        <time>2020-08-28T04:10:03.064Z</time>
      </trkpt>
      <trkpt lat="68.42922" lon="18.12032">
        <ele>495.454181</ele>
        <time>2020-08-28T04:10:07.966Z</time>
      </trkpt>
      <trkpt lat="68.42827" lon="18.12345">
        <ele>493.208311</ele>
        <time>2020-08-28T04:10:32.451Z</time>
      </trkpt>
      <trkpt lat="68.42789" lon="18.12496">
        <ele>492.411316</ele>
        <time>2020-08-28T04:10:43.753Z</time>
      </trkpt>
      <trkpt lat="68.42761" lon="18.12612">
        <ele>491.808529</ele>
        <time>2020-08-28T04:10:51.320Z</time>
      </trkpt>
      <trkpt lat="68.42733" lon="18.12778">
        <ele>489.794017</ele>
        <time>2020-08-28T04:11:00.380Z</time>
      </trkpt>
      <trkpt lat="68.42717" lon="18.12933">
        <ele>487.212542</ele>
        <time>2020-08-28T04:11:07.768Z</time>
      </trkpt>
      <trkpt lat="68.42708" lon="18.1311">
        <ele>484.370529</ele>
        <time>2020-08-28T04:11:15.622Z</time>
      </trkpt>
      <trkpt lat="68.42707" lon="18.13248">
        <ele>482.136022</ele>
        <time>2020-08-28T04:11:21.710Z</time>
      </trkpt>
      <trkpt lat="68.42718" lon="18.13461">
        <ele>478.657579</ele>
        <time>2020-08-28T04:11:31.230Z</time>
      </trkpt>
      <trkpt lat="68.42778" lon="18.14019">
        <ele>472.730237</ele>
        <time>2020-08-28T04:11:59.789Z</time>
      </trkpt>
      <trkpt lat="68.42784" lon="18.14153">
        <ele>472.250071</ele>
        <time>2020-08-28T04:12:09.366Z</time>
      </trkpt>
      <trkpt lat="68.42782" lon="18.14259">
        <ele>472.656098</ele>
        <time>2020-08-28T04:12:17.546Z</time>
      </trkpt>
      <trkpt lat="68.42768" lon="18.14432">
        <ele>473.344084</ele>
        <time>2020-08-28T04:12:32.492Z</time>
      </trkpt>
      <trkpt lat="68.42752" lon="18.14547">
        <ele>473.815152</ele>
        <time>2020-08-28T04:12:43.093Z</time>
      </trkpt>
      <trkpt lat="68.42705" lon="18.14817">
        <ele>474.429946</ele>
        <time>2020-08-28T04:13:05.581Z</time>
      </trkpt>
      <trkpt lat="68.42664" lon="18.15117">
        <ele>475.05821</ele>
        <time>2020-08-28T04:13:26.170Z</time>
      </trkpt>
      <trkpt lat="68.42638" lon="18.15418">
        <ele>475.783152</ele>
        <time>2020-08-28T04:13:49.285Z</time>
      </trkpt>
      <trkpt lat="68.42611" lon="18.1585">
        <ele>476.508917</ele>
        <time>2020-08-28T04:14:23.995Z</time>
      </trkpt>
      <trkpt lat="68.42601" lon="18.16054">
        <ele>476.043529</ele>
        <time>2020-08-28T04:14:35.856Z</time>
      </trkpt>
      <trkpt lat="68.42596" lon="18.16195">
        <ele>474.646288</ele>
        <time>2020-08-28T04:14:43.035Z</time>
      </trkpt>
      <trkpt lat="68.42595" lon="18.16233">
        <ele>474.26913</ele>
        <time>2020-08-28T04:14:44.836Z</time>
      </trkpt>
      <trkpt lat="68.4259" lon="18.16412">
        <ele>472.5008</ele>
        <time>2020-08-28T04:14:53.363Z</time>
      </trkpt>
      <trkpt lat="68.42586" lon="18.16525">
        <ele>471.524254</ele>
        <time>2020-08-28T04:14:58.606Z</time>
      </trkpt>
      <trkpt lat="68.42585" lon="18.16608">
        <ele>470.922585</ele>
        <time>2020-08-28T04:15:02.648Z</time>
      </trkpt>
      <trkpt lat="68.42585" lon="18.16722">
        <ele>470.093847</ele>
        <time>2020-08-28T04:15:08.483Z</time>
      </trkpt>
      <trkpt lat="68.42585" lon="18.16793">
        <ele>469.578815</ele>
        <time>2020-08-28T04:15:12.304Z</time>
      </trkpt>
      <trkpt lat="68.42586" lon="18.16854">
        <ele>469.137603</ele>
        <time>2020-08-28T04:15:15.541Z</time>
      </trkpt>
      <trkpt lat="68.42586" lon="18.16963">
        <ele>468.359267</ele>
        <time>2020-08-28T04:15:21.759Z</time>
      </trkpt>
      <trkpt lat="68.42597" lon="18.17347">
        <ele>469.021414</ele>
        <time>2020-08-28T04:15:49.103Z</time>
      </trkpt>
      <trkpt lat="68.42616" lon="18.17696">
        <ele>470.446257</ele>
        <time>2020-08-28T04:16:17.890Z</time>
      </trkpt>
      <trkpt lat="68.42642" lon="18.18065">
        <ele>472.123959</ele>
        <time>2020-08-28T04:16:48.923Z</time>
      </trkpt>
      <trkpt lat="68.42665" lon="18.18273">
        <ele>472.890389</ele>
        <time>2020-08-28T04:17:05.388Z</time>
      </trkpt>
      <trkpt lat="68.42671" lon="18.18316">
        <ele>473.050382</ele>
        <time>2020-08-28T04:17:08.916Z</time>
      </trkpt>
      <trkpt lat="68.42677" lon="18.18364">
        <ele>473.22954</ele>
        <time>2020-08-28T04:17:12.546Z</time>
      </trkpt>
      <trkpt lat="68.42688" lon="18.18432">
        <ele>473.53054</ele>
        <time>2020-08-28T04:17:18.075Z</time>
      </trkpt>
      <trkpt lat="68.42699" lon="18.18505">
        <ele>473.891212</ele>
        <time>2020-08-28T04:17:23.839Z</time>
      </trkpt>
      <trkpt lat="68.42705" lon="18.18536">
        <ele>474.047759</ele>
        <time>2020-08-28T04:17:26.179Z</time>
      </trkpt>
      <trkpt lat="68.42727" lon="18.18655">
        <ele>474.661444</ele>
        <time>2020-08-28T04:17:35.899Z</time>
      </trkpt>
      <trkpt lat="68.42768" lon="18.18843">
        <ele>475.778611</ele>
        <time>2020-08-28T04:17:54.665Z</time>
      </trkpt>
      <trkpt lat="68.42811" lon="18.18999">
        <ele>478.536753</ele>
        <time>2020-08-28T04:18:14.605Z</time>
      </trkpt>
      <trkpt lat="68.42815" lon="18.19013">
        <ele>478.789639</ele>
        <time>2020-08-28T04:18:16.661Z</time>
      </trkpt>
      <trkpt lat="68.4283" lon="18.19066">
        <ele>479.736124</ele>
        <time>2020-08-28T04:18:24.133Z</time>
      </trkpt>
      <trkpt lat="68.42997" lon="18.19542">
        <ele>490.668901</ele>
        <time>2020-08-28T04:19:46.284Z</time>
      </trkpt>
      <trkpt lat="68.43032" lon="18.1969">
        <ele>492.771811</ele>
        <time>2020-08-28T04:20:05.951Z</time>
      </trkpt>
      <trkpt lat="68.43056" lon="18.19841">
        <ele>494.541465</ele>
        <time>2020-08-28T04:20:22.408Z</time>
      </trkpt>
      <trkpt lat="68.4307" lon="18.20007">
        <ele>496.385737</ele>
        <time>2020-08-28T04:20:37.800Z</time>
      </trkpt>
      <trkpt lat="68.43075" lon="18.20165">
        <ele>497.140874</ele>
        <time>2020-08-28T04:20:50.754Z</time>
      </trkpt>
      <trkpt lat="68.43069" lon="18.20324">
        <ele>497.858386</ele>
        <time>2020-08-28T04:21:03.201Z</time>
      </trkpt>
      <trkpt lat="68.43037" lon="18.20647">
        <ele>498.74058</ele>
        <time>2020-08-28T04:21:29.226Z</time>
      </trkpt>
      <trkpt lat="68.43033" lon="18.20855">
        <ele>498.843067</ele>
        <time>2020-08-28T04:21:42.760Z</time>
      </trkpt>
      <trkpt lat="68.43036" lon="18.20903">
        <ele>498.867211</ele>
        <time>2020-08-28T04:21:45.935Z</time>
      </trkpt>
      <trkpt lat="68.4304" lon="18.20966">
        <ele>498.898729</ele>
        <time>2020-08-28T04:21:49.537Z</time>
      </trkpt>
      <trkpt lat="68.43065" lon="18.21156">
        <ele>498.321818</ele>
        <time>2020-08-28T04:22:01.386Z</time>
      </trkpt>
      <trkpt lat="68.43074" lon="18.21212">
        <ele>498.135445</ele>
        <time>2020-08-28T04:22:04.705Z</time>
      </trkpt>
      <trkpt lat="68.43088" lon="18.21302">
        <ele>497.83237</ele>
        <time>2020-08-28T04:22:10.277Z</time>
      </trkpt>
      <trkpt lat="68.43129" lon="18.21637">
        <ele>496.84085</ele>
        <time>2020-08-28T04:22:31.330Z</time>
      </trkpt>
      <trkpt lat="68.43151" lon="18.2197">
        <ele>495.412297</ele>
        <time>2020-08-28T04:22:51.516Z</time>
      </trkpt>
      <trkpt lat="68.43153" lon="18.22081">
        <ele>494.139607</ele>
        <time>2020-08-28T04:22:57.340Z</time>
      </trkpt>
      <trkpt lat="68.43145" lon="18.22494">
        <ele>488.499052</ele>
        <time>2020-08-28T04:23:16.496Z</time>
      </trkpt>
      <trkpt lat="68.43151" lon="18.22699">
        <ele>484.226931</ele>
        <time>2020-08-28T04:23:25.452Z</time>
      </trkpt>
      <trkpt lat="68.43169" lon="18.22886">
        <ele>480.210151</ele>
        <time>2020-08-28T04:23:33.661Z</time>
      </trkpt>
      <trkpt lat="68.43202" lon="18.23089">
        <ele>476.065137</ele>
        <time>2020-08-28T04:23:43.289Z</time>
      </trkpt>
      <trkpt lat="68.43204" lon="18.23097">
        <ele>475.903378</ele>
        <time>2020-08-28T04:23:43.617Z</time>
      </trkpt>
      <trkpt lat="68.43228" lon="18.23206">
        <ele>473.522638</ele>
        <time>2020-08-28T04:23:49.399Z</time>
      </trkpt>
      <trkpt lat="68.43249" lon="18.23294">
        <ele>471.562764</ele>
        <time>2020-08-28T04:23:54.258Z</time>
      </trkpt>
      <trkpt lat="68.43253" lon="18.23311">
        <ele>471.198191</ele>
        <time>2020-08-28T04:23:55.236Z</time>
      </trkpt>
      <trkpt lat="68.43338" lon="18.23734">
        <ele>468.317763</ele>
        <time>2020-08-28T04:24:20.962Z</time>
      </trkpt>
      <trkpt lat="68.43383" lon="18.241">
        <ele>469.957566</ele>
        <time>2020-08-28T04:24:50.392Z</time>
      </trkpt>
      <trkpt lat="68.43407" lon="18.24395">
        <ele>473.630232</ele>
        <time>2020-08-28T04:25:21.641Z</time>
      </trkpt>
      <trkpt lat="68.43424" lon="18.24675">
        <ele>478.323234</ele>
        <time>2020-08-28T04:25:57.444Z</time>
      </trkpt>
      <trkpt lat="68.43433" lon="18.24913">
        <ele>484.573202</ele>
        <time>2020-08-28T04:26:31.929Z</time>
      </trkpt>
      <trkpt lat="68.43434" lon="18.25093">
        <ele>489.409571</ele>
        <time>2020-08-28T04:27:00.450Z</time>
      </trkpt>
      <trkpt lat="68.43432" lon="18.25234">
        <ele>493.403055</ele>
        <time>2020-08-28T04:27:23.683Z</time>
      </trkpt>
      <trkpt lat="68.4342" lon="18.25481">
        <ele>501.024662</ele>
        <time>2020-08-28T04:28:05.582Z</time>
      </trkpt>
      <trkpt lat="68.43402" lon="18.25652">
        <ele>506.441709</ele>
        <time>2020-08-28T04:28:34.894Z</time>
      </trkpt>
      <trkpt lat="68.43384" lon="18.25783">
        <ele>509.328676</ele>
        <time>2020-08-28T04:28:56.070Z</time>
      </trkpt>
      <trkpt lat="68.43353" lon="18.25943">
        <ele>513.000226</ele>
        <time>2020-08-28T04:29:20.070Z</time>
      </trkpt>
      <trkpt lat="68.43328" lon="18.26048">
        <ele>515.548918</ele>
        <time>2020-08-28T04:29:34.617Z</time>
      </trkpt>
      <trkpt lat="68.43294" lon="18.26164">
        <ele>517.133593</ele>
        <time>2020-08-28T04:29:49.731Z</time>
      </trkpt>
      <trkpt lat="68.43225" lon="18.26341">
        <ele>518.724306</ele>
        <time>2020-08-28T04:30:11.242Z</time>
      </trkpt>
      <trkpt lat="68.43195" lon="18.26407">
        <ele>519.37052</ele>
        <time>2020-08-28T04:30:18.851Z</time>
      </trkpt>
      <trkpt lat="68.43131" lon="18.26537">
        <ele>519.649644</ele>
        <time>2020-08-28T04:30:33.791Z</time>
      </trkpt>
      <trkpt lat="68.42916" lon="18.26907">
        <ele>519.855572</ele>
        <time>2020-08-28T04:31:19.235Z</time>
      </trkpt>
      <trkpt lat="68.42834" lon="18.27131">
        <ele>519.538593</ele>
        <time>2020-08-28T04:31:39.932Z</time>
      </trkpt>
      <trkpt lat="68.42797" lon="18.2732">
        <ele>519.226791</ele>
        <time>2020-08-28T04:31:53.116Z</time>
      </trkpt>
      <trkpt lat="68.42791" lon="18.27376">
        <ele>519.11541</ele>
        <time>2020-08-28T04:31:56.510Z</time>
      </trkpt>
      <trkpt lat="68.42785" lon="18.27452">
        <ele>518.452754</ele>
        <time>2020-08-28T04:32:00.913Z</time>
      </trkpt>
      <trkpt lat="68.42772" lon="18.2764">
        <ele>516.825894</ele>
        <time>2020-08-28T04:32:11.118Z</time>
      </trkpt>
      <trkpt lat="68.4275" lon="18.27873">
        <ele>514.47012</ele>
        <time>2020-08-28T04:32:22.795Z</time>
      </trkpt>
      <trkpt lat="68.42726" lon="18.28025">
        <ele>511.018571</ele>
        <time>2020-08-28T04:32:30.139Z</time>
      </trkpt>
      <trkpt lat="68.4269" lon="18.2818">
        <ele>507.188317</ele>
        <time>2020-08-28T04:32:38.072Z</time>
      </trkpt>
      <trkpt lat="68.42683" lon="18.28207">
        <ele>506.48823</ele>
        <time>2020-08-28T04:32:39.448Z</time>
      </trkpt>
      <trkpt lat="68.42662" lon="18.28283">
        <ele>504.42569</ele>
        <time>2020-08-28T04:32:43.500Z</time>
      </trkpt>
      <trkpt lat="68.42603" lon="18.28425">
        <ele>498.921663</ele>
        <time>2020-08-28T04:32:52.448Z</time>
      </trkpt>
      <trkpt lat="68.42488" lon="18.28643">
        <ele>490.364183</ele>
        <time>2020-08-28T04:33:08.654Z</time>
      </trkpt>
      <trkpt lat="68.42462" lon="18.28704">
        <ele>488.936814</ele>
        <time>2020-08-28T04:33:12.824Z</time>
      </trkpt>
      <trkpt lat="68.42437" lon="18.28774">
        <ele>487.457974</ele>
        <time>2020-08-28T04:33:17.317Z</time>
      </trkpt>
      <trkpt lat="68.42405" lon="18.28891">
        <ele>485.246323</ele>
        <time>2020-08-28T04:33:24.558Z</time>
      </trkpt>
      <trkpt lat="68.42378" lon="18.29026">
        <ele>484.592411</ele>
        <time>2020-08-28T04:33:33.239Z</time>
      </trkpt>
      <trkpt lat="68.42354" lon="18.29232">
        <ele>484.345691</ele>
        <time>2020-08-28T04:33:47.936Z</time>
      </trkpt>
      <trkpt lat="68.42348" lon="18.29376">
        <ele>484.17945</ele>
        <time>2020-08-28T04:33:58.078Z</time>
      </trkpt>
      <trkpt lat="68.4235" lon="18.29532">
        <ele>483.617676</ele>
        <time>2020-08-28T04:34:08.348Z</time>
      </trkpt>
      <trkpt lat="68.42376" lon="18.29939">
        <ele>482.194541</ele>
        <time>2020-08-28T04:34:30.649Z</time>
      </trkpt>
      <trkpt lat="68.42383" lon="18.30028">
        <ele>482.009438</ele>
        <time>2020-08-28T04:34:35.553Z</time>
      </trkpt>
      <trkpt lat="68.42386" lon="18.30059">
        <ele>481.94398</ele>
        <time>2020-08-28T04:34:37.367Z</time>
      </trkpt>
      <trkpt lat="68.42392" lon="18.30143">
        <ele>481.768718</ele>
        <time>2020-08-28T04:34:42.277Z</time>
      </trkpt>
      <trkpt lat="68.42436" lon="18.30564">
        <ele>482.072965</ele>
        <time>2020-08-28T04:35:13.261Z</time>
      </trkpt>
      <trkpt lat="68.42481" lon="18.30881">
        <ele>483.167875</ele>
        <time>2020-08-28T04:35:40.876Z</time>
      </trkpt>
      <trkpt lat="68.42529" lon="18.311">
        <ele>484.017628</ele>
        <time>2020-08-28T04:36:00.573Z</time>
      </trkpt>
      <trkpt lat="68.42624" lon="18.31446">
        <ele>484.750469</ele>
        <time>2020-08-28T04:36:31.304Z</time>
      </trkpt>
      <trkpt lat="68.42651" lon="18.31597">
        <ele>484.882771</ele>
        <time>2020-08-28T04:36:42.434Z</time>
      </trkpt>
      <trkpt lat="68.42684" lon="18.31857">
        <ele>484.252415</ele>
        <time>2020-08-28T04:36:59.379Z</time>
      </trkpt>
      <trkpt lat="68.42703" lon="18.32057">
        <ele>483.653586</ele>
        <time>2020-08-28T04:37:11.117Z</time>
      </trkpt>
      <trkpt lat="68.42734" lon="18.32477">
        <ele>481.371301</ele>
        <time>2020-08-28T04:37:34.254Z</time>
      </trkpt>
      <trkpt lat="68.42741" lon="18.32585">
        <ele>480.749102</ele>
        <time>2020-08-28T04:37:40.155Z</time>
      </trkpt>
      <trkpt lat="68.42745" lon="18.32678">
        <ele>480.047515</ele>
        <time>2020-08-28T04:37:45.190Z</time>
      </trkpt>
      <trkpt lat="68.42751" lon="18.32912">
        <ele>478.283778</ele>
        <time>2020-08-28T04:37:57.584Z</time>
      </trkpt>
      <trkpt lat="68.42744" lon="18.33202">
        <ele>475.390998</ele>
        <time>2020-08-28T04:38:12.072Z</time>
      </trkpt>
      <trkpt lat="68.42734" lon="18.33346">
        <ele>473.459716</ele>
        <time>2020-08-28T04:38:19.020Z</time>
      </trkpt>
      <trkpt lat="68.42676" lon="18.33879">
        <ele>465.772147</ele>
        <time>2020-08-28T04:38:44.560Z</time>
      </trkpt>
      <trkpt lat="68.42655" lon="18.34131">
        <ele>462.837168</ele>
        <time>2020-08-28T04:38:56.936Z</time>
      </trkpt>
      <trkpt lat="68.42632" lon="18.34562">
        <ele>459.824946</ele>
        <time>2020-08-28T04:39:20.120Z</time>
      </trkpt>
      <trkpt lat="68.42617" lon="18.35089">
        <ele>458.608641</ele>
        <time>2020-08-28T04:39:51.629Z</time>
      </trkpt>
      <trkpt lat="68.42614" lon="18.35267">
        <ele>458.709569</ele>
        <time>2020-08-28T04:40:03.298Z</time>
      </trkpt>
      <trkpt lat="68.42614" lon="18.35304">
        <ele>458.730598</ele>
        <time>2020-08-28T04:40:05.826Z</time>
      </trkpt>
      <trkpt lat="68.42613" lon="18.35389">
        <ele>458.779246</ele>
        <time>2020-08-28T04:40:11.796Z</time>
      </trkpt>
      <trkpt lat="68.42615" lon="18.36046">
        <ele>461.049023</ele>
        <time>2020-08-28T04:41:03.260Z</time>
      </trkpt>
      <trkpt lat="68.42655" lon="18.37058">
        <ele>465.122406</ele>
        <time>2020-08-28T04:42:24.724Z</time>
      </trkpt>
      <trkpt lat="68.42653" lon="18.37455">
        <ele>465.463479</ele>
        <time>2020-08-28T04:42:50.856Z</time>
      </trkpt>
      <trkpt lat="68.4263" lon="18.38059">
        <ele>464.315694</ele>
        <time>2020-08-28T04:43:27.650Z</time>
      </trkpt>
      <trkpt lat="68.42631" lon="18.38219">
        <ele>463.910613</ele>
        <time>2020-08-28T04:43:37.120Z</time>
      </trkpt>
      <trkpt lat="68.42637" lon="18.38376">
        <ele>463.509719</ele>
        <time>2020-08-28T04:43:46.351Z</time>
      </trkpt>
      <trkpt lat="68.42661" lon="18.38639">
        <ele>462.705277</ele>
        <time>2020-08-28T04:44:01.883Z</time>
      </trkpt>
      <trkpt lat="68.42688" lon="18.38821">
        <ele>462.111892</ele>
        <time>2020-08-28T04:44:13.273Z</time>
      </trkpt>
      <trkpt lat="68.42718" lon="18.38978">
        <ele>461.90611</ele>
        <time>2020-08-28T04:44:23.848Z</time>
      </trkpt>
      <trkpt lat="68.42843" lon="18.39495">
        <ele>461.925041</ele>
        <time>2020-08-28T04:45:05.321Z</time>
      </trkpt>
      <trkpt lat="68.42899" lon="18.39809">
        <ele>461.867584</ele>
        <time>2020-08-28T04:45:29.160Z</time>
      </trkpt>
      <trkpt lat="68.42924" lon="18.40013">
        <ele>461.490401</ele>
        <time>2020-08-28T04:45:42.428Z</time>
      </trkpt>
      <trkpt lat="68.4294" lon="18.40198">
        <ele>461.013171</ele>
        <time>2020-08-28T04:45:53.296Z</time>
      </trkpt>
      <trkpt lat="68.42951" lon="18.40401">
        <ele>459.579048</ele>
        <time>2020-08-28T04:46:04.493Z</time>
      </trkpt>
      <trkpt lat="68.42955" lon="18.40714">
        <ele>457.025181</ele>
        <time>2020-08-28T04:46:20.362Z</time>
      </trkpt>
      <trkpt lat="68.42953" lon="18.40826">
        <ele>455.493564</ele>
        <time>2020-08-28T04:46:25.834Z</time>
      </trkpt>
      <trkpt lat="68.4295" lon="18.40897">
        <ele>454.527635</ele>
        <time>2020-08-28T04:46:29.209Z</time>
      </trkpt>
      <trkpt lat="68.42939" lon="18.41052">
        <ele>452.368462</ele>
        <time>2020-08-28T04:46:36.552Z</time>
      </trkpt>
      <trkpt lat="68.42916" lon="18.41227">
        <ele>449.500403</ele>
        <time>2020-08-28T04:46:44.819Z</time>
      </trkpt>
      <trkpt lat="68.42872" lon="18.4143">
        <ele>445.405906</ele>
        <time>2020-08-28T04:46:55.317Z</time>
      </trkpt>
      <trkpt lat="68.42831" lon="18.41548">
        <ele>442.640366</ele>
        <time>2020-08-28T04:47:02.593Z</time>
      </trkpt>
      <trkpt lat="68.42808" lon="18.41597">
        <ele>441.98666</ele>
        <time>2020-08-28T04:47:06.230Z</time>
      </trkpt>
      <trkpt lat="68.42686" lon="18.41814">
        <ele>438.712174</ele>
        <time>2020-08-28T04:47:26.777Z</time>
      </trkpt>
      <trkpt lat="68.42644" lon="18.41935">
        <ele>438.737997</ele>
        <time>2020-08-28T04:47:38.605Z</time>
      </trkpt>
      <trkpt lat="68.4263" lon="18.41997">
        <ele>438.789899</ele>
        <time>2020-08-28T04:47:43.898Z</time>
      </trkpt>
      <trkpt lat="68.42617" lon="18.42068">
        <ele>438.846507</ele>
        <time>2020-08-28T04:47:49.866Z</time>
      </trkpt>
      <trkpt lat="68.42608" lon="18.42141">
        <ele>438.900949</ele>
        <time>2020-08-28T04:47:55.754Z</time>
      </trkpt>
      <trkpt lat="68.42603" lon="18.42209">
        <ele>438.950427</ele>
        <time>2020-08-28T04:48:00.984Z</time>
      </trkpt>
      <trkpt lat="68.426" lon="18.42368">
        <ele>438.666296</ele>
        <time>2020-08-28T04:48:11.040Z</time>
      </trkpt>
      <trkpt lat="68.42627" lon="18.42617">
        <ele>438.027362</ele>
        <time>2020-08-28T04:48:26.357Z</time>
      </trkpt>
      <trkpt lat="68.42632" lon="18.42661">
        <ele>437.913018</ele>
        <time>2020-08-28T04:48:28.694Z</time>
      </trkpt>
      <trkpt lat="68.42654" lon="18.4282">
        <ele>437.412983</ele>
        <time>2020-08-28T04:48:38.084Z</time>
      </trkpt>
      <trkpt lat="68.42688" lon="18.43104">
        <ele>436.452861</ele>
        <time>2020-08-28T04:48:55.184Z</time>
      </trkpt>
      <trkpt lat="68.42705" lon="18.43342">
        <ele>435.738533</ele>
        <time>2020-08-28T04:49:10.603Z</time>
      </trkpt>
      <trkpt lat="68.42708" lon="18.43443">
        <ele>435.453418</ele>
        <time>2020-08-28T04:49:16.779Z</time>
      </trkpt>
      <trkpt lat="68.42709" lon="18.4355">
        <ele>435.154881</ele>
        <time>2020-08-28T04:49:23.031Z</time>
      </trkpt>
      <trkpt lat="68.4271" lon="18.43743">
        <ele>434.201515</ele>
        <time>2020-08-28T04:49:33.780Z</time>
      </trkpt>
      <trkpt lat="68.42717" lon="18.44005">
        <ele>432.037113</ele>
        <time>2020-08-28T04:49:47.280Z</time>
      </trkpt>
      <trkpt lat="68.42746" lon="18.44301">
        <ele>429.072923</ele>
        <time>2020-08-28T04:50:02.145Z</time>
      </trkpt>
      <trkpt lat="68.42831" lon="18.44815">
        <ele>423.636544</ele>
        <time>2020-08-28T04:50:29.497Z</time>
      </trkpt>
      <trkpt lat="68.42959" lon="18.45493">
        <ele>419.741356</ele>
        <time>2020-08-28T04:51:12.105Z</time>
      </trkpt>
      <trkpt lat="68.42989" lon="18.45742">
        <ele>419.519982</ele>
        <time>2020-08-28T04:51:28.823Z</time>
      </trkpt>
      <trkpt lat="68.43002" lon="18.45913">
        <ele>419.372415</ele>
        <time>2020-08-28T04:51:40.376Z</time>
      </trkpt>
      <trkpt lat="68.43011" lon="18.46141">
        <ele>419.225282</ele>
        <time>2020-08-28T04:51:55.425Z</time>
      </trkpt>
      <trkpt lat="68.43009" lon="18.4639">
        <ele>419.07614</ele>
        <time>2020-08-28T04:52:11.124Z</time>
      </trkpt>
      <trkpt lat="68.42967" lon="18.47006">
        <ele>418.752866</ele>
        <time>2020-08-28T04:52:50.356Z</time>
      </trkpt>
      <trkpt lat="68.42954" lon="18.47266">
        <ele>419.075489</ele>
        <time>2020-08-28T04:53:08.784Z</time>
      </trkpt>
      <trkpt lat="68.42948" lon="18.47639">
        <ele>419.744683</ele>
        <time>2020-08-28T04:53:36.448Z</time>
      </trkpt>
      <trkpt lat="68.4295" lon="18.47793">
        <ele>420.073655</ele>
        <time>2020-08-28T04:53:47.644Z</time>
      </trkpt>
      <trkpt lat="68.42956" lon="18.48014">
        <ele>420.321244</ele>
        <time>2020-08-28T04:54:03.065Z</time>
      </trkpt>
      <trkpt lat="68.42971" lon="18.48301">
        <ele>420.396788</ele>
        <time>2020-08-28T04:54:22.254Z</time>
      </trkpt>
      <trkpt lat="68.43028" lon="18.48932">
        <ele>419.892142</ele>
        <time>2020-08-28T04:55:03.529Z</time>
      </trkpt>
      <trkpt lat="68.43037" lon="18.49079">
        <ele>419.643099</ele>
        <time>2020-08-28T04:55:12.553Z</time>
      </trkpt>
      <trkpt lat="68.43052" lon="18.4955">
        <ele>419.069653</ele>
        <time>2020-08-28T04:55:40.989Z</time>
      </trkpt>
      <trkpt lat="68.43059" lon="18.50162">
        <ele>419.245156</ele>
        <time>2020-08-28T04:56:22.103Z</time>
      </trkpt>
      <trkpt lat="68.43066" lon="18.50265">
        <ele>419.35533</ele>
        <time>2020-08-28T04:56:29.754Z</time>
      </trkpt>
      <trkpt lat="68.43074" lon="18.50365">
        <ele>419.507774</ele>
        <time>2020-08-28T04:56:37.300Z</time>
      </trkpt>
      <trkpt lat="68.43077" lon="18.5042">
        <ele>419.610076</ele>
        <time>2020-08-28T04:56:41.330Z</time>
      </trkpt>
      <trkpt lat="68.43078" lon="18.5043">
        <ele>419.630881</ele>
        <time>2020-08-28T04:56:42.141Z</time>
      </trkpt>
      <trkpt lat="68.43082" lon="18.50469">
        <ele>419.705603</ele>
        <time>2020-08-28T04:56:45.173Z</time>
      </trkpt>
      <trkpt lat="68.43164" lon="18.51132">
        <ele>420.71068</ele>
        <time>2020-08-28T04:57:34.578Z</time>
      </trkpt>
      <trkpt lat="68.43183" lon="18.51312">
        <ele>420.769236</ele>
        <time>2020-08-28T04:57:46.743Z</time>
      </trkpt>
      <trkpt lat="68.43197" lon="18.51553">
        <ele>420.536892</ele>
        <time>2020-08-28T04:58:02.031Z</time>
      </trkpt>
      <trkpt lat="68.4321" lon="18.51856">
        <ele>420.202231</ele>
        <time>2020-08-28T04:58:20.881Z</time>
      </trkpt>
      <trkpt lat="68.43223" lon="18.524">
        <ele>419.449097</ele>
        <time>2020-08-28T04:58:54.720Z</time>
      </trkpt>
      <trkpt lat="68.43225" lon="18.53041">
        <ele>418.5593</ele>
        <time>2020-08-28T04:59:33.777Z</time>
      </trkpt>
      <trkpt lat="68.43216" lon="18.53407">
        <ele>418.046961</ele>
        <time>2020-08-28T04:59:57.658Z</time>
      </trkpt>
      <trkpt lat="68.43199" lon="18.53767">
        <ele>417.102617</ele>
        <time>2020-08-28T05:00:19.450Z</time>
      </trkpt>
      <trkpt lat="68.43155" lon="18.543">
        <ele>413.717606</ele>
        <time>2020-08-28T05:00:47.853Z</time>
      </trkpt>
      <trkpt lat="68.43079" lon="18.54956">
        <ele>410.462496</ele>
        <time>2020-08-28T05:01:24.594Z</time>
      </trkpt>
      <trkpt lat="68.43051" lon="18.5526">
        <ele>411.387337</ele>
        <time>2020-08-28T05:01:49.112Z</time>
      </trkpt>
      <trkpt lat="68.43032" lon="18.55571">
        <ele>413.914452</ele>
        <time>2020-08-28T05:02:20.600Z</time>
      </trkpt>
      <trkpt lat="68.43029" lon="18.5583">
        <ele>415.880201</ele>
        <time>2020-08-28T05:02:45.997Z</time>
      </trkpt>
      <trkpt lat="68.43038" lon="18.5598">
        <ele>417.036683</ele>
        <time>2020-08-28T05:02:58.840Z</time>
      </trkpt>
      <trkpt lat="68.43051" lon="18.56086">
        <ele>417.784435</ele>
        <time>2020-08-28T05:03:07.609Z</time>
      </trkpt>
      <trkpt lat="68.4307" lon="18.56207">
        <ele>418.292435</ele>
        <time>2020-08-28T05:03:17.350Z</time>
      </trkpt>
      <trkpt lat="68.43093" lon="18.56316">
        <ele>418.780592</ele>
        <time>2020-08-28T05:03:26.556Z</time>
      </trkpt>
      <trkpt lat="68.43164" lon="18.56538">
        <ele>420.220213</ele>
        <time>2020-08-28T05:03:50.136Z</time>
      </trkpt>
      <trkpt lat="68.43301" lon="18.56803">
        <ele>423.210833</ele>
        <time>2020-08-28T05:04:32.626Z</time>
      </trkpt>
      <trkpt lat="68.43345" lon="18.56911">
        <ele>423.429726</ele>
        <time>2020-08-28T05:04:45.273Z</time>
      </trkpt>
      <trkpt lat="68.43379" lon="18.57039">
        <ele>423.643875</ele>
        <time>2020-08-28T05:04:55.623Z</time>
      </trkpt>
      <trkpt lat="68.43399" lon="18.57161">
        <ele>423.680599</ele>
        <time>2020-08-28T05:05:03.270Z</time>
      </trkpt>
      <trkpt lat="68.43413" lon="18.57309">
        <ele>422.828157</ele>
        <time>2020-08-28T05:05:11.458Z</time>
      </trkpt>
      <trkpt lat="68.43415" lon="18.57459">
        <ele>421.988815</ele>
        <time>2020-08-28T05:05:19.355Z</time>
      </trkpt>
      <trkpt lat="68.43412" lon="18.57534">
        <ele>421.567233</ele>
        <time>2020-08-28T05:05:23.320Z</time>
      </trkpt>
      <trkpt lat="68.4335" lon="18.58123">
        <ele>418.579731</ele>
        <time>2020-08-28T05:05:56.842Z</time>
      </trkpt>
      <trkpt lat="68.43345" lon="18.58285">
        <ele>418.674061</ele>
        <time>2020-08-28T05:06:06.158Z</time>
      </trkpt>
      <trkpt lat="68.43355" lon="18.58439">
        <ele>418.765129</ele>
        <time>2020-08-28T05:06:17.295Z</time>
      </trkpt>
      <trkpt lat="68.43368" lon="18.58529">
        <ele>418.821104</ele>
        <time>2020-08-28T05:06:25.429Z</time>
      </trkpt>
      <trkpt lat="68.43385" lon="18.58599">
        <ele>418.951742</ele>
        <time>2020-08-28T05:06:32.503Z</time>
      </trkpt>
      <trkpt lat="68.43398" lon="18.58645">
        <ele>419.091414</ele>
        <time>2020-08-28T05:06:37.274Z</time>
      </trkpt>
      <trkpt lat="68.43421" lon="18.58705">
        <ele>419.299716</ele>
        <time>2020-08-28T05:06:44.478Z</time>
      </trkpt>
      <trkpt lat="68.43456" lon="18.58781">
        <ele>419.596761</ele>
        <time>2020-08-28T05:06:53.342Z</time>
      </trkpt>
      <trkpt lat="68.43475" lon="18.58804">
        <ele>419.733412</ele>
        <time>2020-08-28T05:06:57.900Z</time>
      </trkpt>
      <trkpt lat="68.43501" lon="18.58833">
        <ele>419.922408</ele>
        <time>2020-08-28T05:07:02.957Z</time>
      </trkpt>
      <trkpt lat="68.43523" lon="18.58851">
        <ele>419.904464</ele>
        <time>2020-08-28T05:07:06.701Z</time>
      </trkpt>
      <trkpt lat="68.43576" lon="18.58861">
        <ele>418.879566</ele>
        <time>2020-08-28T05:07:14.918Z</time>
      </trkpt>
      <trkpt lat="68.43795" lon="18.58778">
        <ele>414.207608</ele>
        <time>2020-08-28T05:07:44.757Z</time>
      </trkpt>
      <trkpt lat="68.43944" lon="18.58785">
        <ele>410.516068</ele>
        <time>2020-08-28T05:08:06.056Z</time>
      </trkpt>
      <trkpt lat="68.43954" lon="18.58787">
        <ele>410.235185</ele>
        <time>2020-08-28T05:08:08.078Z</time>
      </trkpt>
      <trkpt lat="68.43996" lon="18.58796">
        <ele>409.121141</ele>
        <time>2020-08-28T05:08:13.413Z</time>
      </trkpt>
      <trkpt lat="68.44055" lon="18.58819">
        <ele>407.539172</ele>
        <time>2020-08-28T05:08:21.073Z</time>
      </trkpt>
      <trkpt lat="68.44124" lon="18.58882">
        <ele>405.799581</ele>
        <time>2020-08-28T05:08:30.437Z</time>
      </trkpt>
      <trkpt lat="68.44143" lon="18.5891">
        <ele>405.277826</ele>
        <time>2020-08-28T05:08:33.263Z</time>
      </trkpt>
      <trkpt lat="68.44161" lon="18.58942">
        <ele>404.754364</ele>
        <time>2020-08-28T05:08:36.605Z</time>
      </trkpt>
      <trkpt lat="68.44184" lon="18.58993">
        <ele>404.038445</ele>
        <time>2020-08-28T05:08:41.097Z</time>
      </trkpt>
      <trkpt lat="68.44207" lon="18.59056">
        <ele>403.272501</ele>
        <time>2020-08-28T05:08:45.866Z</time>
      </trkpt>
      <trkpt lat="68.44217" lon="18.59091">
        <ele>402.898015</ele>
        <time>2020-08-28T05:08:48.408Z</time>
      </trkpt>
      <trkpt lat="68.44232" lon="18.59146">
        <ele>402.323196</ele>
        <time>2020-08-28T05:08:52.372Z</time>
      </trkpt>
      <trkpt lat="68.44263" lon="18.59339">
        <ele>400.565681</ele>
        <time>2020-08-28T05:09:04.330Z</time>
      </trkpt>
      <trkpt lat="68.44291" lon="18.59794">
        <ele>393.623846</ele>
        <time>2020-08-28T05:09:25.298Z</time>
      </trkpt>
      <trkpt lat="68.44312" lon="18.60468">
        <ele>379.7695</ele>
        <time>2020-08-28T05:09:54.442Z</time>
      </trkpt>
      <trkpt lat="68.44316" lon="18.60915">
        <ele>374.82768</ele>
        <time>2020-08-28T05:10:16.345Z</time>
      </trkpt>
      <trkpt lat="68.44314" lon="18.61099">
        <ele>373.619199</ele>
        <time>2020-08-28T05:10:26.696Z</time>
      </trkpt>
      <trkpt lat="68.44312" lon="18.61228">
        <ele>372.969485</ele>
        <time>2020-08-28T05:10:34.175Z</time>
      </trkpt>
      <trkpt lat="68.443" lon="18.61711">
        <ele>369.880769</ele>
        <time>2020-08-28T05:11:00.468Z</time>
      </trkpt>
      <trkpt lat="68.44283" lon="18.61999">
        <ele>367.517918</ele>
        <time>2020-08-28T05:11:14.987Z</time>
      </trkpt>
      <trkpt lat="68.44261" lon="18.62207">
        <ele>365.338273</ele>
        <time>2020-08-28T05:11:25.487Z</time>
      </trkpt>
      <trkpt lat="68.44235" lon="18.62405">
        <ele>363.209278</ele>
        <time>2020-08-28T05:11:35.858Z</time>
      </trkpt>
      <trkpt lat="68.44205" lon="18.6258">
        <ele>361.969177</ele>
        <time>2020-08-28T05:11:45.673Z</time>
      </trkpt>
      <trkpt lat="68.4417" lon="18.62742">
        <ele>360.772291</ele>
        <time>2020-08-28T05:11:55.684Z</time>
      </trkpt>
      <trkpt lat="68.44102" lon="18.63004">
        <ele>359.750281</ele>
        <time>2020-08-28T05:12:14.551Z</time>
      </trkpt>
      <trkpt lat="68.43978" lon="18.63376">
        <ele>359.353468</ele>
        <time>2020-08-28T05:12:47.200Z</time>
      </trkpt>
      <trkpt lat="68.43882" lon="18.63578">
        <ele>359.356644</ele>
        <time>2020-08-28T05:13:08.849Z</time>
      </trkpt>
      <trkpt lat="68.43721" lon="18.63849">
        <ele>359.262935</ele>
        <time>2020-08-28T05:13:42.400Z</time>
      </trkpt>
      <trkpt lat="68.43679" lon="18.6394">
        <ele>359.193961</ele>
        <time>2020-08-28T05:13:51.851Z</time>
      </trkpt>
      <trkpt lat="68.43647" lon="18.64031">
        <ele>359.134329</ele>
        <time>2020-08-28T05:14:00.002Z</time>
      </trkpt>
      <trkpt lat="68.43617" lon="18.64129">
        <ele>359.073976</ele>
        <time>2020-08-28T05:14:08.178Z</time>
      </trkpt>
      <trkpt lat="68.43559" lon="18.64375">
        <ele>358.663146</ele>
        <time>2020-08-28T05:14:26.462Z</time>
      </trkpt>
      <trkpt lat="68.43485" lon="18.64757">
        <ele>357.96726</ele>
        <time>2020-08-28T05:14:52.359Z</time>
      </trkpt>
      <trkpt lat="68.43447" lon="18.65003">
        <ele>357.513858</ele>
        <time>2020-08-28T05:15:08.628Z</time>
      </trkpt>
      <trkpt lat="68.4344" lon="18.65045">
        <ele>357.535839</ele>
        <time>2020-08-28T05:15:11.457Z</time>
      </trkpt>
      <trkpt lat="68.43433" lon="18.65092">
        <ele>357.560125</ele>
        <time>2020-08-28T05:15:14.700Z</time>
      </trkpt>
      <trkpt lat="68.43425" lon="18.65163">
        <ele>357.596138</ele>
        <time>2020-08-28T05:15:19.510Z</time>
      </trkpt>
      <trkpt lat="68.43384" lon="18.65514">
        <ele>357.96029</ele>
        <time>2020-08-28T05:15:45.084Z</time>
      </trkpt>
      <trkpt lat="68.43333" lon="18.66054">
        <ele>359.155483</ele>
        <time>2020-08-28T05:16:29.249Z</time>
      </trkpt>
      <trkpt lat="68.43313" lon="18.66226">
        <ele>358.725345</ele>
        <time>2020-08-28T05:16:40.174Z</time>
      </trkpt>
      <trkpt lat="68.433" lon="18.66323">
        <ele>358.477791</ele>
        <time>2020-08-28T05:16:45.805Z</time>
      </trkpt>
      <trkpt lat="68.43262" lon="18.66575">
        <ele>355.945976</ele>
        <time>2020-08-28T05:16:59.324Z</time>
      </trkpt>
      <trkpt lat="68.43235" lon="18.66747">
        <ele>353.712449</ele>
        <time>2020-08-28T05:17:07.964Z</time>
      </trkpt>
      <trkpt lat="68.43219" lon="18.66825">
        <ele>352.643098</ele>
        <time>2020-08-28T05:17:12.049Z</time>
      </trkpt>
      <trkpt lat="68.43186" lon="18.66941">
        <ele>351.37533</ele>
        <time>2020-08-28T05:17:19.164Z</time>
      </trkpt>
      <trkpt lat="68.43163" lon="18.66995">
        <ele>350.70788</ele>
        <time>2020-08-28T05:17:23.334Z</time>
      </trkpt>
      <trkpt lat="68.43148" lon="18.6703">
        <ele>350.264842</ele>
        <time>2020-08-28T05:17:26.132Z</time>
      </trkpt>
      <trkpt lat="68.43094" lon="18.67118">
        <ele>348.878844</ele>
        <time>2020-08-28T05:17:35.351Z</time>
      </trkpt>
      <trkpt lat="68.43025" lon="18.67177">
        <ele>348.238255</ele>
        <time>2020-08-28T05:17:46.554Z</time>
      </trkpt>
      <trkpt lat="68.42982" lon="18.67185">
        <ele>348.067578</ele>
        <time>2020-08-28T05:17:53.403Z</time>
      </trkpt>
      <trkpt lat="68.42827" lon="18.67152">
        <ele>348.68951</ele>
        <time>2020-08-28T05:18:22.300Z</time>
      </trkpt>
      <trkpt lat="68.4261" lon="18.67162">
        <ele>352.472844</ele>
        <time>2020-08-28T05:19:15.455Z</time>
      </trkpt>
      <trkpt lat="68.42421" lon="18.67265">
        <ele>356.413547</ele>
        <time>2020-08-28T05:20:03.599Z</time>
      </trkpt>
      <trkpt lat="68.4238" lon="18.67294">
        <ele>357.253508</ele>
        <time>2020-08-28T05:20:13.314Z</time>
      </trkpt>
      <trkpt lat="68.42343" lon="18.67336">
        <ele>357.861675</ele>
        <time>2020-08-28T05:20:22.466Z</time>
      </trkpt>
      <trkpt lat="68.42309" lon="18.67392">
        <ele>358.343798</ele>
        <time>2020-08-28T05:20:31.381Z</time>
      </trkpt>
      <trkpt lat="68.42275" lon="18.67468">
        <ele>358.88032</ele>
        <time>2020-08-28T05:20:40.967Z</time>
      </trkpt>
      <trkpt lat="68.42245" lon="18.67565">
        <ele>359.447822</ele>
        <time>2020-08-28T05:20:50.901Z</time>
      </trkpt>
      <trkpt lat="68.42221" lon="18.67681">
        <ele>359.76449</ele>
        <time>2020-08-28T05:21:01.249Z</time>
      </trkpt>
      <trkpt lat="68.42164" lon="18.68041">
        <ele>359.882533</ele>
        <time>2020-08-28T05:21:27.975Z</time>
      </trkpt>
      <trkpt lat="68.42146" lon="18.68131">
        <ele>359.344454</ele>
        <time>2020-08-28T05:21:33.703Z</time>
      </trkpt>
      <trkpt lat="68.42082" lon="18.68348">
        <ele>357.218377</ele>
        <time>2020-08-28T05:21:47.934Z</time>
      </trkpt>
      <trkpt lat="68.41993" lon="18.68545">
        <ele>354.630696</ele>
        <time>2020-08-28T05:22:03.112Z</time>
      </trkpt>
      <trkpt lat="68.41954" lon="18.68613">
        <ele>353.5244</ele>
        <time>2020-08-28T05:22:09.337Z</time>
      </trkpt>
      <trkpt lat="68.41857" lon="18.68773">
        <ele>351.496924</ele>
        <time>2020-08-28T05:22:25.708Z</time>
      </trkpt>
      <trkpt lat="68.41784" lon="18.68865">
        <ele>350.861241</ele>
        <time>2020-08-28T05:22:38.742Z</time>
      </trkpt>
      <trkpt lat="68.41681" lon="18.68947">
        <ele>350.348906</ele>
        <time>2020-08-28T05:22:57.283Z</time>
      </trkpt>
      <trkpt lat="68.41521" lon="18.69">
        <ele>350.36852</ele>
        <time>2020-08-28T05:23:25.317Z</time>
      </trkpt>
      <trkpt lat="68.41409" lon="18.69059">
        <ele>350.998644</ele>
        <time>2020-08-28T05:23:47.608Z</time>
      </trkpt>
      <trkpt lat="68.41194" lon="18.69231">
        <ele>353.763916</ele>
        <time>2020-08-28T05:24:38.183Z</time>
      </trkpt>
      <trkpt lat="68.41094" lon="18.6929">
        <ele>354.654941</ele>
        <time>2020-08-28T05:24:59.943Z</time>
      </trkpt>
      <trkpt lat="68.41013" lon="18.69321">
        <ele>355.245666</ele>
        <time>2020-08-28T05:25:15.570Z</time>
      </trkpt>
      <trkpt lat="68.40825" lon="18.6934">
        <ele>355.620823</ele>
        <time>2020-08-28T05:25:49.194Z</time>
      </trkpt>
      <trkpt lat="68.40743" lon="18.69372">
        <ele>356.405232</ele>
        <time>2020-08-28T05:26:05.392Z</time>
      </trkpt>
      <trkpt lat="68.40686" lon="18.69409">
        <ele>356.963097</ele>
        <time>2020-08-28T05:26:18.153Z</time>
      </trkpt>
      <trkpt lat="68.40561" lon="18.69525">
        <ele>359.930471</ele>
        <time>2020-08-28T05:26:52.332Z</time>
      </trkpt>
      <trkpt lat="68.40527" lon="18.69553">
        <ele>360.789838</ele>
        <time>2020-08-28T05:27:01.846Z</time>
      </trkpt>
      <trkpt lat="68.40459" lon="18.69581">
        <ele>361.959135</ele>
        <time>2020-08-28T05:27:19.537Z</time>
      </trkpt>
      <trkpt lat="68.40415" lon="18.69577">
        <ele>362.49759</ele>
        <time>2020-08-28T05:27:29.725Z</time>
      </trkpt>
      <trkpt lat="68.40355" lon="18.69552">
        <ele>363.230651</ele>
        <time>2020-08-28T05:27:41.889Z</time>
      </trkpt>
      <trkpt lat="68.40266" lon="18.69472">
        <ele>363.766623</ele>
        <time>2020-08-28T05:27:58.881Z</time>
      </trkpt>
      <trkpt lat="68.40238" lon="18.69453">
        <ele>363.824764</ele>
        <time>2020-08-28T05:28:03.871Z</time>
      </trkpt>
      <trkpt lat="68.40199" lon="18.69425">
        <ele>363.90748</ele>
        <time>2020-08-28T05:28:11.150Z</time>
      </trkpt>
      <trkpt lat="68.40132" lon="18.69394">
        <ele>364.060009</ele>
        <time>2020-08-28T05:28:24.159Z</time>
      </trkpt>
      <trkpt lat="68.40063" lon="18.69385">
        <ele>364.246042</ele>
        <time>2020-08-28T05:28:38.245Z</time>
      </trkpt>
      <trkpt lat="68.40023" lon="18.69397">
        <ele>364.353821</ele>
        <time>2020-08-28T05:28:46.015Z</time>
      </trkpt>
      <trkpt lat="68.39951" lon="18.69444">
        <ele>364.25784</ele>
        <time>2020-08-28T05:28:58.947Z</time>
      </trkpt>
      <trkpt lat="68.39874" lon="18.69524">
        <ele>363.344364</ele>
        <time>2020-08-28T05:29:11.628Z</time>
      </trkpt>
      <trkpt lat="68.39837" lon="18.69579">
        <ele>362.880786</ele>
        <time>2020-08-28T05:29:17.797Z</time>
      </trkpt>
      <trkpt lat="68.39769" lon="18.69715">
        <ele>361.439871</ele>
        <time>2020-08-28T05:29:30.012Z</time>
      </trkpt>
      <trkpt lat="68.39707" lon="18.69879">
        <ele>359.61241</ele>
        <time>2020-08-28T05:29:41.952Z</time>
      </trkpt>
      <trkpt lat="68.39686" lon="18.69938">
        <ele>358.964775</ele>
        <time>2020-08-28T05:29:46.120Z</time>
      </trkpt>
      <trkpt lat="68.39597" lon="18.70189">
        <ele>356.863344</ele>
        <time>2020-08-28T05:30:04.042Z</time>
      </trkpt>
      <trkpt lat="68.39557" lon="18.70278">
        <ele>356.038716</ele>
        <time>2020-08-28T05:30:11.701Z</time>
      </trkpt>
      <trkpt lat="68.39405" lon="18.70562">
        <ele>356.38249</ele>
        <time>2020-08-28T05:30:46.749Z</time>
      </trkpt>
      <trkpt lat="68.39366" lon="18.70652">
        <ele>356.844208</ele>
        <time>2020-08-28T05:30:58.105Z</time>
      </trkpt>
      <trkpt lat="68.39314" lon="18.70806">
        <ele>357.628144</ele>
        <time>2020-08-28T05:31:15.370Z</time>
      </trkpt>
      <trkpt lat="68.39189" lon="18.71242">
        <ele>358.5523</ele>
        <time>2020-08-28T05:31:55.522Z</time>
      </trkpt>
      <trkpt lat="68.39132" lon="18.71396">
        <ele>358.141489</ele>
        <time>2020-08-28T05:32:08.180Z</time>
      </trkpt>
      <trkpt lat="68.39074" lon="18.71527">
        <ele>357.302</ele>
        <time>2020-08-28T05:32:19.305Z</time>
      </trkpt>
      <trkpt lat="68.38872" lon="18.71835">
        <ele>354.944201</ele>
        <time>2020-08-28T05:32:54.766Z</time>
      </trkpt>
      <trkpt lat="68.38845" lon="18.71889">
        <ele>354.788715</ele>
        <time>2020-08-28T05:33:00.593Z</time>
      </trkpt>
      <trkpt lat="68.38814" lon="18.71961">
        <ele>354.671561</ele>
        <time>2020-08-28T05:33:07.668Z</time>
      </trkpt>
      <trkpt lat="68.38788" lon="18.72038">
        <ele>354.557124</ele>
        <time>2020-08-28T05:33:14.626Z</time>
      </trkpt>
      <trkpt lat="68.38764" lon="18.72115">
        <ele>354.449792</ele>
        <time>2020-08-28T05:33:21.079Z</time>
      </trkpt>
      <trkpt lat="68.3872" lon="18.72317">
        <ele>353.767649</ele>
        <time>2020-08-28T05:33:35.571Z</time>
      </trkpt>
      <trkpt lat="68.38609" lon="18.73087">
        <ele>349.674899</ele>
        <time>2020-08-28T05:34:20.397Z</time>
      </trkpt>
      <trkpt lat="68.38575" lon="18.73258">
        <ele>349.043526</ele>
        <time>2020-08-28T05:34:31.246Z</time>
      </trkpt>
      <trkpt lat="68.38511" lon="18.73524">
        <ele>348.093327</ele>
        <time>2020-08-28T05:34:50.248Z</time>
      </trkpt>
      <trkpt lat="68.38479" lon="18.73624">
        <ele>347.956547</ele>
        <time>2020-08-28T05:34:58.602Z</time>
      </trkpt>
      <trkpt lat="68.38423" lon="18.73764">
        <ele>347.739837</ele>
        <time>2020-08-28T05:35:11.841Z</time>
      </trkpt>
      <trkpt lat="68.38375" lon="18.73864">
        <ele>347.556655</ele>
        <time>2020-08-28T05:35:22.106Z</time>
      </trkpt>
      <trkpt lat="68.38116" lon="18.74247">
        <ele>346.544142</ele>
        <time>2020-08-28T05:36:10.904Z</time>
      </trkpt>
      <trkpt lat="68.37977" lon="18.74492">
        <ele>346.763409</ele>
        <time>2020-08-28T05:36:42.438Z</time>
      </trkpt>
      <trkpt lat="68.37696" lon="18.75066">
        <ele>348.027713</ele>
        <time>2020-08-28T05:37:48.122Z</time>
      </trkpt>
      <trkpt lat="68.376" lon="18.75234">
        <ele>349.221079</ele>
        <time>2020-08-28T05:38:11.776Z</time>
      </trkpt>
      <trkpt lat="68.37511" lon="18.75366">
        <ele>351.347741</ele>
        <time>2020-08-28T05:38:36.160Z</time>
      </trkpt>
      <trkpt lat="68.37256" lon="18.75662">
        <ele>360.256115</ele>
        <time>2020-08-28T05:39:55.872Z</time>
      </trkpt>
      <trkpt lat="68.37121" lon="18.75876">
        <ele>365.743274</ele>
        <time>2020-08-28T05:40:42.966Z</time>
      </trkpt>
      <trkpt lat="68.37" lon="18.76119">
        <ele>370.196551</ele>
        <time>2020-08-28T05:41:23.916Z</time>
      </trkpt>
      <trkpt lat="68.36925" lon="18.76299">
        <ele>371.680539</ele>
        <time>2020-08-28T05:41:46.935Z</time>
      </trkpt>
      <trkpt lat="68.36746" lon="18.76777">
        <ele>374.723241</ele>
        <time>2020-08-28T05:42:39.579Z</time>
      </trkpt>
      <trkpt lat="68.36672" lon="18.76929">
        <ele>376.391838</ele>
        <time>2020-08-28T05:43:01.318Z</time>
      </trkpt>
      <trkpt lat="68.36596" lon="18.77034">
        <ele>377.987148</ele>
        <time>2020-08-28T05:43:22.402Z</time>
      </trkpt>
      <trkpt lat="68.36489" lon="18.77116">
        <ele>379.848661</ele>
        <time>2020-08-28T05:43:49.397Z</time>
      </trkpt>
      <trkpt lat="68.3644" lon="18.77136">
        <ele>380.670351</ele>
        <time>2020-08-28T05:44:00.800Z</time>
      </trkpt>
      <trkpt lat="68.36253" lon="18.77177">
        <ele>381.93775</ele>
        <time>2020-08-28T05:44:39.109Z</time>
      </trkpt>
      <trkpt lat="68.36202" lon="18.77201">
        <ele>381.162412</ele>
        <time>2020-08-28T05:44:47.472Z</time>
      </trkpt>
      <trkpt lat="68.36106" lon="18.77269">
        <ele>378.415437</ele>
        <time>2020-08-28T05:45:01.238Z</time>
      </trkpt>
      <trkpt lat="68.36024" lon="18.77382">
        <ele>375.435641</ele>
        <time>2020-08-28T05:45:12.115Z</time>
      </trkpt>
      <trkpt lat="68.35977" lon="18.77472">
        <ele>373.245357</ele>
        <time>2020-08-28T05:45:19.156Z</time>
      </trkpt>
      <trkpt lat="68.35951" lon="18.77537">
        <ele>371.907351</ele>
        <time>2020-08-28T05:45:23.737Z</time>
      </trkpt>
      <trkpt lat="68.35931" lon="18.77589">
        <ele>370.863454</ele>
        <time>2020-08-28T05:45:27.477Z</time>
      </trkpt>
      <trkpt lat="68.35914" lon="18.77642">
        <ele>370.437279</ele>
        <time>2020-08-28T05:45:31.254Z</time>
      </trkpt>
      <trkpt lat="68.35892" lon="18.77711">
        <ele>371.210295</ele>
        <time>2020-08-28T05:45:37.801Z</time>
      </trkpt>
      <trkpt lat="68.35872" lon="18.77774">
        <ele>371.907527</ele>
        <time>2020-08-28T05:45:43.575Z</time>
      </trkpt>
      <trkpt lat="68.35817" lon="18.77985">
        <ele>374.108041</ele>
        <time>2020-08-28T05:46:12.386Z</time>
      </trkpt>
      <trkpt lat="68.35809" lon="18.78023">
        <ele>374.536334</ele>
        <time>2020-08-28T05:46:19.135Z</time>
      </trkpt>
      <trkpt lat="68.35828" lon="18.78054">
        <ele>375.292736</ele>
        <time>2020-08-28T05:46:26.723Z</time>
      </trkpt>
      <trkpt lat="68.35835" lon="18.78074">
        <ele>375.660456</ele>
        <time>2020-08-28T05:46:30.915Z</time>
      </trkpt>
      <trkpt lat="68.35832" lon="18.78096">
        <ele>375.966048</ele>
        <time>2020-08-28T05:46:33.863Z</time>
      </trkpt>
      <trkpt lat="68.35829" lon="18.78113">
        <ele>376.205487</ele>
        <time>2020-08-28T05:46:35.843Z</time>
      </trkpt>
      <trkpt lat="68.35824" lon="18.78142">
        <ele>376.615702</ele>
        <time>2020-08-28T05:46:39.344Z</time>
      </trkpt>
      <trkpt lat="68.35818" lon="18.78173">
        <ele>377.074601</ele>
        <time>2020-08-28T05:46:43.938Z</time>
      </trkpt>
      <trkpt lat="68.35815" lon="18.78215">
        <ele>377.626391</ele>
        <time>2020-08-28T05:46:48.265Z</time>
      </trkpt>
      <trkpt lat="68.35801" lon="18.78404">
        <ele>380.124817</ele>
        <time>2020-08-28T05:47:08.367Z</time>
      </trkpt>
      <trkpt lat="68.3579" lon="18.78519">
        <ele>380.634678</ele>
        <time>2020-08-28T05:47:18.710Z</time>
      </trkpt>
      <trkpt lat="68.35782" lon="18.78616">
        <ele>380.591045</ele>
        <time>2020-08-28T05:47:26.783Z</time>
      </trkpt>
      <trkpt lat="68.35778" lon="18.78669">
        <ele>380.567333</ele>
        <time>2020-08-28T05:47:30.500Z</time>
      </trkpt>
      <trkpt lat="68.35771" lon="18.78785">
        <ele>380.515755</ele>
        <time>2020-08-28T05:47:37.688Z</time>
      </trkpt>
      <trkpt lat="68.35759" lon="18.78802">
        <ele>380.500163</ele>
        <time>2020-08-28T05:47:41.216Z</time>
      </trkpt>
      <trkpt lat="68.35754" lon="18.78831">
        <ele>380.485984</ele>
        <time>2020-08-28T05:47:43.140Z</time>
      </trkpt>
      <trkpt lat="68.35751" lon="18.78903">
        <ele>380.439582</ele>
        <time>2020-08-28T05:47:47.593Z</time>
      </trkpt>
      <trkpt lat="68.3575" lon="18.78937">
        <ele>380.062442</ele>
        <time>2020-08-28T05:47:49.588Z</time>
      </trkpt>
      <trkpt lat="68.35754" lon="18.79023">
        <ele>379.09712</ele>
        <time>2020-08-28T05:47:54.697Z</time>
      </trkpt>
      <trkpt lat="68.35762" lon="18.79127">
        <ele>377.92398</ele>
        <time>2020-08-28T05:48:00.498Z</time>
      </trkpt>
      <trkpt lat="68.3576" lon="18.79166">
        <ele>377.48623</ele>
        <time>2020-08-28T05:48:02.656Z</time>
      </trkpt>
      <trkpt lat="68.35718" lon="18.79315">
        <ele>375.401726</ele>
        <time>2020-08-28T05:48:12.661Z</time>
      </trkpt>
      <trkpt lat="68.3571" lon="18.7939">
        <ele>374.496676</ele>
        <time>2020-08-28T05:48:16.782Z</time>
      </trkpt>
      <trkpt lat="68.35702" lon="18.79462">
        <ele>373.587879</ele>
        <time>2020-08-28T05:48:20.743Z</time>
      </trkpt>
      <trkpt lat="68.3567" lon="18.79756">
        <ele>369.902834</ele>
        <time>2020-08-28T05:48:37.357Z</time>
      </trkpt>
      <trkpt lat="68.35641" lon="18.79913">
        <ele>368.721186</ele>
        <time>2020-08-28T05:48:47.362Z</time>
      </trkpt>
      <trkpt lat="68.35585" lon="18.80286">
        <ele>367.413328</ele>
        <time>2020-08-28T05:49:14.214Z</time>
      </trkpt>
      <trkpt lat="68.35573" lon="18.80311">
        <ele>367.643285</ele>
        <time>2020-08-28T05:49:17.584Z</time>
      </trkpt>
      <trkpt lat="68.35549" lon="18.80402">
        <ele>368.243382</ele>
        <time>2020-08-28T05:49:26.878Z</time>
      </trkpt>
      <trkpt lat="68.35496" lon="18.80665">
        <ele>369.87199</ele>
        <time>2020-08-28T05:49:55.632Z</time>
      </trkpt>
      <trkpt lat="68.35319" lon="18.81315">
        <ele>379.969852</ele>
        <time>2020-08-28T05:51:27.652Z</time>
      </trkpt>
      <trkpt lat="68.35301" lon="18.81404">
        <ele>381.317767</ele>
        <time>2020-08-28T05:51:39.568Z</time>
      </trkpt>
      <trkpt lat="68.35284" lon="18.8153">
        <ele>382.952024</ele>
        <time>2020-08-28T05:51:56.086Z</time>
      </trkpt>
      <trkpt lat="68.35271" lon="18.81589">
        <ele>383.691074</ele>
        <time>2020-08-28T05:52:03.799Z</time>
      </trkpt>
      <trkpt lat="68.35263" lon="18.81592">
        <ele>383.935872</ele>
        <time>2020-08-28T05:52:06.644Z</time>
      </trkpt>
      <trkpt lat="68.35258" lon="18.81584">
        <ele>384.115234</ele>
        <time>2020-08-28T05:52:08.980Z</time>
      </trkpt>
      <trkpt lat="68.3525" lon="18.81571">
        <ele>384.37786</ele>
        <time>2020-08-28T05:52:12.456Z</time>
      </trkpt>
      <trkpt lat="68.3524" lon="18.81558">
        <ele>384.705241</ele>
        <time>2020-08-28T05:52:16.782Z</time>
      </trkpt>
      <trkpt lat="68.35235" lon="18.81557">
        <ele>384.85717</ele>
        <time>2020-08-28T05:52:18.739Z</time>
      </trkpt>
      <trkpt lat="68.35225" lon="18.81577">
        <ele>385.236731</ele>
        <time>2020-08-28T05:52:22.405Z</time>
      </trkpt>
      <trkpt lat="68.35217" lon="18.81619">
        <ele>385.745028</ele>
        <time>2020-08-28T05:52:27.206Z</time>
      </trkpt>
      <trkpt lat="68.35212" lon="18.81641">
        <ele>386.02347</ele>
        <time>2020-08-28T05:52:30.456Z</time>
      </trkpt>
      <trkpt lat="68.352" lon="18.81694">
        <ele>386.708282</ele>
        <time>2020-08-28T05:52:36.802Z</time>
      </trkpt>
      <trkpt lat="68.35172" lon="18.81831">
        <ele>387.371043</ele>
        <time>2020-08-28T05:52:52.237Z</time>
      </trkpt>
      <trkpt lat="68.35135" lon="18.81948">
        <ele>386.955608</ele>
        <time>2020-08-28T05:53:02.836Z</time>
      </trkpt>
      <trkpt lat="68.35124" lon="18.82008">
        <ele>386.775794</ele>
        <time>2020-08-28T05:53:07.309Z</time>
      </trkpt>
      <trkpt lat="68.35097" lon="18.82134">
        <ele>386.384159</ele>
        <time>2020-08-28T05:53:17.621Z</time>
      </trkpt>
      <trkpt lat="68.35103" lon="18.82146">
        <ele>386.33342</ele>
        <time>2020-08-28T05:53:18.629Z</time>
      </trkpt>
      <trkpt lat="68.35119" lon="18.82184">
        <ele>385.786837</ele>
        <time>2020-08-28T05:53:21.577Z</time>
      </trkpt>
      <trkpt lat="68.35139" lon="18.82264">
        <ele>384.441197</ele>
        <time>2020-08-28T05:53:26.393Z</time>
      </trkpt>
      <trkpt lat="68.35142" lon="18.82312">
        <ele>383.750678</ele>
        <time>2020-08-28T05:53:28.899Z</time>
      </trkpt>
      <trkpt lat="68.35139" lon="18.82405">
        <ele>382.450505</ele>
        <time>2020-08-28T05:53:33.381Z</time>
      </trkpt>
      <trkpt lat="68.35125" lon="18.82541">
        <ele>380.46807</ele>
        <time>2020-08-28T05:53:40.068Z</time>
      </trkpt>
      <trkpt lat="68.35108" lon="18.82701">
        <ele>378.209533</ele>
        <time>2020-08-28T05:53:48.306Z</time>
      </trkpt>
      <trkpt lat="68.35091" lon="18.82858">
        <ele>376.047898</ele>
        <time>2020-08-28T05:53:56.215Z</time>
      </trkpt>
      <trkpt lat="68.35064" lon="18.83087">
        <ele>372.964239</ele>
        <time>2020-08-28T05:54:08.465Z</time>
      </trkpt>
      <trkpt lat="68.35074" lon="18.83098">
        <ele>372.809841</ele>
        <time>2020-08-28T05:54:09.933Z</time>
      </trkpt>
      <trkpt lat="68.35089" lon="18.8312">
        <ele>372.553621</ele>
        <time>2020-08-28T05:54:12.475Z</time>
      </trkpt>
      <trkpt lat="68.35064" lon="18.83257">
        <ele>371.733797</ele>
        <time>2020-08-28T05:54:20.603Z</time>
      </trkpt>
      <trkpt lat="68.35033" lon="18.834">
        <ele>370.841434</ele>
        <time>2020-08-28T05:54:30.055Z</time>
      </trkpt>
      <trkpt lat="68.34936" lon="18.83739">
        <ele>369.861747</ele>
        <time>2020-08-28T05:54:57.245Z</time>
      </trkpt>
      <trkpt lat="68.34896" lon="18.83891">
        <ele>369.506144</ele>
        <time>2020-08-28T05:55:08.532Z</time>
      </trkpt>
      <trkpt lat="68.34871" lon="18.84002">
        <ele>369.112876</ele>
        <time>2020-08-28T05:55:16.144Z</time>
      </trkpt>
      <trkpt lat="68.34827" lon="18.84219">
        <ele>368.365937</ele>
        <time>2020-08-28T05:55:30.218Z</time>
      </trkpt>
      <trkpt lat="68.34793" lon="18.8442">
        <ele>368.151901</ele>
        <time>2020-08-28T05:55:43.318Z</time>
      </trkpt>
      <trkpt lat="68.34776" lon="18.84553">
        <ele>368.134184</ele>
        <time>2020-08-28T05:55:52.306Z</time>
      </trkpt>
      <trkpt lat="68.34769" lon="18.84608">
        <ele>368.126822</ele>
        <time>2020-08-28T05:55:56.304Z</time>
      </trkpt>
      <trkpt lat="68.3475" lon="18.84778">
        <ele>368.36591</ele>
        <time>2020-08-28T05:56:09.237Z</time>
      </trkpt>
      <trkpt lat="68.34727" lon="18.85129">
        <ele>370.381279</ele>
        <time>2020-08-28T05:56:39.538Z</time>
      </trkpt>
      <trkpt lat="68.34723" lon="18.85312">
        <ele>371.410068</ele>
        <time>2020-08-28T05:56:56.189Z</time>
      </trkpt>
      <trkpt lat="68.34727" lon="18.85662">
        <ele>373.383364</ele>
        <time>2020-08-28T05:57:26.225Z</time>
      </trkpt>
      <trkpt lat="68.34729" lon="18.85779">
        <ele>373.42338</ele>
        <time>2020-08-28T05:57:34.796Z</time>
      </trkpt>
      <trkpt lat="68.34736" lon="18.85946">
        <ele>373.027604</ele>
        <time>2020-08-28T05:57:45.544Z</time>
      </trkpt>
      <trkpt lat="68.34768" lon="18.86509">
        <ele>370.312411</ele>
        <time>2020-08-28T05:58:16.137Z</time>
      </trkpt>
      <trkpt lat="68.34808" lon="18.87021">
        <ele>366.79557</ele>
        <time>2020-08-28T05:58:43.299Z</time>
      </trkpt>
      <trkpt lat="68.34817" lon="18.87123">
        <ele>366.085362</ele>
        <time>2020-08-28T05:58:48.926Z</time>
      </trkpt>
      <trkpt lat="68.34838" lon="18.87358">
        <ele>365.788658</ele>
        <time>2020-08-28T05:59:03.108Z</time>
      </trkpt>
      <trkpt lat="68.34845" lon="18.8746">
        <ele>365.709101</ele>
        <time>2020-08-28T05:59:09.878Z</time>
      </trkpt>
      <trkpt lat="68.34853" lon="18.87652">
        <ele>365.772166</ele>
        <time>2020-08-28T05:59:23.849Z</time>
      </trkpt>
      <trkpt lat="68.34859" lon="18.87924">
        <ele>367.326318</ele>
        <time>2020-08-28T05:59:46.494Z</time>
      </trkpt>
      <trkpt lat="68.34857" lon="18.88086">
        <ele>368.247056</ele>
        <time>2020-08-28T06:00:00.848Z</time>
      </trkpt>
      <trkpt lat="68.3484" lon="18.88478">
        <ele>371.762103</ele>
        <time>2020-08-28T06:00:38.041Z</time>
      </trkpt>
      <trkpt lat="68.34817" lon="18.88753">
        <ele>374.622952</ele>
        <time>2020-08-28T06:01:05.842Z</time>
      </trkpt>
      <trkpt lat="68.3478" lon="18.89031">
        <ele>377.820154</ele>
        <time>2020-08-28T06:01:35.387Z</time>
      </trkpt>
      <trkpt lat="68.3474" lon="18.89287">
        <ele>381.753197</ele>
        <time>2020-08-28T06:02:05.810Z</time>
      </trkpt>
      <trkpt lat="68.34718" lon="18.89434">
        <ele>384.044422</ele>
        <time>2020-08-28T06:02:24.151Z</time>
      </trkpt>
      <trkpt lat="68.34672" lon="18.89753">
        <ele>389.098309</ele>
        <time>2020-08-28T06:03:05.035Z</time>
      </trkpt>
      <trkpt lat="68.34635" lon="18.90073">
        <ele>393.340397</ele>
        <time>2020-08-28T06:03:41.295Z</time>
      </trkpt>
      <trkpt lat="68.34585" lon="18.90693">
        <ele>397.650311</ele>
        <time>2020-08-28T06:04:36.690Z</time>
      </trkpt>
      <trkpt lat="68.34545" lon="18.91453">
        <ele>399.710519</ele>
        <time>2020-08-28T06:05:32.147Z</time>
      </trkpt>
      <trkpt lat="68.34523" lon="18.92158">
        <ele>400.55736</ele>
        <time>2020-08-28T06:06:21.051Z</time>
      </trkpt>
      <trkpt lat="68.34517" lon="18.92495">
        <ele>400.961733</ele>
        <time>2020-08-28T06:06:45.148Z</time>
      </trkpt>
      <trkpt lat="68.34517" lon="18.92898">
        <ele>401.386918</ele>
        <time>2020-08-28T06:07:13.331Z</time>
      </trkpt>
      <trkpt lat="68.34523" lon="18.93104">
        <ele>401.342655</ele>
        <time>2020-08-28T06:07:26.887Z</time>
      </trkpt>
      <trkpt lat="68.34533" lon="18.93316">
        <ele>401.296625</ele>
        <time>2020-08-28T06:07:40.512Z</time>
      </trkpt>
      <trkpt lat="68.34593" lon="18.94026">
        <ele>399.916571</ele>
        <time>2020-08-28T06:08:25.053Z</time>
      </trkpt>
      <trkpt lat="68.34603" lon="18.94196">
        <ele>399.462727</ele>
        <time>2020-08-28T06:08:35.117Z</time>
      </trkpt>
      <trkpt lat="68.34618" lon="18.94534">
        <ele>398.200867</ele>
        <time>2020-08-28T06:08:54.482Z</time>
      </trkpt>
      <trkpt lat="68.34631" lon="18.94996">
        <ele>396.071172</ele>
        <time>2020-08-28T06:09:20.342Z</time>
      </trkpt>
      <trkpt lat="68.34633" lon="18.95018">
        <ele>395.953126</ele>
        <time>2020-08-28T06:09:21.571Z</time>
      </trkpt>
      <trkpt lat="68.34637" lon="18.95136">
        <ele>395.347182</ele>
        <time>2020-08-28T06:09:28.070Z</time>
      </trkpt>
      <trkpt lat="68.34643" lon="18.95286">
        <ele>394.557804</ele>
        <time>2020-08-28T06:09:36.337Z</time>
      </trkpt>
      <trkpt lat="68.34649" lon="18.95394">
        <ele>393.911482</ele>
        <time>2020-08-28T06:09:42.194Z</time>
      </trkpt>
      <trkpt lat="68.34651" lon="18.9543">
        <ele>393.692237</ele>
        <time>2020-08-28T06:09:44.148Z</time>
      </trkpt>
      <trkpt lat="68.34657" lon="18.95533">
        <ele>393.070182</ele>
        <time>2020-08-28T06:09:49.849Z</time>
      </trkpt>
      <trkpt lat="68.34686" lon="18.95906">
        <ele>390.800624</ele>
        <time>2020-08-28T06:10:10.135Z</time>
      </trkpt>
      <trkpt lat="68.34736" lon="18.96415">
        <ele>388.133751</ele>
        <time>2020-08-28T06:10:38.662Z</time>
      </trkpt>
      <trkpt lat="68.34779" lon="18.96753">
        <ele>387.190546</ele>
        <time>2020-08-28T06:10:59.844Z</time>
      </trkpt>
      <trkpt lat="68.34888" lon="18.97531">
        <ele>388.455154</ele>
        <time>2020-08-28T06:11:59.865Z</time>
      </trkpt>
      <trkpt lat="68.34917" lon="18.97785">
        <ele>388.756756</ele>
        <time>2020-08-28T06:12:19.535Z</time>
      </trkpt>
      <trkpt lat="68.3496" lon="18.98311">
        <ele>388.104087</ele>
        <time>2020-08-28T06:12:54.440Z</time>
      </trkpt>
      <trkpt lat="68.34988" lon="18.98857">
        <ele>384.998224</ele>
        <time>2020-08-28T06:13:23.466Z</time>
      </trkpt>
      <trkpt lat="68.34999" lon="18.99408">
        <ele>381.145426</ele>
        <time>2020-08-28T06:13:52.026Z</time>
      </trkpt>
      <trkpt lat="68.34999" lon="18.99675">
        <ele>379.98921</ele>
        <time>2020-08-28T06:14:06.982Z</time>
      </trkpt>
      <trkpt lat="68.34986" lon="19.00695">
        <ele>378.163172</ele>
        <time>2020-08-28T06:15:10.248Z</time>
      </trkpt>
      <trkpt lat="68.34991" lon="19.00913">
        <ele>377.825744</ele>
        <time>2020-08-28T06:15:23.650Z</time>
      </trkpt>
      <trkpt lat="68.35013" lon="19.01269">
        <ele>377.220588</ele>
        <time>2020-08-28T06:15:45.892Z</time>
      </trkpt>
      <trkpt lat="68.35055" lon="19.0178">
        <ele>375.752484</ele>
        <time>2020-08-28T06:16:17.460Z</time>
      </trkpt>
      <trkpt lat="68.35064" lon="19.01944">
        <ele>375.129722</ele>
        <time>2020-08-28T06:16:26.687Z</time>
      </trkpt>
      <trkpt lat="68.35067" lon="19.0226">
        <ele>372.159499</ele>
        <time>2020-08-28T06:16:42.841Z</time>
      </trkpt>
      <trkpt lat="68.35062" lon="19.02411">
        <ele>370.740122</ele>
        <time>2020-08-28T06:16:50.113Z</time>
      </trkpt>
      <trkpt lat="68.3505" lon="19.02587">
        <ele>368.364609</ele>
        <time>2020-08-28T06:16:58.581Z</time>
      </trkpt>
      <trkpt lat="68.35033" lon="19.02758">
        <ele>365.972245</ele>
        <time>2020-08-28T06:17:06.836Z</time>
      </trkpt>
      <trkpt lat="68.35" lon="19.03009">
        <ele>362.76266</ele>
        <time>2020-08-28T06:17:19.419Z</time>
      </trkpt>
      <trkpt lat="68.34939" lon="19.03366">
        <ele>358.955689</ele>
        <time>2020-08-28T06:17:38.981Z</time>
      </trkpt>
      <trkpt lat="68.34865" lon="19.03731">
        <ele>358.009242</ele>
        <time>2020-08-28T06:18:03.510Z</time>
      </trkpt>
      <trkpt lat="68.34776" lon="19.04207">
        <ele>361.468128</ele>
        <time>2020-08-28T06:18:50.705Z</time>
      </trkpt>
      <trkpt lat="68.34722" lon="19.0454">
        <ele>366.646459</ele>
        <time>2020-08-28T06:19:31.914Z</time>
      </trkpt>
      <trkpt lat="68.34642" lon="19.05118">
        <ele>376.346133</ele>
        <time>2020-08-28T06:20:45.631Z</time>
      </trkpt>
      <trkpt lat="68.34614" lon="19.05369">
        <ele>378.913077</ele>
        <time>2020-08-28T06:21:12.864Z</time>
      </trkpt>
      <trkpt lat="68.34584" lon="19.05732">
        <ele>381.352253</ele>
        <time>2020-08-28T06:21:44.664Z</time>
      </trkpt>
      <trkpt lat="68.34547" lon="19.06426">
        <ele>381.672034</ele>
        <time>2020-08-28T06:22:31.058Z</time>
      </trkpt>
      <trkpt lat="68.34519" lon="19.0681">
        <ele>380.250157</ele>
        <time>2020-08-28T06:22:53.266Z</time>
      </trkpt>
      <trkpt lat="68.34517" lon="19.06837">
        <ele>380.119474</ele>
        <time>2020-08-28T06:22:54.739Z</time>
      </trkpt>
      <trkpt lat="68.34506" lon="19.06967">
        <ele>379.487543</ele>
        <time>2020-08-28T06:23:02.124Z</time>
      </trkpt>
      <trkpt lat="68.34462" lon="19.07405">
        <ele>376.054985</ele>
        <time>2020-08-28T06:23:25.848Z</time>
      </trkpt>
      <trkpt lat="68.3446" lon="19.07428">
        <ele>375.861947</ele>
        <time>2020-08-28T06:23:27.060Z</time>
      </trkpt>
      <trkpt lat="68.34411" lon="19.07839">
        <ele>371.460632</ele>
        <time>2020-08-28T06:23:48.133Z</time>
      </trkpt>
      <trkpt lat="68.34316" lon="19.0849">
        <ele>365.840931</ele>
        <time>2020-08-28T06:24:23.212Z</time>
      </trkpt>
      <trkpt lat="68.34193" lon="19.09197">
        <ele>366.855989</ele>
        <time>2020-08-28T06:25:20.984Z</time>
      </trkpt>
      <trkpt lat="68.34106" lon="19.09796">
        <ele>369.028772</ele>
        <time>2020-08-28T06:26:12.122Z</time>
      </trkpt>
      <trkpt lat="68.34058" lon="19.10189">
        <ele>369.188889</ele>
        <time>2020-08-28T06:26:39.211Z</time>
      </trkpt>
      <trkpt lat="68.34035" lon="19.10517">
        <ele>368.871886</ele>
        <time>2020-08-28T06:26:58.888Z</time>
      </trkpt>
      <trkpt lat="68.34012" lon="19.11186">
        <ele>370.054849</ele>
        <time>2020-08-28T06:27:46.574Z</time>
      </trkpt>
      <trkpt lat="68.34006" lon="19.11371">
        <ele>371.78681</ele>
        <time>2020-08-28T06:28:04.625Z</time>
      </trkpt>
      <trkpt lat="68.33974" lon="19.11772">
        <ele>375.471318</ele>
        <time>2020-08-28T06:28:46.546Z</time>
      </trkpt>
      <trkpt lat="68.33926" lon="19.12059">
        <ele>378.086259</ele>
        <time>2020-08-28T06:29:14.407Z</time>
      </trkpt>
      <trkpt lat="68.33843" lon="19.12355">
        <ele>381.06045</ele>
        <time>2020-08-28T06:29:47.794Z</time>
      </trkpt>
      <trkpt lat="68.33635" lon="19.12922">
        <ele>387.347366</ele>
        <time>2020-08-28T06:31:03.018Z</time>
      </trkpt>
      <trkpt lat="68.33443" lon="19.13547">
        <ele>390.126745</ele>
        <time>2020-08-28T06:32:04.517Z</time>
      </trkpt>
      <trkpt lat="68.33248" lon="19.14352">
        <ele>388.736562</ele>
        <time>2020-08-28T06:33:04.572Z</time>
      </trkpt>
      <trkpt lat="68.33146" lon="19.14664">
        <ele>385.763188</ele>
        <time>2020-08-28T06:33:26.034Z</time>
      </trkpt>
      <trkpt lat="68.33047" lon="19.14864">
        <ele>383.289109</ele>
        <time>2020-08-28T06:33:43.025Z</time>
      </trkpt>
      <trkpt lat="68.32907" lon="19.15073">
        <ele>380.226625</ele>
        <time>2020-08-28T06:34:06.129Z</time>
      </trkpt>
      <trkpt lat="68.32772" lon="19.15189">
        <ele>377.576519</ele>
        <time>2020-08-28T06:34:26.502Z</time>
      </trkpt>
      <trkpt lat="68.3258" lon="19.15289">
        <ele>373.358045</ele>
        <time>2020-08-28T06:34:53.802Z</time>
      </trkpt>
      <trkpt lat="68.32489" lon="19.15419">
        <ele>371.020228</ele>
        <time>2020-08-28T06:35:08.014Z</time>
      </trkpt>
      <trkpt lat="68.32412" lon="19.15598">
        <ele>368.455816</ele>
        <time>2020-08-28T06:35:21.890Z</time>
      </trkpt>
      <trkpt lat="68.32364" lon="19.15773">
        <ele>366.343068</ele>
        <time>2020-08-28T06:35:32.661Z</time>
      </trkpt>
      <trkpt lat="68.32338" lon="19.16002">
        <ele>363.988215</ele>
        <time>2020-08-28T06:35:44.518Z</time>
      </trkpt>
      <trkpt lat="68.32296" lon="19.16565">
        <ele>358.698793</ele>
        <time>2020-08-28T06:36:13.267Z</time>
      </trkpt>
      <trkpt lat="68.32262" lon="19.16798">
        <ele>356.648129</ele>
        <time>2020-08-28T06:36:26.286Z</time>
      </trkpt>
      <trkpt lat="68.32247" lon="19.1687">
        <ele>356.264921</ele>
        <time>2020-08-28T06:36:30.767Z</time>
      </trkpt>
      <trkpt lat="68.32221" lon="19.1699">
        <ele>355.62531</ele>
        <time>2020-08-28T06:36:38.473Z</time>
      </trkpt>
      <trkpt lat="68.32153" lon="19.1719">
        <ele>354.428495</ele>
        <time>2020-08-28T06:36:54.132Z</time>
      </trkpt>
      <trkpt lat="68.31837" lon="19.17799">
        <ele>352.335483</ele>
        <time>2020-08-28T06:37:58.056Z</time>
      </trkpt>
      <trkpt lat="68.31639" lon="19.18395">
        <ele>350.646891</ele>
        <time>2020-08-28T06:38:45.929Z</time>
      </trkpt>
      <trkpt lat="68.31548" lon="19.18599">
        <ele>351.209447</ele>
        <time>2020-08-28T06:39:07.270Z</time>
      </trkpt>
      <trkpt lat="68.31451" lon="19.18778">
        <ele>352.544625</ele>
        <time>2020-08-28T06:39:33.590Z</time>
      </trkpt>
      <trkpt lat="68.31217" lon="19.19107">
        <ele>358.105522</ele>
        <time>2020-08-28T06:40:41.800Z</time>
      </trkpt>
      <trkpt lat="68.3111" lon="19.1932">
        <ele>359.685781</ele>
        <time>2020-08-28T06:41:09.120Z</time>
      </trkpt>
      <trkpt lat="68.31018" lon="19.19562">
        <ele>360.191245</ele>
        <time>2020-08-28T06:41:33.086Z</time>
      </trkpt>
      <trkpt lat="68.30949" lon="19.19799">
        <ele>359.847104</ele>
        <time>2020-08-28T06:41:53.028Z</time>
      </trkpt>
      <trkpt lat="68.30835" lon="19.20295">
        <ele>357.979629</ele>
        <time>2020-08-28T06:42:26.276Z</time>
      </trkpt>
      <trkpt lat="68.30781" lon="19.20479">
        <ele>357.541413</ele>
        <time>2020-08-28T06:42:39.477Z</time>
      </trkpt>
      <trkpt lat="68.30718" lon="19.2062">
        <ele>357.252725</ele>
        <time>2020-08-28T06:42:53.412Z</time>
      </trkpt>
      <trkpt lat="68.30596" lon="19.20841">
        <ele>358.193712</ele>
        <time>2020-08-28T06:43:24.281Z</time>
      </trkpt>
      <trkpt lat="68.30514" lon="19.21046">
        <ele>358.731499</ele>
        <time>2020-08-28T06:43:47.667Z</time>
      </trkpt>
      <trkpt lat="68.30446" lon="19.21283">
        <ele>358.654469</ele>
        <time>2020-08-28T06:44:06.535Z</time>
      </trkpt>
      <trkpt lat="68.30406" lon="19.21487">
        <ele>358.184598</ele>
        <time>2020-08-28T06:44:19.593Z</time>
      </trkpt>
      <trkpt lat="68.30369" lon="19.21717">
        <ele>357.530232</ele>
        <time>2020-08-28T06:44:34.153Z</time>
      </trkpt>
      <trkpt lat="68.30345" lon="19.22033">
        <ele>357.928893</ele>
        <time>2020-08-28T06:44:56.271Z</time>
      </trkpt>
      <trkpt lat="68.30329" lon="19.22454">
        <ele>359.241386</ele>
        <time>2020-08-28T06:45:30.278Z</time>
      </trkpt>
      <trkpt lat="68.30307" lon="19.2272">
        <ele>360.384244</ele>
        <time>2020-08-28T06:45:52.309Z</time>
      </trkpt>
      <trkpt lat="68.30266" lon="19.23035">
        <ele>361.070376</ele>
        <time>2020-08-28T06:46:16.090Z</time>
      </trkpt>
      <trkpt lat="68.30249" lon="19.23139">
        <ele>361.292275</ele>
        <time>2020-08-28T06:46:24.149Z</time>
      </trkpt>
      <trkpt lat="68.30245" lon="19.23159">
        <ele>361.334473</ele>
        <time>2020-08-28T06:46:25.502Z</time>
      </trkpt>
      <trkpt lat="68.30213" lon="19.23344">
        <ele>361.895194</ele>
        <time>2020-08-28T06:46:40.448Z</time>
      </trkpt>
      <trkpt lat="68.30204" lon="19.23395">
        <ele>362.058142</ele>
        <time>2020-08-28T06:46:44.759Z</time>
      </trkpt>
      <trkpt lat="68.30185" lon="19.23541">
        <ele>362.505662</ele>
        <time>2020-08-28T06:46:56.141Z</time>
      </trkpt>
      <trkpt lat="68.30164" lon="19.23804">
        <ele>363.194485</ele>
        <time>2020-08-28T06:47:17.875Z</time>
      </trkpt>
      <trkpt lat="68.30162" lon="19.23856">
        <ele>363.318424</ele>
        <time>2020-08-28T06:47:22.306Z</time>
      </trkpt>
      <trkpt lat="68.30161" lon="19.23891">
        <ele>363.400538</ele>
        <time>2020-08-28T06:47:24.861Z</time>
      </trkpt>
      <trkpt lat="68.30158" lon="19.23974">
        <ele>363.595651</ele>
        <time>2020-08-28T06:47:31.102Z</time>
      </trkpt>
      <trkpt lat="68.3015" lon="19.24171">
        <ele>363.748262</ele>
        <time>2020-08-28T06:47:44.585Z</time>
      </trkpt>
      <trkpt lat="68.30146" lon="19.24684">
        <ele>361.313864</ele>
        <time>2020-08-28T06:48:12.955Z</time>
      </trkpt>
      <trkpt lat="68.30132" lon="19.25236">
        <ele>357.666879</ele>
        <time>2020-08-28T06:48:40.824Z</time>
      </trkpt>
      <trkpt lat="68.30128" lon="19.25371">
        <ele>357.447522</ele>
        <time>2020-08-28T06:48:48.823Z</time>
      </trkpt>
      <trkpt lat="68.30106" lon="19.25698">
        <ele>357.849466</ele>
        <time>2020-08-28T06:49:15.317Z</time>
      </trkpt>
      <trkpt lat="68.30068" lon="19.25962">
        <ele>359.566523</ele>
        <time>2020-08-28T06:49:41.651Z</time>
      </trkpt>
      <trkpt lat="68.3001" lon="19.26301">
        <ele>360.194865</ele>
        <time>2020-08-28T06:50:10.367Z</time>
      </trkpt>
      <trkpt lat="68.29968" lon="19.26678">
        <ele>359.064925</ele>
        <time>2020-08-28T06:50:32.341Z</time>
      </trkpt>
      <trkpt lat="68.29946" lon="19.26815">
        <ele>358.145072</ele>
        <time>2020-08-28T06:50:40.153Z</time>
      </trkpt>
      <trkpt lat="68.29922" lon="19.26944">
        <ele>357.257044</ele>
        <time>2020-08-28T06:50:47.696Z</time>
      </trkpt>
      <trkpt lat="68.29831" lon="19.27336">
        <ele>354.175451</ele>
        <time>2020-08-28T06:51:12.308Z</time>
      </trkpt>
      <trkpt lat="68.29757" lon="19.27716">
        <ele>351.776096</ele>
        <time>2020-08-28T06:51:35.662Z</time>
      </trkpt>
      <trkpt lat="68.29614" lon="19.28635">
        <ele>347.261754</ele>
        <time>2020-08-28T06:52:31.001Z</time>
      </trkpt>
      <trkpt lat="68.29583" lon="19.28791">
        <ele>347.308925</ele>
        <time>2020-08-28T06:52:42.365Z</time>
      </trkpt>
      <trkpt lat="68.29542" lon="19.28945">
        <ele>347.663717</ele>
        <time>2020-08-28T06:52:55.838Z</time>
      </trkpt>
      <trkpt lat="68.2947" lon="19.29151">
        <ele>348.685363</ele>
        <time>2020-08-28T06:53:19.243Z</time>
      </trkpt>
      <trkpt lat="68.29419" lon="19.29264">
        <ele>349.766031</ele>
        <time>2020-08-28T06:53:34.624Z</time>
      </trkpt>
      <trkpt lat="68.29372" lon="19.29349">
        <ele>350.704979</ele>
        <time>2020-08-28T06:53:48.081Z</time>
      </trkpt>
      <trkpt lat="68.29299" lon="19.29447">
        <ele>352.131602</ele>
        <time>2020-08-28T06:54:07.187Z</time>
      </trkpt>
      <trkpt lat="68.29046" lon="19.29712">
        <ele>357.385924</ele>
        <time>2020-08-28T06:55:11.317Z</time>
      </trkpt>
      <trkpt lat="68.29016" lon="19.29751">
        <ele>358.214903</ele>
        <time>2020-08-28T06:55:20.144Z</time>
      </trkpt>
      <trkpt lat="68.28998" lon="19.29777">
        <ele>358.8918</ele>
        <time>2020-08-28T06:55:25.624Z</time>
      </trkpt>
      <trkpt lat="68.28973" lon="19.29815">
        <ele>359.881211</ele>
        <time>2020-08-28T06:55:34.282Z</time>
      </trkpt>
      <trkpt lat="68.28908" lon="19.29946">
        <ele>362.627135</ele>
        <time>2020-08-28T06:55:58.220Z</time>
      </trkpt>
      <trkpt lat="68.2886" lon="19.30059">
        <ele>364.607845</ele>
        <time>2020-08-28T06:56:17.330Z</time>
      </trkpt>
      <trkpt lat="68.28753" lon="19.3032">
        <ele>368.512411</ele>
        <time>2020-08-28T06:56:55.564Z</time>
      </trkpt>
      <trkpt lat="68.28675" lon="19.30521">
        <ele>369.525966</ele>
        <time>2020-08-28T06:57:19.408Z</time>
      </trkpt>
      <trkpt lat="68.28622" lon="19.30668">
        <ele>370.103185</ele>
        <time>2020-08-28T06:57:33.430Z</time>
      </trkpt>
      <trkpt lat="68.28461" lon="19.31163">
        <ele>367.359645</ele>
        <time>2020-08-28T06:58:10.642Z</time>
      </trkpt>
      <trkpt lat="68.28386" lon="19.31434">
        <ele>365.216303</ele>
        <time>2020-08-28T06:58:28.461Z</time>
      </trkpt>
      <trkpt lat="68.28361" lon="19.3156">
        <ele>364.061278</ele>
        <time>2020-08-28T06:58:35.759Z</time>
      </trkpt>
      <trkpt lat="68.28217" lon="19.32516">
        <ele>357.390335</ele>
        <time>2020-08-28T06:59:28.889Z</time>
      </trkpt>
      <trkpt lat="68.28173" lon="19.3277">
        <ele>357.49083</ele>
        <time>2020-08-28T06:59:51.965Z</time>
      </trkpt>
      <trkpt lat="68.28084" lon="19.33184">
        <ele>362.693531</ele>
        <time>2020-08-28T07:00:43.362Z</time>
      </trkpt>
      <trkpt lat="68.28003" lon="19.33507">
        <ele>363.909439</ele>
        <time>2020-08-28T07:01:15.027Z</time>
      </trkpt>
      <trkpt lat="68.27877" lon="19.34009">
        <ele>361.861815</ele>
        <time>2020-08-28T07:01:47.951Z</time>
      </trkpt>
      <trkpt lat="68.27786" lon="19.34416">
        <ele>361.629717</ele>
        <time>2020-08-28T07:02:17.963Z</time>
      </trkpt>
      <trkpt lat="68.27772" lon="19.34487">
        <ele>362.435163</ele>
        <time>2020-08-28T07:02:24.513Z</time>
      </trkpt>
      <trkpt lat="68.27713" lon="19.34768">
        <ele>365.644395</ele>
        <time>2020-08-28T07:02:56.262Z</time>
      </trkpt>
      <trkpt lat="68.27566" lon="19.35425">
        <ele>378.379767</ele>
        <time>2020-08-28T07:04:34.942Z</time>
      </trkpt>
      <trkpt lat="68.27499" lon="19.35693">
        <ele>382.613738</ele>
        <time>2020-08-28T07:05:06.470Z</time>
      </trkpt>
      <trkpt lat="68.27463" lon="19.35808">
        <ele>384.048996</ele>
        <time>2020-08-28T07:05:18.967Z</time>
      </trkpt>
      <trkpt lat="68.27386" lon="19.36038">
        <ele>387.126383</ele>
        <time>2020-08-28T07:05:49.340Z</time>
      </trkpt>
      <trkpt lat="68.27295" lon="19.36313">
        <ele>392.599975</ele>
        <time>2020-08-28T07:06:33.010Z</time>
      </trkpt>
      <trkpt lat="68.27182" lon="19.36686">
        <ele>399.118069</ele>
        <time>2020-08-28T07:07:27.100Z</time>
      </trkpt>
      <trkpt lat="68.27141" lon="19.36851">
        <ele>401.48076</ele>
        <time>2020-08-28T07:07:45.966Z</time>
      </trkpt>
      <trkpt lat="68.27087" lon="19.3718">
        <ele>405.362983</ele>
        <time>2020-08-28T07:08:21.601Z</time>
      </trkpt>
      <trkpt lat="68.27068" lon="19.37317">
        <ele>407.335539</ele>
        <time>2020-08-28T07:08:37.511Z</time>
      </trkpt>
      <trkpt lat="68.27028" lon="19.37734">
        <ele>413.129754</ele>
        <time>2020-08-28T07:09:27.002Z</time>
      </trkpt>
      <trkpt lat="68.27004" lon="19.38028">
        <ele>416.112887</ele>
        <time>2020-08-28T07:09:57.731Z</time>
      </trkpt>
      <trkpt lat="68.26955" lon="19.38808">
        <ele>419.369581</ele>
        <time>2020-08-28T07:10:58.750Z</time>
      </trkpt>
      <trkpt lat="68.26913" lon="19.39297">
        <ele>419.903606</ele>
        <time>2020-08-28T07:11:32.744Z</time>
      </trkpt>
      <trkpt lat="68.26864" lon="19.39759">
        <ele>419.851561</ele>
        <time>2020-08-28T07:12:04.349Z</time>
      </trkpt>
      <trkpt lat="68.26788" lon="19.40205">
        <ele>419.50909</ele>
        <time>2020-08-28T07:12:35.824Z</time>
      </trkpt>
      <trkpt lat="68.26704" lon="19.40585">
        <ele>418.824907</ele>
        <time>2020-08-28T07:13:03.281Z</time>
      </trkpt>
      <trkpt lat="68.26664" lon="19.40739">
        <ele>418.369883</ele>
        <time>2020-08-28T07:13:14.736Z</time>
      </trkpt>
      <trkpt lat="68.26638" lon="19.40843">
        <ele>418.065961</ele>
        <time>2020-08-28T07:13:22.101Z</time>
      </trkpt>
      <trkpt lat="68.26581" lon="19.4106">
        <ele>416.274651</ele>
        <time>2020-08-28T07:13:36.860Z</time>
      </trkpt>
      <trkpt lat="68.26421" lon="19.41605">
        <ele>409.945375</ele>
        <time>2020-08-28T07:14:11.781Z</time>
      </trkpt>
      <trkpt lat="68.26375" lon="19.41802">
        <ele>407.114207</ele>
        <time>2020-08-28T07:14:22.788Z</time>
      </trkpt>
      <trkpt lat="68.26356" lon="19.419">
        <ele>405.734796</ele>
        <time>2020-08-28T07:14:28.084Z</time>
      </trkpt>
      <trkpt lat="68.26328" lon="19.4209">
        <ele>403.395985</ele>
        <time>2020-08-28T07:14:37.926Z</time>
      </trkpt>
      <trkpt lat="68.26296" lon="19.42389">
        <ele>401.013504</ele>
        <time>2020-08-28T07:14:53.909Z</time>
      </trkpt>
      <trkpt lat="68.26278" lon="19.42693">
        <ele>399.580575</ele>
        <time>2020-08-28T07:15:11.578Z</time>
      </trkpt>
      <trkpt lat="68.26277" lon="19.43106">
        <ele>398.637205</ele>
        <time>2020-08-28T07:15:37.170Z</time>
      </trkpt>
      <trkpt lat="68.26285" lon="19.43293">
        <ele>398.251998</ele>
        <time>2020-08-28T07:15:48.875Z</time>
      </trkpt>
      <trkpt lat="68.26333" lon="19.43999">
        <ele>396.328764</ele>
        <time>2020-08-28T07:16:31.403Z</time>
      </trkpt>
      <trkpt lat="68.26339" lon="19.44198">
        <ele>395.678459</ele>
        <time>2020-08-28T07:16:42.706Z</time>
      </trkpt>
      <trkpt lat="68.26336" lon="19.44388">
        <ele>395.056619</ele>
        <time>2020-08-28T07:16:53.674Z</time>
      </trkpt>
      <trkpt lat="68.2633" lon="19.44568">
        <ele>394.950062</ele>
        <time>2020-08-28T07:17:04.497Z</time>
      </trkpt>
      <trkpt lat="68.26303" lon="19.44836">
        <ele>395.142251</ele>
        <time>2020-08-28T07:17:23.498Z</time>
      </trkpt>
      <trkpt lat="68.26261" lon="19.45113">
        <ele>396.064625</ele>
        <time>2020-08-28T07:17:47.934Z</time>
      </trkpt>
      <trkpt lat="68.26231" lon="19.45242">
        <ele>396.678696</ele>
        <time>2020-08-28T07:17:59.917Z</time>
      </trkpt>
      <trkpt lat="68.26209" lon="19.45333">
        <ele>397.117804</ele>
        <time>2020-08-28T07:18:08.541Z</time>
      </trkpt>
      <trkpt lat="68.26154" lon="19.45544">
        <ele>397.640421</ele>
        <time>2020-08-28T07:18:28.242Z</time>
      </trkpt>
      <trkpt lat="68.26085" lon="19.45819">
        <ele>397.688598</ele>
        <time>2020-08-28T07:18:51.094Z</time>
      </trkpt>
      <trkpt lat="68.2603" lon="19.46147">
        <ele>396.082882</ele>
        <time>2020-08-28T07:19:11.632Z</time>
      </trkpt>
      <trkpt lat="68.25999" lon="19.465">
        <ele>390.431626</ele>
        <time>2020-08-28T07:19:28.655Z</time>
      </trkpt>
      <trkpt lat="68.25993" lon="19.4698">
        <ele>379.93643</ele>
        <time>2020-08-28T07:19:49.426Z</time>
      </trkpt>
      <trkpt lat="68.25978" lon="19.47404">
        <ele>369.627266</ele>
        <time>2020-08-28T07:20:07.554Z</time>
      </trkpt>
      <trkpt lat="68.25944" lon="19.47814">
        <ele>361.007025</ele>
        <time>2020-08-28T07:20:25.868Z</time>
      </trkpt>
      <trkpt lat="68.25883" lon="19.48329">
        <ele>354.782322</ele>
        <time>2020-08-28T07:20:52.005Z</time>
      </trkpt>
      <trkpt lat="68.2584" lon="19.48601">
        <ele>353.388643</ele>
        <time>2020-08-28T07:21:12.253Z</time>
      </trkpt>
      <trkpt lat="68.25804" lon="19.48831">
        <ele>353.341638</ele>
        <time>2020-08-28T07:21:30.356Z</time>
      </trkpt>
      <trkpt lat="68.25716" lon="19.4939">
        <ele>352.381036</ele>
        <time>2020-08-28T07:22:05.733Z</time>
      </trkpt>
      <trkpt lat="68.25584" lon="19.50073">
        <ele>353.823101</ele>
        <time>2020-08-28T07:23:03.857Z</time>
      </trkpt>
      <trkpt lat="68.25523" lon="19.50341">
        <ele>354.166782</ele>
        <time>2020-08-28T07:23:25.662Z</time>
      </trkpt>
      <trkpt lat="68.25417" lon="19.50696">
        <ele>353.739217</ele>
        <time>2020-08-28T07:23:53.150Z</time>
      </trkpt>
      <trkpt lat="68.25321" lon="19.50931">
        <ele>354.32057</ele>
        <time>2020-08-28T07:24:17.142Z</time>
      </trkpt>
      <trkpt lat="68.25221" lon="19.51127">
        <ele>355.990891</ele>
        <time>2020-08-28T07:24:46.296Z</time>
      </trkpt>
      <trkpt lat="68.25186" lon="19.51195">
        <ele>356.744992</ele>
        <time>2020-08-28T07:24:57.064Z</time>
      </trkpt>
      <trkpt lat="68.25151" lon="19.51249">
        <ele>357.447133</ele>
        <time>2020-08-28T07:25:07.005Z</time>
      </trkpt>
      <trkpt lat="68.24998" lon="19.51476">
        <ele>358.827</ele>
        <time>2020-08-28T07:25:43.818Z</time>
      </trkpt>
      <trkpt lat="68.24857" lon="19.51635">
        <ele>356.996207</ele>
        <time>2020-08-28T07:26:06.730Z</time>
      </trkpt>
      <trkpt lat="68.24737" lon="19.51747">
        <ele>354.541034</ele>
        <time>2020-08-28T07:26:24.124Z</time>
      </trkpt>
      <trkpt lat="68.24646" lon="19.51813">
        <ele>352.47636</ele>
        <time>2020-08-28T07:26:37.162Z</time>
      </trkpt>
      <trkpt lat="68.24309" lon="19.5199">
        <ele>348.902349</ele>
        <time>2020-08-28T07:27:29.665Z</time>
      </trkpt>
      <trkpt lat="68.24227" lon="19.52054">
        <ele>349.619252</ele>
        <time>2020-08-28T07:27:46.381Z</time>
      </trkpt>
      <trkpt lat="68.24138" lon="19.52182">
        <ele>350.876323</ele>
        <time>2020-08-28T07:28:09.839Z</time>
      </trkpt>
      <trkpt lat="68.24063" lon="19.52343">
        <ele>352.850602</ele>
        <time>2020-08-28T07:28:34.796Z</time>
      </trkpt>
      <trkpt lat="68.23987" lon="19.52569">
        <ele>355.080947</ele>
        <time>2020-08-28T07:29:02.976Z</time>
      </trkpt>
      <trkpt lat="68.23886" lon="19.53032">
        <ele>356.744975</ele>
        <time>2020-08-28T07:29:43.455Z</time>
      </trkpt>
      <trkpt lat="68.2386" lon="19.53174">
        <ele>356.777718</ele>
        <time>2020-08-28T07:29:53.938Z</time>
      </trkpt>
      <trkpt lat="68.23832" lon="19.53325">
        <ele>356.812444</ele>
        <time>2020-08-28T07:30:04.707Z</time>
      </trkpt>
      <trkpt lat="68.23828" lon="19.53346">
        <ele>356.817258</ele>
        <time>2020-08-28T07:30:06.231Z</time>
      </trkpt>
      <trkpt lat="68.23797" lon="19.53574">
        <ele>356.589471</ele>
        <time>2020-08-28T07:30:21.423Z</time>
      </trkpt>
      <trkpt lat="68.23766" lon="19.53859">
        <ele>356.272737</ele>
        <time>2020-08-28T07:30:40.074Z</time>
      </trkpt>
      <trkpt lat="68.23717" lon="19.54451">
        <ele>356.864216</ele>
        <time>2020-08-28T07:31:19.637Z</time>
      </trkpt>
      <trkpt lat="68.23687" lon="19.5471">
        <ele>358.283399</ele>
        <time>2020-08-28T07:31:42.772Z</time>
      </trkpt>
      <trkpt lat="68.23641" lon="19.54964">
        <ele>360.957757</ele>
        <time>2020-08-28T07:32:11.811Z</time>
      </trkpt>
      <trkpt lat="68.23572" lon="19.55284">
        <ele>364.533402</ele>
        <time>2020-08-28T07:32:50.008Z</time>
      </trkpt>
      <trkpt lat="68.2344" lon="19.56026">
        <ele>368.819324</ele>
        <time>2020-08-28T07:33:56.973Z</time>
      </trkpt>
      <trkpt lat="68.23368" lon="19.56551">
        <ele>370.608918</ele>
        <time>2020-08-28T07:34:38.157Z</time>
      </trkpt>
      <trkpt lat="68.23323" lon="19.57036">
        <ele>373.535299</ele>
        <time>2020-08-28T07:35:21.972Z</time>
      </trkpt>
      <trkpt lat="68.23272" lon="19.57781">
        <ele>376.041464</ele>
        <time>2020-08-28T07:36:23.428Z</time>
      </trkpt>
      <trkpt lat="68.2325" lon="19.58342">
        <ele>374.045507</ele>
        <time>2020-08-28T07:36:54.278Z</time>
      </trkpt>
      <trkpt lat="68.23247" lon="19.58777">
        <ele>371.803479</ele>
        <time>2020-08-28T07:37:17.875Z</time>
      </trkpt>
      <trkpt lat="68.23255" lon="19.59158">
        <ele>370.495134</ele>
        <time>2020-08-28T07:37:40.276Z</time>
      </trkpt>
      <trkpt lat="68.23285" lon="19.5982">
        <ele>369.186913</ele>
        <time>2020-08-28T07:38:21.287Z</time>
      </trkpt>
      <trkpt lat="68.23285" lon="19.60096">
        <ele>368.817369</ele>
        <time>2020-08-28T07:38:38.269Z</time>
      </trkpt>
      <trkpt lat="68.2328" lon="19.6037">
        <ele>368.478963</ele>
        <time>2020-08-28T07:38:55.467Z</time>
      </trkpt>
      <trkpt lat="68.23239" lon="19.61341">
        <ele>368.804847</ele>
        <time>2020-08-28T07:40:01.028Z</time>
      </trkpt>
      <trkpt lat="68.23181" lon="19.6223">
        <ele>371.638422</ele>
        <time>2020-08-28T07:41:10.721Z</time>
      </trkpt>
      <trkpt lat="68.23156" lon="19.6282">
        <ele>373.01237</ele>
        <time>2020-08-28T07:41:55.233Z</time>
      </trkpt>
      <trkpt lat="68.23149" lon="19.6312">
        <ele>372.689124</ele>
        <time>2020-08-28T07:42:14.908Z</time>
      </trkpt>
      <trkpt lat="68.23142" lon="19.64114">
        <ele>368.286416</ele>
        <time>2020-08-28T07:43:09.971Z</time>
      </trkpt>
      <trkpt lat="68.23141" lon="19.64155">
        <ele>368.082963</ele>
        <time>2020-08-28T07:43:12.217Z</time>
      </trkpt>
      <trkpt lat="68.23134" lon="19.64391">
        <ele>367.270317</ele>
        <time>2020-08-28T07:43:25.653Z</time>
      </trkpt>
      <trkpt lat="68.23124" lon="19.64697">
        <ele>366.40906</ele>
        <time>2020-08-28T07:43:44.025Z</time>
      </trkpt>
      <trkpt lat="68.23109" lon="19.64963">
        <ele>366.519564</ele>
        <time>2020-08-28T07:44:01.518Z</time>
      </trkpt>
      <trkpt lat="68.23108" lon="19.64976">
        <ele>366.526715</ele>
        <time>2020-08-28T07:44:02.436Z</time>
      </trkpt>
      <trkpt lat="68.23044" lon="19.65866">
        <ele>368.73811</ele>
        <time>2020-08-28T07:45:08.594Z</time>
      </trkpt>
      <trkpt lat="68.22943" lon="19.6681">
        <ele>374.396801</ele>
        <time>2020-08-28T07:46:37.023Z</time>
      </trkpt>
      <trkpt lat="68.22896" lon="19.67191">
        <ele>374.741556</ele>
        <time>2020-08-28T07:47:02.867Z</time>
      </trkpt>
      <trkpt lat="68.2279" lon="19.67889">
        <ele>372.674406</ele>
        <time>2020-08-28T07:47:45.690Z</time>
      </trkpt>
      <trkpt lat="68.22745" lon="19.68157">
        <ele>373.665864</ele>
        <time>2020-08-28T07:48:08.349Z</time>
      </trkpt>
      <trkpt lat="68.22681" lon="19.68496">
        <ele>375.858819</ele>
        <time>2020-08-28T07:48:43.486Z</time>
      </trkpt>
      <trkpt lat="68.226" lon="19.68883">
        <ele>378.318337</ele>
        <time>2020-08-28T07:49:21.626Z</time>
      </trkpt>
      <trkpt lat="68.22505" lon="19.693">
        <ele>378.876845</ele>
        <time>2020-08-28T07:49:55.034Z</time>
      </trkpt>
      <trkpt lat="68.22348" lon="19.69892">
        <ele>377.459442</ele>
        <time>2020-08-28T07:50:39.371Z</time>
      </trkpt>
      <trkpt lat="68.22273" lon="19.70149">
        <ele>376.230384</ele>
        <time>2020-08-28T07:50:58.063Z</time>
      </trkpt>
      <trkpt lat="68.22229" lon="19.70341">
        <ele>375.125146</ele>
        <time>2020-08-28T07:51:10.431Z</time>
      </trkpt>
      <trkpt lat="68.22192" lon="19.70524">
        <ele>374.303087</ele>
        <time>2020-08-28T07:51:21.778Z</time>
      </trkpt>
      <trkpt lat="68.22098" lon="19.71081">
        <ele>373.235182</ele>
        <time>2020-08-28T07:51:58.673Z</time>
      </trkpt>
      <trkpt lat="68.2207" lon="19.71218">
        <ele>373.299776</ele>
        <time>2020-08-28T07:52:10.333Z</time>
      </trkpt>
      <trkpt lat="68.22051" lon="19.71288">
        <ele>373.334757</ele>
        <time>2020-08-28T07:52:16.849Z</time>
      </trkpt>
      <trkpt lat="68.22049" lon="19.71292">
        <ele>373.337572</ele>
        <time>2020-08-28T07:52:17.339Z</time>
      </trkpt>
      <trkpt lat="68.21983" lon="19.71527">
        <ele>374.215347</ele>
        <time>2020-08-28T07:52:40.482Z</time>
      </trkpt>
      <trkpt lat="68.21905" lon="19.71809">
        <ele>375.298718</ele>
        <time>2020-08-28T07:53:06.286Z</time>
      </trkpt>
      <trkpt lat="68.21849" lon="19.7213">
        <ele>376.716231</ele>
        <time>2020-08-28T07:53:33.088Z</time>
      </trkpt>
      <trkpt lat="68.21827" lon="19.72343">
        <ele>379.372095</ele>
        <time>2020-08-28T07:53:53.629Z</time>
      </trkpt>
      <trkpt lat="68.21802" lon="19.72712">
        <ele>385.290069</ele>
        <time>2020-08-28T07:54:39.560Z</time>
      </trkpt>
      <trkpt lat="68.21771" lon="19.73023">
        <ele>392.366239</ele>
        <time>2020-08-28T07:55:26.179Z</time>
      </trkpt>
      <trkpt lat="68.21754" lon="19.73159">
        <ele>394.959858</ele>
        <time>2020-08-28T07:55:46.344Z</time>
      </trkpt>
      <trkpt lat="68.21708" lon="19.73407">
        <ele>399.812111</ele>
        <time>2020-08-28T07:56:20.368Z</time>
      </trkpt>
      <trkpt lat="68.21647" lon="19.73656">
        <ele>402.568298</ele>
        <time>2020-08-28T07:56:49.086Z</time>
      </trkpt>
      <trkpt lat="68.21575" lon="19.73884">
        <ele>404.206683</ele>
        <time>2020-08-28T07:57:12.258Z</time>
      </trkpt>
      <trkpt lat="68.21478" lon="19.74147">
        <ele>404.078527</ele>
        <time>2020-08-28T07:57:36.305Z</time>
      </trkpt>
      <trkpt lat="68.21398" lon="19.74337">
        <ele>403.780713</ele>
        <time>2020-08-28T07:57:53.375Z</time>
      </trkpt>
      <trkpt lat="68.21291" lon="19.7456">
        <ele>403.612202</ele>
        <time>2020-08-28T07:58:16.373Z</time>
      </trkpt>
      <trkpt lat="68.21108" lon="19.74874">
        <ele>405.45579</ele>
        <time>2020-08-28T07:59:01.501Z</time>
      </trkpt>
      <trkpt lat="68.20944" lon="19.751">
        <ele>407.989756</ele>
        <time>2020-08-28T07:59:43.580Z</time>
      </trkpt>
      <trkpt lat="68.20839" lon="19.75226">
        <ele>409.730344</ele>
        <time>2020-08-28T08:00:09.464Z</time>
      </trkpt>
      <trkpt lat="68.20708" lon="19.75361">
        <ele>412.017304</ele>
        <time>2020-08-28T08:00:41.514Z</time>
      </trkpt>
      <trkpt lat="68.20563" lon="19.75485">
        <ele>414.699191</ele>
        <time>2020-08-28T08:01:17.940Z</time>
      </trkpt>
      <trkpt lat="68.20178" lon="19.75755">
        <ele>420.763623</ele>
        <time>2020-08-28T08:02:49.566Z</time>
      </trkpt>
      <trkpt lat="68.20035" lon="19.75915">
        <ele>420.845554</ele>
        <time>2020-08-28T08:03:16.851Z</time>
      </trkpt>
      <trkpt lat="68.19969" lon="19.76001">
        <ele>420.646072</ele>
        <time>2020-08-28T08:03:28.639Z</time>
      </trkpt>
      <trkpt lat="68.19828" lon="19.76234">
        <ele>419.900286</ele>
        <time>2020-08-28T08:03:55.878Z</time>
      </trkpt>
      <trkpt lat="68.1975" lon="19.76383">
        <ele>419.848506</ele>
        <time>2020-08-28T08:04:12.368Z</time>
      </trkpt>
      <trkpt lat="68.19641" lon="19.76634">
        <ele>420.354086</ele>
        <time>2020-08-28T08:04:39.259Z</time>
      </trkpt>
      <trkpt lat="68.19581" lon="19.76798">
        <ele>421.003564</ele>
        <time>2020-08-28T08:04:56.913Z</time>
      </trkpt>
      <trkpt lat="68.19369" lon="19.77474">
        <ele>426.217721</ele>
        <time>2020-08-28T08:06:12.872Z</time>
      </trkpt>
      <trkpt lat="68.19317" lon="19.77631">
        <ele>427.411844</ele>
        <time>2020-08-28T08:06:31.633Z</time>
      </trkpt>
      <trkpt lat="68.19301" lon="19.77682">
        <ele>427.688414</ele>
        <time>2020-08-28T08:06:37.368Z</time>
      </trkpt>
      <trkpt lat="68.19301" lon="19.77682">
        <ele>427.690927</ele>
        <time>2020-08-28T08:06:37.525Z</time>
      </trkpt>
      <trkpt lat="68.19281" lon="19.77731">
        <ele>427.98243</ele>
        <time>2020-08-28T08:06:43.467Z</time>
      </trkpt>
      <trkpt lat="68.19217" lon="19.77889">
        <ele>428.932928</ele>
        <time>2020-08-28T08:07:01.738Z</time>
      </trkpt>
      <trkpt lat="68.19047" lon="19.78294">
        <ele>429.547682</ele>
        <time>2020-08-28T08:07:41.365Z</time>
      </trkpt>
      <trkpt lat="68.18907" lon="19.78585">
        <ele>432.099322</ele>
        <time>2020-08-28T08:08:20.831Z</time>
      </trkpt>
      <trkpt lat="68.18756" lon="19.78854">
        <ele>437.137963</ele>
        <time>2020-08-28T08:09:12.502Z</time>
      </trkpt>
      <trkpt lat="68.18583" lon="19.7912">
        <ele>441.011888</ele>
        <time>2020-08-28T08:10:02.496Z</time>
      </trkpt>
      <trkpt lat="68.18504" lon="19.79229">
        <ele>441.396611</ele>
        <time>2020-08-28T08:10:18.372Z</time>
      </trkpt>
      <trkpt lat="68.18397" lon="19.79423">
        <ele>441.366199</ele>
        <time>2020-08-28T08:10:38.682Z</time>
      </trkpt>
      <trkpt lat="68.18271" lon="19.79728">
        <ele>442.096575</ele>
        <time>2020-08-28T08:11:10.137Z</time>
      </trkpt>
      <trkpt lat="68.1814" lon="19.80173">
        <ele>445.214</ele>
        <time>2020-08-28T08:12:01.715Z</time>
      </trkpt>
      <trkpt lat="68.18085" lon="19.80321">
        <ele>446.465084</ele>
        <time>2020-08-28T08:12:18.928Z</time>
      </trkpt>
      <trkpt lat="68.18021" lon="19.80455">
        <ele>446.838295</ele>
        <time>2020-08-28T08:12:34.810Z</time>
      </trkpt>
      <trkpt lat="68.17983" lon="19.80519">
        <ele>447.044553</ele>
        <time>2020-08-28T08:12:42.985Z</time>
      </trkpt>
      <trkpt lat="68.17864" lon="19.80662">
        <ele>447.408924</ele>
        <time>2020-08-28T08:13:06.846Z</time>
      </trkpt>
      <trkpt lat="68.17724" lon="19.80762">
        <ele>447.470428</ele>
        <time>2020-08-28T08:13:33.722Z</time>
      </trkpt>
      <trkpt lat="68.17576" lon="19.80807">
        <ele>447.006331</ele>
        <time>2020-08-28T08:13:59.073Z</time>
      </trkpt>
      <trkpt lat="68.175" lon="19.80803">
        <ele>446.253458</ele>
        <time>2020-08-28T08:14:10.845Z</time>
      </trkpt>
      <trkpt lat="68.17435" lon="19.80784">
        <ele>445.592893</ele>
        <time>2020-08-28T08:14:20.894Z</time>
      </trkpt>
      <trkpt lat="68.1737" lon="19.80751">
        <ele>444.782782</ele>
        <time>2020-08-28T08:14:30.664Z</time>
      </trkpt>
      <trkpt lat="68.17255" lon="19.80641">
        <ele>443.126301</ele>
        <time>2020-08-28T08:14:48.748Z</time>
      </trkpt>
      <trkpt lat="68.172" lon="19.80566">
        <ele>442.379558</ele>
        <time>2020-08-28T08:14:57.999Z</time>
      </trkpt>
      <trkpt lat="68.17148" lon="19.80478">
        <ele>441.665881</ele>
        <time>2020-08-28T08:15:07.377Z</time>
      </trkpt>
      <trkpt lat="68.17085" lon="19.80351">
        <ele>440.817878</ele>
        <time>2020-08-28T08:15:19.435Z</time>
      </trkpt>
      <trkpt lat="68.17" lon="19.80125">
        <ele>440.428348</ele>
        <time>2020-08-28T08:15:38.677Z</time>
      </trkpt>
      <trkpt lat="68.16949" lon="19.79946">
        <ele>440.780634</ele>
        <time>2020-08-28T08:15:54.484Z</time>
      </trkpt>
      <trkpt lat="68.16758" lon="19.79067">
        <ele>448.335087</ele>
        <time>2020-08-28T08:17:28.643Z</time>
      </trkpt>
      <trkpt lat="68.16702" lon="19.78847">
        <ele>450.373524</ele>
        <time>2020-08-28T08:17:53.576Z</time>
      </trkpt>
      <trkpt lat="68.16641" lon="19.7865">
        <ele>451.356525</ele>
        <time>2020-08-28T08:18:14.704Z</time>
      </trkpt>
      <trkpt lat="68.16576" lon="19.78484">
        <ele>451.836058</ele>
        <time>2020-08-28T08:18:31.405Z</time>
      </trkpt>
      <trkpt lat="68.16471" lon="19.78273">
        <ele>451.781245</ele>
        <time>2020-08-28T08:18:52.823Z</time>
      </trkpt>
      <trkpt lat="68.16375" lon="19.78133">
        <ele>452.200461</ele>
        <time>2020-08-28T08:19:12.656Z</time>
      </trkpt>
      <trkpt lat="68.16283" lon="19.78035">
        <ele>453.799507</ele>
        <time>2020-08-28T08:19:35.157Z</time>
      </trkpt>
      <trkpt lat="68.162" lon="19.77965">
        <ele>455.870896</ele>
        <time>2020-08-28T08:19:58.591Z</time>
      </trkpt>
      <trkpt lat="68.15989" lon="19.77828">
        <ele>462.706482</ele>
        <time>2020-08-28T08:21:02.036Z</time>
      </trkpt>
      <trkpt lat="68.15715" lon="19.77705">
        <ele>469.55628</ele>
        <time>2020-08-28T08:22:12.581Z</time>
      </trkpt>
      <trkpt lat="68.15542" lon="19.77657">
        <ele>472.087721</ele>
        <time>2020-08-28T08:22:51.166Z</time>
      </trkpt>
      <trkpt lat="68.15412" lon="19.77636">
        <ele>473.448893</ele>
        <time>2020-08-28T08:23:18.750Z</time>
      </trkpt>
      <trkpt lat="68.15372" lon="19.77632">
        <ele>473.850617</ele>
        <time>2020-08-28T08:23:27.023Z</time>
      </trkpt>
      <trkpt lat="68.15332" lon="19.77634">
        <ele>474.270291</ele>
        <time>2020-08-28T08:23:35.231Z</time>
      </trkpt>
      <trkpt lat="68.15204" lon="19.77688">
        <ele>475.719452</ele>
        <time>2020-08-28T08:24:02.619Z</time>
      </trkpt>
      <trkpt lat="68.15139" lon="19.77731">
        <ele>476.895354</ele>
        <time>2020-08-28T08:24:17.709Z</time>
      </trkpt>
      <trkpt lat="68.15072" lon="19.778">
        <ele>478.531843</ele>
        <time>2020-08-28T08:24:35.669Z</time>
      </trkpt>
      <trkpt lat="68.1504" lon="19.77837">
        <ele>479.324391</ele>
        <time>2020-08-28T08:24:44.663Z</time>
      </trkpt>
      <trkpt lat="68.1502" lon="19.77864">
        <ele>479.828436</ele>
        <time>2020-08-28T08:24:50.485Z</time>
      </trkpt>
      <trkpt lat="68.14991" lon="19.77907">
        <ele>480.662623</ele>
        <time>2020-08-28T08:24:59.949Z</time>
      </trkpt>
      <trkpt lat="68.14896" lon="19.7806">
        <ele>483.678462</ele>
        <time>2020-08-28T08:25:30.638Z</time>
      </trkpt>
      <trkpt lat="68.1488" lon="19.78095">
        <ele>484.255084</ele>
        <time>2020-08-28T08:25:36.495Z</time>
      </trkpt>
      <trkpt lat="68.14856" lon="19.78142">
        <ele>485.059766</ele>
        <time>2020-08-28T08:25:43.594Z</time>
      </trkpt>
      <trkpt lat="68.14793" lon="19.78286">
        <ele>485.691895</ele>
        <time>2020-08-28T08:26:01.946Z</time>
      </trkpt>
      <trkpt lat="68.14699" lon="19.78539">
        <ele>486.270213</ele>
        <time>2020-08-28T08:26:25.828Z</time>
      </trkpt>
      <trkpt lat="68.14261" lon="19.79945">
        <ele>483.369548</ele>
        <time>2020-08-28T08:28:18.812Z</time>
      </trkpt>
      <trkpt lat="68.14153" lon="19.80246">
        <ele>483.669579</ele>
        <time>2020-08-28T08:28:47.765Z</time>
      </trkpt>
      <trkpt lat="68.14107" lon="19.80366">
        <ele>483.784187</ele>
        <time>2020-08-28T08:29:00.163Z</time>
      </trkpt>
      <trkpt lat="68.13999" lon="19.8058">
        <ele>484.006167</ele>
        <time>2020-08-28T08:29:24.822Z</time>
      </trkpt>
      <trkpt lat="68.13873" lon="19.80762">
        <ele>483.773199</ele>
        <time>2020-08-28T08:29:49.297Z</time>
      </trkpt>
      <trkpt lat="68.13716" lon="19.80926">
        <ele>483.56281</ele>
        <time>2020-08-28T08:30:18.372Z</time>
      </trkpt>
      <trkpt lat="68.1354" lon="19.81026">
        <ele>483.863459</ele>
        <time>2020-08-28T08:30:51.564Z</time>
      </trkpt>
      <trkpt lat="68.12809" lon="19.81144">
        <ele>487.676459</ele>
        <time>2020-08-28T08:33:15.011Z</time>
      </trkpt>
      <trkpt lat="68.12638" lon="19.81244">
        <ele>488.171459</ele>
        <time>2020-08-28T08:33:47.562Z</time>
      </trkpt>
      <trkpt lat="68.1247" lon="19.81404">
        <ele>488.494666</ele>
        <time>2020-08-28T08:34:20.334Z</time>
      </trkpt>
      <trkpt lat="68.12301" lon="19.8164">
        <ele>488.75812</ele>
        <time>2020-08-28T08:34:55.358Z</time>
      </trkpt>
      <trkpt lat="68.11887" lon="19.82363">
        <ele>488.956499</ele>
        <time>2020-08-28T08:36:24.060Z</time>
      </trkpt>
      <trkpt lat="68.11577" lon="19.82818">
        <ele>488.772493</ele>
        <time>2020-08-28T08:37:26.794Z</time>
      </trkpt>
      <trkpt lat="68.11558" lon="19.82843">
        <ele>488.754189</ele>
        <time>2020-08-28T08:37:30.485Z</time>
      </trkpt>
      <trkpt lat="68.11202" lon="19.83319">
        <ele>488.234904</ele>
        <time>2020-08-28T08:38:39.565Z</time>
      </trkpt>
      <trkpt lat="68.11007" lon="19.83537">
        <ele>488.110698</ele>
        <time>2020-08-28T08:39:16.882Z</time>
      </trkpt>
      <trkpt lat="68.10658" lon="19.83874">
        <ele>488.124227</ele>
        <time>2020-08-28T08:40:23.204Z</time>
      </trkpt>
      <trkpt lat="68.10443" lon="19.84042">
        <ele>488.349039</ele>
        <time>2020-08-28T08:41:04.067Z</time>
      </trkpt>
      <trkpt lat="68.10207" lon="19.84146">
        <ele>488.754931</ele>
        <time>2020-08-28T08:41:48.175Z</time>
      </trkpt>
      <trkpt lat="68.10013" lon="19.84183">
        <ele>488.95882</ele>
        <time>2020-08-28T08:42:23.339Z</time>
      </trkpt>
      <trkpt lat="68.09774" lon="19.84151">
        <ele>488.999996</ele>
        <time>2020-08-28T08:43:06.175Z</time>
      </trkpt>
      <trkpt lat="68.09521" lon="19.84074">
        <ele>488.94297</ele>
        <time>2020-08-28T08:43:51.455Z</time>
      </trkpt>
      <trkpt lat="68.09289" lon="19.83969">
        <ele>488.657069</ele>
        <time>2020-08-28T08:44:32.695Z</time>
      </trkpt>
      <trkpt lat="68.0909" lon="19.83842">
        <ele>488.240687</ele>
        <time>2020-08-28T08:45:07.669Z</time>
      </trkpt>
      <trkpt lat="68.08701" lon="19.83532">
        <ele>487.936544</ele>
        <time>2020-08-28T08:46:18.760Z</time>
      </trkpt>
      <trkpt lat="68.08481" lon="19.83419">
        <ele>488.440305</ele>
        <time>2020-08-28T08:47:01.062Z</time>
      </trkpt>
      <trkpt lat="68.08255" lon="19.8335">
        <ele>488.786605</ele>
        <time>2020-08-28T08:47:42.922Z</time>
      </trkpt>
      <trkpt lat="68.08055" lon="19.83328">
        <ele>488.638381</ele>
        <time>2020-08-28T08:48:18.201Z</time>
      </trkpt>
      <trkpt lat="68.07757" lon="19.83353">
        <ele>487.868563</ele>
        <time>2020-08-28T08:49:08.937Z</time>
      </trkpt>
      <trkpt lat="68.07716" lon="19.83352">
        <ele>487.744377</ele>
        <time>2020-08-28T08:49:15.797Z</time>
      </trkpt>
      <trkpt lat="68.07691" lon="19.8335">
        <ele>487.66767</ele>
        <time>2020-08-28T08:49:20.038Z</time>
      </trkpt>
      <trkpt lat="68.0761" lon="19.83328">
        <ele>487.450828</ele>
        <time>2020-08-28T08:49:34.018Z</time>
      </trkpt>
      <trkpt lat="68.07526" lon="19.83288">
        <ele>487.251361</ele>
        <time>2020-08-28T08:49:48.531Z</time>
      </trkpt>
      <trkpt lat="68.07443" lon="19.83228">
        <ele>487.063955</ele>
        <time>2020-08-28T08:50:03.376Z</time>
      </trkpt>
      <trkpt lat="68.0737" lon="19.83156">
        <ele>486.907533</ele>
        <time>2020-08-28T08:50:17.022Z</time>
      </trkpt>
      <trkpt lat="68.07176" lon="19.82929">
        <ele>486.442886</ele>
        <time>2020-08-28T08:50:53.323Z</time>
      </trkpt>
      <trkpt lat="68.07133" lon="19.8288">
        <ele>486.336495</ele>
        <time>2020-08-28T08:51:01.310Z</time>
      </trkpt>
      <trkpt lat="68.07022" lon="19.82763">
        <ele>486.072307</ele>
        <time>2020-08-28T08:51:21.638Z</time>
      </trkpt>
      <trkpt lat="68.06906" lon="19.82662">
        <ele>486.003873</ele>
        <time>2020-08-28T08:51:42.941Z</time>
      </trkpt>
      <trkpt lat="68.06755" lon="19.82568">
        <ele>486.186173</ele>
        <time>2020-08-28T08:52:11.457Z</time>
      </trkpt>
      <trkpt lat="68.06707" lon="19.82546">
        <ele>486.31894</ele>
        <time>2020-08-28T08:52:20.676Z</time>
      </trkpt>
      <trkpt lat="68.06659" lon="19.82527">
        <ele>486.452194</ele>
        <time>2020-08-28T08:52:29.927Z</time>
      </trkpt>
      <trkpt lat="68.06556" lon="19.82494">
        <ele>486.487203</ele>
        <time>2020-08-28T08:52:48.976Z</time>
      </trkpt>
      <trkpt lat="68.06364" lon="19.82473">
        <ele>486.070636</ele>
        <time>2020-08-28T08:53:21.831Z</time>
      </trkpt>
      <trkpt lat="68.06146" lon="19.8251">
        <ele>485.137385</ele>
        <time>2020-08-28T08:53:57.638Z</time>
      </trkpt>
      <trkpt lat="68.05957" lon="19.82585">
        <ele>484.943325</ele>
        <time>2020-08-28T08:54:30.668Z</time>
      </trkpt>
      <trkpt lat="68.05423" lon="19.82908">
        <ele>488.386106</ele>
        <time>2020-08-28T08:56:20.462Z</time>
      </trkpt>
      <trkpt lat="68.05166" lon="19.83015">
        <ele>490.201723</ele>
        <time>2020-08-28T08:57:12.349Z</time>
      </trkpt>
      <trkpt lat="68.04928" lon="19.83057">
        <ele>491.977391</ele>
        <time>2020-08-28T08:58:01.878Z</time>
      </trkpt>
      <trkpt lat="68.04724" lon="19.83057">
        <ele>492.350521</ele>
        <time>2020-08-28T08:58:39.667Z</time>
      </trkpt>
      <trkpt lat="68.04458" lon="19.83011">
        <ele>490.917868</ele>
        <time>2020-08-28T08:59:22.462Z</time>
      </trkpt>
      <trkpt lat="68.04252" lon="19.8302">
        <ele>489.78905</ele>
        <time>2020-08-28T08:59:55.911Z</time>
      </trkpt>
      <trkpt lat="68.04028" lon="19.83113">
        <ele>489.489453</ele>
        <time>2020-08-28T09:00:35.295Z</time>
      </trkpt>
      <trkpt lat="68.03345" lon="19.83558">
        <ele>491.715994</ele>
        <time>2020-08-28T09:02:51.708Z</time>
      </trkpt>
      <trkpt lat="68.03107" lon="19.83688">
        <ele>488.952129</ele>
        <time>2020-08-28T09:03:27.531Z</time>
      </trkpt>
      <trkpt lat="68.02876" lon="19.83768">
        <ele>485.296336</ele>
        <time>2020-08-28T09:04:01.319Z</time>
      </trkpt>
      <trkpt lat="68.02675" lon="19.83796">
        <ele>482.630901</ele>
        <time>2020-08-28T09:04:31.460Z</time>
      </trkpt>
      <trkpt lat="68.02456" lon="19.83759">
        <ele>480.53408</ele>
        <time>2020-08-28T09:05:05.443Z</time>
      </trkpt>
      <trkpt lat="68.02313" lon="19.83751">
        <ele>479.814241</ele>
        <time>2020-08-28T09:05:28.897Z</time>
      </trkpt>
      <trkpt lat="68.02298" lon="19.83749">
        <ele>479.80222</ele>
        <time>2020-08-28T09:05:31.506Z</time>
      </trkpt>
      <trkpt lat="68.02029" lon="19.83768">
        <ele>479.881418</ele>
        <time>2020-08-28T09:06:20.874Z</time>
      </trkpt>
      <trkpt lat="68.01819" lon="19.83843">
        <ele>479.390023</ele>
        <time>2020-08-28T09:06:57.579Z</time>
      </trkpt>
      <trkpt lat="68.01571" lon="19.83974">
        <ele>477.189379</ele>
        <time>2020-08-28T09:07:36.684Z</time>
      </trkpt>
      <trkpt lat="68.01331" lon="19.84156">
        <ele>475.760509</ele>
        <time>2020-08-28T09:08:17.185Z</time>
      </trkpt>
      <trkpt lat="68.01069" lon="19.84413">
        <ele>476.033161</ele>
        <time>2020-08-28T09:09:08.760Z</time>
      </trkpt>
      <trkpt lat="68.0089" lon="19.84628">
        <ele>476.367465</ele>
        <time>2020-08-28T09:09:45.277Z</time>
      </trkpt>
      <trkpt lat="68.00668" lon="19.84937">
        <ele>476.335264</ele>
        <time>2020-08-28T09:10:29.669Z</time>
      </trkpt>
      <trkpt lat="68.00461" lon="19.85273">
        <ele>475.874529</ele>
        <time>2020-08-28T09:11:11.197Z</time>
      </trkpt>
      <trkpt lat="68.00263" lon="19.85647">
        <ele>475.498757</ele>
        <time>2020-08-28T09:11:54.181Z</time>
      </trkpt>
      <trkpt lat="68.00088" lon="19.86013">
        <ele>474.298773</ele>
        <time>2020-08-28T09:12:30.967Z</time>
      </trkpt>
      <trkpt lat="67.99847" lon="19.86629">
        <ele>470.062342</ele>
        <time>2020-08-28T09:13:20.814Z</time>
      </trkpt>
      <trkpt lat="67.99756" lon="19.86884">
        <ele>468.293567</ele>
        <time>2020-08-28T09:13:40.399Z</time>
      </trkpt>
      <trkpt lat="67.9962" lon="19.87321">
        <ele>465.668315</ele>
        <time>2020-08-28T09:14:12.427Z</time>
      </trkpt>
      <trkpt lat="67.99575" lon="19.87517">
        <ele>464.705895</ele>
        <time>2020-08-28T09:14:25.665Z</time>
      </trkpt>
      <trkpt lat="67.99548" lon="19.87672">
        <ele>464.221036</ele>
        <time>2020-08-28T09:14:35.793Z</time>
      </trkpt>
      <trkpt lat="67.99523" lon="19.87834">
        <ele>463.726992</ele>
        <time>2020-08-28T09:14:46.333Z</time>
      </trkpt>
      <trkpt lat="67.99511" lon="19.87921">
        <ele>463.464174</ele>
        <time>2020-08-28T09:14:52.037Z</time>
      </trkpt>
      <trkpt lat="67.99487" lon="19.88167">
        <ele>463.064491</ele>
        <time>2020-08-28T09:15:07.897Z</time>
      </trkpt>
      <trkpt lat="67.99474" lon="19.8835">
        <ele>462.789715</ele>
        <time>2020-08-28T09:15:19.658Z</time>
      </trkpt>
      <trkpt lat="67.99469" lon="19.88486">
        <ele>462.593809</ele>
        <time>2020-08-28T09:15:28.290Z</time>
      </trkpt>
      <trkpt lat="67.9947" lon="19.88918">
        <ele>461.992625</ele>
        <time>2020-08-28T09:15:55.479Z</time>
      </trkpt>
      <trkpt lat="67.99488" lon="19.89306">
        <ele>461.439363</ele>
        <time>2020-08-28T09:16:20.104Z</time>
      </trkpt>
      <trkpt lat="67.99494" lon="19.895">
        <ele>461.22273</ele>
        <time>2020-08-28T09:16:32.487Z</time>
      </trkpt>
      <trkpt lat="67.99495" lon="19.89687">
        <ele>461.039052</ele>
        <time>2020-08-28T09:16:44.395Z</time>
      </trkpt>
      <trkpt lat="67.99479" lon="19.90083">
        <ele>460.755793</ele>
        <time>2020-08-28T09:17:10.331Z</time>
      </trkpt>
      <trkpt lat="67.99441" lon="19.90419">
        <ele>460.585488</ele>
        <time>2020-08-28T09:17:33.245Z</time>
      </trkpt>
      <trkpt lat="67.99408" lon="19.90628">
        <ele>460.497158</ele>
        <time>2020-08-28T09:17:48.118Z</time>
      </trkpt>
      <trkpt lat="67.99365" lon="19.90842">
        <ele>460.394361</ele>
        <time>2020-08-28T09:18:04.100Z</time>
      </trkpt>
      <trkpt lat="67.99279" lon="19.91256">
        <ele>460.098832</ele>
        <time>2020-08-28T09:18:35.281Z</time>
      </trkpt>
      <trkpt lat="67.99084" lon="19.92193">
        <ele>458.335703</ele>
        <time>2020-08-28T09:19:42.558Z</time>
      </trkpt>
      <trkpt lat="67.99078" lon="19.92219">
        <ele>458.253165</ele>
        <time>2020-08-28T09:19:44.140Z</time>
      </trkpt>
      <trkpt lat="67.99034" lon="19.92425">
        <ele>457.60703</ele>
        <time>2020-08-28T09:19:57.994Z</time>
      </trkpt>
      <trkpt lat="67.99022" lon="19.92484">
        <ele>457.655968</ele>
        <time>2020-08-28T09:20:01.925Z</time>
      </trkpt>
      <trkpt lat="67.99001" lon="19.92586">
        <ele>457.765526</ele>
        <time>2020-08-28T09:20:09.129Z</time>
      </trkpt>
      <trkpt lat="67.9888" lon="19.93129">
        <ele>459.096337</ele>
        <time>2020-08-28T09:20:57.827Z</time>
      </trkpt>
      <trkpt lat="67.98824" lon="19.93328">
        <ele>459.812033</ele>
        <time>2020-08-28T09:21:17.112Z</time>
      </trkpt>
      <trkpt lat="67.98764" lon="19.93512">
        <ele>460.420841</ele>
        <time>2020-08-28T09:21:35.424Z</time>
      </trkpt>
      <trkpt lat="67.9864" lon="19.93828">
        <ele>461.314103</ele>
        <time>2020-08-28T09:22:08.977Z</time>
      </trkpt>
      <trkpt lat="67.98512" lon="19.94066">
        <ele>461.823094</ele>
        <time>2020-08-28T09:22:38.483Z</time>
      </trkpt>
      <trkpt lat="67.98339" lon="19.94306">
        <ele>462.170433</ele>
        <time>2020-08-28T09:23:14.025Z</time>
      </trkpt>
      <trkpt lat="67.98011" lon="19.94623">
        <ele>462.783544</ele>
        <time>2020-08-28T09:24:17.299Z</time>
      </trkpt>
      <trkpt lat="67.97834" lon="19.94832">
        <ele>464.212937</ele>
        <time>2020-08-28T09:24:56.441Z</time>
      </trkpt>
      <trkpt lat="67.97723" lon="19.94982">
        <ele>465.827389</ele>
        <time>2020-08-28T09:25:24.245Z</time>
      </trkpt>
      <trkpt lat="67.97357" lon="19.95552">
        <ele>472.390101</ele>
        <time>2020-08-28T09:27:02.829Z</time>
      </trkpt>
      <trkpt lat="67.97071" lon="19.96066">
        <ele>474.964692</ele>
        <time>2020-08-28T09:28:11.752Z</time>
      </trkpt>
      <trkpt lat="67.96848" lon="19.96516">
        <ele>475.786526</ele>
        <time>2020-08-28T09:29:04.602Z</time>
      </trkpt>
      <trkpt lat="67.96717" lon="19.96815">
        <ele>475.039449</ele>
        <time>2020-08-28T09:29:32.923Z</time>
      </trkpt>
      <trkpt lat="67.96637" lon="19.97058">
        <ele>474.168682</ele>
        <time>2020-08-28T09:29:52.033Z</time>
      </trkpt>
      <trkpt lat="67.9653" lon="19.97475">
        <ele>473.303834</ele>
        <time>2020-08-28T09:30:23.048Z</time>
      </trkpt>
      <trkpt lat="67.96473" lon="19.9767">
        <ele>473.548742</ele>
        <time>2020-08-28T09:30:40.386Z</time>
      </trkpt>
      <trkpt lat="67.96348" lon="19.9803">
        <ele>474.656509</ele>
        <time>2020-08-28T09:31:17.897Z</time>
      </trkpt>
      <trkpt lat="67.96284" lon="19.98277">
        <ele>475.438727</ele>
        <time>2020-08-28T09:31:40.398Z</time>
      </trkpt>
      <trkpt lat="67.96228" lon="19.98532">
        <ele>475.916498</ele>
        <time>2020-08-28T09:32:01.776Z</time>
      </trkpt>
      <trkpt lat="67.96113" lon="19.99245">
        <ele>476.686557</ele>
        <time>2020-08-28T09:32:56.683Z</time>
      </trkpt>
      <trkpt lat="67.9605" lon="19.99548">
        <ele>476.540501</ele>
        <time>2020-08-28T09:33:19.319Z</time>
      </trkpt>
      <trkpt lat="67.95991" lon="19.99775">
        <ele>475.615769</ele>
        <time>2020-08-28T09:33:35.896Z</time>
      </trkpt>
      <trkpt lat="67.95885" lon="20.00079">
        <ele>473.860216</ele>
        <time>2020-08-28T09:33:59.271Z</time>
      </trkpt>
      <trkpt lat="67.95716" lon="20.0048">
        <ele>471.204322</ele>
        <time>2020-08-28T09:34:32.964Z</time>
      </trkpt>
      <trkpt lat="67.95575" lon="20.00856">
        <ele>470.15119</ele>
        <time>2020-08-28T09:35:06.419Z</time>
      </trkpt>
      <trkpt lat="67.95465" lon="20.012">
        <ele>470.04712</ele>
        <time>2020-08-28T09:35:36.791Z</time>
      </trkpt>
      <trkpt lat="67.95344" lon="20.01625">
        <ele>470.152161</ele>
        <time>2020-08-28T09:36:13.243Z</time>
      </trkpt>
      <trkpt lat="67.95226" lon="20.02104">
        <ele>469.837718</ele>
        <time>2020-08-28T09:36:51.059Z</time>
      </trkpt>
      <trkpt lat="67.94906" lon="20.03549">
        <ele>463.394133</ele>
        <time>2020-08-28T09:38:27.795Z</time>
      </trkpt>
      <trkpt lat="67.94763" lon="20.04067">
        <ele>461.640338</ele>
        <time>2020-08-28T09:39:06.747Z</time>
      </trkpt>
      <trkpt lat="67.94599" lon="20.04613">
        <ele>460.597812</ele>
        <time>2020-08-28T09:39:49.888Z</time>
      </trkpt>
      <trkpt lat="67.94534" lon="20.04788">
        <ele>460.689353</ele>
        <time>2020-08-28T09:40:07.067Z</time>
      </trkpt>
      <trkpt lat="67.94455" lon="20.05002">
        <ele>461.394031</ele>
        <time>2020-08-28T09:40:30.213Z</time>
      </trkpt>
      <trkpt lat="67.94341" lon="20.05257">
        <ele>462.359009</ele>
        <time>2020-08-28T09:41:00.703Z</time>
      </trkpt>
      <trkpt lat="67.94224" lon="20.05451">
        <ele>462.825344</ele>
        <time>2020-08-28T09:41:26.519Z</time>
      </trkpt>
      <trkpt lat="67.94073" lon="20.0565">
        <ele>462.416623</ele>
        <time>2020-08-28T09:41:54.889Z</time>
      </trkpt>
      <trkpt lat="67.93713" lon="20.06029">
        <ele>461.343976</ele>
        <time>2020-08-28T09:43:00.842Z</time>
      </trkpt>
      <trkpt lat="67.93584" lon="20.06187">
        <ele>461.086592</ele>
        <time>2020-08-28T09:43:25.553Z</time>
      </trkpt>
      <trkpt lat="67.93457" lon="20.0638">
        <ele>460.749199</ele>
        <time>2020-08-28T09:43:50.876Z</time>
      </trkpt>
      <trkpt lat="67.93375" lon="20.06516">
        <ele>460.380235</ele>
        <time>2020-08-28T09:44:07.080Z</time>
      </trkpt>
      <trkpt lat="67.93223" lon="20.06796">
        <ele>459.338871</ele>
        <time>2020-08-28T09:44:37.193Z</time>
      </trkpt>
      <trkpt lat="67.93068" lon="20.07138">
        <ele>458.141008</ele>
        <time>2020-08-28T09:45:09.490Z</time>
      </trkpt>
      <trkpt lat="67.92841" lon="20.07638">
        <ele>457.213066</ele>
        <time>2020-08-28T09:46:00.108Z</time>
      </trkpt>
      <trkpt lat="67.92695" lon="20.07917">
        <ele>456.312522</ele>
        <time>2020-08-28T09:46:29.725Z</time>
      </trkpt>
      <trkpt lat="67.92537" lon="20.0816">
        <ele>454.954396</ele>
        <time>2020-08-28T09:46:58.769Z</time>
      </trkpt>
      <trkpt lat="67.92374" lon="20.08365">
        <ele>453.961555</ele>
        <time>2020-08-28T09:47:27.863Z</time>
      </trkpt>
      <trkpt lat="67.92319" lon="20.08436">
        <ele>454.11275</ele>
        <time>2020-08-28T09:47:38.639Z</time>
      </trkpt>
      <trkpt lat="67.92308" lon="20.08452">
        <ele>454.145263</ele>
        <time>2020-08-28T09:47:41.049Z</time>
      </trkpt>
      <trkpt lat="67.92249" lon="20.08523">
        <ele>454.306527</ele>
        <time>2020-08-28T09:47:53.517Z</time>
      </trkpt>
      <trkpt lat="67.91823" lon="20.09063">
        <ele>459.171837</ele>
        <time>2020-08-28T09:49:34.619Z</time>
      </trkpt>
      <trkpt lat="67.91636" lon="20.09342">
        <ele>461.062909</ele>
        <time>2020-08-28T09:50:18.685Z</time>
      </trkpt>
      <trkpt lat="67.914" lon="20.09747">
        <ele>463.042629</ele>
        <time>2020-08-28T09:51:15.330Z</time>
      </trkpt>
      <trkpt lat="67.91086" lon="20.10379">
        <ele>464.540842</ele>
        <time>2020-08-28T09:52:29.920Z</time>
      </trkpt>
      <trkpt lat="67.90963" lon="20.10589">
        <ele>465.188173</ele>
        <time>2020-08-28T09:52:58.019Z</time>
      </trkpt>
      <trkpt lat="67.90785" lon="20.10848">
        <ele>466.514144</ele>
        <time>2020-08-28T09:53:38.386Z</time>
      </trkpt>
      <trkpt lat="67.90456" lon="20.11265">
        <ele>469.698715</ele>
        <time>2020-08-28T09:54:53.794Z</time>
      </trkpt>
      <trkpt lat="67.9027" lon="20.11529">
        <ele>471.711104</ele>
        <time>2020-08-28T09:55:37.644Z</time>
      </trkpt>
      <trkpt lat="67.90072" lon="20.11861">
        <ele>474.133009</ele>
        <time>2020-08-28T09:56:28.147Z</time>
      </trkpt>
      <trkpt lat="67.89534" lon="20.12857">
        <ele>478.372756</ele>
        <time>2020-08-28T09:58:37.840Z</time>
      </trkpt>
      <trkpt lat="67.89415" lon="20.12985">
        <ele>479.245617</ele>
        <time>2020-08-28T09:59:03.863Z</time>
      </trkpt>
      <trkpt lat="67.89334" lon="20.13049">
        <ele>479.801715</ele>
        <time>2020-08-28T09:59:20.949Z</time>
      </trkpt>
      <trkpt lat="67.89072" lon="20.13172">
        <ele>481.152177</ele>
        <time>2020-08-28T10:00:12.718Z</time>
      </trkpt>
      <trkpt lat="67.88925" lon="20.13279">
        <ele>481.761714</ele>
        <time>2020-08-28T10:00:41.486Z</time>
      </trkpt>
      <trkpt lat="67.88854" lon="20.13352">
        <ele>482.32267</ele>
        <time>2020-08-28T10:00:56.299Z</time>
      </trkpt>
      <trkpt lat="67.88773" lon="20.13453">
        <ele>482.985422</ele>
        <time>2020-08-28T10:01:14.784Z</time>
      </trkpt>
      <trkpt lat="67.88682" lon="20.13586">
        <ele>484.184437</ele>
        <time>2020-08-28T10:01:37.314Z</time>
      </trkpt>
      <trkpt lat="67.88599" lon="20.13722">
        <ele>485.315383</ele>
        <time>2020-08-28T10:01:58.810Z</time>
      </trkpt>
      <trkpt lat="67.88519" lon="20.13871">
        <ele>486.24875</ele>
        <time>2020-08-28T10:02:19.761Z</time>
      </trkpt>
      <trkpt lat="67.88401" lon="20.14123">
        <ele>487.419768</ele>
        <time>2020-08-28T10:02:49.767Z</time>
      </trkpt>
      <trkpt lat="67.88337" lon="20.14282">
        <ele>487.969303</ele>
        <time>2020-08-28T10:03:06.868Z</time>
      </trkpt>
      <trkpt lat="67.88285" lon="20.14456">
        <ele>488.792889</ele>
        <time>2020-08-28T10:03:23.964Z</time>
      </trkpt>
      <trkpt lat="67.88248" lon="20.14617">
        <ele>489.523813</ele>
        <time>2020-08-28T10:03:39.149Z</time>
      </trkpt>
      <trkpt lat="67.88231" lon="20.14714">
        <ele>489.964247</ele>
        <time>2020-08-28T10:03:48.088Z</time>
      </trkpt>
      <trkpt lat="67.88134" lon="20.15508">
        <ele>495.007519</ele>
        <time>2020-08-28T10:05:00.455Z</time>
      </trkpt>
      <trkpt lat="67.88108" lon="20.15655">
        <ele>495.989305</ele>
        <time>2020-08-28T10:05:14.919Z</time>
      </trkpt>
      <trkpt lat="67.88071" lon="20.15821">
        <ele>497.089856</ele>
        <time>2020-08-28T10:05:31.848Z</time>
      </trkpt>
      <trkpt lat="67.88061" lon="20.15862">
        <ele>497.374861</ele>
        <time>2020-08-28T10:05:36.366Z</time>
      </trkpt>
      <trkpt lat="67.88001" lon="20.16082">
        <ele>498.561007</ele>
        <time>2020-08-28T10:05:58.383Z</time>
      </trkpt>
      <trkpt lat="67.87901" lon="20.16426">
        <ele>499.248295</ele>
        <time>2020-08-28T10:06:28.908Z</time>
      </trkpt>
      <trkpt lat="67.87863" lon="20.16571">
        <ele>499.34908</ele>
        <time>2020-08-28T10:06:40.853Z</time>
      </trkpt>
      <trkpt lat="67.87837" lon="20.16684">
        <ele>499.424458</ele>
        <time>2020-08-28T10:06:49.942Z</time>
      </trkpt>
      <trkpt lat="67.87829" lon="20.16721">
        <ele>499.449107</ele>
        <time>2020-08-28T10:06:52.920Z</time>
      </trkpt>
      <trkpt lat="67.87818" lon="20.16782">
        <ele>499.487921</ele>
        <time>2020-08-28T10:06:57.697Z</time>
      </trkpt>
      <trkpt lat="67.87789" lon="20.16952">
        <ele>499.778964</ele>
        <time>2020-08-28T10:07:11.016Z</time>
      </trkpt>
      <trkpt lat="67.87761" lon="20.17179">
        <ele>500.16458</ele>
        <time>2020-08-28T10:07:28.513Z</time>
      </trkpt>
      <trkpt lat="67.87741" lon="20.17433">
        <ele>500.753483</ele>
        <time>2020-08-28T10:07:47.813Z</time>
      </trkpt>
      <trkpt lat="67.87734" lon="20.17664">
        <ele>501.326562</ele>
        <time>2020-08-28T10:08:05.319Z</time>
      </trkpt>
      <trkpt lat="67.87734" lon="20.17737">
        <ele>501.518032</ele>
        <time>2020-08-28T10:08:10.912Z</time>
      </trkpt>
      <trkpt lat="67.87734" lon="20.17834">
        <ele>501.802554</ele>
        <time>2020-08-28T10:08:18.364Z</time>
      </trkpt>
      <trkpt lat="67.87735" lon="20.17918">
        <ele>502.047907</ele>
        <time>2020-08-28T10:08:24.800Z</time>
      </trkpt>
      <trkpt lat="67.87737" lon="20.18031">
        <ele>502.379729</ele>
        <time>2020-08-28T10:08:33.552Z</time>
      </trkpt>
      <trkpt lat="67.87737" lon="20.18381">
        <ele>503.095391</ele>
        <time>2020-08-28T10:09:00.230Z</time>
      </trkpt>
      <trkpt lat="67.87728" lon="20.18542">
        <ele>503.308689</ele>
        <time>2020-08-28T10:09:11.445Z</time>
      </trkpt>
      <trkpt lat="67.87708" lon="20.18762">
        <ele>503.51235</ele>
        <time>2020-08-28T10:09:26.656Z</time>
      </trkpt>
      <trkpt lat="67.87707" lon="20.18764">
        <ele>503.513484</ele>
        <time>2020-08-28T10:09:26.802Z</time>
      </trkpt>
      <trkpt lat="67.87705" lon="20.18762">
        <ele>503.515873</ele>
        <time>2020-08-28T10:09:27.137Z</time>
      </trkpt>
      <trkpt lat="67.87692" lon="20.18767">
        <ele>503.529588</ele>
        <time>2020-08-28T10:09:29.549Z</time>
      </trkpt>
      <trkpt lat="67.87682" lon="20.18791">
        <ele>503.543327</ele>
        <time>2020-08-28T10:09:32.075Z</time>
      </trkpt>
      <trkpt lat="67.87681" lon="20.18802">
        <ele>503.547975</ele>
        <time>2020-08-28T10:09:32.829Z</time>
      </trkpt>
      <trkpt lat="67.8767" lon="20.18801">
        <ele>503.559504</ele>
        <time>2020-08-28T10:09:34.651Z</time>
      </trkpt>
      <trkpt lat="67.87627" lon="20.1887">
        <ele>503.611072</ele>
        <time>2020-08-28T10:09:43.973Z</time>
      </trkpt>
      <trkpt lat="67.87616" lon="20.1891">
        <ele>503.63065</ele>
        <time>2020-08-28T10:09:47.378Z</time>
      </trkpt>
      <trkpt lat="67.87596" lon="20.19051">
        <ele>503.658776</ele>
        <time>2020-08-28T10:09:58.261Z</time>
      </trkpt>
      <trkpt lat="67.87572" lon="20.19265">
        <ele>503.657055</ele>
        <time>2020-08-28T10:10:13.404Z</time>
      </trkpt>
      <trkpt lat="67.8756" lon="20.19346">
        <ele>503.65638</ele>
        <time>2020-08-28T10:10:19.232Z</time>
      </trkpt>
      <trkpt lat="67.87528" lon="20.19249">
        <ele>503.627032</ele>
        <time>2020-08-28T10:10:27.725Z</time>
      </trkpt>
      <trkpt lat="67.87501" lon="20.19186">
        <ele>503.555867</ele>
        <time>2020-08-28T10:10:34.056Z</time>
      </trkpt>
      <trkpt lat="67.87475" lon="20.19155">
        <ele>503.497756</ele>
        <time>2020-08-28T10:10:39.321Z</time>
      </trkpt>
      <trkpt lat="67.87404" lon="20.19167">
        <ele>503.356044</ele>
        <time>2020-08-28T10:10:51.737Z</time>
      </trkpt>
      <trkpt lat="67.87365" lon="20.19246">
        <ele>503.341897</ele>
        <time>2020-08-28T10:11:00.876Z</time>
      </trkpt>
      <trkpt lat="67.87348" lon="20.19275">
        <ele>503.390756</ele>
        <time>2020-08-28T10:11:04.886Z</time>
      </trkpt>
      <trkpt lat="67.87319" lon="20.19328">
        <ele>503.474573</ele>
        <time>2020-08-28T10:11:11.772Z</time>
      </trkpt>
      <trkpt lat="67.87317" lon="20.19331">
        <ele>503.480101</ele>
        <time>2020-08-28T10:11:12.210Z</time>
      </trkpt>
      <trkpt lat="67.87278" lon="20.19399">
        <ele>503.591364</ele>
        <time>2020-08-28T10:11:21.505Z</time>
      </trkpt>
      <trkpt lat="67.87176" lon="20.19545">
        <ele>503.653064</ele>
        <time>2020-08-28T10:11:44.040Z</time>
      </trkpt>
      <trkpt lat="67.87035" lon="20.19748">
        <ele>503.27926</ele>
        <time>2020-08-28T10:12:12.350Z</time>
      </trkpt>
      <trkpt lat="67.86989" lon="20.19809">
        <ele>502.988142</ele>
        <time>2020-08-28T10:12:21.053Z</time>
      </trkpt>
      <trkpt lat="67.86916" lon="20.19896">
        <ele>502.532999</ele>
        <time>2020-08-28T10:12:34.524Z</time>
      </trkpt>
      <trkpt lat="67.86854" lon="20.1996">
        <ele>502.479222</ele>
        <time>2020-08-28T10:12:45.791Z</time>
      </trkpt>
      <trkpt lat="67.86851" lon="20.19963">
        <ele>502.478691</ele>
        <time>2020-08-28T10:12:46.431Z</time>
      </trkpt>
      <trkpt lat="67.86822" lon="20.19986">
        <ele>502.474506</ele>
        <time>2020-08-28T10:12:51.915Z</time>
      </trkpt>
      <trkpt lat="67.86818" lon="20.19965">
        <ele>502.473297</ele>
        <time>2020-08-28T10:12:53.895Z</time>
      </trkpt>
      <trkpt lat="67.86757" lon="20.2003">
        <ele>502.4643</ele>
        <time>2020-08-28T10:13:05.857Z</time>
      </trkpt>
      <trkpt lat="67.86747" lon="20.20041">
        <ele>502.462773</ele>
        <time>2020-08-28T10:13:07.945Z</time>
      </trkpt>
      <trkpt lat="67.86739" lon="20.20062">
        <ele>502.657858</ele>
        <time>2020-08-28T10:13:10.373Z</time>
      </trkpt>
      <trkpt lat="67.86725" lon="20.20099">
        <ele>503.089362</ele>
        <time>2020-08-28T10:13:14.551Z</time>
      </trkpt>
      <trkpt lat="67.86721" lon="20.20138">
        <ele>503.434231</ele>
        <time>2020-08-28T10:13:18.501Z</time>
      </trkpt>
      <trkpt lat="67.86714" lon="20.2015">
        <ele>503.602242</ele>
        <time>2020-08-28T10:13:20.105Z</time>
      </trkpt>
      <trkpt lat="67.86706" lon="20.20155">
        <ele>503.797981</ele>
        <time>2020-08-28T10:13:22.070Z</time>
      </trkpt>
      <trkpt lat="67.86697" lon="20.20157">
        <ele>503.984936</ele>
        <time>2020-08-28T10:13:24.332Z</time>
      </trkpt>
      <trkpt lat="67.86663" lon="20.20167">
        <ele>504.756003</ele>
        <time>2020-08-28T10:13:32.966Z</time>
      </trkpt>
      <trkpt lat="67.86635" lon="20.20209">
        <ele>505.471815</ele>
        <time>2020-08-28T10:13:41.581Z</time>
      </trkpt>
      <trkpt lat="67.8663" lon="20.20217">
        <ele>505.584875</ele>
        <time>2020-08-28T10:13:43.279Z</time>
      </trkpt>
      <trkpt lat="67.86629" lon="20.20233">
        <ele>505.722763</ele>
        <time>2020-08-28T10:13:45.144Z</time>
      </trkpt>
      <trkpt lat="67.86629" lon="20.20235">
        <ele>505.73683</ele>
        <time>2020-08-28T10:13:45.314Z</time>
      </trkpt>
      <trkpt lat="67.8663" lon="20.20251">
        <ele>505.876685</ele>
        <time>2020-08-28T10:13:47.036Z</time>
      </trkpt>
      <trkpt lat="67.86631" lon="20.20278">
        <ele>506.101351</ele>
        <time>2020-08-28T10:13:49.685Z</time>
      </trkpt>
      <trkpt lat="67.86631" lon="20.2029">
        <ele>506.200682</ele>
        <time>2020-08-28T10:13:50.840Z</time>
      </trkpt>
      <trkpt lat="67.86633" lon="20.20315">
        <ele>506.416549</ele>
        <time>2020-08-28T10:13:54.038Z</time>
      </trkpt>
      <trkpt lat="67.86645" lon="20.20366">
        <ele>507.142653</ele>
        <time>2020-08-28T10:14:00.061Z</time>
      </trkpt>
      <trkpt lat="67.86646" lon="20.20395">
        <ele>507.507585</ele>
        <time>2020-08-28T10:14:03.450Z</time>
      </trkpt>
      <trkpt lat="67.86644" lon="20.20415">
        <ele>507.764524</ele>
        <time>2020-08-28T10:14:05.766Z</time>
      </trkpt>
      <trkpt lat="67.86636" lon="20.20431">
        <ele>508.106438</ele>
        <time>2020-08-28T10:14:08.614Z</time>
      </trkpt>
      <trkpt lat="67.86633" lon="20.20467">
        <ele>508.560866</ele>
        <time>2020-08-28T10:14:12.301Z</time>
      </trkpt>
      <trkpt lat="67.86642" lon="20.20526">
        <ele>509.343915</ele>
        <time>2020-08-28T10:14:19.464Z</time>
      </trkpt>
      <trkpt lat="67.86607" lon="20.20566">
        <ele>510.613051</ele>
        <time>2020-08-28T10:14:30.799Z</time>
      </trkpt>
      <trkpt lat="67.86464" lon="20.20722">
        <ele>514.995295</ele>
        <time>2020-08-28T10:15:12.888Z</time>
      </trkpt>
      <trkpt lat="67.86456" lon="20.20741">
        <ele>515.280764</ele>
        <time>2020-08-28T10:15:15.794Z</time>
      </trkpt>
      <trkpt lat="67.86459" lon="20.20795">
        <ele>515.81464</ele>
        <time>2020-08-28T10:15:20.365Z</time>
      </trkpt>
      <trkpt lat="67.86465" lon="20.20842">
        <ele>516.303419</ele>
        <time>2020-08-28T10:15:25.224Z</time>
      </trkpt>
      <trkpt lat="67.86409" lon="20.20905">
        <ele>518.032373</ele>
        <time>2020-08-28T10:15:40.215Z</time>
      </trkpt>
      <trkpt lat="67.86398" lon="20.20917">
        <ele>518.366271</ele>
        <time>2020-08-28T10:15:43.181Z</time>
      </trkpt>
      <trkpt lat="67.86377" lon="20.20945">
        <ele>519.09016</ele>
        <time>2020-08-28T10:15:49.545Z</time>
      </trkpt>
      <trkpt lat="67.8637" lon="20.20957">
        <ele>519.333634</ele>
        <time>2020-08-28T10:15:51.698Z</time>
      </trkpt>
      <trkpt lat="67.86363" lon="20.20969">
        <ele>519.590962</ele>
        <time>2020-08-28T10:15:53.933Z</time>
      </trkpt>
      <trkpt lat="67.86319" lon="20.21079">
        <ele>521.389409</ele>
        <time>2020-08-28T10:16:10.501Z</time>
      </trkpt>
      <trkpt lat="67.86313" lon="20.21102">
        <ele>521.710499</ele>
        <time>2020-08-28T10:16:13.496Z</time>
      </trkpt>
      <trkpt lat="67.86308" lon="20.21123">
        <ele>521.990379</ele>
        <time>2020-08-28T10:16:16.900Z</time>
      </trkpt>
      <trkpt lat="67.86291" lon="20.21253">
        <ele>524.066648</ele>
        <time>2020-08-28T10:16:32.441Z</time>
      </trkpt>
      <trkpt lat="67.86298" lon="20.2132">
        <ele>525.230179</ele>
        <time>2020-08-28T10:16:41.155Z</time>
      </trkpt>
      <trkpt lat="67.86327" lon="20.21464">
        <ele>527.959189</ele>
        <time>2020-08-28T10:17:01.387Z</time>
      </trkpt>
      <trkpt lat="67.86331" lon="20.21487">
        <ele>528.392454</ele>
        <time>2020-08-28T10:17:04.836Z</time>
      </trkpt>
      <trkpt lat="67.86334" lon="20.21503">
        <ele>528.691573</ele>
        <time>2020-08-28T10:17:06.931Z</time>
      </trkpt>
      <trkpt lat="67.86329" lon="20.21507">
        <ele>528.936972</ele>
        <time>2020-08-28T10:17:08.803Z</time>
      </trkpt>
      <trkpt lat="67.8628" lon="20.21555">
        <ele>531.122992</ele>
        <time>2020-08-28T10:17:25.528Z</time>
      </trkpt>
      <trkpt lat="67.86275" lon="20.2156">
        <ele>531.296481</ele>
        <time>2020-08-28T10:17:26.997Z</time>
      </trkpt>
      <trkpt lat="67.86272" lon="20.21564">
        <ele>531.442674</ele>
        <time>2020-08-28T10:17:28.324Z</time>
      </trkpt>
      <trkpt lat="67.86234" lon="20.21599">
        <ele>532.902526</ele>
        <time>2020-08-28T10:17:41.164Z</time>
      </trkpt>
      <trkpt lat="67.86228" lon="20.21606">
        <ele>533.142997</ele>
        <time>2020-08-28T10:17:43.451Z</time>
      </trkpt>
      <trkpt lat="67.86223" lon="20.21611">
        <ele>533.310496</ele>
        <time>2020-08-28T10:17:45.364Z</time>
      </trkpt>
      <trkpt lat="67.86159" lon="20.21672">
        <ele>535.798712</ele>
        <time>2020-08-28T10:18:04.072Z</time>
      </trkpt>
      <trkpt lat="67.86156" lon="20.21676">
        <ele>535.934191</ele>
        <time>2020-08-28T10:18:05.599Z</time>
      </trkpt>
      <trkpt lat="67.86146" lon="20.21689">
        <ele>536.315112</ele>
        <time>2020-08-28T10:18:08.140Z</time>
      </trkpt>
      <trkpt lat="67.86135" lon="20.21708">
        <ele>536.816402</ele>
        <time>2020-08-28T10:18:11.454Z</time>
      </trkpt>
      <trkpt lat="67.86129" lon="20.21721">
        <ele>537.031139</ele>
        <time>2020-08-28T10:18:13.599Z</time>
      </trkpt>
      <trkpt lat="67.8608" lon="20.21887">
        <ele>538.371598</ele>
        <time>2020-08-28T10:18:33.885Z</time>
      </trkpt>
      <trkpt lat="67.86029" lon="20.22051">
        <ele>539.718183</ele>
        <time>2020-08-28T10:18:51.548Z</time>
      </trkpt>
      <trkpt lat="67.86024" lon="20.22041">
        <ele>539.831025</ele>
        <time>2020-08-28T10:18:52.834Z</time>
      </trkpt>
      <trkpt lat="67.86023" lon="20.22044">
        <ele>539.850264</ele>
        <time>2020-08-28T10:18:53.054Z</time>
      </trkpt>
      <trkpt lat="67.86022" lon="20.22046">
        <ele>539.871055</ele>
        <time>2020-08-28T10:18:53.289Z</time>
      </trkpt>
      <trkpt lat="67.86017" lon="20.22036">
        <ele>539.984661</ele>
        <time>2020-08-28T10:18:54.576Z</time>
      </trkpt>
      <trkpt lat="67.85973" lon="20.22176">
        <ele>540.303494</ele>
        <time>2020-08-28T10:19:15.948Z</time>
      </trkpt>
      <trkpt lat="67.85945" lon="20.22262">
        <ele>540.4841</ele>
        <time>2020-08-28T10:19:28.948Z</time>
      </trkpt>
      <trkpt lat="67.85939" lon="20.22267">
        <ele>540.511022</ele>
        <time>2020-08-28T10:19:30.900Z</time>
      </trkpt>
      <trkpt lat="67.85936" lon="20.2228">
        <ele>540.536181</ele>
        <time>2020-08-28T10:19:32.782Z</time>
      </trkpt>
      <trkpt lat="67.85932" lon="20.22294">
        <ele>540.563759</ele>
        <time>2020-08-28T10:19:34.368Z</time>
      </trkpt>
      <trkpt lat="67.8592" lon="20.2234">
        <ele>540.655309</ele>
        <time>2020-08-28T10:19:39.541Z</time>
      </trkpt>
      <trkpt lat="67.85896" lon="20.22352">
        <ele>540.758517</ele>
        <time>2020-08-28T10:19:45.589Z</time>
      </trkpt>
      <trkpt lat="67.85894" lon="20.22372">
        <ele>540.782087</ele>
        <time>2020-08-28T10:19:47.415Z</time>
      </trkpt>
      <trkpt lat="67.85892" lon="20.22401">
        <ele>540.749038</ele>
        <time>2020-08-28T10:19:50.186Z</time>
      </trkpt>
      <trkpt lat="67.85894" lon="20.22411">
        <ele>540.736141</ele>
        <time>2020-08-28T10:19:51.264Z</time>
      </trkpt>
      <trkpt lat="67.85894" lon="20.22422">
        <ele>540.723152</ele>
        <time>2020-08-28T10:19:52.369Z</time>
      </trkpt>
      <trkpt lat="67.85894" lon="20.22439">
        <ele>540.703957</ele>
        <time>2020-08-28T10:19:54.024Z</time>
      </trkpt>
      <trkpt lat="67.85878" lon="20.22521">
        <ele>540.601217</ele>
        <time>2020-08-28T10:20:02.390Z</time>
      </trkpt>
      <trkpt lat="67.85867" lon="20.22568">
        <ele>540.53855</ele>
        <time>2020-08-28T10:20:07.300Z</time>
      </trkpt>
      <trkpt lat="67.85856" lon="20.22612">
        <ele>540.479278</ele>
        <time>2020-08-28T10:20:12.033Z</time>
      </trkpt>
      <trkpt lat="67.85831" lon="20.22717">
        <ele>540.339143</ele>
        <time>2020-08-28T10:20:22.602Z</time>
      </trkpt>
      <trkpt lat="67.8582" lon="20.2276">
        <ele>540.280953</ele>
        <time>2020-08-28T10:20:26.801Z</time>
      </trkpt>
      <trkpt lat="67.85818" lon="20.22751">
        <ele>540.269889</ele>
        <time>2020-08-28T10:20:27.403Z</time>
      </trkpt>
      <trkpt lat="67.85815" lon="20.22749">
        <ele>540.261746</ele>
        <time>2020-08-28T10:20:27.837Z</time>
      </trkpt>
      <trkpt lat="67.85813" lon="20.22765">
        <ele>540.197515</ele>
        <time>2020-08-28T10:20:28.822Z</time>
      </trkpt>
      <trkpt lat="67.85708" lon="20.22697">
        <ele>537.292187</ele>
        <time>2020-08-28T10:20:44.463Z</time>
      </trkpt>
      <trkpt lat="67.85655" lon="20.22669">
        <ele>535.832113</ele>
        <time>2020-08-28T10:20:54.046Z</time>
      </trkpt>
      <trkpt lat="67.85634" lon="20.22656">
        <ele>535.417623</ele>
        <time>2020-08-28T10:20:57.748Z</time>
      </trkpt>
      <trkpt lat="67.85621" lon="20.22645">
        <ele>535.417623</ele>
        <time>2020-08-28T10:21:00.042Z</time>
      </trkpt>
      <trkpt lat="67.85612" lon="20.22649">
        <ele>535.417623</ele>
        <time>2020-08-28T10:21:01.570Z</time>
      </trkpt>
      <trkpt lat="67.85585" lon="20.22635">
        <ele>535.417623</ele>
        <time>2020-08-28T10:21:06.630Z</time>
      </trkpt>
      <trkpt lat="67.85582" lon="20.22633">
        <ele>535.417623</ele>
        <time>2020-08-28T10:21:07.040Z</time>
      </trkpt>
      <trkpt lat="67.85564" lon="20.22621">
        <ele>535.417623</ele>
        <time>2020-08-28T10:21:10.313Z</time>
      </trkpt>
      <trkpt lat="67.85549" lon="20.2261">
        <ele>535.417623</ele>
        <time>2020-08-28T10:21:13.194Z</time>
      </trkpt>
      <trkpt lat="67.85525" lon="20.22592">
        <ele>535.417623</ele>
        <time>2020-08-28T10:21:17.701Z</time>
      </trkpt>
      <trkpt lat="67.85521" lon="20.22589">
        <ele>535.417623</ele>
        <time>2020-08-28T10:21:20.631Z</time>
      </trkpt>
      <trkpt lat="67.85515" lon="20.22584">
        <ele>535.417623</ele>
        <time>2020-08-28T10:21:24.801Z</time>
      </trkpt>
      <trkpt lat="67.85518" lon="20.22564">
        <ele>535.417623</ele>
        <time>2020-08-28T10:21:30.349Z</time>
      </trkpt>
    </trkseg>
  </trk>
  <trk>
    <name><![CDATA[7bis_Kiruna-Stockholm: 1600km]]></name>
    <trkseg>
      <trkpt lat="67.85515" lon="20.22584">
        <ele>532.621456</ele>
        <time>2020-08-27T10:37:45.610Z</time>
      </trkpt>
      <trkpt lat="67.85515" lon="20.22584">
        <ele>532.621456</ele>
        <time>2020-08-27T10:37:45.667Z</time>
      </trkpt>
      <trkpt lat="67.85521" lon="20.22589">
        <ele>532.621456</ele>
        <time>2020-08-27T10:37:49.837Z</time>
      </trkpt>
      <trkpt lat="67.85525" lon="20.22592">
        <ele>532.621456</ele>
        <time>2020-08-27T10:37:52.767Z</time>
      </trkpt>
      <trkpt lat="67.85549" lon="20.2261">
        <ele>532.621456</ele>
        <time>2020-08-27T10:38:00.415Z</time>
      </trkpt>
      <trkpt lat="67.85564" lon="20.22621">
        <ele>532.621456</ele>
        <time>2020-08-27T10:38:05.704Z</time>
      </trkpt>
      <trkpt lat="67.85582" lon="20.22633">
        <ele>532.621456</ele>
        <time>2020-08-27T10:38:10.955Z</time>
      </trkpt>
      <trkpt lat="67.85585" lon="20.22635">
        <ele>532.621456</ele>
        <time>2020-08-27T10:38:12.285Z</time>
      </trkpt>
      <trkpt lat="67.85612" lon="20.22649">
        <ele>532.742413</ele>
        <time>2020-08-27T10:38:20.052Z</time>
      </trkpt>
      <trkpt lat="67.85621" lon="20.22645">
        <ele>532.847951</ele>
        <time>2020-08-27T10:38:23.271Z</time>
      </trkpt>
      <trkpt lat="67.85618" lon="20.227">
        <ele>533.088601</ele>
        <time>2020-08-27T10:38:27.788Z</time>
      </trkpt>
      <trkpt lat="67.85612" lon="20.22776">
        <ele>533.422303</ele>
        <time>2020-08-27T10:38:34.092Z</time>
      </trkpt>
      <trkpt lat="67.85608" lon="20.22848">
        <ele>533.733797</ele>
        <time>2020-08-27T10:38:40.406Z</time>
      </trkpt>
      <trkpt lat="67.85538" lon="20.22818">
        <ele>534.533844</ele>
        <time>2020-08-27T10:38:54.385Z</time>
      </trkpt>
      <trkpt lat="67.85503" lon="20.22804">
        <ele>534.893407</ele>
        <time>2020-08-27T10:39:01.124Z</time>
      </trkpt>
      <trkpt lat="67.85494" lon="20.22799">
        <ele>534.979798</ele>
        <time>2020-08-27T10:39:02.627Z</time>
      </trkpt>
      <trkpt lat="67.85492" lon="20.22826">
        <ele>535.076707</ele>
        <time>2020-08-27T10:39:05.092Z</time>
      </trkpt>
      <trkpt lat="67.85483" lon="20.22949">
        <ele>535.509463</ele>
        <time>2020-08-27T10:39:13.965Z</time>
      </trkpt>
      <trkpt lat="67.85481" lon="20.22978">
        <ele>535.612727</ele>
        <time>2020-08-27T10:39:15.950Z</time>
      </trkpt>
      <trkpt lat="67.85473" lon="20.23095">
        <ele>536.027556</ele>
        <time>2020-08-27T10:39:25.726Z</time>
      </trkpt>
      <trkpt lat="67.8547" lon="20.2315">
        <ele>536.21798</ele>
        <time>2020-08-27T10:39:30.653Z</time>
      </trkpt>
      <trkpt lat="67.8547" lon="20.23176">
        <ele>536.310508</ele>
        <time>2020-08-27T10:39:32.634Z</time>
      </trkpt>
      <trkpt lat="67.8547" lon="20.23196">
        <ele>536.41203</ele>
        <time>2020-08-27T10:39:34.722Z</time>
      </trkpt>
      <trkpt lat="67.85476" lon="20.23293">
        <ele>536.988554</ele>
        <time>2020-08-27T10:39:43.968Z</time>
      </trkpt>
      <trkpt lat="67.85483" lon="20.23343">
        <ele>537.299994</ele>
        <time>2020-08-27T10:39:48.835Z</time>
      </trkpt>
      <trkpt lat="67.85469" lon="20.23354">
        <ele>537.515103</ele>
        <time>2020-08-27T10:39:52.250Z</time>
      </trkpt>
      <trkpt lat="67.8547" lon="20.23366">
        <ele>537.59094</ele>
        <time>2020-08-27T10:39:53.399Z</time>
      </trkpt>
      <trkpt lat="67.8547" lon="20.23367">
        <ele>537.594797</ele>
        <time>2020-08-27T10:39:53.558Z</time>
      </trkpt>
      <trkpt lat="67.85464" lon="20.23419">
        <ele>537.910372</ele>
        <time>2020-08-27T10:39:58.336Z</time>
      </trkpt>
      <trkpt lat="67.85462" lon="20.23439">
        <ele>538.037255</ele>
        <time>2020-08-27T10:40:00.321Z</time>
      </trkpt>
      <trkpt lat="67.85458" lon="20.23461">
        <ele>538.184419</ele>
        <time>2020-08-27T10:40:02.556Z</time>
      </trkpt>
      <trkpt lat="67.85448" lon="20.23509">
        <ele>538.506117</ele>
        <time>2020-08-27T10:40:07.284Z</time>
      </trkpt>
      <trkpt lat="67.85442" lon="20.23539">
        <ele>538.703673</ele>
        <time>2020-08-27T10:40:10.212Z</time>
      </trkpt>
      <trkpt lat="67.85435" lon="20.23553">
        <ele>538.831816</ele>
        <time>2020-08-27T10:40:12.120Z</time>
      </trkpt>
      <trkpt lat="67.85438" lon="20.23563">
        <ele>538.910232</ele>
        <time>2020-08-27T10:40:15.609Z</time>
      </trkpt>
      <trkpt lat="67.85424" lon="20.23598">
        <ele>539.148649</ele>
        <time>2020-08-27T10:40:19.522Z</time>
      </trkpt>
      <trkpt lat="67.85393" lon="20.23682">
        <ele>539.233845</ele>
        <time>2020-08-27T10:40:29.062Z</time>
      </trkpt>
      <trkpt lat="67.85372" lon="20.23744">
        <ele>539.293458</ele>
        <time>2020-08-27T10:40:35.356Z</time>
      </trkpt>
      <trkpt lat="67.85364" lon="20.23768">
        <ele>539.315801</ele>
        <time>2020-08-27T10:40:37.713Z</time>
      </trkpt>
      <trkpt lat="67.85367" lon="20.23777">
        <ele>539.323944</ele>
        <time>2020-08-27T10:40:38.568Z</time>
      </trkpt>
      <trkpt lat="67.85373" lon="20.23795">
        <ele>539.34124</ele>
        <time>2020-08-27T10:40:40.213Z</time>
      </trkpt>
      <trkpt lat="67.85369" lon="20.2381">
        <ele>539.354542</ele>
        <time>2020-08-27T10:40:41.454Z</time>
      </trkpt>
      <trkpt lat="67.85366" lon="20.23813">
        <ele>539.361461</ele>
        <time>2020-08-27T10:40:42.134Z</time>
      </trkpt>
      <trkpt lat="67.85344" lon="20.23934">
        <ele>539.458153</ele>
        <time>2020-08-27T10:40:51.347Z</time>
      </trkpt>
      <trkpt lat="67.85343" lon="20.2395">
        <ele>539.469296</ele>
        <time>2020-08-27T10:40:52.419Z</time>
      </trkpt>
      <trkpt lat="67.85339" lon="20.23985">
        <ele>539.355091</ele>
        <time>2020-08-27T10:40:54.667Z</time>
      </trkpt>
      <trkpt lat="67.85317" lon="20.24121">
        <ele>538.289579</ele>
        <time>2020-08-27T10:41:03.771Z</time>
      </trkpt>
      <trkpt lat="67.85314" lon="20.24122">
        <ele>538.237525</ele>
        <time>2020-08-27T10:41:04.192Z</time>
      </trkpt>
      <trkpt lat="67.85311" lon="20.24135">
        <ele>538.135143</ele>
        <time>2020-08-27T10:41:04.977Z</time>
      </trkpt>
      <trkpt lat="67.85293" lon="20.24261">
        <ele>537.165264</ele>
        <time>2020-08-27T10:41:12.523Z</time>
      </trkpt>
      <trkpt lat="67.85286" lon="20.24253">
        <ele>537.013857</ele>
        <time>2020-08-27T10:41:13.658Z</time>
      </trkpt>
      <trkpt lat="67.85282" lon="20.24283">
        <ele>536.791157</ele>
        <time>2020-08-27T10:41:15.327Z</time>
      </trkpt>
      <trkpt lat="67.85274" lon="20.24338">
        <ele>536.363214</ele>
        <time>2020-08-27T10:41:18.464Z</time>
      </trkpt>
      <trkpt lat="67.85265" lon="20.24395">
        <ele>535.769491</ele>
        <time>2020-08-27T10:41:21.645Z</time>
      </trkpt>
      <trkpt lat="67.85259" lon="20.24444">
        <ele>534.979146</ele>
        <time>2020-08-27T10:41:24.349Z</time>
      </trkpt>
      <trkpt lat="67.85253" lon="20.24487">
        <ele>534.298248</ele>
        <time>2020-08-27T10:41:26.612Z</time>
      </trkpt>
      <trkpt lat="67.85236" lon="20.2462">
        <ele>532.17532</ele>
        <time>2020-08-27T10:41:33.688Z</time>
      </trkpt>
      <trkpt lat="67.85232" lon="20.24657">
        <ele>531.581057</ele>
        <time>2020-08-27T10:41:35.659Z</time>
      </trkpt>
      <trkpt lat="67.85222" lon="20.24737">
        <ele>530.31576</ele>
        <time>2020-08-27T10:41:39.700Z</time>
      </trkpt>
      <trkpt lat="67.85194" lon="20.24973">
        <ele>525.988048</ele>
        <time>2020-08-27T10:41:51.663Z</time>
      </trkpt>
      <trkpt lat="67.85185" lon="20.25035">
        <ele>524.729472</ele>
        <time>2020-08-27T10:41:55.025Z</time>
      </trkpt>
      <trkpt lat="67.85185" lon="20.25039">
        <ele>524.647822</ele>
        <time>2020-08-27T10:41:55.198Z</time>
      </trkpt>
      <trkpt lat="67.85182" lon="20.25058">
        <ele>524.264439</ele>
        <time>2020-08-27T10:41:56.123Z</time>
      </trkpt>
      <trkpt lat="67.85158" lon="20.25179">
        <ele>521.675932</ele>
        <time>2020-08-27T10:42:02.730Z</time>
      </trkpt>
      <trkpt lat="67.85153" lon="20.25203">
        <ele>521.15256</ele>
        <time>2020-08-27T10:42:04.115Z</time>
      </trkpt>
      <trkpt lat="67.85152" lon="20.25206">
        <ele>521.078148</ele>
        <time>2020-08-27T10:42:04.283Z</time>
      </trkpt>
      <trkpt lat="67.85144" lon="20.25245">
        <ele>520.234503</ele>
        <time>2020-08-27T10:42:06.400Z</time>
      </trkpt>
      <trkpt lat="67.85117" lon="20.25358">
        <ele>517.418314</ele>
        <time>2020-08-27T10:42:12.584Z</time>
      </trkpt>
      <trkpt lat="67.8511" lon="20.25386">
        <ele>516.683155</ele>
        <time>2020-08-27T10:42:14.129Z</time>
      </trkpt>
      <trkpt lat="67.85115" lon="20.25396">
        <ele>516.353603</ele>
        <time>2020-08-27T10:42:14.969Z</time>
      </trkpt>
      <trkpt lat="67.8511" lon="20.25416">
        <ele>515.834025</ele>
        <time>2020-08-27T10:42:15.994Z</time>
      </trkpt>
      <trkpt lat="67.85063" lon="20.25557">
        <ele>511.754203</ele>
        <time>2020-08-27T10:42:24.406Z</time>
      </trkpt>
      <trkpt lat="67.8506" lon="20.25569">
        <ele>511.463022</ele>
        <time>2020-08-27T10:42:24.975Z</time>
      </trkpt>
      <trkpt lat="67.85056" lon="20.2559">
        <ele>510.931447</ele>
        <time>2020-08-27T10:42:26.164Z</time>
      </trkpt>
      <trkpt lat="67.85048" lon="20.25619">
        <ele>510.153415</ele>
        <time>2020-08-27T10:42:27.826Z</time>
      </trkpt>
      <trkpt lat="67.85044" lon="20.25627">
        <ele>509.876518</ele>
        <time>2020-08-27T10:42:28.378Z</time>
      </trkpt>
      <trkpt lat="67.85041" lon="20.25636">
        <ele>509.598227</ele>
        <time>2020-08-27T10:42:28.909Z</time>
      </trkpt>
      <trkpt lat="67.85029" lon="20.2565">
        <ele>508.934914</ele>
        <time>2020-08-27T10:42:30.532Z</time>
      </trkpt>
      <trkpt lat="67.84989" lon="20.25666">
        <ele>506.967448</ele>
        <time>2020-08-27T10:42:35.385Z</time>
      </trkpt>
      <trkpt lat="67.84979" lon="20.25675">
        <ele>506.485025</ele>
        <time>2020-08-27T10:42:36.552Z</time>
      </trkpt>
      <trkpt lat="67.84936" lon="20.25708">
        <ele>504.28727</ele>
        <time>2020-08-27T10:42:41.971Z</time>
      </trkpt>
      <trkpt lat="67.84917" lon="20.25731">
        <ele>503.294778</ele>
        <time>2020-08-27T10:42:44.606Z</time>
      </trkpt>
      <trkpt lat="67.84916" lon="20.25734">
        <ele>503.215979</ele>
        <time>2020-08-27T10:42:44.775Z</time>
      </trkpt>
      <trkpt lat="67.84915" lon="20.25737">
        <ele>503.13467</ele>
        <time>2020-08-27T10:42:44.979Z</time>
      </trkpt>
      <trkpt lat="67.84906" lon="20.2574">
        <ele>502.699864</ele>
        <time>2020-08-27T10:42:46.045Z</time>
      </trkpt>
      <trkpt lat="67.84897" lon="20.25742">
        <ele>502.26546</ele>
        <time>2020-08-27T10:42:47.202Z</time>
      </trkpt>
      <trkpt lat="67.84891" lon="20.2574">
        <ele>501.975454</ele>
        <time>2020-08-27T10:42:48.026Z</time>
      </trkpt>
      <trkpt lat="67.84894" lon="20.25801">
        <ele>500.845833</ele>
        <time>2020-08-27T10:42:50.952Z</time>
      </trkpt>
      <trkpt lat="67.84896" lon="20.26225">
        <ele>495.058558</ele>
        <time>2020-08-27T10:43:11.599Z</time>
      </trkpt>
      <trkpt lat="67.84887" lon="20.26671">
        <ele>489.031357</ele>
        <time>2020-08-27T10:43:33.169Z</time>
      </trkpt>
      <trkpt lat="67.84877" lon="20.26896">
        <ele>486.430047</ele>
        <time>2020-08-27T10:43:44.244Z</time>
      </trkpt>
      <trkpt lat="67.8483" lon="20.27653">
        <ele>479.487947</ele>
        <time>2020-08-27T10:44:24.114Z</time>
      </trkpt>
      <trkpt lat="67.84828" lon="20.27662">
        <ele>479.393653</ele>
        <time>2020-08-27T10:44:24.698Z</time>
      </trkpt>
      <trkpt lat="67.84824" lon="20.27672">
        <ele>479.289841</ele>
        <time>2020-08-27T10:44:25.406Z</time>
      </trkpt>
      <trkpt lat="67.84822" lon="20.27686">
        <ele>479.160633</ele>
        <time>2020-08-27T10:44:26.308Z</time>
      </trkpt>
      <trkpt lat="67.84821" lon="20.27703">
        <ele>479.038911</ele>
        <time>2020-08-27T10:44:27.292Z</time>
      </trkpt>
      <trkpt lat="67.8482" lon="20.2773">
        <ele>478.898942</ele>
        <time>2020-08-27T10:44:28.783Z</time>
      </trkpt>
      <trkpt lat="67.84824" lon="20.27748">
        <ele>478.789051</ele>
        <time>2020-08-27T10:44:29.904Z</time>
      </trkpt>
      <trkpt lat="67.8481" lon="20.28073">
        <ele>477.064128</ele>
        <time>2020-08-27T10:44:48.572Z</time>
      </trkpt>
      <trkpt lat="67.84808" lon="20.2866">
        <ele>473.630084</ele>
        <time>2020-08-27T10:45:21.427Z</time>
      </trkpt>
      <trkpt lat="67.84806" lon="20.28798">
        <ele>472.169221</ele>
        <time>2020-08-27T10:45:28.510Z</time>
      </trkpt>
      <trkpt lat="67.84806" lon="20.28968">
        <ele>470.351813</ele>
        <time>2020-08-27T10:45:37.111Z</time>
      </trkpt>
      <trkpt lat="67.84816" lon="20.2963">
        <ele>461.867947</ele>
        <time>2020-08-27T10:46:09.169Z</time>
      </trkpt>
      <trkpt lat="67.84811" lon="20.2973">
        <ele>460.509772</ele>
        <time>2020-08-27T10:46:14.063Z</time>
      </trkpt>
      <trkpt lat="67.8481" lon="20.29764">
        <ele>460.045295</ele>
        <time>2020-08-27T10:46:15.687Z</time>
      </trkpt>
      <trkpt lat="67.8481" lon="20.29896">
        <ele>458.2775</ele>
        <time>2020-08-27T10:46:22.135Z</time>
      </trkpt>
      <trkpt lat="67.84815" lon="20.30321">
        <ele>452.961766</ele>
        <time>2020-08-27T10:46:42.855Z</time>
      </trkpt>
      <trkpt lat="67.84812" lon="20.30447">
        <ele>451.454938</ele>
        <time>2020-08-27T10:46:49.188Z</time>
      </trkpt>
      <trkpt lat="67.84811" lon="20.30541">
        <ele>450.337857</ele>
        <time>2020-08-27T10:46:53.892Z</time>
      </trkpt>
      <trkpt lat="67.84764" lon="20.31285">
        <ele>443.480843</ele>
        <time>2020-08-27T10:47:32.666Z</time>
      </trkpt>
      <trkpt lat="67.84749" lon="20.31477">
        <ele>441.9133</ele>
        <time>2020-08-27T10:47:43.309Z</time>
      </trkpt>
      <trkpt lat="67.84733" lon="20.316">
        <ele>441.397186</ele>
        <time>2020-08-27T10:47:50.631Z</time>
      </trkpt>
      <trkpt lat="67.84717" lon="20.31695">
        <ele>441.033958</ele>
        <time>2020-08-27T10:47:56.595Z</time>
      </trkpt>
      <trkpt lat="67.84723" lon="20.31693">
        <ele>440.979644</ele>
        <time>2020-08-27T10:47:57.514Z</time>
      </trkpt>
      <trkpt lat="67.84732" lon="20.31692">
        <ele>440.899345</ele>
        <time>2020-08-27T10:47:58.897Z</time>
      </trkpt>
      <trkpt lat="67.84742" lon="20.31696">
        <ele>440.802436</ele>
        <time>2020-08-27T10:48:00.563Z</time>
      </trkpt>
      <trkpt lat="67.84756" lon="20.31705">
        <ele>440.66538</ele>
        <time>2020-08-27T10:48:02.901Z</time>
      </trkpt>
      <trkpt lat="67.84767" lon="20.31719">
        <ele>440.554558</ele>
        <time>2020-08-27T10:48:04.855Z</time>
      </trkpt>
      <trkpt lat="67.84791" lon="20.31781">
        <ele>440.246222</ele>
        <time>2020-08-27T10:48:10.326Z</time>
      </trkpt>
      <trkpt lat="67.84828" lon="20.3185">
        <ele>440.028569</ele>
        <time>2020-08-27T10:48:18.204Z</time>
      </trkpt>
      <trkpt lat="67.8484" lon="20.31872">
        <ele>439.984346</ele>
        <time>2020-08-27T10:48:20.585Z</time>
      </trkpt>
      <trkpt lat="67.84854" lon="20.31904">
        <ele>439.927743</ele>
        <time>2020-08-27T10:48:23.817Z</time>
      </trkpt>
      <trkpt lat="67.84889" lon="20.32003">
        <ele>439.769351</ele>
        <time>2020-08-27T10:48:32.594Z</time>
      </trkpt>
      <trkpt lat="67.84915" lon="20.32112">
        <ele>439.619369</ele>
        <time>2020-08-27T10:48:40.807Z</time>
      </trkpt>
      <trkpt lat="67.84922" lon="20.32151">
        <ele>439.556053</ele>
        <time>2020-08-27T10:48:43.653Z</time>
      </trkpt>
      <trkpt lat="67.84935" lon="20.32226">
        <ele>439.312892</ele>
        <time>2020-08-27T10:48:48.802Z</time>
      </trkpt>
      <trkpt lat="67.84946" lon="20.32333">
        <ele>438.986059</ele>
        <time>2020-08-27T10:48:55.511Z</time>
      </trkpt>
      <trkpt lat="67.84951" lon="20.32428">
        <ele>438.703618</ele>
        <time>2020-08-27T10:49:01.199Z</time>
      </trkpt>
      <trkpt lat="67.84943" lon="20.32591">
        <ele>438.22067</ele>
        <time>2020-08-27T10:49:10.722Z</time>
      </trkpt>
      <trkpt lat="67.84938" lon="20.32666">
        <ele>437.942982</ele>
        <time>2020-08-27T10:49:15.191Z</time>
      </trkpt>
      <trkpt lat="67.84925" lon="20.32788">
        <ele>437.461507</ele>
        <time>2020-08-27T10:49:22.673Z</time>
      </trkpt>
      <trkpt lat="67.8491" lon="20.32932">
        <ele>436.890659</ele>
        <time>2020-08-27T10:49:31.416Z</time>
      </trkpt>
      <trkpt lat="67.84904" lon="20.32981">
        <ele>436.695072</ele>
        <time>2020-08-27T10:49:34.364Z</time>
      </trkpt>
      <trkpt lat="67.84889" lon="20.33179">
        <ele>435.886303</ele>
        <time>2020-08-27T10:49:46.177Z</time>
      </trkpt>
      <trkpt lat="67.84885" lon="20.33216">
        <ele>435.725768</ele>
        <time>2020-08-27T10:49:48.533Z</time>
      </trkpt>
      <trkpt lat="67.84884" lon="20.33226">
        <ele>435.682844</ele>
        <time>2020-08-27T10:49:49.067Z</time>
      </trkpt>
      <trkpt lat="67.8488" lon="20.33236">
        <ele>435.621413</ele>
        <time>2020-08-27T10:49:49.929Z</time>
      </trkpt>
      <trkpt lat="67.84849" lon="20.33504">
        <ele>434.456888</ele>
        <time>2020-08-27T10:50:06.154Z</time>
      </trkpt>
      <trkpt lat="67.84848" lon="20.33516">
        <ele>434.402156</ele>
        <time>2020-08-27T10:50:06.863Z</time>
      </trkpt>
      <trkpt lat="67.84846" lon="20.33529">
        <ele>434.342607</ele>
        <time>2020-08-27T10:50:07.604Z</time>
      </trkpt>
      <trkpt lat="67.84792" lon="20.33953">
        <ele>432.076271</ele>
        <time>2020-08-27T10:50:32.855Z</time>
      </trkpt>
      <trkpt lat="67.84789" lon="20.33987">
        <ele>431.893029</ele>
        <time>2020-08-27T10:50:34.837Z</time>
      </trkpt>
      <trkpt lat="67.84783" lon="20.34026">
        <ele>431.660235</ele>
        <time>2020-08-27T10:50:37.211Z</time>
      </trkpt>
      <trkpt lat="67.84749" lon="20.34369">
        <ele>429.679501</ele>
        <time>2020-08-27T10:50:56.895Z</time>
      </trkpt>
      <trkpt lat="67.84752" lon="20.34391">
        <ele>429.550054</ele>
        <time>2020-08-27T10:50:58.187Z</time>
      </trkpt>
      <trkpt lat="67.84751" lon="20.34404">
        <ele>429.472212</ele>
        <time>2020-08-27T10:50:58.904Z</time>
      </trkpt>
      <trkpt lat="67.84742" lon="20.34399">
        <ele>429.347082</ele>
        <time>2020-08-27T10:51:00.257Z</time>
      </trkpt>
      <trkpt lat="67.84738" lon="20.34481">
        <ele>428.829347</ele>
        <time>2020-08-27T10:51:04.895Z</time>
      </trkpt>
      <trkpt lat="67.84734" lon="20.34553">
        <ele>428.37346</ele>
        <time>2020-08-27T10:51:08.917Z</time>
      </trkpt>
      <trkpt lat="67.84722" lon="20.34798">
        <ele>426.81159</ele>
        <time>2020-08-27T10:51:22.361Z</time>
      </trkpt>
      <trkpt lat="67.84717" lon="20.34901">
        <ele>426.154411</ele>
        <time>2020-08-27T10:51:28.018Z</time>
      </trkpt>
      <trkpt lat="67.84696" lon="20.34913">
        <ele>425.777719</ele>
        <time>2020-08-27T10:51:31.132Z</time>
      </trkpt>
      <trkpt lat="67.84589" lon="20.34951">
        <ele>423.907465</ele>
        <time>2020-08-27T10:51:46.688Z</time>
      </trkpt>
      <trkpt lat="67.8457" lon="20.34951">
        <ele>423.590773</ele>
        <time>2020-08-27T10:51:49.303Z</time>
      </trkpt>
      <trkpt lat="67.84575" lon="20.35054">
        <ele>422.959214</ele>
        <time>2020-08-27T10:51:55.039Z</time>
      </trkpt>
      <trkpt lat="67.84581" lon="20.35163">
        <ele>422.377511</ele>
        <time>2020-08-27T10:52:01.171Z</time>
      </trkpt>
      <trkpt lat="67.84588" lon="20.35279">
        <ele>421.749375</ele>
        <time>2020-08-27T10:52:07.786Z</time>
      </trkpt>
      <trkpt lat="67.84597" lon="20.35395">
        <ele>421.120027</ele>
        <time>2020-08-27T10:52:14.406Z</time>
      </trkpt>
      <trkpt lat="67.84642" lon="20.36001">
        <ele>418.134111</ele>
        <time>2020-08-27T10:52:49.796Z</time>
      </trkpt>
      <trkpt lat="67.84656" lon="20.36288">
        <ele>416.307226</ele>
        <time>2020-08-27T10:53:05.678Z</time>
      </trkpt>
      <trkpt lat="67.84662" lon="20.36507">
        <ele>414.898811</ele>
        <time>2020-08-27T10:53:17.411Z</time>
      </trkpt>
      <trkpt lat="67.84663" lon="20.3682">
        <ele>412.8564</ele>
        <time>2020-08-27T10:53:34.250Z</time>
      </trkpt>
      <trkpt lat="67.84638" lon="20.3782">
        <ele>408.412046</ele>
        <time>2020-08-27T10:54:32.012Z</time>
      </trkpt>
      <trkpt lat="67.84636" lon="20.37893">
        <ele>408.168458</ele>
        <time>2020-08-27T10:54:36.359Z</time>
      </trkpt>
      <trkpt lat="67.84635" lon="20.37924">
        <ele>408.082793</ele>
        <time>2020-08-27T10:54:38.276Z</time>
      </trkpt>
      <trkpt lat="67.84632" lon="20.38039">
        <ele>407.772121</ele>
        <time>2020-08-27T10:54:45.192Z</time>
      </trkpt>
      <trkpt lat="67.84631" lon="20.38085">
        <ele>407.64506</ele>
        <time>2020-08-27T10:54:47.980Z</time>
      </trkpt>
      <trkpt lat="67.84622" lon="20.38401">
        <ele>406.783959</ele>
        <time>2020-08-27T10:55:07.358Z</time>
      </trkpt>
      <trkpt lat="67.84601" lon="20.38708">
        <ele>405.932984</ele>
        <time>2020-08-27T10:55:26.343Z</time>
      </trkpt>
      <trkpt lat="67.84597" lon="20.38744">
        <ele>405.829754</ele>
        <time>2020-08-27T10:55:28.620Z</time>
      </trkpt>
      <trkpt lat="67.84596" lon="20.38751">
        <ele>405.810238</ele>
        <time>2020-08-27T10:55:29.014Z</time>
      </trkpt>
      <trkpt lat="67.84569" lon="20.3899">
        <ele>404.878119</ele>
        <time>2020-08-27T10:55:43.766Z</time>
      </trkpt>
      <trkpt lat="67.84552" lon="20.39116">
        <ele>404.345508</ele>
        <time>2020-08-27T10:55:51.435Z</time>
      </trkpt>
      <trkpt lat="67.84524" lon="20.39311">
        <ele>403.467388</ele>
        <time>2020-08-27T10:56:03.468Z</time>
      </trkpt>
      <trkpt lat="67.84503" lon="20.39451">
        <ele>402.765367</ele>
        <time>2020-08-27T10:56:11.997Z</time>
      </trkpt>
      <trkpt lat="67.84476" lon="20.39638">
        <ele>401.833557</ele>
        <time>2020-08-27T10:56:23.304Z</time>
      </trkpt>
      <trkpt lat="67.84433" lon="20.39933">
        <ele>400.377983</ele>
        <time>2020-08-27T10:56:41.521Z</time>
      </trkpt>
      <trkpt lat="67.84409" lon="20.40124">
        <ele>399.454498</ele>
        <time>2020-08-27T10:56:52.942Z</time>
      </trkpt>
      <trkpt lat="67.84389" lon="20.40308">
        <ele>398.652093</ele>
        <time>2020-08-27T10:57:03.827Z</time>
      </trkpt>
      <trkpt lat="67.84369" lon="20.40488">
        <ele>397.876584</ele>
        <time>2020-08-27T10:57:14.637Z</time>
      </trkpt>
      <trkpt lat="67.84366" lon="20.40512">
        <ele>397.772789</ele>
        <time>2020-08-27T10:57:16.115Z</time>
      </trkpt>
      <trkpt lat="67.84357" lon="20.40589">
        <ele>397.438518</ele>
        <time>2020-08-27T10:57:20.846Z</time>
      </trkpt>
      <trkpt lat="67.84348" lon="20.40673">
        <ele>397.286415</ele>
        <time>2020-08-27T10:57:26.047Z</time>
      </trkpt>
      <trkpt lat="67.84312" lon="20.40993">
        <ele>396.82086</ele>
        <time>2020-08-27T10:57:47.461Z</time>
      </trkpt>
      <trkpt lat="67.84301" lon="20.41091">
        <ele>396.711333</ele>
        <time>2020-08-27T10:57:54.443Z</time>
      </trkpt>
      <trkpt lat="67.84249" lon="20.41545">
        <ele>396.392957</ele>
        <time>2020-08-27T10:58:25.916Z</time>
      </trkpt>
      <trkpt lat="67.84232" lon="20.41699">
        <ele>395.833061</ele>
        <time>2020-08-27T10:58:35.780Z</time>
      </trkpt>
      <trkpt lat="67.84227" lon="20.41741">
        <ele>395.67865</ele>
        <time>2020-08-27T10:58:38.395Z</time>
      </trkpt>
      <trkpt lat="67.84215" lon="20.4186">
        <ele>395.251021</ele>
        <time>2020-08-27T10:58:45.473Z</time>
      </trkpt>
      <trkpt lat="67.8419" lon="20.4209">
        <ele>394.131421</ele>
        <time>2020-08-27T10:58:58.826Z</time>
      </trkpt>
      <trkpt lat="67.84181" lon="20.42227">
        <ele>393.32202</ele>
        <time>2020-08-27T10:59:06.466Z</time>
      </trkpt>
      <trkpt lat="67.84172" lon="20.42379">
        <ele>392.435264</ele>
        <time>2020-08-27T10:59:14.872Z</time>
      </trkpt>
      <trkpt lat="67.84168" lon="20.42496">
        <ele>391.869305</ele>
        <time>2020-08-27T10:59:21.396Z</time>
      </trkpt>
      <trkpt lat="67.84168" lon="20.42524">
        <ele>391.763186</ele>
        <time>2020-08-27T10:59:22.918Z</time>
      </trkpt>
      <trkpt lat="67.84166" lon="20.42746">
        <ele>390.925642</ele>
        <time>2020-08-27T10:59:35.937Z</time>
      </trkpt>
      <trkpt lat="67.84167" lon="20.42823">
        <ele>390.638294</ele>
        <time>2020-08-27T10:59:40.542Z</time>
      </trkpt>
      <trkpt lat="67.84173" lon="20.43115">
        <ele>389.919967</ele>
        <time>2020-08-27T10:59:58.484Z</time>
      </trkpt>
      <trkpt lat="67.84174" lon="20.43208">
        <ele>389.747583</ele>
        <time>2020-08-27T11:00:04.354Z</time>
      </trkpt>
      <trkpt lat="67.84176" lon="20.43432">
        <ele>389.375189</ele>
        <time>2020-08-27T11:00:18.651Z</time>
      </trkpt>
      <trkpt lat="67.84177" lon="20.43538">
        <ele>389.286443</ele>
        <time>2020-08-27T11:00:25.447Z</time>
      </trkpt>
      <trkpt lat="67.84176" lon="20.43672">
        <ele>389.174401</ele>
        <time>2020-08-27T11:00:34.035Z</time>
      </trkpt>
      <trkpt lat="67.84174" lon="20.43764">
        <ele>389.097365</ele>
        <time>2020-08-27T11:00:40.029Z</time>
      </trkpt>
      <trkpt lat="67.84171" lon="20.43827">
        <ele>389.044446</ele>
        <time>2020-08-27T11:00:44.220Z</time>
      </trkpt>
      <trkpt lat="67.84168" lon="20.4389">
        <ele>388.99525</ele>
        <time>2020-08-27T11:00:48.522Z</time>
      </trkpt>
      <trkpt lat="67.84163" lon="20.43985">
        <ele>388.93376</ele>
        <time>2020-08-27T11:00:54.928Z</time>
      </trkpt>
      <trkpt lat="67.84154" lon="20.4413">
        <ele>388.839666</ele>
        <time>2020-08-27T11:01:04.668Z</time>
      </trkpt>
      <trkpt lat="67.84151" lon="20.44165">
        <ele>388.816552</ele>
        <time>2020-08-27T11:01:07.009Z</time>
      </trkpt>
      <trkpt lat="67.84137" lon="20.44326">
        <ele>388.710596</ele>
        <time>2020-08-27T11:01:17.774Z</time>
      </trkpt>
      <trkpt lat="67.84135" lon="20.44345">
        <ele>388.686142</ele>
        <time>2020-08-27T11:01:19.040Z</time>
      </trkpt>
      <trkpt lat="67.84117" lon="20.44492">
        <ele>388.390849</ele>
        <time>2020-08-27T11:01:28.806Z</time>
      </trkpt>
      <trkpt lat="67.84091" lon="20.44709">
        <ele>387.951927</ele>
        <time>2020-08-27T11:01:42.879Z</time>
      </trkpt>
      <trkpt lat="67.8407" lon="20.44877">
        <ele>387.542731</ele>
        <time>2020-08-27T11:01:53.595Z</time>
      </trkpt>
      <trkpt lat="67.84047" lon="20.45067">
        <ele>387.007494</ele>
        <time>2020-08-27T11:02:05.602Z</time>
      </trkpt>
      <trkpt lat="67.84017" lon="20.45314">
        <ele>386.34428</ele>
        <time>2020-08-27T11:02:21.257Z</time>
      </trkpt>
      <trkpt lat="67.83984" lon="20.45639">
        <ele>385.592597</ele>
        <time>2020-08-27T11:02:41.906Z</time>
      </trkpt>
      <trkpt lat="67.83965" lon="20.45847">
        <ele>385.312326</ele>
        <time>2020-08-27T11:02:55.449Z</time>
      </trkpt>
      <trkpt lat="67.83943" lon="20.46168">
        <ele>385.021917</ele>
        <time>2020-08-27T11:03:16.760Z</time>
      </trkpt>
      <trkpt lat="67.83925" lon="20.46534">
        <ele>384.830208</ele>
        <time>2020-08-27T11:03:41.319Z</time>
      </trkpt>
      <trkpt lat="67.83892" lon="20.47991">
        <ele>383.255085</ele>
        <time>2020-08-27T11:05:15.382Z</time>
      </trkpt>
      <trkpt lat="67.83873" lon="20.48441">
        <ele>382.163789</ele>
        <time>2020-08-27T11:05:42.854Z</time>
      </trkpt>
      <trkpt lat="67.8386" lon="20.48711">
        <ele>381.394886</ele>
        <time>2020-08-27T11:05:59.136Z</time>
      </trkpt>
      <trkpt lat="67.83851" lon="20.48855">
        <ele>380.964226</ele>
        <time>2020-08-27T11:06:07.890Z</time>
      </trkpt>
      <trkpt lat="67.8383" lon="20.49133">
        <ele>380.132804</ele>
        <time>2020-08-27T11:06:24.880Z</time>
      </trkpt>
      <trkpt lat="67.83792" lon="20.49537">
        <ele>378.956781</ele>
        <time>2020-08-27T11:06:49.902Z</time>
      </trkpt>
      <trkpt lat="67.83727" lon="20.50053">
        <ele>377.805238</ele>
        <time>2020-08-27T11:07:23.357Z</time>
      </trkpt>
      <trkpt lat="67.83656" lon="20.50518">
        <ele>377.205779</ele>
        <time>2020-08-27T11:07:55.558Z</time>
      </trkpt>
      <trkpt lat="67.83579" lon="20.50922">
        <ele>377.007713</ele>
        <time>2020-08-27T11:08:25.704Z</time>
      </trkpt>
      <trkpt lat="67.83499" lon="20.51274">
        <ele>377.014106</ele>
        <time>2020-08-27T11:08:52.939Z</time>
      </trkpt>
      <trkpt lat="67.8343" lon="20.51557">
        <ele>377.361394</ele>
        <time>2020-08-27T11:09:16.525Z</time>
      </trkpt>
      <trkpt lat="67.8341" lon="20.51631">
        <ele>377.483392</ele>
        <time>2020-08-27T11:09:23.187Z</time>
      </trkpt>
      <trkpt lat="67.83293" lon="20.52044">
        <ele>379.454925</ele>
        <time>2020-08-27T11:10:04.159Z</time>
      </trkpt>
      <trkpt lat="67.83195" lon="20.5235">
        <ele>381.688928</ele>
        <time>2020-08-27T11:10:38.583Z</time>
      </trkpt>
      <trkpt lat="67.83108" lon="20.5259">
        <ele>384.08252</ele>
        <time>2020-08-27T11:11:08.618Z</time>
      </trkpt>
      <trkpt lat="67.83059" lon="20.52716">
        <ele>385.420334</ele>
        <time>2020-08-27T11:11:25.346Z</time>
      </trkpt>
      <trkpt lat="67.82482" lon="20.54008">
        <ele>402.107604</ele>
        <time>2020-08-27T11:14:34.590Z</time>
      </trkpt>
      <trkpt lat="67.8245" lon="20.54091">
        <ele>402.835249</ele>
        <time>2020-08-27T11:14:45.490Z</time>
      </trkpt>
      <trkpt lat="67.82425" lon="20.54112">
        <ele>403.252118</ele>
        <time>2020-08-27T11:14:51.700Z</time>
      </trkpt>
      <trkpt lat="67.82319" lon="20.54364">
        <ele>404.716486</ele>
        <time>2020-08-27T11:15:22.771Z</time>
      </trkpt>
      <trkpt lat="67.82293" lon="20.54459">
        <ele>404.933361</ele>
        <time>2020-08-27T11:15:31.266Z</time>
      </trkpt>
      <trkpt lat="67.82195" lon="20.54827">
        <ele>405.360213</ele>
        <time>2020-08-27T11:16:03.470Z</time>
      </trkpt>
      <trkpt lat="67.82065" lon="20.55541">
        <ele>405.496761</ele>
        <time>2020-08-27T11:17:00.785Z</time>
      </trkpt>
      <trkpt lat="67.82059" lon="20.55595">
        <ele>405.37577</ele>
        <time>2020-08-27T11:17:04.513Z</time>
      </trkpt>
      <trkpt lat="67.82067" lon="20.55623">
        <ele>405.30117</ele>
        <time>2020-08-27T11:17:06.978Z</time>
      </trkpt>
      <trkpt lat="67.8187" lon="20.56582">
        <ele>402.910112</ele>
        <time>2020-08-27T11:18:12.824Z</time>
      </trkpt>
      <trkpt lat="67.81698" lon="20.57409">
        <ele>401.927944</ele>
        <time>2020-08-27T11:19:14.171Z</time>
      </trkpt>
      <trkpt lat="67.81658" lon="20.57604">
        <ele>401.63839</ele>
        <time>2020-08-27T11:19:28.306Z</time>
      </trkpt>
      <trkpt lat="67.81565" lon="20.58049">
        <ele>400.874462</ele>
        <time>2020-08-27T11:19:59.919Z</time>
      </trkpt>
      <trkpt lat="67.81544" lon="20.58132">
        <ele>400.805057</ele>
        <time>2020-08-27T11:20:06.350Z</time>
      </trkpt>
      <trkpt lat="67.81531" lon="20.58187">
        <ele>400.759111</ele>
        <time>2020-08-27T11:20:10.748Z</time>
      </trkpt>
      <trkpt lat="67.81498" lon="20.58287">
        <ele>400.666816</ele>
        <time>2020-08-27T11:20:19.832Z</time>
      </trkpt>
      <trkpt lat="67.81466" lon="20.58393">
        <ele>400.876798</ele>
        <time>2020-08-27T11:20:29.030Z</time>
      </trkpt>
      <trkpt lat="67.81464" lon="20.58399">
        <ele>400.901627</ele>
        <time>2020-08-27T11:20:29.642Z</time>
      </trkpt>
      <trkpt lat="67.81441" lon="20.5846">
        <ele>401.154651</ele>
        <time>2020-08-27T11:20:35.977Z</time>
      </trkpt>
      <trkpt lat="67.81411" lon="20.58541">
        <ele>401.487454</ele>
        <time>2020-08-27T11:20:44.663Z</time>
      </trkpt>
      <trkpt lat="67.81399" lon="20.58569">
        <ele>401.608982</ele>
        <time>2020-08-27T11:20:48.059Z</time>
      </trkpt>
      <trkpt lat="67.81393" lon="20.58554">
        <ele>401.675808</ele>
        <time>2020-08-27T11:20:49.811Z</time>
      </trkpt>
      <trkpt lat="67.81378" lon="20.58534">
        <ele>401.803119</ele>
        <time>2020-08-27T11:20:53.415Z</time>
      </trkpt>
      <trkpt lat="67.81363" lon="20.58534">
        <ele>401.916754</ele>
        <time>2020-08-27T11:20:56.695Z</time>
      </trkpt>
      <trkpt lat="67.81355" lon="20.58537">
        <ele>401.98202</ele>
        <time>2020-08-27T11:20:58.468Z</time>
      </trkpt>
      <trkpt lat="67.80854" lon="20.58692">
        <ele>412.124456</ele>
        <time>2020-08-27T11:23:04.182Z</time>
      </trkpt>
      <trkpt lat="67.80728" lon="20.58736">
        <ele>414.773003</ele>
        <time>2020-08-27T11:23:40.653Z</time>
      </trkpt>
      <trkpt lat="67.805" lon="20.58855">
        <ele>417.447892</ele>
        <time>2020-08-27T11:24:31.151Z</time>
      </trkpt>
      <trkpt lat="67.80335" lon="20.58993">
        <ele>417.128272</ele>
        <time>2020-08-27T11:25:00.809Z</time>
      </trkpt>
      <trkpt lat="67.80319" lon="20.59015">
        <ele>417.051714</ele>
        <time>2020-08-27T11:25:03.946Z</time>
      </trkpt>
      <trkpt lat="67.80317" lon="20.59031">
        <ele>417.024715</ele>
        <time>2020-08-27T11:25:05.058Z</time>
      </trkpt>
      <trkpt lat="67.80319" lon="20.59062">
        <ele>416.975001</ele>
        <time>2020-08-27T11:25:07.076Z</time>
      </trkpt>
      <trkpt lat="67.80256" lon="20.59075">
        <ele>417.028425</ele>
        <time>2020-08-27T11:25:17.790Z</time>
      </trkpt>
      <trkpt lat="67.80136" lon="20.59111">
        <ele>417.259479</ele>
        <time>2020-08-27T11:25:40.124Z</time>
      </trkpt>
      <trkpt lat="67.7991" lon="20.5922">
        <ele>419.934361</ele>
        <time>2020-08-27T11:26:30.352Z</time>
      </trkpt>
      <trkpt lat="67.79022" lon="20.59764">
        <ele>433.38634</ele>
        <time>2020-08-27T11:29:56.725Z</time>
      </trkpt>
      <trkpt lat="67.7892" lon="20.59858">
        <ele>434.807615</ele>
        <time>2020-08-27T11:30:20.319Z</time>
      </trkpt>
      <trkpt lat="67.78824" lon="20.59994">
        <ele>436.030586</ele>
        <time>2020-08-27T11:30:43.524Z</time>
      </trkpt>
      <trkpt lat="67.78648" lon="20.60274">
        <ele>438.412907</ele>
        <time>2020-08-27T11:31:27.352Z</time>
      </trkpt>
      <trkpt lat="67.78176" lon="20.61002">
        <ele>446.016934</ele>
        <time>2020-08-27T11:33:29.181Z</time>
      </trkpt>
      <trkpt lat="67.78037" lon="20.61218">
        <ele>447.728251</ele>
        <time>2020-08-27T11:34:06.696Z</time>
      </trkpt>
      <trkpt lat="67.77922" lon="20.61382">
        <ele>447.457011</ele>
        <time>2020-08-27T11:34:29.171Z</time>
      </trkpt>
      <trkpt lat="67.77797" lon="20.61508">
        <ele>445.31966</ele>
        <time>2020-08-27T11:34:47.688Z</time>
      </trkpt>
      <trkpt lat="67.77716" lon="20.6157">
        <ele>443.746997</ele>
        <time>2020-08-27T11:34:59.283Z</time>
      </trkpt>
      <trkpt lat="67.77634" lon="20.61596">
        <ele>442.213927</ele>
        <time>2020-08-27T11:35:11.263Z</time>
      </trkpt>
      <trkpt lat="67.77386" lon="20.6162">
        <ele>441.098518</ele>
        <time>2020-08-27T11:35:52.783Z</time>
      </trkpt>
      <trkpt lat="67.77343" lon="20.61642">
        <ele>441.04979</ele>
        <time>2020-08-27T11:36:00.690Z</time>
      </trkpt>
      <trkpt lat="67.77284" lon="20.61676">
        <ele>440.984045</ele>
        <time>2020-08-27T11:36:11.399Z</time>
      </trkpt>
      <trkpt lat="67.77244" lon="20.61696">
        <ele>440.97708</ele>
        <time>2020-08-27T11:36:18.746Z</time>
      </trkpt>
      <trkpt lat="67.76952" lon="20.61952">
        <ele>441.045675</ele>
        <time>2020-08-27T11:37:13.705Z</time>
      </trkpt>
      <trkpt lat="67.76766" lon="20.62142">
        <ele>441.489314</ele>
        <time>2020-08-27T11:37:50.456Z</time>
      </trkpt>
      <trkpt lat="67.76176" lon="20.62808">
        <ele>447.395314</ele>
        <time>2020-08-27T11:40:04.622Z</time>
      </trkpt>
      <trkpt lat="67.75983" lon="20.62992">
        <ele>448.368693</ele>
        <time>2020-08-27T11:40:46.081Z</time>
      </trkpt>
      <trkpt lat="67.75627" lon="20.63288">
        <ele>446.154157</ele>
        <time>2020-08-27T11:41:45.027Z</time>
      </trkpt>
      <trkpt lat="67.75494" lon="20.6344">
        <ele>445.95631</ele>
        <time>2020-08-27T11:42:10.338Z</time>
      </trkpt>
      <trkpt lat="67.75362" lon="20.63622">
        <ele>446.055415</ele>
        <time>2020-08-27T11:42:38.652Z</time>
      </trkpt>
      <trkpt lat="67.75091" lon="20.64046">
        <ele>445.339483</ele>
        <time>2020-08-27T11:43:33.632Z</time>
      </trkpt>
      <trkpt lat="67.74893" lon="20.64361">
        <ele>442.720092</ele>
        <time>2020-08-27T11:44:07.372Z</time>
      </trkpt>
      <trkpt lat="67.74794" lon="20.64526">
        <ele>441.826933</ele>
        <time>2020-08-27T11:44:26.556Z</time>
      </trkpt>
      <trkpt lat="67.7471" lon="20.64697">
        <ele>441.975695</ele>
        <time>2020-08-27T11:44:46.418Z</time>
      </trkpt>
      <trkpt lat="67.74641" lon="20.6491">
        <ele>442.144064</ele>
        <time>2020-08-27T11:45:06.588Z</time>
      </trkpt>
      <trkpt lat="67.74295" lon="20.66064">
        <ele>442.900633</ele>
        <time>2020-08-27T11:46:49.016Z</time>
      </trkpt>
      <trkpt lat="67.7424" lon="20.66219">
        <ele>442.798995</ele>
        <time>2020-08-27T11:47:02.614Z</time>
      </trkpt>
      <trkpt lat="67.7413" lon="20.66495">
        <ele>442.467495</ele>
        <time>2020-08-27T11:47:28.192Z</time>
      </trkpt>
      <trkpt lat="67.73622" lon="20.67424">
        <ele>442.383845</ele>
        <time>2020-08-27T11:49:18.636Z</time>
      </trkpt>
      <trkpt lat="67.73419" lon="20.67827">
        <ele>442.087357</ele>
        <time>2020-08-27T11:50:03.825Z</time>
      </trkpt>
      <trkpt lat="67.73266" lon="20.68146">
        <ele>441.187167</ele>
        <time>2020-08-27T11:50:36.025Z</time>
      </trkpt>
      <trkpt lat="67.73221" lon="20.68252">
        <ele>440.816435</ele>
        <time>2020-08-27T11:50:45.565Z</time>
      </trkpt>
      <trkpt lat="67.73141" lon="20.68484">
        <ele>439.704762</ele>
        <time>2020-08-27T11:51:04.124Z</time>
      </trkpt>
      <trkpt lat="67.73065" lon="20.68729">
        <ele>438.350577</ele>
        <time>2020-08-27T11:51:22.623Z</time>
      </trkpt>
      <trkpt lat="67.72992" lon="20.69031">
        <ele>436.492794</ele>
        <time>2020-08-27T11:51:42.849Z</time>
      </trkpt>
      <trkpt lat="67.72772" lon="20.70186">
        <ele>427.447434</ele>
        <time>2020-08-27T11:52:52.835Z</time>
      </trkpt>
      <trkpt lat="67.72708" lon="20.70455">
        <ele>425.155896</ele>
        <time>2020-08-27T11:53:09.830Z</time>
      </trkpt>
      <trkpt lat="67.72588" lon="20.70839">
        <ele>421.824288</ele>
        <time>2020-08-27T11:53:36.770Z</time>
      </trkpt>
      <trkpt lat="67.72522" lon="20.7101">
        <ele>420.358951</ele>
        <time>2020-08-27T11:53:50.470Z</time>
      </trkpt>
      <trkpt lat="67.7252" lon="20.71017">
        <ele>420.298241</ele>
        <time>2020-08-27T11:53:50.985Z</time>
      </trkpt>
      <trkpt lat="67.72472" lon="20.71124">
        <ele>419.682957</ele>
        <time>2020-08-27T11:54:00.621Z</time>
      </trkpt>
      <trkpt lat="67.7239" lon="20.71298">
        <ele>418.680964</ele>
        <time>2020-08-27T11:54:16.990Z</time>
      </trkpt>
      <trkpt lat="67.71322" lon="20.73603">
        <ele>413.470853</ele>
        <time>2020-08-27T11:58:09.055Z</time>
      </trkpt>
      <trkpt lat="67.71338" lon="20.73653">
        <ele>413.374822</ele>
        <time>2020-08-27T11:58:13.523Z</time>
      </trkpt>
      <trkpt lat="67.71279" lon="20.73838">
        <ele>412.977081</ele>
        <time>2020-08-27T11:58:29.579Z</time>
      </trkpt>
      <trkpt lat="67.71222" lon="20.74017">
        <ele>412.552557</ele>
        <time>2020-08-27T11:58:44.715Z</time>
      </trkpt>
      <trkpt lat="67.712" lon="20.74125">
        <ele>412.327106</ele>
        <time>2020-08-27T11:58:52.590Z</time>
      </trkpt>
      <trkpt lat="67.7091" lon="20.75849">
        <ele>408.806144</ele>
        <time>2020-08-27T12:00:56.547Z</time>
      </trkpt>
      <trkpt lat="67.70808" lon="20.76368">
        <ele>406.5904</ele>
        <time>2020-08-27T12:01:33.035Z</time>
      </trkpt>
      <trkpt lat="67.70777" lon="20.76436">
        <ele>405.85667</ele>
        <time>2020-08-27T12:01:39.184Z</time>
      </trkpt>
      <trkpt lat="67.70466" lon="20.76988">
        <ele>399.181934</ele>
        <time>2020-08-27T12:02:34.562Z</time>
      </trkpt>
      <trkpt lat="67.7045" lon="20.7702">
        <ele>398.853675</ele>
        <time>2020-08-27T12:02:37.722Z</time>
      </trkpt>
      <trkpt lat="67.70434" lon="20.77069">
        <ele>398.465616</ele>
        <time>2020-08-27T12:02:41.488Z</time>
      </trkpt>
      <trkpt lat="67.70378" lon="20.77328">
        <ele>397.338459</ele>
        <time>2020-08-27T12:02:59.868Z</time>
      </trkpt>
      <trkpt lat="67.70343" lon="20.77503">
        <ele>396.87974</ele>
        <time>2020-08-27T12:03:12.966Z</time>
      </trkpt>
      <trkpt lat="67.70331" lon="20.77603">
        <ele>396.658135</ele>
        <time>2020-08-27T12:03:19.992Z</time>
      </trkpt>
      <trkpt lat="67.70305" lon="20.78104">
        <ele>396.419083</ele>
        <time>2020-08-27T12:03:55.090Z</time>
      </trkpt>
      <trkpt lat="67.69914" lon="20.79707">
        <ele>395.639511</ele>
        <time>2020-08-27T12:06:08.809Z</time>
      </trkpt>
      <trkpt lat="67.69611" lon="20.81026">
        <ele>387.018476</ele>
        <time>2020-08-27T12:07:39.186Z</time>
      </trkpt>
      <trkpt lat="67.6961" lon="20.81029">
        <ele>386.983521</ele>
        <time>2020-08-27T12:07:39.385Z</time>
      </trkpt>
      <trkpt lat="67.69456" lon="20.81705">
        <ele>380.753435</ele>
        <time>2020-08-27T12:08:22.876Z</time>
      </trkpt>
      <trkpt lat="67.69433" lon="20.81823">
        <ele>380.035699</ele>
        <time>2020-08-27T12:08:30.572Z</time>
      </trkpt>
      <trkpt lat="67.69338" lon="20.82492">
        <ele>376.790696</ele>
        <time>2020-08-27T12:09:13.885Z</time>
      </trkpt>
      <trkpt lat="67.69308" lon="20.82662">
        <ele>376.219061</ele>
        <time>2020-08-27T12:09:26.043Z</time>
      </trkpt>
      <trkpt lat="67.69308" lon="20.82665">
        <ele>376.211385</ele>
        <time>2020-08-27T12:09:26.214Z</time>
      </trkpt>
      <trkpt lat="67.69304" lon="20.82684">
        <ele>376.160206</ele>
        <time>2020-08-27T12:09:27.648Z</time>
      </trkpt>
      <trkpt lat="67.69273" lon="20.82831">
        <ele>375.752631</ele>
        <time>2020-08-27T12:09:38.541Z</time>
      </trkpt>
      <trkpt lat="67.69254" lon="20.82906">
        <ele>375.53856</ele>
        <time>2020-08-27T12:09:44.359Z</time>
      </trkpt>
      <trkpt lat="67.69244" lon="20.82944">
        <ele>375.426219</ele>
        <time>2020-08-27T12:09:47.367Z</time>
      </trkpt>
      <trkpt lat="67.69217" lon="20.83021">
        <ele>375.099131</ele>
        <time>2020-08-27T12:09:54.101Z</time>
      </trkpt>
      <trkpt lat="67.69106" lon="20.83368">
        <ele>373.499824</ele>
        <time>2020-08-27T12:10:22.036Z</time>
      </trkpt>
      <trkpt lat="67.6907" lon="20.8351">
        <ele>372.905734</ele>
        <time>2020-08-27T12:10:32.509Z</time>
      </trkpt>
      <trkpt lat="67.68984" lon="20.83908">
        <ele>371.291994</ele>
        <time>2020-08-27T12:11:01.353Z</time>
      </trkpt>
      <trkpt lat="67.68959" lon="20.83872">
        <ele>371.01623</ele>
        <time>2020-08-27T12:11:06.171Z</time>
      </trkpt>
      <trkpt lat="67.68914" lon="20.84109">
        <ele>369.898326</ele>
        <time>2020-08-27T12:11:21.659Z</time>
      </trkpt>
      <trkpt lat="67.68779" lon="20.84751">
        <ele>365.246137</ele>
        <time>2020-08-27T12:12:01.876Z</time>
      </trkpt>
      <trkpt lat="67.68707" lon="20.85083">
        <ele>362.748776</ele>
        <time>2020-08-27T12:12:22.576Z</time>
      </trkpt>
      <trkpt lat="67.68597" lon="20.85556">
        <ele>359.709697</ele>
        <time>2020-08-27T12:12:53.649Z</time>
      </trkpt>
      <trkpt lat="67.68544" lon="20.85781">
        <ele>358.684376</ele>
        <time>2020-08-27T12:13:09.551Z</time>
      </trkpt>
      <trkpt lat="67.68263" lon="20.86891">
        <ele>355.291461</ele>
        <time>2020-08-27T12:14:31.459Z</time>
      </trkpt>
      <trkpt lat="67.68243" lon="20.8697">
        <ele>354.92829</ele>
        <time>2020-08-27T12:14:37.109Z</time>
      </trkpt>
      <trkpt lat="67.68209" lon="20.871">
        <ele>354.327592</ele>
        <time>2020-08-27T12:14:46.388Z</time>
      </trkpt>
      <trkpt lat="67.67976" lon="20.87996">
        <ele>350.057776</ele>
        <time>2020-08-27T12:15:49.757Z</time>
      </trkpt>
      <trkpt lat="67.6792" lon="20.88216">
        <ele>349.556333</ele>
        <time>2020-08-27T12:16:06.067Z</time>
      </trkpt>
      <trkpt lat="67.678" lon="20.88683">
        <ele>349.257751</ele>
        <time>2020-08-27T12:16:43.787Z</time>
      </trkpt>
      <trkpt lat="67.6774" lon="20.88919">
        <ele>349.377245</ele>
        <time>2020-08-27T12:17:03.855Z</time>
      </trkpt>
      <trkpt lat="67.67645" lon="20.89348">
        <ele>349.693814</ele>
        <time>2020-08-27T12:17:38.877Z</time>
      </trkpt>
      <trkpt lat="67.67638" lon="20.89387">
        <ele>349.696184</ele>
        <time>2020-08-27T12:17:41.896Z</time>
      </trkpt>
      <trkpt lat="67.6752" lon="20.90014">
        <ele>349.477682</ele>
        <time>2020-08-27T12:18:28.572Z</time>
      </trkpt>
      <trkpt lat="67.67385" lon="20.90767">
        <ele>348.317647</ele>
        <time>2020-08-27T12:19:21.353Z</time>
      </trkpt>
      <trkpt lat="67.67294" lon="20.91321">
        <ele>347.766372</ele>
        <time>2020-08-27T12:20:00.999Z</time>
      </trkpt>
      <trkpt lat="67.67251" lon="20.91675">
        <ele>347.109902</ele>
        <time>2020-08-27T12:20:25.080Z</time>
      </trkpt>
      <trkpt lat="67.67234" lon="20.91911">
        <ele>346.41924</ele>
        <time>2020-08-27T12:20:39.435Z</time>
      </trkpt>
      <trkpt lat="67.67223" lon="20.92213">
        <ele>344.938797</ele>
        <time>2020-08-27T12:20:56.648Z</time>
      </trkpt>
      <trkpt lat="67.67233" lon="20.92981">
        <ele>341.162365</ele>
        <time>2020-08-27T12:21:39.851Z</time>
      </trkpt>
      <trkpt lat="67.6723" lon="20.9325">
        <ele>340.170459</ele>
        <time>2020-08-27T12:21:56.275Z</time>
      </trkpt>
      <trkpt lat="67.67229" lon="20.9327">
        <ele>340.134172</ele>
        <time>2020-08-27T12:21:57.567Z</time>
      </trkpt>
      <trkpt lat="67.67228" lon="20.93305">
        <ele>340.088851</ele>
        <time>2020-08-27T12:21:59.784Z</time>
      </trkpt>
      <trkpt lat="67.67225" lon="20.9338">
        <ele>339.991267</ele>
        <time>2020-08-27T12:22:04.582Z</time>
      </trkpt>
      <trkpt lat="67.67223" lon="20.93409">
        <ele>339.952701</ele>
        <time>2020-08-27T12:22:06.505Z</time>
      </trkpt>
      <trkpt lat="67.67221" lon="20.93457">
        <ele>339.889214</ele>
        <time>2020-08-27T12:22:09.672Z</time>
      </trkpt>
      <trkpt lat="67.67186" lon="20.94069">
        <ele>339.218055</ele>
        <time>2020-08-27T12:22:49.889Z</time>
      </trkpt>
      <trkpt lat="67.6718" lon="20.94139">
        <ele>339.152238</ele>
        <time>2020-08-27T12:22:54.579Z</time>
      </trkpt>
      <trkpt lat="67.6717" lon="20.94245">
        <ele>339.076404</ele>
        <time>2020-08-27T12:23:01.747Z</time>
      </trkpt>
      <trkpt lat="67.67165" lon="20.94295">
        <ele>339.050616</ele>
        <time>2020-08-27T12:23:05.156Z</time>
      </trkpt>
      <trkpt lat="67.67137" lon="20.94518">
        <ele>338.933264</ele>
        <time>2020-08-27T12:23:20.721Z</time>
      </trkpt>
      <trkpt lat="67.67074" lon="20.94869">
        <ele>338.769857</ele>
        <time>2020-08-27T12:23:46.728Z</time>
      </trkpt>
      <trkpt lat="67.66974" lon="20.95379">
        <ele>338.38523</ele>
        <time>2020-08-27T12:24:24.754Z</time>
      </trkpt>
      <trkpt lat="67.669" lon="20.95746">
        <ele>337.702333</ele>
        <time>2020-08-27T12:24:50.916Z</time>
      </trkpt>
      <trkpt lat="67.66801" lon="20.96242">
        <ele>336.277356</ele>
        <time>2020-08-27T12:25:25.451Z</time>
      </trkpt>
      <trkpt lat="67.66727" lon="20.96667">
        <ele>334.473655</ele>
        <time>2020-08-27T12:25:52.881Z</time>
      </trkpt>
      <trkpt lat="67.66698" lon="20.96929">
        <ele>332.942053</ele>
        <time>2020-08-27T12:26:08.369Z</time>
      </trkpt>
      <trkpt lat="67.66683" lon="20.97155">
        <ele>331.486597</ele>
        <time>2020-08-27T12:26:20.828Z</time>
      </trkpt>
      <trkpt lat="67.6668" lon="20.97203">
        <ele>331.17866</ele>
        <time>2020-08-27T12:26:23.421Z</time>
      </trkpt>
      <trkpt lat="67.66676" lon="20.9731">
        <ele>330.519841</ele>
        <time>2020-08-27T12:26:29.250Z</time>
      </trkpt>
      <trkpt lat="67.66675" lon="20.97329">
        <ele>330.408542</ele>
        <time>2020-08-27T12:26:30.219Z</time>
      </trkpt>
      <trkpt lat="67.66672" lon="20.97415">
        <ele>329.882491</ele>
        <time>2020-08-27T12:26:34.889Z</time>
      </trkpt>
      <trkpt lat="67.66669" lon="20.97511">
        <ele>329.296767</ele>
        <time>2020-08-27T12:26:40.154Z</time>
      </trkpt>
      <trkpt lat="67.66668" lon="20.97544">
        <ele>329.089617</ele>
        <time>2020-08-27T12:26:41.995Z</time>
      </trkpt>
      <trkpt lat="67.66666" lon="20.97605">
        <ele>328.721049</ele>
        <time>2020-08-27T12:26:45.411Z</time>
      </trkpt>
      <trkpt lat="67.66663" lon="20.97715">
        <ele>328.205279</ele>
        <time>2020-08-27T12:26:51.885Z</time>
      </trkpt>
      <trkpt lat="67.66662" lon="20.97749">
        <ele>328.193288</ele>
        <time>2020-08-27T12:26:53.897Z</time>
      </trkpt>
      <trkpt lat="67.66659" lon="20.97801">
        <ele>328.175145</ele>
        <time>2020-08-27T12:26:57.334Z</time>
      </trkpt>
      <trkpt lat="67.66651" lon="20.97912">
        <ele>328.135656</ele>
        <time>2020-08-27T12:27:04.731Z</time>
      </trkpt>
      <trkpt lat="67.66645" lon="20.97999">
        <ele>328.104742</ele>
        <time>2020-08-27T12:27:11.013Z</time>
      </trkpt>
      <trkpt lat="67.6664" lon="20.98058">
        <ele>328.08375</ele>
        <time>2020-08-27T12:27:15.292Z</time>
      </trkpt>
      <trkpt lat="67.66639" lon="20.98071">
        <ele>328.079209</ele>
        <time>2020-08-27T12:27:16.448Z</time>
      </trkpt>
      <trkpt lat="67.66622" lon="20.98223">
        <ele>328.01728</ele>
        <time>2020-08-27T12:27:28.092Z</time>
      </trkpt>
      <trkpt lat="67.66591" lon="20.98431">
        <ele>327.918507</ele>
        <time>2020-08-27T12:27:44.540Z</time>
      </trkpt>
      <trkpt lat="67.66564" lon="20.98576">
        <ele>327.847059</ele>
        <time>2020-08-27T12:27:54.584Z</time>
      </trkpt>
      <trkpt lat="67.66507" lon="20.98814">
        <ele>325.89424</ele>
        <time>2020-08-27T12:28:09.875Z</time>
      </trkpt>
      <trkpt lat="67.66489" lon="20.98871">
        <ele>325.353045</ele>
        <time>2020-08-27T12:28:13.788Z</time>
      </trkpt>
      <trkpt lat="67.66479" lon="20.98905">
        <ele>325.040409</ele>
        <time>2020-08-27T12:28:15.976Z</time>
      </trkpt>
      <trkpt lat="67.66448" lon="20.99">
        <ele>324.184042</ele>
        <time>2020-08-27T12:28:22.527Z</time>
      </trkpt>
      <trkpt lat="67.66393" lon="20.99145">
        <ele>322.974347</ele>
        <time>2020-08-27T12:28:33.297Z</time>
      </trkpt>
      <trkpt lat="67.66196" lon="20.99554">
        <ele>320.477355</ele>
        <time>2020-08-27T12:29:13.024Z</time>
      </trkpt>
      <trkpt lat="67.66071" lon="20.99833">
        <ele>320.079608</ele>
        <time>2020-08-27T12:29:41.497Z</time>
      </trkpt>
      <trkpt lat="67.65986" lon="21.00092">
        <ele>320.00755</ele>
        <time>2020-08-27T12:30:04.721Z</time>
      </trkpt>
      <trkpt lat="67.65882" lon="21.00476">
        <ele>320.042687</ele>
        <time>2020-08-27T12:30:36.705Z</time>
      </trkpt>
      <trkpt lat="67.65799" lon="21.00714">
        <ele>320.251309</ele>
        <time>2020-08-27T12:30:59.021Z</time>
      </trkpt>
      <trkpt lat="67.65768" lon="21.00791">
        <ele>320.439083</ele>
        <time>2020-08-27T12:31:06.999Z</time>
      </trkpt>
      <trkpt lat="67.65737" lon="21.00857">
        <ele>320.614724</ele>
        <time>2020-08-27T12:31:14.663Z</time>
      </trkpt>
      <trkpt lat="67.6564" lon="21.01026">
        <ele>321.490323</ele>
        <time>2020-08-27T12:31:38.257Z</time>
      </trkpt>
      <trkpt lat="67.65434" lon="21.01336">
        <ele>323.741303</ele>
        <time>2020-08-27T12:32:30.018Z</time>
      </trkpt>
      <trkpt lat="67.65375" lon="21.01427">
        <ele>324.242428</ele>
        <time>2020-08-27T12:32:43.412Z</time>
      </trkpt>
      <trkpt lat="67.65234" lon="21.01659">
        <ele>323.079765</ele>
        <time>2020-08-27T12:33:09.696Z</time>
      </trkpt>
      <trkpt lat="67.65204" lon="21.01704">
        <ele>322.855592</ele>
        <time>2020-08-27T12:33:14.715Z</time>
      </trkpt>
      <trkpt lat="67.65119" lon="21.01823">
        <ele>322.245899</ele>
        <time>2020-08-27T12:33:29.770Z</time>
      </trkpt>
      <trkpt lat="67.65077" lon="21.01894">
        <ele>321.927201</ele>
        <time>2020-08-27T12:33:38.397Z</time>
      </trkpt>
      <trkpt lat="67.65041" lon="21.01952">
        <ele>321.994031</ele>
        <time>2020-08-27T12:33:46.582Z</time>
      </trkpt>
      <trkpt lat="67.64996" lon="21.0204">
        <ele>322.190227</ele>
        <time>2020-08-27T12:33:57.318Z</time>
      </trkpt>
      <trkpt lat="67.64952" lon="21.02122">
        <ele>322.381712</ele>
        <time>2020-08-27T12:34:08.049Z</time>
      </trkpt>
      <trkpt lat="67.64921" lon="21.02184">
        <ele>322.498894</ele>
        <time>2020-08-27T12:34:15.735Z</time>
      </trkpt>
      <trkpt lat="67.64833" lon="21.02425">
        <ele>322.062287</ele>
        <time>2020-08-27T12:34:37.609Z</time>
      </trkpt>
      <trkpt lat="67.64737" lon="21.0275">
        <ele>320.97685</ele>
        <time>2020-08-27T12:35:01.920Z</time>
      </trkpt>
      <trkpt lat="67.64681" lon="21.02998">
        <ele>320.31093</ele>
        <time>2020-08-27T12:35:19.264Z</time>
      </trkpt>
      <trkpt lat="67.64636" lon="21.03262">
        <ele>320.187577</ele>
        <time>2020-08-27T12:35:38.333Z</time>
      </trkpt>
      <trkpt lat="67.64528" lon="21.04076">
        <ele>322.895352</ele>
        <time>2020-08-27T12:36:45.198Z</time>
      </trkpt>
      <trkpt lat="67.64473" lon="21.0451">
        <ele>325.990416</ele>
        <time>2020-08-27T12:37:27.419Z</time>
      </trkpt>
      <trkpt lat="67.64434" lon="21.04826">
        <ele>328.796483</ele>
        <time>2020-08-27T12:37:59.583Z</time>
      </trkpt>
      <trkpt lat="67.64407" lon="21.04962">
        <ele>330.173043</ele>
        <time>2020-08-27T12:38:14.385Z</time>
      </trkpt>
      <trkpt lat="67.64357" lon="21.05187">
        <ele>332.428874</ele>
        <time>2020-08-27T12:38:39.270Z</time>
      </trkpt>
      <trkpt lat="67.64291" lon="21.05436">
        <ele>334.909168</ele>
        <time>2020-08-27T12:39:08.384Z</time>
      </trkpt>
      <trkpt lat="67.64264" lon="21.05525">
        <ele>335.722687</ele>
        <time>2020-08-27T12:39:18.541Z</time>
      </trkpt>
      <trkpt lat="67.64263" lon="21.0553">
        <ele>335.749407</ele>
        <time>2020-08-27T12:39:19.275Z</time>
      </trkpt>
      <trkpt lat="67.64165" lon="21.05796">
        <ele>337.500843</ele>
        <time>2020-08-27T12:39:50.111Z</time>
      </trkpt>
      <trkpt lat="67.64078" lon="21.05985">
        <ele>338.164706</ele>
        <time>2020-08-27T12:40:11.912Z</time>
      </trkpt>
      <trkpt lat="67.64029" lon="21.06072">
        <ele>338.403237</ele>
        <time>2020-08-27T12:40:23.110Z</time>
      </trkpt>
      <trkpt lat="67.64008" lon="21.06108">
        <ele>338.503711</ele>
        <time>2020-08-27T12:40:27.830Z</time>
      </trkpt>
      <trkpt lat="67.63937" lon="21.06213">
        <ele>338.685735</ele>
        <time>2020-08-27T12:40:42.915Z</time>
      </trkpt>
      <trkpt lat="67.63851" lon="21.0632">
        <ele>338.881899</ele>
        <time>2020-08-27T12:41:00.537Z</time>
      </trkpt>
      <trkpt lat="67.638" lon="21.06382">
        <ele>338.931581</ele>
        <time>2020-08-27T12:41:10.632Z</time>
      </trkpt>
      <trkpt lat="67.63755" lon="21.06438">
        <ele>338.96206</ele>
        <time>2020-08-27T12:41:19.607Z</time>
      </trkpt>
      <trkpt lat="67.63709" lon="21.06498">
        <ele>338.993569</ele>
        <time>2020-08-27T12:41:28.820Z</time>
      </trkpt>
      <trkpt lat="67.63658" lon="21.06565">
        <ele>339.044335</ele>
        <time>2020-08-27T12:41:39.004Z</time>
      </trkpt>
      <trkpt lat="67.6358" lon="21.06663">
        <ele>339.156144</ele>
        <time>2020-08-27T12:41:54.660Z</time>
      </trkpt>
      <trkpt lat="67.63547" lon="21.06715">
        <ele>339.206561</ele>
        <time>2020-08-27T12:42:01.835Z</time>
      </trkpt>
      <trkpt lat="67.63539" lon="21.06725">
        <ele>339.217469</ele>
        <time>2020-08-27T12:42:03.428Z</time>
      </trkpt>
      <trkpt lat="67.63536" lon="21.0673">
        <ele>339.222327</ele>
        <time>2020-08-27T12:42:04.136Z</time>
      </trkpt>
      <trkpt lat="67.63511" lon="21.06769">
        <ele>339.273179</ele>
        <time>2020-08-27T12:42:09.515Z</time>
      </trkpt>
      <trkpt lat="67.63498" lon="21.06789">
        <ele>339.315154</ele>
        <time>2020-08-27T12:42:12.384Z</time>
      </trkpt>
      <trkpt lat="67.63432" lon="21.06895">
        <ele>339.529643</ele>
        <time>2020-08-27T12:42:26.985Z</time>
      </trkpt>
      <trkpt lat="67.63419" lon="21.06921">
        <ele>339.573982</ele>
        <time>2020-08-27T12:42:30.025Z</time>
      </trkpt>
      <trkpt lat="67.63396" lon="21.06968">
        <ele>339.654654</ele>
        <time>2020-08-27T12:42:35.518Z</time>
      </trkpt>
      <trkpt lat="67.63353" lon="21.07064">
        <ele>339.756338</ele>
        <time>2020-08-27T12:42:46.039Z</time>
      </trkpt>
      <trkpt lat="67.6332" lon="21.07145">
        <ele>339.779299</ele>
        <time>2020-08-27T12:42:54.365Z</time>
      </trkpt>
      <trkpt lat="67.63299" lon="21.07201">
        <ele>339.794689</ele>
        <time>2020-08-27T12:42:59.894Z</time>
      </trkpt>
      <trkpt lat="67.63277" lon="21.07259">
        <ele>339.810319</ele>
        <time>2020-08-27T12:43:05.368Z</time>
      </trkpt>
      <trkpt lat="67.63041" lon="21.07932">
        <ele>339.360959</ele>
        <time>2020-08-27T12:44:05.921Z</time>
      </trkpt>
      <trkpt lat="67.62982" lon="21.08093">
        <ele>339.209037</ele>
        <time>2020-08-27T12:44:20.547Z</time>
      </trkpt>
      <trkpt lat="67.62922" lon="21.08231">
        <ele>339.067231</ele>
        <time>2020-08-27T12:44:34.118Z</time>
      </trkpt>
      <trkpt lat="67.62859" lon="21.08358">
        <ele>338.940396</ele>
        <time>2020-08-27T12:44:47.904Z</time>
      </trkpt>
      <trkpt lat="67.62767" lon="21.08512">
        <ele>339.250059</ele>
        <time>2020-08-27T12:45:07.624Z</time>
      </trkpt>
      <trkpt lat="67.62639" lon="21.0867">
        <ele>340.801626</ele>
        <time>2020-08-27T12:45:36.193Z</time>
      </trkpt>
      <trkpt lat="67.62573" lon="21.08734">
        <ele>342.081697</ele>
        <time>2020-08-27T12:45:52.992Z</time>
      </trkpt>
      <trkpt lat="67.62361" lon="21.08941">
        <ele>349.824277</ele>
        <time>2020-08-27T12:46:59.520Z</time>
      </trkpt>
      <trkpt lat="67.61853" lon="21.09436">
        <ele>375.403269</ele>
        <time>2020-08-27T12:49:59.620Z</time>
      </trkpt>
      <trkpt lat="67.61713" lon="21.09581">
        <ele>382.044527</ele>
        <time>2020-08-27T12:50:48.193Z</time>
      </trkpt>
      <trkpt lat="67.61585" lon="21.09761">
        <ele>387.168893</ele>
        <time>2020-08-27T12:51:31.156Z</time>
      </trkpt>
      <trkpt lat="67.61462" lon="21.0997">
        <ele>391.145318</ele>
        <time>2020-08-27T12:52:09.819Z</time>
      </trkpt>
      <trkpt lat="67.61038" lon="21.10975">
        <ele>402.167375</ele>
        <time>2020-08-27T12:54:26.862Z</time>
      </trkpt>
      <trkpt lat="67.60824" lon="21.11382">
        <ele>405.759139</ele>
        <time>2020-08-27T12:55:24.939Z</time>
      </trkpt>
      <trkpt lat="67.60499" lon="21.11869">
        <ele>409.167275</ele>
        <time>2020-08-27T12:56:42.633Z</time>
      </trkpt>
      <trkpt lat="67.60244" lon="21.1207">
        <ele>410.825827</ele>
        <time>2020-08-27T12:57:34.946Z</time>
      </trkpt>
      <trkpt lat="67.60008" lon="21.12149">
        <ele>412.180272</ele>
        <time>2020-08-27T12:58:22.307Z</time>
      </trkpt>
      <trkpt lat="67.59787" lon="21.1217">
        <ele>412.666409</ele>
        <time>2020-08-27T12:59:02.889Z</time>
      </trkpt>
      <trkpt lat="67.59583" lon="21.12267">
        <ele>413.105782</ele>
        <time>2020-08-27T12:59:40.637Z</time>
      </trkpt>
      <trkpt lat="67.58702" lon="21.12802">
        <ele>416.468426</ele>
        <time>2020-08-27T13:02:33.361Z</time>
      </trkpt>
      <trkpt lat="67.58287" lon="21.13069">
        <ele>418.333151</ele>
        <time>2020-08-27T13:03:56.104Z</time>
      </trkpt>
      <trkpt lat="67.57832" lon="21.13625">
        <ele>418.331145</ele>
        <time>2020-08-27T13:05:25.393Z</time>
      </trkpt>
      <trkpt lat="67.57737" lon="21.13736">
        <ele>418.242469</ele>
        <time>2020-08-27T13:05:43.525Z</time>
      </trkpt>
      <trkpt lat="67.57633" lon="21.1384">
        <ele>418.137484</ele>
        <time>2020-08-27T13:06:02.968Z</time>
      </trkpt>
      <trkpt lat="67.57324" lon="21.14063">
        <ele>418.143555</ele>
        <time>2020-08-27T13:07:00.043Z</time>
      </trkpt>
      <trkpt lat="67.56456" lon="21.14635">
        <ele>418.998886</ele>
        <time>2020-08-27T13:09:42.868Z</time>
      </trkpt>
      <trkpt lat="67.56393" lon="21.14677">
        <ele>419.063923</ele>
        <time>2020-08-27T13:09:54.672Z</time>
      </trkpt>
      <trkpt lat="67.5624" lon="21.14774">
        <ele>419.032057</ele>
        <time>2020-08-27T13:10:22.626Z</time>
      </trkpt>
      <trkpt lat="67.56082" lon="21.14836">
        <ele>418.661981</ele>
        <time>2020-08-27T13:10:50.470Z</time>
      </trkpt>
      <trkpt lat="67.55948" lon="21.14845">
        <ele>417.908806</ele>
        <time>2020-08-27T13:11:12.546Z</time>
      </trkpt>
      <trkpt lat="67.55815" lon="21.14818">
        <ele>416.74736</ele>
        <time>2020-08-27T13:11:33.304Z</time>
      </trkpt>
      <trkpt lat="67.54868" lon="21.14447">
        <ele>405.296169</ele>
        <time>2020-08-27T13:13:57.733Z</time>
      </trkpt>
      <trkpt lat="67.54758" lon="21.14403">
        <ele>404.617649</ele>
        <time>2020-08-27T13:14:16.825Z</time>
      </trkpt>
      <trkpt lat="67.54655" lon="21.14371">
        <ele>404.414965</ele>
        <time>2020-08-27T13:14:35.317Z</time>
      </trkpt>
      <trkpt lat="67.54592" lon="21.14372">
        <ele>404.151143</ele>
        <time>2020-08-27T13:14:45.872Z</time>
      </trkpt>
      <trkpt lat="67.54548" lon="21.14373">
        <ele>403.591176</ele>
        <time>2020-08-27T13:14:52.872Z</time>
      </trkpt>
      <trkpt lat="67.54439" lon="21.14402">
        <ele>402.209641</ele>
        <time>2020-08-27T13:15:09.057Z</time>
      </trkpt>
      <trkpt lat="67.54317" lon="21.14484">
        <ele>399.303037</ele>
        <time>2020-08-27T13:15:26.553Z</time>
      </trkpt>
      <trkpt lat="67.54228" lon="21.14577">
        <ele>396.767994</ele>
        <time>2020-08-27T13:15:39.440Z</time>
      </trkpt>
      <trkpt lat="67.5386" lon="21.15039">
        <ele>384.391304</ele>
        <time>2020-08-27T13:16:32.828Z</time>
      </trkpt>
      <trkpt lat="67.53828" lon="21.15065">
        <ele>383.543682</ele>
        <time>2020-08-27T13:16:37.350Z</time>
      </trkpt>
      <trkpt lat="67.53736" lon="21.1514">
        <ele>381.443489</ele>
        <time>2020-08-27T13:16:50.974Z</time>
      </trkpt>
      <trkpt lat="67.53639" lon="21.1519">
        <ele>380.248101</ele>
        <time>2020-08-27T13:17:06.050Z</time>
      </trkpt>
      <trkpt lat="67.53538" lon="21.15209">
        <ele>379.301472</ele>
        <time>2020-08-27T13:17:22.225Z</time>
      </trkpt>
      <trkpt lat="67.53435" lon="21.15194">
        <ele>378.662865</ele>
        <time>2020-08-27T13:17:38.938Z</time>
      </trkpt>
      <trkpt lat="67.52494" lon="21.14876">
        <ele>374.418753</ele>
        <time>2020-08-27T13:20:16.516Z</time>
      </trkpt>
      <trkpt lat="67.52426" lon="21.1485">
        <ele>374.368335</ele>
        <time>2020-08-27T13:20:28.375Z</time>
      </trkpt>
      <trkpt lat="67.52361" lon="21.14806">
        <ele>374.318718</ele>
        <time>2020-08-27T13:20:40.379Z</time>
      </trkpt>
      <trkpt lat="67.52058" lon="21.14554">
        <ele>375.221089</ele>
        <time>2020-08-27T13:21:40.144Z</time>
      </trkpt>
      <trkpt lat="67.5187" lon="21.14424">
        <ele>376.212069</ele>
        <time>2020-08-27T13:22:18.233Z</time>
      </trkpt>
      <trkpt lat="67.51753" lon="21.14384">
        <ele>376.881735</ele>
        <time>2020-08-27T13:22:41.485Z</time>
      </trkpt>
      <trkpt lat="67.51373" lon="21.143">
        <ele>378.800158</ele>
        <time>2020-08-27T13:23:56.088Z</time>
      </trkpt>
      <trkpt lat="67.51245" lon="21.14271">
        <ele>378.966972</ele>
        <time>2020-08-27T13:24:19.934Z</time>
      </trkpt>
      <trkpt lat="67.51107" lon="21.14219">
        <ele>378.485674</ele>
        <time>2020-08-27T13:24:43.123Z</time>
      </trkpt>
      <trkpt lat="67.50965" lon="21.14145">
        <ele>377.358019</ele>
        <time>2020-08-27T13:25:05.894Z</time>
      </trkpt>
      <trkpt lat="67.50822" lon="21.14042">
        <ele>376.601677</ele>
        <time>2020-08-27T13:25:29.692Z</time>
      </trkpt>
      <trkpt lat="67.50685" lon="21.13919">
        <ele>376.457106</ele>
        <time>2020-08-27T13:25:55.357Z</time>
      </trkpt>
      <trkpt lat="67.50548" lon="21.1377">
        <ele>376.647814</ele>
        <time>2020-08-27T13:26:23.768Z</time>
      </trkpt>
      <trkpt lat="67.50515" lon="21.13731">
        <ele>376.634448</ele>
        <time>2020-08-27T13:26:30.554Z</time>
      </trkpt>
      <trkpt lat="67.49745" lon="21.12806">
        <ele>375.816798</ele>
        <time>2020-08-27T13:28:59.363Z</time>
      </trkpt>
      <trkpt lat="67.49324" lon="21.12311">
        <ele>370.26548</ele>
        <time>2020-08-27T13:30:09.558Z</time>
      </trkpt>
      <trkpt lat="67.49269" lon="21.1226">
        <ele>369.212433</ele>
        <time>2020-08-27T13:30:17.735Z</time>
      </trkpt>
      <trkpt lat="67.49272" lon="21.12221">
        <ele>368.765823</ele>
        <time>2020-08-27T13:30:19.877Z</time>
      </trkpt>
      <trkpt lat="67.49272" lon="21.12187">
        <ele>368.391819</ele>
        <time>2020-08-27T13:30:21.715Z</time>
      </trkpt>
      <trkpt lat="67.49266" lon="21.12163">
        <ele>368.064771</ele>
        <time>2020-08-27T13:30:23.289Z</time>
      </trkpt>
      <trkpt lat="67.4925" lon="21.12147">
        <ele>367.584708</ele>
        <time>2020-08-27T13:30:25.574Z</time>
      </trkpt>
      <trkpt lat="67.49105" lon="21.12035">
        <ele>363.907899</ele>
        <time>2020-08-27T13:30:46.422Z</time>
      </trkpt>
      <trkpt lat="67.49077" lon="21.12005">
        <ele>363.619913</ele>
        <time>2020-08-27T13:30:50.841Z</time>
      </trkpt>
      <trkpt lat="67.49062" lon="21.1199">
        <ele>363.468826</ele>
        <time>2020-08-27T13:30:53.262Z</time>
      </trkpt>
      <trkpt lat="67.49057" lon="21.11984">
        <ele>363.413191</ele>
        <time>2020-08-27T13:30:54.182Z</time>
      </trkpt>
      <trkpt lat="67.49037" lon="21.11959">
        <ele>363.202674</ele>
        <time>2020-08-27T13:30:57.872Z</time>
      </trkpt>
      <trkpt lat="67.48958" lon="21.11865">
        <ele>362.888907</ele>
        <time>2020-08-27T13:31:15.903Z</time>
      </trkpt>
      <trkpt lat="67.48851" lon="21.11737">
        <ele>365.161071</ele>
        <time>2020-08-27T13:31:45.883Z</time>
      </trkpt>
      <trkpt lat="67.48807" lon="21.11683">
        <ele>366.086335</ele>
        <time>2020-08-27T13:31:58.879Z</time>
      </trkpt>
      <trkpt lat="67.48777" lon="21.1165">
        <ele>366.593077</ele>
        <time>2020-08-27T13:32:07.242Z</time>
      </trkpt>
      <trkpt lat="67.48728" lon="21.11619">
        <ele>367.392677</ele>
        <time>2020-08-27T13:32:19.359Z</time>
      </trkpt>
      <trkpt lat="67.48692" lon="21.11602">
        <ele>367.970562</ele>
        <time>2020-08-27T13:32:27.377Z</time>
      </trkpt>
      <trkpt lat="67.48644" lon="21.11595">
        <ele>368.719992</ele>
        <time>2020-08-27T13:32:37.716Z</time>
      </trkpt>
      <trkpt lat="67.48554" lon="21.11614">
        <ele>370.2499</ele>
        <time>2020-08-27T13:32:58.768Z</time>
      </trkpt>
      <trkpt lat="67.48511" lon="21.11644">
        <ele>371.012303</ele>
        <time>2020-08-27T13:33:09.788Z</time>
      </trkpt>
      <trkpt lat="67.48472" lon="21.11677">
        <ele>371.709853</ele>
        <time>2020-08-27T13:33:20.065Z</time>
      </trkpt>
      <trkpt lat="67.48428" lon="21.11735">
        <ele>372.578345</ele>
        <time>2020-08-27T13:33:32.549Z</time>
      </trkpt>
      <trkpt lat="67.48342" lon="21.11887">
        <ele>374.430088</ele>
        <time>2020-08-27T13:33:58.968Z</time>
      </trkpt>
      <trkpt lat="67.48249" lon="21.12136">
        <ele>375.110352</ele>
        <time>2020-08-27T13:34:27.188Z</time>
      </trkpt>
      <trkpt lat="67.48173" lon="21.1231">
        <ele>374.837791</ele>
        <time>2020-08-27T13:34:43.945Z</time>
      </trkpt>
      <trkpt lat="67.48085" lon="21.12447">
        <ele>373.210277</ele>
        <time>2020-08-27T13:34:59.208Z</time>
      </trkpt>
      <trkpt lat="67.48003" lon="21.12524">
        <ele>372.129127</ele>
        <time>2020-08-27T13:35:12.413Z</time>
      </trkpt>
      <trkpt lat="67.47968" lon="21.1254">
        <ele>371.996968</ele>
        <time>2020-08-27T13:35:18.081Z</time>
      </trkpt>
      <trkpt lat="67.47961" lon="21.12569">
        <ele>371.947646</ele>
        <time>2020-08-27T13:35:20.330Z</time>
      </trkpt>
      <trkpt lat="67.47964" lon="21.1261">
        <ele>371.889137</ele>
        <time>2020-08-27T13:35:22.940Z</time>
      </trkpt>
      <trkpt lat="67.47901" lon="21.12663">
        <ele>371.641759</ele>
        <time>2020-08-27T13:35:34.807Z</time>
      </trkpt>
      <trkpt lat="67.47847" lon="21.12708">
        <ele>372.066762</ele>
        <time>2020-08-27T13:35:46.389Z</time>
      </trkpt>
      <trkpt lat="67.47658" lon="21.12822">
        <ele>375.384111</ele>
        <time>2020-08-27T13:36:32.804Z</time>
      </trkpt>
      <trkpt lat="67.47585" lon="21.12851">
        <ele>376.901126</ele>
        <time>2020-08-27T13:36:51.418Z</time>
      </trkpt>
      <trkpt lat="67.47491" lon="21.12867">
        <ele>378.642849</ele>
        <time>2020-08-27T13:37:14.143Z</time>
      </trkpt>
      <trkpt lat="67.47469" lon="21.12868">
        <ele>378.971236</ele>
        <time>2020-08-27T13:37:19.302Z</time>
      </trkpt>
      <trkpt lat="67.47448" lon="21.12867">
        <ele>379.290595</ele>
        <time>2020-08-27T13:37:24.098Z</time>
      </trkpt>
      <trkpt lat="67.47318" lon="21.12833">
        <ele>381.139715</ele>
        <time>2020-08-27T13:37:52.699Z</time>
      </trkpt>
      <trkpt lat="67.47239" lon="21.12783">
        <ele>382.035352</ele>
        <time>2020-08-27T13:38:09.475Z</time>
      </trkpt>
      <trkpt lat="67.46996" lon="21.12544">
        <ele>385.074544</ele>
        <time>2020-08-27T13:39:05.628Z</time>
      </trkpt>
      <trkpt lat="67.46886" lon="21.12476">
        <ele>386.669434</ele>
        <time>2020-08-27T13:39:30.885Z</time>
      </trkpt>
      <trkpt lat="67.46724" lon="21.12435">
        <ele>389.021581</ele>
        <time>2020-08-27T13:40:07.780Z</time>
      </trkpt>
      <trkpt lat="67.46662" lon="21.1243">
        <ele>389.931041</ele>
        <time>2020-08-27T13:40:21.777Z</time>
      </trkpt>
      <trkpt lat="67.4656" lon="21.12446">
        <ele>391.34058</ele>
        <time>2020-08-27T13:40:44.733Z</time>
      </trkpt>
      <trkpt lat="67.46423" lon="21.12477">
        <ele>393.091425</ele>
        <time>2020-08-27T13:41:14.926Z</time>
      </trkpt>
      <trkpt lat="67.46417" lon="21.12478">
        <ele>393.158668</ele>
        <time>2020-08-27T13:41:16.313Z</time>
      </trkpt>
      <trkpt lat="67.46225" lon="21.1252">
        <ele>395.197702</ele>
        <time>2020-08-27T13:41:56.665Z</time>
      </trkpt>
      <trkpt lat="67.46115" lon="21.12515">
        <ele>396.28401</ele>
        <time>2020-08-27T13:42:19.766Z</time>
      </trkpt>
      <trkpt lat="67.46013" lon="21.12472">
        <ele>397.76494</ele>
        <time>2020-08-27T13:42:42.130Z</time>
      </trkpt>
      <trkpt lat="67.45774" lon="21.12319">
        <ele>402.075486</ele>
        <time>2020-08-27T13:43:40.209Z</time>
      </trkpt>
      <trkpt lat="67.45723" lon="21.12299">
        <ele>403.157269</ele>
        <time>2020-08-27T13:43:53.424Z</time>
      </trkpt>
      <trkpt lat="67.45711" lon="21.12295">
        <ele>403.420466</ele>
        <time>2020-08-27T13:43:56.597Z</time>
      </trkpt>
      <trkpt lat="67.45694" lon="21.12289">
        <ele>403.788853</ele>
        <time>2020-08-27T13:44:01.184Z</time>
      </trkpt>
      <trkpt lat="67.45482" lon="21.12251">
        <ele>407.344617</ele>
        <time>2020-08-27T13:44:52.990Z</time>
      </trkpt>
      <trkpt lat="67.45175" lon="21.12199">
        <ele>407.854413</ele>
        <time>2020-08-27T13:45:47.387Z</time>
      </trkpt>
      <trkpt lat="67.4501" lon="21.1217">
        <ele>407.067501</ele>
        <time>2020-08-27T13:46:13.789Z</time>
      </trkpt>
      <trkpt lat="67.44831" lon="21.1214">
        <ele>406.700338</ele>
        <time>2020-08-27T13:46:44.501Z</time>
      </trkpt>
      <trkpt lat="67.4474" lon="21.12104">
        <ele>407.07622</ele>
        <time>2020-08-27T13:47:02.131Z</time>
      </trkpt>
      <trkpt lat="67.4462" lon="21.12012">
        <ele>407.74301</ele>
        <time>2020-08-27T13:47:27.395Z</time>
      </trkpt>
      <trkpt lat="67.44364" lon="21.11751">
        <ele>409.237509</ele>
        <time>2020-08-27T13:48:21.628Z</time>
      </trkpt>
      <trkpt lat="67.4426" lon="21.1168">
        <ele>409.084042</ele>
        <time>2020-08-27T13:48:40.957Z</time>
      </trkpt>
      <trkpt lat="67.44209" lon="21.11658">
        <ele>408.958134</ele>
        <time>2020-08-27T13:48:49.509Z</time>
      </trkpt>
      <trkpt lat="67.44174" lon="21.11649">
        <ele>408.873139</ele>
        <time>2020-08-27T13:48:55.129Z</time>
      </trkpt>
      <trkpt lat="67.44131" lon="21.11641">
        <ele>408.197913</ele>
        <time>2020-08-27T13:49:01.920Z</time>
      </trkpt>
      <trkpt lat="67.4411" lon="21.11639">
        <ele>407.845735</ele>
        <time>2020-08-27T13:49:05.359Z</time>
      </trkpt>
      <trkpt lat="67.44084" lon="21.11636">
        <ele>407.442086</ele>
        <time>2020-08-27T13:49:09.098Z</time>
      </trkpt>
      <trkpt lat="67.43957" lon="21.11639">
        <ele>404.967865</ele>
        <time>2020-08-27T13:49:26.830Z</time>
      </trkpt>
      <trkpt lat="67.43934" lon="21.11645">
        <ele>404.321266</ele>
        <time>2020-08-27T13:49:29.921Z</time>
      </trkpt>
      <trkpt lat="67.43933" lon="21.11635">
        <ele>404.212452</ele>
        <time>2020-08-27T13:49:30.477Z</time>
      </trkpt>
      <trkpt lat="67.43931" lon="21.11613">
        <ele>403.972748</ele>
        <time>2020-08-27T13:49:31.753Z</time>
      </trkpt>
      <trkpt lat="67.43923" lon="21.11617">
        <ele>403.765104</ele>
        <time>2020-08-27T13:49:32.697Z</time>
      </trkpt>
      <trkpt lat="67.43824" lon="21.11647">
        <ele>401.010206</ele>
        <time>2020-08-27T13:49:45.913Z</time>
      </trkpt>
      <trkpt lat="67.43714" lon="21.11737">
        <ele>398.15859</ele>
        <time>2020-08-27T13:50:01.324Z</time>
      </trkpt>
      <trkpt lat="67.43644" lon="21.11809">
        <ele>396.430983</ele>
        <time>2020-08-27T13:50:11.905Z</time>
      </trkpt>
      <trkpt lat="67.43525" lon="21.11982">
        <ele>394.789784</ele>
        <time>2020-08-27T13:50:32.630Z</time>
      </trkpt>
      <trkpt lat="67.43464" lon="21.12089">
        <ele>394.231191</ele>
        <time>2020-08-27T13:50:44.571Z</time>
      </trkpt>
      <trkpt lat="67.43393" lon="21.12243">
        <ele>393.843151</ele>
        <time>2020-08-27T13:51:00.150Z</time>
      </trkpt>
      <trkpt lat="67.4338" lon="21.12258">
        <ele>393.782114</ele>
        <time>2020-08-27T13:51:02.645Z</time>
      </trkpt>
      <trkpt lat="67.43328" lon="21.12258">
        <ele>393.561452</ele>
        <time>2020-08-27T13:51:11.519Z</time>
      </trkpt>
      <trkpt lat="67.43301" lon="21.12304">
        <ele>393.425982</ele>
        <time>2020-08-27T13:51:16.912Z</time>
      </trkpt>
      <trkpt lat="67.4328" lon="21.12352">
        <ele>393.305309</ele>
        <time>2020-08-27T13:51:21.718Z</time>
      </trkpt>
      <trkpt lat="67.43239" lon="21.12517">
        <ele>392.982609</ele>
        <time>2020-08-27T13:51:34.299Z</time>
      </trkpt>
      <trkpt lat="67.43215" lon="21.12582">
        <ele>392.774365</ele>
        <time>2020-08-27T13:51:39.884Z</time>
      </trkpt>
      <trkpt lat="67.43185" lon="21.12636">
        <ele>392.392014</ele>
        <time>2020-08-27T13:51:45.734Z</time>
      </trkpt>
      <trkpt lat="67.42741" lon="21.13205">
        <ele>387.221169</ele>
        <time>2020-08-27T13:53:01.441Z</time>
      </trkpt>
      <trkpt lat="67.42607" lon="21.13398">
        <ele>386.206132</ele>
        <time>2020-08-27T13:53:26.345Z</time>
      </trkpt>
      <trkpt lat="67.42342" lon="21.13703">
        <ele>384.15578</ele>
        <time>2020-08-27T13:54:13.295Z</time>
      </trkpt>
      <trkpt lat="67.42241" lon="21.13727">
        <ele>383.230353</ele>
        <time>2020-08-27T13:54:28.868Z</time>
      </trkpt>
      <trkpt lat="67.4218" lon="21.1372">
        <ele>382.682368</ele>
        <time>2020-08-27T13:54:38.141Z</time>
      </trkpt>
      <trkpt lat="67.41989" lon="21.13532">
        <ele>381.327847</ele>
        <time>2020-08-27T13:55:10.690Z</time>
      </trkpt>
      <trkpt lat="67.41946" lon="21.13453">
        <ele>381.12913</ele>
        <time>2020-08-27T13:55:19.887Z</time>
      </trkpt>
      <trkpt lat="67.41891" lon="21.13295">
        <ele>381.222731</ele>
        <time>2020-08-27T13:55:34.979Z</time>
      </trkpt>
      <trkpt lat="67.41834" lon="21.13042">
        <ele>381.7745</ele>
        <time>2020-08-27T13:55:57.245Z</time>
      </trkpt>
      <trkpt lat="67.41828" lon="21.12984">
        <ele>381.904705</ele>
        <time>2020-08-27T13:56:01.741Z</time>
      </trkpt>
      <trkpt lat="67.41825" lon="21.1295">
        <ele>382.064674</ele>
        <time>2020-08-27T13:56:04.455Z</time>
      </trkpt>
      <trkpt lat="67.41809" lon="21.12752">
        <ele>383.00428</ele>
        <time>2020-08-27T13:56:20.684Z</time>
      </trkpt>
      <trkpt lat="67.41816" lon="21.12651">
        <ele>383.48416</ele>
        <time>2020-08-27T13:56:29.571Z</time>
      </trkpt>
      <trkpt lat="67.41815" lon="21.12613">
        <ele>383.66347</ele>
        <time>2020-08-27T13:56:33.050Z</time>
      </trkpt>
      <trkpt lat="67.41804" lon="21.12477">
        <ele>384.491402</ele>
        <time>2020-08-27T13:56:45.245Z</time>
      </trkpt>
      <trkpt lat="67.41798" lon="21.12427">
        <ele>384.906523</ele>
        <time>2020-08-27T13:56:50.163Z</time>
      </trkpt>
      <trkpt lat="67.4178" lon="21.12363">
        <ele>385.541683</ele>
        <time>2020-08-27T13:56:57.542Z</time>
      </trkpt>
      <trkpt lat="67.41753" lon="21.12127">
        <ele>387.49764</ele>
        <time>2020-08-27T13:57:21.171Z</time>
      </trkpt>
      <trkpt lat="67.41738" lon="21.12047">
        <ele>388.081727</ele>
        <time>2020-08-27T13:57:29.835Z</time>
      </trkpt>
      <trkpt lat="67.4171" lon="21.11929">
        <ele>388.885482</ele>
        <time>2020-08-27T13:57:42.997Z</time>
      </trkpt>
      <trkpt lat="67.41653" lon="21.11741">
        <ele>390.270902</ele>
        <time>2020-08-27T13:58:02.990Z</time>
      </trkpt>
      <trkpt lat="67.41628" lon="21.11668">
        <ele>390.425834</ele>
        <time>2020-08-27T13:58:10.582Z</time>
      </trkpt>
      <trkpt lat="67.41612" lon="21.11597">
        <ele>390.359194</ele>
        <time>2020-08-27T13:58:16.531Z</time>
      </trkpt>
      <trkpt lat="67.41603" lon="21.1155">
        <ele>390.317073</ele>
        <time>2020-08-27T13:58:20.135Z</time>
      </trkpt>
      <trkpt lat="67.41601" lon="21.11535">
        <ele>390.303815</ele>
        <time>2020-08-27T13:58:21.215Z</time>
      </trkpt>
      <trkpt lat="67.41588" lon="21.11504">
        <ele>390.266999</ele>
        <time>2020-08-27T13:58:24.108Z</time>
      </trkpt>
      <trkpt lat="67.41581" lon="21.11499">
        <ele>390.249786</ele>
        <time>2020-08-27T13:58:25.530Z</time>
      </trkpt>
      <trkpt lat="67.41572" lon="21.11508">
        <ele>390.230177</ele>
        <time>2020-08-27T13:58:27.005Z</time>
      </trkpt>
      <trkpt lat="67.41562" lon="21.11528">
        <ele>390.204457</ele>
        <time>2020-08-27T13:58:29.020Z</time>
      </trkpt>
      <trkpt lat="67.41554" lon="21.11557">
        <ele>390.174534</ele>
        <time>2020-08-27T13:58:31.285Z</time>
      </trkpt>
      <trkpt lat="67.41547" lon="21.1157">
        <ele>390.156932</ele>
        <time>2020-08-27T13:58:32.568Z</time>
      </trkpt>
      <trkpt lat="67.41532" lon="21.1158">
        <ele>390.122809</ele>
        <time>2020-08-27T13:58:35.082Z</time>
      </trkpt>
      <trkpt lat="67.41517" lon="21.11558">
        <ele>390.04173</ele>
        <time>2020-08-27T13:58:37.685Z</time>
      </trkpt>
      <trkpt lat="67.41503" lon="21.11525">
        <ele>389.810492</ele>
        <time>2020-08-27T13:58:40.493Z</time>
      </trkpt>
      <trkpt lat="67.41521" lon="21.11461">
        <ele>389.430165</ele>
        <time>2020-08-27T13:58:45.413Z</time>
      </trkpt>
      <trkpt lat="67.41516" lon="21.11451">
        <ele>389.349943</ele>
        <time>2020-08-27T13:58:46.333Z</time>
      </trkpt>
      <trkpt lat="67.4145" lon="21.1134">
        <ele>388.381331</ele>
        <time>2020-08-27T13:58:58.283Z</time>
      </trkpt>
      <trkpt lat="67.41418" lon="21.11301">
        <ele>387.945597</ele>
        <time>2020-08-27T13:59:03.555Z</time>
      </trkpt>
      <trkpt lat="67.41393" lon="21.11275">
        <ele>387.634266</ele>
        <time>2020-08-27T13:59:07.455Z</time>
      </trkpt>
      <trkpt lat="67.41393" lon="21.11273">
        <ele>387.621099</ele>
        <time>2020-08-27T13:59:07.618Z</time>
      </trkpt>
      <trkpt lat="67.41341" lon="21.11215">
        <ele>386.953929</ele>
        <time>2020-08-27T13:59:16.371Z</time>
      </trkpt>
      <trkpt lat="67.4131" lon="21.11181">
        <ele>386.554533</ele>
        <time>2020-08-27T13:59:21.527Z</time>
      </trkpt>
      <trkpt lat="67.41273" lon="21.1114">
        <ele>386.078006</ele>
        <time>2020-08-27T13:59:27.528Z</time>
      </trkpt>
      <trkpt lat="67.412" lon="21.11052">
        <ele>385.088942</ele>
        <time>2020-08-27T13:59:39.695Z</time>
      </trkpt>
      <trkpt lat="67.41192" lon="21.11043">
        <ele>384.974468</ele>
        <time>2020-08-27T13:59:41.028Z</time>
      </trkpt>
      <trkpt lat="67.41187" lon="21.11037">
        <ele>384.901498</ele>
        <time>2020-08-27T13:59:41.930Z</time>
      </trkpt>
      <trkpt lat="67.41161" lon="21.10995">
        <ele>384.523907</ele>
        <time>2020-08-27T13:59:46.368Z</time>
      </trkpt>
      <trkpt lat="67.41063" lon="21.10798">
        <ele>383.367174</ele>
        <time>2020-08-27T14:00:05.142Z</time>
      </trkpt>
      <trkpt lat="67.41042" lon="21.10757">
        <ele>383.293813</ele>
        <time>2020-08-27T14:00:09.262Z</time>
      </trkpt>
      <trkpt lat="67.41017" lon="21.10713">
        <ele>383.210116</ele>
        <time>2020-08-27T14:00:14.384Z</time>
      </trkpt>
      <trkpt lat="67.40999" lon="21.10684">
        <ele>383.149239</ele>
        <time>2020-08-27T14:00:18.238Z</time>
      </trkpt>
      <trkpt lat="67.40978" lon="21.10656">
        <ele>383.08339</ele>
        <time>2020-08-27T14:00:22.400Z</time>
      </trkpt>
      <trkpt lat="67.40962" lon="21.10633">
        <ele>383.031299</ele>
        <time>2020-08-27T14:00:25.975Z</time>
      </trkpt>
      <trkpt lat="67.40945" lon="21.10612">
        <ele>382.979196</ele>
        <time>2020-08-27T14:00:29.407Z</time>
      </trkpt>
      <trkpt lat="67.40929" lon="21.10593">
        <ele>383.192016</ele>
        <time>2020-08-27T14:00:33.008Z</time>
      </trkpt>
      <trkpt lat="67.40849" lon="21.10513">
        <ele>384.228726</ele>
        <time>2020-08-27T14:00:51.542Z</time>
      </trkpt>
      <trkpt lat="67.40735" lon="21.10456">
        <ele>385.679363</ele>
        <time>2020-08-27T14:01:18.211Z</time>
      </trkpt>
      <trkpt lat="67.40714" lon="21.10449">
        <ele>385.974594</ele>
        <time>2020-08-27T14:01:23.199Z</time>
      </trkpt>
      <trkpt lat="67.407" lon="21.10448">
        <ele>386.155759</ele>
        <time>2020-08-27T14:01:26.152Z</time>
      </trkpt>
      <trkpt lat="67.40593" lon="21.10463">
        <ele>387.588901</ele>
        <time>2020-08-27T14:01:49.605Z</time>
      </trkpt>
      <trkpt lat="67.40513" lon="21.10507">
        <ele>388.165975</ele>
        <time>2020-08-27T14:02:06.448Z</time>
      </trkpt>
      <trkpt lat="67.40416" lon="21.10601">
        <ele>388.849679</ele>
        <time>2020-08-27T14:02:26.572Z</time>
      </trkpt>
      <trkpt lat="67.40305" lon="21.10754">
        <ele>389.148468</ele>
        <time>2020-08-27T14:02:50.203Z</time>
      </trkpt>
      <trkpt lat="67.40272" lon="21.10803">
        <ele>389.239414</ele>
        <time>2020-08-27T14:02:57.130Z</time>
      </trkpt>
      <trkpt lat="67.40256" lon="21.10826">
        <ele>389.249141</ele>
        <time>2020-08-27T14:03:00.238Z</time>
      </trkpt>
      <trkpt lat="67.4019" lon="21.1091">
        <ele>389.170927</ele>
        <time>2020-08-27T14:03:13.285Z</time>
      </trkpt>
      <trkpt lat="67.4006" lon="21.11025">
        <ele>389.053545</ele>
        <time>2020-08-27T14:03:37.040Z</time>
      </trkpt>
      <trkpt lat="67.39956" lon="21.11079">
        <ele>389.012683</ele>
        <time>2020-08-27T14:03:55.903Z</time>
      </trkpt>
      <trkpt lat="67.39858" lon="21.11096">
        <ele>389.000828</ele>
        <time>2020-08-27T14:04:13.427Z</time>
      </trkpt>
      <trkpt lat="67.39752" lon="21.11088">
        <ele>389.002159</ele>
        <time>2020-08-27T14:04:32.413Z</time>
      </trkpt>
      <trkpt lat="67.39678" lon="21.11061">
        <ele>389.016115</ele>
        <time>2020-08-27T14:04:45.825Z</time>
      </trkpt>
      <trkpt lat="67.39607" lon="21.1102">
        <ele>389.03153</ele>
        <time>2020-08-27T14:04:58.857Z</time>
      </trkpt>
      <trkpt lat="67.39531" lon="21.1096">
        <ele>389.051679</ele>
        <time>2020-08-27T14:05:13.062Z</time>
      </trkpt>
      <trkpt lat="67.39434" lon="21.10851">
        <ele>389.082861</ele>
        <time>2020-08-27T14:05:31.769Z</time>
      </trkpt>
      <trkpt lat="67.39365" lon="21.1075">
        <ele>389.333878</ele>
        <time>2020-08-27T14:05:46.166Z</time>
      </trkpt>
      <trkpt lat="67.39032" lon="21.10198">
        <ele>392.574714</ele>
        <time>2020-08-27T14:07:05.963Z</time>
      </trkpt>
      <trkpt lat="67.38845" lon="21.09907">
        <ele>396.084161</ele>
        <time>2020-08-27T14:07:58.946Z</time>
      </trkpt>
      <trkpt lat="67.38702" lon="21.09593">
        <ele>398.45344</ele>
        <time>2020-08-27T14:08:40.172Z</time>
      </trkpt>
      <trkpt lat="67.38621" lon="21.09315">
        <ele>399.129217</ele>
        <time>2020-08-27T14:09:05.940Z</time>
      </trkpt>
      <trkpt lat="67.38472" lon="21.08612">
        <ele>398.626326</ele>
        <time>2020-08-27T14:09:59.773Z</time>
      </trkpt>
      <trkpt lat="67.38399" lon="21.08334">
        <ele>397.195208</ele>
        <time>2020-08-27T14:10:19.449Z</time>
      </trkpt>
      <trkpt lat="67.38306" lon="21.0811">
        <ele>394.949118</ele>
        <time>2020-08-27T14:10:37.459Z</time>
      </trkpt>
      <trkpt lat="67.38207" lon="21.07939">
        <ele>392.783125</ele>
        <time>2020-08-27T14:10:54.130Z</time>
      </trkpt>
      <trkpt lat="67.3809" lon="21.07802">
        <ele>390.660752</ele>
        <time>2020-08-27T14:11:12.953Z</time>
      </trkpt>
      <trkpt lat="67.38029" lon="21.07753">
        <ele>390.134897</ele>
        <time>2020-08-27T14:11:22.706Z</time>
      </trkpt>
      <trkpt lat="67.37964" lon="21.07723">
        <ele>389.672607</ele>
        <time>2020-08-27T14:11:33.370Z</time>
      </trkpt>
      <trkpt lat="67.3785" lon="21.07714">
        <ele>389.182559</ele>
        <time>2020-08-27T14:11:52.780Z</time>
      </trkpt>
      <trkpt lat="67.37758" lon="21.07723">
        <ele>389.055264</ele>
        <time>2020-08-27T14:12:09.101Z</time>
      </trkpt>
      <trkpt lat="67.37609" lon="21.07836">
        <ele>389.079228</ele>
        <time>2020-08-27T14:12:36.777Z</time>
      </trkpt>
      <trkpt lat="67.37542" lon="21.07915">
        <ele>389.154327</ele>
        <time>2020-08-27T14:12:50.132Z</time>
      </trkpt>
      <trkpt lat="67.37467" lon="21.08053">
        <ele>389.408133</ele>
        <time>2020-08-27T14:13:07.443Z</time>
      </trkpt>
      <trkpt lat="67.37446" lon="21.08092">
        <ele>389.479692</ele>
        <time>2020-08-27T14:13:12.378Z</time>
      </trkpt>
      <trkpt lat="67.3742" lon="21.08139">
        <ele>389.566083</ele>
        <time>2020-08-27T14:13:18.370Z</time>
      </trkpt>
      <trkpt lat="67.37305" lon="21.08402">
        <ele>389.741471</ele>
        <time>2020-08-27T14:13:46.858Z</time>
      </trkpt>
      <trkpt lat="67.37221" lon="21.08533">
        <ele>389.650511</ele>
        <time>2020-08-27T14:14:03.595Z</time>
      </trkpt>
      <trkpt lat="67.37182" lon="21.08594">
        <ele>389.543874</ele>
        <time>2020-08-27T14:14:11.361Z</time>
      </trkpt>
      <trkpt lat="67.3715" lon="21.08633">
        <ele>389.46197</ele>
        <time>2020-08-27T14:14:17.317Z</time>
      </trkpt>
      <trkpt lat="67.3699" lon="21.08826">
        <ele>389.289058</ele>
        <time>2020-08-27T14:14:48.111Z</time>
      </trkpt>
      <trkpt lat="67.3691" lon="21.08967">
        <ele>389.36039</ele>
        <time>2020-08-27T14:15:05.760Z</time>
      </trkpt>
      <trkpt lat="67.36789" lon="21.0917">
        <ele>389.687246</ele>
        <time>2020-08-27T14:15:32.362Z</time>
      </trkpt>
      <trkpt lat="67.36766" lon="21.09209">
        <ele>389.837497</ele>
        <time>2020-08-27T14:15:37.459Z</time>
      </trkpt>
      <trkpt lat="67.36683" lon="21.09304">
        <ele>390.338228</ele>
        <time>2020-08-27T14:15:55.265Z</time>
      </trkpt>
      <trkpt lat="67.3663" lon="21.09354">
        <ele>390.697619</ele>
        <time>2020-08-27T14:16:06.824Z</time>
      </trkpt>
      <trkpt lat="67.36601" lon="21.09381">
        <ele>391.015867</ele>
        <time>2020-08-27T14:16:13.220Z</time>
      </trkpt>
      <trkpt lat="67.36506" lon="21.09443">
        <ele>392.030414</ele>
        <time>2020-08-27T14:16:34.158Z</time>
      </trkpt>
      <trkpt lat="67.3638" lon="21.09483">
        <ele>393.230193</ele>
        <time>2020-08-27T14:17:01.064Z</time>
      </trkpt>
      <trkpt lat="67.3591" lon="21.09555">
        <ele>397.708777</ele>
        <time>2020-08-27T14:18:38.066Z</time>
      </trkpt>
      <trkpt lat="67.35808" lon="21.09613">
        <ele>399.705571</ele>
        <time>2020-08-27T14:19:02.694Z</time>
      </trkpt>
      <trkpt lat="67.35504" lon="21.0975">
        <ele>407.553807</ele>
        <time>2020-08-27T14:20:24.455Z</time>
      </trkpt>
      <trkpt lat="67.35385" lon="21.09764">
        <ele>410.752624</ele>
        <time>2020-08-27T14:20:55.689Z</time>
      </trkpt>
      <trkpt lat="67.35265" lon="21.09742">
        <ele>414.289623</ele>
        <time>2020-08-27T14:21:27.693Z</time>
      </trkpt>
      <trkpt lat="67.35135" lon="21.0966">
        <ele>419.078207</ele>
        <time>2020-08-27T14:22:06.300Z</time>
      </trkpt>
      <trkpt lat="67.34951" lon="21.09513">
        <ele>427.257292</ele>
        <time>2020-08-27T14:23:08.190Z</time>
      </trkpt>
      <trkpt lat="67.34844" lon="21.0946">
        <ele>432.003872</ele>
        <time>2020-08-27T14:23:43.867Z</time>
      </trkpt>
      <trkpt lat="67.34735" lon="21.09432">
        <ele>436.179957</ele>
        <time>2020-08-27T14:24:17.707Z</time>
      </trkpt>
      <trkpt lat="67.34659" lon="21.09422">
        <ele>438.400888</ele>
        <time>2020-08-27T14:24:38.507Z</time>
      </trkpt>
      <trkpt lat="67.34582" lon="21.09426">
        <ele>439.624452</ele>
        <time>2020-08-27T14:24:56.908Z</time>
      </trkpt>
      <trkpt lat="67.34437" lon="21.09478">
        <ele>440.744424</ele>
        <time>2020-08-27T14:25:25.186Z</time>
      </trkpt>
      <trkpt lat="67.34345" lon="21.09497">
        <ele>440.70294</ele>
        <time>2020-08-27T14:25:40.602Z</time>
      </trkpt>
      <trkpt lat="67.3425" lon="21.09488">
        <ele>440.40779</ele>
        <time>2020-08-27T14:25:56.343Z</time>
      </trkpt>
      <trkpt lat="67.3422" lon="21.09473">
        <ele>440.296529</ele>
        <time>2020-08-27T14:26:01.590Z</time>
      </trkpt>
      <trkpt lat="67.34171" lon="21.0945">
        <ele>440.122705</ele>
        <time>2020-08-27T14:26:09.929Z</time>
      </trkpt>
      <trkpt lat="67.34091" lon="21.09393">
        <ele>440.064657</ele>
        <time>2020-08-27T14:26:24.277Z</time>
      </trkpt>
      <trkpt lat="67.33978" lon="21.09259">
        <ele>440.145517</ele>
        <time>2020-08-27T14:26:46.956Z</time>
      </trkpt>
      <trkpt lat="67.33916" lon="21.09157">
        <ele>440.665211</ele>
        <time>2020-08-27T14:27:01.189Z</time>
      </trkpt>
      <trkpt lat="67.33852" lon="21.09034">
        <ele>441.227541</ele>
        <time>2020-08-27T14:27:17.502Z</time>
      </trkpt>
      <trkpt lat="67.33726" lon="21.08681">
        <ele>443.296493</ele>
        <time>2020-08-27T14:27:57.883Z</time>
      </trkpt>
      <trkpt lat="67.33606" lon="21.08391">
        <ele>445.247967</ele>
        <time>2020-08-27T14:28:32.916Z</time>
      </trkpt>
      <trkpt lat="67.3348" lon="21.08168">
        <ele>447.397079</ele>
        <time>2020-08-27T14:29:06.757Z</time>
      </trkpt>
      <trkpt lat="67.33396" lon="21.08071">
        <ele>448.931684</ele>
        <time>2020-08-27T14:29:28.417Z</time>
      </trkpt>
      <trkpt lat="67.33314" lon="21.07995">
        <ele>450.670846</ele>
        <time>2020-08-27T14:29:49.626Z</time>
      </trkpt>
      <trkpt lat="67.33063" lon="21.0787">
        <ele>455.822593</ele>
        <time>2020-08-27T14:30:52.374Z</time>
      </trkpt>
      <trkpt lat="67.33046" lon="21.07865">
        <ele>456.077463</ele>
        <time>2020-08-27T14:30:56.508Z</time>
      </trkpt>
      <trkpt lat="67.32965" lon="21.07842">
        <ele>457.330128</ele>
        <time>2020-08-27T14:31:15.360Z</time>
      </trkpt>
      <trkpt lat="67.3293" lon="21.07847">
        <ele>457.864944</ele>
        <time>2020-08-27T14:31:23.061Z</time>
      </trkpt>
      <trkpt lat="67.32868" lon="21.07855">
        <ele>458.515959</ele>
        <time>2020-08-27T14:31:35.894Z</time>
      </trkpt>
      <trkpt lat="67.32757" lon="21.07904">
        <ele>459.316617</ele>
        <time>2020-08-27T14:31:57.977Z</time>
      </trkpt>
      <trkpt lat="67.32662" lon="21.07988">
        <ele>460.244566</ele>
        <time>2020-08-27T14:32:18.124Z</time>
      </trkpt>
      <trkpt lat="67.32506" lon="21.08167">
        <ele>462.284181</ele>
        <time>2020-08-27T14:32:55.558Z</time>
      </trkpt>
      <trkpt lat="67.32453" lon="21.08217">
        <ele>463.133259</ele>
        <time>2020-08-27T14:33:08.489Z</time>
      </trkpt>
      <trkpt lat="67.32366" lon="21.08263">
        <ele>464.483527</ele>
        <time>2020-08-27T14:33:29.143Z</time>
      </trkpt>
      <trkpt lat="67.32278" lon="21.08294">
        <ele>465.815115</ele>
        <time>2020-08-27T14:33:49.329Z</time>
      </trkpt>
      <trkpt lat="67.32157" lon="21.08279">
        <ele>467.480069</ele>
        <time>2020-08-27T14:34:16.355Z</time>
      </trkpt>
      <trkpt lat="67.31591" lon="21.0812">
        <ele>474.126766</ele>
        <time>2020-08-27T14:36:18.907Z</time>
      </trkpt>
      <trkpt lat="67.31311" lon="21.08115">
        <ele>476.946871</ele>
        <time>2020-08-27T14:37:18.017Z</time>
      </trkpt>
      <trkpt lat="67.31109" lon="21.08164">
        <ele>478.375856</ele>
        <time>2020-08-27T14:37:59.318Z</time>
      </trkpt>
      <trkpt lat="67.30566" lon="21.08426">
        <ele>479.395364</ele>
        <time>2020-08-27T14:39:40.741Z</time>
      </trkpt>
      <trkpt lat="67.3032" lon="21.08461">
        <ele>479.344501</ele>
        <time>2020-08-27T14:40:23.802Z</time>
      </trkpt>
      <trkpt lat="67.30254" lon="21.08456">
        <ele>479.352832</ele>
        <time>2020-08-27T14:40:35.796Z</time>
      </trkpt>
      <trkpt lat="67.3022" lon="21.08447">
        <ele>479.472352</ele>
        <time>2020-08-27T14:40:42.191Z</time>
      </trkpt>
      <trkpt lat="67.30131" lon="21.08423">
        <ele>479.86129</ele>
        <time>2020-08-27T14:40:59.271Z</time>
      </trkpt>
      <trkpt lat="67.29998" lon="21.08367">
        <ele>481.028288</ele>
        <time>2020-08-27T14:41:26.078Z</time>
      </trkpt>
      <trkpt lat="67.29172" lon="21.07916">
        <ele>492.415204</ele>
        <time>2020-08-27T14:44:32.197Z</time>
      </trkpt>
      <trkpt lat="67.29042" lon="21.07809">
        <ele>496.847039</ele>
        <time>2020-08-27T14:45:13.859Z</time>
      </trkpt>
      <trkpt lat="67.28721" lon="21.07436">
        <ele>505.529532</ele>
        <time>2020-08-27T14:46:48.074Z</time>
      </trkpt>
      <trkpt lat="67.28496" lon="21.07008">
        <ele>504.116687</ele>
        <time>2020-08-27T14:47:30.717Z</time>
      </trkpt>
      <trkpt lat="67.27874" lon="21.05488">
        <ele>500.506107</ele>
        <time>2020-08-27T14:49:52.614Z</time>
      </trkpt>
      <trkpt lat="67.27697" lon="21.05102">
        <ele>503.861715</ele>
        <time>2020-08-27T14:50:48.128Z</time>
      </trkpt>
      <trkpt lat="67.27554" lon="21.04808">
        <ele>504.674964</ele>
        <time>2020-08-27T14:51:27.417Z</time>
      </trkpt>
      <trkpt lat="67.27295" lon="21.04326">
        <ele>498.079832</ele>
        <time>2020-08-27T14:52:10.835Z</time>
      </trkpt>
      <trkpt lat="67.27006" lon="21.03882">
        <ele>488.626291</ele>
        <time>2020-08-27T14:52:55.625Z</time>
      </trkpt>
      <trkpt lat="67.26506" lon="21.03221">
        <ele>474.390162</ele>
        <time>2020-08-27T14:54:12.464Z</time>
      </trkpt>
      <trkpt lat="67.26374" lon="21.03079">
        <ele>469.250255</ele>
        <time>2020-08-27T14:54:30.643Z</time>
      </trkpt>
      <trkpt lat="67.26161" lon="21.02876">
        <ele>459.675986</ele>
        <time>2020-08-27T14:54:58.743Z</time>
      </trkpt>
      <trkpt lat="67.25795" lon="21.0257">
        <ele>446.163097</ele>
        <time>2020-08-27T14:55:47.904Z</time>
      </trkpt>
      <trkpt lat="67.25529" lon="21.02368">
        <ele>441.286463</ele>
        <time>2020-08-27T14:56:28.161Z</time>
      </trkpt>
      <trkpt lat="67.25371" lon="21.02227">
        <ele>441.82326</ele>
        <time>2020-08-27T14:57:00.143Z</time>
      </trkpt>
      <trkpt lat="67.25254" lon="21.02093">
        <ele>443.475686</ele>
        <time>2020-08-27T14:57:29.392Z</time>
      </trkpt>
      <trkpt lat="67.2507" lon="21.01828">
        <ele>446.204152</ele>
        <time>2020-08-27T14:58:17.831Z</time>
      </trkpt>
      <trkpt lat="67.24989" lon="21.01682">
        <ele>446.41511</ele>
        <time>2020-08-27T14:58:36.301Z</time>
      </trkpt>
      <trkpt lat="67.24805" lon="21.01318">
        <ele>444.074874</ele>
        <time>2020-08-27T14:59:11.434Z</time>
      </trkpt>
      <trkpt lat="67.24731" lon="21.01134">
        <ele>442.584679</ele>
        <time>2020-08-27T14:59:26.318Z</time>
      </trkpt>
      <trkpt lat="67.2467" lon="21.01003">
        <ele>441.266564</ele>
        <time>2020-08-27T14:59:37.845Z</time>
      </trkpt>
      <trkpt lat="67.24458" lon="21.00558">
        <ele>436.630678</ele>
        <time>2020-08-27T15:00:17.805Z</time>
      </trkpt>
      <trkpt lat="67.24393" lon="21.00456">
        <ele>434.684583</ele>
        <time>2020-08-27T15:00:28.314Z</time>
      </trkpt>
      <trkpt lat="67.24341" lon="21.00383">
        <ele>433.16126</ele>
        <time>2020-08-27T15:00:36.262Z</time>
      </trkpt>
      <trkpt lat="67.2422" lon="21.00258">
        <ele>428.669298</ele>
        <time>2020-08-27T15:00:52.956Z</time>
      </trkpt>
      <trkpt lat="67.24083" lon="21.00176">
        <ele>423.471142</ele>
        <time>2020-08-27T15:01:10.617Z</time>
      </trkpt>
      <trkpt lat="67.23997" lon="21.00159">
        <ele>420.231631</ele>
        <time>2020-08-27T15:01:21.700Z</time>
      </trkpt>
      <trkpt lat="67.23911" lon="21.00161">
        <ele>417.30676</ele>
        <time>2020-08-27T15:01:32.747Z</time>
      </trkpt>
      <trkpt lat="67.23828" lon="21.00181">
        <ele>414.561362</ele>
        <time>2020-08-27T15:01:43.703Z</time>
      </trkpt>
      <trkpt lat="67.23455" lon="21.00367">
        <ele>403.061863</ele>
        <time>2020-08-27T15:02:33.575Z</time>
      </trkpt>
      <trkpt lat="67.22948" lon="21.00632">
        <ele>394.672326</ele>
        <time>2020-08-27T15:03:49.027Z</time>
      </trkpt>
      <trkpt lat="67.22939" lon="21.00637">
        <ele>394.547412</ele>
        <time>2020-08-27T15:03:50.720Z</time>
      </trkpt>
      <trkpt lat="67.22841" lon="21.00691">
        <ele>393.561501</ele>
        <time>2020-08-27T15:04:06.936Z</time>
      </trkpt>
      <trkpt lat="67.22674" lon="21.00856">
        <ele>392.098706</ele>
        <time>2020-08-27T15:04:35.103Z</time>
      </trkpt>
      <trkpt lat="67.22616" lon="21.00936">
        <ele>391.545604</ele>
        <time>2020-08-27T15:04:45.295Z</time>
      </trkpt>
      <trkpt lat="67.22282" lon="21.01479">
        <ele>388.08743</ele>
        <time>2020-08-27T15:05:48.108Z</time>
      </trkpt>
      <trkpt lat="67.22187" lon="21.01602">
        <ele>385.578399</ele>
        <time>2020-08-27T15:06:02.862Z</time>
      </trkpt>
      <trkpt lat="67.22091" lon="21.01703">
        <ele>382.916261</ele>
        <time>2020-08-27T15:06:16.469Z</time>
      </trkpt>
      <trkpt lat="67.22012" lon="21.01764">
        <ele>380.799037</ele>
        <time>2020-08-27T15:06:27.253Z</time>
      </trkpt>
      <trkpt lat="67.21959" lon="21.018">
        <ele>379.373256</ele>
        <time>2020-08-27T15:06:34.681Z</time>
      </trkpt>
      <trkpt lat="67.21799" lon="21.0188">
        <ele>377.795618</ele>
        <time>2020-08-27T15:06:59.626Z</time>
      </trkpt>
      <trkpt lat="67.21765" lon="21.01889">
        <ele>377.571429</ele>
        <time>2020-08-27T15:07:06.287Z</time>
      </trkpt>
      <trkpt lat="67.21722" lon="21.01906">
        <ele>378.101485</ele>
        <time>2020-08-27T15:07:15.552Z</time>
      </trkpt>
      <trkpt lat="67.21602" lon="21.01934">
        <ele>380.141729</ele>
        <time>2020-08-27T15:07:44.837Z</time>
      </trkpt>
      <trkpt lat="67.21491" lon="21.01935">
        <ele>381.861621</ele>
        <time>2020-08-27T15:08:11.982Z</time>
      </trkpt>
      <trkpt lat="67.21357" lon="21.01889">
        <ele>383.327887</ele>
        <time>2020-08-27T15:08:40.963Z</time>
      </trkpt>
      <trkpt lat="67.21263" lon="21.01818">
        <ele>383.400897</ele>
        <time>2020-08-27T15:08:57.853Z</time>
      </trkpt>
      <trkpt lat="67.21156" lon="21.01699">
        <ele>383.608426</ele>
        <time>2020-08-27T15:09:16.946Z</time>
      </trkpt>
      <trkpt lat="67.21031" lon="21.01514">
        <ele>384.849268</ele>
        <time>2020-08-27T15:09:45.796Z</time>
      </trkpt>
      <trkpt lat="67.20956" lon="21.01362">
        <ele>387.196731</ele>
        <time>2020-08-27T15:10:10.833Z</time>
      </trkpt>
      <trkpt lat="67.20878" lon="21.01158">
        <ele>390.708261</ele>
        <time>2020-08-27T15:10:44.580Z</time>
      </trkpt>
      <trkpt lat="67.2084" lon="21.01036">
        <ele>392.902147</ele>
        <time>2020-08-27T15:11:02.958Z</time>
      </trkpt>
      <trkpt lat="67.208" lon="21.00892">
        <ele>395.177077</ele>
        <time>2020-08-27T15:11:23.053Z</time>
      </trkpt>
      <trkpt lat="67.20236" lon="20.98863">
        <ele>416.115097</ele>
        <time>2020-08-27T15:15:22.686Z</time>
      </trkpt>
      <trkpt lat="67.20174" lon="20.98669">
        <ele>417.75516</ele>
        <time>2020-08-27T15:15:44.375Z</time>
      </trkpt>
      <trkpt lat="67.20125" lon="20.98542">
        <ele>418.149545</ele>
        <time>2020-08-27T15:15:58.622Z</time>
      </trkpt>
      <trkpt lat="67.20071" lon="20.98423">
        <ele>418.555284</ele>
        <time>2020-08-27T15:16:12.400Z</time>
      </trkpt>
      <trkpt lat="67.19975" lon="20.98252">
        <ele>418.573107</ele>
        <time>2020-08-27T15:16:33.142Z</time>
      </trkpt>
      <trkpt lat="67.19912" lon="20.98161">
        <ele>418.395863</ele>
        <time>2020-08-27T15:16:45.336Z</time>
      </trkpt>
      <trkpt lat="67.19857" lon="20.98096">
        <ele>417.909123</ele>
        <time>2020-08-27T15:16:55.257Z</time>
      </trkpt>
      <trkpt lat="67.19743" lon="20.98">
        <ele>416.3783</ele>
        <time>2020-08-27T15:17:13.440Z</time>
      </trkpt>
      <trkpt lat="67.19546" lon="20.97899">
        <ele>411.853225</ele>
        <time>2020-08-27T15:17:41.078Z</time>
      </trkpt>
      <trkpt lat="67.19502" lon="20.97879">
        <ele>410.426685</ele>
        <time>2020-08-27T15:17:47.000Z</time>
      </trkpt>
      <trkpt lat="67.19499" lon="20.97877">
        <ele>410.30801</ele>
        <time>2020-08-27T15:17:47.406Z</time>
      </trkpt>
      <trkpt lat="67.19305" lon="20.97787">
        <ele>403.365302</ele>
        <time>2020-08-27T15:18:12.815Z</time>
      </trkpt>
      <trkpt lat="67.19104" lon="20.97663">
        <ele>394.610601</ele>
        <time>2020-08-27T15:18:38.524Z</time>
      </trkpt>
      <trkpt lat="67.19029" lon="20.97606">
        <ele>390.988587</ele>
        <time>2020-08-27T15:18:48.086Z</time>
      </trkpt>
      <trkpt lat="67.18888" lon="20.97491">
        <ele>384.319203</ele>
        <time>2020-08-27T15:19:06.094Z</time>
      </trkpt>
      <trkpt lat="67.1832" lon="20.96971">
        <ele>361.962076</ele>
        <time>2020-08-27T15:20:22.825Z</time>
      </trkpt>
      <trkpt lat="67.18251" lon="20.96903">
        <ele>360.65512</ele>
        <time>2020-08-27T15:20:33.888Z</time>
      </trkpt>
      <trkpt lat="67.182" lon="20.96852">
        <ele>359.688546</ele>
        <time>2020-08-27T15:20:42.552Z</time>
      </trkpt>
      <trkpt lat="67.18012" lon="20.9662">
        <ele>355.190902</ele>
        <time>2020-08-27T15:21:12.231Z</time>
      </trkpt>
      <trkpt lat="67.17854" lon="20.96377">
        <ele>347.129725</ele>
        <time>2020-08-27T15:21:34.854Z</time>
      </trkpt>
      <trkpt lat="67.17743" lon="20.96177">
        <ele>340.044333</ele>
        <time>2020-08-27T15:21:50.962Z</time>
      </trkpt>
      <trkpt lat="67.17734" lon="20.96159">
        <ele>339.429614</ele>
        <time>2020-08-27T15:21:52.331Z</time>
      </trkpt>
      <trkpt lat="67.17677" lon="20.96052">
        <ele>336.567432</ele>
        <time>2020-08-27T15:22:00.901Z</time>
      </trkpt>
      <trkpt lat="67.17011" lon="20.94787">
        <ele>314.955202</ele>
        <time>2020-08-27T15:23:52.941Z</time>
      </trkpt>
      <trkpt lat="67.16802" lon="20.94409">
        <ele>313.987135</ele>
        <time>2020-08-27T15:24:38.879Z</time>
      </trkpt>
      <trkpt lat="67.16648" lon="20.94245">
        <ele>313.234919</ele>
        <time>2020-08-27T15:25:07.748Z</time>
      </trkpt>
      <trkpt lat="67.16555" lon="20.94188">
        <ele>311.480813</ele>
        <time>2020-08-27T15:25:21.632Z</time>
      </trkpt>
      <trkpt lat="67.16221" lon="20.94096">
        <ele>302.600322</ele>
        <time>2020-08-27T15:26:05.769Z</time>
      </trkpt>
      <trkpt lat="67.16154" lon="20.94078">
        <ele>301.04951</ele>
        <time>2020-08-27T15:26:15.465Z</time>
      </trkpt>
      <trkpt lat="67.16071" lon="20.94043">
        <ele>300.827176</ele>
        <time>2020-08-27T15:26:28.912Z</time>
      </trkpt>
      <trkpt lat="67.15916" lon="20.93932">
        <ele>301.95375</ele>
        <time>2020-08-27T15:27:02.502Z</time>
      </trkpt>
      <trkpt lat="67.15742" lon="20.93728">
        <ele>305.804549</ele>
        <time>2020-08-27T15:27:49.386Z</time>
      </trkpt>
      <trkpt lat="67.15595" lon="20.93457">
        <ele>310.900527</ele>
        <time>2020-08-27T15:28:37.965Z</time>
      </trkpt>
      <trkpt lat="67.15379" lon="20.92999">
        <ele>320.727998</ele>
        <time>2020-08-27T15:29:59.599Z</time>
      </trkpt>
      <trkpt lat="67.15185" lon="20.92617">
        <ele>329.151543</ele>
        <time>2020-08-27T15:31:16.836Z</time>
      </trkpt>
      <trkpt lat="67.1497" lon="20.92218">
        <ele>328.41168</ele>
        <time>2020-08-27T15:31:59.951Z</time>
      </trkpt>
      <trkpt lat="67.14745" lon="20.91835">
        <ele>322.287644</ele>
        <time>2020-08-27T15:32:35.407Z</time>
      </trkpt>
      <trkpt lat="67.14553" lon="20.91483">
        <ele>322.234782</ele>
        <time>2020-08-27T15:33:20.749Z</time>
      </trkpt>
      <trkpt lat="67.14357" lon="20.91164">
        <ele>322.894928</ele>
        <time>2020-08-27T15:34:09.203Z</time>
      </trkpt>
      <trkpt lat="67.14112" lon="20.90829">
        <ele>315.393038</ele>
        <time>2020-08-27T15:34:46.093Z</time>
      </trkpt>
      <trkpt lat="67.14074" lon="20.90783">
        <ele>313.669782</ele>
        <time>2020-08-27T15:34:51.301Z</time>
      </trkpt>
      <trkpt lat="67.14055" lon="20.90759">
        <ele>312.793633</ele>
        <time>2020-08-27T15:34:53.904Z</time>
      </trkpt>
      <trkpt lat="67.13916" lon="20.90616">
        <ele>306.476573</ele>
        <time>2020-08-27T15:35:12.032Z</time>
      </trkpt>
      <trkpt lat="67.13901" lon="20.90603">
        <ele>305.814704</ele>
        <time>2020-08-27T15:35:13.929Z</time>
      </trkpt>
      <trkpt lat="67.13844" lon="20.90552">
        <ele>303.210693</ele>
        <time>2020-08-27T15:35:21.878Z</time>
      </trkpt>
      <trkpt lat="67.13791" lon="20.90503">
        <ele>302.14519</ele>
        <time>2020-08-27T15:35:29.304Z</time>
      </trkpt>
      <trkpt lat="67.13754" lon="20.90473">
        <ele>301.490898</ele>
        <time>2020-08-27T15:35:34.758Z</time>
      </trkpt>
      <trkpt lat="67.13682" lon="20.9043">
        <ele>300.246711</ele>
        <time>2020-08-27T15:35:46.455Z</time>
      </trkpt>
      <trkpt lat="67.13493" lon="20.9034">
        <ele>299.379722</ele>
        <time>2020-08-27T15:36:19.371Z</time>
      </trkpt>
      <trkpt lat="67.13162" lon="20.90217">
        <ele>296.829898</ele>
        <time>2020-08-27T15:37:12.881Z</time>
      </trkpt>
      <trkpt lat="67.13039" lon="20.90174">
        <ele>295.084732</ele>
        <time>2020-08-27T15:37:31.155Z</time>
      </trkpt>
      <trkpt lat="67.12905" lon="20.90145">
        <ele>293.017124</ele>
        <time>2020-08-27T15:37:50.541Z</time>
      </trkpt>
      <trkpt lat="67.12797" lon="20.90136">
        <ele>291.39845</ele>
        <time>2020-08-27T15:38:06.562Z</time>
      </trkpt>
      <trkpt lat="67.1269" lon="20.90144">
        <ele>290.094005</ele>
        <time>2020-08-27T15:38:22.824Z</time>
      </trkpt>
      <trkpt lat="67.12413" lon="20.90232">
        <ele>287.12978</ele>
        <time>2020-08-27T15:39:05.678Z</time>
      </trkpt>
      <trkpt lat="67.12252" lon="20.9029">
        <ele>285.664534</ele>
        <time>2020-08-27T15:39:31.203Z</time>
      </trkpt>
      <trkpt lat="67.12109" lon="20.90339">
        <ele>284.681538</ele>
        <time>2020-08-27T15:39:54.305Z</time>
      </trkpt>
      <trkpt lat="67.11916" lon="20.90405">
        <ele>283.7227</ele>
        <time>2020-08-27T15:40:26.480Z</time>
      </trkpt>
      <trkpt lat="67.11824" lon="20.9043">
        <ele>283.771641</ele>
        <time>2020-08-27T15:40:42.442Z</time>
      </trkpt>
      <trkpt lat="67.11658" lon="20.90429">
        <ele>284.888834</ele>
        <time>2020-08-27T15:41:14.974Z</time>
      </trkpt>
      <trkpt lat="67.11617" lon="20.9042">
        <ele>285.534471</ele>
        <time>2020-08-27T15:41:24.232Z</time>
      </trkpt>
      <trkpt lat="67.11572" lon="20.90412">
        <ele>286.254322</ele>
        <time>2020-08-27T15:41:35.083Z</time>
      </trkpt>
      <trkpt lat="67.11446" lon="20.90392">
        <ele>288.684801</ele>
        <time>2020-08-27T15:42:07.403Z</time>
      </trkpt>
      <trkpt lat="67.11028" lon="20.90316">
        <ele>296.355364</ele>
        <time>2020-08-27T15:43:49.514Z</time>
      </trkpt>
      <trkpt lat="67.10808" lon="20.90228">
        <ele>294.896351</ele>
        <time>2020-08-27T15:44:24.171Z</time>
      </trkpt>
      <trkpt lat="67.10741" lon="20.90189">
        <ele>293.259739</ele>
        <time>2020-08-27T15:44:33.409Z</time>
      </trkpt>
      <trkpt lat="67.10661" lon="20.90149">
        <ele>291.306315</ele>
        <time>2020-08-27T15:44:44.362Z</time>
      </trkpt>
      <trkpt lat="67.10629" lon="20.90131">
        <ele>290.564799</ele>
        <time>2020-08-27T15:44:48.717Z</time>
      </trkpt>
      <trkpt lat="67.10569" lon="20.90097">
        <ele>289.911806</ele>
        <time>2020-08-27T15:44:57.604Z</time>
      </trkpt>
      <trkpt lat="67.10552" lon="20.90287">
        <ele>289.114934</ele>
        <time>2020-08-27T15:45:09.806Z</time>
      </trkpt>
      <trkpt lat="67.10545" lon="20.90367">
        <ele>288.780963</ele>
        <time>2020-08-27T15:45:15.378Z</time>
      </trkpt>
      <trkpt lat="67.1053" lon="20.90544">
        <ele>288.838862</ele>
        <time>2020-08-27T15:45:28.282Z</time>
      </trkpt>
      <trkpt lat="67.10514" lon="20.90746">
        <ele>289.019574</ele>
        <time>2020-08-27T15:45:43.533Z</time>
      </trkpt>
      <trkpt lat="67.10486" lon="20.91087">
        <ele>289.40829</ele>
        <time>2020-08-27T15:46:08.979Z</time>
      </trkpt>
      <trkpt lat="67.10381" lon="20.92348">
        <ele>291.063817</ele>
        <time>2020-08-27T15:47:43.784Z</time>
      </trkpt>
      <trkpt lat="67.1038" lon="20.92361">
        <ele>291.085336</ele>
        <time>2020-08-27T15:47:44.909Z</time>
      </trkpt>
      <trkpt lat="67.10336" lon="20.92877">
        <ele>291.751207</ele>
        <time>2020-08-27T15:48:24.194Z</time>
      </trkpt>
      <trkpt lat="67.10288" lon="20.93292">
        <ele>291.891568</ele>
        <time>2020-08-27T15:48:54.621Z</time>
      </trkpt>
      <trkpt lat="67.10268" lon="20.93446">
        <ele>291.84343</ele>
        <time>2020-08-27T15:49:05.650Z</time>
      </trkpt>
      <trkpt lat="67.1022" lon="20.93779">
        <ele>291.603304</ele>
        <time>2020-08-27T15:49:29.340Z</time>
      </trkpt>
      <trkpt lat="67.10068" lon="20.94701">
        <ele>290.901385</ele>
        <time>2020-08-27T15:50:36.648Z</time>
      </trkpt>
      <trkpt lat="67.1006" lon="20.94753">
        <ele>290.873692</ele>
        <time>2020-08-27T15:50:40.494Z</time>
      </trkpt>
      <trkpt lat="67.10064" lon="20.94784">
        <ele>290.857287</ele>
        <time>2020-08-27T15:50:42.809Z</time>
      </trkpt>
      <trkpt lat="67.10063" lon="20.94828">
        <ele>290.839549</ele>
        <time>2020-08-27T15:50:45.896Z</time>
      </trkpt>
      <trkpt lat="67.10057" lon="20.94866">
        <ele>290.841493</ele>
        <time>2020-08-27T15:50:48.778Z</time>
      </trkpt>
      <trkpt lat="67.10043" lon="20.94952">
        <ele>290.845927</ele>
        <time>2020-08-27T15:50:55.345Z</time>
      </trkpt>
      <trkpt lat="67.10035" lon="20.95005">
        <ele>290.848676</ele>
        <time>2020-08-27T15:50:59.412Z</time>
      </trkpt>
      <trkpt lat="67.10016" lon="20.95077">
        <ele>290.852829</ele>
        <time>2020-08-27T15:51:05.566Z</time>
      </trkpt>
      <trkpt lat="67.10002" lon="20.95097">
        <ele>290.854838</ele>
        <time>2020-08-27T15:51:08.551Z</time>
      </trkpt>
      <trkpt lat="67.09964" lon="20.95318">
        <ele>290.677747</ele>
        <time>2020-08-27T15:51:25.084Z</time>
      </trkpt>
      <trkpt lat="67.0984" lon="20.96065">
        <ele>288.846501</ele>
        <time>2020-08-27T15:52:16.690Z</time>
      </trkpt>
      <trkpt lat="67.09809" lon="20.96251">
        <ele>287.924925</ele>
        <time>2020-08-27T15:52:28.593Z</time>
      </trkpt>
      <trkpt lat="67.09796" lon="20.96328">
        <ele>287.54537</ele>
        <time>2020-08-27T15:52:33.386Z</time>
      </trkpt>
      <trkpt lat="67.09641" lon="20.97182">
        <ele>283.492628</ele>
        <time>2020-08-27T15:53:28.833Z</time>
      </trkpt>
      <trkpt lat="67.09616" lon="20.97306">
        <ele>283.040359</ele>
        <time>2020-08-27T15:53:37.911Z</time>
      </trkpt>
      <trkpt lat="67.09442" lon="20.98126">
        <ele>283.72508</ele>
        <time>2020-08-27T15:54:46.418Z</time>
      </trkpt>
      <trkpt lat="67.09357" lon="20.9801">
        <ele>283.379078</ele>
        <time>2020-08-27T15:55:03.207Z</time>
      </trkpt>
      <trkpt lat="67.09344" lon="20.97997">
        <ele>283.321597</ele>
        <time>2020-08-27T15:55:05.676Z</time>
      </trkpt>
      <trkpt lat="67.09324" lon="20.9798">
        <ele>283.240438</ele>
        <time>2020-08-27T15:55:09.268Z</time>
      </trkpt>
      <trkpt lat="67.09296" lon="20.97984">
        <ele>283.129609</ele>
        <time>2020-08-27T15:55:14.049Z</time>
      </trkpt>
      <trkpt lat="67.09253" lon="20.98012">
        <ele>282.995205</ele>
        <time>2020-08-27T15:55:21.635Z</time>
      </trkpt>
      <trkpt lat="67.09225" lon="20.98053">
        <ele>282.935109</ele>
        <time>2020-08-27T15:55:27.186Z</time>
      </trkpt>
      <trkpt lat="67.09194" lon="20.98123">
        <ele>282.856055</ele>
        <time>2020-08-27T15:55:34.695Z</time>
      </trkpt>
      <trkpt lat="67.09146" lon="20.98281">
        <ele>282.708054</ele>
        <time>2020-08-27T15:55:49.213Z</time>
      </trkpt>
      <trkpt lat="67.09123" lon="20.9834">
        <ele>282.66747</ele>
        <time>2020-08-27T15:55:55.244Z</time>
      </trkpt>
      <trkpt lat="67.0902" lon="20.98521">
        <ele>282.544235</ele>
        <time>2020-08-27T15:56:18.118Z</time>
      </trkpt>
      <trkpt lat="67.08916" lon="20.98724">
        <ele>282.324054</ele>
        <time>2020-08-27T15:56:41.538Z</time>
      </trkpt>
      <trkpt lat="67.08839" lon="20.9891">
        <ele>282.184322</ele>
        <time>2020-08-27T15:57:00.633Z</time>
      </trkpt>
      <trkpt lat="67.08781" lon="20.99088">
        <ele>282.239646</ele>
        <time>2020-08-27T15:57:17.451Z</time>
      </trkpt>
      <trkpt lat="67.08754" lon="20.99193">
        <ele>282.269388</ele>
        <time>2020-08-27T15:57:26.711Z</time>
      </trkpt>
      <trkpt lat="67.08736" lon="20.99415">
        <ele>282.627701</ele>
        <time>2020-08-27T15:57:44.064Z</time>
      </trkpt>
      <trkpt lat="67.08739" lon="20.9948">
        <ele>282.750009</ele>
        <time>2020-08-27T15:57:49.138Z</time>
      </trkpt>
      <trkpt lat="67.08785" lon="20.99928">
        <ele>283.915067</ele>
        <time>2020-08-27T15:58:26.573Z</time>
      </trkpt>
      <trkpt lat="67.08785" lon="21.00009">
        <ele>284.160743</ele>
        <time>2020-08-27T15:58:33.277Z</time>
      </trkpt>
      <trkpt lat="67.08744" lon="21.00392">
        <ele>285.598038</ele>
        <time>2020-08-27T15:59:06.679Z</time>
      </trkpt>
      <trkpt lat="67.08607" lon="21.01474">
        <ele>290.625037</ele>
        <time>2020-08-27T16:00:44.952Z</time>
      </trkpt>
      <trkpt lat="67.08603" lon="21.01565">
        <ele>291.263384</ele>
        <time>2020-08-27T16:00:53.498Z</time>
      </trkpt>
      <trkpt lat="67.08604" lon="21.01692">
        <ele>292.142231</ele>
        <time>2020-08-27T16:01:05.471Z</time>
      </trkpt>
      <trkpt lat="67.08641" lon="21.02361">
        <ele>297.452829</ele>
        <time>2020-08-27T16:02:11.714Z</time>
      </trkpt>
      <trkpt lat="67.08643" lon="21.0245">
        <ele>298.468121</ele>
        <time>2020-08-27T16:02:21.089Z</time>
      </trkpt>
      <trkpt lat="67.08624" lon="21.02595">
        <ele>300.263972</ele>
        <time>2020-08-27T16:02:37.496Z</time>
      </trkpt>
      <trkpt lat="67.08629" lon="21.02626">
        <ele>300.656794</ele>
        <time>2020-08-27T16:02:41.111Z</time>
      </trkpt>
      <trkpt lat="67.08641" lon="21.02654">
        <ele>301.151669</ele>
        <time>2020-08-27T16:02:46.051Z</time>
      </trkpt>
      <trkpt lat="67.08651" lon="21.02666">
        <ele>301.484466</ele>
        <time>2020-08-27T16:02:49.359Z</time>
      </trkpt>
      <trkpt lat="67.08661" lon="21.02704">
        <ele>302.035312</ele>
        <time>2020-08-27T16:02:54.350Z</time>
      </trkpt>
      <trkpt lat="67.0867" lon="21.02848">
        <ele>303.850767</ele>
        <time>2020-08-27T16:03:10.979Z</time>
      </trkpt>
      <trkpt lat="67.08675" lon="21.02961">
        <ele>305.354125</ele>
        <time>2020-08-27T16:03:24.192Z</time>
      </trkpt>
      <trkpt lat="67.08677" lon="21.03007">
        <ele>305.974162</ele>
        <time>2020-08-27T16:03:29.909Z</time>
      </trkpt>
      <trkpt lat="67.08673" lon="21.03132">
        <ele>307.631878</ele>
        <time>2020-08-27T16:03:43.466Z</time>
      </trkpt>
      <trkpt lat="67.08665" lon="21.03197">
        <ele>308.53117</ele>
        <time>2020-08-27T16:03:50.945Z</time>
      </trkpt>
      <trkpt lat="67.08656" lon="21.0324">
        <ele>309.157766</ele>
        <time>2020-08-27T16:03:56.361Z</time>
      </trkpt>
      <trkpt lat="67.08631" lon="21.03315">
        <ele>310.032773</ele>
        <time>2020-08-27T16:04:06.745Z</time>
      </trkpt>
      <trkpt lat="67.08547" lon="21.03497">
        <ele>312.560418</ele>
        <time>2020-08-27T16:04:34.240Z</time>
      </trkpt>
      <trkpt lat="67.08523" lon="21.03567">
        <ele>313.345543</ele>
        <time>2020-08-27T16:04:42.578Z</time>
      </trkpt>
      <trkpt lat="67.08492" lon="21.0368">
        <ele>314.216324</ele>
        <time>2020-08-27T16:04:55.101Z</time>
      </trkpt>
      <trkpt lat="67.08447" lon="21.03898">
        <ele>315.768914</ele>
        <time>2020-08-27T16:05:17.073Z</time>
      </trkpt>
      <trkpt lat="67.08435" lon="21.03967">
        <ele>316.22895</ele>
        <time>2020-08-27T16:05:23.779Z</time>
      </trkpt>
      <trkpt lat="67.08416" lon="21.04069">
        <ele>316.814736</ele>
        <time>2020-08-27T16:05:33.550Z</time>
      </trkpt>
      <trkpt lat="67.0839" lon="21.04246">
        <ele>317.799251</ele>
        <time>2020-08-27T16:05:49.940Z</time>
      </trkpt>
      <trkpt lat="67.08359" lon="21.04542">
        <ele>319.199606</ele>
        <time>2020-08-27T16:06:15.778Z</time>
      </trkpt>
      <trkpt lat="67.08347" lon="21.04614">
        <ele>319.509234</ele>
        <time>2020-08-27T16:06:22.153Z</time>
      </trkpt>
      <trkpt lat="67.08277" lon="21.04816">
        <ele>320.534222</ele>
        <time>2020-08-27T16:06:44.093Z</time>
      </trkpt>
      <trkpt lat="67.08252" lon="21.04925">
        <ele>320.886726</ele>
        <time>2020-08-27T16:06:54.073Z</time>
      </trkpt>
      <trkpt lat="67.08205" lon="21.05184">
        <ele>321.686179</ele>
        <time>2020-08-27T16:07:16.286Z</time>
      </trkpt>
      <trkpt lat="67.082" lon="21.05209">
        <ele>321.736412</ele>
        <time>2020-08-27T16:07:18.398Z</time>
      </trkpt>
      <trkpt lat="67.08199" lon="21.05214">
        <ele>321.746154</ele>
        <time>2020-08-27T16:07:18.845Z</time>
      </trkpt>
      <trkpt lat="67.08151" lon="21.05486">
        <ele>322.29325</ele>
        <time>2020-08-27T16:07:41.618Z</time>
      </trkpt>
      <trkpt lat="67.08149" lon="21.05501">
        <ele>322.322751</ele>
        <time>2020-08-27T16:07:42.909Z</time>
      </trkpt>
      <trkpt lat="67.08124" lon="21.05639">
        <ele>322.554171</ele>
        <time>2020-08-27T16:07:54.096Z</time>
      </trkpt>
      <trkpt lat="67.08105" lon="21.05749">
        <ele>322.638661</ele>
        <time>2020-08-27T16:08:02.852Z</time>
      </trkpt>
      <trkpt lat="67.0809" lon="21.05834">
        <ele>322.703953</ele>
        <time>2020-08-27T16:08:09.517Z</time>
      </trkpt>
      <trkpt lat="67.08079" lon="21.05892">
        <ele>322.749741</ele>
        <time>2020-08-27T16:08:14.111Z</time>
      </trkpt>
      <trkpt lat="67.08077" lon="21.059">
        <ele>322.75563</ele>
        <time>2020-08-27T16:08:14.711Z</time>
      </trkpt>
      <trkpt lat="67.0804" lon="21.0612">
        <ele>322.848053</ele>
        <time>2020-08-27T16:08:31.548Z</time>
      </trkpt>
      <trkpt lat="67.07942" lon="21.06687">
        <ele>322.618733</ele>
        <time>2020-08-27T16:09:14.558Z</time>
      </trkpt>
      <trkpt lat="67.07883" lon="21.07295">
        <ele>321.441545</ele>
        <time>2020-08-27T16:09:54.930Z</time>
      </trkpt>
      <trkpt lat="67.07832" lon="21.07558">
        <ele>319.757472</ele>
        <time>2020-08-27T16:10:12.030Z</time>
      </trkpt>
      <trkpt lat="67.07812" lon="21.07647">
        <ele>319.129547</ele>
        <time>2020-08-27T16:10:17.745Z</time>
      </trkpt>
      <trkpt lat="67.07789" lon="21.07745">
        <ele>318.392485</ele>
        <time>2020-08-27T16:10:29.080Z</time>
      </trkpt>
      <trkpt lat="67.07744" lon="21.07919">
        <ele>316.720552</ele>
        <time>2020-08-27T16:10:49.126Z</time>
      </trkpt>
      <trkpt lat="67.07711" lon="21.08011">
        <ele>315.728329</ele>
        <time>2020-08-27T16:11:01.152Z</time>
      </trkpt>
      <trkpt lat="67.07694" lon="21.0804">
        <ele>315.305487</ele>
        <time>2020-08-27T16:11:06.511Z</time>
      </trkpt>
      <trkpt lat="67.0769" lon="21.0804">
        <ele>315.219285</ele>
        <time>2020-08-27T16:11:07.442Z</time>
      </trkpt>
      <trkpt lat="67.07575" lon="21.08791">
        <ele>312.390685</ele>
        <time>2020-08-27T16:11:56.617Z</time>
      </trkpt>
      <trkpt lat="67.07486" lon="21.09291">
        <ele>312.349228</ele>
        <time>2020-08-27T16:12:36.540Z</time>
      </trkpt>
      <trkpt lat="67.07416" lon="21.09609">
        <ele>311.852155</ele>
        <time>2020-08-27T16:13:02.073Z</time>
      </trkpt>
      <trkpt lat="67.07388" lon="21.09739">
        <ele>311.568572</ele>
        <time>2020-08-27T16:13:11.156Z</time>
      </trkpt>
      <trkpt lat="67.07146" lon="21.10748">
        <ele>302.206412</ele>
        <time>2020-08-27T16:14:15.290Z</time>
      </trkpt>
      <trkpt lat="67.06919" lon="21.11692">
        <ele>297.850413</ele>
        <time>2020-08-27T16:15:22.896Z</time>
      </trkpt>
      <trkpt lat="67.06791" lon="21.12224">
        <ele>296.760529</ele>
        <time>2020-08-27T16:16:03.908Z</time>
      </trkpt>
      <trkpt lat="67.06704" lon="21.12722">
        <ele>295.727277</ele>
        <time>2020-08-27T16:16:39.212Z</time>
      </trkpt>
      <trkpt lat="67.06642" lon="21.13434">
        <ele>294.006501</ele>
        <time>2020-08-27T16:17:25.184Z</time>
      </trkpt>
      <trkpt lat="67.0666" lon="21.13456">
        <ele>293.88896</ele>
        <time>2020-08-27T16:17:28.509Z</time>
      </trkpt>
      <trkpt lat="67.06668" lon="21.13642">
        <ele>293.456085</ele>
        <time>2020-08-27T16:17:40.834Z</time>
      </trkpt>
      <trkpt lat="67.06651" lon="21.13831">
        <ele>293.006343</ele>
        <time>2020-08-27T16:17:53.756Z</time>
      </trkpt>
      <trkpt lat="67.06649" lon="21.1392">
        <ele>292.879511</ele>
        <time>2020-08-27T16:17:59.798Z</time>
      </trkpt>
      <trkpt lat="67.0663" lon="21.14088">
        <ele>292.662051</ele>
        <time>2020-08-27T16:18:11.747Z</time>
      </trkpt>
      <trkpt lat="67.06612" lon="21.14712">
        <ele>292.28491</ele>
        <time>2020-08-27T16:18:55.996Z</time>
      </trkpt>
      <trkpt lat="67.06602" lon="21.14809">
        <ele>292.353249</ele>
        <time>2020-08-27T16:19:03.452Z</time>
      </trkpt>
      <trkpt lat="67.0659" lon="21.14856">
        <ele>292.439679</ele>
        <time>2020-08-27T16:19:07.572Z</time>
      </trkpt>
      <trkpt lat="67.06565" lon="21.14906">
        <ele>292.567974</ele>
        <time>2020-08-27T16:19:13.760Z</time>
      </trkpt>
      <trkpt lat="67.06455" lon="21.15043">
        <ele>293.187996</ele>
        <time>2020-08-27T16:19:38.756Z</time>
      </trkpt>
      <trkpt lat="67.06418" lon="21.15129">
        <ele>293.753483</ele>
        <time>2020-08-27T16:19:49.341Z</time>
      </trkpt>
      <trkpt lat="67.06391" lon="21.15239">
        <ele>294.329394</ele>
        <time>2020-08-27T16:20:00.524Z</time>
      </trkpt>
      <trkpt lat="67.06358" lon="21.15441">
        <ele>295.576248</ele>
        <time>2020-08-27T16:20:20.726Z</time>
      </trkpt>
      <trkpt lat="67.06341" lon="21.15694">
        <ele>297.877511</ele>
        <time>2020-08-27T16:20:46.392Z</time>
      </trkpt>
      <trkpt lat="67.0631" lon="21.15938">
        <ele>300.458886</ele>
        <time>2020-08-27T16:21:14.122Z</time>
      </trkpt>
      <trkpt lat="67.06277" lon="21.16099">
        <ele>302.56744</ele>
        <time>2020-08-27T16:21:34.514Z</time>
      </trkpt>
      <trkpt lat="67.06226" lon="21.16225">
        <ele>304.613597</ele>
        <time>2020-08-27T16:21:54.771Z</time>
      </trkpt>
      <trkpt lat="67.06131" lon="21.16522">
        <ele>307.400045</ele>
        <time>2020-08-27T16:22:32.959Z</time>
      </trkpt>
      <trkpt lat="67.05895" lon="21.17436">
        <ele>307.992772</ele>
        <time>2020-08-27T16:23:53.271Z</time>
      </trkpt>
      <trkpt lat="67.05521" lon="21.1877">
        <ele>302.780834</ele>
        <time>2020-08-27T16:25:39.187Z</time>
      </trkpt>
      <trkpt lat="67.05488" lon="21.18882">
        <ele>302.04443</ele>
        <time>2020-08-27T16:25:47.774Z</time>
      </trkpt>
      <trkpt lat="67.05376" lon="21.19049">
        <ele>299.392364</ele>
        <time>2020-08-27T16:26:07.192Z</time>
      </trkpt>
      <trkpt lat="67.05284" lon="21.19229">
        <ele>295.142299</ele>
        <time>2020-08-27T16:26:22.953Z</time>
      </trkpt>
      <trkpt lat="67.05251" lon="21.19311">
        <ele>293.130818</ele>
        <time>2020-08-27T16:26:28.814Z</time>
      </trkpt>
      <trkpt lat="67.05243" lon="21.19347">
        <ele>292.413932</ele>
        <time>2020-08-27T16:26:30.845Z</time>
      </trkpt>
      <trkpt lat="67.05237" lon="21.19414">
        <ele>291.259591</ele>
        <time>2020-08-27T16:26:34.202Z</time>
      </trkpt>
      <trkpt lat="67.05233" lon="21.19425">
        <ele>291.013361</ele>
        <time>2020-08-27T16:26:34.892Z</time>
      </trkpt>
      <trkpt lat="67.05221" lon="21.19413">
        <ele>290.466758</ele>
        <time>2020-08-27T16:26:36.443Z</time>
      </trkpt>
      <trkpt lat="67.05209" lon="21.19414">
        <ele>289.928174</ele>
        <time>2020-08-27T16:26:38.084Z</time>
      </trkpt>
      <trkpt lat="67.05202" lon="21.19419">
        <ele>289.617646</ele>
        <time>2020-08-27T16:26:38.937Z</time>
      </trkpt>
      <trkpt lat="67.05189" lon="21.19342">
        <ele>288.190927</ele>
        <time>2020-08-27T16:26:42.884Z</time>
      </trkpt>
      <trkpt lat="67.05159" lon="21.19403">
        <ele>286.521559</ele>
        <time>2020-08-27T16:26:47.472Z</time>
      </trkpt>
      <trkpt lat="67.04724" lon="21.20318">
        <ele>270.40833</ele>
        <time>2020-08-27T16:28:02.783Z</time>
      </trkpt>
      <trkpt lat="67.04565" lon="21.20726">
        <ele>268.051393</ele>
        <time>2020-08-27T16:28:38.416Z</time>
      </trkpt>
      <trkpt lat="67.04428" lon="21.2115">
        <ele>268.211328</ele>
        <time>2020-08-27T16:29:17.817Z</time>
      </trkpt>
      <trkpt lat="67.04319" lon="21.2152">
        <ele>268.995766</ele>
        <time>2020-08-27T16:29:52.901Z</time>
      </trkpt>
      <trkpt lat="67.0398" lon="21.2285">
        <ele>272.029412</ele>
        <time>2020-08-27T16:31:53.304Z</time>
      </trkpt>
      <trkpt lat="67.03856" lon="21.23364">
        <ele>273.343801</ele>
        <time>2020-08-27T16:32:39.606Z</time>
      </trkpt>
      <trkpt lat="67.03749" lon="21.23707">
        <ele>274.523221</ele>
        <time>2020-08-27T16:33:14.027Z</time>
      </trkpt>
      <trkpt lat="67.03632" lon="21.24024">
        <ele>275.775471</ele>
        <time>2020-08-27T16:33:48.403Z</time>
      </trkpt>
      <trkpt lat="67.03459" lon="21.24364">
        <ele>277.324782</ele>
        <time>2020-08-27T16:34:32.172Z</time>
      </trkpt>
      <trkpt lat="67.03331" lon="21.24566">
        <ele>278.477338</ele>
        <time>2020-08-27T16:35:03.061Z</time>
      </trkpt>
      <trkpt lat="67.03197" lon="21.24759">
        <ele>279.317122</ele>
        <time>2020-08-27T16:35:33.796Z</time>
      </trkpt>
      <trkpt lat="67.02775" lon="21.25236">
        <ele>279.577092</ele>
        <time>2020-08-27T16:36:56.410Z</time>
      </trkpt>
      <trkpt lat="67.02402" lon="21.25633">
        <ele>278.64635</ele>
        <time>2020-08-27T16:38:05.456Z</time>
      </trkpt>
      <trkpt lat="67.02285" lon="21.25791">
        <ele>278.254516</ele>
        <time>2020-08-27T16:38:27.820Z</time>
      </trkpt>
      <trkpt lat="67.02212" lon="21.25906">
        <ele>278.021359</ele>
        <time>2020-08-27T16:38:42.439Z</time>
      </trkpt>
      <trkpt lat="67.02145" lon="21.26031">
        <ele>277.822969</ele>
        <time>2020-08-27T16:38:56.878Z</time>
      </trkpt>
      <trkpt lat="67.021" lon="21.26119">
        <ele>277.717736</ele>
        <time>2020-08-27T16:39:06.658Z</time>
      </trkpt>
      <trkpt lat="67.02051" lon="21.26239">
        <ele>277.590822</ele>
        <time>2020-08-27T16:39:18.390Z</time>
      </trkpt>
      <trkpt lat="67.01983" lon="21.26436">
        <ele>277.37665</ele>
        <time>2020-08-27T16:39:35.941Z</time>
      </trkpt>
      <trkpt lat="67.01971" lon="21.26472">
        <ele>277.335727</ele>
        <time>2020-08-27T16:39:39.181Z</time>
      </trkpt>
      <trkpt lat="67.01792" lon="21.27053">
        <ele>276.802812</ele>
        <time>2020-08-27T16:40:29.189Z</time>
      </trkpt>
      <trkpt lat="67.01676" lon="21.27407">
        <ele>276.527488</ele>
        <time>2020-08-27T16:41:00.364Z</time>
      </trkpt>
      <trkpt lat="67.01622" lon="21.27536">
        <ele>276.468175</ele>
        <time>2020-08-27T16:41:13.263Z</time>
      </trkpt>
      <trkpt lat="67.01507" lon="21.27753">
        <ele>276.531071</ele>
        <time>2020-08-27T16:41:38.924Z</time>
      </trkpt>
      <trkpt lat="67.01418" lon="21.27887">
        <ele>276.730998</ele>
        <time>2020-08-27T16:41:58.076Z</time>
      </trkpt>
      <trkpt lat="67.01342" lon="21.27981">
        <ele>277.159094</ele>
        <time>2020-08-27T16:42:14.202Z</time>
      </trkpt>
      <trkpt lat="67.0125" lon="21.28062">
        <ele>277.700716</ele>
        <time>2020-08-27T16:42:33.179Z</time>
      </trkpt>
      <trkpt lat="67.01049" lon="21.28189">
        <ele>280.831307</ele>
        <time>2020-08-27T16:43:18.596Z</time>
      </trkpt>
      <trkpt lat="67.00952" lon="21.28278">
        <ele>284.632324</ele>
        <time>2020-08-27T16:43:48.247Z</time>
      </trkpt>
      <trkpt lat="67.00871" lon="21.28378">
        <ele>288.304802</ele>
        <time>2020-08-27T16:44:19.516Z</time>
      </trkpt>
      <trkpt lat="67.00742" lon="21.28584">
        <ele>295.764546</ele>
        <time>2020-08-27T16:45:12.031Z</time>
      </trkpt>
      <trkpt lat="67.00661" lon="21.28759">
        <ele>298.186778</ele>
        <time>2020-08-27T16:45:41.196Z</time>
      </trkpt>
      <trkpt lat="67.00539" lon="21.29133">
        <ele>300.16251</ele>
        <time>2020-08-27T16:46:18.100Z</time>
      </trkpt>
      <trkpt lat="67.00471" lon="21.29416">
        <ele>300.335893</ele>
        <time>2020-08-27T16:46:40.900Z</time>
      </trkpt>
      <trkpt lat="67.00418" lon="21.29669">
        <ele>300.328983</ele>
        <time>2020-08-27T16:47:00.715Z</time>
      </trkpt>
      <trkpt lat="67.00334" lon="21.30013">
        <ele>300.519992</ele>
        <time>2020-08-27T16:47:29.996Z</time>
      </trkpt>
      <trkpt lat="67.00283" lon="21.30262">
        <ele>300.505585</ele>
        <time>2020-08-27T16:47:50.161Z</time>
      </trkpt>
      <trkpt lat="67.00184" lon="21.30687">
        <ele>299.691262</ele>
        <time>2020-08-27T16:48:23.284Z</time>
      </trkpt>
      <trkpt lat="67.00173" lon="21.30725">
        <ele>299.552007</ele>
        <time>2020-08-27T16:48:26.150Z</time>
      </trkpt>
      <trkpt lat="67.00159" lon="21.30771">
        <ele>299.383366</ele>
        <time>2020-08-27T16:48:29.536Z</time>
      </trkpt>
      <trkpt lat="67.00129" lon="21.30871">
        <ele>298.773722</ele>
        <time>2020-08-27T16:48:36.817Z</time>
      </trkpt>
      <trkpt lat="67.00101" lon="21.30953">
        <ele>297.743669</ele>
        <time>2020-08-27T16:48:42.845Z</time>
      </trkpt>
      <trkpt lat="67.00066" lon="21.31058">
        <ele>296.439137</ele>
        <time>2020-08-27T16:48:50.208Z</time>
      </trkpt>
      <trkpt lat="66.9987" lon="21.31616">
        <ele>288.524846</ele>
        <time>2020-08-27T16:49:29.085Z</time>
      </trkpt>
      <trkpt lat="66.99683" lon="21.32098">
        <ele>282.974075</ele>
        <time>2020-08-27T16:50:06.461Z</time>
      </trkpt>
      <trkpt lat="66.99645" lon="21.32187">
        <ele>282.02517</ele>
        <time>2020-08-27T16:50:14.028Z</time>
      </trkpt>
      <trkpt lat="66.99638" lon="21.32202">
        <ele>281.938335</ele>
        <time>2020-08-27T16:50:15.384Z</time>
      </trkpt>
      <trkpt lat="66.99595" lon="21.32295">
        <ele>281.403836</ele>
        <time>2020-08-27T16:50:23.868Z</time>
      </trkpt>
      <trkpt lat="66.99535" lon="21.32422">
        <ele>280.660803</ele>
        <time>2020-08-27T16:50:36.116Z</time>
      </trkpt>
      <trkpt lat="66.99467" lon="21.32545">
        <ele>280.204541</ele>
        <time>2020-08-27T16:50:49.981Z</time>
      </trkpt>
      <trkpt lat="66.99377" lon="21.32689">
        <ele>279.935431</ele>
        <time>2020-08-27T16:51:08.266Z</time>
      </trkpt>
      <trkpt lat="66.9925" lon="21.3286">
        <ele>279.727004</ele>
        <time>2020-08-27T16:51:33.314Z</time>
      </trkpt>
      <trkpt lat="66.99156" lon="21.32963">
        <ele>279.684068</ele>
        <time>2020-08-27T16:51:51.204Z</time>
      </trkpt>
      <trkpt lat="66.99021" lon="21.33089">
        <ele>279.815723</ele>
        <time>2020-08-27T16:52:17.334Z</time>
      </trkpt>
      <trkpt lat="66.98644" lon="21.33407">
        <ele>281.831081</ele>
        <time>2020-08-27T16:53:35.041Z</time>
      </trkpt>
      <trkpt lat="66.98423" lon="21.33678">
        <ele>283.038136</ele>
        <time>2020-08-27T16:54:21.908Z</time>
      </trkpt>
      <trkpt lat="66.98252" lon="21.33985">
        <ele>285.006763</ele>
        <time>2020-08-27T16:55:05.135Z</time>
      </trkpt>
      <trkpt lat="66.9798" lon="21.34592">
        <ele>290.61523</ele>
        <time>2020-08-27T16:56:29.550Z</time>
      </trkpt>
      <trkpt lat="66.97879" lon="21.34779">
        <ele>291.532553</ele>
        <time>2020-08-27T16:56:55.657Z</time>
      </trkpt>
      <trkpt lat="66.97704" lon="21.35019">
        <ele>290.906298</ele>
        <time>2020-08-27T16:57:29.645Z</time>
      </trkpt>
      <trkpt lat="66.96592" lon="21.36413">
        <ele>269.360679</ele>
        <time>2020-08-27T17:00:27.111Z</time>
      </trkpt>
      <trkpt lat="66.96471" lon="21.36605">
        <ele>267.230967</ele>
        <time>2020-08-27T17:00:48.316Z</time>
      </trkpt>
      <trkpt lat="66.96348" lon="21.36823">
        <ele>265.454425</ele>
        <time>2020-08-27T17:01:11.074Z</time>
      </trkpt>
      <trkpt lat="66.96199" lon="21.3721">
        <ele>263.527092</ele>
        <time>2020-08-27T17:01:44.165Z</time>
      </trkpt>
      <trkpt lat="66.95992" lon="21.37922">
        <ele>261.36858</ele>
        <time>2020-08-27T17:02:40.753Z</time>
      </trkpt>
      <trkpt lat="66.9587" lon="21.38399">
        <ele>260.492114</ele>
        <time>2020-08-27T17:03:17.900Z</time>
      </trkpt>
      <trkpt lat="66.95786" lon="21.38877">
        <ele>260.011314</ele>
        <time>2020-08-27T17:03:53.344Z</time>
      </trkpt>
      <trkpt lat="66.95699" lon="21.39269">
        <ele>259.71658</ele>
        <time>2020-08-27T17:04:24.048Z</time>
      </trkpt>
      <trkpt lat="66.95611" lon="21.39575">
        <ele>259.542796</ele>
        <time>2020-08-27T17:04:49.840Z</time>
      </trkpt>
      <trkpt lat="66.954" lon="21.40077">
        <ele>259.437887</ele>
        <time>2020-08-27T17:05:41.234Z</time>
      </trkpt>
      <trkpt lat="66.95197" lon="21.40454">
        <ele>259.535782</ele>
        <time>2020-08-27T17:06:26.904Z</time>
      </trkpt>
      <trkpt lat="66.95112" lon="21.40651">
        <ele>259.389266</ele>
        <time>2020-08-27T17:06:46.687Z</time>
      </trkpt>
      <trkpt lat="66.94859" lon="21.41316">
        <ele>257.155938</ele>
        <time>2020-08-27T17:07:45.221Z</time>
      </trkpt>
      <trkpt lat="66.94608" lon="21.42027">
        <ele>255.875965</ele>
        <time>2020-08-27T17:08:47.953Z</time>
      </trkpt>
      <trkpt lat="66.94623" lon="21.4208">
        <ele>256.055026</ele>
        <time>2020-08-27T17:08:53.365Z</time>
      </trkpt>
      <trkpt lat="66.9462" lon="21.42155">
        <ele>256.257241</ele>
        <time>2020-08-27T17:08:59.497Z</time>
      </trkpt>
      <trkpt lat="66.94603" lon="21.42346">
        <ele>256.787413</ele>
        <time>2020-08-27T17:09:16.344Z</time>
      </trkpt>
      <trkpt lat="66.94518" lon="21.43129">
        <ele>259.615335</ele>
        <time>2020-08-27T17:10:25.589Z</time>
      </trkpt>
      <trkpt lat="66.94473" lon="21.43365">
        <ele>260.197945</ele>
        <time>2020-08-27T17:10:46.017Z</time>
      </trkpt>
      <trkpt lat="66.94414" lon="21.43592">
        <ele>260.388488</ele>
        <time>2020-08-27T17:11:06.293Z</time>
      </trkpt>
      <trkpt lat="66.94367" lon="21.43703">
        <ele>260.487521</ele>
        <time>2020-08-27T17:11:18.409Z</time>
      </trkpt>
      <trkpt lat="66.94027" lon="21.44158">
        <ele>260.951616</ele>
        <time>2020-08-27T17:12:31.394Z</time>
      </trkpt>
      <trkpt lat="66.93995" lon="21.44283">
        <ele>261.07121</ele>
        <time>2020-08-27T17:12:42.566Z</time>
      </trkpt>
      <trkpt lat="66.93976" lon="21.44245">
        <ele>261.119613</ele>
        <time>2020-08-27T17:12:46.907Z</time>
      </trkpt>
      <trkpt lat="66.93882" lon="21.44565">
        <ele>261.598628</ele>
        <time>2020-08-27T17:13:16.359Z</time>
      </trkpt>
      <trkpt lat="66.93787" lon="21.44908">
        <ele>262.011351</ele>
        <time>2020-08-27T17:13:48.259Z</time>
      </trkpt>
      <trkpt lat="66.93744" lon="21.45101">
        <ele>262.158693</ele>
        <time>2020-08-27T17:14:03.828Z</time>
      </trkpt>
      <trkpt lat="66.93716" lon="21.45231">
        <ele>261.454209</ele>
        <time>2020-08-27T17:14:13.305Z</time>
      </trkpt>
      <trkpt lat="66.93688" lon="21.45402">
        <ele>260.564768</ele>
        <time>2020-08-27T17:14:24.225Z</time>
      </trkpt>
      <trkpt lat="66.93654" lon="21.45635">
        <ele>258.760223</ele>
        <time>2020-08-27T17:14:37.845Z</time>
      </trkpt>
      <trkpt lat="66.93587" lon="21.46194">
        <ele>252.759261</ele>
        <time>2020-08-27T17:15:08.713Z</time>
      </trkpt>
      <trkpt lat="66.93542" lon="21.46492">
        <ele>249.53839</ele>
        <time>2020-08-27T17:15:25.461Z</time>
      </trkpt>
      <trkpt lat="66.93513" lon="21.46642">
        <ele>248.102299</ele>
        <time>2020-08-27T17:15:34.222Z</time>
      </trkpt>
      <trkpt lat="66.93448" lon="21.46926">
        <ele>247.277441</ele>
        <time>2020-08-27T17:15:53.377Z</time>
      </trkpt>
      <trkpt lat="66.93148" lon="21.47998">
        <ele>255.160692</ele>
        <time>2020-08-27T17:17:57.355Z</time>
      </trkpt>
      <trkpt lat="66.93023" lon="21.48489">
        <ele>255.900882</ele>
        <time>2020-08-27T17:18:43.324Z</time>
      </trkpt>
      <trkpt lat="66.9294" lon="21.4896">
        <ele>253.125292</ele>
        <time>2020-08-27T17:19:11.785Z</time>
      </trkpt>
      <trkpt lat="66.92879" lon="21.49509">
        <ele>250.349015</ele>
        <time>2020-08-27T17:19:44.068Z</time>
      </trkpt>
      <trkpt lat="66.92866" lon="21.49953">
        <ele>253.033407</ele>
        <time>2020-08-27T17:20:26.173Z</time>
      </trkpt>
      <trkpt lat="66.92859" lon="21.50353">
        <ele>256.950326</ele>
        <time>2020-08-27T17:21:10.592Z</time>
      </trkpt>
      <trkpt lat="66.92856" lon="21.50508">
        <ele>258.52082</ele>
        <time>2020-08-27T17:21:25.480Z</time>
      </trkpt>
      <trkpt lat="66.92855" lon="21.50538">
        <ele>258.559367</ele>
        <time>2020-08-27T17:21:28.074Z</time>
      </trkpt>
      <trkpt lat="66.92838" lon="21.50861">
        <ele>258.988112</ele>
        <time>2020-08-27T17:21:52.898Z</time>
      </trkpt>
      <trkpt lat="66.92823" lon="21.51039">
        <ele>258.559543</ele>
        <time>2020-08-27T17:22:03.999Z</time>
      </trkpt>
      <trkpt lat="66.9269" lon="21.52149">
        <ele>249.553571</ele>
        <time>2020-08-27T17:23:08.937Z</time>
      </trkpt>
      <trkpt lat="66.92624" lon="21.52513">
        <ele>244.610168</ele>
        <time>2020-08-27T17:23:28.761Z</time>
      </trkpt>
      <trkpt lat="66.92568" lon="21.52751">
        <ele>241.588671</ele>
        <time>2020-08-27T17:23:43.156Z</time>
      </trkpt>
      <trkpt lat="66.92582" lon="21.52782">
        <ele>241.349237</ele>
        <time>2020-08-27T17:23:45.858Z</time>
      </trkpt>
      <trkpt lat="66.9261" lon="21.52878">
        <ele>240.744985</ele>
        <time>2020-08-27T17:23:52.863Z</time>
      </trkpt>
      <trkpt lat="66.92612" lon="21.52895">
        <ele>240.653141</ele>
        <time>2020-08-27T17:23:53.953Z</time>
      </trkpt>
      <trkpt lat="66.92614" lon="21.52908">
        <ele>240.584053</ele>
        <time>2020-08-27T17:23:54.881Z</time>
      </trkpt>
      <trkpt lat="66.92621" lon="21.53076">
        <ele>239.724185</ele>
        <time>2020-08-27T17:24:05.853Z</time>
      </trkpt>
      <trkpt lat="66.92572" lon="21.53735">
        <ele>239.64531</ele>
        <time>2020-08-27T17:24:52.484Z</time>
      </trkpt>
      <trkpt lat="66.92552" lon="21.53863">
        <ele>239.721646</ele>
        <time>2020-08-27T17:25:02.244Z</time>
      </trkpt>
      <trkpt lat="66.92542" lon="21.53924">
        <ele>239.758673</ele>
        <time>2020-08-27T17:25:07.091Z</time>
      </trkpt>
      <trkpt lat="66.92532" lon="21.53962">
        <ele>239.784277</ele>
        <time>2020-08-27T17:25:10.493Z</time>
      </trkpt>
      <trkpt lat="66.92522" lon="21.54005">
        <ele>239.989401</ele>
        <time>2020-08-27T17:25:14.391Z</time>
      </trkpt>
      <trkpt lat="66.92509" lon="21.54057">
        <ele>240.259051</ele>
        <time>2020-08-27T17:25:19.098Z</time>
      </trkpt>
      <trkpt lat="66.92497" lon="21.54102">
        <ele>240.499473</ele>
        <time>2020-08-27T17:25:23.544Z</time>
      </trkpt>
      <trkpt lat="66.9246" lon="21.54214">
        <ele>241.140025</ele>
        <time>2020-08-27T17:25:35.688Z</time>
      </trkpt>
      <trkpt lat="66.92398" lon="21.54353">
        <ele>242.220418</ele>
        <time>2020-08-27T17:25:54.960Z</time>
      </trkpt>
      <trkpt lat="66.92259" lon="21.54548">
        <ele>245.026585</ele>
        <time>2020-08-27T17:26:33.048Z</time>
      </trkpt>
      <trkpt lat="66.92136" lon="21.54718">
        <ele>246.731218</ele>
        <time>2020-08-27T17:27:03.103Z</time>
      </trkpt>
      <trkpt lat="66.92018" lon="21.5487">
        <ele>248.844121</ele>
        <time>2020-08-27T17:27:31.058Z</time>
      </trkpt>
      <trkpt lat="66.91978" lon="21.54926">
        <ele>249.648547</ele>
        <time>2020-08-27T17:27:41.796Z</time>
      </trkpt>
      <trkpt lat="66.91929" lon="21.55022">
        <ele>251.055332</ele>
        <time>2020-08-27T17:27:58.907Z</time>
      </trkpt>
      <trkpt lat="66.9188" lon="21.55175">
        <ele>253.54224</ele>
        <time>2020-08-27T17:28:21.989Z</time>
      </trkpt>
      <trkpt lat="66.91849" lon="21.55306">
        <ele>255.466082</ele>
        <time>2020-08-27T17:28:39.194Z</time>
      </trkpt>
      <trkpt lat="66.91842" lon="21.55335">
        <ele>255.885095</ele>
        <time>2020-08-27T17:28:42.884Z</time>
      </trkpt>
      <trkpt lat="66.91797" lon="21.5548">
        <ele>256.255687</ele>
        <time>2020-08-27T17:29:01.275Z</time>
      </trkpt>
      <trkpt lat="66.9172" lon="21.557">
        <ele>256.479944</ele>
        <time>2020-08-27T17:29:19.308Z</time>
      </trkpt>
      <trkpt lat="66.91686" lon="21.55799">
        <ele>255.165687</ele>
        <time>2020-08-27T17:29:26.495Z</time>
      </trkpt>
      <trkpt lat="66.91658" lon="21.5587">
        <ele>254.179181</ele>
        <time>2020-08-27T17:29:31.832Z</time>
      </trkpt>
      <trkpt lat="66.91649" lon="21.55897">
        <ele>253.813517</ele>
        <time>2020-08-27T17:29:33.766Z</time>
      </trkpt>
      <trkpt lat="66.91566" lon="21.56131">
        <ele>250.251799</ele>
        <time>2020-08-27T17:29:50.053Z</time>
      </trkpt>
      <trkpt lat="66.91523" lon="21.56233">
        <ele>248.238056</ele>
        <time>2020-08-27T17:29:57.551Z</time>
      </trkpt>
      <trkpt lat="66.91512" lon="21.56255">
        <ele>247.743516</ele>
        <time>2020-08-27T17:29:59.443Z</time>
      </trkpt>
      <trkpt lat="66.91463" lon="21.56328">
        <ele>245.809385</ele>
        <time>2020-08-27T17:30:06.633Z</time>
      </trkpt>
      <trkpt lat="66.91433" lon="21.56381">
        <ele>244.726196</ele>
        <time>2020-08-27T17:30:11.330Z</time>
      </trkpt>
      <trkpt lat="66.91404" lon="21.56432">
        <ele>243.691235</ele>
        <time>2020-08-27T17:30:15.833Z</time>
      </trkpt>
      <trkpt lat="66.91369" lon="21.56518">
        <ele>242.261446</ele>
        <time>2020-08-27T17:30:22.072Z</time>
      </trkpt>
      <trkpt lat="66.91284" lon="21.56839">
        <ele>239.667866</ele>
        <time>2020-08-27T17:30:44.213Z</time>
      </trkpt>
      <trkpt lat="66.91216" lon="21.57033">
        <ele>238.8439</ele>
        <time>2020-08-27T17:31:01.837Z</time>
      </trkpt>
      <trkpt lat="66.91146" lon="21.57226">
        <ele>238.735092</ele>
        <time>2020-08-27T17:31:20.180Z</time>
      </trkpt>
      <trkpt lat="66.90979" lon="21.5769">
        <ele>238.321763</ele>
        <time>2020-08-27T17:32:02.801Z</time>
      </trkpt>
      <trkpt lat="66.90925" lon="21.57823">
        <ele>238.293536</ele>
        <time>2020-08-27T17:32:15.838Z</time>
      </trkpt>
      <trkpt lat="66.90844" lon="21.57965">
        <ele>238.256351</ele>
        <time>2020-08-27T17:32:33.591Z</time>
      </trkpt>
      <trkpt lat="66.90768" lon="21.58065">
        <ele>238.449031</ele>
        <time>2020-08-27T17:32:49.386Z</time>
      </trkpt>
      <trkpt lat="66.90731" lon="21.58114">
        <ele>238.548596</ele>
        <time>2020-08-27T17:32:57.408Z</time>
      </trkpt>
      <trkpt lat="66.9065" lon="21.58223">
        <ele>238.7477</ele>
        <time>2020-08-27T17:33:14.484Z</time>
      </trkpt>
      <trkpt lat="66.90618" lon="21.58271">
        <ele>238.818912</ele>
        <time>2020-08-27T17:33:21.271Z</time>
      </trkpt>
      <trkpt lat="66.90606" lon="21.5829">
        <ele>238.847832</ele>
        <time>2020-08-27T17:33:24.017Z</time>
      </trkpt>
      <trkpt lat="66.90555" lon="21.5839">
        <ele>238.972568</ele>
        <time>2020-08-27T17:33:35.723Z</time>
      </trkpt>
      <trkpt lat="66.905" lon="21.58578">
        <ele>239.133103</ele>
        <time>2020-08-27T17:33:52.593Z</time>
      </trkpt>
      <trkpt lat="66.90413" lon="21.589">
        <ele>239.358894</ele>
        <time>2020-08-27T17:34:21.073Z</time>
      </trkpt>
      <trkpt lat="66.90403" lon="21.59039">
        <ele>239.409222</ele>
        <time>2020-08-27T17:34:31.144Z</time>
      </trkpt>
      <trkpt lat="66.90399" lon="21.59083">
        <ele>239.424991</ele>
        <time>2020-08-27T17:34:34.331Z</time>
      </trkpt>
      <trkpt lat="66.90378" lon="21.59071">
        <ele>239.444443</ele>
        <time>2020-08-27T17:34:38.146Z</time>
      </trkpt>
      <trkpt lat="66.9034" lon="21.5904">
        <ele>239.480511</ele>
        <time>2020-08-27T17:34:45.292Z</time>
      </trkpt>
      <trkpt lat="66.90333" lon="21.59028">
        <ele>239.487368</ele>
        <time>2020-08-27T17:34:46.886Z</time>
      </trkpt>
      <trkpt lat="66.90221" lon="21.59362">
        <ele>239.492607</ele>
        <time>2020-08-27T17:35:17.377Z</time>
      </trkpt>
      <trkpt lat="66.90159" lon="21.59544">
        <ele>239.944642</ele>
        <time>2020-08-27T17:35:35.035Z</time>
      </trkpt>
      <trkpt lat="66.89853" lon="21.60438">
        <ele>242.100777</ele>
        <time>2020-08-27T17:37:06.998Z</time>
      </trkpt>
      <trkpt lat="66.88992" lon="21.62601">
        <ele>232.044988</ele>
        <time>2020-08-27T17:40:20.091Z</time>
      </trkpt>
      <trkpt lat="66.88543" lon="21.63654">
        <ele>204.648879</ele>
        <time>2020-08-27T17:41:34.511Z</time>
      </trkpt>
      <trkpt lat="66.88233" lon="21.64152">
        <ele>194.830279</ele>
        <time>2020-08-27T17:42:24.695Z</time>
      </trkpt>
      <trkpt lat="66.88022" lon="21.644">
        <ele>189.496103</ele>
        <time>2020-08-27T17:42:56.250Z</time>
      </trkpt>
      <trkpt lat="66.87809" lon="21.6465">
        <ele>186.356108</ele>
        <time>2020-08-27T17:43:32.298Z</time>
      </trkpt>
      <trkpt lat="66.87339" lon="21.65089">
        <ele>181.905831</ele>
        <time>2020-08-27T17:44:50.579Z</time>
      </trkpt>
      <trkpt lat="66.87085" lon="21.65349">
        <ele>180.277566</ele>
        <time>2020-08-27T17:45:34.888Z</time>
      </trkpt>
      <trkpt lat="66.86946" lon="21.65525">
        <ele>180.445213</ele>
        <time>2020-08-27T17:46:03.310Z</time>
      </trkpt>
      <trkpt lat="66.86356" lon="21.66542">
        <ele>188.559282</ele>
        <time>2020-08-27T17:48:37.753Z</time>
      </trkpt>
      <trkpt lat="66.86168" lon="21.66873">
        <ele>188.689798</ele>
        <time>2020-08-27T17:49:20.462Z</time>
      </trkpt>
      <trkpt lat="66.86042" lon="21.67036">
        <ele>186.994626</ele>
        <time>2020-08-27T17:49:41.260Z</time>
      </trkpt>
      <trkpt lat="66.85899" lon="21.67196">
        <ele>183.477238</ele>
        <time>2020-08-27T17:50:02.571Z</time>
      </trkpt>
      <trkpt lat="66.85666" lon="21.67405">
        <ele>178.397125</ele>
        <time>2020-08-27T17:50:37.340Z</time>
      </trkpt>
      <trkpt lat="66.85415" lon="21.67706">
        <ele>173.67573</ele>
        <time>2020-08-27T17:51:17.865Z</time>
      </trkpt>
      <trkpt lat="66.85157" lon="21.68068">
        <ele>168.350686</ele>
        <time>2020-08-27T17:51:59.620Z</time>
      </trkpt>
      <trkpt lat="66.85016" lon="21.68323">
        <ele>166.243872</ele>
        <time>2020-08-27T17:52:25.312Z</time>
      </trkpt>
      <trkpt lat="66.84859" lon="21.68688">
        <ele>165.130562</ele>
        <time>2020-08-27T17:53:02.302Z</time>
      </trkpt>
      <trkpt lat="66.84659" lon="21.69405">
        <ele>161.73418</ele>
        <time>2020-08-27T17:53:57.510Z</time>
      </trkpt>
      <trkpt lat="66.84436" lon="21.7028">
        <ele>151.024136</ele>
        <time>2020-08-27T17:54:51.473Z</time>
      </trkpt>
      <trkpt lat="66.84228" lon="21.70974">
        <ele>150.465963</ele>
        <time>2020-08-27T17:55:49.741Z</time>
      </trkpt>
      <trkpt lat="66.83946" lon="21.71784">
        <ele>162.439411</ele>
        <time>2020-08-27T17:57:51.025Z</time>
      </trkpt>
      <trkpt lat="66.83846" lon="21.721">
        <ele>164.467902</ele>
        <time>2020-08-27T17:58:23.154Z</time>
      </trkpt>
      <trkpt lat="66.83754" lon="21.72477">
        <ele>167.496847</ele>
        <time>2020-08-27T17:59:02.971Z</time>
      </trkpt>
      <trkpt lat="66.8366" lon="21.73061">
        <ele>174.294577</ele>
        <time>2020-08-27T18:00:13.224Z</time>
      </trkpt>
      <trkpt lat="66.83592" lon="21.73731">
        <ele>178.395735</ele>
        <time>2020-08-27T18:01:12.626Z</time>
      </trkpt>
      <trkpt lat="66.83499" lon="21.74552">
        <ele>179.69148</ele>
        <time>2020-08-27T18:02:22.875Z</time>
      </trkpt>
      <trkpt lat="66.83383" lon="21.75344">
        <ele>169.259617</ele>
        <time>2020-08-27T18:03:04.996Z</time>
      </trkpt>
      <trkpt lat="66.83189" lon="21.76762">
        <ele>153.450784</ele>
        <time>2020-08-27T18:04:24.774Z</time>
      </trkpt>
      <trkpt lat="66.83146" lon="21.77078">
        <ele>150.045897</ele>
        <time>2020-08-27T18:04:44.360Z</time>
      </trkpt>
      <trkpt lat="66.83073" lon="21.77454">
        <ele>144.001041</ele>
        <time>2020-08-27T18:05:05.179Z</time>
      </trkpt>
      <trkpt lat="66.82984" lon="21.77799">
        <ele>137.804406</ele>
        <time>2020-08-27T18:05:24.667Z</time>
      </trkpt>
      <trkpt lat="66.8283" lon="21.78267">
        <ele>134.753156</ele>
        <time>2020-08-27T18:06:01.917Z</time>
      </trkpt>
      <trkpt lat="66.82718" lon="21.78529">
        <ele>136.62894</ele>
        <time>2020-08-27T18:06:38.007Z</time>
      </trkpt>
      <trkpt lat="66.82592" lon="21.78777">
        <ele>139.686373</ele>
        <time>2020-08-27T18:07:18.163Z</time>
      </trkpt>
      <trkpt lat="66.82383" lon="21.79069">
        <ele>142.932172</ele>
        <time>2020-08-27T18:08:12.464Z</time>
      </trkpt>
      <trkpt lat="66.81944" lon="21.79395">
        <ele>141.008292</ele>
        <time>2020-08-27T18:09:28.040Z</time>
      </trkpt>
      <trkpt lat="66.81687" lon="21.79687">
        <ele>136.632622</ele>
        <time>2020-08-27T18:10:08.785Z</time>
      </trkpt>
      <trkpt lat="66.8135" lon="21.80164">
        <ele>129.5929</ele>
        <time>2020-08-27T18:11:03.617Z</time>
      </trkpt>
      <trkpt lat="66.8095" lon="21.80803">
        <ele>126.827444</ele>
        <time>2020-08-27T18:12:19.981Z</time>
      </trkpt>
      <trkpt lat="66.80731" lon="21.81119">
        <ele>126.983812</ele>
        <time>2020-08-27T18:13:09.926Z</time>
      </trkpt>
      <trkpt lat="66.807" lon="21.81163">
        <ele>125.626651</ele>
        <time>2020-08-27T18:13:15.178Z</time>
      </trkpt>
      <trkpt lat="66.80084" lon="21.81533">
        <ele>102.026091</ele>
        <time>2020-08-27T18:14:34.533Z</time>
      </trkpt>
      <trkpt lat="66.7996" lon="21.81613">
        <ele>101.265717</ele>
        <time>2020-08-27T18:14:52.589Z</time>
      </trkpt>
      <trkpt lat="66.79851" lon="21.81678">
        <ele>103.209714</ele>
        <time>2020-08-27T18:15:22.778Z</time>
      </trkpt>
      <trkpt lat="66.79659" lon="21.81799">
        <ele>115.761218</ele>
        <time>2020-08-27T18:16:46.771Z</time>
      </trkpt>
      <trkpt lat="66.7951" lon="21.81951">
        <ele>122.442312</ele>
        <time>2020-08-27T18:17:38.962Z</time>
      </trkpt>
      <trkpt lat="66.79361" lon="21.82159">
        <ele>119.775137</ele>
        <time>2020-08-27T18:18:02.423Z</time>
      </trkpt>
      <trkpt lat="66.792" lon="21.82417">
        <ele>112.500383</ele>
        <time>2020-08-27T18:18:25.469Z</time>
      </trkpt>
      <trkpt lat="66.78574" lon="21.83782">
        <ele>117.122603</ele>
        <time>2020-08-27T18:21:11.771Z</time>
      </trkpt>
      <trkpt lat="66.78401" lon="21.84171">
        <ele>120.911322</ele>
        <time>2020-08-27T18:22:05.665Z</time>
      </trkpt>
      <trkpt lat="66.78208" lon="21.84543">
        <ele>125.895533</ele>
        <time>2020-08-27T18:23:08.948Z</time>
      </trkpt>
      <trkpt lat="66.7781" lon="21.85062">
        <ele>128.693367</ele>
        <time>2020-08-27T18:24:35.970Z</time>
      </trkpt>
      <trkpt lat="66.77685" lon="21.85247">
        <ele>128.818927</ele>
        <time>2020-08-27T18:24:58.774Z</time>
      </trkpt>
      <trkpt lat="66.7738" lon="21.85876">
        <ele>131.362743</ele>
        <time>2020-08-27T18:26:25.275Z</time>
      </trkpt>
      <trkpt lat="66.7725" lon="21.86107">
        <ele>127.061778</ele>
        <time>2020-08-27T18:26:46.052Z</time>
      </trkpt>
      <trkpt lat="66.77128" lon="21.86286">
        <ele>123.448415</ele>
        <time>2020-08-27T18:27:03.129Z</time>
      </trkpt>
      <trkpt lat="66.77045" lon="21.86408">
        <ele>121.747779</ele>
        <time>2020-08-27T18:27:19.224Z</time>
      </trkpt>
      <trkpt lat="66.77052" lon="21.86492">
        <ele>123.247663</ele>
        <time>2020-08-27T18:27:29.211Z</time>
      </trkpt>
      <trkpt lat="66.77039" lon="21.86534">
        <ele>124.323119</ele>
        <time>2020-08-27T18:27:36.531Z</time>
      </trkpt>
      <trkpt lat="66.76904" lon="21.86774">
        <ele>132.120466</ele>
        <time>2020-08-27T18:28:39.870Z</time>
      </trkpt>
      <trkpt lat="66.76824" lon="21.86949">
        <ele>135.776825</ele>
        <time>2020-08-27T18:29:11.246Z</time>
      </trkpt>
      <trkpt lat="66.76497" lon="21.87726">
        <ele>135.239433</ele>
        <time>2020-08-27T18:30:32.698Z</time>
      </trkpt>
      <trkpt lat="66.76397" lon="21.87961">
        <ele>128.895989</ele>
        <time>2020-08-27T18:30:48.839Z</time>
      </trkpt>
      <trkpt lat="66.7627" lon="21.88324">
        <ele>113.70457</ele>
        <time>2020-08-27T18:31:09.942Z</time>
      </trkpt>
      <trkpt lat="66.76207" lon="21.88456">
        <ele>111.01654</ele>
        <time>2020-08-27T18:31:19.357Z</time>
      </trkpt>
      <trkpt lat="66.76129" lon="21.8857">
        <ele>109.572953</ele>
        <time>2020-08-27T18:31:34.789Z</time>
      </trkpt>
      <trkpt lat="66.75882" lon="21.88719">
        <ele>134.767409</ele>
        <time>2020-08-27T18:33:57.330Z</time>
      </trkpt>
      <trkpt lat="66.75814" lon="21.88791">
        <ele>141.970539</ele>
        <time>2020-08-27T18:34:36.615Z</time>
      </trkpt>
      <trkpt lat="66.74995" lon="21.89647">
        <ele>162.64963</ele>
        <time>2020-08-27T18:38:11.506Z</time>
      </trkpt>
      <trkpt lat="66.7497" lon="21.8961">
        <ele>163.252746</ele>
        <time>2020-08-27T18:38:18.936Z</time>
      </trkpt>
      <trkpt lat="66.74773" lon="21.90024">
        <ele>168.549979</ele>
        <time>2020-08-27T18:39:24.429Z</time>
      </trkpt>
      <trkpt lat="66.74598" lon="21.90498">
        <ele>171.808495</ele>
        <time>2020-08-27T18:40:13.790Z</time>
      </trkpt>
      <trkpt lat="66.74303" lon="21.91532">
        <ele>185.886986</ele>
        <time>2020-08-27T18:42:48.288Z</time>
      </trkpt>
      <trkpt lat="66.73978" lon="21.92476">
        <ele>156.680999</ele>
        <time>2020-08-27T18:43:45.000Z</time>
      </trkpt>
      <trkpt lat="66.737" lon="21.93214">
        <ele>138.424617</ele>
        <time>2020-08-27T18:44:34.207Z</time>
      </trkpt>
      <trkpt lat="66.73198" lon="21.94364">
        <ele>139.472746</ele>
        <time>2020-08-27T18:46:51.398Z</time>
      </trkpt>
      <trkpt lat="66.72689" lon="21.95429">
        <ele>128.546518</ele>
        <time>2020-08-27T18:48:24.778Z</time>
      </trkpt>
      <trkpt lat="66.72282" lon="21.96253">
        <ele>127.515498</ele>
        <time>2020-08-27T18:49:54.522Z</time>
      </trkpt>
      <trkpt lat="66.71577" lon="21.97506">
        <ele>143.392393</ele>
        <time>2020-08-27T18:53:25.706Z</time>
      </trkpt>
      <trkpt lat="66.71085" lon="21.98331">
        <ele>135.126739</ele>
        <time>2020-08-27T18:54:52.354Z</time>
      </trkpt>
      <trkpt lat="66.71015" lon="21.98455">
        <ele>133.647568</ele>
        <time>2020-08-27T18:55:03.032Z</time>
      </trkpt>
      <trkpt lat="66.70994" lon="21.98497">
        <ele>133.181077</ele>
        <time>2020-08-27T18:55:06.479Z</time>
      </trkpt>
      <trkpt lat="66.70532" lon="21.99428">
        <ele>138.702522</ele>
        <time>2020-08-27T18:57:16.952Z</time>
      </trkpt>
      <trkpt lat="66.70036" lon="22.00475">
        <ele>141.586628</ele>
        <time>2020-08-27T18:59:17.898Z</time>
      </trkpt>
      <trkpt lat="66.69662" lon="22.01335">
        <ele>149.067896</ele>
        <time>2020-08-27T19:01:24.120Z</time>
      </trkpt>
      <trkpt lat="66.69516" lon="22.01843">
        <ele>140.417439</ele>
        <time>2020-08-27T19:01:54.385Z</time>
      </trkpt>
      <trkpt lat="66.69453" lon="22.02155">
        <ele>138.658723</ele>
        <time>2020-08-27T19:02:12.209Z</time>
      </trkpt>
      <trkpt lat="66.69297" lon="22.02891">
        <ele>148.206498</ele>
        <time>2020-08-27T19:04:01.134Z</time>
      </trkpt>
      <trkpt lat="66.6917" lon="22.03578">
        <ele>147.942668</ele>
        <time>2020-08-27T19:04:48.290Z</time>
      </trkpt>
      <trkpt lat="66.69025" lon="22.04601">
        <ele>144.444136</ele>
        <time>2020-08-27T19:06:01.349Z</time>
      </trkpt>
      <trkpt lat="66.68964" lon="22.04997">
        <ele>137.71876</ele>
        <time>2020-08-27T19:06:21.665Z</time>
      </trkpt>
      <trkpt lat="66.68884" lon="22.05369">
        <ele>129.265323</ele>
        <time>2020-08-27T19:06:41.477Z</time>
      </trkpt>
      <trkpt lat="66.68786" lon="22.05711">
        <ele>124.039401</ele>
        <time>2020-08-27T19:07:03.619Z</time>
      </trkpt>
      <trkpt lat="66.68576" lon="22.06329">
        <ele>121.566062</ele>
        <time>2020-08-27T19:07:57.660Z</time>
      </trkpt>
      <trkpt lat="66.68453" lon="22.0681">
        <ele>118.227396</ele>
        <time>2020-08-27T19:08:30.289Z</time>
      </trkpt>
      <trkpt lat="66.67808" lon="22.10535">
        <ele>99.509604</ele>
        <time>2020-08-27T19:12:34.235Z</time>
      </trkpt>
      <trkpt lat="66.67502" lon="22.12217">
        <ele>111.042031</ele>
        <time>2020-08-27T19:15:25.668Z</time>
      </trkpt>
      <trkpt lat="66.67305" lon="22.13075">
        <ele>116.106863</ele>
        <time>2020-08-27T19:16:55.702Z</time>
      </trkpt>
      <trkpt lat="66.67155" lon="22.13664">
        <ele>113.880446</ele>
        <time>2020-08-27T19:17:38.111Z</time>
      </trkpt>
      <trkpt lat="66.6704" lon="22.14088">
        <ele>109.579543</ele>
        <time>2020-08-27T19:18:06.026Z</time>
      </trkpt>
      <trkpt lat="66.6689" lon="22.14637">
        <ele>105.93953</ele>
        <time>2020-08-27T19:18:45.230Z</time>
      </trkpt>
      <trkpt lat="66.66204" lon="22.16697">
        <ele>100.717139</ele>
        <time>2020-08-27T19:21:42.412Z</time>
      </trkpt>
      <trkpt lat="66.66103" lon="22.16954">
        <ele>100.175046</ele>
        <time>2020-08-27T19:22:06.361Z</time>
      </trkpt>
      <trkpt lat="66.65985" lon="22.17192">
        <ele>99.834169</ele>
        <time>2020-08-27T19:22:31.931Z</time>
      </trkpt>
      <trkpt lat="66.65848" lon="22.17422">
        <ele>100.075673</ele>
        <time>2020-08-27T19:23:01.929Z</time>
      </trkpt>
      <trkpt lat="66.65833" lon="22.17446">
        <ele>100.232524</ele>
        <time>2020-08-27T19:23:05.313Z</time>
      </trkpt>
      <trkpt lat="66.65745" lon="22.17565">
        <ele>101.13929</ele>
        <time>2020-08-27T19:23:25.796Z</time>
      </trkpt>
      <trkpt lat="66.65627" lon="22.17689">
        <ele>102.792464</ele>
        <time>2020-08-27T19:23:54.662Z</time>
      </trkpt>
      <trkpt lat="66.65609" lon="22.17707">
        <ele>103.098352</ele>
        <time>2020-08-27T19:23:59.265Z</time>
      </trkpt>
      <trkpt lat="66.65465" lon="22.17838">
        <ele>105.31404</ele>
        <time>2020-08-27T19:24:34.673Z</time>
      </trkpt>
      <trkpt lat="66.65427" lon="22.17873">
        <ele>105.838067</ele>
        <time>2020-08-27T19:24:43.634Z</time>
      </trkpt>
      <trkpt lat="66.65273" lon="22.18008">
        <ele>106.914875</ele>
        <time>2020-08-27T19:25:17.577Z</time>
      </trkpt>
      <trkpt lat="66.65101" lon="22.18168">
        <ele>106.361451</ele>
        <time>2020-08-27T19:25:47.388Z</time>
      </trkpt>
      <trkpt lat="66.64973" lon="22.18287">
        <ele>106.01364</ele>
        <time>2020-08-27T19:26:08.557Z</time>
      </trkpt>
      <trkpt lat="66.64789" lon="22.18483">
        <ele>107.387376</ele>
        <time>2020-08-27T19:26:52.500Z</time>
      </trkpt>
      <trkpt lat="66.64659" lon="22.18689">
        <ele>108.239218</ele>
        <time>2020-08-27T19:27:22.923Z</time>
      </trkpt>
      <trkpt lat="66.64537" lon="22.18928">
        <ele>107.960663</ele>
        <time>2020-08-27T19:27:47.991Z</time>
      </trkpt>
      <trkpt lat="66.64433" lon="22.1918">
        <ele>108.295331</ele>
        <time>2020-08-27T19:28:13.930Z</time>
      </trkpt>
      <trkpt lat="66.64316" lon="22.19431">
        <ele>110.983744</ele>
        <time>2020-08-27T19:28:49.666Z</time>
      </trkpt>
      <trkpt lat="66.64196" lon="22.19666">
        <ele>115.680099</ele>
        <time>2020-08-27T19:29:32.007Z</time>
      </trkpt>
      <trkpt lat="66.64014" lon="22.19903">
        <ele>123.988336</ele>
        <time>2020-08-27T19:30:36.961Z</time>
      </trkpt>
      <trkpt lat="66.64001" lon="22.19844">
        <ele>125.161064</ele>
        <time>2020-08-27T19:30:46.357Z</time>
      </trkpt>
      <trkpt lat="66.63972" lon="22.19845">
        <ele>126.334823</ele>
        <time>2020-08-27T19:30:55.899Z</time>
      </trkpt>
      <trkpt lat="66.63638" lon="22.19954">
        <ele>137.113387</ele>
        <time>2020-08-27T19:32:33.760Z</time>
      </trkpt>
      <trkpt lat="66.63557" lon="22.20001">
        <ele>137.688188</ele>
        <time>2020-08-27T19:32:52.424Z</time>
      </trkpt>
      <trkpt lat="66.63408" lon="22.20126">
        <ele>137.14273</ele>
        <time>2020-08-27T19:33:19.180Z</time>
      </trkpt>
      <trkpt lat="66.6331" lon="22.20223">
        <ele>135.227445</ele>
        <time>2020-08-27T19:33:34.493Z</time>
      </trkpt>
      <trkpt lat="66.63171" lon="22.20397">
        <ele>132.772029</ele>
        <time>2020-08-27T19:33:56.921Z</time>
      </trkpt>
      <trkpt lat="66.63093" lon="22.20507">
        <ele>132.0862</ele>
        <time>2020-08-27T19:34:14.324Z</time>
      </trkpt>
      <trkpt lat="66.62985" lon="22.20689">
        <ele>132.504044</ele>
        <time>2020-08-27T19:34:41.791Z</time>
      </trkpt>
      <trkpt lat="66.62961" lon="22.2073">
        <ele>132.29647</ele>
        <time>2020-08-27T19:34:47.270Z</time>
      </trkpt>
      <trkpt lat="66.62824" lon="22.20954">
        <ele>129.525257</ele>
        <time>2020-08-27T19:35:11.515Z</time>
      </trkpt>
      <trkpt lat="66.62717" lon="22.21158">
        <ele>126.443059</ele>
        <time>2020-08-27T19:35:30.341Z</time>
      </trkpt>
      <trkpt lat="66.62636" lon="22.2135">
        <ele>124.70413</ele>
        <time>2020-08-27T19:35:47.452Z</time>
      </trkpt>
      <trkpt lat="66.6256" lon="22.21556">
        <ele>123.556633</ele>
        <time>2020-08-27T19:36:06.422Z</time>
      </trkpt>
      <trkpt lat="66.62221" lon="22.22666">
        <ele>118.74712</ele>
        <time>2020-08-27T19:37:37.848Z</time>
      </trkpt>
      <trkpt lat="66.62226" lon="22.22717">
        <ele>118.559301</ele>
        <time>2020-08-27T19:37:41.109Z</time>
      </trkpt>
      <trkpt lat="66.62056" lon="22.2298">
        <ele>117.281025</ele>
        <time>2020-08-27T19:38:12.381Z</time>
      </trkpt>
      <trkpt lat="66.61888" lon="22.23238">
        <ele>116.983363</ele>
        <time>2020-08-27T19:38:51.072Z</time>
      </trkpt>
      <trkpt lat="66.61289" lon="22.23959">
        <ele>112.858262</ele>
        <time>2020-08-27T19:40:36.770Z</time>
      </trkpt>
      <trkpt lat="66.6103" lon="22.24353">
        <ele>111.443156</ele>
        <time>2020-08-27T19:41:28.940Z</time>
      </trkpt>
      <trkpt lat="66.60682" lon="22.2509">
        <ele>103.446445</ele>
        <time>2020-08-27T19:42:33.347Z</time>
      </trkpt>
      <trkpt lat="66.60546" lon="22.25298">
        <ele>101.214058</ele>
        <time>2020-08-27T19:42:57.085Z</time>
      </trkpt>
      <trkpt lat="66.60364" lon="22.25518">
        <ele>99.351997</ele>
        <time>2020-08-27T19:43:29.356Z</time>
      </trkpt>
      <trkpt lat="66.60044" lon="22.2583">
        <ele>95.641446</ele>
        <time>2020-08-27T19:44:21.822Z</time>
      </trkpt>
      <trkpt lat="66.59851" lon="22.26082">
        <ele>94.245814</ele>
        <time>2020-08-27T19:44:54.515Z</time>
      </trkpt>
      <trkpt lat="66.59767" lon="22.2619">
        <ele>94.718975</ele>
        <time>2020-08-27T19:45:14.967Z</time>
      </trkpt>
      <trkpt lat="66.59682" lon="22.26289">
        <ele>97.866035</ele>
        <time>2020-08-27T19:45:41.967Z</time>
      </trkpt>
      <trkpt lat="66.59595" lon="22.2639">
        <ele>101.459631</ele>
        <time>2020-08-27T19:46:12.775Z</time>
      </trkpt>
      <trkpt lat="66.59414" lon="22.26516">
        <ele>108.869182</ele>
        <time>2020-08-27T19:47:11.845Z</time>
      </trkpt>
      <trkpt lat="66.58937" lon="22.26654">
        <ele>116.687651</ele>
        <time>2020-08-27T19:49:04.624Z</time>
      </trkpt>
      <trkpt lat="66.58705" lon="22.26751">
        <ele>114.34584</ele>
        <time>2020-08-27T19:49:39.912Z</time>
      </trkpt>
      <trkpt lat="66.58473" lon="22.26894">
        <ele>106.521119</ele>
        <time>2020-08-27T19:50:10.477Z</time>
      </trkpt>
      <trkpt lat="66.58236" lon="22.27094">
        <ele>99.350276</ele>
        <time>2020-08-27T19:50:43.744Z</time>
      </trkpt>
      <trkpt lat="66.58091" lon="22.27272">
        <ele>96.968185</ele>
        <time>2020-08-27T19:51:06.559Z</time>
      </trkpt>
      <trkpt lat="66.57695" lon="22.27787">
        <ele>99.046359</ele>
        <time>2020-08-27T19:52:35.815Z</time>
      </trkpt>
      <trkpt lat="66.57623" lon="22.27884">
        <ele>99.926883</ele>
        <time>2020-08-27T19:52:53.567Z</time>
      </trkpt>
      <trkpt lat="66.57054" lon="22.28653">
        <ele>106.783515</ele>
        <time>2020-08-27T19:55:11.962Z</time>
      </trkpt>
      <trkpt lat="66.56885" lon="22.28889">
        <ele>107.056223</ele>
        <time>2020-08-27T19:55:47.595Z</time>
      </trkpt>
      <trkpt lat="66.56794" lon="22.2904">
        <ele>106.446668</ele>
        <time>2020-08-27T19:56:05.116Z</time>
      </trkpt>
      <trkpt lat="66.56684" lon="22.29261">
        <ele>104.885472</ele>
        <time>2020-08-27T19:56:26.406Z</time>
      </trkpt>
      <trkpt lat="66.56583" lon="22.29503">
        <ele>103.300462</ele>
        <time>2020-08-27T19:56:47.275Z</time>
      </trkpt>
      <trkpt lat="66.5623" lon="22.30676">
        <ele>98.155841</ele>
        <time>2020-08-27T19:58:18.473Z</time>
      </trkpt>
      <trkpt lat="66.56076" lon="22.31059">
        <ele>98.948932</ele>
        <time>2020-08-27T19:59:01.371Z</time>
      </trkpt>
      <trkpt lat="66.55907" lon="22.31374">
        <ele>100.887734</ele>
        <time>2020-08-27T19:59:45.925Z</time>
      </trkpt>
      <trkpt lat="66.55832" lon="22.3148">
        <ele>101.35591</ele>
        <time>2020-08-27T20:00:02.918Z</time>
      </trkpt>
      <trkpt lat="66.55561" lon="22.31859">
        <ele>103.046102</ele>
        <time>2020-08-27T20:01:02.085Z</time>
      </trkpt>
      <trkpt lat="66.55445" lon="22.32094">
        <ele>104.688107</ele>
        <time>2020-08-27T20:01:35.056Z</time>
      </trkpt>
      <trkpt lat="66.55343" lon="22.32332">
        <ele>106.290793</ele>
        <time>2020-08-27T20:02:06.000Z</time>
      </trkpt>
      <trkpt lat="66.55183" lon="22.32868">
        <ele>107.499365</ele>
        <time>2020-08-27T20:02:57.500Z</time>
      </trkpt>
      <trkpt lat="66.54998" lon="22.33589">
        <ele>106.367199</ele>
        <time>2020-08-27T20:03:55.398Z</time>
      </trkpt>
      <trkpt lat="66.54766" lon="22.3455">
        <ele>100.899902</ele>
        <time>2020-08-27T20:05:02.003Z</time>
      </trkpt>
      <trkpt lat="66.54637" lon="22.3503">
        <ele>98.950881</ele>
        <time>2020-08-27T20:05:39.389Z</time>
      </trkpt>
      <trkpt lat="66.54565" lon="22.35267">
        <ele>97.076114</ele>
        <time>2020-08-27T20:05:57.301Z</time>
      </trkpt>
      <trkpt lat="66.54493" lon="22.35477">
        <ele>94.898876</ele>
        <time>2020-08-27T20:06:12.435Z</time>
      </trkpt>
      <trkpt lat="66.54337" lon="22.35906">
        <ele>90.744963</ele>
        <time>2020-08-27T20:06:43.820Z</time>
      </trkpt>
      <trkpt lat="66.54009" lon="22.36754">
        <ele>95.162384</ele>
        <time>2020-08-27T20:08:27.332Z</time>
      </trkpt>
      <trkpt lat="66.53756" lon="22.37431">
        <ele>101.220598</ele>
        <time>2020-08-27T20:09:50.982Z</time>
      </trkpt>
      <trkpt lat="66.53673" lon="22.37692">
        <ele>105.030086</ele>
        <time>2020-08-27T20:10:27.815Z</time>
      </trkpt>
      <trkpt lat="66.53612" lon="22.37937">
        <ele>109.713583</ele>
        <time>2020-08-27T20:11:03.798Z</time>
      </trkpt>
      <trkpt lat="66.53557" lon="22.38224">
        <ele>114.959366</ele>
        <time>2020-08-27T20:11:44.570Z</time>
      </trkpt>
      <trkpt lat="66.53496" lon="22.3859">
        <ele>120.953387</ele>
        <time>2020-08-27T20:12:33.135Z</time>
      </trkpt>
      <trkpt lat="66.53454" lon="22.38979">
        <ele>124.939152</ele>
        <time>2020-08-27T20:13:14.779Z</time>
      </trkpt>
      <trkpt lat="66.53351" lon="22.40151">
        <ele>126.029985</ele>
        <time>2020-08-27T20:14:41.896Z</time>
      </trkpt>
      <trkpt lat="66.53312" lon="22.40488">
        <ele>125.627782</ele>
        <time>2020-08-27T20:15:06.446Z</time>
      </trkpt>
      <trkpt lat="66.53261" lon="22.40793">
        <ele>124.371212</ele>
        <time>2020-08-27T20:15:27.324Z</time>
      </trkpt>
      <trkpt lat="66.5316" lon="22.41245">
        <ele>118.809031</ele>
        <time>2020-08-27T20:15:55.593Z</time>
      </trkpt>
      <trkpt lat="66.52802" lon="22.42753">
        <ele>91.465623</ele>
        <time>2020-08-27T20:17:22.672Z</time>
      </trkpt>
      <trkpt lat="66.52677" lon="22.43238">
        <ele>90.543073</ele>
        <time>2020-08-27T20:18:04.009Z</time>
      </trkpt>
      <trkpt lat="66.52608" lon="22.43453">
        <ele>91.562057</ele>
        <time>2020-08-27T20:18:28.763Z</time>
      </trkpt>
      <trkpt lat="66.5253" lon="22.43652">
        <ele>93.34822</ele>
        <time>2020-08-27T20:18:54.473Z</time>
      </trkpt>
      <trkpt lat="66.5236" lon="22.44009">
        <ele>97.159544</ele>
        <time>2020-08-27T20:19:45.965Z</time>
      </trkpt>
      <trkpt lat="66.52225" lon="22.44209">
        <ele>100.235949</ele>
        <time>2020-08-27T20:20:23.946Z</time>
      </trkpt>
      <trkpt lat="66.52084" lon="22.44368">
        <ele>103.175503</ele>
        <time>2020-08-27T20:21:01.822Z</time>
      </trkpt>
      <trkpt lat="66.51717" lon="22.44712">
        <ele>108.359556</ele>
        <time>2020-08-27T20:22:30.467Z</time>
      </trkpt>
      <trkpt lat="66.50015" lon="22.4615">
        <ele>83.325247</ele>
        <time>2020-08-27T20:26:56.248Z</time>
      </trkpt>
      <trkpt lat="66.4973" lon="22.46496">
        <ele>78.982983</ele>
        <time>2020-08-27T20:27:43.504Z</time>
      </trkpt>
      <trkpt lat="66.49741" lon="22.46554">
        <ele>78.630373</ele>
        <time>2020-08-27T20:27:47.407Z</time>
      </trkpt>
      <trkpt lat="66.49522" lon="22.47078">
        <ele>75.575252</ele>
        <time>2020-08-27T20:28:35.747Z</time>
      </trkpt>
      <trkpt lat="66.49187" lon="22.47897">
        <ele>73.589102</ele>
        <time>2020-08-27T20:29:58.750Z</time>
      </trkpt>
      <trkpt lat="66.49145" lon="22.47987">
        <ele>73.283533</ele>
        <time>2020-08-27T20:30:08.089Z</time>
      </trkpt>
      <trkpt lat="66.49108" lon="22.48045">
        <ele>73.044995</ele>
        <time>2020-08-27T20:30:15.331Z</time>
      </trkpt>
      <trkpt lat="66.49031" lon="22.48132">
        <ele>72.902793</ele>
        <time>2020-08-27T20:30:29.841Z</time>
      </trkpt>
      <trkpt lat="66.48962" lon="22.48183">
        <ele>73.788133</ele>
        <time>2020-08-27T20:30:43.368Z</time>
      </trkpt>
      <trkpt lat="66.48416" lon="22.48489">
        <ele>80.925358</ele>
        <time>2020-08-27T20:32:54.451Z</time>
      </trkpt>
      <trkpt lat="66.48405" lon="22.48436">
        <ele>81.272234</ele>
        <time>2020-08-27T20:33:00.279Z</time>
      </trkpt>
      <trkpt lat="66.4824" lon="22.48678">
        <ele>83.317189</ele>
        <time>2020-08-27T20:33:41.602Z</time>
      </trkpt>
      <trkpt lat="66.47574" lon="22.49652">
        <ele>84.220272</ele>
        <time>2020-08-27T20:36:02.363Z</time>
      </trkpt>
      <trkpt lat="66.47438" lon="22.49828">
        <ele>82.719131</ele>
        <time>2020-08-27T20:36:25.438Z</time>
      </trkpt>
      <trkpt lat="66.47361" lon="22.49913">
        <ele>81.93609</ele>
        <time>2020-08-27T20:36:38.015Z</time>
      </trkpt>
      <trkpt lat="66.46937" lon="22.50209">
        <ele>78.382595</ele>
        <time>2020-08-27T20:37:47.932Z</time>
      </trkpt>
      <trkpt lat="66.46868" lon="22.50258">
        <ele>78.439069</ele>
        <time>2020-08-27T20:38:00.772Z</time>
      </trkpt>
      <trkpt lat="66.46554" lon="22.506">
        <ele>80.479339</ele>
        <time>2020-08-27T20:39:09.326Z</time>
      </trkpt>
      <trkpt lat="66.46302" lon="22.50912">
        <ele>81.673326</ele>
        <time>2020-08-27T20:40:05.232Z</time>
      </trkpt>
      <trkpt lat="66.46223" lon="22.51052">
        <ele>80.547301</ele>
        <time>2020-08-27T20:40:20.878Z</time>
      </trkpt>
      <trkpt lat="66.4607" lon="22.51447">
        <ele>74.286712</ele>
        <time>2020-08-27T20:40:49.378Z</time>
      </trkpt>
      <trkpt lat="66.45996" lon="22.51698">
        <ele>71.391258</ele>
        <time>2020-08-27T20:41:05.384Z</time>
      </trkpt>
      <trkpt lat="66.4597" lon="22.51791">
        <ele>71.671988</ele>
        <time>2020-08-27T20:41:12.218Z</time>
      </trkpt>
      <trkpt lat="66.45849" lon="22.52213">
        <ele>75.286578</ele>
        <time>2020-08-27T20:42:09.421Z</time>
      </trkpt>
      <trkpt lat="66.45762" lon="22.5243">
        <ele>77.970461</ele>
        <time>2020-08-27T20:42:41.923Z</time>
      </trkpt>
      <trkpt lat="66.45615" lon="22.52754">
        <ele>79.661608</ele>
        <time>2020-08-27T20:43:20.373Z</time>
      </trkpt>
      <trkpt lat="66.45509" lon="22.5307">
        <ele>79.858136</ele>
        <time>2020-08-27T20:43:49.893Z</time>
      </trkpt>
      <trkpt lat="66.45443" lon="22.53347">
        <ele>79.746564</ele>
        <time>2020-08-27T20:44:12.864Z</time>
      </trkpt>
      <trkpt lat="66.4531" lon="22.54109">
        <ele>77.185906</ele>
        <time>2020-08-27T20:45:06.487Z</time>
      </trkpt>
      <trkpt lat="66.45293" lon="22.542">
        <ele>76.663857</ele>
        <time>2020-08-27T20:45:12.139Z</time>
      </trkpt>
      <trkpt lat="66.45246" lon="22.54467">
        <ele>74.176285</ele>
        <time>2020-08-27T20:45:28.067Z</time>
      </trkpt>
      <trkpt lat="66.4519" lon="22.54738">
        <ele>72.587393</ele>
        <time>2020-08-27T20:45:45.461Z</time>
      </trkpt>
      <trkpt lat="66.45109" lon="22.55035">
        <ele>72.22709</ele>
        <time>2020-08-27T20:46:10.967Z</time>
      </trkpt>
      <trkpt lat="66.45005" lon="22.55385">
        <ele>74.034449</ele>
        <time>2020-08-27T20:46:51.181Z</time>
      </trkpt>
      <trkpt lat="66.44922" lon="22.55664">
        <ele>74.509532</ele>
        <time>2020-08-27T20:47:18.115Z</time>
      </trkpt>
      <trkpt lat="66.44745" lon="22.56243">
        <ele>69.854908</ele>
        <time>2020-08-27T20:47:59.633Z</time>
      </trkpt>
      <trkpt lat="66.44631" lon="22.56596">
        <ele>67.196931</ele>
        <time>2020-08-27T20:48:26.376Z</time>
      </trkpt>
      <trkpt lat="66.44596" lon="22.56704">
        <ele>66.504395</ele>
        <time>2020-08-27T20:48:34.943Z</time>
      </trkpt>
      <trkpt lat="66.44457" lon="22.57083">
        <ele>65.202846</ele>
        <time>2020-08-27T20:49:08.126Z</time>
      </trkpt>
      <trkpt lat="66.44314" lon="22.57427">
        <ele>65.735522</ele>
        <time>2020-08-27T20:49:44.953Z</time>
      </trkpt>
      <trkpt lat="66.44189" lon="22.57657">
        <ele>67.164885</ele>
        <time>2020-08-27T20:50:17.937Z</time>
      </trkpt>
      <trkpt lat="66.43984" lon="22.57996">
        <ele>69.689794</ele>
        <time>2020-08-27T20:51:11.647Z</time>
      </trkpt>
      <trkpt lat="66.43784" lon="22.58428">
        <ele>70.002134</ele>
        <time>2020-08-27T20:51:59.347Z</time>
      </trkpt>
      <trkpt lat="66.43619" lon="22.5896">
        <ele>67.683532</ele>
        <time>2020-08-27T20:52:41.968Z</time>
      </trkpt>
      <trkpt lat="66.43516" lon="22.59406">
        <ele>64.18333</ele>
        <time>2020-08-27T20:53:11.325Z</time>
      </trkpt>
      <trkpt lat="66.43472" lon="22.59681">
        <ele>61.994454</ele>
        <time>2020-08-27T20:53:27.849Z</time>
      </trkpt>
      <trkpt lat="66.43459" lon="22.59765">
        <ele>61.589642</ele>
        <time>2020-08-27T20:53:33.113Z</time>
      </trkpt>
      <trkpt lat="66.43433" lon="22.59928">
        <ele>60.810135</ele>
        <time>2020-08-27T20:53:43.699Z</time>
      </trkpt>
      <trkpt lat="66.43427" lon="22.59961">
        <ele>60.653325</ele>
        <time>2020-08-27T20:53:45.914Z</time>
      </trkpt>
      <trkpt lat="66.43425" lon="22.59976">
        <ele>60.580696</ele>
        <time>2020-08-27T20:53:46.993Z</time>
      </trkpt>
      <trkpt lat="66.43337" lon="22.60522">
        <ele>60.317158</ele>
        <time>2020-08-27T20:54:29.611Z</time>
      </trkpt>
      <trkpt lat="66.43289" lon="22.60779">
        <ele>60.440877</ele>
        <time>2020-08-27T20:54:50.744Z</time>
      </trkpt>
      <trkpt lat="66.4321" lon="22.61116">
        <ele>60.417239</ele>
        <time>2020-08-27T20:55:18.647Z</time>
      </trkpt>
      <trkpt lat="66.43144" lon="22.61337">
        <ele>60.312084</ele>
        <time>2020-08-27T20:55:37.689Z</time>
      </trkpt>
      <trkpt lat="66.43077" lon="22.61518">
        <ele>60.17064</ele>
        <time>2020-08-27T20:55:54.809Z</time>
      </trkpt>
      <trkpt lat="66.42977" lon="22.61758">
        <ele>60.106089</ele>
        <time>2020-08-27T20:56:19.343Z</time>
      </trkpt>
      <trkpt lat="66.42865" lon="22.61975">
        <ele>60.081294</ele>
        <time>2020-08-27T20:56:44.765Z</time>
      </trkpt>
      <trkpt lat="66.4239" lon="22.62737">
        <ele>60.333937</ele>
        <time>2020-08-27T20:58:24.876Z</time>
      </trkpt>
      <trkpt lat="66.42117" lon="22.63213">
        <ele>62.527062</ele>
        <time>2020-08-27T20:59:33.945Z</time>
      </trkpt>
      <trkpt lat="66.41849" lon="22.63698">
        <ele>62.257701</ele>
        <time>2020-08-27T21:00:31.061Z</time>
      </trkpt>
      <trkpt lat="66.41305" lon="22.64711">
        <ele>60.164905</ele>
        <time>2020-08-27T21:02:25.731Z</time>
      </trkpt>
      <trkpt lat="66.41113" lon="22.65098">
        <ele>59.835889</ele>
        <time>2020-08-27T21:03:09.164Z</time>
      </trkpt>
      <trkpt lat="66.41085" lon="22.65153">
        <ele>59.771395</ele>
        <time>2020-08-27T21:03:15.269Z</time>
      </trkpt>
      <trkpt lat="66.4097" lon="22.65337">
        <ele>59.570557</ele>
        <time>2020-08-27T21:03:38.710Z</time>
      </trkpt>
      <trkpt lat="66.40863" lon="22.65468">
        <ele>59.47791</ele>
        <time>2020-08-27T21:03:59.584Z</time>
      </trkpt>
      <trkpt lat="66.40714" lon="22.65651">
        <ele>60.546491</ele>
        <time>2020-08-27T21:04:31.606Z</time>
      </trkpt>
      <trkpt lat="66.40556" lon="22.65844">
        <ele>63.95671</ele>
        <time>2020-08-27T21:05:13.161Z</time>
      </trkpt>
      <trkpt lat="66.40151" lon="22.66273">
        <ele>79.121175</ele>
        <time>2020-08-27T21:07:23.975Z</time>
      </trkpt>
      <trkpt lat="66.40125" lon="22.663">
        <ele>79.891168</ele>
        <time>2020-08-27T21:07:31.722Z</time>
      </trkpt>
      <trkpt lat="66.39828" lon="22.66616">
        <ele>87.79435</ele>
        <time>2020-08-27T21:08:52.110Z</time>
      </trkpt>
      <trkpt lat="66.3966" lon="22.66794">
        <ele>92.416957</ele>
        <time>2020-08-27T21:09:40.824Z</time>
      </trkpt>
      <trkpt lat="66.39491" lon="22.66925">
        <ele>96.037894</ele>
        <time>2020-08-27T21:10:25.478Z</time>
      </trkpt>
      <trkpt lat="66.38955" lon="22.67234">
        <ele>100.188023</ele>
        <time>2020-08-27T21:12:16.747Z</time>
      </trkpt>
      <trkpt lat="66.38721" lon="22.67458">
        <ele>97.520547</ele>
        <time>2020-08-27T21:12:56.511Z</time>
      </trkpt>
      <trkpt lat="66.38501" lon="22.67718">
        <ele>89.038051</ele>
        <time>2020-08-27T21:13:27.284Z</time>
      </trkpt>
      <trkpt lat="66.38364" lon="22.67945">
        <ele>81.543406</ele>
        <time>2020-08-27T21:13:47.263Z</time>
      </trkpt>
      <trkpt lat="66.38315" lon="22.68024">
        <ele>80.172702</ele>
        <time>2020-08-27T21:13:54.771Z</time>
      </trkpt>
      <trkpt lat="66.38176" lon="22.68404">
        <ele>76.821074</ele>
        <time>2020-08-27T21:14:26.342Z</time>
      </trkpt>
      <trkpt lat="66.38103" lon="22.68679">
        <ele>75.225676</ele>
        <time>2020-08-27T21:14:46.827Z</time>
      </trkpt>
      <trkpt lat="66.37875" lon="22.69722">
        <ele>67.100239</ele>
        <time>2020-08-27T21:15:55.381Z</time>
      </trkpt>
      <trkpt lat="66.37674" lon="22.70336">
        <ele>60.685051</ele>
        <time>2020-08-27T21:16:41.182Z</time>
      </trkpt>
      <trkpt lat="66.3765" lon="22.70418">
        <ele>59.638897</ele>
        <time>2020-08-27T21:16:46.509Z</time>
      </trkpt>
      <trkpt lat="66.37643" lon="22.70441">
        <ele>59.339821</ele>
        <time>2020-08-27T21:16:47.988Z</time>
      </trkpt>
      <trkpt lat="66.37637" lon="22.70459">
        <ele>59.092771</ele>
        <time>2020-08-27T21:16:49.246Z</time>
      </trkpt>
      <trkpt lat="66.37621" lon="22.70508">
        <ele>58.37694</ele>
        <time>2020-08-27T21:16:52.404Z</time>
      </trkpt>
      <trkpt lat="66.37583" lon="22.70684">
        <ele>55.687703</ele>
        <time>2020-08-27T21:17:02.463Z</time>
      </trkpt>
      <trkpt lat="66.37567" lon="22.70756">
        <ele>54.574138</ele>
        <time>2020-08-27T21:17:06.670Z</time>
      </trkpt>
      <trkpt lat="66.37553" lon="22.7085">
        <ele>53.219968</ele>
        <time>2020-08-27T21:17:11.945Z</time>
      </trkpt>
      <trkpt lat="66.37529" lon="22.71006">
        <ele>52.226029</ele>
        <time>2020-08-27T21:17:21.444Z</time>
      </trkpt>
      <trkpt lat="66.37499" lon="22.7121">
        <ele>51.548226</ele>
        <time>2020-08-27T21:17:35.640Z</time>
      </trkpt>
      <trkpt lat="66.37497" lon="22.71228">
        <ele>51.488521</ele>
        <time>2020-08-27T21:17:37.039Z</time>
      </trkpt>
      <trkpt lat="66.37484" lon="22.71289">
        <ele>51.275559</ele>
        <time>2020-08-27T21:17:42.335Z</time>
      </trkpt>
      <trkpt lat="66.37466" lon="22.71366">
        <ele>51.236244</ele>
        <time>2020-08-27T21:17:49.494Z</time>
      </trkpt>
      <trkpt lat="66.37438" lon="22.71444">
        <ele>51.287993</ele>
        <time>2020-08-27T21:17:58.042Z</time>
      </trkpt>
      <trkpt lat="66.37372" lon="22.71557">
        <ele>51.385631</ele>
        <time>2020-08-27T21:18:12.626Z</time>
      </trkpt>
      <trkpt lat="66.3735" lon="22.71596">
        <ele>51.418758</ele>
        <time>2020-08-27T21:18:17.153Z</time>
      </trkpt>
      <trkpt lat="66.37341" lon="22.71615">
        <ele>51.341029</ele>
        <time>2020-08-27T21:18:19.147Z</time>
      </trkpt>
      <trkpt lat="66.37325" lon="22.71649">
        <ele>51.119285</ele>
        <time>2020-08-27T21:18:22.501Z</time>
      </trkpt>
      <trkpt lat="66.3727" lon="22.71766">
        <ele>50.348889</ele>
        <time>2020-08-27T21:18:33.668Z</time>
      </trkpt>
      <trkpt lat="66.37207" lon="22.71912">
        <ele>49.456222</ele>
        <time>2020-08-27T21:18:46.410Z</time>
      </trkpt>
      <trkpt lat="66.37176" lon="22.71982">
        <ele>49.138729</ele>
        <time>2020-08-27T21:18:52.571Z</time>
      </trkpt>
      <trkpt lat="66.37117" lon="22.72121">
        <ele>48.511037</ele>
        <time>2020-08-27T21:19:05.329Z</time>
      </trkpt>
      <trkpt lat="66.37084" lon="22.72195">
        <ele>48.170868</ele>
        <time>2020-08-27T21:19:12.907Z</time>
      </trkpt>
      <trkpt lat="66.36997" lon="22.72391">
        <ele>48.928878</ele>
        <time>2020-08-27T21:19:36.090Z</time>
      </trkpt>
      <trkpt lat="66.36983" lon="22.72413">
        <ele>49.043139</ele>
        <time>2020-08-27T21:19:39.549Z</time>
      </trkpt>
      <trkpt lat="66.36957" lon="22.72458">
        <ele>49.269247</ele>
        <time>2020-08-27T21:19:46.282Z</time>
      </trkpt>
      <trkpt lat="66.36918" lon="22.72522">
        <ele>49.721452</ele>
        <time>2020-08-27T21:19:56.314Z</time>
      </trkpt>
      <trkpt lat="66.36648" lon="22.7282">
        <ele>53.078763</ele>
        <time>2020-08-27T21:21:00.231Z</time>
      </trkpt>
      <trkpt lat="66.36641" lon="22.72827">
        <ele>53.160335</ele>
        <time>2020-08-27T21:21:01.752Z</time>
      </trkpt>
      <trkpt lat="66.36637" lon="22.72832">
        <ele>53.2145</ele>
        <time>2020-08-27T21:21:02.806Z</time>
      </trkpt>
      <trkpt lat="66.36614" lon="22.7286">
        <ele>53.496738</ele>
        <time>2020-08-27T21:21:08.024Z</time>
      </trkpt>
      <trkpt lat="66.36587" lon="22.72892">
        <ele>53.74188</ele>
        <time>2020-08-27T21:21:14.089Z</time>
      </trkpt>
      <trkpt lat="66.36564" lon="22.72921">
        <ele>53.958256</ele>
        <time>2020-08-27T21:21:19.424Z</time>
      </trkpt>
      <trkpt lat="66.36505" lon="22.73001">
        <ele>54.515118</ele>
        <time>2020-08-27T21:21:33.112Z</time>
      </trkpt>
      <trkpt lat="66.36498" lon="22.7301">
        <ele>54.577446</ele>
        <time>2020-08-27T21:21:34.632Z</time>
      </trkpt>
      <trkpt lat="66.36486" lon="22.73029">
        <ele>54.697679</ele>
        <time>2020-08-27T21:21:37.590Z</time>
      </trkpt>
      <trkpt lat="66.36433" lon="22.73111">
        <ele>55.17027</ele>
        <time>2020-08-27T21:21:50.280Z</time>
      </trkpt>
      <trkpt lat="66.36422" lon="22.73134">
        <ele>55.267362</ele>
        <time>2020-08-27T21:21:53.297Z</time>
      </trkpt>
      <trkpt lat="66.36418" lon="22.73142">
        <ele>55.303841</ele>
        <time>2020-08-27T21:21:54.362Z</time>
      </trkpt>
      <trkpt lat="66.36387" lon="22.73205">
        <ele>55.572708</ele>
        <time>2020-08-27T21:22:02.452Z</time>
      </trkpt>
      <trkpt lat="66.36353" lon="22.73275">
        <ele>55.874934</ele>
        <time>2020-08-27T21:22:11.509Z</time>
      </trkpt>
      <trkpt lat="66.36318" lon="22.73359">
        <ele>56.202145</ele>
        <time>2020-08-27T21:22:21.224Z</time>
      </trkpt>
      <trkpt lat="66.36156" lon="22.73845">
        <ele>55.694494</ele>
        <time>2020-08-27T21:23:06.048Z</time>
      </trkpt>
      <trkpt lat="66.36124" lon="22.73943">
        <ele>55.303191</ele>
        <time>2020-08-27T21:23:13.962Z</time>
      </trkpt>
      <trkpt lat="66.36044" lon="22.74179">
        <ele>54.278648</ele>
        <time>2020-08-27T21:23:32.277Z</time>
      </trkpt>
      <trkpt lat="66.36026" lon="22.74233">
        <ele>54.029771</ele>
        <time>2020-08-27T21:23:36.560Z</time>
      </trkpt>
      <trkpt lat="66.36014" lon="22.74261">
        <ele>53.887544</ele>
        <time>2020-08-27T21:23:38.988Z</time>
      </trkpt>
      <trkpt lat="66.36007" lon="22.74279">
        <ele>53.796385</ele>
        <time>2020-08-27T21:23:40.652Z</time>
      </trkpt>
      <trkpt lat="66.35995" lon="22.74309">
        <ele>53.642413</ele>
        <time>2020-08-27T21:23:43.393Z</time>
      </trkpt>
      <trkpt lat="66.35979" lon="22.74341">
        <ele>53.466091</ele>
        <time>2020-08-27T21:23:46.751Z</time>
      </trkpt>
      <trkpt lat="66.35961" lon="22.74379">
        <ele>53.332253</ele>
        <time>2020-08-27T21:23:50.777Z</time>
      </trkpt>
      <trkpt lat="66.35886" lon="22.74515">
        <ele>54.379493</ele>
        <time>2020-08-27T21:24:09.434Z</time>
      </trkpt>
      <trkpt lat="66.35866" lon="22.74551">
        <ele>54.654763</ele>
        <time>2020-08-27T21:24:14.866Z</time>
      </trkpt>
      <trkpt lat="66.3584" lon="22.74601">
        <ele>55.034103</ele>
        <time>2020-08-27T21:24:23.014Z</time>
      </trkpt>
      <trkpt lat="66.35801" lon="22.74673">
        <ele>55.794317</ele>
        <time>2020-08-27T21:24:35.176Z</time>
      </trkpt>
      <trkpt lat="66.35769" lon="22.74744">
        <ele>56.665333</ele>
        <time>2020-08-27T21:24:45.973Z</time>
      </trkpt>
      <trkpt lat="66.3576" lon="22.74768">
        <ele>56.929228</ele>
        <time>2020-08-27T21:24:49.039Z</time>
      </trkpt>
      <trkpt lat="66.35751" lon="22.74794">
        <ele>57.219393</ele>
        <time>2020-08-27T21:24:52.424Z</time>
      </trkpt>
      <trkpt lat="66.35745" lon="22.7481">
        <ele>57.395366</ele>
        <time>2020-08-27T21:24:54.805Z</time>
      </trkpt>
      <trkpt lat="66.35706" lon="22.74944">
        <ele>58.757734</ele>
        <time>2020-08-27T21:25:10.749Z</time>
      </trkpt>
      <trkpt lat="66.35672" lon="22.75086">
        <ele>59.808721</ele>
        <time>2020-08-27T21:25:26.350Z</time>
      </trkpt>
      <trkpt lat="66.3564" lon="22.75299">
        <ele>61.145444</ele>
        <time>2020-08-27T21:25:47.387Z</time>
      </trkpt>
      <trkpt lat="66.35618" lon="22.75523">
        <ele>61.158412</ele>
        <time>2020-08-27T21:26:06.062Z</time>
      </trkpt>
      <trkpt lat="66.3561" lon="22.75608">
        <ele>60.855352</ele>
        <time>2020-08-27T21:26:12.121Z</time>
      </trkpt>
      <trkpt lat="66.3558" lon="22.75932">
        <ele>58.092626</ele>
        <time>2020-08-27T21:26:30.841Z</time>
      </trkpt>
      <trkpt lat="66.3556" lon="22.76188">
        <ele>53.537402</ele>
        <time>2020-08-27T21:26:43.458Z</time>
      </trkpt>
      <trkpt lat="66.35558" lon="22.7621">
        <ele>53.146533</ele>
        <time>2020-08-27T21:26:44.471Z</time>
      </trkpt>
      <trkpt lat="66.35543" lon="22.7632">
        <ele>51.184401</ele>
        <time>2020-08-27T21:26:50.160Z</time>
      </trkpt>
      <trkpt lat="66.35532" lon="22.76392">
        <ele>49.918322</ele>
        <time>2020-08-27T21:26:53.884Z</time>
      </trkpt>
      <trkpt lat="66.35527" lon="22.76424">
        <ele>49.360952</ele>
        <time>2020-08-27T21:26:55.583Z</time>
      </trkpt>
      <trkpt lat="66.35468" lon="22.76664">
        <ele>44.867365</ele>
        <time>2020-08-27T21:27:09.859Z</time>
      </trkpt>
      <trkpt lat="66.3545" lon="22.76716">
        <ele>44.609851</ele>
        <time>2020-08-27T21:27:13.638Z</time>
      </trkpt>
      <trkpt lat="66.35433" lon="22.76765">
        <ele>44.366909</ele>
        <time>2020-08-27T21:27:17.696Z</time>
      </trkpt>
      <trkpt lat="66.35417" lon="22.76806">
        <ele>44.147367</ele>
        <time>2020-08-27T21:27:21.496Z</time>
      </trkpt>
      <trkpt lat="66.35393" lon="22.76863">
        <ele>43.845626</ele>
        <time>2020-08-27T21:27:26.850Z</time>
      </trkpt>
      <trkpt lat="66.35341" lon="22.76966">
        <ele>43.242069</ele>
        <time>2020-08-27T21:27:38.720Z</time>
      </trkpt>
      <trkpt lat="66.35339" lon="22.7697">
        <ele>43.276633</ele>
        <time>2020-08-27T21:27:39.321Z</time>
      </trkpt>
      <trkpt lat="66.35315" lon="22.77013">
        <ele>43.677387</ele>
        <time>2020-08-27T21:27:45.176Z</time>
      </trkpt>
      <trkpt lat="66.35276" lon="22.77085">
        <ele>44.337928</ele>
        <time>2020-08-27T21:27:55.911Z</time>
      </trkpt>
      <trkpt lat="66.35196" lon="22.77229">
        <ele>45.677233</ele>
        <time>2020-08-27T21:28:19.477Z</time>
      </trkpt>
      <trkpt lat="66.35132" lon="22.77346">
        <ele>46.520398</ele>
        <time>2020-08-27T21:28:37.285Z</time>
      </trkpt>
      <trkpt lat="66.35112" lon="22.77383">
        <ele>46.79117</ele>
        <time>2020-08-27T21:28:42.888Z</time>
      </trkpt>
      <trkpt lat="66.35108" lon="22.7739">
        <ele>46.843842</ele>
        <time>2020-08-27T21:28:43.689Z</time>
      </trkpt>
      <trkpt lat="66.35034" lon="22.77526">
        <ele>47.661483</ele>
        <time>2020-08-27T21:29:01.960Z</time>
      </trkpt>
      <trkpt lat="66.34959" lon="22.77642">
        <ele>47.961758</ele>
        <time>2020-08-27T21:29:17.964Z</time>
      </trkpt>
      <trkpt lat="66.34936" lon="22.77671">
        <ele>48.049735</ele>
        <time>2020-08-27T21:29:22.849Z</time>
      </trkpt>
      <trkpt lat="66.34889" lon="22.77723">
        <ele>48.228527</ele>
        <time>2020-08-27T21:29:32.790Z</time>
      </trkpt>
      <trkpt lat="66.34748" lon="22.77875">
        <ele>48.822706</ele>
        <time>2020-08-27T21:30:02.602Z</time>
      </trkpt>
      <trkpt lat="66.34729" lon="22.77897">
        <ele>48.905126</ele>
        <time>2020-08-27T21:30:06.424Z</time>
      </trkpt>
      <trkpt lat="66.34709" lon="22.7792">
        <ele>48.995478</ele>
        <time>2020-08-27T21:30:10.318Z</time>
      </trkpt>
      <trkpt lat="66.34687" lon="22.7795">
        <ele>49.09397</ele>
        <time>2020-08-27T21:30:14.645Z</time>
      </trkpt>
      <trkpt lat="66.34666" lon="22.7798">
        <ele>49.192891</ele>
        <time>2020-08-27T21:30:19.003Z</time>
      </trkpt>
      <trkpt lat="66.34606" lon="22.78064">
        <ele>49.466159</ele>
        <time>2020-08-27T21:30:31.015Z</time>
      </trkpt>
      <trkpt lat="66.34582" lon="22.78099">
        <ele>49.578898</ele>
        <time>2020-08-27T21:30:36.356Z</time>
      </trkpt>
      <trkpt lat="66.34476" lon="22.78257">
        <ele>52.739789</ele>
        <time>2020-08-27T21:31:07.702Z</time>
      </trkpt>
      <trkpt lat="66.34308" lon="22.78508">
        <ele>57.95645</ele>
        <time>2020-08-27T21:32:07.780Z</time>
      </trkpt>
      <trkpt lat="66.34235" lon="22.78614">
        <ele>58.147902</ele>
        <time>2020-08-27T21:32:23.304Z</time>
      </trkpt>
      <trkpt lat="66.34166" lon="22.78739">
        <ele>55.336182</ele>
        <time>2020-08-27T21:32:34.218Z</time>
      </trkpt>
      <trkpt lat="66.34062" lon="22.7893">
        <ele>49.906411</ele>
        <time>2020-08-27T21:32:49.630Z</time>
      </trkpt>
      <trkpt lat="66.34042" lon="22.78967">
        <ele>48.693089</ele>
        <time>2020-08-27T21:32:52.528Z</time>
      </trkpt>
      <trkpt lat="66.33993" lon="22.79062">
        <ele>45.587672</ele>
        <time>2020-08-27T21:33:00.125Z</time>
      </trkpt>
      <trkpt lat="66.34025" lon="22.79155">
        <ele>43.865967</ele>
        <time>2020-08-27T21:33:06.651Z</time>
      </trkpt>
      <trkpt lat="66.3394" lon="22.79312">
        <ele>41.655648</ele>
        <time>2020-08-27T21:33:22.026Z</time>
      </trkpt>
      <trkpt lat="66.33849" lon="22.79473">
        <ele>41.571033</ele>
        <time>2020-08-27T21:33:41.541Z</time>
      </trkpt>
      <trkpt lat="66.33818" lon="22.79508">
        <ele>42.08285</ele>
        <time>2020-08-27T21:33:48.906Z</time>
      </trkpt>
      <trkpt lat="66.33776" lon="22.79536">
        <ele>42.728636</ele>
        <time>2020-08-27T21:34:00.383Z</time>
      </trkpt>
      <trkpt lat="66.33768" lon="22.7954">
        <ele>42.847728</ele>
        <time>2020-08-27T21:34:02.773Z</time>
      </trkpt>
      <trkpt lat="66.33741" lon="22.79555">
        <ele>43.264485</ele>
        <time>2020-08-27T21:34:11.110Z</time>
      </trkpt>
      <trkpt lat="66.33706" lon="22.79559">
        <ele>44.741258</ele>
        <time>2020-08-27T21:34:22.131Z</time>
      </trkpt>
      <trkpt lat="66.3369" lon="22.79585">
        <ele>45.63691</ele>
        <time>2020-08-27T21:34:28.490Z</time>
      </trkpt>
      <trkpt lat="66.33648" lon="22.79453">
        <ele>48.727671</ele>
        <time>2020-08-27T21:34:51.923Z</time>
      </trkpt>
      <trkpt lat="66.33621" lon="22.79424">
        <ele>50.078373</ele>
        <time>2020-08-27T21:35:02.271Z</time>
      </trkpt>
      <trkpt lat="66.33587" lon="22.79428">
        <ele>51.582671</ele>
        <time>2020-08-27T21:35:14.071Z</time>
      </trkpt>
      <trkpt lat="66.33559" lon="22.79444">
        <ele>52.042494</ele>
        <time>2020-08-27T21:35:23.963Z</time>
      </trkpt>
      <trkpt lat="66.33534" lon="22.79439">
        <ele>52.441698</ele>
        <time>2020-08-27T21:35:31.865Z</time>
      </trkpt>
      <trkpt lat="66.33446" lon="22.79382">
        <ele>53.872432</ele>
        <time>2020-08-27T21:35:52.092Z</time>
      </trkpt>
      <trkpt lat="66.33409" lon="22.7937">
        <ele>54.362333</ele>
        <time>2020-08-27T21:35:57.816Z</time>
      </trkpt>
      <trkpt lat="66.33379" lon="22.79382">
        <ele>53.978775</ele>
        <time>2020-08-27T21:36:02.349Z</time>
      </trkpt>
      <trkpt lat="66.33344" lon="22.79412">
        <ele>53.528352</ele>
        <time>2020-08-27T21:36:07.510Z</time>
      </trkpt>
      <trkpt lat="66.33273" lon="22.7951">
        <ele>52.521163</ele>
        <time>2020-08-27T21:36:19.287Z</time>
      </trkpt>
      <trkpt lat="66.33232" lon="22.79555">
        <ele>53.102038</ele>
        <time>2020-08-27T21:36:28.902Z</time>
      </trkpt>
      <trkpt lat="66.3317" lon="22.79602">
        <ele>56.534515</ele>
        <time>2020-08-27T21:36:48.214Z</time>
      </trkpt>
      <trkpt lat="66.33153" lon="22.79609">
        <ele>57.438251</ele>
        <time>2020-08-27T21:36:54.355Z</time>
      </trkpt>
      <trkpt lat="66.3311" lon="22.79608">
        <ele>59.679567</ele>
        <time>2020-08-27T21:37:12.451Z</time>
      </trkpt>
      <trkpt lat="66.33084" lon="22.79601">
        <ele>61.048068</ele>
        <time>2020-08-27T21:37:24.278Z</time>
      </trkpt>
      <trkpt lat="66.33012" lon="22.7955">
        <ele>66.855006</ele>
        <time>2020-08-27T21:38:02.291Z</time>
      </trkpt>
      <trkpt lat="66.32965" lon="22.79568">
        <ele>70.698185</ele>
        <time>2020-08-27T21:38:26.232Z</time>
      </trkpt>
      <trkpt lat="66.32948" lon="22.7959">
        <ele>72.252132</ele>
        <time>2020-08-27T21:38:34.436Z</time>
      </trkpt>
      <trkpt lat="66.32886" lon="22.79731">
        <ele>76.996876</ele>
        <time>2020-08-27T21:39:06.243Z</time>
      </trkpt>
      <trkpt lat="66.32823" lon="22.80068">
        <ele>79.70614</ele>
        <time>2020-08-27T21:39:40.580Z</time>
      </trkpt>
      <trkpt lat="66.32781" lon="22.80319">
        <ele>75.659266</ele>
        <time>2020-08-27T21:39:55.316Z</time>
      </trkpt>
      <trkpt lat="66.32762" lon="22.80425">
        <ele>73.929568</ele>
        <time>2020-08-27T21:40:01.143Z</time>
      </trkpt>
      <trkpt lat="66.32749" lon="22.80484">
        <ele>72.825881</ele>
        <time>2020-08-27T21:40:04.577Z</time>
      </trkpt>
      <trkpt lat="66.32734" lon="22.80534">
        <ele>71.559964</ele>
        <time>2020-08-27T21:40:07.650Z</time>
      </trkpt>
      <trkpt lat="66.32716" lon="22.80585">
        <ele>70.191259</ele>
        <time>2020-08-27T21:40:10.964Z</time>
      </trkpt>
      <trkpt lat="66.32576" lon="22.80817">
        <ele>62.549588</ele>
        <time>2020-08-27T21:40:32.515Z</time>
      </trkpt>
      <trkpt lat="66.3239" lon="22.80945">
        <ele>55.971154</ele>
        <time>2020-08-27T21:41:00.011Z</time>
      </trkpt>
      <trkpt lat="66.32364" lon="22.80973">
        <ele>54.874068</ele>
        <time>2020-08-27T21:41:03.926Z</time>
      </trkpt>
      <trkpt lat="66.32353" lon="22.80984">
        <ele>54.418697</ele>
        <time>2020-08-27T21:41:05.379Z</time>
      </trkpt>
      <trkpt lat="66.32282" lon="22.81116">
        <ele>50.859762</ele>
        <time>2020-08-27T21:41:16.831Z</time>
      </trkpt>
      <trkpt lat="66.32238" lon="22.81206">
        <ele>48.104332</ele>
        <time>2020-08-27T21:41:23.827Z</time>
      </trkpt>
      <trkpt lat="66.32214" lon="22.81255">
        <ele>46.572048</ele>
        <time>2020-08-27T21:41:27.787Z</time>
      </trkpt>
      <trkpt lat="66.322" lon="22.81295">
        <ele>45.534668</ele>
        <time>2020-08-27T21:41:30.580Z</time>
      </trkpt>
      <trkpt lat="66.32194" lon="22.81335">
        <ele>44.711287</ele>
        <time>2020-08-27T21:41:32.695Z</time>
      </trkpt>
      <trkpt lat="66.32193" lon="22.81466">
        <ele>42.352532</ele>
        <time>2020-08-27T21:41:39.582Z</time>
      </trkpt>
      <trkpt lat="66.32194" lon="22.81499">
        <ele>42.038746</ele>
        <time>2020-08-27T21:41:41.302Z</time>
      </trkpt>
      <trkpt lat="66.32115" lon="22.81479">
        <ele>40.212337</ele>
        <time>2020-08-27T21:41:52.099Z</time>
      </trkpt>
      <trkpt lat="66.32039" lon="22.81454">
        <ele>38.428695</ele>
        <time>2020-08-27T21:42:03.542Z</time>
      </trkpt>
      <trkpt lat="66.31967" lon="22.81424">
        <ele>38.050689</ele>
        <time>2020-08-27T21:42:15.624Z</time>
      </trkpt>
      <trkpt lat="66.31868" lon="22.81377">
        <ele>37.579593</ele>
        <time>2020-08-27T21:42:32.567Z</time>
      </trkpt>
      <trkpt lat="66.31271" lon="22.81116">
        <ele>37.299937</ele>
        <time>2020-08-27T21:44:19.911Z</time>
      </trkpt>
      <trkpt lat="66.31254" lon="22.81109">
        <ele>37.316178</ele>
        <time>2020-08-27T21:44:23.111Z</time>
      </trkpt>
      <trkpt lat="66.31111" lon="22.81051">
        <ele>37.353687</ele>
        <time>2020-08-27T21:44:49.644Z</time>
      </trkpt>
      <trkpt lat="66.30925" lon="22.81">
        <ele>37.068621</ele>
        <time>2020-08-27T21:45:21.714Z</time>
      </trkpt>
      <trkpt lat="66.30768" lon="22.80999">
        <ele>36.989487</ele>
        <time>2020-08-27T21:45:49.100Z</time>
      </trkpt>
      <trkpt lat="66.30681" lon="22.81014">
        <ele>37.34084</ele>
        <time>2020-08-27T21:46:05.490Z</time>
      </trkpt>
      <trkpt lat="66.30496" lon="22.81074">
        <ele>38.663334</ele>
        <time>2020-08-27T21:46:43.271Z</time>
      </trkpt>
      <trkpt lat="66.30249" lon="22.81225">
        <ele>41.235895</ele>
        <time>2020-08-27T21:47:37.887Z</time>
      </trkpt>
      <trkpt lat="66.30111" lon="22.81307">
        <ele>41.876293</ele>
        <time>2020-08-27T21:48:06.553Z</time>
      </trkpt>
      <trkpt lat="66.29845" lon="22.81474">
        <ele>39.759131</ele>
        <time>2020-08-27T21:48:49.376Z</time>
      </trkpt>
      <trkpt lat="66.2973" lon="22.81544">
        <ele>38.457685</ele>
        <time>2020-08-27T21:49:07.126Z</time>
      </trkpt>
      <trkpt lat="66.2963" lon="22.81609">
        <ele>37.383574</ele>
        <time>2020-08-27T21:49:23.090Z</time>
      </trkpt>
      <trkpt lat="66.29569" lon="22.81646">
        <ele>36.730451</ele>
        <time>2020-08-27T21:49:32.942Z</time>
      </trkpt>
      <trkpt lat="66.29502" lon="22.81681">
        <ele>36.334502</ele>
        <time>2020-08-27T21:49:43.651Z</time>
      </trkpt>
      <trkpt lat="66.2943" lon="22.81711">
        <ele>35.932352</ele>
        <time>2020-08-27T21:49:55.712Z</time>
      </trkpt>
      <trkpt lat="66.29349" lon="22.81729">
        <ele>35.837852</ele>
        <time>2020-08-27T21:50:09.709Z</time>
      </trkpt>
      <trkpt lat="66.29296" lon="22.81731">
        <ele>36.040223</ele>
        <time>2020-08-27T21:50:19.597Z</time>
      </trkpt>
      <trkpt lat="66.2906" lon="22.81709">
        <ele>37.488836</ele>
        <time>2020-08-27T21:51:07.479Z</time>
      </trkpt>
      <trkpt lat="66.28996" lon="22.81706">
        <ele>37.890745</ele>
        <time>2020-08-27T21:51:20.338Z</time>
      </trkpt>
      <trkpt lat="66.28958" lon="22.81704">
        <ele>38.084716</ele>
        <time>2020-08-27T21:51:27.958Z</time>
      </trkpt>
      <trkpt lat="66.28891" lon="22.81701">
        <ele>38.424907</ele>
        <time>2020-08-27T21:51:41.088Z</time>
      </trkpt>
      <trkpt lat="66.28818" lon="22.81713">
        <ele>38.597672</ele>
        <time>2020-08-27T21:51:54.719Z</time>
      </trkpt>
      <trkpt lat="66.28701" lon="22.81759">
        <ele>38.397992</ele>
        <time>2020-08-27T21:52:15.143Z</time>
      </trkpt>
      <trkpt lat="66.28694" lon="22.81763">
        <ele>38.385134</ele>
        <time>2020-08-27T21:52:16.360Z</time>
      </trkpt>
      <trkpt lat="66.28594" lon="22.81812">
        <ele>37.947662</ele>
        <time>2020-08-27T21:52:33.115Z</time>
      </trkpt>
      <trkpt lat="66.28519" lon="22.81847">
        <ele>37.55437</ele>
        <time>2020-08-27T21:52:45.571Z</time>
      </trkpt>
      <trkpt lat="66.28451" lon="22.81872">
        <ele>37.292065</ele>
        <time>2020-08-27T21:52:56.910Z</time>
      </trkpt>
      <trkpt lat="66.28448" lon="22.81873">
        <ele>37.282246</ele>
        <time>2020-08-27T21:52:57.456Z</time>
      </trkpt>
      <trkpt lat="66.28382" lon="22.81885">
        <ele>37.079183</ele>
        <time>2020-08-27T21:53:08.688Z</time>
      </trkpt>
      <trkpt lat="66.28372" lon="22.81885">
        <ele>37.04797</ele>
        <time>2020-08-27T21:53:10.424Z</time>
      </trkpt>
      <trkpt lat="66.283" lon="22.81887">
        <ele>36.862608</ele>
        <time>2020-08-27T21:53:22.719Z</time>
      </trkpt>
      <trkpt lat="66.28117" lon="22.81864">
        <ele>36.81867</ele>
        <time>2020-08-27T21:53:55.161Z</time>
      </trkpt>
      <trkpt lat="66.28111" lon="22.81863">
        <ele>36.836342</ele>
        <time>2020-08-27T21:53:56.140Z</time>
      </trkpt>
      <trkpt lat="66.27956" lon="22.81836">
        <ele>37.318318</ele>
        <time>2020-08-27T21:54:25.873Z</time>
      </trkpt>
      <trkpt lat="66.27847" lon="22.81825">
        <ele>37.676377</ele>
        <time>2020-08-27T21:54:46.920Z</time>
      </trkpt>
      <trkpt lat="66.27602" lon="22.81809">
        <ele>38.076517</ele>
        <time>2020-08-27T21:55:31.774Z</time>
      </trkpt>
      <trkpt lat="66.27597" lon="22.81809">
        <ele>38.081259</ele>
        <time>2020-08-27T21:55:32.690Z</time>
      </trkpt>
      <trkpt lat="66.27525" lon="22.81808">
        <ele>37.962833</ele>
        <time>2020-08-27T21:55:45.124Z</time>
      </trkpt>
      <trkpt lat="66.27393" lon="22.81827">
        <ele>37.756147</ele>
        <time>2020-08-27T21:56:07.903Z</time>
      </trkpt>
      <trkpt lat="66.27172" lon="22.81905">
        <ele>37.660758</ele>
        <time>2020-08-27T21:56:47.186Z</time>
      </trkpt>
      <trkpt lat="66.27053" lon="22.81915">
        <ele>37.740106</ele>
        <time>2020-08-27T21:57:08.723Z</time>
      </trkpt>
      <trkpt lat="66.26986" lon="22.81909">
        <ele>38.096653</ele>
        <time>2020-08-27T21:57:21.091Z</time>
      </trkpt>
      <trkpt lat="66.26886" lon="22.81882">
        <ele>38.630647</ele>
        <time>2020-08-27T21:57:40.585Z</time>
      </trkpt>
      <trkpt lat="66.26324" lon="22.81699">
        <ele>49.334017</ele>
        <time>2020-08-27T21:59:53.646Z</time>
      </trkpt>
      <trkpt lat="66.26288" lon="22.81684">
        <ele>51.042776</ele>
        <time>2020-08-27T22:00:06.333Z</time>
      </trkpt>
      <trkpt lat="66.26199" lon="22.81646">
        <ele>55.20436</ele>
        <time>2020-08-27T22:00:38.717Z</time>
      </trkpt>
      <trkpt lat="66.26096" lon="22.81596">
        <ele>58.879703</ele>
        <time>2020-08-27T22:01:13.393Z</time>
      </trkpt>
      <trkpt lat="66.25997" lon="22.8155">
        <ele>61.888874</ele>
        <time>2020-08-27T22:01:38.373Z</time>
      </trkpt>
      <trkpt lat="66.25906" lon="22.81508">
        <ele>62.167461</ele>
        <time>2020-08-27T22:01:55.959Z</time>
      </trkpt>
      <trkpt lat="66.25824" lon="22.81473">
        <ele>62.237691</ele>
        <time>2020-08-27T22:02:09.686Z</time>
      </trkpt>
      <trkpt lat="66.25745" lon="22.81436">
        <ele>62.752144</ele>
        <time>2020-08-27T22:02:22.751Z</time>
      </trkpt>
      <trkpt lat="66.25639" lon="22.81388">
        <ele>63.540467</ele>
        <time>2020-08-27T22:02:46.163Z</time>
      </trkpt>
      <trkpt lat="66.25574" lon="22.81358">
        <ele>66.054139</ele>
        <time>2020-08-27T22:03:03.943Z</time>
      </trkpt>
      <trkpt lat="66.25088" lon="22.81139">
        <ele>85.450665</ele>
        <time>2020-08-27T22:05:39.850Z</time>
      </trkpt>
      <trkpt lat="66.25017" lon="22.81096">
        <ele>86.724038</ele>
        <time>2020-08-27T22:05:58.159Z</time>
      </trkpt>
      <trkpt lat="66.24934" lon="22.81029">
        <ele>88.252511</ele>
        <time>2020-08-27T22:06:16.228Z</time>
      </trkpt>
      <trkpt lat="66.24855" lon="22.80948">
        <ele>87.391717</ele>
        <time>2020-08-27T22:06:30.238Z</time>
      </trkpt>
      <trkpt lat="66.24775" lon="22.80846">
        <ele>86.424753</ele>
        <time>2020-08-27T22:06:43.211Z</time>
      </trkpt>
      <trkpt lat="66.24533" lon="22.80475">
        <ele>80.216947</ele>
        <time>2020-08-27T22:07:21.887Z</time>
      </trkpt>
      <trkpt lat="66.24455" lon="22.80373">
        <ele>78.832481</ele>
        <time>2020-08-27T22:07:35.411Z</time>
      </trkpt>
      <trkpt lat="66.24333" lon="22.80249">
        <ele>79.593988</ele>
        <time>2020-08-27T22:08:01.210Z</time>
      </trkpt>
      <trkpt lat="66.2427" lon="22.80203">
        <ele>80.128891</ele>
        <time>2020-08-27T22:08:16.415Z</time>
      </trkpt>
      <trkpt lat="66.2412" lon="22.80132">
        <ele>81.970743</ele>
        <time>2020-08-27T22:08:50.294Z</time>
      </trkpt>
      <trkpt lat="66.23858" lon="22.80037">
        <ele>82.024268</ele>
        <time>2020-08-27T22:09:37.636Z</time>
      </trkpt>
      <trkpt lat="66.23692" lon="22.79989">
        <ele>80.473463</ele>
        <time>2020-08-27T22:10:04.807Z</time>
      </trkpt>
      <trkpt lat="66.23567" lon="22.79968">
        <ele>77.879428</ele>
        <time>2020-08-27T22:10:22.261Z</time>
      </trkpt>
      <trkpt lat="66.22766" lon="22.79879">
        <ele>43.38436</ele>
        <time>2020-08-27T22:12:00.792Z</time>
      </trkpt>
      <trkpt lat="66.22613" lon="22.79879">
        <ele>41.15565</ele>
        <time>2020-08-27T22:12:25.571Z</time>
      </trkpt>
      <trkpt lat="66.22547" lon="22.7989">
        <ele>41.234997</ele>
        <time>2020-08-27T22:12:39.110Z</time>
      </trkpt>
      <trkpt lat="66.2248" lon="22.79915">
        <ele>41.3148</ele>
        <time>2020-08-27T22:12:52.329Z</time>
      </trkpt>
      <trkpt lat="66.22347" lon="22.79986">
        <ele>41.475505</ele>
        <time>2020-08-27T22:13:17.013Z</time>
      </trkpt>
      <trkpt lat="66.22207" lon="22.80105">
        <ele>41.157561</ele>
        <time>2020-08-27T22:13:42.134Z</time>
      </trkpt>
      <trkpt lat="66.2148" lon="22.80854">
        <ele>38.379744</ele>
        <time>2020-08-27T22:15:55.141Z</time>
      </trkpt>
      <trkpt lat="66.21438" lon="22.80889">
        <ele>38.067186</ele>
        <time>2020-08-27T22:16:02.104Z</time>
      </trkpt>
      <trkpt lat="66.21422" lon="22.809">
        <ele>37.950317</ele>
        <time>2020-08-27T22:16:04.696Z</time>
      </trkpt>
      <trkpt lat="66.21318" lon="22.80952">
        <ele>37.210766</ele>
        <time>2020-08-27T22:16:21.343Z</time>
      </trkpt>
      <trkpt lat="66.21004" lon="22.81028">
        <ele>36.040732</ele>
        <time>2020-08-27T22:17:14.377Z</time>
      </trkpt>
      <trkpt lat="66.20853" lon="22.81061">
        <ele>35.946299</ele>
        <time>2020-08-27T22:17:41.410Z</time>
      </trkpt>
      <trkpt lat="66.20749" lon="22.81058">
        <ele>35.967453</ele>
        <time>2020-08-27T22:18:00.097Z</time>
      </trkpt>
      <trkpt lat="66.20695" lon="22.81047">
        <ele>35.979564</ele>
        <time>2020-08-27T22:18:09.797Z</time>
      </trkpt>
      <trkpt lat="66.20584" lon="22.81">
        <ele>36.000012</ele>
        <time>2020-08-27T22:18:29.966Z</time>
      </trkpt>
      <trkpt lat="66.20324" lon="22.80851">
        <ele>36.000012</ele>
        <time>2020-08-27T22:19:17.602Z</time>
      </trkpt>
      <trkpt lat="66.20232" lon="22.8082">
        <ele>36.000012</ele>
        <time>2020-08-27T22:19:34.046Z</time>
      </trkpt>
      <trkpt lat="66.19701" lon="22.8078">
        <ele>36.000012</ele>
        <time>2020-08-27T22:21:08.905Z</time>
      </trkpt>
      <trkpt lat="66.19045" lon="22.80766">
        <ele>36.000012</ele>
        <time>2020-08-27T22:23:05.888Z</time>
      </trkpt>
      <trkpt lat="66.18937" lon="22.80734">
        <ele>36.000012</ele>
        <time>2020-08-27T22:23:25.285Z</time>
      </trkpt>
      <trkpt lat="66.18685" lon="22.80571">
        <ele>36.055643</ele>
        <time>2020-08-27T22:24:12.013Z</time>
      </trkpt>
      <trkpt lat="66.18647" lon="22.80559">
        <ele>36.070616</ele>
        <time>2020-08-27T22:24:18.814Z</time>
      </trkpt>
      <trkpt lat="66.18595" lon="22.80553">
        <ele>36.133734</ele>
        <time>2020-08-27T22:24:28.358Z</time>
      </trkpt>
      <trkpt lat="66.18548" lon="22.80554">
        <ele>36.192965</ele>
        <time>2020-08-27T22:24:36.999Z</time>
      </trkpt>
      <trkpt lat="66.18455" lon="22.80589">
        <ele>36.298625</ele>
        <time>2020-08-27T22:24:54.079Z</time>
      </trkpt>
      <trkpt lat="66.184" lon="22.80626">
        <ele>36.304953</ele>
        <time>2020-08-27T22:25:04.572Z</time>
      </trkpt>
      <trkpt lat="66.1826" lon="22.80759">
        <ele>36.273094</ele>
        <time>2020-08-27T22:25:30.998Z</time>
      </trkpt>
      <trkpt lat="66.18204" lon="22.80801">
        <ele>36.204036</ele>
        <time>2020-08-27T22:25:41.223Z</time>
      </trkpt>
      <trkpt lat="66.18145" lon="22.8083">
        <ele>36.133437</ele>
        <time>2020-08-27T22:25:51.703Z</time>
      </trkpt>
      <trkpt lat="66.18088" lon="22.80844">
        <ele>36.106831</ele>
        <time>2020-08-27T22:26:01.676Z</time>
      </trkpt>
      <trkpt lat="66.18028" lon="22.80849">
        <ele>36.10885</ele>
        <time>2020-08-27T22:26:12.316Z</time>
      </trkpt>
      <trkpt lat="66.1787" lon="22.80862">
        <ele>36.369266</ele>
        <time>2020-08-27T22:26:41.115Z</time>
      </trkpt>
      <trkpt lat="66.17395" lon="22.81018">
        <ele>37.980241</ele>
        <time>2020-08-27T22:28:13.082Z</time>
      </trkpt>
      <trkpt lat="66.17303" lon="22.81019">
        <ele>37.633065</ele>
        <time>2020-08-27T22:28:28.620Z</time>
      </trkpt>
      <trkpt lat="66.17167" lon="22.80976">
        <ele>37.037292</ele>
        <time>2020-08-27T22:28:50.464Z</time>
      </trkpt>
      <trkpt lat="66.17118" lon="22.80952">
        <ele>36.785381</ele>
        <time>2020-08-27T22:28:58.526Z</time>
      </trkpt>
      <trkpt lat="66.17049" lon="22.809">
        <ele>36.442053</ele>
        <time>2020-08-27T22:29:10.622Z</time>
      </trkpt>
      <trkpt lat="66.16935" lon="22.80782">
        <ele>36.661084</ele>
        <time>2020-08-27T22:29:33.333Z</time>
      </trkpt>
      <trkpt lat="66.16919" lon="22.80759">
        <ele>36.694474</ele>
        <time>2020-08-27T22:29:36.946Z</time>
      </trkpt>
      <trkpt lat="66.16894" lon="22.80723">
        <ele>36.74628</ele>
        <time>2020-08-27T22:29:42.545Z</time>
      </trkpt>
      <trkpt lat="66.16826" lon="22.80623">
        <ele>36.974184</ele>
        <time>2020-08-27T22:29:57.666Z</time>
      </trkpt>
      <trkpt lat="66.16706" lon="22.80411">
        <ele>37.251374</ele>
        <time>2020-08-27T22:30:25.028Z</time>
      </trkpt>
      <trkpt lat="66.16652" lon="22.80332">
        <ele>37.187184</ele>
        <time>2020-08-27T22:30:36.085Z</time>
      </trkpt>
      <trkpt lat="66.16597" lon="22.80267">
        <ele>37.12521</ele>
        <time>2020-08-27T22:30:46.493Z</time>
      </trkpt>
      <trkpt lat="66.16472" lon="22.80154">
        <ele>36.765931</ele>
        <time>2020-08-27T22:31:08.733Z</time>
      </trkpt>
      <trkpt lat="66.16409" lon="22.80116">
        <ele>36.582613</ele>
        <time>2020-08-27T22:31:19.873Z</time>
      </trkpt>
      <trkpt lat="66.16152" lon="22.8003">
        <ele>36.617347</ele>
        <time>2020-08-27T22:32:06.623Z</time>
      </trkpt>
      <trkpt lat="66.16077" lon="22.79991">
        <ele>36.663086</ele>
        <time>2020-08-27T22:32:20.650Z</time>
      </trkpt>
      <trkpt lat="66.16014" lon="22.79942">
        <ele>36.577552</ele>
        <time>2020-08-27T22:32:32.402Z</time>
      </trkpt>
      <trkpt lat="66.15943" lon="22.79878">
        <ele>36.414767</ele>
        <time>2020-08-27T22:32:45.450Z</time>
      </trkpt>
      <trkpt lat="66.15657" lon="22.79564">
        <ele>35.070735</ele>
        <time>2020-08-27T22:33:36.769Z</time>
      </trkpt>
      <trkpt lat="66.15175" lon="22.78991">
        <ele>32.864587</ele>
        <time>2020-08-27T22:35:06.410Z</time>
      </trkpt>
      <trkpt lat="66.15118" lon="22.78909">
        <ele>32.573014</ele>
        <time>2020-08-27T22:35:17.271Z</time>
      </trkpt>
      <trkpt lat="66.15054" lon="22.78801">
        <ele>32.226327</ele>
        <time>2020-08-27T22:35:30.103Z</time>
      </trkpt>
      <trkpt lat="66.14849" lon="22.78417">
        <ele>31.180294</ele>
        <time>2020-08-27T22:36:12.977Z</time>
      </trkpt>
      <trkpt lat="66.14741" lon="22.78262">
        <ele>30.767465</ele>
        <time>2020-08-27T22:36:34.348Z</time>
      </trkpt>
      <trkpt lat="66.14623" lon="22.78142">
        <ele>30.385909</ele>
        <time>2020-08-27T22:36:56.036Z</time>
      </trkpt>
      <trkpt lat="66.14313" lon="22.77936">
        <ele>29.243921</ele>
        <time>2020-08-27T22:37:49.801Z</time>
      </trkpt>
      <trkpt lat="66.14247" lon="22.77864">
        <ele>29.067058</ele>
        <time>2020-08-27T22:38:02.177Z</time>
      </trkpt>
      <trkpt lat="66.14181" lon="22.77776">
        <ele>28.959659</ele>
        <time>2020-08-27T22:38:15.269Z</time>
      </trkpt>
      <trkpt lat="66.14114" lon="22.77668">
        <ele>28.831123</ele>
        <time>2020-08-27T22:38:29.598Z</time>
      </trkpt>
      <trkpt lat="66.13981" lon="22.7741">
        <ele>28.37817</ele>
        <time>2020-08-27T22:38:58.441Z</time>
      </trkpt>
      <trkpt lat="66.13973" lon="22.77393">
        <ele>28.317201</ele>
        <time>2020-08-27T22:39:00.197Z</time>
      </trkpt>
      <trkpt lat="66.13899" lon="22.7724">
        <ele>27.744547</ele>
        <time>2020-08-27T22:39:15.664Z</time>
      </trkpt>
      <trkpt lat="66.13846" lon="22.77115">
        <ele>27.310431</ele>
        <time>2020-08-27T22:39:27.421Z</time>
      </trkpt>
      <trkpt lat="66.1378" lon="22.76923">
        <ele>27.366058</ele>
        <time>2020-08-27T22:39:45.054Z</time>
      </trkpt>
      <trkpt lat="66.13743" lon="22.7679">
        <ele>27.401609</ele>
        <time>2020-08-27T22:39:57.491Z</time>
      </trkpt>
      <trkpt lat="66.1371" lon="22.76651">
        <ele>27.783977</ele>
        <time>2020-08-27T22:40:10.387Z</time>
      </trkpt>
      <trkpt lat="66.1366" lon="22.76414">
        <ele>28.549027</ele>
        <time>2020-08-27T22:40:32.401Z</time>
      </trkpt>
      <trkpt lat="66.13611" lon="22.76158">
        <ele>29.516962</ele>
        <time>2020-08-27T22:40:56.145Z</time>
      </trkpt>
      <trkpt lat="66.13573" lon="22.75954">
        <ele>30.276629</ele>
        <time>2020-08-27T22:41:15.099Z</time>
      </trkpt>
      <trkpt lat="66.1352" lon="22.75667">
        <ele>30.821283</ele>
        <time>2020-08-27T22:41:40.244Z</time>
      </trkpt>
      <trkpt lat="66.13472" lon="22.75422">
        <ele>30.737313</ele>
        <time>2020-08-27T22:41:59.657Z</time>
      </trkpt>
      <trkpt lat="66.13444" lon="22.7527">
        <ele>30.447632</ele>
        <time>2020-08-27T22:42:10.716Z</time>
      </trkpt>
      <trkpt lat="66.13312" lon="22.74531">
        <ele>28.634895</ele>
        <time>2020-08-27T22:43:02.869Z</time>
      </trkpt>
      <trkpt lat="66.1329" lon="22.74359">
        <ele>28.417814</ele>
        <time>2020-08-27T22:43:15.943Z</time>
      </trkpt>
      <trkpt lat="66.13283" lon="22.74308">
        <ele>28.583952</ele>
        <time>2020-08-27T22:43:20.140Z</time>
      </trkpt>
      <trkpt lat="66.13255" lon="22.74105">
        <ele>29.708001</ele>
        <time>2020-08-27T22:43:38.324Z</time>
      </trkpt>
      <trkpt lat="66.1315" lon="22.73308">
        <ele>35.633081</ele>
        <time>2020-08-27T22:45:01.240Z</time>
      </trkpt>
      <trkpt lat="66.13102" lon="22.73052">
        <ele>37.179006</ele>
        <time>2020-08-27T22:45:25.682Z</time>
      </trkpt>
      <trkpt lat="66.13078" lon="22.72941">
        <ele>37.411653</ele>
        <time>2020-08-27T22:45:35.434Z</time>
      </trkpt>
      <trkpt lat="66.13024" lon="22.72723">
        <ele>37.883272</ele>
        <time>2020-08-27T22:45:54.619Z</time>
      </trkpt>
      <trkpt lat="66.12849" lon="22.72007">
        <ele>39.387805</ele>
        <time>2020-08-27T22:47:01.391Z</time>
      </trkpt>
      <trkpt lat="66.12817" lon="22.71894">
        <ele>38.994279</ele>
        <time>2020-08-27T22:47:10.735Z</time>
      </trkpt>
      <trkpt lat="66.12795" lon="22.71822">
        <ele>38.230205</ele>
        <time>2020-08-27T22:47:16.358Z</time>
      </trkpt>
      <trkpt lat="66.12758" lon="22.71712">
        <ele>37.020166</ele>
        <time>2020-08-27T22:47:24.652Z</time>
      </trkpt>
      <trkpt lat="66.12644" lon="22.71437">
        <ele>32.581327</ele>
        <time>2020-08-27T22:47:44.910Z</time>
      </trkpt>
      <trkpt lat="66.12599" lon="22.7134">
        <ele>30.628475</ele>
        <time>2020-08-27T22:47:52.742Z</time>
      </trkpt>
      <trkpt lat="66.12518" lon="22.71159">
        <ele>29.473402</ele>
        <time>2020-08-27T22:48:08.399Z</time>
      </trkpt>
      <trkpt lat="66.12498" lon="22.71118">
        <ele>29.340357</ele>
        <time>2020-08-27T22:48:12.955Z</time>
      </trkpt>
      <trkpt lat="66.12395" lon="22.70887">
        <ele>30.049811</ele>
        <time>2020-08-27T22:48:43.170Z</time>
      </trkpt>
      <trkpt lat="66.12291" lon="22.70704">
        <ele>31.893964</ele>
        <time>2020-08-27T22:49:12.992Z</time>
      </trkpt>
      <trkpt lat="66.12253" lon="22.70645">
        <ele>32.485788</ele>
        <time>2020-08-27T22:49:23.302Z</time>
      </trkpt>
      <trkpt lat="66.12216" lon="22.70602">
        <ele>33.021976</ele>
        <time>2020-08-27T22:49:32.377Z</time>
      </trkpt>
      <trkpt lat="66.12167" lon="22.70543">
        <ele>33.737322</ele>
        <time>2020-08-27T22:49:44.005Z</time>
      </trkpt>
      <trkpt lat="66.12112" lon="22.7049">
        <ele>34.205021</ele>
        <time>2020-08-27T22:49:56.007Z</time>
      </trkpt>
      <trkpt lat="66.12005" lon="22.70413">
        <ele>34.801537</ele>
        <time>2020-08-27T22:50:17.264Z</time>
      </trkpt>
      <trkpt lat="66.11958" lon="22.70389">
        <ele>35.120042</ele>
        <time>2020-08-27T22:50:26.404Z</time>
      </trkpt>
      <trkpt lat="66.11908" lon="22.70379">
        <ele>35.556148</ele>
        <time>2020-08-27T22:50:36.331Z</time>
      </trkpt>
      <trkpt lat="66.11809" lon="22.70374">
        <ele>36.415886</ele>
        <time>2020-08-27T22:50:57.340Z</time>
      </trkpt>
      <trkpt lat="66.11669" lon="22.70398">
        <ele>38.12474</ele>
        <time>2020-08-27T22:51:28.599Z</time>
      </trkpt>
      <trkpt lat="66.11593" lon="22.70438">
        <ele>38.934395</ele>
        <time>2020-08-27T22:51:45.570Z</time>
      </trkpt>
      <trkpt lat="66.11205" lon="22.7073">
        <ele>41.220372</ele>
        <time>2020-08-27T22:53:04.024Z</time>
      </trkpt>
      <trkpt lat="66.11163" lon="22.70753">
        <ele>41.495287</ele>
        <time>2020-08-27T22:53:11.906Z</time>
      </trkpt>
      <trkpt lat="66.11101" lon="22.70777">
        <ele>41.898832</ele>
        <time>2020-08-27T22:53:24.137Z</time>
      </trkpt>
      <trkpt lat="66.10821" lon="22.70846">
        <ele>47.918928</ele>
        <time>2020-08-27T22:54:33.859Z</time>
      </trkpt>
      <trkpt lat="66.10762" lon="22.70874">
        <ele>49.420801</ele>
        <time>2020-08-27T22:54:50.378Z</time>
      </trkpt>
      <trkpt lat="66.10695" lon="22.70917">
        <ele>51.02826</ele>
        <time>2020-08-27T22:55:09.144Z</time>
      </trkpt>
      <trkpt lat="66.10465" lon="22.71142">
        <ele>55.133496</ele>
        <time>2020-08-27T22:56:08.575Z</time>
      </trkpt>
      <trkpt lat="66.10391" lon="22.71188">
        <ele>55.620304</ele>
        <time>2020-08-27T22:56:21.488Z</time>
      </trkpt>
      <trkpt lat="66.10325" lon="22.71216">
        <ele>54.745501</ele>
        <time>2020-08-27T22:56:31.395Z</time>
      </trkpt>
      <trkpt lat="66.10227" lon="22.71228">
        <ele>53.463247</ele>
        <time>2020-08-27T22:56:45.368Z</time>
      </trkpt>
      <trkpt lat="66.09702" lon="22.71187">
        <ele>51.7228</ele>
        <time>2020-08-27T22:58:14.253Z</time>
      </trkpt>
      <trkpt lat="66.09616" lon="22.71187">
        <ele>52.060419</ele>
        <time>2020-08-27T22:58:31.840Z</time>
      </trkpt>
      <trkpt lat="66.09575" lon="22.71193">
        <ele>52.26772</ele>
        <time>2020-08-27T22:58:40.024Z</time>
      </trkpt>
      <trkpt lat="66.09519" lon="22.71208">
        <ele>52.55904</ele>
        <time>2020-08-27T22:58:51.396Z</time>
      </trkpt>
      <trkpt lat="66.0933" lon="22.71293">
        <ele>52.196234</ele>
        <time>2020-08-27T22:59:24.405Z</time>
      </trkpt>
      <trkpt lat="66.0916" lon="22.71338">
        <ele>50.289283</ele>
        <time>2020-08-27T22:59:50.689Z</time>
      </trkpt>
      <trkpt lat="66.09059" lon="22.7135">
        <ele>48.378246</ele>
        <time>2020-08-27T23:00:05.037Z</time>
      </trkpt>
      <trkpt lat="66.08615" lon="22.71365">
        <ele>38.8283</ele>
        <time>2020-08-27T23:01:06.781Z</time>
      </trkpt>
      <trkpt lat="66.08365" lon="22.71397">
        <ele>34.556643</ele>
        <time>2020-08-27T23:01:42.895Z</time>
      </trkpt>
      <trkpt lat="66.0829" lon="22.7141">
        <ele>33.345045</ele>
        <time>2020-08-27T23:01:53.959Z</time>
      </trkpt>
      <trkpt lat="66.08183" lon="22.71413">
        <ele>32.190751</ele>
        <time>2020-08-27T23:02:09.936Z</time>
      </trkpt>
      <trkpt lat="66.08102" lon="22.71395">
        <ele>31.543736</ele>
        <time>2020-08-27T23:02:22.850Z</time>
      </trkpt>
      <trkpt lat="66.08032" lon="22.71365">
        <ele>31.595468</ele>
        <time>2020-08-27T23:02:35.414Z</time>
      </trkpt>
      <trkpt lat="66.07954" lon="22.71311">
        <ele>32.149736</ele>
        <time>2020-08-27T23:02:51.312Z</time>
      </trkpt>
      <trkpt lat="66.07837" lon="22.71197">
        <ele>33.760768</ele>
        <time>2020-08-27T23:03:20.156Z</time>
      </trkpt>
      <trkpt lat="66.07736" lon="22.71096">
        <ele>35.664345</ele>
        <time>2020-08-27T23:03:46.453Z</time>
      </trkpt>
      <trkpt lat="66.07734" lon="22.71093">
        <ele>35.708434</ele>
        <time>2020-08-27T23:03:47.528Z</time>
      </trkpt>
      <trkpt lat="66.07627" lon="22.71005">
        <ele>36.20353</ele>
        <time>2020-08-27T23:04:11.568Z</time>
      </trkpt>
      <trkpt lat="66.07364" lon="22.70855">
        <ele>34.342021</ele>
        <time>2020-08-27T23:04:53.432Z</time>
      </trkpt>
      <trkpt lat="66.07201" lon="22.70766">
        <ele>32.136006</ele>
        <time>2020-08-27T23:05:17.958Z</time>
      </trkpt>
      <trkpt lat="66.07179" lon="22.70754">
        <ele>32.021377</ele>
        <time>2020-08-27T23:05:21.392Z</time>
      </trkpt>
      <trkpt lat="66.07093" lon="22.70722">
        <ele>31.58051</ele>
        <time>2020-08-27T23:05:35.071Z</time>
      </trkpt>
      <trkpt lat="66.07003" lon="22.70696">
        <ele>31.663093</ele>
        <time>2020-08-27T23:05:52.431Z</time>
      </trkpt>
      <trkpt lat="66.06952" lon="22.70683">
        <ele>32.310889</ele>
        <time>2020-08-27T23:06:02.871Z</time>
      </trkpt>
      <trkpt lat="66.06953" lon="22.70664">
        <ele>32.407568</ele>
        <time>2020-08-27T23:06:04.858Z</time>
      </trkpt>
      <trkpt lat="66.06967" lon="22.70449">
        <ele>33.528288</ele>
        <time>2020-08-27T23:06:25.119Z</time>
      </trkpt>
      <trkpt lat="66.06967" lon="22.70258">
        <ele>35.129923</ele>
        <time>2020-08-27T23:06:44.453Z</time>
      </trkpt>
      <trkpt lat="66.06954" lon="22.70093">
        <ele>36.561077</ele>
        <time>2020-08-27T23:07:01.109Z</time>
      </trkpt>
      <trkpt lat="66.0693" lon="22.69778">
        <ele>39.200619</ele>
        <time>2020-08-27T23:07:33.799Z</time>
      </trkpt>
      <trkpt lat="66.06904" lon="22.69337">
        <ele>41.689962</ele>
        <time>2020-08-27T23:08:16.298Z</time>
      </trkpt>
      <trkpt lat="66.06888" lon="22.69106">
        <ele>42.290015</ele>
        <time>2020-08-27T23:08:33.129Z</time>
      </trkpt>
      <trkpt lat="66.06858" lon="22.68876">
        <ele>41.373593</ele>
        <time>2020-08-27T23:08:48.025Z</time>
      </trkpt>
      <trkpt lat="66.06827" lon="22.68687">
        <ele>40.704728</ele>
        <time>2020-08-27T23:09:00.604Z</time>
      </trkpt>
      <trkpt lat="66.06786" lon="22.68514">
        <ele>40.797864</ele>
        <time>2020-08-27T23:09:14.384Z</time>
      </trkpt>
      <trkpt lat="66.06742" lon="22.68358">
        <ele>40.885641</ele>
        <time>2020-08-27T23:09:29.411Z</time>
      </trkpt>
      <trkpt lat="66.0661" lon="22.68071">
        <ele>43.140194</ele>
        <time>2020-08-27T23:10:08.518Z</time>
      </trkpt>
      <trkpt lat="66.06567" lon="22.67946">
        <ele>44.353672</ele>
        <time>2020-08-27T23:10:24.425Z</time>
      </trkpt>
      <trkpt lat="66.06523" lon="22.67796">
        <ele>45.818205</ele>
        <time>2020-08-27T23:10:42.603Z</time>
      </trkpt>
      <trkpt lat="66.06476" lon="22.676">
        <ele>47.67052</ele>
        <time>2020-08-27T23:11:05.263Z</time>
      </trkpt>
      <trkpt lat="66.06446" lon="22.674">
        <ele>49.470535</ele>
        <time>2020-08-27T23:11:26.505Z</time>
      </trkpt>
      <trkpt lat="66.06416" lon="22.67095">
        <ele>52.087027</ele>
        <time>2020-08-27T23:11:57.714Z</time>
      </trkpt>
      <trkpt lat="66.06413" lon="22.66791">
        <ele>54.607497</ele>
        <time>2020-08-27T23:12:27.780Z</time>
      </trkpt>
      <trkpt lat="66.06421" lon="22.66665">
        <ele>55.706657</ele>
        <time>2020-08-27T23:12:40.327Z</time>
      </trkpt>
      <trkpt lat="66.06481" lon="22.66049">
        <ele>61.54573</ele>
        <time>2020-08-27T23:13:44.315Z</time>
      </trkpt>
      <trkpt lat="66.06491" lon="22.65852">
        <ele>63.927563</ele>
        <time>2020-08-27T23:14:06.179Z</time>
      </trkpt>
      <trkpt lat="66.06495" lon="22.65583">
        <ele>67.611951</ele>
        <time>2020-08-27T23:14:37.719Z</time>
      </trkpt>
      <trkpt lat="66.06488" lon="22.65389">
        <ele>70.718239</ele>
        <time>2020-08-27T23:15:01.770Z</time>
      </trkpt>
      <trkpt lat="66.06435" lon="22.64444">
        <ele>87.304695</ele>
        <time>2020-08-27T23:17:05.429Z</time>
      </trkpt>
      <trkpt lat="66.06398" lon="22.6382">
        <ele>97.427946</ele>
        <time>2020-08-27T23:18:23.410Z</time>
      </trkpt>
      <trkpt lat="66.06387" lon="22.63609">
        <ele>99.677622</ele>
        <time>2020-08-27T23:18:48.388Z</time>
      </trkpt>
      <trkpt lat="66.06334" lon="22.62666">
        <ele>106.749989</ele>
        <time>2020-08-27T23:20:20.572Z</time>
      </trkpt>
      <trkpt lat="66.06329" lon="22.62507">
        <ele>107.20438</ele>
        <time>2020-08-27T23:20:32.194Z</time>
      </trkpt>
      <trkpt lat="66.06338" lon="22.6197">
        <ele>104.53505</ele>
        <time>2020-08-27T23:21:04.843Z</time>
      </trkpt>
      <trkpt lat="66.06336" lon="22.61687">
        <ele>101.444886</ele>
        <time>2020-08-27T23:21:20.484Z</time>
      </trkpt>
      <trkpt lat="66.06312" lon="22.61363">
        <ele>96.542809</ele>
        <time>2020-08-27T23:21:37.549Z</time>
      </trkpt>
      <trkpt lat="66.06294" lon="22.61206">
        <ele>93.685893</ele>
        <time>2020-08-27T23:21:45.739Z</time>
      </trkpt>
      <trkpt lat="66.06247" lon="22.60935">
        <ele>87.755667</ele>
        <time>2020-08-27T23:22:00.090Z</time>
      </trkpt>
      <trkpt lat="66.06206" lon="22.60746">
        <ele>83.230597</ele>
        <time>2020-08-27T23:22:10.557Z</time>
      </trkpt>
      <trkpt lat="66.0617" lon="22.60618">
        <ele>80.407606</ele>
        <time>2020-08-27T23:22:18.218Z</time>
      </trkpt>
      <trkpt lat="66.06125" lon="22.60471">
        <ele>77.082563</ele>
        <time>2020-08-27T23:22:27.509Z</time>
      </trkpt>
      <trkpt lat="66.06025" lon="22.60229">
        <ele>71.776886</ele>
        <time>2020-08-27T23:22:45.385Z</time>
      </trkpt>
      <trkpt lat="66.05939" lon="22.60067">
        <ele>68.403972</ele>
        <time>2020-08-27T23:22:59.520Z</time>
      </trkpt>
      <trkpt lat="66.05857" lon="22.59909">
        <ele>66.612557</ele>
        <time>2020-08-27T23:23:14.047Z</time>
      </trkpt>
      <trkpt lat="66.05663" lon="22.59548">
        <ele>65.60175</ele>
        <time>2020-08-27T23:23:56.184Z</time>
      </trkpt>
      <trkpt lat="66.05578" lon="22.59366">
        <ele>66.57428</ele>
        <time>2020-08-27T23:24:19.717Z</time>
      </trkpt>
      <trkpt lat="66.05503" lon="22.59163">
        <ele>67.630094</ele>
        <time>2020-08-27T23:24:43.790Z</time>
      </trkpt>
      <trkpt lat="66.0545" lon="22.58982">
        <ele>68.565291</ele>
        <time>2020-08-27T23:25:02.927Z</time>
      </trkpt>
      <trkpt lat="66.05402" lon="22.58755">
        <ele>69.403948</ele>
        <time>2020-08-27T23:25:24.603Z</time>
      </trkpt>
      <trkpt lat="66.05378" lon="22.58617">
        <ele>69.819718</ele>
        <time>2020-08-27T23:25:36.874Z</time>
      </trkpt>
      <trkpt lat="66.05353" lon="22.58435">
        <ele>70.043742</ele>
        <time>2020-08-27T23:25:51.855Z</time>
      </trkpt>
      <trkpt lat="66.05325" lon="22.58188">
        <ele>69.571488</ele>
        <time>2020-08-27T23:26:09.663Z</time>
      </trkpt>
      <trkpt lat="66.05307" lon="22.57912">
        <ele>68.186657</ele>
        <time>2020-08-27T23:26:26.532Z</time>
      </trkpt>
      <trkpt lat="66.05305" lon="22.57802">
        <ele>67.390187</ele>
        <time>2020-08-27T23:26:32.813Z</time>
      </trkpt>
      <trkpt lat="66.05321" lon="22.57566">
        <ele>65.642285</ele>
        <time>2020-08-27T23:26:46.414Z</time>
      </trkpt>
      <trkpt lat="66.05367" lon="22.56841">
        <ele>60.493575</ele>
        <time>2020-08-27T23:27:29.572Z</time>
      </trkpt>
      <trkpt lat="66.05376" lon="22.56483">
        <ele>57.924832</ele>
        <time>2020-08-27T23:27:51.027Z</time>
      </trkpt>
      <trkpt lat="66.05374" lon="22.56292">
        <ele>56.443192</ele>
        <time>2020-08-27T23:28:01.885Z</time>
      </trkpt>
      <trkpt lat="66.0537" lon="22.56155">
        <ele>54.886813</ele>
        <time>2020-08-27T23:28:09.402Z</time>
      </trkpt>
      <trkpt lat="66.05359" lon="22.55939">
        <ele>52.407016</ele>
        <time>2020-08-27T23:28:21.147Z</time>
      </trkpt>
      <trkpt lat="66.05338" lon="22.55672">
        <ele>49.523085</ele>
        <time>2020-08-27T23:28:35.666Z</time>
      </trkpt>
      <trkpt lat="66.05284" lon="22.55011">
        <ele>44.03902</ele>
        <time>2020-08-27T23:29:14.048Z</time>
      </trkpt>
      <trkpt lat="66.0528" lon="22.54971">
        <ele>44.235772</ele>
        <time>2020-08-27T23:29:17.166Z</time>
      </trkpt>
      <trkpt lat="66.05262" lon="22.54743">
        <ele>46.011519</ele>
        <time>2020-08-27T23:29:38.435Z</time>
      </trkpt>
      <trkpt lat="66.05257" lon="22.54548">
        <ele>47.663584</ele>
        <time>2020-08-27T23:30:01.451Z</time>
      </trkpt>
      <trkpt lat="66.05259" lon="22.54409">
        <ele>50.001913</ele>
        <time>2020-08-27T23:30:18.878Z</time>
      </trkpt>
      <trkpt lat="66.05268" lon="22.54273">
        <ele>52.301792</ele>
        <time>2020-08-27T23:30:36.267Z</time>
      </trkpt>
      <trkpt lat="66.05302" lon="22.53855">
        <ele>59.806623</ele>
        <time>2020-08-27T23:31:31.710Z</time>
      </trkpt>
      <trkpt lat="66.05337" lon="22.53126">
        <ele>73.014543</ele>
        <time>2020-08-27T23:33:07.716Z</time>
      </trkpt>
      <trkpt lat="66.05351" lon="22.52809">
        <ele>78.608295</ele>
        <time>2020-08-27T23:33:48.149Z</time>
      </trkpt>
      <trkpt lat="66.05363" lon="22.52556">
        <ele>83.710738</ele>
        <time>2020-08-27T23:34:21.859Z</time>
      </trkpt>
      <trkpt lat="66.05368" lon="22.52283">
        <ele>89.250046</ele>
        <time>2020-08-27T23:35:01.242Z</time>
      </trkpt>
      <trkpt lat="66.0536" lon="22.5192">
        <ele>96.770774</ele>
        <time>2020-08-27T23:35:52.166Z</time>
      </trkpt>
      <trkpt lat="66.0534" lon="22.51525">
        <ele>102.904005</ele>
        <time>2020-08-27T23:36:40.888Z</time>
      </trkpt>
      <trkpt lat="66.05332" lon="22.51358">
        <ele>104.68465</ele>
        <time>2020-08-27T23:36:59.109Z</time>
      </trkpt>
      <trkpt lat="66.05312" lon="22.50977">
        <ele>107.904721</ele>
        <time>2020-08-27T23:37:36.685Z</time>
      </trkpt>
      <trkpt lat="66.05288" lon="22.50503">
        <ele>110.445159</ele>
        <time>2020-08-27T23:38:18.207Z</time>
      </trkpt>
      <trkpt lat="66.05278" lon="22.50324">
        <ele>111.47384</ele>
        <time>2020-08-27T23:38:34.154Z</time>
      </trkpt>
      <trkpt lat="66.05233" lon="22.49517">
        <ele>117.541062</ele>
        <time>2020-08-27T23:39:52.236Z</time>
      </trkpt>
      <trkpt lat="66.05219" lon="22.4919">
        <ele>120.720745</ele>
        <time>2020-08-27T23:40:27.109Z</time>
      </trkpt>
      <trkpt lat="66.05221" lon="22.48969">
        <ele>123.219677</ele>
        <time>2020-08-27T23:40:51.463Z</time>
      </trkpt>
      <trkpt lat="66.05229" lon="22.48776">
        <ele>125.356334</ele>
        <time>2020-08-27T23:41:12.821Z</time>
      </trkpt>
      <trkpt lat="66.05265" lon="22.48392">
        <ele>129.411099</ele>
        <time>2020-08-27T23:41:54.259Z</time>
      </trkpt>
      <trkpt lat="66.05277" lon="22.48166">
        <ele>131.449838</ele>
        <time>2020-08-27T23:42:17.275Z</time>
      </trkpt>
      <trkpt lat="66.05283" lon="22.47927">
        <ele>133.567018</ele>
        <time>2020-08-27T23:42:41.315Z</time>
      </trkpt>
      <trkpt lat="66.05287" lon="22.4776">
        <ele>134.958419</ele>
        <time>2020-08-27T23:42:57.885Z</time>
      </trkpt>
      <trkpt lat="66.05303" lon="22.47525">
        <ele>136.935459</ele>
        <time>2020-08-27T23:43:21.389Z</time>
      </trkpt>
      <trkpt lat="66.05436" lon="22.46238">
        <ele>146.794329</ele>
        <time>2020-08-27T23:45:28.775Z</time>
      </trkpt>
      <trkpt lat="66.05462" lon="22.46055">
        <ele>148.622087</ele>
        <time>2020-08-27T23:45:48.174Z</time>
      </trkpt>
      <trkpt lat="66.05534" lon="22.45617">
        <ele>153.43795</ele>
        <time>2020-08-27T23:46:38.108Z</time>
      </trkpt>
      <trkpt lat="66.05575" lon="22.45318">
        <ele>156.821404</ele>
        <time>2020-08-27T23:47:12.840Z</time>
      </trkpt>
      <trkpt lat="66.05588" lon="22.45142">
        <ele>158.633542</ele>
        <time>2020-08-27T23:47:32.155Z</time>
      </trkpt>
      <trkpt lat="66.05599" lon="22.44857">
        <ele>160.805469</ele>
        <time>2020-08-27T23:48:00.772Z</time>
      </trkpt>
      <trkpt lat="66.05599" lon="22.44709">
        <ele>161.445657</ele>
        <time>2020-08-27T23:48:14.102Z</time>
      </trkpt>
      <trkpt lat="66.05584" lon="22.44332">
        <ele>161.321997</ele>
        <time>2020-08-27T23:48:41.409Z</time>
      </trkpt>
      <trkpt lat="66.05567" lon="22.4416">
        <ele>160.58853</ele>
        <time>2020-08-27T23:48:52.037Z</time>
      </trkpt>
      <trkpt lat="66.05523" lon="22.43841">
        <ele>157.092181</ele>
        <time>2020-08-27T23:49:10.534Z</time>
      </trkpt>
      <trkpt lat="66.05477" lon="22.43586">
        <ele>153.570523</ele>
        <time>2020-08-27T23:49:25.103Z</time>
      </trkpt>
      <trkpt lat="66.05409" lon="22.43239">
        <ele>148.286949</ele>
        <time>2020-08-27T23:49:45.312Z</time>
      </trkpt>
      <trkpt lat="66.05363" lon="22.43054">
        <ele>145.885457</ele>
        <time>2020-08-27T23:49:57.032Z</time>
      </trkpt>
      <trkpt lat="66.05332" lon="22.42924">
        <ele>144.211469</ele>
        <time>2020-08-27T23:50:05.461Z</time>
      </trkpt>
      <trkpt lat="66.05303" lon="22.4279">
        <ele>143.323642</ele>
        <time>2020-08-27T23:50:14.260Z</time>
      </trkpt>
      <trkpt lat="66.05281" lon="22.42657">
        <ele>142.577466</ele>
        <time>2020-08-27T23:50:22.947Z</time>
      </trkpt>
      <trkpt lat="66.05268" lon="22.42563">
        <ele>142.064204</ele>
        <time>2020-08-27T23:50:29.081Z</time>
      </trkpt>
      <trkpt lat="66.05086" lon="22.411">
        <ele>141.910204</ele>
        <time>2020-08-27T23:52:18.961Z</time>
      </trkpt>
      <trkpt lat="66.04952" lon="22.40306">
        <ele>145.90901</ele>
        <time>2020-08-27T23:53:37.527Z</time>
      </trkpt>
      <trkpt lat="66.04936" lon="22.4013">
        <ele>146.278654</ele>
        <time>2020-08-27T23:53:51.301Z</time>
      </trkpt>
      <trkpt lat="66.04931" lon="22.39961">
        <ele>146.60164</ele>
        <time>2020-08-27T23:54:03.562Z</time>
      </trkpt>
      <trkpt lat="66.04937" lon="22.3977">
        <ele>146.690727</ele>
        <time>2020-08-27T23:54:17.416Z</time>
      </trkpt>
      <trkpt lat="66.04957" lon="22.39578">
        <ele>146.782645</ele>
        <time>2020-08-27T23:54:32.692Z</time>
      </trkpt>
      <trkpt lat="66.04974" lon="22.39476">
        <ele>146.590375</ele>
        <time>2020-08-27T23:54:40.922Z</time>
      </trkpt>
      <trkpt lat="66.04995" lon="22.39374">
        <ele>146.257174</ele>
        <time>2020-08-27T23:54:49.208Z</time>
      </trkpt>
      <trkpt lat="66.05167" lon="22.38596">
        <ele>142.237973</ele>
        <time>2020-08-27T23:55:43.047Z</time>
      </trkpt>
      <trkpt lat="66.05217" lon="22.38361">
        <ele>141.016118</ele>
        <time>2020-08-27T23:55:59.465Z</time>
      </trkpt>
      <trkpt lat="66.05242" lon="22.38177">
        <ele>140.503563</ele>
        <time>2020-08-27T23:56:12.120Z</time>
      </trkpt>
      <trkpt lat="66.05256" lon="22.38035">
        <ele>140.117995</ele>
        <time>2020-08-27T23:56:21.867Z</time>
      </trkpt>
      <trkpt lat="66.05269" lon="22.37792">
        <ele>139.675639</ele>
        <time>2020-08-27T23:56:38.534Z</time>
      </trkpt>
      <trkpt lat="66.05267" lon="22.37555">
        <ele>139.373735</ele>
        <time>2020-08-27T23:56:54.851Z</time>
      </trkpt>
      <trkpt lat="66.05253" lon="22.37326">
        <ele>139.296708</ele>
        <time>2020-08-27T23:57:11.117Z</time>
      </trkpt>
      <trkpt lat="66.05231" lon="22.37126">
        <ele>139.289369</ele>
        <time>2020-08-27T23:57:26.163Z</time>
      </trkpt>
      <trkpt lat="66.0508" lon="22.36286">
        <ele>140.074818</ele>
        <time>2020-08-27T23:58:35.663Z</time>
      </trkpt>
      <trkpt lat="66.05025" lon="22.35979">
        <ele>140.211068</ele>
        <time>2020-08-27T23:59:00.792Z</time>
      </trkpt>
      <trkpt lat="66.04959" lon="22.35608">
        <ele>140.174514</ele>
        <time>2020-08-27T23:59:29.838Z</time>
      </trkpt>
      <trkpt lat="66.04918" lon="22.3541">
        <ele>140.111586</ele>
        <time>2020-08-27T23:59:45.546Z</time>
      </trkpt>
      <trkpt lat="66.04874" lon="22.3524">
        <ele>140.076025</ele>
        <time>2020-08-28T00:00:00.011Z</time>
      </trkpt>
      <trkpt lat="66.04829" lon="22.35114">
        <ele>140.046459</ele>
        <time>2020-08-28T00:00:12.216Z</time>
      </trkpt>
      <trkpt lat="66.04781" lon="22.35002">
        <ele>140.129019</ele>
        <time>2020-08-28T00:00:24.250Z</time>
      </trkpt>
      <trkpt lat="66.04134" lon="22.33734">
        <ele>141.221399</ele>
        <time>2020-08-28T00:02:55.865Z</time>
      </trkpt>
      <trkpt lat="66.04083" lon="22.33624">
        <ele>140.933969</ele>
        <time>2020-08-28T00:03:07.199Z</time>
      </trkpt>
      <trkpt lat="66.04031" lon="22.33481">
        <ele>140.484536</ele>
        <time>2020-08-28T00:03:19.845Z</time>
      </trkpt>
      <trkpt lat="66.03981" lon="22.33266">
        <ele>139.864601</ele>
        <time>2020-08-28T00:03:35.810Z</time>
      </trkpt>
      <trkpt lat="66.03962" lon="22.3314">
        <ele>139.503552</ele>
        <time>2020-08-28T00:03:44.609Z</time>
      </trkpt>
      <trkpt lat="66.0395" lon="22.33012">
        <ele>139.152191</ele>
        <time>2020-08-28T00:03:53.253Z</time>
      </trkpt>
      <trkpt lat="66.03942" lon="22.32754">
        <ele>138.588036</ele>
        <time>2020-08-28T00:04:10.628Z</time>
      </trkpt>
      <trkpt lat="66.03946" lon="22.32612">
        <ele>138.295568</ele>
        <time>2020-08-28T00:04:20.263Z</time>
      </trkpt>
      <trkpt lat="66.0396" lon="22.32456">
        <ele>137.93133</ele>
        <time>2020-08-28T00:04:31.013Z</time>
      </trkpt>
      <trkpt lat="66.04027" lon="22.3194">
        <ele>136.153317</ele>
        <time>2020-08-28T00:05:06.307Z</time>
      </trkpt>
      <trkpt lat="66.04037" lon="22.3176">
        <ele>135.275192</ele>
        <time>2020-08-28T00:05:17.437Z</time>
      </trkpt>
      <trkpt lat="66.04039" lon="22.31628">
        <ele>134.516395</ele>
        <time>2020-08-28T00:05:25.311Z</time>
      </trkpt>
      <trkpt lat="66.04021" lon="22.31219">
        <ele>131.136864</ele>
        <time>2020-08-28T00:05:48.725Z</time>
      </trkpt>
      <trkpt lat="66.04019" lon="22.31094">
        <ele>129.926068</ele>
        <time>2020-08-28T00:05:55.726Z</time>
      </trkpt>
      <trkpt lat="66.04027" lon="22.30935">
        <ele>128.379246</ele>
        <time>2020-08-28T00:06:04.624Z</time>
      </trkpt>
      <trkpt lat="66.04069" lon="22.30498">
        <ele>124.359881</ele>
        <time>2020-08-28T00:06:29.702Z</time>
      </trkpt>
      <trkpt lat="66.04092" lon="22.30351">
        <ele>123.057594</ele>
        <time>2020-08-28T00:06:38.713Z</time>
      </trkpt>
      <trkpt lat="66.04193" lon="22.29806">
        <ele>121.8197</ele>
        <time>2020-08-28T00:07:17.186Z</time>
      </trkpt>
      <trkpt lat="66.04055" lon="22.29672">
        <ele>123.440926</ele>
        <time>2020-08-28T00:07:51.484Z</time>
      </trkpt>
      <trkpt lat="66.03918" lon="22.29551">
        <ele>126.624913</ele>
        <time>2020-08-28T00:08:29.054Z</time>
      </trkpt>
      <trkpt lat="66.03745" lon="22.29474">
        <ele>129.735292</ele>
        <time>2020-08-28T00:09:10.205Z</time>
      </trkpt>
      <trkpt lat="66.03677" lon="22.29455">
        <ele>130.672126</ele>
        <time>2020-08-28T00:09:25.665Z</time>
      </trkpt>
      <trkpt lat="66.03573" lon="22.29444">
        <ele>132.065011</ele>
        <time>2020-08-28T00:09:48.595Z</time>
      </trkpt>
      <trkpt lat="66.03377" lon="22.29467">
        <ele>133.618016</ele>
        <time>2020-08-28T00:10:29.122Z</time>
      </trkpt>
      <trkpt lat="66.03115" lon="22.29597">
        <ele>132.789498</ele>
        <time>2020-08-28T00:11:14.535Z</time>
      </trkpt>
      <trkpt lat="66.0307" lon="22.2962">
        <ele>132.470906</ele>
        <time>2020-08-28T00:11:21.568Z</time>
      </trkpt>
      <trkpt lat="66.02897" lon="22.2971">
        <ele>130.516436</ele>
        <time>2020-08-28T00:11:48.424Z</time>
      </trkpt>
      <trkpt lat="66.02739" lon="22.29769">
        <ele>128.259379</ele>
        <time>2020-08-28T00:12:12.563Z</time>
      </trkpt>
      <trkpt lat="66.0236" lon="22.29814">
        <ele>121.013687</ele>
        <time>2020-08-28T00:13:06.264Z</time>
      </trkpt>
      <trkpt lat="66.02167" lon="22.29856">
        <ele>117.777282</ele>
        <time>2020-08-28T00:13:33.682Z</time>
      </trkpt>
      <trkpt lat="66.01574" lon="22.30195">
        <ele>115.612987</ele>
        <time>2020-08-28T00:15:18.339Z</time>
      </trkpt>
      <trkpt lat="66.0144" lon="22.30312">
        <ele>114.425125</ele>
        <time>2020-08-28T00:15:40.635Z</time>
      </trkpt>
      <trkpt lat="66.01335" lon="22.30436">
        <ele>112.34779</ele>
        <time>2020-08-28T00:15:57.459Z</time>
      </trkpt>
      <trkpt lat="66.01167" lon="22.30725">
        <ele>107.796311</ele>
        <time>2020-08-28T00:16:25.868Z</time>
      </trkpt>
      <trkpt lat="66.0109" lon="22.30894">
        <ele>105.294502</ele>
        <time>2020-08-28T00:16:39.743Z</time>
      </trkpt>
      <trkpt lat="66.00929" lon="22.31258">
        <ele>100.460328</ele>
        <time>2020-08-28T00:17:09.826Z</time>
      </trkpt>
      <trkpt lat="66.00873" lon="22.31385">
        <ele>99.008393</ele>
        <time>2020-08-28T00:17:21.032Z</time>
      </trkpt>
      <trkpt lat="66.00841" lon="22.31457">
        <ele>98.675106</ele>
        <time>2020-08-28T00:17:27.674Z</time>
      </trkpt>
      <trkpt lat="66.00323" lon="22.32409">
        <ele>93.512658</ele>
        <time>2020-08-28T00:19:11.482Z</time>
      </trkpt>
      <trkpt lat="66.00178" lon="22.32676">
        <ele>90.664588</ele>
        <time>2020-08-28T00:19:37.833Z</time>
      </trkpt>
      <trkpt lat="65.99989" lon="22.32985">
        <ele>85.643469</ele>
        <time>2020-08-28T00:20:09.158Z</time>
      </trkpt>
      <trkpt lat="65.99891" lon="22.3313">
        <ele>82.885606</ele>
        <time>2020-08-28T00:20:24.748Z</time>
      </trkpt>
      <trkpt lat="65.99584" lon="22.33585">
        <ele>74.974042</ele>
        <time>2020-08-28T00:21:14.467Z</time>
      </trkpt>
      <trkpt lat="65.99414" lon="22.33821">
        <ele>71.938707</ele>
        <time>2020-08-28T00:21:43.173Z</time>
      </trkpt>
      <trkpt lat="65.99175" lon="22.34153">
        <ele>69.06818</ele>
        <time>2020-08-28T00:22:26.456Z</time>
      </trkpt>
      <trkpt lat="65.99045" lon="22.34342">
        <ele>66.886067</ele>
        <time>2020-08-28T00:22:48.524Z</time>
      </trkpt>
      <trkpt lat="65.98942" lon="22.34492">
        <ele>64.711932</ele>
        <time>2020-08-28T00:23:05.440Z</time>
      </trkpt>
      <trkpt lat="65.98732" lon="22.34873">
        <ele>60.991217</ele>
        <time>2020-08-28T00:23:43.640Z</time>
      </trkpt>
      <trkpt lat="65.98305" lon="22.35904">
        <ele>57.180556</ele>
        <time>2020-08-28T00:25:20.398Z</time>
      </trkpt>
      <trkpt lat="65.98156" lon="22.36263">
        <ele>57.78561</ele>
        <time>2020-08-28T00:26:02.554Z</time>
      </trkpt>
      <trkpt lat="65.97835" lon="22.37075">
        <ele>56.647216</ele>
        <time>2020-08-28T00:27:22.058Z</time>
      </trkpt>
      <trkpt lat="65.97753" lon="22.37259">
        <ele>55.527439</ele>
        <time>2020-08-28T00:27:38.616Z</time>
      </trkpt>
      <trkpt lat="65.97672" lon="22.37419">
        <ele>53.508601</ele>
        <time>2020-08-28T00:27:53.216Z</time>
      </trkpt>
      <trkpt lat="65.97645" lon="22.37469">
        <ele>52.827568</ele>
        <time>2020-08-28T00:27:58.035Z</time>
      </trkpt>
      <trkpt lat="65.97507" lon="22.37646">
        <ele>49.666692</ele>
        <time>2020-08-28T00:28:19.773Z</time>
      </trkpt>
      <trkpt lat="65.97379" lon="22.37766">
        <ele>46.827924</ele>
        <time>2020-08-28T00:28:39.272Z</time>
      </trkpt>
      <trkpt lat="65.97245" lon="22.37849">
        <ele>43.878001</ele>
        <time>2020-08-28T00:28:58.538Z</time>
      </trkpt>
      <trkpt lat="65.97118" lon="22.37888">
        <ele>40.786609</ele>
        <time>2020-08-28T00:29:16.037Z</time>
      </trkpt>
      <trkpt lat="65.9695" lon="22.37884">
        <ele>36.079106</ele>
        <time>2020-08-28T00:29:38.613Z</time>
      </trkpt>
      <trkpt lat="65.9694" lon="22.37883">
        <ele>35.784318</ele>
        <time>2020-08-28T00:29:39.972Z</time>
      </trkpt>
      <trkpt lat="65.96825" lon="22.37889">
        <ele>32.23009</ele>
        <time>2020-08-28T00:29:54.938Z</time>
      </trkpt>
      <trkpt lat="65.96774" lon="22.37893">
        <ele>30.60153</ele>
        <time>2020-08-28T00:30:01.584Z</time>
      </trkpt>
      <trkpt lat="65.9664" lon="22.37909">
        <ele>26.925286</ele>
        <time>2020-08-28T00:30:19.368Z</time>
      </trkpt>
      <trkpt lat="65.96551" lon="22.37931">
        <ele>24.674987</ele>
        <time>2020-08-28T00:30:31.767Z</time>
      </trkpt>
      <trkpt lat="65.96368" lon="22.38036">
        <ele>21.590419</ele>
        <time>2020-08-28T00:30:59.425Z</time>
      </trkpt>
      <trkpt lat="65.9618" lon="22.38177">
        <ele>17.735855</ele>
        <time>2020-08-28T00:31:27.425Z</time>
      </trkpt>
      <trkpt lat="65.96144" lon="22.38211">
        <ele>16.736</ele>
        <time>2020-08-28T00:31:32.657Z</time>
      </trkpt>
      <trkpt lat="65.96096" lon="22.38265">
        <ele>15.379911</ele>
        <time>2020-08-28T00:31:39.711Z</time>
      </trkpt>
      <trkpt lat="65.96093" lon="22.38241">
        <ele>15.115422</ele>
        <time>2020-08-28T00:31:41.069Z</time>
      </trkpt>
      <trkpt lat="65.96082" lon="22.38241">
        <ele>14.845456</ele>
        <time>2020-08-28T00:31:42.583Z</time>
      </trkpt>
      <trkpt lat="65.9597" lon="22.3832">
        <ele>12.528398</ele>
        <time>2020-08-28T00:31:59.181Z</time>
      </trkpt>
      <trkpt lat="65.95809" lon="22.38466">
        <ele>10.409368</ele>
        <time>2020-08-28T00:32:27.035Z</time>
      </trkpt>
      <trkpt lat="65.95677" lon="22.38636">
        <ele>9.698244</ele>
        <time>2020-08-28T00:32:53.524Z</time>
      </trkpt>
      <trkpt lat="65.95526" lon="22.38891">
        <ele>9.175596</ele>
        <time>2020-08-28T00:33:26.039Z</time>
      </trkpt>
      <trkpt lat="65.95285" lon="22.39308">
        <ele>8.229282</ele>
        <time>2020-08-28T00:34:18.157Z</time>
      </trkpt>
      <trkpt lat="65.95216" lon="22.39554">
        <ele>7.866714</ele>
        <time>2020-08-28T00:34:39.919Z</time>
      </trkpt>
      <trkpt lat="65.95173" lon="22.39742">
        <ele>7.61681</ele>
        <time>2020-08-28T00:34:55.311Z</time>
      </trkpt>
      <trkpt lat="65.95075" lon="22.3981">
        <ele>7.413589</ele>
        <time>2020-08-28T00:35:12.588Z</time>
      </trkpt>
      <trkpt lat="65.95056" lon="22.39819">
        <ele>7.37329</ele>
        <time>2020-08-28T00:35:16.072Z</time>
      </trkpt>
      <trkpt lat="65.95003" lon="22.39843">
        <ele>7.26812</ele>
        <time>2020-08-28T00:35:25.358Z</time>
      </trkpt>
      <trkpt lat="65.95" lon="22.39844">
        <ele>7.27166</ele>
        <time>2020-08-28T00:35:25.892Z</time>
      </trkpt>
      <trkpt lat="65.94792" lon="22.39918">
        <ele>7.599108</ele>
        <time>2020-08-28T00:36:04.499Z</time>
      </trkpt>
      <trkpt lat="65.94609" lon="22.39987">
        <ele>8.286492</ele>
        <time>2020-08-28T00:36:39.988Z</time>
      </trkpt>
      <trkpt lat="65.94413" lon="22.40061">
        <ele>8.823266</ele>
        <time>2020-08-28T00:37:18.013Z</time>
      </trkpt>
      <trkpt lat="65.94333" lon="22.40099">
        <ele>8.784098</ele>
        <time>2020-08-28T00:37:32.062Z</time>
      </trkpt>
      <trkpt lat="65.9427" lon="22.40128">
        <ele>8.638874</ele>
        <time>2020-08-28T00:37:42.637Z</time>
      </trkpt>
      <trkpt lat="65.94211" lon="22.40178">
        <ele>8.295472</ele>
        <time>2020-08-28T00:37:52.824Z</time>
      </trkpt>
      <trkpt lat="65.94129" lon="22.40256">
        <ele>7.816545</ele>
        <time>2020-08-28T00:38:06.972Z</time>
      </trkpt>
      <trkpt lat="65.93993" lon="22.40432">
        <ele>7.589277</ele>
        <time>2020-08-28T00:38:33.568Z</time>
      </trkpt>
      <trkpt lat="65.93851" lon="22.40617">
        <ele>7.990791</ele>
        <time>2020-08-28T00:39:04.044Z</time>
      </trkpt>
      <trkpt lat="65.93806" lon="22.40675">
        <ele>8.165528</ele>
        <time>2020-08-28T00:39:13.876Z</time>
      </trkpt>
      <trkpt lat="65.9374" lon="22.40773">
        <ele>8.271158</ele>
        <time>2020-08-28T00:39:28.747Z</time>
      </trkpt>
      <trkpt lat="65.93698" lon="22.40836">
        <ele>8.337373</ele>
        <time>2020-08-28T00:39:37.731Z</time>
      </trkpt>
      <trkpt lat="65.93626" lon="22.40955">
        <ele>8.190287</ele>
        <time>2020-08-28T00:39:52.758Z</time>
      </trkpt>
      <trkpt lat="65.93469" lon="22.41217">
        <ele>6.764497</ele>
        <time>2020-08-28T00:40:22.738Z</time>
      </trkpt>
      <trkpt lat="65.93372" lon="22.41379">
        <ele>5.533249</ele>
        <time>2020-08-28T00:40:40.598Z</time>
      </trkpt>
      <trkpt lat="65.93329" lon="22.41474">
        <ele>5.040595</ele>
        <time>2020-08-28T00:40:49.519Z</time>
      </trkpt>
      <trkpt lat="65.93306" lon="22.41527">
        <ele>4.800556</ele>
        <time>2020-08-28T00:40:54.517Z</time>
      </trkpt>
      <trkpt lat="65.93256" lon="22.41639">
        <ele>4.294109</ele>
        <time>2020-08-28T00:41:05.277Z</time>
      </trkpt>
      <trkpt lat="65.93173" lon="22.41824">
        <ele>3.859185</ele>
        <time>2020-08-28T00:41:24.130Z</time>
      </trkpt>
      <trkpt lat="65.93133" lon="22.41916">
        <ele>3.765772</ele>
        <time>2020-08-28T00:41:33.855Z</time>
      </trkpt>
      <trkpt lat="65.93095" lon="22.42014">
        <ele>3.672459</ele>
        <time>2020-08-28T00:41:43.597Z</time>
      </trkpt>
      <trkpt lat="65.93059" lon="22.42129">
        <ele>3.773578</ele>
        <time>2020-08-28T00:41:54.427Z</time>
      </trkpt>
      <trkpt lat="65.9302" lon="22.42252">
        <ele>3.881232</ele>
        <time>2020-08-28T00:42:05.946Z</time>
      </trkpt>
      <trkpt lat="65.9286" lon="22.42763">
        <ele>4.71757</ele>
        <time>2020-08-28T00:42:55.536Z</time>
      </trkpt>
      <trkpt lat="65.92744" lon="22.43134">
        <ele>5.832242</ele>
        <time>2020-08-28T00:43:33.892Z</time>
      </trkpt>
      <trkpt lat="65.92651" lon="22.4343">
        <ele>6.582528</ele>
        <time>2020-08-28T00:44:03.607Z</time>
      </trkpt>
      <trkpt lat="65.92622" lon="22.43509">
        <ele>6.549823</ele>
        <time>2020-08-28T00:44:11.703Z</time>
      </trkpt>
      <trkpt lat="65.92577" lon="22.43628">
        <ele>6.500248</ele>
        <time>2020-08-28T00:44:23.421Z</time>
      </trkpt>
      <trkpt lat="65.92504" lon="22.43749">
        <ele>6.154112</ele>
        <time>2020-08-28T00:44:37.962Z</time>
      </trkpt>
      <trkpt lat="65.92491" lon="22.43768">
        <ele>5.979729</ele>
        <time>2020-08-28T00:44:40.428Z</time>
      </trkpt>
      <trkpt lat="65.92418" lon="22.43866">
        <ele>5.052049</ele>
        <time>2020-08-28T00:44:52.981Z</time>
      </trkpt>
      <trkpt lat="65.92361" lon="22.4392">
        <ele>4.358406</ele>
        <time>2020-08-28T00:45:02.053Z</time>
      </trkpt>
      <trkpt lat="65.92303" lon="22.43968">
        <ele>3.636694</ele>
        <time>2020-08-28T00:45:10.955Z</time>
      </trkpt>
      <trkpt lat="65.92162" lon="22.44074">
        <ele>2.358137</ele>
        <time>2020-08-28T00:45:33.841Z</time>
      </trkpt>
      <trkpt lat="65.92158" lon="22.44076">
        <ele>2.362081</ele>
        <time>2020-08-28T00:45:34.608Z</time>
      </trkpt>
      <trkpt lat="65.92077" lon="22.44172">
        <ele>2.451209</ele>
        <time>2020-08-28T00:45:50.745Z</time>
      </trkpt>
      <trkpt lat="65.92005" lon="22.44273">
        <ele>2.939701</ele>
        <time>2020-08-28T00:46:08.019Z</time>
      </trkpt>
      <trkpt lat="65.91979" lon="22.44314">
        <ele>3.367182</ele>
        <time>2020-08-28T00:46:14.888Z</time>
      </trkpt>
      <trkpt lat="65.91967" lon="22.44336">
        <ele>3.56995</ele>
        <time>2020-08-28T00:46:18.171Z</time>
      </trkpt>
      <trkpt lat="65.91921" lon="22.44423">
        <ele>4.358155</ele>
        <time>2020-08-28T00:46:31.297Z</time>
      </trkpt>
      <trkpt lat="65.91889" lon="22.44486">
        <ele>4.921113</ele>
        <time>2020-08-28T00:46:40.802Z</time>
      </trkpt>
      <trkpt lat="65.91815" lon="22.44627">
        <ele>6.356409</ele>
        <time>2020-08-28T00:47:02.593Z</time>
      </trkpt>
      <trkpt lat="65.91727" lon="22.44773">
        <ele>7.820037</ele>
        <time>2020-08-28T00:47:26.926Z</time>
      </trkpt>
      <trkpt lat="65.91631" lon="22.44874">
        <ele>8.369458</ele>
        <time>2020-08-28T00:47:47.984Z</time>
      </trkpt>
      <trkpt lat="65.91581" lon="22.44926">
        <ele>8.653883</ele>
        <time>2020-08-28T00:47:57.543Z</time>
      </trkpt>
      <trkpt lat="65.91545" lon="22.44949">
        <ele>8.346124</ele>
        <time>2020-08-28T00:48:03.720Z</time>
      </trkpt>
      <trkpt lat="65.91441" lon="22.45008">
        <ele>7.327914</ele>
        <time>2020-08-28T00:48:19.972Z</time>
      </trkpt>
      <trkpt lat="65.91128" lon="22.45146">
        <ele>3.530028</ele>
        <time>2020-08-28T00:49:07.449Z</time>
      </trkpt>
      <trkpt lat="65.90872" lon="22.4526">
        <ele>1.738791</ele>
        <time>2020-08-28T00:49:49.827Z</time>
      </trkpt>
      <trkpt lat="65.90776" lon="22.45303">
        <ele>1.79529</ele>
        <time>2020-08-28T00:50:07.249Z</time>
      </trkpt>
      <trkpt lat="65.90765" lon="22.45257">
        <ele>1.808383</ele>
        <time>2020-08-28T00:50:11.304Z</time>
      </trkpt>
      <trkpt lat="65.90752" lon="22.45215">
        <ele>1.821172</ele>
        <time>2020-08-28T00:50:15.150Z</time>
      </trkpt>
      <trkpt lat="65.90735" lon="22.45179">
        <ele>1.83458</ele>
        <time>2020-08-28T00:50:19.368Z</time>
      </trkpt>
      <trkpt lat="65.90718" lon="22.45166">
        <ele>1.850624</ele>
        <time>2020-08-28T00:50:22.748Z</time>
      </trkpt>
      <trkpt lat="65.90621" lon="22.45152">
        <ele>2.408234</ele>
        <time>2020-08-28T00:50:41.752Z</time>
      </trkpt>
      <trkpt lat="65.90598" lon="22.4516">
        <ele>2.538072</ele>
        <time>2020-08-28T00:50:46.300Z</time>
      </trkpt>
      <trkpt lat="65.90517" lon="22.45221">
        <ele>3.187142</ele>
        <time>2020-08-28T00:51:03.273Z</time>
      </trkpt>
      <trkpt lat="65.90473" lon="22.45224">
        <ele>3.735272</ele>
        <time>2020-08-28T00:51:12.749Z</time>
      </trkpt>
      <trkpt lat="65.90382" lon="22.45148">
        <ele>4.899788</ele>
        <time>2020-08-28T00:51:33.827Z</time>
      </trkpt>
      <trkpt lat="65.90178" lon="22.45053">
        <ele>8.037504</ele>
        <time>2020-08-28T00:52:21.907Z</time>
      </trkpt>
      <trkpt lat="65.90149" lon="22.45036">
        <ele>8.324744</ele>
        <time>2020-08-28T00:52:28.523Z</time>
      </trkpt>
      <trkpt lat="65.90127" lon="22.45022">
        <ele>8.53844</ele>
        <time>2020-08-28T00:52:33.311Z</time>
      </trkpt>
      <trkpt lat="65.90106" lon="22.45001">
        <ele>8.756245</ele>
        <time>2020-08-28T00:52:38.078Z</time>
      </trkpt>
      <trkpt lat="65.90091" lon="22.44982">
        <ele>8.9208</ele>
        <time>2020-08-28T00:52:41.663Z</time>
      </trkpt>
      <trkpt lat="65.90035" lon="22.44898">
        <ele>9.55917</ele>
        <time>2020-08-28T00:52:55.038Z</time>
      </trkpt>
      <trkpt lat="65.89975" lon="22.44815">
        <ele>9.709611</ele>
        <time>2020-08-28T00:53:07.961Z</time>
      </trkpt>
      <trkpt lat="65.89917" lon="22.44734">
        <ele>9.793572</ele>
        <time>2020-08-28T00:53:19.937Z</time>
      </trkpt>
      <trkpt lat="65.89887" lon="22.44699">
        <ele>9.835414</ele>
        <time>2020-08-28T00:53:25.721Z</time>
      </trkpt>
      <trkpt lat="65.89869" lon="22.44678">
        <ele>9.857012</ele>
        <time>2020-08-28T00:53:29.168Z</time>
      </trkpt>
      <trkpt lat="65.89842" lon="22.44645">
        <ele>9.777346</ele>
        <time>2020-08-28T00:53:34.432Z</time>
      </trkpt>
      <trkpt lat="65.89831" lon="22.4463">
        <ele>9.746485</ele>
        <time>2020-08-28T00:53:36.467Z</time>
      </trkpt>
      <trkpt lat="65.89768" lon="22.44535">
        <ele>9.553606</ele>
        <time>2020-08-28T00:53:49.133Z</time>
      </trkpt>
      <trkpt lat="65.89729" lon="22.44477">
        <ele>9.436776</ele>
        <time>2020-08-28T00:53:56.781Z</time>
      </trkpt>
      <trkpt lat="65.89693" lon="22.44427">
        <ele>9.390318</ele>
        <time>2020-08-28T00:54:03.765Z</time>
      </trkpt>
      <trkpt lat="65.89482" lon="22.4413">
        <ele>9.784428</ele>
        <time>2020-08-28T00:54:47.562Z</time>
      </trkpt>
      <trkpt lat="65.89448" lon="22.44098">
        <ele>9.958958</ele>
        <time>2020-08-28T00:54:54.952Z</time>
      </trkpt>
      <trkpt lat="65.89375" lon="22.44055">
        <ele>10.440788</ele>
        <time>2020-08-28T00:55:10.775Z</time>
      </trkpt>
      <trkpt lat="65.89363" lon="22.4403">
        <ele>10.606103</ele>
        <time>2020-08-28T00:55:14.151Z</time>
      </trkpt>
      <trkpt lat="65.89347" lon="22.43954">
        <ele>10.980937</ele>
        <time>2020-08-28T00:55:21.853Z</time>
      </trkpt>
      <trkpt lat="65.89327" lon="22.4368">
        <ele>12.128553</ele>
        <time>2020-08-28T00:55:46.381Z</time>
      </trkpt>
      <trkpt lat="65.89316" lon="22.43597">
        <ele>11.9568</ele>
        <time>2020-08-28T00:55:53.423Z</time>
      </trkpt>
      <trkpt lat="65.89292" lon="22.43503">
        <ele>11.739036</ele>
        <time>2020-08-28T00:56:01.373Z</time>
      </trkpt>
      <trkpt lat="65.89228" lon="22.4331">
        <ele>11.180106</ele>
        <time>2020-08-28T00:56:16.805Z</time>
      </trkpt>
      <trkpt lat="65.89167" lon="22.43138">
        <ele>9.863838</ele>
        <time>2020-08-28T00:56:30.167Z</time>
      </trkpt>
      <trkpt lat="65.89146" lon="22.4308">
        <ele>9.408126</ele>
        <time>2020-08-28T00:56:34.835Z</time>
      </trkpt>
      <trkpt lat="65.89121" lon="22.43033">
        <ele>8.960121</ele>
        <time>2020-08-28T00:56:39.486Z</time>
      </trkpt>
      <trkpt lat="65.88968" lon="22.42867">
        <ele>8.035926</ele>
        <time>2020-08-28T00:57:06.757Z</time>
      </trkpt>
      <trkpt lat="65.88922" lon="22.42776">
        <ele>8.03615</ele>
        <time>2020-08-28T00:57:17.787Z</time>
      </trkpt>
      <trkpt lat="65.88906" lon="22.42717">
        <ele>8.164482</ele>
        <time>2020-08-28T00:57:23.302Z</time>
      </trkpt>
      <trkpt lat="65.88824" lon="22.42252">
        <ele>9.163179</ele>
        <time>2020-08-28T00:58:04.299Z</time>
      </trkpt>
      <trkpt lat="65.88817" lon="22.42187">
        <ele>9.310951</ele>
        <time>2020-08-28T00:58:09.703Z</time>
      </trkpt>
      <trkpt lat="65.88805" lon="22.41901">
        <ele>9.787517</ele>
        <time>2020-08-28T00:58:32.269Z</time>
      </trkpt>
      <trkpt lat="65.88747" lon="22.41443">
        <ele>10.129113</ele>
        <time>2020-08-28T00:59:08.376Z</time>
      </trkpt>
      <trkpt lat="65.88741" lon="22.41353">
        <ele>10.148236</ele>
        <time>2020-08-28T00:59:15.048Z</time>
      </trkpt>
      <trkpt lat="65.88745" lon="22.41223">
        <ele>10.175573</ele>
        <time>2020-08-28T00:59:24.501Z</time>
      </trkpt>
      <trkpt lat="65.88739" lon="22.41074">
        <ele>10.098214</ele>
        <time>2020-08-28T00:59:35.210Z</time>
      </trkpt>
      <trkpt lat="65.88753" lon="22.40949">
        <ele>9.979114</ele>
        <time>2020-08-28T00:59:44.413Z</time>
      </trkpt>
      <trkpt lat="65.8875" lon="22.40884">
        <ele>9.919214</ele>
        <time>2020-08-28T00:59:48.989Z</time>
      </trkpt>
      <trkpt lat="65.88739" lon="22.40835">
        <ele>9.869588</ele>
        <time>2020-08-28T00:59:52.733Z</time>
      </trkpt>
      <trkpt lat="65.88707" lon="22.4076">
        <ele>9.748146</ele>
        <time>2020-08-28T01:00:00.352Z</time>
      </trkpt>
      <trkpt lat="65.887" lon="22.40721">
        <ele>9.651588</ele>
        <time>2020-08-28T01:00:03.261Z</time>
      </trkpt>
      <trkpt lat="65.88701" lon="22.40665">
        <ele>9.524781</ele>
        <time>2020-08-28T01:00:07.086Z</time>
      </trkpt>
      <trkpt lat="65.8871" lon="22.40586">
        <ele>9.337169</ele>
        <time>2020-08-28T01:00:12.656Z</time>
      </trkpt>
      <trkpt lat="65.88714" lon="22.40556">
        <ele>9.265364</ele>
        <time>2020-08-28T01:00:14.682Z</time>
      </trkpt>
      <trkpt lat="65.88717" lon="22.40424">
        <ele>8.964561</ele>
        <time>2020-08-28T01:00:23.538Z</time>
      </trkpt>
      <trkpt lat="65.88725" lon="22.40344">
        <ele>8.777033</ele>
        <time>2020-08-28T01:00:28.865Z</time>
      </trkpt>
      <trkpt lat="65.88722" lon="22.40301">
        <ele>8.640492</ele>
        <time>2020-08-28T01:00:31.677Z</time>
      </trkpt>
      <trkpt lat="65.88712" lon="22.40252">
        <ele>8.473378</ele>
        <time>2020-08-28T01:00:35.273Z</time>
      </trkpt>
      <trkpt lat="65.88692" lon="22.4021">
        <ele>8.275567</ele>
        <time>2020-08-28T01:00:39.364Z</time>
      </trkpt>
      <trkpt lat="65.88658" lon="22.40131">
        <ele>7.923879</ele>
        <time>2020-08-28T01:00:46.843Z</time>
      </trkpt>
      <trkpt lat="65.88648" lon="22.40081">
        <ele>7.751123</ele>
        <time>2020-08-28T01:00:50.406Z</time>
      </trkpt>
      <trkpt lat="65.88635" lon="22.39882">
        <ele>7.3958</ele>
        <time>2020-08-28T01:01:03.706Z</time>
      </trkpt>
      <trkpt lat="65.88637" lon="22.39838">
        <ele>7.382091</ele>
        <time>2020-08-28T01:01:06.742Z</time>
      </trkpt>
      <trkpt lat="65.88667" lon="22.39729">
        <ele>7.341334</ele>
        <time>2020-08-28T01:01:16.364Z</time>
      </trkpt>
      <trkpt lat="65.8868" lon="22.39618">
        <ele>7.305515</ele>
        <time>2020-08-28T01:01:25.187Z</time>
      </trkpt>
      <trkpt lat="65.88679" lon="22.39604">
        <ele>7.301129</ele>
        <time>2020-08-28T01:01:26.204Z</time>
      </trkpt>
      <trkpt lat="65.88678" lon="22.39578">
        <ele>7.293011</ele>
        <time>2020-08-28T01:01:28.257Z</time>
      </trkpt>
      <trkpt lat="65.88674" lon="22.39563">
        <ele>7.301901</ele>
        <time>2020-08-28T01:01:29.646Z</time>
      </trkpt>
      <trkpt lat="65.8866" lon="22.39518">
        <ele>7.415891</ele>
        <time>2020-08-28T01:01:33.965Z</time>
      </trkpt>
      <trkpt lat="65.88642" lon="22.3947">
        <ele>7.550349</ele>
        <time>2020-08-28T01:01:39.211Z</time>
      </trkpt>
      <trkpt lat="65.88611" lon="22.3939">
        <ele>7.77306</ele>
        <time>2020-08-28T01:01:47.927Z</time>
      </trkpt>
      <trkpt lat="65.88558" lon="22.3927">
        <ele>8.135843</ele>
        <time>2020-08-28T01:02:02.507Z</time>
      </trkpt>
      <trkpt lat="65.88539" lon="22.39243">
        <ele>8.225268</ele>
        <time>2020-08-28T01:02:06.790Z</time>
      </trkpt>
      <trkpt lat="65.8849" lon="22.39209">
        <ele>8.39101</ele>
        <time>2020-08-28T01:02:16.449Z</time>
      </trkpt>
      <trkpt lat="65.8847" lon="22.39181">
        <ele>8.465826</ele>
        <time>2020-08-28T01:02:20.759Z</time>
      </trkpt>
      <trkpt lat="65.88358" lon="22.38975">
        <ele>8.910231</ele>
        <time>2020-08-28T01:02:47.007Z</time>
      </trkpt>
      <trkpt lat="65.88298" lon="22.38797">
        <ele>9.198508</ele>
        <time>2020-08-28T01:03:04.798Z</time>
      </trkpt>
      <trkpt lat="65.88251" lon="22.38577">
        <ele>9.489452</ele>
        <time>2020-08-28T01:03:23.910Z</time>
      </trkpt>
      <trkpt lat="65.88234" lon="22.38474">
        <ele>9.61416</ele>
        <time>2020-08-28T01:03:32.376Z</time>
      </trkpt>
      <trkpt lat="65.88209" lon="22.38368">
        <ele>9.753764</ele>
        <time>2020-08-28T01:03:41.760Z</time>
      </trkpt>
      <trkpt lat="65.88188" lon="22.38323">
        <ele>9.820802</ele>
        <time>2020-08-28T01:03:46.863Z</time>
      </trkpt>
      <trkpt lat="65.88158" lon="22.38278">
        <ele>9.854479</ele>
        <time>2020-08-28T01:03:53.330Z</time>
      </trkpt>
      <trkpt lat="65.88046" lon="22.38149">
        <ele>9.972461</ele>
        <time>2020-08-28T01:04:15.690Z</time>
      </trkpt>
      <trkpt lat="65.87957" lon="22.38019">
        <ele>9.993704</ele>
        <time>2020-08-28T01:04:34.221Z</time>
      </trkpt>
      <trkpt lat="65.87719" lon="22.37823">
        <ele>9.985118</ele>
        <time>2020-08-28T01:05:19.052Z</time>
      </trkpt>
      <trkpt lat="65.87667" lon="22.37802">
        <ele>9.968541</ele>
        <time>2020-08-28T01:05:28.336Z</time>
      </trkpt>
      <trkpt lat="65.87611" lon="22.3781">
        <ele>9.942638</ele>
        <time>2020-08-28T01:05:38.226Z</time>
      </trkpt>
      <trkpt lat="65.87572" lon="22.37788">
        <ele>9.92385</ele>
        <time>2020-08-28T01:05:50.226Z</time>
      </trkpt>
      <trkpt lat="65.87564" lon="22.37785">
        <ele>9.920114</ele>
        <time>2020-08-28T01:05:52.632Z</time>
      </trkpt>
      <trkpt lat="65.87458" lon="22.3775">
        <ele>9.90525</ele>
        <time>2020-08-28T01:06:24.207Z</time>
      </trkpt>
      <trkpt lat="65.87431" lon="22.37726">
        <ele>9.907658</ele>
        <time>2020-08-28T01:06:32.853Z</time>
      </trkpt>
      <trkpt lat="65.87428" lon="22.37695">
        <ele>9.908729</ele>
        <time>2020-08-28T01:06:36.700Z</time>
      </trkpt>
      <trkpt lat="65.8744" lon="22.37589">
        <ele>9.912458</ele>
        <time>2020-08-28T01:06:50.088Z</time>
      </trkpt>
      <trkpt lat="65.8745" lon="22.3751">
        <ele>9.916625</ele>
        <time>2020-08-28T01:07:00.206Z</time>
      </trkpt>
      <trkpt lat="65.87452" lon="22.37489">
        <ele>9.920668</ele>
        <time>2020-08-28T01:07:02.871Z</time>
      </trkpt>
      <trkpt lat="65.87454" lon="22.37217">
        <ele>9.971601</ele>
        <time>2020-08-28T01:07:36.359Z</time>
      </trkpt>
      <trkpt lat="65.87433" lon="22.36771">
        <ele>9.999171</ele>
        <time>2020-08-28T01:08:30.953Z</time>
      </trkpt>
      <trkpt lat="65.87424" lon="22.36722">
        <ele>9.999525</ele>
        <time>2020-08-28T01:08:37.500Z</time>
      </trkpt>
      <trkpt lat="65.874" lon="22.36653">
        <ele>10.00145</ele>
        <time>2020-08-28T01:08:48.499Z</time>
      </trkpt>
      <trkpt lat="65.87343" lon="22.36575">
        <ele>10.015198</ele>
        <time>2020-08-28T01:09:07.948Z</time>
      </trkpt>
      <trkpt lat="65.87235" lon="22.36486">
        <ele>10.046338</ele>
        <time>2020-08-28T01:09:41.754Z</time>
      </trkpt>
      <trkpt lat="65.87224" lon="22.36468">
        <ele>10.066488</ele>
        <time>2020-08-28T01:09:45.851Z</time>
      </trkpt>
      <trkpt lat="65.87205" lon="22.36401">
        <ele>10.115208</ele>
        <time>2020-08-28T01:09:55.820Z</time>
      </trkpt>
      <trkpt lat="65.87188" lon="22.36286">
        <ele>10.188728</ele>
        <time>2020-08-28T01:10:11.022Z</time>
      </trkpt>
      <trkpt lat="65.87175" lon="22.36154">
        <ele>10.270605</ele>
        <time>2020-08-28T01:10:27.872Z</time>
      </trkpt>
      <trkpt lat="65.8717" lon="22.36047">
        <ele>10.254244</ele>
        <time>2020-08-28T01:10:41.157Z</time>
      </trkpt>
      <trkpt lat="65.87168" lon="22.36043">
        <ele>10.248495</ele>
        <time>2020-08-28T01:10:41.680Z</time>
      </trkpt>
      <trkpt lat="65.87155" lon="22.36024">
        <ele>10.215328</ele>
        <time>2020-08-28T01:10:44.523Z</time>
      </trkpt>
      <trkpt lat="65.87162" lon="22.35869">
        <ele>10.076208</ele>
        <time>2020-08-28T01:10:55.856Z</time>
      </trkpt>
      <trkpt lat="65.87181" lon="22.34815">
        <ele>7.945639</ele>
        <time>2020-08-28T01:12:06.784Z</time>
      </trkpt>
      <trkpt lat="65.87177" lon="22.34539">
        <ele>6.853261</ele>
        <time>2020-08-28T01:12:24.061Z</time>
      </trkpt>
      <trkpt lat="65.87168" lon="22.34388">
        <ele>6.243511</ele>
        <time>2020-08-28T01:12:33.602Z</time>
      </trkpt>
      <trkpt lat="65.87164" lon="22.34336">
        <ele>6.170744</ele>
        <time>2020-08-28T01:12:37.097Z</time>
      </trkpt>
      <trkpt lat="65.8716" lon="22.34295">
        <ele>6.19241</ele>
        <time>2020-08-28T01:12:39.822Z</time>
      </trkpt>
      <trkpt lat="65.87154" lon="22.34243">
        <ele>6.22052</ele>
        <time>2020-08-28T01:12:43.560Z</time>
      </trkpt>
      <trkpt lat="65.8715" lon="22.34206">
        <ele>6.239807</ele>
        <time>2020-08-28T01:12:46.137Z</time>
      </trkpt>
      <trkpt lat="65.87133" lon="22.34061">
        <ele>6.317266</ele>
        <time>2020-08-28T01:12:57.435Z</time>
      </trkpt>
      <trkpt lat="65.87109" lon="22.33911">
        <ele>6.706596</ele>
        <time>2020-08-28T01:13:10.950Z</time>
      </trkpt>
      <trkpt lat="65.87065" lon="22.337">
        <ele>8.7908</ele>
        <time>2020-08-28T01:13:34.094Z</time>
      </trkpt>
      <trkpt lat="65.8702" lon="22.33514">
        <ele>10.778728</ele>
        <time>2020-08-28T01:13:58.667Z</time>
      </trkpt>
      <trkpt lat="65.86991" lon="22.33388">
        <ele>12.291608</ele>
        <time>2020-08-28T01:14:14.899Z</time>
      </trkpt>
      <trkpt lat="65.8698" lon="22.3334">
        <ele>12.875211</ele>
        <time>2020-08-28T01:14:21.436Z</time>
      </trkpt>
      <trkpt lat="65.86797" lon="22.32554">
        <ele>19.398129</ele>
        <time>2020-08-28T01:15:49.596Z</time>
      </trkpt>
      <trkpt lat="65.86585" lon="22.3168">
        <ele>18.764495</ele>
        <time>2020-08-28T01:16:58.976Z</time>
      </trkpt>
      <trkpt lat="65.86561" lon="22.3158">
        <ele>18.703626</ele>
        <time>2020-08-28T01:17:07.534Z</time>
      </trkpt>
      <trkpt lat="65.86507" lon="22.31353">
        <ele>18.641249</ele>
        <time>2020-08-28T01:17:27.322Z</time>
      </trkpt>
      <trkpt lat="65.86416" lon="22.3097">
        <ele>17.781814</ele>
        <time>2020-08-28T01:17:57.659Z</time>
      </trkpt>
      <trkpt lat="65.86389" lon="22.30838">
        <ele>17.175404</ele>
        <time>2020-08-28T01:18:06.816Z</time>
      </trkpt>
      <trkpt lat="65.86381" lon="22.30803">
        <ele>16.912101</ele>
        <time>2020-08-28T01:18:09.194Z</time>
      </trkpt>
      <trkpt lat="65.86373" lon="22.30768">
        <ele>16.645909</ele>
        <time>2020-08-28T01:18:11.677Z</time>
      </trkpt>
      <trkpt lat="65.86378" lon="22.30759">
        <ele>16.541115</ele>
        <time>2020-08-28T01:18:12.736Z</time>
      </trkpt>
      <trkpt lat="65.86373" lon="22.30736">
        <ele>16.369556</ele>
        <time>2020-08-28T01:18:15.413Z</time>
      </trkpt>
      <trkpt lat="65.86315" lon="22.30411">
        <ele>14.065138</ele>
        <time>2020-08-28T01:18:52.450Z</time>
      </trkpt>
      <trkpt lat="65.86306" lon="22.30384">
        <ele>13.847116</ele>
        <time>2020-08-28T01:18:56.270Z</time>
      </trkpt>
      <trkpt lat="65.86304" lon="22.3037">
        <ele>13.753869</ele>
        <time>2020-08-28T01:18:57.754Z</time>
      </trkpt>
      <trkpt lat="65.86286" lon="22.30285">
        <ele>13.157727</ele>
        <time>2020-08-28T01:19:08.001Z</time>
      </trkpt>
      <trkpt lat="65.86225" lon="22.29975">
        <ele>11.377311</ele>
        <time>2020-08-28T01:19:45.161Z</time>
      </trkpt>
      <trkpt lat="65.86203" lon="22.29892">
        <ele>11.009092</ele>
        <time>2020-08-28T01:19:56.231Z</time>
      </trkpt>
      <trkpt lat="65.86196" lon="22.29902">
        <ele>10.929425</ele>
        <time>2020-08-28T01:19:58.139Z</time>
      </trkpt>
      <trkpt lat="65.86169" lon="22.29806">
        <ele>10.491745</ele>
        <time>2020-08-28T01:20:05.826Z</time>
      </trkpt>
      <trkpt lat="65.86152" lon="22.29748">
        <ele>10.2688</ele>
        <time>2020-08-28T01:20:10.542Z</time>
      </trkpt>
      <trkpt lat="65.86154" lon="22.29745">
        <ele>10.263949</ele>
        <time>2020-08-28T01:20:10.861Z</time>
      </trkpt>
      <trkpt lat="65.86156" lon="22.29721">
        <ele>10.238627</ele>
        <time>2020-08-28T01:20:12.503Z</time>
      </trkpt>
      <trkpt lat="65.86155" lon="22.29713">
        <ele>10.22974</ele>
        <time>2020-08-28T01:20:13.093Z</time>
      </trkpt>
      <trkpt lat="65.86152" lon="22.29707">
        <ele>10.221911</ele>
        <time>2020-08-28T01:20:13.616Z</time>
      </trkpt>
      <trkpt lat="65.8614" lon="22.29707">
        <ele>10.192323</ele>
        <time>2020-08-28T01:20:15.641Z</time>
      </trkpt>
      <trkpt lat="65.86139" lon="22.2971">
        <ele>10.187985</ele>
        <time>2020-08-28T01:20:15.925Z</time>
      </trkpt>
      <trkpt lat="65.86138" lon="22.29712">
        <ele>10.184283</ele>
        <time>2020-08-28T01:20:16.174Z</time>
      </trkpt>
      <trkpt lat="65.86136" lon="22.29734">
        <ele>10.161414</ele>
        <time>2020-08-28T01:20:17.722Z</time>
      </trkpt>
      <trkpt lat="65.86138" lon="22.29742">
        <ele>10.152526</ele>
        <time>2020-08-28T01:20:18.285Z</time>
      </trkpt>
      <trkpt lat="65.86134" lon="22.29755">
        <ele>10.136641</ele>
        <time>2020-08-28T01:20:19.401Z</time>
      </trkpt>
      <trkpt lat="65.86129" lon="22.2979">
        <ele>10.098653</ele>
        <time>2020-08-28T01:20:22.224Z</time>
      </trkpt>
      <trkpt lat="65.86128" lon="22.29813">
        <ele>10.075502</ele>
        <time>2020-08-28T01:20:23.941Z</time>
      </trkpt>
      <trkpt lat="65.86122" lon="22.29812">
        <ele>10.061603</ele>
        <time>2020-08-28T01:20:24.903Z</time>
      </trkpt>
      <trkpt lat="65.86056" lon="22.29613">
        <ele>9.857532</ele>
        <time>2020-08-28T01:20:44.267Z</time>
      </trkpt>
      <trkpt lat="65.85958" lon="22.29404">
        <ele>9.994581</ele>
        <time>2020-08-28T01:21:08.886Z</time>
      </trkpt>
      <trkpt lat="65.85938" lon="22.29366">
        <ele>10.020722</ele>
        <time>2020-08-28T01:21:13.673Z</time>
      </trkpt>
      <trkpt lat="65.85914" lon="22.29319">
        <ele>10.094384</ele>
        <time>2020-08-28T01:21:19.607Z</time>
      </trkpt>
      <trkpt lat="65.85904" lon="22.29294">
        <ele>10.13915</ele>
        <time>2020-08-28T01:21:22.531Z</time>
      </trkpt>
      <trkpt lat="65.85902" lon="22.29286">
        <ele>10.150617</ele>
        <time>2020-08-28T01:21:23.305Z</time>
      </trkpt>
      <trkpt lat="65.85901" lon="22.29231">
        <ele>10.217813</ele>
        <time>2020-08-28T01:21:27.685Z</time>
      </trkpt>
      <trkpt lat="65.85878" lon="22.29185">
        <ele>10.304509</ele>
        <time>2020-08-28T01:21:33.389Z</time>
      </trkpt>
      <trkpt lat="65.85855" lon="22.29147">
        <ele>10.388918</ele>
        <time>2020-08-28T01:21:38.937Z</time>
      </trkpt>
      <trkpt lat="65.85856" lon="22.29139">
        <ele>10.399336</ele>
        <time>2020-08-28T01:21:39.768Z</time>
      </trkpt>
      <trkpt lat="65.85822" lon="22.29096">
        <ele>10.514294</ele>
        <time>2020-08-28T01:21:47.028Z</time>
      </trkpt>
      <trkpt lat="65.8577" lon="22.29024">
        <ele>10.527521</ele>
        <time>2020-08-28T01:21:58.346Z</time>
      </trkpt>
      <trkpt lat="65.85749" lon="22.28994">
        <ele>10.504034</ele>
        <time>2020-08-28T01:22:02.961Z</time>
      </trkpt>
      <trkpt lat="65.85728" lon="22.2896">
        <ele>10.480547</ele>
        <time>2020-08-28T01:22:07.525Z</time>
      </trkpt>
      <trkpt lat="65.85708" lon="22.28925">
        <ele>10.456918</ele>
        <time>2020-08-28T01:22:11.971Z</time>
      </trkpt>
      <trkpt lat="65.85691" lon="22.28894">
        <ele>10.43645</ele>
        <time>2020-08-28T01:22:15.597Z</time>
      </trkpt>
      <trkpt lat="65.85692" lon="22.28887">
        <ele>10.433593</ele>
        <time>2020-08-28T01:22:16.127Z</time>
      </trkpt>
      <trkpt lat="65.8569" lon="22.28865">
        <ele>10.424625</ele>
        <time>2020-08-28T01:22:17.745Z</time>
      </trkpt>
      <trkpt lat="65.85688" lon="22.28862">
        <ele>10.422724</ele>
        <time>2020-08-28T01:22:18.042Z</time>
      </trkpt>
      <trkpt lat="65.85687" lon="22.2886">
        <ele>10.42146</ele>
        <time>2020-08-28T01:22:18.232Z</time>
      </trkpt>
      <trkpt lat="65.85684" lon="22.28858">
        <ele>10.418377</ele>
        <time>2020-08-28T01:22:18.722Z</time>
      </trkpt>
      <trkpt lat="65.85678" lon="22.28862">
        <ele>10.412283</ele>
        <time>2020-08-28T01:22:19.774Z</time>
      </trkpt>
      <trkpt lat="65.85675" lon="22.28867">
        <ele>10.409142</ele>
        <time>2020-08-28T01:22:20.346Z</time>
      </trkpt>
      <trkpt lat="65.85673" lon="22.28861">
        <ele>10.406088</ele>
        <time>2020-08-28T01:22:20.895Z</time>
      </trkpt>
      <trkpt lat="65.85662" lon="22.28838">
        <ele>10.322255</ele>
        <time>2020-08-28T01:22:23.455Z</time>
      </trkpt>
      <trkpt lat="65.8564" lon="22.28784">
        <ele>9.806876</ele>
        <time>2020-08-28T01:22:28.182Z</time>
      </trkpt>
      <trkpt lat="65.85629" lon="22.28755">
        <ele>9.534196</ele>
        <time>2020-08-28T01:22:30.570Z</time>
      </trkpt>
      <trkpt lat="65.85623" lon="22.28735">
        <ele>9.363091</ele>
        <time>2020-08-28T01:22:32.094Z</time>
      </trkpt>
      <trkpt lat="65.85614" lon="22.28705">
        <ele>9.112162</ele>
        <time>2020-08-28T01:22:34.330Z</time>
      </trkpt>
      <trkpt lat="65.85609" lon="22.28686">
        <ele>8.954083</ele>
        <time>2020-08-28T01:22:35.604Z</time>
      </trkpt>
      <trkpt lat="65.85576" lon="22.28535">
        <ele>7.793147</ele>
        <time>2020-08-28T01:22:45.393Z</time>
      </trkpt>
      <trkpt lat="65.85566" lon="22.28489">
        <ele>7.430785</ele>
        <time>2020-08-28T01:22:48.424Z</time>
      </trkpt>
      <trkpt lat="65.85549" lon="22.28408">
        <ele>6.82696</ele>
        <time>2020-08-28T01:22:53.615Z</time>
      </trkpt>
      <trkpt lat="65.85535" lon="22.28348">
        <ele>6.370333</ele>
        <time>2020-08-28T01:22:57.519Z</time>
      </trkpt>
      <trkpt lat="65.85529" lon="22.28325">
        <ele>6.191697</ele>
        <time>2020-08-28T01:22:59.117Z</time>
      </trkpt>
      <trkpt lat="65.85492" lon="22.28195">
        <ele>5.138187</ele>
        <time>2020-08-28T01:23:08.528Z</time>
      </trkpt>
      <trkpt lat="65.85455" lon="22.28091">
        <ele>4.450664</ele>
        <time>2020-08-28T01:23:17.275Z</time>
      </trkpt>
      <trkpt lat="65.85415" lon="22.28003">
        <ele>4.362906</ele>
        <time>2020-08-28T01:23:26.333Z</time>
      </trkpt>
      <trkpt lat="65.85353" lon="22.27885">
        <ele>4.231903</ele>
        <time>2020-08-28T01:23:40.457Z</time>
      </trkpt>
      <trkpt lat="65.85294" lon="22.278">
        <ele>4.601908</ele>
        <time>2020-08-28T01:23:53.336Z</time>
      </trkpt>
      <trkpt lat="65.85235" lon="22.27727">
        <ele>5.364426</ele>
        <time>2020-08-28T01:24:07.271Z</time>
      </trkpt>
      <trkpt lat="65.85185" lon="22.27666">
        <ele>6.003531</ele>
        <time>2020-08-28T01:24:20.033Z</time>
      </trkpt>
      <trkpt lat="65.85123" lon="22.27595">
        <ele>7.111966</ele>
        <time>2020-08-28T01:24:36.542Z</time>
      </trkpt>
      <trkpt lat="65.85037" lon="22.27504">
        <ele>8.809277</ele>
        <time>2020-08-28T01:24:59.134Z</time>
      </trkpt>
      <trkpt lat="65.85027" lon="22.27557">
        <ele>9.248925</ele>
        <time>2020-08-28T01:25:04.791Z</time>
      </trkpt>
      <trkpt lat="65.85013" lon="22.2763">
        <ele>9.658146</ele>
        <time>2020-08-28T01:25:12.256Z</time>
      </trkpt>
      <trkpt lat="65.85001" lon="22.27699">
        <ele>9.894176</ele>
        <time>2020-08-28T01:25:18.979Z</time>
      </trkpt>
      <trkpt lat="65.84979" lon="22.27816">
        <ele>10.294811</ele>
        <time>2020-08-28T01:25:29.818Z</time>
      </trkpt>
      <trkpt lat="65.84958" lon="22.27928">
        <ele>10.680103</ele>
        <time>2020-08-28T01:25:39.235Z</time>
      </trkpt>
      <trkpt lat="65.84943" lon="22.28028">
        <ele>10.922129</ele>
        <time>2020-08-28T01:25:47.278Z</time>
      </trkpt>
      <trkpt lat="65.84936" lon="22.28071">
        <ele>10.953325</ele>
        <time>2020-08-28T01:25:50.764Z</time>
      </trkpt>
      <trkpt lat="65.84925" lon="22.28137">
        <ele>11.001842</ele>
        <time>2020-08-28T01:25:56.181Z</time>
      </trkpt>
      <trkpt lat="65.84904" lon="22.28263">
        <ele>11.093744</ele>
        <time>2020-08-28T01:26:06.351Z</time>
      </trkpt>
      <trkpt lat="65.84887" lon="22.28374">
        <ele>11.174184</ele>
        <time>2020-08-28T01:26:15.282Z</time>
      </trkpt>
      <trkpt lat="65.84876" lon="22.28443">
        <ele>11.237048</ele>
        <time>2020-08-28T01:26:20.829Z</time>
      </trkpt>
      <trkpt lat="65.84824" lon="22.28655">
        <ele>11.478616</ele>
        <time>2020-08-28T01:26:39.596Z</time>
      </trkpt>
      <trkpt lat="65.84804" lon="22.28727">
        <ele>11.56409</ele>
        <time>2020-08-28T01:26:46.406Z</time>
      </trkpt>
      <trkpt lat="65.84792" lon="22.28774">
        <ele>11.617436</ele>
        <time>2020-08-28T01:26:50.596Z</time>
      </trkpt>
      <trkpt lat="65.84775" lon="22.28921">
        <ele>12.056912</ele>
        <time>2020-08-28T01:27:02.384Z</time>
      </trkpt>
      <trkpt lat="65.84754" lon="22.29002">
        <ele>12.342792</ele>
        <time>2020-08-28T01:27:09.917Z</time>
      </trkpt>
      <trkpt lat="65.84671" lon="22.29119">
        <ele>13.209961</ele>
        <time>2020-08-28T01:27:30.136Z</time>
      </trkpt>
      <trkpt lat="65.84657" lon="22.29126">
        <ele>13.480433</ele>
        <time>2020-08-28T01:27:33.296Z</time>
      </trkpt>
      <trkpt lat="65.84618" lon="22.29118">
        <ele>14.21394</ele>
        <time>2020-08-28T01:27:42.350Z</time>
      </trkpt>
      <trkpt lat="65.84612" lon="22.2912">
        <ele>14.344168</ele>
        <time>2020-08-28T01:27:44.124Z</time>
      </trkpt>
      <trkpt lat="65.84592" lon="22.29127">
        <ele>14.711805</ele>
        <time>2020-08-28T01:27:48.717Z</time>
      </trkpt>
      <trkpt lat="65.84526" lon="22.29168">
        <ele>16.003691</ele>
        <time>2020-08-28T01:28:05.753Z</time>
      </trkpt>
      <trkpt lat="65.84499" lon="22.29167">
        <ele>16.515068</ele>
        <time>2020-08-28T01:28:12.782Z</time>
      </trkpt>
      <trkpt lat="65.84469" lon="22.29166">
        <ele>17.086989</ele>
        <time>2020-08-28T01:28:20.564Z</time>
      </trkpt>
      <trkpt lat="65.84452" lon="22.29176">
        <ele>17.427998</ele>
        <time>2020-08-28T01:28:25.086Z</time>
      </trkpt>
      <trkpt lat="65.84433" lon="22.29198">
        <ele>17.816547</ele>
        <time>2020-08-28T01:28:30.172Z</time>
      </trkpt>
      <trkpt lat="65.84385" lon="22.29283">
        <ele>18.936792</ele>
        <time>2020-08-28T01:28:44.145Z</time>
      </trkpt>
      <trkpt lat="65.84361" lon="22.29319">
        <ele>19.482136</ele>
        <time>2020-08-28T01:28:50.713Z</time>
      </trkpt>
      <trkpt lat="65.84324" lon="22.2937">
        <ele>19.907505</ele>
        <time>2020-08-28T01:28:59.911Z</time>
      </trkpt>
      <trkpt lat="65.84268" lon="22.29427">
        <ele>20.268974</ele>
        <time>2020-08-28T01:29:12.142Z</time>
      </trkpt>
      <trkpt lat="65.8405" lon="22.2966">
        <ele>20.9002</ele>
        <time>2020-08-28T01:29:55.693Z</time>
      </trkpt>
      <trkpt lat="65.84012" lon="22.29688">
        <ele>20.907668</ele>
        <time>2020-08-28T01:30:02.753Z</time>
      </trkpt>
      <trkpt lat="65.83961" lon="22.29708">
        <ele>20.833498</ele>
        <time>2020-08-28T01:30:11.675Z</time>
      </trkpt>
      <trkpt lat="65.83946" lon="22.29726">
        <ele>20.809577</ele>
        <time>2020-08-28T01:30:14.536Z</time>
      </trkpt>
      <trkpt lat="65.83904" lon="22.29779">
        <ele>20.74099</ele>
        <time>2020-08-28T01:30:22.721Z</time>
      </trkpt>
      <trkpt lat="65.83847" lon="22.2988">
        <ele>20.650403</ele>
        <time>2020-08-28T01:30:34.840Z</time>
      </trkpt>
      <trkpt lat="65.83782" lon="22.3005">
        <ele>20.590068</ele>
        <time>2020-08-28T01:30:51.536Z</time>
      </trkpt>
      <trkpt lat="65.83661" lon="22.30316">
        <ele>20.633691</ele>
        <time>2020-08-28T01:31:20.952Z</time>
      </trkpt>
      <trkpt lat="65.8356" lon="22.3058">
        <ele>20.753325</ele>
        <time>2020-08-28T01:31:47.953Z</time>
      </trkpt>
      <trkpt lat="65.83495" lon="22.30781">
        <ele>20.81514</ele>
        <time>2020-08-28T01:32:06.775Z</time>
      </trkpt>
      <trkpt lat="65.83455" lon="22.30845">
        <ele>20.752466</ele>
        <time>2020-08-28T01:32:15.324Z</time>
      </trkpt>
      <trkpt lat="65.83352" lon="22.3096">
        <ele>20.508576</ele>
        <time>2020-08-28T01:32:34.658Z</time>
      </trkpt>
      <trkpt lat="65.83269" lon="22.31167">
        <ele>20.005443</ele>
        <time>2020-08-28T01:32:54.495Z</time>
      </trkpt>
      <trkpt lat="65.83198" lon="22.3139">
        <ele>19.366631</ele>
        <time>2020-08-28T01:33:13.486Z</time>
      </trkpt>
      <trkpt lat="65.83174" lon="22.31444">
        <ele>19.125413</ele>
        <time>2020-08-28T01:33:18.720Z</time>
      </trkpt>
      <trkpt lat="65.83139" lon="22.31504">
        <ele>18.811895</ele>
        <time>2020-08-28T01:33:25.475Z</time>
      </trkpt>
      <trkpt lat="65.83029" lon="22.31605">
        <ele>17.950973</ele>
        <time>2020-08-28T01:33:44.111Z</time>
      </trkpt>
      <trkpt lat="65.82963" lon="22.31688">
        <ele>17.421883</ele>
        <time>2020-08-28T01:33:55.967Z</time>
      </trkpt>
      <trkpt lat="65.82872" lon="22.31882">
        <ele>16.843959</ele>
        <time>2020-08-28T01:34:15.693Z</time>
      </trkpt>
      <trkpt lat="65.82826" lon="22.32007">
        <ele>16.747882</ele>
        <time>2020-08-28T01:34:27.587Z</time>
      </trkpt>
      <trkpt lat="65.82782" lon="22.32075">
        <ele>16.673639</ele>
        <time>2020-08-28T01:34:37.132Z</time>
      </trkpt>
      <trkpt lat="65.82762" lon="22.32094">
        <ele>16.697368</ele>
        <time>2020-08-28T01:34:41.008Z</time>
      </trkpt>
      <trkpt lat="65.82734" lon="22.32122">
        <ele>16.802282</ele>
        <time>2020-08-28T01:34:46.784Z</time>
      </trkpt>
      <trkpt lat="65.82681" lon="22.3212">
        <ele>16.985239</ele>
        <time>2020-08-28T01:34:56.970Z</time>
      </trkpt>
      <trkpt lat="65.82549" lon="22.32085">
        <ele>17.329264</ele>
        <time>2020-08-28T01:35:22.298Z</time>
      </trkpt>
      <trkpt lat="65.82514" lon="22.32067">
        <ele>17.369554</ele>
        <time>2020-08-28T01:35:28.930Z</time>
      </trkpt>
      <trkpt lat="65.82487" lon="22.32038">
        <ele>17.403372</ele>
        <time>2020-08-28T01:35:34.388Z</time>
      </trkpt>
      <trkpt lat="65.8238" lon="22.31867">
        <ele>17.13809</ele>
        <time>2020-08-28T01:35:56.363Z</time>
      </trkpt>
      <trkpt lat="65.82263" lon="22.31645">
        <ele>16.131766</ele>
        <time>2020-08-28T01:36:20.081Z</time>
      </trkpt>
      <trkpt lat="65.82166" lon="22.31432">
        <ele>14.633648</ele>
        <time>2020-08-28T01:36:39.822Z</time>
      </trkpt>
      <trkpt lat="65.82075" lon="22.31287">
        <ele>13.257927</ele>
        <time>2020-08-28T01:36:56.088Z</time>
      </trkpt>
      <trkpt lat="65.82045" lon="22.31215">
        <ele>12.722845</ele>
        <time>2020-08-28T01:37:02.317Z</time>
      </trkpt>
      <trkpt lat="65.81928" lon="22.30805">
        <ele>10.537221</ele>
        <time>2020-08-28T01:37:33.838Z</time>
      </trkpt>
      <trkpt lat="65.81906" lon="22.30714">
        <ele>10.213529</ele>
        <time>2020-08-28T01:37:40.799Z</time>
      </trkpt>
      <trkpt lat="65.81893" lon="22.30652">
        <ele>10.095052</ele>
        <time>2020-08-28T01:37:45.369Z</time>
      </trkpt>
      <trkpt lat="65.81828" lon="22.30325">
        <ele>9.629803</ele>
        <time>2020-08-28T01:38:10.530Z</time>
      </trkpt>
      <trkpt lat="65.81807" lon="22.30223">
        <ele>9.889097</ele>
        <time>2020-08-28T01:38:19.126Z</time>
      </trkpt>
      <trkpt lat="65.81803" lon="22.302">
        <ele>9.946214</ele>
        <time>2020-08-28T01:38:21.048Z</time>
      </trkpt>
      <trkpt lat="65.81718" lon="22.29893">
        <ele>11.256424</ele>
        <time>2020-08-28T01:38:52.536Z</time>
      </trkpt>
      <trkpt lat="65.81692" lon="22.29849">
        <ele>11.771735</ele>
        <time>2020-08-28T01:39:00.187Z</time>
      </trkpt>
      <trkpt lat="65.81666" lon="22.29827">
        <ele>12.206624</ele>
        <time>2020-08-28T01:39:06.711Z</time>
      </trkpt>
      <trkpt lat="65.81623" lon="22.29815">
        <ele>12.896643</ele>
        <time>2020-08-28T01:39:16.924Z</time>
      </trkpt>
      <trkpt lat="65.81561" lon="22.29819">
        <ele>13.89276</ele>
        <time>2020-08-28T01:39:31.697Z</time>
      </trkpt>
      <trkpt lat="65.81516" lon="22.29826">
        <ele>14.619474</ele>
        <time>2020-08-28T01:39:42.233Z</time>
      </trkpt>
      <trkpt lat="65.81393" lon="22.29858">
        <ele>16.543459</ele>
        <time>2020-08-28T01:40:09.979Z</time>
      </trkpt>
      <trkpt lat="65.81141" lon="22.29863">
        <ele>19.742838</ele>
        <time>2020-08-28T01:41:05.304Z</time>
      </trkpt>
      <trkpt lat="65.81066" lon="22.29899">
        <ele>20.663209</ele>
        <time>2020-08-28T01:41:22.166Z</time>
      </trkpt>
      <trkpt lat="65.81015" lon="22.29948">
        <ele>21.015984</ele>
        <time>2020-08-28T01:41:33.605Z</time>
      </trkpt>
      <trkpt lat="65.80992" lon="22.2997">
        <ele>21.134535</ele>
        <time>2020-08-28T01:41:38.483Z</time>
      </trkpt>
      <trkpt lat="65.8095" lon="22.30051">
        <ele>21.387844</ele>
        <time>2020-08-28T01:41:48.490Z</time>
      </trkpt>
      <trkpt lat="65.80914" lon="22.3015">
        <ele>21.640071</ele>
        <time>2020-08-28T01:41:58.466Z</time>
      </trkpt>
      <trkpt lat="65.80869" lon="22.30251">
        <ele>21.922422</ele>
        <time>2020-08-28T01:42:09.531Z</time>
      </trkpt>
      <trkpt lat="65.80839" lon="22.30317">
        <ele>22.106047</ele>
        <time>2020-08-28T01:42:17.106Z</time>
      </trkpt>
      <trkpt lat="65.80804" lon="22.30377">
        <ele>22.299045</ele>
        <time>2020-08-28T01:42:25.426Z</time>
      </trkpt>
      <trkpt lat="65.80753" lon="22.3044">
        <ele>22.642134</ele>
        <time>2020-08-28T01:42:37.377Z</time>
      </trkpt>
      <trkpt lat="65.80557" lon="22.30627">
        <ele>24.233571</ele>
        <time>2020-08-28T01:43:21.788Z</time>
      </trkpt>
      <trkpt lat="65.80419" lon="22.30788">
        <ele>24.366738</ele>
        <time>2020-08-28T01:43:48.186Z</time>
      </trkpt>
      <trkpt lat="65.80251" lon="22.30862">
        <ele>24.018895</ele>
        <time>2020-08-28T01:44:16.660Z</time>
      </trkpt>
      <trkpt lat="65.80208" lon="22.30868">
        <ele>24.273596</ele>
        <time>2020-08-28T01:44:24.859Z</time>
      </trkpt>
      <trkpt lat="65.80141" lon="22.30835">
        <ele>24.671082</ele>
        <time>2020-08-28T01:44:38.505Z</time>
      </trkpt>
      <trkpt lat="65.80106" lon="22.30812">
        <ele>24.882079</ele>
        <time>2020-08-28T01:44:46.075Z</time>
      </trkpt>
      <trkpt lat="65.80018" lon="22.30753">
        <ele>25.696131</ele>
        <time>2020-08-28T01:45:05.895Z</time>
      </trkpt>
      <trkpt lat="65.79953" lon="22.3073">
        <ele>26.335781</ele>
        <time>2020-08-28T01:45:19.904Z</time>
      </trkpt>
      <trkpt lat="65.79908" lon="22.30747">
        <ele>26.774548</ele>
        <time>2020-08-28T01:45:29.393Z</time>
      </trkpt>
      <trkpt lat="65.79867" lon="22.30782">
        <ele>26.790838</ele>
        <time>2020-08-28T01:45:37.697Z</time>
      </trkpt>
      <trkpt lat="65.79824" lon="22.30785">
        <ele>26.80714</ele>
        <time>2020-08-28T01:45:45.609Z</time>
      </trkpt>
      <trkpt lat="65.79808" lon="22.30774">
        <ele>26.813369</ele>
        <time>2020-08-28T01:45:48.531Z</time>
      </trkpt>
      <trkpt lat="65.79784" lon="22.30732">
        <ele>26.824597</ele>
        <time>2020-08-28T01:45:53.656Z</time>
      </trkpt>
      <trkpt lat="65.79713" lon="22.30552">
        <ele>26.235865</ele>
        <time>2020-08-28T01:46:10.318Z</time>
      </trkpt>
      <trkpt lat="65.79684" lon="22.30504">
        <ele>25.859388</ele>
        <time>2020-08-28T01:46:15.714Z</time>
      </trkpt>
      <trkpt lat="65.79652" lon="22.30473">
        <ele>25.4858</ele>
        <time>2020-08-28T01:46:20.992Z</time>
      </trkpt>
      <trkpt lat="65.79503" lon="22.30452">
        <ele>23.260352</ele>
        <time>2020-08-28T01:46:42.945Z</time>
      </trkpt>
      <trkpt lat="65.79436" lon="22.30468">
        <ele>22.111621</ele>
        <time>2020-08-28T01:46:52.457Z</time>
      </trkpt>
      <trkpt lat="65.79331" lon="22.30541">
        <ele>19.812967</ele>
        <time>2020-08-28T01:47:07.754Z</time>
      </trkpt>
      <trkpt lat="65.79263" lon="22.30607">
        <ele>18.221498</ele>
        <time>2020-08-28T01:47:17.882Z</time>
      </trkpt>
      <trkpt lat="65.79137" lon="22.30773">
        <ele>15.33808</ele>
        <time>2020-08-28T01:47:37.806Z</time>
      </trkpt>
      <trkpt lat="65.79093" lon="22.30773">
        <ele>14.44117</ele>
        <time>2020-08-28T01:47:44.274Z</time>
      </trkpt>
      <trkpt lat="65.79058" lon="22.30725">
        <ele>13.867119</ele>
        <time>2020-08-28T01:47:50.010Z</time>
      </trkpt>
      <trkpt lat="65.79018" lon="22.30646">
        <ele>13.172423</ele>
        <time>2020-08-28T01:47:57.812Z</time>
      </trkpt>
      <trkpt lat="65.78997" lon="22.30593">
        <ele>12.769672</ele>
        <time>2020-08-28T01:48:02.361Z</time>
      </trkpt>
      <trkpt lat="65.78989" lon="22.30571">
        <ele>12.607727</ele>
        <time>2020-08-28T01:48:04.223Z</time>
      </trkpt>
      <trkpt lat="65.78981" lon="22.30547">
        <ele>12.436486</ele>
        <time>2020-08-28T01:48:06.105Z</time>
      </trkpt>
      <trkpt lat="65.78935" lon="22.30359">
        <ele>11.397003</ele>
        <time>2020-08-28T01:48:19.910Z</time>
      </trkpt>
      <trkpt lat="65.78885" lon="22.30243">
        <ele>10.689035</ele>
        <time>2020-08-28T01:48:30.377Z</time>
      </trkpt>
      <trkpt lat="65.78826" lon="22.30138">
        <ele>10.029054</ele>
        <time>2020-08-28T01:48:41.875Z</time>
      </trkpt>
      <trkpt lat="65.78776" lon="22.30077">
        <ele>9.872029</ele>
        <time>2020-08-28T01:48:50.996Z</time>
      </trkpt>
      <trkpt lat="65.78645" lon="22.29888">
        <ele>9.648545</ele>
        <time>2020-08-28T01:49:18.045Z</time>
      </trkpt>
      <trkpt lat="65.78606" lon="22.29805">
        <ele>9.765482</ele>
        <time>2020-08-28T01:49:27.856Z</time>
      </trkpt>
      <trkpt lat="65.78564" lon="22.29712">
        <ele>9.895899</ele>
        <time>2020-08-28T01:49:38.713Z</time>
      </trkpt>
      <trkpt lat="65.78536" lon="22.2967">
        <ele>9.968101</ele>
        <time>2020-08-28T01:49:44.796Z</time>
      </trkpt>
      <trkpt lat="65.78511" lon="22.29659">
        <ele>9.985735</ele>
        <time>2020-08-28T01:49:49.496Z</time>
      </trkpt>
      <trkpt lat="65.78489" lon="22.29655">
        <ele>10.001142</ele>
        <time>2020-08-28T01:49:53.609Z</time>
      </trkpt>
      <trkpt lat="65.78436" lon="22.29674">
        <ele>10.037823</ele>
        <time>2020-08-28T01:50:03.155Z</time>
      </trkpt>
      <trkpt lat="65.7842" lon="22.29667">
        <ele>10.04908</ele>
        <time>2020-08-28T01:50:06.075Z</time>
      </trkpt>
      <trkpt lat="65.78408" lon="22.29662">
        <ele>10.057454</ele>
        <time>2020-08-28T01:50:08.179Z</time>
      </trkpt>
      <trkpt lat="65.78359" lon="22.2961">
        <ele>10.094623</ele>
        <time>2020-08-28T01:50:17.753Z</time>
      </trkpt>
      <trkpt lat="65.78317" lon="22.29527">
        <ele>10.130717</ele>
        <time>2020-08-28T01:50:27.269Z</time>
      </trkpt>
      <trkpt lat="65.78296" lon="22.29468">
        <ele>10.152018</ele>
        <time>2020-08-28T01:50:32.951Z</time>
      </trkpt>
      <trkpt lat="65.78249" lon="22.29235">
        <ele>10.319856</ele>
        <time>2020-08-28T01:50:52.499Z</time>
      </trkpt>
      <trkpt lat="65.78194" lon="22.29085">
        <ele>10.839233</ele>
        <time>2020-08-28T01:51:08.432Z</time>
      </trkpt>
      <trkpt lat="65.78172" lon="22.29">
        <ele>11.100427</ele>
        <time>2020-08-28T01:51:16.838Z</time>
      </trkpt>
      <trkpt lat="65.78163" lon="22.2894">
        <ele>11.265063</ele>
        <time>2020-08-28T01:51:22.286Z</time>
      </trkpt>
      <trkpt lat="65.78161" lon="22.28877">
        <ele>11.491765</ele>
        <time>2020-08-28T01:51:27.806Z</time>
      </trkpt>
      <trkpt lat="65.78171" lon="22.28723">
        <ele>12.197311</ele>
        <time>2020-08-28T01:51:41.572Z</time>
      </trkpt>
      <trkpt lat="65.78168" lon="22.28665">
        <ele>12.464176</ele>
        <time>2020-08-28T01:51:46.854Z</time>
      </trkpt>
      <trkpt lat="65.78154" lon="22.28567">
        <ele>12.934122</ele>
        <time>2020-08-28T01:51:56.136Z</time>
      </trkpt>
      <trkpt lat="65.78096" lon="22.283">
        <ele>13.921755</ele>
        <time>2020-08-28T01:52:22.150Z</time>
      </trkpt>
      <trkpt lat="65.78062" lon="22.2822">
        <ele>14.237425</ele>
        <time>2020-08-28T01:52:31.362Z</time>
      </trkpt>
      <trkpt lat="65.77929" lon="22.28153">
        <ele>14.654737</ele>
        <time>2020-08-28T01:52:56.217Z</time>
      </trkpt>
      <trkpt lat="65.77826" lon="22.28072">
        <ele>14.737398</ele>
        <time>2020-08-28T01:53:15.974Z</time>
      </trkpt>
      <trkpt lat="65.77808" lon="22.28058">
        <ele>14.707385</ele>
        <time>2020-08-28T01:53:19.307Z</time>
      </trkpt>
      <trkpt lat="65.77791" lon="22.28033">
        <ele>14.676092</ele>
        <time>2020-08-28T01:53:22.796Z</time>
      </trkpt>
      <trkpt lat="65.77774" lon="22.27987">
        <ele>14.636124</ele>
        <time>2020-08-28T01:53:27.314Z</time>
      </trkpt>
      <trkpt lat="65.77737" lon="22.27859">
        <ele>14.53412</ele>
        <time>2020-08-28T01:53:38.260Z</time>
      </trkpt>
      <trkpt lat="65.77725" lon="22.27844">
        <ele>14.512202</ele>
        <time>2020-08-28T01:53:40.720Z</time>
      </trkpt>
      <trkpt lat="65.77721" lon="22.27839">
        <ele>14.504773</ele>
        <time>2020-08-28T01:53:41.418Z</time>
      </trkpt>
      <trkpt lat="65.77682" lon="22.27837">
        <ele>14.374636</ele>
        <time>2020-08-28T01:53:47.919Z</time>
      </trkpt>
      <trkpt lat="65.77624" lon="22.27845">
        <ele>14.12258</ele>
        <time>2020-08-28T01:53:57.838Z</time>
      </trkpt>
      <trkpt lat="65.77589" lon="22.27833">
        <ele>13.971241</ele>
        <time>2020-08-28T01:54:03.695Z</time>
      </trkpt>
      <trkpt lat="65.77568" lon="22.27814">
        <ele>13.873332</ele>
        <time>2020-08-28T01:54:07.407Z</time>
      </trkpt>
      <trkpt lat="65.77548" lon="22.27782">
        <ele>13.768023</ele>
        <time>2020-08-28T01:54:11.358Z</time>
      </trkpt>
      <trkpt lat="65.77509" lon="22.27724">
        <ele>13.522999</ele>
        <time>2020-08-28T01:54:18.678Z</time>
      </trkpt>
      <trkpt lat="65.77482" lon="22.27681">
        <ele>13.330354</ele>
        <time>2020-08-28T01:54:23.930Z</time>
      </trkpt>
      <trkpt lat="65.7746" lon="22.27668">
        <ele>13.194299</ele>
        <time>2020-08-28T01:54:27.640Z</time>
      </trkpt>
      <trkpt lat="65.77422" lon="22.27663">
        <ele>12.966838</ele>
        <time>2020-08-28T01:54:33.915Z</time>
      </trkpt>
      <trkpt lat="65.77377" lon="22.27657">
        <ele>12.696981</ele>
        <time>2020-08-28T01:54:41.341Z</time>
      </trkpt>
      <trkpt lat="65.77343" lon="22.27652">
        <ele>12.464843</ele>
        <time>2020-08-28T01:54:46.713Z</time>
      </trkpt>
      <trkpt lat="65.77287" lon="22.27615">
        <ele>12.035038</ele>
        <time>2020-08-28T01:54:55.847Z</time>
      </trkpt>
      <trkpt lat="65.77256" lon="22.27565">
        <ele>11.766171</ele>
        <time>2020-08-28T01:55:01.622Z</time>
      </trkpt>
      <trkpt lat="65.77233" lon="22.2752">
        <ele>11.549015</ele>
        <time>2020-08-28T01:55:06.355Z</time>
      </trkpt>
      <trkpt lat="65.77221" lon="22.27475">
        <ele>11.387113</ele>
        <time>2020-08-28T01:55:09.913Z</time>
      </trkpt>
      <trkpt lat="65.77214" lon="22.2745">
        <ele>11.307482</ele>
        <time>2020-08-28T01:55:11.943Z</time>
      </trkpt>
      <trkpt lat="65.77202" lon="22.2737">
        <ele>11.259313</ele>
        <time>2020-08-28T01:55:17.720Z</time>
      </trkpt>
      <trkpt lat="65.77187" lon="22.27294">
        <ele>11.21125</ele>
        <time>2020-08-28T01:55:23.562Z</time>
      </trkpt>
      <trkpt lat="65.77171" lon="22.2722">
        <ele>11.164342</ele>
        <time>2020-08-28T01:55:29.462Z</time>
      </trkpt>
      <trkpt lat="65.77168" lon="22.27188">
        <ele>11.14614</ele>
        <time>2020-08-28T01:55:31.799Z</time>
      </trkpt>
      <trkpt lat="65.77163" lon="22.27137">
        <ele>11.116377</ele>
        <time>2020-08-28T01:55:35.754Z</time>
      </trkpt>
      <trkpt lat="65.77163" lon="22.27069">
        <ele>11.077666</ele>
        <time>2020-08-28T01:55:40.977Z</time>
      </trkpt>
      <trkpt lat="65.7717" lon="22.26986">
        <ele>11.21545</ele>
        <time>2020-08-28T01:55:47.554Z</time>
      </trkpt>
      <trkpt lat="65.77187" lon="22.26924">
        <ele>11.409955</ele>
        <time>2020-08-28T01:55:53.653Z</time>
      </trkpt>
      <trkpt lat="65.77221" lon="22.26848">
        <ele>11.705414</ele>
        <time>2020-08-28T01:56:03.087Z</time>
      </trkpt>
      <trkpt lat="65.77279" lon="22.26764">
        <ele>12.13793</ele>
        <time>2020-08-28T01:56:16.685Z</time>
      </trkpt>
      <trkpt lat="65.77284" lon="22.26746">
        <ele>12.192189</ele>
        <time>2020-08-28T01:56:18.604Z</time>
      </trkpt>
      <trkpt lat="65.77293" lon="22.26709">
        <ele>12.271284</ele>
        <time>2020-08-28T01:56:22.130Z</time>
      </trkpt>
      <trkpt lat="65.77298" lon="22.26645">
        <ele>12.375613</ele>
        <time>2020-08-28T01:56:27.609Z</time>
      </trkpt>
      <trkpt lat="65.773" lon="22.26616">
        <ele>12.421749</ele>
        <time>2020-08-28T01:56:29.885Z</time>
      </trkpt>
      <trkpt lat="65.77298" lon="22.26558">
        <ele>12.514441</ele>
        <time>2020-08-28T01:56:34.631Z</time>
      </trkpt>
      <trkpt lat="65.77297" lon="22.26514">
        <ele>12.585846</ele>
        <time>2020-08-28T01:56:38.036Z</time>
      </trkpt>
      <trkpt lat="65.7729" lon="22.26283">
        <ele>12.884198</ele>
        <time>2020-08-28T01:56:55.667Z</time>
      </trkpt>
      <trkpt lat="65.77293" lon="22.26238">
        <ele>12.830518</ele>
        <time>2020-08-28T01:56:59.005Z</time>
      </trkpt>
      <trkpt lat="65.77299" lon="22.26149">
        <ele>12.725295</ele>
        <time>2020-08-28T01:57:05.473Z</time>
      </trkpt>
      <trkpt lat="65.77297" lon="22.26052">
        <ele>12.612822</ele>
        <time>2020-08-28T01:57:12.287Z</time>
      </trkpt>
      <trkpt lat="65.77297" lon="22.26026">
        <ele>12.582582</ele>
        <time>2020-08-28T01:57:14.066Z</time>
      </trkpt>
      <trkpt lat="65.77275" lon="22.25813">
        <ele>12.058087</ele>
        <time>2020-08-28T01:57:28.815Z</time>
      </trkpt>
      <trkpt lat="65.77269" lon="22.25754">
        <ele>11.741641</ele>
        <time>2020-08-28T01:57:32.706Z</time>
      </trkpt>
      <trkpt lat="65.77269" lon="22.25683">
        <ele>11.373995</ele>
        <time>2020-08-28T01:57:37.163Z</time>
      </trkpt>
      <trkpt lat="65.77273" lon="22.25616">
        <ele>11.02217</ele>
        <time>2020-08-28T01:57:41.376Z</time>
      </trkpt>
      <trkpt lat="65.77281" lon="22.25511">
        <ele>10.465026</ele>
        <time>2020-08-28T01:57:47.842Z</time>
      </trkpt>
      <trkpt lat="65.77286" lon="22.25441">
        <ele>10.078302</ele>
        <time>2020-08-28T01:57:51.965Z</time>
      </trkpt>
      <trkpt lat="65.77291" lon="22.25377">
        <ele>9.517364</ele>
        <time>2020-08-28T01:57:55.693Z</time>
      </trkpt>
      <trkpt lat="65.77302" lon="22.25232">
        <ele>8.250449</ele>
        <time>2020-08-28T01:58:04.094Z</time>
      </trkpt>
      <trkpt lat="65.77302" lon="22.25215">
        <ele>8.101598</ele>
        <time>2020-08-28T01:58:05.037Z</time>
      </trkpt>
      <trkpt lat="65.77308" lon="22.25005">
        <ele>6.333962</ele>
        <time>2020-08-28T01:58:17.097Z</time>
      </trkpt>
      <trkpt lat="65.7731" lon="22.24943">
        <ele>6.131404</ele>
        <time>2020-08-28T01:58:20.754Z</time>
      </trkpt>
      <trkpt lat="65.77316" lon="22.24814">
        <ele>5.709524</ele>
        <time>2020-08-28T01:58:28.768Z</time>
      </trkpt>
      <trkpt lat="65.77319" lon="22.24784">
        <ele>5.607261</ele>
        <time>2020-08-28T01:58:30.757Z</time>
      </trkpt>
      <trkpt lat="65.77323" lon="22.24753">
        <ele>5.503347</ele>
        <time>2020-08-28T01:58:32.911Z</time>
      </trkpt>
      <trkpt lat="65.77338" lon="22.24695">
        <ele>5.280643</ele>
        <time>2020-08-28T01:58:37.669Z</time>
      </trkpt>
      <trkpt lat="65.77343" lon="22.24674">
        <ele>5.200385</ele>
        <time>2020-08-28T01:58:39.518Z</time>
      </trkpt>
      <trkpt lat="65.77388" lon="22.24507">
        <ele>5.079385</ele>
        <time>2020-08-28T01:58:55.293Z</time>
      </trkpt>
      <trkpt lat="65.77407" lon="22.24406">
        <ele>5.223005</ele>
        <time>2020-08-28T01:59:04.303Z</time>
      </trkpt>
      <trkpt lat="65.77422" lon="22.24329">
        <ele>5.331202</ele>
        <time>2020-08-28T01:59:11.047Z</time>
      </trkpt>
      <trkpt lat="65.7744" lon="22.24233">
        <ele>5.466528</ele>
        <time>2020-08-28T01:59:19.189Z</time>
      </trkpt>
      <trkpt lat="65.77456" lon="22.24132">
        <ele>5.323361</ele>
        <time>2020-08-28T01:59:26.934Z</time>
      </trkpt>
      <trkpt lat="65.77495" lon="22.23881">
        <ele>4.809504</ele>
        <time>2020-08-28T01:59:44.867Z</time>
      </trkpt>
      <trkpt lat="65.77503" lon="22.23791">
        <ele>4.627234</ele>
        <time>2020-08-28T01:59:50.877Z</time>
      </trkpt>
      <trkpt lat="65.77501" lon="22.23446">
        <ele>3.830763</ele>
        <time>2020-08-28T02:00:13.671Z</time>
      </trkpt>
      <trkpt lat="65.77537" lon="22.23199">
        <ele>3.604795</ele>
        <time>2020-08-28T02:00:32.253Z</time>
      </trkpt>
      <trkpt lat="65.77572" lon="22.22983">
        <ele>3.55999</ele>
        <time>2020-08-28T02:00:49.489Z</time>
      </trkpt>
      <trkpt lat="65.77583" lon="22.22916">
        <ele>3.592693</ele>
        <time>2020-08-28T02:00:54.943Z</time>
      </trkpt>
      <trkpt lat="65.77615" lon="22.22804">
        <ele>3.705566</ele>
        <time>2020-08-28T02:01:05.354Z</time>
      </trkpt>
      <trkpt lat="65.77715" lon="22.22537">
        <ele>4.038284</ele>
        <time>2020-08-28T02:01:32.997Z</time>
      </trkpt>
      <trkpt lat="65.77734" lon="22.22474">
        <ele>4.12649</ele>
        <time>2020-08-28T02:01:38.937Z</time>
      </trkpt>
      <trkpt lat="65.77761" lon="22.22295">
        <ele>4.341345</ele>
        <time>2020-08-28T02:01:53.511Z</time>
      </trkpt>
      <trkpt lat="65.77774" lon="22.21847">
        <ele>5.017284</ele>
        <time>2020-08-28T02:02:28.675Z</time>
      </trkpt>
      <trkpt lat="65.77773" lon="22.21681">
        <ele>5.266377</ele>
        <time>2020-08-28T02:02:41.723Z</time>
      </trkpt>
      <trkpt lat="65.77764" lon="22.21552">
        <ele>5.459037</ele>
        <time>2020-08-28T02:02:51.965Z</time>
      </trkpt>
      <trkpt lat="65.77746" lon="22.21411">
        <ele>5.676462</ele>
        <time>2020-08-28T02:03:03.427Z</time>
      </trkpt>
      <trkpt lat="65.77699" lon="22.21173">
        <ele>5.953673</ele>
        <time>2020-08-28T02:03:23.644Z</time>
      </trkpt>
      <trkpt lat="65.77673" lon="22.21065">
        <ele>6.073014</ele>
        <time>2020-08-28T02:03:33.104Z</time>
      </trkpt>
      <trkpt lat="65.7767" lon="22.21053">
        <ele>6.086461</ele>
        <time>2020-08-28T02:03:34.171Z</time>
      </trkpt>
      <trkpt lat="65.77651" lon="22.20985">
        <ele>6.164822</ele>
        <time>2020-08-28T02:03:40.397Z</time>
      </trkpt>
      <trkpt lat="65.77643" lon="22.20956">
        <ele>6.19586</ele>
        <time>2020-08-28T02:03:43.147Z</time>
      </trkpt>
      <trkpt lat="65.77456" lon="22.20422">
        <ele>6.777494</ele>
        <time>2020-08-28T02:04:36.543Z</time>
      </trkpt>
      <trkpt lat="65.77378" lon="22.20176">
        <ele>6.931034</ele>
        <time>2020-08-28T02:04:59.817Z</time>
      </trkpt>
      <trkpt lat="65.77318" lon="22.20046">
        <ele>6.981541</ele>
        <time>2020-08-28T02:05:14.262Z</time>
      </trkpt>
      <trkpt lat="65.77197" lon="22.19868">
        <ele>7.000012</ele>
        <time>2020-08-28T02:05:39.503Z</time>
      </trkpt>
      <trkpt lat="65.7716" lon="22.19765">
        <ele>7.000012</ele>
        <time>2020-08-28T02:05:49.587Z</time>
      </trkpt>
      <trkpt lat="65.77152" lon="22.1973">
        <ele>7.000012</ele>
        <time>2020-08-28T02:05:52.489Z</time>
      </trkpt>
      <trkpt lat="65.7715" lon="22.19717">
        <ele>7.000012</ele>
        <time>2020-08-28T02:05:53.539Z</time>
      </trkpt>
      <trkpt lat="65.77139" lon="22.19648">
        <ele>7.000012</ele>
        <time>2020-08-28T02:05:58.972Z</time>
      </trkpt>
      <trkpt lat="65.77134" lon="22.19572">
        <ele>7.000012</ele>
        <time>2020-08-28T02:06:04.601Z</time>
      </trkpt>
      <trkpt lat="65.77136" lon="22.19493">
        <ele>7.000012</ele>
        <time>2020-08-28T02:06:10.394Z</time>
      </trkpt>
      <trkpt lat="65.77144" lon="22.19414">
        <ele>7.000012</ele>
        <time>2020-08-28T02:06:16.356Z</time>
      </trkpt>
      <trkpt lat="65.77153" lon="22.19353">
        <ele>7.000012</ele>
        <time>2020-08-28T02:06:21.153Z</time>
      </trkpt>
      <trkpt lat="65.77164" lon="22.19275">
        <ele>7.000643</ele>
        <time>2020-08-28T02:06:27.223Z</time>
      </trkpt>
      <trkpt lat="65.77172" lon="22.19189">
        <ele>7.001816</ele>
        <time>2020-08-28T02:06:33.666Z</time>
      </trkpt>
      <trkpt lat="65.77172" lon="22.19108">
        <ele>7.002897</ele>
        <time>2020-08-28T02:06:39.596Z</time>
      </trkpt>
      <trkpt lat="65.77158" lon="22.18963">
        <ele>7.004886</ele>
        <time>2020-08-28T02:06:50.517Z</time>
      </trkpt>
      <trkpt lat="65.77149" lon="22.18799">
        <ele>7.027773</ele>
        <time>2020-08-28T02:07:02.637Z</time>
      </trkpt>
      <trkpt lat="65.77144" lon="22.1817">
        <ele>7.292128</ele>
        <time>2020-08-28T02:07:49.388Z</time>
      </trkpt>
      <trkpt lat="65.77137" lon="22.18084">
        <ele>7.348411</ele>
        <time>2020-08-28T02:07:56.122Z</time>
      </trkpt>
      <trkpt lat="65.77123" lon="22.17992">
        <ele>7.422581</ele>
        <time>2020-08-28T02:08:03.661Z</time>
      </trkpt>
      <trkpt lat="65.771" lon="22.17904">
        <ele>7.528877</ele>
        <time>2020-08-28T02:08:11.703Z</time>
      </trkpt>
      <trkpt lat="65.77086" lon="22.17861">
        <ele>7.584342</ele>
        <time>2020-08-28T02:08:15.904Z</time>
      </trkpt>
      <trkpt lat="65.76997" lon="22.1765">
        <ele>7.855348</ele>
        <time>2020-08-28T02:08:39.181Z</time>
      </trkpt>
      <trkpt lat="65.76968" lon="22.17548">
        <ele>7.890893</ele>
        <time>2020-08-28T02:08:48.373Z</time>
      </trkpt>
      <trkpt lat="65.76964" lon="22.17528">
        <ele>7.897266</ele>
        <time>2020-08-28T02:08:50.011Z</time>
      </trkpt>
      <trkpt lat="65.7695" lon="22.17455">
        <ele>7.920319</ele>
        <time>2020-08-28T02:08:55.925Z</time>
      </trkpt>
      <trkpt lat="65.76942" lon="22.17352">
        <ele>7.950537</ele>
        <time>2020-08-28T02:09:03.674Z</time>
      </trkpt>
      <trkpt lat="65.76947" lon="22.17103">
        <ele>7.85271</ele>
        <time>2020-08-28T02:09:21.659Z</time>
      </trkpt>
      <trkpt lat="65.76956" lon="22.16975">
        <ele>7.77724</ele>
        <time>2020-08-28T02:09:30.990Z</time>
      </trkpt>
      <trkpt lat="65.76945" lon="22.1697">
        <ele>7.7607</ele>
        <time>2020-08-28T02:09:33.084Z</time>
      </trkpt>
      <trkpt lat="65.76778" lon="22.16836">
        <ele>7.526432</ele>
        <time>2020-08-28T02:10:04.503Z</time>
      </trkpt>
      <trkpt lat="65.76623" lon="22.16832">
        <ele>7.865209</ele>
        <time>2020-08-28T02:10:34.073Z</time>
      </trkpt>
      <trkpt lat="65.76599" lon="22.16841">
        <ele>7.948558</ele>
        <time>2020-08-28T02:10:39.116Z</time>
      </trkpt>
      <trkpt lat="65.76585" lon="22.16856">
        <ele>7.998501</ele>
        <time>2020-08-28T02:10:42.205Z</time>
      </trkpt>
      <trkpt lat="65.76572" lon="22.16863">
        <ele>8.044523</ele>
        <time>2020-08-28T02:10:45.055Z</time>
      </trkpt>
      <trkpt lat="65.76562" lon="22.16868">
        <ele>8.075748</ele>
        <time>2020-08-28T02:10:46.930Z</time>
      </trkpt>
      <trkpt lat="65.7654" lon="22.16869">
        <ele>8.246075</ele>
        <time>2020-08-28T02:10:51.686Z</time>
      </trkpt>
      <trkpt lat="65.76446" lon="22.16912">
        <ele>8.989509</ele>
        <time>2020-08-28T02:11:12.104Z</time>
      </trkpt>
      <trkpt lat="65.76416" lon="22.1691">
        <ele>9.221246</ele>
        <time>2020-08-28T02:11:18.488Z</time>
      </trkpt>
      <trkpt lat="65.764" lon="22.16897">
        <ele>9.356974</ele>
        <time>2020-08-28T02:11:22.253Z</time>
      </trkpt>
      <trkpt lat="65.7636" lon="22.16834">
        <ele>9.576481</ele>
        <time>2020-08-28T02:11:31.871Z</time>
      </trkpt>
      <trkpt lat="65.76324" lon="22.16808">
        <ele>9.694317</ele>
        <time>2020-08-28T02:11:39.374Z</time>
      </trkpt>
      <trkpt lat="65.76245" lon="22.16789">
        <ele>9.941971</ele>
        <time>2020-08-28T02:11:54.736Z</time>
      </trkpt>
      <trkpt lat="65.76131" lon="22.1681">
        <ele>9.903549</ele>
        <time>2020-08-28T02:12:16.002Z</time>
      </trkpt>
      <trkpt lat="65.76068" lon="22.16834">
        <ele>9.800264</ele>
        <time>2020-08-28T02:12:27.337Z</time>
      </trkpt>
      <trkpt lat="65.75946" lon="22.16893">
        <ele>9.334012</ele>
        <time>2020-08-28T02:12:49.254Z</time>
      </trkpt>
      <trkpt lat="65.75442" lon="22.17329">
        <ele>6.672135</ele>
        <time>2020-08-28T02:14:21.043Z</time>
      </trkpt>
      <trkpt lat="65.75433" lon="22.17336">
        <ele>6.63107</ele>
        <time>2020-08-28T02:14:22.582Z</time>
      </trkpt>
      <trkpt lat="65.75345" lon="22.17411">
        <ele>6.231001</ele>
        <time>2020-08-28T02:14:38.955Z</time>
      </trkpt>
      <trkpt lat="65.75131" lon="22.17606">
        <ele>5.241829</ele>
        <time>2020-08-28T02:15:19.469Z</time>
      </trkpt>
      <trkpt lat="65.75006" lon="22.17683">
        <ele>4.279008</ele>
        <time>2020-08-28T02:15:40.628Z</time>
      </trkpt>
      <trkpt lat="65.74961" lon="22.17687">
        <ele>3.749497</ele>
        <time>2020-08-28T02:15:47.591Z</time>
      </trkpt>
      <trkpt lat="65.74927" lon="22.17678">
        <ele>3.341127</ele>
        <time>2020-08-28T02:15:52.977Z</time>
      </trkpt>
      <trkpt lat="65.74874" lon="22.17639">
        <ele>2.690336</ele>
        <time>2020-08-28T02:16:01.661Z</time>
      </trkpt>
      <trkpt lat="65.74843" lon="22.17602">
        <ele>2.282125</ele>
        <time>2020-08-28T02:16:07.147Z</time>
      </trkpt>
      <trkpt lat="65.74777" lon="22.17487">
        <ele>1.767903</ele>
        <time>2020-08-28T02:16:20.450Z</time>
      </trkpt>
      <trkpt lat="65.74771" lon="22.17451">
        <ele>1.670471</ele>
        <time>2020-08-28T02:16:23.136Z</time>
      </trkpt>
      <trkpt lat="65.74779" lon="22.17385">
        <ele>1.496026</ele>
        <time>2020-08-28T02:16:28.005Z</time>
      </trkpt>
      <trkpt lat="65.74779" lon="22.17336">
        <ele>1.373217</ele>
        <time>2020-08-28T02:16:31.480Z</time>
      </trkpt>
      <trkpt lat="65.74734" lon="22.17135">
        <ele>1.220688</ele>
        <time>2020-08-28T02:16:48.924Z</time>
      </trkpt>
      <trkpt lat="65.74712" lon="22.17084">
        <ele>1.261408</ele>
        <time>2020-08-28T02:16:54.586Z</time>
      </trkpt>
      <trkpt lat="65.747" lon="22.17037">
        <ele>1.292341</ele>
        <time>2020-08-28T02:16:59.010Z</time>
      </trkpt>
      <trkpt lat="65.74694" lon="22.16992">
        <ele>1.318782</ele>
        <time>2020-08-28T02:17:02.704Z</time>
      </trkpt>
      <trkpt lat="65.74694" lon="22.16975">
        <ele>1.328116</ele>
        <time>2020-08-28T02:17:04.005Z</time>
      </trkpt>
      <trkpt lat="65.74695" lon="22.16944">
        <ele>1.345683</ele>
        <time>2020-08-28T02:17:06.632Z</time>
      </trkpt>
      <trkpt lat="65.74692" lon="22.16906">
        <ele>1.367377</ele>
        <time>2020-08-28T02:17:09.682Z</time>
      </trkpt>
      <trkpt lat="65.74671" lon="22.16864">
        <ele>1.443105</ele>
        <time>2020-08-28T02:17:14.944Z</time>
      </trkpt>
      <trkpt lat="65.74655" lon="22.16801">
        <ele>1.588694</ele>
        <time>2020-08-28T02:17:20.968Z</time>
      </trkpt>
      <trkpt lat="65.74648" lon="22.16743">
        <ele>1.708134</ele>
        <time>2020-08-28T02:17:25.822Z</time>
      </trkpt>
      <trkpt lat="65.74648" lon="22.16729">
        <ele>1.737237</ele>
        <time>2020-08-28T02:17:27.136Z</time>
      </trkpt>
      <trkpt lat="65.7464" lon="22.16636">
        <ele>1.924883</ele>
        <time>2020-08-28T02:17:35.016Z</time>
      </trkpt>
      <trkpt lat="65.7463" lon="22.16597">
        <ele>2.015829</ele>
        <time>2020-08-28T02:17:38.776Z</time>
      </trkpt>
      <trkpt lat="65.7461" lon="22.16578">
        <ele>2.118951</ele>
        <time>2020-08-28T02:17:43.145Z</time>
      </trkpt>
      <trkpt lat="65.74599" lon="22.1658">
        <ele>2.172927</ele>
        <time>2020-08-28T02:17:45.377Z</time>
      </trkpt>
      <trkpt lat="65.74576" lon="22.16595">
        <ele>2.303928</ele>
        <time>2020-08-28T02:17:50.276Z</time>
      </trkpt>
      <trkpt lat="65.74534" lon="22.16672">
        <ele>2.677049</ele>
        <time>2020-08-28T02:18:01.047Z</time>
      </trkpt>
      <trkpt lat="65.74486" lon="22.16753">
        <ele>3.091189</ele>
        <time>2020-08-28T02:18:13.144Z</time>
      </trkpt>
      <trkpt lat="65.74453" lon="22.16769">
        <ele>3.324987</ele>
        <time>2020-08-28T02:18:20.124Z</time>
      </trkpt>
      <trkpt lat="65.74412" lon="22.16762">
        <ele>3.672056</ele>
        <time>2020-08-28T02:18:29.091Z</time>
      </trkpt>
      <trkpt lat="65.74377" lon="22.16728">
        <ele>4.082684</ele>
        <time>2020-08-28T02:18:37.230Z</time>
      </trkpt>
      <trkpt lat="65.74326" lon="22.16672">
        <ele>4.690226</ele>
        <time>2020-08-28T02:18:49.606Z</time>
      </trkpt>
      <trkpt lat="65.74256" lon="22.16608">
        <ele>5.520327</ele>
        <time>2020-08-28T02:19:06.625Z</time>
      </trkpt>
      <trkpt lat="65.7419" lon="22.16554">
        <ele>6.27552</ele>
        <time>2020-08-28T02:19:22.203Z</time>
      </trkpt>
      <trkpt lat="65.74111" lon="22.16481">
        <ele>7.189721</ele>
        <time>2020-08-28T02:19:40.611Z</time>
      </trkpt>
      <trkpt lat="65.74095" lon="22.16445">
        <ele>7.432404</ele>
        <time>2020-08-28T02:19:45.364Z</time>
      </trkpt>
      <trkpt lat="65.74057" lon="22.16289">
        <ele>8.31816</ele>
        <time>2020-08-28T02:20:01.328Z</time>
      </trkpt>
      <trkpt lat="65.74056" lon="22.16283">
        <ele>8.354024</ele>
        <time>2020-08-28T02:20:02.045Z</time>
      </trkpt>
      <trkpt lat="65.74045" lon="22.16253">
        <ele>8.54776</ele>
        <time>2020-08-28T02:20:05.527Z</time>
      </trkpt>
      <trkpt lat="65.74026" lon="22.16243">
        <ele>8.788245</ele>
        <time>2020-08-28T02:20:09.855Z</time>
      </trkpt>
      <trkpt lat="65.74011" lon="22.16257">
        <ele>8.973956</ele>
        <time>2020-08-28T02:20:13.304Z</time>
      </trkpt>
      <trkpt lat="65.73999" lon="22.16298">
        <ele>9.221802</ele>
        <time>2020-08-28T02:20:18.010Z</time>
      </trkpt>
      <trkpt lat="65.73991" lon="22.16335">
        <ele>9.429053</ele>
        <time>2020-08-28T02:20:22.335Z</time>
      </trkpt>
      <trkpt lat="65.73982" lon="22.16385">
        <ele>9.744348</ele>
        <time>2020-08-28T02:20:27.420Z</time>
      </trkpt>
      <trkpt lat="65.73976" lon="22.16415">
        <ele>10.003109</ele>
        <time>2020-08-28T02:20:30.875Z</time>
      </trkpt>
      <trkpt lat="65.73967" lon="22.16467">
        <ele>10.435625</ele>
        <time>2020-08-28T02:20:36.151Z</time>
      </trkpt>
      <trkpt lat="65.73958" lon="22.16519">
        <ele>10.874561</ele>
        <time>2020-08-28T02:20:41.801Z</time>
      </trkpt>
      <trkpt lat="65.73953" lon="22.16545">
        <ele>11.096577</ele>
        <time>2020-08-28T02:20:44.482Z</time>
      </trkpt>
      <trkpt lat="65.73949" lon="22.16565">
        <ele>11.266327</ele>
        <time>2020-08-28T02:20:46.805Z</time>
      </trkpt>
      <trkpt lat="65.73938" lon="22.16623">
        <ele>11.766255</ele>
        <time>2020-08-28T02:20:53.070Z</time>
      </trkpt>
      <trkpt lat="65.7393" lon="22.16657">
        <ele>12.068491</ele>
        <time>2020-08-28T02:20:57.257Z</time>
      </trkpt>
      <trkpt lat="65.73897" lon="22.16786">
        <ele>13.18101</ele>
        <time>2020-08-28T02:21:12.218Z</time>
      </trkpt>
      <trkpt lat="65.73884" lon="22.1686">
        <ele>13.646283</ele>
        <time>2020-08-28T02:21:20.027Z</time>
      </trkpt>
      <trkpt lat="65.7386" lon="22.17102">
        <ele>15.086842</ele>
        <time>2020-08-28T02:21:43.086Z</time>
      </trkpt>
      <trkpt lat="65.73845" lon="22.17197">
        <ele>15.561949</ele>
        <time>2020-08-28T02:21:51.608Z</time>
      </trkpt>
      <trkpt lat="65.73839" lon="22.17225">
        <ele>15.597688</ele>
        <time>2020-08-28T02:21:54.185Z</time>
      </trkpt>
      <trkpt lat="65.7383" lon="22.17265">
        <ele>15.649895</ele>
        <time>2020-08-28T02:21:57.986Z</time>
      </trkpt>
      <trkpt lat="65.73804" lon="22.17345">
        <ele>15.763518</ele>
        <time>2020-08-28T02:22:05.974Z</time>
      </trkpt>
      <trkpt lat="65.73714" lon="22.1758">
        <ele>15.764963</ele>
        <time>2020-08-28T02:22:29.518Z</time>
      </trkpt>
      <trkpt lat="65.73674" lon="22.1772">
        <ele>15.248227</ele>
        <time>2020-08-28T02:22:40.608Z</time>
      </trkpt>
      <trkpt lat="65.73649" lon="22.17786">
        <ele>14.973584</ele>
        <time>2020-08-28T02:22:46.393Z</time>
      </trkpt>
      <trkpt lat="65.73636" lon="22.17814">
        <ele>14.84506</ele>
        <time>2020-08-28T02:22:49.047Z</time>
      </trkpt>
      <trkpt lat="65.73623" lon="22.17837">
        <ele>14.729228</ele>
        <time>2020-08-28T02:22:51.463Z</time>
      </trkpt>
      <trkpt lat="65.73519" lon="22.17996">
        <ele>13.269465</ele>
        <time>2020-08-28T02:23:09.996Z</time>
      </trkpt>
      <trkpt lat="65.73449" lon="22.18195">
        <ele>12.131783</ele>
        <time>2020-08-28T02:23:26.516Z</time>
      </trkpt>
      <trkpt lat="65.73384" lon="22.18355">
        <ele>11.332687</ele>
        <time>2020-08-28T02:23:40.931Z</time>
      </trkpt>
      <trkpt lat="65.73354" lon="22.18425">
        <ele>10.973909</ele>
        <time>2020-08-28T02:23:47.642Z</time>
      </trkpt>
      <trkpt lat="65.73273" lon="22.18617">
        <ele>10.589044</ele>
        <time>2020-08-28T02:24:06.299Z</time>
      </trkpt>
      <trkpt lat="65.73158" lon="22.18865">
        <ele>10.328773</ele>
        <time>2020-08-28T02:24:33.569Z</time>
      </trkpt>
      <trkpt lat="65.73081" lon="22.18978">
        <ele>10.293786</ele>
        <time>2020-08-28T02:24:49.657Z</time>
      </trkpt>
      <trkpt lat="65.73064" lon="22.18994">
        <ele>10.281764</ele>
        <time>2020-08-28T02:24:52.985Z</time>
      </trkpt>
      <trkpt lat="65.73048" lon="22.19007">
        <ele>10.269981</ele>
        <time>2020-08-28T02:24:55.891Z</time>
      </trkpt>
      <trkpt lat="65.72921" lon="22.19065">
        <ele>10.180373</ele>
        <time>2020-08-28T02:25:18.656Z</time>
      </trkpt>
      <trkpt lat="65.72899" lon="22.19082">
        <ele>10.164505</ele>
        <time>2020-08-28T02:25:22.602Z</time>
      </trkpt>
      <trkpt lat="65.72877" lon="22.19108">
        <ele>10.14819</ele>
        <time>2020-08-28T02:25:27.003Z</time>
      </trkpt>
      <trkpt lat="65.72625" lon="22.19543">
        <ele>10.009746</ele>
        <time>2020-08-28T02:26:21.729Z</time>
      </trkpt>
      <trkpt lat="65.72576" lon="22.19646">
        <ele>10.015013</ele>
        <time>2020-08-28T02:26:33.200Z</time>
      </trkpt>
      <trkpt lat="65.72565" lon="22.19681">
        <ele>10.019505</ele>
        <time>2020-08-28T02:26:36.470Z</time>
      </trkpt>
      <trkpt lat="65.72556" lon="22.19716">
        <ele>10.023656</ele>
        <time>2020-08-28T02:26:39.502Z</time>
      </trkpt>
      <trkpt lat="65.72543" lon="22.19792">
        <ele>10.031959</ele>
        <time>2020-08-28T02:26:45.572Z</time>
      </trkpt>
      <trkpt lat="65.72483" lon="22.20115">
        <ele>10.158292</ele>
        <time>2020-08-28T02:27:11.872Z</time>
      </trkpt>
      <trkpt lat="65.72473" lon="22.20169">
        <ele>10.192377</ele>
        <time>2020-08-28T02:27:16.337Z</time>
      </trkpt>
      <trkpt lat="65.7241" lon="22.205">
        <ele>10.314516</ele>
        <time>2020-08-28T02:27:43.864Z</time>
      </trkpt>
      <trkpt lat="65.72398" lon="22.20553">
        <ele>10.319304</ele>
        <time>2020-08-28T02:27:48.387Z</time>
      </trkpt>
      <trkpt lat="65.72377" lon="22.20652">
        <ele>10.328172</ele>
        <time>2020-08-28T02:27:56.584Z</time>
      </trkpt>
      <trkpt lat="65.7231" lon="22.20939">
        <ele>10.12397</ele>
        <time>2020-08-28T02:28:20.349Z</time>
      </trkpt>
      <trkpt lat="65.72245" lon="22.21157">
        <ele>9.827042</ele>
        <time>2020-08-28T02:28:39.042Z</time>
      </trkpt>
      <trkpt lat="65.72228" lon="22.21205">
        <ele>9.720206</ele>
        <time>2020-08-28T02:28:43.243Z</time>
      </trkpt>
      <trkpt lat="65.72214" lon="22.21241">
        <ele>9.633304</ele>
        <time>2020-08-28T02:28:46.695Z</time>
      </trkpt>
      <trkpt lat="65.72167" lon="22.21331">
        <ele>9.384852</ele>
        <time>2020-08-28T02:28:56.551Z</time>
      </trkpt>
      <trkpt lat="65.72157" lon="22.21347">
        <ele>9.33362</ele>
        <time>2020-08-28T02:28:58.557Z</time>
      </trkpt>
      <trkpt lat="65.7215" lon="22.21358">
        <ele>9.296875</ele>
        <time>2020-08-28T02:28:59.957Z</time>
      </trkpt>
      <trkpt lat="65.71518" lon="22.22237">
        <ele>7.34965</ele>
        <time>2020-08-28T02:31:04.000Z</time>
      </trkpt>
      <trkpt lat="65.71416" lon="22.22389">
        <ele>7.209161</ele>
        <time>2020-08-28T02:31:25.097Z</time>
      </trkpt>
      <trkpt lat="65.71343" lon="22.22513">
        <ele>7.12615</ele>
        <time>2020-08-28T02:31:40.889Z</time>
      </trkpt>
      <trkpt lat="65.71287" lon="22.22623">
        <ele>7.087557</ele>
        <time>2020-08-28T02:31:53.736Z</time>
      </trkpt>
      <trkpt lat="65.71173" lon="22.22885">
        <ele>6.872427</ele>
        <time>2020-08-28T02:32:21.285Z</time>
      </trkpt>
      <trkpt lat="65.71139" lon="22.22973">
        <ele>6.743462</ele>
        <time>2020-08-28T02:32:29.804Z</time>
      </trkpt>
      <trkpt lat="65.71116" lon="22.23035">
        <ele>6.652673</ele>
        <time>2020-08-28T02:32:35.758Z</time>
      </trkpt>
      <trkpt lat="65.71051" lon="22.23208">
        <ele>6.042396</ele>
        <time>2020-08-28T02:32:51.536Z</time>
      </trkpt>
      <trkpt lat="65.71038" lon="22.23236">
        <ele>5.904037</ele>
        <time>2020-08-28T02:32:54.267Z</time>
      </trkpt>
      <trkpt lat="65.71026" lon="22.23259">
        <ele>5.781567</ele>
        <time>2020-08-28T02:32:56.611Z</time>
      </trkpt>
      <trkpt lat="65.71013" lon="22.23285">
        <ele>5.644099</ele>
        <time>2020-08-28T02:32:59.244Z</time>
      </trkpt>
      <trkpt lat="65.70997" lon="22.23314">
        <ele>5.478312</ele>
        <time>2020-08-28T02:33:02.374Z</time>
      </trkpt>
      <trkpt lat="65.70942" lon="22.23391">
        <ele>4.881334</ele>
        <time>2020-08-28T02:33:12.213Z</time>
      </trkpt>
      <trkpt lat="65.70933" lon="22.23401">
        <ele>4.754122</ele>
        <time>2020-08-28T02:33:13.716Z</time>
      </trkpt>
      <trkpt lat="65.70914" lon="22.23418">
        <ele>4.500624</ele>
        <time>2020-08-28T02:33:16.690Z</time>
      </trkpt>
      <trkpt lat="65.709" lon="22.23429">
        <ele>4.318933</ele>
        <time>2020-08-28T02:33:18.860Z</time>
      </trkpt>
      <trkpt lat="65.70887" lon="22.23438">
        <ele>4.149587</ele>
        <time>2020-08-28T02:33:20.907Z</time>
      </trkpt>
      <trkpt lat="65.70874" lon="22.23445">
        <ele>3.972179</ele>
        <time>2020-08-28T02:33:22.964Z</time>
      </trkpt>
      <trkpt lat="65.70816" lon="22.23459">
        <ele>3.239449</ele>
        <time>2020-08-28T02:33:31.552Z</time>
      </trkpt>
      <trkpt lat="65.70789" lon="22.23458">
        <ele>2.901265</ele>
        <time>2020-08-28T02:33:35.567Z</time>
      </trkpt>
      <trkpt lat="65.70775" lon="22.23449">
        <ele>2.76475</ele>
        <time>2020-08-28T02:33:37.762Z</time>
      </trkpt>
      <trkpt lat="65.70723" lon="22.23412">
        <ele>2.412095</ele>
        <time>2020-08-28T02:33:46.045Z</time>
      </trkpt>
      <trkpt lat="65.70705" lon="22.23396">
        <ele>2.284422</ele>
        <time>2020-08-28T02:33:49.033Z</time>
      </trkpt>
      <trkpt lat="65.70692" lon="22.23377">
        <ele>2.181462</ele>
        <time>2020-08-28T02:33:51.617Z</time>
      </trkpt>
      <trkpt lat="65.70656" lon="22.23322">
        <ele>1.904102</ele>
        <time>2020-08-28T02:33:58.553Z</time>
      </trkpt>
      <trkpt lat="65.70625" lon="22.23272">
        <ele>1.659945</ele>
        <time>2020-08-28T02:34:04.957Z</time>
      </trkpt>
      <trkpt lat="65.70606" lon="22.23241">
        <ele>1.772006</ele>
        <time>2020-08-28T02:34:09.294Z</time>
      </trkpt>
      <trkpt lat="65.70572" lon="22.23187">
        <ele>2.048169</ele>
        <time>2020-08-28T02:34:16.972Z</time>
      </trkpt>
      <trkpt lat="65.70541" lon="22.23134">
        <ele>2.299378</ele>
        <time>2020-08-28T02:34:24.451Z</time>
      </trkpt>
      <trkpt lat="65.70539" lon="22.2313">
        <ele>2.320871</ele>
        <time>2020-08-28T02:34:25.110Z</time>
      </trkpt>
      <trkpt lat="65.70529" lon="22.23114">
        <ele>2.399152</ele>
        <time>2020-08-28T02:34:27.475Z</time>
      </trkpt>
      <trkpt lat="65.705" lon="22.23069">
        <ele>2.634862</ele>
        <time>2020-08-28T02:34:34.806Z</time>
      </trkpt>
      <trkpt lat="65.70431" lon="22.22958">
        <ele>3.471491</ele>
        <time>2020-08-28T02:34:53.062Z</time>
      </trkpt>
      <trkpt lat="65.70394" lon="22.22897">
        <ele>4.019361</ele>
        <time>2020-08-28T02:35:02.930Z</time>
      </trkpt>
      <trkpt lat="65.70339" lon="22.22797">
        <ele>4.862014</ele>
        <time>2020-08-28T02:35:17.932Z</time>
      </trkpt>
      <trkpt lat="65.70276" lon="22.22671">
        <ele>5.502118</ele>
        <time>2020-08-28T02:35:35.438Z</time>
      </trkpt>
      <trkpt lat="65.69904" lon="22.21912">
        <ele>8.534877</ele>
        <time>2020-08-28T02:37:11.012Z</time>
      </trkpt>
      <trkpt lat="65.69818" lon="22.21733">
        <ele>8.927505</ele>
        <time>2020-08-28T02:37:32.457Z</time>
      </trkpt>
      <trkpt lat="65.69681" lon="22.2145">
        <ele>9.464883</ele>
        <time>2020-08-28T02:38:05.893Z</time>
      </trkpt>
      <trkpt lat="65.69615" lon="22.21333">
        <ele>9.719714</ele>
        <time>2020-08-28T02:38:21.472Z</time>
      </trkpt>
      <trkpt lat="65.69541" lon="22.21226">
        <ele>10.045016</ele>
        <time>2020-08-28T02:38:38.098Z</time>
      </trkpt>
      <trkpt lat="65.69438" lon="22.21113">
        <ele>10.237967</ele>
        <time>2020-08-28T02:38:59.365Z</time>
      </trkpt>
      <trkpt lat="65.69341" lon="22.21034">
        <ele>10.096563</ele>
        <time>2020-08-28T02:39:16.846Z</time>
      </trkpt>
      <trkpt lat="65.69202" lon="22.20971">
        <ele>9.789605</ele>
        <time>2020-08-28T02:39:40.248Z</time>
      </trkpt>
      <trkpt lat="65.68759" lon="22.20918">
        <ele>9.698132</ele>
        <time>2020-08-28T02:40:59.815Z</time>
      </trkpt>
      <trkpt lat="65.68718" lon="22.20921">
        <ele>9.712319</ele>
        <time>2020-08-28T02:41:07.257Z</time>
      </trkpt>
      <trkpt lat="65.68678" lon="22.20931">
        <ele>9.726061</ele>
        <time>2020-08-28T02:41:14.425Z</time>
      </trkpt>
      <trkpt lat="65.68597" lon="22.20963">
        <ele>9.754576</ele>
        <time>2020-08-28T02:41:29.303Z</time>
      </trkpt>
      <trkpt lat="65.68475" lon="22.21047">
        <ele>9.555747</ele>
        <time>2020-08-28T02:41:51.533Z</time>
      </trkpt>
      <trkpt lat="65.67242" lon="22.2237">
        <ele>4.316337</ele>
        <time>2020-08-28T02:45:37.049Z</time>
      </trkpt>
      <trkpt lat="65.67136" lon="22.22452">
        <ele>3.911501</ele>
        <time>2020-08-28T02:45:55.800Z</time>
      </trkpt>
      <trkpt lat="65.67051" lon="22.22496">
        <ele>3.653553</ele>
        <time>2020-08-28T02:46:10.387Z</time>
      </trkpt>
      <trkpt lat="65.6696" lon="22.22518">
        <ele>3.420239</ele>
        <time>2020-08-28T02:46:25.997Z</time>
      </trkpt>
      <trkpt lat="65.6688" lon="22.2252">
        <ele>3.329414</ele>
        <time>2020-08-28T02:46:39.923Z</time>
      </trkpt>
      <trkpt lat="65.66753" lon="22.22521">
        <ele>3.343509</ele>
        <time>2020-08-28T02:47:02.650Z</time>
      </trkpt>
      <trkpt lat="65.66516" lon="22.22517">
        <ele>3.77376</ele>
        <time>2020-08-28T02:47:46.828Z</time>
      </trkpt>
      <trkpt lat="65.65252" lon="22.22486">
        <ele>6.007626</ele>
        <time>2020-08-28T02:51:38.591Z</time>
      </trkpt>
      <trkpt lat="65.65141" lon="22.22502">
        <ele>6.586466</ele>
        <time>2020-08-28T02:52:00.760Z</time>
      </trkpt>
      <trkpt lat="65.65099" lon="22.22521">
        <ele>6.873406</ele>
        <time>2020-08-28T02:52:09.434Z</time>
      </trkpt>
      <trkpt lat="65.65067" lon="22.22542">
        <ele>7.130046</ele>
        <time>2020-08-28T02:52:16.215Z</time>
      </trkpt>
      <trkpt lat="65.65007" lon="22.22593">
        <ele>7.622484</ele>
        <time>2020-08-28T02:52:29.221Z</time>
      </trkpt>
      <trkpt lat="65.64929" lon="22.22682">
        <ele>8.177802</ele>
        <time>2020-08-28T02:52:46.551Z</time>
      </trkpt>
      <trkpt lat="65.64846" lon="22.2278">
        <ele>8.546689</ele>
        <time>2020-08-28T02:53:04.591Z</time>
      </trkpt>
      <trkpt lat="65.64763" lon="22.22886">
        <ele>8.651069</ele>
        <time>2020-08-28T02:53:21.761Z</time>
      </trkpt>
      <trkpt lat="65.64702" lon="22.22964">
        <ele>8.411067</ele>
        <time>2020-08-28T02:53:33.538Z</time>
      </trkpt>
      <trkpt lat="65.64583" lon="22.23127">
        <ele>7.825005</ele>
        <time>2020-08-28T02:53:55.429Z</time>
      </trkpt>
      <trkpt lat="65.64532" lon="22.2321">
        <ele>7.503335</ele>
        <time>2020-08-28T02:54:05.246Z</time>
      </trkpt>
      <trkpt lat="65.6448" lon="22.23304">
        <ele>7.237336</ele>
        <time>2020-08-28T02:54:16.109Z</time>
      </trkpt>
      <trkpt lat="65.64431" lon="22.2338">
        <ele>7.523569</ele>
        <time>2020-08-28T02:54:26.792Z</time>
      </trkpt>
      <trkpt lat="65.64385" lon="22.23436">
        <ele>7.774755</ele>
        <time>2020-08-28T02:54:36.952Z</time>
      </trkpt>
      <trkpt lat="65.64367" lon="22.23454">
        <ele>7.870117</ele>
        <time>2020-08-28T02:54:41.121Z</time>
      </trkpt>
      <trkpt lat="65.64337" lon="22.23481">
        <ele>8.025597</ele>
        <time>2020-08-28T02:54:47.809Z</time>
      </trkpt>
      <trkpt lat="65.64283" lon="22.23517">
        <ele>8.512374</ele>
        <time>2020-08-28T02:54:59.453Z</time>
      </trkpt>
      <trkpt lat="65.6426" lon="22.23527">
        <ele>8.744908</ele>
        <time>2020-08-28T02:55:04.701Z</time>
      </trkpt>
      <trkpt lat="65.64234" lon="22.23534">
        <ele>8.995641</ele>
        <time>2020-08-28T02:55:10.314Z</time>
      </trkpt>
      <trkpt lat="65.64181" lon="22.2354">
        <ele>9.506515</ele>
        <time>2020-08-28T02:55:21.606Z</time>
      </trkpt>
      <trkpt lat="65.64131" lon="22.23533">
        <ele>9.835333</ele>
        <time>2020-08-28T02:55:31.763Z</time>
      </trkpt>
      <trkpt lat="65.64105" lon="22.23526">
        <ele>9.852393</ele>
        <time>2020-08-28T02:55:36.933Z</time>
      </trkpt>
      <trkpt lat="65.6407" lon="22.23509">
        <ele>9.875219</ele>
        <time>2020-08-28T02:55:43.380Z</time>
      </trkpt>
      <trkpt lat="65.64033" lon="22.23486">
        <ele>9.899934</ele>
        <time>2020-08-28T02:55:50.190Z</time>
      </trkpt>
      <trkpt lat="65.64018" lon="22.23473">
        <ele>9.910058</ele>
        <time>2020-08-28T02:55:52.830Z</time>
      </trkpt>
      <trkpt lat="65.63951" lon="22.23402">
        <ele>9.754269</ele>
        <time>2020-08-28T02:56:05.038Z</time>
      </trkpt>
      <trkpt lat="65.63882" lon="22.23297">
        <ele>9.197098</ele>
        <time>2020-08-28T02:56:17.875Z</time>
      </trkpt>
      <trkpt lat="65.6386" lon="22.23257">
        <ele>9.010572</ele>
        <time>2020-08-28T02:56:22.249Z</time>
      </trkpt>
      <trkpt lat="65.63864" lon="22.23241">
        <ele>8.954779</ele>
        <time>2020-08-28T02:56:23.568Z</time>
      </trkpt>
      <trkpt lat="65.63821" lon="22.23132">
        <ele>8.671943</ele>
        <time>2020-08-28T02:56:34.126Z</time>
      </trkpt>
      <trkpt lat="65.63801" lon="22.23045">
        <ele>8.613364</ele>
        <time>2020-08-28T02:56:41.185Z</time>
      </trkpt>
      <trkpt lat="65.63778" lon="22.22994">
        <ele>8.569379</ele>
        <time>2020-08-28T02:56:46.613Z</time>
      </trkpt>
      <trkpt lat="65.63707" lon="22.22705">
        <ele>8.872327</ele>
        <time>2020-08-28T02:57:13.723Z</time>
      </trkpt>
      <trkpt lat="65.6369" lon="22.22638">
        <ele>9.109174</ele>
        <time>2020-08-28T02:57:20.769Z</time>
      </trkpt>
      <trkpt lat="65.6368" lon="22.22586">
        <ele>9.282217</ele>
        <time>2020-08-28T02:57:25.857Z</time>
      </trkpt>
      <trkpt lat="65.6367" lon="22.22557">
        <ele>9.395086</ele>
        <time>2020-08-28T02:57:29.209Z</time>
      </trkpt>
      <trkpt lat="65.63655" lon="22.22524">
        <ele>9.539388</ele>
        <time>2020-08-28T02:57:33.537Z</time>
      </trkpt>
      <trkpt lat="65.63625" lon="22.22444">
        <ele>9.915396</ele>
        <time>2020-08-28T02:57:43.509Z</time>
      </trkpt>
      <trkpt lat="65.6361" lon="22.22417">
        <ele>10.111718</ele>
        <time>2020-08-28T02:57:47.422Z</time>
      </trkpt>
      <trkpt lat="65.63602" lon="22.22396">
        <ele>10.240477</ele>
        <time>2020-08-28T02:57:50.214Z</time>
      </trkpt>
      <trkpt lat="65.63599" lon="22.22388">
        <ele>10.286303</ele>
        <time>2020-08-28T02:57:51.235Z</time>
      </trkpt>
      <trkpt lat="65.63589" lon="22.22384">
        <ele>10.400786</ele>
        <time>2020-08-28T02:57:53.481Z</time>
      </trkpt>
      <trkpt lat="65.63527" lon="22.22262">
        <ele>11.251393</ele>
        <time>2020-08-28T02:58:10.919Z</time>
      </trkpt>
      <trkpt lat="65.63469" lon="22.22167">
        <ele>12.06755</ele>
        <time>2020-08-28T02:58:26.387Z</time>
      </trkpt>
      <trkpt lat="65.63387" lon="22.21982">
        <ele>13.534069</ele>
        <time>2020-08-28T02:58:51.600Z</time>
      </trkpt>
      <trkpt lat="65.63289" lon="22.21814">
        <ele>15.43321</ele>
        <time>2020-08-28T02:59:20.007Z</time>
      </trkpt>
      <trkpt lat="65.63158" lon="22.21545">
        <ele>18.221643</ele>
        <time>2020-08-28T03:00:02.173Z</time>
      </trkpt>
      <trkpt lat="65.63098" lon="22.21449">
        <ele>19.279083</ele>
        <time>2020-08-28T03:00:18.693Z</time>
      </trkpt>
      <trkpt lat="65.63044" lon="22.21316">
        <ele>20.044892</ele>
        <time>2020-08-28T03:00:35.517Z</time>
      </trkpt>
      <trkpt lat="65.62992" lon="22.21245">
        <ele>20.396003</ele>
        <time>2020-08-28T03:00:47.754Z</time>
      </trkpt>
      <trkpt lat="65.62931" lon="22.21106">
        <ele>20.841507</ele>
        <time>2020-08-28T03:01:04.352Z</time>
      </trkpt>
      <trkpt lat="65.62866" lon="22.20977">
        <ele>20.649625</ele>
        <time>2020-08-28T03:01:20.556Z</time>
      </trkpt>
      <trkpt lat="65.62853" lon="22.20942">
        <ele>20.604928</ele>
        <time>2020-08-28T03:01:24.263Z</time>
      </trkpt>
      <trkpt lat="65.62809" lon="22.20819">
        <ele>20.449852</ele>
        <time>2020-08-28T03:01:35.441Z</time>
      </trkpt>
      <trkpt lat="65.62784" lon="22.20773">
        <ele>19.735384</ele>
        <time>2020-08-28T03:01:40.345Z</time>
      </trkpt>
      <trkpt lat="65.62767" lon="22.20748">
        <ele>19.223571</ele>
        <time>2020-08-28T03:01:43.516Z</time>
      </trkpt>
      <trkpt lat="65.62747" lon="22.20721">
        <ele>18.622096</ele>
        <time>2020-08-28T03:01:47.035Z</time>
      </trkpt>
      <trkpt lat="65.62741" lon="22.20713">
        <ele>18.455062</ele>
        <time>2020-08-28T03:01:48.017Z</time>
      </trkpt>
      <trkpt lat="65.62725" lon="22.20697">
        <ele>18.025351</ele>
        <time>2020-08-28T03:01:50.342Z</time>
      </trkpt>
      <trkpt lat="65.62665" lon="22.20625">
        <ele>16.309271</ele>
        <time>2020-08-28T03:01:59.519Z</time>
      </trkpt>
      <trkpt lat="65.62641" lon="22.20576">
        <ele>15.331046</ele>
        <time>2020-08-28T03:02:03.639Z</time>
      </trkpt>
      <trkpt lat="65.62616" lon="22.20501">
        <ele>13.756357</ele>
        <time>2020-08-28T03:02:08.884Z</time>
      </trkpt>
      <trkpt lat="65.6259" lon="22.20436">
        <ele>12.310676</ele>
        <time>2020-08-28T03:02:13.788Z</time>
      </trkpt>
      <trkpt lat="65.62559" lon="22.20375">
        <ele>10.776789</ele>
        <time>2020-08-28T03:02:19.012Z</time>
      </trkpt>
      <trkpt lat="65.62543" lon="22.20346">
        <ele>9.979508</ele>
        <time>2020-08-28T03:02:21.697Z</time>
      </trkpt>
      <trkpt lat="65.62507" lon="22.20278">
        <ele>8.397727</ele>
        <time>2020-08-28T03:02:27.763Z</time>
      </trkpt>
      <trkpt lat="65.62433" lon="22.20211">
        <ele>6.279636</ele>
        <time>2020-08-28T03:02:38.737Z</time>
      </trkpt>
      <trkpt lat="65.62413" lon="22.20215">
        <ele>5.749419</ele>
        <time>2020-08-28T03:02:41.536Z</time>
      </trkpt>
      <trkpt lat="65.62382" lon="22.20256">
        <ele>4.79957</ele>
        <time>2020-08-28T03:02:46.743Z</time>
      </trkpt>
      <trkpt lat="65.62368" lon="22.20264">
        <ele>4.413586</ele>
        <time>2020-08-28T03:02:48.907Z</time>
      </trkpt>
      <trkpt lat="65.62265" lon="22.20205">
        <ele>2.889977</ele>
        <time>2020-08-28T03:03:05.112Z</time>
      </trkpt>
      <trkpt lat="65.6225" lon="22.20189">
        <ele>2.689455</ele>
        <time>2020-08-28T03:03:07.670Z</time>
      </trkpt>
      <trkpt lat="65.62244" lon="22.20182">
        <ele>2.612339</ele>
        <time>2020-08-28T03:03:08.720Z</time>
      </trkpt>
      <trkpt lat="65.6224" lon="22.2018">
        <ele>2.562179</ele>
        <time>2020-08-28T03:03:09.363Z</time>
      </trkpt>
      <trkpt lat="65.6223" lon="22.20202">
        <ele>2.403788</ele>
        <time>2020-08-28T03:03:11.500Z</time>
      </trkpt>
      <trkpt lat="65.62206" lon="22.20201">
        <ele>2.101864</ele>
        <time>2020-08-28T03:03:15.703Z</time>
      </trkpt>
      <trkpt lat="65.62184" lon="22.20202">
        <ele>1.837667</ele>
        <time>2020-08-28T03:03:19.381Z</time>
      </trkpt>
      <trkpt lat="65.6216" lon="22.20196">
        <ele>2.011103</ele>
        <time>2020-08-28T03:03:23.628Z</time>
      </trkpt>
      <trkpt lat="65.62135" lon="22.20193">
        <ele>2.252714</ele>
        <time>2020-08-28T03:03:28.309Z</time>
      </trkpt>
      <trkpt lat="65.62089" lon="22.2019">
        <ele>2.675572</ele>
        <time>2020-08-28T03:03:37.196Z</time>
      </trkpt>
      <trkpt lat="65.62086" lon="22.20189">
        <ele>2.711127</ele>
        <time>2020-08-28T03:03:38.061Z</time>
      </trkpt>
      <trkpt lat="65.62085" lon="22.20199">
        <ele>2.748968</ele>
        <time>2020-08-28T03:03:39.154Z</time>
      </trkpt>
      <trkpt lat="65.62075" lon="22.20199">
        <ele>2.843433</ele>
        <time>2020-08-28T03:03:41.616Z</time>
      </trkpt>
      <trkpt lat="65.61985" lon="22.20193">
        <ele>4.43673</ele>
        <time>2020-08-28T03:04:03.106Z</time>
      </trkpt>
      <trkpt lat="65.61952" lon="22.2019">
        <ele>5.883234</ele>
        <time>2020-08-28T03:04:12.085Z</time>
      </trkpt>
      <trkpt lat="65.6192" lon="22.20185">
        <ele>7.274327</ele>
        <time>2020-08-28T03:04:21.881Z</time>
      </trkpt>
      <trkpt lat="65.61866" lon="22.20165">
        <ele>9.683971</ele>
        <time>2020-08-28T03:04:40.406Z</time>
      </trkpt>
      <trkpt lat="65.61833" lon="22.20148">
        <ele>11.162079</ele>
        <time>2020-08-28T03:04:52.958Z</time>
      </trkpt>
      <trkpt lat="65.61821" lon="22.2014">
        <ele>11.956543</ele>
        <time>2020-08-28T03:04:57.764Z</time>
      </trkpt>
      <trkpt lat="65.61767" lon="22.20102">
        <ele>16.423176</ele>
        <time>2020-08-28T03:05:20.960Z</time>
      </trkpt>
      <trkpt lat="65.61672" lon="22.20006">
        <ele>24.571147</ele>
        <time>2020-08-28T03:06:07.618Z</time>
      </trkpt>
      <trkpt lat="65.61576" lon="22.19863">
        <ele>32.594958</ele>
        <time>2020-08-28T03:06:58.557Z</time>
      </trkpt>
      <trkpt lat="65.61546" lon="22.19808">
        <ele>35.260318</ele>
        <time>2020-08-28T03:07:13.710Z</time>
      </trkpt>
      <trkpt lat="65.61526" lon="22.19768">
        <ele>37.043447</ele>
        <time>2020-08-28T03:07:23.196Z</time>
      </trkpt>
      <trkpt lat="65.6134" lon="22.19318">
        <ele>45.102756</ele>
        <time>2020-08-28T03:08:34.884Z</time>
      </trkpt>
      <trkpt lat="65.61272" lon="22.19169">
        <ele>46.574903</ele>
        <time>2020-08-28T03:08:54.825Z</time>
      </trkpt>
      <trkpt lat="65.61252" lon="22.19134">
        <ele>46.883399</ele>
        <time>2020-08-28T03:08:59.545Z</time>
      </trkpt>
      <trkpt lat="65.61225" lon="22.19087">
        <ele>46.202416</ele>
        <time>2020-08-28T03:09:05.366Z</time>
      </trkpt>
      <trkpt lat="65.612" lon="22.19048">
        <ele>45.595503</ele>
        <time>2020-08-28T03:09:10.113Z</time>
      </trkpt>
      <trkpt lat="65.61173" lon="22.19011">
        <ele>44.953836</ele>
        <time>2020-08-28T03:09:14.717Z</time>
      </trkpt>
      <trkpt lat="65.61169" lon="22.19005">
        <ele>44.840136</ele>
        <time>2020-08-28T03:09:15.521Z</time>
      </trkpt>
      <trkpt lat="65.61155" lon="22.18988">
        <ele>44.527095</ele>
        <time>2020-08-28T03:09:17.586Z</time>
      </trkpt>
      <trkpt lat="65.61079" lon="22.189">
        <ele>41.849524</ele>
        <time>2020-08-28T03:09:28.324Z</time>
      </trkpt>
      <trkpt lat="65.61015" lon="22.18842">
        <ele>37.462533</ele>
        <time>2020-08-28T03:09:36.202Z</time>
      </trkpt>
      <trkpt lat="65.60881" lon="22.18744">
        <ele>28.833915</ele>
        <time>2020-08-28T03:09:52.071Z</time>
      </trkpt>
      <trkpt lat="65.60826" lon="22.18702">
        <ele>25.59214</ele>
        <time>2020-08-28T03:09:58.861Z</time>
      </trkpt>
      <trkpt lat="65.6077" lon="22.18661">
        <ele>22.292028</ele>
        <time>2020-08-28T03:10:06.109Z</time>
      </trkpt>
      <trkpt lat="65.60753" lon="22.18649">
        <ele>21.422172</ele>
        <time>2020-08-28T03:10:08.367Z</time>
      </trkpt>
      <trkpt lat="65.60747" lon="22.18644">
        <ele>21.297913</ele>
        <time>2020-08-28T03:10:09.186Z</time>
      </trkpt>
      <trkpt lat="65.60724" lon="22.18626">
        <ele>20.817225</ele>
        <time>2020-08-28T03:10:12.378Z</time>
      </trkpt>
      <trkpt lat="65.60678" lon="22.18593">
        <ele>19.87522</ele>
        <time>2020-08-28T03:10:19.213Z</time>
      </trkpt>
      <trkpt lat="65.6066" lon="22.1858">
        <ele>19.503266</ele>
        <time>2020-08-28T03:10:22.136Z</time>
      </trkpt>
      <trkpt lat="65.6063" lon="22.18556">
        <ele>18.878354</ele>
        <time>2020-08-28T03:10:27.025Z</time>
      </trkpt>
      <trkpt lat="65.60602" lon="22.18537">
        <ele>18.305653</ele>
        <time>2020-08-28T03:10:31.413Z</time>
      </trkpt>
      <trkpt lat="65.60569" lon="22.18514">
        <ele>17.817979</ele>
        <time>2020-08-28T03:10:36.452Z</time>
      </trkpt>
      <trkpt lat="65.60465" lon="22.1847">
        <ele>16.940524</ele>
        <time>2020-08-28T03:10:52.613Z</time>
      </trkpt>
      <trkpt lat="65.60433" lon="22.18466">
        <ele>16.675698</ele>
        <time>2020-08-28T03:10:57.955Z</time>
      </trkpt>
      <trkpt lat="65.60396" lon="22.18468">
        <ele>16.453476</ele>
        <time>2020-08-28T03:11:04.421Z</time>
      </trkpt>
      <trkpt lat="65.60356" lon="22.18481">
        <ele>16.434102</ele>
        <time>2020-08-28T03:11:11.833Z</time>
      </trkpt>
      <trkpt lat="65.60323" lon="22.18493">
        <ele>16.418489</ele>
        <time>2020-08-28T03:11:17.710Z</time>
      </trkpt>
      <trkpt lat="65.60283" lon="22.18514">
        <ele>16.398683</ele>
        <time>2020-08-28T03:11:25.081Z</time>
      </trkpt>
      <trkpt lat="65.60226" lon="22.18549">
        <ele>16.341093</ele>
        <time>2020-08-28T03:11:35.535Z</time>
      </trkpt>
      <trkpt lat="65.60151" lon="22.18599">
        <ele>15.737397</ele>
        <time>2020-08-28T03:11:49.156Z</time>
      </trkpt>
      <trkpt lat="65.60098" lon="22.18625">
        <ele>15.326378</ele>
        <time>2020-08-28T03:11:57.686Z</time>
      </trkpt>
      <trkpt lat="65.60031" lon="22.18654">
        <ele>14.464521</ele>
        <time>2020-08-28T03:12:07.374Z</time>
      </trkpt>
      <trkpt lat="65.60007" lon="22.18666">
        <ele>13.926964</ele>
        <time>2020-08-28T03:12:10.808Z</time>
      </trkpt>
      <trkpt lat="65.59993" lon="22.18673">
        <ele>13.611826</ele>
        <time>2020-08-28T03:12:12.759Z</time>
      </trkpt>
      <trkpt lat="65.59986" lon="22.18669">
        <ele>13.448914</ele>
        <time>2020-08-28T03:12:13.820Z</time>
      </trkpt>
      <trkpt lat="65.59977" lon="22.18653">
        <ele>13.204581</ele>
        <time>2020-08-28T03:12:15.390Z</time>
      </trkpt>
      <trkpt lat="65.59973" lon="22.18642">
        <ele>13.081842</ele>
        <time>2020-08-28T03:12:16.139Z</time>
      </trkpt>
      <trkpt lat="65.59969" lon="22.18634">
        <ele>12.958787</ele>
        <time>2020-08-28T03:12:16.887Z</time>
      </trkpt>
      <trkpt lat="65.59963" lon="22.1863">
        <ele>12.834241</ele>
        <time>2020-08-28T03:12:17.683Z</time>
      </trkpt>
      <trkpt lat="65.59948" lon="22.18607">
        <ele>12.431976</ele>
        <time>2020-08-28T03:12:20.297Z</time>
      </trkpt>
      <trkpt lat="65.59935" lon="22.18591">
        <ele>12.115003</ele>
        <time>2020-08-28T03:12:22.248Z</time>
      </trkpt>
      <trkpt lat="65.59923" lon="22.18565">
        <ele>11.763788</ele>
        <time>2020-08-28T03:12:24.642Z</time>
      </trkpt>
      <trkpt lat="65.5991" lon="22.18538">
        <ele>11.387557</ele>
        <time>2020-08-28T03:12:27.094Z</time>
      </trkpt>
      <trkpt lat="65.59894" lon="22.18496">
        <ele>10.928479</ele>
        <time>2020-08-28T03:12:30.527Z</time>
      </trkpt>
      <trkpt lat="65.59885" lon="22.18467">
        <ele>10.684432</ele>
        <time>2020-08-28T03:12:32.553Z</time>
      </trkpt>
      <trkpt lat="65.59855" lon="22.18368">
        <ele>9.869574</ele>
        <time>2020-08-28T03:12:39.593Z</time>
      </trkpt>
      <trkpt lat="65.59835" lon="22.18267">
        <ele>9.122653</ele>
        <time>2020-08-28T03:12:46.311Z</time>
      </trkpt>
      <trkpt lat="65.59807" lon="22.18085">
        <ele>7.95474</ele>
        <time>2020-08-28T03:12:59.060Z</time>
      </trkpt>
      <trkpt lat="65.59794" lon="22.17959">
        <ele>7.431606</ele>
        <time>2020-08-28T03:13:07.478Z</time>
      </trkpt>
      <trkpt lat="65.59792" lon="22.17908">
        <ele>7.225381</ele>
        <time>2020-08-28T03:13:10.845Z</time>
      </trkpt>
      <trkpt lat="65.59793" lon="22.17893">
        <ele>7.161817</ele>
        <time>2020-08-28T03:13:11.773Z</time>
      </trkpt>
      <trkpt lat="65.59796" lon="22.17761">
        <ele>6.626919</ele>
        <time>2020-08-28T03:13:20.196Z</time>
      </trkpt>
      <trkpt lat="65.59797" lon="22.17721">
        <ele>6.467023</ele>
        <time>2020-08-28T03:13:22.664Z</time>
      </trkpt>
      <trkpt lat="65.59797" lon="22.1769">
        <ele>6.367341</ele>
        <time>2020-08-28T03:13:24.743Z</time>
      </trkpt>
      <trkpt lat="65.59795" lon="22.17641">
        <ele>6.253666</ele>
        <time>2020-08-28T03:13:28.079Z</time>
      </trkpt>
      <trkpt lat="65.59804" lon="22.17633">
        <ele>6.198329</ele>
        <time>2020-08-28T03:13:29.677Z</time>
      </trkpt>
      <trkpt lat="65.59799" lon="22.176">
        <ele>6.115282</ele>
        <time>2020-08-28T03:13:32.185Z</time>
      </trkpt>
      <trkpt lat="65.59791" lon="22.17546">
        <ele>5.984548</ele>
        <time>2020-08-28T03:13:36.041Z</time>
      </trkpt>
      <trkpt lat="65.59778" lon="22.17467">
        <ele>5.789268</ele>
        <time>2020-08-28T03:13:42.038Z</time>
      </trkpt>
      <trkpt lat="65.59772" lon="22.17433">
        <ele>5.702805</ele>
        <time>2020-08-28T03:13:44.739Z</time>
      </trkpt>
      <trkpt lat="65.59749" lon="22.17392">
        <ele>5.544897</ele>
        <time>2020-08-28T03:13:49.765Z</time>
      </trkpt>
      <trkpt lat="65.59724" lon="22.17344">
        <ele>5.395466</ele>
        <time>2020-08-28T03:13:55.726Z</time>
      </trkpt>
      <trkpt lat="65.59702" lon="22.17302">
        <ele>5.383855</ele>
        <time>2020-08-28T03:14:01.002Z</time>
      </trkpt>
      <trkpt lat="65.59678" lon="22.17271">
        <ele>5.372878</ele>
        <time>2020-08-28T03:14:05.882Z</time>
      </trkpt>
      <trkpt lat="65.59663" lon="22.17255">
        <ele>5.366016</ele>
        <time>2020-08-28T03:14:08.887Z</time>
      </trkpt>
      <trkpt lat="65.59651" lon="22.17244">
        <ele>5.360877</ele>
        <time>2020-08-28T03:14:11.247Z</time>
      </trkpt>
      <trkpt lat="65.59631" lon="22.17229">
        <ele>5.352021</ele>
        <time>2020-08-28T03:14:15.129Z</time>
      </trkpt>
      <trkpt lat="65.59613" lon="22.17218">
        <ele>5.344782</ele>
        <time>2020-08-28T03:14:18.462Z</time>
      </trkpt>
      <trkpt lat="65.59595" lon="22.1721">
        <ele>5.337188</ele>
        <time>2020-08-28T03:14:21.795Z</time>
      </trkpt>
      <trkpt lat="65.59591" lon="22.17206">
        <ele>5.335478</ele>
        <time>2020-08-28T03:14:22.597Z</time>
      </trkpt>
      <trkpt lat="65.59589" lon="22.17198">
        <ele>5.333838</ele>
        <time>2020-08-28T03:14:23.404Z</time>
      </trkpt>
      <trkpt lat="65.59588" lon="22.17171">
        <ele>5.329185</ele>
        <time>2020-08-28T03:14:25.490Z</time>
      </trkpt>
      <trkpt lat="65.59586" lon="22.17144">
        <ele>5.32467</ele>
        <time>2020-08-28T03:14:27.481Z</time>
      </trkpt>
      <trkpt lat="65.59584" lon="22.17109">
        <ele>5.403609</ele>
        <time>2020-08-28T03:14:30.346Z</time>
      </trkpt>
      <trkpt lat="65.59581" lon="22.17077">
        <ele>5.485555</ele>
        <time>2020-08-28T03:14:32.909Z</time>
      </trkpt>
      <trkpt lat="65.59576" lon="22.17055">
        <ele>5.545329</ele>
        <time>2020-08-28T03:14:34.752Z</time>
      </trkpt>
      <trkpt lat="65.59559" lon="22.17012">
        <ele>5.692932</ele>
        <time>2020-08-28T03:14:39.736Z</time>
      </trkpt>
      <trkpt lat="65.59538" lon="22.16959">
        <ele>5.875127</ele>
        <time>2020-08-28T03:14:45.856Z</time>
      </trkpt>
      <trkpt lat="65.59519" lon="22.16908">
        <ele>6.044486</ele>
        <time>2020-08-28T03:14:51.695Z</time>
      </trkpt>
      <trkpt lat="65.59508" lon="22.1686">
        <ele>6.1828</ele>
        <time>2020-08-28T03:14:56.311Z</time>
      </trkpt>
      <trkpt lat="65.59502" lon="22.16822">
        <ele>6.283448</ele>
        <time>2020-08-28T03:14:59.922Z</time>
      </trkpt>
      <trkpt lat="65.595" lon="22.16797">
        <ele>6.345415</ele>
        <time>2020-08-28T03:15:02.199Z</time>
      </trkpt>
      <trkpt lat="65.59497" lon="22.16755">
        <ele>6.50279</ele>
        <time>2020-08-28T03:15:06.251Z</time>
      </trkpt>
      <trkpt lat="65.5949" lon="22.16709">
        <ele>6.747758</ele>
        <time>2020-08-28T03:15:10.854Z</time>
      </trkpt>
      <trkpt lat="65.59485" lon="22.16672">
        <ele>6.949101</ele>
        <time>2020-08-28T03:15:14.784Z</time>
      </trkpt>
      <trkpt lat="65.59471" lon="22.16597">
        <ele>7.36789</ele>
        <time>2020-08-28T03:15:22.985Z</time>
      </trkpt>
      <trkpt lat="65.5943" lon="22.16391">
        <ele>8.523003</ele>
        <time>2020-08-28T03:15:44.654Z</time>
      </trkpt>
      <trkpt lat="65.59405" lon="22.16266">
        <ele>8.451771</ele>
        <time>2020-08-28T03:15:56.062Z</time>
      </trkpt>
      <trkpt lat="65.59394" lon="22.16204">
        <ele>8.363798</ele>
        <time>2020-08-28T03:16:01.143Z</time>
      </trkpt>
      <trkpt lat="65.59377" lon="22.16129">
        <ele>8.252248</ele>
        <time>2020-08-28T03:16:07.289Z</time>
      </trkpt>
      <trkpt lat="65.59332" lon="22.15892">
        <ele>7.579442</ele>
        <time>2020-08-28T03:16:24.575Z</time>
      </trkpt>
      <trkpt lat="65.59321" lon="22.1567">
        <ele>6.555324</ele>
        <time>2020-08-28T03:16:39.111Z</time>
      </trkpt>
      <trkpt lat="65.59323" lon="22.15656">
        <ele>6.486017</ele>
        <time>2020-08-28T03:16:40.007Z</time>
      </trkpt>
      <trkpt lat="65.59327" lon="22.15623">
        <ele>6.331143</ele>
        <time>2020-08-28T03:16:42.361Z</time>
      </trkpt>
      <trkpt lat="65.59328" lon="22.15599">
        <ele>6.22248</ele>
        <time>2020-08-28T03:16:44.016Z</time>
      </trkpt>
      <trkpt lat="65.59315" lon="22.15589">
        <ele>6.079111</ele>
        <time>2020-08-28T03:16:46.041Z</time>
      </trkpt>
      <trkpt lat="65.59309" lon="22.15585">
        <ele>6.045951</ele>
        <time>2020-08-28T03:16:47.121Z</time>
      </trkpt>
      <trkpt lat="65.59285" lon="22.15577">
        <ele>6.040433</ele>
        <time>2020-08-28T03:16:51.324Z</time>
      </trkpt>
      <trkpt lat="65.59276" lon="22.15572">
        <ele>6.038351</ele>
        <time>2020-08-28T03:16:52.812Z</time>
      </trkpt>
      <trkpt lat="65.5926" lon="22.15557">
        <ele>6.034429</ele>
        <time>2020-08-28T03:16:55.925Z</time>
      </trkpt>
      <trkpt lat="65.59231" lon="22.15553">
        <ele>6.027822</ele>
        <time>2020-08-28T03:17:01.095Z</time>
      </trkpt>
      <trkpt lat="65.59215" lon="22.15552">
        <ele>6.024275</ele>
        <time>2020-08-28T03:17:04.000Z</time>
      </trkpt>
      <trkpt lat="65.59176" lon="22.15541">
        <ele>6.015403</ele>
        <time>2020-08-28T03:17:11.720Z</time>
      </trkpt>
      <trkpt lat="65.59119" lon="22.15521">
        <ele>6.064312</ele>
        <time>2020-08-28T03:17:23.920Z</time>
      </trkpt>
      <trkpt lat="65.5911" lon="22.15518">
        <ele>6.092387</ele>
        <time>2020-08-28T03:17:25.619Z</time>
      </trkpt>
      <trkpt lat="65.59089" lon="22.15511">
        <ele>6.166774</ele>
        <time>2020-08-28T03:17:30.153Z</time>
      </trkpt>
      <trkpt lat="65.59078" lon="22.15506">
        <ele>6.206082</ele>
        <time>2020-08-28T03:17:32.441Z</time>
      </trkpt>
      <trkpt lat="65.59067" lon="22.15507">
        <ele>6.243903</ele>
        <time>2020-08-28T03:17:34.784Z</time>
      </trkpt>
      <trkpt lat="65.59052" lon="22.15501">
        <ele>6.296855</ele>
        <time>2020-08-28T03:17:37.964Z</time>
      </trkpt>
      <trkpt lat="65.59048" lon="22.15499">
        <ele>6.309754</ele>
        <time>2020-08-28T03:17:38.683Z</time>
      </trkpt>
      <trkpt lat="65.59034" lon="22.15493">
        <ele>6.357363</ele>
        <time>2020-08-28T03:17:41.564Z</time>
      </trkpt>
      <trkpt lat="65.5902" lon="22.15483">
        <ele>6.408872</ele>
        <time>2020-08-28T03:17:44.597Z</time>
      </trkpt>
      <trkpt lat="65.59012" lon="22.15476">
        <ele>6.438913</ele>
        <time>2020-08-28T03:17:46.226Z</time>
      </trkpt>
      <trkpt lat="65.59005" lon="22.15462">
        <ele>6.469691</ele>
        <time>2020-08-28T03:17:47.844Z</time>
      </trkpt>
      <trkpt lat="65.58996" lon="22.15432">
        <ele>6.521678</ele>
        <time>2020-08-28T03:17:50.823Z</time>
      </trkpt>
      <trkpt lat="65.5899" lon="22.15404">
        <ele>6.567408</ele>
        <time>2020-08-28T03:17:53.267Z</time>
      </trkpt>
      <trkpt lat="65.58985" lon="22.15394">
        <ele>6.588387</ele>
        <time>2020-08-28T03:17:54.323Z</time>
      </trkpt>
      <trkpt lat="65.58982" lon="22.15365">
        <ele>6.606537</ele>
        <time>2020-08-28T03:17:56.619Z</time>
      </trkpt>
      <trkpt lat="65.58979" lon="22.15343">
        <ele>6.508677</ele>
        <time>2020-08-28T03:17:58.469Z</time>
      </trkpt>
      <trkpt lat="65.58983" lon="22.15334">
        <ele>6.455586</ele>
        <time>2020-08-28T03:17:59.336Z</time>
      </trkpt>
      <trkpt lat="65.58967" lon="22.15178">
        <ele>5.788924</ele>
        <time>2020-08-28T03:18:10.616Z</time>
      </trkpt>
      <trkpt lat="65.58965" lon="22.15158">
        <ele>5.704533</ele>
        <time>2020-08-28T03:18:11.932Z</time>
      </trkpt>
      <trkpt lat="65.58964" lon="22.1514">
        <ele>5.629254</ele>
        <time>2020-08-28T03:18:13.069Z</time>
      </trkpt>
      <trkpt lat="65.58963" lon="22.15118">
        <ele>5.53513</ele>
        <time>2020-08-28T03:18:14.612Z</time>
      </trkpt>
      <trkpt lat="65.58945" lon="22.14943">
        <ele>4.782188</ele>
        <time>2020-08-28T03:18:25.961Z</time>
      </trkpt>
      <trkpt lat="65.58939" lon="22.1494">
        <ele>4.703381</ele>
        <time>2020-08-28T03:18:26.924Z</time>
      </trkpt>
      <trkpt lat="65.58927" lon="22.14922">
        <ele>4.531527</ele>
        <time>2020-08-28T03:18:29.029Z</time>
      </trkpt>
      <trkpt lat="65.58924" lon="22.14874">
        <ele>4.285128</ele>
        <time>2020-08-28T03:18:32.148Z</time>
      </trkpt>
      <trkpt lat="65.58924" lon="22.14858">
        <ele>4.203014</ele>
        <time>2020-08-28T03:18:33.134Z</time>
      </trkpt>
      <trkpt lat="65.58922" lon="22.14838">
        <ele>4.093468</ele>
        <time>2020-08-28T03:18:34.485Z</time>
      </trkpt>
      <trkpt lat="65.58911" lon="22.14758">
        <ele>3.665298</ele>
        <time>2020-08-28T03:18:39.895Z</time>
      </trkpt>
      <trkpt lat="65.58909" lon="22.14742">
        <ele>3.580232</ele>
        <time>2020-08-28T03:18:41.016Z</time>
      </trkpt>
      <trkpt lat="65.58906" lon="22.14715">
        <ele>3.439604</ele>
        <time>2020-08-28T03:18:42.849Z</time>
      </trkpt>
      <trkpt lat="65.58903" lon="22.14698">
        <ele>3.347014</ele>
        <time>2020-08-28T03:18:43.985Z</time>
      </trkpt>
      <trkpt lat="65.58894" lon="22.14706">
        <ele>3.221544</ele>
        <time>2020-08-28T03:18:45.641Z</time>
      </trkpt>
      <trkpt lat="65.58882" lon="22.14713">
        <ele>3.068358</ele>
        <time>2020-08-28T03:18:47.695Z</time>
      </trkpt>
      <trkpt lat="65.58856" lon="22.1474">
        <ele>2.721124</ele>
        <time>2020-08-28T03:18:52.239Z</time>
      </trkpt>
      <trkpt lat="65.58847" lon="22.14754">
        <ele>2.599196</ele>
        <time>2020-08-28T03:18:53.957Z</time>
      </trkpt>
      <trkpt lat="65.58701" lon="22.14924">
        <ele>1.839573</ele>
        <time>2020-08-28T03:19:22.271Z</time>
      </trkpt>
      <trkpt lat="65.58648" lon="22.14971">
        <ele>1.625469</ele>
        <time>2020-08-28T03:19:32.030Z</time>
      </trkpt>
      <trkpt lat="65.58631" lon="22.14979">
        <ele>1.563829</ele>
        <time>2020-08-28T03:19:35.298Z</time>
      </trkpt>
      <trkpt lat="65.58594" lon="22.1495">
        <ele>1.429095</ele>
        <time>2020-08-28T03:19:42.161Z</time>
      </trkpt>
      <trkpt lat="65.58582" lon="22.14941">
        <ele>1.386746</ele>
        <time>2020-08-28T03:19:44.173Z</time>
      </trkpt>
      <trkpt lat="65.58562" lon="22.14923">
        <ele>1.311135</ele>
        <time>2020-08-28T03:19:48.189Z</time>
      </trkpt>
      <trkpt lat="65.58502" lon="22.14851">
        <ele>1.145562</ele>
        <time>2020-08-28T03:19:59.910Z</time>
      </trkpt>
      <trkpt lat="65.58497" lon="22.14838">
        <ele>1.14852</ele>
        <time>2020-08-28T03:20:01.327Z</time>
      </trkpt>
      <trkpt lat="65.58494" lon="22.14832">
        <ele>1.149831</ele>
        <time>2020-08-28T03:20:01.895Z</time>
      </trkpt>
      <trkpt lat="65.58487" lon="22.14784">
        <ele>1.158009</ele>
        <time>2020-08-28T03:20:05.711Z</time>
      </trkpt>
      <trkpt lat="65.5848" lon="22.14723">
        <ele>1.168027</ele>
        <time>2020-08-28T03:20:10.342Z</time>
      </trkpt>
      <trkpt lat="65.58467" lon="22.14605">
        <ele>1.187395</ele>
        <time>2020-08-28T03:20:19.989Z</time>
      </trkpt>
      <trkpt lat="65.58457" lon="22.14511">
        <ele>1.202703</ele>
        <time>2020-08-28T03:20:27.742Z</time>
      </trkpt>
      <trkpt lat="65.58454" lon="22.14468">
        <ele>1.233363</ele>
        <time>2020-08-28T03:20:31.421Z</time>
      </trkpt>
      <trkpt lat="65.58451" lon="22.14429">
        <ele>1.334521</ele>
        <time>2020-08-28T03:20:34.606Z</time>
      </trkpt>
      <trkpt lat="65.58448" lon="22.14401">
        <ele>1.406807</ele>
        <time>2020-08-28T03:20:36.926Z</time>
      </trkpt>
      <trkpt lat="65.58447" lon="22.14363">
        <ele>1.50381</ele>
        <time>2020-08-28T03:20:40.231Z</time>
      </trkpt>
      <trkpt lat="65.58448" lon="22.1435">
        <ele>1.538447</ele>
        <time>2020-08-28T03:20:41.332Z</time>
      </trkpt>
      <trkpt lat="65.58435" lon="22.14337">
        <ele>1.626258</ele>
        <time>2020-08-28T03:20:44.180Z</time>
      </trkpt>
      <trkpt lat="65.5843" lon="22.14327">
        <ele>1.665029</ele>
        <time>2020-08-28T03:20:45.590Z</time>
      </trkpt>
      <trkpt lat="65.58417" lon="22.14271">
        <ele>1.8301</ele>
        <time>2020-08-28T03:20:50.980Z</time>
      </trkpt>
      <trkpt lat="65.58399" lon="22.14106">
        <ele>2.269805</ele>
        <time>2020-08-28T03:21:05.871Z</time>
      </trkpt>
      <trkpt lat="65.58393" lon="22.14063">
        <ele>2.389159</ele>
        <time>2020-08-28T03:21:09.939Z</time>
      </trkpt>
      <trkpt lat="65.58385" lon="22.13988">
        <ele>2.599255</ele>
        <time>2020-08-28T03:21:16.703Z</time>
      </trkpt>
      <trkpt lat="65.58371" lon="22.13857">
        <ele>2.967755</ele>
        <time>2020-08-28T03:21:28.364Z</time>
      </trkpt>
      <trkpt lat="65.58367" lon="22.13859">
        <ele>2.992919</ele>
        <time>2020-08-28T03:21:29.151Z</time>
      </trkpt>
      <trkpt lat="65.58363" lon="22.13861">
        <ele>3.019771</ele>
        <time>2020-08-28T03:21:30.004Z</time>
      </trkpt>
      <trkpt lat="65.58304" lon="22.13897">
        <ele>3.41777</ele>
        <time>2020-08-28T03:21:42.355Z</time>
      </trkpt>
      <trkpt lat="65.5829" lon="22.13905">
        <ele>3.516739</ele>
        <time>2020-08-28T03:21:45.251Z</time>
      </trkpt>
      <trkpt lat="65.58214" lon="22.13956">
        <ele>4.180526</ele>
        <time>2020-08-28T03:22:01.329Z</time>
      </trkpt>
      <trkpt lat="65.58179" lon="22.13977">
        <ele>4.477938</ele>
        <time>2020-08-28T03:22:08.453Z</time>
      </trkpt>
      <trkpt lat="65.58136" lon="22.14006">
        <ele>4.856481</ele>
        <time>2020-08-28T03:22:18.206Z</time>
      </trkpt>
      <trkpt lat="65.5813" lon="22.13952">
        <ele>5.074747</ele>
        <time>2020-08-28T03:22:23.099Z</time>
      </trkpt>
      <trkpt lat="65.58119" lon="22.1385">
        <ele>5.727256</ele>
        <time>2020-08-28T03:22:33.023Z</time>
      </trkpt>
      <trkpt lat="65.5811" lon="22.13773">
        <ele>6.220103</ele>
        <time>2020-08-28T03:22:40.661Z</time>
      </trkpt>
      <trkpt lat="65.58106" lon="22.13743">
        <ele>6.410273</ele>
        <time>2020-08-28T03:22:43.793Z</time>
      </trkpt>
      <trkpt lat="65.58099" lon="22.13668">
        <ele>6.886523</ele>
        <time>2020-08-28T03:22:51.391Z</time>
      </trkpt>
      <trkpt lat="65.58098" lon="22.13662">
        <ele>6.926141</ele>
        <time>2020-08-28T03:22:52.054Z</time>
      </trkpt>
      <trkpt lat="65.5809" lon="22.13586">
        <ele>7.406815</ele>
        <time>2020-08-28T03:22:59.376Z</time>
      </trkpt>
      <trkpt lat="65.58083" lon="22.13516">
        <ele>7.725751</ele>
        <time>2020-08-28T03:23:05.897Z</time>
      </trkpt>
      <trkpt lat="65.58082" lon="22.1351">
        <ele>7.732433</ele>
        <time>2020-08-28T03:23:06.458Z</time>
      </trkpt>
      <trkpt lat="65.5808" lon="22.13488">
        <ele>7.758787</ele>
        <time>2020-08-28T03:23:08.544Z</time>
      </trkpt>
      <trkpt lat="65.58069" lon="22.13491">
        <ele>7.790004</ele>
        <time>2020-08-28T03:23:10.796Z</time>
      </trkpt>
      <trkpt lat="65.58041" lon="22.13491">
        <ele>7.867876</ele>
        <time>2020-08-28T03:23:16.703Z</time>
      </trkpt>
      <trkpt lat="65.58026" lon="22.1347">
        <ele>7.916424</ele>
        <time>2020-08-28T03:23:20.063Z</time>
      </trkpt>
      <trkpt lat="65.58017" lon="22.1345">
        <ele>7.952629</ele>
        <time>2020-08-28T03:23:22.702Z</time>
      </trkpt>
      <trkpt lat="65.58013" lon="22.13422">
        <ele>7.986063</ele>
        <time>2020-08-28T03:23:24.851Z</time>
      </trkpt>
      <trkpt lat="65.57983" lon="22.13161">
        <ele>7.989468</ele>
        <time>2020-08-28T03:23:44.435Z</time>
      </trkpt>
      <trkpt lat="65.5779" lon="22.11342">
        <ele>4.531792</ele>
        <time>2020-08-28T03:25:56.215Z</time>
      </trkpt>
      <trkpt lat="65.57785" lon="22.11295">
        <ele>4.674392</ele>
        <time>2020-08-28T03:26:00.974Z</time>
      </trkpt>
      <trkpt lat="65.57778" lon="22.11207">
        <ele>4.940925</ele>
        <time>2020-08-28T03:26:10.083Z</time>
      </trkpt>
      <trkpt lat="65.57782" lon="22.11189">
        <ele>5.004268</ele>
        <time>2020-08-28T03:26:12.055Z</time>
      </trkpt>
      <trkpt lat="65.57791" lon="22.11169">
        <ele>5.091884</ele>
        <time>2020-08-28T03:26:15.925Z</time>
      </trkpt>
      <trkpt lat="65.57795" lon="22.11202">
        <ele>5.24784</ele>
        <time>2020-08-28T03:26:19.324Z</time>
      </trkpt>
      <trkpt lat="65.57782" lon="22.11214">
        <ele>5.524543</ele>
        <time>2020-08-28T03:26:23.052Z</time>
      </trkpt>
      <trkpt lat="65.57762" lon="22.11233">
        <ele>5.962972</ele>
        <time>2020-08-28T03:26:28.890Z</time>
      </trkpt>
      <trkpt lat="65.57748" lon="22.11246">
        <ele>6.266713</ele>
        <time>2020-08-28T03:26:33.018Z</time>
      </trkpt>
      <trkpt lat="65.5774" lon="22.11233">
        <ele>6.463893</ele>
        <time>2020-08-28T03:26:35.879Z</time>
      </trkpt>
      <trkpt lat="65.57737" lon="22.11219">
        <ele>6.60448</ele>
        <time>2020-08-28T03:26:37.492Z</time>
      </trkpt>
      <trkpt lat="65.57735" lon="22.11193">
        <ele>6.822703</ele>
        <time>2020-08-28T03:26:40.339Z</time>
      </trkpt>
      <trkpt lat="65.57734" lon="22.11171">
        <ele>7.00965</ele>
        <time>2020-08-28T03:26:43.061Z</time>
      </trkpt>
      <trkpt lat="65.57737" lon="22.11095">
        <ele>7.654519</ele>
        <time>2020-08-28T03:26:50.476Z</time>
      </trkpt>
      <trkpt lat="65.57734" lon="22.1105">
        <ele>8.032424</ele>
        <time>2020-08-28T03:26:54.800Z</time>
      </trkpt>
      <trkpt lat="65.57729" lon="22.11018">
        <ele>8.325852</ele>
        <time>2020-08-28T03:26:58.240Z</time>
      </trkpt>
      <trkpt lat="65.57722" lon="22.10974">
        <ele>8.718304</ele>
        <time>2020-08-28T03:27:02.170Z</time>
      </trkpt>
      <trkpt lat="65.57708" lon="22.10845">
        <ele>9.413641</ele>
        <time>2020-08-28T03:27:15.831Z</time>
      </trkpt>
      <trkpt lat="65.57705" lon="22.108">
        <ele>9.640374</ele>
        <time>2020-08-28T03:27:19.735Z</time>
      </trkpt>
      <trkpt lat="65.57704" lon="22.10763">
        <ele>9.822564</ele>
        <time>2020-08-28T03:27:23.325Z</time>
      </trkpt>
      <trkpt lat="65.57703" lon="22.10721">
        <ele>10.029462</ele>
        <time>2020-08-28T03:27:26.599Z</time>
      </trkpt>
      <trkpt lat="65.577" lon="22.10571">
        <ele>10.763337</ele>
        <time>2020-08-28T03:27:39.913Z</time>
      </trkpt>
      <trkpt lat="65.57698" lon="22.10542">
        <ele>10.910774</ele>
        <time>2020-08-28T03:27:42.782Z</time>
      </trkpt>
      <trkpt lat="65.57694" lon="22.10479">
        <ele>11.366309</ele>
        <time>2020-08-28T03:27:48.773Z</time>
      </trkpt>
      <trkpt lat="65.5769" lon="22.10443">
        <ele>11.645649</ele>
        <time>2020-08-28T03:27:52.359Z</time>
      </trkpt>
      <trkpt lat="65.57687" lon="22.1041">
        <ele>11.905635</ele>
        <time>2020-08-28T03:27:55.745Z</time>
      </trkpt>
      <trkpt lat="65.57682" lon="22.10351">
        <ele>12.363571</ele>
        <time>2020-08-28T03:28:01.903Z</time>
      </trkpt>
      <trkpt lat="65.5768" lon="22.10292">
        <ele>12.808656</ele>
        <time>2020-08-28T03:28:08.085Z</time>
      </trkpt>
      <trkpt lat="65.57681" lon="22.1023">
        <ele>13.277764</ele>
        <time>2020-08-28T03:28:14.434Z</time>
      </trkpt>
      <trkpt lat="65.57684" lon="22.10166">
        <ele>13.764605</ele>
        <time>2020-08-28T03:28:21.306Z</time>
      </trkpt>
      <trkpt lat="65.57693" lon="22.09928">
        <ele>15.261623</ele>
        <time>2020-08-28T03:28:46.428Z</time>
      </trkpt>
      <trkpt lat="65.57694" lon="22.09822">
        <ele>15.867878</ele>
        <time>2020-08-28T03:28:56.402Z</time>
      </trkpt>
      <trkpt lat="65.57684" lon="22.09746">
        <ele>16.321402</ele>
        <time>2020-08-28T03:29:03.383Z</time>
      </trkpt>
      <trkpt lat="65.57696" lon="22.09655">
        <ele>16.786699</ele>
        <time>2020-08-28T03:29:11.494Z</time>
      </trkpt>
      <trkpt lat="65.57701" lon="22.09616">
        <ele>16.852222</ele>
        <time>2020-08-28T03:29:14.647Z</time>
      </trkpt>
      <trkpt lat="65.57692" lon="22.09599">
        <ele>16.896139</ele>
        <time>2020-08-28T03:29:17.154Z</time>
      </trkpt>
      <trkpt lat="65.57449" lon="22.09444">
        <ele>17.712978</ele>
        <time>2020-08-28T03:30:06.151Z</time>
      </trkpt>
      <trkpt lat="65.57442" lon="22.0945">
        <ele>17.731774</ele>
        <time>2020-08-28T03:30:07.696Z</time>
      </trkpt>
      <trkpt lat="65.57437" lon="22.09447">
        <ele>17.743631</ele>
        <time>2020-08-28T03:30:08.613Z</time>
      </trkpt>
      <trkpt lat="65.57432" lon="22.09445">
        <ele>17.75592</ele>
        <time>2020-08-28T03:30:09.633Z</time>
      </trkpt>
      <trkpt lat="65.57425" lon="22.09429">
        <ele>17.77852</ele>
        <time>2020-08-28T03:30:11.467Z</time>
      </trkpt>
      <trkpt lat="65.57317" lon="22.09358">
        <ele>17.94559</ele>
        <time>2020-08-28T03:30:32.774Z</time>
      </trkpt>
      <trkpt lat="65.57265" lon="22.09313">
        <ele>17.996191</ele>
        <time>2020-08-28T03:30:43.187Z</time>
      </trkpt>
      <trkpt lat="65.57258" lon="22.09305">
        <ele>18.002825</ele>
        <time>2020-08-28T03:30:44.564Z</time>
      </trkpt>
      <trkpt lat="65.5725" lon="22.09287">
        <ele>18.012596</ele>
        <time>2020-08-28T03:30:46.580Z</time>
      </trkpt>
      <trkpt lat="65.57221" lon="22.09197">
        <ele>18.071995</ele>
        <time>2020-08-28T03:30:55.535Z</time>
      </trkpt>
      <trkpt lat="65.57167" lon="22.09066">
        <ele>18.281072</ele>
        <time>2020-08-28T03:31:10.271Z</time>
      </trkpt>
      <trkpt lat="65.57147" lon="22.09031">
        <ele>18.348337</ele>
        <time>2020-08-28T03:31:15.069Z</time>
      </trkpt>
      <trkpt lat="65.57013" lon="22.08885">
        <ele>18.914913</ele>
        <time>2020-08-28T03:31:43.290Z</time>
      </trkpt>
      <trkpt lat="65.56852" lon="22.08703">
        <ele>19.627322</ele>
        <time>2020-08-28T03:32:18.043Z</time>
      </trkpt>
      <trkpt lat="65.56766" lon="22.08609">
        <ele>19.888801</ele>
        <time>2020-08-28T03:32:35.278Z</time>
      </trkpt>
      <trkpt lat="65.56761" lon="22.08635">
        <ele>19.920201</ele>
        <time>2020-08-28T03:32:37.300Z</time>
      </trkpt>
      <trkpt lat="65.56746" lon="22.08712">
        <ele>19.958687</ele>
        <time>2020-08-28T03:32:43.567Z</time>
      </trkpt>
      <trkpt lat="65.56703" lon="22.08901">
        <ele>20.055684</ele>
        <time>2020-08-28T03:32:59.632Z</time>
      </trkpt>
      <trkpt lat="65.56691" lon="22.08951">
        <ele>20.081746</ele>
        <time>2020-08-28T03:33:03.990Z</time>
      </trkpt>
      <trkpt lat="65.56592" lon="22.08897">
        <ele>20.304316</ele>
        <time>2020-08-28T03:33:23.678Z</time>
      </trkpt>
      <trkpt lat="65.56549" lon="22.08867">
        <ele>20.423557</ele>
        <time>2020-08-28T03:33:32.515Z</time>
      </trkpt>
      <trkpt lat="65.56483" lon="22.08826">
        <ele>20.592733</ele>
        <time>2020-08-28T03:33:46.039Z</time>
      </trkpt>
      <trkpt lat="65.56386" lon="22.08756">
        <ele>20.470853</ele>
        <time>2020-08-28T03:34:04.780Z</time>
      </trkpt>
      <trkpt lat="65.56354" lon="22.0874">
        <ele>20.431979</ele>
        <time>2020-08-28T03:34:10.462Z</time>
      </trkpt>
      <trkpt lat="65.56155" lon="22.08619">
        <ele>19.649883</ele>
        <time>2020-08-28T03:34:46.047Z</time>
      </trkpt>
      <trkpt lat="65.56029" lon="22.08536">
        <ele>19.436069</ele>
        <time>2020-08-28T03:35:09.311Z</time>
      </trkpt>
      <trkpt lat="65.55981" lon="22.08506">
        <ele>19.375687</ele>
        <time>2020-08-28T03:35:18.455Z</time>
      </trkpt>
      <trkpt lat="65.55969" lon="22.08497">
        <ele>19.359565</ele>
        <time>2020-08-28T03:35:20.918Z</time>
      </trkpt>
      <trkpt lat="65.55769" lon="22.08373">
        <ele>20.146909</ele>
        <time>2020-08-28T03:36:02.043Z</time>
      </trkpt>
      <trkpt lat="65.55481" lon="22.08195">
        <ele>21.460776</ele>
        <time>2020-08-28T03:37:02.297Z</time>
      </trkpt>
      <trkpt lat="65.55314" lon="22.08128">
        <ele>21.320631</ele>
        <time>2020-08-28T03:37:33.141Z</time>
      </trkpt>
      <trkpt lat="65.55224" lon="22.08084">
        <ele>20.988412</ele>
        <time>2020-08-28T03:37:48.818Z</time>
      </trkpt>
      <trkpt lat="65.55204" lon="22.08064">
        <ele>20.867542</ele>
        <time>2020-08-28T03:37:52.686Z</time>
      </trkpt>
      <trkpt lat="65.55123" lon="22.08011">
        <ele>20.417156</ele>
        <time>2020-08-28T03:38:06.912Z</time>
      </trkpt>
      <trkpt lat="65.55059" lon="22.07973">
        <ele>20.011101</ele>
        <time>2020-08-28T03:38:18.158Z</time>
      </trkpt>
      <trkpt lat="65.55045" lon="22.07957">
        <ele>19.900136</ele>
        <time>2020-08-28T03:38:20.888Z</time>
      </trkpt>
      <trkpt lat="65.55038" lon="22.07952">
        <ele>19.848704</ele>
        <time>2020-08-28T03:38:22.160Z</time>
      </trkpt>
      <trkpt lat="65.55031" lon="22.07943">
        <ele>19.799347</ele>
        <time>2020-08-28T03:38:23.351Z</time>
      </trkpt>
      <trkpt lat="65.55012" lon="22.07912">
        <ele>19.636259</ele>
        <time>2020-08-28T03:38:27.347Z</time>
      </trkpt>
      <trkpt lat="65.54892" lon="22.07833">
        <ele>18.673283</ele>
        <time>2020-08-28T03:38:48.020Z</time>
      </trkpt>
      <trkpt lat="65.54747" lon="22.07754">
        <ele>17.137634</ele>
        <time>2020-08-28T03:39:12.004Z</time>
      </trkpt>
      <trkpt lat="65.54668" lon="22.07702">
        <ele>16.01495</ele>
        <time>2020-08-28T03:39:24.734Z</time>
      </trkpt>
      <trkpt lat="65.54618" lon="22.07657">
        <ele>15.279947</ele>
        <time>2020-08-28T03:39:32.986Z</time>
      </trkpt>
      <trkpt lat="65.54503" lon="22.07589">
        <ele>13.842036</ele>
        <time>2020-08-28T03:39:51.426Z</time>
      </trkpt>
      <trkpt lat="65.54466" lon="22.07578">
        <ele>13.432484</ele>
        <time>2020-08-28T03:39:57.237Z</time>
      </trkpt>
      <trkpt lat="65.54096" lon="22.07343">
        <ele>10.286064</ele>
        <time>2020-08-28T03:41:00.768Z</time>
      </trkpt>
      <trkpt lat="65.54041" lon="22.07309">
        <ele>9.88367</ele>
        <time>2020-08-28T03:41:10.505Z</time>
      </trkpt>
      <trkpt lat="65.53902" lon="22.07216">
        <ele>8.958481</ele>
        <time>2020-08-28T03:41:34.924Z</time>
      </trkpt>
      <trkpt lat="65.53853" lon="22.07179">
        <ele>8.609272</ele>
        <time>2020-08-28T03:41:43.590Z</time>
      </trkpt>
      <trkpt lat="65.53668" lon="22.06997">
        <ele>7.323149</ele>
        <time>2020-08-28T03:42:17.033Z</time>
      </trkpt>
      <trkpt lat="65.53599" lon="22.06905">
        <ele>6.96134</ele>
        <time>2020-08-28T03:42:30.636Z</time>
      </trkpt>
      <trkpt lat="65.53517" lon="22.06777">
        <ele>6.740856</ele>
        <time>2020-08-28T03:42:48.118Z</time>
      </trkpt>
      <trkpt lat="65.53475" lon="22.06695">
        <ele>6.779168</ele>
        <time>2020-08-28T03:42:58.263Z</time>
      </trkpt>
      <trkpt lat="65.53412" lon="22.0656">
        <ele>6.844332</ele>
        <time>2020-08-28T03:43:14.599Z</time>
      </trkpt>
      <trkpt lat="65.53376" lon="22.06481">
        <ele>7.049264</ele>
        <time>2020-08-28T03:43:24.149Z</time>
      </trkpt>
      <trkpt lat="65.53338" lon="22.06359">
        <ele>7.319214</ele>
        <time>2020-08-28T03:43:36.947Z</time>
      </trkpt>
      <trkpt lat="65.53245" lon="22.06132">
        <ele>7.874278</ele>
        <time>2020-08-28T03:44:03.485Z</time>
      </trkpt>
      <trkpt lat="65.53078" lon="22.05758">
        <ele>8.631288</ele>
        <time>2020-08-28T03:44:48.833Z</time>
      </trkpt>
      <trkpt lat="65.53061" lon="22.05726">
        <ele>8.683936</ele>
        <time>2020-08-28T03:44:52.935Z</time>
      </trkpt>
      <trkpt lat="65.53021" lon="22.05649">
        <ele>8.775136</ele>
        <time>2020-08-28T03:45:02.461Z</time>
      </trkpt>
      <trkpt lat="65.53007" lon="22.0562">
        <ele>8.719903</ele>
        <time>2020-08-28T03:45:05.694Z</time>
      </trkpt>
      <trkpt lat="65.52961" lon="22.0552">
        <ele>8.53017</ele>
        <time>2020-08-28T03:45:16.448Z</time>
      </trkpt>
      <trkpt lat="65.52944" lon="22.05477">
        <ele>8.454052</ele>
        <time>2020-08-28T03:45:20.770Z</time>
      </trkpt>
      <trkpt lat="65.52932" lon="22.05451">
        <ele>8.403476</ele>
        <time>2020-08-28T03:45:23.582Z</time>
      </trkpt>
      <trkpt lat="65.52935" lon="22.05447">
        <ele>8.391305</ele>
        <time>2020-08-28T03:45:24.283Z</time>
      </trkpt>
      <trkpt lat="65.52877" lon="22.05296">
        <ele>8.363992</ele>
        <time>2020-08-28T03:45:38.510Z</time>
      </trkpt>
      <trkpt lat="65.52497" lon="22.04276">
        <ele>10.897477</ele>
        <time>2020-08-28T03:47:27.902Z</time>
      </trkpt>
      <trkpt lat="65.52468" lon="22.04162">
        <ele>11.459586</ele>
        <time>2020-08-28T03:47:41.045Z</time>
      </trkpt>
      <trkpt lat="65.52454" lon="22.04029">
        <ele>12.032179</ele>
        <time>2020-08-28T03:47:53.164Z</time>
      </trkpt>
      <trkpt lat="65.52437" lon="22.03877">
        <ele>12.209454</ele>
        <time>2020-08-28T03:48:06.600Z</time>
      </trkpt>
      <trkpt lat="65.52423" lon="22.0369">
        <ele>12.405713</ele>
        <time>2020-08-28T03:48:21.058Z</time>
      </trkpt>
      <trkpt lat="65.52384" lon="22.03173">
        <ele>11.548882</ele>
        <time>2020-08-28T03:48:56.288Z</time>
      </trkpt>
      <trkpt lat="65.52369" lon="22.03031">
        <ele>11.564375</ele>
        <time>2020-08-28T03:49:07.202Z</time>
      </trkpt>
      <trkpt lat="65.52354" lon="22.02884">
        <ele>11.580413</ele>
        <time>2020-08-28T03:49:18.807Z</time>
      </trkpt>
      <trkpt lat="65.52321" lon="22.02651">
        <ele>11.56234</ele>
        <time>2020-08-28T03:49:37.701Z</time>
      </trkpt>
      <trkpt lat="65.5229" lon="22.0245">
        <ele>11.499178</ele>
        <time>2020-08-28T03:49:53.280Z</time>
      </trkpt>
      <trkpt lat="65.5225" lon="22.02205">
        <ele>11.336008</ele>
        <time>2020-08-28T03:50:11.681Z</time>
      </trkpt>
      <trkpt lat="65.52191" lon="22.01945">
        <ele>11.115411</ele>
        <time>2020-08-28T03:50:32.907Z</time>
      </trkpt>
      <trkpt lat="65.52126" lon="22.01718">
        <ele>11.417533</ele>
        <time>2020-08-28T03:50:53.953Z</time>
      </trkpt>
      <trkpt lat="65.52038" lon="22.0153">
        <ele>11.831136</ele>
        <time>2020-08-28T03:51:17.195Z</time>
      </trkpt>
      <trkpt lat="65.52026" lon="22.01504">
        <ele>11.903754</ele>
        <time>2020-08-28T03:51:20.613Z</time>
      </trkpt>
      <trkpt lat="65.51958" lon="22.01397">
        <ele>12.257016</ele>
        <time>2020-08-28T03:51:36.027Z</time>
      </trkpt>
      <trkpt lat="65.51922" lon="22.01268">
        <ele>12.071981</ele>
        <time>2020-08-28T03:51:47.709Z</time>
      </trkpt>
      <trkpt lat="65.51905" lon="22.01186">
        <ele>11.79863</ele>
        <time>2020-08-28T03:51:54.004Z</time>
      </trkpt>
      <trkpt lat="65.51898" lon="22.01146">
        <ele>11.670062</ele>
        <time>2020-08-28T03:51:56.821Z</time>
      </trkpt>
      <trkpt lat="65.5189" lon="22.01089">
        <ele>11.489291</ele>
        <time>2020-08-28T03:52:00.742Z</time>
      </trkpt>
      <trkpt lat="65.51888" lon="22.00994">
        <ele>11.2075</ele>
        <time>2020-08-28T03:52:06.661Z</time>
      </trkpt>
      <trkpt lat="65.51887" lon="22.00954">
        <ele>11.08861</ele>
        <time>2020-08-28T03:52:09.123Z</time>
      </trkpt>
      <trkpt lat="65.51886" lon="22.00843">
        <ele>10.523209</ele>
        <time>2020-08-28T03:52:15.916Z</time>
      </trkpt>
      <trkpt lat="65.51886" lon="22.00816">
        <ele>10.38018</ele>
        <time>2020-08-28T03:52:17.557Z</time>
      </trkpt>
      <trkpt lat="65.51886" lon="22.00635">
        <ele>9.435872</ele>
        <time>2020-08-28T03:52:28.676Z</time>
      </trkpt>
      <trkpt lat="65.51908" lon="22.00408">
        <ele>8.770506</ele>
        <time>2020-08-28T03:52:43.768Z</time>
      </trkpt>
      <trkpt lat="65.51933" lon="22.00241">
        <ele>8.711885</ele>
        <time>2020-08-28T03:52:56.891Z</time>
      </trkpt>
      <trkpt lat="65.51984" lon="21.99893">
        <ele>9.169389</ele>
        <time>2020-08-28T03:53:27.197Z</time>
      </trkpt>
      <trkpt lat="65.52018" lon="21.99656">
        <ele>9.653624</ele>
        <time>2020-08-28T03:53:47.658Z</time>
      </trkpt>
      <trkpt lat="65.52082" lon="21.99364">
        <ele>9.791224</ele>
        <time>2020-08-28T03:54:12.543Z</time>
      </trkpt>
      <trkpt lat="65.52168" lon="21.99118">
        <ele>9.213898</ele>
        <time>2020-08-28T03:54:34.865Z</time>
      </trkpt>
      <trkpt lat="65.52179" lon="21.99086">
        <ele>9.118235</ele>
        <time>2020-08-28T03:54:37.580Z</time>
      </trkpt>
      <trkpt lat="65.52231" lon="21.98955">
        <ele>8.601714</ele>
        <time>2020-08-28T03:54:49.511Z</time>
      </trkpt>
      <trkpt lat="65.52285" lon="21.98781">
        <ele>7.676654</ele>
        <time>2020-08-28T03:55:03.385Z</time>
      </trkpt>
      <trkpt lat="65.52346" lon="21.98527">
        <ele>6.496735</ele>
        <time>2020-08-28T03:55:22.020Z</time>
      </trkpt>
      <trkpt lat="65.52399" lon="21.98275">
        <ele>5.445303</ele>
        <time>2020-08-28T03:55:40.384Z</time>
      </trkpt>
      <trkpt lat="65.52445" lon="21.98062">
        <ele>5.24031</ele>
        <time>2020-08-28T03:55:56.813Z</time>
      </trkpt>
      <trkpt lat="65.52484" lon="21.97873">
        <ele>5.129718</ele>
        <time>2020-08-28T03:56:13.048Z</time>
      </trkpt>
      <trkpt lat="65.52503" lon="21.97726">
        <ele>5.575094</ele>
        <time>2020-08-28T03:56:25.530Z</time>
      </trkpt>
      <trkpt lat="65.52509" lon="21.9768">
        <ele>5.722473</ele>
        <time>2020-08-28T03:56:29.641Z</time>
      </trkpt>
      <trkpt lat="65.52511" lon="21.9748">
        <ele>6.337888</ele>
        <time>2020-08-28T03:56:46.837Z</time>
      </trkpt>
      <trkpt lat="65.52462" lon="21.96565">
        <ele>9.818356</ele>
        <time>2020-08-28T03:58:07.082Z</time>
      </trkpt>
      <trkpt lat="65.52406" lon="21.95388">
        <ele>11.108637</ele>
        <time>2020-08-28T03:59:38.338Z</time>
      </trkpt>
      <trkpt lat="65.52405" lon="21.95283">
        <ele>11.185963</ele>
        <time>2020-08-28T03:59:46.129Z</time>
      </trkpt>
      <trkpt lat="65.52414" lon="21.95159">
        <ele>11.270044</ele>
        <time>2020-08-28T03:59:55.516Z</time>
      </trkpt>
      <trkpt lat="65.52427" lon="21.95048">
        <ele>11.34748</ele>
        <time>2020-08-28T04:00:04.195Z</time>
      </trkpt>
      <trkpt lat="65.52528" lon="21.94624">
        <ele>11.827947</ele>
        <time>2020-08-28T04:00:42.342Z</time>
      </trkpt>
      <trkpt lat="65.52573" lon="21.94439">
        <ele>11.961415</ele>
        <time>2020-08-28T04:00:58.881Z</time>
      </trkpt>
      <trkpt lat="65.52798" lon="21.93501">
        <ele>12.004043</ele>
        <time>2020-08-28T04:02:17.411Z</time>
      </trkpt>
      <trkpt lat="65.5283" lon="21.93367">
        <ele>12.225796</ele>
        <time>2020-08-28T04:02:30.841Z</time>
      </trkpt>
      <trkpt lat="65.52946" lon="21.92879">
        <ele>13.683949</ele>
        <time>2020-08-28T04:03:20.608Z</time>
      </trkpt>
      <trkpt lat="65.53146" lon="21.9204">
        <ele>10.954747</ele>
        <time>2020-08-28T04:04:23.569Z</time>
      </trkpt>
      <trkpt lat="65.53153" lon="21.92011">
        <ele>10.810617</ele>
        <time>2020-08-28T04:04:25.616Z</time>
      </trkpt>
      <trkpt lat="65.53217" lon="21.91741">
        <ele>9.385268</ele>
        <time>2020-08-28T04:04:45.007Z</time>
      </trkpt>
      <trkpt lat="65.53228" lon="21.91695">
        <ele>9.132582</ele>
        <time>2020-08-28T04:04:48.245Z</time>
      </trkpt>
      <trkpt lat="65.53265" lon="21.91538">
        <ele>8.261111</ele>
        <time>2020-08-28T04:04:59.738Z</time>
      </trkpt>
      <trkpt lat="65.53337" lon="21.91239">
        <ele>7.360833</ele>
        <time>2020-08-28T04:05:22.657Z</time>
      </trkpt>
      <trkpt lat="65.53357" lon="21.91155">
        <ele>7.142467</ele>
        <time>2020-08-28T04:05:29.584Z</time>
      </trkpt>
      <trkpt lat="65.53376" lon="21.91074">
        <ele>7.078717</ele>
        <time>2020-08-28T04:05:36.365Z</time>
      </trkpt>
      <trkpt lat="65.53406" lon="21.9095">
        <ele>7.153612</ele>
        <time>2020-08-28T04:05:47.005Z</time>
      </trkpt>
      <trkpt lat="65.53479" lon="21.9064">
        <ele>7.460765</ele>
        <time>2020-08-28T04:06:14.637Z</time>
      </trkpt>
      <trkpt lat="65.53498" lon="21.90558">
        <ele>7.604675</ele>
        <time>2020-08-28T04:06:22.109Z</time>
      </trkpt>
      <trkpt lat="65.53519" lon="21.90473">
        <ele>7.757366</ele>
        <time>2020-08-28T04:06:30.063Z</time>
      </trkpt>
      <trkpt lat="65.53538" lon="21.90393">
        <ele>7.898603</ele>
        <time>2020-08-28T04:06:37.431Z</time>
      </trkpt>
      <trkpt lat="65.53659" lon="21.89886">
        <ele>8.875342</ele>
        <time>2020-08-28T04:07:23.770Z</time>
      </trkpt>
      <trkpt lat="65.53708" lon="21.89685">
        <ele>9.234196</ele>
        <time>2020-08-28T04:07:42.134Z</time>
      </trkpt>
      <trkpt lat="65.53753" lon="21.89496">
        <ele>9.577952</ele>
        <time>2020-08-28T04:07:59.384Z</time>
      </trkpt>
      <trkpt lat="65.53819" lon="21.89248">
        <ele>10.047755</ele>
        <time>2020-08-28T04:08:22.640Z</time>
      </trkpt>
      <trkpt lat="65.5389" lon="21.89045">
        <ele>10.395718</ele>
        <time>2020-08-28T04:08:43.165Z</time>
      </trkpt>
      <trkpt lat="65.53974" lon="21.88848">
        <ele>10.939211</ele>
        <time>2020-08-28T04:09:05.646Z</time>
      </trkpt>
      <trkpt lat="65.53985" lon="21.88824">
        <ele>11.037648</ele>
        <time>2020-08-28T04:09:08.541Z</time>
      </trkpt>
      <trkpt lat="65.54354" lon="21.87991">
        <ele>14.346115</ele>
        <time>2020-08-28T04:10:50.490Z</time>
      </trkpt>
      <trkpt lat="65.54406" lon="21.87846">
        <ele>14.372523</ele>
        <time>2020-08-28T04:11:05.116Z</time>
      </trkpt>
      <trkpt lat="65.54464" lon="21.87627">
        <ele>14.151297</ele>
        <time>2020-08-28T04:11:23.216Z</time>
      </trkpt>
      <trkpt lat="65.54495" lon="21.87466">
        <ele>13.628301</ele>
        <time>2020-08-28T04:11:34.997Z</time>
      </trkpt>
      <trkpt lat="65.54549" lon="21.8708">
        <ele>12.047336</ele>
        <time>2020-08-28T04:12:01.310Z</time>
      </trkpt>
      <trkpt lat="65.54577" lon="21.86835">
        <ele>10.793507</ele>
        <time>2020-08-28T04:12:17.256Z</time>
      </trkpt>
      <trkpt lat="65.54635" lon="21.86336">
        <ele>7.657854</ele>
        <time>2020-08-28T04:12:48.612Z</time>
      </trkpt>
      <trkpt lat="65.54683" lon="21.85937">
        <ele>5.750548</ele>
        <time>2020-08-28T04:13:14.625Z</time>
      </trkpt>
      <trkpt lat="65.54702" lon="21.8578">
        <ele>5.368676</ele>
        <time>2020-08-28T04:13:25.631Z</time>
      </trkpt>
      <trkpt lat="65.54783" lon="21.85089">
        <ele>5.147028</ele>
        <time>2020-08-28T04:14:18.739Z</time>
      </trkpt>
      <trkpt lat="65.54803" lon="21.84975">
        <ele>5.271767</ele>
        <time>2020-08-28T04:14:28.415Z</time>
      </trkpt>
      <trkpt lat="65.54826" lon="21.84886">
        <ele>5.378855</ele>
        <time>2020-08-28T04:14:36.779Z</time>
      </trkpt>
      <trkpt lat="65.5491" lon="21.84698">
        <ele>5.859056</ele>
        <time>2020-08-28T04:14:58.618Z</time>
      </trkpt>
      <trkpt lat="65.54906" lon="21.8465">
        <ele>5.956718</ele>
        <time>2020-08-28T04:15:02.650Z</time>
      </trkpt>
      <trkpt lat="65.5488" lon="21.84583">
        <ele>6.143541</ele>
        <time>2020-08-28T04:15:10.415Z</time>
      </trkpt>
      <trkpt lat="65.54852" lon="21.8448">
        <ele>6.434789</ele>
        <time>2020-08-28T04:15:20.834Z</time>
      </trkpt>
      <trkpt lat="65.54868" lon="21.84422">
        <ele>6.675885</ele>
        <time>2020-08-28T04:15:26.763Z</time>
      </trkpt>
      <trkpt lat="65.54931" lon="21.84242">
        <ele>7.501192</ele>
        <time>2020-08-28T04:15:47.649Z</time>
      </trkpt>
      <trkpt lat="65.5499" lon="21.84102">
        <ele>8.198182</ele>
        <time>2020-08-28T04:16:05.906Z</time>
      </trkpt>
      <trkpt lat="65.55038" lon="21.83964">
        <ele>8.827988</ele>
        <time>2020-08-28T04:16:22.100Z</time>
      </trkpt>
      <trkpt lat="65.55082" lon="21.83813">
        <ele>9.405167</ele>
        <time>2020-08-28T04:16:37.921Z</time>
      </trkpt>
      <trkpt lat="65.55172" lon="21.83643">
        <ele>9.812557</ele>
        <time>2020-08-28T04:17:00.393Z</time>
      </trkpt>
      <trkpt lat="65.55213" lon="21.83539">
        <ele>10.022659</ele>
        <time>2020-08-28T04:17:11.902Z</time>
      </trkpt>
      <trkpt lat="65.55302" lon="21.83258">
        <ele>10.4543</ele>
        <time>2020-08-28T04:17:40.237Z</time>
      </trkpt>
      <trkpt lat="65.55331" lon="21.83187">
        <ele>10.637204</ele>
        <time>2020-08-28T04:17:48.383Z</time>
      </trkpt>
      <trkpt lat="65.55365" lon="21.83126">
        <ele>10.940722</ele>
        <time>2020-08-28T04:17:56.924Z</time>
      </trkpt>
      <trkpt lat="65.55413" lon="21.83024">
        <ele>11.401132</ele>
        <time>2020-08-28T04:18:10.120Z</time>
      </trkpt>
      <trkpt lat="65.5547" lon="21.82912">
        <ele>12.010014</ele>
        <time>2020-08-28T04:18:26.190Z</time>
      </trkpt>
      <trkpt lat="65.55523" lon="21.82757">
        <ele>13.037272</ele>
        <time>2020-08-28T04:18:45.070Z</time>
      </trkpt>
      <trkpt lat="65.55532" lon="21.82763">
        <ele>13.154526</ele>
        <time>2020-08-28T04:18:47.480Z</time>
      </trkpt>
      <trkpt lat="65.55596" lon="21.827">
        <ele>14.006647</ele>
        <time>2020-08-28T04:19:03.327Z</time>
      </trkpt>
      <trkpt lat="65.5561" lon="21.8271">
        <ele>14.097319</ele>
        <time>2020-08-28T04:19:06.632Z</time>
      </trkpt>
      <trkpt lat="65.55619" lon="21.82717">
        <ele>14.139874</ele>
        <time>2020-08-28T04:19:08.456Z</time>
      </trkpt>
      <trkpt lat="65.55633" lon="21.82731">
        <ele>14.213223</ele>
        <time>2020-08-28T04:19:12.011Z</time>
      </trkpt>
      <trkpt lat="65.55643" lon="21.82739">
        <ele>14.261305</ele>
        <time>2020-08-28T04:19:14.312Z</time>
      </trkpt>
      <trkpt lat="65.55674" lon="21.82651">
        <ele>14.480677</ele>
        <time>2020-08-28T04:19:23.981Z</time>
      </trkpt>
      <trkpt lat="65.55679" lon="21.82646">
        <ele>14.507677</ele>
        <time>2020-08-28T04:19:25.046Z</time>
      </trkpt>
      <trkpt lat="65.55684" lon="21.82646">
        <ele>14.529787</ele>
        <time>2020-08-28T04:19:26.050Z</time>
      </trkpt>
      <trkpt lat="65.5569" lon="21.82612">
        <ele>14.600592</ele>
        <time>2020-08-28T04:19:29.239Z</time>
      </trkpt>
      <trkpt lat="65.55673" lon="21.82596">
        <ele>14.684124</ele>
        <time>2020-08-28T04:19:32.501Z</time>
      </trkpt>
      <trkpt lat="65.55686" lon="21.82401">
        <ele>14.613722</ele>
        <time>2020-08-28T04:19:47.323Z</time>
      </trkpt>
      <trkpt lat="65.55708" lon="21.82133">
        <ele>13.875524</ele>
        <time>2020-08-28T04:20:06.025Z</time>
      </trkpt>
      <trkpt lat="65.5571" lon="21.82095">
        <ele>13.771215</ele>
        <time>2020-08-28T04:20:08.710Z</time>
      </trkpt>
      <trkpt lat="65.55707" lon="21.82004">
        <ele>13.511829</ele>
        <time>2020-08-28T04:20:14.984Z</time>
      </trkpt>
      <trkpt lat="65.55715" lon="21.81873">
        <ele>13.126655</ele>
        <time>2020-08-28T04:20:23.947Z</time>
      </trkpt>
      <trkpt lat="65.55729" lon="21.81688">
        <ele>12.579476</ele>
        <time>2020-08-28T04:20:37.069Z</time>
      </trkpt>
      <trkpt lat="65.55725" lon="21.81629">
        <ele>12.417171</ele>
        <time>2020-08-28T04:20:41.418Z</time>
      </trkpt>
      <trkpt lat="65.5572" lon="21.81589">
        <ele>12.340085</ele>
        <time>2020-08-28T04:20:44.428Z</time>
      </trkpt>
      <trkpt lat="65.55732" lon="21.81416">
        <ele>12.025033</ele>
        <time>2020-08-28T04:20:56.482Z</time>
      </trkpt>
      <trkpt lat="65.55743" lon="21.81286">
        <ele>11.784395</ele>
        <time>2020-08-28T04:21:05.672Z</time>
      </trkpt>
      <trkpt lat="65.55766" lon="21.81072">
        <ele>11.275727</ele>
        <time>2020-08-28T04:21:20.940Z</time>
      </trkpt>
      <trkpt lat="65.55792" lon="21.8086">
        <ele>10.711339</ele>
        <time>2020-08-28T04:21:35.556Z</time>
      </trkpt>
      <trkpt lat="65.55839" lon="21.80575">
        <ele>10.06295</ele>
        <time>2020-08-28T04:21:56.088Z</time>
      </trkpt>
      <trkpt lat="65.55899" lon="21.80273">
        <ele>9.619856</ele>
        <time>2020-08-28T04:22:19.643Z</time>
      </trkpt>
      <trkpt lat="65.5606" lon="21.79678">
        <ele>9.511662</ele>
        <time>2020-08-28T04:23:12.410Z</time>
      </trkpt>
      <trkpt lat="65.56185" lon="21.79252">
        <ele>9.517469</ele>
        <time>2020-08-28T04:23:51.090Z</time>
      </trkpt>
      <trkpt lat="65.56264" lon="21.78968">
        <ele>9.308854</ele>
        <time>2020-08-28T04:24:15.519Z</time>
      </trkpt>
      <trkpt lat="65.56107" lon="21.78486">
        <ele>8.710021</ele>
        <time>2020-08-28T04:24:59.701Z</time>
      </trkpt>
      <trkpt lat="65.56015" lon="21.78173">
        <ele>7.716718</ele>
        <time>2020-08-28T04:25:25.679Z</time>
      </trkpt>
      <trkpt lat="65.55932" lon="21.77892">
        <ele>6.145778</ele>
        <time>2020-08-28T04:25:47.093Z</time>
      </trkpt>
      <trkpt lat="65.55863" lon="21.77645">
        <ele>4.928082</ele>
        <time>2020-08-28T04:26:05.814Z</time>
      </trkpt>
      <trkpt lat="65.55816" lon="21.77479">
        <ele>4.426329</ele>
        <time>2020-08-28T04:26:19.560Z</time>
      </trkpt>
      <trkpt lat="65.55764" lon="21.77295">
        <ele>4.396188</ele>
        <time>2020-08-28T04:26:35.921Z</time>
      </trkpt>
      <trkpt lat="65.55729" lon="21.77169">
        <ele>4.403103</ele>
        <time>2020-08-28T04:26:47.646Z</time>
      </trkpt>
      <trkpt lat="65.55675" lon="21.76954">
        <ele>4.705311</ele>
        <time>2020-08-28T04:27:07.360Z</time>
      </trkpt>
      <trkpt lat="65.55637" lon="21.76809">
        <ele>4.911266</ele>
        <time>2020-08-28T04:27:20.747Z</time>
      </trkpt>
      <trkpt lat="65.55608" lon="21.76796">
        <ele>5.007119</ele>
        <time>2020-08-28T04:27:26.408Z</time>
      </trkpt>
      <trkpt lat="65.55363" lon="21.76738">
        <ele>5.767971</ele>
        <time>2020-08-28T04:28:12.684Z</time>
      </trkpt>
      <trkpt lat="65.55315" lon="21.76698">
        <ele>5.916563</ele>
        <time>2020-08-28T04:28:22.219Z</time>
      </trkpt>
      <trkpt lat="65.55203" lon="21.76547">
        <ele>6.294118</ele>
        <time>2020-08-28T04:28:46.388Z</time>
      </trkpt>
      <trkpt lat="65.55147" lon="21.76511">
        <ele>6.462023</ele>
        <time>2020-08-28T04:28:57.072Z</time>
      </trkpt>
      <trkpt lat="65.54809" lon="21.76538">
        <ele>7.211813</ele>
        <time>2020-08-28T04:29:59.795Z</time>
      </trkpt>
      <trkpt lat="65.5477" lon="21.76516">
        <ele>7.297199</ele>
        <time>2020-08-28T04:30:07.198Z</time>
      </trkpt>
      <trkpt lat="65.54578" lon="21.76235">
        <ele>7.686352</ele>
        <time>2020-08-28T04:30:48.802Z</time>
      </trkpt>
      <trkpt lat="65.54508" lon="21.76213">
        <ele>7.669339</ele>
        <time>2020-08-28T04:31:01.443Z</time>
      </trkpt>
      <trkpt lat="65.54455" lon="21.76218">
        <ele>7.656463</ele>
        <time>2020-08-28T04:31:10.755Z</time>
      </trkpt>
      <trkpt lat="65.54413" lon="21.76262">
        <ele>7.582928</ele>
        <time>2020-08-28T04:31:18.658Z</time>
      </trkpt>
      <trkpt lat="65.54279" lon="21.76564">
        <ele>7.283208</ele>
        <time>2020-08-28T04:31:49.951Z</time>
      </trkpt>
      <trkpt lat="65.53853" lon="21.77525">
        <ele>8.296463</ele>
        <time>2020-08-28T04:33:37.828Z</time>
      </trkpt>
      <trkpt lat="65.53269" lon="21.78835">
        <ele>9.881352</ele>
        <time>2020-08-28T04:36:05.190Z</time>
      </trkpt>
      <trkpt lat="65.53233" lon="21.78889">
        <ele>9.93577</ele>
        <time>2020-08-28T04:36:12.760Z</time>
      </trkpt>
      <trkpt lat="65.53204" lon="21.78895">
        <ele>9.947202</ele>
        <time>2020-08-28T04:36:18.017Z</time>
      </trkpt>
      <trkpt lat="65.53181" lon="21.78888">
        <ele>9.95654</ele>
        <time>2020-08-28T04:36:22.291Z</time>
      </trkpt>
      <trkpt lat="65.5318" lon="21.78838">
        <ele>9.964715</ele>
        <time>2020-08-28T04:36:26.031Z</time>
      </trkpt>
      <trkpt lat="65.53177" lon="21.7879">
        <ele>9.972548</ele>
        <time>2020-08-28T04:36:29.606Z</time>
      </trkpt>
      <trkpt lat="65.53161" lon="21.787">
        <ele>9.988451</ele>
        <time>2020-08-28T04:36:36.840Z</time>
      </trkpt>
      <trkpt lat="65.52867" lon="21.78014">
        <ele>10.000012</ele>
        <time>2020-08-28T04:37:49.791Z</time>
      </trkpt>
      <trkpt lat="65.52767" lon="21.77827">
        <ele>10.000012</ele>
        <time>2020-08-28T04:38:12.451Z</time>
      </trkpt>
      <trkpt lat="65.52688" lon="21.7766">
        <ele>10.000012</ele>
        <time>2020-08-28T04:38:31.148Z</time>
      </trkpt>
      <trkpt lat="65.52673" lon="21.77622">
        <ele>10.000012</ele>
        <time>2020-08-28T04:38:35.103Z</time>
      </trkpt>
      <trkpt lat="65.52637" lon="21.77532">
        <ele>10.000012</ele>
        <time>2020-08-28T04:38:44.337Z</time>
      </trkpt>
      <trkpt lat="65.5258" lon="21.77338">
        <ele>10.000012</ele>
        <time>2020-08-28T04:39:01.816Z</time>
      </trkpt>
      <trkpt lat="65.52565" lon="21.77262">
        <ele>10.000012</ele>
        <time>2020-08-28T04:39:08.105Z</time>
      </trkpt>
      <trkpt lat="65.52424" lon="21.76234">
        <ele>10.008391</ele>
        <time>2020-08-28T04:40:28.185Z</time>
      </trkpt>
      <trkpt lat="65.52143" lon="21.74096">
        <ele>10.459391</ele>
        <time>2020-08-28T04:43:15.240Z</time>
      </trkpt>
      <trkpt lat="65.51899" lon="21.70915">
        <ele>15.703532</ele>
        <time>2020-08-28T04:47:31.487Z</time>
      </trkpt>
      <trkpt lat="65.51873" lon="21.70621">
        <ele>16.452102</ele>
        <time>2020-08-28T04:47:56.293Z</time>
      </trkpt>
      <trkpt lat="65.51874" lon="21.7039">
        <ele>17.128961</ele>
        <time>2020-08-28T04:48:15.715Z</time>
      </trkpt>
      <trkpt lat="65.51902" lon="21.69734">
        <ele>19.119518</ele>
        <time>2020-08-28T04:49:11.632Z</time>
      </trkpt>
      <trkpt lat="65.51908" lon="21.69453">
        <ele>19.734684</ele>
        <time>2020-08-28T04:49:34.026Z</time>
      </trkpt>
      <trkpt lat="65.51926" lon="21.6923">
        <ele>19.880989</ele>
        <time>2020-08-28T04:49:51.308Z</time>
      </trkpt>
      <trkpt lat="65.51958" lon="21.69039">
        <ele>19.998918</ele>
        <time>2020-08-28T04:50:06.723Z</time>
      </trkpt>
      <trkpt lat="65.52001" lon="21.6884">
        <ele>19.999516</ele>
        <time>2020-08-28T04:50:23.331Z</time>
      </trkpt>
      <trkpt lat="65.52206" lon="21.67891">
        <ele>20.021109</ele>
        <time>2020-08-28T04:51:42.560Z</time>
      </trkpt>
      <trkpt lat="65.52209" lon="21.67878">
        <ele>20.02638</ele>
        <time>2020-08-28T04:51:43.664Z</time>
      </trkpt>
      <trkpt lat="65.52258" lon="21.6765">
        <ele>20.116746</ele>
        <time>2020-08-28T04:52:02.845Z</time>
      </trkpt>
      <trkpt lat="65.52591" lon="21.66122">
        <ele>20.901959</ele>
        <time>2020-08-28T04:54:13.293Z</time>
      </trkpt>
      <trkpt lat="65.52604" lon="21.66058">
        <ele>20.935989</ele>
        <time>2020-08-28T04:54:18.695Z</time>
      </trkpt>
      <trkpt lat="65.52644" lon="21.65873">
        <ele>20.982876</ele>
        <time>2020-08-28T04:54:34.199Z</time>
      </trkpt>
      <trkpt lat="65.52655" lon="21.65792">
        <ele>20.987549</ele>
        <time>2020-08-28T04:54:40.494Z</time>
      </trkpt>
      <trkpt lat="65.52682" lon="21.65596">
        <ele>20.998967</ele>
        <time>2020-08-28T04:54:55.831Z</time>
      </trkpt>
      <trkpt lat="65.52684" lon="21.65516">
        <ele>20.974622</ele>
        <time>2020-08-28T04:55:01.728Z</time>
      </trkpt>
      <trkpt lat="65.52685" lon="21.65448">
        <ele>20.945983</ele>
        <time>2020-08-28T04:55:06.791Z</time>
      </trkpt>
      <trkpt lat="65.52685" lon="21.65426">
        <ele>20.937109</ele>
        <time>2020-08-28T04:55:08.342Z</time>
      </trkpt>
      <trkpt lat="65.52687" lon="21.6535">
        <ele>20.90516</ele>
        <time>2020-08-28T04:55:13.916Z</time>
      </trkpt>
      <trkpt lat="65.52676" lon="21.65206">
        <ele>20.843823</ele>
        <time>2020-08-28T04:55:24.445Z</time>
      </trkpt>
      <trkpt lat="65.52668" lon="21.65107">
        <ele>20.779212</ele>
        <time>2020-08-28T04:55:31.564Z</time>
      </trkpt>
      <trkpt lat="65.52643" lon="21.64813">
        <ele>20.481283</ele>
        <time>2020-08-28T04:55:52.820Z</time>
      </trkpt>
      <trkpt lat="65.52639" lon="21.6476">
        <ele>20.428313</ele>
        <time>2020-08-28T04:55:56.604Z</time>
      </trkpt>
      <trkpt lat="65.52605" lon="21.64331">
        <ele>20.283757</ele>
        <time>2020-08-28T04:56:28.414Z</time>
      </trkpt>
      <trkpt lat="65.5256" lon="21.64091">
        <ele>20.474038</ele>
        <time>2020-08-28T04:56:48.752Z</time>
      </trkpt>
      <trkpt lat="65.52488" lon="21.63829">
        <ele>20.714293</ele>
        <time>2020-08-28T04:57:13.145Z</time>
      </trkpt>
      <trkpt lat="65.52408" lon="21.63645">
        <ele>20.857811</ele>
        <time>2020-08-28T04:57:33.373Z</time>
      </trkpt>
      <trkpt lat="65.52226" lon="21.63398">
        <ele>20.52011</ele>
        <time>2020-08-28T04:58:09.219Z</time>
      </trkpt>
      <trkpt lat="65.52063" lon="21.63127">
        <ele>20.069601</ele>
        <time>2020-08-28T04:58:43.547Z</time>
      </trkpt>
      <trkpt lat="65.51888" lon="21.62783">
        <ele>18.658392</ele>
        <time>2020-08-28T04:59:20.515Z</time>
      </trkpt>
      <trkpt lat="65.51798" lon="21.62578">
        <ele>17.573579</ele>
        <time>2020-08-28T04:59:39.144Z</time>
      </trkpt>
      <trkpt lat="65.5159" lon="21.61945">
        <ele>16.753011</ele>
        <time>2020-08-28T05:00:36.121Z</time>
      </trkpt>
      <trkpt lat="65.51548" lon="21.61781">
        <ele>17.363917</ele>
        <time>2020-08-28T05:00:52.958Z</time>
      </trkpt>
      <trkpt lat="65.51526" lon="21.61624">
        <ele>18.003371</ele>
        <time>2020-08-28T05:01:07.928Z</time>
      </trkpt>
      <trkpt lat="65.51485" lon="21.60531">
        <ele>21.949071</ele>
        <time>2020-08-28T05:02:43.157Z</time>
      </trkpt>
      <trkpt lat="65.51457" lon="21.60083">
        <ele>21.577823</ele>
        <time>2020-08-28T05:03:15.759Z</time>
      </trkpt>
      <trkpt lat="65.51422" lon="21.59854">
        <ele>20.555098</ele>
        <time>2020-08-28T05:03:31.144Z</time>
      </trkpt>
      <trkpt lat="65.51372" lon="21.59631">
        <ele>18.392977</ele>
        <time>2020-08-28T05:03:45.964Z</time>
      </trkpt>
      <trkpt lat="65.51303" lon="21.59329">
        <ele>15.159741</ele>
        <time>2020-08-28T05:04:05.193Z</time>
      </trkpt>
      <trkpt lat="65.51224" lon="21.58983">
        <ele>12.17204</ele>
        <time>2020-08-28T05:04:28.055Z</time>
      </trkpt>
      <trkpt lat="65.51095" lon="21.58421">
        <ele>12.353198</ele>
        <time>2020-08-28T05:05:17.077Z</time>
      </trkpt>
      <trkpt lat="65.5096" lon="21.58536">
        <ele>13.406209</ele>
        <time>2020-08-28T05:05:49.308Z</time>
      </trkpt>
      <trkpt lat="65.50925" lon="21.58568">
        <ele>13.714264</ele>
        <time>2020-08-28T05:05:57.539Z</time>
      </trkpt>
      <trkpt lat="65.50521" lon="21.59089">
        <ele>12.885467</ele>
        <time>2020-08-28T05:07:15.935Z</time>
      </trkpt>
      <trkpt lat="65.50412" lon="21.59206">
        <ele>11.549014</ele>
        <time>2020-08-28T05:07:33.714Z</time>
      </trkpt>
      <trkpt lat="65.5032" lon="21.59253">
        <ele>10.673445</ele>
        <time>2020-08-28T05:07:47.770Z</time>
      </trkpt>
      <trkpt lat="65.50262" lon="21.59278">
        <ele>10.165745</ele>
        <time>2020-08-28T05:07:56.960Z</time>
      </trkpt>
      <trkpt lat="65.50012" lon="21.59386">
        <ele>9.529236</ele>
        <time>2020-08-28T05:08:40.901Z</time>
      </trkpt>
      <trkpt lat="65.49855" lon="21.59447">
        <ele>10.200374</ele>
        <time>2020-08-28T05:09:11.602Z</time>
      </trkpt>
      <trkpt lat="65.49804" lon="21.59484">
        <ele>10.707558</ele>
        <time>2020-08-28T05:09:22.842Z</time>
      </trkpt>
      <trkpt lat="65.49767" lon="21.59538">
        <ele>11.114956</ele>
        <time>2020-08-28T05:09:32.092Z</time>
      </trkpt>
      <trkpt lat="65.49658" lon="21.59842">
        <ele>12.386215</ele>
        <time>2020-08-28T05:10:07.350Z</time>
      </trkpt>
      <trkpt lat="65.49585" lon="21.60014">
        <ele>12.917193</ele>
        <time>2020-08-28T05:10:26.671Z</time>
      </trkpt>
      <trkpt lat="65.49505" lon="21.6018">
        <ele>12.503491</ele>
        <time>2020-08-28T05:10:44.292Z</time>
      </trkpt>
      <trkpt lat="65.49385" lon="21.6038">
        <ele>11.699637</ele>
        <time>2020-08-28T05:11:07.846Z</time>
      </trkpt>
      <trkpt lat="65.49282" lon="21.60518">
        <ele>10.885879</ele>
        <time>2020-08-28T05:11:26.765Z</time>
      </trkpt>
      <trkpt lat="65.49213" lon="21.6059">
        <ele>10.312576</ele>
        <time>2020-08-28T05:11:38.750Z</time>
      </trkpt>
      <trkpt lat="65.49166" lon="21.60619">
        <ele>9.938614</ele>
        <time>2020-08-28T05:11:46.488Z</time>
      </trkpt>
      <trkpt lat="65.49023" lon="21.60632">
        <ele>8.774085</ele>
        <time>2020-08-28T05:12:08.905Z</time>
      </trkpt>
      <trkpt lat="65.48966" lon="21.60661">
        <ele>8.281646</ele>
        <time>2020-08-28T05:12:18.246Z</time>
      </trkpt>
      <trkpt lat="65.48933" lon="21.60693">
        <ele>8.088305</ele>
        <time>2020-08-28T05:12:23.774Z</time>
      </trkpt>
      <trkpt lat="65.48894" lon="21.60765">
        <ele>7.933641</ele>
        <time>2020-08-28T05:12:31.789Z</time>
      </trkpt>
      <trkpt lat="65.48862" lon="21.60872">
        <ele>7.762212</ele>
        <time>2020-08-28T05:12:41.068Z</time>
      </trkpt>
      <trkpt lat="65.48843" lon="21.60985">
        <ele>7.603869</ele>
        <time>2020-08-28T05:12:50.039Z</time>
      </trkpt>
      <trkpt lat="65.48838" lon="21.61026">
        <ele>7.623978</ele>
        <time>2020-08-28T05:12:53.280Z</time>
      </trkpt>
      <trkpt lat="65.48813" lon="21.61249">
        <ele>7.985462</ele>
        <time>2020-08-28T05:13:11.651Z</time>
      </trkpt>
      <trkpt lat="65.48792" lon="21.61353">
        <ele>8.164899</ele>
        <time>2020-08-28T05:13:20.998Z</time>
      </trkpt>
      <trkpt lat="65.48718" lon="21.61534">
        <ele>8.600542</ele>
        <time>2020-08-28T05:13:41.653Z</time>
      </trkpt>
      <trkpt lat="65.48698" lon="21.61673">
        <ele>8.857216</ele>
        <time>2020-08-28T05:13:53.204Z</time>
      </trkpt>
      <trkpt lat="65.48699" lon="21.61757">
        <ele>9.006396</ele>
        <time>2020-08-28T05:13:59.888Z</time>
      </trkpt>
      <trkpt lat="65.48749" lon="21.62161">
        <ele>9.560081</ele>
        <time>2020-08-28T05:14:32.810Z</time>
      </trkpt>
      <trkpt lat="65.4875" lon="21.62286">
        <ele>9.657872</ele>
        <time>2020-08-28T05:14:42.504Z</time>
      </trkpt>
      <trkpt lat="65.4874" lon="21.62432">
        <ele>9.758788</ele>
        <time>2020-08-28T05:14:53.820Z</time>
      </trkpt>
      <trkpt lat="65.48698" lon="21.62584">
        <ele>9.882867</ele>
        <time>2020-08-28T05:15:07.558Z</time>
      </trkpt>
      <trkpt lat="65.48673" lon="21.62645">
        <ele>9.932279</ele>
        <time>2020-08-28T05:15:13.883Z</time>
      </trkpt>
      <trkpt lat="65.48532" lon="21.62991">
        <ele>10.467515</ele>
        <time>2020-08-28T05:15:50.712Z</time>
      </trkpt>
      <trkpt lat="65.48344" lon="21.63553">
        <ele>12.548566</ele>
        <time>2020-08-28T05:16:52.149Z</time>
      </trkpt>
      <trkpt lat="65.48301" lon="21.63659">
        <ele>12.646445</ele>
        <time>2020-08-28T05:17:04.351Z</time>
      </trkpt>
      <trkpt lat="65.48226" lon="21.6381">
        <ele>12.780772</ele>
        <time>2020-08-28T05:17:21.664Z</time>
      </trkpt>
      <trkpt lat="65.4821" lon="21.63866">
        <ele>12.79114</ele>
        <time>2020-08-28T05:17:26.603Z</time>
      </trkpt>
      <trkpt lat="65.48205" lon="21.63882">
        <ele>12.760663</ele>
        <time>2020-08-28T05:17:27.754Z</time>
      </trkpt>
      <trkpt lat="65.48159" lon="21.64073">
        <ele>12.409996</ele>
        <time>2020-08-28T05:17:42.799Z</time>
      </trkpt>
      <trkpt lat="65.48119" lon="21.64172">
        <ele>12.192858</ele>
        <time>2020-08-28T05:17:51.803Z</time>
      </trkpt>
      <trkpt lat="65.47991" lon="21.64334">
        <ele>13.256612</ele>
        <time>2020-08-28T05:18:20.485Z</time>
      </trkpt>
      <trkpt lat="65.47923" lon="21.64448">
        <ele>14.308658</ele>
        <time>2020-08-28T05:18:40.173Z</time>
      </trkpt>
      <trkpt lat="65.47798" lon="21.6479">
        <ele>17.636324</ele>
        <time>2020-08-28T05:19:26.386Z</time>
      </trkpt>
      <trkpt lat="65.47732" lon="21.64884">
        <ele>18.459477</ele>
        <time>2020-08-28T05:19:42.678Z</time>
      </trkpt>
      <trkpt lat="65.47666" lon="21.64991">
        <ele>19.176525</ele>
        <time>2020-08-28T05:19:57.869Z</time>
      </trkpt>
      <trkpt lat="65.47628" lon="21.65071">
        <ele>19.307997</ele>
        <time>2020-08-28T05:20:07.062Z</time>
      </trkpt>
      <trkpt lat="65.47595" lon="21.65164">
        <ele>19.440768</ele>
        <time>2020-08-28T05:20:16.352Z</time>
      </trkpt>
      <trkpt lat="65.47541" lon="21.65354">
        <ele>19.720687</ele>
        <time>2020-08-28T05:20:34.328Z</time>
      </trkpt>
      <trkpt lat="65.47408" lon="21.65672">
        <ele>20.389814</ele>
        <time>2020-08-28T05:21:10.086Z</time>
      </trkpt>
      <trkpt lat="65.47373" lon="21.6574">
        <ele>20.559017</ele>
        <time>2020-08-28T05:21:18.605Z</time>
      </trkpt>
      <trkpt lat="65.47148" lon="21.66015">
        <ele>21.856313</ele>
        <time>2020-08-28T05:22:06.897Z</time>
      </trkpt>
      <trkpt lat="65.46974" lon="21.66308">
        <ele>24.359298</ele>
        <time>2020-08-28T05:22:53.653Z</time>
      </trkpt>
      <trkpt lat="65.46925" lon="21.66363">
        <ele>25.034277</ele>
        <time>2020-08-28T05:23:05.941Z</time>
      </trkpt>
      <trkpt lat="65.46834" lon="21.66356">
        <ele>26.17879</ele>
        <time>2020-08-28T05:23:26.056Z</time>
      </trkpt>
      <trkpt lat="65.4679" lon="21.66364">
        <ele>26.583357</ele>
        <time>2020-08-28T05:23:35.408Z</time>
      </trkpt>
      <trkpt lat="65.4666" lon="21.66468">
        <ele>27.28853</ele>
        <time>2020-08-28T05:24:02.204Z</time>
      </trkpt>
      <trkpt lat="65.46558" lon="21.66599">
        <ele>27.038262</ele>
        <time>2020-08-28T05:24:22.261Z</time>
      </trkpt>
      <trkpt lat="65.46407" lon="21.6695">
        <ele>25.50855</ele>
        <time>2020-08-28T05:24:55.443Z</time>
      </trkpt>
      <trkpt lat="65.46378" lon="21.67001">
        <ele>25.157905</ele>
        <time>2020-08-28T05:25:00.940Z</time>
      </trkpt>
      <trkpt lat="65.46346" lon="21.67034">
        <ele>24.826768</ele>
        <time>2020-08-28T05:25:06.137Z</time>
      </trkpt>
      <trkpt lat="65.46291" lon="21.67043">
        <ele>24.297016</ele>
        <time>2020-08-28T05:25:14.426Z</time>
      </trkpt>
      <trkpt lat="65.45937" lon="21.66962">
        <ele>21.900396</ele>
        <time>2020-08-28T05:26:10.944Z</time>
      </trkpt>
      <trkpt lat="65.45863" lon="21.66964">
        <ele>21.985324</ele>
        <time>2020-08-28T05:26:25.002Z</time>
      </trkpt>
      <trkpt lat="65.45717" lon="21.66994">
        <ele>22.793311</ele>
        <time>2020-08-28T05:26:55.740Z</time>
      </trkpt>
      <trkpt lat="65.45633" lon="21.67027">
        <ele>23.303579</ele>
        <time>2020-08-28T05:27:12.671Z</time>
      </trkpt>
      <trkpt lat="65.4556" lon="21.67073">
        <ele>23.098966</ele>
        <time>2020-08-28T05:27:25.882Z</time>
      </trkpt>
      <trkpt lat="65.45502" lon="21.6711">
        <ele>22.932015</ele>
        <time>2020-08-28T05:27:35.848Z</time>
      </trkpt>
      <trkpt lat="65.45227" lon="21.67289">
        <ele>20.974616</ele>
        <time>2020-08-28T05:28:20.164Z</time>
      </trkpt>
      <trkpt lat="65.45162" lon="21.67321">
        <ele>20.782208</ele>
        <time>2020-08-28T05:28:31.635Z</time>
      </trkpt>
      <trkpt lat="65.45137" lon="21.67331">
        <ele>20.70969</ele>
        <time>2020-08-28T05:28:36.527Z</time>
      </trkpt>
      <trkpt lat="65.45107" lon="21.67344">
        <ele>20.829398</ele>
        <time>2020-08-28T05:28:42.305Z</time>
      </trkpt>
      <trkpt lat="65.45078" lon="21.67358">
        <ele>21.228494</ele>
        <time>2020-08-28T05:28:48.408Z</time>
      </trkpt>
      <trkpt lat="65.45059" lon="21.67387">
        <ele>21.520908</ele>
        <time>2020-08-28T05:28:53.240Z</time>
      </trkpt>
      <trkpt lat="65.45056" lon="21.67391">
        <ele>21.57318</ele>
        <time>2020-08-28T05:28:54.052Z</time>
      </trkpt>
      <trkpt lat="65.45045" lon="21.67404">
        <ele>21.731634</ele>
        <time>2020-08-28T05:28:56.593Z</time>
      </trkpt>
      <trkpt lat="65.45038" lon="21.67412">
        <ele>21.838802</ele>
        <time>2020-08-28T05:28:58.659Z</time>
      </trkpt>
      <trkpt lat="65.44855" lon="21.67637">
        <ele>24.484877</ele>
        <time>2020-08-28T05:29:46.698Z</time>
      </trkpt>
      <trkpt lat="65.44744" lon="21.67764">
        <ele>24.982663</ele>
        <time>2020-08-28T05:30:10.620Z</time>
      </trkpt>
      <trkpt lat="65.44573" lon="21.67973">
        <ele>23.357098</ele>
        <time>2020-08-28T05:30:39.984Z</time>
      </trkpt>
      <trkpt lat="65.44386" lon="21.68203">
        <ele>20.716859</ele>
        <time>2020-08-28T05:31:11.066Z</time>
      </trkpt>
      <trkpt lat="65.44141" lon="21.68432">
        <ele>18.446579</ele>
        <time>2020-08-28T05:31:52.714Z</time>
      </trkpt>
      <trkpt lat="65.44062" lon="21.68528">
        <ele>17.942748</ele>
        <time>2020-08-28T05:32:07.213Z</time>
      </trkpt>
      <trkpt lat="65.43989" lon="21.68687">
        <ele>17.342678</ele>
        <time>2020-08-28T05:32:23.498Z</time>
      </trkpt>
      <trkpt lat="65.43951" lon="21.68787">
        <ele>16.788875</ele>
        <time>2020-08-28T05:32:32.625Z</time>
      </trkpt>
      <trkpt lat="65.43927" lon="21.68859">
        <ele>16.407734</ele>
        <time>2020-08-28T05:32:38.730Z</time>
      </trkpt>
      <trkpt lat="65.43867" lon="21.68998">
        <ele>15.499767</ele>
        <time>2020-08-28T05:32:51.320Z</time>
      </trkpt>
      <trkpt lat="65.43819" lon="21.69061">
        <ele>14.341154</ele>
        <time>2020-08-28T05:32:59.181Z</time>
      </trkpt>
      <trkpt lat="65.43793" lon="21.69081">
        <ele>13.774427</ele>
        <time>2020-08-28T05:33:02.814Z</time>
      </trkpt>
      <trkpt lat="65.43736" lon="21.69102">
        <ele>12.547051</ele>
        <time>2020-08-28T05:33:10.688Z</time>
      </trkpt>
      <trkpt lat="65.43682" lon="21.69093">
        <ele>11.418789</ele>
        <time>2020-08-28T05:33:18.098Z</time>
      </trkpt>
      <trkpt lat="65.43656" lon="21.69078">
        <ele>10.873773</ele>
        <time>2020-08-28T05:33:21.750Z</time>
      </trkpt>
      <trkpt lat="65.43626" lon="21.69056">
        <ele>10.240417</ele>
        <time>2020-08-28T05:33:26.081Z</time>
      </trkpt>
      <trkpt lat="65.43602" lon="21.69038">
        <ele>9.727318</ele>
        <time>2020-08-28T05:33:29.638Z</time>
      </trkpt>
      <trkpt lat="65.43528" lon="21.68993">
        <ele>8.18279</ele>
        <time>2020-08-28T05:33:40.535Z</time>
      </trkpt>
      <trkpt lat="65.43508" lon="21.68977">
        <ele>7.961324</ele>
        <time>2020-08-28T05:33:43.722Z</time>
      </trkpt>
      <trkpt lat="65.43492" lon="21.68968">
        <ele>7.79952</ele>
        <time>2020-08-28T05:33:46.120Z</time>
      </trkpt>
      <trkpt lat="65.43481" lon="21.69021">
        <ele>7.544495</ele>
        <time>2020-08-28T05:33:50.155Z</time>
      </trkpt>
      <trkpt lat="65.43468" lon="21.6902">
        <ele>7.413149</ele>
        <time>2020-08-28T05:33:52.197Z</time>
      </trkpt>
      <trkpt lat="65.43446" lon="21.6901">
        <ele>7.178746</ele>
        <time>2020-08-28T05:33:55.939Z</time>
      </trkpt>
      <trkpt lat="65.43393" lon="21.69002">
        <ele>6.630369</ele>
        <time>2020-08-28T05:34:04.678Z</time>
      </trkpt>
      <trkpt lat="65.43349" lon="21.68998">
        <ele>6.237659</ele>
        <time>2020-08-28T05:34:12.018Z</time>
      </trkpt>
      <trkpt lat="65.43322" lon="21.68973">
        <ele>6.055342</ele>
        <time>2020-08-28T05:34:16.841Z</time>
      </trkpt>
      <trkpt lat="65.43278" lon="21.68924">
        <ele>5.747732</ele>
        <time>2020-08-28T05:34:24.747Z</time>
      </trkpt>
      <trkpt lat="65.4324" lon="21.68894">
        <ele>5.498388</ele>
        <time>2020-08-28T05:34:31.177Z</time>
      </trkpt>
      <trkpt lat="65.43187" lon="21.68877">
        <ele>5.190693</ele>
        <time>2020-08-28T05:34:39.933Z</time>
      </trkpt>
      <trkpt lat="65.43151" lon="21.6889">
        <ele>5.13654</ele>
        <time>2020-08-28T05:34:45.997Z</time>
      </trkpt>
      <trkpt lat="65.43119" lon="21.68903">
        <ele>5.087211</ele>
        <time>2020-08-28T05:34:51.606Z</time>
      </trkpt>
      <trkpt lat="65.43041" lon="21.68925">
        <ele>4.970497</ele>
        <time>2020-08-28T05:35:05.358Z</time>
      </trkpt>
      <trkpt lat="65.42865" lon="21.68756">
        <ele>5.400449</ele>
        <time>2020-08-28T05:35:41.263Z</time>
      </trkpt>
      <trkpt lat="65.42831" lon="21.6869">
        <ele>5.444227</ele>
        <time>2020-08-28T05:35:49.307Z</time>
      </trkpt>
      <trkpt lat="65.42824" lon="21.68647">
        <ele>5.443498</ele>
        <time>2020-08-28T05:35:52.912Z</time>
      </trkpt>
      <trkpt lat="65.42792" lon="21.68642">
        <ele>5.442301</ele>
        <time>2020-08-28T05:35:58.857Z</time>
      </trkpt>
      <trkpt lat="65.4275" lon="21.68634">
        <ele>5.440711</ele>
        <time>2020-08-28T05:36:06.610Z</time>
      </trkpt>
      <trkpt lat="65.42752" lon="21.68785">
        <ele>5.428998</ele>
        <time>2020-08-28T05:36:17.940Z</time>
      </trkpt>
      <trkpt lat="65.4276" lon="21.68831">
        <ele>5.373262</ele>
        <time>2020-08-28T05:36:21.534Z</time>
      </trkpt>
      <trkpt lat="65.42803" lon="21.68824">
        <ele>5.257847</ele>
        <time>2020-08-28T05:36:28.970Z</time>
      </trkpt>
      <trkpt lat="65.42837" lon="21.68839">
        <ele>5.163866</ele>
        <time>2020-08-28T05:36:35.073Z</time>
      </trkpt>
      <trkpt lat="65.42882" lon="21.68896">
        <ele>5.024412</ele>
        <time>2020-08-28T05:36:44.248Z</time>
      </trkpt>
      <trkpt lat="65.4292" lon="21.68948">
        <ele>4.992971</ele>
        <time>2020-08-28T05:36:52.155Z</time>
      </trkpt>
      <trkpt lat="65.42882" lon="21.68896">
        <ele>5.098374</ele>
        <time>2020-08-28T05:37:00.397Z</time>
      </trkpt>
      <trkpt lat="65.42837" lon="21.68839">
        <ele>5.223698</ele>
        <time>2020-08-28T05:37:10.427Z</time>
      </trkpt>
      <trkpt lat="65.42803" lon="21.68824">
        <ele>5.308156</ele>
        <time>2020-08-28T05:37:17.292Z</time>
      </trkpt>
      <trkpt lat="65.4276" lon="21.68831">
        <ele>5.453799</ele>
        <time>2020-08-28T05:37:25.878Z</time>
      </trkpt>
      <trkpt lat="65.42752" lon="21.68785">
        <ele>5.596554</ele>
        <time>2020-08-28T05:37:30.119Z</time>
      </trkpt>
      <trkpt lat="65.4275" lon="21.68634">
        <ele>6.031657</ele>
        <time>2020-08-28T05:37:43.133Z</time>
      </trkpt>
      <trkpt lat="65.42792" lon="21.68642">
        <ele>6.323922</ele>
        <time>2020-08-28T05:37:51.974Z</time>
      </trkpt>
      <trkpt lat="65.42794" lon="21.68547">
        <ele>6.596086</ele>
        <time>2020-08-28T05:38:00.488Z</time>
      </trkpt>
      <trkpt lat="65.42815" lon="21.68526">
        <ele>6.807644</ele>
        <time>2020-08-28T05:38:05.519Z</time>
      </trkpt>
      <trkpt lat="65.4281" lon="21.68331">
        <ele>7.602876</ele>
        <time>2020-08-28T05:38:22.214Z</time>
      </trkpt>
      <trkpt lat="65.42808" lon="21.683">
        <ele>7.730741</ele>
        <time>2020-08-28T05:38:25.077Z</time>
      </trkpt>
      <trkpt lat="65.42801" lon="21.68173">
        <ele>8.25526</ele>
        <time>2020-08-28T05:38:36.475Z</time>
      </trkpt>
      <trkpt lat="65.4278" lon="21.68004">
        <ele>8.75143</ele>
        <time>2020-08-28T05:38:51.787Z</time>
      </trkpt>
      <trkpt lat="65.42767" lon="21.67927">
        <ele>8.957524</ele>
        <time>2020-08-28T05:38:58.771Z</time>
      </trkpt>
      <trkpt lat="65.42756" lon="21.67859">
        <ele>9.139904</ele>
        <time>2020-08-28T05:39:04.720Z</time>
      </trkpt>
      <trkpt lat="65.42744" lon="21.67786">
        <ele>9.334484</ele>
        <time>2020-08-28T05:39:10.855Z</time>
      </trkpt>
      <trkpt lat="65.42738" lon="21.6772">
        <ele>9.47305</ele>
        <time>2020-08-28T05:39:16.084Z</time>
      </trkpt>
      <trkpt lat="65.42722" lon="21.67531">
        <ele>9.421304</ele>
        <time>2020-08-28T05:39:30.498Z</time>
      </trkpt>
      <trkpt lat="65.42712" lon="21.67338">
        <ele>9.368978</ele>
        <time>2020-08-28T05:39:44.289Z</time>
      </trkpt>
      <trkpt lat="65.42713" lon="21.6717">
        <ele>9.535804</ele>
        <time>2020-08-28T05:39:56.520Z</time>
      </trkpt>
      <trkpt lat="65.42714" lon="21.67103">
        <ele>9.623416</ele>
        <time>2020-08-28T05:40:01.552Z</time>
      </trkpt>
      <trkpt lat="65.42734" lon="21.66813">
        <ele>10.199034</ele>
        <time>2020-08-28T05:40:25.665Z</time>
      </trkpt>
      <trkpt lat="65.42774" lon="21.66517">
        <ele>11.564297</ele>
        <time>2020-08-28T05:40:54.015Z</time>
      </trkpt>
      <trkpt lat="65.428" lon="21.6637">
        <ele>12.028981</ele>
        <time>2020-08-28T05:41:08.177Z</time>
      </trkpt>
      <trkpt lat="65.42814" lon="21.66295">
        <ele>12.196837</ele>
        <time>2020-08-28T05:41:15.094Z</time>
      </trkpt>
      <trkpt lat="65.42905" lon="21.65951">
        <ele>12.542408</ele>
        <time>2020-08-28T05:41:45.870Z</time>
      </trkpt>
      <trkpt lat="65.43073" lon="21.65385">
        <ele>11.440546</ele>
        <time>2020-08-28T05:42:33.694Z</time>
      </trkpt>
      <trkpt lat="65.43124" lon="21.65195">
        <ele>11.052231</ele>
        <time>2020-08-28T05:42:49.821Z</time>
      </trkpt>
      <trkpt lat="65.43141" lon="21.65063">
        <ele>10.818285</ele>
        <time>2020-08-28T05:42:59.419Z</time>
      </trkpt>
      <trkpt lat="65.43157" lon="21.6474">
        <ele>10.025734</ele>
        <time>2020-08-28T05:43:21.475Z</time>
      </trkpt>
      <trkpt lat="65.4316" lon="21.64384">
        <ele>9.247524</ele>
        <time>2020-08-28T05:43:45.179Z</time>
      </trkpt>
      <trkpt lat="65.43171" lon="21.64008">
        <ele>8.842978</ele>
        <time>2020-08-28T05:44:12.258Z</time>
      </trkpt>
      <trkpt lat="65.43174" lon="21.63884">
        <ele>8.879815</ele>
        <time>2020-08-28T05:44:21.688Z</time>
      </trkpt>
      <trkpt lat="65.4318" lon="21.63799">
        <ele>8.905083</ele>
        <time>2020-08-28T05:44:28.185Z</time>
      </trkpt>
      <trkpt lat="65.43196" lon="21.63708">
        <ele>8.934366</ele>
        <time>2020-08-28T05:44:35.748Z</time>
      </trkpt>
      <trkpt lat="65.43227" lon="21.63632">
        <ele>9.09892</ele>
        <time>2020-08-28T05:44:44.064Z</time>
      </trkpt>
      <trkpt lat="65.43301" lon="21.63559">
        <ele>9.417635</ele>
        <time>2020-08-28T05:44:59.470Z</time>
      </trkpt>
      <trkpt lat="65.4334" lon="21.6352">
        <ele>9.58564</ele>
        <time>2020-08-28T05:45:07.394Z</time>
      </trkpt>
      <trkpt lat="65.43379" lon="21.63483">
        <ele>9.942742</ele>
        <time>2020-08-28T05:45:15.405Z</time>
      </trkpt>
      <trkpt lat="65.43385" lon="21.63476">
        <ele>10.0223</ele>
        <time>2020-08-28T05:45:16.844Z</time>
      </trkpt>
      <trkpt lat="65.43392" lon="21.63468">
        <ele>10.116815</ele>
        <time>2020-08-28T05:45:18.512Z</time>
      </trkpt>
      <trkpt lat="65.43367" lon="21.63323">
        <ele>10.889844</ele>
        <time>2020-08-28T05:45:31.998Z</time>
      </trkpt>
      <trkpt lat="65.43344" lon="21.63188">
        <ele>11.606651</ele>
        <time>2020-08-28T05:45:45.291Z</time>
      </trkpt>
      <trkpt lat="65.43275" lon="21.62752">
        <ele>16.479101</ele>
        <time>2020-08-28T05:46:36.154Z</time>
      </trkpt>
      <trkpt lat="65.43257" lon="21.6262">
        <ele>18.606801</ele>
        <time>2020-08-28T05:46:53.415Z</time>
      </trkpt>
      <trkpt lat="65.43248" lon="21.62562">
        <ele>19.530836</ele>
        <time>2020-08-28T05:47:01.035Z</time>
      </trkpt>
      <trkpt lat="65.43206" lon="21.62218">
        <ele>24.94219</ele>
        <time>2020-08-28T05:47:45.930Z</time>
      </trkpt>
      <trkpt lat="65.43181" lon="21.6197">
        <ele>28.711742</ele>
        <time>2020-08-28T05:48:16.467Z</time>
      </trkpt>
      <trkpt lat="65.43162" lon="21.61763">
        <ele>31.733324</ele>
        <time>2020-08-28T05:48:42.090Z</time>
      </trkpt>
      <trkpt lat="65.43148" lon="21.61585">
        <ele>34.298048</ele>
        <time>2020-08-28T05:49:04.152Z</time>
      </trkpt>
      <trkpt lat="65.43137" lon="21.61419">
        <ele>36.215878</ele>
        <time>2020-08-28T05:49:24.124Z</time>
      </trkpt>
      <trkpt lat="65.43124" lon="21.61185">
        <ele>38.122178</ele>
        <time>2020-08-28T05:49:48.768Z</time>
      </trkpt>
      <trkpt lat="65.43117" lon="21.61003">
        <ele>38.790375</ele>
        <time>2020-08-28T05:50:04.552Z</time>
      </trkpt>
      <trkpt lat="65.43106" lon="21.60419">
        <ele>34.327947</ele>
        <time>2020-08-28T05:50:39.499Z</time>
      </trkpt>
      <trkpt lat="65.43103" lon="21.60243">
        <ele>32.147672</ele>
        <time>2020-08-28T05:50:48.782Z</time>
      </trkpt>
      <trkpt lat="65.431" lon="21.60025">
        <ele>28.601311</ele>
        <time>2020-08-28T05:50:59.980Z</time>
      </trkpt>
      <trkpt lat="65.43097" lon="21.59783">
        <ele>24.426735</ele>
        <time>2020-08-28T05:51:12.574Z</time>
      </trkpt>
      <trkpt lat="65.43084" lon="21.59462">
        <ele>20.197534</ele>
        <time>2020-08-28T05:51:30.040Z</time>
      </trkpt>
      <trkpt lat="65.43079" lon="21.59385">
        <ele>19.191349</ele>
        <time>2020-08-28T05:51:34.429Z</time>
      </trkpt>
      <trkpt lat="65.43075" lon="21.59319">
        <ele>18.437735</ele>
        <time>2020-08-28T05:51:38.239Z</time>
      </trkpt>
      <trkpt lat="65.43046" lon="21.58963">
        <ele>15.703424</ele>
        <time>2020-08-28T05:51:59.734Z</time>
      </trkpt>
      <trkpt lat="65.43001" lon="21.58595">
        <ele>14.045384</ele>
        <time>2020-08-28T05:52:24.691Z</time>
      </trkpt>
      <trkpt lat="65.42949" lon="21.58228">
        <ele>12.811022</ele>
        <time>2020-08-28T05:52:50.783Z</time>
      </trkpt>
      <trkpt lat="65.4285" lon="21.57654">
        <ele>10.548593</ele>
        <time>2020-08-28T05:53:31.468Z</time>
      </trkpt>
      <trkpt lat="65.4279" lon="21.57343">
        <ele>8.764265</ele>
        <time>2020-08-28T05:53:52.710Z</time>
      </trkpt>
      <trkpt lat="65.4276" lon="21.57191">
        <ele>8.176207</ele>
        <time>2020-08-28T05:54:03.399Z</time>
      </trkpt>
      <trkpt lat="65.42796" lon="21.57064">
        <ele>7.729871</ele>
        <time>2020-08-28T05:54:13.514Z</time>
      </trkpt>
      <trkpt lat="65.42973" lon="21.55202">
        <ele>6.784942</ele>
        <time>2020-08-28T05:56:34.088Z</time>
      </trkpt>
      <trkpt lat="65.42992" lon="21.55064">
        <ele>6.40313</ele>
        <time>2020-08-28T05:56:44.307Z</time>
      </trkpt>
      <trkpt lat="65.43019" lon="21.54925">
        <ele>6.00393</ele>
        <time>2020-08-28T05:56:54.473Z</time>
      </trkpt>
      <trkpt lat="65.4306" lon="21.54747">
        <ele>5.461463</ele>
        <time>2020-08-28T05:57:07.474Z</time>
      </trkpt>
      <trkpt lat="65.43074" lon="21.54555">
        <ele>4.931336</ele>
        <time>2020-08-28T05:57:20.189Z</time>
      </trkpt>
      <trkpt lat="65.43073" lon="21.54539">
        <ele>4.887722</ele>
        <time>2020-08-28T05:57:21.232Z</time>
      </trkpt>
      <trkpt lat="65.43069" lon="21.54382">
        <ele>4.668866</ele>
        <time>2020-08-28T05:57:32.335Z</time>
      </trkpt>
      <trkpt lat="65.43027" lon="21.54153">
        <ele>5.635418</ele>
        <time>2020-08-28T05:57:53.269Z</time>
      </trkpt>
      <trkpt lat="65.42937" lon="21.53771">
        <ele>8.025323</ele>
        <time>2020-08-28T05:58:36.191Z</time>
      </trkpt>
      <trkpt lat="65.42855" lon="21.53532">
        <ele>9.379368</ele>
        <time>2020-08-28T05:59:03.851Z</time>
      </trkpt>
      <trkpt lat="65.42784" lon="21.53358">
        <ele>10.047962</ele>
        <time>2020-08-28T05:59:23.070Z</time>
      </trkpt>
      <trkpt lat="65.42678" lon="21.53157">
        <ele>10.659777</ele>
        <time>2020-08-28T05:59:48.379Z</time>
      </trkpt>
      <trkpt lat="65.42658" lon="21.5312">
        <ele>10.773879</ele>
        <time>2020-08-28T05:59:53.517Z</time>
      </trkpt>
      <trkpt lat="65.42509" lon="21.52851">
        <ele>11.967442</ele>
        <time>2020-08-28T06:00:31.682Z</time>
      </trkpt>
      <trkpt lat="65.42426" lon="21.52729">
        <ele>11.724419</ele>
        <time>2020-08-28T06:00:49.392Z</time>
      </trkpt>
      <trkpt lat="65.42363" lon="21.52666">
        <ele>11.358647</ele>
        <time>2020-08-28T06:01:00.182Z</time>
      </trkpt>
      <trkpt lat="65.42324" lon="21.52649">
        <ele>11.128348</ele>
        <time>2020-08-28T06:01:06.086Z</time>
      </trkpt>
      <trkpt lat="65.42229" lon="21.52607">
        <ele>9.841665</ele>
        <time>2020-08-28T06:01:20.293Z</time>
      </trkpt>
      <trkpt lat="65.42148" lon="21.5257">
        <ele>8.743366</ele>
        <time>2020-08-28T06:01:32.529Z</time>
      </trkpt>
      <trkpt lat="65.41936" lon="21.52471">
        <ele>6.973047</ele>
        <time>2020-08-28T06:02:06.697Z</time>
      </trkpt>
      <trkpt lat="65.41852" lon="21.52382">
        <ele>6.55661</ele>
        <time>2020-08-28T06:02:21.790Z</time>
      </trkpt>
      <trkpt lat="65.41761" lon="21.52211">
        <ele>6.393919</ele>
        <time>2020-08-28T06:02:41.994Z</time>
      </trkpt>
      <trkpt lat="65.41744" lon="21.52176">
        <ele>6.416637</ele>
        <time>2020-08-28T06:02:46.013Z</time>
      </trkpt>
      <trkpt lat="65.41718" lon="21.52122">
        <ele>6.452046</ele>
        <time>2020-08-28T06:02:52.414Z</time>
      </trkpt>
      <trkpt lat="65.41736" lon="21.52078">
        <ele>6.478358</ele>
        <time>2020-08-28T06:02:57.446Z</time>
      </trkpt>
      <trkpt lat="65.41805" lon="21.51946">
        <ele>6.724649</ele>
        <time>2020-08-28T06:03:14.947Z</time>
      </trkpt>
      <trkpt lat="65.41836" lon="21.51875">
        <ele>6.885116</ele>
        <time>2020-08-28T06:03:23.451Z</time>
      </trkpt>
      <trkpt lat="65.42005" lon="21.51345">
        <ele>7.821209</ele>
        <time>2020-08-28T06:04:18.197Z</time>
      </trkpt>
      <trkpt lat="65.42185" lon="21.50995">
        <ele>8.062675</ele>
        <time>2020-08-28T06:05:02.119Z</time>
      </trkpt>
      <trkpt lat="65.42321" lon="21.50751">
        <ele>8.103065</ele>
        <time>2020-08-28T06:05:33.605Z</time>
      </trkpt>
      <trkpt lat="65.42365" lon="21.50672">
        <ele>8.105904</ele>
        <time>2020-08-28T06:05:43.674Z</time>
      </trkpt>
      <trkpt lat="65.42412" lon="21.50557">
        <ele>8.110404</ele>
        <time>2020-08-28T06:05:56.202Z</time>
      </trkpt>
      <trkpt lat="65.42445" lon="21.50425">
        <ele>8.236169</ele>
        <time>2020-08-28T06:06:08.304Z</time>
      </trkpt>
      <trkpt lat="65.42428" lon="21.50409">
        <ele>8.270912</ele>
        <time>2020-08-28T06:06:11.720Z</time>
      </trkpt>
      <trkpt lat="65.42378" lon="21.50341">
        <ele>8.384542</ele>
        <time>2020-08-28T06:06:23.009Z</time>
      </trkpt>
      <trkpt lat="65.42335" lon="21.50237">
        <ele>8.541663</ele>
        <time>2020-08-28T06:06:34.947Z</time>
      </trkpt>
      <trkpt lat="65.42328" lon="21.50218">
        <ele>8.583101</ele>
        <time>2020-08-28T06:06:37.156Z</time>
      </trkpt>
      <trkpt lat="65.42291" lon="21.50092">
        <ele>8.822507</ele>
        <time>2020-08-28T06:06:49.607Z</time>
      </trkpt>
      <trkpt lat="65.42275" lon="21.50022">
        <ele>8.946914</ele>
        <time>2020-08-28T06:06:56.119Z</time>
      </trkpt>
      <trkpt lat="65.4224" lon="21.4977">
        <ele>9.374899</ele>
        <time>2020-08-28T06:07:18.310Z</time>
      </trkpt>
      <trkpt lat="65.42228" lon="21.49681">
        <ele>9.528701</ele>
        <time>2020-08-28T06:07:25.809Z</time>
      </trkpt>
      <trkpt lat="65.42226" lon="21.49642">
        <ele>9.592878</ele>
        <time>2020-08-28T06:07:28.954Z</time>
      </trkpt>
      <trkpt lat="65.42224" lon="21.49553">
        <ele>9.739108</ele>
        <time>2020-08-28T06:07:36.042Z</time>
      </trkpt>
      <trkpt lat="65.4222" lon="21.49486">
        <ele>9.846567</ele>
        <time>2020-08-28T06:07:41.513Z</time>
      </trkpt>
      <trkpt lat="65.42217" lon="21.49458">
        <ele>9.78724</ele>
        <time>2020-08-28T06:07:43.779Z</time>
      </trkpt>
      <trkpt lat="65.42214" lon="21.49427">
        <ele>9.721488</ele>
        <time>2020-08-28T06:07:46.301Z</time>
      </trkpt>
      <trkpt lat="65.42206" lon="21.49367">
        <ele>9.592788</ele>
        <time>2020-08-28T06:07:51.073Z</time>
      </trkpt>
      <trkpt lat="65.42198" lon="21.49322">
        <ele>9.490641</ele>
        <time>2020-08-28T06:07:54.757Z</time>
      </trkpt>
      <trkpt lat="65.42138" lon="21.49154">
        <ele>9.033515</ele>
        <time>2020-08-28T06:08:09.761Z</time>
      </trkpt>
      <trkpt lat="65.42029" lon="21.48833">
        <ele>5.913231</ele>
        <time>2020-08-28T06:08:34.050Z</time>
      </trkpt>
      <trkpt lat="65.42022" lon="21.48813">
        <ele>5.697747</ele>
        <time>2020-08-28T06:08:35.518Z</time>
      </trkpt>
      <trkpt lat="65.41999" lon="21.4873">
        <ele>5.045015</ele>
        <time>2020-08-28T06:08:41.274Z</time>
      </trkpt>
      <trkpt lat="65.41984" lon="21.48678">
        <ele>4.673501</ele>
        <time>2020-08-28T06:08:45.002Z</time>
      </trkpt>
      <trkpt lat="65.41978" lon="21.48657">
        <ele>4.523394</ele>
        <time>2020-08-28T06:08:46.495Z</time>
      </trkpt>
      <trkpt lat="65.41965" lon="21.486">
        <ele>4.13887</ele>
        <time>2020-08-28T06:08:50.438Z</time>
      </trkpt>
      <trkpt lat="65.41947" lon="21.4851">
        <ele>3.549642</ele>
        <time>2020-08-28T06:08:56.603Z</time>
      </trkpt>
      <trkpt lat="65.41925" lon="21.48416">
        <ele>2.91505</ele>
        <time>2020-08-28T06:09:03.722Z</time>
      </trkpt>
      <trkpt lat="65.41851" lon="21.48174">
        <ele>3.133067</ele>
        <time>2020-08-28T06:09:26.403Z</time>
      </trkpt>
      <trkpt lat="65.41704" lon="21.47751">
        <ele>4.526382</ele>
        <time>2020-08-28T06:10:12.908Z</time>
      </trkpt>
      <trkpt lat="65.41683" lon="21.47695">
        <ele>4.756188</ele>
        <time>2020-08-28T06:10:19.352Z</time>
      </trkpt>
      <trkpt lat="65.41654" lon="21.47616">
        <ele>5.078359</ele>
        <time>2020-08-28T06:10:28.275Z</time>
      </trkpt>
      <trkpt lat="65.41648" lon="21.47598">
        <ele>5.151331</ele>
        <time>2020-08-28T06:10:30.407Z</time>
      </trkpt>
      <trkpt lat="65.4161" lon="21.47493">
        <ele>5.573042</ele>
        <time>2020-08-28T06:10:41.963Z</time>
      </trkpt>
      <trkpt lat="65.41584" lon="21.47399">
        <ele>5.907014</ele>
        <time>2020-08-28T06:10:51.424Z</time>
      </trkpt>
      <trkpt lat="65.41407" lon="21.46947">
        <ele>7.032005</ele>
        <time>2020-08-28T06:11:41.292Z</time>
      </trkpt>
      <trkpt lat="65.41341" lon="21.46796">
        <ele>7.344962</ele>
        <time>2020-08-28T06:11:58.275Z</time>
      </trkpt>
      <trkpt lat="65.40896" lon="21.46186">
        <ele>8.095249</ele>
        <time>2020-08-28T06:13:31.793Z</time>
      </trkpt>
      <trkpt lat="65.40852" lon="21.46157">
        <ele>8.196303</ele>
        <time>2020-08-28T06:13:40.286Z</time>
      </trkpt>
      <trkpt lat="65.40697" lon="21.46168">
        <ele>8.723799</ele>
        <time>2020-08-28T06:14:09.743Z</time>
      </trkpt>
      <trkpt lat="65.406" lon="21.46189">
        <ele>9.089862</ele>
        <time>2020-08-28T06:14:28.365Z</time>
      </trkpt>
      <trkpt lat="65.40526" lon="21.46199">
        <ele>9.374304</ele>
        <time>2020-08-28T06:14:42.594Z</time>
      </trkpt>
      <trkpt lat="65.40493" lon="21.46196">
        <ele>9.511585</ele>
        <time>2020-08-28T06:14:48.690Z</time>
      </trkpt>
      <trkpt lat="65.40474" lon="21.46189">
        <ele>9.609504</ele>
        <time>2020-08-28T06:14:52.352Z</time>
      </trkpt>
      <trkpt lat="65.40415" lon="21.46145">
        <ele>9.924467</ele>
        <time>2020-08-28T06:15:03.996Z</time>
      </trkpt>
      <trkpt lat="65.40364" lon="21.46091">
        <ele>10.209657</ele>
        <time>2020-08-28T06:15:15.079Z</time>
      </trkpt>
      <trkpt lat="65.40296" lon="21.46018">
        <ele>10.882429</ele>
        <time>2020-08-28T06:15:30.222Z</time>
      </trkpt>
      <trkpt lat="65.40275" lon="21.45988">
        <ele>11.173674</ele>
        <time>2020-08-28T06:15:35.302Z</time>
      </trkpt>
      <trkpt lat="65.40286" lon="21.45939">
        <ele>11.447027</ele>
        <time>2020-08-28T06:15:40.492Z</time>
      </trkpt>
      <trkpt lat="65.40225" lon="21.44408">
        <ele>20.068607</ele>
        <time>2020-08-28T06:18:09.827Z</time>
      </trkpt>
      <trkpt lat="65.40205" lon="21.44247">
        <ele>19.518299</ele>
        <time>2020-08-28T06:18:22.507Z</time>
      </trkpt>
      <trkpt lat="65.40171" lon="21.44093">
        <ele>18.948841</ele>
        <time>2020-08-28T06:18:33.969Z</time>
      </trkpt>
      <trkpt lat="65.4009" lon="21.43917">
        <ele>16.477847</ele>
        <time>2020-08-28T06:18:49.380Z</time>
      </trkpt>
      <trkpt lat="65.39992" lon="21.4375">
        <ele>13.414872</ele>
        <time>2020-08-28T06:19:06.095Z</time>
      </trkpt>
      <trkpt lat="65.39941" lon="21.43663">
        <ele>12.326924</ele>
        <time>2020-08-28T06:19:15.142Z</time>
      </trkpt>
      <trkpt lat="65.39868" lon="21.43524">
        <ele>10.711793</ele>
        <time>2020-08-28T06:19:29.796Z</time>
      </trkpt>
      <trkpt lat="65.39695" lon="21.4323">
        <ele>10.574339</ele>
        <time>2020-08-28T06:20:09.654Z</time>
      </trkpt>
      <trkpt lat="65.39484" lon="21.42852">
        <ele>10.96417</ele>
        <time>2020-08-28T06:21:00.780Z</time>
      </trkpt>
      <trkpt lat="65.3917" lon="21.42326">
        <ele>10.597424</ele>
        <time>2020-08-28T06:22:08.664Z</time>
      </trkpt>
      <trkpt lat="65.38927" lon="21.41893">
        <ele>14.245135</ele>
        <time>2020-08-28T06:23:15.269Z</time>
      </trkpt>
      <trkpt lat="65.38865" lon="21.41736">
        <ele>16.233116</ele>
        <time>2020-08-28T06:23:40.264Z</time>
      </trkpt>
      <trkpt lat="65.38838" lon="21.41616">
        <ele>18.313478</ele>
        <time>2020-08-28T06:23:57.783Z</time>
      </trkpt>
      <trkpt lat="65.38787" lon="21.41264">
        <ele>24.232286</ele>
        <time>2020-08-28T06:24:47.199Z</time>
      </trkpt>
      <trkpt lat="65.38757" lon="21.41006">
        <ele>27.912584</ele>
        <time>2020-08-28T06:25:20.391Z</time>
      </trkpt>
      <trkpt lat="65.38717" lon="21.40785">
        <ele>30.354201</ele>
        <time>2020-08-28T06:25:47.007Z</time>
      </trkpt>
      <trkpt lat="65.3868" lon="21.40696">
        <ele>31.255814</ele>
        <time>2020-08-28T06:25:59.661Z</time>
      </trkpt>
      <trkpt lat="65.3862" lon="21.406">
        <ele>32.508667</ele>
        <time>2020-08-28T06:26:16.117Z</time>
      </trkpt>
      <trkpt lat="65.38453" lon="21.4037">
        <ele>33.212658</ele>
        <time>2020-08-28T06:26:54.442Z</time>
      </trkpt>
      <trkpt lat="65.38073" lon="21.3987">
        <ele>30.754425</ele>
        <time>2020-08-28T06:28:07.839Z</time>
      </trkpt>
      <trkpt lat="65.37923" lon="21.39673">
        <ele>30.096996</ele>
        <time>2020-08-28T06:28:37.022Z</time>
      </trkpt>
      <trkpt lat="65.37679" lon="21.39342">
        <ele>30.212424</ele>
        <time>2020-08-28T06:29:30.442Z</time>
      </trkpt>
      <trkpt lat="65.37628" lon="21.39274">
        <ele>30.14574</ele>
        <time>2020-08-28T06:29:41.672Z</time>
      </trkpt>
      <trkpt lat="65.37604" lon="21.39242">
        <ele>30.111006</ele>
        <time>2020-08-28T06:29:46.964Z</time>
      </trkpt>
      <trkpt lat="65.37573" lon="21.39235">
        <ele>30.073361</ele>
        <time>2020-08-28T06:29:52.580Z</time>
      </trkpt>
      <trkpt lat="65.37555" lon="21.39203">
        <ele>30.04478</ele>
        <time>2020-08-28T06:29:56.618Z</time>
      </trkpt>
      <trkpt lat="65.37548" lon="21.39186">
        <ele>30.032205</ele>
        <time>2020-08-28T06:29:58.501Z</time>
      </trkpt>
      <trkpt lat="65.37535" lon="21.39154">
        <ele>30.0098</ele>
        <time>2020-08-28T06:30:01.493Z</time>
      </trkpt>
      <trkpt lat="65.37519" lon="21.39137">
        <ele>29.945036</ele>
        <time>2020-08-28T06:30:04.591Z</time>
      </trkpt>
      <trkpt lat="65.37514" lon="21.39134">
        <ele>29.854304</ele>
        <time>2020-08-28T06:30:05.526Z</time>
      </trkpt>
      <trkpt lat="65.37456" lon="21.39081">
        <ele>28.92671</ele>
        <time>2020-08-28T06:30:15.603Z</time>
      </trkpt>
      <trkpt lat="65.37424" lon="21.39075">
        <ele>28.435915</ele>
        <time>2020-08-28T06:30:20.611Z</time>
      </trkpt>
      <trkpt lat="65.37356" lon="21.39107">
        <ele>27.384816</ele>
        <time>2020-08-28T06:30:30.837Z</time>
      </trkpt>
      <trkpt lat="65.37305" lon="21.39158">
        <ele>26.059972</ele>
        <time>2020-08-28T06:30:38.744Z</time>
      </trkpt>
      <trkpt lat="65.3727" lon="21.39197">
        <ele>25.077012</ele>
        <time>2020-08-28T06:30:44.221Z</time>
      </trkpt>
      <trkpt lat="65.36903" lon="21.39635">
        <ele>14.781645</ele>
        <time>2020-08-28T06:31:42.452Z</time>
      </trkpt>
      <trkpt lat="65.3676" lon="21.39788">
        <ele>11.661489</ele>
        <time>2020-08-28T06:32:05.421Z</time>
      </trkpt>
      <trkpt lat="65.36701" lon="21.39788">
        <ele>10.589349</ele>
        <time>2020-08-28T06:32:14.573Z</time>
      </trkpt>
      <trkpt lat="65.3664" lon="21.39777">
        <ele>10.101103</ele>
        <time>2020-08-28T06:32:24.468Z</time>
      </trkpt>
      <trkpt lat="65.36551" lon="21.39796">
        <ele>9.515525</ele>
        <time>2020-08-28T06:32:39.882Z</time>
      </trkpt>
      <trkpt lat="65.36356" lon="21.39746">
        <ele>9.049594</ele>
        <time>2020-08-28T06:33:15.462Z</time>
      </trkpt>
      <trkpt lat="65.36272" lon="21.39692">
        <ele>9.012997</ele>
        <time>2020-08-28T06:33:31.460Z</time>
      </trkpt>
      <trkpt lat="65.36051" lon="21.39613">
        <ele>9.078211</ele>
        <time>2020-08-28T06:34:13.049Z</time>
      </trkpt>
      <trkpt lat="65.35946" lon="21.39532">
        <ele>9.205612</ele>
        <time>2020-08-28T06:34:34.056Z</time>
      </trkpt>
      <trkpt lat="65.35893" lon="21.39476">
        <ele>9.316342</ele>
        <time>2020-08-28T06:34:45.203Z</time>
      </trkpt>
      <trkpt lat="65.35853" lon="21.39407">
        <ele>9.410836</ele>
        <time>2020-08-28T06:34:54.786Z</time>
      </trkpt>
      <trkpt lat="65.35818" lon="21.39323">
        <ele>9.507196</ele>
        <time>2020-08-28T06:35:04.324Z</time>
      </trkpt>
      <trkpt lat="65.35774" lon="21.39161">
        <ele>9.673925</ele>
        <time>2020-08-28T06:35:19.985Z</time>
      </trkpt>
      <trkpt lat="65.35755" lon="21.39114">
        <ele>9.730862</ele>
        <time>2020-08-28T06:35:25.277Z</time>
      </trkpt>
      <trkpt lat="65.35732" lon="21.3908">
        <ele>9.786319</ele>
        <time>2020-08-28T06:35:30.410Z</time>
      </trkpt>
      <trkpt lat="65.35705" lon="21.3907">
        <ele>9.842842</ele>
        <time>2020-08-28T06:35:35.586Z</time>
      </trkpt>
      <trkpt lat="65.3566" lon="21.391">
        <ele>9.805692</ele>
        <time>2020-08-28T06:35:44.252Z</time>
      </trkpt>
      <trkpt lat="65.35634" lon="21.39137">
        <ele>9.780132</ele>
        <time>2020-08-28T06:35:49.939Z</time>
      </trkpt>
      <trkpt lat="65.35607" lon="21.39156">
        <ele>9.756672</ele>
        <time>2020-08-28T06:35:55.112Z</time>
      </trkpt>
      <trkpt lat="65.35554" lon="21.39158">
        <ele>9.712812</ele>
        <time>2020-08-28T06:36:04.665Z</time>
      </trkpt>
      <trkpt lat="65.35484" lon="21.39184">
        <ele>9.503414</ele>
        <time>2020-08-28T06:36:17.229Z</time>
      </trkpt>
      <trkpt lat="65.35421" lon="21.39175">
        <ele>9.255141</ele>
        <time>2020-08-28T06:36:28.343Z</time>
      </trkpt>
      <trkpt lat="65.35365" lon="21.39181">
        <ele>9.035757</ele>
        <time>2020-08-28T06:36:37.978Z</time>
      </trkpt>
      <trkpt lat="65.35345" lon="21.39191">
        <ele>8.952986</ele>
        <time>2020-08-28T06:36:41.438Z</time>
      </trkpt>
      <trkpt lat="65.35325" lon="21.39211">
        <ele>8.855273</ele>
        <time>2020-08-28T06:36:45.188Z</time>
      </trkpt>
      <trkpt lat="65.35279" lon="21.39222">
        <ele>8.650869</ele>
        <time>2020-08-28T06:36:53.121Z</time>
      </trkpt>
      <trkpt lat="65.35257" lon="21.39216">
        <ele>8.550753</ele>
        <time>2020-08-28T06:36:56.992Z</time>
      </trkpt>
      <trkpt lat="65.35231" lon="21.3921">
        <ele>8.436071</ele>
        <time>2020-08-28T06:37:01.479Z</time>
      </trkpt>
      <trkpt lat="65.352" lon="21.39212">
        <ele>8.297035</ele>
        <time>2020-08-28T06:37:06.954Z</time>
      </trkpt>
      <trkpt lat="65.35177" lon="21.39218">
        <ele>8.195617</ele>
        <time>2020-08-28T06:37:10.950Z</time>
      </trkpt>
      <trkpt lat="65.35157" lon="21.39224">
        <ele>8.129618</ele>
        <time>2020-08-28T06:37:14.414Z</time>
      </trkpt>
      <trkpt lat="65.35139" lon="21.39247">
        <ele>8.062863</ele>
        <time>2020-08-28T06:37:18.012Z</time>
      </trkpt>
      <trkpt lat="65.35104" lon="21.3933">
        <ele>7.900141</ele>
        <time>2020-08-28T06:37:26.765Z</time>
      </trkpt>
      <trkpt lat="65.35095" lon="21.3937">
        <ele>7.838808</ele>
        <time>2020-08-28T06:37:30.119Z</time>
      </trkpt>
      <trkpt lat="65.35084" lon="21.3942">
        <ele>7.762307</ele>
        <time>2020-08-28T06:37:34.308Z</time>
      </trkpt>
      <trkpt lat="65.35071" lon="21.39526">
        <ele>7.61061</ele>
        <time>2020-08-28T06:37:42.620Z</time>
      </trkpt>
      <trkpt lat="65.35052" lon="21.39612">
        <ele>7.458041</ele>
        <time>2020-08-28T06:37:49.738Z</time>
      </trkpt>
      <trkpt lat="65.35034" lon="21.39638">
        <ele>7.379333</ele>
        <time>2020-08-28T06:37:53.363Z</time>
      </trkpt>
      <trkpt lat="65.35008" lon="21.39658">
        <ele>7.275877</ele>
        <time>2020-08-28T06:37:58.108Z</time>
      </trkpt>
      <trkpt lat="65.34932" lon="21.39708">
        <ele>6.97497</ele>
        <time>2020-08-28T06:38:11.854Z</time>
      </trkpt>
      <trkpt lat="65.34928" lon="21.39693">
        <ele>6.944973</ele>
        <time>2020-08-28T06:38:13.174Z</time>
      </trkpt>
      <trkpt lat="65.34913" lon="21.39665">
        <ele>6.857477</ele>
        <time>2020-08-28T06:38:16.457Z</time>
      </trkpt>
      <trkpt lat="65.34814" lon="21.39551">
        <ele>6.290671</ele>
        <time>2020-08-28T06:38:35.336Z</time>
      </trkpt>
      <trkpt lat="65.34785" lon="21.39534">
        <ele>6.139178</ele>
        <time>2020-08-28T06:38:40.303Z</time>
      </trkpt>
      <trkpt lat="65.34735" lon="21.39534">
        <ele>5.891421</ele>
        <time>2020-08-28T06:38:49.100Z</time>
      </trkpt>
      <trkpt lat="65.34727" lon="21.39534">
        <ele>5.857524</ele>
        <time>2020-08-28T06:38:50.357Z</time>
      </trkpt>
      <trkpt lat="65.34673" lon="21.39525">
        <ele>5.614696</ele>
        <time>2020-08-28T06:38:59.813Z</time>
      </trkpt>
      <trkpt lat="65.34654" lon="21.3953">
        <ele>5.532125</ele>
        <time>2020-08-28T06:39:02.969Z</time>
      </trkpt>
      <trkpt lat="65.34652" lon="21.3953">
        <ele>5.521291</ele>
        <time>2020-08-28T06:39:03.389Z</time>
      </trkpt>
      <trkpt lat="65.34646" lon="21.39533">
        <ele>5.493309</ele>
        <time>2020-08-28T06:39:04.481Z</time>
      </trkpt>
      <trkpt lat="65.34618" lon="21.39543">
        <ele>5.367433</ele>
        <time>2020-08-28T06:39:09.421Z</time>
      </trkpt>
      <trkpt lat="65.34572" lon="21.39592">
        <ele>5.148147</ele>
        <time>2020-08-28T06:39:18.235Z</time>
      </trkpt>
      <trkpt lat="65.34547" lon="21.39645">
        <ele>5.015484</ele>
        <time>2020-08-28T06:39:24.045Z</time>
      </trkpt>
      <trkpt lat="65.34536" lon="21.39655">
        <ele>4.969593</ele>
        <time>2020-08-28T06:39:26.021Z</time>
      </trkpt>
      <trkpt lat="65.34493" lon="21.3965">
        <ele>4.794951</ele>
        <time>2020-08-28T06:39:33.654Z</time>
      </trkpt>
      <trkpt lat="65.34458" lon="21.39665">
        <ele>4.653819</ele>
        <time>2020-08-28T06:39:39.879Z</time>
      </trkpt>
      <trkpt lat="65.34445" lon="21.39678">
        <ele>4.59711</ele>
        <time>2020-08-28T06:39:42.423Z</time>
      </trkpt>
      <trkpt lat="65.34434" lon="21.39677">
        <ele>4.555192</ele>
        <time>2020-08-28T06:39:44.232Z</time>
      </trkpt>
      <trkpt lat="65.34357" lon="21.39672">
        <ele>4.214443</ele>
        <time>2020-08-28T06:39:57.728Z</time>
      </trkpt>
      <trkpt lat="65.3435" lon="21.39677">
        <ele>4.181419</ele>
        <time>2020-08-28T06:39:58.945Z</time>
      </trkpt>
      <trkpt lat="65.34336" lon="21.39674">
        <ele>4.118793</ele>
        <time>2020-08-28T06:40:01.374Z</time>
      </trkpt>
      <trkpt lat="65.34307" lon="21.39686">
        <ele>3.984996</ele>
        <time>2020-08-28T06:40:06.416Z</time>
      </trkpt>
      <trkpt lat="65.34302" lon="21.39686">
        <ele>3.960881</ele>
        <time>2020-08-28T06:40:07.345Z</time>
      </trkpt>
      <trkpt lat="65.34296" lon="21.39691">
        <ele>3.933694</ele>
        <time>2020-08-28T06:40:11.546Z</time>
      </trkpt>
      <trkpt lat="65.34296" lon="21.39689">
        <ele>3.928383</ele>
        <time>2020-08-28T06:40:11.739Z</time>
      </trkpt>
      <trkpt lat="65.34294" lon="21.39674">
        <ele>3.898514</ele>
        <time>2020-08-28T06:40:12.874Z</time>
      </trkpt>
      <trkpt lat="65.34282" lon="21.39674">
        <ele>3.841643</ele>
        <time>2020-08-28T06:40:15.003Z</time>
      </trkpt>
      <trkpt lat="65.34281" lon="21.39666">
        <ele>3.826685</ele>
        <time>2020-08-28T06:40:15.752Z</time>
      </trkpt>
      <trkpt lat="65.34254" lon="21.39663">
        <ele>3.706009</ele>
        <time>2020-08-28T06:40:20.366Z</time>
      </trkpt>
      <trkpt lat="65.34188" lon="21.39654">
        <ele>3.500211</ele>
        <time>2020-08-28T06:40:32.067Z</time>
      </trkpt>
      <trkpt lat="65.34122" lon="21.3966">
        <ele>3.320027</ele>
        <time>2020-08-28T06:40:43.744Z</time>
      </trkpt>
      <trkpt lat="65.34106" lon="21.39672">
        <ele>3.274259</ele>
        <time>2020-08-28T06:40:46.756Z</time>
      </trkpt>
      <trkpt lat="65.34096" lon="21.39687">
        <ele>3.243099</ele>
        <time>2020-08-28T06:40:48.783Z</time>
      </trkpt>
      <trkpt lat="65.34091" lon="21.3969">
        <ele>3.229245</ele>
        <time>2020-08-28T06:40:49.663Z</time>
      </trkpt>
      <trkpt lat="65.34088" lon="21.3969">
        <ele>3.221865</ele>
        <time>2020-08-28T06:40:50.145Z</time>
      </trkpt>
      <trkpt lat="65.34044" lon="21.39715">
        <ele>3.161332</ele>
        <time>2020-08-28T06:40:58.110Z</time>
      </trkpt>
      <trkpt lat="65.34004" lon="21.39772">
        <ele>3.169709</ele>
        <time>2020-08-28T06:41:06.245Z</time>
      </trkpt>
      <trkpt lat="65.33976" lon="21.39818">
        <ele>3.175921</ele>
        <time>2020-08-28T06:41:12.380Z</time>
      </trkpt>
      <trkpt lat="65.33964" lon="21.39839">
        <ele>3.178546</ele>
        <time>2020-08-28T06:41:14.978Z</time>
      </trkpt>
      <trkpt lat="65.33959" lon="21.39855">
        <ele>3.180045</ele>
        <time>2020-08-28T06:41:16.536Z</time>
      </trkpt>
      <trkpt lat="65.33956" lon="21.39854">
        <ele>3.180687</ele>
        <time>2020-08-28T06:41:17.203Z</time>
      </trkpt>
      <trkpt lat="65.33922" lon="21.39826">
        <ele>3.187117</ele>
        <time>2020-08-28T06:41:23.965Z</time>
      </trkpt>
      <trkpt lat="65.33891" lon="21.39811">
        <ele>3.266869</ele>
        <time>2020-08-28T06:41:30.076Z</time>
      </trkpt>
      <trkpt lat="65.33874" lon="21.39846">
        <ele>3.370607</ele>
        <time>2020-08-28T06:41:34.403Z</time>
      </trkpt>
      <trkpt lat="65.33782" lon="21.40058">
        <ele>3.968659</ele>
        <time>2020-08-28T06:42:00.166Z</time>
      </trkpt>
      <trkpt lat="65.33753" lon="21.40122">
        <ele>4.219622</ele>
        <time>2020-08-28T06:42:08.419Z</time>
      </trkpt>
      <trkpt lat="65.33723" lon="21.40195">
        <ele>4.535671</ele>
        <time>2020-08-28T06:42:17.495Z</time>
      </trkpt>
      <trkpt lat="65.33696" lon="21.40255">
        <ele>4.802045</ele>
        <time>2020-08-28T06:42:25.226Z</time>
      </trkpt>
      <trkpt lat="65.33685" lon="21.40284">
        <ele>4.924367</ele>
        <time>2020-08-28T06:42:28.806Z</time>
      </trkpt>
      <trkpt lat="65.33672" lon="21.40318">
        <ele>5.063018</ele>
        <time>2020-08-28T06:42:32.758Z</time>
      </trkpt>
      <trkpt lat="65.33628" lon="21.40465">
        <ele>5.590782</ele>
        <time>2020-08-28T06:42:48.388Z</time>
      </trkpt>
      <trkpt lat="65.33625" lon="21.40471">
        <ele>5.61568</ele>
        <time>2020-08-28T06:42:49.272Z</time>
      </trkpt>
      <trkpt lat="65.3362" lon="21.40461">
        <ele>5.661117</ele>
        <time>2020-08-28T06:42:50.665Z</time>
      </trkpt>
      <trkpt lat="65.33581" lon="21.40395">
        <ele>5.983194</ele>
        <time>2020-08-28T06:43:00.580Z</time>
      </trkpt>
      <trkpt lat="65.33546" lon="21.40379">
        <ele>6.221358</ele>
        <time>2020-08-28T06:43:07.964Z</time>
      </trkpt>
      <trkpt lat="65.33542" lon="21.40371">
        <ele>6.257417</ele>
        <time>2020-08-28T06:43:09.058Z</time>
      </trkpt>
      <trkpt lat="65.33534" lon="21.40345">
        <ele>6.345</ele>
        <time>2020-08-28T06:43:11.842Z</time>
      </trkpt>
      <trkpt lat="65.33526" lon="21.40329">
        <ele>6.414768</ele>
        <time>2020-08-28T06:43:13.964Z</time>
      </trkpt>
      <trkpt lat="65.3351" lon="21.403">
        <ele>6.552908</ele>
        <time>2020-08-28T06:43:18.122Z</time>
      </trkpt>
      <trkpt lat="65.33502" lon="21.40273">
        <ele>6.633675</ele>
        <time>2020-08-28T06:43:21.046Z</time>
      </trkpt>
      <trkpt lat="65.33477" lon="21.40305">
        <ele>6.799618</ele>
        <time>2020-08-28T06:43:26.764Z</time>
      </trkpt>
      <trkpt lat="65.33466" lon="21.40317">
        <ele>6.873851</ele>
        <time>2020-08-28T06:43:29.326Z</time>
      </trkpt>
      <trkpt lat="65.33457" lon="21.40326">
        <ele>6.932945</ele>
        <time>2020-08-28T06:43:31.358Z</time>
      </trkpt>
      <trkpt lat="65.33437" lon="21.40347">
        <ele>7.058969</ele>
        <time>2020-08-28T06:43:35.791Z</time>
      </trkpt>
      <trkpt lat="65.33351" lon="21.40412">
        <ele>7.595063</ele>
        <time>2020-08-28T06:43:54.330Z</time>
      </trkpt>
      <trkpt lat="65.33331" lon="21.40419">
        <ele>7.663342</ele>
        <time>2020-08-28T06:43:58.398Z</time>
      </trkpt>
      <trkpt lat="65.33318" lon="21.40424">
        <ele>7.700581</ele>
        <time>2020-08-28T06:44:00.942Z</time>
      </trkpt>
      <trkpt lat="65.33293" lon="21.40436">
        <ele>7.77672</ele>
        <time>2020-08-28T06:44:06.238Z</time>
      </trkpt>
      <trkpt lat="65.33264" lon="21.40449">
        <ele>7.861079</ele>
        <time>2020-08-28T06:44:11.925Z</time>
      </trkpt>
      <trkpt lat="65.33246" lon="21.40457">
        <ele>7.914986</ele>
        <time>2020-08-28T06:44:15.329Z</time>
      </trkpt>
      <trkpt lat="65.3324" lon="21.40461">
        <ele>7.932477</ele>
        <time>2020-08-28T06:44:16.507Z</time>
      </trkpt>
      <trkpt lat="65.3309" lon="21.40529">
        <ele>8.066062</ele>
        <time>2020-08-28T06:44:44.337Z</time>
      </trkpt>
      <trkpt lat="65.3308" lon="21.40534">
        <ele>8.057328</ele>
        <time>2020-08-28T06:44:46.111Z</time>
      </trkpt>
      <trkpt lat="65.3307" lon="21.4054">
        <ele>8.048321</ele>
        <time>2020-08-28T06:44:47.915Z</time>
      </trkpt>
      <trkpt lat="65.33037" lon="21.40564">
        <ele>8.018102</ele>
        <time>2020-08-28T06:44:53.969Z</time>
      </trkpt>
      <trkpt lat="65.32917" lon="21.40708">
        <ele>7.254431</ele>
        <time>2020-08-28T06:45:16.359Z</time>
      </trkpt>
      <trkpt lat="65.32901" lon="21.40733">
        <ele>7.104602</ele>
        <time>2020-08-28T06:45:19.167Z</time>
      </trkpt>
      <trkpt lat="65.32885" lon="21.40763">
        <ele>6.942102</ele>
        <time>2020-08-28T06:45:22.501Z</time>
      </trkpt>
      <trkpt lat="65.32876" lon="21.40774">
        <ele>6.863421</ele>
        <time>2020-08-28T06:45:23.889Z</time>
      </trkpt>
      <trkpt lat="65.32844" lon="21.40817">
        <ele>6.567445</ele>
        <time>2020-08-28T06:45:29.502Z</time>
      </trkpt>
      <trkpt lat="65.32791" lon="21.40868">
        <ele>5.811846</ele>
        <time>2020-08-28T06:45:38.097Z</time>
      </trkpt>
      <trkpt lat="65.32776" lon="21.40878">
        <ele>5.600794</ele>
        <time>2020-08-28T06:45:40.287Z</time>
      </trkpt>
      <trkpt lat="65.32769" lon="21.40882">
        <ele>5.505823</ele>
        <time>2020-08-28T06:45:41.303Z</time>
      </trkpt>
      <trkpt lat="65.32751" lon="21.40894">
        <ele>5.255595</ele>
        <time>2020-08-28T06:45:44.175Z</time>
      </trkpt>
      <trkpt lat="65.32742" lon="21.40899">
        <ele>5.126438</ele>
        <time>2020-08-28T06:45:45.502Z</time>
      </trkpt>
      <trkpt lat="65.32731" lon="21.4089">
        <ele>4.970673</ele>
        <time>2020-08-28T06:45:47.229Z</time>
      </trkpt>
      <trkpt lat="65.32636" lon="21.40935">
        <ele>3.913896</ele>
        <time>2020-08-28T06:46:01.763Z</time>
      </trkpt>
      <trkpt lat="65.32633" lon="21.40936">
        <ele>3.894477</ele>
        <time>2020-08-28T06:46:02.212Z</time>
      </trkpt>
      <trkpt lat="65.325" lon="21.40995">
        <ele>3.030686</ele>
        <time>2020-08-28T06:46:24.568Z</time>
      </trkpt>
      <trkpt lat="65.32497" lon="21.40996">
        <ele>3.012888</ele>
        <time>2020-08-28T06:46:25.030Z</time>
      </trkpt>
      <trkpt lat="65.32473" lon="21.40997">
        <ele>2.95487</ele>
        <time>2020-08-28T06:46:29.186Z</time>
      </trkpt>
      <trkpt lat="65.32367" lon="21.41038">
        <ele>2.784907</ele>
        <time>2020-08-28T06:46:48.064Z</time>
      </trkpt>
      <trkpt lat="65.32328" lon="21.41048">
        <ele>2.72234</ele>
        <time>2020-08-28T06:46:54.963Z</time>
      </trkpt>
      <trkpt lat="65.3231" lon="21.41067">
        <ele>2.687977</ele>
        <time>2020-08-28T06:46:58.375Z</time>
      </trkpt>
      <trkpt lat="65.32254" lon="21.41117">
        <ele>2.556992</ele>
        <time>2020-08-28T06:47:08.834Z</time>
      </trkpt>
      <trkpt lat="65.32147" lon="21.41173">
        <ele>2.320764</ele>
        <time>2020-08-28T06:47:27.408Z</time>
      </trkpt>
      <trkpt lat="65.32041" lon="21.41243">
        <ele>2.191472</ele>
        <time>2020-08-28T06:47:46.474Z</time>
      </trkpt>
      <trkpt lat="65.32003" lon="21.41272">
        <ele>2.147459</ele>
        <time>2020-08-28T06:47:53.356Z</time>
      </trkpt>
      <trkpt lat="65.31917" lon="21.41369">
        <ele>2.19506</ele>
        <time>2020-08-28T06:48:10.429Z</time>
      </trkpt>
      <trkpt lat="65.31885" lon="21.41417">
        <ele>2.249622</ele>
        <time>2020-08-28T06:48:17.320Z</time>
      </trkpt>
      <trkpt lat="65.31864" lon="21.41452">
        <ele>2.287119</ele>
        <time>2020-08-28T06:48:22.092Z</time>
      </trkpt>
      <trkpt lat="65.31839" lon="21.41488">
        <ele>2.33029</ele>
        <time>2020-08-28T06:48:27.591Z</time>
      </trkpt>
      <trkpt lat="65.31819" lon="21.41519">
        <ele>2.364648</ele>
        <time>2020-08-28T06:48:31.931Z</time>
      </trkpt>
      <trkpt lat="65.3181" lon="21.41535">
        <ele>2.385282</ele>
        <time>2020-08-28T06:48:34.010Z</time>
      </trkpt>
      <trkpt lat="65.31784" lon="21.41592">
        <ele>2.45921</ele>
        <time>2020-08-28T06:48:40.652Z</time>
      </trkpt>
      <trkpt lat="65.31699" lon="21.4173">
        <ele>2.673298</ele>
        <time>2020-08-28T06:48:59.885Z</time>
      </trkpt>
      <trkpt lat="65.31681" lon="21.41746">
        <ele>2.713049</ele>
        <time>2020-08-28T06:49:03.397Z</time>
      </trkpt>
      <trkpt lat="65.31669" lon="21.41768">
        <ele>2.744394</ele>
        <time>2020-08-28T06:49:06.284Z</time>
      </trkpt>
      <trkpt lat="65.31624" lon="21.41838">
        <ele>2.620602</ele>
        <time>2020-08-28T06:49:16.226Z</time>
      </trkpt>
      <trkpt lat="65.31617" lon="21.41848">
        <ele>2.601215</ele>
        <time>2020-08-28T06:49:17.787Z</time>
      </trkpt>
      <trkpt lat="65.31603" lon="21.41869">
        <ele>2.56264</ele>
        <time>2020-08-28T06:49:20.783Z</time>
      </trkpt>
      <trkpt lat="65.31592" lon="21.41893">
        <ele>2.527898</ele>
        <time>2020-08-28T06:49:23.472Z</time>
      </trkpt>
      <trkpt lat="65.31587" lon="21.4191">
        <ele>2.508547</ele>
        <time>2020-08-28T06:49:25.018Z</time>
      </trkpt>
      <trkpt lat="65.31576" lon="21.41912">
        <ele>2.482578</ele>
        <time>2020-08-28T06:49:28.203Z</time>
      </trkpt>
      <trkpt lat="65.31549" lon="21.41927">
        <ele>2.418938</ele>
        <time>2020-08-28T06:49:36.111Z</time>
      </trkpt>
      <trkpt lat="65.31504" lon="21.41959">
        <ele>2.277276</ele>
        <time>2020-08-28T06:49:49.494Z</time>
      </trkpt>
      <trkpt lat="65.31402" lon="21.42063">
        <ele>1.619855</ele>
        <time>2020-08-28T06:50:20.277Z</time>
      </trkpt>
      <trkpt lat="65.31368" lon="21.42012">
        <ele>1.376774</ele>
        <time>2020-08-28T06:50:26.877Z</time>
      </trkpt>
      <trkpt lat="65.31314" lon="21.41914">
        <ele>1.082936</ele>
        <time>2020-08-28T06:50:38.029Z</time>
      </trkpt>
      <trkpt lat="65.31293" lon="21.41842">
        <ele>0.949635</ele>
        <time>2020-08-28T06:50:44.130Z</time>
      </trkpt>
      <trkpt lat="65.31272" lon="21.41738">
        <ele>0.773411</ele>
        <time>2020-08-28T06:50:52.365Z</time>
      </trkpt>
      <trkpt lat="65.31262" lon="21.41638">
        <ele>0.616592</ele>
        <time>2020-08-28T06:50:59.710Z</time>
      </trkpt>
      <trkpt lat="65.31248" lon="21.41574">
        <ele>0.548069</ele>
        <time>2020-08-28T06:51:04.879Z</time>
      </trkpt>
      <trkpt lat="65.31237" lon="21.41546">
        <ele>0.515874</ele>
        <time>2020-08-28T06:51:07.581Z</time>
      </trkpt>
      <trkpt lat="65.31085" lon="21.41199">
        <ele>0.246049</ele>
        <time>2020-08-28T06:51:45.365Z</time>
      </trkpt>
      <trkpt lat="65.31066" lon="21.41157">
        <ele>0.249014</ele>
        <time>2020-08-28T06:51:49.982Z</time>
      </trkpt>
      <trkpt lat="65.31033" lon="21.41108">
        <ele>0.25353</ele>
        <time>2020-08-28T06:51:57.078Z</time>
      </trkpt>
      <trkpt lat="65.31004" lon="21.41088">
        <ele>0.257048</ele>
        <time>2020-08-28T06:52:02.677Z</time>
      </trkpt>
      <trkpt lat="65.30963" lon="21.41077">
        <ele>0.713323</ele>
        <time>2020-08-28T06:52:10.372Z</time>
      </trkpt>
      <trkpt lat="65.30947" lon="21.41073">
        <ele>0.966497</ele>
        <time>2020-08-28T06:52:13.276Z</time>
      </trkpt>
      <trkpt lat="65.30932" lon="21.4107">
        <ele>1.210797</ele>
        <time>2020-08-28T06:52:16.178Z</time>
      </trkpt>
      <trkpt lat="65.30901" lon="21.4105">
        <ele>1.73537</ele>
        <time>2020-08-28T06:52:22.880Z</time>
      </trkpt>
      <trkpt lat="65.30861" lon="21.40998">
        <ele>2.473944</ele>
        <time>2020-08-28T06:52:34.342Z</time>
      </trkpt>
      <trkpt lat="65.30828" lon="21.40978">
        <ele>3.02975</ele>
        <time>2020-08-28T06:52:43.725Z</time>
      </trkpt>
      <trkpt lat="65.30798" lon="21.40928">
        <ele>4.18018</ele>
        <time>2020-08-28T06:52:54.178Z</time>
      </trkpt>
      <trkpt lat="65.30783" lon="21.40901">
        <ele>4.88853</ele>
        <time>2020-08-28T06:52:59.503Z</time>
      </trkpt>
      <trkpt lat="65.30779" lon="21.40836">
        <ele>5.913544</ele>
        <time>2020-08-28T06:53:07.870Z</time>
      </trkpt>
      <trkpt lat="65.30774" lon="21.40778">
        <ele>6.819286</ele>
        <time>2020-08-28T06:53:15.535Z</time>
      </trkpt>
      <trkpt lat="65.30772" lon="21.40713">
        <ele>7.848687</ele>
        <time>2020-08-28T06:53:24.015Z</time>
      </trkpt>
      <trkpt lat="65.30778" lon="21.40667">
        <ele>8.590406</ele>
        <time>2020-08-28T06:53:30.224Z</time>
      </trkpt>
      <trkpt lat="65.30756" lon="21.40665">
        <ele>9.388965</ele>
        <time>2020-08-28T06:53:37.239Z</time>
      </trkpt>
      <trkpt lat="65.30721" lon="21.40703">
        <ele>10.677914</ele>
        <time>2020-08-28T06:53:49.843Z</time>
      </trkpt>
      <trkpt lat="65.30662" lon="21.40731">
        <ele>12.53915</ele>
        <time>2020-08-28T06:54:07.479Z</time>
      </trkpt>
      <trkpt lat="65.30571" lon="21.40641">
        <ele>15.557611</ele>
        <time>2020-08-28T06:54:34.300Z</time>
      </trkpt>
      <trkpt lat="65.30524" lon="21.40557">
        <ele>16.472574</ele>
        <time>2020-08-28T06:54:48.967Z</time>
      </trkpt>
      <trkpt lat="65.3052" lon="21.40557">
        <ele>16.528912</ele>
        <time>2020-08-28T06:54:50.429Z</time>
      </trkpt>
      <trkpt lat="65.30437" lon="21.40558">
        <ele>17.835646</ele>
        <time>2020-08-28T06:55:09.468Z</time>
      </trkpt>
      <trkpt lat="65.30436" lon="21.40529">
        <ele>18.025417</ele>
        <time>2020-08-28T06:55:11.919Z</time>
      </trkpt>
      <trkpt lat="65.30437" lon="21.405">
        <ele>18.21544</ele>
        <time>2020-08-28T06:55:14.876Z</time>
      </trkpt>
      <trkpt lat="65.30399" lon="21.405">
        <ele>18.08282</ele>
        <time>2020-08-28T06:55:22.368Z</time>
      </trkpt>
      <trkpt lat="65.3034" lon="21.40496">
        <ele>17.680239</ele>
        <time>2020-08-28T06:55:32.346Z</time>
      </trkpt>
      <trkpt lat="65.30325" lon="21.40496">
        <ele>17.575195</ele>
        <time>2020-08-28T06:55:34.825Z</time>
      </trkpt>
      <trkpt lat="65.30278" lon="21.4047">
        <ele>17.248569</ele>
        <time>2020-08-28T06:55:42.470Z</time>
      </trkpt>
      <trkpt lat="65.30234" lon="21.40615">
        <ele>16.192375</ele>
        <time>2020-08-28T06:55:53.787Z</time>
      </trkpt>
      <trkpt lat="65.30187" lon="21.40781">
        <ele>14.703842</ele>
        <time>2020-08-28T06:56:06.332Z</time>
      </trkpt>
      <trkpt lat="65.30168" lon="21.40839">
        <ele>14.154612</ele>
        <time>2020-08-28T06:56:10.936Z</time>
      </trkpt>
      <trkpt lat="65.30152" lon="21.40882">
        <ele>13.730633</ele>
        <time>2020-08-28T06:56:14.524Z</time>
      </trkpt>
      <trkpt lat="65.30116" lon="21.40958">
        <ele>12.898585</ele>
        <time>2020-08-28T06:56:21.791Z</time>
      </trkpt>
      <trkpt lat="65.30061" lon="21.41071">
        <ele>11.645857</ele>
        <time>2020-08-28T06:56:32.664Z</time>
      </trkpt>
      <trkpt lat="65.30008" lon="21.41184">
        <ele>10.484211</ele>
        <time>2020-08-28T06:56:43.491Z</time>
      </trkpt>
      <trkpt lat="65.29996" lon="21.41204">
        <ele>10.276603</ele>
        <time>2020-08-28T06:56:45.824Z</time>
      </trkpt>
      <trkpt lat="65.29957" lon="21.41294">
        <ele>9.534012</ele>
        <time>2020-08-28T06:56:54.185Z</time>
      </trkpt>
      <trkpt lat="65.29928" lon="21.41322">
        <ele>9.110178</ele>
        <time>2020-08-28T06:56:59.066Z</time>
      </trkpt>
      <trkpt lat="65.29894" lon="21.41343">
        <ele>8.627606</ele>
        <time>2020-08-28T06:57:04.584Z</time>
      </trkpt>
      <trkpt lat="65.29768" lon="21.41343">
        <ele>7.322968</ele>
        <time>2020-08-28T06:57:24.939Z</time>
      </trkpt>
      <trkpt lat="65.29756" lon="21.4134">
        <ele>7.209979</ele>
        <time>2020-08-28T06:57:26.836Z</time>
      </trkpt>
      <trkpt lat="65.29729" lon="21.41357">
        <ele>6.937984</ele>
        <time>2020-08-28T06:57:31.640Z</time>
      </trkpt>
      <trkpt lat="65.29721" lon="21.41327">
        <ele>6.796397</ele>
        <time>2020-08-28T06:57:34.007Z</time>
      </trkpt>
      <trkpt lat="65.29713" lon="21.41298">
        <ele>6.66358</ele>
        <time>2020-08-28T06:57:36.310Z</time>
      </trkpt>
      <trkpt lat="65.297" lon="21.41313">
        <ele>6.53787</ele>
        <time>2020-08-28T06:57:38.533Z</time>
      </trkpt>
      <trkpt lat="65.29664" lon="21.41327">
        <ele>6.297616</ele>
        <time>2020-08-28T06:57:44.274Z</time>
      </trkpt>
      <trkpt lat="65.29573" lon="21.41334">
        <ele>5.702965</ele>
        <time>2020-08-28T06:57:58.948Z</time>
      </trkpt>
      <trkpt lat="65.2956" lon="21.41336">
        <ele>5.618014</ele>
        <time>2020-08-28T06:58:00.943Z</time>
      </trkpt>
      <trkpt lat="65.29545" lon="21.41338">
        <ele>5.519215</ele>
        <time>2020-08-28T06:58:03.407Z</time>
      </trkpt>
      <trkpt lat="65.29385" lon="21.41345">
        <ele>5.071246</ele>
        <time>2020-08-28T06:58:30.556Z</time>
      </trkpt>
      <trkpt lat="65.29306" lon="21.41352">
        <ele>5.030524</ele>
        <time>2020-08-28T06:58:44.775Z</time>
      </trkpt>
      <trkpt lat="65.29235" lon="21.41358">
        <ele>5.117667</ele>
        <time>2020-08-28T06:58:57.818Z</time>
      </trkpt>
      <trkpt lat="65.29185" lon="21.41361">
        <ele>5.178346</ele>
        <time>2020-08-28T06:59:06.989Z</time>
      </trkpt>
      <trkpt lat="65.29171" lon="21.41341">
        <ele>5.198001</ele>
        <time>2020-08-28T06:59:09.963Z</time>
      </trkpt>
      <trkpt lat="65.29158" lon="21.41337">
        <ele>5.230331</ele>
        <time>2020-08-28T06:59:12.548Z</time>
      </trkpt>
      <trkpt lat="65.28939" lon="21.41351">
        <ele>5.835573</ele>
        <time>2020-08-28T06:59:53.449Z</time>
      </trkpt>
      <trkpt lat="65.28897" lon="21.41323">
        <ele>5.988415</ele>
        <time>2020-08-28T07:00:01.719Z</time>
      </trkpt>
      <trkpt lat="65.28854" lon="21.41292">
        <ele>6.145238</ele>
        <time>2020-08-28T07:00:10.346Z</time>
      </trkpt>
      <trkpt lat="65.28843" lon="21.41286">
        <ele>6.183231</ele>
        <time>2020-08-28T07:00:12.533Z</time>
      </trkpt>
      <trkpt lat="65.28819" lon="21.4129">
        <ele>6.268539</ele>
        <time>2020-08-28T07:00:17.389Z</time>
      </trkpt>
      <trkpt lat="65.28809" lon="21.41281">
        <ele>6.308328</ele>
        <time>2020-08-28T07:00:19.452Z</time>
      </trkpt>
      <trkpt lat="65.28803" lon="21.41264">
        <ele>6.348825</ele>
        <time>2020-08-28T07:00:21.317Z</time>
      </trkpt>
      <trkpt lat="65.2879" lon="21.41183">
        <ele>6.502267</ele>
        <time>2020-08-28T07:00:28.452Z</time>
      </trkpt>
      <trkpt lat="65.28785" lon="21.41156">
        <ele>6.556572</ele>
        <time>2020-08-28T07:00:30.990Z</time>
      </trkpt>
      <trkpt lat="65.28771" lon="21.41132">
        <ele>6.630034</ele>
        <time>2020-08-28T07:00:36.321Z</time>
      </trkpt>
      <trkpt lat="65.28759" lon="21.41087">
        <ele>6.724994</ele>
        <time>2020-08-28T07:00:43.194Z</time>
      </trkpt>
      <trkpt lat="65.28747" lon="21.41045">
        <ele>6.815083</ele>
        <time>2020-08-28T07:00:49.774Z</time>
      </trkpt>
      <trkpt lat="65.28727" lon="21.41063">
        <ele>6.906307</ele>
        <time>2020-08-28T07:00:56.445Z</time>
      </trkpt>
      <trkpt lat="65.28684" lon="21.4105">
        <ele>7.094953</ele>
        <time>2020-08-28T07:01:10.006Z</time>
      </trkpt>
      <trkpt lat="65.28667" lon="21.41063">
        <ele>7.175689</ele>
        <time>2020-08-28T07:01:15.370Z</time>
      </trkpt>
      <trkpt lat="65.28644" lon="21.4111">
        <ele>7.320522</ele>
        <time>2020-08-28T07:01:24.904Z</time>
      </trkpt>
      <trkpt lat="65.28599" lon="21.41039">
        <ele>7.577139</ele>
        <time>2020-08-28T07:01:35.286Z</time>
      </trkpt>
      <trkpt lat="65.28544" lon="21.40954">
        <ele>7.884597</ele>
        <time>2020-08-28T07:01:47.988Z</time>
      </trkpt>
      <trkpt lat="65.28497" lon="21.40875">
        <ele>8.163086</ele>
        <time>2020-08-28T07:01:59.250Z</time>
      </trkpt>
      <trkpt lat="65.28479" lon="21.40844">
        <ele>8.271742</ele>
        <time>2020-08-28T07:02:03.647Z</time>
      </trkpt>
      <trkpt lat="65.28455" lon="21.40802">
        <ele>8.41625</ele>
        <time>2020-08-28T07:02:09.436Z</time>
      </trkpt>
      <trkpt lat="65.28424" lon="21.40754">
        <ele>8.597459</ele>
        <time>2020-08-28T07:02:16.548Z</time>
      </trkpt>
      <trkpt lat="65.28348" lon="21.4065">
        <ele>8.958086</ele>
        <time>2020-08-28T07:02:33.161Z</time>
      </trkpt>
      <trkpt lat="65.28301" lon="21.40571">
        <ele>9.167164</ele>
        <time>2020-08-28T07:02:44.120Z</time>
      </trkpt>
      <trkpt lat="65.28257" lon="21.40502">
        <ele>9.356237</ele>
        <time>2020-08-28T07:02:54.086Z</time>
      </trkpt>
      <trkpt lat="65.28184" lon="21.40389">
        <ele>9.609915</ele>
        <time>2020-08-28T07:03:10.610Z</time>
      </trkpt>
      <trkpt lat="65.28149" lon="21.40339">
        <ele>9.717016</ele>
        <time>2020-08-28T07:03:18.150Z</time>
      </trkpt>
      <trkpt lat="65.281" lon="21.40251">
        <ele>9.88277</ele>
        <time>2020-08-28T07:03:29.646Z</time>
      </trkpt>
      <trkpt lat="65.28065" lon="21.40173">
        <ele>9.929868</ele>
        <time>2020-08-28T07:03:38.407Z</time>
      </trkpt>
      <trkpt lat="65.28059" lon="21.40161">
        <ele>9.933566</ele>
        <time>2020-08-28T07:03:39.787Z</time>
      </trkpt>
      <trkpt lat="65.28002" lon="21.40024">
        <ele>9.972692</ele>
        <time>2020-08-28T07:03:54.261Z</time>
      </trkpt>
      <trkpt lat="65.27957" lon="21.39901">
        <ele>9.982566</ele>
        <time>2020-08-28T07:04:06.499Z</time>
      </trkpt>
      <trkpt lat="65.2794" lon="21.39852">
        <ele>9.952207</ele>
        <time>2020-08-28T07:04:11.133Z</time>
      </trkpt>
      <trkpt lat="65.2792" lon="21.39778">
        <ele>9.909421</ele>
        <time>2020-08-28T07:04:17.656Z</time>
      </trkpt>
      <trkpt lat="65.27847" lon="21.39472">
        <ele>9.687562</ele>
        <time>2020-08-28T07:04:43.249Z</time>
      </trkpt>
      <trkpt lat="65.27812" lon="21.39267">
        <ele>9.473921</ele>
        <time>2020-08-28T07:04:59.026Z</time>
      </trkpt>
      <trkpt lat="65.27791" lon="21.39112">
        <ele>9.324746</ele>
        <time>2020-08-28T07:05:10.623Z</time>
      </trkpt>
      <trkpt lat="65.27776" lon="21.38918">
        <ele>9.158275</ele>
        <time>2020-08-28T07:05:24.832Z</time>
      </trkpt>
      <trkpt lat="65.27766" lon="21.38789">
        <ele>9.04741</ele>
        <time>2020-08-28T07:05:34.424Z</time>
      </trkpt>
      <trkpt lat="65.27762" lon="21.38739">
        <ele>9.011927</ele>
        <time>2020-08-28T07:05:38.199Z</time>
      </trkpt>
      <trkpt lat="65.27728" lon="21.384">
        <ele>8.951765</ele>
        <time>2020-08-28T07:06:04.061Z</time>
      </trkpt>
      <trkpt lat="65.27689" lon="21.38125">
        <ele>9.330918</ele>
        <time>2020-08-28T07:06:25.783Z</time>
      </trkpt>
      <trkpt lat="65.27669" lon="21.37977">
        <ele>9.609215</ele>
        <time>2020-08-28T07:06:38.469Z</time>
      </trkpt>
      <trkpt lat="65.27659" lon="21.37908">
        <ele>9.835409</ele>
        <time>2020-08-28T07:06:44.626Z</time>
      </trkpt>
      <trkpt lat="65.27582" lon="21.37434">
        <ele>13.878239</ele>
        <time>2020-08-28T07:07:35.282Z</time>
      </trkpt>
      <trkpt lat="65.27501" lon="21.36993">
        <ele>18.901034</ele>
        <time>2020-08-28T07:08:30.218Z</time>
      </trkpt>
      <trkpt lat="65.2744" lon="21.36706">
        <ele>21.632951</ele>
        <time>2020-08-28T07:09:02.402Z</time>
      </trkpt>
      <trkpt lat="65.27261" lon="21.35939">
        <ele>25.85491</ele>
        <time>2020-08-28T07:10:18.621Z</time>
      </trkpt>
      <trkpt lat="65.27159" lon="21.35454">
        <ele>32.315712</ele>
        <time>2020-08-28T07:11:19.035Z</time>
      </trkpt>
      <trkpt lat="65.27137" lon="21.35326">
        <ele>34.588004</ele>
        <time>2020-08-28T07:11:37.839Z</time>
      </trkpt>
      <trkpt lat="65.27134" lon="21.35306">
        <ele>34.93563</ele>
        <time>2020-08-28T07:11:41.406Z</time>
      </trkpt>
      <trkpt lat="65.27103" lon="21.35125">
        <ele>37.959696</ele>
        <time>2020-08-28T07:12:08.884Z</time>
      </trkpt>
      <trkpt lat="65.26983" lon="21.34331">
        <ele>48.223993</ele>
        <time>2020-08-28T07:13:45.072Z</time>
      </trkpt>
      <trkpt lat="65.26906" lon="21.33656">
        <ele>50.243291</ele>
        <time>2020-08-28T07:14:41.311Z</time>
      </trkpt>
      <trkpt lat="65.26886" lon="21.33459">
        <ele>50.482478</ele>
        <time>2020-08-28T07:14:57.003Z</time>
      </trkpt>
      <trkpt lat="65.26879" lon="21.3339">
        <ele>50.549414</ele>
        <time>2020-08-28T07:15:02.582Z</time>
      </trkpt>
      <trkpt lat="65.26776" lon="21.32141">
        <ele>51.261697</ele>
        <time>2020-08-28T07:16:41.423Z</time>
      </trkpt>
      <trkpt lat="65.26753" lon="21.31831">
        <ele>50.656632</ele>
        <time>2020-08-28T07:17:02.328Z</time>
      </trkpt>
      <trkpt lat="65.26748" lon="21.31768">
        <ele>50.44542</ele>
        <time>2020-08-28T07:17:06.387Z</time>
      </trkpt>
      <trkpt lat="65.26729" lon="21.31508">
        <ele>49.562745</ele>
        <time>2020-08-28T07:17:23.752Z</time>
      </trkpt>
      <trkpt lat="65.26712" lon="21.31305">
        <ele>49.452744</ele>
        <time>2020-08-28T07:17:38.422Z</time>
      </trkpt>
      <trkpt lat="65.26695" lon="21.3109">
        <ele>49.477299</ele>
        <time>2020-08-28T07:17:55.560Z</time>
      </trkpt>
      <trkpt lat="65.26683" lon="21.30943">
        <ele>49.75742</ele>
        <time>2020-08-28T07:18:07.902Z</time>
      </trkpt>
      <trkpt lat="65.2666" lon="21.3066">
        <ele>50.505192</ele>
        <time>2020-08-28T07:18:32.179Z</time>
      </trkpt>
      <trkpt lat="65.26655" lon="21.30602">
        <ele>50.589728</ele>
        <time>2020-08-28T07:18:37.007Z</time>
      </trkpt>
      <trkpt lat="65.26636" lon="21.30403">
        <ele>50.536348</ele>
        <time>2020-08-28T07:18:53.150Z</time>
      </trkpt>
      <trkpt lat="65.26591" lon="21.29867">
        <ele>49.246409</ele>
        <time>2020-08-28T07:19:30.391Z</time>
      </trkpt>
      <trkpt lat="65.2658" lon="21.29743">
        <ele>48.617455</ele>
        <time>2020-08-28T07:19:38.210Z</time>
      </trkpt>
      <trkpt lat="65.26576" lon="21.29709">
        <ele>48.349347</ele>
        <time>2020-08-28T07:19:40.385Z</time>
      </trkpt>
      <trkpt lat="65.26573" lon="21.29678">
        <ele>48.102025</ele>
        <time>2020-08-28T07:19:42.254Z</time>
      </trkpt>
      <trkpt lat="65.2656" lon="21.29516">
        <ele>46.833222</ele>
        <time>2020-08-28T07:19:52.010Z</time>
      </trkpt>
      <trkpt lat="65.26543" lon="21.29377">
        <ele>45.713943</ele>
        <time>2020-08-28T07:20:00.580Z</time>
      </trkpt>
      <trkpt lat="65.26529" lon="21.29272">
        <ele>44.891456</ele>
        <time>2020-08-28T07:20:07.169Z</time>
      </trkpt>
      <trkpt lat="65.2641" lon="21.29264">
        <ele>42.797464</ele>
        <time>2020-08-28T07:20:24.155Z</time>
      </trkpt>
      <trkpt lat="65.2637" lon="21.29278">
        <ele>42.233221</ele>
        <time>2020-08-28T07:20:30.114Z</time>
      </trkpt>
      <trkpt lat="65.26341" lon="21.293">
        <ele>41.926121</ele>
        <time>2020-08-28T07:20:34.550Z</time>
      </trkpt>
      <trkpt lat="65.26298" lon="21.29333">
        <ele>41.451687</ele>
        <time>2020-08-28T07:20:41.535Z</time>
      </trkpt>
      <trkpt lat="65.26204" lon="21.29396">
        <ele>40.749891</ele>
        <time>2020-08-28T07:20:56.776Z</time>
      </trkpt>
      <trkpt lat="65.26112" lon="21.29427">
        <ele>41.710035</ele>
        <time>2020-08-28T07:21:15.595Z</time>
      </trkpt>
      <trkpt lat="65.26071" lon="21.29424">
        <ele>42.132532</ele>
        <time>2020-08-28T07:21:25.000Z</time>
      </trkpt>
      <trkpt lat="65.26033" lon="21.29413">
        <ele>42.650995</ele>
        <time>2020-08-28T07:21:34.526Z</time>
      </trkpt>
      <trkpt lat="65.2586" lon="21.29345">
        <ele>47.490851</ele>
        <time>2020-08-28T07:22:22.722Z</time>
      </trkpt>
      <trkpt lat="65.25851" lon="21.29344">
        <ele>47.611376</ele>
        <time>2020-08-28T07:22:25.517Z</time>
      </trkpt>
      <trkpt lat="65.25801" lon="21.29343">
        <ele>48.300299</ele>
        <time>2020-08-28T07:22:37.346Z</time>
      </trkpt>
      <trkpt lat="65.25667" lon="21.29367">
        <ele>49.948478</ele>
        <time>2020-08-28T07:23:05.107Z</time>
      </trkpt>
      <trkpt lat="65.25506" lon="21.29461">
        <ele>50.209343</ele>
        <time>2020-08-28T07:23:34.651Z</time>
      </trkpt>
      <trkpt lat="65.25465" lon="21.29477">
        <ele>50.227976</ele>
        <time>2020-08-28T07:23:42.206Z</time>
      </trkpt>
      <trkpt lat="65.25395" lon="21.29481">
        <ele>50.259456</ele>
        <time>2020-08-28T07:23:54.949Z</time>
      </trkpt>
      <trkpt lat="65.25337" lon="21.29466">
        <ele>50.285919</ele>
        <time>2020-08-28T07:24:05.656Z</time>
      </trkpt>
      <trkpt lat="65.25026" lon="21.29312">
        <ele>50.136275</ele>
        <time>2020-08-28T07:25:01.694Z</time>
      </trkpt>
      <trkpt lat="65.2477" lon="21.29222">
        <ele>49.685591</ele>
        <time>2020-08-28T07:25:46.569Z</time>
      </trkpt>
      <trkpt lat="65.24556" lon="21.29187">
        <ele>49.236409</ele>
        <time>2020-08-28T07:26:23.142Z</time>
      </trkpt>
      <trkpt lat="65.24545" lon="21.29184">
        <ele>49.217562</ele>
        <time>2020-08-28T07:26:25.136Z</time>
      </trkpt>
      <trkpt lat="65.24354" lon="21.29148">
        <ele>49.100072</ele>
        <time>2020-08-28T07:26:58.905Z</time>
      </trkpt>
      <trkpt lat="65.24231" lon="21.29139">
        <ele>49.226741</ele>
        <time>2020-08-28T07:27:21.448Z</time>
      </trkpt>
      <trkpt lat="65.24188" lon="21.29136">
        <ele>49.324076</ele>
        <time>2020-08-28T07:27:29.366Z</time>
      </trkpt>
      <trkpt lat="65.23949" lon="21.2912">
        <ele>49.79992</ele>
        <time>2020-08-28T07:28:13.838Z</time>
      </trkpt>
      <trkpt lat="65.23833" lon="21.29132">
        <ele>49.789175</ele>
        <time>2020-08-28T07:28:34.633Z</time>
      </trkpt>
      <trkpt lat="65.23714" lon="21.29163">
        <ele>49.618859</ele>
        <time>2020-08-28T07:28:55.199Z</time>
      </trkpt>
      <trkpt lat="65.2355" lon="21.29238">
        <ele>49.312593</ele>
        <time>2020-08-28T07:29:23.967Z</time>
      </trkpt>
      <trkpt lat="65.23477" lon="21.29284">
        <ele>49.226243</ele>
        <time>2020-08-28T07:29:37.112Z</time>
      </trkpt>
      <trkpt lat="65.23353" lon="21.29396">
        <ele>49.072617</ele>
        <time>2020-08-28T07:30:00.406Z</time>
      </trkpt>
      <trkpt lat="65.23167" lon="21.29508">
        <ele>48.651928</ele>
        <time>2020-08-28T07:30:33.964Z</time>
      </trkpt>
      <trkpt lat="65.23048" lon="21.29544">
        <ele>48.026987</ele>
        <time>2020-08-28T07:30:53.903Z</time>
      </trkpt>
      <trkpt lat="65.2291" lon="21.29535">
        <ele>46.243145</ele>
        <time>2020-08-28T07:31:14.908Z</time>
      </trkpt>
      <trkpt lat="65.229" lon="21.29531">
        <ele>46.10887</ele>
        <time>2020-08-28T07:31:16.175Z</time>
      </trkpt>
      <trkpt lat="65.22886" lon="21.29526">
        <ele>45.89506</ele>
        <time>2020-08-28T07:31:18.278Z</time>
      </trkpt>
      <trkpt lat="65.22858" lon="21.29516">
        <ele>45.487819</ele>
        <time>2020-08-28T07:31:22.262Z</time>
      </trkpt>
      <trkpt lat="65.22823" lon="21.295">
        <ele>44.837247</ele>
        <time>2020-08-28T07:31:27.350Z</time>
      </trkpt>
      <trkpt lat="65.22819" lon="21.29499">
        <ele>44.770493</ele>
        <time>2020-08-28T07:31:27.770Z</time>
      </trkpt>
      <trkpt lat="65.22776" lon="21.29474">
        <ele>43.857048</ele>
        <time>2020-08-28T07:31:34.030Z</time>
      </trkpt>
      <trkpt lat="65.2276" lon="21.2946">
        <ele>43.515127</ele>
        <time>2020-08-28T07:31:36.325Z</time>
      </trkpt>
      <trkpt lat="65.22696" lon="21.29406">
        <ele>42.154019</ele>
        <time>2020-08-28T07:31:45.784Z</time>
      </trkpt>
      <trkpt lat="65.22666" lon="21.2938">
        <ele>41.584533</ele>
        <time>2020-08-28T07:31:50.359Z</time>
      </trkpt>
      <trkpt lat="65.22609" lon="21.29302">
        <ele>41.085327</ele>
        <time>2020-08-28T07:32:00.334Z</time>
      </trkpt>
      <trkpt lat="65.22527" lon="21.29174">
        <ele>40.347409</ele>
        <time>2020-08-28T07:32:16.580Z</time>
      </trkpt>
      <trkpt lat="65.22422" lon="21.28977">
        <ele>40.704785</ele>
        <time>2020-08-28T07:32:41.954Z</time>
      </trkpt>
      <trkpt lat="65.22362" lon="21.28829">
        <ele>40.932767</ele>
        <time>2020-08-28T07:32:58.964Z</time>
      </trkpt>
      <trkpt lat="65.22344" lon="21.2878">
        <ele>40.962756</ele>
        <time>2020-08-28T07:33:04.236Z</time>
      </trkpt>
      <trkpt lat="65.22328" lon="21.28737">
        <ele>40.988321</ele>
        <time>2020-08-28T07:33:08.582Z</time>
      </trkpt>
      <trkpt lat="65.22302" lon="21.28661">
        <ele>41.032971</ele>
        <time>2020-08-28T07:33:16.008Z</time>
      </trkpt>
      <trkpt lat="65.22288" lon="21.28608">
        <ele>41.061656</ele>
        <time>2020-08-28T07:33:20.668Z</time>
      </trkpt>
      <trkpt lat="65.22259" lon="21.28509">
        <ele>41.005551</ele>
        <time>2020-08-28T07:33:29.443Z</time>
      </trkpt>
      <trkpt lat="65.22255" lon="21.28494">
        <ele>40.97282</ele>
        <time>2020-08-28T07:33:30.626Z</time>
      </trkpt>
      <trkpt lat="65.22243" lon="21.28442">
        <ele>40.861943</ele>
        <time>2020-08-28T07:33:34.773Z</time>
      </trkpt>
      <trkpt lat="65.2221" lon="21.28301">
        <ele>40.556823</ele>
        <time>2020-08-28T07:33:45.847Z</time>
      </trkpt>
      <trkpt lat="65.22154" lon="21.27963">
        <ele>40.063148</ele>
        <time>2020-08-28T07:34:10.840Z</time>
      </trkpt>
      <trkpt lat="65.22143" lon="21.27881">
        <ele>39.976297</ele>
        <time>2020-08-28T07:34:17.066Z</time>
      </trkpt>
      <trkpt lat="65.22123" lon="21.27734">
        <ele>39.957612</ele>
        <time>2020-08-28T07:34:28.521Z</time>
      </trkpt>
      <trkpt lat="65.21902" lon="21.25973">
        <ele>47.683933</ele>
        <time>2020-08-28T07:37:07.397Z</time>
      </trkpt>
      <trkpt lat="65.21848" lon="21.25622">
        <ele>52.793528</ele>
        <time>2020-08-28T07:37:55.928Z</time>
      </trkpt>
      <trkpt lat="65.21809" lon="21.25422">
        <ele>56.695331</ele>
        <time>2020-08-28T07:38:26.152Z</time>
      </trkpt>
      <trkpt lat="65.21587" lon="21.24387">
        <ele>74.570603</ele>
        <time>2020-08-28T07:40:50.449Z</time>
      </trkpt>
      <trkpt lat="65.21463" lon="21.23837">
        <ele>82.503238</ele>
        <time>2020-08-28T07:42:01.774Z</time>
      </trkpt>
      <trkpt lat="65.21313" lon="21.23154">
        <ele>91.151978</ele>
        <time>2020-08-28T07:43:26.550Z</time>
      </trkpt>
      <trkpt lat="65.21256" lon="21.22891">
        <ele>94.771193</ele>
        <time>2020-08-28T07:44:00.538Z</time>
      </trkpt>
      <trkpt lat="65.21177" lon="21.22508">
        <ele>99.610377</ele>
        <time>2020-08-28T07:44:50.492Z</time>
      </trkpt>
      <trkpt lat="65.20691" lon="21.20293">
        <ele>121.715161</ele>
        <time>2020-08-28T07:49:07.399Z</time>
      </trkpt>
      <trkpt lat="65.2059" lon="21.19837">
        <ele>124.413217</ele>
        <time>2020-08-28T07:49:53.080Z</time>
      </trkpt>
      <trkpt lat="65.20529" lon="21.19549">
        <ele>126.253653</ele>
        <time>2020-08-28T07:50:22.239Z</time>
      </trkpt>
      <trkpt lat="65.20269" lon="21.18366">
        <ele>137.104101</ele>
        <time>2020-08-28T07:52:40.862Z</time>
      </trkpt>
      <trkpt lat="65.20243" lon="21.18166">
        <ele>137.74173</ele>
        <time>2020-08-28T07:52:57.726Z</time>
      </trkpt>
      <trkpt lat="65.20238" lon="21.17991">
        <ele>137.832693</ele>
        <time>2020-08-28T07:53:10.044Z</time>
      </trkpt>
      <trkpt lat="65.20247" lon="21.17665">
        <ele>136.9658</ele>
        <time>2020-08-28T07:53:31.819Z</time>
      </trkpt>
      <trkpt lat="65.20247" lon="21.17476">
        <ele>136.615177</ele>
        <time>2020-08-28T07:53:44.693Z</time>
      </trkpt>
      <trkpt lat="65.20243" lon="21.17323">
        <ele>136.34764</ele>
        <time>2020-08-28T07:53:55.375Z</time>
      </trkpt>
      <trkpt lat="65.20217" lon="21.16977">
        <ele>136.256776</ele>
        <time>2020-08-28T07:54:21.308Z</time>
      </trkpt>
      <trkpt lat="65.20075" lon="21.15557">
        <ele>138.416143</ele>
        <time>2020-08-28T07:56:18.917Z</time>
      </trkpt>
      <trkpt lat="65.19866" lon="21.135">
        <ele>136.073065</ele>
        <time>2020-08-28T07:58:49.367Z</time>
      </trkpt>
      <trkpt lat="65.1975" lon="21.12315">
        <ele>139.224104</ele>
        <time>2020-08-28T08:00:30.941Z</time>
      </trkpt>
      <trkpt lat="65.1969" lon="21.11701">
        <ele>141.84981</ele>
        <time>2020-08-28T08:01:28.330Z</time>
      </trkpt>
      <trkpt lat="65.19585" lon="21.10632">
        <ele>143.035896</ele>
        <time>2020-08-28T08:02:55.541Z</time>
      </trkpt>
      <trkpt lat="65.19538" lon="21.10176">
        <ele>140.653869</ele>
        <time>2020-08-28T08:03:24.091Z</time>
      </trkpt>
      <trkpt lat="65.19513" lon="21.09932">
        <ele>139.971999</ele>
        <time>2020-08-28T08:03:40.710Z</time>
      </trkpt>
      <trkpt lat="65.19499" lon="21.0981">
        <ele>139.756335</ele>
        <time>2020-08-28T08:03:50.172Z</time>
      </trkpt>
      <trkpt lat="65.19464" lon="21.09593">
        <ele>139.309821</ele>
        <time>2020-08-28T08:04:08.151Z</time>
      </trkpt>
      <trkpt lat="65.19408" lon="21.09335">
        <ele>138.703596</ele>
        <time>2020-08-28T08:04:27.945Z</time>
      </trkpt>
      <trkpt lat="65.19382" lon="21.09224">
        <ele>137.790606</ele>
        <time>2020-08-28T08:04:35.883Z</time>
      </trkpt>
      <trkpt lat="65.1936" lon="21.09124">
        <ele>136.898259</ele>
        <time>2020-08-28T08:04:42.755Z</time>
      </trkpt>
      <trkpt lat="65.19271" lon="21.08754">
        <ele>132.862986</ele>
        <time>2020-08-28T08:05:07.186Z</time>
      </trkpt>
      <trkpt lat="65.19116" lon="21.08092">
        <ele>124.75997</ele>
        <time>2020-08-28T08:05:49.852Z</time>
      </trkpt>
      <trkpt lat="65.18982" lon="21.07528">
        <ele>120.753715</ele>
        <time>2020-08-28T08:06:30.522Z</time>
      </trkpt>
      <trkpt lat="65.18844" lon="21.06943">
        <ele>118.758712</ele>
        <time>2020-08-28T08:07:16.051Z</time>
      </trkpt>
      <trkpt lat="65.18796" lon="21.06781">
        <ele>118.29814</ele>
        <time>2020-08-28T08:07:29.724Z</time>
      </trkpt>
      <trkpt lat="65.1874" lon="21.06614">
        <ele>117.928485</ele>
        <time>2020-08-28T08:07:44.592Z</time>
      </trkpt>
      <trkpt lat="65.18651" lon="21.06386">
        <ele>117.551395</ele>
        <time>2020-08-28T08:08:06.566Z</time>
      </trkpt>
      <trkpt lat="65.18581" lon="21.06204">
        <ele>117.887863</ele>
        <time>2020-08-28T08:08:25.899Z</time>
      </trkpt>
      <trkpt lat="65.18549" lon="21.0612">
        <ele>118.044333</ele>
        <time>2020-08-28T08:08:35.370Z</time>
      </trkpt>
      <trkpt lat="65.18539" lon="21.06101">
        <ele>118.083905</ele>
        <time>2020-08-28T08:08:37.836Z</time>
      </trkpt>
      <trkpt lat="65.18486" lon="21.05964">
        <ele>119.479978</ele>
        <time>2020-08-28T08:08:53.947Z</time>
      </trkpt>
      <trkpt lat="65.18477" lon="21.05943">
        <ele>119.720685</ele>
        <time>2020-08-28T08:08:56.588Z</time>
      </trkpt>
      <trkpt lat="65.18447" lon="21.05866">
        <ele>120.5647</ele>
        <time>2020-08-28T08:09:06.378Z</time>
      </trkpt>
      <trkpt lat="65.18382" lon="21.05633">
        <ele>125.127765</ele>
        <time>2020-08-28T08:09:42.090Z</time>
      </trkpt>
      <trkpt lat="65.1836" lon="21.05538">
        <ele>127.602231</ele>
        <time>2020-08-28T08:09:58.996Z</time>
      </trkpt>
      <trkpt lat="65.18327" lon="21.05411">
        <ele>130.996837</ele>
        <time>2020-08-28T08:10:23.421Z</time>
      </trkpt>
      <trkpt lat="65.18297" lon="21.0531">
        <ele>133.948851</ele>
        <time>2020-08-28T08:10:44.432Z</time>
      </trkpt>
      <trkpt lat="65.18266" lon="21.05227">
        <ele>136.59302</ele>
        <time>2020-08-28T08:11:02.935Z</time>
      </trkpt>
      <trkpt lat="65.18224" lon="21.05134">
        <ele>139.85715</ele>
        <time>2020-08-28T08:11:23.384Z</time>
      </trkpt>
      <trkpt lat="65.18163" lon="21.05033">
        <ele>142.744365</ele>
        <time>2020-08-28T08:11:44.160Z</time>
      </trkpt>
      <trkpt lat="65.18036" lon="21.04923">
        <ele>146.460039</ele>
        <time>2020-08-28T08:12:18.598Z</time>
      </trkpt>
      <trkpt lat="65.17903" lon="21.04841">
        <ele>149.546055</ele>
        <time>2020-08-28T08:12:53.048Z</time>
      </trkpt>
      <trkpt lat="65.1781" lon="21.04718">
        <ele>151.802027</ele>
        <time>2020-08-28T08:13:19.440Z</time>
      </trkpt>
      <trkpt lat="65.17765" lon="21.04675">
        <ele>152.777288</ele>
        <time>2020-08-28T08:13:30.997Z</time>
      </trkpt>
      <trkpt lat="65.17725" lon="21.04641">
        <ele>153.627421</ele>
        <time>2020-08-28T08:13:41.171Z</time>
      </trkpt>
      <trkpt lat="65.17672" lon="21.0462">
        <ele>154.819317</ele>
        <time>2020-08-28T08:13:54.281Z</time>
      </trkpt>
      <trkpt lat="65.17624" lon="21.04613">
        <ele>155.970603</ele>
        <time>2020-08-28T08:14:06.112Z</time>
      </trkpt>
      <trkpt lat="65.17571" lon="21.04611">
        <ele>157.238729</ele>
        <time>2020-08-28T08:14:19.596Z</time>
      </trkpt>
      <trkpt lat="65.17512" lon="21.0462">
        <ele>158.713419</ele>
        <time>2020-08-28T08:14:35.319Z</time>
      </trkpt>
      <trkpt lat="65.17457" lon="21.046">
        <ele>160.396028</ele>
        <time>2020-08-28T08:14:50.709Z</time>
      </trkpt>
      <trkpt lat="65.17416" lon="21.04563">
        <ele>161.741526</ele>
        <time>2020-08-28T08:15:03.140Z</time>
      </trkpt>
      <trkpt lat="65.17331" lon="21.04445">
        <ele>164.553516</ele>
        <time>2020-08-28T08:15:30.724Z</time>
      </trkpt>
      <trkpt lat="65.17277" lon="21.04389">
        <ele>165.939527</ele>
        <time>2020-08-28T08:15:46.490Z</time>
      </trkpt>
      <trkpt lat="65.17184" lon="21.04352">
        <ele>168.139893</ele>
        <time>2020-08-28T08:16:09.351Z</time>
      </trkpt>
      <trkpt lat="65.17095" lon="21.04361">
        <ele>168.589983</ele>
        <time>2020-08-28T08:16:28.009Z</time>
      </trkpt>
      <trkpt lat="65.16981" lon="21.04433">
        <ele>168.779859</ele>
        <time>2020-08-28T08:16:48.563Z</time>
      </trkpt>
      <trkpt lat="65.16899" lon="21.04462">
        <ele>167.998791</ele>
        <time>2020-08-28T08:17:01.590Z</time>
      </trkpt>
      <trkpt lat="65.16694" lon="21.0449">
        <ele>165.040617</ele>
        <time>2020-08-28T08:17:31.827Z</time>
      </trkpt>
      <trkpt lat="65.16622" lon="21.0447">
        <ele>163.425201</ele>
        <time>2020-08-28T08:17:41.952Z</time>
      </trkpt>
      <trkpt lat="65.16588" lon="21.04447">
        <ele>162.322803</ele>
        <time>2020-08-28T08:17:46.870Z</time>
      </trkpt>
      <trkpt lat="65.16467" lon="21.0433">
        <ele>158.096556</ele>
        <time>2020-08-28T08:18:03.819Z</time>
      </trkpt>
      <trkpt lat="65.16251" lon="21.04133">
        <ele>147.579912</ele>
        <time>2020-08-28T08:18:31.999Z</time>
      </trkpt>
      <trkpt lat="65.16155" lon="21.04046">
        <ele>142.931647</ele>
        <time>2020-08-28T08:18:44.528Z</time>
      </trkpt>
      <trkpt lat="65.15714" lon="21.03561">
        <ele>127.701917</ele>
        <time>2020-08-28T08:19:48.243Z</time>
      </trkpt>
      <trkpt lat="65.15636" lon="21.03481">
        <ele>125.607315</ele>
        <time>2020-08-28T08:20:00.412Z</time>
      </trkpt>
      <trkpt lat="65.15611" lon="21.03447">
        <ele>125.032183</ele>
        <time>2020-08-28T08:20:04.659Z</time>
      </trkpt>
      <trkpt lat="65.15569" lon="21.03403">
        <ele>124.143901</ele>
        <time>2020-08-28T08:20:11.300Z</time>
      </trkpt>
      <trkpt lat="65.15516" lon="21.03368">
        <ele>123.060786</ele>
        <time>2020-08-28T08:20:19.162Z</time>
      </trkpt>
      <trkpt lat="65.15444" lon="21.03351">
        <ele>121.268727</ele>
        <time>2020-08-28T08:20:28.972Z</time>
      </trkpt>
      <trkpt lat="65.15333" lon="21.03381">
        <ele>118.096774</ele>
        <time>2020-08-28T08:20:43.777Z</time>
      </trkpt>
      <trkpt lat="65.15279" lon="21.03381">
        <ele>116.4562</ele>
        <time>2020-08-28T08:20:50.840Z</time>
      </trkpt>
      <trkpt lat="65.15245" lon="21.03364">
        <ele>115.320837</ele>
        <time>2020-08-28T08:20:55.442Z</time>
      </trkpt>
      <trkpt lat="65.15204" lon="21.03322">
        <ele>113.875891</ele>
        <time>2020-08-28T08:21:01.296Z</time>
      </trkpt>
      <trkpt lat="65.15173" lon="21.03265">
        <ele>112.628301</ele>
        <time>2020-08-28T08:21:06.346Z</time>
      </trkpt>
      <trkpt lat="65.15139" lon="21.03188">
        <ele>111.109236</ele>
        <time>2020-08-28T08:21:12.462Z</time>
      </trkpt>
      <trkpt lat="65.15064" lon="21.02955">
        <ele>107.088216</ele>
        <time>2020-08-28T08:21:28.519Z</time>
      </trkpt>
      <trkpt lat="65.15033" lon="21.02883">
        <ele>105.681609</ele>
        <time>2020-08-28T08:21:34.175Z</time>
      </trkpt>
      <trkpt lat="65.15009" lon="21.02847">
        <ele>104.923573</ele>
        <time>2020-08-28T08:21:37.944Z</time>
      </trkpt>
      <trkpt lat="65.14972" lon="21.02815">
        <ele>103.890434</ele>
        <time>2020-08-28T08:21:43.102Z</time>
      </trkpt>
      <trkpt lat="65.14936" lon="21.02802">
        <ele>102.911098</ele>
        <time>2020-08-28T08:21:48.036Z</time>
      </trkpt>
      <trkpt lat="65.14895" lon="21.02803">
        <ele>101.836131</ele>
        <time>2020-08-28T08:21:53.538Z</time>
      </trkpt>
      <trkpt lat="65.14791" lon="21.0284">
        <ele>99.619438</ele>
        <time>2020-08-28T08:22:08.423Z</time>
      </trkpt>
      <trkpt lat="65.14748" lon="21.02841">
        <ele>98.837203</ele>
        <time>2020-08-28T08:22:14.617Z</time>
      </trkpt>
      <trkpt lat="65.14699" lon="21.02827">
        <ele>97.940127</ele>
        <time>2020-08-28T08:22:21.793Z</time>
      </trkpt>
      <trkpt lat="65.14159" lon="21.02471">
        <ele>88.891249</ele>
        <time>2020-08-28T08:23:43.583Z</time>
      </trkpt>
      <trkpt lat="65.13935" lon="21.02332">
        <ele>85.088566</ele>
        <time>2020-08-28T08:24:17.198Z</time>
      </trkpt>
      <trkpt lat="65.13894" lon="21.02308">
        <ele>84.397729</ele>
        <time>2020-08-28T08:24:23.317Z</time>
      </trkpt>
      <trkpt lat="65.13788" lon="21.02238">
        <ele>82.414951</ele>
        <time>2020-08-28T08:24:39.394Z</time>
      </trkpt>
      <trkpt lat="65.13757" lon="21.02209">
        <ele>81.69516</ele>
        <time>2020-08-28T08:24:44.116Z</time>
      </trkpt>
      <trkpt lat="65.13681" lon="21.02076">
        <ele>79.645242</ele>
        <time>2020-08-28T08:24:57.199Z</time>
      </trkpt>
      <trkpt lat="65.13513" lon="21.01687">
        <ele>73.742613</ele>
        <time>2020-08-28T08:25:28.421Z</time>
      </trkpt>
      <trkpt lat="65.13466" lon="21.01576">
        <ele>72.935268</ele>
        <time>2020-08-28T08:25:38.089Z</time>
      </trkpt>
      <trkpt lat="65.13443" lon="21.0152">
        <ele>72.536283</ele>
        <time>2020-08-28T08:25:43.215Z</time>
      </trkpt>
      <trkpt lat="65.13429" lon="21.01487">
        <ele>72.295122</ele>
        <time>2020-08-28T08:25:46.549Z</time>
      </trkpt>
      <trkpt lat="65.13354" lon="21.01304">
        <ele>72.983529</ele>
        <time>2020-08-28T08:26:07.588Z</time>
      </trkpt>
      <trkpt lat="65.13315" lon="21.01249">
        <ele>73.602597</ele>
        <time>2020-08-28T08:26:18.559Z</time>
      </trkpt>
      <trkpt lat="65.13283" lon="21.01236">
        <ele>74.038164</ele>
        <time>2020-08-28T08:26:26.325Z</time>
      </trkpt>
      <trkpt lat="65.13255" lon="21.01226">
        <ele>74.45925</ele>
        <time>2020-08-28T08:26:33.370Z</time>
      </trkpt>
      <trkpt lat="65.13229" lon="21.01224">
        <ele>75.071098</ele>
        <time>2020-08-28T08:26:39.997Z</time>
      </trkpt>
      <trkpt lat="65.12875" lon="21.0144">
        <ele>83.287963</ele>
        <time>2020-08-28T08:28:13.067Z</time>
      </trkpt>
      <trkpt lat="65.12461" lon="21.01687">
        <ele>88.904084</ele>
        <time>2020-08-28T08:29:47.418Z</time>
      </trkpt>
      <trkpt lat="65.12429" lon="21.01711">
        <ele>89.189565</ele>
        <time>2020-08-28T08:29:54.008Z</time>
      </trkpt>
      <trkpt lat="65.11763" lon="21.02376">
        <ele>89.597316</ele>
        <time>2020-08-28T08:32:02.912Z</time>
      </trkpt>
      <trkpt lat="65.11713" lon="21.02453">
        <ele>89.592639</ele>
        <time>2020-08-28T08:32:13.631Z</time>
      </trkpt>
      <trkpt lat="65.11417" lon="21.03096">
        <ele>89.367562</ele>
        <time>2020-08-28T08:33:24.635Z</time>
      </trkpt>
      <trkpt lat="65.11167" lon="21.03674">
        <ele>88.074254</ele>
        <time>2020-08-28T08:34:23.784Z</time>
      </trkpt>
      <trkpt lat="65.10952" lon="21.0415">
        <ele>85.84942</ele>
        <time>2020-08-28T08:35:09.737Z</time>
      </trkpt>
      <trkpt lat="65.10651" lon="21.04824">
        <ele>85.88151</ele>
        <time>2020-08-28T08:36:22.815Z</time>
      </trkpt>
      <trkpt lat="65.10585" lon="21.04936">
        <ele>86.67947</ele>
        <time>2020-08-28T08:36:40.620Z</time>
      </trkpt>
      <trkpt lat="65.10483" lon="21.05012">
        <ele>87.697757</ele>
        <time>2020-08-28T08:37:04.782Z</time>
      </trkpt>
      <trkpt lat="65.10232" lon="21.05172">
        <ele>89.263036</ele>
        <time>2020-08-28T08:37:56.899Z</time>
      </trkpt>
      <trkpt lat="65.10139" lon="21.05266">
        <ele>88.806082</ele>
        <time>2020-08-28T08:38:13.312Z</time>
      </trkpt>
      <trkpt lat="65.10115" lon="21.05311">
        <ele>88.409989</ele>
        <time>2020-08-28T08:38:17.942Z</time>
      </trkpt>
      <trkpt lat="65.09941" lon="21.05769">
        <ele>84.746436</ele>
        <time>2020-08-28T08:38:55.401Z</time>
      </trkpt>
      <trkpt lat="65.09739" lon="21.06319">
        <ele>84.167243</ele>
        <time>2020-08-28T08:39:47.388Z</time>
      </trkpt>
      <trkpt lat="65.09707" lon="21.06428">
        <ele>84.45202</ele>
        <time>2020-08-28T08:39:59.635Z</time>
      </trkpt>
      <trkpt lat="65.09688" lon="21.06565">
        <ele>85.616452</ele>
        <time>2020-08-28T08:40:14.163Z</time>
      </trkpt>
      <trkpt lat="65.09641" lon="21.07259">
        <ele>93.239397</ele>
        <time>2020-08-28T08:41:34.250Z</time>
      </trkpt>
      <trkpt lat="65.09624" lon="21.07415">
        <ele>94.107624</ele>
        <time>2020-08-28T08:41:49.633Z</time>
      </trkpt>
      <trkpt lat="65.09604" lon="21.07523">
        <ele>94.425959</ele>
        <time>2020-08-28T08:41:59.650Z</time>
      </trkpt>
      <trkpt lat="65.09553" lon="21.07747">
        <ele>94.8781</ele>
        <time>2020-08-28T08:42:18.503Z</time>
      </trkpt>
      <trkpt lat="65.0928" lon="21.08851">
        <ele>92.763703</ele>
        <time>2020-08-28T08:43:48.062Z</time>
      </trkpt>
      <trkpt lat="65.09239" lon="21.0897">
        <ele>93.006475</ele>
        <time>2020-08-28T08:43:59.744Z</time>
      </trkpt>
      <trkpt lat="65.08727" lon="21.09983">
        <ele>94.837982</ele>
        <time>2020-08-28T08:46:08.669Z</time>
      </trkpt>
      <trkpt lat="65.07502" lon="21.12038">
        <ele>72.091881</ele>
        <time>2020-08-28T08:49:47.391Z</time>
      </trkpt>
      <trkpt lat="65.0683" lon="21.13165">
        <ele>67.525879</ele>
        <time>2020-08-28T08:52:03.055Z</time>
      </trkpt>
      <trkpt lat="65.06732" lon="21.1329">
        <ele>67.435987</ele>
        <time>2020-08-28T08:52:22.231Z</time>
      </trkpt>
      <trkpt lat="65.06677" lon="21.1334">
        <ele>67.459398</ele>
        <time>2020-08-28T08:52:33.045Z</time>
      </trkpt>
      <trkpt lat="65.05611" lon="21.14117">
        <ele>74.954611</ele>
        <time>2020-08-28T08:56:16.941Z</time>
      </trkpt>
      <trkpt lat="65.05549" lon="21.14158">
        <ele>75.204114</ele>
        <time>2020-08-28T08:56:29.763Z</time>
      </trkpt>
      <trkpt lat="65.05451" lon="21.14205">
        <ele>75.206202</ele>
        <time>2020-08-28T08:56:47.872Z</time>
      </trkpt>
      <trkpt lat="65.05374" lon="21.14224">
        <ele>74.50278</ele>
        <time>2020-08-28T08:57:00.304Z</time>
      </trkpt>
      <trkpt lat="65.04434" lon="21.14344">
        <ele>60.34515</ele>
        <time>2020-08-28T08:59:17.789Z</time>
      </trkpt>
      <trkpt lat="65.04353" lon="21.14342">
        <ele>59.473674</ele>
        <time>2020-08-28T08:59:30.473Z</time>
      </trkpt>
      <trkpt lat="65.04146" lon="21.14237">
        <ele>57.711594</ele>
        <time>2020-08-28T09:00:04.027Z</time>
      </trkpt>
      <trkpt lat="65.04088" lon="21.14229">
        <ele>57.252368</ele>
        <time>2020-08-28T09:00:13.191Z</time>
      </trkpt>
      <trkpt lat="65.04003" lon="21.14241">
        <ele>56.808867</ele>
        <time>2020-08-28T09:00:26.759Z</time>
      </trkpt>
      <trkpt lat="65.03948" lon="21.14279">
        <ele>56.639527</ele>
        <time>2020-08-28T09:00:36.346Z</time>
      </trkpt>
      <trkpt lat="65.03888" lon="21.1435">
        <ele>56.443971</ele>
        <time>2020-08-28T09:00:47.995Z</time>
      </trkpt>
      <trkpt lat="65.03785" lon="21.14499">
        <ele>57.442346</ele>
        <time>2020-08-28T09:01:12.076Z</time>
      </trkpt>
      <trkpt lat="65.03742" lon="21.146">
        <ele>58.004758</ele>
        <time>2020-08-28T09:01:25.525Z</time>
      </trkpt>
      <trkpt lat="65.03584" lon="21.15034">
        <ele>61.34779</ele>
        <time>2020-08-28T09:02:21.580Z</time>
      </trkpt>
      <trkpt lat="65.03498" lon="21.15229">
        <ele>62.184844</ele>
        <time>2020-08-28T09:02:44.543Z</time>
      </trkpt>
      <trkpt lat="65.03377" lon="21.15462">
        <ele>61.995176</ele>
        <time>2020-08-28T09:03:11.024Z</time>
      </trkpt>
      <trkpt lat="65.03338" lon="21.15513">
        <ele>61.965062</ele>
        <time>2020-08-28T09:03:18.847Z</time>
      </trkpt>
      <trkpt lat="65.03304" lon="21.15545">
        <ele>62.027732</ele>
        <time>2020-08-28T09:03:25.486Z</time>
      </trkpt>
      <trkpt lat="65.03271" lon="21.15562">
        <ele>62.084495</ele>
        <time>2020-08-28T09:03:31.607Z</time>
      </trkpt>
      <trkpt lat="65.03227" lon="21.15556">
        <ele>62.158819</ele>
        <time>2020-08-28T09:03:39.789Z</time>
      </trkpt>
      <trkpt lat="65.03165" lon="21.15521">
        <ele>62.277053</ele>
        <time>2020-08-28T09:03:51.865Z</time>
      </trkpt>
      <trkpt lat="65.03118" lon="21.15478">
        <ele>62.404751</ele>
        <time>2020-08-28T09:04:01.203Z</time>
      </trkpt>
      <trkpt lat="65.03065" lon="21.15413">
        <ele>62.55945</ele>
        <time>2020-08-28T09:04:12.340Z</time>
      </trkpt>
      <trkpt lat="65.02987" lon="21.15294">
        <ele>62.878472</ele>
        <time>2020-08-28T09:04:29.686Z</time>
      </trkpt>
      <trkpt lat="65.02948" lon="21.15272">
        <ele>63.078412</ele>
        <time>2020-08-28T09:04:37.346Z</time>
      </trkpt>
      <trkpt lat="65.02492" lon="21.15301">
        <ele>65.145352</ele>
        <time>2020-08-28T09:06:06.630Z</time>
      </trkpt>
      <trkpt lat="65.01777" lon="21.15363">
        <ele>62.135795</ele>
        <time>2020-08-28T09:08:05.122Z</time>
      </trkpt>
      <trkpt lat="65.01744" lon="21.15361">
        <ele>62.016985</ele>
        <time>2020-08-28T09:08:10.665Z</time>
      </trkpt>
      <trkpt lat="65.01636" lon="21.15345">
        <ele>61.69192</ele>
        <time>2020-08-28T09:08:28.959Z</time>
      </trkpt>
      <trkpt lat="65.01072" lon="21.15096">
        <ele>60.774961</ele>
        <time>2020-08-28T09:10:08.932Z</time>
      </trkpt>
      <trkpt lat="65.00783" lon="21.14832">
        <ele>59.975726</ele>
        <time>2020-08-28T09:11:01.991Z</time>
      </trkpt>
      <trkpt lat="65.00556" lon="21.14704">
        <ele>58.538864</ele>
        <time>2020-08-28T09:11:40.327Z</time>
      </trkpt>
      <trkpt lat="65.00272" lon="21.1462">
        <ele>54.243223</ele>
        <time>2020-08-28T09:12:21.385Z</time>
      </trkpt>
      <trkpt lat="65.00227" lon="21.14615">
        <ele>53.696113</ele>
        <time>2020-08-28T09:12:28.171Z</time>
      </trkpt>
      <trkpt lat="65.00192" lon="21.14634">
        <ele>53.255319</ele>
        <time>2020-08-28T09:12:33.897Z</time>
      </trkpt>
      <trkpt lat="64.99958" lon="21.15014">
        <ele>53.886258</ele>
        <time>2020-08-28T09:13:27.913Z</time>
      </trkpt>
      <trkpt lat="64.998" lon="21.15251">
        <ele>54.143409</ele>
        <time>2020-08-28T09:14:03.067Z</time>
      </trkpt>
      <trkpt lat="64.99731" lon="21.15374">
        <ele>54.034844</ele>
        <time>2020-08-28T09:14:17.544Z</time>
      </trkpt>
      <trkpt lat="64.99566" lon="21.15821">
        <ele>51.909326</ele>
        <time>2020-08-28T09:14:56.641Z</time>
      </trkpt>
      <trkpt lat="64.99507" lon="21.15947">
        <ele>51.259156</ele>
        <time>2020-08-28T09:15:09.180Z</time>
      </trkpt>
      <trkpt lat="64.99428" lon="21.1608">
        <ele>50.593124</ele>
        <time>2020-08-28T09:15:24.955Z</time>
      </trkpt>
      <trkpt lat="64.99385" lon="21.16154">
        <ele>50.244923</ele>
        <time>2020-08-28T09:15:33.667Z</time>
      </trkpt>
      <trkpt lat="64.99356" lon="21.16192">
        <ele>50.029366</ele>
        <time>2020-08-28T09:15:39.036Z</time>
      </trkpt>
      <trkpt lat="64.98919" lon="21.16515">
        <ele>46.193344</ele>
        <time>2020-08-28T09:16:51.316Z</time>
      </trkpt>
      <trkpt lat="64.98878" lon="21.16567">
        <ele>45.792117</ele>
        <time>2020-08-28T09:16:58.739Z</time>
      </trkpt>
      <trkpt lat="64.98779" lon="21.1675">
        <ele>44.455019</ele>
        <time>2020-08-28T09:17:18.214Z</time>
      </trkpt>
      <trkpt lat="64.98551" lon="21.17145">
        <ele>40.905678</ele>
        <time>2020-08-28T09:18:00.407Z</time>
      </trkpt>
      <trkpt lat="64.98525" lon="21.17187">
        <ele>40.813617</ele>
        <time>2020-08-28T09:18:05.293Z</time>
      </trkpt>
      <trkpt lat="64.98497" lon="21.17214">
        <ele>40.739551</ele>
        <time>2020-08-28T09:18:10.049Z</time>
      </trkpt>
      <trkpt lat="64.97792" lon="21.17745">
        <ele>38.744103</ele>
        <time>2020-08-28T09:20:18.913Z</time>
      </trkpt>
      <trkpt lat="64.97541" lon="21.17902">
        <ele>35.94602</ele>
        <time>2020-08-28T09:20:58.428Z</time>
      </trkpt>
      <trkpt lat="64.97512" lon="21.17919">
        <ele>35.456633</ele>
        <time>2020-08-28T09:21:02.685Z</time>
      </trkpt>
      <trkpt lat="64.9748" lon="21.17922">
        <ele>34.721063</ele>
        <time>2020-08-28T09:21:07.313Z</time>
      </trkpt>
      <trkpt lat="64.96871" lon="21.17911">
        <ele>21.762295</ele>
        <time>2020-08-28T09:22:31.137Z</time>
      </trkpt>
      <trkpt lat="64.965" lon="21.17811">
        <ele>19.814356</ele>
        <time>2020-08-28T09:23:34.521Z</time>
      </trkpt>
      <trkpt lat="64.96247" lon="21.17735">
        <ele>19.538184</ele>
        <time>2020-08-28T09:24:19.656Z</time>
      </trkpt>
      <trkpt lat="64.96154" lon="21.17713">
        <ele>19.392337</ele>
        <time>2020-08-28T09:24:35.642Z</time>
      </trkpt>
      <trkpt lat="64.96142" lon="21.17771">
        <ele>19.350453</ele>
        <time>2020-08-28T09:24:40.206Z</time>
      </trkpt>
      <trkpt lat="64.96001" lon="21.18419">
        <ele>19.354136</ele>
        <time>2020-08-28T09:25:34.973Z</time>
      </trkpt>
      <trkpt lat="64.95976" lon="21.18564">
        <ele>19.44582</ele>
        <time>2020-08-28T09:25:47.478Z</time>
      </trkpt>
      <trkpt lat="64.95973" lon="21.18587">
        <ele>19.459548</ele>
        <time>2020-08-28T09:25:49.441Z</time>
      </trkpt>
      <trkpt lat="64.9597" lon="21.18627">
        <ele>19.488155</ele>
        <time>2020-08-28T09:25:52.682Z</time>
      </trkpt>
      <trkpt lat="64.95966" lon="21.18729">
        <ele>19.598675</ele>
        <time>2020-08-28T09:26:00.871Z</time>
      </trkpt>
      <trkpt lat="64.95966" lon="21.18756">
        <ele>19.627182</ele>
        <time>2020-08-28T09:26:03.087Z</time>
      </trkpt>
      <trkpt lat="64.95928" lon="21.18792">
        <ele>19.731404</ele>
        <time>2020-08-28T09:26:11.133Z</time>
      </trkpt>
      <trkpt lat="64.95893" lon="21.18916">
        <ele>19.89243</ele>
        <time>2020-08-28T09:26:23.404Z</time>
      </trkpt>
      <trkpt lat="64.95888" lon="21.18931">
        <ele>19.912233</ele>
        <time>2020-08-28T09:26:24.879Z</time>
      </trkpt>
      <trkpt lat="64.9588" lon="21.18966">
        <ele>19.926959</ele>
        <time>2020-08-28T09:26:28.104Z</time>
      </trkpt>
      <trkpt lat="64.95776" lon="21.19375">
        <ele>19.455605</ele>
        <time>2020-08-28T09:27:04.990Z</time>
      </trkpt>
      <trkpt lat="64.95706" lon="21.19264">
        <ele>18.572221</ele>
        <time>2020-08-28T09:27:19.043Z</time>
      </trkpt>
      <trkpt lat="64.95648" lon="21.19178">
        <ele>17.807293</ele>
        <time>2020-08-28T09:27:29.512Z</time>
      </trkpt>
      <trkpt lat="64.95615" lon="21.19302">
        <ele>16.163531</ele>
        <time>2020-08-28T09:27:38.391Z</time>
      </trkpt>
      <trkpt lat="64.95614" lon="21.1931">
        <ele>16.067917</ele>
        <time>2020-08-28T09:27:38.867Z</time>
      </trkpt>
      <trkpt lat="64.95602" lon="21.19362">
        <ele>15.407036</ele>
        <time>2020-08-28T09:27:42.351Z</time>
      </trkpt>
      <trkpt lat="64.95598" lon="21.19381">
        <ele>15.158118</ele>
        <time>2020-08-28T09:27:43.639Z</time>
      </trkpt>
      <trkpt lat="64.95596" lon="21.19388">
        <ele>15.075965</ele>
        <time>2020-08-28T09:27:44.061Z</time>
      </trkpt>
      <trkpt lat="64.95557" lon="21.1953">
        <ele>13.165859</ele>
        <time>2020-08-28T09:27:54.022Z</time>
      </trkpt>
      <trkpt lat="64.95547" lon="21.19572">
        <ele>12.726691</ele>
        <time>2020-08-28T09:27:56.889Z</time>
      </trkpt>
      <trkpt lat="64.9554" lon="21.196">
        <ele>12.436848</ele>
        <time>2020-08-28T09:27:58.722Z</time>
      </trkpt>
      <trkpt lat="64.95535" lon="21.1962">
        <ele>12.231943</ele>
        <time>2020-08-28T09:28:00.082Z</time>
      </trkpt>
      <trkpt lat="64.95524" lon="21.1965">
        <ele>11.882855</ele>
        <time>2020-08-28T09:28:02.526Z</time>
      </trkpt>
      <trkpt lat="64.95491" lon="21.19688">
        <ele>11.119367</ele>
        <time>2020-08-28T09:28:07.829Z</time>
      </trkpt>
      <trkpt lat="64.95479" lon="21.197">
        <ele>10.848107</ele>
        <time>2020-08-28T09:28:09.723Z</time>
      </trkpt>
      <trkpt lat="64.95456" lon="21.19716">
        <ele>10.369037</ele>
        <time>2020-08-28T09:28:13.247Z</time>
      </trkpt>
      <trkpt lat="64.95442" lon="21.1973">
        <ele>10.038437</ele>
        <time>2020-08-28T09:28:15.627Z</time>
      </trkpt>
      <trkpt lat="64.95435" lon="21.19736">
        <ele>9.882465</ele>
        <time>2020-08-28T09:28:16.812Z</time>
      </trkpt>
      <trkpt lat="64.95428" lon="21.19749">
        <ele>9.696718</ele>
        <time>2020-08-28T09:28:18.236Z</time>
      </trkpt>
      <trkpt lat="64.95407" lon="21.19791">
        <ele>9.292049</ele>
        <time>2020-08-28T09:28:22.690Z</time>
      </trkpt>
      <trkpt lat="64.95399" lon="21.19815">
        <ele>9.209585</ele>
        <time>2020-08-28T09:28:24.884Z</time>
      </trkpt>
      <trkpt lat="64.95385" lon="21.19887">
        <ele>8.98981</ele>
        <time>2020-08-28T09:28:30.520Z</time>
      </trkpt>
      <trkpt lat="64.95376" lon="21.1993">
        <ele>8.856375</ele>
        <time>2020-08-28T09:28:33.851Z</time>
      </trkpt>
      <trkpt lat="64.95373" lon="21.19942">
        <ele>8.819085</ele>
        <time>2020-08-28T09:28:34.873Z</time>
      </trkpt>
      <trkpt lat="64.95359" lon="21.20006">
        <ele>8.619695</ele>
        <time>2020-08-28T09:28:40.064Z</time>
      </trkpt>
      <trkpt lat="64.95338" lon="21.20082">
        <ele>8.367358</ele>
        <time>2020-08-28T09:28:46.791Z</time>
      </trkpt>
      <trkpt lat="64.9532" lon="21.20109">
        <ele>8.231424</ele>
        <time>2020-08-28T09:28:50.420Z</time>
      </trkpt>
      <trkpt lat="64.95299" lon="21.20146">
        <ele>8.151818</ele>
        <time>2020-08-28T09:28:55.178Z</time>
      </trkpt>
      <trkpt lat="64.95285" lon="21.20176">
        <ele>8.11756</ele>
        <time>2020-08-28T09:28:58.437Z</time>
      </trkpt>
      <trkpt lat="64.95267" lon="21.20218">
        <ele>8.070069</ele>
        <time>2020-08-28T09:29:02.978Z</time>
      </trkpt>
      <trkpt lat="64.95222" lon="21.20102">
        <ele>7.944356</ele>
        <time>2020-08-28T09:29:14.879Z</time>
      </trkpt>
      <trkpt lat="64.95175" lon="21.19991">
        <ele>7.918997</ele>
        <time>2020-08-28T09:29:27.239Z</time>
      </trkpt>
      <trkpt lat="64.95166" lon="21.19972">
        <ele>7.960453</ele>
        <time>2020-08-28T09:29:29.497Z</time>
      </trkpt>
      <trkpt lat="64.95158" lon="21.1991">
        <ele>8.061278</ele>
        <time>2020-08-28T09:29:34.848Z</time>
      </trkpt>
      <trkpt lat="64.95152" lon="21.19856">
        <ele>8.146412</ele>
        <time>2020-08-28T09:29:39.479Z</time>
      </trkpt>
      <trkpt lat="64.95145" lon="21.19796">
        <ele>8.242831</ele>
        <time>2020-08-28T09:29:44.809Z</time>
      </trkpt>
      <trkpt lat="64.95091" lon="21.19786">
        <ele>8.438305</ele>
        <time>2020-08-28T09:29:55.658Z</time>
      </trkpt>
      <trkpt lat="64.95079" lon="21.19786">
        <ele>8.48128</ele>
        <time>2020-08-28T09:29:58.084Z</time>
      </trkpt>
      <trkpt lat="64.95054" lon="21.19784">
        <ele>8.60232</ele>
        <time>2020-08-28T09:30:03.160Z</time>
      </trkpt>
      <trkpt lat="64.95035" lon="21.19796">
        <ele>8.708858</ele>
        <time>2020-08-28T09:30:07.206Z</time>
      </trkpt>
      <trkpt lat="64.95016" lon="21.19812">
        <ele>8.818061</ele>
        <time>2020-08-28T09:30:11.417Z</time>
      </trkpt>
      <trkpt lat="64.95005" lon="21.19821">
        <ele>8.877424</ele>
        <time>2020-08-28T09:30:13.707Z</time>
      </trkpt>
      <trkpt lat="64.94974" lon="21.19852">
        <ele>9.058395</ele>
        <time>2020-08-28T09:30:20.657Z</time>
      </trkpt>
      <trkpt lat="64.94966" lon="21.19859">
        <ele>9.10382</ele>
        <time>2020-08-28T09:30:22.387Z</time>
      </trkpt>
      <trkpt lat="64.94932" lon="21.19892">
        <ele>9.300894</ele>
        <time>2020-08-28T09:30:29.844Z</time>
      </trkpt>
      <trkpt lat="64.94905" lon="21.19919">
        <ele>9.459048</ele>
        <time>2020-08-28T09:30:35.747Z</time>
      </trkpt>
      <trkpt lat="64.94872" lon="21.19951">
        <ele>9.484469</ele>
        <time>2020-08-28T09:30:42.659Z</time>
      </trkpt>
      <trkpt lat="64.94854" lon="21.19968">
        <ele>9.492953</ele>
        <time>2020-08-28T09:30:46.329Z</time>
      </trkpt>
      <trkpt lat="64.94768" lon="21.20056">
        <ele>9.533352</ele>
        <time>2020-08-28T09:31:03.260Z</time>
      </trkpt>
      <trkpt lat="64.94757" lon="21.20056">
        <ele>9.538408</ele>
        <time>2020-08-28T09:31:05.286Z</time>
      </trkpt>
      <trkpt lat="64.94736" lon="21.20084">
        <ele>9.538654</ele>
        <time>2020-08-28T09:31:09.546Z</time>
      </trkpt>
      <trkpt lat="64.94676" lon="21.20148">
        <ele>9.25943</ele>
        <time>2020-08-28T09:31:20.977Z</time>
      </trkpt>
      <trkpt lat="64.94652" lon="21.20171">
        <ele>9.149847</ele>
        <time>2020-08-28T09:31:25.391Z</time>
      </trkpt>
      <trkpt lat="64.94521" lon="21.20293">
        <ele>8.706676</ele>
        <time>2020-08-28T09:31:49.483Z</time>
      </trkpt>
      <trkpt lat="64.9443" lon="21.20377">
        <ele>8.565586</ele>
        <time>2020-08-28T09:32:07.417Z</time>
      </trkpt>
      <trkpt lat="64.94396" lon="21.20408">
        <ele>8.571474</ele>
        <time>2020-08-28T09:32:14.496Z</time>
      </trkpt>
      <trkpt lat="64.94362" lon="21.20442">
        <ele>8.753666</ele>
        <time>2020-08-28T09:32:21.719Z</time>
      </trkpt>
      <trkpt lat="64.94322" lon="21.2048">
        <ele>8.969137</ele>
        <time>2020-08-28T09:32:30.548Z</time>
      </trkpt>
      <trkpt lat="64.94247" lon="21.20553">
        <ele>9.371732</ele>
        <time>2020-08-28T09:32:47.276Z</time>
      </trkpt>
      <trkpt lat="64.94218" lon="21.20592">
        <ele>9.514879</ele>
        <time>2020-08-28T09:32:54.190Z</time>
      </trkpt>
      <trkpt lat="64.94187" lon="21.20643">
        <ele>9.665755</ele>
        <time>2020-08-28T09:33:01.932Z</time>
      </trkpt>
      <trkpt lat="64.94144" lon="21.20727">
        <ele>9.8856</ele>
        <time>2020-08-28T09:33:12.887Z</time>
      </trkpt>
      <trkpt lat="64.93545" lon="21.21874">
        <ele>11.848515</ele>
        <time>2020-08-28T09:35:41.611Z</time>
      </trkpt>
      <trkpt lat="64.93385" lon="21.22178">
        <ele>13.269675</ele>
        <time>2020-08-28T09:36:25.047Z</time>
      </trkpt>
      <trkpt lat="64.93287" lon="21.22365">
        <ele>14.189594</ele>
        <time>2020-08-28T09:36:51.154Z</time>
      </trkpt>
      <trkpt lat="64.93259" lon="21.22417">
        <ele>14.449067</ele>
        <time>2020-08-28T09:36:58.615Z</time>
      </trkpt>
      <trkpt lat="64.93238" lon="21.2244">
        <ele>14.717293</ele>
        <time>2020-08-28T09:37:03.501Z</time>
      </trkpt>
      <trkpt lat="64.93207" lon="21.22452">
        <ele>15.121016</ele>
        <time>2020-08-28T09:37:10.491Z</time>
      </trkpt>
      <trkpt lat="64.9319" lon="21.22444">
        <ele>15.329475</ele>
        <time>2020-08-28T09:37:14.155Z</time>
      </trkpt>
      <trkpt lat="64.92837" lon="21.2218">
        <ele>19.895803</ele>
        <time>2020-08-28T09:38:40.201Z</time>
      </trkpt>
      <trkpt lat="64.92811" lon="21.22146">
        <ele>20.103258</ele>
        <time>2020-08-28T09:38:46.399Z</time>
      </trkpt>
      <trkpt lat="64.92624" lon="21.21841">
        <ele>20.261315</ele>
        <time>2020-08-28T09:39:27.854Z</time>
      </trkpt>
      <trkpt lat="64.9258" lon="21.21781">
        <ele>20.005484</ele>
        <time>2020-08-28T09:39:36.513Z</time>
      </trkpt>
      <trkpt lat="64.92543" lon="21.21748">
        <ele>19.703167</ele>
        <time>2020-08-28T09:39:43.267Z</time>
      </trkpt>
      <trkpt lat="64.925" lon="21.21727">
        <ele>19.369712</ele>
        <time>2020-08-28T09:39:50.591Z</time>
      </trkpt>
      <trkpt lat="64.9245" lon="21.21724">
        <ele>18.989323</ele>
        <time>2020-08-28T09:39:58.757Z</time>
      </trkpt>
      <trkpt lat="64.92422" lon="21.21727">
        <ele>18.709101</ele>
        <time>2020-08-28T09:40:03.310Z</time>
      </trkpt>
      <trkpt lat="64.9238" lon="21.21747">
        <ele>18.068149</ele>
        <time>2020-08-28T09:40:10.092Z</time>
      </trkpt>
      <trkpt lat="64.92077" lon="21.21999">
        <ele>13.104898</ele>
        <time>2020-08-28T09:40:58.979Z</time>
      </trkpt>
      <trkpt lat="64.91906" lon="21.22137">
        <ele>11.584586</ele>
        <time>2020-08-28T09:41:28.117Z</time>
      </trkpt>
      <trkpt lat="64.919" lon="21.22134">
        <ele>11.634007</ele>
        <time>2020-08-28T09:41:30.081Z</time>
      </trkpt>
      <trkpt lat="64.91893" lon="21.22124">
        <ele>11.698138</ele>
        <time>2020-08-28T09:41:32.552Z</time>
      </trkpt>
      <trkpt lat="64.91862" lon="21.21955">
        <ele>12.304791</ele>
        <time>2020-08-28T09:41:57.497Z</time>
      </trkpt>
      <trkpt lat="64.91841" lon="21.2192">
        <ele>12.502729</ele>
        <time>2020-08-28T09:42:06.171Z</time>
      </trkpt>
      <trkpt lat="64.91822" lon="21.21901">
        <ele>12.660312</ele>
        <time>2020-08-28T09:42:13.163Z</time>
      </trkpt>
      <trkpt lat="64.91706" lon="21.21853">
        <ele>14.050827</ele>
        <time>2020-08-28T09:42:55.186Z</time>
      </trkpt>
      <trkpt lat="64.91581" lon="21.21693">
        <ele>15.334266</ele>
        <time>2020-08-28T09:43:41.547Z</time>
      </trkpt>
      <trkpt lat="64.91436" lon="21.21515">
        <ele>15.889098</ele>
        <time>2020-08-28T09:44:29.592Z</time>
      </trkpt>
      <trkpt lat="64.91355" lon="21.21413">
        <ele>16.582914</ele>
        <time>2020-08-28T09:44:58.997Z</time>
      </trkpt>
      <trkpt lat="64.91297" lon="21.21346">
        <ele>17.12933</ele>
        <time>2020-08-28T09:45:20.986Z</time>
      </trkpt>
      <trkpt lat="64.91219" lon="21.21238">
        <ele>18.26269</ele>
        <time>2020-08-28T09:45:52.558Z</time>
      </trkpt>
      <trkpt lat="64.91173" lon="21.21152">
        <ele>18.989369</ele>
        <time>2020-08-28T09:46:12.058Z</time>
      </trkpt>
      <trkpt lat="64.91111" lon="21.21018">
        <ele>19.478573</ele>
        <time>2020-08-28T09:46:38.939Z</time>
      </trkpt>
      <trkpt lat="64.91087" lon="21.20979">
        <ele>19.593991</ele>
        <time>2020-08-28T09:46:47.848Z</time>
      </trkpt>
      <trkpt lat="64.91052" lon="21.20929">
        <ele>19.757083</ele>
        <time>2020-08-28T09:47:00.304Z</time>
      </trkpt>
      <trkpt lat="64.90984" lon="21.20864">
        <ele>19.914591</ele>
        <time>2020-08-28T09:47:22.288Z</time>
      </trkpt>
      <trkpt lat="64.90506" lon="21.20556">
        <ele>19.408631</ele>
        <time>2020-08-28T09:49:48.397Z</time>
      </trkpt>
      <trkpt lat="64.90467" lon="21.20522">
        <ele>19.114997</ele>
        <time>2020-08-28T09:50:00.297Z</time>
      </trkpt>
      <trkpt lat="64.90386" lon="21.20422">
        <ele>18.257283</ele>
        <time>2020-08-28T09:50:25.056Z</time>
      </trkpt>
      <trkpt lat="64.90342" lon="21.20336">
        <ele>17.716871</ele>
        <time>2020-08-28T09:50:40.201Z</time>
      </trkpt>
      <trkpt lat="64.89954" lon="21.1939">
        <ele>9.996635</ele>
        <time>2020-08-28T09:53:06.230Z</time>
      </trkpt>
      <trkpt lat="64.89743" lon="21.18978">
        <ele>11.177282</ele>
        <time>2020-08-28T09:54:30.454Z</time>
      </trkpt>
      <trkpt lat="64.89379" lon="21.18117">
        <ele>21.843609</ele>
        <time>2020-08-28T09:57:42.077Z</time>
      </trkpt>
      <trkpt lat="64.89339" lon="21.18036">
        <ele>22.831926</ele>
        <time>2020-08-28T09:58:01.185Z</time>
      </trkpt>
      <trkpt lat="64.89272" lon="21.17955">
        <ele>23.45204</ele>
        <time>2020-08-28T09:58:26.470Z</time>
      </trkpt>
      <trkpt lat="64.89002" lon="21.17786">
        <ele>21.068665</ele>
        <time>2020-08-28T09:59:41.807Z</time>
      </trkpt>
      <trkpt lat="64.88957" lon="21.17747">
        <ele>20.491321</ele>
        <time>2020-08-28T09:59:54.285Z</time>
      </trkpt>
      <trkpt lat="64.88914" lon="21.17697">
        <ele>19.926859</ele>
        <time>2020-08-28T10:00:06.925Z</time>
      </trkpt>
      <trkpt lat="64.88882" lon="21.17624">
        <ele>19.403961</ele>
        <time>2020-08-28T10:00:18.744Z</time>
      </trkpt>
      <trkpt lat="64.88852" lon="21.1754">
        <ele>18.862042</ele>
        <time>2020-08-28T10:00:31.070Z</time>
      </trkpt>
      <trkpt lat="64.88705" lon="21.17006">
        <ele>17.04986</ele>
        <time>2020-08-28T10:01:45.461Z</time>
      </trkpt>
      <trkpt lat="64.88696" lon="21.16936">
        <ele>17.113093</ele>
        <time>2020-08-28T10:01:54.707Z</time>
      </trkpt>
      <trkpt lat="64.8869" lon="21.16839">
        <ele>17.198208</ele>
        <time>2020-08-28T10:02:07.516Z</time>
      </trkpt>
      <trkpt lat="64.8868" lon="21.16273">
        <ele>19.503302</ele>
        <time>2020-08-28T10:03:28.513Z</time>
      </trkpt>
      <trkpt lat="64.88673" lon="21.16186">
        <ele>19.862968</ele>
        <time>2020-08-28T10:03:41.180Z</time>
      </trkpt>
      <trkpt lat="64.88648" lon="21.16004">
        <ele>20.645306</ele>
        <time>2020-08-28T10:04:08.122Z</time>
      </trkpt>
      <trkpt lat="64.88623" lon="21.15889">
        <ele>21.176081</ele>
        <time>2020-08-28T10:04:25.737Z</time>
      </trkpt>
      <trkpt lat="64.88594" lon="21.15779">
        <ele>21.181003</ele>
        <time>2020-08-28T10:04:42.891Z</time>
      </trkpt>
      <trkpt lat="64.88296" lon="21.14867">
        <ele>20.80918</ele>
        <time>2020-08-28T10:07:06.016Z</time>
      </trkpt>
      <trkpt lat="64.88253" lon="21.14698">
        <ele>20.903259</ele>
        <time>2020-08-28T10:07:30.727Z</time>
      </trkpt>
      <trkpt lat="64.88231" lon="21.14572">
        <ele>20.968184</ele>
        <time>2020-08-28T10:07:48.167Z</time>
      </trkpt>
      <trkpt lat="64.88211" lon="21.14376">
        <ele>21.395266</ele>
        <time>2020-08-28T10:08:14.803Z</time>
      </trkpt>
      <trkpt lat="64.88208" lon="21.14283">
        <ele>21.711695</ele>
        <time>2020-08-28T10:08:27.576Z</time>
      </trkpt>
      <trkpt lat="64.8821" lon="21.13915">
        <ele>22.960206</ele>
        <time>2020-08-28T10:09:19.127Z</time>
      </trkpt>
      <trkpt lat="64.88205" lon="21.13827">
        <ele>23.266489</ele>
        <time>2020-08-28T10:09:31.592Z</time>
      </trkpt>
      <trkpt lat="64.88178" lon="21.13642">
        <ele>23.889161</ele>
        <time>2020-08-28T10:09:58.331Z</time>
      </trkpt>
      <trkpt lat="64.8779" lon="21.11999">
        <ele>22.863996</ele>
        <time>2020-08-28T10:13:52.960Z</time>
      </trkpt>
      <trkpt lat="64.87675" lon="21.1159">
        <ele>21.580199</ele>
        <time>2020-08-28T10:14:50.100Z</time>
      </trkpt>
      <trkpt lat="64.87638" lon="21.11442">
        <ele>21.101241</ele>
        <time>2020-08-28T10:15:10.617Z</time>
      </trkpt>
      <trkpt lat="64.87624" lon="21.11354">
        <ele>21.055165</ele>
        <time>2020-08-28T10:15:22.244Z</time>
      </trkpt>
      <trkpt lat="64.87615" lon="21.1117">
        <ele>20.964624</ele>
        <time>2020-08-28T10:15:45.612Z</time>
      </trkpt>
      <trkpt lat="64.87616" lon="21.11069">
        <ele>20.914846</ele>
        <time>2020-08-28T10:15:58.555Z</time>
      </trkpt>
      <trkpt lat="64.87619" lon="21.10788">
        <ele>20.716907</ele>
        <time>2020-08-28T10:16:33.802Z</time>
      </trkpt>
      <trkpt lat="64.8762" lon="21.10549">
        <ele>20.464109</ele>
        <time>2020-08-28T10:17:03.070Z</time>
      </trkpt>
      <trkpt lat="64.87615" lon="21.10381">
        <ele>20.143268</ele>
        <time>2020-08-28T10:17:23.210Z</time>
      </trkpt>
      <trkpt lat="64.87603" lon="21.10233">
        <ele>19.857125</ele>
        <time>2020-08-28T10:17:41.333Z</time>
      </trkpt>
      <trkpt lat="64.8759" lon="21.10087">
        <ele>19.708413</ele>
        <time>2020-08-28T10:17:59.512Z</time>
      </trkpt>
      <trkpt lat="64.8756" lon="21.09796">
        <ele>19.503707</ele>
        <time>2020-08-28T10:18:36.998Z</time>
      </trkpt>
      <trkpt lat="64.87545" lon="21.09514">
        <ele>19.127733</ele>
        <time>2020-08-28T10:19:12.740Z</time>
      </trkpt>
      <trkpt lat="64.87539" lon="21.09338">
        <ele>18.791441</ele>
        <time>2020-08-28T10:19:33.762Z</time>
      </trkpt>
      <trkpt lat="64.87536" lon="21.09203">
        <ele>18.033872</ele>
        <time>2020-08-28T10:19:49.157Z</time>
      </trkpt>
      <trkpt lat="64.87529" lon="21.09105">
        <ele>17.482752</ele>
        <time>2020-08-28T10:20:00.179Z</time>
      </trkpt>
      <trkpt lat="64.87521" lon="21.09069">
        <ele>17.260701</ele>
        <time>2020-08-28T10:20:04.659Z</time>
      </trkpt>
      <trkpt lat="64.87507" lon="21.0902">
        <ele>16.9218</ele>
        <time>2020-08-28T10:20:11.316Z</time>
      </trkpt>
      <trkpt lat="64.87543" lon="21.08941">
        <ele>16.218155</ele>
        <time>2020-08-28T10:20:18.821Z</time>
      </trkpt>
      <trkpt lat="64.87543" lon="21.08915">
        <ele>16.044995</ele>
        <time>2020-08-28T10:20:20.441Z</time>
      </trkpt>
      <trkpt lat="64.87535" lon="21.08851">
        <ele>15.598605</ele>
        <time>2020-08-28T10:20:24.805Z</time>
      </trkpt>
      <trkpt lat="64.8751" lon="21.08792">
        <ele>15.040577</ele>
        <time>2020-08-28T10:20:30.183Z</time>
      </trkpt>
      <trkpt lat="64.87377" lon="21.08465">
        <ele>12.402201</ele>
        <time>2020-08-28T10:20:59.987Z</time>
      </trkpt>
      <trkpt lat="64.87363" lon="21.0841">
        <ele>12.070548</ele>
        <time>2020-08-28T10:21:04.145Z</time>
      </trkpt>
      <trkpt lat="64.87349" lon="21.08339">
        <ele>11.66205</ele>
        <time>2020-08-28T10:21:09.320Z</time>
      </trkpt>
      <trkpt lat="64.87341" lon="21.08296">
        <ele>11.473813</ele>
        <time>2020-08-28T10:21:12.346Z</time>
      </trkpt>
      <trkpt lat="64.87355" lon="21.07916">
        <ele>10.42015</ele>
        <time>2020-08-28T10:21:38.582Z</time>
      </trkpt>
      <trkpt lat="64.87358" lon="21.07824">
        <ele>10.319754</ele>
        <time>2020-08-28T10:21:45.263Z</time>
      </trkpt>
      <trkpt lat="64.87319" lon="21.07739">
        <ele>10.247593</ele>
        <time>2020-08-28T10:21:54.416Z</time>
      </trkpt>
      <trkpt lat="64.87305" lon="21.07702">
        <ele>10.219117</ele>
        <time>2020-08-28T10:21:58.047Z</time>
      </trkpt>
      <trkpt lat="64.87298" lon="21.07654">
        <ele>10.189805</ele>
        <time>2020-08-28T10:22:01.823Z</time>
      </trkpt>
      <trkpt lat="64.87296" lon="21.07609">
        <ele>10.163577</ele>
        <time>2020-08-28T10:22:05.247Z</time>
      </trkpt>
      <trkpt lat="64.87294" lon="21.07495">
        <ele>10.180868</ele>
        <time>2020-08-28T10:22:14.043Z</time>
      </trkpt>
      <trkpt lat="64.87294" lon="21.07471">
        <ele>10.231165</ele>
        <time>2020-08-28T10:22:15.995Z</time>
      </trkpt>
      <trkpt lat="64.87294" lon="21.07411">
        <ele>10.354458</ele>
        <time>2020-08-28T10:22:20.831Z</time>
      </trkpt>
      <trkpt lat="64.87301" lon="21.07357">
        <ele>10.469501</ele>
        <time>2020-08-28T10:22:25.358Z</time>
      </trkpt>
      <trkpt lat="64.87305" lon="21.0734">
        <ele>10.508312</ele>
        <time>2020-08-28T10:22:26.887Z</time>
      </trkpt>
      <trkpt lat="64.87314" lon="21.07297">
        <ele>10.607908</ele>
        <time>2020-08-28T10:22:30.892Z</time>
      </trkpt>
      <trkpt lat="64.87318" lon="21.0728">
        <ele>10.647147</ele>
        <time>2020-08-28T10:22:32.530Z</time>
      </trkpt>
      <trkpt lat="64.87329" lon="21.07247">
        <ele>10.731619</ele>
        <time>2020-08-28T10:22:36.004Z</time>
      </trkpt>
      <trkpt lat="64.87355" lon="21.07173">
        <ele>10.928284</ele>
        <time>2020-08-28T10:22:44.166Z</time>
      </trkpt>
      <trkpt lat="64.87365" lon="21.07148">
        <ele>11.008571</ele>
        <time>2020-08-28T10:22:47.093Z</time>
      </trkpt>
      <trkpt lat="64.87386" lon="21.07067">
        <ele>11.348326</ele>
        <time>2020-08-28T10:22:55.395Z</time>
      </trkpt>
      <trkpt lat="64.87394" lon="21.07043">
        <ele>11.456401</ele>
        <time>2020-08-28T10:22:58.074Z</time>
      </trkpt>
      <trkpt lat="64.87394" lon="21.06962">
        <ele>11.746641</ele>
        <time>2020-08-28T10:23:05.355Z</time>
      </trkpt>
      <trkpt lat="64.87397" lon="21.06848">
        <ele>12.154289</ele>
        <time>2020-08-28T10:23:15.432Z</time>
      </trkpt>
      <trkpt lat="64.87396" lon="21.06668">
        <ele>12.668581</ele>
        <time>2020-08-28T10:23:30.998Z</time>
      </trkpt>
      <trkpt lat="64.87392" lon="21.0662">
        <ele>12.765987</ele>
        <time>2020-08-28T10:23:35.082Z</time>
      </trkpt>
      <trkpt lat="64.87382" lon="21.0655">
        <ele>12.918227</ele>
        <time>2020-08-28T10:23:41.277Z</time>
      </trkpt>
      <trkpt lat="64.87345" lon="21.06428">
        <ele>13.223478</ele>
        <time>2020-08-28T10:23:53.446Z</time>
      </trkpt>
      <trkpt lat="64.87331" lon="21.06391">
        <ele>13.322659</ele>
        <time>2020-08-28T10:23:57.279Z</time>
      </trkpt>
      <trkpt lat="64.87287" lon="21.06275">
        <ele>13.424409</ele>
        <time>2020-08-28T10:24:09.306Z</time>
      </trkpt>
      <trkpt lat="64.87266" lon="21.06222">
        <ele>13.458231</ele>
        <time>2020-08-28T10:24:14.761Z</time>
      </trkpt>
      <trkpt lat="64.87242" lon="21.06157">
        <ele>13.499279</ele>
        <time>2020-08-28T10:24:21.380Z</time>
      </trkpt>
      <trkpt lat="64.87239" lon="21.06151">
        <ele>13.503056</ele>
        <time>2020-08-28T10:24:21.999Z</time>
      </trkpt>
      <trkpt lat="64.87227" lon="21.06119">
        <ele>13.523641</ele>
        <time>2020-08-28T10:24:25.384Z</time>
      </trkpt>
      <trkpt lat="64.87187" lon="21.06008">
        <ele>13.698736</ele>
        <time>2020-08-28T10:24:36.559Z</time>
      </trkpt>
      <trkpt lat="64.87169" lon="21.0594">
        <ele>13.858857</ele>
        <time>2020-08-28T10:24:42.913Z</time>
      </trkpt>
      <trkpt lat="64.8716" lon="21.05891">
        <ele>13.964308</ele>
        <time>2020-08-28T10:24:47.181Z</time>
      </trkpt>
      <trkpt lat="64.87159" lon="21.05884">
        <ele>13.979159</ele>
        <time>2020-08-28T10:24:47.774Z</time>
      </trkpt>
      <trkpt lat="64.87149" lon="21.05824">
        <ele>14.108482</ele>
        <time>2020-08-28T10:24:53.170Z</time>
      </trkpt>
      <trkpt lat="64.8713" lon="21.05702">
        <ele>14.366263</ele>
        <time>2020-08-28T10:25:04.186Z</time>
      </trkpt>
      <trkpt lat="64.87129" lon="21.05694">
        <ele>14.382232</ele>
        <time>2020-08-28T10:25:04.886Z</time>
      </trkpt>
      <trkpt lat="64.87098" lon="21.05432">
        <ele>15.684382</ele>
        <time>2020-08-28T10:25:29.499Z</time>
      </trkpt>
      <trkpt lat="64.87081" lon="21.05241">
        <ele>16.603735</ele>
        <time>2020-08-28T10:25:48.115Z</time>
      </trkpt>
      <trkpt lat="64.87069" lon="21.05101">
        <ele>17.156021</ele>
        <time>2020-08-28T10:26:01.434Z</time>
      </trkpt>
      <trkpt lat="64.87065" lon="21.05051">
        <ele>17.351689</ele>
        <time>2020-08-28T10:26:06.040Z</time>
      </trkpt>
      <trkpt lat="64.87048" lon="21.04926">
        <ele>17.856936</ele>
        <time>2020-08-28T10:26:17.323Z</time>
      </trkpt>
      <trkpt lat="64.87027" lon="21.0485">
        <ele>18.055063</ele>
        <time>2020-08-28T10:26:24.693Z</time>
      </trkpt>
      <trkpt lat="64.87001" lon="21.04766">
        <ele>17.857593</ele>
        <time>2020-08-28T10:26:32.730Z</time>
      </trkpt>
      <trkpt lat="64.86876" lon="21.04556">
        <ele>17.040708</ele>
        <time>2020-08-28T10:26:57.164Z</time>
      </trkpt>
      <trkpt lat="64.86841" lon="21.04472">
        <ele>16.592053</ele>
        <time>2020-08-28T10:27:04.788Z</time>
      </trkpt>
      <trkpt lat="64.86803" lon="21.04304">
        <ele>15.8575</ele>
        <time>2020-08-28T10:27:17.342Z</time>
      </trkpt>
      <trkpt lat="64.86738" lon="21.03968">
        <ele>14.904367</ele>
        <time>2020-08-28T10:27:42.425Z</time>
      </trkpt>
      <trkpt lat="64.867" lon="21.03772">
        <ele>14.740825</ele>
        <time>2020-08-28T10:27:58.660Z</time>
      </trkpt>
      <trkpt lat="64.86674" lon="21.03622">
        <ele>14.85459</ele>
        <time>2020-08-28T10:28:11.527Z</time>
      </trkpt>
      <trkpt lat="64.86664" lon="21.03546">
        <ele>14.910689</ele>
        <time>2020-08-28T10:28:18.047Z</time>
      </trkpt>
      <trkpt lat="64.86612" lon="21.02935">
        <ele>15.443209</ele>
        <time>2020-08-28T10:29:07.134Z</time>
      </trkpt>
      <trkpt lat="64.86615" lon="21.02825">
        <ele>15.508105</ele>
        <time>2020-08-28T10:29:15.383Z</time>
      </trkpt>
      <trkpt lat="64.86624" lon="21.02673">
        <ele>15.597798</ele>
        <time>2020-08-28T10:29:27.194Z</time>
      </trkpt>
      <trkpt lat="64.86633" lon="21.02612">
        <ele>15.720227</ele>
        <time>2020-08-28T10:29:32.382Z</time>
      </trkpt>
      <trkpt lat="64.86649" lon="21.0255">
        <ele>15.930641</ele>
        <time>2020-08-28T10:29:38.286Z</time>
      </trkpt>
      <trkpt lat="64.86678" lon="21.02456">
        <ele>16.266103</ele>
        <time>2020-08-28T10:29:47.914Z</time>
      </trkpt>
      <trkpt lat="64.86699" lon="21.02375">
        <ele>16.542518</ele>
        <time>2020-08-28T10:29:56.319Z</time>
      </trkpt>
      <trkpt lat="64.86703" lon="21.02358">
        <ele>16.600735</ele>
        <time>2020-08-28T10:29:58.032Z</time>
      </trkpt>
      <trkpt lat="64.86704" lon="21.02351">
        <ele>16.623224</ele>
        <time>2020-08-28T10:29:58.734Z</time>
      </trkpt>
      <trkpt lat="64.86706" lon="21.0234">
        <ele>16.656695</ele>
        <time>2020-08-28T10:29:59.848Z</time>
      </trkpt>
      <trkpt lat="64.86716" lon="21.0228">
        <ele>16.843026</ele>
        <time>2020-08-28T10:30:05.641Z</time>
      </trkpt>
      <trkpt lat="64.86724" lon="21.02241">
        <ele>16.92986</ele>
        <time>2020-08-28T10:30:09.647Z</time>
      </trkpt>
      <trkpt lat="64.86724" lon="21.02224">
        <ele>16.963335</ele>
        <time>2020-08-28T10:30:11.179Z</time>
      </trkpt>
      <trkpt lat="64.86745" lon="21.02144">
        <ele>17.151121</ele>
        <time>2020-08-28T10:30:19.316Z</time>
      </trkpt>
      <trkpt lat="64.86746" lon="21.02123">
        <ele>17.191794</ele>
        <time>2020-08-28T10:30:21.010Z</time>
      </trkpt>
      <trkpt lat="64.86743" lon="21.02115">
        <ele>17.211809</ele>
        <time>2020-08-28T10:30:21.977Z</time>
      </trkpt>
      <trkpt lat="64.86746" lon="21.02105">
        <ele>17.237836</ele>
        <time>2020-08-28T10:30:22.986Z</time>
      </trkpt>
      <trkpt lat="64.86749" lon="21.02099">
        <ele>17.255137</ele>
        <time>2020-08-28T10:30:23.707Z</time>
      </trkpt>
      <trkpt lat="64.86761" lon="21.02095">
        <ele>17.310572</ele>
        <time>2020-08-28T10:30:26.064Z</time>
      </trkpt>
      <trkpt lat="64.86771" lon="21.02077">
        <ele>17.37036</ele>
        <time>2020-08-28T10:30:28.471Z</time>
      </trkpt>
      <trkpt lat="64.86786" lon="21.02022">
        <ele>17.497963</ele>
        <time>2020-08-28T10:30:33.471Z</time>
      </trkpt>
      <trkpt lat="64.86793" lon="21.01951">
        <ele>17.643497</ele>
        <time>2020-08-28T10:30:39.162Z</time>
      </trkpt>
      <trkpt lat="64.86792" lon="21.01938">
        <ele>17.669559</ele>
        <time>2020-08-28T10:30:40.120Z</time>
      </trkpt>
      <trkpt lat="64.86794" lon="21.01926">
        <ele>17.678356</ele>
        <time>2020-08-28T10:30:41.075Z</time>
      </trkpt>
      <trkpt lat="64.86797" lon="21.01915">
        <ele>17.672748</ele>
        <time>2020-08-28T10:30:42.071Z</time>
      </trkpt>
      <trkpt lat="64.86799" lon="21.01912">
        <ele>17.669996</ele>
        <time>2020-08-28T10:30:42.456Z</time>
      </trkpt>
      <trkpt lat="64.86804" lon="21.01885">
        <ele>17.656873</ele>
        <time>2020-08-28T10:30:44.636Z</time>
      </trkpt>
      <trkpt lat="64.86801" lon="21.01858">
        <ele>17.644354</ele>
        <time>2020-08-28T10:30:46.631Z</time>
      </trkpt>
      <trkpt lat="64.86789" lon="21.01812">
        <ele>17.619886</ele>
        <time>2020-08-28T10:30:50.761Z</time>
      </trkpt>
      <trkpt lat="64.86747" lon="21.01708">
        <ele>17.555652</ele>
        <time>2020-08-28T10:31:01.157Z</time>
      </trkpt>
      <trkpt lat="64.86741" lon="21.01674">
        <ele>17.538662</ele>
        <time>2020-08-28T10:31:03.930Z</time>
      </trkpt>
      <trkpt lat="64.86737" lon="21.01603">
        <ele>17.506316</ele>
        <time>2020-08-28T10:31:09.172Z</time>
      </trkpt>
      <trkpt lat="64.8675" lon="21.01593">
        <ele>17.491848</ele>
        <time>2020-08-28T10:31:11.510Z</time>
      </trkpt>
      <trkpt lat="64.86751" lon="21.01586">
        <ele>17.494971</ele>
        <time>2020-08-28T10:31:12.188Z</time>
      </trkpt>
      <trkpt lat="64.8676" lon="21.01561">
        <ele>17.527464</ele>
        <time>2020-08-28T10:31:14.553Z</time>
      </trkpt>
      <trkpt lat="64.86775" lon="21.01526">
        <ele>17.579102</ele>
        <time>2020-08-28T10:31:18.503Z</time>
      </trkpt>
      <trkpt lat="64.86784" lon="21.01513">
        <ele>17.605168</ele>
        <time>2020-08-28T10:31:20.496Z</time>
      </trkpt>
      <trkpt lat="64.86787" lon="21.01509">
        <ele>17.612481</ele>
        <time>2020-08-28T10:31:21.012Z</time>
      </trkpt>
      <trkpt lat="64.8681" lon="21.01472">
        <ele>17.680593</ele>
        <time>2020-08-28T10:31:26.326Z</time>
      </trkpt>
      <trkpt lat="64.86809" lon="21.01457">
        <ele>17.696702</ele>
        <time>2020-08-28T10:31:27.544Z</time>
      </trkpt>
      <trkpt lat="64.86808" lon="21.01442">
        <ele>17.71169</ele>
        <time>2020-08-28T10:31:28.796Z</time>
      </trkpt>
      <trkpt lat="64.868" lon="21.01392">
        <ele>17.766785</ele>
        <time>2020-08-28T10:31:33.348Z</time>
      </trkpt>
      <trkpt lat="64.86776" lon="21.01337">
        <ele>17.848303</ele>
        <time>2020-08-28T10:31:39.972Z</time>
      </trkpt>
      <trkpt lat="64.86766" lon="21.0132">
        <ele>17.879316</ele>
        <time>2020-08-28T10:31:42.424Z</time>
      </trkpt>
      <trkpt lat="64.86757" lon="21.01307">
        <ele>17.903658</ele>
        <time>2020-08-28T10:31:44.380Z</time>
      </trkpt>
      <trkpt lat="64.86745" lon="21.01288">
        <ele>17.973334</ele>
        <time>2020-08-28T10:31:47.223Z</time>
      </trkpt>
      <trkpt lat="64.86707" lon="21.01237">
        <ele>18.395394</ele>
        <time>2020-08-28T10:31:56.070Z</time>
      </trkpt>
      <trkpt lat="64.86677" lon="21.01207">
        <ele>18.702385</ele>
        <time>2020-08-28T10:32:02.834Z</time>
      </trkpt>
      <trkpt lat="64.86641" lon="21.01173">
        <ele>19.063984</ele>
        <time>2020-08-28T10:32:10.804Z</time>
      </trkpt>
      <trkpt lat="64.86614" lon="21.01151">
        <ele>19.33661</ele>
        <time>2020-08-28T10:32:16.919Z</time>
      </trkpt>
      <trkpt lat="64.86609" lon="21.01147">
        <ele>19.389272</ele>
        <time>2020-08-28T10:32:18.111Z</time>
      </trkpt>
      <trkpt lat="64.86602" lon="21.01138">
        <ele>19.463239</ele>
        <time>2020-08-28T10:32:19.911Z</time>
      </trkpt>
      <trkpt lat="64.86599" lon="21.0113">
        <ele>19.510067</ele>
        <time>2020-08-28T10:32:21.075Z</time>
      </trkpt>
      <trkpt lat="64.86592" lon="21.01111">
        <ele>19.609269</ele>
        <time>2020-08-28T10:32:23.653Z</time>
      </trkpt>
      <trkpt lat="64.86573" lon="21.01039">
        <ele>20.838477</ele>
        <time>2020-08-28T10:32:32.855Z</time>
      </trkpt>
      <trkpt lat="64.86559" lon="21.01007">
        <ele>21.552406</ele>
        <time>2020-08-28T10:32:38.168Z</time>
      </trkpt>
      <trkpt lat="64.86501" lon="21.00946">
        <ele>23.852306</ele>
        <time>2020-08-28T10:32:57.428Z</time>
      </trkpt>
      <trkpt lat="64.86482" lon="21.00933">
        <ele>24.556412</ele>
        <time>2020-08-28T10:33:04.473Z</time>
      </trkpt>
      <trkpt lat="64.86435" lon="21.00908">
        <ele>26.299425</ele>
        <time>2020-08-28T10:33:21.005Z</time>
      </trkpt>
      <trkpt lat="64.86379" lon="21.00875">
        <ele>28.435226</ele>
        <time>2020-08-28T10:33:41.361Z</time>
      </trkpt>
      <trkpt lat="64.86364" lon="21.00861">
        <ele>29.031436</ele>
        <time>2020-08-28T10:33:46.194Z</time>
      </trkpt>
      <trkpt lat="64.86361" lon="21.00856">
        <ele>29.159779</ele>
        <time>2020-08-28T10:33:48.114Z</time>
      </trkpt>
      <trkpt lat="64.8634" lon="21.00823">
        <ele>30.086464</ele>
        <time>2020-08-28T10:33:56.063Z</time>
      </trkpt>
      <trkpt lat="64.86306" lon="21.00776">
        <ele>31.521879</ele>
        <time>2020-08-28T10:34:07.793Z</time>
      </trkpt>
      <trkpt lat="64.863" lon="21.00768">
        <ele>31.798826</ele>
        <time>2020-08-28T10:34:10.452Z</time>
      </trkpt>
      <trkpt lat="64.86267" lon="21.00731">
        <ele>32.537093</ele>
        <time>2020-08-28T10:34:18.814Z</time>
      </trkpt>
      <trkpt lat="64.86237" lon="21.00716">
        <ele>31.989921</ele>
        <time>2020-08-28T10:34:24.083Z</time>
      </trkpt>
      <trkpt lat="64.86148" lon="21.00704">
        <ele>30.37217</ele>
        <time>2020-08-28T10:34:37.272Z</time>
      </trkpt>
      <trkpt lat="64.86137" lon="21.00707">
        <ele>30.170554</ele>
        <time>2020-08-28T10:34:38.788Z</time>
      </trkpt>
      <trkpt lat="64.86121" lon="21.00711">
        <ele>29.883206</ele>
        <time>2020-08-28T10:34:40.848Z</time>
      </trkpt>
      <trkpt lat="64.86102" lon="21.00718">
        <ele>29.540351</ele>
        <time>2020-08-28T10:34:43.413Z</time>
      </trkpt>
      <trkpt lat="64.8601" lon="21.00804">
        <ele>25.35192</ele>
        <time>2020-08-28T10:34:56.244Z</time>
      </trkpt>
      <trkpt lat="64.85955" lon="21.00872">
        <ele>22.700591</ele>
        <time>2020-08-28T10:35:04.221Z</time>
      </trkpt>
      <trkpt lat="64.85941" lon="21.00878">
        <ele>22.098162</ele>
        <time>2020-08-28T10:35:06.079Z</time>
      </trkpt>
      <trkpt lat="64.85896" lon="21.0087">
        <ele>20.732272</ele>
        <time>2020-08-28T10:35:12.169Z</time>
      </trkpt>
      <trkpt lat="64.8587" lon="21.00838">
        <ele>19.919172</ele>
        <time>2020-08-28T10:35:16.207Z</time>
      </trkpt>
      <trkpt lat="64.85604" lon="21.00352">
        <ele>12.575558</ele>
        <time>2020-08-28T10:36:05.479Z</time>
      </trkpt>
      <trkpt lat="64.85579" lon="21.00298">
        <ele>12.192898</ele>
        <time>2020-08-28T10:36:10.909Z</time>
      </trkpt>
      <trkpt lat="64.85573" lon="21.00283">
        <ele>12.093185</ele>
        <time>2020-08-28T10:36:12.332Z</time>
      </trkpt>
      <trkpt lat="64.85539" lon="21.00161">
        <ele>11.402796</ele>
        <time>2020-08-28T10:36:22.595Z</time>
      </trkpt>
      <trkpt lat="64.8552" lon="21.00008">
        <ele>11.216595</ele>
        <time>2020-08-28T10:36:34.718Z</time>
      </trkpt>
      <trkpt lat="64.85493" lon="20.99888">
        <ele>11.467116</ele>
        <time>2020-08-28T10:36:46.175Z</time>
      </trkpt>
      <trkpt lat="64.85457" lon="20.9983">
        <ele>11.654249</ele>
        <time>2020-08-28T10:36:55.099Z</time>
      </trkpt>
      <trkpt lat="64.85265" lon="20.99622">
        <ele>13.496905</ele>
        <time>2020-08-28T10:37:41.293Z</time>
      </trkpt>
      <trkpt lat="64.8521" lon="20.99481">
        <ele>14.089881</ele>
        <time>2020-08-28T10:37:59.096Z</time>
      </trkpt>
      <trkpt lat="64.85186" lon="20.99339">
        <ele>14.540138</ele>
        <time>2020-08-28T10:38:12.601Z</time>
      </trkpt>
      <trkpt lat="64.85182" lon="20.99292">
        <ele>14.682254</ele>
        <time>2020-08-28T10:38:16.689Z</time>
      </trkpt>
      <trkpt lat="64.85181" lon="20.99287">
        <ele>14.697233</ele>
        <time>2020-08-28T10:38:17.178Z</time>
      </trkpt>
      <trkpt lat="64.85152" lon="20.99179">
        <ele>14.692978</ele>
        <time>2020-08-28T10:38:27.487Z</time>
      </trkpt>
      <trkpt lat="64.85094" lon="20.9909">
        <ele>14.37321</ele>
        <time>2020-08-28T10:38:39.877Z</time>
      </trkpt>
      <trkpt lat="64.85077" lon="20.99054">
        <ele>14.267449</ele>
        <time>2020-08-28T10:38:43.783Z</time>
      </trkpt>
      <trkpt lat="64.85028" lon="20.98893">
        <ele>13.67321</ele>
        <time>2020-08-28T10:38:57.290Z</time>
      </trkpt>
      <trkpt lat="64.84985" lon="20.98739">
        <ele>12.768142</ele>
        <time>2020-08-28T10:39:09.593Z</time>
      </trkpt>
      <trkpt lat="64.84964" lon="20.98646">
        <ele>12.251819</ele>
        <time>2020-08-28T10:39:16.600Z</time>
      </trkpt>
      <trkpt lat="64.84892" lon="20.98214">
        <ele>10.844947</ele>
        <time>2020-08-28T10:39:49.333Z</time>
      </trkpt>
      <trkpt lat="64.84881" lon="20.98178">
        <ele>10.858903</ele>
        <time>2020-08-28T10:39:53.046Z</time>
      </trkpt>
      <trkpt lat="64.84873" lon="20.98158">
        <ele>10.958204</ele>
        <time>2020-08-28T10:39:55.245Z</time>
      </trkpt>
      <trkpt lat="64.84869" lon="20.9815">
        <ele>11.004792</ele>
        <time>2020-08-28T10:39:56.258Z</time>
      </trkpt>
      <trkpt lat="64.84863" lon="20.98137">
        <ele>11.076641</ele>
        <time>2020-08-28T10:39:57.863Z</time>
      </trkpt>
      <trkpt lat="64.84855" lon="20.98123">
        <ele>11.163396</ele>
        <time>2020-08-28T10:40:00.082Z</time>
      </trkpt>
      <trkpt lat="64.84835" lon="20.98094">
        <ele>11.363904</ele>
        <time>2020-08-28T10:40:04.742Z</time>
      </trkpt>
      <trkpt lat="64.84813" lon="20.98077">
        <ele>11.566638</ele>
        <time>2020-08-28T10:40:09.860Z</time>
      </trkpt>
      <trkpt lat="64.84648" lon="20.98029">
        <ele>13.370967</ele>
        <time>2020-08-28T10:40:48.228Z</time>
      </trkpt>
      <trkpt lat="64.84595" lon="20.98025">
        <ele>14.088368</ele>
        <time>2020-08-28T10:41:00.501Z</time>
      </trkpt>
      <trkpt lat="64.8454" lon="20.98069">
        <ele>14.843355</ele>
        <time>2020-08-28T10:41:13.612Z</time>
      </trkpt>
      <trkpt lat="64.84428" lon="20.9819">
        <ele>16.080124</ele>
        <time>2020-08-28T10:41:40.680Z</time>
      </trkpt>
      <trkpt lat="64.84387" lon="20.98201">
        <ele>16.498998</ele>
        <time>2020-08-28T10:41:49.476Z</time>
      </trkpt>
      <trkpt lat="64.84353" lon="20.98179">
        <ele>16.693441</ele>
        <time>2020-08-28T10:41:56.769Z</time>
      </trkpt>
      <trkpt lat="64.84347" lon="20.98177">
        <ele>16.721701</ele>
        <time>2020-08-28T10:41:58.074Z</time>
      </trkpt>
      <trkpt lat="64.84328" lon="20.9817">
        <ele>16.806541</ele>
        <time>2020-08-28T10:42:02.000Z</time>
      </trkpt>
      <trkpt lat="64.84296" lon="20.98176">
        <ele>16.948916</ele>
        <time>2020-08-28T10:42:08.508Z</time>
      </trkpt>
      <trkpt lat="64.84265" lon="20.98194">
        <ele>17.091569</ele>
        <time>2020-08-28T10:42:14.955Z</time>
      </trkpt>
      <trkpt lat="64.8425" lon="20.98201">
        <ele>17.157221</ele>
        <time>2020-08-28T10:42:17.912Z</time>
      </trkpt>
      <trkpt lat="64.8423" lon="20.98215">
        <ele>17.250729</ele>
        <time>2020-08-28T10:42:22.019Z</time>
      </trkpt>
      <trkpt lat="64.84218" lon="20.98228">
        <ele>17.307613</ele>
        <time>2020-08-28T10:42:24.495Z</time>
      </trkpt>
      <trkpt lat="64.842" lon="20.98255">
        <ele>17.362465</ele>
        <time>2020-08-28T10:42:28.474Z</time>
      </trkpt>
      <trkpt lat="64.84123" lon="20.98386">
        <ele>17.306417</ele>
        <time>2020-08-28T10:42:45.906Z</time>
      </trkpt>
      <trkpt lat="64.84117" lon="20.98402">
        <ele>17.301039</ele>
        <time>2020-08-28T10:42:47.578Z</time>
      </trkpt>
      <trkpt lat="64.84108" lon="20.98474">
        <ele>17.282415</ele>
        <time>2020-08-28T10:42:53.360Z</time>
      </trkpt>
      <trkpt lat="64.84102" lon="20.98561">
        <ele>17.253385</ele>
        <time>2020-08-28T10:43:00.332Z</time>
      </trkpt>
      <trkpt lat="64.84029" lon="20.98534">
        <ele>16.93027</ele>
        <time>2020-08-28T10:43:13.483Z</time>
      </trkpt>
      <trkpt lat="64.83956" lon="20.98505">
        <ele>16.609572</ele>
        <time>2020-08-28T10:43:26.040Z</time>
      </trkpt>
      <trkpt lat="64.83918" lon="20.98493">
        <ele>16.369317</ele>
        <time>2020-08-28T10:43:32.569Z</time>
      </trkpt>
      <trkpt lat="64.83839" lon="20.98465">
        <ele>15.264303</ele>
        <time>2020-08-28T10:43:45.736Z</time>
      </trkpt>
      <trkpt lat="64.83814" lon="20.98454">
        <ele>14.912669</ele>
        <time>2020-08-28T10:43:49.600Z</time>
      </trkpt>
      <trkpt lat="64.83781" lon="20.9844">
        <ele>14.441241</ele>
        <time>2020-08-28T10:43:54.593Z</time>
      </trkpt>
      <trkpt lat="64.83781" lon="20.98431">
        <ele>14.388553</ele>
        <time>2020-08-28T10:43:55.202Z</time>
      </trkpt>
      <trkpt lat="64.83774" lon="20.98429">
        <ele>14.286791</ele>
        <time>2020-08-28T10:43:56.330Z</time>
      </trkpt>
      <trkpt lat="64.83749" lon="20.98421">
        <ele>13.863456</ele>
        <time>2020-08-28T10:43:59.889Z</time>
      </trkpt>
      <trkpt lat="64.83703" lon="20.98402">
        <ele>12.193223</ele>
        <time>2020-08-28T10:44:06.475Z</time>
      </trkpt>
      <trkpt lat="64.83674" lon="20.98383">
        <ele>11.127337</ele>
        <time>2020-08-28T10:44:10.461Z</time>
      </trkpt>
      <trkpt lat="64.83667" lon="20.98382">
        <ele>10.889238</ele>
        <time>2020-08-28T10:44:11.341Z</time>
      </trkpt>
      <trkpt lat="64.83662" lon="20.98381">
        <ele>10.70098</ele>
        <time>2020-08-28T10:44:11.985Z</time>
      </trkpt>
      <trkpt lat="64.83632" lon="20.98391">
        <ele>9.651189</ele>
        <time>2020-08-28T10:44:15.987Z</time>
      </trkpt>
      <trkpt lat="64.83625" lon="20.98394">
        <ele>9.38451</ele>
        <time>2020-08-28T10:44:16.889Z</time>
      </trkpt>
      <trkpt lat="64.8359" lon="20.98428">
        <ele>8.036538</ele>
        <time>2020-08-28T10:44:21.920Z</time>
      </trkpt>
      <trkpt lat="64.83566" lon="20.98452">
        <ele>7.281733</ele>
        <time>2020-08-28T10:44:25.557Z</time>
      </trkpt>
      <trkpt lat="64.83561" lon="20.98461">
        <ele>7.138462</ele>
        <time>2020-08-28T10:44:26.309Z</time>
      </trkpt>
      <trkpt lat="64.83556" lon="20.98467">
        <ele>7.010246</ele>
        <time>2020-08-28T10:44:27.054Z</time>
      </trkpt>
      <trkpt lat="64.83538" lon="20.98496">
        <ele>6.522617</ele>
        <time>2020-08-28T10:44:30.044Z</time>
      </trkpt>
      <trkpt lat="64.83528" lon="20.98508">
        <ele>6.250672</ele>
        <time>2020-08-28T10:44:31.532Z</time>
      </trkpt>
      <trkpt lat="64.83507" lon="20.98533">
        <ele>5.714691</ele>
        <time>2020-08-28T10:44:34.893Z</time>
      </trkpt>
      <trkpt lat="64.83499" lon="20.98542">
        <ele>5.519232</ele>
        <time>2020-08-28T10:44:36.004Z</time>
      </trkpt>
      <trkpt lat="64.83467" lon="20.98587">
        <ele>4.645979</ele>
        <time>2020-08-28T10:44:41.577Z</time>
      </trkpt>
      <trkpt lat="64.83447" lon="20.9862">
        <ele>4.091128</ele>
        <time>2020-08-28T10:44:45.309Z</time>
      </trkpt>
      <trkpt lat="64.83418" lon="20.9866">
        <ele>3.548419</ele>
        <time>2020-08-28T10:44:51.019Z</time>
      </trkpt>
      <trkpt lat="64.83397" lon="20.98691">
        <ele>3.846669</ele>
        <time>2020-08-28T10:44:55.965Z</time>
      </trkpt>
      <trkpt lat="64.83315" lon="20.98798">
        <ele>4.958605</ele>
        <time>2020-08-28T10:45:17.891Z</time>
      </trkpt>
      <trkpt lat="64.83275" lon="20.98849">
        <ele>5.504885</ele>
        <time>2020-08-28T10:45:29.210Z</time>
      </trkpt>
      <trkpt lat="64.8327" lon="20.9885">
        <ele>5.563707</ele>
        <time>2020-08-28T10:45:30.479Z</time>
      </trkpt>
      <trkpt lat="64.83265" lon="20.98844">
        <ele>5.631274</ele>
        <time>2020-08-28T10:45:31.824Z</time>
      </trkpt>
      <trkpt lat="64.83262" lon="20.98849">
        <ele>5.705905</ele>
        <time>2020-08-28T10:45:32.905Z</time>
      </trkpt>
      <trkpt lat="64.8324" lon="20.98756">
        <ele>6.497087</ele>
        <time>2020-08-28T10:45:44.272Z</time>
      </trkpt>
      <trkpt lat="64.83234" lon="20.98726">
        <ele>6.743347</ele>
        <time>2020-08-28T10:45:47.744Z</time>
      </trkpt>
      <trkpt lat="64.83227" lon="20.9866">
        <ele>7.245753</ele>
        <time>2020-08-28T10:45:54.887Z</time>
      </trkpt>
      <trkpt lat="64.83221" lon="20.98664">
        <ele>7.347621</ele>
        <time>2020-08-28T10:45:56.271Z</time>
      </trkpt>
      <trkpt lat="64.83207" lon="20.98681">
        <ele>7.632696</ele>
        <time>2020-08-28T10:46:00.229Z</time>
      </trkpt>
      <trkpt lat="64.83188" lon="20.98706">
        <ele>8.009025</ele>
        <time>2020-08-28T10:46:05.178Z</time>
      </trkpt>
      <trkpt lat="64.83176" lon="20.98722">
        <ele>8.253986</ele>
        <time>2020-08-28T10:46:08.487Z</time>
      </trkpt>
      <trkpt lat="64.83141" lon="20.98769">
        <ele>8.822745</ele>
        <time>2020-08-28T10:46:17.333Z</time>
      </trkpt>
      <trkpt lat="64.83116" lon="20.98799">
        <ele>8.991798</ele>
        <time>2020-08-28T10:46:23.273Z</time>
      </trkpt>
      <trkpt lat="64.83098" lon="20.98812">
        <ele>9.10682</ele>
        <time>2020-08-28T10:46:27.131Z</time>
      </trkpt>
      <trkpt lat="64.8309" lon="20.98816">
        <ele>9.155305</ele>
        <time>2020-08-28T10:46:28.720Z</time>
      </trkpt>
      <trkpt lat="64.8308" lon="20.98822">
        <ele>9.219049</ele>
        <time>2020-08-28T10:46:30.908Z</time>
      </trkpt>
      <trkpt lat="64.83038" lon="20.98843">
        <ele>9.47403</ele>
        <time>2020-08-28T10:46:38.988Z</time>
      </trkpt>
      <trkpt lat="64.82982" lon="20.98845">
        <ele>9.812596</ele>
        <time>2020-08-28T10:46:49.091Z</time>
      </trkpt>
      <trkpt lat="64.82966" lon="20.98842">
        <ele>9.90285</ele>
        <time>2020-08-28T10:46:52.000Z</time>
      </trkpt>
      <trkpt lat="64.82897" lon="20.98833">
        <ele>10.273766</ele>
        <time>2020-08-28T10:47:04.901Z</time>
      </trkpt>
      <trkpt lat="64.82856" lon="20.98828">
        <ele>10.492792</ele>
        <time>2020-08-28T10:47:12.911Z</time>
      </trkpt>
      <trkpt lat="64.82819" lon="20.98821">
        <ele>10.689519</ele>
        <time>2020-08-28T10:47:20.356Z</time>
      </trkpt>
      <trkpt lat="64.82785" lon="20.98811">
        <ele>11.101681</ele>
        <time>2020-08-28T10:47:27.525Z</time>
      </trkpt>
      <trkpt lat="64.82761" lon="20.98796">
        <ele>11.65079</ele>
        <time>2020-08-28T10:47:32.973Z</time>
      </trkpt>
      <trkpt lat="64.82707" lon="20.98738">
        <ele>12.9775</ele>
        <time>2020-08-28T10:47:47.111Z</time>
      </trkpt>
      <trkpt lat="64.82646" lon="20.98615">
        <ele>14.755848</ele>
        <time>2020-08-28T10:48:08.807Z</time>
      </trkpt>
      <trkpt lat="64.8263" lon="20.98555">
        <ele>16.258155</ele>
        <time>2020-08-28T10:48:17.489Z</time>
      </trkpt>
      <trkpt lat="64.82602" lon="20.98453">
        <ele>18.927382</ele>
        <time>2020-08-28T10:48:34.233Z</time>
      </trkpt>
      <trkpt lat="64.82592" lon="20.9842">
        <ele>19.806618</ele>
        <time>2020-08-28T10:48:40.212Z</time>
      </trkpt>
      <trkpt lat="64.82583" lon="20.98388">
        <ele>20.650826</ele>
        <time>2020-08-28T10:48:46.185Z</time>
      </trkpt>
      <trkpt lat="64.82561" lon="20.98325">
        <ele>22.407005</ele>
        <time>2020-08-28T10:48:58.904Z</time>
      </trkpt>
      <trkpt lat="64.82531" lon="20.98254">
        <ele>24.851139</ele>
        <time>2020-08-28T10:49:15.703Z</time>
      </trkpt>
      <trkpt lat="64.82502" lon="20.98192">
        <ele>27.660616</ele>
        <time>2020-08-28T10:49:31.458Z</time>
      </trkpt>
      <trkpt lat="64.82393" lon="20.97985">
        <ele>37.658698</ele>
        <time>2020-08-28T10:50:30.188Z</time>
      </trkpt>
      <trkpt lat="64.82289" lon="20.97887">
        <ele>45.056184</ele>
        <time>2020-08-28T10:51:14.229Z</time>
      </trkpt>
      <trkpt lat="64.82152" lon="20.97717">
        <ele>53.701716</ele>
        <time>2020-08-28T10:52:11.600Z</time>
      </trkpt>
      <trkpt lat="64.82106" lon="20.97655">
        <ele>56.364473</ele>
        <time>2020-08-28T10:52:28.615Z</time>
      </trkpt>
      <trkpt lat="64.82093" lon="20.97628">
        <ele>57.237618</ele>
        <time>2020-08-28T10:52:33.861Z</time>
      </trkpt>
      <trkpt lat="64.82025" lon="20.97521">
        <ele>58.929449</ele>
        <time>2020-08-28T10:52:55.891Z</time>
      </trkpt>
      <trkpt lat="64.81986" lon="20.97497">
        <ele>59.557752</ele>
        <time>2020-08-28T10:53:05.122Z</time>
      </trkpt>
      <trkpt lat="64.81945" lon="20.97489">
        <ele>60.205488</ele>
        <time>2020-08-28T10:53:13.095Z</time>
      </trkpt>
      <trkpt lat="64.81911" lon="20.97472">
        <ele>60.596598</ele>
        <time>2020-08-28T10:53:19.071Z</time>
      </trkpt>
      <trkpt lat="64.81875" lon="20.97435">
        <ele>60.192439</ele>
        <time>2020-08-28T10:53:25.624Z</time>
      </trkpt>
      <trkpt lat="64.81807" lon="20.97344">
        <ele>59.397798</ele>
        <time>2020-08-28T10:53:37.567Z</time>
      </trkpt>
      <trkpt lat="64.81665" lon="20.97206">
        <ele>57.310703</ele>
        <time>2020-08-28T10:53:59.771Z</time>
      </trkpt>
      <trkpt lat="64.81565" lon="20.97041">
        <ele>55.80737</ele>
        <time>2020-08-28T10:54:17.896Z</time>
      </trkpt>
      <trkpt lat="64.81528" lon="20.97003">
        <ele>55.594153</ele>
        <time>2020-08-28T10:54:24.162Z</time>
      </trkpt>
      <trkpt lat="64.81412" lon="20.96941">
        <ele>55.245454</ele>
        <time>2020-08-28T10:54:45.151Z</time>
      </trkpt>
      <trkpt lat="64.8134" lon="20.96889">
        <ele>55.997085</ele>
        <time>2020-08-28T10:55:00.759Z</time>
      </trkpt>
      <trkpt lat="64.81096" lon="20.96682">
        <ele>59.241013</ele>
        <time>2020-08-28T10:55:59.172Z</time>
      </trkpt>
      <trkpt lat="64.81043" lon="20.96619">
        <ele>59.650248</ele>
        <time>2020-08-28T10:56:11.582Z</time>
      </trkpt>
      <trkpt lat="64.80977" lon="20.96521">
        <ele>60.133623</ele>
        <time>2020-08-28T10:56:26.868Z</time>
      </trkpt>
      <trkpt lat="64.80911" lon="20.96399">
        <ele>60.497721</ele>
        <time>2020-08-28T10:56:42.293Z</time>
      </trkpt>
      <trkpt lat="64.80846" lon="20.96244">
        <ele>60.67149</ele>
        <time>2020-08-28T10:56:59.125Z</time>
      </trkpt>
      <trkpt lat="64.80734" lon="20.95872">
        <ele>61.120081</ele>
        <time>2020-08-28T10:57:35.665Z</time>
      </trkpt>
      <trkpt lat="64.80705" lon="20.95811">
        <ele>61.19943</ele>
        <time>2020-08-28T10:57:42.920Z</time>
      </trkpt>
      <trkpt lat="64.80676" lon="20.95761">
        <ele>60.919173</ele>
        <time>2020-08-28T10:57:49.303Z</time>
      </trkpt>
      <trkpt lat="64.80638" lon="20.95729">
        <ele>60.605136</ele>
        <time>2020-08-28T10:57:56.167Z</time>
      </trkpt>
      <trkpt lat="64.80521" lon="20.95708">
        <ele>59.315412</ele>
        <time>2020-08-28T10:58:14.150Z</time>
      </trkpt>
      <trkpt lat="64.80486" lon="20.95686">
        <ele>58.193434</ele>
        <time>2020-08-28T10:58:19.133Z</time>
      </trkpt>
      <trkpt lat="64.80457" lon="20.95653">
        <ele>57.217805</ele>
        <time>2020-08-28T10:58:23.307Z</time>
      </trkpt>
      <trkpt lat="64.80426" lon="20.9559">
        <ele>55.941804</ele>
        <time>2020-08-28T10:58:28.659Z</time>
      </trkpt>
      <trkpt lat="64.80321" lon="20.95311">
        <ele>49.727254</ele>
        <time>2020-08-28T10:58:48.327Z</time>
      </trkpt>
      <trkpt lat="64.80299" lon="20.95274">
        <ele>48.556954</ele>
        <time>2020-08-28T10:58:51.624Z</time>
      </trkpt>
      <trkpt lat="64.80204" lon="20.95153">
        <ele>44.581806</ele>
        <time>2020-08-28T10:59:05.167Z</time>
      </trkpt>
      <trkpt lat="64.80139" lon="20.95012">
        <ele>41.823325</ele>
        <time>2020-08-28T10:59:16.992Z</time>
      </trkpt>
      <trkpt lat="64.80116" lon="20.94958">
        <ele>40.82915</ele>
        <time>2020-08-28T10:59:21.477Z</time>
      </trkpt>
      <trkpt lat="64.80081" lon="20.94896">
        <ele>40.019825</ele>
        <time>2020-08-28T10:59:27.814Z</time>
      </trkpt>
      <trkpt lat="64.79958" lon="20.94791">
        <ele>37.61588</ele>
        <time>2020-08-28T10:59:46.976Z</time>
      </trkpt>
      <trkpt lat="64.79788" lon="20.94607">
        <ele>32.394022</ele>
        <time>2020-08-28T11:00:12.214Z</time>
      </trkpt>
      <trkpt lat="64.79662" lon="20.94497">
        <ele>26.735035</ele>
        <time>2020-08-28T11:00:28.828Z</time>
      </trkpt>
      <trkpt lat="64.79654" lon="20.9449">
        <ele>26.398711</ele>
        <time>2020-08-28T11:00:29.731Z</time>
      </trkpt>
      <trkpt lat="64.79586" lon="20.94424">
        <ele>23.987474</ele>
        <time>2020-08-28T11:00:39.027Z</time>
      </trkpt>
      <trkpt lat="64.79524" lon="20.94343">
        <ele>22.287803</ele>
        <time>2020-08-28T11:00:48.271Z</time>
      </trkpt>
      <trkpt lat="64.79318" lon="20.93985">
        <ele>19.504053</ele>
        <time>2020-08-28T11:01:29.973Z</time>
      </trkpt>
      <trkpt lat="64.79242" lon="20.93886">
        <ele>19.352935</ele>
        <time>2020-08-28T11:01:44.898Z</time>
      </trkpt>
      <trkpt lat="64.79088" lon="20.93738">
        <ele>19.339015</ele>
        <time>2020-08-28T11:02:14.666Z</time>
      </trkpt>
      <trkpt lat="64.79035" lon="20.93663">
        <ele>19.44511</ele>
        <time>2020-08-28T11:02:25.922Z</time>
      </trkpt>
      <trkpt lat="64.78993" lon="20.93582">
        <ele>19.641951</ele>
        <time>2020-08-28T11:02:36.093Z</time>
      </trkpt>
      <trkpt lat="64.78912" lon="20.93363">
        <ele>20.660463</ele>
        <time>2020-08-28T11:03:01.231Z</time>
      </trkpt>
      <trkpt lat="64.78896" lon="20.93329">
        <ele>20.840393</ele>
        <time>2020-08-28T11:03:05.875Z</time>
      </trkpt>
      <trkpt lat="64.78875" lon="20.93289">
        <ele>21.163804</ele>
        <time>2020-08-28T11:03:11.882Z</time>
      </trkpt>
      <trkpt lat="64.78826" lon="20.93231">
        <ele>22.246382</ele>
        <time>2020-08-28T11:03:24.190Z</time>
      </trkpt>
      <trkpt lat="64.78763" lon="20.93191">
        <ele>23.554318</ele>
        <time>2020-08-28T11:03:40.081Z</time>
      </trkpt>
      <trkpt lat="64.78657" lon="20.93154">
        <ele>26.409347</ele>
        <time>2020-08-28T11:04:08.324Z</time>
      </trkpt>
      <trkpt lat="64.78602" lon="20.93115">
        <ele>28.268246</ele>
        <time>2020-08-28T11:04:24.507Z</time>
      </trkpt>
      <trkpt lat="64.78563" lon="20.93067">
        <ele>29.704853</ele>
        <time>2020-08-28T11:04:37.501Z</time>
      </trkpt>
      <trkpt lat="64.78456" lon="20.92886">
        <ele>35.033414</ele>
        <time>2020-08-28T11:05:18.566Z</time>
      </trkpt>
      <trkpt lat="64.78374" lon="20.92693">
        <ele>39.935545</ele>
        <time>2020-08-28T11:05:55.708Z</time>
      </trkpt>
      <trkpt lat="64.78333" lon="20.9261">
        <ele>42.227467</ele>
        <time>2020-08-28T11:06:12.807Z</time>
      </trkpt>
      <trkpt lat="64.7827" lon="20.92541">
        <ele>45.136996</ele>
        <time>2020-08-28T11:06:34.175Z</time>
      </trkpt>
      <trkpt lat="64.78238" lon="20.92528">
        <ele>46.470244</ele>
        <time>2020-08-28T11:06:44.443Z</time>
      </trkpt>
      <trkpt lat="64.78141" lon="20.92533">
        <ele>50.186512</ele>
        <time>2020-08-28T11:07:13.560Z</time>
      </trkpt>
      <trkpt lat="64.78091" lon="20.92515">
        <ele>52.153118</ele>
        <time>2020-08-28T11:07:28.767Z</time>
      </trkpt>
      <trkpt lat="64.78031" lon="20.92457">
        <ele>54.380401</ele>
        <time>2020-08-28T11:07:48.060Z</time>
      </trkpt>
      <trkpt lat="64.77951" lon="20.92334">
        <ele>57.550861</ele>
        <time>2020-08-28T11:08:15.266Z</time>
      </trkpt>
      <trkpt lat="64.77913" lon="20.92288">
        <ele>58.823675</ele>
        <time>2020-08-28T11:08:26.707Z</time>
      </trkpt>
      <trkpt lat="64.77874" lon="20.92269">
        <ele>59.725221</ele>
        <time>2020-08-28T11:08:37.163Z</time>
      </trkpt>
      <trkpt lat="64.77848" lon="20.92274">
        <ele>60.33139</ele>
        <time>2020-08-28T11:08:44.034Z</time>
      </trkpt>
      <trkpt lat="64.77693" lon="20.92388">
        <ele>63.411353</ele>
        <time>2020-08-28T11:09:23.163Z</time>
      </trkpt>
      <trkpt lat="64.77634" lon="20.92396">
        <ele>64.171672</ele>
        <time>2020-08-28T11:09:36.055Z</time>
      </trkpt>
      <trkpt lat="64.77617" lon="20.92389">
        <ele>64.401152</ele>
        <time>2020-08-28T11:09:39.906Z</time>
      </trkpt>
      <trkpt lat="64.7758" lon="20.92373">
        <ele>64.886327</ele>
        <time>2020-08-28T11:09:47.530Z</time>
      </trkpt>
      <trkpt lat="64.77528" lon="20.92325">
        <ele>64.701915</ele>
        <time>2020-08-28T11:09:58.174Z</time>
      </trkpt>
      <trkpt lat="64.77349" lon="20.92013">
        <ele>62.174963</ele>
        <time>2020-08-28T11:10:32.952Z</time>
      </trkpt>
      <trkpt lat="64.77246" lon="20.91862">
        <ele>58.57997</ele>
        <time>2020-08-28T11:10:48.931Z</time>
      </trkpt>
      <trkpt lat="64.77183" lon="20.91789">
        <ele>54.917352</ele>
        <time>2020-08-28T11:10:57.279Z</time>
      </trkpt>
      <trkpt lat="64.77129" lon="20.91729">
        <ele>51.747752</ele>
        <time>2020-08-28T11:11:04.397Z</time>
      </trkpt>
      <trkpt lat="64.77101" lon="20.91698">
        <ele>49.990371</ele>
        <time>2020-08-28T11:11:07.918Z</time>
      </trkpt>
      <trkpt lat="64.77068" lon="20.91643">
        <ele>47.482316</ele>
        <time>2020-08-28T11:11:12.620Z</time>
      </trkpt>
      <trkpt lat="64.77032" lon="20.91525">
        <ele>43.632624</ele>
        <time>2020-08-28T11:11:19.776Z</time>
      </trkpt>
      <trkpt lat="64.76987" lon="20.91277">
        <ele>37.057626</ele>
        <time>2020-08-28T11:11:33.450Z</time>
      </trkpt>
      <trkpt lat="64.76964" lon="20.9119">
        <ele>34.785989</ele>
        <time>2020-08-28T11:11:38.757Z</time>
      </trkpt>
      <trkpt lat="64.76952" lon="20.9115">
        <ele>33.703364</ele>
        <time>2020-08-28T11:11:41.321Z</time>
      </trkpt>
      <trkpt lat="64.76928" lon="20.91075">
        <ele>31.64333</ele>
        <time>2020-08-28T11:11:46.203Z</time>
      </trkpt>
      <trkpt lat="64.7692" lon="20.91048">
        <ele>30.929224</ele>
        <time>2020-08-28T11:11:47.852Z</time>
      </trkpt>
      <trkpt lat="64.76924" lon="20.91041">
        <ele>30.671125</ele>
        <time>2020-08-28T11:11:48.521Z</time>
      </trkpt>
      <trkpt lat="64.76898" lon="20.90931">
        <ele>28.341944</ele>
        <time>2020-08-28T11:11:55.076Z</time>
      </trkpt>
      <trkpt lat="64.76864" lon="20.90835">
        <ele>26.068794</ele>
        <time>2020-08-28T11:12:01.595Z</time>
      </trkpt>
      <trkpt lat="64.76843" lon="20.90775">
        <ele>24.651227</ele>
        <time>2020-08-28T11:12:05.692Z</time>
      </trkpt>
      <trkpt lat="64.76764" lon="20.90608">
        <ele>21.212422</ele>
        <time>2020-08-28T11:12:19.556Z</time>
      </trkpt>
      <trkpt lat="64.76748" lon="20.90582">
        <ele>20.726046</ele>
        <time>2020-08-28T11:12:22.114Z</time>
      </trkpt>
      <trkpt lat="64.76709" lon="20.9055">
        <ele>19.676612</ele>
        <time>2020-08-28T11:12:27.824Z</time>
      </trkpt>
      <trkpt lat="64.76649" lon="20.90531">
        <ele>18.28607</ele>
        <time>2020-08-28T11:12:36.566Z</time>
      </trkpt>
      <trkpt lat="64.76636" lon="20.90534">
        <ele>18.225605</ele>
        <time>2020-08-28T11:12:38.592Z</time>
      </trkpt>
      <trkpt lat="64.76628" lon="20.90539">
        <ele>18.192262</ele>
        <time>2020-08-28T11:12:39.786Z</time>
      </trkpt>
      <trkpt lat="64.76559" lon="20.90565">
        <ele>17.883578</ele>
        <time>2020-08-28T11:12:51.136Z</time>
      </trkpt>
      <trkpt lat="64.76503" lon="20.90591">
        <ele>17.63377</ele>
        <time>2020-08-28T11:13:01.278Z</time>
      </trkpt>
      <trkpt lat="64.76487" lon="20.90605">
        <ele>17.557969</ele>
        <time>2020-08-28T11:13:04.417Z</time>
      </trkpt>
      <trkpt lat="64.76452" lon="20.90648">
        <ele>17.69408</ele>
        <time>2020-08-28T11:13:12.376Z</time>
      </trkpt>
      <trkpt lat="64.76438" lon="20.90664">
        <ele>17.779168</ele>
        <time>2020-08-28T11:13:15.413Z</time>
      </trkpt>
      <trkpt lat="64.76442" lon="20.90684">
        <ele>17.829299</ele>
        <time>2020-08-28T11:13:17.235Z</time>
      </trkpt>
      <trkpt lat="64.76448" lon="20.9072">
        <ele>17.922518</ele>
        <time>2020-08-28T11:13:20.466Z</time>
      </trkpt>
      <trkpt lat="64.7645" lon="20.90759">
        <ele>18.017342</ele>
        <time>2020-08-28T11:13:23.945Z</time>
      </trkpt>
      <trkpt lat="64.76438" lon="20.90843">
        <ele>18.230069</ele>
        <time>2020-08-28T11:13:31.582Z</time>
      </trkpt>
      <trkpt lat="64.76432" lon="20.90858">
        <ele>18.280435</ele>
        <time>2020-08-28T11:13:33.346Z</time>
      </trkpt>
      <trkpt lat="64.76412" lon="20.90903">
        <ele>18.434239</ele>
        <time>2020-08-28T11:13:38.809Z</time>
      </trkpt>
      <trkpt lat="64.76337" lon="20.91091">
        <ele>18.559881</ele>
        <time>2020-08-28T11:13:59.696Z</time>
      </trkpt>
      <trkpt lat="64.76319" lon="20.91127">
        <ele>18.56709</ele>
        <time>2020-08-28T11:14:03.816Z</time>
      </trkpt>
      <trkpt lat="64.76301" lon="20.91155">
        <ele>18.573658</ele>
        <time>2020-08-28T11:14:07.349Z</time>
      </trkpt>
      <trkpt lat="64.762" lon="20.91326">
        <ele>18.345333</ele>
        <time>2020-08-28T11:14:27.867Z</time>
      </trkpt>
      <trkpt lat="64.76174" lon="20.91376">
        <ele>18.246582</ele>
        <time>2020-08-28T11:14:33.550Z</time>
      </trkpt>
      <trkpt lat="64.76153" lon="20.91411">
        <ele>18.172322</ele>
        <time>2020-08-28T11:14:37.972Z</time>
      </trkpt>
      <trkpt lat="64.76133" lon="20.91449">
        <ele>18.095967</ele>
        <time>2020-08-28T11:14:42.483Z</time>
      </trkpt>
      <trkpt lat="64.76124" lon="20.91465">
        <ele>18.061748</ele>
        <time>2020-08-28T11:14:44.743Z</time>
      </trkpt>
      <trkpt lat="64.76097" lon="20.91528">
        <ele>18.143173</ele>
        <time>2020-08-28T11:14:51.650Z</time>
      </trkpt>
      <trkpt lat="64.76084" lon="20.91576">
        <ele>18.198576</ele>
        <time>2020-08-28T11:14:56.120Z</time>
      </trkpt>
      <trkpt lat="64.76051" lon="20.91739">
        <ele>18.371424</ele>
        <time>2020-08-28T11:15:10.779Z</time>
      </trkpt>
      <trkpt lat="64.76041" lon="20.91786">
        <ele>18.421683</ele>
        <time>2020-08-28T11:15:15.151Z</time>
      </trkpt>
      <trkpt lat="64.75915" lon="20.92377">
        <ele>18.595858</ele>
        <time>2020-08-28T11:16:06.050Z</time>
      </trkpt>
      <trkpt lat="64.75909" lon="20.92442">
        <ele>18.580509</ele>
        <time>2020-08-28T11:16:10.953Z</time>
      </trkpt>
      <trkpt lat="64.75915" lon="20.92589">
        <ele>18.546377</ele>
        <time>2020-08-28T11:16:21.956Z</time>
      </trkpt>
      <trkpt lat="64.75915" lon="20.92612">
        <ele>18.547273</ele>
        <time>2020-08-28T11:16:23.505Z</time>
      </trkpt>
      <trkpt lat="64.75911" lon="20.92728">
        <ele>18.59516</ele>
        <time>2020-08-28T11:16:32.359Z</time>
      </trkpt>
      <trkpt lat="64.75895" lon="20.92775">
        <ele>18.619447</ele>
        <time>2020-08-28T11:16:36.751Z</time>
      </trkpt>
      <trkpt lat="64.75887" lon="20.928">
        <ele>18.632578</ele>
        <time>2020-08-28T11:16:39.340Z</time>
      </trkpt>
      <trkpt lat="64.75865" lon="20.92831">
        <ele>18.657077</ele>
        <time>2020-08-28T11:16:43.873Z</time>
      </trkpt>
      <trkpt lat="64.75835" lon="20.9288">
        <ele>18.692559</ele>
        <time>2020-08-28T11:16:50.575Z</time>
      </trkpt>
      <trkpt lat="64.75829" lon="20.92899">
        <ele>18.701945</ele>
        <time>2020-08-28T11:16:52.437Z</time>
      </trkpt>
      <trkpt lat="64.75808" lon="20.92903">
        <ele>18.791662</ele>
        <time>2020-08-28T11:16:56.337Z</time>
      </trkpt>
      <trkpt lat="64.75786" lon="20.92909">
        <ele>19.071937</ele>
        <time>2020-08-28T11:17:00.782Z</time>
      </trkpt>
      <trkpt lat="64.75768" lon="20.92916">
        <ele>19.299974</ele>
        <time>2020-08-28T11:17:04.473Z</time>
      </trkpt>
      <trkpt lat="64.75716" lon="20.93078">
        <ele>20.369651</ele>
        <time>2020-08-28T11:17:23.501Z</time>
      </trkpt>
      <trkpt lat="64.75589" lon="20.93679">
        <ele>24.846714</ele>
        <time>2020-08-28T11:18:32.588Z</time>
      </trkpt>
      <trkpt lat="64.75583" lon="20.93716">
        <ele>24.965547</ele>
        <time>2020-08-28T11:18:36.314Z</time>
      </trkpt>
      <trkpt lat="64.75546" lon="20.93954">
        <ele>25.647083</ele>
        <time>2020-08-28T11:18:55.929Z</time>
      </trkpt>
      <trkpt lat="64.7553" lon="20.94265">
        <ele>24.002855</ele>
        <time>2020-08-28T11:19:15.894Z</time>
      </trkpt>
      <trkpt lat="64.75504" lon="20.94497">
        <ele>22.584539</ele>
        <time>2020-08-28T11:19:30.807Z</time>
      </trkpt>
      <trkpt lat="64.75489" lon="20.9458">
        <ele>22.004899</ele>
        <time>2020-08-28T11:19:36.544Z</time>
      </trkpt>
      <trkpt lat="64.75485" lon="20.94597">
        <ele>21.884114</ele>
        <time>2020-08-28T11:19:37.654Z</time>
      </trkpt>
      <trkpt lat="64.75482" lon="20.94633">
        <ele>21.651277</ele>
        <time>2020-08-28T11:19:40.024Z</time>
      </trkpt>
      <trkpt lat="64.75479" lon="20.9466">
        <ele>21.475477</ele>
        <time>2020-08-28T11:19:41.831Z</time>
      </trkpt>
      <trkpt lat="64.75462" lon="20.94804">
        <ele>20.587353</ele>
        <time>2020-08-28T11:19:51.370Z</time>
      </trkpt>
      <trkpt lat="64.75452" lon="20.94905">
        <ele>20.088045</ele>
        <time>2020-08-28T11:19:58.034Z</time>
      </trkpt>
      <trkpt lat="64.75427" lon="20.95176">
        <ele>18.743865</ele>
        <time>2020-08-28T11:20:16.262Z</time>
      </trkpt>
      <trkpt lat="64.75408" lon="20.9538">
        <ele>17.807615</ele>
        <time>2020-08-28T11:20:30.221Z</time>
      </trkpt>
      <trkpt lat="64.7539" lon="20.95538">
        <ele>17.076291</ele>
        <time>2020-08-28T11:20:40.829Z</time>
      </trkpt>
      <trkpt lat="64.75377" lon="20.95684">
        <ele>16.300011</ele>
        <time>2020-08-28T11:20:50.493Z</time>
      </trkpt>
      <trkpt lat="64.75362" lon="20.95824">
        <ele>15.49822</ele>
        <time>2020-08-28T11:20:59.722Z</time>
      </trkpt>
      <trkpt lat="64.75349" lon="20.9595">
        <ele>14.786742</ele>
        <time>2020-08-28T11:21:08.020Z</time>
      </trkpt>
      <trkpt lat="64.75352" lon="20.95974">
        <ele>14.645857</ele>
        <time>2020-08-28T11:21:09.537Z</time>
      </trkpt>
      <trkpt lat="64.75353" lon="20.95979">
        <ele>14.611627</ele>
        <time>2020-08-28T11:21:09.895Z</time>
      </trkpt>
      <trkpt lat="64.75352" lon="20.95988">
        <ele>14.555013</ele>
        <time>2020-08-28T11:21:10.554Z</time>
      </trkpt>
      <trkpt lat="64.75351" lon="20.96004">
        <ele>14.476204</ele>
        <time>2020-08-28T11:21:11.656Z</time>
      </trkpt>
      <trkpt lat="64.75352" lon="20.96025">
        <ele>14.375884</ele>
        <time>2020-08-28T11:21:13.071Z</time>
      </trkpt>
      <trkpt lat="64.75352" lon="20.96035">
        <ele>14.331301</ele>
        <time>2020-08-28T11:21:13.660Z</time>
      </trkpt>
      <trkpt lat="64.75349" lon="20.9604">
        <ele>14.28803</ele>
        <time>2020-08-28T11:21:14.161Z</time>
      </trkpt>
      <trkpt lat="64.75334" lon="20.96094">
        <ele>13.981865</ele>
        <time>2020-08-28T11:21:18.291Z</time>
      </trkpt>
      <trkpt lat="64.75331" lon="20.9612">
        <ele>13.85019</ele>
        <time>2020-08-28T11:21:19.952Z</time>
      </trkpt>
      <trkpt lat="64.75329" lon="20.96139">
        <ele>13.758234</ele>
        <time>2020-08-28T11:21:21.142Z</time>
      </trkpt>
      <trkpt lat="64.75326" lon="20.96179">
        <ele>13.56271</ele>
        <time>2020-08-28T11:21:24.054Z</time>
      </trkpt>
      <trkpt lat="64.75325" lon="20.96196">
        <ele>13.481168</ele>
        <time>2020-08-28T11:21:25.088Z</time>
      </trkpt>
      <trkpt lat="64.75324" lon="20.96204">
        <ele>13.442944</ele>
        <time>2020-08-28T11:21:25.580Z</time>
      </trkpt>
      <trkpt lat="64.75324" lon="20.96243">
        <ele>13.260736</ele>
        <time>2020-08-28T11:21:28.139Z</time>
      </trkpt>
      <trkpt lat="64.7533" lon="20.96272">
        <ele>13.109792</ele>
        <time>2020-08-28T11:21:30.288Z</time>
      </trkpt>
      <trkpt lat="64.75333" lon="20.96282">
        <ele>13.049397</ele>
        <time>2020-08-28T11:21:31.049Z</time>
      </trkpt>
      <trkpt lat="64.75331" lon="20.9629">
        <ele>13.007268</ele>
        <time>2020-08-28T11:21:31.589Z</time>
      </trkpt>
      <trkpt lat="64.75331" lon="20.96318">
        <ele>12.872464</ele>
        <time>2020-08-28T11:21:33.558Z</time>
      </trkpt>
      <trkpt lat="64.7533" lon="20.9633">
        <ele>12.818996</ele>
        <time>2020-08-28T11:21:34.380Z</time>
      </trkpt>
      <trkpt lat="64.75329" lon="20.96351">
        <ele>12.718327</ele>
        <time>2020-08-28T11:21:35.811Z</time>
      </trkpt>
      <trkpt lat="64.75328" lon="20.96377">
        <ele>12.589865</ele>
        <time>2020-08-28T11:21:37.462Z</time>
      </trkpt>
      <trkpt lat="64.75305" lon="20.96728">
        <ele>12.232461</ele>
        <time>2020-08-28T11:22:03.092Z</time>
      </trkpt>
      <trkpt lat="64.75295" lon="20.96855">
        <ele>12.383626</ele>
        <time>2020-08-28T11:22:13.681Z</time>
      </trkpt>
      <trkpt lat="64.75287" lon="20.9696">
        <ele>12.868351</ele>
        <time>2020-08-28T11:22:22.935Z</time>
      </trkpt>
      <trkpt lat="64.75277" lon="20.97238">
        <ele>14.079532</ele>
        <time>2020-08-28T11:22:49.994Z</time>
      </trkpt>
      <trkpt lat="64.75285" lon="20.97334">
        <ele>14.052753</ele>
        <time>2020-08-28T11:22:58.495Z</time>
      </trkpt>
      <trkpt lat="64.75292" lon="20.97352">
        <ele>14.045917</ele>
        <time>2020-08-28T11:23:00.721Z</time>
      </trkpt>
      <trkpt lat="64.75293" lon="20.97377">
        <ele>14.038852</ele>
        <time>2020-08-28T11:23:02.703Z</time>
      </trkpt>
      <trkpt lat="64.75289" lon="20.97422">
        <ele>14.026198</ele>
        <time>2020-08-28T11:23:06.191Z</time>
      </trkpt>
      <trkpt lat="64.75283" lon="20.97463">
        <ele>14.01423</ele>
        <time>2020-08-28T11:23:09.427Z</time>
      </trkpt>
      <trkpt lat="64.75277" lon="20.97524">
        <ele>13.99704</ele>
        <time>2020-08-28T11:23:13.931Z</time>
      </trkpt>
      <trkpt lat="64.75253" lon="20.97512">
        <ele>13.981418</ele>
        <time>2020-08-28T11:23:17.787Z</time>
      </trkpt>
      <trkpt lat="64.75238" lon="20.97502">
        <ele>13.971077</ele>
        <time>2020-08-28T11:23:20.426Z</time>
      </trkpt>
      <trkpt lat="64.75222" lon="20.97449">
        <ele>13.589808</ele>
        <time>2020-08-28T11:23:24.668Z</time>
      </trkpt>
      <trkpt lat="64.75216" lon="20.97381">
        <ele>13.050087</ele>
        <time>2020-08-28T11:23:29.108Z</time>
      </trkpt>
      <trkpt lat="64.75209" lon="20.97357">
        <ele>12.817851</ele>
        <time>2020-08-28T11:23:30.994Z</time>
      </trkpt>
      <trkpt lat="64.75196" lon="20.97347">
        <ele>12.570087</ele>
        <time>2020-08-28T11:23:32.935Z</time>
      </trkpt>
      <trkpt lat="64.7513" lon="20.97298">
        <ele>11.304721</ele>
        <time>2020-08-28T11:23:42.976Z</time>
      </trkpt>
      <trkpt lat="64.75118" lon="20.97298">
        <ele>11.100483</ele>
        <time>2020-08-28T11:23:44.623Z</time>
      </trkpt>
      <trkpt lat="64.75102" lon="20.97303">
        <ele>10.80705</ele>
        <time>2020-08-28T11:23:47.055Z</time>
      </trkpt>
      <trkpt lat="64.75102" lon="20.97294">
        <ele>10.734138</ele>
        <time>2020-08-28T11:23:47.700Z</time>
      </trkpt>
      <trkpt lat="64.75096" lon="20.97295">
        <ele>10.669144</ele>
        <time>2020-08-28T11:23:48.575Z</time>
      </trkpt>
      <trkpt lat="64.75094" lon="20.97252">
        <ele>10.55977</ele>
        <time>2020-08-28T11:23:51.536Z</time>
      </trkpt>
      <trkpt lat="64.75077" lon="20.97254">
        <ele>10.460488</ele>
        <time>2020-08-28T11:23:54.238Z</time>
      </trkpt>
      <trkpt lat="64.75043" lon="20.97265">
        <ele>10.260898</ele>
        <time>2020-08-28T11:23:59.792Z</time>
      </trkpt>
      <trkpt lat="64.75016" lon="20.97274">
        <ele>10.098922</ele>
        <time>2020-08-28T11:24:04.547Z</time>
      </trkpt>
      <trkpt lat="64.7501" lon="20.97276">
        <ele>10.063928</ele>
        <time>2020-08-28T11:24:05.628Z</time>
      </trkpt>
      <trkpt lat="64.74907" lon="20.97308">
        <ele>9.682825</ele>
        <time>2020-08-28T11:24:25.001Z</time>
      </trkpt>
      <trkpt lat="64.74875" lon="20.97318">
        <ele>9.738114</ele>
        <time>2020-08-28T11:24:31.277Z</time>
      </trkpt>
      <trkpt lat="64.74844" lon="20.97327">
        <ele>9.791345</ele>
        <time>2020-08-28T11:24:37.410Z</time>
      </trkpt>
      <trkpt lat="64.74819" lon="20.97332">
        <ele>9.83312</ele>
        <time>2020-08-28T11:24:42.155Z</time>
      </trkpt>
      <trkpt lat="64.74824" lon="20.97365">
        <ele>9.858235</ele>
        <time>2020-08-28T11:24:45.012Z</time>
      </trkpt>
      <trkpt lat="64.74831" lon="20.97519">
        <ele>9.944315</ele>
        <time>2020-08-28T11:24:57.636Z</time>
      </trkpt>
      <trkpt lat="64.74842" lon="20.97571">
        <ele>9.95283</ele>
        <time>2020-08-28T11:25:02.243Z</time>
      </trkpt>
      <trkpt lat="64.74844" lon="20.97589">
        <ele>9.955582</ele>
        <time>2020-08-28T11:25:03.713Z</time>
      </trkpt>
      <trkpt lat="64.74846" lon="20.9763">
        <ele>9.961641</ele>
        <time>2020-08-28T11:25:06.962Z</time>
      </trkpt>
      <trkpt lat="64.74853" lon="20.97761">
        <ele>9.981269</ele>
        <time>2020-08-28T11:25:17.492Z</time>
      </trkpt>
      <trkpt lat="64.74813" lon="20.97745">
        <ele>9.995347</ele>
        <time>2020-08-28T11:25:25.026Z</time>
      </trkpt>
      <trkpt lat="64.74685" lon="20.97697">
        <ele>10.000012</ele>
        <time>2020-08-28T11:26:03.424Z</time>
      </trkpt>
      <trkpt lat="64.7468" lon="20.97695">
        <ele>10.000012</ele>
        <time>2020-08-28T11:26:04.423Z</time>
      </trkpt>
      <trkpt lat="64.74638" lon="20.97678">
        <ele>10.000012</ele>
        <time>2020-08-28T11:26:12.233Z</time>
      </trkpt>
      <trkpt lat="64.74595" lon="20.97661">
        <ele>10.000012</ele>
        <time>2020-08-28T11:26:20.457Z</time>
      </trkpt>
      <trkpt lat="64.74593" lon="20.97687">
        <ele>10.000012</ele>
        <time>2020-08-28T11:26:22.625Z</time>
      </trkpt>
      <trkpt lat="64.74592" lon="20.97707">
        <ele>10.000012</ele>
        <time>2020-08-28T11:26:24.226Z</time>
      </trkpt>
      <trkpt lat="64.74586" lon="20.97777">
        <ele>10.000012</ele>
        <time>2020-08-28T11:26:29.824Z</time>
      </trkpt>
      <trkpt lat="64.74583" lon="20.97824">
        <ele>10.000012</ele>
        <time>2020-08-28T11:26:33.584Z</time>
      </trkpt>
      <trkpt lat="64.74533" lon="20.97805">
        <ele>10.000012</ele>
        <time>2020-08-28T11:26:42.967Z</time>
      </trkpt>
      <trkpt lat="64.74529" lon="20.97885">
        <ele>10.00036</ele>
        <time>2020-08-28T11:26:49.359Z</time>
      </trkpt>
      <trkpt lat="64.74504" lon="20.98243">
        <ele>10.018293</ele>
        <time>2020-08-28T11:27:18.259Z</time>
      </trkpt>
      <trkpt lat="64.74499" lon="20.98262">
        <ele>10.019404</ele>
        <time>2020-08-28T11:27:20.054Z</time>
      </trkpt>
      <trkpt lat="64.74498" lon="20.98276">
        <ele>10.020116</ele>
        <time>2020-08-28T11:27:21.198Z</time>
      </trkpt>
      <trkpt lat="64.74496" lon="20.98329">
        <ele>10.028044</ele>
        <time>2020-08-28T11:27:25.435Z</time>
      </trkpt>
      <trkpt lat="64.74498" lon="20.98383">
        <ele>10.038089</ele>
        <time>2020-08-28T11:27:29.695Z</time>
      </trkpt>
      <trkpt lat="64.74508" lon="20.9844">
        <ele>10.049784</ele>
        <time>2020-08-28T11:27:34.663Z</time>
      </trkpt>
      <trkpt lat="64.74515" lon="20.98474">
        <ele>10.056978</ele>
        <time>2020-08-28T11:27:37.725Z</time>
      </trkpt>
      <trkpt lat="64.74518" lon="20.98497">
        <ele>10.061453</ele>
        <time>2020-08-28T11:27:39.634Z</time>
      </trkpt>
      <trkpt lat="64.74522" lon="20.98681">
        <ele>10.095907</ele>
        <time>2020-08-28T11:27:54.219Z</time>
      </trkpt>
      <trkpt lat="64.74527" lon="20.98745">
        <ele>10.105426</ele>
        <time>2020-08-28T11:27:59.412Z</time>
      </trkpt>
      <trkpt lat="64.74552" lon="20.98888">
        <ele>10.124559</ele>
        <time>2020-08-28T11:28:11.631Z</time>
      </trkpt>
      <trkpt lat="64.74568" lon="20.98979">
        <ele>10.136756</ele>
        <time>2020-08-28T11:28:19.478Z</time>
      </trkpt>
      <trkpt lat="64.74569" lon="20.98989">
        <ele>10.138016</ele>
        <time>2020-08-28T11:28:20.304Z</time>
      </trkpt>
      <trkpt lat="64.7458" lon="20.99091">
        <ele>10.151057</ele>
        <time>2020-08-28T11:28:28.857Z</time>
      </trkpt>
      <trkpt lat="64.74584" lon="20.99184">
        <ele>10.217319</ele>
        <time>2020-08-28T11:28:36.502Z</time>
      </trkpt>
      <trkpt lat="64.74584" lon="20.99214">
        <ele>10.240543</ele>
        <time>2020-08-28T11:28:38.936Z</time>
      </trkpt>
      <trkpt lat="64.74579" lon="20.99314">
        <ele>10.31822</ele>
        <time>2020-08-28T11:28:47.135Z</time>
      </trkpt>
      <trkpt lat="64.74578" lon="20.99365">
        <ele>10.357937</ele>
        <time>2020-08-28T11:28:51.380Z</time>
      </trkpt>
      <trkpt lat="64.74576" lon="20.99491">
        <ele>10.455974</ele>
        <time>2020-08-28T11:29:01.767Z</time>
      </trkpt>
      <trkpt lat="64.74572" lon="20.99555">
        <ele>10.483806</ele>
        <time>2020-08-28T11:29:07.055Z</time>
      </trkpt>
      <trkpt lat="64.74569" lon="20.99613">
        <ele>10.492396</ele>
        <time>2020-08-28T11:29:11.843Z</time>
      </trkpt>
      <trkpt lat="64.74571" lon="20.99711">
        <ele>10.506862</ele>
        <time>2020-08-28T11:29:19.776Z</time>
      </trkpt>
      <trkpt lat="64.74569" lon="20.99835">
        <ele>10.52506</ele>
        <time>2020-08-28T11:29:29.541Z</time>
      </trkpt>
      <trkpt lat="64.7456" lon="20.9998">
        <ele>10.520835</ele>
        <time>2020-08-28T11:29:41.015Z</time>
      </trkpt>
      <trkpt lat="64.74541" lon="21.00101">
        <ele>10.458174</ele>
        <time>2020-08-28T11:29:51.069Z</time>
      </trkpt>
      <trkpt lat="64.74514" lon="21.00199">
        <ele>10.401844</ele>
        <time>2020-08-28T11:30:00.077Z</time>
      </trkpt>
      <trkpt lat="64.74396" lon="21.005">
        <ele>10.387575</ele>
        <time>2020-08-28T11:30:31.900Z</time>
      </trkpt>
      <trkpt lat="64.74315" lon="21.00715">
        <ele>10.564996</ele>
        <time>2020-08-28T11:30:55.978Z</time>
      </trkpt>
      <trkpt lat="64.74256" lon="21.00872">
        <ele>10.788155</ele>
        <time>2020-08-28T11:31:13.330Z</time>
      </trkpt>
      <trkpt lat="64.7423" lon="21.00944">
        <ele>10.850702</ele>
        <time>2020-08-28T11:31:21.087Z</time>
      </trkpt>
      <trkpt lat="64.7421" lon="21.00997">
        <ele>10.788746</ele>
        <time>2020-08-28T11:31:26.764Z</time>
      </trkpt>
      <trkpt lat="64.7419" lon="21.01049">
        <ele>10.728244</ele>
        <time>2020-08-28T11:31:32.190Z</time>
      </trkpt>
      <trkpt lat="64.74176" lon="21.01086">
        <ele>10.685291</ele>
        <time>2020-08-28T11:31:36.135Z</time>
      </trkpt>
      <trkpt lat="64.74168" lon="21.01107">
        <ele>10.66167</ele>
        <time>2020-08-28T11:31:38.071Z</time>
      </trkpt>
      <trkpt lat="64.74155" lon="21.01161">
        <ele>10.607792</ele>
        <time>2020-08-28T11:31:42.788Z</time>
      </trkpt>
      <trkpt lat="64.74109" lon="21.01289">
        <ele>10.432204</ele>
        <time>2020-08-28T11:31:55.240Z</time>
      </trkpt>
      <trkpt lat="64.74082" lon="21.01363">
        <ele>10.286745</ele>
        <time>2020-08-28T11:32:02.448Z</time>
      </trkpt>
      <trkpt lat="64.74052" lon="21.01432">
        <ele>10.138999</ele>
        <time>2020-08-28T11:32:09.753Z</time>
      </trkpt>
      <trkpt lat="64.74039" lon="21.01474">
        <ele>10.061662</ele>
        <time>2020-08-28T11:32:13.594Z</time>
      </trkpt>
      <trkpt lat="64.73999" lon="21.01604">
        <ele>9.863984</ele>
        <time>2020-08-28T11:32:25.901Z</time>
      </trkpt>
      <trkpt lat="64.73962" lon="21.01738">
        <ele>9.832623</ele>
        <time>2020-08-28T11:32:38.297Z</time>
      </trkpt>
      <trkpt lat="64.7395" lon="21.01781">
        <ele>9.822428</ele>
        <time>2020-08-28T11:32:42.331Z</time>
      </trkpt>
      <trkpt lat="64.73805" lon="21.02289">
        <ele>10.082037</ele>
        <time>2020-08-28T11:33:31.710Z</time>
      </trkpt>
      <trkpt lat="64.73754" lon="21.0245">
        <ele>10.386709</ele>
        <time>2020-08-28T11:33:48.848Z</time>
      </trkpt>
      <trkpt lat="64.73738" lon="21.02493">
        <ele>10.473717</ele>
        <time>2020-08-28T11:33:53.743Z</time>
      </trkpt>
      <trkpt lat="64.73728" lon="21.02519">
        <ele>10.524633</ele>
        <time>2020-08-28T11:33:56.638Z</time>
      </trkpt>
      <trkpt lat="64.73681" lon="21.02645">
        <ele>10.760393</ele>
        <time>2020-08-28T11:34:10.862Z</time>
      </trkpt>
      <trkpt lat="64.73188" lon="21.0371">
        <ele>12.790612</ele>
        <time>2020-08-28T11:36:21.179Z</time>
      </trkpt>
      <trkpt lat="64.73097" lon="21.03923">
        <ele>13.748631</ele>
        <time>2020-08-28T11:36:48.703Z</time>
      </trkpt>
      <trkpt lat="64.73058" lon="21.04039">
        <ele>14.281455</ele>
        <time>2020-08-28T11:37:02.434Z</time>
      </trkpt>
      <trkpt lat="64.73016" lon="21.04188">
        <ele>14.336681</ele>
        <time>2020-08-28T11:37:18.324Z</time>
      </trkpt>
      <trkpt lat="64.72709" lon="21.05342">
        <ele>13.202143</ele>
        <time>2020-08-28T11:39:02.344Z</time>
      </trkpt>
      <trkpt lat="64.72634" lon="21.05597">
        <ele>12.336185</ele>
        <time>2020-08-28T11:39:23.848Z</time>
      </trkpt>
      <trkpt lat="64.72591" lon="21.05762">
        <ele>11.646232</ele>
        <time>2020-08-28T11:39:37.366Z</time>
      </trkpt>
      <trkpt lat="64.72584" lon="21.05805">
        <ele>11.484077</ele>
        <time>2020-08-28T11:39:40.616Z</time>
      </trkpt>
      <trkpt lat="64.72544" lon="21.05935">
        <ele>11.071324</ele>
        <time>2020-08-28T11:39:52.323Z</time>
      </trkpt>
      <trkpt lat="64.72488" lon="21.06137">
        <ele>10.579967</ele>
        <time>2020-08-28T11:40:10.260Z</time>
      </trkpt>
      <trkpt lat="64.72433" lon="21.06343">
        <ele>10.229819</ele>
        <time>2020-08-28T11:40:28.708Z</time>
      </trkpt>
      <trkpt lat="64.72359" lon="21.06576">
        <ele>9.896644</ele>
        <time>2020-08-28T11:40:50.655Z</time>
      </trkpt>
      <trkpt lat="64.72331" lon="21.06643">
        <ele>9.797512</ele>
        <time>2020-08-28T11:40:57.797Z</time>
      </trkpt>
      <trkpt lat="64.72318" lon="21.06712">
        <ele>9.718153</ele>
        <time>2020-08-28T11:41:03.559Z</time>
      </trkpt>
      <trkpt lat="64.72316" lon="21.06724">
        <ele>9.704701</ele>
        <time>2020-08-28T11:41:04.503Z</time>
      </trkpt>
      <trkpt lat="64.72305" lon="21.06749">
        <ele>9.666544</ele>
        <time>2020-08-28T11:41:07.273Z</time>
      </trkpt>
      <trkpt lat="64.72283" lon="21.06783">
        <ele>9.603161</ele>
        <time>2020-08-28T11:41:11.856Z</time>
      </trkpt>
      <trkpt lat="64.72188" lon="21.06999">
        <ele>9.341707</ele>
        <time>2020-08-28T11:41:35.747Z</time>
      </trkpt>
      <trkpt lat="64.71968" lon="21.07539">
        <ele>8.757101</ele>
        <time>2020-08-28T11:42:33.681Z</time>
      </trkpt>
      <trkpt lat="64.71874" lon="21.07783">
        <ele>8.202327</ele>
        <time>2020-08-28T11:42:58.013Z</time>
      </trkpt>
      <trkpt lat="64.71304" lon="21.09153">
        <ele>4.255677</ele>
        <time>2020-08-28T11:45:18.773Z</time>
      </trkpt>
      <trkpt lat="64.71281" lon="21.09222">
        <ele>4.093151</ele>
        <time>2020-08-28T11:45:25.346Z</time>
      </trkpt>
      <trkpt lat="64.71198" lon="21.09426">
        <ele>3.712745</ele>
        <time>2020-08-28T11:45:46.832Z</time>
      </trkpt>
      <trkpt lat="64.71081" lon="21.09691">
        <ele>3.339134</ele>
        <time>2020-08-28T11:46:15.936Z</time>
      </trkpt>
      <trkpt lat="64.7102" lon="21.09855">
        <ele>3.165805</ele>
        <time>2020-08-28T11:46:32.661Z</time>
      </trkpt>
      <trkpt lat="64.70959" lon="21.10001">
        <ele>3.08234</ele>
        <time>2020-08-28T11:46:48.589Z</time>
      </trkpt>
      <trkpt lat="64.70913" lon="21.10107">
        <ele>3.039841</ele>
        <time>2020-08-28T11:47:00.491Z</time>
      </trkpt>
      <trkpt lat="64.7086" lon="21.10252">
        <ele>2.980939</ele>
        <time>2020-08-28T11:47:15.653Z</time>
      </trkpt>
      <trkpt lat="64.70854" lon="21.10271">
        <ele>2.972532</ele>
        <time>2020-08-28T11:47:17.545Z</time>
      </trkpt>
      <trkpt lat="64.7081" lon="21.10453">
        <ele>2.899215</ele>
        <time>2020-08-28T11:47:33.988Z</time>
      </trkpt>
      <trkpt lat="64.70785" lon="21.10632">
        <ele>2.764497</ele>
        <time>2020-08-28T11:47:48.481Z</time>
      </trkpt>
      <trkpt lat="64.70776" lon="21.10699">
        <ele>2.676785</ele>
        <time>2020-08-28T11:47:53.719Z</time>
      </trkpt>
      <trkpt lat="64.70773" lon="21.10769">
        <ele>2.587579</ele>
        <time>2020-08-28T11:47:59.024Z</time>
      </trkpt>
      <trkpt lat="64.70774" lon="21.1099">
        <ele>2.319422</ele>
        <time>2020-08-28T11:48:15.792Z</time>
      </trkpt>
      <trkpt lat="64.70774" lon="21.11043">
        <ele>2.296626</ele>
        <time>2020-08-28T11:48:19.750Z</time>
      </trkpt>
      <trkpt lat="64.70773" lon="21.11095">
        <ele>2.273864</ele>
        <time>2020-08-28T11:48:23.720Z</time>
      </trkpt>
      <trkpt lat="64.70772" lon="21.11145">
        <ele>2.252262</ele>
        <time>2020-08-28T11:48:27.546Z</time>
      </trkpt>
      <trkpt lat="64.70771" lon="21.11185">
        <ele>2.234845</ele>
        <time>2020-08-28T11:48:30.645Z</time>
      </trkpt>
      <trkpt lat="64.70768" lon="21.11225">
        <ele>2.216955</ele>
        <time>2020-08-28T11:48:33.843Z</time>
      </trkpt>
      <trkpt lat="64.70751" lon="21.1143">
        <ele>2.207788</ele>
        <time>2020-08-28T11:48:50.460Z</time>
      </trkpt>
      <trkpt lat="64.70723" lon="21.11665">
        <ele>2.615569</ele>
        <time>2020-08-28T11:49:11.035Z</time>
      </trkpt>
      <trkpt lat="64.70708" lon="21.11783">
        <ele>2.821312</ele>
        <time>2020-08-28T11:49:21.839Z</time>
      </trkpt>
      <trkpt lat="64.70689" lon="21.11946">
        <ele>3.40861</ele>
        <time>2020-08-28T11:49:37.039Z</time>
      </trkpt>
      <trkpt lat="64.70683" lon="21.12">
        <ele>3.610661</ele>
        <time>2020-08-28T11:49:42.089Z</time>
      </trkpt>
      <trkpt lat="64.70674" lon="21.11997">
        <ele>3.689303</ele>
        <time>2020-08-28T11:49:44.115Z</time>
      </trkpt>
      <trkpt lat="64.70663" lon="21.11995">
        <ele>3.775927</ele>
        <time>2020-08-28T11:49:46.322Z</time>
      </trkpt>
      <trkpt lat="64.7065" lon="21.11999">
        <ele>3.895002</ele>
        <time>2020-08-28T11:49:49.176Z</time>
      </trkpt>
      <trkpt lat="64.70604" lon="21.12047">
        <ele>4.323266</ele>
        <time>2020-08-28T11:49:59.664Z</time>
      </trkpt>
      <trkpt lat="64.7035" lon="21.12383">
        <ele>6.686367</ele>
        <time>2020-08-28T11:51:00.739Z</time>
      </trkpt>
      <trkpt lat="64.69919" lon="21.12965">
        <ele>6.844119</ele>
        <time>2020-08-28T11:52:29.792Z</time>
      </trkpt>
      <trkpt lat="64.69779" lon="21.13126">
        <ele>6.052799</ele>
        <time>2020-08-28T11:52:54.351Z</time>
      </trkpt>
      <trkpt lat="64.69704" lon="21.13195">
        <ele>5.662418</ele>
        <time>2020-08-28T11:53:07.355Z</time>
      </trkpt>
      <trkpt lat="64.69623" lon="21.13249">
        <ele>5.48023</ele>
        <time>2020-08-28T11:53:21.906Z</time>
      </trkpt>
      <trkpt lat="64.6921" lon="21.13485">
        <ele>7.838476</ele>
        <time>2020-08-28T11:54:46.372Z</time>
      </trkpt>
      <trkpt lat="64.69102" lon="21.13566">
        <ele>8.422598</ele>
        <time>2020-08-28T11:55:08.423Z</time>
      </trkpt>
      <trkpt lat="64.68909" lon="21.13759">
        <ele>8.971488</ele>
        <time>2020-08-28T11:55:47.913Z</time>
      </trkpt>
      <trkpt lat="64.68668" lon="21.14099">
        <ele>8.698094</ele>
        <time>2020-08-28T11:56:37.697Z</time>
      </trkpt>
      <trkpt lat="64.68147" lon="21.14833">
        <ele>3.068515</ele>
        <time>2020-08-28T11:58:12.025Z</time>
      </trkpt>
      <trkpt lat="64.68001" lon="21.15038">
        <ele>1.822553</ele>
        <time>2020-08-28T11:58:38.952Z</time>
      </trkpt>
      <trkpt lat="64.67953" lon="21.15134">
        <ele>1.663397</ele>
        <time>2020-08-28T11:58:49.589Z</time>
      </trkpt>
      <trkpt lat="64.67909" lon="21.15292">
        <ele>1.462933</ele>
        <time>2020-08-28T11:59:03.777Z</time>
      </trkpt>
      <trkpt lat="64.67884" lon="21.15536">
        <ele>2.41498</ele>
        <time>2020-08-28T11:59:25.125Z</time>
      </trkpt>
      <trkpt lat="64.67864" lon="21.1579">
        <ele>3.648837</ele>
        <time>2020-08-28T11:59:49.892Z</time>
      </trkpt>
      <trkpt lat="64.67857" lon="21.15878">
        <ele>4.243845</ele>
        <time>2020-08-28T11:59:58.866Z</time>
      </trkpt>
      <trkpt lat="64.67845" lon="21.15972">
        <ele>4.892713</ele>
        <time>2020-08-28T12:00:08.696Z</time>
      </trkpt>
      <trkpt lat="64.67805" lon="21.1615">
        <ele>6.105731</ele>
        <time>2020-08-28T12:00:28.365Z</time>
      </trkpt>
      <trkpt lat="64.6776" lon="21.16278">
        <ele>6.847765</ele>
        <time>2020-08-28T12:00:43.628Z</time>
      </trkpt>
      <trkpt lat="64.67647" lon="21.16495">
        <ele>8.346844</ele>
        <time>2020-08-28T12:01:13.201Z</time>
      </trkpt>
      <trkpt lat="64.67575" lon="21.1663">
        <ele>9.259567</ele>
        <time>2020-08-28T12:01:32.615Z</time>
      </trkpt>
      <trkpt lat="64.67514" lon="21.1673">
        <ele>10.003844</ele>
        <time>2020-08-28T12:01:49.171Z</time>
      </trkpt>
      <trkpt lat="64.67449" lon="21.16853">
        <ele>10.860258</ele>
        <time>2020-08-28T12:02:08.421Z</time>
      </trkpt>
      <trkpt lat="64.6741" lon="21.16924">
        <ele>11.356741</ele>
        <time>2020-08-28T12:02:18.049Z</time>
      </trkpt>
      <trkpt lat="64.67385" lon="21.16972">
        <ele>10.678949</ele>
        <time>2020-08-28T12:02:23.487Z</time>
      </trkpt>
      <trkpt lat="64.67352" lon="21.17033">
        <ele>9.776656</ele>
        <time>2020-08-28T12:02:29.651Z</time>
      </trkpt>
      <trkpt lat="64.67307" lon="21.16926">
        <ele>8.386291</ele>
        <time>2020-08-28T12:02:38.272Z</time>
      </trkpt>
      <trkpt lat="64.67251" lon="21.16811">
        <ele>6.430853</ele>
        <time>2020-08-28T12:02:47.672Z</time>
      </trkpt>
      <trkpt lat="64.67205" lon="21.16723">
        <ele>4.5004</ele>
        <time>2020-08-28T12:02:55.149Z</time>
      </trkpt>
      <trkpt lat="64.67183" lon="21.16682">
        <ele>3.581876</ele>
        <time>2020-08-28T12:02:58.787Z</time>
      </trkpt>
      <trkpt lat="64.67171" lon="21.16665">
        <ele>3.137266</ele>
        <time>2020-08-28T12:03:00.631Z</time>
      </trkpt>
      <trkpt lat="64.67162" lon="21.1665">
        <ele>2.76353</ele>
        <time>2020-08-28T12:03:02.164Z</time>
      </trkpt>
      <trkpt lat="64.67143" lon="21.16633">
        <ele>2.114284</ele>
        <time>2020-08-28T12:03:04.934Z</time>
      </trkpt>
      <trkpt lat="64.67124" lon="21.16616">
        <ele>1.602482</ele>
        <time>2020-08-28T12:03:07.824Z</time>
      </trkpt>
      <trkpt lat="64.67113" lon="21.16608">
        <ele>1.528614</ele>
        <time>2020-08-28T12:03:09.440Z</time>
      </trkpt>
      <trkpt lat="64.67101" lon="21.16599">
        <ele>1.445299</ele>
        <time>2020-08-28T12:03:11.292Z</time>
      </trkpt>
      <trkpt lat="64.6708" lon="21.16588">
        <ele>1.30001</ele>
        <time>2020-08-28T12:03:14.551Z</time>
      </trkpt>
      <trkpt lat="64.67052" lon="21.16584">
        <ele>1.115585</ele>
        <time>2020-08-28T12:03:18.824Z</time>
      </trkpt>
      <trkpt lat="64.67031" lon="21.16587">
        <ele>0.973174</ele>
        <time>2020-08-28T12:03:22.498Z</time>
      </trkpt>
      <trkpt lat="64.66988" lon="21.16607">
        <ele>0.680161</ele>
        <time>2020-08-28T12:03:30.694Z</time>
      </trkpt>
      <trkpt lat="64.66957" lon="21.16636">
        <ele>0.463993</ele>
        <time>2020-08-28T12:03:36.756Z</time>
      </trkpt>
      <trkpt lat="64.6693" lon="21.1667">
        <ele>0.579485</ele>
        <time>2020-08-28T12:03:42.512Z</time>
      </trkpt>
      <trkpt lat="64.66896" lon="21.16716">
        <ele>0.760257</ele>
        <time>2020-08-28T12:03:49.671Z</time>
      </trkpt>
      <trkpt lat="64.6688" lon="21.16737">
        <ele>0.848578</ele>
        <time>2020-08-28T12:03:53.274Z</time>
      </trkpt>
      <trkpt lat="64.66843" lon="21.16788">
        <ele>1.047405</ele>
        <time>2020-08-28T12:04:01.249Z</time>
      </trkpt>
      <trkpt lat="64.66818" lon="21.16821">
        <ele>1.176734</ele>
        <time>2020-08-28T12:04:06.792Z</time>
      </trkpt>
      <trkpt lat="64.66766" lon="21.16894">
        <ele>2.088166</ele>
        <time>2020-08-28T12:04:20.012Z</time>
      </trkpt>
      <trkpt lat="64.66751" lon="21.16912">
        <ele>2.424938</ele>
        <time>2020-08-28T12:04:23.804Z</time>
      </trkpt>
      <trkpt lat="64.66709" lon="21.1697">
        <ele>3.445455</ele>
        <time>2020-08-28T12:04:35.501Z</time>
      </trkpt>
      <trkpt lat="64.66644" lon="21.17058">
        <ele>5.001945</ele>
        <time>2020-08-28T12:04:55.372Z</time>
      </trkpt>
      <trkpt lat="64.6658" lon="21.17118">
        <ele>7.328476</ele>
        <time>2020-08-28T12:05:15.096Z</time>
      </trkpt>
      <trkpt lat="64.66532" lon="21.17137">
        <ele>9.018547</ele>
        <time>2020-08-28T12:05:29.965Z</time>
      </trkpt>
      <trkpt lat="64.6646" lon="21.17122">
        <ele>11.395708</ele>
        <time>2020-08-28T12:05:50.909Z</time>
      </trkpt>
      <trkpt lat="64.66387" lon="21.17061">
        <ele>13.416379</ele>
        <time>2020-08-28T12:06:11.943Z</time>
      </trkpt>
      <trkpt lat="64.66376" lon="21.17045">
        <ele>13.754877</ele>
        <time>2020-08-28T12:06:15.479Z</time>
      </trkpt>
      <trkpt lat="64.66362" lon="21.17024">
        <ele>14.198919</ele>
        <time>2020-08-28T12:06:19.751Z</time>
      </trkpt>
      <trkpt lat="64.66301" lon="21.16935">
        <ele>15.97896</ele>
        <time>2020-08-28T12:06:37.281Z</time>
      </trkpt>
      <trkpt lat="64.66294" lon="21.16924">
        <ele>16.107113</ele>
        <time>2020-08-28T12:06:39.168Z</time>
      </trkpt>
      <trkpt lat="64.66274" lon="21.16895">
        <ele>16.477268</ele>
        <time>2020-08-28T12:06:44.776Z</time>
      </trkpt>
      <trkpt lat="64.66242" lon="21.16842">
        <ele>17.093093</ele>
        <time>2020-08-28T12:06:53.828Z</time>
      </trkpt>
      <trkpt lat="64.66168" lon="21.16679">
        <ele>18.692743</ele>
        <time>2020-08-28T12:07:16.273Z</time>
      </trkpt>
      <trkpt lat="64.65909" lon="21.1602">
        <ele>25.153703</ele>
        <time>2020-08-28T12:08:44.959Z</time>
      </trkpt>
      <trkpt lat="64.6587" lon="21.1592">
        <ele>26.291483</ele>
        <time>2020-08-28T12:08:59.663Z</time>
      </trkpt>
      <trkpt lat="64.65832" lon="21.1582">
        <ele>27.407933</ele>
        <time>2020-08-28T12:09:13.731Z</time>
      </trkpt>
      <trkpt lat="64.65827" lon="21.15806">
        <ele>27.565892</ele>
        <time>2020-08-28T12:09:15.692Z</time>
      </trkpt>
      <trkpt lat="64.65782" lon="21.1569">
        <ele>28.452099</ele>
        <time>2020-08-28T12:09:31.378Z</time>
      </trkpt>
      <trkpt lat="64.6574" lon="21.15558">
        <ele>28.997013</ele>
        <time>2020-08-28T12:09:45.941Z</time>
      </trkpt>
      <trkpt lat="64.65712" lon="21.1543">
        <ele>29.472165</ele>
        <time>2020-08-28T12:09:57.312Z</time>
      </trkpt>
      <trkpt lat="64.65701" lon="21.15384">
        <ele>29.567132</ele>
        <time>2020-08-28T12:10:01.374Z</time>
      </trkpt>
      <trkpt lat="64.65679" lon="21.15276">
        <ele>29.562778</ele>
        <time>2020-08-28T12:10:10.454Z</time>
      </trkpt>
      <trkpt lat="64.65658" lon="21.15191">
        <ele>29.559172</ele>
        <time>2020-08-28T12:10:17.905Z</time>
      </trkpt>
      <trkpt lat="64.65626" lon="21.15064">
        <ele>29.553822</ele>
        <time>2020-08-28T12:10:28.867Z</time>
      </trkpt>
      <trkpt lat="64.65555" lon="21.14875">
        <ele>29.607151</ele>
        <time>2020-08-28T12:10:48.330Z</time>
      </trkpt>
      <trkpt lat="64.65527" lon="21.14823">
        <ele>29.628</ele>
        <time>2020-08-28T12:10:54.834Z</time>
      </trkpt>
      <trkpt lat="64.65461" lon="21.14735">
        <ele>29.683267</ele>
        <time>2020-08-28T12:11:08.554Z</time>
      </trkpt>
      <trkpt lat="64.65408" lon="21.14695">
        <ele>29.739604</ele>
        <time>2020-08-28T12:11:18.657Z</time>
      </trkpt>
      <trkpt lat="64.65344" lon="21.14674">
        <ele>29.805278</ele>
        <time>2020-08-28T12:11:30.442Z</time>
      </trkpt>
      <trkpt lat="64.65277" lon="21.14675">
        <ele>29.878983</ele>
        <time>2020-08-28T12:11:42.592Z</time>
      </trkpt>
      <trkpt lat="64.65239" lon="21.14687">
        <ele>29.925083</ele>
        <time>2020-08-28T12:11:49.596Z</time>
      </trkpt>
      <trkpt lat="64.65208" lon="21.14701">
        <ele>29.963103</ele>
        <time>2020-08-28T12:11:55.377Z</time>
      </trkpt>
      <trkpt lat="64.6518" lon="21.14712">
        <ele>29.996506</ele>
        <time>2020-08-28T12:12:00.474Z</time>
      </trkpt>
      <trkpt lat="64.65141" lon="21.14724">
        <ele>30.043901</ele>
        <time>2020-08-28T12:12:07.713Z</time>
      </trkpt>
      <trkpt lat="64.65086" lon="21.14722">
        <ele>30.230712</ele>
        <time>2020-08-28T12:12:17.694Z</time>
      </trkpt>
      <trkpt lat="64.65085" lon="21.14793">
        <ele>30.347174</ele>
        <time>2020-08-28T12:12:23.278Z</time>
      </trkpt>
      <trkpt lat="64.65082" lon="21.14834">
        <ele>30.416496</ele>
        <time>2020-08-28T12:12:26.614Z</time>
      </trkpt>
      <trkpt lat="64.65071" lon="21.14872">
        <ele>30.49042</ele>
        <time>2020-08-28T12:12:30.213Z</time>
      </trkpt>
      <trkpt lat="64.64985" lon="21.15121">
        <ele>31.619986</ele>
        <time>2020-08-28T12:12:57.805Z</time>
      </trkpt>
      <trkpt lat="64.64928" lon="21.15291">
        <ele>32.759335</ele>
        <time>2020-08-28T12:13:18.349Z</time>
      </trkpt>
      <trkpt lat="64.64714" lon="21.15886">
        <ele>39.215197</ele>
        <time>2020-08-28T12:14:40.424Z</time>
      </trkpt>
      <trkpt lat="64.64664" lon="21.15996">
        <ele>40.135473</ele>
        <time>2020-08-28T12:14:55.393Z</time>
      </trkpt>
      <trkpt lat="64.64672" lon="21.16046">
        <ele>40.236318</ele>
        <time>2020-08-28T12:15:00.649Z</time>
      </trkpt>
      <trkpt lat="64.64663" lon="21.16074">
        <ele>40.303415</ele>
        <time>2020-08-28T12:15:03.169Z</time>
      </trkpt>
      <trkpt lat="64.64629" lon="21.16202">
        <ele>40.588177</ele>
        <time>2020-08-28T12:15:15.604Z</time>
      </trkpt>
      <trkpt lat="64.64612" lon="21.16257">
        <ele>40.716621</ele>
        <time>2020-08-28T12:15:20.951Z</time>
      </trkpt>
      <trkpt lat="64.64603" lon="21.16289">
        <ele>40.789571</ele>
        <time>2020-08-28T12:15:23.505Z</time>
      </trkpt>
      <trkpt lat="64.64417" lon="21.16853">
        <ele>39.625936</ele>
        <time>2020-08-28T12:16:14.629Z</time>
      </trkpt>
      <trkpt lat="64.64276" lon="21.17159">
        <ele>38.451348</ele>
        <time>2020-08-28T12:16:45.985Z</time>
      </trkpt>
      <trkpt lat="64.64248" lon="21.17239">
        <ele>38.151408</ele>
        <time>2020-08-28T12:16:52.903Z</time>
      </trkpt>
      <trkpt lat="64.64191" lon="21.17433">
        <ele>37.035144</ele>
        <time>2020-08-28T12:17:08.583Z</time>
      </trkpt>
      <trkpt lat="64.64157" lon="21.17549">
        <ele>36.357291</ele>
        <time>2020-08-28T12:17:17.604Z</time>
      </trkpt>
      <trkpt lat="64.6411" lon="21.17679">
        <ele>35.54007</ele>
        <time>2020-08-28T12:17:28.557Z</time>
      </trkpt>
      <trkpt lat="64.64085" lon="21.17724">
        <ele>35.190966</ele>
        <time>2020-08-28T12:17:33.298Z</time>
      </trkpt>
      <trkpt lat="64.64058" lon="21.17759">
        <ele>34.844404</ele>
        <time>2020-08-28T12:17:38.034Z</time>
      </trkpt>
      <trkpt lat="64.64051" lon="21.17767">
        <ele>34.762493</ele>
        <time>2020-08-28T12:17:39.138Z</time>
      </trkpt>
      <trkpt lat="64.63925" lon="21.17903">
        <ele>33.836599</ele>
        <time>2020-08-28T12:18:01.000Z</time>
      </trkpt>
      <trkpt lat="64.63894" lon="21.17957">
        <ele>33.712528</ele>
        <time>2020-08-28T12:18:07.743Z</time>
      </trkpt>
      <trkpt lat="64.63854" lon="21.18077">
        <ele>33.5252</ele>
        <time>2020-08-28T12:18:19.725Z</time>
      </trkpt>
      <trkpt lat="64.63777" lon="21.18389">
        <ele>34.484483</ele>
        <time>2020-08-28T12:18:50.419Z</time>
      </trkpt>
      <trkpt lat="64.63745" lon="21.18488">
        <ele>34.704626</ele>
        <time>2020-08-28T12:19:01.449Z</time>
      </trkpt>
      <trkpt lat="64.63717" lon="21.18546">
        <ele>34.797227</ele>
        <time>2020-08-28T12:19:09.103Z</time>
      </trkpt>
      <trkpt lat="64.63581" lon="21.18747">
        <ele>34.574215</ele>
        <time>2020-08-28T12:19:37.520Z</time>
      </trkpt>
      <trkpt lat="64.63545" lon="21.18779">
        <ele>34.165073</ele>
        <time>2020-08-28T12:19:43.481Z</time>
      </trkpt>
      <trkpt lat="64.6354" lon="21.18783">
        <ele>34.109669</ele>
        <time>2020-08-28T12:19:44.106Z</time>
      </trkpt>
      <trkpt lat="64.63495" lon="21.18806">
        <ele>33.628131</ele>
        <time>2020-08-28T12:19:50.947Z</time>
      </trkpt>
      <trkpt lat="64.63239" lon="21.18801">
        <ele>30.375829</ele>
        <time>2020-08-28T12:20:28.858Z</time>
      </trkpt>
      <trkpt lat="64.63199" lon="21.18822">
        <ele>30.038415</ele>
        <time>2020-08-28T12:20:35.466Z</time>
      </trkpt>
      <trkpt lat="64.63162" lon="21.18853">
        <ele>29.717977</ele>
        <time>2020-08-28T12:20:41.835Z</time>
      </trkpt>
      <trkpt lat="64.63129" lon="21.18897">
        <ele>29.403236</ele>
        <time>2020-08-28T12:20:48.204Z</time>
      </trkpt>
      <trkpt lat="64.62985" lon="21.19143">
        <ele>27.90839</ele>
        <time>2020-08-28T12:21:16.791Z</time>
      </trkpt>
      <trkpt lat="64.62978" lon="21.19147">
        <ele>27.852927</ele>
        <time>2020-08-28T12:21:17.744Z</time>
      </trkpt>
      <trkpt lat="64.62968" lon="21.19141">
        <ele>27.7675</ele>
        <time>2020-08-28T12:21:19.288Z</time>
      </trkpt>
      <trkpt lat="64.62954" lon="21.19124">
        <ele>27.596367</ele>
        <time>2020-08-28T12:21:21.755Z</time>
      </trkpt>
      <trkpt lat="64.62927" lon="21.19209">
        <ele>26.890282</ele>
        <time>2020-08-28T12:21:28.454Z</time>
      </trkpt>
      <trkpt lat="64.62918" lon="21.19235">
        <ele>26.665646</ele>
        <time>2020-08-28T12:21:30.599Z</time>
      </trkpt>
      <trkpt lat="64.62903" lon="21.19274">
        <ele>26.321307</ele>
        <time>2020-08-28T12:21:33.820Z</time>
      </trkpt>
      <trkpt lat="64.62783" lon="21.19493">
        <ele>23.966051</ele>
        <time>2020-08-28T12:21:55.841Z</time>
      </trkpt>
      <trkpt lat="64.62751" lon="21.19548">
        <ele>23.377407</ele>
        <time>2020-08-28T12:22:01.656Z</time>
      </trkpt>
      <trkpt lat="64.62738" lon="21.1957">
        <ele>23.142658</ele>
        <time>2020-08-28T12:22:03.968Z</time>
      </trkpt>
      <trkpt lat="64.62708" lon="21.19619">
        <ele>22.589373</ele>
        <time>2020-08-28T12:22:09.471Z</time>
      </trkpt>
      <trkpt lat="64.62596" lon="21.1981">
        <ele>20.920281</ele>
        <time>2020-08-28T12:22:30.585Z</time>
      </trkpt>
      <trkpt lat="64.62478" lon="21.20014">
        <ele>19.152853</ele>
        <time>2020-08-28T12:22:53.402Z</time>
      </trkpt>
      <trkpt lat="64.62444" lon="21.20056">
        <ele>18.667695</ele>
        <time>2020-08-28T12:22:59.085Z</time>
      </trkpt>
      <trkpt lat="64.62406" lon="21.20091">
        <ele>18.145601</ele>
        <time>2020-08-28T12:23:05.094Z</time>
      </trkpt>
      <trkpt lat="64.62363" lon="21.20121">
        <ele>17.427573</ele>
        <time>2020-08-28T12:23:11.598Z</time>
      </trkpt>
      <trkpt lat="64.6228" lon="21.20179">
        <ele>15.719506</ele>
        <time>2020-08-28T12:23:24.106Z</time>
      </trkpt>
      <trkpt lat="64.62218" lon="21.20194">
        <ele>14.487962</ele>
        <time>2020-08-28T12:23:32.760Z</time>
      </trkpt>
      <trkpt lat="64.62128" lon="21.20163">
        <ele>12.133798</ele>
        <time>2020-08-28T12:23:45.041Z</time>
      </trkpt>
      <trkpt lat="64.62115" lon="21.20155">
        <ele>11.761862</ele>
        <time>2020-08-28T12:23:46.954Z</time>
      </trkpt>
      <trkpt lat="64.62104" lon="21.20148">
        <ele>11.462156</ele>
        <time>2020-08-28T12:23:48.336Z</time>
      </trkpt>
      <trkpt lat="64.6201" lon="21.20094">
        <ele>9.709315</ele>
        <time>2020-08-28T12:24:01.159Z</time>
      </trkpt>
      <trkpt lat="64.61993" lon="21.20083">
        <ele>9.85566</ele>
        <time>2020-08-28T12:24:03.588Z</time>
      </trkpt>
      <trkpt lat="64.61968" lon="21.2007">
        <ele>10.073262</ele>
        <time>2020-08-28T12:24:08.033Z</time>
      </trkpt>
      <trkpt lat="64.61944" lon="21.20056">
        <ele>10.272505</ele>
        <time>2020-08-28T12:24:13.090Z</time>
      </trkpt>
      <trkpt lat="64.6192" lon="21.20043">
        <ele>10.48362</ele>
        <time>2020-08-28T12:24:19.162Z</time>
      </trkpt>
      <trkpt lat="64.61897" lon="21.20029">
        <ele>10.677043</ele>
        <time>2020-08-28T12:24:25.517Z</time>
      </trkpt>
      <trkpt lat="64.61876" lon="21.20017">
        <ele>10.861349</ele>
        <time>2020-08-28T12:24:31.735Z</time>
      </trkpt>
      <trkpt lat="64.61855" lon="21.20005">
        <ele>11.11216</ele>
        <time>2020-08-28T12:24:37.620Z</time>
      </trkpt>
      <trkpt lat="64.61837" lon="21.19996">
        <ele>11.682441</ele>
        <time>2020-08-28T12:24:43.332Z</time>
      </trkpt>
      <trkpt lat="64.6177" lon="21.19971">
        <ele>13.771564</ele>
        <time>2020-08-28T12:25:04.689Z</time>
      </trkpt>
      <trkpt lat="64.61752" lon="21.19958">
        <ele>14.357575</ele>
        <time>2020-08-28T12:25:10.536Z</time>
      </trkpt>
      <trkpt lat="64.6171" lon="21.19944">
        <ele>15.684851</ele>
        <time>2020-08-28T12:25:22.734Z</time>
      </trkpt>
      <trkpt lat="64.61708" lon="21.19974">
        <ele>16.097609</ele>
        <time>2020-08-28T12:25:26.226Z</time>
      </trkpt>
      <trkpt lat="64.61704" lon="21.20033">
        <ele>16.400768</ele>
        <time>2020-08-28T12:25:31.648Z</time>
      </trkpt>
      <trkpt lat="64.61696" lon="21.20091">
        <ele>15.93265</ele>
        <time>2020-08-28T12:25:36.265Z</time>
      </trkpt>
      <trkpt lat="64.61673" lon="21.20158">
        <ele>15.267419</ele>
        <time>2020-08-28T12:25:41.668Z</time>
      </trkpt>
      <trkpt lat="64.61617" lon="21.20328">
        <ele>13.603138</ele>
        <time>2020-08-28T12:25:53.701Z</time>
      </trkpt>
      <trkpt lat="64.61579" lon="21.20416">
        <ele>12.663425</ele>
        <time>2020-08-28T12:26:00.657Z</time>
      </trkpt>
      <trkpt lat="64.61562" lon="21.20457">
        <ele>12.238151</ele>
        <time>2020-08-28T12:26:03.962Z</time>
      </trkpt>
      <trkpt lat="64.61558" lon="21.20468">
        <ele>12.115555</ele>
        <time>2020-08-28T12:26:05.060Z</time>
      </trkpt>
      <trkpt lat="64.61532" lon="21.20539">
        <ele>11.418032</ele>
        <time>2020-08-28T12:26:10.852Z</time>
      </trkpt>
      <trkpt lat="64.61479" lon="21.20733">
        <ele>10.072324</ele>
        <time>2020-08-28T12:26:26.237Z</time>
      </trkpt>
      <trkpt lat="64.6146" lon="21.2079">
        <ele>9.957686</ele>
        <time>2020-08-28T12:26:31.898Z</time>
      </trkpt>
      <trkpt lat="64.61443" lon="21.20832">
        <ele>9.866443</ele>
        <time>2020-08-28T12:26:36.216Z</time>
      </trkpt>
      <trkpt lat="64.61366" lon="21.21042">
        <ele>9.353697</ele>
        <time>2020-08-28T12:26:56.339Z</time>
      </trkpt>
      <trkpt lat="64.61355" lon="21.21076">
        <ele>9.224442</ele>
        <time>2020-08-28T12:26:59.430Z</time>
      </trkpt>
      <trkpt lat="64.61346" lon="21.21103">
        <ele>9.127146</ele>
        <time>2020-08-28T12:27:01.679Z</time>
      </trkpt>
      <trkpt lat="64.61302" lon="21.21218">
        <ele>8.667991</ele>
        <time>2020-08-28T12:27:12.322Z</time>
      </trkpt>
      <trkpt lat="64.61222" lon="21.21393">
        <ele>7.80535</ele>
        <time>2020-08-28T12:27:29.532Z</time>
      </trkpt>
      <trkpt lat="64.61204" lon="21.21421">
        <ele>7.609629</ele>
        <time>2020-08-28T12:27:32.976Z</time>
      </trkpt>
      <trkpt lat="64.61117" lon="21.21486">
        <ele>6.796264</ele>
        <time>2020-08-28T12:27:47.164Z</time>
      </trkpt>
      <trkpt lat="64.6106" lon="21.21545">
        <ele>6.364904</ele>
        <time>2020-08-28T12:27:56.923Z</time>
      </trkpt>
      <trkpt lat="64.61029" lon="21.21596">
        <ele>6.124731</ele>
        <time>2020-08-28T12:28:02.989Z</time>
      </trkpt>
      <trkpt lat="64.61022" lon="21.21608">
        <ele>6.066277</ele>
        <time>2020-08-28T12:28:04.424Z</time>
      </trkpt>
      <trkpt lat="64.60981" lon="21.21684">
        <ele>5.73564</ele>
        <time>2020-08-28T12:28:12.929Z</time>
      </trkpt>
      <trkpt lat="64.60836" lon="21.21863">
        <ele>5.313354</ele>
        <time>2020-08-28T12:28:40.759Z</time>
      </trkpt>
      <trkpt lat="64.60816" lon="21.21911">
        <ele>5.267922</ele>
        <time>2020-08-28T12:28:45.925Z</time>
      </trkpt>
      <trkpt lat="64.60799" lon="21.21967">
        <ele>5.282477</ele>
        <time>2020-08-28T12:28:51.286Z</time>
      </trkpt>
      <trkpt lat="64.6078" lon="21.22032">
        <ele>5.497655</ele>
        <time>2020-08-28T12:28:57.741Z</time>
      </trkpt>
      <trkpt lat="64.60737" lon="21.2227">
        <ele>6.205016</ele>
        <time>2020-08-28T12:29:20.026Z</time>
      </trkpt>
      <trkpt lat="64.60732" lon="21.22291">
        <ele>6.27162</ele>
        <time>2020-08-28T12:29:22.214Z</time>
      </trkpt>
      <trkpt lat="64.60716" lon="21.22355">
        <ele>6.519539</ele>
        <time>2020-08-28T12:29:28.830Z</time>
      </trkpt>
      <trkpt lat="64.60686" lon="21.22464">
        <ele>7.052323</ele>
        <time>2020-08-28T12:29:40.502Z</time>
      </trkpt>
      <trkpt lat="64.60667" lon="21.22514">
        <ele>7.332626</ele>
        <time>2020-08-28T12:29:46.765Z</time>
      </trkpt>
      <trkpt lat="64.6056" lon="21.22727">
        <ele>8.574484</ele>
        <time>2020-08-28T12:30:16.318Z</time>
      </trkpt>
      <trkpt lat="64.60536" lon="21.22746">
        <ele>8.774499</ele>
        <time>2020-08-28T12:30:21.584Z</time>
      </trkpt>
      <trkpt lat="64.60409" lon="21.22772">
        <ele>9.781393</ele>
        <time>2020-08-28T12:30:46.556Z</time>
      </trkpt>
      <trkpt lat="64.60391" lon="21.2278">
        <ele>9.935705</ele>
        <time>2020-08-28T12:30:50.061Z</time>
      </trkpt>
      <trkpt lat="64.60358" lon="21.2279">
        <ele>10.214767</ele>
        <time>2020-08-28T12:30:56.515Z</time>
      </trkpt>
      <trkpt lat="64.60241" lon="21.22806">
        <ele>11.614934</ele>
        <time>2020-08-28T12:31:20.772Z</time>
      </trkpt>
      <trkpt lat="64.60098" lon="21.22812">
        <ele>15.627414</ele>
        <time>2020-08-28T12:31:58.165Z</time>
      </trkpt>
      <trkpt lat="64.60056" lon="21.2281">
        <ele>17.918474</ele>
        <time>2020-08-28T12:32:12.802Z</time>
      </trkpt>
      <trkpt lat="64.59989" lon="21.22781">
        <ele>22.568264</ele>
        <time>2020-08-28T12:32:39.409Z</time>
      </trkpt>
      <trkpt lat="64.59953" lon="21.22783">
        <ele>25.050251</ele>
        <time>2020-08-28T12:32:55.003Z</time>
      </trkpt>
      <trkpt lat="64.59878" lon="21.22798">
        <ele>30.40135</ele>
        <time>2020-08-28T12:33:28.550Z</time>
      </trkpt>
      <trkpt lat="64.59802" lon="21.22828">
        <ele>36.352702</ele>
        <time>2020-08-28T12:34:03.138Z</time>
      </trkpt>
      <trkpt lat="64.59765" lon="21.22859">
        <ele>39.338747</ele>
        <time>2020-08-28T12:34:19.844Z</time>
      </trkpt>
      <trkpt lat="64.59722" lon="21.22922">
        <ele>42.919437</ele>
        <time>2020-08-28T12:34:39.744Z</time>
      </trkpt>
      <trkpt lat="64.59518" lon="21.23345">
        <ele>57.424238</ele>
        <time>2020-08-28T12:36:13.085Z</time>
      </trkpt>
      <trkpt lat="64.59503" lon="21.23388">
        <ele>58.636975</ele>
        <time>2020-08-28T12:36:21.146Z</time>
      </trkpt>
      <trkpt lat="64.59495" lon="21.23435">
        <ele>59.76615</ele>
        <time>2020-08-28T12:36:28.673Z</time>
      </trkpt>
      <trkpt lat="64.59506" lon="21.23694">
        <ele>65.558193</ele>
        <time>2020-08-28T12:37:07.530Z</time>
      </trkpt>
      <trkpt lat="64.59497" lon="21.23869">
        <ele>69.512795</ele>
        <time>2020-08-28T12:37:34.006Z</time>
      </trkpt>
      <trkpt lat="64.59501" lon="21.23958">
        <ele>71.341408</ele>
        <time>2020-08-28T12:37:46.991Z</time>
      </trkpt>
      <trkpt lat="64.59498" lon="21.2402">
        <ele>72.490289</ele>
        <time>2020-08-28T12:37:55.879Z</time>
      </trkpt>
      <trkpt lat="64.59485" lon="21.24072">
        <ele>73.588041</ele>
        <time>2020-08-28T12:38:04.186Z</time>
      </trkpt>
      <trkpt lat="64.59461" lon="21.24129">
        <ele>75.087679</ele>
        <time>2020-08-28T12:38:15.261Z</time>
      </trkpt>
      <trkpt lat="64.59389" lon="21.24264">
        <ele>78.909345</ele>
        <time>2020-08-28T12:38:42.792Z</time>
      </trkpt>
      <trkpt lat="64.59367" lon="21.2428">
        <ele>79.736977</ele>
        <time>2020-08-28T12:38:49.414Z</time>
      </trkpt>
      <trkpt lat="64.59339" lon="21.24279">
        <ele>80.730762</ele>
        <time>2020-08-28T12:38:57.486Z</time>
      </trkpt>
      <trkpt lat="64.59211" lon="21.242">
        <ele>85.291104</ele>
        <time>2020-08-28T12:39:36.411Z</time>
      </trkpt>
      <trkpt lat="64.59186" lon="21.24192">
        <ele>85.96575</ele>
        <time>2020-08-28T12:39:43.421Z</time>
      </trkpt>
      <trkpt lat="64.59171" lon="21.24225">
        <ele>86.544391</ele>
        <time>2020-08-28T12:39:49.414Z</time>
      </trkpt>
      <trkpt lat="64.59134" lon="21.2441">
        <ele>88.950686</ele>
        <time>2020-08-28T12:40:12.529Z</time>
      </trkpt>
      <trkpt lat="64.59128" lon="21.24438">
        <ele>89.315248</ele>
        <time>2020-08-28T12:40:15.927Z</time>
      </trkpt>
      <trkpt lat="64.59098" lon="21.24601">
        <ele>89.864577</ele>
        <time>2020-08-28T12:40:32.987Z</time>
      </trkpt>
      <trkpt lat="64.59023" lon="21.24842">
        <ele>90.068834</ele>
        <time>2020-08-28T12:40:54.906Z</time>
      </trkpt>
      <trkpt lat="64.58967" lon="21.24992">
        <ele>88.777584</ele>
        <time>2020-08-28T12:41:07.565Z</time>
      </trkpt>
      <trkpt lat="64.58798" lon="21.25327">
        <ele>84.957827</ele>
        <time>2020-08-28T12:41:38.798Z</time>
      </trkpt>
      <trkpt lat="64.587" lon="21.25491">
        <ele>83.3443</ele>
        <time>2020-08-28T12:41:56.894Z</time>
      </trkpt>
      <trkpt lat="64.58678" lon="21.25536">
        <ele>83.025079</ele>
        <time>2020-08-28T12:42:01.560Z</time>
      </trkpt>
      <trkpt lat="64.58646" lon="21.25626">
        <ele>82.485938</ele>
        <time>2020-08-28T12:42:09.502Z</time>
      </trkpt>
      <trkpt lat="64.58638" lon="21.25676">
        <ele>82.223547</ele>
        <time>2020-08-28T12:42:13.112Z</time>
      </trkpt>
      <trkpt lat="64.58624" lon="21.25826">
        <ele>81.057645</ele>
        <time>2020-08-28T12:42:23.326Z</time>
      </trkpt>
      <trkpt lat="64.58621" lon="21.25922">
        <ele>80.329258</ele>
        <time>2020-08-28T12:42:29.367Z</time>
      </trkpt>
      <trkpt lat="64.5861" lon="21.26007">
        <ele>79.662967</ele>
        <time>2020-08-28T12:42:34.670Z</time>
      </trkpt>
      <trkpt lat="64.5859" lon="21.26089">
        <ele>78.79543</ele>
        <time>2020-08-28T12:42:40.193Z</time>
      </trkpt>
      <trkpt lat="64.58503" lon="21.26368">
        <ele>73.60305</ele>
        <time>2020-08-28T12:42:59.145Z</time>
      </trkpt>
      <trkpt lat="64.5836" lon="21.26773">
        <ele>65.673212</ele>
        <time>2020-08-28T12:43:27.635Z</time>
      </trkpt>
      <trkpt lat="64.58344" lon="21.26846">
        <ele>64.955177</ele>
        <time>2020-08-28T12:43:32.453Z</time>
      </trkpt>
      <trkpt lat="64.58318" lon="21.27009">
        <ele>63.436828</ele>
        <time>2020-08-28T12:43:43.157Z</time>
      </trkpt>
      <trkpt lat="64.58301" lon="21.2715">
        <ele>62.310046</ele>
        <time>2020-08-28T12:43:52.950Z</time>
      </trkpt>
      <trkpt lat="64.58301" lon="21.27292">
        <ele>61.704927</ele>
        <time>2020-08-28T12:44:02.975Z</time>
      </trkpt>
      <trkpt lat="64.58297" lon="21.27341">
        <ele>61.496128</ele>
        <time>2020-08-28T12:44:06.318Z</time>
      </trkpt>
      <trkpt lat="64.58246" lon="21.27596">
        <ele>59.771606</ele>
        <time>2020-08-28T12:44:24.676Z</time>
      </trkpt>
      <trkpt lat="64.58245" lon="21.27609">
        <ele>59.637143</ele>
        <time>2020-08-28T12:44:25.464Z</time>
      </trkpt>
      <trkpt lat="64.5824" lon="21.2769">
        <ele>58.789216</ele>
        <time>2020-08-28T12:44:30.500Z</time>
      </trkpt>
      <trkpt lat="64.58229" lon="21.27966">
        <ele>55.677865</ele>
        <time>2020-08-28T12:44:46.262Z</time>
      </trkpt>
      <trkpt lat="64.58215" lon="21.28215">
        <ele>51.437232</ele>
        <time>2020-08-28T12:44:59.843Z</time>
      </trkpt>
      <trkpt lat="64.58208" lon="21.28334">
        <ele>49.414394</ele>
        <time>2020-08-28T12:45:06.234Z</time>
      </trkpt>
      <trkpt lat="64.58202" lon="21.28414">
        <ele>48.121624</ele>
        <time>2020-08-28T12:45:10.540Z</time>
      </trkpt>
      <trkpt lat="64.58175" lon="21.28586">
        <ele>45.182784</ele>
        <time>2020-08-28T12:45:20.452Z</time>
      </trkpt>
      <trkpt lat="64.58177" lon="21.28611">
        <ele>44.774999</ele>
        <time>2020-08-28T12:45:21.867Z</time>
      </trkpt>
      <trkpt lat="64.58193" lon="21.28647">
        <ele>43.97915</ele>
        <time>2020-08-28T12:45:24.652Z</time>
      </trkpt>
      <trkpt lat="64.5823" lon="21.28694">
        <ele>42.438377</ele>
        <time>2020-08-28T12:45:30.381Z</time>
      </trkpt>
      <trkpt lat="64.58283" lon="21.28749">
        <ele>40.656378</ele>
        <time>2020-08-28T12:45:38.226Z</time>
      </trkpt>
      <trkpt lat="64.58352" lon="21.28822">
        <ele>38.325511</ele>
        <time>2020-08-28T12:45:48.357Z</time>
      </trkpt>
      <trkpt lat="64.58392" lon="21.28882">
        <ele>36.71603</ele>
        <time>2020-08-28T12:45:54.457Z</time>
      </trkpt>
      <trkpt lat="64.5841" lon="21.28922">
        <ele>35.423335</ele>
        <time>2020-08-28T12:45:57.607Z</time>
      </trkpt>
      <trkpt lat="64.58422" lon="21.29019">
        <ele>33.186834</ele>
        <time>2020-08-28T12:46:02.955Z</time>
      </trkpt>
      <trkpt lat="64.58421" lon="21.29086">
        <ele>31.70327</ele>
        <time>2020-08-28T12:46:06.401Z</time>
      </trkpt>
      <trkpt lat="64.58413" lon="21.29144">
        <ele>30.364621</ele>
        <time>2020-08-28T12:46:09.444Z</time>
      </trkpt>
      <trkpt lat="64.58338" lon="21.29426">
        <ele>22.904489</ele>
        <time>2020-08-28T12:46:26.144Z</time>
      </trkpt>
      <trkpt lat="64.58316" lon="21.29591">
        <ele>19.009791</ele>
        <time>2020-08-28T12:46:35.100Z</time>
      </trkpt>
      <trkpt lat="64.58297" lon="21.30013">
        <ele>14.937263</ele>
        <time>2020-08-28T12:47:00.117Z</time>
      </trkpt>
      <trkpt lat="64.58275" lon="21.30282">
        <ele>16.758895</ele>
        <time>2020-08-28T12:47:27.695Z</time>
      </trkpt>
      <trkpt lat="64.58265" lon="21.30388">
        <ele>17.649744</ele>
        <time>2020-08-28T12:47:40.876Z</time>
      </trkpt>
      <trkpt lat="64.5825" lon="21.30487">
        <ele>18.414874</ele>
        <time>2020-08-28T12:47:53.590Z</time>
      </trkpt>
      <trkpt lat="64.58235" lon="21.30545">
        <ele>18.830273</ele>
        <time>2020-08-28T12:48:01.850Z</time>
      </trkpt>
      <trkpt lat="64.57968" lon="21.31435">
        <ele>24.097499</ele>
        <time>2020-08-28T12:49:41.645Z</time>
      </trkpt>
      <trkpt lat="64.57911" lon="21.3156">
        <ele>22.917758</ele>
        <time>2020-08-28T12:49:53.096Z</time>
      </trkpt>
      <trkpt lat="64.57889" lon="21.31624">
        <ele>22.043663</ele>
        <time>2020-08-28T12:49:57.948Z</time>
      </trkpt>
      <trkpt lat="64.57878" lon="21.31677">
        <ele>21.422627</ele>
        <time>2020-08-28T12:50:01.312Z</time>
      </trkpt>
      <trkpt lat="64.57869" lon="21.31721">
        <ele>20.899721</ele>
        <time>2020-08-28T12:50:04.052Z</time>
      </trkpt>
      <trkpt lat="64.57838" lon="21.31987">
        <ele>16.99369</ele>
        <time>2020-08-28T12:50:19.110Z</time>
      </trkpt>
      <trkpt lat="64.57833" lon="21.32067">
        <ele>15.664922</ele>
        <time>2020-08-28T12:50:23.459Z</time>
      </trkpt>
      <trkpt lat="64.57836" lon="21.3217">
        <ele>13.969225</ele>
        <time>2020-08-28T12:50:29.078Z</time>
      </trkpt>
      <trkpt lat="64.57853" lon="21.32421">
        <ele>10.590281</ele>
        <time>2020-08-28T12:50:43.014Z</time>
      </trkpt>
      <trkpt lat="64.57908" lon="21.3277">
        <ele>7.428406</ele>
        <time>2020-08-28T12:51:05.327Z</time>
      </trkpt>
      <trkpt lat="64.57909" lon="21.32844">
        <ele>7.247142</ele>
        <time>2020-08-28T12:51:10.628Z</time>
      </trkpt>
      <trkpt lat="64.57896" lon="21.32925">
        <ele>7.036999</ele>
        <time>2020-08-28T12:51:17.212Z</time>
      </trkpt>
      <trkpt lat="64.57805" lon="21.33228">
        <ele>7.555146</ele>
        <time>2020-08-28T12:51:49.841Z</time>
      </trkpt>
      <trkpt lat="64.57646" lon="21.33758">
        <ele>9.356866</ele>
        <time>2020-08-28T12:52:45.443Z</time>
      </trkpt>
      <trkpt lat="64.57455" lon="21.34409">
        <ele>10.242864</ele>
        <time>2020-08-28T12:53:48.396Z</time>
      </trkpt>
      <trkpt lat="64.57439" lon="21.34474">
        <ele>10.253599</ele>
        <time>2020-08-28T12:53:54.300Z</time>
      </trkpt>
      <trkpt lat="64.57432" lon="21.34527">
        <ele>10.261403</ele>
        <time>2020-08-28T12:53:58.573Z</time>
      </trkpt>
      <trkpt lat="64.5741" lon="21.34859">
        <ele>10.311571</ele>
        <time>2020-08-28T12:54:24.345Z</time>
      </trkpt>
      <trkpt lat="64.57398" lon="21.34968">
        <ele>10.332362</ele>
        <time>2020-08-28T12:54:32.928Z</time>
      </trkpt>
      <trkpt lat="64.57363" lon="21.35256">
        <ele>10.398362</ele>
        <time>2020-08-28T12:54:56.028Z</time>
      </trkpt>
      <trkpt lat="64.57352" lon="21.35339">
        <ele>10.43225</ele>
        <time>2020-08-28T12:55:02.828Z</time>
      </trkpt>
      <trkpt lat="64.57339" lon="21.35444">
        <ele>10.474587</ele>
        <time>2020-08-28T12:55:11.339Z</time>
      </trkpt>
      <trkpt lat="64.57319" lon="21.35538">
        <ele>10.515502</ele>
        <time>2020-08-28T12:55:19.531Z</time>
      </trkpt>
      <trkpt lat="64.57283" lon="21.35657">
        <ele>10.53177</ele>
        <time>2020-08-28T12:55:30.861Z</time>
      </trkpt>
      <trkpt lat="64.57206" lon="21.3597">
        <ele>10.479065</ele>
        <time>2020-08-28T12:55:58.312Z</time>
      </trkpt>
      <trkpt lat="64.57117" lon="21.36216">
        <ele>10.293402</ele>
        <time>2020-08-28T12:56:22.297Z</time>
      </trkpt>
      <trkpt lat="64.57021" lon="21.36424">
        <ele>10.167772</ele>
        <time>2020-08-28T12:56:45.138Z</time>
      </trkpt>
      <trkpt lat="64.56986" lon="21.36478">
        <ele>10.132945</ele>
        <time>2020-08-28T12:56:52.532Z</time>
      </trkpt>
      <trkpt lat="64.56895" lon="21.36568">
        <ele>10.159826</ele>
        <time>2020-08-28T12:57:10.289Z</time>
      </trkpt>
      <trkpt lat="64.56856" lon="21.3659">
        <ele>10.199605</ele>
        <time>2020-08-28T12:57:17.575Z</time>
      </trkpt>
      <trkpt lat="64.56757" lon="21.3662">
        <ele>10.324847</ele>
        <time>2020-08-28T12:57:36.072Z</time>
      </trkpt>
      <trkpt lat="64.56703" lon="21.36679">
        <ele>10.46007</ele>
        <time>2020-08-28T12:57:47.108Z</time>
      </trkpt>
      <trkpt lat="64.56617" lon="21.36734">
        <ele>10.665274</ele>
        <time>2020-08-28T12:58:03.822Z</time>
      </trkpt>
      <trkpt lat="64.56538" lon="21.36806">
        <ele>10.51048</ele>
        <time>2020-08-28T12:58:19.079Z</time>
      </trkpt>
      <trkpt lat="64.56473" lon="21.3688">
        <ele>10.331912</ele>
        <time>2020-08-28T12:58:31.256Z</time>
      </trkpt>
      <trkpt lat="64.56452" lon="21.36891">
        <ele>10.279494</ele>
        <time>2020-08-28T12:58:34.698Z</time>
      </trkpt>
      <trkpt lat="64.56435" lon="21.36889">
        <ele>10.213131</ele>
        <time>2020-08-28T12:58:37.517Z</time>
      </trkpt>
      <trkpt lat="64.56414" lon="21.3687">
        <ele>10.033492</ele>
        <time>2020-08-28T12:58:41.121Z</time>
      </trkpt>
      <trkpt lat="64.5611" lon="21.36413">
        <ele>7.582903</ele>
        <time>2020-08-28T12:59:38.322Z</time>
      </trkpt>
      <trkpt lat="64.55852" lon="21.35976">
        <ele>9.142053</ele>
        <time>2020-08-28T13:00:41.756Z</time>
      </trkpt>
      <trkpt lat="64.55831" lon="21.35916">
        <ele>9.323137</ele>
        <time>2020-08-28T13:00:48.418Z</time>
      </trkpt>
      <trkpt lat="64.55822" lon="21.35815">
        <ele>9.542335</ele>
        <time>2020-08-28T13:00:57.299Z</time>
      </trkpt>
      <trkpt lat="64.55815" lon="21.3529">
        <ele>10.638997</ele>
        <time>2020-08-28T13:01:40.119Z</time>
      </trkpt>
      <trkpt lat="64.55808" lon="21.35169">
        <ele>10.889764</ele>
        <time>2020-08-28T13:01:50.304Z</time>
      </trkpt>
      <trkpt lat="64.55793" lon="21.35082">
        <ele>11.351771</ele>
        <time>2020-08-28T13:01:58.645Z</time>
      </trkpt>
      <trkpt lat="64.55782" lon="21.35033">
        <ele>11.728315</ele>
        <time>2020-08-28T13:02:03.732Z</time>
      </trkpt>
      <trkpt lat="64.55756" lon="21.34914">
        <ele>12.625023</ele>
        <time>2020-08-28T13:02:16.681Z</time>
      </trkpt>
      <trkpt lat="64.55749" lon="21.34856">
        <ele>13.026913</ele>
        <time>2020-08-28T13:02:22.791Z</time>
      </trkpt>
      <trkpt lat="64.5575" lon="21.34801">
        <ele>13.393315</ele>
        <time>2020-08-28T13:02:28.479Z</time>
      </trkpt>
      <trkpt lat="64.55764" lon="21.34663">
        <ele>14.584537</ele>
        <time>2020-08-28T13:02:44.063Z</time>
      </trkpt>
      <trkpt lat="64.55758" lon="21.34601">
        <ele>15.191897</ele>
        <time>2020-08-28T13:02:51.192Z</time>
      </trkpt>
      <trkpt lat="64.55737" lon="21.34541">
        <ele>15.923412</ele>
        <time>2020-08-28T13:02:59.715Z</time>
      </trkpt>
      <trkpt lat="64.5571" lon="21.34492">
        <ele>16.679192</ele>
        <time>2020-08-28T13:03:08.470Z</time>
      </trkpt>
      <trkpt lat="64.55536" lon="21.34227">
        <ele>20.515905</ele>
        <time>2020-08-28T13:03:57.757Z</time>
      </trkpt>
      <trkpt lat="64.55511" lon="21.34153">
        <ele>21.121829</ele>
        <time>2020-08-28T13:04:06.547Z</time>
      </trkpt>
      <trkpt lat="64.55489" lon="21.34067">
        <ele>21.668974</ele>
        <time>2020-08-28T13:04:15.845Z</time>
      </trkpt>
      <trkpt lat="64.55458" lon="21.33987">
        <ele>22.262662</ele>
        <time>2020-08-28T13:04:25.905Z</time>
      </trkpt>
      <trkpt lat="64.55387" lon="21.33892">
        <ele>23.292399</ele>
        <time>2020-08-28T13:04:43.710Z</time>
      </trkpt>
      <trkpt lat="64.55356" lon="21.33876">
        <ele>23.638789</ele>
        <time>2020-08-28T13:04:50.599Z</time>
      </trkpt>
      <trkpt lat="64.55202" lon="21.33844">
        <ele>25.16257</ele>
        <time>2020-08-28T13:05:23.907Z</time>
      </trkpt>
      <trkpt lat="64.55181" lon="21.33824">
        <ele>25.143865</ele>
        <time>2020-08-28T13:05:28.508Z</time>
      </trkpt>
      <trkpt lat="64.5515" lon="21.33782">
        <ele>25.114564</ele>
        <time>2020-08-28T13:05:35.264Z</time>
      </trkpt>
      <trkpt lat="64.55024" lon="21.33608">
        <ele>24.642729</ele>
        <time>2020-08-28T13:05:58.964Z</time>
      </trkpt>
      <trkpt lat="64.54992" lon="21.33581">
        <ele>24.334165</ele>
        <time>2020-08-28T13:06:04.223Z</time>
      </trkpt>
      <trkpt lat="64.54965" lon="21.33568">
        <ele>24.089439</ele>
        <time>2020-08-28T13:06:08.377Z</time>
      </trkpt>
      <trkpt lat="64.54769" lon="21.33554">
        <ele>22.412195</ele>
        <time>2020-08-28T13:06:39.103Z</time>
      </trkpt>
      <trkpt lat="64.54589" lon="21.33451">
        <ele>21.173048</ele>
        <time>2020-08-28T13:07:09.054Z</time>
      </trkpt>
      <trkpt lat="64.54579" lon="21.33444">
        <ele>21.110893</ele>
        <time>2020-08-28T13:07:10.743Z</time>
      </trkpt>
      <trkpt lat="64.54562" lon="21.33434">
        <ele>21.006234</ele>
        <time>2020-08-28T13:07:13.621Z</time>
      </trkpt>
      <trkpt lat="64.54451" lon="21.3343">
        <ele>20.474404</ele>
        <time>2020-08-28T13:07:31.917Z</time>
      </trkpt>
      <trkpt lat="64.54369" lon="21.33414">
        <ele>20.109982</ele>
        <time>2020-08-28T13:07:45.719Z</time>
      </trkpt>
      <trkpt lat="64.54305" lon="21.33439">
        <ele>19.768113</ele>
        <time>2020-08-28T13:07:56.579Z</time>
      </trkpt>
      <trkpt lat="64.5428" lon="21.33446">
        <ele>19.633741</ele>
        <time>2020-08-28T13:08:00.655Z</time>
      </trkpt>
      <trkpt lat="64.54251" lon="21.33442">
        <ele>19.475464</ele>
        <time>2020-08-28T13:08:05.408Z</time>
      </trkpt>
      <trkpt lat="64.54234" lon="21.33432">
        <ele>19.382102</ele>
        <time>2020-08-28T13:08:08.213Z</time>
      </trkpt>
      <trkpt lat="64.5423" lon="21.33426">
        <ele>19.352995</ele>
        <time>2020-08-28T13:08:09.080Z</time>
      </trkpt>
      <trkpt lat="64.54216" lon="21.33418">
        <ele>19.27815</ele>
        <time>2020-08-28T13:08:11.294Z</time>
      </trkpt>
      <trkpt lat="64.54189" lon="21.33407">
        <ele>19.129172</ele>
        <time>2020-08-28T13:08:15.714Z</time>
      </trkpt>
      <trkpt lat="64.54165" lon="21.33416">
        <ele>18.963041</ele>
        <time>2020-08-28T13:08:19.647Z</time>
      </trkpt>
      <trkpt lat="64.54143" lon="21.33427">
        <ele>18.786565</ele>
        <time>2020-08-28T13:08:23.292Z</time>
      </trkpt>
      <trkpt lat="64.5414" lon="21.33429">
        <ele>18.760631</ele>
        <time>2020-08-28T13:08:23.825Z</time>
      </trkpt>
      <trkpt lat="64.54081" lon="21.33468">
        <ele>18.294211</ele>
        <time>2020-08-28T13:08:33.403Z</time>
      </trkpt>
      <trkpt lat="64.54013" lon="21.33509">
        <ele>17.754109</ele>
        <time>2020-08-28T13:08:44.575Z</time>
      </trkpt>
      <trkpt lat="64.53855" lon="21.33558">
        <ele>16.768273</ele>
        <time>2020-08-28T13:09:10.368Z</time>
      </trkpt>
      <trkpt lat="64.53832" lon="21.33563">
        <ele>16.626945</ele>
        <time>2020-08-28T13:09:14.206Z</time>
      </trkpt>
      <trkpt lat="64.53793" lon="21.3362">
        <ele>16.403897</ele>
        <time>2020-08-28T13:09:21.843Z</time>
      </trkpt>
      <trkpt lat="64.53714" lon="21.33805">
        <ele>15.874333</ele>
        <time>2020-08-28T13:09:40.412Z</time>
      </trkpt>
      <trkpt lat="64.53697" lon="21.33868">
        <ele>15.720267</ele>
        <time>2020-08-28T13:09:45.820Z</time>
      </trkpt>
      <trkpt lat="64.53688" lon="21.33918">
        <ele>15.606033</ele>
        <time>2020-08-28T13:09:49.677Z</time>
      </trkpt>
      <trkpt lat="64.53654" lon="21.34198">
        <ele>14.991715</ele>
        <time>2020-08-28T13:10:10.308Z</time>
      </trkpt>
      <trkpt lat="64.53634" lon="21.34305">
        <ele>14.777557</ele>
        <time>2020-08-28T13:10:18.535Z</time>
      </trkpt>
      <trkpt lat="64.53611" lon="21.34373">
        <ele>14.645102</ele>
        <time>2020-08-28T13:10:24.658Z</time>
      </trkpt>
      <trkpt lat="64.53585" lon="21.34434">
        <ele>14.512973</ele>
        <time>2020-08-28T13:10:30.832Z</time>
      </trkpt>
      <trkpt lat="64.53521" lon="21.34563">
        <ele>14.215598</ele>
        <time>2020-08-28T13:10:45.270Z</time>
      </trkpt>
      <trkpt lat="64.53432" lon="21.34718">
        <ele>14.082177</ele>
        <time>2020-08-28T13:11:04.629Z</time>
      </trkpt>
      <trkpt lat="64.53304" lon="21.34916">
        <ele>14.001489</ele>
        <time>2020-08-28T13:11:31.994Z</time>
      </trkpt>
      <trkpt lat="64.53222" lon="21.35064">
        <ele>14.000012</ele>
        <time>2020-08-28T13:11:50.602Z</time>
      </trkpt>
      <trkpt lat="64.53045" lon="21.35284">
        <ele>14.000012</ele>
        <time>2020-08-28T13:12:26.358Z</time>
      </trkpt>
      <trkpt lat="64.52899" lon="21.35618">
        <ele>14.003778</ele>
        <time>2020-08-28T13:13:02.946Z</time>
      </trkpt>
      <trkpt lat="64.52873" lon="21.35655">
        <ele>14.005732</ele>
        <time>2020-08-28T13:13:08.326Z</time>
      </trkpt>
      <trkpt lat="64.52845" lon="21.35675">
        <ele>14.007662</ele>
        <time>2020-08-28T13:13:13.632Z</time>
      </trkpt>
      <trkpt lat="64.5277" lon="21.35696">
        <ele>14.023428</ele>
        <time>2020-08-28T13:13:27.022Z</time>
      </trkpt>
      <trkpt lat="64.52639" lon="21.35819">
        <ele>14.15241</ele>
        <time>2020-08-28T13:13:52.608Z</time>
      </trkpt>
      <trkpt lat="64.52608" lon="21.35863">
        <ele>14.200234</ele>
        <time>2020-08-28T13:13:59.383Z</time>
      </trkpt>
      <trkpt lat="64.52594" lon="21.359">
        <ele>14.245205</ele>
        <time>2020-08-28T13:14:03.237Z</time>
      </trkpt>
      <trkpt lat="64.52585" lon="21.35957">
        <ele>14.301983</ele>
        <time>2020-08-28T13:14:08.101Z</time>
      </trkpt>
      <trkpt lat="64.5258" lon="21.36081">
        <ele>14.417847</ele>
        <time>2020-08-28T13:14:18.087Z</time>
      </trkpt>
      <trkpt lat="64.52573" lon="21.36132">
        <ele>14.466871</ele>
        <time>2020-08-28T13:14:22.326Z</time>
      </trkpt>
      <trkpt lat="64.52561" lon="21.36177">
        <ele>14.515494</ele>
        <time>2020-08-28T13:14:26.548Z</time>
      </trkpt>
      <trkpt lat="64.52542" lon="21.36221">
        <ele>14.569567</ele>
        <time>2020-08-28T13:14:31.610Z</time>
      </trkpt>
      <trkpt lat="64.52424" lon="21.36366">
        <ele>14.729357</ele>
        <time>2020-08-28T13:14:56.191Z</time>
      </trkpt>
      <trkpt lat="64.5203" lon="21.36755">
        <ele>14.724032</ele>
        <time>2020-08-28T13:16:12.363Z</time>
      </trkpt>
      <trkpt lat="64.52002" lon="21.36808">
        <ele>14.742049</ele>
        <time>2020-08-28T13:16:18.760Z</time>
      </trkpt>
      <trkpt lat="64.51907" lon="21.37043">
        <ele>14.807105</ele>
        <time>2020-08-28T13:16:43.900Z</time>
      </trkpt>
      <trkpt lat="64.51881" lon="21.37119">
        <ele>14.818349</ele>
        <time>2020-08-28T13:16:51.440Z</time>
      </trkpt>
      <trkpt lat="64.51825" lon="21.37335">
        <ele>14.847724</ele>
        <time>2020-08-28T13:17:10.875Z</time>
      </trkpt>
      <trkpt lat="64.51788" lon="21.37418">
        <ele>14.780512</ele>
        <time>2020-08-28T13:17:19.878Z</time>
      </trkpt>
      <trkpt lat="64.5144" lon="21.379">
        <ele>14.135411</ele>
        <time>2020-08-28T13:18:29.855Z</time>
      </trkpt>
      <trkpt lat="64.51397" lon="21.3797">
        <ele>14.0648</ele>
        <time>2020-08-28T13:18:39.166Z</time>
      </trkpt>
      <trkpt lat="64.51211" lon="21.38319">
        <ele>13.984259</ele>
        <time>2020-08-28T13:19:21.629Z</time>
      </trkpt>
      <trkpt lat="64.51173" lon="21.38376">
        <ele>13.95604</ele>
        <time>2020-08-28T13:19:29.565Z</time>
      </trkpt>
      <trkpt lat="64.51116" lon="21.38437">
        <ele>13.91664</ele>
        <time>2020-08-28T13:19:40.617Z</time>
      </trkpt>
      <trkpt lat="64.5107" lon="21.38502">
        <ele>13.882297</ele>
        <time>2020-08-28T13:19:50.009Z</time>
      </trkpt>
      <trkpt lat="64.50994" lon="21.38636">
        <ele>13.792399</ele>
        <time>2020-08-28T13:20:06.875Z</time>
      </trkpt>
      <trkpt lat="64.50958" lon="21.38681">
        <ele>13.754361</ele>
        <time>2020-08-28T13:20:14.005Z</time>
      </trkpt>
      <trkpt lat="64.50815" lon="21.38784">
        <ele>13.741255</ele>
        <time>2020-08-28T13:20:40.731Z</time>
      </trkpt>
      <trkpt lat="64.50702" lon="21.38941">
        <ele>13.868975</ele>
        <time>2020-08-28T13:21:04.509Z</time>
      </trkpt>
      <trkpt lat="64.50649" lon="21.38949">
        <ele>13.966661</ele>
        <time>2020-08-28T13:21:14.227Z</time>
      </trkpt>
      <trkpt lat="64.50625" lon="21.38938">
        <ele>14.01259</ele>
        <time>2020-08-28T13:21:18.817Z</time>
      </trkpt>
      <trkpt lat="64.5057" lon="21.38936">
        <ele>14.139135</ele>
        <time>2020-08-28T13:21:29.049Z</time>
      </trkpt>
      <trkpt lat="64.50424" lon="21.38994">
        <ele>14.673591</ele>
        <time>2020-08-28T13:21:57.075Z</time>
      </trkpt>
      <trkpt lat="64.50387" lon="21.39024">
        <ele>14.886181</ele>
        <time>2020-08-28T13:22:04.734Z</time>
      </trkpt>
      <trkpt lat="64.50323" lon="21.39112">
        <ele>15.395537</ele>
        <time>2020-08-28T13:22:19.374Z</time>
      </trkpt>
      <trkpt lat="64.5026" lon="21.39291">
        <ele>16.106657</ele>
        <time>2020-08-28T13:22:39.972Z</time>
      </trkpt>
      <trkpt lat="64.50234" lon="21.39353">
        <ele>16.410162</ele>
        <time>2020-08-28T13:22:47.603Z</time>
      </trkpt>
      <trkpt lat="64.50207" lon="21.39399">
        <ele>16.685423</ele>
        <time>2020-08-28T13:22:54.518Z</time>
      </trkpt>
      <trkpt lat="64.50098" lon="21.39579">
        <ele>17.697799</ele>
        <time>2020-08-28T13:23:21.796Z</time>
      </trkpt>
      <trkpt lat="64.50063" lon="21.39627">
        <ele>17.949968</ele>
        <time>2020-08-28T13:23:29.795Z</time>
      </trkpt>
      <trkpt lat="64.50026" lon="21.39676">
        <ele>18.2179</ele>
        <time>2020-08-28T13:23:38.230Z</time>
      </trkpt>
      <trkpt lat="64.49973" lon="21.39704">
        <ele>18.556568</ele>
        <time>2020-08-28T13:23:48.853Z</time>
      </trkpt>
      <trkpt lat="64.4972" lon="21.39684">
        <ele>19.544945</ele>
        <time>2020-08-28T13:24:37.121Z</time>
      </trkpt>
      <trkpt lat="64.49534" lon="21.39673">
        <ele>20.095277</ele>
        <time>2020-08-28T13:25:11.963Z</time>
      </trkpt>
      <trkpt lat="64.49302" lon="21.3966">
        <ele>20.547332</ele>
        <time>2020-08-28T13:25:55.425Z</time>
      </trkpt>
      <trkpt lat="64.48988" lon="21.39643">
        <ele>20.336628</ele>
        <time>2020-08-28T13:26:50.190Z</time>
      </trkpt>
      <trkpt lat="64.4856" lon="21.39619">
        <ele>20.023029</ele>
        <time>2020-08-28T13:28:05.661Z</time>
      </trkpt>
      <trkpt lat="64.48532" lon="21.39608">
        <ele>20.007353</ele>
        <time>2020-08-28T13:28:10.795Z</time>
      </trkpt>
      <trkpt lat="64.48507" lon="21.39583">
        <ele>20.006246</ele>
        <time>2020-08-28T13:28:15.605Z</time>
      </trkpt>
      <trkpt lat="64.48337" lon="21.39247">
        <ele>20.000012</ele>
        <time>2020-08-28T13:28:55.320Z</time>
      </trkpt>
      <trkpt lat="64.48312" lon="21.39212">
        <ele>20.000012</ele>
        <time>2020-08-28T13:29:00.560Z</time>
      </trkpt>
      <trkpt lat="64.48286" lon="21.39188">
        <ele>20.000012</ele>
        <time>2020-08-28T13:29:05.619Z</time>
      </trkpt>
      <trkpt lat="64.48234" lon="21.39145">
        <ele>19.997945</ele>
        <time>2020-08-28T13:29:15.345Z</time>
      </trkpt>
      <trkpt lat="64.48182" lon="21.39084">
        <ele>19.956513</ele>
        <time>2020-08-28T13:29:25.748Z</time>
      </trkpt>
      <trkpt lat="64.48145" lon="21.39066">
        <ele>19.929839</ele>
        <time>2020-08-28T13:29:32.418Z</time>
      </trkpt>
      <trkpt lat="64.48021" lon="21.39045">
        <ele>19.797721</ele>
        <time>2020-08-28T13:29:54.249Z</time>
      </trkpt>
      <trkpt lat="64.47935" lon="21.3907">
        <ele>19.650555</ele>
        <time>2020-08-28T13:30:09.119Z</time>
      </trkpt>
      <trkpt lat="64.47709" lon="21.39199">
        <ele>19.137645</ele>
        <time>2020-08-28T13:30:49.083Z</time>
      </trkpt>
      <trkpt lat="64.47686" lon="21.39212">
        <ele>19.119245</ele>
        <time>2020-08-28T13:30:53.199Z</time>
      </trkpt>
      <trkpt lat="64.47641" lon="21.39237">
        <ele>19.083077</ele>
        <time>2020-08-28T13:31:01.309Z</time>
      </trkpt>
      <trkpt lat="64.47405" lon="21.39365">
        <ele>19.000012</ele>
        <time>2020-08-28T13:31:44.391Z</time>
      </trkpt>
      <trkpt lat="64.47274" lon="21.39391">
        <ele>19.026105</ele>
        <time>2020-08-28T13:32:07.814Z</time>
      </trkpt>
      <trkpt lat="64.47237" lon="21.39386">
        <ele>19.03738</ele>
        <time>2020-08-28T13:32:14.560Z</time>
      </trkpt>
      <trkpt lat="64.47141" lon="21.39362">
        <ele>19.102988</ele>
        <time>2020-08-28T13:32:31.886Z</time>
      </trkpt>
      <trkpt lat="64.47113" lon="21.39355">
        <ele>19.136251</ele>
        <time>2020-08-28T13:32:36.966Z</time>
      </trkpt>
      <trkpt lat="64.47075" lon="21.39343">
        <ele>19.182557</ele>
        <time>2020-08-28T13:32:44.075Z</time>
      </trkpt>
      <trkpt lat="64.47028" lon="21.39309">
        <ele>19.241237</ele>
        <time>2020-08-28T13:32:53.150Z</time>
      </trkpt>
      <trkpt lat="64.46845" lon="21.39177">
        <ele>19.631281</ele>
        <time>2020-08-28T13:33:28.895Z</time>
      </trkpt>
      <trkpt lat="64.46741" lon="21.39108">
        <ele>19.483283</ele>
        <time>2020-08-28T13:33:48.227Z</time>
      </trkpt>
      <trkpt lat="64.46709" lon="21.39086">
        <ele>19.423756</ele>
        <time>2020-08-28T13:33:54.077Z</time>
      </trkpt>
      <trkpt lat="64.46593" lon="21.39015">
        <ele>18.88781</ele>
        <time>2020-08-28T13:34:13.371Z</time>
      </trkpt>
      <trkpt lat="64.46574" lon="21.38998">
        <ele>18.757678</ele>
        <time>2020-08-28T13:34:16.544Z</time>
      </trkpt>
      <trkpt lat="64.46569" lon="21.39035">
        <ele>18.648878</ele>
        <time>2020-08-28T13:34:19.199Z</time>
      </trkpt>
      <trkpt lat="64.46566" lon="21.39101">
        <ele>18.4666</ele>
        <time>2020-08-28T13:34:23.709Z</time>
      </trkpt>
      <trkpt lat="64.46565" lon="21.39137">
        <ele>18.36883</ele>
        <time>2020-08-28T13:34:26.213Z</time>
      </trkpt>
      <trkpt lat="64.46565" lon="21.39181">
        <ele>18.246425</ele>
        <time>2020-08-28T13:34:29.305Z</time>
      </trkpt>
      <trkpt lat="64.46563" lon="21.39231">
        <ele>18.217356</ele>
        <time>2020-08-28T13:34:33.047Z</time>
      </trkpt>
      <trkpt lat="64.46563" lon="21.39261">
        <ele>18.245518</ele>
        <time>2020-08-28T13:34:35.188Z</time>
      </trkpt>
      <trkpt lat="64.46561" lon="21.39319">
        <ele>18.300355</ele>
        <time>2020-08-28T13:34:39.688Z</time>
      </trkpt>
      <trkpt lat="64.46562" lon="21.39342">
        <ele>18.321637</ele>
        <time>2020-08-28T13:34:41.350Z</time>
      </trkpt>
      <trkpt lat="64.46562" lon="21.39342">
        <ele>18.321637</ele>
        <time>2020-08-28T13:34:41.353Z</time>
      </trkpt>
      <trkpt lat="64.46562" lon="21.39342">
        <ele>18.321637</ele>
        <time>2020-08-28T13:34:41.377Z</time>
      </trkpt>
      <trkpt lat="64.46561" lon="21.39319">
        <ele>18.342919</ele>
        <time>2020-08-28T13:34:43.232Z</time>
      </trkpt>
      <trkpt lat="64.46563" lon="21.39261">
        <ele>18.397756</ele>
        <time>2020-08-28T13:34:47.775Z</time>
      </trkpt>
      <trkpt lat="64.46563" lon="21.39231">
        <ele>18.425917</ele>
        <time>2020-08-28T13:34:50.314Z</time>
      </trkpt>
      <trkpt lat="64.46565" lon="21.39181">
        <ele>18.473275</ele>
        <time>2020-08-28T13:34:54.386Z</time>
      </trkpt>
      <trkpt lat="64.46565" lon="21.39137">
        <ele>18.515192</ele>
        <time>2020-08-28T13:34:58.315Z</time>
      </trkpt>
      <trkpt lat="64.46566" lon="21.39101">
        <ele>18.548672</ele>
        <time>2020-08-28T13:35:01.336Z</time>
      </trkpt>
      <trkpt lat="64.46569" lon="21.39035">
        <ele>18.656282</ele>
        <time>2020-08-28T13:35:07.222Z</time>
      </trkpt>
      <trkpt lat="64.46574" lon="21.38998">
        <ele>18.752398</ele>
        <time>2020-08-28T13:35:10.706Z</time>
      </trkpt>
      <trkpt lat="64.46568" lon="21.38975">
        <ele>18.818208</ele>
        <time>2020-08-28T13:35:13.189Z</time>
      </trkpt>
      <trkpt lat="64.46529" lon="21.38856">
        <ele>19.181275</ele>
        <time>2020-08-28T13:35:26.325Z</time>
      </trkpt>
      <trkpt lat="64.46508" lon="21.38792">
        <ele>19.377285</ele>
        <time>2020-08-28T13:35:33.157Z</time>
      </trkpt>
      <trkpt lat="64.46488" lon="21.38736">
        <ele>19.55331</ele>
        <time>2020-08-28T13:35:38.940Z</time>
      </trkpt>
      <trkpt lat="64.46423" lon="21.38522">
        <ele>19.565769</ele>
        <time>2020-08-28T13:35:58.780Z</time>
      </trkpt>
      <trkpt lat="64.4642" lon="21.38508">
        <ele>19.563757</ele>
        <time>2020-08-28T13:35:59.939Z</time>
      </trkpt>
      <trkpt lat="64.46398" lon="21.38404">
        <ele>19.549329</ele>
        <time>2020-08-28T13:36:08.529Z</time>
      </trkpt>
      <trkpt lat="64.46315" lon="21.38016">
        <ele>19.731643</ele>
        <time>2020-08-28T13:36:42.168Z</time>
      </trkpt>
      <trkpt lat="64.46247" lon="21.37759">
        <ele>20.420127</ele>
        <time>2020-08-28T13:37:07.571Z</time>
      </trkpt>
      <trkpt lat="64.46099" lon="21.37253">
        <ele>22.056154</ele>
        <time>2020-08-28T13:38:01.085Z</time>
      </trkpt>
      <trkpt lat="64.46079" lon="21.37186">
        <ele>22.049356</ele>
        <time>2020-08-28T13:38:07.641Z</time>
      </trkpt>
      <trkpt lat="64.46056" lon="21.37112">
        <ele>22.041619</ele>
        <time>2020-08-28T13:38:14.864Z</time>
      </trkpt>
      <trkpt lat="64.4604" lon="21.37076">
        <ele>22.03722</ele>
        <time>2020-08-28T13:38:18.855Z</time>
      </trkpt>
      <trkpt lat="64.45835" lon="21.36742">
        <ele>20.659238</ele>
        <time>2020-08-28T13:38:59.627Z</time>
      </trkpt>
      <trkpt lat="64.45781" lon="21.36653">
        <ele>19.598352</ele>
        <time>2020-08-28T13:39:09.437Z</time>
      </trkpt>
      <trkpt lat="64.45757" lon="21.36612">
        <ele>19.12185</ele>
        <time>2020-08-28T13:39:13.740Z</time>
      </trkpt>
      <trkpt lat="64.45737" lon="21.36557">
        <ele>18.620088</ele>
        <time>2020-08-28T13:39:18.202Z</time>
      </trkpt>
      <trkpt lat="64.45718" lon="21.36493">
        <ele>18.084404</ele>
        <time>2020-08-28T13:39:22.883Z</time>
      </trkpt>
      <trkpt lat="64.45649" lon="21.36081">
        <ele>13.96219</ele>
        <time>2020-08-28T13:39:49.134Z</time>
      </trkpt>
      <trkpt lat="64.45588" lon="21.35867">
        <ele>12.442881</ele>
        <time>2020-08-28T13:40:05.316Z</time>
      </trkpt>
      <trkpt lat="64.45561" lon="21.35802">
        <ele>11.90342</ele>
        <time>2020-08-28T13:40:11.383Z</time>
      </trkpt>
      <trkpt lat="64.45513" lon="21.3575">
        <ele>11.48692</ele>
        <time>2020-08-28T13:40:19.816Z</time>
      </trkpt>
      <trkpt lat="64.45339" lon="21.35681">
        <ele>11.518487</ele>
        <time>2020-08-28T13:40:51.341Z</time>
      </trkpt>
      <trkpt lat="64.45017" lon="21.35363">
        <ele>14.581998</ele>
        <time>2020-08-28T13:42:05.726Z</time>
      </trkpt>
      <trkpt lat="64.44998" lon="21.35354">
        <ele>14.509243</ele>
        <time>2020-08-28T13:42:09.488Z</time>
      </trkpt>
      <trkpt lat="64.4497" lon="21.35348">
        <ele>14.401393</ele>
        <time>2020-08-28T13:42:14.372Z</time>
      </trkpt>
      <trkpt lat="64.44679" lon="21.35489">
        <ele>12.489236</ele>
        <time>2020-08-28T13:43:00.895Z</time>
      </trkpt>
      <trkpt lat="64.4458" lon="21.35495">
        <ele>12.217358</ele>
        <time>2020-08-28T13:43:17.281Z</time>
      </trkpt>
      <trkpt lat="64.44416" lon="21.35483">
        <ele>12.359014</ele>
        <time>2020-08-28T13:43:47.498Z</time>
      </trkpt>
      <trkpt lat="64.4431" lon="21.35473">
        <ele>12.854901</ele>
        <time>2020-08-28T13:44:08.460Z</time>
      </trkpt>
      <trkpt lat="64.43682" lon="21.35406">
        <ele>18.071795</ele>
        <time>2020-08-28T13:46:18.304Z</time>
      </trkpt>
      <trkpt lat="64.42211" lon="21.35286">
        <ele>23.214714</ele>
        <time>2020-08-28T13:50:58.030Z</time>
      </trkpt>
      <trkpt lat="64.41768" lon="21.35179">
        <ele>20.124907</ele>
        <time>2020-08-28T13:52:08.216Z</time>
      </trkpt>
      <trkpt lat="64.41084" lon="21.35016">
        <ele>17.510302</ele>
        <time>2020-08-28T13:54:05.083Z</time>
      </trkpt>
      <trkpt lat="64.41002" lon="21.34965">
        <ele>16.124705</ele>
        <time>2020-08-28T13:54:17.111Z</time>
      </trkpt>
      <trkpt lat="64.40777" lon="21.34765">
        <ele>13.301707</ele>
        <time>2020-08-28T13:54:52.015Z</time>
      </trkpt>
      <trkpt lat="64.40208" lon="21.34279">
        <ele>22.023817</ele>
        <time>2020-08-28T13:57:15.846Z</time>
      </trkpt>
      <trkpt lat="64.39364" lon="21.32976">
        <ele>12.014299</ele>
        <time>2020-08-28T13:59:49.678Z</time>
      </trkpt>
      <trkpt lat="64.38879" lon="21.31791">
        <ele>20.864717</ele>
        <time>2020-08-28T14:02:30.735Z</time>
      </trkpt>
      <trkpt lat="64.38828" lon="21.31702">
        <ele>20.558965</ele>
        <time>2020-08-28T14:02:40.644Z</time>
      </trkpt>
      <trkpt lat="64.38533" lon="21.31208">
        <ele>9.766686</ele>
        <time>2020-08-28T14:03:27.719Z</time>
      </trkpt>
      <trkpt lat="64.38516" lon="21.3118">
        <ele>9.555806</ele>
        <time>2020-08-28T14:03:30.636Z</time>
      </trkpt>
      <trkpt lat="64.38321" lon="21.30831">
        <ele>8.276133</ele>
        <time>2020-08-28T14:04:12.826Z</time>
      </trkpt>
      <trkpt lat="64.38198" lon="21.30726">
        <ele>8.920967</ele>
        <time>2020-08-28T14:04:38.785Z</time>
      </trkpt>
      <trkpt lat="64.38162" lon="21.30651">
        <ele>9.371188</ele>
        <time>2020-08-28T14:04:49.373Z</time>
      </trkpt>
      <trkpt lat="64.38142" lon="21.30517">
        <ele>9.936616</ele>
        <time>2020-08-28T14:05:02.294Z</time>
      </trkpt>
      <trkpt lat="64.38135" lon="21.30426">
        <ele>10.262989</ele>
        <time>2020-08-28T14:05:10.776Z</time>
      </trkpt>
      <trkpt lat="64.38133" lon="21.30407">
        <ele>10.329537</ele>
        <time>2020-08-28T14:05:12.821Z</time>
      </trkpt>
      <trkpt lat="64.38093" lon="21.30423">
        <ele>10.656042</ele>
        <time>2020-08-28T14:05:21.401Z</time>
      </trkpt>
      <trkpt lat="64.38001" lon="21.30438">
        <ele>11.385169</ele>
        <time>2020-08-28T14:05:39.798Z</time>
      </trkpt>
      <trkpt lat="64.37911" lon="21.30434">
        <ele>11.201305</ele>
        <time>2020-08-28T14:05:56.408Z</time>
      </trkpt>
      <trkpt lat="64.37439" lon="21.30331">
        <ele>9.588407</ele>
        <time>2020-08-28T14:07:15.225Z</time>
      </trkpt>
      <trkpt lat="64.3731" lon="21.30299">
        <ele>9.097017</ele>
        <time>2020-08-28T14:07:36.329Z</time>
      </trkpt>
      <trkpt lat="64.37227" lon="21.30275">
        <ele>9.709135</ele>
        <time>2020-08-28T14:07:51.569Z</time>
      </trkpt>
      <trkpt lat="64.37232" lon="21.30253">
        <ele>9.858418</ele>
        <time>2020-08-28T14:07:53.827Z</time>
      </trkpt>
      <trkpt lat="64.3724" lon="21.30216">
        <ele>10.102522</ele>
        <time>2020-08-28T14:07:57.505Z</time>
      </trkpt>
      <trkpt lat="64.3725" lon="21.30169">
        <ele>10.420172</ele>
        <time>2020-08-28T14:08:02.615Z</time>
      </trkpt>
      <trkpt lat="64.37274" lon="21.30047">
        <ele>11.228617</ele>
        <time>2020-08-28T14:08:16.571Z</time>
      </trkpt>
      <trkpt lat="64.37333" lon="21.29779">
        <ele>15.516851</ele>
        <time>2020-08-28T14:08:53.267Z</time>
      </trkpt>
      <trkpt lat="64.37363" lon="21.29563">
        <ele>19.353721</ele>
        <time>2020-08-28T14:09:24.829Z</time>
      </trkpt>
      <trkpt lat="64.37402" lon="21.28986">
        <ele>29.481528</ele>
        <time>2020-08-28T14:10:47.118Z</time>
      </trkpt>
      <trkpt lat="64.37528" lon="21.27541">
        <ele>39.426273</ele>
        <time>2020-08-28T14:13:09.307Z</time>
      </trkpt>
      <trkpt lat="64.37556" lon="21.27139">
        <ele>40.010703</ele>
        <time>2020-08-28T14:13:41.777Z</time>
      </trkpt>
      <trkpt lat="64.37575" lon="21.26803">
        <ele>39.879945</ele>
        <time>2020-08-28T14:14:07.479Z</time>
      </trkpt>
      <trkpt lat="64.37643" lon="21.24833">
        <ele>38.565352</ele>
        <time>2020-08-28T14:16:35.533Z</time>
      </trkpt>
      <trkpt lat="64.37657" lon="21.24512">
        <ele>39.101291</ele>
        <time>2020-08-28T14:17:01.497Z</time>
      </trkpt>
      <trkpt lat="64.37681" lon="21.24131">
        <ele>41.296594</ele>
        <time>2020-08-28T14:17:37.056Z</time>
      </trkpt>
      <trkpt lat="64.37778" lon="21.22957">
        <ele>53.505024</ele>
        <time>2020-08-28T14:19:51.344Z</time>
      </trkpt>
      <trkpt lat="64.37837" lon="21.22208">
        <ele>60.694816</ele>
        <time>2020-08-28T14:21:14.055Z</time>
      </trkpt>
      <trkpt lat="64.37866" lon="21.21888">
        <ele>61.965362</ele>
        <time>2020-08-28T14:21:43.016Z</time>
      </trkpt>
      <trkpt lat="64.37906" lon="21.21652">
        <ele>62.228906</ele>
        <time>2020-08-28T14:22:02.694Z</time>
      </trkpt>
      <trkpt lat="64.37934" lon="21.2154">
        <ele>62.244449</ele>
        <time>2020-08-28T14:22:12.543Z</time>
      </trkpt>
      <trkpt lat="64.38116" lon="21.20918">
        <ele>61.964602</ele>
        <time>2020-08-28T14:23:09.602Z</time>
      </trkpt>
      <trkpt lat="64.38208" lon="21.20577">
        <ele>61.683794</ele>
        <time>2020-08-28T14:23:39.921Z</time>
      </trkpt>
      <trkpt lat="64.38438" lon="21.19602">
        <ele>60.566528</ele>
        <time>2020-08-28T14:25:02.573Z</time>
      </trkpt>
      <trkpt lat="64.38494" lon="21.19327">
        <ele>59.917384</ele>
        <time>2020-08-28T14:25:24.268Z</time>
      </trkpt>
      <trkpt lat="64.38525" lon="21.19112">
        <ele>58.971749</ele>
        <time>2020-08-28T14:25:39.702Z</time>
      </trkpt>
      <trkpt lat="64.38545" lon="21.189">
        <ele>58.003731</ele>
        <time>2020-08-28T14:25:53.926Z</time>
      </trkpt>
      <trkpt lat="64.38564" lon="21.18625">
        <ele>56.081948</ele>
        <time>2020-08-28T14:26:11.639Z</time>
      </trkpt>
      <trkpt lat="64.38591" lon="21.1806">
        <ele>51.679911</ele>
        <time>2020-08-28T14:26:46.898Z</time>
      </trkpt>
      <trkpt lat="64.38592" lon="21.17933">
        <ele>50.399265</ele>
        <time>2020-08-28T14:26:54.592Z</time>
      </trkpt>
      <trkpt lat="64.38585" lon="21.178">
        <ele>49.052694</ele>
        <time>2020-08-28T14:27:02.576Z</time>
      </trkpt>
      <trkpt lat="64.38566" lon="21.17524">
        <ele>46.206056</ele>
        <time>2020-08-28T14:27:18.972Z</time>
      </trkpt>
      <trkpt lat="64.38554" lon="21.17428">
        <ele>45.176509</ele>
        <time>2020-08-28T14:27:24.831Z</time>
      </trkpt>
      <trkpt lat="64.3853" lon="21.17331">
        <ele>44.015325</ele>
        <time>2020-08-28T14:27:31.472Z</time>
      </trkpt>
      <trkpt lat="64.38428" lon="21.1699">
        <ele>40.935223</ele>
        <time>2020-08-28T14:27:57.049Z</time>
      </trkpt>
      <trkpt lat="64.38103" lon="21.1595">
        <ele>37.917898</ele>
        <time>2020-08-28T14:29:28.305Z</time>
      </trkpt>
      <trkpt lat="64.37899" lon="21.15432">
        <ele>39.44603</ele>
        <time>2020-08-28T14:30:28.735Z</time>
      </trkpt>
      <trkpt lat="64.37839" lon="21.153">
        <ele>39.818825</ele>
        <time>2020-08-28T14:30:44.457Z</time>
      </trkpt>
      <trkpt lat="64.3777" lon="21.15146">
        <ele>39.923268</ele>
        <time>2020-08-28T14:31:01.899Z</time>
      </trkpt>
      <trkpt lat="64.37745" lon="21.15085">
        <ele>39.962447</ele>
        <time>2020-08-28T14:31:08.333Z</time>
      </trkpt>
      <trkpt lat="64.37669" lon="21.14919">
        <ele>39.999281</ele>
        <time>2020-08-28T14:31:27.028Z</time>
      </trkpt>
      <trkpt lat="64.37635" lon="21.14826">
        <ele>39.999637</ele>
        <time>2020-08-28T14:31:36.452Z</time>
      </trkpt>
      <trkpt lat="64.37613" lon="21.14747">
        <ele>39.999909</ele>
        <time>2020-08-28T14:31:43.686Z</time>
      </trkpt>
      <trkpt lat="64.37602" lon="21.14659">
        <ele>39.989649</ele>
        <time>2020-08-28T14:31:50.769Z</time>
      </trkpt>
      <trkpt lat="64.37602" lon="21.145">
        <ele>39.96058</ele>
        <time>2020-08-28T14:32:02.964Z</time>
      </trkpt>
      <trkpt lat="64.37616" lon="21.14388">
        <ele>39.93897</ele>
        <time>2020-08-28T14:32:11.976Z</time>
      </trkpt>
      <trkpt lat="64.37645" lon="21.14237">
        <ele>39.766591</ele>
        <time>2020-08-28T14:32:24.413Z</time>
      </trkpt>
      <trkpt lat="64.37665" lon="21.14098">
        <ele>39.487006</ele>
        <time>2020-08-28T14:32:35.121Z</time>
      </trkpt>
      <trkpt lat="64.37667" lon="21.14004">
        <ele>39.307</ele>
        <time>2020-08-28T14:32:41.842Z</time>
      </trkpt>
      <trkpt lat="64.37659" lon="21.13734">
        <ele>38.454942</ele>
        <time>2020-08-28T14:33:00.352Z</time>
      </trkpt>
      <trkpt lat="64.37665" lon="21.13552">
        <ele>37.758286</ele>
        <time>2020-08-28T14:33:12.663Z</time>
      </trkpt>
      <trkpt lat="64.37672" lon="21.13431">
        <ele>37.510277</ele>
        <time>2020-08-28T14:33:20.922Z</time>
      </trkpt>
      <trkpt lat="64.37696" lon="21.13214">
        <ele>37.396996</ele>
        <time>2020-08-28T14:33:37.316Z</time>
      </trkpt>
      <trkpt lat="64.37716" lon="21.13106">
        <ele>37.337138</ele>
        <time>2020-08-28T14:33:47.087Z</time>
      </trkpt>
      <trkpt lat="64.37738" lon="21.13006">
        <ele>38.018709</ele>
        <time>2020-08-28T14:33:57.070Z</time>
      </trkpt>
      <trkpt lat="64.38019" lon="21.1203">
        <ele>45.957471</ele>
        <time>2020-08-28T14:35:54.920Z</time>
      </trkpt>
      <trkpt lat="64.38083" lon="21.11783">
        <ele>47.254262</ele>
        <time>2020-08-28T14:36:22.354Z</time>
      </trkpt>
      <trkpt lat="64.38158" lon="21.11411">
        <ele>47.65222</ele>
        <time>2020-08-28T14:36:54.831Z</time>
      </trkpt>
      <trkpt lat="64.38177" lon="21.1126">
        <ele>47.631508</ele>
        <time>2020-08-28T14:37:05.600Z</time>
      </trkpt>
      <trkpt lat="64.38203" lon="21.10937">
        <ele>47.614932</ele>
        <time>2020-08-28T14:37:30.361Z</time>
      </trkpt>
      <trkpt lat="64.38209" lon="21.10816">
        <ele>48.28522</ele>
        <time>2020-08-28T14:37:41.223Z</time>
      </trkpt>
      <trkpt lat="64.38223" lon="21.10358">
        <ele>52.12046</ele>
        <time>2020-08-28T14:38:30.704Z</time>
      </trkpt>
      <trkpt lat="64.38232" lon="21.09706">
        <ele>57.55106</ele>
        <time>2020-08-28T14:39:41.783Z</time>
      </trkpt>
      <trkpt lat="64.38188" lon="21.09693">
        <ele>57.433399</ele>
        <time>2020-08-28T14:39:49.577Z</time>
      </trkpt>
      <trkpt lat="64.37449" lon="21.08874">
        <ele>40.586628</ele>
        <time>2020-08-28T14:41:42.782Z</time>
      </trkpt>
      <trkpt lat="64.37065" lon="21.08574">
        <ele>40.305386</ele>
        <time>2020-08-28T14:42:56.330Z</time>
      </trkpt>
      <trkpt lat="64.37011" lon="21.08543">
        <ele>41.141768</ele>
        <time>2020-08-28T14:43:08.271Z</time>
      </trkpt>
      <trkpt lat="64.37401" lon="21.06619">
        <ele>56.861822</ele>
        <time>2020-08-28T14:46:48.223Z</time>
      </trkpt>
      <trkpt lat="64.37306" lon="21.05382">
        <ele>55.860426</ele>
        <time>2020-08-28T14:48:21.890Z</time>
      </trkpt>
      <trkpt lat="64.37306" lon="21.05126">
        <ele>53.996297</ele>
        <time>2020-08-28T14:48:37.035Z</time>
      </trkpt>
      <trkpt lat="64.37319" lon="21.04441">
        <ele>44.770399</ele>
        <time>2020-08-28T14:49:15.701Z</time>
      </trkpt>
      <trkpt lat="64.3733" lon="21.04361">
        <ele>43.688896</ele>
        <time>2020-08-28T14:49:20.569Z</time>
      </trkpt>
      <trkpt lat="64.37382" lon="21.04251">
        <ele>42.137666</ele>
        <time>2020-08-28T14:49:30.235Z</time>
      </trkpt>
      <trkpt lat="64.37422" lon="21.04083">
        <ele>40.730168</ele>
        <time>2020-08-28T14:49:42.141Z</time>
      </trkpt>
      <trkpt lat="64.37634" lon="21.03654">
        <ele>38.086826</ele>
        <time>2020-08-28T14:50:26.037Z</time>
      </trkpt>
      <trkpt lat="64.37734" lon="21.03393">
        <ele>38.063845</ele>
        <time>2020-08-28T14:50:54.088Z</time>
      </trkpt>
      <trkpt lat="64.37734" lon="21.03393">
        <ele>38.063845</ele>
        <time>2020-08-28T14:50:54.201Z</time>
      </trkpt>
      <trkpt lat="64.38236" lon="21.03583">
        <ele>39.718181</ele>
        <time>2020-08-28T14:52:30.318Z</time>
      </trkpt>
      <trkpt lat="64.38284" lon="21.03614">
        <ele>39.795317</ele>
        <time>2020-08-28T14:52:39.418Z</time>
      </trkpt>
      <trkpt lat="64.38353" lon="21.03968">
        <ele>39.962313</ele>
        <time>2020-08-28T14:53:09.803Z</time>
      </trkpt>
      <trkpt lat="64.384" lon="21.04034">
        <ele>39.975854</ele>
        <time>2020-08-28T14:53:19.785Z</time>
      </trkpt>
      <trkpt lat="64.38452" lon="21.04047">
        <ele>39.988488</ele>
        <time>2020-08-28T14:53:29.068Z</time>
      </trkpt>
      <trkpt lat="64.38502" lon="21.04025">
        <ele>40.000012</ele>
        <time>2020-08-28T14:53:38.100Z</time>
      </trkpt>
      <trkpt lat="64.38664" lon="21.03804">
        <ele>40.000012</ele>
        <time>2020-08-28T14:54:11.712Z</time>
      </trkpt>
      <trkpt lat="64.39031" lon="21.03053">
        <ele>39.956507</ele>
        <time>2020-08-28T14:55:39.065Z</time>
      </trkpt>
      <trkpt lat="64.39069" lon="21.02899">
        <ele>39.911046</ele>
        <time>2020-08-28T14:55:52.658Z</time>
      </trkpt>
      <trkpt lat="64.39121" lon="21.02616">
        <ele>39.796072</ele>
        <time>2020-08-28T14:56:15.868Z</time>
      </trkpt>
      <trkpt lat="64.39155" lon="21.02382">
        <ele>39.754185</ele>
        <time>2020-08-28T14:56:34.633Z</time>
      </trkpt>
      <trkpt lat="64.39174" lon="21.0232">
        <ele>39.742603</ele>
        <time>2020-08-28T14:56:40.454Z</time>
      </trkpt>
      <trkpt lat="64.39355" lon="21.02077">
        <ele>39.803705</ele>
        <time>2020-08-28T14:57:18.235Z</time>
      </trkpt>
      <trkpt lat="64.39504" lon="21.01896">
        <ele>39.914191</ele>
        <time>2020-08-28T14:57:48.753Z</time>
      </trkpt>
      <trkpt lat="64.39596" lon="21.01843">
        <ele>39.957988</ele>
        <time>2020-08-28T14:58:05.764Z</time>
      </trkpt>
      <trkpt lat="64.39713" lon="21.01886">
        <ele>40.000012</ele>
        <time>2020-08-28T14:58:26.933Z</time>
      </trkpt>
      <trkpt lat="64.3979" lon="21.01964">
        <ele>40.000012</ele>
        <time>2020-08-28T14:58:41.909Z</time>
      </trkpt>
      <trkpt lat="64.39829" lon="21.02037">
        <ele>40.000012</ele>
        <time>2020-08-28T14:58:50.925Z</time>
      </trkpt>
      <trkpt lat="64.39853" lon="21.02128">
        <ele>40.000012</ele>
        <time>2020-08-28T14:58:59.138Z</time>
      </trkpt>
      <trkpt lat="64.39878" lon="21.0216">
        <ele>40.000012</ele>
        <time>2020-08-28T14:59:04.178Z</time>
      </trkpt>
      <trkpt lat="64.39908" lon="21.02176">
        <ele>40.000012</ele>
        <time>2020-08-28T14:59:09.768Z</time>
      </trkpt>
      <trkpt lat="64.39938" lon="21.02156">
        <ele>40.000012</ele>
        <time>2020-08-28T14:59:15.277Z</time>
      </trkpt>
      <trkpt lat="64.40064" lon="21.01968">
        <ele>40.000012</ele>
        <time>2020-08-28T14:59:42.023Z</time>
      </trkpt>
      <trkpt lat="64.40079" lon="21.01966">
        <ele>40.000012</ele>
        <time>2020-08-28T14:59:44.777Z</time>
      </trkpt>
      <trkpt lat="64.40085" lon="21.01879">
        <ele>40.000012</ele>
        <time>2020-08-28T14:59:51.538Z</time>
      </trkpt>
      <trkpt lat="64.40107" lon="21.0177">
        <ele>40.000012</ele>
        <time>2020-08-28T15:00:00.824Z</time>
      </trkpt>
      <trkpt lat="64.40132" lon="21.017">
        <ele>40.000012</ele>
        <time>2020-08-28T15:00:07.791Z</time>
      </trkpt>
      <trkpt lat="64.40221" lon="21.01499">
        <ele>40.000012</ele>
        <time>2020-08-28T15:00:30.099Z</time>
      </trkpt>
      <trkpt lat="64.40252" lon="21.01387">
        <ele>40.000012</ele>
        <time>2020-08-28T15:00:40.287Z</time>
      </trkpt>
      <trkpt lat="64.4027" lon="21.01281">
        <ele>40.000012</ele>
        <time>2020-08-28T15:00:49.065Z</time>
      </trkpt>
      <trkpt lat="64.40287" lon="21.01084">
        <ele>40.000012</ele>
        <time>2020-08-28T15:01:04.572Z</time>
      </trkpt>
      <trkpt lat="64.40303" lon="21.00851">
        <ele>40.003427</ele>
        <time>2020-08-28T15:01:22.757Z</time>
      </trkpt>
      <trkpt lat="64.40234" lon="21.00798">
        <ele>40.006248</ele>
        <time>2020-08-28T15:01:35.792Z</time>
      </trkpt>
      <trkpt lat="64.40177" lon="21.0072">
        <ele>40.083565</ele>
        <time>2020-08-28T15:01:47.571Z</time>
      </trkpt>
      <trkpt lat="64.40111" lon="21.00645">
        <ele>40.203927</ele>
        <time>2020-08-28T15:02:01.011Z</time>
      </trkpt>
      <trkpt lat="64.40006" lon="21.00393">
        <ele>40.708899</ele>
        <time>2020-08-28T15:02:29.561Z</time>
      </trkpt>
      <trkpt lat="64.39971" lon="21.00347">
        <ele>40.886957</ele>
        <time>2020-08-28T15:02:37.415Z</time>
      </trkpt>
      <trkpt lat="64.39908" lon="21.00317">
        <ele>41.205189</ele>
        <time>2020-08-28T15:02:50.138Z</time>
      </trkpt>
      <trkpt lat="64.39874" lon="21.00314">
        <ele>41.415102</ele>
        <time>2020-08-28T15:02:56.761Z</time>
      </trkpt>
      <trkpt lat="64.39826" lon="21.00339">
        <ele>41.724924</ele>
        <time>2020-08-28T15:03:06.580Z</time>
      </trkpt>
      <trkpt lat="64.39766" lon="21.00329">
        <ele>42.104039</ele>
        <time>2020-08-28T15:03:18.551Z</time>
      </trkpt>
      <trkpt lat="64.39561" lon="21.00185">
        <ele>43.577949</ele>
        <time>2020-08-28T15:04:01.320Z</time>
      </trkpt>
      <trkpt lat="64.39516" lon="21.00171">
        <ele>43.993127</ele>
        <time>2020-08-28T15:04:10.776Z</time>
      </trkpt>
      <trkpt lat="64.39439" lon="21.00156">
        <ele>44.698699</ele>
        <time>2020-08-28T15:04:36.123Z</time>
      </trkpt>
      <trkpt lat="64.39387" lon="21.00149">
        <ele>45.172655</ele>
        <time>2020-08-28T15:04:53.286Z</time>
      </trkpt>
      <trkpt lat="64.39371" lon="21.0015">
        <ele>45.306136</ele>
        <time>2020-08-28T15:04:58.507Z</time>
      </trkpt>
      <trkpt lat="64.39355" lon="21.00159">
        <ele>45.449999</ele>
        <time>2020-08-28T15:05:03.892Z</time>
      </trkpt>
      <trkpt lat="64.39322" lon="21.00186">
        <ele>45.744979</ele>
        <time>2020-08-28T15:05:15.149Z</time>
      </trkpt>
      <trkpt lat="64.39288" lon="21.00197">
        <ele>46.04091</ele>
        <time>2020-08-28T15:05:26.372Z</time>
      </trkpt>
      <trkpt lat="64.39214" lon="21.00177">
        <ele>46.666896</ele>
        <time>2020-08-28T15:05:50.453Z</time>
      </trkpt>
      <trkpt lat="64.39141" lon="21.00191">
        <ele>47.162643</ele>
        <time>2020-08-28T15:06:13.877Z</time>
      </trkpt>
      <trkpt lat="64.39123" lon="21.00184">
        <ele>47.284545</ele>
        <time>2020-08-28T15:06:19.641Z</time>
      </trkpt>
      <trkpt lat="64.39071" lon="21.00115">
        <ele>47.691615</ele>
        <time>2020-08-28T15:06:38.902Z</time>
      </trkpt>
      <trkpt lat="64.39056" lon="21.00106">
        <ele>47.79592</ele>
        <time>2020-08-28T15:06:43.813Z</time>
      </trkpt>
      <trkpt lat="64.3894" lon="21.00117">
        <ele>48.046345</ele>
        <time>2020-08-28T15:07:19.796Z</time>
      </trkpt>
      <trkpt lat="64.38911" lon="21.00129">
        <ele>48.100953</ele>
        <time>2020-08-28T15:07:28.556Z</time>
      </trkpt>
      <trkpt lat="64.38835" lon="21.00225">
        <ele>47.972208</ele>
        <time>2020-08-28T15:07:53.732Z</time>
      </trkpt>
      <trkpt lat="64.38792" lon="21.003">
        <ele>47.727207</ele>
        <time>2020-08-28T15:08:08.964Z</time>
      </trkpt>
      <trkpt lat="64.3875" lon="21.00477">
        <ele>47.335333</ele>
        <time>2020-08-28T15:08:33.452Z</time>
      </trkpt>
      <trkpt lat="64.38706" lon="21.00584">
        <ele>47.105017</ele>
        <time>2020-08-28T15:08:51.334Z</time>
      </trkpt>
      <trkpt lat="64.38657" lon="21.00641">
        <ele>46.906016</ele>
        <time>2020-08-28T15:09:07.065Z</time>
      </trkpt>
      <trkpt lat="64.38621" lon="21.00664">
        <ele>46.773915</ele>
        <time>2020-08-28T15:09:17.704Z</time>
      </trkpt>
      <trkpt lat="64.38538" lon="21.00778">
        <ele>47.046537</ele>
        <time>2020-08-28T15:09:47.095Z</time>
      </trkpt>
      <trkpt lat="64.38465" lon="21.0082">
        <ele>47.362365</ele>
        <time>2020-08-28T15:10:10.723Z</time>
      </trkpt>
      <trkpt lat="64.38447" lon="21.00791">
        <ele>47.456181</ele>
        <time>2020-08-28T15:10:17.881Z</time>
      </trkpt>
      <trkpt lat="64.38426" lon="21.007">
        <ele>47.821152</ele>
        <time>2020-08-28T15:10:32.409Z</time>
      </trkpt>
      <trkpt lat="64.38332" lon="21.00518">
        <ele>48.858596</ele>
        <time>2020-08-28T15:11:12.656Z</time>
      </trkpt>
      <trkpt lat="64.38289" lon="21.00367">
        <ele>49.252184</ele>
        <time>2020-08-28T15:11:37.624Z</time>
      </trkpt>
      <trkpt lat="64.38148" lon="21.00197">
        <ele>49.630213</ele>
        <time>2020-08-28T15:12:26.140Z</time>
      </trkpt>
      <trkpt lat="64.38022" lon="21.0006">
        <ele>49.217835</ele>
        <time>2020-08-28T15:13:05.833Z</time>
      </trkpt>
      <trkpt lat="64.3799" lon="21.00013">
        <ele>48.885942</ele>
        <time>2020-08-28T15:13:16.350Z</time>
      </trkpt>
      <trkpt lat="64.37952" lon="20.99931">
        <ele>48.434859</ele>
        <time>2020-08-28T15:13:30.541Z</time>
      </trkpt>
      <trkpt lat="64.37915" lon="20.99814">
        <ele>47.886096</ele>
        <time>2020-08-28T15:13:47.601Z</time>
      </trkpt>
      <trkpt lat="64.37893" lon="20.99777">
        <ele>47.643399</ele>
        <time>2020-08-28T15:13:54.975Z</time>
      </trkpt>
      <trkpt lat="64.3784" lon="20.99735">
        <ele>46.932055</ele>
        <time>2020-08-28T15:14:09.866Z</time>
      </trkpt>
      <trkpt lat="64.37805" lon="20.99724">
        <ele>46.485128</ele>
        <time>2020-08-28T15:14:19.142Z</time>
      </trkpt>
      <trkpt lat="64.37703" lon="20.99745">
        <ele>45.256</ele>
        <time>2020-08-28T15:14:46.109Z</time>
      </trkpt>
      <trkpt lat="64.37566" lon="20.99795">
        <ele>44.218285</ele>
        <time>2020-08-28T15:15:23.764Z</time>
      </trkpt>
      <trkpt lat="64.37518" lon="20.99792">
        <ele>44.286548</ele>
        <time>2020-08-28T15:15:38.329Z</time>
      </trkpt>
      <trkpt lat="64.37449" lon="20.99762">
        <ele>45.171885</ele>
        <time>2020-08-28T15:16:01.030Z</time>
      </trkpt>
      <trkpt lat="64.37431" lon="20.99747">
        <ele>45.411532</ele>
        <time>2020-08-28T15:16:07.552Z</time>
      </trkpt>
      <trkpt lat="64.37413" lon="20.99708">
        <ele>45.72859</ele>
        <time>2020-08-28T15:16:16.425Z</time>
      </trkpt>
      <trkpt lat="64.37378" lon="20.99565">
        <ele>47.147274</ele>
        <time>2020-08-28T15:16:43.048Z</time>
      </trkpt>
      <trkpt lat="64.37312" lon="20.9949">
        <ele>49.481542</ele>
        <time>2020-08-28T15:17:12.196Z</time>
      </trkpt>
      <trkpt lat="64.37267" lon="20.99394">
        <ele>51.44892</ele>
        <time>2020-08-28T15:17:37.678Z</time>
      </trkpt>
      <trkpt lat="64.37243" lon="20.99384">
        <ele>52.233525</ele>
        <time>2020-08-28T15:17:47.664Z</time>
      </trkpt>
      <trkpt lat="64.37174" lon="20.99392">
        <ele>54.59721</ele>
        <time>2020-08-28T15:18:16.191Z</time>
      </trkpt>
      <trkpt lat="64.37141" lon="20.99358">
        <ele>55.825135</ele>
        <time>2020-08-28T15:18:30.925Z</time>
      </trkpt>
      <trkpt lat="64.37007" lon="20.9906">
        <ele>61.560897</ele>
        <time>2020-08-28T15:19:44.946Z</time>
      </trkpt>
      <trkpt lat="64.36996" lon="20.99023">
        <ele>62.1207</ele>
        <time>2020-08-28T15:19:52.420Z</time>
      </trkpt>
      <trkpt lat="64.3698" lon="20.98957">
        <ele>63.075464</ele>
        <time>2020-08-28T15:20:04.821Z</time>
      </trkpt>
      <trkpt lat="64.36949" lon="20.98842">
        <ele>64.556293</ele>
        <time>2020-08-28T15:20:26.536Z</time>
      </trkpt>
      <trkpt lat="64.3689" lon="20.98726">
        <ele>66.429852</ele>
        <time>2020-08-28T15:20:55.229Z</time>
      </trkpt>
      <trkpt lat="64.36864" lon="20.98656">
        <ele>67.405806</ele>
        <time>2020-08-28T15:21:10.037Z</time>
      </trkpt>
      <trkpt lat="64.36844" lon="20.98584">
        <ele>68.456998</ele>
        <time>2020-08-28T15:21:23.988Z</time>
      </trkpt>
      <trkpt lat="64.36784" lon="20.98306">
        <ele>72.69563</ele>
        <time>2020-08-28T15:22:18.048Z</time>
      </trkpt>
      <trkpt lat="64.36765" lon="20.9828">
        <ele>73.411302</ele>
        <time>2020-08-28T15:22:27.439Z</time>
      </trkpt>
      <trkpt lat="64.36742" lon="20.98264">
        <ele>74.091982</ele>
        <time>2020-08-28T15:22:37.203Z</time>
      </trkpt>
      <trkpt lat="64.36626" lon="20.98249">
        <ele>77.420299</ele>
        <time>2020-08-28T15:23:23.223Z</time>
      </trkpt>
      <trkpt lat="64.36604" lon="20.98232">
        <ele>78.087607</ele>
        <time>2020-08-28T15:23:31.919Z</time>
      </trkpt>
      <trkpt lat="64.36586" lon="20.98214">
        <ele>78.616502</ele>
        <time>2020-08-28T15:23:38.999Z</time>
      </trkpt>
      <trkpt lat="64.36551" lon="20.98146">
        <ele>79.054038</ele>
        <time>2020-08-28T15:23:55.129Z</time>
      </trkpt>
      <trkpt lat="64.36523" lon="20.98129">
        <ele>79.336104</ele>
        <time>2020-08-28T15:24:05.080Z</time>
      </trkpt>
      <trkpt lat="64.36495" lon="20.98125">
        <ele>79.60269</ele>
        <time>2020-08-28T15:24:14.160Z</time>
      </trkpt>
      <trkpt lat="64.36448" lon="20.98094">
        <ele>80.069769</ele>
        <time>2020-08-28T15:24:29.373Z</time>
      </trkpt>
      <trkpt lat="64.36421" lon="20.98054">
        <ele>80.299734</ele>
        <time>2020-08-28T15:24:38.894Z</time>
      </trkpt>
      <trkpt lat="64.36369" lon="20.9795">
        <ele>80.066383</ele>
        <time>2020-08-28T15:24:58.731Z</time>
      </trkpt>
      <trkpt lat="64.36343" lon="20.97928">
        <ele>79.971972</ele>
        <time>2020-08-28T15:25:06.590Z</time>
      </trkpt>
      <trkpt lat="64.36308" lon="20.97923">
        <ele>79.850914</ele>
        <time>2020-08-28T15:25:16.641Z</time>
      </trkpt>
      <trkpt lat="64.36232" lon="20.97931">
        <ele>79.517964</ele>
        <time>2020-08-28T15:25:37.994Z</time>
      </trkpt>
      <trkpt lat="64.36198" lon="20.97922">
        <ele>79.32373</ele>
        <time>2020-08-28T15:25:47.628Z</time>
      </trkpt>
      <trkpt lat="64.36159" lon="20.97896">
        <ele>79.096646</ele>
        <time>2020-08-28T15:25:58.844Z</time>
      </trkpt>
      <trkpt lat="64.36041" lon="20.97725">
        <ele>78.477549</ele>
        <time>2020-08-28T15:26:38.335Z</time>
      </trkpt>
      <trkpt lat="64.36016" lon="20.97678">
        <ele>78.376952</ele>
        <time>2020-08-28T15:26:47.520Z</time>
      </trkpt>
      <trkpt lat="64.35989" lon="20.97649">
        <ele>78.282842</ele>
        <time>2020-08-28T15:26:56.193Z</time>
      </trkpt>
      <trkpt lat="64.35848" lon="20.97594">
        <ele>77.780666</ele>
        <time>2020-08-28T15:27:38.260Z</time>
      </trkpt>
      <trkpt lat="64.35818" lon="20.97591">
        <ele>77.669271</ele>
        <time>2020-08-28T15:27:47.011Z</time>
      </trkpt>
      <trkpt lat="64.35783" lon="20.97609">
        <ele>77.538956</ele>
        <time>2020-08-28T15:27:56.977Z</time>
      </trkpt>
      <trkpt lat="64.35765" lon="20.97631">
        <ele>77.464084</ele>
        <time>2020-08-28T15:28:02.584Z</time>
      </trkpt>
      <trkpt lat="64.35728" lon="20.97728">
        <ele>76.358395</ele>
        <time>2020-08-28T15:28:17.762Z</time>
      </trkpt>
      <trkpt lat="64.35694" lon="20.97759">
        <ele>75.634552</ele>
        <time>2020-08-28T15:28:27.123Z</time>
      </trkpt>
      <trkpt lat="64.35678" lon="20.97762">
        <ele>75.311293</ele>
        <time>2020-08-28T15:28:31.225Z</time>
      </trkpt>
      <trkpt lat="64.35592" lon="20.97726">
        <ele>73.135852</ele>
        <time>2020-08-28T15:28:52.456Z</time>
      </trkpt>
      <trkpt lat="64.3553" lon="20.97721">
        <ele>70.237056</ele>
        <time>2020-08-28T15:29:06.553Z</time>
      </trkpt>
      <trkpt lat="64.35433" lon="20.97732">
        <ele>65.674391</ele>
        <time>2020-08-28T15:29:27.702Z</time>
      </trkpt>
      <trkpt lat="64.35387" lon="20.97724">
        <ele>62.60535</ele>
        <time>2020-08-28T15:29:37.442Z</time>
      </trkpt>
      <trkpt lat="64.353" lon="20.97696">
        <ele>56.462699</ele>
        <time>2020-08-28T15:29:55.883Z</time>
      </trkpt>
      <trkpt lat="64.35208" lon="20.97648">
        <ele>50.222003</ele>
        <time>2020-08-28T15:30:15.132Z</time>
      </trkpt>
      <trkpt lat="64.35162" lon="20.97644">
        <ele>47.386125</ele>
        <time>2020-08-28T15:30:24.650Z</time>
      </trkpt>
      <trkpt lat="64.35122" lon="20.97653">
        <ele>44.859586</ele>
        <time>2020-08-28T15:30:33.284Z</time>
      </trkpt>
      <trkpt lat="64.35078" lon="20.97731">
        <ele>41.572084</ele>
        <time>2020-08-28T15:30:45.463Z</time>
      </trkpt>
      <trkpt lat="64.35023" lon="20.97802">
        <ele>39.960617</ele>
        <time>2020-08-28T15:30:59.997Z</time>
      </trkpt>
      <trkpt lat="64.34967" lon="20.97852">
        <ele>38.427398</ele>
        <time>2020-08-28T15:31:15.129Z</time>
      </trkpt>
      <trkpt lat="64.34924" lon="20.97906">
        <ele>37.180504</ele>
        <time>2020-08-28T15:31:28.384Z</time>
      </trkpt>
      <trkpt lat="64.34885" lon="20.97992">
        <ele>36.881808</ele>
        <time>2020-08-28T15:31:37.004Z</time>
      </trkpt>
      <trkpt lat="64.3486" lon="20.98048">
        <ele>36.736742</ele>
        <time>2020-08-28T15:31:42.788Z</time>
      </trkpt>
      <trkpt lat="64.34827" lon="20.98082">
        <ele>36.584809</ele>
        <time>2020-08-28T15:31:48.995Z</time>
      </trkpt>
      <trkpt lat="64.34789" lon="20.98091">
        <ele>36.426167</ele>
        <time>2020-08-28T15:31:55.673Z</time>
      </trkpt>
      <trkpt lat="64.34748" lon="20.98128">
        <ele>36.393606</ele>
        <time>2020-08-28T15:32:03.558Z</time>
      </trkpt>
      <trkpt lat="64.34636" lon="20.98246">
        <ele>36.640277</ele>
        <time>2020-08-28T15:32:26.247Z</time>
      </trkpt>
      <trkpt lat="64.34601" lon="20.98312">
        <ele>36.749207</ele>
        <time>2020-08-28T15:32:34.867Z</time>
      </trkpt>
      <trkpt lat="64.34552" lon="20.98423">
        <ele>36.983705</ele>
        <time>2020-08-28T15:32:47.876Z</time>
      </trkpt>
      <trkpt lat="64.34522" lon="20.98507">
        <ele>37.144563</ele>
        <time>2020-08-28T15:32:56.838Z</time>
      </trkpt>
      <trkpt lat="64.34455" lon="20.98845">
        <ele>37.541345</ele>
        <time>2020-08-28T15:33:27.034Z</time>
      </trkpt>
      <trkpt lat="64.34288" lon="20.99723">
        <ele>37.993752</ele>
        <time>2020-08-28T15:34:42.806Z</time>
      </trkpt>
      <trkpt lat="64.34239" lon="20.9989">
        <ele>37.255734</ele>
        <time>2020-08-28T15:34:57.706Z</time>
      </trkpt>
      <trkpt lat="64.33911" lon="21.00692">
        <ele>31.238292</ele>
        <time>2020-08-28T15:36:09.870Z</time>
      </trkpt>
      <trkpt lat="64.33869" lon="21.00763">
        <ele>29.329234</ele>
        <time>2020-08-28T15:36:16.528Z</time>
      </trkpt>
      <trkpt lat="64.33815" lon="21.00824">
        <ele>27.098825</ele>
        <time>2020-08-28T15:36:24.052Z</time>
      </trkpt>
      <trkpt lat="64.33759" lon="21.00867">
        <ele>24.919085</ele>
        <time>2020-08-28T15:36:31.247Z</time>
      </trkpt>
      <trkpt lat="64.33691" lon="21.00886">
        <ele>22.790378</ele>
        <time>2020-08-28T15:36:39.828Z</time>
      </trkpt>
      <trkpt lat="64.33653" lon="21.00884">
        <ele>21.593442</ele>
        <time>2020-08-28T15:36:44.849Z</time>
      </trkpt>
      <trkpt lat="64.33629" lon="21.00886">
        <ele>20.833955</ele>
        <time>2020-08-28T15:36:48.140Z</time>
      </trkpt>
      <trkpt lat="64.3358" lon="21.00887">
        <ele>19.331023</ele>
        <time>2020-08-28T15:36:54.971Z</time>
      </trkpt>
      <trkpt lat="64.33524" lon="21.00891">
        <ele>18.729162</ele>
        <time>2020-08-28T15:37:03.200Z</time>
      </trkpt>
      <trkpt lat="64.33167" lon="21.00902">
        <ele>15.7297</ele>
        <time>2020-08-28T15:38:00.393Z</time>
      </trkpt>
      <trkpt lat="64.33099" lon="21.00937">
        <ele>15.257204</ele>
        <time>2020-08-28T15:38:11.475Z</time>
      </trkpt>
      <trkpt lat="64.33034" lon="21.00996">
        <ele>14.889219</ele>
        <time>2020-08-28T15:38:22.747Z</time>
      </trkpt>
      <trkpt lat="64.32952" lon="21.0111">
        <ele>14.930696</ele>
        <time>2020-08-28T15:38:39.270Z</time>
      </trkpt>
      <trkpt lat="64.32705" lon="21.01478">
        <ele>16.488822</ele>
        <time>2020-08-28T15:39:37.641Z</time>
      </trkpt>
      <trkpt lat="64.32429" lon="21.01891">
        <ele>19.156725</ele>
        <time>2020-08-28T15:40:45.552Z</time>
      </trkpt>
      <trkpt lat="64.3237" lon="21.01958">
        <ele>19.379287</ele>
        <time>2020-08-28T15:40:58.462Z</time>
      </trkpt>
      <trkpt lat="64.32124" lon="21.02152">
        <ele>19.806285</ele>
        <time>2020-08-28T15:41:45.694Z</time>
      </trkpt>
      <trkpt lat="64.31978" lon="21.02267">
        <ele>19.509426</ele>
        <time>2020-08-28T15:42:12.350Z</time>
      </trkpt>
      <trkpt lat="64.31948" lon="21.02282">
        <ele>19.437965</ele>
        <time>2020-08-28T15:42:17.508Z</time>
      </trkpt>
      <trkpt lat="64.31915" lon="21.02292">
        <ele>19.287456</ele>
        <time>2020-08-28T15:42:23.134Z</time>
      </trkpt>
      <trkpt lat="64.30228" lon="21.02838">
        <ele>8.745502</ele>
        <time>2020-08-28T15:46:58.740Z</time>
      </trkpt>
      <trkpt lat="64.30155" lon="21.02868">
        <ele>8.448385</ele>
        <time>2020-08-28T15:47:11.437Z</time>
      </trkpt>
      <trkpt lat="64.30088" lon="21.02909">
        <ele>8.591839</ele>
        <time>2020-08-28T15:47:23.754Z</time>
      </trkpt>
      <trkpt lat="64.29978" lon="21.03004">
        <ele>8.886145</ele>
        <time>2020-08-28T15:47:46.246Z</time>
      </trkpt>
      <trkpt lat="64.29963" lon="21.0302">
        <ele>8.997756</ele>
        <time>2020-08-28T15:47:49.566Z</time>
      </trkpt>
      <trkpt lat="64.29814" lon="21.0315">
        <ele>10.06041</ele>
        <time>2020-08-28T15:48:21.826Z</time>
      </trkpt>
      <trkpt lat="64.29775" lon="21.03168">
        <ele>10.15349</ele>
        <time>2020-08-28T15:48:29.747Z</time>
      </trkpt>
      <trkpt lat="64.2918" lon="21.03289">
        <ele>11.735033</ele>
        <time>2020-08-28T15:50:19.663Z</time>
      </trkpt>
      <trkpt lat="64.28885" lon="21.03337">
        <ele>13.868056</ele>
        <time>2020-08-28T15:51:19.472Z</time>
      </trkpt>
      <trkpt lat="64.28824" lon="21.0336">
        <ele>14.645188</ele>
        <time>2020-08-28T15:51:33.391Z</time>
      </trkpt>
      <trkpt lat="64.28713" lon="21.03422">
        <ele>15.974064</ele>
        <time>2020-08-28T15:51:58.943Z</time>
      </trkpt>
      <trkpt lat="64.28545" lon="21.03521">
        <ele>17.317369</ele>
        <time>2020-08-28T15:52:34.253Z</time>
      </trkpt>
      <trkpt lat="64.28405" lon="21.03607">
        <ele>17.676035</ele>
        <time>2020-08-28T15:53:00.850Z</time>
      </trkpt>
      <trkpt lat="64.28346" lon="21.03655">
        <ele>17.388461</ele>
        <time>2020-08-28T15:53:11.581Z</time>
      </trkpt>
      <trkpt lat="64.28307" lon="21.03704">
        <ele>17.104686</ele>
        <time>2020-08-28T15:53:19.002Z</time>
      </trkpt>
      <trkpt lat="64.28285" lon="21.03748">
        <ele>16.920771</ele>
        <time>2020-08-28T15:53:23.668Z</time>
      </trkpt>
      <trkpt lat="64.28221" lon="21.03914">
        <ele>15.958776</ele>
        <time>2020-08-28T15:53:38.329Z</time>
      </trkpt>
      <trkpt lat="64.28141" lon="21.0401">
        <ele>14.618854</ele>
        <time>2020-08-28T15:53:51.537Z</time>
      </trkpt>
      <trkpt lat="64.28122" lon="21.04025">
        <ele>14.32207</ele>
        <time>2020-08-28T15:53:54.388Z</time>
      </trkpt>
      <trkpt lat="64.28079" lon="21.0407">
        <ele>13.626873</ele>
        <time>2020-08-28T15:54:01.237Z</time>
      </trkpt>
      <trkpt lat="64.28043" lon="21.04108">
        <ele>13.054148</ele>
        <time>2020-08-28T15:54:06.979Z</time>
      </trkpt>
      <trkpt lat="64.27965" lon="21.04201">
        <ele>11.780401</ele>
        <time>2020-08-28T15:54:19.994Z</time>
      </trkpt>
      <trkpt lat="64.2795" lon="21.04222">
        <ele>11.530328</ele>
        <time>2020-08-28T15:54:22.603Z</time>
      </trkpt>
      <trkpt lat="64.27902" lon="21.04112">
        <ele>10.964</ele>
        <time>2020-08-28T15:54:33.176Z</time>
      </trkpt>
      <trkpt lat="64.27869" lon="21.04039">
        <ele>10.673945</ele>
        <time>2020-08-28T15:54:40.484Z</time>
      </trkpt>
      <trkpt lat="64.27855" lon="21.0401">
        <ele>10.554255</ele>
        <time>2020-08-28T15:54:43.584Z</time>
      </trkpt>
      <trkpt lat="64.27839" lon="21.03973">
        <ele>10.41104</ele>
        <time>2020-08-28T15:54:47.293Z</time>
      </trkpt>
      <trkpt lat="64.27774" lon="21.04115">
        <ele>10.517729</ele>
        <time>2020-08-28T15:55:02.761Z</time>
      </trkpt>
      <trkpt lat="64.2774" lon="21.04168">
        <ele>10.837141</ele>
        <time>2020-08-28T15:55:10.160Z</time>
      </trkpt>
      <trkpt lat="64.27624" lon="21.04337">
        <ele>12.573176</ele>
        <time>2020-08-28T15:55:41.460Z</time>
      </trkpt>
      <trkpt lat="64.27486" lon="21.04534">
        <ele>15.760201</ele>
        <time>2020-08-28T15:56:24.052Z</time>
      </trkpt>
      <trkpt lat="64.27404" lon="21.04642">
        <ele>16.548732</ele>
        <time>2020-08-28T15:56:44.771Z</time>
      </trkpt>
      <trkpt lat="64.27328" lon="21.04703">
        <ele>16.740981</ele>
        <time>2020-08-28T15:56:57.539Z</time>
      </trkpt>
      <trkpt lat="64.27297" lon="21.04728">
        <ele>16.345187</ele>
        <time>2020-08-28T15:57:02.393Z</time>
      </trkpt>
      <trkpt lat="64.27275" lon="21.04765">
        <ele>16.015334</ele>
        <time>2020-08-28T15:57:06.520Z</time>
      </trkpt>
      <trkpt lat="64.2727" lon="21.04773">
        <ele>15.950936</ele>
        <time>2020-08-28T15:57:07.262Z</time>
      </trkpt>
      <trkpt lat="64.2724" lon="21.04854">
        <ele>15.393584</ele>
        <time>2020-08-28T15:57:14.284Z</time>
      </trkpt>
      <trkpt lat="64.27234" lon="21.0487">
        <ele>15.28665</ele>
        <time>2020-08-28T15:57:15.576Z</time>
      </trkpt>
      <trkpt lat="64.27232" lon="21.04877">
        <ele>15.247787</ele>
        <time>2020-08-28T15:57:16.067Z</time>
      </trkpt>
      <trkpt lat="64.27203" lon="21.04982">
        <ele>14.815359</ele>
        <time>2020-08-28T15:57:24.658Z</time>
      </trkpt>
      <trkpt lat="64.2717" lon="21.04945">
        <ele>14.716969</ele>
        <time>2020-08-28T15:57:30.662Z</time>
      </trkpt>
      <trkpt lat="64.27149" lon="21.0493">
        <ele>14.655786</ele>
        <time>2020-08-28T15:57:34.621Z</time>
      </trkpt>
      <trkpt lat="64.27106" lon="21.04941">
        <ele>14.539822</ele>
        <time>2020-08-28T15:57:42.458Z</time>
      </trkpt>
      <trkpt lat="64.27067" lon="21.04983">
        <ele>14.423078</ele>
        <time>2020-08-28T15:57:51.070Z</time>
      </trkpt>
      <trkpt lat="64.27055" lon="21.04997">
        <ele>14.411563</ele>
        <time>2020-08-28T15:57:53.788Z</time>
      </trkpt>
      <trkpt lat="64.27038" lon="21.05019">
        <ele>14.62934</ele>
        <time>2020-08-28T15:57:57.748Z</time>
      </trkpt>
      <trkpt lat="64.27022" lon="21.0503">
        <ele>14.815873</ele>
        <time>2020-08-28T15:58:01.241Z</time>
      </trkpt>
      <trkpt lat="64.26994" lon="21.0505">
        <ele>15.15234</ele>
        <time>2020-08-28T15:58:07.498Z</time>
      </trkpt>
      <trkpt lat="64.26948" lon="21.05062">
        <ele>15.667488</ele>
        <time>2020-08-28T15:58:17.838Z</time>
      </trkpt>
      <trkpt lat="64.26921" lon="21.05042">
        <ele>15.989398</ele>
        <time>2020-08-28T15:58:24.607Z</time>
      </trkpt>
      <trkpt lat="64.2689" lon="21.04999">
        <ele>16.400645</ele>
        <time>2020-08-28T15:58:33.284Z</time>
      </trkpt>
      <trkpt lat="64.26851" lon="21.04971">
        <ele>16.961808</ele>
        <time>2020-08-28T15:58:42.929Z</time>
      </trkpt>
      <trkpt lat="64.2682" lon="21.04956">
        <ele>17.393786</ele>
        <time>2020-08-28T15:58:50.309Z</time>
      </trkpt>
      <trkpt lat="64.26801" lon="21.0495">
        <ele>17.664294</ele>
        <time>2020-08-28T15:58:54.955Z</time>
      </trkpt>
      <trkpt lat="64.26767" lon="21.04957">
        <ele>18.140188</ele>
        <time>2020-08-28T15:59:02.865Z</time>
      </trkpt>
      <trkpt lat="64.26722" lon="21.04991">
        <ele>18.786805</ele>
        <time>2020-08-28T15:59:13.343Z</time>
      </trkpt>
      <trkpt lat="64.26659" lon="21.04998">
        <ele>19.259849</ele>
        <time>2020-08-28T15:59:26.970Z</time>
      </trkpt>
      <trkpt lat="64.26608" lon="21.05019">
        <ele>19.600525</ele>
        <time>2020-08-28T15:59:37.247Z</time>
      </trkpt>
      <trkpt lat="64.26583" lon="21.0501">
        <ele>19.763577</ele>
        <time>2020-08-28T15:59:42.172Z</time>
      </trkpt>
      <trkpt lat="64.2657" lon="21.04998">
        <ele>19.856082</ele>
        <time>2020-08-28T15:59:44.944Z</time>
      </trkpt>
      <trkpt lat="64.26522" lon="21.04905">
        <ele>20.757658</ele>
        <time>2020-08-28T15:59:57.343Z</time>
      </trkpt>
      <trkpt lat="64.2645" lon="21.04847">
        <ele>22.535196</ele>
        <time>2020-08-28T16:00:16.061Z</time>
      </trkpt>
      <trkpt lat="64.26435" lon="21.0477">
        <ele>23.39776</ele>
        <time>2020-08-28T16:00:26.617Z</time>
      </trkpt>
      <trkpt lat="64.26424" lon="21.04677">
        <ele>24.433605</ele>
        <time>2020-08-28T16:00:39.291Z</time>
      </trkpt>
      <trkpt lat="64.26424" lon="21.04661">
        <ele>24.741572</ele>
        <time>2020-08-28T16:00:41.828Z</time>
      </trkpt>
      <trkpt lat="64.26374" lon="21.04665">
        <ele>26.853833</ele>
        <time>2020-08-28T16:00:57.913Z</time>
      </trkpt>
      <trkpt lat="64.26255" lon="21.04674">
        <ele>31.913608</ele>
        <time>2020-08-28T16:01:37.733Z</time>
      </trkpt>
      <trkpt lat="64.26086" lon="21.0465">
        <ele>34.548106</ele>
        <time>2020-08-28T16:02:17.716Z</time>
      </trkpt>
      <trkpt lat="64.25807" lon="21.04597">
        <ele>29.705663</ele>
        <time>2020-08-28T16:02:56.415Z</time>
      </trkpt>
      <trkpt lat="64.25732" lon="21.04583">
        <ele>28.384099</ele>
        <time>2020-08-28T16:03:07.253Z</time>
      </trkpt>
      <trkpt lat="64.25679" lon="21.04567">
        <ele>28.403633</ele>
        <time>2020-08-28T16:03:16.116Z</time>
      </trkpt>
      <trkpt lat="64.25636" lon="21.04551">
        <ele>28.739854</ele>
        <time>2020-08-28T16:03:24.668Z</time>
      </trkpt>
      <trkpt lat="64.2558" lon="21.04523">
        <ele>29.181732</ele>
        <time>2020-08-28T16:03:37.293Z</time>
      </trkpt>
      <trkpt lat="64.25523" lon="21.04491">
        <ele>29.848533</ele>
        <time>2020-08-28T16:03:51.297Z</time>
      </trkpt>
      <trkpt lat="64.25478" lon="21.04452">
        <ele>30.790095</ele>
        <time>2020-08-28T16:04:03.337Z</time>
      </trkpt>
      <trkpt lat="64.25333" lon="21.04311">
        <ele>33.745592</ele>
        <time>2020-08-28T16:04:41.167Z</time>
      </trkpt>
      <trkpt lat="64.25026" lon="21.03939">
        <ele>38.699524</ele>
        <time>2020-08-28T16:06:00.387Z</time>
      </trkpt>
      <trkpt lat="64.2455" lon="21.03395">
        <ele>38.910613</ele>
        <time>2020-08-28T16:07:33.865Z</time>
      </trkpt>
      <trkpt lat="64.24131" lon="21.02923">
        <ele>38.229998</ele>
        <time>2020-08-28T16:08:56.737Z</time>
      </trkpt>
      <trkpt lat="64.24096" lon="21.02883">
        <ele>38.068363</ele>
        <time>2020-08-28T16:09:02.676Z</time>
      </trkpt>
      <trkpt lat="64.23963" lon="21.02723">
        <ele>36.959379</ele>
        <time>2020-08-28T16:09:25.260Z</time>
      </trkpt>
      <trkpt lat="64.23543" lon="21.02086">
        <ele>37.903967</ele>
        <time>2020-08-28T16:11:00.489Z</time>
      </trkpt>
      <trkpt lat="64.23491" lon="21.02008">
        <ele>37.994006</ele>
        <time>2020-08-28T16:11:11.762Z</time>
      </trkpt>
      <trkpt lat="64.23444" lon="21.01941">
        <ele>37.662837</ele>
        <time>2020-08-28T16:11:21.353Z</time>
      </trkpt>
      <trkpt lat="64.23395" lon="21.01876">
        <ele>37.153148</ele>
        <time>2020-08-28T16:11:30.677Z</time>
      </trkpt>
      <trkpt lat="64.23299" lon="21.0178">
        <ele>35.877046</ele>
        <time>2020-08-28T16:11:46.078Z</time>
      </trkpt>
      <trkpt lat="64.23254" lon="21.01745">
        <ele>34.656639</ele>
        <time>2020-08-28T16:11:52.786Z</time>
      </trkpt>
      <trkpt lat="64.23263" lon="21.01668">
        <ele>33.76461</ele>
        <time>2020-08-28T16:11:57.529Z</time>
      </trkpt>
      <trkpt lat="64.23265" lon="21.01615">
        <ele>33.178278</ele>
        <time>2020-08-28T16:12:00.550Z</time>
      </trkpt>
      <trkpt lat="64.23265" lon="21.01513">
        <ele>32.041157</ele>
        <time>2020-08-28T16:12:06.415Z</time>
      </trkpt>
      <trkpt lat="64.23236" lon="21.00622">
        <ele>19.584936</ele>
        <time>2020-08-28T16:12:56.463Z</time>
      </trkpt>
      <trkpt lat="64.23235" lon="21.00576">
        <ele>19.461832</ele>
        <time>2020-08-28T16:12:59.498Z</time>
      </trkpt>
      <trkpt lat="64.23219" lon="21.00101">
        <ele>18.90579</ele>
        <time>2020-08-28T16:13:37.674Z</time>
      </trkpt>
      <trkpt lat="64.23211" lon="20.99816">
        <ele>19.437397</ele>
        <time>2020-08-28T16:14:02.454Z</time>
      </trkpt>
      <trkpt lat="64.23211" lon="20.99782">
        <ele>19.480843</ele>
        <time>2020-08-28T16:14:05.410Z</time>
      </trkpt>
      <trkpt lat="64.2321" lon="20.99752">
        <ele>19.517743</ele>
        <time>2020-08-28T16:14:07.808Z</time>
      </trkpt>
      <trkpt lat="64.2321" lon="20.9972">
        <ele>19.558419</ele>
        <time>2020-08-28T16:14:10.476Z</time>
      </trkpt>
      <trkpt lat="64.2321" lon="20.99674">
        <ele>19.616601</ele>
        <time>2020-08-28T16:14:14.276Z</time>
      </trkpt>
      <trkpt lat="64.23218" lon="20.99295">
        <ele>19.969298</ele>
        <time>2020-08-28T16:14:44.361Z</time>
      </trkpt>
      <trkpt lat="64.23218" lon="20.99273">
        <ele>19.976503</ele>
        <time>2020-08-28T16:14:46.119Z</time>
      </trkpt>
      <trkpt lat="64.23219" lon="20.99261">
        <ele>19.98011</ele>
        <time>2020-08-28T16:14:46.995Z</time>
      </trkpt>
      <trkpt lat="64.23231" lon="20.98844">
        <ele>20.214267</ele>
        <time>2020-08-28T16:15:19.858Z</time>
      </trkpt>
      <trkpt lat="64.23232" lon="20.98822">
        <ele>20.233924</ele>
        <time>2020-08-28T16:15:21.598Z</time>
      </trkpt>
      <trkpt lat="64.23279" lon="20.97125">
        <ele>22.193433</ele>
        <time>2020-08-28T16:17:39.057Z</time>
      </trkpt>
      <trkpt lat="64.23277" lon="20.96985">
        <ele>22.564998</ele>
        <time>2020-08-28T16:17:51.604Z</time>
      </trkpt>
      <trkpt lat="64.23267" lon="20.96836">
        <ele>23.516564</ele>
        <time>2020-08-28T16:18:06.059Z</time>
      </trkpt>
      <trkpt lat="64.23216" lon="20.96317">
        <ele>27.601013</ele>
        <time>2020-08-28T16:19:01.731Z</time>
      </trkpt>
      <trkpt lat="64.23099" lon="20.9512">
        <ele>36.5022</ele>
        <time>2020-08-28T16:21:06.435Z</time>
      </trkpt>
      <trkpt lat="64.23078" lon="20.94973">
        <ele>37.379448</ele>
        <time>2020-08-28T16:21:20.723Z</time>
      </trkpt>
      <trkpt lat="64.23043" lon="20.94837">
        <ele>37.629013</ele>
        <time>2020-08-28T16:21:34.361Z</time>
      </trkpt>
      <trkpt lat="64.22769" lon="20.94142">
        <ele>38.407534</ele>
        <time>2020-08-28T16:22:46.168Z</time>
      </trkpt>
      <trkpt lat="64.2272" lon="20.93982">
        <ele>39.019543</ele>
        <time>2020-08-28T16:23:04.651Z</time>
      </trkpt>
      <trkpt lat="64.22386" lon="20.9213">
        <ele>57.405022</ele>
        <time>2020-08-28T16:26:41.166Z</time>
      </trkpt>
      <trkpt lat="64.22341" lon="20.91906">
        <ele>58.533196</ele>
        <time>2020-08-28T16:27:04.358Z</time>
      </trkpt>
      <trkpt lat="64.22292" lon="20.91718">
        <ele>59.295742</ele>
        <time>2020-08-28T16:27:22.783Z</time>
      </trkpt>
      <trkpt lat="64.22151" lon="20.91256">
        <ele>59.190671</ele>
        <time>2020-08-28T16:28:06.095Z</time>
      </trkpt>
      <trkpt lat="64.22084" lon="20.91056">
        <ele>58.97002</ele>
        <time>2020-08-28T16:28:24.741Z</time>
      </trkpt>
      <trkpt lat="64.21925" lon="20.90579">
        <ele>58.285453</ele>
        <time>2020-08-28T16:29:08.815Z</time>
      </trkpt>
      <trkpt lat="64.21531" lon="20.89375">
        <ele>58.428402</ele>
        <time>2020-08-28T16:31:06.727Z</time>
      </trkpt>
      <trkpt lat="64.20843" lon="20.87509">
        <ele>63.614257</ele>
        <time>2020-08-28T16:34:33.090Z</time>
      </trkpt>
      <trkpt lat="64.20645" lon="20.86972">
        <ele>65.784357</ele>
        <time>2020-08-28T16:35:37.413Z</time>
      </trkpt>
      <trkpt lat="64.20608" lon="20.86874">
        <ele>65.988725</ele>
        <time>2020-08-28T16:35:46.720Z</time>
      </trkpt>
      <trkpt lat="64.20581" lon="20.86808">
        <ele>65.38097</ele>
        <time>2020-08-28T16:35:52.751Z</time>
      </trkpt>
      <trkpt lat="64.20073" lon="20.85432">
        <ele>53.659302</ele>
        <time>2020-08-28T16:37:47.286Z</time>
      </trkpt>
      <trkpt lat="64.19978" lon="20.85185">
        <ele>52.767644</ele>
        <time>2020-08-28T16:38:11.484Z</time>
      </trkpt>
      <trkpt lat="64.19891" lon="20.84983">
        <ele>52.575753</ele>
        <time>2020-08-28T16:38:33.871Z</time>
      </trkpt>
      <trkpt lat="64.1978" lon="20.84722">
        <ele>51.988548</ele>
        <time>2020-08-28T16:39:00.915Z</time>
      </trkpt>
      <trkpt lat="64.19679" lon="20.84497">
        <ele>50.223679</ele>
        <time>2020-08-28T16:39:22.323Z</time>
      </trkpt>
      <trkpt lat="64.1964" lon="20.84418">
        <ele>49.504618</ele>
        <time>2020-08-28T16:39:29.642Z</time>
      </trkpt>
      <trkpt lat="64.19627" lon="20.84391">
        <ele>49.110697</ele>
        <time>2020-08-28T16:39:32.148Z</time>
      </trkpt>
      <trkpt lat="64.19574" lon="20.84269">
        <ele>47.440441</ele>
        <time>2020-08-28T16:39:42.495Z</time>
      </trkpt>
      <trkpt lat="64.19462" lon="20.84487">
        <ele>44.567315</ele>
        <time>2020-08-28T16:40:02.746Z</time>
      </trkpt>
      <trkpt lat="64.19369" lon="20.84689">
        <ele>42.642625</ele>
        <time>2020-08-28T16:40:21.845Z</time>
      </trkpt>
      <trkpt lat="64.19346" lon="20.84736">
        <ele>42.506091</ele>
        <time>2020-08-28T16:40:26.820Z</time>
      </trkpt>
      <trkpt lat="64.19269" lon="20.84902">
        <ele>42.038698</ele>
        <time>2020-08-28T16:40:44.695Z</time>
      </trkpt>
      <trkpt lat="64.19212" lon="20.85028">
        <ele>42.138546</ele>
        <time>2020-08-28T16:40:59.039Z</time>
      </trkpt>
      <trkpt lat="64.19147" lon="20.85164">
        <ele>42.557087</ele>
        <time>2020-08-28T16:41:15.829Z</time>
      </trkpt>
      <trkpt lat="64.19083" lon="20.85301">
        <ele>43.399927</ele>
        <time>2020-08-28T16:41:34.186Z</time>
      </trkpt>
      <trkpt lat="64.18989" lon="20.85507">
        <ele>45.266628</ele>
        <time>2020-08-28T16:42:04.147Z</time>
      </trkpt>
      <trkpt lat="64.18917" lon="20.8566">
        <ele>46.645884</ele>
        <time>2020-08-28T16:42:27.233Z</time>
      </trkpt>
      <trkpt lat="64.18912" lon="20.85651">
        <ele>46.737026</ele>
        <time>2020-08-28T16:42:28.655Z</time>
      </trkpt>
      <trkpt lat="64.18874" lon="20.85733">
        <ele>47.474804</ele>
        <time>2020-08-28T16:42:40.654Z</time>
      </trkpt>
      <trkpt lat="64.18814" lon="20.85855">
        <ele>48.203506</ele>
        <time>2020-08-28T16:42:57.600Z</time>
      </trkpt>
      <trkpt lat="64.18807" lon="20.85868">
        <ele>48.257048</ele>
        <time>2020-08-28T16:42:59.201Z</time>
      </trkpt>
      <trkpt lat="64.1871" lon="20.86076">
        <ele>49.169704</ele>
        <time>2020-08-28T16:43:25.449Z</time>
      </trkpt>
      <trkpt lat="64.18647" lon="20.86217">
        <ele>50.246469</ele>
        <time>2020-08-28T16:43:45.853Z</time>
      </trkpt>
      <trkpt lat="64.18652" lon="20.86231">
        <ele>50.34371</ele>
        <time>2020-08-28T16:43:47.774Z</time>
      </trkpt>
      <trkpt lat="64.1866" lon="20.86246">
        <ele>50.463396</ele>
        <time>2020-08-28T16:43:50.270Z</time>
      </trkpt>
      <trkpt lat="64.18663" lon="20.86258">
        <ele>50.539132</ele>
        <time>2020-08-28T16:43:51.742Z</time>
      </trkpt>
      <trkpt lat="64.18661" lon="20.86284">
        <ele>50.682194</ele>
        <time>2020-08-28T16:43:54.415Z</time>
      </trkpt>
      <trkpt lat="64.18652" lon="20.86307">
        <ele>50.839411</ele>
        <time>2020-08-28T16:43:57.441Z</time>
      </trkpt>
      <trkpt lat="64.18638" lon="20.86345">
        <ele>51.107867</ele>
        <time>2020-08-28T16:44:02.529Z</time>
      </trkpt>
      <trkpt lat="64.18583" lon="20.86466">
        <ele>50.853139</ele>
        <time>2020-08-28T16:44:19.027Z</time>
      </trkpt>
      <trkpt lat="64.1857" lon="20.86515">
        <ele>50.721791</ele>
        <time>2020-08-28T16:44:24.155Z</time>
      </trkpt>
      <trkpt lat="64.18536" lon="20.86756">
        <ele>49.549149</ele>
        <time>2020-08-28T16:44:40.676Z</time>
      </trkpt>
      <trkpt lat="64.1848" lon="20.86958">
        <ele>46.281157</ele>
        <time>2020-08-28T16:44:54.574Z</time>
      </trkpt>
      <trkpt lat="64.18465" lon="20.87094">
        <ele>44.585421</ele>
        <time>2020-08-28T16:45:02.920Z</time>
      </trkpt>
      <trkpt lat="64.18441" lon="20.87244">
        <ele>44.073548</ele>
        <time>2020-08-28T16:45:13.280Z</time>
      </trkpt>
      <trkpt lat="64.18415" lon="20.87548">
        <ele>43.63492</ele>
        <time>2020-08-28T16:45:40.400Z</time>
      </trkpt>
      <trkpt lat="64.18393" lon="20.87724">
        <ele>44.375914</ele>
        <time>2020-08-28T16:45:59.555Z</time>
      </trkpt>
      <trkpt lat="64.18349" lon="20.87953">
        <ele>44.682541</ele>
        <time>2020-08-28T16:46:21.954Z</time>
      </trkpt>
      <trkpt lat="64.18222" lon="20.88394">
        <ele>42.50535</ele>
        <time>2020-08-28T16:46:58.375Z</time>
      </trkpt>
      <trkpt lat="64.18193" lon="20.88538">
        <ele>41.636835</ele>
        <time>2020-08-28T16:47:09.139Z</time>
      </trkpt>
      <trkpt lat="64.1812" lon="20.89144">
        <ele>38.902138</ele>
        <time>2020-08-28T16:47:53.964Z</time>
      </trkpt>
      <trkpt lat="64.18107" lon="20.89223">
        <ele>38.522222</ele>
        <time>2020-08-28T16:47:59.898Z</time>
      </trkpt>
      <trkpt lat="64.1806" lon="20.89437">
        <ele>37.214294</ele>
        <time>2020-08-28T16:48:16.465Z</time>
      </trkpt>
      <trkpt lat="64.18006" lon="20.89629">
        <ele>35.585649</ele>
        <time>2020-08-28T16:48:31.646Z</time>
      </trkpt>
      <trkpt lat="64.17927" lon="20.89845">
        <ele>33.372881</ele>
        <time>2020-08-28T16:48:49.901Z</time>
      </trkpt>
      <trkpt lat="64.17858" lon="20.89985">
        <ele>31.624714</ele>
        <time>2020-08-28T16:49:03.623Z</time>
      </trkpt>
      <trkpt lat="64.17742" lon="20.90282">
        <ele>28.581791</ele>
        <time>2020-08-28T16:49:29.674Z</time>
      </trkpt>
      <trkpt lat="64.17728" lon="20.90328">
        <ele>28.240914</ele>
        <time>2020-08-28T16:49:33.500Z</time>
      </trkpt>
      <trkpt lat="64.17722" lon="20.90349">
        <ele>28.138567</ele>
        <time>2020-08-28T16:49:35.220Z</time>
      </trkpt>
      <trkpt lat="64.17649" lon="20.90587">
        <ele>26.975849</ele>
        <time>2020-08-28T16:49:55.851Z</time>
      </trkpt>
      <trkpt lat="64.17544" lon="20.90861">
        <ele>26.204788</ele>
        <time>2020-08-28T16:50:24.221Z</time>
      </trkpt>
      <trkpt lat="64.17458" lon="20.90985">
        <ele>25.548705</ele>
        <time>2020-08-28T16:50:41.748Z</time>
      </trkpt>
      <trkpt lat="64.17349" lon="20.91122">
        <ele>24.392074</ele>
        <time>2020-08-28T16:51:01.778Z</time>
      </trkpt>
      <trkpt lat="64.17304" lon="20.91199">
        <ele>23.644038</ele>
        <time>2020-08-28T16:51:10.564Z</time>
      </trkpt>
      <trkpt lat="64.17262" lon="20.91245">
        <ele>23.008904</ele>
        <time>2020-08-28T16:51:17.692Z</time>
      </trkpt>
      <trkpt lat="64.17228" lon="20.91318">
        <ele>22.364265</ele>
        <time>2020-08-28T16:51:24.909Z</time>
      </trkpt>
      <trkpt lat="64.171" lon="20.91506">
        <ele>20.612566</ele>
        <time>2020-08-28T16:51:48.826Z</time>
      </trkpt>
      <trkpt lat="64.1706" lon="20.91629">
        <ele>19.895287</ele>
        <time>2020-08-28T16:51:59.799Z</time>
      </trkpt>
      <trkpt lat="64.16845" lon="20.92436">
        <ele>17.862337</ele>
        <time>2020-08-28T16:53:10.600Z</time>
      </trkpt>
      <trkpt lat="64.16837" lon="20.92439">
        <ele>17.846163</ele>
        <time>2020-08-28T16:53:12.028Z</time>
      </trkpt>
      <trkpt lat="64.16821" lon="20.92513">
        <ele>17.775219</ele>
        <time>2020-08-28T16:53:18.169Z</time>
      </trkpt>
      <trkpt lat="64.16808" lon="20.9256">
        <ele>17.72726</ele>
        <time>2020-08-28T16:53:22.430Z</time>
      </trkpt>
      <trkpt lat="64.16803" lon="20.92581">
        <ele>17.706727</ele>
        <time>2020-08-28T16:53:24.221Z</time>
      </trkpt>
      <trkpt lat="64.16798" lon="20.92597">
        <ele>17.690313</ele>
        <time>2020-08-28T16:53:25.700Z</time>
      </trkpt>
      <trkpt lat="64.16795" lon="20.92608">
        <ele>17.678916</ele>
        <time>2020-08-28T16:53:26.734Z</time>
      </trkpt>
      <trkpt lat="64.16774" lon="20.92683">
        <ele>17.653369</ele>
        <time>2020-08-28T16:53:33.857Z</time>
      </trkpt>
      <trkpt lat="64.16706" lon="20.92865">
        <ele>18.361559</ele>
        <time>2020-08-28T16:53:54.478Z</time>
      </trkpt>
      <trkpt lat="64.166" lon="20.93083">
        <ele>19.541386</ele>
        <time>2020-08-28T16:54:24.492Z</time>
      </trkpt>
      <trkpt lat="64.16589" lon="20.93064">
        <ele>19.671562</ele>
        <time>2020-08-28T16:54:28.970Z</time>
      </trkpt>
      <trkpt lat="64.16494" lon="20.92947">
        <ele>20.715928</ele>
        <time>2020-08-28T16:55:04.335Z</time>
      </trkpt>
      <trkpt lat="64.16363" lon="20.92812">
        <ele>22.123187</ele>
        <time>2020-08-28T16:55:51.322Z</time>
      </trkpt>
      <trkpt lat="64.16261" lon="20.92694">
        <ele>23.019435</ele>
        <time>2020-08-28T16:56:29.116Z</time>
      </trkpt>
      <trkpt lat="64.16217" lon="20.92612">
        <ele>23.43291</ele>
        <time>2020-08-28T16:56:47.303Z</time>
      </trkpt>
      <trkpt lat="64.16119" lon="20.92373">
        <ele>23.31623</ele>
        <time>2020-08-28T16:57:29.985Z</time>
      </trkpt>
      <trkpt lat="64.15955" lon="20.92002">
        <ele>21.544501</ele>
        <time>2020-08-28T16:58:32.577Z</time>
      </trkpt>
      <trkpt lat="64.15938" lon="20.91974">
        <ele>21.356394</ele>
        <time>2020-08-28T16:58:38.247Z</time>
      </trkpt>
      <trkpt lat="64.15894" lon="20.91932">
        <ele>21.067699</ele>
        <time>2020-08-28T16:58:51.287Z</time>
      </trkpt>
      <trkpt lat="64.15744" lon="20.91836">
        <ele>20.252286</ele>
        <time>2020-08-28T16:59:35.552Z</time>
      </trkpt>
      <trkpt lat="64.15643" lon="20.91775">
        <ele>20.12472</ele>
        <time>2020-08-28T17:00:06.229Z</time>
      </trkpt>
      <trkpt lat="64.15567" lon="20.91727">
        <ele>20.174729</ele>
        <time>2020-08-28T17:00:29.647Z</time>
      </trkpt>
      <trkpt lat="64.15538" lon="20.91705">
        <ele>20.284289</ele>
        <time>2020-08-28T17:00:38.975Z</time>
      </trkpt>
      <trkpt lat="64.15476" lon="20.91637">
        <ele>20.529972</ele>
        <time>2020-08-28T17:01:00.139Z</time>
      </trkpt>
      <trkpt lat="64.15253" lon="20.91341">
        <ele>22.556975</ele>
        <time>2020-08-28T17:02:23.291Z</time>
      </trkpt>
      <trkpt lat="64.15196" lon="20.91297">
        <ele>23.394685</ele>
        <time>2020-08-28T17:02:43.671Z</time>
      </trkpt>
      <trkpt lat="64.1507" lon="20.91149">
        <ele>25.428583</ele>
        <time>2020-08-28T17:03:33.462Z</time>
      </trkpt>
      <trkpt lat="64.14948" lon="20.91043">
        <ele>27.362755</ele>
        <time>2020-08-28T17:04:18.406Z</time>
      </trkpt>
      <trkpt lat="64.1487" lon="20.90962">
        <ele>28.042144</ele>
        <time>2020-08-28T17:04:46.632Z</time>
      </trkpt>
      <trkpt lat="64.14752" lon="20.90746">
        <ele>28.933</ele>
        <time>2020-08-28T17:05:33.943Z</time>
      </trkpt>
      <trkpt lat="64.14479" lon="20.90343">
        <ele>29.465145</ele>
        <time>2020-08-28T17:07:11.579Z</time>
      </trkpt>
      <trkpt lat="64.14369" lon="20.90271">
        <ele>29.506737</ele>
        <time>2020-08-28T17:07:45.797Z</time>
      </trkpt>
      <trkpt lat="64.14154" lon="20.90157">
        <ele>29.711861</ele>
        <time>2020-08-28T17:08:51.880Z</time>
      </trkpt>
      <trkpt lat="64.13971" lon="20.90031">
        <ele>30.874519</ele>
        <time>2020-08-28T17:09:51.743Z</time>
      </trkpt>
      <trkpt lat="64.13922" lon="20.90018">
        <ele>31.701838</ele>
        <time>2020-08-28T17:10:08.765Z</time>
      </trkpt>
      <trkpt lat="64.13897" lon="20.90007">
        <ele>32.125643</ele>
        <time>2020-08-28T17:10:17.372Z</time>
      </trkpt>
      <trkpt lat="64.1389" lon="20.90011">
        <ele>32.255108</ele>
        <time>2020-08-28T17:10:20.358Z</time>
      </trkpt>
      <trkpt lat="64.13856" lon="20.90032">
        <ele>32.847715</ele>
        <time>2020-08-28T17:10:32.920Z</time>
      </trkpt>
      <trkpt lat="64.1379" lon="20.90047">
        <ele>33.983666</ele>
        <time>2020-08-28T17:10:56.924Z</time>
      </trkpt>
      <trkpt lat="64.13763" lon="20.90063">
        <ele>34.514267</ele>
        <time>2020-08-28T17:11:07.620Z</time>
      </trkpt>
      <trkpt lat="64.13525" lon="20.90295">
        <ele>38.491371</ele>
        <time>2020-08-28T17:12:39.029Z</time>
      </trkpt>
      <trkpt lat="64.13443" lon="20.90394">
        <ele>38.9115</ele>
        <time>2020-08-28T17:13:07.170Z</time>
      </trkpt>
      <trkpt lat="64.1334" lon="20.90439">
        <ele>38.015548</ele>
        <time>2020-08-28T17:13:35.771Z</time>
      </trkpt>
      <trkpt lat="64.13245" lon="20.90539">
        <ele>36.46978</ele>
        <time>2020-08-28T17:14:02.806Z</time>
      </trkpt>
      <trkpt lat="64.13186" lon="20.90583">
        <ele>35.282929</ele>
        <time>2020-08-28T17:14:18.320Z</time>
      </trkpt>
      <trkpt lat="64.13081" lon="20.90698">
        <ele>33.218993</ele>
        <time>2020-08-28T17:14:47.485Z</time>
      </trkpt>
      <trkpt lat="64.12992" lon="20.90737">
        <ele>31.730413</ele>
        <time>2020-08-28T17:15:11.057Z</time>
      </trkpt>
      <trkpt lat="64.12971" lon="20.90731">
        <ele>31.385568</ele>
        <time>2020-08-28T17:15:16.686Z</time>
      </trkpt>
      <trkpt lat="64.1292" lon="20.90693">
        <ele>30.985878</ele>
        <time>2020-08-28T17:15:31.217Z</time>
      </trkpt>
      <trkpt lat="64.129" lon="20.90692">
        <ele>30.863569</ele>
        <time>2020-08-28T17:15:37.010Z</time>
      </trkpt>
      <trkpt lat="64.12815" lon="20.90739">
        <ele>30.351192</ele>
        <time>2020-08-28T17:16:01.875Z</time>
      </trkpt>
      <trkpt lat="64.12685" lon="20.90789">
        <ele>29.826036</ele>
        <time>2020-08-28T17:16:40.276Z</time>
      </trkpt>
      <trkpt lat="64.12602" lon="20.90852">
        <ele>29.381839</ele>
        <time>2020-08-28T17:17:04.992Z</time>
      </trkpt>
      <trkpt lat="64.12566" lon="20.90879">
        <ele>28.826258</ele>
        <time>2020-08-28T17:17:15.299Z</time>
      </trkpt>
      <trkpt lat="64.12531" lon="20.90896">
        <ele>28.296753</ele>
        <time>2020-08-28T17:17:25.025Z</time>
      </trkpt>
      <trkpt lat="64.1251" lon="20.909">
        <ele>27.981551</ele>
        <time>2020-08-28T17:17:30.361Z</time>
      </trkpt>
      <trkpt lat="64.12493" lon="20.90896">
        <ele>27.733825</ele>
        <time>2020-08-28T17:17:34.809Z</time>
      </trkpt>
      <trkpt lat="64.12487" lon="20.90891">
        <ele>27.632955</ele>
        <time>2020-08-28T17:17:36.508Z</time>
      </trkpt>
      <trkpt lat="64.12475" lon="20.90882">
        <ele>27.448428</ele>
        <time>2020-08-28T17:17:39.587Z</time>
      </trkpt>
      <trkpt lat="64.12426" lon="20.90814">
        <ele>26.406319</ele>
        <time>2020-08-28T17:17:53.986Z</time>
      </trkpt>
      <trkpt lat="64.12397" lon="20.90795">
        <ele>25.646053</ele>
        <time>2020-08-28T17:18:01.501Z</time>
      </trkpt>
      <trkpt lat="64.12384" lon="20.90796">
        <ele>25.33047</ele>
        <time>2020-08-28T17:18:04.490Z</time>
      </trkpt>
      <trkpt lat="64.12362" lon="20.90799">
        <ele>24.785083</ele>
        <time>2020-08-28T17:18:09.932Z</time>
      </trkpt>
      <trkpt lat="64.12287" lon="20.90841">
        <ele>22.874769</ele>
        <time>2020-08-28T17:18:28.647Z</time>
      </trkpt>
      <trkpt lat="64.1227" lon="20.90853">
        <ele>22.430223</ele>
        <time>2020-08-28T17:18:32.962Z</time>
      </trkpt>
      <trkpt lat="64.12237" lon="20.9088">
        <ele>21.652564</ele>
        <time>2020-08-28T17:18:41.657Z</time>
      </trkpt>
      <trkpt lat="64.12219" lon="20.90898">
        <ele>21.236036</ele>
        <time>2020-08-28T17:18:46.467Z</time>
      </trkpt>
      <trkpt lat="64.12211" lon="20.909">
        <ele>21.05168</ele>
        <time>2020-08-28T17:18:48.502Z</time>
      </trkpt>
      <trkpt lat="64.12198" lon="20.90905">
        <ele>20.760083</ele>
        <time>2020-08-28T17:18:51.930Z</time>
      </trkpt>
      <trkpt lat="64.12187" lon="20.90907">
        <ele>20.529954</ele>
        <time>2020-08-28T17:18:54.582Z</time>
      </trkpt>
      <trkpt lat="64.12164" lon="20.90904">
        <ele>20.035993</ele>
        <time>2020-08-28T17:19:00.201Z</time>
      </trkpt>
      <trkpt lat="64.12125" lon="20.90872">
        <ele>19.113676</ele>
        <time>2020-08-28T17:19:10.831Z</time>
      </trkpt>
      <trkpt lat="64.12104" lon="20.90838">
        <ele>18.557429</ele>
        <time>2020-08-28T17:19:17.284Z</time>
      </trkpt>
      <trkpt lat="64.1207" lon="20.90792">
        <ele>18.283741</ele>
        <time>2020-08-28T17:19:23.031Z</time>
      </trkpt>
      <trkpt lat="64.1204" lon="20.90761">
        <ele>18.078677</ele>
        <time>2020-08-28T17:19:27.942Z</time>
      </trkpt>
      <trkpt lat="64.12014" lon="20.90743">
        <ele>17.907894</ele>
        <time>2020-08-28T17:19:32.481Z</time>
      </trkpt>
      <trkpt lat="64.11991" lon="20.90736">
        <ele>17.762652</ele>
        <time>2020-08-28T17:19:36.315Z</time>
      </trkpt>
      <trkpt lat="64.11981" lon="20.9073">
        <ele>17.69966</ele>
        <time>2020-08-28T17:19:38.058Z</time>
      </trkpt>
      <trkpt lat="64.11961" lon="20.90712">
        <ele>17.562913</ele>
        <time>2020-08-28T17:19:41.838Z</time>
      </trkpt>
      <trkpt lat="64.11947" lon="20.90688">
        <ele>17.455031</ele>
        <time>2020-08-28T17:19:45.380Z</time>
      </trkpt>
      <trkpt lat="64.11937" lon="20.9067">
        <ele>17.427834</ele>
        <time>2020-08-28T17:19:47.613Z</time>
      </trkpt>
      <trkpt lat="64.11927" lon="20.90653">
        <ele>17.571094</ele>
        <time>2020-08-28T17:19:50.306Z</time>
      </trkpt>
      <trkpt lat="64.11917" lon="20.90636">
        <ele>17.710717</ele>
        <time>2020-08-28T17:19:52.800Z</time>
      </trkpt>
      <trkpt lat="64.11908" lon="20.90618">
        <ele>17.849682</ele>
        <time>2020-08-28T17:19:55.030Z</time>
      </trkpt>
      <trkpt lat="64.1189" lon="20.90584">
        <ele>18.116712</ele>
        <time>2020-08-28T17:20:00.193Z</time>
      </trkpt>
      <trkpt lat="64.11851" lon="20.9051">
        <ele>18.694771</ele>
        <time>2020-08-28T17:20:10.708Z</time>
      </trkpt>
      <trkpt lat="64.11843" lon="20.90488">
        <ele>18.838379</ele>
        <time>2020-08-28T17:20:13.774Z</time>
      </trkpt>
      <trkpt lat="64.11821" lon="20.90432">
        <ele>19.214698</ele>
        <time>2020-08-28T17:20:21.031Z</time>
      </trkpt>
      <trkpt lat="64.11808" lon="20.90391">
        <ele>19.470447</ele>
        <time>2020-08-28T17:20:25.914Z</time>
      </trkpt>
      <trkpt lat="64.11806" lon="20.9038">
        <ele>19.554316</ele>
        <time>2020-08-28T17:20:27.196Z</time>
      </trkpt>
      <trkpt lat="64.11795" lon="20.9033">
        <ele>19.955319</ele>
        <time>2020-08-28T17:20:33.237Z</time>
      </trkpt>
      <trkpt lat="64.11784" lon="20.90275">
        <ele>20.388578</ele>
        <time>2020-08-28T17:20:40.369Z</time>
      </trkpt>
      <trkpt lat="64.11773" lon="20.90204">
        <ele>20.924795</ele>
        <time>2020-08-28T17:20:48.640Z</time>
      </trkpt>
      <trkpt lat="64.11767" lon="20.90163">
        <ele>21.232265</ele>
        <time>2020-08-28T17:20:52.797Z</time>
      </trkpt>
      <trkpt lat="64.1176" lon="20.90105">
        <ele>21.658104</ele>
        <time>2020-08-28T17:20:58.379Z</time>
      </trkpt>
      <trkpt lat="64.11759" lon="20.90098">
        <ele>21.711764</ele>
        <time>2020-08-28T17:20:59.098Z</time>
      </trkpt>
      <trkpt lat="64.11754" lon="20.90041">
        <ele>22.129839</ele>
        <time>2020-08-28T17:21:04.758Z</time>
      </trkpt>
      <trkpt lat="64.11749" lon="20.90006">
        <ele>22.387672</ele>
        <time>2020-08-28T17:21:07.852Z</time>
      </trkpt>
      <trkpt lat="64.11746" lon="20.89995">
        <ele>22.401915</ele>
        <time>2020-08-28T17:21:09.420Z</time>
      </trkpt>
      <trkpt lat="64.11744" lon="20.89986">
        <ele>22.412424</ele>
        <time>2020-08-28T17:21:10.540Z</time>
      </trkpt>
      <trkpt lat="64.11733" lon="20.89967">
        <ele>22.44439</ele>
        <time>2020-08-28T17:21:12.821Z</time>
      </trkpt>
      <trkpt lat="64.11724" lon="20.89956">
        <ele>22.470183</ele>
        <time>2020-08-28T17:21:15.079Z</time>
      </trkpt>
      <trkpt lat="64.11714" lon="20.89954">
        <ele>22.492899</ele>
        <time>2020-08-28T17:21:18.471Z</time>
      </trkpt>
      <trkpt lat="64.11673" lon="20.89955">
        <ele>22.593768</ele>
        <time>2020-08-28T17:21:31.965Z</time>
      </trkpt>
      <trkpt lat="64.11664" lon="20.89955">
        <ele>22.614953</ele>
        <time>2020-08-28T17:21:34.366Z</time>
      </trkpt>
      <trkpt lat="64.11651" lon="20.89947">
        <ele>22.646141</ele>
        <time>2020-08-28T17:21:38.279Z</time>
      </trkpt>
      <trkpt lat="64.11598" lon="20.89851">
        <ele>22.809426</ele>
        <time>2020-08-28T17:21:58.152Z</time>
      </trkpt>
      <trkpt lat="64.11574" lon="20.8983">
        <ele>22.680275</ele>
        <time>2020-08-28T17:22:05.002Z</time>
      </trkpt>
      <trkpt lat="64.11547" lon="20.89831">
        <ele>22.510572</ele>
        <time>2020-08-28T17:22:12.144Z</time>
      </trkpt>
      <trkpt lat="64.11531" lon="20.89831">
        <ele>22.406542</ele>
        <time>2020-08-28T17:22:16.332Z</time>
      </trkpt>
      <trkpt lat="64.11509" lon="20.89822">
        <ele>22.257069</ele>
        <time>2020-08-28T17:22:22.748Z</time>
      </trkpt>
      <trkpt lat="64.1146" lon="20.89801">
        <ele>21.934231</ele>
        <time>2020-08-28T17:22:36.768Z</time>
      </trkpt>
      <trkpt lat="64.11446" lon="20.898">
        <ele>21.840606</ele>
        <time>2020-08-28T17:22:40.910Z</time>
      </trkpt>
      <trkpt lat="64.11431" lon="20.89803">
        <ele>21.743266</ele>
        <time>2020-08-28T17:22:45.179Z</time>
      </trkpt>
      <trkpt lat="64.11403" lon="20.89826">
        <ele>21.56502</ele>
        <time>2020-08-28T17:22:53.429Z</time>
      </trkpt>
      <trkpt lat="64.11384" lon="20.89839">
        <ele>21.452434</ele>
        <time>2020-08-28T17:22:59.032Z</time>
      </trkpt>
      <trkpt lat="64.11316" lon="20.89834">
        <ele>21.063382</ele>
        <time>2020-08-28T17:23:18.414Z</time>
      </trkpt>
      <trkpt lat="64.11302" lon="20.89837">
        <ele>20.980974</ele>
        <time>2020-08-28T17:23:22.531Z</time>
      </trkpt>
      <trkpt lat="64.11284" lon="20.89844">
        <ele>20.880967</ele>
        <time>2020-08-28T17:23:27.488Z</time>
      </trkpt>
      <trkpt lat="64.11198" lon="20.89873">
        <ele>20.278803</ele>
        <time>2020-08-28T17:23:51.691Z</time>
      </trkpt>
      <trkpt lat="64.11041" lon="20.89919">
        <ele>19.1536</ele>
        <time>2020-08-28T17:24:34.843Z</time>
      </trkpt>
      <trkpt lat="64.11012" lon="20.89936">
        <ele>19.125779</ele>
        <time>2020-08-28T17:24:43.593Z</time>
      </trkpt>
      <trkpt lat="64.10975" lon="20.89965">
        <ele>19.090565</ele>
        <time>2020-08-28T17:24:54.854Z</time>
      </trkpt>
      <trkpt lat="64.10941" lon="20.89976">
        <ele>19.058657</ele>
        <time>2020-08-28T17:25:05.209Z</time>
      </trkpt>
      <trkpt lat="64.10928" lon="20.89965">
        <ele>19.045927</ele>
        <time>2020-08-28T17:25:09.412Z</time>
      </trkpt>
      <trkpt lat="64.10917" lon="20.89949">
        <ele>19.034145</ele>
        <time>2020-08-28T17:25:13.385Z</time>
      </trkpt>
      <trkpt lat="64.10908" lon="20.89912">
        <ele>19.017111</ele>
        <time>2020-08-28T17:25:19.011Z</time>
      </trkpt>
      <trkpt lat="64.10899" lon="20.89775">
        <ele>19.230556</ele>
        <time>2020-08-28T17:25:37.898Z</time>
      </trkpt>
      <trkpt lat="64.10891" lon="20.89735">
        <ele>19.317969</ele>
        <time>2020-08-28T17:25:44.089Z</time>
      </trkpt>
      <trkpt lat="64.10872" lon="20.89696">
        <ele>19.430096</ele>
        <time>2020-08-28T17:25:52.042Z</time>
      </trkpt>
      <trkpt lat="64.10805" lon="20.89628">
        <ele>19.756588</ele>
        <time>2020-08-28T17:26:14.957Z</time>
      </trkpt>
      <trkpt lat="64.1076" lon="20.89558">
        <ele>19.947629</ele>
        <time>2020-08-28T17:26:31.938Z</time>
      </trkpt>
      <trkpt lat="64.10675" lon="20.89452">
        <ele>20.258946</ele>
        <time>2020-08-28T17:27:01.660Z</time>
      </trkpt>
      <trkpt lat="64.10656" lon="20.89434">
        <ele>20.325821</ele>
        <time>2020-08-28T17:27:08.010Z</time>
      </trkpt>
      <trkpt lat="64.10591" lon="20.89406">
        <ele>20.557682</ele>
        <time>2020-08-28T17:27:28.089Z</time>
      </trkpt>
      <trkpt lat="64.10559" lon="20.89376">
        <ele>20.681617</ele>
        <time>2020-08-28T17:27:38.353Z</time>
      </trkpt>
      <trkpt lat="64.10536" lon="20.89311">
        <ele>20.812876</ele>
        <time>2020-08-28T17:27:49.481Z</time>
      </trkpt>
      <trkpt lat="64.10494" lon="20.89236">
        <ele>21.008847</ele>
        <time>2020-08-28T17:28:06.446Z</time>
      </trkpt>
      <trkpt lat="64.10472" lon="20.89212">
        <ele>21.232467</ele>
        <time>2020-08-28T17:28:14.202Z</time>
      </trkpt>
      <trkpt lat="64.10443" lon="20.89197">
        <ele>21.587171</ele>
        <time>2020-08-28T17:28:23.631Z</time>
      </trkpt>
      <trkpt lat="64.10334" lon="20.89119">
        <ele>22.987681</ele>
        <time>2020-08-28T17:29:02.629Z</time>
      </trkpt>
      <trkpt lat="64.10311" lon="20.89076">
        <ele>23.33697</ele>
        <time>2020-08-28T17:29:13.080Z</time>
      </trkpt>
      <trkpt lat="64.10265" lon="20.88945">
        <ele>24.131125</ele>
        <time>2020-08-28T17:29:38.933Z</time>
      </trkpt>
      <trkpt lat="64.1021" lon="20.88844">
        <ele>24.889038</ele>
        <time>2020-08-28T17:30:02.061Z</time>
      </trkpt>
      <trkpt lat="64.10184" lon="20.8877">
        <ele>25.037898</ele>
        <time>2020-08-28T17:30:14.750Z</time>
      </trkpt>
      <trkpt lat="64.10162" lon="20.88728">
        <ele>24.756813</ele>
        <time>2020-08-28T17:30:23.248Z</time>
      </trkpt>
      <trkpt lat="64.101" lon="20.88635">
        <ele>24.038749</ele>
        <time>2020-08-28T17:30:43.168Z</time>
      </trkpt>
      <trkpt lat="64.10021" lon="20.88557">
        <ele>23.073364</ele>
        <time>2020-08-28T17:31:05.310Z</time>
      </trkpt>
      <trkpt lat="64.10004" lon="20.88537">
        <ele>22.79151</ele>
        <time>2020-08-28T17:31:09.987Z</time>
      </trkpt>
      <trkpt lat="64.09956" lon="20.8848">
        <ele>21.984519</ele>
        <time>2020-08-28T17:31:23.878Z</time>
      </trkpt>
      <trkpt lat="64.09927" lon="20.88436">
        <ele>21.453259</ele>
        <time>2020-08-28T17:31:33.102Z</time>
      </trkpt>
      <trkpt lat="64.09915" lon="20.88425">
        <ele>21.26534</ele>
        <time>2020-08-28T17:31:36.320Z</time>
      </trkpt>
      <trkpt lat="64.09902" lon="20.88413">
        <ele>21.048674</ele>
        <time>2020-08-28T17:31:40.172Z</time>
      </trkpt>
      <trkpt lat="64.09876" lon="20.88402">
        <ele>20.709011</ele>
        <time>2020-08-28T17:31:47.189Z</time>
      </trkpt>
      <trkpt lat="64.09859" lon="20.88396">
        <ele>20.639698</ele>
        <time>2020-08-28T17:31:51.965Z</time>
      </trkpt>
      <trkpt lat="64.09845" lon="20.88392">
        <ele>20.584656</ele>
        <time>2020-08-28T17:31:55.775Z</time>
      </trkpt>
      <trkpt lat="64.09826" lon="20.88392">
        <ele>20.507227</ele>
        <time>2020-08-28T17:32:01.197Z</time>
      </trkpt>
      <trkpt lat="64.09794" lon="20.88407">
        <ele>20.377223</ele>
        <time>2020-08-28T17:32:10.444Z</time>
      </trkpt>
      <trkpt lat="64.09773" lon="20.88419">
        <ele>20.288244</ele>
        <time>2020-08-28T17:32:16.838Z</time>
      </trkpt>
      <trkpt lat="64.09739" lon="20.88437">
        <ele>20.149123</ele>
        <time>2020-08-28T17:32:27.013Z</time>
      </trkpt>
      <trkpt lat="64.09718" lon="20.88446">
        <ele>20.060124</ele>
        <time>2020-08-28T17:32:33.528Z</time>
      </trkpt>
      <trkpt lat="64.09653" lon="20.8845">
        <ele>20.003503</ele>
        <time>2020-08-28T17:32:52.758Z</time>
      </trkpt>
      <trkpt lat="64.09618" lon="20.88467">
        <ele>20.00252</ele>
        <time>2020-08-28T17:33:03.552Z</time>
      </trkpt>
      <trkpt lat="64.09599" lon="20.8848">
        <ele>20.002003</ele>
        <time>2020-08-28T17:33:09.220Z</time>
      </trkpt>
      <trkpt lat="64.09587" lon="20.88491">
        <ele>20.001638</ele>
        <time>2020-08-28T17:33:13.241Z</time>
      </trkpt>
      <trkpt lat="64.09552" lon="20.88522">
        <ele>20.000616</ele>
        <time>2020-08-28T17:33:24.446Z</time>
      </trkpt>
      <trkpt lat="64.09535" lon="20.88525">
        <ele>20.00017</ele>
        <time>2020-08-28T17:33:29.348Z</time>
      </trkpt>
      <trkpt lat="64.09522" lon="20.88517">
        <ele>20.000012</ele>
        <time>2020-08-28T17:33:33.505Z</time>
      </trkpt>
      <trkpt lat="64.09509" lon="20.885">
        <ele>20.000012</ele>
        <time>2020-08-28T17:33:37.922Z</time>
      </trkpt>
      <trkpt lat="64.09472" lon="20.88397">
        <ele>20.000012</ele>
        <time>2020-08-28T17:33:55.235Z</time>
      </trkpt>
      <trkpt lat="64.09417" lon="20.88299">
        <ele>20.000012</ele>
        <time>2020-08-28T17:34:16.048Z</time>
      </trkpt>
      <trkpt lat="64.09409" lon="20.88275">
        <ele>20.000012</ele>
        <time>2020-08-28T17:34:19.810Z</time>
      </trkpt>
      <trkpt lat="64.09391" lon="20.88216">
        <ele>20.000012</ele>
        <time>2020-08-28T17:34:29.164Z</time>
      </trkpt>
      <trkpt lat="64.09376" lon="20.88186">
        <ele>20.000012</ele>
        <time>2020-08-28T17:34:35.143Z</time>
      </trkpt>
      <trkpt lat="64.09362" lon="20.88169">
        <ele>20.000012</ele>
        <time>2020-08-28T17:34:39.806Z</time>
      </trkpt>
      <trkpt lat="64.09298" lon="20.88134">
        <ele>20.000012</ele>
        <time>2020-08-28T17:34:59.519Z</time>
      </trkpt>
      <trkpt lat="64.09245" lon="20.88056">
        <ele>19.999504</ele>
        <time>2020-08-28T17:35:18.276Z</time>
      </trkpt>
      <trkpt lat="64.09212" lon="20.87978">
        <ele>19.969576</ele>
        <time>2020-08-28T17:35:32.259Z</time>
      </trkpt>
      <trkpt lat="64.0918" lon="20.87892">
        <ele>19.93836</ele>
        <time>2020-08-28T17:35:46.842Z</time>
      </trkpt>
      <trkpt lat="64.09147" lon="20.87795">
        <ele>19.903956</ele>
        <time>2020-08-28T17:36:02.829Z</time>
      </trkpt>
      <trkpt lat="64.09082" lon="20.8762">
        <ele>19.713969</ele>
        <time>2020-08-28T17:36:32.042Z</time>
      </trkpt>
      <trkpt lat="64.09059" lon="20.87564">
        <ele>19.633747</ele>
        <time>2020-08-28T17:36:41.718Z</time>
      </trkpt>
      <trkpt lat="64.09034" lon="20.87522">
        <ele>19.55931</ele>
        <time>2020-08-28T17:36:47.250Z</time>
      </trkpt>
      <trkpt lat="64.09012" lon="20.87497">
        <ele>19.500142</ele>
        <time>2020-08-28T17:36:51.606Z</time>
      </trkpt>
      <trkpt lat="64.08994" lon="20.87482">
        <ele>19.45465</ele>
        <time>2020-08-28T17:36:57.069Z</time>
      </trkpt>
      <trkpt lat="64.08936" lon="20.87458">
        <ele>19.320378</ele>
        <time>2020-08-28T17:37:14.193Z</time>
      </trkpt>
      <trkpt lat="64.08894" lon="20.87454">
        <ele>19.226453</ele>
        <time>2020-08-28T17:37:26.218Z</time>
      </trkpt>
      <trkpt lat="64.08869" lon="20.87457">
        <ele>19.168731</ele>
        <time>2020-08-28T17:37:33.640Z</time>
      </trkpt>
      <trkpt lat="64.08821" lon="20.87454">
        <ele>19.061263</ele>
        <time>2020-08-28T17:37:47.569Z</time>
      </trkpt>
      <trkpt lat="64.08697" lon="20.87406">
        <ele>19.001371</ele>
        <time>2020-08-28T17:38:25.012Z</time>
      </trkpt>
      <trkpt lat="64.08636" lon="20.87392">
        <ele>18.976635</ele>
        <time>2020-08-28T17:38:43.113Z</time>
      </trkpt>
      <trkpt lat="64.08534" lon="20.87389">
        <ele>18.815836</ele>
        <time>2020-08-28T17:39:13.200Z</time>
      </trkpt>
      <trkpt lat="64.08463" lon="20.87367">
        <ele>18.704552</ele>
        <time>2020-08-28T17:39:33.776Z</time>
      </trkpt>
      <trkpt lat="64.0845" lon="20.8736">
        <ele>18.676573</ele>
        <time>2020-08-28T17:39:37.882Z</time>
      </trkpt>
      <trkpt lat="64.0843" lon="20.87343">
        <ele>18.628649</ele>
        <time>2020-08-28T17:39:44.015Z</time>
      </trkpt>
      <trkpt lat="64.0834" lon="20.87241">
        <ele>18.403323</ele>
        <time>2020-08-28T17:40:13.091Z</time>
      </trkpt>
      <trkpt lat="64.08276" lon="20.87182">
        <ele>18.282551</ele>
        <time>2020-08-28T17:40:33.145Z</time>
      </trkpt>
      <trkpt lat="64.08204" lon="20.87069">
        <ele>18.237705</ele>
        <time>2020-08-28T17:40:58.940Z</time>
      </trkpt>
      <trkpt lat="64.08137" lon="20.8694">
        <ele>18.204266</ele>
        <time>2020-08-28T17:41:25.119Z</time>
      </trkpt>
      <trkpt lat="64.08109" lon="20.86906">
        <ele>18.213306</ele>
        <time>2020-08-28T17:41:34.453Z</time>
      </trkpt>
      <trkpt lat="64.07991" lon="20.86813">
        <ele>18.249323</ele>
        <time>2020-08-28T17:42:11.647Z</time>
      </trkpt>
      <trkpt lat="64.07946" lon="20.86782">
        <ele>18.298207</ele>
        <time>2020-08-28T17:42:25.799Z</time>
      </trkpt>
      <trkpt lat="64.07876" lon="20.86725">
        <ele>18.387542</ele>
        <time>2020-08-28T17:42:48.185Z</time>
      </trkpt>
      <trkpt lat="64.07834" lon="20.86692">
        <ele>18.441365</ele>
        <time>2020-08-28T17:43:01.636Z</time>
      </trkpt>
      <trkpt lat="64.07826" lon="20.86683">
        <ele>18.452616</ele>
        <time>2020-08-28T17:43:04.413Z</time>
      </trkpt>
      <trkpt lat="64.0781" lon="20.86677">
        <ele>18.465971</ele>
        <time>2020-08-28T17:43:09.180Z</time>
      </trkpt>
      <trkpt lat="64.07747" lon="20.86643">
        <ele>18.329338</ele>
        <time>2020-08-28T17:43:28.757Z</time>
      </trkpt>
      <trkpt lat="64.07338" lon="20.8655">
        <ele>17.55212</ele>
        <time>2020-08-28T17:45:27.596Z</time>
      </trkpt>
      <trkpt lat="64.07272" lon="20.86526">
        <ele>17.487128</ele>
        <time>2020-08-28T17:45:47.283Z</time>
      </trkpt>
      <trkpt lat="64.07247" lon="20.8651">
        <ele>17.594564</ele>
        <time>2020-08-28T17:45:55.058Z</time>
      </trkpt>
      <trkpt lat="64.07227" lon="20.86489">
        <ele>17.68989</ele>
        <time>2020-08-28T17:46:02.050Z</time>
      </trkpt>
      <trkpt lat="64.07112" lon="20.86369">
        <ele>18.213658</ele>
        <time>2020-08-28T17:46:41.617Z</time>
      </trkpt>
      <trkpt lat="64.0707" lon="20.86313">
        <ele>18.440574</ele>
        <time>2020-08-28T17:46:57.163Z</time>
      </trkpt>
      <trkpt lat="64.07042" lon="20.86271">
        <ele>18.597864</ele>
        <time>2020-08-28T17:47:07.789Z</time>
      </trkpt>
      <trkpt lat="64.07032" lon="20.86256">
        <ele>18.65401</ele>
        <time>2020-08-28T17:47:11.582Z</time>
      </trkpt>
      <trkpt lat="64.07016" lon="20.86231">
        <ele>18.74424</ele>
        <time>2020-08-28T17:47:17.611Z</time>
      </trkpt>
      <trkpt lat="64.07005" lon="20.86213">
        <ele>18.806534</ele>
        <time>2020-08-28T17:47:21.785Z</time>
      </trkpt>
      <trkpt lat="64.06938" lon="20.86107">
        <ele>19.057889</ele>
        <time>2020-08-28T17:47:46.745Z</time>
      </trkpt>
      <trkpt lat="64.06823" lon="20.85965">
        <ele>19.070363</ele>
        <time>2020-08-28T17:48:25.554Z</time>
      </trkpt>
      <trkpt lat="64.06743" lon="20.85854">
        <ele>18.941056</ele>
        <time>2020-08-28T17:48:52.887Z</time>
      </trkpt>
      <trkpt lat="64.06704" lon="20.85818">
        <ele>18.863874</ele>
        <time>2020-08-28T17:49:05.195Z</time>
      </trkpt>
      <trkpt lat="64.06611" lon="20.85758">
        <ele>18.706286</ele>
        <time>2020-08-28T17:49:33.008Z</time>
      </trkpt>
      <trkpt lat="64.06575" lon="20.85827">
        <ele>18.647194</ele>
        <time>2020-08-28T17:49:40.962Z</time>
      </trkpt>
      <trkpt lat="64.06533" lon="20.859">
        <ele>18.579806</ele>
        <time>2020-08-28T17:49:50.315Z</time>
      </trkpt>
      <trkpt lat="64.06484" lon="20.85943">
        <ele>18.523557</ele>
        <time>2020-08-28T17:49:59.665Z</time>
      </trkpt>
      <trkpt lat="64.06469" lon="20.85952">
        <ele>18.550306</ele>
        <time>2020-08-28T17:50:02.499Z</time>
      </trkpt>
      <trkpt lat="64.06447" lon="20.8596">
        <ele>18.586954</ele>
        <time>2020-08-28T17:50:06.458Z</time>
      </trkpt>
      <trkpt lat="64.06415" lon="20.85973">
        <ele>18.642402</ele>
        <time>2020-08-28T17:50:12.521Z</time>
      </trkpt>
      <trkpt lat="64.064" lon="20.85975">
        <ele>18.66718</ele>
        <time>2020-08-28T17:50:15.254Z</time>
      </trkpt>
      <trkpt lat="64.06384" lon="20.85979">
        <ele>18.694935</ele>
        <time>2020-08-28T17:50:18.309Z</time>
      </trkpt>
      <trkpt lat="64.06376" lon="20.8598">
        <ele>18.707906</ele>
        <time>2020-08-28T17:50:19.755Z</time>
      </trkpt>
      <trkpt lat="64.06373" lon="20.85992">
        <ele>18.717426</ele>
        <time>2020-08-28T17:50:20.801Z</time>
      </trkpt>
      <trkpt lat="64.06362" lon="20.85982">
        <ele>18.738143</ele>
        <time>2020-08-28T17:50:23.169Z</time>
      </trkpt>
      <trkpt lat="64.06251" lon="20.85872">
        <ele>18.891983</ele>
        <time>2020-08-28T17:50:46.536Z</time>
      </trkpt>
      <trkpt lat="64.06182" lon="20.85787">
        <ele>18.970897</ele>
        <time>2020-08-28T17:51:01.256Z</time>
      </trkpt>
      <trkpt lat="64.06167" lon="20.85769">
        <ele>18.987104</ele>
        <time>2020-08-28T17:51:04.270Z</time>
      </trkpt>
      <trkpt lat="64.06135" lon="20.85726">
        <ele>19.000012</ele>
        <time>2020-08-28T17:51:11.155Z</time>
      </trkpt>
      <trkpt lat="64.06077" lon="20.85646">
        <ele>19.000012</ele>
        <time>2020-08-28T17:51:23.737Z</time>
      </trkpt>
      <trkpt lat="64.06061" lon="20.85619">
        <ele>19.000012</ele>
        <time>2020-08-28T17:51:27.559Z</time>
      </trkpt>
      <trkpt lat="64.06045" lon="20.85591">
        <ele>19.000012</ele>
        <time>2020-08-28T17:51:31.287Z</time>
      </trkpt>
      <trkpt lat="64.06002" lon="20.85523">
        <ele>19.002738</ele>
        <time>2020-08-28T17:51:40.904Z</time>
      </trkpt>
      <trkpt lat="64.05966" lon="20.85493">
        <ele>19.027424</ele>
        <time>2020-08-28T17:51:48.050Z</time>
      </trkpt>
      <trkpt lat="64.05953" lon="20.85486">
        <ele>19.035851</ele>
        <time>2020-08-28T17:51:50.501Z</time>
      </trkpt>
      <trkpt lat="64.05954" lon="20.85477">
        <ele>19.038518</ele>
        <time>2020-08-28T17:51:51.275Z</time>
      </trkpt>
      <trkpt lat="64.05933" lon="20.85465">
        <ele>19.052086</ele>
        <time>2020-08-28T17:51:55.056Z</time>
      </trkpt>
      <trkpt lat="64.05905" lon="20.85448">
        <ele>19.070554</ele>
        <time>2020-08-28T17:52:00.190Z</time>
      </trkpt>
      <trkpt lat="64.05853" lon="20.85418">
        <ele>19.10533</ele>
        <time>2020-08-28T17:52:10.059Z</time>
      </trkpt>
      <trkpt lat="64.05838" lon="20.85411">
        <ele>19.114999</ele>
        <time>2020-08-28T17:52:12.821Z</time>
      </trkpt>
      <trkpt lat="64.05807" lon="20.854">
        <ele>19.120188</ele>
        <time>2020-08-28T17:52:18.634Z</time>
      </trkpt>
      <trkpt lat="64.05791" lon="20.85403">
        <ele>19.122763</ele>
        <time>2020-08-28T17:52:21.594Z</time>
      </trkpt>
      <trkpt lat="64.05774" lon="20.85417">
        <ele>19.125575</ele>
        <time>2020-08-28T17:52:24.820Z</time>
      </trkpt>
      <trkpt lat="64.05765" lon="20.85433">
        <ele>19.127458</ele>
        <time>2020-08-28T17:52:26.943Z</time>
      </trkpt>
      <trkpt lat="64.05752" lon="20.85452">
        <ele>19.12983</ele>
        <time>2020-08-28T17:52:29.683Z</time>
      </trkpt>
      <trkpt lat="64.05732" lon="20.85481">
        <ele>19.133616</ele>
        <time>2020-08-28T17:52:33.918Z</time>
      </trkpt>
      <trkpt lat="64.05726" lon="20.85492">
        <ele>19.134918</ele>
        <time>2020-08-28T17:52:35.424Z</time>
      </trkpt>
      <trkpt lat="64.05711" lon="20.85505">
        <ele>19.137498</ele>
        <time>2020-08-28T17:52:38.306Z</time>
      </trkpt>
      <trkpt lat="64.05698" lon="20.85514">
        <ele>19.139607</ele>
        <time>2020-08-28T17:52:40.635Z</time>
      </trkpt>
      <trkpt lat="64.05673" lon="20.85517">
        <ele>19.143531</ele>
        <time>2020-08-28T17:52:45.036Z</time>
      </trkpt>
      <trkpt lat="64.05666" lon="20.85517">
        <ele>19.119429</ele>
        <time>2020-08-28T17:52:46.289Z</time>
      </trkpt>
      <trkpt lat="64.05656" lon="20.85512">
        <ele>19.06739</ele>
        <time>2020-08-28T17:52:48.100Z</time>
      </trkpt>
      <trkpt lat="64.05647" lon="20.85507">
        <ele>19.017131</ele>
        <time>2020-08-28T17:52:49.790Z</time>
      </trkpt>
      <trkpt lat="64.05628" lon="20.85489">
        <ele>18.914211</ele>
        <time>2020-08-28T17:52:53.108Z</time>
      </trkpt>
      <trkpt lat="64.0557" lon="20.85411">
        <ele>18.56448</ele>
        <time>2020-08-28T17:53:04.421Z</time>
      </trkpt>
      <trkpt lat="64.05557" lon="20.85397">
        <ele>18.493376</ele>
        <time>2020-08-28T17:53:06.710Z</time>
      </trkpt>
      <trkpt lat="64.05521" lon="20.85382">
        <ele>18.303197</ele>
        <time>2020-08-28T17:53:12.556Z</time>
      </trkpt>
      <trkpt lat="64.05508" lon="20.85382">
        <ele>18.233588</ele>
        <time>2020-08-28T17:53:14.653Z</time>
      </trkpt>
      <trkpt lat="64.055" lon="20.85381">
        <ele>18.167764</ele>
        <time>2020-08-28T17:53:15.731Z</time>
      </trkpt>
      <trkpt lat="64.05459" lon="20.85394">
        <ele>17.658904</ele>
        <time>2020-08-28T17:53:22.159Z</time>
      </trkpt>
      <trkpt lat="64.05397" lon="20.85441">
        <ele>16.869106</ele>
        <time>2020-08-28T17:53:31.856Z</time>
      </trkpt>
      <trkpt lat="64.05364" lon="20.85464">
        <ele>16.439732</ele>
        <time>2020-08-28T17:53:37.065Z</time>
      </trkpt>
      <trkpt lat="64.05316" lon="20.85482">
        <ele>15.913383</ele>
        <time>2020-08-28T17:53:44.283Z</time>
      </trkpt>
      <trkpt lat="64.05289" lon="20.85478">
        <ele>15.687499</ele>
        <time>2020-08-28T17:53:48.530Z</time>
      </trkpt>
      <trkpt lat="64.05267" lon="20.85471">
        <ele>15.514104</ele>
        <time>2020-08-28T17:53:51.790Z</time>
      </trkpt>
      <trkpt lat="64.05257" lon="20.85468">
        <ele>15.42495</ele>
        <time>2020-08-28T17:53:53.486Z</time>
      </trkpt>
      <trkpt lat="64.05196" lon="20.85427">
        <ele>14.911716</ele>
        <time>2020-08-28T17:54:03.508Z</time>
      </trkpt>
      <trkpt lat="64.0517" lon="20.8539">
        <ele>14.666055</ele>
        <time>2020-08-28T17:54:08.573Z</time>
      </trkpt>
      <trkpt lat="64.05128" lon="20.85303">
        <ele>14.493133</ele>
        <time>2020-08-28T17:54:18.507Z</time>
      </trkpt>
      <trkpt lat="64.05103" lon="20.8524">
        <ele>14.431146</ele>
        <time>2020-08-28T17:54:25.341Z</time>
      </trkpt>
      <trkpt lat="64.05048" lon="20.85126">
        <ele>14.308475</ele>
        <time>2020-08-28T17:54:38.328Z</time>
      </trkpt>
      <trkpt lat="64.05039" lon="20.85106">
        <ele>14.287033</ele>
        <time>2020-08-28T17:54:40.439Z</time>
      </trkpt>
      <trkpt lat="64.05008" lon="20.85057">
        <ele>14.035279</ele>
        <time>2020-08-28T17:54:46.813Z</time>
      </trkpt>
      <trkpt lat="64.04984" lon="20.8503">
        <ele>13.798907</ele>
        <time>2020-08-28T17:54:51.262Z</time>
      </trkpt>
      <trkpt lat="64.0498" lon="20.85026">
        <ele>13.758463</ele>
        <time>2020-08-28T17:54:51.931Z</time>
      </trkpt>
      <trkpt lat="64.0494" lon="20.85014">
        <ele>13.409148</ele>
        <time>2020-08-28T17:54:58.185Z</time>
      </trkpt>
      <trkpt lat="64.04921" lon="20.85015">
        <ele>13.234803</ele>
        <time>2020-08-28T17:55:01.252Z</time>
      </trkpt>
      <trkpt lat="64.04899" lon="20.85022">
        <ele>13.046313</ele>
        <time>2020-08-28T17:55:04.441Z</time>
      </trkpt>
      <trkpt lat="64.04872" lon="20.85039">
        <ele>12.79405</ele>
        <time>2020-08-28T17:55:08.753Z</time>
      </trkpt>
      <trkpt lat="64.04847" lon="20.85056">
        <ele>12.549959</ele>
        <time>2020-08-28T17:55:12.564Z</time>
      </trkpt>
      <trkpt lat="64.04776" lon="20.85138">
        <ele>11.739452</ele>
        <time>2020-08-28T17:55:24.438Z</time>
      </trkpt>
      <trkpt lat="64.04741" lon="20.85182">
        <ele>11.327706</ele>
        <time>2020-08-28T17:55:30.698Z</time>
      </trkpt>
      <trkpt lat="64.04708" lon="20.85229">
        <ele>10.92779</ele>
        <time>2020-08-28T17:55:36.873Z</time>
      </trkpt>
      <trkpt lat="64.04702" lon="20.85221">
        <ele>10.863377</ele>
        <time>2020-08-28T17:55:37.973Z</time>
      </trkpt>
      <trkpt lat="64.04609" lon="20.85091">
        <ele>10.936733</ele>
        <time>2020-08-28T17:55:57.700Z</time>
      </trkpt>
      <trkpt lat="64.0459" lon="20.8508">
        <ele>10.953173</ele>
        <time>2020-08-28T17:56:01.551Z</time>
      </trkpt>
      <trkpt lat="64.04536" lon="20.85077">
        <ele>11.020128</ele>
        <time>2020-08-28T17:56:12.541Z</time>
      </trkpt>
      <trkpt lat="64.04503" lon="20.85098">
        <ele>11.494553</ele>
        <time>2020-08-28T17:56:20.007Z</time>
      </trkpt>
      <trkpt lat="64.04484" lon="20.85099">
        <ele>11.742527</ele>
        <time>2020-08-28T17:56:24.045Z</time>
      </trkpt>
      <trkpt lat="64.0446" lon="20.85066">
        <ele>12.125884</ele>
        <time>2020-08-28T17:56:30.633Z</time>
      </trkpt>
      <trkpt lat="64.04434" lon="20.84979">
        <ele>12.762714</ele>
        <time>2020-08-28T17:56:41.616Z</time>
      </trkpt>
      <trkpt lat="64.04414" lon="20.84937">
        <ele>13.132171</ele>
        <time>2020-08-28T17:56:48.153Z</time>
      </trkpt>
      <trkpt lat="64.04386" lon="20.84888">
        <ele>13.618587</ele>
        <time>2020-08-28T17:56:56.796Z</time>
      </trkpt>
      <trkpt lat="64.04388" lon="20.84836">
        <ele>13.923502</ele>
        <time>2020-08-28T17:57:02.101Z</time>
      </trkpt>
      <trkpt lat="64.04383" lon="20.84835">
        <ele>13.995578</ele>
        <time>2020-08-28T17:57:03.544Z</time>
      </trkpt>
      <trkpt lat="64.04271" lon="20.84795">
        <ele>15.528062</ele>
        <time>2020-08-28T17:57:29.468Z</time>
      </trkpt>
      <trkpt lat="64.04083" lon="20.84686">
        <ele>16.46545</ele>
        <time>2020-08-28T17:58:06.573Z</time>
      </trkpt>
      <trkpt lat="64.03903" lon="20.84534">
        <ele>15.950305</ele>
        <time>2020-08-28T17:58:38.359Z</time>
      </trkpt>
      <trkpt lat="64.03713" lon="20.84352">
        <ele>15.538135</ele>
        <time>2020-08-28T17:59:14.160Z</time>
      </trkpt>
      <trkpt lat="64.03657" lon="20.8431">
        <ele>15.460436</ele>
        <time>2020-08-28T17:59:24.664Z</time>
      </trkpt>
      <trkpt lat="64.03546" lon="20.84246">
        <ele>15.328152</ele>
        <time>2020-08-28T17:59:44.480Z</time>
      </trkpt>
      <trkpt lat="64.03425" lon="20.842">
        <ele>15.286373</ele>
        <time>2020-08-28T18:00:05.727Z</time>
      </trkpt>
      <trkpt lat="64.03356" lon="20.84185">
        <ele>15.506788</ele>
        <time>2020-08-28T18:00:18.612Z</time>
      </trkpt>
      <trkpt lat="64.03319" lon="20.8418">
        <ele>15.793144</ele>
        <time>2020-08-28T18:00:25.992Z</time>
      </trkpt>
      <trkpt lat="64.03262" lon="20.84174">
        <ele>16.227528</ele>
        <time>2020-08-28T18:00:37.768Z</time>
      </trkpt>
      <trkpt lat="64.03213" lon="20.84172">
        <ele>16.603526</ele>
        <time>2020-08-28T18:00:48.235Z</time>
      </trkpt>
      <trkpt lat="64.0315" lon="20.84168">
        <ele>17.124146</ele>
        <time>2020-08-28T18:01:01.920Z</time>
      </trkpt>
      <trkpt lat="64.03105" lon="20.84168">
        <ele>17.493891</ele>
        <time>2020-08-28T18:01:11.227Z</time>
      </trkpt>
      <trkpt lat="64.02841" lon="20.84158">
        <ele>19.220931</ele>
        <time>2020-08-28T18:02:02.844Z</time>
      </trkpt>
      <trkpt lat="64.02693" lon="20.84149">
        <ele>20.384448</ele>
        <time>2020-08-28T18:02:32.203Z</time>
      </trkpt>
      <trkpt lat="64.0261" lon="20.84141">
        <ele>21.665924</ele>
        <time>2020-08-28T18:02:51.095Z</time>
      </trkpt>
      <trkpt lat="64.02499" lon="20.84109">
        <ele>23.748483</ele>
        <time>2020-08-28T18:03:18.795Z</time>
      </trkpt>
      <trkpt lat="64.02401" lon="20.84068">
        <ele>24.824114</ele>
        <time>2020-08-28T18:03:42.747Z</time>
      </trkpt>
      <trkpt lat="64.02292" lon="20.84003">
        <ele>25.480687</ele>
        <time>2020-08-28T18:04:03.706Z</time>
      </trkpt>
      <trkpt lat="64.02263" lon="20.83981">
        <ele>25.152526</ele>
        <time>2020-08-28T18:04:08.469Z</time>
      </trkpt>
      <trkpt lat="64.02234" lon="20.83959">
        <ele>24.81514</ele>
        <time>2020-08-28T18:04:13.125Z</time>
      </trkpt>
      <trkpt lat="64.02133" lon="20.83867">
        <ele>23.637682</ele>
        <time>2020-08-28T18:04:28.915Z</time>
      </trkpt>
      <trkpt lat="64.02081" lon="20.83804">
        <ele>23.081755</ele>
        <time>2020-08-28T18:04:37.590Z</time>
      </trkpt>
      <trkpt lat="64.02047" lon="20.83761">
        <ele>22.709875</ele>
        <time>2020-08-28T18:04:43.671Z</time>
      </trkpt>
      <trkpt lat="64.02017" lon="20.83727">
        <ele>22.393948</ele>
        <time>2020-08-28T18:04:48.962Z</time>
      </trkpt>
      <trkpt lat="64.01933" lon="20.83601">
        <ele>22.385794</ele>
        <time>2020-08-28T18:05:06.464Z</time>
      </trkpt>
      <trkpt lat="64.0187" lon="20.83491">
        <ele>22.804159</ele>
        <time>2020-08-28T18:05:22.671Z</time>
      </trkpt>
      <trkpt lat="64.01818" lon="20.8339">
        <ele>23.251764</ele>
        <time>2020-08-28T18:05:37.308Z</time>
      </trkpt>
      <trkpt lat="64.01762" lon="20.83266">
        <ele>23.868585</ele>
        <time>2020-08-28T18:05:54.044Z</time>
      </trkpt>
      <trkpt lat="64.01675" lon="20.83025">
        <ele>23.904021</ele>
        <time>2020-08-28T18:06:20.219Z</time>
      </trkpt>
      <trkpt lat="64.01391" lon="20.82154">
        <ele>19.644419</ele>
        <time>2020-08-28T18:07:33.424Z</time>
      </trkpt>
      <trkpt lat="64.01358" lon="20.8205">
        <ele>18.891716</ele>
        <time>2020-08-28T18:07:41.846Z</time>
      </trkpt>
      <trkpt lat="64.01312" lon="20.81915">
        <ele>17.881332</ele>
        <time>2020-08-28T18:07:53.004Z</time>
      </trkpt>
      <trkpt lat="64.01261" lon="20.81766">
        <ele>16.901295</ele>
        <time>2020-08-28T18:08:05.330Z</time>
      </trkpt>
      <trkpt lat="64.01213" lon="20.81637">
        <ele>16.172306</ele>
        <time>2020-08-28T18:08:16.672Z</time>
      </trkpt>
      <trkpt lat="64.01154" lon="20.81488">
        <ele>15.449289</ele>
        <time>2020-08-28T18:08:30.732Z</time>
      </trkpt>
      <trkpt lat="64.01101" lon="20.81353">
        <ele>15.257322</ele>
        <time>2020-08-28T18:08:44.249Z</time>
      </trkpt>
      <trkpt lat="64.00957" lon="20.81022">
        <ele>15.081559</ele>
        <time>2020-08-28T18:09:20.691Z</time>
      </trkpt>
      <trkpt lat="64.00756" lon="20.80621">
        <ele>15.481021</ele>
        <time>2020-08-28T18:10:09.305Z</time>
      </trkpt>
      <trkpt lat="64.00466" lon="20.80054">
        <ele>16.925377</ele>
        <time>2020-08-28T18:11:22.257Z</time>
      </trkpt>
      <trkpt lat="64.0025" lon="20.79632">
        <ele>18.197802</ele>
        <time>2020-08-28T18:12:17.289Z</time>
      </trkpt>
      <trkpt lat="64.0015" lon="20.79431">
        <ele>18.785558</ele>
        <time>2020-08-28T18:12:43.266Z</time>
      </trkpt>
      <trkpt lat="63.99983" lon="20.79038">
        <ele>19.724714</ele>
        <time>2020-08-28T18:13:29.058Z</time>
      </trkpt>
      <trkpt lat="63.99968" lon="20.78999">
        <ele>19.775142</ele>
        <time>2020-08-28T18:13:33.169Z</time>
      </trkpt>
      <trkpt lat="63.9994" lon="20.78927">
        <ele>19.830192</ele>
        <time>2020-08-28T18:13:41.040Z</time>
      </trkpt>
      <trkpt lat="63.99878" lon="20.78763">
        <ele>19.951792</ele>
        <time>2020-08-28T18:13:58.214Z</time>
      </trkpt>
      <trkpt lat="63.99761" lon="20.78404">
        <ele>19.999214</ele>
        <time>2020-08-28T18:14:33.228Z</time>
      </trkpt>
      <trkpt lat="63.99673" lon="20.78094">
        <ele>20.000012</ele>
        <time>2020-08-28T18:15:02.225Z</time>
      </trkpt>
      <trkpt lat="63.99609" lon="20.7783">
        <ele>19.994381</ele>
        <time>2020-08-28T18:15:25.830Z</time>
      </trkpt>
      <trkpt lat="63.99585" lon="20.77722">
        <ele>19.99142</ele>
        <time>2020-08-28T18:15:35.333Z</time>
      </trkpt>
      <trkpt lat="63.99595" lon="20.77712">
        <ele>19.990817</ele>
        <time>2020-08-28T18:15:38.539Z</time>
      </trkpt>
      <trkpt lat="63.99614" lon="20.77681">
        <ele>19.980304</ele>
        <time>2020-08-28T18:15:45.424Z</time>
      </trkpt>
      <trkpt lat="63.99619" lon="20.77659">
        <ele>19.968268</ele>
        <time>2020-08-28T18:15:48.666Z</time>
      </trkpt>
      <trkpt lat="63.99623" lon="20.77599">
        <ele>19.938698</ele>
        <time>2020-08-28T18:15:56.599Z</time>
      </trkpt>
      <trkpt lat="63.99618" lon="20.7748">
        <ele>19.881022</ele>
        <time>2020-08-28T18:16:12.022Z</time>
      </trkpt>
      <trkpt lat="63.99621" lon="20.77424">
        <ele>19.853696</ele>
        <time>2020-08-28T18:16:19.298Z</time>
      </trkpt>
      <trkpt lat="63.99623" lon="20.77375">
        <ele>19.830068</ele>
        <time>2020-08-28T18:16:25.573Z</time>
      </trkpt>
      <trkpt lat="63.99625" lon="20.77329">
        <ele>19.807912</ele>
        <time>2020-08-28T18:16:31.451Z</time>
      </trkpt>
      <trkpt lat="63.99618" lon="20.77258">
        <ele>19.747873</ele>
        <time>2020-08-28T18:16:40.853Z</time>
      </trkpt>
      <trkpt lat="63.99569" lon="20.76984">
        <ele>19.423769</ele>
        <time>2020-08-28T18:17:18.365Z</time>
      </trkpt>
      <trkpt lat="63.99536" lon="20.76771">
        <ele>19.243896</ele>
        <time>2020-08-28T18:17:47.089Z</time>
      </trkpt>
      <trkpt lat="63.99526" lon="20.76699">
        <ele>19.194321</ele>
        <time>2020-08-28T18:17:56.863Z</time>
      </trkpt>
      <trkpt lat="63.9952" lon="20.76655">
        <ele>19.164443</ele>
        <time>2020-08-28T18:18:02.780Z</time>
      </trkpt>
      <trkpt lat="63.99508" lon="20.76519">
        <ele>19.076298</ele>
        <time>2020-08-28T18:18:20.756Z</time>
      </trkpt>
      <trkpt lat="63.99504" lon="20.76418">
        <ele>19.135944</ele>
        <time>2020-08-28T18:18:33.861Z</time>
      </trkpt>
      <trkpt lat="63.995" lon="20.7609">
        <ele>19.37412</ele>
        <time>2020-08-28T18:19:17.477Z</time>
      </trkpt>
      <trkpt lat="63.99489" lon="20.75925">
        <ele>19.830853</ele>
        <time>2020-08-28T18:19:40.426Z</time>
      </trkpt>
      <trkpt lat="63.9949" lon="20.75806">
        <ele>20.154484</ele>
        <time>2020-08-28T18:19:57.047Z</time>
      </trkpt>
      <trkpt lat="63.99465" lon="20.7552">
        <ele>21.559142</ele>
        <time>2020-08-28T18:20:39.120Z</time>
      </trkpt>
      <trkpt lat="63.99465" lon="20.75348">
        <ele>22.584344</ele>
        <time>2020-08-28T18:21:05.452Z</time>
      </trkpt>
      <trkpt lat="63.99456" lon="20.75233">
        <ele>23.38359</ele>
        <time>2020-08-28T18:21:23.653Z</time>
      </trkpt>
      <trkpt lat="63.99449" lon="20.75177">
        <ele>23.824613</ele>
        <time>2020-08-28T18:21:32.612Z</time>
      </trkpt>
      <trkpt lat="63.99445" lon="20.75157">
        <ele>23.981978</ele>
        <time>2020-08-28T18:21:36.065Z</time>
      </trkpt>
      <trkpt lat="63.99416" lon="20.75048">
        <ele>24.938064</ele>
        <time>2020-08-28T18:21:55.842Z</time>
      </trkpt>
      <trkpt lat="63.99385" lon="20.74982">
        <ele>25.662622</ele>
        <time>2020-08-28T18:22:10.818Z</time>
      </trkpt>
      <trkpt lat="63.99329" lon="20.74832">
        <ele>26.598031</ele>
        <time>2020-08-28T18:22:40.874Z</time>
      </trkpt>
      <trkpt lat="63.99248" lon="20.74668">
        <ele>27.592249</ele>
        <time>2020-08-28T18:23:15.465Z</time>
      </trkpt>
      <trkpt lat="63.99179" lon="20.74505">
        <ele>27.162377</ele>
        <time>2020-08-28T18:23:44.281Z</time>
      </trkpt>
      <trkpt lat="63.99103" lon="20.74384">
        <ele>26.707436</ele>
        <time>2020-08-28T18:24:09.500Z</time>
      </trkpt>
      <trkpt lat="63.99039" lon="20.74358">
        <ele>26.249114</ele>
        <time>2020-08-28T18:24:27.020Z</time>
      </trkpt>
      <trkpt lat="63.9898" lon="20.74264">
        <ele>25.740237</ele>
        <time>2020-08-28T18:24:46.950Z</time>
      </trkpt>
      <trkpt lat="63.9894" lon="20.74153">
        <ele>25.757616</ele>
        <time>2020-08-28T18:25:05.477Z</time>
      </trkpt>
      <trkpt lat="63.98867" lon="20.74061">
        <ele>26.450066</ele>
        <time>2020-08-28T18:25:32.285Z</time>
      </trkpt>
      <trkpt lat="63.9881" lon="20.74009">
        <ele>26.951474</ele>
        <time>2020-08-28T18:25:53.060Z</time>
      </trkpt>
      <trkpt lat="63.98795" lon="20.73977">
        <ele>27.240712</ele>
        <time>2020-08-28T18:26:00.593Z</time>
      </trkpt>
      <trkpt lat="63.98767" lon="20.73875">
        <ele>28.055992</ele>
        <time>2020-08-28T18:26:19.219Z</time>
      </trkpt>
      <trkpt lat="63.98689" lon="20.73761">
        <ele>29.493833</ele>
        <time>2020-08-28T18:26:51.670Z</time>
      </trkpt>
      <trkpt lat="63.98644" lon="20.7366">
        <ele>29.936745</ele>
        <time>2020-08-28T18:27:12.655Z</time>
      </trkpt>
      <trkpt lat="63.98628" lon="20.73579">
        <ele>30.066829</ele>
        <time>2020-08-28T18:27:24.896Z</time>
      </trkpt>
      <trkpt lat="63.98617" lon="20.73422">
        <ele>30.300853</ele>
        <time>2020-08-28T18:27:45.737Z</time>
      </trkpt>
      <trkpt lat="63.98585" lon="20.73338">
        <ele>30.260733</ele>
        <time>2020-08-28T18:27:59.682Z</time>
      </trkpt>
      <trkpt lat="63.98549" lon="20.73268">
        <ele>29.982556</ele>
        <time>2020-08-28T18:28:12.854Z</time>
      </trkpt>
      <trkpt lat="63.98474" lon="20.73168">
        <ele>29.473532</ele>
        <time>2020-08-28T18:28:36.832Z</time>
      </trkpt>
      <trkpt lat="63.98412" lon="20.73111">
        <ele>29.376291</ele>
        <time>2020-08-28T18:28:55.706Z</time>
      </trkpt>
      <trkpt lat="63.98385" lon="20.73072">
        <ele>29.408956</ele>
        <time>2020-08-28T18:29:04.998Z</time>
      </trkpt>
      <trkpt lat="63.98378" lon="20.73003">
        <ele>29.440441</ele>
        <time>2020-08-28T18:29:14.154Z</time>
      </trkpt>
      <trkpt lat="63.98375" lon="20.72838">
        <ele>29.514427</ele>
        <time>2020-08-28T18:29:36.505Z</time>
      </trkpt>
      <trkpt lat="63.98384" lon="20.72768">
        <ele>30.123497</ele>
        <time>2020-08-28T18:29:47.420Z</time>
      </trkpt>
      <trkpt lat="63.98432" lon="20.72546">
        <ele>32.27092</ele>
        <time>2020-08-28T18:30:27.146Z</time>
      </trkpt>
      <trkpt lat="63.98441" lon="20.72489">
        <ele>32.792579</ele>
        <time>2020-08-28T18:30:37.046Z</time>
      </trkpt>
      <trkpt lat="63.98444" lon="20.72453">
        <ele>33.122081</ele>
        <time>2020-08-28T18:30:43.598Z</time>
      </trkpt>
      <trkpt lat="63.98434" lon="20.72324">
        <ele>34.570288</ele>
        <time>2020-08-28T18:31:05.763Z</time>
      </trkpt>
      <trkpt lat="63.98382" lon="20.72051">
        <ele>37.713681</ele>
        <time>2020-08-28T18:31:55.538Z</time>
      </trkpt>
      <trkpt lat="63.98322" lon="20.7188">
        <ele>38.82712</ele>
        <time>2020-08-28T18:32:27.970Z</time>
      </trkpt>
      <trkpt lat="63.98245" lon="20.7174">
        <ele>39.730442</ele>
        <time>2020-08-28T18:32:59.170Z</time>
      </trkpt>
      <trkpt lat="63.98228" lon="20.71685">
        <ele>39.782098</ele>
        <time>2020-08-28T18:33:08.186Z</time>
      </trkpt>
      <trkpt lat="63.9822" lon="20.71646">
        <ele>39.814293</ele>
        <time>2020-08-28T18:33:13.769Z</time>
      </trkpt>
      <trkpt lat="63.98188" lon="20.7129">
        <ele>40.000012</ele>
        <time>2020-08-28T18:34:01.348Z</time>
      </trkpt>
      <trkpt lat="63.98177" lon="20.7123">
        <ele>40.000012</ele>
        <time>2020-08-28T18:34:09.808Z</time>
      </trkpt>
      <trkpt lat="63.98157" lon="20.71195">
        <ele>40.000012</ele>
        <time>2020-08-28T18:34:17.429Z</time>
      </trkpt>
      <trkpt lat="63.981" lon="20.7114">
        <ele>40.000012</ele>
        <time>2020-08-28T18:34:35.750Z</time>
      </trkpt>
      <trkpt lat="63.9805" lon="20.7104">
        <ele>39.987916</ele>
        <time>2020-08-28T18:34:55.453Z</time>
      </trkpt>
      <trkpt lat="63.9802" lon="20.71022">
        <ele>39.980926</ele>
        <time>2020-08-28T18:35:04.887Z</time>
      </trkpt>
      <trkpt lat="63.97997" lon="20.70992">
        <ele>39.975128</ele>
        <time>2020-08-28T18:35:12.703Z</time>
      </trkpt>
      <trkpt lat="63.97971" lon="20.70878">
        <ele>39.962668</ele>
        <time>2020-08-28T18:35:29.492Z</time>
      </trkpt>
      <trkpt lat="63.97961" lon="20.70852">
        <ele>39.941456</ele>
        <time>2020-08-28T18:35:33.943Z</time>
      </trkpt>
      <trkpt lat="63.9795" lon="20.70829">
        <ele>39.880724</ele>
        <time>2020-08-28T18:35:38.295Z</time>
      </trkpt>
      <trkpt lat="63.97888" lon="20.70758">
        <ele>39.593002</ele>
        <time>2020-08-28T18:35:58.678Z</time>
      </trkpt>
      <trkpt lat="63.97843" lon="20.70631">
        <ele>39.297859</ele>
        <time>2020-08-28T18:36:18.955Z</time>
      </trkpt>
      <trkpt lat="63.97787" lon="20.70554">
        <ele>38.604264</ele>
        <time>2020-08-28T18:36:36.564Z</time>
      </trkpt>
      <trkpt lat="63.97724" lon="20.70404">
        <ele>37.37107</ele>
        <time>2020-08-28T18:37:00.511Z</time>
      </trkpt>
      <trkpt lat="63.97682" lon="20.70356">
        <ele>36.759615</ele>
        <time>2020-08-28T18:37:12.463Z</time>
      </trkpt>
      <trkpt lat="63.9764" lon="20.7034">
        <ele>36.340181</ele>
        <time>2020-08-28T18:37:23.622Z</time>
      </trkpt>
      <trkpt lat="63.97617" lon="20.70315">
        <ele>36.093824</ele>
        <time>2020-08-28T18:37:30.303Z</time>
      </trkpt>
      <trkpt lat="63.97579" lon="20.70251">
        <ele>35.638921</ele>
        <time>2020-08-28T18:37:42.853Z</time>
      </trkpt>
      <trkpt lat="63.9753" lon="20.70147">
        <ele>35.142765</ele>
        <time>2020-08-28T18:38:01.901Z</time>
      </trkpt>
      <trkpt lat="63.97498" lon="20.70063">
        <ele>35.801594</ele>
        <time>2020-08-28T18:38:17.070Z</time>
      </trkpt>
      <trkpt lat="63.97497" lon="20.70017">
        <ele>36.080252</ele>
        <time>2020-08-28T18:38:23.853Z</time>
      </trkpt>
      <trkpt lat="63.97505" lon="20.69879">
        <ele>36.916204</ele>
        <time>2020-08-28T18:38:45.544Z</time>
      </trkpt>
      <trkpt lat="63.975" lon="20.69835">
        <ele>37.184365</ele>
        <time>2020-08-28T18:38:52.824Z</time>
      </trkpt>
      <trkpt lat="63.97494" lon="20.69806">
        <ele>37.37658</ele>
        <time>2020-08-28T18:38:58.128Z</time>
      </trkpt>
      <trkpt lat="63.97445" lon="20.69705">
        <ele>38.987022</ele>
        <time>2020-08-28T18:39:23.681Z</time>
      </trkpt>
      <trkpt lat="63.97428" lon="20.69651">
        <ele>39.742171</ele>
        <time>2020-08-28T18:39:35.026Z</time>
      </trkpt>
      <trkpt lat="63.97413" lon="20.6949">
        <ele>41.624918</ele>
        <time>2020-08-28T18:40:02.893Z</time>
      </trkpt>
      <trkpt lat="63.97374" lon="20.69384">
        <ele>42.825222</ele>
        <time>2020-08-28T18:40:25.394Z</time>
      </trkpt>
      <trkpt lat="63.97364" lon="20.69338">
        <ele>43.192796</ele>
        <time>2020-08-28T18:40:33.539Z</time>
      </trkpt>
      <trkpt lat="63.97279" lon="20.68802">
        <ele>46.778383</ele>
        <time>2020-08-28T18:41:58.199Z</time>
      </trkpt>
      <trkpt lat="63.9726" lon="20.68766">
        <ele>47.089023</ele>
        <time>2020-08-28T18:42:06.487Z</time>
      </trkpt>
      <trkpt lat="63.97227" lon="20.68748">
        <ele>47.489604</ele>
        <time>2020-08-28T18:42:17.976Z</time>
      </trkpt>
      <trkpt lat="63.97193" lon="20.6871">
        <ele>47.85586</ele>
        <time>2020-08-28T18:42:30.646Z</time>
      </trkpt>
      <trkpt lat="63.97155" lon="20.68605">
        <ele>48.438797</ele>
        <time>2020-08-28T18:42:50.561Z</time>
      </trkpt>
      <trkpt lat="63.97141" lon="20.6859">
        <ele>48.589317</ele>
        <time>2020-08-28T18:42:55.659Z</time>
      </trkpt>
      <trkpt lat="63.97091" lon="20.68578">
        <ele>49.07281</ele>
        <time>2020-08-28T18:43:11.666Z</time>
      </trkpt>
      <trkpt lat="63.97065" lon="20.68553">
        <ele>49.160501</ele>
        <time>2020-08-28T18:43:20.769Z</time>
      </trkpt>
      <trkpt lat="63.9692" lon="20.68368">
        <ele>49.303477</ele>
        <time>2020-08-28T18:44:10.282Z</time>
      </trkpt>
      <trkpt lat="63.96899" lon="20.68316">
        <ele>49.188198</ele>
        <time>2020-08-28T18:44:19.229Z</time>
      </trkpt>
      <trkpt lat="63.96878" lon="20.68156">
        <ele>48.916719</ele>
        <time>2020-08-28T18:44:40.201Z</time>
      </trkpt>
      <trkpt lat="63.96834" lon="20.68081">
        <ele>48.711822</ele>
        <time>2020-08-28T18:44:55.892Z</time>
      </trkpt>
      <trkpt lat="63.96791" lon="20.67955">
        <ele>48.45532</ele>
        <time>2020-08-28T18:45:15.607Z</time>
      </trkpt>
      <trkpt lat="63.96751" lon="20.67868">
        <ele>48.251426</ele>
        <time>2020-08-28T18:45:31.381Z</time>
      </trkpt>
      <trkpt lat="63.96738" lon="20.67803">
        <ele>48.135327</ele>
        <time>2020-08-28T18:45:40.428Z</time>
      </trkpt>
      <trkpt lat="63.96731" lon="20.67592">
        <ele>48.074189</ele>
        <time>2020-08-28T18:46:07.544Z</time>
      </trkpt>
      <trkpt lat="63.96723" lon="20.67558">
        <ele>48.093565</ele>
        <time>2020-08-28T18:46:12.454Z</time>
      </trkpt>
      <trkpt lat="63.96675" lon="20.67442">
        <ele>48.176312</ele>
        <time>2020-08-28T18:46:33.927Z</time>
      </trkpt>
      <trkpt lat="63.9666" lon="20.67387">
        <ele>48.209783</ele>
        <time>2020-08-28T18:46:42.789Z</time>
      </trkpt>
      <trkpt lat="63.96657" lon="20.67358">
        <ele>48.252459</ele>
        <time>2020-08-28T18:46:46.833Z</time>
      </trkpt>
      <trkpt lat="63.96663" lon="20.67191">
        <ele>48.658288</ele>
        <time>2020-08-28T18:47:10.057Z</time>
      </trkpt>
      <trkpt lat="63.96642" lon="20.67067">
        <ele>48.979587</ele>
        <time>2020-08-28T18:47:28.640Z</time>
      </trkpt>
      <trkpt lat="63.96578" lon="20.66754">
        <ele>49.60223</ele>
        <time>2020-08-28T18:48:16.071Z</time>
      </trkpt>
      <trkpt lat="63.96516" lon="20.66549">
        <ele>49.863206</ele>
        <time>2020-08-28T18:48:49.087Z</time>
      </trkpt>
      <trkpt lat="63.96492" lon="20.66404">
        <ele>49.880952</ele>
        <time>2020-08-28T18:49:09.197Z</time>
      </trkpt>
      <trkpt lat="63.96457" lon="20.66278">
        <ele>49.898222</ele>
        <time>2020-08-28T18:49:28.752Z</time>
      </trkpt>
      <trkpt lat="63.96449" lon="20.6626">
        <ele>49.900843</ele>
        <time>2020-08-28T18:49:31.970Z</time>
      </trkpt>
      <trkpt lat="63.96405" lon="20.66237">
        <ele>49.910163</ele>
        <time>2020-08-28T18:49:45.310Z</time>
      </trkpt>
      <trkpt lat="63.96384" lon="20.66213">
        <ele>49.915042</ele>
        <time>2020-08-28T18:49:52.337Z</time>
      </trkpt>
      <trkpt lat="63.96372" lon="20.66181">
        <ele>49.919011</ele>
        <time>2020-08-28T18:49:58.042Z</time>
      </trkpt>
      <trkpt lat="63.96359" lon="20.66049">
        <ele>49.931302</ele>
        <time>2020-08-28T18:50:15.736Z</time>
      </trkpt>
      <trkpt lat="63.9635" lon="20.66025">
        <ele>49.934132</ele>
        <time>2020-08-28T18:50:19.821Z</time>
      </trkpt>
      <trkpt lat="63.96288" lon="20.65922">
        <ele>49.958657</ele>
        <time>2020-08-28T18:50:42.778Z</time>
      </trkpt>
      <trkpt lat="63.9624" lon="20.65881">
        <ele>49.976489</ele>
        <time>2020-08-28T18:50:58.057Z</time>
      </trkpt>
      <trkpt lat="63.96218" lon="20.65845">
        <ele>49.985865</ele>
        <time>2020-08-28T18:51:06.099Z</time>
      </trkpt>
      <trkpt lat="63.96196" lon="20.65704">
        <ele>50.000012</ele>
        <time>2020-08-28T18:51:25.855Z</time>
      </trkpt>
      <trkpt lat="63.96186" lon="20.65683">
        <ele>50.000012</ele>
        <time>2020-08-28T18:51:29.886Z</time>
      </trkpt>
      <trkpt lat="63.96101" lon="20.65615">
        <ele>50.000012</ele>
        <time>2020-08-28T18:51:56.506Z</time>
      </trkpt>
      <trkpt lat="63.96003" lon="20.65619">
        <ele>50.000012</ele>
        <time>2020-08-28T18:52:25.718Z</time>
      </trkpt>
      <trkpt lat="63.95971" lon="20.65592">
        <ele>50.000012</ele>
        <time>2020-08-28T18:52:35.864Z</time>
      </trkpt>
      <trkpt lat="63.95867" lon="20.65437">
        <ele>50.000012</ele>
        <time>2020-08-28T18:53:12.771Z</time>
      </trkpt>
      <trkpt lat="63.95819" lon="20.65308">
        <ele>50.000012</ele>
        <time>2020-08-28T18:53:34.844Z</time>
      </trkpt>
      <trkpt lat="63.95783" lon="20.65232">
        <ele>50.000012</ele>
        <time>2020-08-28T18:53:49.403Z</time>
      </trkpt>
      <trkpt lat="63.95776" lon="20.65201">
        <ele>50.000012</ele>
        <time>2020-08-28T18:53:54.078Z</time>
      </trkpt>
      <trkpt lat="63.95761" lon="20.65084">
        <ele>50.000012</ele>
        <time>2020-08-28T18:54:09.990Z</time>
      </trkpt>
      <trkpt lat="63.95742" lon="20.64999">
        <ele>50.000012</ele>
        <time>2020-08-28T18:54:22.370Z</time>
      </trkpt>
      <trkpt lat="63.95742" lon="20.64907">
        <ele>50.000012</ele>
        <time>2020-08-28T18:54:34.457Z</time>
      </trkpt>
      <trkpt lat="63.95752" lon="20.64698">
        <ele>50.000012</ele>
        <time>2020-08-28T18:55:01.965Z</time>
      </trkpt>
      <trkpt lat="63.95731" lon="20.64399">
        <ele>50.000012</ele>
        <time>2020-08-28T18:55:41.428Z</time>
      </trkpt>
      <trkpt lat="63.95728" lon="20.64251">
        <ele>50.000012</ele>
        <time>2020-08-28T18:56:00.884Z</time>
      </trkpt>
      <trkpt lat="63.95701" lon="20.63924">
        <ele>50.000012</ele>
        <time>2020-08-28T18:56:44.276Z</time>
      </trkpt>
      <trkpt lat="63.95689" lon="20.63872">
        <ele>50.000012</ele>
        <time>2020-08-28T18:56:52.008Z</time>
      </trkpt>
      <trkpt lat="63.95654" lon="20.6379">
        <ele>50.000012</ele>
        <time>2020-08-28T18:57:06.920Z</time>
      </trkpt>
      <trkpt lat="63.95622" lon="20.63667">
        <ele>50.000012</ele>
        <time>2020-08-28T18:57:25.587Z</time>
      </trkpt>
      <trkpt lat="63.95594" lon="20.63596">
        <ele>50.000012</ele>
        <time>2020-08-28T18:57:38.109Z</time>
      </trkpt>
      <trkpt lat="63.95571" lon="20.63512">
        <ele>50.000012</ele>
        <time>2020-08-28T18:57:50.981Z</time>
      </trkpt>
      <trkpt lat="63.95539" lon="20.63249">
        <ele>50.000012</ele>
        <time>2020-08-28T18:58:26.551Z</time>
      </trkpt>
      <trkpt lat="63.95538" lon="20.63216">
        <ele>50.000012</ele>
        <time>2020-08-28T18:58:30.984Z</time>
      </trkpt>
      <trkpt lat="63.95542" lon="20.63118">
        <ele>50.000012</ele>
        <time>2020-08-28T18:58:43.743Z</time>
      </trkpt>
      <trkpt lat="63.95535" lon="20.63011">
        <ele>50.000012</ele>
        <time>2020-08-28T18:58:57.949Z</time>
      </trkpt>
      <trkpt lat="63.95505" lon="20.62913">
        <ele>50.000012</ele>
        <time>2020-08-28T18:59:13.628Z</time>
      </trkpt>
      <trkpt lat="63.95488" lon="20.62838">
        <ele>50.000012</ele>
        <time>2020-08-28T18:59:24.578Z</time>
      </trkpt>
      <trkpt lat="63.95485" lon="20.628">
        <ele>50.000012</ele>
        <time>2020-08-28T18:59:29.691Z</time>
      </trkpt>
      <trkpt lat="63.95485" lon="20.62618">
        <ele>50.000012</ele>
        <time>2020-08-28T18:59:53.468Z</time>
      </trkpt>
      <trkpt lat="63.95484" lon="20.62554">
        <ele>50.000012</ele>
        <time>2020-08-28T19:00:01.867Z</time>
      </trkpt>
      <trkpt lat="63.95474" lon="20.62475">
        <ele>50.000012</ele>
        <time>2020-08-28T19:00:12.558Z</time>
      </trkpt>
      <trkpt lat="63.95395" lon="20.62266">
        <ele>50.000012</ele>
        <time>2020-08-28T19:00:48.677Z</time>
      </trkpt>
      <trkpt lat="63.95353" lon="20.62192">
        <ele>50.000012</ele>
        <time>2020-08-28T19:01:04.436Z</time>
      </trkpt>
      <trkpt lat="63.95337" lon="20.62175">
        <ele>50.004805</ele>
        <time>2020-08-28T19:01:09.580Z</time>
      </trkpt>
      <trkpt lat="63.95272" lon="20.62145">
        <ele>50.040167</ele>
        <time>2020-08-28T19:01:29.391Z</time>
      </trkpt>
      <trkpt lat="63.95241" lon="20.62088">
        <ele>50.061048</ele>
        <time>2020-08-28T19:01:41.098Z</time>
      </trkpt>
      <trkpt lat="63.95209" lon="20.6189">
        <ele>50.199098</ele>
        <time>2020-08-28T19:02:09.067Z</time>
      </trkpt>
      <trkpt lat="63.95202" lon="20.61753">
        <ele>50.421916</ele>
        <time>2020-08-28T19:02:27.533Z</time>
      </trkpt>
      <trkpt lat="63.95183" lon="20.61588">
        <ele>50.69887</ele>
        <time>2020-08-28T19:02:50.938Z</time>
      </trkpt>
      <trkpt lat="63.95179" lon="20.6139">
        <ele>51.186811</ele>
        <time>2020-08-28T19:03:18.708Z</time>
      </trkpt>
      <trkpt lat="63.95168" lon="20.61348">
        <ele>51.318413</ele>
        <time>2020-08-28T19:03:25.697Z</time>
      </trkpt>
      <trkpt lat="63.95062" lon="20.61178">
        <ele>51.831036</ele>
        <time>2020-08-28T19:04:06.734Z</time>
      </trkpt>
      <trkpt lat="63.95033" lon="20.61066">
        <ele>51.804861</ele>
        <time>2020-08-28T19:04:24.084Z</time>
      </trkpt>
      <trkpt lat="63.94967" lon="20.60951">
        <ele>51.738042</ele>
        <time>2020-08-28T19:04:47.844Z</time>
      </trkpt>
      <trkpt lat="63.94914" lon="20.6079">
        <ele>50.689024</ele>
        <time>2020-08-28T19:05:11.668Z</time>
      </trkpt>
      <trkpt lat="63.94865" lon="20.60704">
        <ele>49.955095</ele>
        <time>2020-08-28T19:05:27.848Z</time>
      </trkpt>
      <trkpt lat="63.94803" lon="20.60498">
        <ele>48.356836</ele>
        <time>2020-08-28T19:05:56.195Z</time>
      </trkpt>
      <trkpt lat="63.94765" lon="20.60394">
        <ele>47.43671</ele>
        <time>2020-08-28T19:06:11.616Z</time>
      </trkpt>
      <trkpt lat="63.94743" lon="20.60349">
        <ele>46.97962</ele>
        <time>2020-08-28T19:06:19.306Z</time>
      </trkpt>
      <trkpt lat="63.94565" lon="20.60082">
        <ele>44.337092</ele>
        <time>2020-08-28T19:07:16.306Z</time>
      </trkpt>
      <trkpt lat="63.94507" lon="20.60017">
        <ele>43.610156</ele>
        <time>2020-08-28T19:07:33.752Z</time>
      </trkpt>
      <trkpt lat="63.94495" lon="20.59993">
        <ele>43.430083</ele>
        <time>2020-08-28T19:07:38.061Z</time>
      </trkpt>
      <trkpt lat="63.94478" lon="20.59896">
        <ele>42.913247</ele>
        <time>2020-08-28T19:07:50.422Z</time>
      </trkpt>
      <trkpt lat="63.94477" lon="20.59751">
        <ele>41.942148</ele>
        <time>2020-08-28T19:08:07.471Z</time>
      </trkpt>
      <trkpt lat="63.94462" lon="20.59593">
        <ele>40.63465</ele>
        <time>2020-08-28T19:08:26.192Z</time>
      </trkpt>
      <trkpt lat="63.94462" lon="20.59411">
        <ele>39.087096</ele>
        <time>2020-08-28T19:08:45.810Z</time>
      </trkpt>
      <trkpt lat="63.94448" lon="20.59271">
        <ele>37.132665</ele>
        <time>2020-08-28T19:09:00.983Z</time>
      </trkpt>
      <trkpt lat="63.94443" lon="20.59234">
        <ele>36.621384</ele>
        <time>2020-08-28T19:09:04.718Z</time>
      </trkpt>
      <trkpt lat="63.94441" lon="20.59169">
        <ele>35.737081</ele>
        <time>2020-08-28T19:09:11.543Z</time>
      </trkpt>
      <trkpt lat="63.9444" lon="20.59141">
        <ele>35.350697</ele>
        <time>2020-08-28T19:09:14.447Z</time>
      </trkpt>
      <trkpt lat="63.94448" lon="20.59024">
        <ele>33.759115</ele>
        <time>2020-08-28T19:09:26.926Z</time>
      </trkpt>
      <trkpt lat="63.94447" lon="20.58997">
        <ele>33.550951</ele>
        <time>2020-08-28T19:09:29.647Z</time>
      </trkpt>
      <trkpt lat="63.94442" lon="20.58972">
        <ele>33.355328</ele>
        <time>2020-08-28T19:09:31.347Z</time>
      </trkpt>
      <trkpt lat="63.94437" lon="20.58952">
        <ele>33.181707</ele>
        <time>2020-08-28T19:09:32.948Z</time>
      </trkpt>
      <trkpt lat="63.94432" lon="20.58935">
        <ele>33.04063</ele>
        <time>2020-08-28T19:09:34.088Z</time>
      </trkpt>
      <trkpt lat="63.94404" lon="20.58874">
        <ele>32.408249</ele>
        <time>2020-08-28T19:09:39.610Z</time>
      </trkpt>
      <trkpt lat="63.94372" lon="20.58848">
        <ele>31.851543</ele>
        <time>2020-08-28T19:09:44.864Z</time>
      </trkpt>
      <trkpt lat="63.94311" lon="20.58821">
        <ele>30.839383</ele>
        <time>2020-08-28T19:09:55.399Z</time>
      </trkpt>
      <trkpt lat="63.94283" lon="20.58785">
        <ele>31.138676</ele>
        <time>2020-08-28T19:10:01.595Z</time>
      </trkpt>
      <trkpt lat="63.9427" lon="20.58754">
        <ele>31.362632</ele>
        <time>2020-08-28T19:10:05.658Z</time>
      </trkpt>
      <trkpt lat="63.94236" lon="20.58642">
        <ele>32.045792</ele>
        <time>2020-08-28T19:10:18.883Z</time>
      </trkpt>
      <trkpt lat="63.94183" lon="20.58526">
        <ele>32.910854</ele>
        <time>2020-08-28T19:10:36.945Z</time>
      </trkpt>
      <trkpt lat="63.9417" lon="20.58386">
        <ele>34.178631</ele>
        <time>2020-08-28T19:10:53.222Z</time>
      </trkpt>
      <trkpt lat="63.94164" lon="20.58346">
        <ele>34.55571</ele>
        <time>2020-08-28T19:10:58.051Z</time>
      </trkpt>
      <trkpt lat="63.94154" lon="20.58316">
        <ele>34.897054</ele>
        <time>2020-08-28T19:11:02.461Z</time>
      </trkpt>
      <trkpt lat="63.94106" lon="20.58215">
        <ele>36.207699</ele>
        <time>2020-08-28T19:11:18.955Z</time>
      </trkpt>
      <trkpt lat="63.93999" lon="20.58038">
        <ele>37.325262</ele>
        <time>2020-08-28T19:11:48.613Z</time>
      </trkpt>
      <trkpt lat="63.93948" lon="20.57928">
        <ele>37.665166</ele>
        <time>2020-08-28T19:12:01.369Z</time>
      </trkpt>
      <trkpt lat="63.9394" lon="20.57888">
        <ele>37.448817</ele>
        <time>2020-08-28T19:12:04.623Z</time>
      </trkpt>
      <trkpt lat="63.93915" lon="20.57678">
        <ele>36.369349</ele>
        <time>2020-08-28T19:12:19.952Z</time>
      </trkpt>
      <trkpt lat="63.93902" lon="20.57629">
        <ele>36.082762</ele>
        <time>2020-08-28T19:12:23.856Z</time>
      </trkpt>
      <trkpt lat="63.93883" lon="20.57598">
        <ele>35.819026</ele>
        <time>2020-08-28T19:12:27.293Z</time>
      </trkpt>
      <trkpt lat="63.93767" lon="20.57503">
        <ele>33.75502</ele>
        <time>2020-08-28T19:12:45.641Z</time>
      </trkpt>
      <trkpt lat="63.93742" lon="20.57497">
        <ele>33.322772</ele>
        <time>2020-08-28T19:12:49.431Z</time>
      </trkpt>
      <trkpt lat="63.93723" lon="20.57497">
        <ele>32.996258</ele>
        <time>2020-08-28T19:12:52.359Z</time>
      </trkpt>
      <trkpt lat="63.93553" lon="20.57533">
        <ele>30.897576</ele>
        <time>2020-08-28T19:13:19.619Z</time>
      </trkpt>
      <trkpt lat="63.93302" lon="20.575">
        <ele>28.290948</ele>
        <time>2020-08-28T19:14:00.716Z</time>
      </trkpt>
      <trkpt lat="63.93265" lon="20.57512">
        <ele>27.789454</ele>
        <time>2020-08-28T19:14:06.525Z</time>
      </trkpt>
      <trkpt lat="63.93178" lon="20.57573">
        <ele>26.557487</ele>
        <time>2020-08-28T19:14:20.567Z</time>
      </trkpt>
      <trkpt lat="63.93164" lon="20.57571">
        <ele>26.370025</ele>
        <time>2020-08-28T19:14:22.635Z</time>
      </trkpt>
      <trkpt lat="63.93085" lon="20.57514">
        <ele>25.161425</ele>
        <time>2020-08-28T19:14:35.376Z</time>
      </trkpt>
      <trkpt lat="63.93019" lon="20.57543">
        <ele>24.202743</ele>
        <time>2020-08-28T19:14:45.664Z</time>
      </trkpt>
      <trkpt lat="63.92993" lon="20.57535">
        <ele>23.820464</ele>
        <time>2020-08-28T19:14:49.858Z</time>
      </trkpt>
      <trkpt lat="63.92911" lon="20.57472">
        <ele>22.978835</ele>
        <time>2020-08-28T19:15:03.733Z</time>
      </trkpt>
      <trkpt lat="63.9286" lon="20.57394">
        <ele>22.378594</ele>
        <time>2020-08-28T19:15:13.836Z</time>
      </trkpt>
      <trkpt lat="63.92846" lon="20.57385">
        <ele>22.24045</ele>
        <time>2020-08-28T19:15:16.202Z</time>
      </trkpt>
      <trkpt lat="63.92836" lon="20.57384">
        <ele>22.14479</ele>
        <time>2020-08-28T19:15:17.810Z</time>
      </trkpt>
      <trkpt lat="63.9283" lon="20.57383">
        <ele>22.086217</ele>
        <time>2020-08-28T19:15:18.827Z</time>
      </trkpt>
      <trkpt lat="63.92819" lon="20.57387">
        <ele>22.014704</ele>
        <time>2020-08-28T19:15:20.748Z</time>
      </trkpt>
      <trkpt lat="63.92776" lon="20.57412">
        <ele>21.750573</ele>
        <time>2020-08-28T19:15:28.278Z</time>
      </trkpt>
      <trkpt lat="63.92759" lon="20.57414">
        <ele>21.653647</ele>
        <time>2020-08-28T19:15:31.049Z</time>
      </trkpt>
      <trkpt lat="63.92704" lon="20.57394">
        <ele>21.320836</ele>
        <time>2020-08-28T19:15:40.706Z</time>
      </trkpt>
      <trkpt lat="63.92659" lon="20.57404">
        <ele>21.058138</ele>
        <time>2020-08-28T19:15:48.419Z</time>
      </trkpt>
      <trkpt lat="63.92648" lon="20.57418">
        <ele>20.998213</ele>
        <time>2020-08-28T19:15:50.626Z</time>
      </trkpt>
      <trkpt lat="63.9261" lon="20.57498">
        <ele>20.837137</ele>
        <time>2020-08-28T19:15:59.873Z</time>
      </trkpt>
      <trkpt lat="63.92549" lon="20.57681">
        <ele>20.525031</ele>
        <time>2020-08-28T19:16:17.752Z</time>
      </trkpt>
      <trkpt lat="63.92536" lon="20.57704">
        <ele>20.473839</ele>
        <time>2020-08-28T19:16:20.766Z</time>
      </trkpt>
      <trkpt lat="63.92529" lon="20.57711">
        <ele>20.451642</ele>
        <time>2020-08-28T19:16:22.164Z</time>
      </trkpt>
      <trkpt lat="63.92516" lon="20.57715">
        <ele>20.423887</ele>
        <time>2020-08-28T19:16:24.325Z</time>
      </trkpt>
      <trkpt lat="63.92387" lon="20.57683">
        <ele>20.134523</ele>
        <time>2020-08-28T19:16:47.512Z</time>
      </trkpt>
      <trkpt lat="63.92248" lon="20.57714">
        <ele>19.975584</ele>
        <time>2020-08-28T19:17:12.943Z</time>
      </trkpt>
      <trkpt lat="63.92212" lon="20.57719">
        <ele>19.9471</ele>
        <time>2020-08-28T19:17:19.702Z</time>
      </trkpt>
      <trkpt lat="63.92161" lon="20.57731">
        <ele>19.89287</ele>
        <time>2020-08-28T19:17:29.276Z</time>
      </trkpt>
      <trkpt lat="63.9214" lon="20.57732">
        <ele>19.85385</ele>
        <time>2020-08-28T19:17:33.168Z</time>
      </trkpt>
      <trkpt lat="63.92134" lon="20.57732">
        <ele>19.843719</ele>
        <time>2020-08-28T19:17:34.179Z</time>
      </trkpt>
      <trkpt lat="63.92111" lon="20.57724">
        <ele>19.79955</ele>
        <time>2020-08-28T19:17:38.604Z</time>
      </trkpt>
      <trkpt lat="63.92006" lon="20.57647">
        <ele>19.591624</ele>
        <time>2020-08-28T19:17:58.306Z</time>
      </trkpt>
      <trkpt lat="63.91974" lon="20.57611">
        <ele>19.38807</ele>
        <time>2020-08-28T19:18:04.436Z</time>
      </trkpt>
      <trkpt lat="63.91956" lon="20.5759">
        <ele>19.256638</ele>
        <time>2020-08-28T19:18:07.804Z</time>
      </trkpt>
      <trkpt lat="63.91873" lon="20.5749">
        <ele>18.64395</ele>
        <time>2020-08-28T19:18:23.513Z</time>
      </trkpt>
      <trkpt lat="63.91816" lon="20.57454">
        <ele>18.265735</ele>
        <time>2020-08-28T19:18:33.291Z</time>
      </trkpt>
      <trkpt lat="63.91702" lon="20.57438">
        <ele>17.571254</ele>
        <time>2020-08-28T19:18:52.604Z</time>
      </trkpt>
      <trkpt lat="63.91574" lon="20.57479">
        <ele>16.920847</ele>
        <time>2020-08-28T19:19:15.040Z</time>
      </trkpt>
      <trkpt lat="63.91391" lon="20.57398">
        <ele>16.250995</ele>
        <time>2020-08-28T19:19:47.583Z</time>
      </trkpt>
      <trkpt lat="63.91378" lon="20.57384">
        <ele>16.211441</ele>
        <time>2020-08-28T19:19:50.204Z</time>
      </trkpt>
      <trkpt lat="63.91374" lon="20.57376">
        <ele>16.196352</ele>
        <time>2020-08-28T19:19:51.159Z</time>
      </trkpt>
      <trkpt lat="63.91322" lon="20.57251">
        <ele>16.084543</ele>
        <time>2020-08-28T19:20:04.765Z</time>
      </trkpt>
      <trkpt lat="63.91234" lon="20.57108">
        <ele>16.910671</ele>
        <time>2020-08-28T19:20:25.784Z</time>
      </trkpt>
      <trkpt lat="63.91214" lon="20.5708">
        <ele>17.088986</ele>
        <time>2020-08-28T19:20:30.881Z</time>
      </trkpt>
      <trkpt lat="63.91175" lon="20.57055">
        <ele>17.419873</ele>
        <time>2020-08-28T19:20:40.644Z</time>
      </trkpt>
      <trkpt lat="63.91138" lon="20.57016">
        <ele>18.280989</ele>
        <time>2020-08-28T19:20:51.187Z</time>
      </trkpt>
      <trkpt lat="63.91092" lon="20.56953">
        <ele>19.420854</ele>
        <time>2020-08-28T19:21:06.968Z</time>
      </trkpt>
      <trkpt lat="63.91032" lon="20.56887">
        <ele>20.848169</ele>
        <time>2020-08-28T19:21:23.461Z</time>
      </trkpt>
      <trkpt lat="63.90959" lon="20.56794">
        <ele>20.978555</ele>
        <time>2020-08-28T19:21:40.423Z</time>
      </trkpt>
      <trkpt lat="63.90963" lon="20.56772">
        <ele>20.93775</ele>
        <time>2020-08-28T19:21:41.936Z</time>
      </trkpt>
      <trkpt lat="63.90967" lon="20.56749">
        <ele>20.897583</ele>
        <time>2020-08-28T19:21:44.058Z</time>
      </trkpt>
      <trkpt lat="63.90976" lon="20.56623">
        <ele>20.685769</ele>
        <time>2020-08-28T19:21:52.841Z</time>
      </trkpt>
      <trkpt lat="63.90979" lon="20.56573">
        <ele>20.601535</ele>
        <time>2020-08-28T19:21:56.194Z</time>
      </trkpt>
      <trkpt lat="63.90992" lon="20.56334">
        <ele>19.712447</ele>
        <time>2020-08-28T19:22:11.099Z</time>
      </trkpt>
      <trkpt lat="63.90988" lon="20.56293">
        <ele>19.544418</ele>
        <time>2020-08-28T19:22:13.890Z</time>
      </trkpt>
      <trkpt lat="63.90986" lon="20.56271">
        <ele>19.454724</ele>
        <time>2020-08-28T19:22:15.805Z</time>
      </trkpt>
      <trkpt lat="63.90977" lon="20.56182">
        <ele>19.090863</ele>
        <time>2020-08-28T19:22:23.027Z</time>
      </trkpt>
      <trkpt lat="63.90975" lon="20.56142">
        <ele>18.926858</ele>
        <time>2020-08-28T19:22:26.231Z</time>
      </trkpt>
      <trkpt lat="63.90973" lon="20.56113">
        <ele>18.984625</ele>
        <time>2020-08-28T19:22:29.162Z</time>
      </trkpt>
      <trkpt lat="63.90956" lon="20.56025">
        <ele>19.293832</ele>
        <time>2020-08-28T19:22:37.727Z</time>
      </trkpt>
      <trkpt lat="63.90939" lon="20.55977">
        <ele>19.492241</ele>
        <time>2020-08-28T19:22:43.314Z</time>
      </trkpt>
      <trkpt lat="63.90922" lon="20.55954">
        <ele>19.638258</ele>
        <time>2020-08-28T19:22:47.537Z</time>
      </trkpt>
      <trkpt lat="63.90888" lon="20.55937">
        <ele>19.892099</ele>
        <time>2020-08-28T19:22:54.856Z</time>
      </trkpt>
      <trkpt lat="63.90843" lon="20.55919">
        <ele>20.228085</ele>
        <time>2020-08-28T19:23:04.316Z</time>
      </trkpt>
      <trkpt lat="63.90827" lon="20.55911">
        <ele>20.231629</ele>
        <time>2020-08-28T19:23:07.373Z</time>
      </trkpt>
      <trkpt lat="63.90757" lon="20.55864">
        <ele>20.247348</ele>
        <time>2020-08-28T19:23:20.819Z</time>
      </trkpt>
      <trkpt lat="63.90695" lon="20.55821">
        <ele>20.261317</ele>
        <time>2020-08-28T19:23:32.138Z</time>
      </trkpt>
      <trkpt lat="63.90679" lon="20.55812">
        <ele>20.264954</ele>
        <time>2020-08-28T19:23:34.947Z</time>
      </trkpt>
      <trkpt lat="63.90634" lon="20.55799">
        <ele>19.863983</ele>
        <time>2020-08-28T19:23:42.273Z</time>
      </trkpt>
      <trkpt lat="63.90585" lon="20.55798">
        <ele>19.324174</ele>
        <time>2020-08-28T19:23:49.893Z</time>
      </trkpt>
      <trkpt lat="63.90527" lon="20.55799">
        <ele>18.686329</ele>
        <time>2020-08-28T19:23:58.555Z</time>
      </trkpt>
      <trkpt lat="63.90508" lon="20.55801">
        <ele>18.47794</ele>
        <time>2020-08-28T19:24:01.270Z</time>
      </trkpt>
      <trkpt lat="63.90487" lon="20.55799">
        <ele>18.231288</ele>
        <time>2020-08-28T19:24:04.374Z</time>
      </trkpt>
      <trkpt lat="63.90449" lon="20.55797">
        <ele>17.645455</ele>
        <time>2020-08-28T19:24:09.936Z</time>
      </trkpt>
      <trkpt lat="63.9043" lon="20.55789">
        <ele>17.341689</ele>
        <time>2020-08-28T19:24:12.730Z</time>
      </trkpt>
      <trkpt lat="63.90415" lon="20.5578">
        <ele>17.116753</ele>
        <time>2020-08-28T19:24:14.957Z</time>
      </trkpt>
      <trkpt lat="63.90389" lon="20.55762">
        <ele>16.69198</ele>
        <time>2020-08-28T19:24:18.976Z</time>
      </trkpt>
      <trkpt lat="63.90376" lon="20.55753">
        <ele>16.48577</ele>
        <time>2020-08-28T19:24:20.975Z</time>
      </trkpt>
      <trkpt lat="63.90367" lon="20.55747">
        <ele>16.344557</ele>
        <time>2020-08-28T19:24:22.286Z</time>
      </trkpt>
      <trkpt lat="63.9031" lon="20.55734">
        <ele>15.470376</ele>
        <time>2020-08-28T19:24:30.961Z</time>
      </trkpt>
      <trkpt lat="63.90296" lon="20.55736">
        <ele>15.279169</ele>
        <time>2020-08-28T19:24:32.886Z</time>
      </trkpt>
      <trkpt lat="63.90249" lon="20.55749">
        <ele>14.620153</ele>
        <time>2020-08-28T19:24:39.935Z</time>
      </trkpt>
      <trkpt lat="63.90231" lon="20.55753">
        <ele>14.364028</ele>
        <time>2020-08-28T19:24:42.752Z</time>
      </trkpt>
      <trkpt lat="63.90209" lon="20.55758">
        <ele>14.061365</ele>
        <time>2020-08-28T19:24:45.958Z</time>
      </trkpt>
      <trkpt lat="63.90193" lon="20.55762">
        <ele>13.824758</ele>
        <time>2020-08-28T19:24:48.574Z</time>
      </trkpt>
      <trkpt lat="63.90193" lon="20.5575">
        <ele>13.747561</ele>
        <time>2020-08-28T19:24:49.296Z</time>
      </trkpt>
      <trkpt lat="63.90184" lon="20.55734">
        <ele>13.598756</ele>
        <time>2020-08-28T19:24:50.903Z</time>
      </trkpt>
      <trkpt lat="63.90181" lon="20.55699">
        <ele>13.381185</ele>
        <time>2020-08-28T19:24:53.305Z</time>
      </trkpt>
      <trkpt lat="63.9018" lon="20.55611">
        <ele>12.846474</ele>
        <time>2020-08-28T19:24:59.093Z</time>
      </trkpt>
      <trkpt lat="63.90176" lon="20.5561">
        <ele>12.789041</ele>
        <time>2020-08-28T19:24:59.668Z</time>
      </trkpt>
      <trkpt lat="63.90175" lon="20.55537">
        <ele>12.359985</ele>
        <time>2020-08-28T19:25:04.492Z</time>
      </trkpt>
      <trkpt lat="63.90174" lon="20.55455">
        <ele>11.878068</ele>
        <time>2020-08-28T19:25:09.780Z</time>
      </trkpt>
      <trkpt lat="63.90174" lon="20.55424">
        <ele>11.694355</ele>
        <time>2020-08-28T19:25:11.682Z</time>
      </trkpt>
      <trkpt lat="63.90173" lon="20.554">
        <ele>11.552032</ele>
        <time>2020-08-28T19:25:13.283Z</time>
      </trkpt>
      <trkpt lat="63.90161" lon="20.55324">
        <ele>11.079607</ele>
        <time>2020-08-28T19:25:18.612Z</time>
      </trkpt>
      <trkpt lat="63.90137" lon="20.55245">
        <ele>10.598628</ele>
        <time>2020-08-28T19:25:25.206Z</time>
      </trkpt>
      <trkpt lat="63.90124" lon="20.55214">
        <ele>10.537992</ele>
        <time>2020-08-28T19:25:28.222Z</time>
      </trkpt>
      <trkpt lat="63.90107" lon="20.55179">
        <ele>10.465419</ele>
        <time>2020-08-28T19:25:32.023Z</time>
      </trkpt>
      <trkpt lat="63.90093" lon="20.55148">
        <ele>10.403452</ele>
        <time>2020-08-28T19:25:35.217Z</time>
      </trkpt>
      <trkpt lat="63.90081" lon="20.55122">
        <ele>10.349703</ele>
        <time>2020-08-28T19:25:38.174Z</time>
      </trkpt>
      <trkpt lat="63.90065" lon="20.55085">
        <ele>10.277183</ele>
        <time>2020-08-28T19:25:42.197Z</time>
      </trkpt>
      <trkpt lat="63.90057" lon="20.55103">
        <ele>10.240786</ele>
        <time>2020-08-28T19:25:44.228Z</time>
      </trkpt>
      <trkpt lat="63.90043" lon="20.55115">
        <ele>10.193441</ele>
        <time>2020-08-28T19:25:46.853Z</time>
      </trkpt>
      <trkpt lat="63.90026" lon="20.55113">
        <ele>10.139284</ele>
        <time>2020-08-28T19:25:49.890Z</time>
      </trkpt>
      <trkpt lat="63.89977" lon="20.55102">
        <ele>10.056923</ele>
        <time>2020-08-28T19:25:58.616Z</time>
      </trkpt>
      <trkpt lat="63.89952" lon="20.5509">
        <ele>10.062594</ele>
        <time>2020-08-28T19:26:03.198Z</time>
      </trkpt>
      <trkpt lat="63.89883" lon="20.5503">
        <ele>10.079217</ele>
        <time>2020-08-28T19:26:16.542Z</time>
      </trkpt>
      <trkpt lat="63.89779" lon="20.54871">
        <ele>10.182167</ele>
        <time>2020-08-28T19:26:38.811Z</time>
      </trkpt>
      <trkpt lat="63.89776" lon="20.54863">
        <ele>10.188055</ele>
        <time>2020-08-28T19:26:39.552Z</time>
      </trkpt>
      <trkpt lat="63.89761" lon="20.54817">
        <ele>10.222369</ele>
        <time>2020-08-28T19:26:44.111Z</time>
      </trkpt>
      <trkpt lat="63.89751" lon="20.54783">
        <ele>10.246779</ele>
        <time>2020-08-28T19:26:47.328Z</time>
      </trkpt>
      <trkpt lat="63.89692" lon="20.54576">
        <ele>10.729412</ele>
        <time>2020-08-28T19:27:08.012Z</time>
      </trkpt>
      <trkpt lat="63.89658" lon="20.54444">
        <ele>11.349739</ele>
        <time>2020-08-28T19:27:21.688Z</time>
      </trkpt>
      <trkpt lat="63.89652" lon="20.54417">
        <ele>11.471931</ele>
        <time>2020-08-28T19:27:24.720Z</time>
      </trkpt>
      <trkpt lat="63.89637" lon="20.54339">
        <ele>11.817001</ele>
        <time>2020-08-28T19:27:33.008Z</time>
      </trkpt>
      <trkpt lat="63.89603" lon="20.54362">
        <ele>12.1703</ele>
        <time>2020-08-28T19:27:40.755Z</time>
      </trkpt>
      <trkpt lat="63.89548" lon="20.54384">
        <ele>12.810281</ele>
        <time>2020-08-28T19:27:53.353Z</time>
      </trkpt>
      <trkpt lat="63.89532" lon="20.54385">
        <ele>12.998118</ele>
        <time>2020-08-28T19:27:57.193Z</time>
      </trkpt>
      <trkpt lat="63.89509" lon="20.5438">
        <ele>13.256507</ele>
        <time>2020-08-28T19:28:02.197Z</time>
      </trkpt>
      <trkpt lat="63.89404" lon="20.54329">
        <ele>14.052428</ele>
        <time>2020-08-28T19:28:24.131Z</time>
      </trkpt>
      <trkpt lat="63.89168" lon="20.54137">
        <ele>13.640783</ele>
        <time>2020-08-28T19:29:07.215Z</time>
      </trkpt>
      <trkpt lat="63.89155" lon="20.54128">
        <ele>13.582637</ele>
        <time>2020-08-28T19:29:09.283Z</time>
      </trkpt>
      <trkpt lat="63.89088" lon="20.54079">
        <ele>13.243523</ele>
        <time>2020-08-28T19:29:20.551Z</time>
      </trkpt>
      <trkpt lat="63.88919" lon="20.53958">
        <ele>12.07707</ele>
        <time>2020-08-28T19:29:48.978Z</time>
      </trkpt>
      <trkpt lat="63.88744" lon="20.53892">
        <ele>11.343423</ele>
        <time>2020-08-28T19:30:18.607Z</time>
      </trkpt>
      <trkpt lat="63.88576" lon="20.5375">
        <ele>10.88331</ele>
        <time>2020-08-28T19:30:49.587Z</time>
      </trkpt>
      <trkpt lat="63.88529" lon="20.53732">
        <ele>10.744075</ele>
        <time>2020-08-28T19:30:57.709Z</time>
      </trkpt>
      <trkpt lat="63.88518" lon="20.53729">
        <ele>10.712244</ele>
        <time>2020-08-28T19:30:59.543Z</time>
      </trkpt>
      <trkpt lat="63.88489" lon="20.53723">
        <ele>10.627536</ele>
        <time>2020-08-28T19:31:04.457Z</time>
      </trkpt>
      <trkpt lat="63.8846" lon="20.53717">
        <ele>10.542699</ele>
        <time>2020-08-28T19:31:09.535Z</time>
      </trkpt>
      <trkpt lat="63.88455" lon="20.53705">
        <ele>10.522569</ele>
        <time>2020-08-28T19:31:10.603Z</time>
      </trkpt>
      <trkpt lat="63.8845" lon="20.53686">
        <ele>10.495441</ele>
        <time>2020-08-28T19:31:12.273Z</time>
      </trkpt>
      <trkpt lat="63.88447" lon="20.53669">
        <ele>10.469941</ele>
        <time>2020-08-28T19:31:13.843Z</time>
      </trkpt>
      <trkpt lat="63.88425" lon="20.53698">
        <ele>10.397584</ele>
        <time>2020-08-28T19:31:17.977Z</time>
      </trkpt>
      <trkpt lat="63.88369" lon="20.53727">
        <ele>10.284681</ele>
        <time>2020-08-28T19:31:27.746Z</time>
      </trkpt>
      <trkpt lat="63.88221" lon="20.53716">
        <ele>10.045338</ele>
        <time>2020-08-28T19:31:53.575Z</time>
      </trkpt>
      <trkpt lat="63.88164" lon="20.53738">
        <ele>10.041651</ele>
        <time>2020-08-28T19:32:03.719Z</time>
      </trkpt>
      <trkpt lat="63.88123" lon="20.53781">
        <ele>10.038706</ele>
        <time>2020-08-28T19:32:11.876Z</time>
      </trkpt>
      <trkpt lat="63.88084" lon="20.53857">
        <ele>10.035403</ele>
        <time>2020-08-28T19:32:21.114Z</time>
      </trkpt>
      <trkpt lat="63.88034" lon="20.53935">
        <ele>10.085593</ele>
        <time>2020-08-28T19:32:32.109Z</time>
      </trkpt>
      <trkpt lat="63.87994" lon="20.53967">
        <ele>10.122362</ele>
        <time>2020-08-28T19:32:39.692Z</time>
      </trkpt>
      <trkpt lat="63.87963" lon="20.53977">
        <ele>10.150401</ele>
        <time>2020-08-28T19:32:45.498Z</time>
      </trkpt>
      <trkpt lat="63.87676" lon="20.53967">
        <ele>10.478505</ele>
        <time>2020-08-28T19:33:38.118Z</time>
      </trkpt>
      <trkpt lat="63.8751" lon="20.53988">
        <ele>10.391868</ele>
        <time>2020-08-28T19:34:07.200Z</time>
      </trkpt>
      <trkpt lat="63.87499" lon="20.5399">
        <ele>10.376578</ele>
        <time>2020-08-28T19:34:09.090Z</time>
      </trkpt>
      <trkpt lat="63.87417" lon="20.54">
        <ele>10.264492</ele>
        <time>2020-08-28T19:34:23.343Z</time>
      </trkpt>
      <trkpt lat="63.86849" lon="20.54077">
        <ele>10.106481</ele>
        <time>2020-08-28T19:36:04.204Z</time>
      </trkpt>
      <trkpt lat="63.86763" lon="20.54105">
        <ele>10.210824</ele>
        <time>2020-08-28T19:36:20.004Z</time>
      </trkpt>
      <trkpt lat="63.8661" lon="20.54191">
        <ele>10.489777</ele>
        <time>2020-08-28T19:36:49.221Z</time>
      </trkpt>
      <trkpt lat="63.86594" lon="20.542">
        <ele>10.529374</ele>
        <time>2020-08-28T19:36:52.255Z</time>
      </trkpt>
      <trkpt lat="63.86498" lon="20.54255">
        <ele>10.772044</ele>
        <time>2020-08-28T19:37:10.703Z</time>
      </trkpt>
      <trkpt lat="63.86288" lon="20.54381">
        <ele>11.068499</ele>
        <time>2020-08-28T19:37:50.861Z</time>
      </trkpt>
      <trkpt lat="63.86277" lon="20.54386">
        <ele>11.047846</ele>
        <time>2020-08-28T19:37:52.775Z</time>
      </trkpt>
      <trkpt lat="63.86264" lon="20.54392">
        <ele>11.023196</ele>
        <time>2020-08-28T19:37:55.142Z</time>
      </trkpt>
      <trkpt lat="63.86241" lon="20.54395">
        <ele>10.980084</ele>
        <time>2020-08-28T19:37:59.108Z</time>
      </trkpt>
      <trkpt lat="63.86202" lon="20.54392">
        <ele>10.907399</ele>
        <time>2020-08-28T19:38:05.841Z</time>
      </trkpt>
      <trkpt lat="63.86103" lon="20.5437">
        <ele>10.661535</ele>
        <time>2020-08-28T19:38:22.732Z</time>
      </trkpt>
      <trkpt lat="63.86035" lon="20.54354">
        <ele>10.402963</ele>
        <time>2020-08-28T19:38:34.021Z</time>
      </trkpt>
      <trkpt lat="63.85944" lon="20.54336">
        <ele>10.076664</ele>
        <time>2020-08-28T19:38:49.165Z</time>
      </trkpt>
      <trkpt lat="63.85874" lon="20.5432">
        <ele>9.933951</ele>
        <time>2020-08-28T19:39:01.223Z</time>
      </trkpt>
      <trkpt lat="63.85801" lon="20.54277">
        <ele>9.780305</ele>
        <time>2020-08-28T19:39:14.350Z</time>
      </trkpt>
      <trkpt lat="63.85689" lon="20.54158">
        <ele>9.671828</ele>
        <time>2020-08-28T19:39:36.166Z</time>
      </trkpt>
      <trkpt lat="63.85603" lon="20.54034">
        <ele>9.597392</ele>
        <time>2020-08-28T19:39:54.088Z</time>
      </trkpt>
      <trkpt lat="63.85496" lon="20.53876">
        <ele>9.44112</ele>
        <time>2020-08-28T19:40:16.568Z</time>
      </trkpt>
      <trkpt lat="63.85398" lon="20.53734">
        <ele>9.266069</ele>
        <time>2020-08-28T19:40:36.577Z</time>
      </trkpt>
      <trkpt lat="63.85326" lon="20.53628">
        <ele>9.128913</ele>
        <time>2020-08-28T19:40:51.404Z</time>
      </trkpt>
      <trkpt lat="63.853" lon="20.53589">
        <ele>9.103318</ele>
        <time>2020-08-28T19:40:57.005Z</time>
      </trkpt>
      <trkpt lat="63.85137" lon="20.53347">
        <ele>9.020974</ele>
        <time>2020-08-28T19:41:31.465Z</time>
      </trkpt>
      <trkpt lat="63.85102" lon="20.53281">
        <ele>9.017998</ele>
        <time>2020-08-28T19:41:39.616Z</time>
      </trkpt>
      <trkpt lat="63.84838" lon="20.52692">
        <ele>9.109687</ele>
        <time>2020-08-28T19:42:45.661Z</time>
      </trkpt>
      <trkpt lat="63.84742" lon="20.52473">
        <ele>9.577875</ele>
        <time>2020-08-28T19:43:11.082Z</time>
      </trkpt>
      <trkpt lat="63.84738" lon="20.52466">
        <ele>9.609823</ele>
        <time>2020-08-28T19:43:11.929Z</time>
      </trkpt>
      <trkpt lat="63.84637" lon="20.52237">
        <ele>10.763063</ele>
        <time>2020-08-28T19:43:41.348Z</time>
      </trkpt>
      <trkpt lat="63.8456" lon="20.52063">
        <ele>12.232733</ele>
        <time>2020-08-28T19:44:05.780Z</time>
      </trkpt>
      <trkpt lat="63.84518" lon="20.51944">
        <ele>13.072077</ele>
        <time>2020-08-28T19:44:21.043Z</time>
      </trkpt>
      <trkpt lat="63.84497" lon="20.5186">
        <ele>13.430774</ele>
        <time>2020-08-28T19:44:30.639Z</time>
      </trkpt>
      <trkpt lat="63.84447" lon="20.51573">
        <ele>14.41658</ele>
        <time>2020-08-28T19:44:57.793Z</time>
      </trkpt>
      <trkpt lat="63.84405" lon="20.51364">
        <ele>14.123994</ele>
        <time>2020-08-28T19:45:15.050Z</time>
      </trkpt>
      <trkpt lat="63.84099" lon="20.50195">
        <ele>10.060027</ele>
        <time>2020-08-28T19:46:51.362Z</time>
      </trkpt>
      <trkpt lat="63.84051" lon="20.5001">
        <ele>8.766971</ele>
        <time>2020-08-28T19:47:05.607Z</time>
      </trkpt>
      <trkpt lat="63.84" lon="20.49811">
        <ele>7.320825</ele>
        <time>2020-08-28T19:47:20.330Z</time>
      </trkpt>
      <trkpt lat="63.83898" lon="20.49424">
        <ele>4.490275</ele>
        <time>2020-08-28T19:47:49.219Z</time>
      </trkpt>
      <trkpt lat="63.83874" lon="20.49315">
        <ele>4.175538</ele>
        <time>2020-08-28T19:47:57.861Z</time>
      </trkpt>
      <trkpt lat="63.83858" lon="20.49223">
        <ele>3.922698</ele>
        <time>2020-08-28T19:48:05.150Z</time>
      </trkpt>
      <trkpt lat="63.83839" lon="20.49043">
        <ele>3.671483</ele>
        <time>2020-08-28T19:48:20.018Z</time>
      </trkpt>
      <trkpt lat="63.83823" lon="20.48863">
        <ele>3.837045</ele>
        <time>2020-08-28T19:48:35.309Z</time>
      </trkpt>
      <trkpt lat="63.83819" lon="20.48833">
        <ele>3.866064</ele>
        <time>2020-08-28T19:48:38.017Z</time>
      </trkpt>
      <trkpt lat="63.83768" lon="20.48544">
        <ele>3.98519</ele>
        <time>2020-08-28T19:49:02.950Z</time>
      </trkpt>
      <trkpt lat="63.83759" lon="20.48494">
        <ele>3.98623</ele>
        <time>2020-08-28T19:49:06.992Z</time>
      </trkpt>
      <trkpt lat="63.83742" lon="20.48407">
        <ele>3.988085</ele>
        <time>2020-08-28T19:49:14.214Z</time>
      </trkpt>
      <trkpt lat="63.83732" lon="20.4835">
        <ele>3.989261</ele>
        <time>2020-08-28T19:49:18.928Z</time>
      </trkpt>
      <trkpt lat="63.83711" lon="20.48228">
        <ele>4.508931</ele>
        <time>2020-08-28T19:49:29.643Z</time>
      </trkpt>
      <trkpt lat="63.83696" lon="20.4814">
        <ele>4.930446</ele>
        <time>2020-08-28T19:49:38.064Z</time>
      </trkpt>
      <trkpt lat="63.83687" lon="20.48097">
        <ele>5.139906</ele>
        <time>2020-08-28T19:49:42.607Z</time>
      </trkpt>
      <trkpt lat="63.83681" lon="20.4807">
        <ele>5.278246</ele>
        <time>2020-08-28T19:49:45.568Z</time>
      </trkpt>
      <trkpt lat="63.83675" lon="20.4805">
        <ele>5.38412</ele>
        <time>2020-08-28T19:49:48.027Z</time>
      </trkpt>
      <trkpt lat="63.83664" lon="20.47995">
        <ele>5.654802</ele>
        <time>2020-08-28T19:49:54.142Z</time>
      </trkpt>
      <trkpt lat="63.83639" lon="20.47868">
        <ele>7.029289</ele>
        <time>2020-08-28T19:50:09.480Z</time>
      </trkpt>
      <trkpt lat="63.83613" lon="20.47756">
        <ele>8.502501</ele>
        <time>2020-08-28T19:50:24.744Z</time>
      </trkpt>
      <trkpt lat="63.83572" lon="20.47611">
        <ele>10.493936</ele>
        <time>2020-08-28T19:50:45.383Z</time>
      </trkpt>
      <trkpt lat="63.83559" lon="20.47564">
        <ele>11.00432</ele>
        <time>2020-08-28T19:50:52.065Z</time>
      </trkpt>
      <trkpt lat="63.83533" lon="20.47479">
        <ele>11.91193</ele>
        <time>2020-08-28T19:51:03.924Z</time>
      </trkpt>
      <trkpt lat="63.83445" lon="20.47214">
        <ele>14.381591</ele>
        <time>2020-08-28T19:51:37.574Z</time>
      </trkpt>
      <trkpt lat="63.83436" lon="20.47191">
        <ele>14.474793</ele>
        <time>2020-08-28T19:51:40.196Z</time>
      </trkpt>
      <trkpt lat="63.83335" lon="20.46904">
        <ele>15.561721</ele>
        <time>2020-08-28T19:52:11.261Z</time>
      </trkpt>
      <trkpt lat="63.83249" lon="20.46688">
        <ele>16.255619</ele>
        <time>2020-08-28T19:52:36.159Z</time>
      </trkpt>
      <trkpt lat="63.83103" lon="20.46354">
        <ele>18.213008</ele>
        <time>2020-08-28T19:53:19.290Z</time>
      </trkpt>
      <trkpt lat="63.82944" lon="20.46104">
        <ele>21.274916</ele>
        <time>2020-08-28T19:54:02.494Z</time>
      </trkpt>
      <trkpt lat="63.82837" lon="20.45969">
        <ele>24.784476</ele>
        <time>2020-08-28T19:54:35.348Z</time>
      </trkpt>
      <trkpt lat="63.82771" lon="20.45906">
        <ele>27.25063</ele>
        <time>2020-08-28T19:54:57.407Z</time>
      </trkpt>
      <trkpt lat="63.82749" lon="20.45884">
        <ele>28.213135</ele>
        <time>2020-08-28T19:55:05.085Z</time>
      </trkpt>
      <trkpt lat="63.82749" lon="20.45884">
        <ele>28.213135</ele>
        <time>2020-08-28T19:55:05.131Z</time>
      </trkpt>
      <trkpt lat="63.82737" lon="20.45872">
        <ele>28.75194</ele>
        <time>2020-08-28T19:55:09.024Z</time>
      </trkpt>
      <trkpt lat="63.82583" lon="20.45714">
        <ele>34.838801</ele>
        <time>2020-08-28T19:56:01.899Z</time>
      </trkpt>
      <trkpt lat="63.82525" lon="20.45652">
        <ele>36.54649</ele>
        <time>2020-08-28T19:56:18.630Z</time>
      </trkpt>
      <trkpt lat="63.82354" lon="20.45453">
        <ele>39.439039</ele>
        <time>2020-08-28T19:57:00.179Z</time>
      </trkpt>
      <trkpt lat="63.82334" lon="20.45424">
        <ele>39.687546</ele>
        <time>2020-08-28T19:57:04.908Z</time>
      </trkpt>
      <trkpt lat="63.82157" lon="20.4517">
        <ele>40.437908</ele>
        <time>2020-08-28T19:57:44.884Z</time>
      </trkpt>
      <trkpt lat="63.82035" lon="20.4494">
        <ele>39.374109</ele>
        <time>2020-08-28T19:58:11.064Z</time>
      </trkpt>
      <trkpt lat="63.81965" lon="20.44781">
        <ele>36.380243</ele>
        <time>2020-08-28T19:58:24.622Z</time>
      </trkpt>
      <trkpt lat="63.81839" lon="20.44445">
        <ele>28.807775</ele>
        <time>2020-08-28T19:58:48.595Z</time>
      </trkpt>
      <trkpt lat="63.81758" lon="20.44145">
        <ele>22.652802</ele>
        <time>2020-08-28T19:59:07.984Z</time>
      </trkpt>
      <trkpt lat="63.81721" lon="20.43974">
        <ele>19.740588</ele>
        <time>2020-08-28T19:59:19.020Z</time>
      </trkpt>
      <trkpt lat="63.81694" lon="20.43831">
        <ele>18.149632</ele>
        <time>2020-08-28T19:59:28.461Z</time>
      </trkpt>
      <trkpt lat="63.81637" lon="20.43427">
        <ele>14.815849</ele>
        <time>2020-08-28T19:59:55.679Z</time>
      </trkpt>
      <trkpt lat="63.81629" lon="20.43352">
        <ele>14.321908</ele>
        <time>2020-08-28T20:00:00.670Z</time>
      </trkpt>
      <trkpt lat="63.81622" lon="20.43294">
        <ele>13.935156</ele>
        <time>2020-08-28T20:00:04.579Z</time>
      </trkpt>
      <trkpt lat="63.81605" lon="20.4311">
        <ele>12.83367</ele>
        <time>2020-08-28T20:00:16.966Z</time>
      </trkpt>
      <trkpt lat="63.81589" lon="20.42769">
        <ele>11.436366</ele>
        <time>2020-08-28T20:00:40.555Z</time>
      </trkpt>
      <trkpt lat="63.81584" lon="20.42637">
        <ele>11.496766</ele>
        <time>2020-08-28T20:00:50.714Z</time>
      </trkpt>
      <trkpt lat="63.81584" lon="20.42503">
        <ele>11.638889</ele>
        <time>2020-08-28T20:01:02.117Z</time>
      </trkpt>
      <trkpt lat="63.81584" lon="20.42348">
        <ele>11.802919</ele>
        <time>2020-08-28T20:01:15.545Z</time>
      </trkpt>
      <trkpt lat="63.81583" lon="20.42238">
        <ele>11.876927</ele>
        <time>2020-08-28T20:01:25.411Z</time>
      </trkpt>
      <trkpt lat="63.8154" lon="20.42221">
        <ele>11.943779</ele>
        <time>2020-08-28T20:01:33.847Z</time>
      </trkpt>
      <trkpt lat="63.81434" lon="20.42182">
        <ele>11.957419</ele>
        <time>2020-08-28T20:01:52.374Z</time>
      </trkpt>
      <trkpt lat="63.8141" lon="20.42171">
        <ele>11.803875</ele>
        <time>2020-08-28T20:01:56.275Z</time>
      </trkpt>
      <trkpt lat="63.81376" lon="20.42166">
        <ele>11.589079</ele>
        <time>2020-08-28T20:02:01.741Z</time>
      </trkpt>
      <trkpt lat="63.81347" lon="20.42173">
        <ele>11.40258</ele>
        <time>2020-08-28T20:02:06.438Z</time>
      </trkpt>
      <trkpt lat="63.81263" lon="20.42224">
        <ele>10.878382</ele>
        <time>2020-08-28T20:02:20.293Z</time>
      </trkpt>
      <trkpt lat="63.81217" lon="20.42232">
        <ele>10.67157</ele>
        <time>2020-08-28T20:02:27.796Z</time>
      </trkpt>
      <trkpt lat="63.81196" lon="20.42225">
        <ele>10.57878</ele>
        <time>2020-08-28T20:02:31.162Z</time>
      </trkpt>
      <trkpt lat="63.81187" lon="20.42219">
        <ele>10.534236</ele>
        <time>2020-08-28T20:02:32.830Z</time>
      </trkpt>
      <trkpt lat="63.81147" lon="20.42183">
        <ele>10.342863</ele>
        <time>2020-08-28T20:02:39.980Z</time>
      </trkpt>
      <trkpt lat="63.81101" lon="20.42097">
        <ele>10.123138</ele>
        <time>2020-08-28T20:02:50.248Z</time>
      </trkpt>
      <trkpt lat="63.81077" lon="20.42034">
        <ele>10.096008</ele>
        <time>2020-08-28T20:02:56.590Z</time>
      </trkpt>
      <trkpt lat="63.81061" lon="20.41964">
        <ele>10.070232</ele>
        <time>2020-08-28T20:03:02.789Z</time>
      </trkpt>
      <trkpt lat="63.81055" lon="20.41914">
        <ele>10.053474</ele>
        <time>2020-08-28T20:03:06.823Z</time>
      </trkpt>
      <trkpt lat="63.81052" lon="20.41875">
        <ele>10.040297</ele>
        <time>2020-08-28T20:03:09.994Z</time>
      </trkpt>
      <trkpt lat="63.81051" lon="20.41733">
        <ele>9.992229</ele>
        <time>2020-08-28T20:03:21.139Z</time>
      </trkpt>
      <trkpt lat="63.81057" lon="20.4144">
        <ele>9.868258</ele>
        <time>2020-08-28T20:03:44.176Z</time>
      </trkpt>
      <trkpt lat="63.81014" lon="20.41003">
        <ele>9.177055</ele>
        <time>2020-08-28T20:04:17.551Z</time>
      </trkpt>
      <trkpt lat="63.81009" lon="20.40938">
        <ele>9.037892</ele>
        <time>2020-08-28T20:04:22.400Z</time>
      </trkpt>
      <trkpt lat="63.81009" lon="20.40917">
        <ele>8.972089</ele>
        <time>2020-08-28T20:04:23.727Z</time>
      </trkpt>
      <trkpt lat="63.81014" lon="20.40846">
        <ele>8.73737</ele>
        <time>2020-08-28T20:04:28.872Z</time>
      </trkpt>
      <trkpt lat="63.81034" lon="20.40748">
        <ele>8.388939</ele>
        <time>2020-08-28T20:04:36.337Z</time>
      </trkpt>
      <trkpt lat="63.81055" lon="20.40693">
        <ele>8.154153</ele>
        <time>2020-08-28T20:04:41.342Z</time>
      </trkpt>
      <trkpt lat="63.81116" lon="20.40573">
        <ele>7.711652</ele>
        <time>2020-08-28T20:04:54.279Z</time>
      </trkpt>
      <trkpt lat="63.81175" lon="20.40478">
        <ele>7.594163</ele>
        <time>2020-08-28T20:05:06.529Z</time>
      </trkpt>
      <trkpt lat="63.81201" lon="20.40434">
        <ele>7.542939</ele>
        <time>2020-08-28T20:05:11.968Z</time>
      </trkpt>
      <trkpt lat="63.8122" lon="20.40397">
        <ele>7.502755</ele>
        <time>2020-08-28T20:05:16.403Z</time>
      </trkpt>
      <trkpt lat="63.81227" lon="20.40376">
        <ele>7.483001</ele>
        <time>2020-08-28T20:05:18.677Z</time>
      </trkpt>
      <trkpt lat="63.81238" lon="20.40315">
        <ele>7.864264</ele>
        <time>2020-08-28T20:05:24.221Z</time>
      </trkpt>
      <trkpt lat="63.81239" lon="20.40262">
        <ele>8.428618</ele>
        <time>2020-08-28T20:05:28.966Z</time>
      </trkpt>
      <trkpt lat="63.81238" lon="20.40233">
        <ele>8.739923</ele>
        <time>2020-08-28T20:05:31.902Z</time>
      </trkpt>
      <trkpt lat="63.81227" lon="20.40112">
        <ele>10.05546</ele>
        <time>2020-08-28T20:05:45.494Z</time>
      </trkpt>
      <trkpt lat="63.81211" lon="20.3994">
        <ele>12.02567</ele>
        <time>2020-08-28T20:06:08.531Z</time>
      </trkpt>
      <trkpt lat="63.81183" lon="20.39695">
        <ele>16.693364</ele>
        <time>2020-08-28T20:06:45.184Z</time>
      </trkpt>
      <trkpt lat="63.81131" lon="20.39288">
        <ele>23.117023</ele>
        <time>2020-08-28T20:07:41.027Z</time>
      </trkpt>
      <trkpt lat="63.81124" lon="20.3924">
        <ele>23.797169</ele>
        <time>2020-08-28T20:07:46.374Z</time>
      </trkpt>
      <trkpt lat="63.81118" lon="20.39181">
        <ele>24.608422</ele>
        <time>2020-08-28T20:07:52.506Z</time>
      </trkpt>
      <trkpt lat="63.81117" lon="20.39104">
        <ele>25.072816</ele>
        <time>2020-08-28T20:08:00.175Z</time>
      </trkpt>
      <trkpt lat="63.8112" lon="20.39064">
        <ele>25.241571</ele>
        <time>2020-08-28T20:08:04.259Z</time>
      </trkpt>
      <trkpt lat="63.81125" lon="20.39038">
        <ele>25.355567</ele>
        <time>2020-08-28T20:08:06.718Z</time>
      </trkpt>
      <trkpt lat="63.81142" lon="20.38987">
        <ele>25.622268</ele>
        <time>2020-08-28T20:08:12.770Z</time>
      </trkpt>
      <trkpt lat="63.81148" lon="20.38976">
        <ele>25.694913</ele>
        <time>2020-08-28T20:08:14.238Z</time>
      </trkpt>
      <trkpt lat="63.81119" lon="20.38863">
        <ele>26.235301</ele>
        <time>2020-08-28T20:08:26.145Z</time>
      </trkpt>
      <trkpt lat="63.81038" lon="20.38496">
        <ele>27.052941</ele>
        <time>2020-08-28T20:09:02.309Z</time>
      </trkpt>
      <trkpt lat="63.8102" lon="20.38392">
        <ele>27.116245</ele>
        <time>2020-08-28T20:09:11.720Z</time>
      </trkpt>
      <trkpt lat="63.81002" lon="20.38272">
        <ele>27.026547</ele>
        <time>2020-08-28T20:09:22.150Z</time>
      </trkpt>
      <trkpt lat="63.80997" lon="20.38238">
        <ele>27.001617</ele>
        <time>2020-08-28T20:09:25.017Z</time>
      </trkpt>
      <trkpt lat="63.80983" lon="20.38138">
        <ele>26.927468</ele>
        <time>2020-08-28T20:09:33.381Z</time>
      </trkpt>
      <trkpt lat="63.80952" lon="20.37932">
        <ele>26.497585</ele>
        <time>2020-08-28T20:09:49.862Z</time>
      </trkpt>
      <trkpt lat="63.80933" lon="20.37767">
        <ele>26.012337</ele>
        <time>2020-08-28T20:10:02.288Z</time>
      </trkpt>
      <trkpt lat="63.80924" lon="20.37675">
        <ele>25.742399</ele>
        <time>2020-08-28T20:10:09.269Z</time>
      </trkpt>
      <trkpt lat="63.80908" lon="20.37527">
        <ele>25.503352</ele>
        <time>2020-08-28T20:10:20.691Z</time>
      </trkpt>
      <trkpt lat="63.80856" lon="20.37108">
        <ele>25.315611</ele>
        <time>2020-08-28T20:10:55.642Z</time>
      </trkpt>
      <trkpt lat="63.80841" lon="20.37033">
        <ele>25.412155</ele>
        <time>2020-08-28T20:11:02.818Z</time>
      </trkpt>
      <trkpt lat="63.80812" lon="20.36947">
        <ele>25.54033</ele>
        <time>2020-08-28T20:11:12.346Z</time>
      </trkpt>
      <trkpt lat="63.80812" lon="20.36937">
        <ele>25.553079</ele>
        <time>2020-08-28T20:11:13.561Z</time>
      </trkpt>
      <trkpt lat="63.80806" lon="20.36932">
        <ele>25.567759</ele>
        <time>2020-08-28T20:11:14.608Z</time>
      </trkpt>
      <trkpt lat="63.80789" lon="20.36898">
        <ele>25.686935</ele>
        <time>2020-08-28T20:11:19.163Z</time>
      </trkpt>
      <trkpt lat="63.80777" lon="20.36908">
        <ele>25.788526</ele>
        <time>2020-08-28T20:11:22.004Z</time>
      </trkpt>
      <trkpt lat="63.80754" lon="20.36941">
        <ele>26.002855</ele>
        <time>2020-08-28T20:11:27.590Z</time>
      </trkpt>
      <trkpt lat="63.80742" lon="20.3691">
        <ele>26.14912</ele>
        <time>2020-08-28T20:11:31.647Z</time>
      </trkpt>
      <trkpt lat="63.80678" lon="20.36783">
        <ele>26.825927</ele>
        <time>2020-08-28T20:11:49.695Z</time>
      </trkpt>
      <trkpt lat="63.80646" lon="20.36746">
        <ele>27.064268</ele>
        <time>2020-08-28T20:11:57.304Z</time>
      </trkpt>
      <trkpt lat="63.80631" lon="20.36723">
        <ele>27.118941</ele>
        <time>2020-08-28T20:12:01.191Z</time>
      </trkpt>
      <trkpt lat="63.80611" lon="20.36696">
        <ele>27.193135</ele>
        <time>2020-08-28T20:12:06.270Z</time>
      </trkpt>
      <trkpt lat="63.80591" lon="20.36701">
        <ele>27.253382</ele>
        <time>2020-08-28T20:12:10.430Z</time>
      </trkpt>
      <trkpt lat="63.80576" lon="20.36693">
        <ele>27.302627</ele>
        <time>2020-08-28T20:12:13.765Z</time>
      </trkpt>
      <trkpt lat="63.80555" lon="20.36662">
        <ele>27.380904</ele>
        <time>2020-08-28T20:12:18.865Z</time>
      </trkpt>
      <trkpt lat="63.80442" lon="20.36575">
        <ele>27.288049</ele>
        <time>2020-08-28T20:12:39.468Z</time>
      </trkpt>
      <trkpt lat="63.80332" lon="20.36555">
        <ele>26.632424</ele>
        <time>2020-08-28T20:12:58.047Z</time>
      </trkpt>
      <trkpt lat="63.80292" lon="20.36554">
        <ele>26.585136</ele>
        <time>2020-08-28T20:13:04.747Z</time>
      </trkpt>
      <trkpt lat="63.80293" lon="20.36518">
        <ele>26.630095</ele>
        <time>2020-08-28T20:13:07.469Z</time>
      </trkpt>
      <trkpt lat="63.80292" lon="20.36481">
        <ele>26.677756</ele>
        <time>2020-08-28T20:13:10.519Z</time>
      </trkpt>
      <trkpt lat="63.80278" lon="20.3648">
        <ele>26.717956</ele>
        <time>2020-08-28T20:13:12.903Z</time>
      </trkpt>
      <trkpt lat="63.80278" lon="20.36446">
        <ele>26.760119</ele>
        <time>2020-08-28T20:13:15.948Z</time>
      </trkpt>
      <trkpt lat="63.80272" lon="20.36364">
        <ele>26.865679</ele>
        <time>2020-08-28T20:13:23.245Z</time>
      </trkpt>
      <trkpt lat="63.80239" lon="20.3616">
        <ele>27.413745</ele>
        <time>2020-08-28T20:13:44.184Z</time>
      </trkpt>
      <trkpt lat="63.80223" lon="20.36131">
        <ele>27.633909</ele>
        <time>2020-08-28T20:13:48.843Z</time>
      </trkpt>
      <trkpt lat="63.80135" lon="20.36093">
        <ele>28.591009</ele>
        <time>2020-08-28T20:14:08.253Z</time>
      </trkpt>
      <trkpt lat="63.80116" lon="20.36072">
        <ele>28.813373</ele>
        <time>2020-08-28T20:14:12.871Z</time>
      </trkpt>
      <trkpt lat="63.80105" lon="20.36038">
        <ele>29.063842</ele>
        <time>2020-08-28T20:14:17.263Z</time>
      </trkpt>
      <trkpt lat="63.80084" lon="20.35903">
        <ele>30.221561</ele>
        <time>2020-08-28T20:14:31.816Z</time>
      </trkpt>
      <trkpt lat="63.80082" lon="20.35889">
        <ele>30.338498</ele>
        <time>2020-08-28T20:14:33.419Z</time>
      </trkpt>
      <trkpt lat="63.80082" lon="20.35883">
        <ele>30.381355</ele>
        <time>2020-08-28T20:14:33.956Z</time>
      </trkpt>
      <trkpt lat="63.80082" lon="20.3577">
        <ele>31.299944</ele>
        <time>2020-08-28T20:14:46.174Z</time>
      </trkpt>
      <trkpt lat="63.80082" lon="20.35554">
        <ele>33.394116</ele>
        <time>2020-08-28T20:15:11.523Z</time>
      </trkpt>
      <trkpt lat="63.80082" lon="20.35351">
        <ele>35.738895</ele>
        <time>2020-08-28T20:15:36.178Z</time>
      </trkpt>
      <trkpt lat="63.80082" lon="20.35318">
        <ele>36.124671</ele>
        <time>2020-08-28T20:15:40.391Z</time>
      </trkpt>
      <trkpt lat="63.80081" lon="20.3525">
        <ele>36.914763</ele>
        <time>2020-08-28T20:15:48.384Z</time>
      </trkpt>
      <trkpt lat="63.80081" lon="20.35245">
        <ele>36.971366</ele>
        <time>2020-08-28T20:15:49.267Z</time>
      </trkpt>
      <trkpt lat="63.80081" lon="20.35175">
        <ele>37.533733</ele>
        <time>2020-08-28T20:15:57.254Z</time>
      </trkpt>
      <trkpt lat="63.80081" lon="20.35007">
        <ele>38.882126</ele>
        <time>2020-08-28T20:16:15.972Z</time>
      </trkpt>
      <trkpt lat="63.80081" lon="20.35">
        <ele>38.94327</ele>
        <time>2020-08-28T20:16:17.059Z</time>
      </trkpt>
      <trkpt lat="63.80081" lon="20.34893">
        <ele>39.798488</ele>
        <time>2020-08-28T20:16:27.886Z</time>
      </trkpt>
      <trkpt lat="63.80081" lon="20.34804">
        <ele>40.289031</ele>
        <time>2020-08-28T20:16:36.306Z</time>
      </trkpt>
      <trkpt lat="63.80081" lon="20.34666">
        <ele>40.453431</ele>
        <time>2020-08-28T20:16:48.571Z</time>
      </trkpt>
      <trkpt lat="63.80085" lon="20.3466">
        <ele>40.465456</ele>
        <time>2020-08-28T20:16:49.463Z</time>
      </trkpt>
      <trkpt lat="63.80104" lon="20.34655">
        <ele>40.517499</ele>
        <time>2020-08-28T20:16:53.130Z</time>
      </trkpt>
      <trkpt lat="63.80115" lon="20.34636">
        <ele>40.555037</ele>
        <time>2020-08-28T20:16:55.809Z</time>
      </trkpt>
      <trkpt lat="63.80122" lon="20.34555">
        <ele>40.653324</ele>
        <time>2020-08-28T20:17:02.445Z</time>
      </trkpt>
      <trkpt lat="63.80126" lon="20.34544">
        <ele>40.671299</ele>
        <time>2020-08-28T20:17:03.687Z</time>
      </trkpt>
      <trkpt lat="63.8013" lon="20.34536">
        <ele>40.685826</ele>
        <time>2020-08-28T20:17:04.672Z</time>
      </trkpt>
      <trkpt lat="63.80129" lon="20.34522">
        <ele>40.70368</ele>
        <time>2020-08-28T20:17:05.890Z</time>
      </trkpt>
      <trkpt lat="63.80133" lon="20.34454">
        <ele>40.68347</ele>
        <time>2020-08-28T20:17:11.777Z</time>
      </trkpt>
      <trkpt lat="63.80163" lon="20.34307">
        <ele>40.491486</ele>
        <time>2020-08-28T20:17:25.272Z</time>
      </trkpt>
      <trkpt lat="63.80166" lon="20.34292">
        <ele>40.472539</ele>
        <time>2020-08-28T20:17:26.558Z</time>
      </trkpt>
      <trkpt lat="63.80169" lon="20.3427">
        <ele>40.443996</ele>
        <time>2020-08-28T20:17:28.535Z</time>
      </trkpt>
      <trkpt lat="63.80181" lon="20.34133">
        <ele>40.277835</ele>
        <time>2020-08-28T20:17:40.293Z</time>
      </trkpt>
      <trkpt lat="63.80183" lon="20.341">
        <ele>40.244376</ele>
        <time>2020-08-28T20:17:43.044Z</time>
      </trkpt>
      <trkpt lat="63.80184" lon="20.34076">
        <ele>40.230642</ele>
        <time>2020-08-28T20:17:45.085Z</time>
      </trkpt>
      <trkpt lat="63.80186" lon="20.3399">
        <ele>40.18007</ele>
        <time>2020-08-28T20:17:52.421Z</time>
      </trkpt>
      <trkpt lat="63.80182" lon="20.33955">
        <ele>40.158724</ele>
        <time>2020-08-28T20:17:55.470Z</time>
      </trkpt>
      <trkpt lat="63.80149" lon="20.33754">
        <ele>40.034173</ele>
        <time>2020-08-28T20:18:13.935Z</time>
      </trkpt>
      <trkpt lat="63.80143" lon="20.33716">
        <ele>40.01003</ele>
        <time>2020-08-28T20:18:17.535Z</time>
      </trkpt>
      <trkpt lat="63.80132" lon="20.33669">
        <ele>39.977387</ele>
        <time>2020-08-28T20:18:22.090Z</time>
      </trkpt>
      <trkpt lat="63.80126" lon="20.33654">
        <ele>39.964031</ele>
        <time>2020-08-28T20:18:23.954Z</time>
      </trkpt>
      <trkpt lat="63.80116" lon="20.33635">
        <ele>39.945275</ele>
        <time>2020-08-28T20:18:26.579Z</time>
      </trkpt>
      <trkpt lat="63.80102" lon="20.33616">
        <ele>39.922141</ele>
        <time>2020-08-28T20:18:29.803Z</time>
      </trkpt>
      <trkpt lat="63.80053" lon="20.3355">
        <ele>39.841835</ele>
        <time>2020-08-28T20:18:40.844Z</time>
      </trkpt>
      <trkpt lat="63.80023" lon="20.33445">
        <ele>39.763432</ele>
        <time>2020-08-28T20:18:51.468Z</time>
      </trkpt>
      <trkpt lat="63.80014" lon="20.33421">
        <ele>39.704249</ele>
        <time>2020-08-28T20:18:54.085Z</time>
      </trkpt>
      <trkpt lat="63.79997" lon="20.33398">
        <ele>39.587942</ele>
        <time>2020-08-28T20:18:57.938Z</time>
      </trkpt>
      <trkpt lat="63.79974" lon="20.33362">
        <ele>39.430106</ele>
        <time>2020-08-28T20:19:03.124Z</time>
      </trkpt>
      <trkpt lat="63.79925" lon="20.33277">
        <ele>39.073818</ele>
        <time>2020-08-28T20:19:14.618Z</time>
      </trkpt>
      <trkpt lat="63.79904" lon="20.33223">
        <ele>38.894622</ele>
        <time>2020-08-28T20:19:20.107Z</time>
      </trkpt>
      <trkpt lat="63.79896" lon="20.33188">
        <ele>38.794268</ele>
        <time>2020-08-28T20:19:23.202Z</time>
      </trkpt>
      <trkpt lat="63.7989" lon="20.33116">
        <ele>38.460056</ele>
        <time>2020-08-28T20:19:28.783Z</time>
      </trkpt>
      <trkpt lat="63.79891" lon="20.33007">
        <ele>37.824467</ele>
        <time>2020-08-28T20:19:37.046Z</time>
      </trkpt>
      <trkpt lat="63.79894" lon="20.32957">
        <ele>37.530021</ele>
        <time>2020-08-28T20:19:40.853Z</time>
      </trkpt>
      <trkpt lat="63.79889" lon="20.32912">
        <ele>37.265729</ele>
        <time>2020-08-28T20:19:44.219Z</time>
      </trkpt>
      <trkpt lat="63.79882" lon="20.3273">
        <ele>36.143752</ele>
        <time>2020-08-28T20:19:57.660Z</time>
      </trkpt>
      <trkpt lat="63.79881" lon="20.32702">
        <ele>35.921681</ele>
        <time>2020-08-28T20:19:59.632Z</time>
      </trkpt>
      <trkpt lat="63.79874" lon="20.32605">
        <ele>35.15201</ele>
        <time>2020-08-28T20:20:06.624Z</time>
      </trkpt>
      <trkpt lat="63.79871" lon="20.32567">
        <ele>34.849826</ele>
        <time>2020-08-28T20:20:09.440Z</time>
      </trkpt>
      <trkpt lat="63.79869" lon="20.32537">
        <ele>34.608169</ele>
        <time>2020-08-28T20:20:11.594Z</time>
      </trkpt>
      <trkpt lat="63.79868" lon="20.32527">
        <ele>34.533218</ele>
        <time>2020-08-28T20:20:12.294Z</time>
      </trkpt>
      <trkpt lat="63.79862" lon="20.3245">
        <ele>33.915298</ele>
        <time>2020-08-28T20:20:17.959Z</time>
      </trkpt>
      <trkpt lat="63.79859" lon="20.32438">
        <ele>33.805665</ele>
        <time>2020-08-28T20:20:18.988Z</time>
      </trkpt>
      <trkpt lat="63.79857" lon="20.3243">
        <ele>33.729946</ele>
        <time>2020-08-28T20:20:19.656Z</time>
      </trkpt>
      <trkpt lat="63.79857" lon="20.32372">
        <ele>33.273135</ele>
        <time>2020-08-28T20:20:23.266Z</time>
      </trkpt>
      <trkpt lat="63.79857" lon="20.32304">
        <ele>32.62066</ele>
        <time>2020-08-28T20:20:29.107Z</time>
      </trkpt>
      <trkpt lat="63.79856" lon="20.32292">
        <ele>32.492434</ele>
        <time>2020-08-28T20:20:30.180Z</time>
      </trkpt>
      <trkpt lat="63.79855" lon="20.32283">
        <ele>32.401298</ele>
        <time>2020-08-28T20:20:30.776Z</time>
      </trkpt>
      <trkpt lat="63.79851" lon="20.32275">
        <ele>32.287572</ele>
        <time>2020-08-28T20:20:31.516Z</time>
      </trkpt>
      <trkpt lat="63.79844" lon="20.3226">
        <ele>32.061036</ele>
        <time>2020-08-28T20:20:32.980Z</time>
      </trkpt>
      <trkpt lat="63.79846" lon="20.32253">
        <ele>31.976187</ele>
        <time>2020-08-28T20:20:33.529Z</time>
      </trkpt>
      <trkpt lat="63.7985" lon="20.32251">
        <ele>31.878723</ele>
        <time>2020-08-28T20:20:34.156Z</time>
      </trkpt>
      <trkpt lat="63.79857" lon="20.32248">
        <ele>31.721536</ele>
        <time>2020-08-28T20:20:35.090Z</time>
      </trkpt>
      <trkpt lat="63.79858" lon="20.32238">
        <ele>31.621524</ele>
        <time>2020-08-28T20:20:35.707Z</time>
      </trkpt>
      <trkpt lat="63.79857" lon="20.32156">
        <ele>30.782099</ele>
        <time>2020-08-28T20:20:40.773Z</time>
      </trkpt>
      <trkpt lat="63.79856" lon="20.32076">
        <ele>29.967969</ele>
        <time>2020-08-28T20:20:45.593Z</time>
      </trkpt>
      <trkpt lat="63.79856" lon="20.3197">
        <ele>28.855809</ele>
        <time>2020-08-28T20:20:51.875Z</time>
      </trkpt>
      <trkpt lat="63.79857" lon="20.31905">
        <ele>27.99088</ele>
        <time>2020-08-28T20:20:55.712Z</time>
      </trkpt>
      <trkpt lat="63.79857" lon="20.31854">
        <ele>27.309413</ele>
        <time>2020-08-28T20:20:58.744Z</time>
      </trkpt>
      <trkpt lat="63.79858" lon="20.31777">
        <ele>26.279807</ele>
        <time>2020-08-28T20:21:03.301Z</time>
      </trkpt>
      <trkpt lat="63.79858" lon="20.31697">
        <ele>25.212863</ele>
        <time>2020-08-28T20:21:08.004Z</time>
      </trkpt>
      <trkpt lat="63.79859" lon="20.31677">
        <ele>24.945406</ele>
        <time>2020-08-28T20:21:09.132Z</time>
      </trkpt>
      <trkpt lat="63.79861" lon="20.31658">
        <ele>24.688207</ele>
        <time>2020-08-28T20:21:10.216Z</time>
      </trkpt>
      <trkpt lat="63.79861" lon="20.31641">
        <ele>24.45475</ele>
        <time>2020-08-28T20:21:11.200Z</time>
      </trkpt>
      <trkpt lat="63.79862" lon="20.31555">
        <ele>23.360771</ele>
        <time>2020-08-28T20:21:16.023Z</time>
      </trkpt>
      <trkpt lat="63.79882" lon="20.31486">
        <ele>22.436053</ele>
        <time>2020-08-28T20:21:20.812Z</time>
      </trkpt>
      <trkpt lat="63.79885" lon="20.31473">
        <ele>22.276328</ele>
        <time>2020-08-28T20:21:21.681Z</time>
      </trkpt>
      <trkpt lat="63.79892" lon="20.31454">
        <ele>21.997796</ele>
        <time>2020-08-28T20:21:23.127Z</time>
      </trkpt>
      <trkpt lat="63.79889" lon="20.31449">
        <ele>21.899251</ele>
        <time>2020-08-28T20:21:23.608Z</time>
      </trkpt>
      <trkpt lat="63.79879" lon="20.31431">
        <ele>21.571955</ele>
        <time>2020-08-28T20:21:25.390Z</time>
      </trkpt>
      <trkpt lat="63.79874" lon="20.31403">
        <ele>21.234864</ele>
        <time>2020-08-28T20:21:27.361Z</time>
      </trkpt>
      <trkpt lat="63.79874" lon="20.31391">
        <ele>21.09885</ele>
        <time>2020-08-28T20:21:28.101Z</time>
      </trkpt>
      <trkpt lat="63.79874" lon="20.31362">
        <ele>20.780999</ele>
        <time>2020-08-28T20:21:29.783Z</time>
      </trkpt>
      <trkpt lat="63.79872" lon="20.31354">
        <ele>20.684316</ele>
        <time>2020-08-28T20:21:30.256Z</time>
      </trkpt>
      <trkpt lat="63.79871" lon="20.31346">
        <ele>20.58495</ele>
        <time>2020-08-28T20:21:30.928Z</time>
      </trkpt>
      <trkpt lat="63.79868" lon="20.31336">
        <ele>20.446337</ele>
        <time>2020-08-28T20:21:31.687Z</time>
      </trkpt>
      <trkpt lat="63.79863" lon="20.31328">
        <ele>20.30401</ele>
        <time>2020-08-28T20:21:32.545Z</time>
      </trkpt>
      <trkpt lat="63.79866" lon="20.31312">
        <ele>20.115111</ele>
        <time>2020-08-28T20:21:33.556Z</time>
      </trkpt>
      <trkpt lat="63.79869" lon="20.31289">
        <ele>19.847012</ele>
        <time>2020-08-28T20:21:35.086Z</time>
      </trkpt>
      <trkpt lat="63.7987" lon="20.31283">
        <ele>19.777325</ele>
        <time>2020-08-28T20:21:35.443Z</time>
      </trkpt>
      <trkpt lat="63.79872" lon="20.31271">
        <ele>19.628687</ele>
        <time>2020-08-28T20:21:36.389Z</time>
      </trkpt>
      <trkpt lat="63.79948" lon="20.31219">
        <ele>18.031264</ele>
        <time>2020-08-28T20:21:47.625Z</time>
      </trkpt>
      <trkpt lat="63.79953" lon="20.31219">
        <ele>17.936624</ele>
        <time>2020-08-28T20:21:48.317Z</time>
      </trkpt>
      <trkpt lat="63.79953" lon="20.31178">
        <ele>17.620555</ele>
        <time>2020-08-28T20:21:50.713Z</time>
      </trkpt>
      <trkpt lat="63.79946" lon="20.31178">
        <ele>17.488456</ele>
        <time>2020-08-28T20:21:52.263Z</time>
      </trkpt>
      <trkpt lat="63.79946" lon="20.31122">
        <ele>17.044711</ele>
        <time>2020-08-28T20:21:55.983Z</time>
      </trkpt>
      <trkpt lat="63.7995" lon="20.31103">
        <ele>16.88023</ele>
        <time>2020-08-28T20:21:57.523Z</time>
      </trkpt>
      <trkpt lat="63.79969" lon="20.31084">
        <ele>16.50525</ele>
        <time>2020-08-28T20:22:00.714Z</time>
      </trkpt>
      <trkpt lat="63.79982" lon="20.3108">
        <ele>16.261888</ele>
        <time>2020-08-28T20:22:02.945Z</time>
      </trkpt>
      <trkpt lat="63.79985" lon="20.31046">
        <ele>15.987074</ele>
        <time>2020-08-28T20:22:05.288Z</time>
      </trkpt>
      <trkpt lat="63.79985" lon="20.30973">
        <ele>15.561846</ele>
        <time>2020-08-28T20:22:10.290Z</time>
      </trkpt>
      <trkpt lat="63.79986" lon="20.30965">
        <ele>15.519201</ele>
        <time>2020-08-28T20:22:10.793Z</time>
      </trkpt>
      <trkpt lat="63.79987" lon="20.30957">
        <ele>15.475729</ele>
        <time>2020-08-28T20:22:11.300Z</time>
      </trkpt>
      <trkpt lat="63.7999" lon="20.30764">
        <ele>14.515406</ele>
        <time>2020-08-28T20:22:24.085Z</time>
      </trkpt>
      <trkpt lat="63.79996" lon="20.30724">
        <ele>14.307349</ele>
        <time>2020-08-28T20:22:26.827Z</time>
      </trkpt>
      <trkpt lat="63.80005" lon="20.30696">
        <ele>14.13494</ele>
        <time>2020-08-28T20:22:29.197Z</time>
      </trkpt>
      <trkpt lat="63.80009" lon="20.30687">
        <ele>14.064849</ele>
        <time>2020-08-28T20:22:30.162Z</time>
      </trkpt>
      <trkpt lat="63.80017" lon="20.30702">
        <ele>13.944566</ele>
        <time>2020-08-28T20:22:32.267Z</time>
      </trkpt>
      <trkpt lat="63.80033" lon="20.30726">
        <ele>13.761756</ele>
        <time>2020-08-28T20:22:35.202Z</time>
      </trkpt>
      <trkpt lat="63.80044" lon="20.30741">
        <ele>13.71559</ele>
        <time>2020-08-28T20:22:37.382Z</time>
      </trkpt>
      <trkpt lat="63.80062" lon="20.30768">
        <ele>13.633652</ele>
        <time>2020-08-28T20:22:41.260Z</time>
      </trkpt>
      <trkpt lat="63.80068" lon="20.30774">
        <ele>13.610637</ele>
        <time>2020-08-28T20:22:42.281Z</time>
      </trkpt>
      <trkpt lat="63.80077" lon="20.30732">
        <ele>13.532359</ele>
        <time>2020-08-28T20:22:46.094Z</time>
      </trkpt>
      <trkpt lat="63.80084" lon="20.30705">
        <ele>13.481644</ele>
        <time>2020-08-28T20:22:48.424Z</time>
      </trkpt>
      <trkpt lat="63.80086" lon="20.30695">
        <ele>13.462949</ele>
        <time>2020-08-28T20:22:49.291Z</time>
      </trkpt>
      <trkpt lat="63.80103" lon="20.30672">
        <ele>13.387391</ele>
        <time>2020-08-28T20:22:52.813Z</time>
      </trkpt>
      <trkpt lat="63.8012" lon="20.30678">
        <ele>13.323323</ele>
        <time>2020-08-28T20:22:55.744Z</time>
      </trkpt>
      <trkpt lat="63.80125" lon="20.30684">
        <ele>13.301396</ele>
        <time>2020-08-28T20:22:56.770Z</time>
      </trkpt>
      <trkpt lat="63.8013" lon="20.30689">
        <ele>13.28104</ele>
        <time>2020-08-28T20:22:57.603Z</time>
      </trkpt>
      <trkpt lat="63.80135" lon="20.30696">
        <ele>13.257828</ele>
        <time>2020-08-28T20:22:58.603Z</time>
      </trkpt>
      <trkpt lat="63.80145" lon="20.30704">
        <ele>13.219088</ele>
        <time>2020-08-28T20:23:00.493Z</time>
      </trkpt>
      <trkpt lat="63.8015" lon="20.30707">
        <ele>13.199952</ele>
        <time>2020-08-28T20:23:01.464Z</time>
      </trkpt>
      <trkpt lat="63.80166" lon="20.30709">
        <ele>13.138811</ele>
        <time>2020-08-28T20:23:04.041Z</time>
      </trkpt>
      <trkpt lat="63.80187" lon="20.30692">
        <ele>12.906098</ele>
        <time>2020-08-28T20:23:07.764Z</time>
      </trkpt>
      <trkpt lat="63.80193" lon="20.30684">
        <ele>12.804202</ele>
        <time>2020-08-28T20:23:08.770Z</time>
      </trkpt>
      <trkpt lat="63.80195" lon="20.30676">
        <ele>12.739559</ele>
        <time>2020-08-28T20:23:09.347Z</time>
      </trkpt>
      <trkpt lat="63.80197" lon="20.30643">
        <ele>12.50794</ele>
        <time>2020-08-28T20:23:11.622Z</time>
      </trkpt>
      <trkpt lat="63.8019" lon="20.30611">
        <ele>12.267956</ele>
        <time>2020-08-28T20:23:14.033Z</time>
      </trkpt>
      <trkpt lat="63.80186" lon="20.30603">
        <ele>12.18569</ele>
        <time>2020-08-28T20:23:14.765Z</time>
      </trkpt>
      <trkpt lat="63.80181" lon="20.30594">
        <ele>12.08859</ele>
        <time>2020-08-28T20:23:15.674Z</time>
      </trkpt>
      <trkpt lat="63.80173" lon="20.30578">
        <ele>11.91159</ele>
        <time>2020-08-28T20:23:17.440Z</time>
      </trkpt>
      <trkpt lat="63.80165" lon="20.30562">
        <ele>11.74763</ele>
        <time>2020-08-28T20:23:19.033Z</time>
      </trkpt>
      <trkpt lat="63.8016" lon="20.30552">
        <ele>11.651616</ele>
        <time>2020-08-28T20:23:19.889Z</time>
      </trkpt>
      <trkpt lat="63.80152" lon="20.30527">
        <ele>11.433206</ele>
        <time>2020-08-28T20:23:21.926Z</time>
      </trkpt>
      <trkpt lat="63.80147" lon="20.30471">
        <ele>11.03952</ele>
        <time>2020-08-28T20:23:25.525Z</time>
      </trkpt>
      <trkpt lat="63.80144" lon="20.30416">
        <ele>10.664643</ele>
        <time>2020-08-28T20:23:28.960Z</time>
      </trkpt>
      <trkpt lat="63.80144" lon="20.30406">
        <ele>10.589791</ele>
        <time>2020-08-28T20:23:29.632Z</time>
      </trkpt>
      <trkpt lat="63.80142" lon="20.30359">
        <ele>10.248477</ele>
        <time>2020-08-28T20:23:32.441Z</time>
      </trkpt>
      <trkpt lat="63.8012" lon="20.29622">
        <ele>3.017499</ele>
        <time>2020-08-28T20:24:17.288Z</time>
      </trkpt>
      <trkpt lat="63.80108" lon="20.29279">
        <ele>1.517954</ele>
        <time>2020-08-28T20:24:41.116Z</time>
      </trkpt>
      <trkpt lat="63.80108" lon="20.29253">
        <ele>1.437326</ele>
        <time>2020-08-28T20:24:43.075Z</time>
      </trkpt>
      <trkpt lat="63.80105" lon="20.29205">
        <ele>1.284791</ele>
        <time>2020-08-28T20:24:46.767Z</time>
      </trkpt>
      <trkpt lat="63.80093" lon="20.29064">
        <ele>1.076218</ele>
        <time>2020-08-28T20:24:57.871Z</time>
      </trkpt>
      <trkpt lat="63.80081" lon="20.28986">
        <ele>1.056535</ele>
        <time>2020-08-28T20:25:04.394Z</time>
      </trkpt>
      <trkpt lat="63.80075" lon="20.28957">
        <ele>1.049245</ele>
        <time>2020-08-28T20:25:06.810Z</time>
      </trkpt>
      <trkpt lat="63.80073" lon="20.28942">
        <ele>1.045362</ele>
        <time>2020-08-28T20:25:08.115Z</time>
      </trkpt>
      <trkpt lat="63.80069" lon="20.28926">
        <ele>1.041056</ele>
        <time>2020-08-28T20:25:09.554Z</time>
      </trkpt>
      <trkpt lat="63.80066" lon="20.28912">
        <ele>1.03742</ele>
        <time>2020-08-28T20:25:10.773Z</time>
      </trkpt>
      <trkpt lat="63.80052" lon="20.28858">
        <ele>1.022547</ele>
        <time>2020-08-28T20:25:15.744Z</time>
      </trkpt>
      <trkpt lat="63.80039" lon="20.28812">
        <ele>1.009786</ele>
        <time>2020-08-28T20:25:20.021Z</time>
      </trkpt>
      <trkpt lat="63.80022" lon="20.28758">
        <ele>1.001717</ele>
        <time>2020-08-28T20:25:25.285Z</time>
      </trkpt>
      <trkpt lat="63.79982" lon="20.28627">
        <ele>1.012368</ele>
        <time>2020-08-28T20:25:37.821Z</time>
      </trkpt>
      <trkpt lat="63.79939" lon="20.28487">
        <ele>1.023756</ele>
        <time>2020-08-28T20:25:51.253Z</time>
      </trkpt>
      <trkpt lat="63.79937" lon="20.28478">
        <ele>1.024468</ele>
        <time>2020-08-28T20:25:52.107Z</time>
      </trkpt>
      <trkpt lat="63.79935" lon="20.28461">
        <ele>1.025621</ele>
        <time>2020-08-28T20:25:53.468Z</time>
      </trkpt>
      <trkpt lat="63.79932" lon="20.28408">
        <ele>1.032301</ele>
        <time>2020-08-28T20:25:57.708Z</time>
      </trkpt>
      <trkpt lat="63.79934" lon="20.28385">
        <ele>1.03646</ele>
        <time>2020-08-28T20:25:59.551Z</time>
      </trkpt>
      <trkpt lat="63.79936" lon="20.28369">
        <ele>1.039502</ele>
        <time>2020-08-28T20:26:00.905Z</time>
      </trkpt>
      <trkpt lat="63.79945" lon="20.28325">
        <ele>1.048131</ele>
        <time>2020-08-28T20:26:04.747Z</time>
      </trkpt>
      <trkpt lat="63.79979" lon="20.28227">
        <ele>1.070311</ele>
        <time>2020-08-28T20:26:14.575Z</time>
      </trkpt>
      <trkpt lat="63.79982" lon="20.28203">
        <ele>1.074698</ele>
        <time>2020-08-28T20:26:16.512Z</time>
      </trkpt>
      <trkpt lat="63.79983" lon="20.2819">
        <ele>1.077051</ele>
        <time>2020-08-28T20:26:17.580Z</time>
      </trkpt>
      <trkpt lat="63.80015" lon="20.28167">
        <ele>1.090637</ele>
        <time>2020-08-28T20:26:23.596Z</time>
      </trkpt>
      <trkpt lat="63.80031" lon="20.28148">
        <ele>1.097868</ele>
        <time>2020-08-28T20:26:26.806Z</time>
      </trkpt>
      <trkpt lat="63.80129" lon="20.28036">
        <ele>1.175347</ele>
        <time>2020-08-28T20:26:46.672Z</time>
      </trkpt>
      <trkpt lat="63.80223" lon="20.27929">
        <ele>1.30026</ele>
        <time>2020-08-28T20:27:05.835Z</time>
      </trkpt>
      <trkpt lat="63.80254" lon="20.279">
        <ele>1.378348</ele>
        <time>2020-08-28T20:27:12.014Z</time>
      </trkpt>
      <trkpt lat="63.80294" lon="20.27862">
        <ele>1.478549</ele>
        <time>2020-08-28T20:27:19.992Z</time>
      </trkpt>
      <trkpt lat="63.80343" lon="20.27801">
        <ele>1.610168</ele>
        <time>2020-08-28T20:27:30.566Z</time>
      </trkpt>
      <trkpt lat="63.80451" lon="20.27659">
        <ele>2.042296</ele>
        <time>2020-08-28T20:27:54.343Z</time>
      </trkpt>
      <trkpt lat="63.80474" lon="20.27632">
        <ele>2.133925</ele>
        <time>2020-08-28T20:27:59.189Z</time>
      </trkpt>
      <trkpt lat="63.80596" lon="20.27482">
        <ele>2.592498</ele>
        <time>2020-08-28T20:28:25.735Z</time>
      </trkpt>
      <trkpt lat="63.80614" lon="20.27453">
        <ele>2.659221</ele>
        <time>2020-08-28T20:28:29.753Z</time>
      </trkpt>
      <trkpt lat="63.80666" lon="20.27385">
        <ele>2.847897</ele>
        <time>2020-08-28T20:28:41.015Z</time>
      </trkpt>
      <trkpt lat="63.80756" lon="20.27274">
        <ele>2.927825</ele>
        <time>2020-08-28T20:28:59.795Z</time>
      </trkpt>
      <trkpt lat="63.80851" lon="20.27153">
        <ele>2.940439</ele>
        <time>2020-08-28T20:29:19.065Z</time>
      </trkpt>
      <trkpt lat="63.80906" lon="20.27084">
        <ele>2.841767</ele>
        <time>2020-08-28T20:29:29.939Z</time>
      </trkpt>
      <trkpt lat="63.8103" lon="20.26943">
        <ele>2.634683</ele>
        <time>2020-08-28T20:29:53.825Z</time>
      </trkpt>
      <trkpt lat="63.81036" lon="20.26938">
        <ele>2.62608</ele>
        <time>2020-08-28T20:29:54.863Z</time>
      </trkpt>
      <trkpt lat="63.81043" lon="20.26938">
        <ele>2.61627</ele>
        <time>2020-08-28T20:29:56.137Z</time>
      </trkpt>
      <trkpt lat="63.81046" lon="20.26935">
        <ele>2.611254</ele>
        <time>2020-08-28T20:29:56.785Z</time>
      </trkpt>
      <trkpt lat="63.81054" lon="20.26926">
        <ele>2.599355</ele>
        <time>2020-08-28T20:29:58.320Z</time>
      </trkpt>
      <trkpt lat="63.81062" lon="20.26914">
        <ele>2.586332</ele>
        <time>2020-08-28T20:30:00.017Z</time>
      </trkpt>
      <trkpt lat="63.81067" lon="20.26908">
        <ele>2.578744</ele>
        <time>2020-08-28T20:30:00.945Z</time>
      </trkpt>
      <trkpt lat="63.81069" lon="20.26899">
        <ele>2.572749</ele>
        <time>2020-08-28T20:30:01.732Z</time>
      </trkpt>
      <trkpt lat="63.81081" lon="20.26885">
        <ele>2.55535</ele>
        <time>2020-08-28T20:30:03.980Z</time>
      </trkpt>
      <trkpt lat="63.81172" lon="20.26796">
        <ele>2.460682</ele>
        <time>2020-08-28T20:30:21.499Z</time>
      </trkpt>
      <trkpt lat="63.81227" lon="20.26742">
        <ele>2.472622</ele>
        <time>2020-08-28T20:30:32.351Z</time>
      </trkpt>
      <trkpt lat="63.81298" lon="20.2667">
        <ele>2.487911</ele>
        <time>2020-08-28T20:30:46.721Z</time>
      </trkpt>
      <trkpt lat="63.81336" lon="20.26625">
        <ele>2.556975</ele>
        <time>2020-08-28T20:30:54.930Z</time>
      </trkpt>
      <trkpt lat="63.81411" lon="20.26514">
        <ele>2.775006</ele>
        <time>2020-08-28T20:31:12.222Z</time>
      </trkpt>
      <trkpt lat="63.81423" lon="20.26496">
        <ele>2.809362</ele>
        <time>2020-08-28T20:31:15.001Z</time>
      </trkpt>
      <trkpt lat="63.81446" lon="20.26462">
        <ele>2.875645</ele>
        <time>2020-08-28T20:31:20.353Z</time>
      </trkpt>
      <trkpt lat="63.81516" lon="20.26316">
        <ele>3.305964</ele>
        <time>2020-08-28T20:31:39.334Z</time>
      </trkpt>
      <trkpt lat="63.8152" lon="20.26307">
        <ele>3.335336</ele>
        <time>2020-08-28T20:31:40.478Z</time>
      </trkpt>
      <trkpt lat="63.81595" lon="20.26143">
        <ele>3.87468</ele>
        <time>2020-08-28T20:32:01.718Z</time>
      </trkpt>
      <trkpt lat="63.81629" lon="20.26064">
        <ele>4.173661</ele>
        <time>2020-08-28T20:32:11.629Z</time>
      </trkpt>
      <trkpt lat="63.81677" lon="20.25955">
        <ele>4.594278</ele>
        <time>2020-08-28T20:32:25.661Z</time>
      </trkpt>
      <trkpt lat="63.81711" lon="20.25922">
        <ele>4.821791</ele>
        <time>2020-08-28T20:32:33.327Z</time>
      </trkpt>
      <trkpt lat="63.81706" lon="20.25899">
        <ele>4.893441</ele>
        <time>2020-08-28T20:32:35.749Z</time>
      </trkpt>
      <trkpt lat="63.81696" lon="20.25859">
        <ele>5.034415</ele>
        <time>2020-08-28T20:32:39.968Z</time>
      </trkpt>
      <trkpt lat="63.81687" lon="20.25781">
        <ele>5.31471</ele>
        <time>2020-08-28T20:32:47.479Z</time>
      </trkpt>
      <trkpt lat="63.8168" lon="20.25754">
        <ele>5.423057</ele>
        <time>2020-08-28T20:32:50.419Z</time>
      </trkpt>
      <trkpt lat="63.81635" lon="20.25583">
        <ele>6.119478</ele>
        <time>2020-08-28T20:33:08.904Z</time>
      </trkpt>
      <trkpt lat="63.8159" lon="20.25421">
        <ele>6.834755</ele>
        <time>2020-08-28T20:33:27.029Z</time>
      </trkpt>
      <trkpt lat="63.81561" lon="20.25315">
        <ele>7.31872</ele>
        <time>2020-08-28T20:33:38.878Z</time>
      </trkpt>
      <trkpt lat="63.81562" lon="20.25299">
        <ele>7.381495</ele>
        <time>2020-08-28T20:33:40.460Z</time>
      </trkpt>
      <trkpt lat="63.81564" lon="20.25288">
        <ele>7.430413</ele>
        <time>2020-08-28T20:33:41.652Z</time>
      </trkpt>
      <trkpt lat="63.81572" lon="20.25265">
        <ele>7.543036</ele>
        <time>2020-08-28T20:33:44.318Z</time>
      </trkpt>
      <trkpt lat="63.81578" lon="20.2525">
        <ele>7.620744</ele>
        <time>2020-08-28T20:33:46.199Z</time>
      </trkpt>
      <trkpt lat="63.81578" lon="20.25237">
        <ele>7.673401</ele>
        <time>2020-08-28T20:33:47.532Z</time>
      </trkpt>
      <trkpt lat="63.81566" lon="20.25188">
        <ele>7.889671</ele>
        <time>2020-08-28T20:33:52.634Z</time>
      </trkpt>
      <trkpt lat="63.81561" lon="20.2517">
        <ele>7.971613</ele>
        <time>2020-08-28T20:33:54.678Z</time>
      </trkpt>
      <trkpt lat="63.81554" lon="20.25155">
        <ele>8.065211</ele>
        <time>2020-08-28T20:33:56.785Z</time>
      </trkpt>
      <trkpt lat="63.81548" lon="20.25139">
        <ele>8.161792</ele>
        <time>2020-08-28T20:33:58.786Z</time>
      </trkpt>
      <trkpt lat="63.81535" lon="20.25066">
        <ele>8.497367</ele>
        <time>2020-08-28T20:34:06.028Z</time>
      </trkpt>
      <trkpt lat="63.81536" lon="20.25004">
        <ele>8.763601</ele>
        <time>2020-08-28T20:34:11.860Z</time>
      </trkpt>
      <trkpt lat="63.81538" lon="20.24939">
        <ele>9.045959</ele>
        <time>2020-08-28T20:34:18.082Z</time>
      </trkpt>
      <trkpt lat="63.8154" lon="20.24872">
        <ele>9.334956</ele>
        <time>2020-08-28T20:34:24.587Z</time>
      </trkpt>
      <trkpt lat="63.81549" lon="20.24859">
        <ele>9.43811</ele>
        <time>2020-08-28T20:34:26.990Z</time>
      </trkpt>
      <trkpt lat="63.81561" lon="20.24811">
        <ele>9.676541</ele>
        <time>2020-08-28T20:34:32.407Z</time>
      </trkpt>
      <trkpt lat="63.81562" lon="20.24702">
        <ele>10.331928</ele>
        <time>2020-08-28T20:34:43.190Z</time>
      </trkpt>
      <trkpt lat="63.81569" lon="20.24671">
        <ele>10.553857</ele>
        <time>2020-08-28T20:34:46.816Z</time>
      </trkpt>
      <trkpt lat="63.81572" lon="20.24643">
        <ele>10.730481</ele>
        <time>2020-08-28T20:34:49.633Z</time>
      </trkpt>
      <trkpt lat="63.8157" lon="20.24613">
        <ele>10.914602</ele>
        <time>2020-08-28T20:34:52.499Z</time>
      </trkpt>
      <trkpt lat="63.8156" lon="20.24606">
        <ele>11.059692</ele>
        <time>2020-08-28T20:34:54.952Z</time>
      </trkpt>
      <trkpt lat="63.81555" lon="20.2458">
        <ele>11.235787</ele>
        <time>2020-08-28T20:34:57.712Z</time>
      </trkpt>
      <trkpt lat="63.8156" lon="20.24517">
        <ele>11.630847</ele>
        <time>2020-08-28T20:35:04.053Z</time>
      </trkpt>
      <trkpt lat="63.81581" lon="20.24427">
        <ele>12.264339</ele>
        <time>2020-08-28T20:35:14.538Z</time>
      </trkpt>
      <trkpt lat="63.81611" lon="20.24343">
        <ele>12.98894</ele>
        <time>2020-08-28T20:35:25.933Z</time>
      </trkpt>
      <trkpt lat="63.81653" lon="20.24259">
        <ele>13.838273</ele>
        <time>2020-08-28T20:35:38.704Z</time>
      </trkpt>
      <trkpt lat="63.81661" lon="20.24247">
        <ele>13.984026</ele>
        <time>2020-08-28T20:35:41.039Z</time>
      </trkpt>
      <trkpt lat="63.81676" lon="20.24225">
        <ele>14.242531</ele>
        <time>2020-08-28T20:35:44.698Z</time>
      </trkpt>
      <trkpt lat="63.81687" lon="20.24207">
        <ele>14.459034</ele>
        <time>2020-08-28T20:35:47.841Z</time>
      </trkpt>
      <trkpt lat="63.817" lon="20.24191">
        <ele>14.670787</ele>
        <time>2020-08-28T20:35:50.995Z</time>
      </trkpt>
      <trkpt lat="63.81745" lon="20.24134">
        <ele>15.291597</ele>
        <time>2020-08-28T20:36:02.239Z</time>
      </trkpt>
      <trkpt lat="63.81776" lon="20.24105">
        <ele>15.63225</ele>
        <time>2020-08-28T20:36:09.632Z</time>
      </trkpt>
      <trkpt lat="63.81808" lon="20.24076">
        <ele>15.978235</ele>
        <time>2020-08-28T20:36:17.035Z</time>
      </trkpt>
      <trkpt lat="63.81806" lon="20.24059">
        <ele>16.056688</ele>
        <time>2020-08-28T20:36:18.593Z</time>
      </trkpt>
      <trkpt lat="63.81803" lon="20.24044">
        <ele>16.127994</ele>
        <time>2020-08-28T20:36:20.061Z</time>
      </trkpt>
      <trkpt lat="63.81809" lon="20.24033">
        <ele>16.200118</ele>
        <time>2020-08-28T20:36:21.555Z</time>
      </trkpt>
      <trkpt lat="63.8181" lon="20.24011">
        <ele>16.301273</ele>
        <time>2020-08-28T20:36:23.596Z</time>
      </trkpt>
      <trkpt lat="63.81809" lon="20.23999">
        <ele>16.355529</ele>
        <time>2020-08-28T20:36:24.709Z</time>
      </trkpt>
      <trkpt lat="63.81818" lon="20.23991">
        <ele>16.4466</ele>
        <time>2020-08-28T20:36:26.467Z</time>
      </trkpt>
      <trkpt lat="63.81824" lon="20.23985">
        <ele>16.51395</ele>
        <time>2020-08-28T20:36:27.785Z</time>
      </trkpt>
      <trkpt lat="63.81826" lon="20.23982">
        <ele>16.535921</ele>
        <time>2020-08-28T20:36:28.208Z</time>
      </trkpt>
      <trkpt lat="63.81822" lon="20.2397">
        <ele>16.596495</ele>
        <time>2020-08-28T20:36:29.540Z</time>
      </trkpt>
      <trkpt lat="63.81758" lon="20.23486">
        <ele>18.012775</ele>
        <time>2020-08-28T20:37:14.116Z</time>
      </trkpt>
      <trkpt lat="63.81762" lon="20.23469">
        <ele>18.037675</ele>
        <time>2020-08-28T20:37:15.793Z</time>
      </trkpt>
      <trkpt lat="63.81786" lon="20.23425">
        <ele>18.126145</ele>
        <time>2020-08-28T20:37:21.682Z</time>
      </trkpt>
      <trkpt lat="63.81784" lon="20.23419">
        <ele>18.135962</ele>
        <time>2020-08-28T20:37:22.346Z</time>
      </trkpt>
      <trkpt lat="63.8177" lon="20.23379">
        <ele>18.20177</ele>
        <time>2020-08-28T20:37:26.799Z</time>
      </trkpt>
      <trkpt lat="63.81759" lon="20.23344">
        <ele>18.257016</ele>
        <time>2020-08-28T20:37:30.533Z</time>
      </trkpt>
      <trkpt lat="63.81741" lon="20.23278">
        <ele>18.357386</ele>
        <time>2020-08-28T20:37:37.075Z</time>
      </trkpt>
      <trkpt lat="63.81733" lon="20.23227">
        <ele>18.425631</ele>
        <time>2020-08-28T20:37:41.446Z</time>
      </trkpt>
      <trkpt lat="63.81721" lon="20.23132">
        <ele>18.264727</ele>
        <time>2020-08-28T20:37:49.286Z</time>
      </trkpt>
      <trkpt lat="63.81709" lon="20.23041">
        <ele>17.988625</ele>
        <time>2020-08-28T20:37:56.719Z</time>
      </trkpt>
      <trkpt lat="63.81703" lon="20.22978">
        <ele>17.800894</ele>
        <time>2020-08-28T20:38:01.479Z</time>
      </trkpt>
      <trkpt lat="63.81689" lon="20.22846">
        <ele>17.406548</ele>
        <time>2020-08-28T20:38:11.240Z</time>
      </trkpt>
      <trkpt lat="63.81686" lon="20.22816">
        <ele>17.317602</ele>
        <time>2020-08-28T20:38:13.384Z</time>
      </trkpt>
      <trkpt lat="63.81677" lon="20.22708">
        <ele>16.790444</ele>
        <time>2020-08-28T20:38:21.176Z</time>
      </trkpt>
      <trkpt lat="63.81674" lon="20.22659">
        <ele>16.545768</ele>
        <time>2020-08-28T20:38:24.599Z</time>
      </trkpt>
      <trkpt lat="63.81664" lon="20.22577">
        <ele>16.11583</ele>
        <time>2020-08-28T20:38:30.659Z</time>
      </trkpt>
      <trkpt lat="63.81664" lon="20.22562">
        <ele>16.04157</ele>
        <time>2020-08-28T20:38:31.678Z</time>
      </trkpt>
      <trkpt lat="63.81663" lon="20.2253">
        <ele>15.881387</ele>
        <time>2020-08-28T20:38:33.934Z</time>
      </trkpt>
      <trkpt lat="63.81652" lon="20.22448">
        <ele>15.449114</ele>
        <time>2020-08-28T20:38:39.979Z</time>
      </trkpt>
      <trkpt lat="63.81648" lon="20.2243">
        <ele>15.352644</ele>
        <time>2020-08-28T20:38:41.336Z</time>
      </trkpt>
      <trkpt lat="63.81643" lon="20.2241">
        <ele>15.235247</ele>
        <time>2020-08-28T20:38:42.983Z</time>
      </trkpt>
      <trkpt lat="63.81632" lon="20.22344">
        <ele>14.901008</ele>
        <time>2020-08-28T20:38:47.991Z</time>
      </trkpt>
      <trkpt lat="63.81602" lon="20.22179">
        <ele>14.059873</ele>
        <time>2020-08-28T20:39:00.565Z</time>
      </trkpt>
      <trkpt lat="63.81593" lon="20.22131">
        <ele>13.811784</ele>
        <time>2020-08-28T20:39:04.330Z</time>
      </trkpt>
      <trkpt lat="63.81589" lon="20.22119">
        <ele>13.741612</ele>
        <time>2020-08-28T20:39:05.422Z</time>
      </trkpt>
      <trkpt lat="63.81583" lon="20.22107">
        <ele>13.658236</ele>
        <time>2020-08-28T20:39:06.655Z</time>
      </trkpt>
      <trkpt lat="63.81579" lon="20.22097">
        <ele>13.592445</ele>
        <time>2020-08-28T20:39:07.661Z</time>
      </trkpt>
      <trkpt lat="63.81573" lon="20.22081">
        <ele>13.492592</ele>
        <time>2020-08-28T20:39:09.196Z</time>
      </trkpt>
      <trkpt lat="63.81562" lon="20.22048">
        <ele>13.302254</ele>
        <time>2020-08-28T20:39:12.138Z</time>
      </trkpt>
      <trkpt lat="63.81548" lon="20.22016">
        <ele>13.140434</ele>
        <time>2020-08-28T20:39:15.337Z</time>
      </trkpt>
      <trkpt lat="63.81527" lon="20.21966">
        <ele>12.887383</ele>
        <time>2020-08-28T20:39:20.347Z</time>
      </trkpt>
      <trkpt lat="63.81392" lon="20.21596">
        <ele>11.353267</ele>
        <time>2020-08-28T20:39:55.719Z</time>
      </trkpt>
      <trkpt lat="63.81386" lon="20.2158">
        <ele>11.301084</ele>
        <time>2020-08-28T20:39:57.268Z</time>
      </trkpt>
      <trkpt lat="63.8138" lon="20.21564">
        <ele>11.24929</ele>
        <time>2020-08-28T20:39:58.803Z</time>
      </trkpt>
      <trkpt lat="63.81357" lon="20.215">
        <ele>11.038875</ele>
        <time>2020-08-28T20:40:05.111Z</time>
      </trkpt>
      <trkpt lat="63.81322" lon="20.21405">
        <ele>10.812134</ele>
        <time>2020-08-28T20:40:14.759Z</time>
      </trkpt>
      <trkpt lat="63.8127" lon="20.21262">
        <ele>10.868501</ele>
        <time>2020-08-28T20:40:29.620Z</time>
      </trkpt>
      <trkpt lat="63.81267" lon="20.21218">
        <ele>10.882075</ele>
        <time>2020-08-28T20:40:33.377Z</time>
      </trkpt>
      <trkpt lat="63.81238" lon="20.21068">
        <ele>10.980658</ele>
        <time>2020-08-28T20:40:47.554Z</time>
      </trkpt>
      <trkpt lat="63.81203" lon="20.2096">
        <ele>11.423682</ele>
        <time>2020-08-28T20:40:59.627Z</time>
      </trkpt>
      <trkpt lat="63.81111" lon="20.20821">
        <ele>12.251996</ele>
        <time>2020-08-28T20:41:23.364Z</time>
      </trkpt>
      <trkpt lat="63.81101" lon="20.20791">
        <ele>12.413184</ele>
        <time>2020-08-28T20:41:26.999Z</time>
      </trkpt>
      <trkpt lat="63.81081" lon="20.20713">
        <ele>12.811465</ele>
        <time>2020-08-28T20:41:35.824Z</time>
      </trkpt>
      <trkpt lat="63.81064" lon="20.20629">
        <ele>13.218908</ele>
        <time>2020-08-28T20:41:44.809Z</time>
      </trkpt>
      <trkpt lat="63.8105" lon="20.20496">
        <ele>13.82607</ele>
        <time>2020-08-28T20:41:57.913Z</time>
      </trkpt>
      <trkpt lat="63.81042" lon="20.2049">
        <ele>13.91159</ele>
        <time>2020-08-28T20:41:59.777Z</time>
      </trkpt>
      <trkpt lat="63.81033" lon="20.20493">
        <ele>13.996617</ele>
        <time>2020-08-28T20:42:01.773Z</time>
      </trkpt>
      <trkpt lat="63.81016" lon="20.20499">
        <ele>14.139451</ele>
        <time>2020-08-28T20:42:05.470Z</time>
      </trkpt>
      <trkpt lat="63.81008" lon="20.20502">
        <ele>14.187305</ele>
        <time>2020-08-28T20:42:07.163Z</time>
      </trkpt>
      <trkpt lat="63.8099" lon="20.20503">
        <ele>14.30315</ele>
        <time>2020-08-28T20:42:11.108Z</time>
      </trkpt>
      <trkpt lat="63.80973" lon="20.2049">
        <ele>14.41368</ele>
        <time>2020-08-28T20:42:14.735Z</time>
      </trkpt>
      <trkpt lat="63.80897" lon="20.20369">
        <ele>14.989299</ele>
        <time>2020-08-28T20:42:33.736Z</time>
      </trkpt>
      <trkpt lat="63.80878" lon="20.20339">
        <ele>15.133173</ele>
        <time>2020-08-28T20:42:38.343Z</time>
      </trkpt>
      <trkpt lat="63.80847" lon="20.20285">
        <ele>15.307286</ele>
        <time>2020-08-28T20:42:46.101Z</time>
      </trkpt>
      <trkpt lat="63.80838" lon="20.20278">
        <ele>15.344751</ele>
        <time>2020-08-28T20:42:48.058Z</time>
      </trkpt>
      <trkpt lat="63.80831" lon="20.20285">
        <ele>15.373992</ele>
        <time>2020-08-28T20:42:49.619Z</time>
      </trkpt>
      <trkpt lat="63.80758" lon="20.20175">
        <ele>15.701539</ele>
        <time>2020-08-28T20:43:06.156Z</time>
      </trkpt>
      <trkpt lat="63.80748" lon="20.20162">
        <ele>15.745827</ele>
        <time>2020-08-28T20:43:08.362Z</time>
      </trkpt>
      <trkpt lat="63.80737" lon="20.20153">
        <ele>15.787559</ele>
        <time>2020-08-28T20:43:10.464Z</time>
      </trkpt>
      <trkpt lat="63.80726" lon="20.20146">
        <ele>15.829668</ele>
        <time>2020-08-28T20:43:12.586Z</time>
      </trkpt>
      <trkpt lat="63.80682" lon="20.20128">
        <ele>15.993523</ele>
        <time>2020-08-28T20:43:21.144Z</time>
      </trkpt>
      <trkpt lat="63.80636" lon="20.20111">
        <ele>16.161923</ele>
        <time>2020-08-28T20:43:29.983Z</time>
      </trkpt>
      <trkpt lat="63.80572" lon="20.20083">
        <ele>16.397994</ele>
        <time>2020-08-28T20:43:42.332Z</time>
      </trkpt>
      <trkpt lat="63.80542" lon="20.20068">
        <ele>16.508637</ele>
        <time>2020-08-28T20:43:48.136Z</time>
      </trkpt>
      <trkpt lat="63.80501" lon="20.20059">
        <ele>16.737015</ele>
        <time>2020-08-28T20:43:56.077Z</time>
      </trkpt>
      <trkpt lat="63.80453" lon="20.2006">
        <ele>17.011316</ele>
        <time>2020-08-28T20:44:05.434Z</time>
      </trkpt>
      <trkpt lat="63.80411" lon="20.20076">
        <ele>17.258114</ele>
        <time>2020-08-28T20:44:13.918Z</time>
      </trkpt>
      <trkpt lat="63.80178" lon="20.20164">
        <ele>19.072884</ele>
        <time>2020-08-28T20:45:02.284Z</time>
      </trkpt>
      <trkpt lat="63.8013" lon="20.20183">
        <ele>19.36375</ele>
        <time>2020-08-28T20:45:12.253Z</time>
      </trkpt>
      <trkpt lat="63.8011" lon="20.2019">
        <ele>19.481635</ele>
        <time>2020-08-28T20:45:16.203Z</time>
      </trkpt>
      <trkpt lat="63.80031" lon="20.20219">
        <ele>19.960323</ele>
        <time>2020-08-28T20:45:31.943Z</time>
      </trkpt>
      <trkpt lat="63.79972" lon="20.20263">
        <ele>20.159417</ele>
        <time>2020-08-28T20:45:43.564Z</time>
      </trkpt>
      <trkpt lat="63.79846" lon="20.20396">
        <ele>20.313852</ele>
        <time>2020-08-28T20:46:08.310Z</time>
      </trkpt>
      <trkpt lat="63.79708" lon="20.2049">
        <ele>21.226373</ele>
        <time>2020-08-28T20:46:35.619Z</time>
      </trkpt>
      <trkpt lat="63.79654" lon="20.20526">
        <ele>21.782909</ele>
        <time>2020-08-28T20:46:48.239Z</time>
      </trkpt>
      <trkpt lat="63.79628" lon="20.20537">
        <ele>22.305268</ele>
        <time>2020-08-28T20:46:54.462Z</time>
      </trkpt>
      <trkpt lat="63.79606" lon="20.20546">
        <ele>22.733277</ele>
        <time>2020-08-28T20:46:59.764Z</time>
      </trkpt>
      <trkpt lat="63.79563" lon="20.20555">
        <ele>23.590844</ele>
        <time>2020-08-28T20:47:10.619Z</time>
      </trkpt>
      <trkpt lat="63.79512" lon="20.2055">
        <ele>24.575933</ele>
        <time>2020-08-28T20:47:23.590Z</time>
      </trkpt>
      <trkpt lat="63.79321" lon="20.20533">
        <ele>28.187011</ele>
        <time>2020-08-28T20:48:10.156Z</time>
      </trkpt>
      <trkpt lat="63.79277" lon="20.20512">
        <ele>28.515528</ele>
        <time>2020-08-28T20:48:19.350Z</time>
      </trkpt>
      <trkpt lat="63.79257" lon="20.20497">
        <ele>28.60208</ele>
        <time>2020-08-28T20:48:23.682Z</time>
      </trkpt>
      <trkpt lat="63.79236" lon="20.20479">
        <ele>28.697339</ele>
        <time>2020-08-28T20:48:28.227Z</time>
      </trkpt>
      <trkpt lat="63.79098" lon="20.2031">
        <ele>28.804345</ele>
        <time>2020-08-28T20:48:55.853Z</time>
      </trkpt>
      <trkpt lat="63.79057" lon="20.20283">
        <ele>28.56999</ele>
        <time>2020-08-28T20:49:02.538Z</time>
      </trkpt>
      <trkpt lat="63.79027" lon="20.20276">
        <ele>28.398574</ele>
        <time>2020-08-28T20:49:07.453Z</time>
      </trkpt>
      <trkpt lat="63.79017" lon="20.20276">
        <ele>28.343759</ele>
        <time>2020-08-28T20:49:08.981Z</time>
      </trkpt>
      <trkpt lat="63.78999" lon="20.20279">
        <ele>28.243958</ele>
        <time>2020-08-28T20:49:11.760Z</time>
      </trkpt>
      <trkpt lat="63.7896" lon="20.20297">
        <ele>27.972224</ele>
        <time>2020-08-28T20:49:18.070Z</time>
      </trkpt>
      <trkpt lat="63.78933" lon="20.2032">
        <ele>27.722761</ele>
        <time>2020-08-28T20:49:22.580Z</time>
      </trkpt>
      <trkpt lat="63.7891" lon="20.20332">
        <ele>27.518357</ele>
        <time>2020-08-28T20:49:26.314Z</time>
      </trkpt>
      <trkpt lat="63.78879" lon="20.20364">
        <ele>27.227206</ele>
        <time>2020-08-28T20:49:31.610Z</time>
      </trkpt>
      <trkpt lat="63.78874" lon="20.20374">
        <ele>27.171841</ele>
        <time>2020-08-28T20:49:32.589Z</time>
      </trkpt>
      <trkpt lat="63.78868" lon="20.20332">
        <ele>27.006047</ele>
        <time>2020-08-28T20:49:35.638Z</time>
      </trkpt>
      <trkpt lat="63.78854" lon="20.20277">
        <ele>26.758525</ele>
        <time>2020-08-28T20:49:40.245Z</time>
      </trkpt>
      <trkpt lat="63.78826" lon="20.20224">
        <ele>26.46402</ele>
        <time>2020-08-28T20:49:46.050Z</time>
      </trkpt>
      <trkpt lat="63.78784" lon="20.202">
        <ele>26.161001</ele>
        <time>2020-08-28T20:49:52.908Z</time>
      </trkpt>
      <trkpt lat="63.7873" lon="20.20208">
        <ele>25.776653</ele>
        <time>2020-08-28T20:50:01.604Z</time>
      </trkpt>
      <trkpt lat="63.78678" lon="20.20229">
        <ele>25.40076</ele>
        <time>2020-08-28T20:50:10.079Z</time>
      </trkpt>
      <trkpt lat="63.7861" lon="20.20256">
        <ele>24.913573</ele>
        <time>2020-08-28T20:50:21.107Z</time>
      </trkpt>
      <trkpt lat="63.7852" lon="20.20291">
        <ele>24.270453</ele>
        <time>2020-08-28T20:50:35.774Z</time>
      </trkpt>
      <trkpt lat="63.78434" lon="20.20322">
        <ele>23.79295</ele>
        <time>2020-08-28T20:50:49.914Z</time>
      </trkpt>
      <trkpt lat="63.78352" lon="20.20347">
        <ele>23.428804</ele>
        <time>2020-08-28T20:51:03.652Z</time>
      </trkpt>
      <trkpt lat="63.78275" lon="20.20373">
        <ele>23.12925</ele>
        <time>2020-08-28T20:51:16.766Z</time>
      </trkpt>
      <trkpt lat="63.78266" lon="20.20375">
        <ele>23.101032</ele>
        <time>2020-08-28T20:51:18.333Z</time>
      </trkpt>
      <trkpt lat="63.78252" lon="20.20378">
        <ele>23.058216</ele>
        <time>2020-08-28T20:51:20.732Z</time>
      </trkpt>
      <trkpt lat="63.78099" lon="20.20386">
        <ele>22.6237</ele>
        <time>2020-08-28T20:51:46.763Z</time>
      </trkpt>
      <trkpt lat="63.77782" lon="20.2035">
        <ele>21.957725</ele>
        <time>2020-08-28T20:52:41.438Z</time>
      </trkpt>
      <trkpt lat="63.77695" lon="20.20339">
        <ele>21.720449</ele>
        <time>2020-08-28T20:52:56.296Z</time>
      </trkpt>
      <trkpt lat="63.77647" lon="20.20334">
        <ele>21.58264</ele>
        <time>2020-08-28T20:53:04.543Z</time>
      </trkpt>
      <trkpt lat="63.77597" lon="20.20329">
        <ele>21.44146</ele>
        <time>2020-08-28T20:53:13.002Z</time>
      </trkpt>
      <trkpt lat="63.77493" lon="20.20323">
        <ele>21.238685</ele>
        <time>2020-08-28T20:53:30.793Z</time>
      </trkpt>
      <trkpt lat="63.77456" lon="20.20327">
        <ele>21.170959</ele>
        <time>2020-08-28T20:53:37.115Z</time>
      </trkpt>
      <trkpt lat="63.77448" lon="20.20327">
        <ele>21.154829</ele>
        <time>2020-08-28T20:53:38.632Z</time>
      </trkpt>
      <trkpt lat="63.773" lon="20.20342">
        <ele>21.033045</ele>
        <time>2020-08-28T20:54:04.630Z</time>
      </trkpt>
      <trkpt lat="63.77243" lon="20.20356">
        <ele>21.007231</ele>
        <time>2020-08-28T20:54:14.865Z</time>
      </trkpt>
      <trkpt lat="63.77152" lon="20.2038">
        <ele>21.000358</ele>
        <time>2020-08-28T20:54:31.227Z</time>
      </trkpt>
      <trkpt lat="63.77047" lon="20.2042">
        <ele>21.000012</ele>
        <time>2020-08-28T20:54:50.170Z</time>
      </trkpt>
      <trkpt lat="63.76972" lon="20.20453">
        <ele>21.000012</ele>
        <time>2020-08-28T20:55:03.900Z</time>
      </trkpt>
      <trkpt lat="63.76934" lon="20.2047">
        <ele>21.000012</ele>
        <time>2020-08-28T20:55:10.753Z</time>
      </trkpt>
      <trkpt lat="63.76863" lon="20.20511">
        <ele>21.000012</ele>
        <time>2020-08-28T20:55:23.829Z</time>
      </trkpt>
      <trkpt lat="63.76663" lon="20.2064">
        <ele>21.000012</ele>
        <time>2020-08-28T20:56:00.888Z</time>
      </trkpt>
      <trkpt lat="63.76466" lon="20.20771">
        <ele>20.950596</ele>
        <time>2020-08-28T20:56:37.581Z</time>
      </trkpt>
      <trkpt lat="63.76451" lon="20.2078">
        <ele>20.938914</ele>
        <time>2020-08-28T20:56:40.358Z</time>
      </trkpt>
      <trkpt lat="63.76432" lon="20.20791">
        <ele>20.924717</ele>
        <time>2020-08-28T20:56:43.726Z</time>
      </trkpt>
      <trkpt lat="63.76366" lon="20.20833">
        <ele>20.87352</ele>
        <time>2020-08-28T20:56:55.827Z</time>
      </trkpt>
      <trkpt lat="63.76273" lon="20.20868">
        <ele>20.659151</ele>
        <time>2020-08-28T20:57:12.029Z</time>
      </trkpt>
      <trkpt lat="63.76207" lon="20.20901">
        <ele>20.492699</ele>
        <time>2020-08-28T20:57:23.503Z</time>
      </trkpt>
      <trkpt lat="63.76193" lon="20.20913">
        <ele>20.456241</ele>
        <time>2020-08-28T20:57:25.986Z</time>
      </trkpt>
      <trkpt lat="63.7615" lon="20.20948">
        <ele>20.35452</ele>
        <time>2020-08-28T20:57:33.790Z</time>
      </trkpt>
      <trkpt lat="63.76105" lon="20.20993">
        <ele>20.248874</ele>
        <time>2020-08-28T20:57:42.296Z</time>
      </trkpt>
      <trkpt lat="63.76087" lon="20.20939">
        <ele>20.18577</ele>
        <time>2020-08-28T20:57:47.406Z</time>
      </trkpt>
      <trkpt lat="63.76079" lon="20.2092">
        <ele>20.161005</ele>
        <time>2020-08-28T20:57:49.407Z</time>
      </trkpt>
      <trkpt lat="63.7607" lon="20.20906">
        <ele>20.138786</ele>
        <time>2020-08-28T20:57:51.197Z</time>
      </trkpt>
      <trkpt lat="63.76026" lon="20.20879">
        <ele>20.041841</ele>
        <time>2020-08-28T20:57:59.282Z</time>
      </trkpt>
      <trkpt lat="63.75965" lon="20.20854">
        <ele>20.027518</ele>
        <time>2020-08-28T20:58:10.162Z</time>
      </trkpt>
      <trkpt lat="63.75729" lon="20.20756">
        <ele>20.054595</ele>
        <time>2020-08-28T20:58:52.973Z</time>
      </trkpt>
      <trkpt lat="63.75581" lon="20.20691">
        <ele>20.354342</ele>
        <time>2020-08-28T20:59:20.409Z</time>
      </trkpt>
      <trkpt lat="63.75542" lon="20.20675">
        <ele>20.470297</ele>
        <time>2020-08-28T20:59:27.891Z</time>
      </trkpt>
      <trkpt lat="63.75507" lon="20.20658">
        <ele>20.57699</ele>
        <time>2020-08-28T20:59:34.891Z</time>
      </trkpt>
      <trkpt lat="63.75501" lon="20.20654">
        <ele>20.593806</ele>
        <time>2020-08-28T20:59:36.129Z</time>
      </trkpt>
      <trkpt lat="63.75296" lon="20.20526">
        <ele>22.093157</ele>
        <time>2020-08-28T21:00:18.959Z</time>
      </trkpt>
      <trkpt lat="63.75175" lon="20.20447">
        <ele>23.024256</ele>
        <time>2020-08-28T21:00:44.340Z</time>
      </trkpt>
      <trkpt lat="63.75133" lon="20.20413">
        <ele>23.39668</ele>
        <time>2020-08-28T21:00:53.523Z</time>
      </trkpt>
      <trkpt lat="63.75089" lon="20.20362">
        <ele>23.867639</ele>
        <time>2020-08-28T21:01:03.781Z</time>
      </trkpt>
      <trkpt lat="63.75065" lon="20.20324">
        <ele>24.152168</ele>
        <time>2020-08-28T21:01:09.968Z</time>
      </trkpt>
      <trkpt lat="63.74998" lon="20.20225">
        <ele>24.911092</ele>
        <time>2020-08-28T21:01:26.648Z</time>
      </trkpt>
      <trkpt lat="63.74982" lon="20.20201">
        <ele>25.121601</ele>
        <time>2020-08-28T21:01:30.796Z</time>
      </trkpt>
      <trkpt lat="63.74899" lon="20.20098">
        <ele>26.183583</ele>
        <time>2020-08-28T21:01:51.182Z</time>
      </trkpt>
      <trkpt lat="63.74631" lon="20.19887">
        <ele>29.669771</ele>
        <time>2020-08-28T21:02:52.763Z</time>
      </trkpt>
      <trkpt lat="63.74523" lon="20.19748">
        <ele>31.409379</ele>
        <time>2020-08-28T21:03:20.462Z</time>
      </trkpt>
      <trkpt lat="63.74506" lon="20.19735">
        <ele>31.663689</ele>
        <time>2020-08-28T21:03:24.628Z</time>
      </trkpt>
      <trkpt lat="63.74468" lon="20.19719">
        <ele>32.360046</ele>
        <time>2020-08-28T21:03:33.622Z</time>
      </trkpt>
      <trkpt lat="63.74418" lon="20.19711">
        <ele>33.266496</ele>
        <time>2020-08-28T21:03:45.197Z</time>
      </trkpt>
      <trkpt lat="63.74335" lon="20.19707">
        <ele>34.776488</ele>
        <time>2020-08-28T21:04:05.220Z</time>
      </trkpt>
      <trkpt lat="63.74318" lon="20.19699">
        <ele>35.123984</ele>
        <time>2020-08-28T21:04:09.654Z</time>
      </trkpt>
      <trkpt lat="63.74273" lon="20.1966">
        <ele>36.180529</ele>
        <time>2020-08-28T21:04:21.352Z</time>
      </trkpt>
      <trkpt lat="63.74217" lon="20.19598">
        <ele>37.550225</ele>
        <time>2020-08-28T21:04:36.922Z</time>
      </trkpt>
      <trkpt lat="63.74197" lon="20.19576">
        <ele>38.044949</ele>
        <time>2020-08-28T21:04:42.599Z</time>
      </trkpt>
      <trkpt lat="63.74128" lon="20.19501">
        <ele>39.793536</ele>
        <time>2020-08-28T21:05:01.534Z</time>
      </trkpt>
      <trkpt lat="63.74086" lon="20.19442">
        <ele>40.99802</ele>
        <time>2020-08-28T21:05:14.708Z</time>
      </trkpt>
      <trkpt lat="63.74024" lon="20.19334">
        <ele>42.8756</ele>
        <time>2020-08-28T21:05:34.674Z</time>
      </trkpt>
      <trkpt lat="63.74002" lon="20.19291">
        <ele>43.553441</ele>
        <time>2020-08-28T21:05:42.270Z</time>
      </trkpt>
      <trkpt lat="63.73979" lon="20.19232">
        <ele>44.291786</ele>
        <time>2020-08-28T21:05:50.943Z</time>
      </trkpt>
      <trkpt lat="63.7392" lon="20.19025">
        <ele>46.649073</ele>
        <time>2020-08-28T21:06:18.220Z</time>
      </trkpt>
      <trkpt lat="63.73888" lon="20.18934">
        <ele>47.559726</ele>
        <time>2020-08-28T21:06:30.026Z</time>
      </trkpt>
      <trkpt lat="63.73831" lon="20.18824">
        <ele>48.665279</ele>
        <time>2020-08-28T21:06:46.625Z</time>
      </trkpt>
      <trkpt lat="63.73757" lon="20.18728">
        <ele>49.933633</ele>
        <time>2020-08-28T21:07:05.666Z</time>
      </trkpt>
      <trkpt lat="63.73723" lon="20.18683">
        <ele>50.568566</ele>
        <time>2020-08-28T21:07:14.567Z</time>
      </trkpt>
      <trkpt lat="63.73657" lon="20.18596">
        <ele>51.790347</ele>
        <time>2020-08-28T21:07:31.949Z</time>
      </trkpt>
      <trkpt lat="63.73603" lon="20.18498">
        <ele>52.939676</ele>
        <time>2020-08-28T21:07:48.168Z</time>
      </trkpt>
      <trkpt lat="63.73519" lon="20.18309">
        <ele>55.168355</ele>
        <time>2020-08-28T21:08:17.133Z</time>
      </trkpt>
      <trkpt lat="63.73503" lon="20.18285">
        <ele>55.538097</ele>
        <time>2020-08-28T21:08:21.784Z</time>
      </trkpt>
      <trkpt lat="63.73478" lon="20.18257">
        <ele>56.060609</ele>
        <time>2020-08-28T21:08:28.326Z</time>
      </trkpt>
      <trkpt lat="63.73467" lon="20.18246">
        <ele>56.200983</ele>
        <time>2020-08-28T21:08:31.171Z</time>
      </trkpt>
      <trkpt lat="63.73313" lon="20.18133">
        <ele>58.117388</ele>
        <time>2020-08-28T21:09:06.644Z</time>
      </trkpt>
      <trkpt lat="63.7322" lon="20.18053">
        <ele>57.900346</ele>
        <time>2020-08-28T21:09:24.542Z</time>
      </trkpt>
      <trkpt lat="63.73219" lon="20.18052">
        <ele>57.894869</ele>
        <time>2020-08-28T21:09:24.862Z</time>
      </trkpt>
      <trkpt lat="63.73027" lon="20.17949">
        <ele>56.121331</ele>
        <time>2020-08-28T21:09:55.409Z</time>
      </trkpt>
      <trkpt lat="63.72819" lon="20.17863">
        <ele>52.569011</ele>
        <time>2020-08-28T21:10:25.461Z</time>
      </trkpt>
      <trkpt lat="63.72698" lon="20.17801">
        <ele>50.307624</ele>
        <time>2020-08-28T21:10:43.471Z</time>
      </trkpt>
      <trkpt lat="63.72623" lon="20.17762">
        <ele>48.927223</ele>
        <time>2020-08-28T21:10:54.373Z</time>
      </trkpt>
      <trkpt lat="63.72609" lon="20.17755">
        <ele>48.66317</ele>
        <time>2020-08-28T21:10:56.409Z</time>
      </trkpt>
      <trkpt lat="63.72579" lon="20.17727">
        <ele>47.969873</ele>
        <time>2020-08-28T21:11:01.056Z</time>
      </trkpt>
      <trkpt lat="63.72545" lon="20.17675">
        <ele>47.113775</ele>
        <time>2020-08-28T21:11:06.688Z</time>
      </trkpt>
      <trkpt lat="63.72357" lon="20.17245">
        <ele>41.709673</ele>
        <time>2020-08-28T21:11:44.137Z</time>
      </trkpt>
      <trkpt lat="63.72293" lon="20.17144">
        <ele>40.645441</ele>
        <time>2020-08-28T21:11:55.724Z</time>
      </trkpt>
      <trkpt lat="63.72245" lon="20.17089">
        <ele>40.021958</ele>
        <time>2020-08-28T21:12:03.939Z</time>
      </trkpt>
      <trkpt lat="63.72202" lon="20.17048">
        <ele>39.478999</ele>
        <time>2020-08-28T21:12:11.242Z</time>
      </trkpt>
      <trkpt lat="63.72155" lon="20.17012">
        <ele>39.030843</ele>
        <time>2020-08-28T21:12:19.148Z</time>
      </trkpt>
      <trkpt lat="63.72099" lon="20.16981">
        <ele>38.614076</ele>
        <time>2020-08-28T21:12:28.369Z</time>
      </trkpt>
      <trkpt lat="63.72048" lon="20.16951">
        <ele>38.237155</ele>
        <time>2020-08-28T21:12:36.943Z</time>
      </trkpt>
      <trkpt lat="63.72031" lon="20.16939">
        <ele>38.105722</ele>
        <time>2020-08-28T21:12:39.863Z</time>
      </trkpt>
      <trkpt lat="63.72023" lon="20.16933">
        <ele>38.048601</ele>
        <time>2020-08-28T21:12:41.219Z</time>
      </trkpt>
      <trkpt lat="63.72005" lon="20.16916">
        <ele>37.912222</ele>
        <time>2020-08-28T21:12:44.413Z</time>
      </trkpt>
      <trkpt lat="63.71869" lon="20.16783">
        <ele>37.019667</ele>
        <time>2020-08-28T21:13:08.346Z</time>
      </trkpt>
      <trkpt lat="63.71841" lon="20.16766">
        <ele>36.844372</ele>
        <time>2020-08-28T21:13:13.080Z</time>
      </trkpt>
      <trkpt lat="63.71819" lon="20.16774">
        <ele>36.702271</ele>
        <time>2020-08-28T21:13:16.840Z</time>
      </trkpt>
      <trkpt lat="63.71709" lon="20.16882">
        <ele>35.962736</ele>
        <time>2020-08-28T21:13:36.216Z</time>
      </trkpt>
      <trkpt lat="63.71686" lon="20.16895">
        <ele>35.817655</ele>
        <time>2020-08-28T21:13:39.997Z</time>
      </trkpt>
      <trkpt lat="63.71651" lon="20.16898">
        <ele>35.586701</ele>
        <time>2020-08-28T21:13:45.603Z</time>
      </trkpt>
      <trkpt lat="63.71578" lon="20.16878">
        <ele>35.07908</ele>
        <time>2020-08-28T21:13:57.524Z</time>
      </trkpt>
      <trkpt lat="63.71548" lon="20.16849">
        <ele>34.861132</ele>
        <time>2020-08-28T21:14:02.646Z</time>
      </trkpt>
      <trkpt lat="63.7148" lon="20.16725">
        <ele>34.261703</ele>
        <time>2020-08-28T21:14:16.811Z</time>
      </trkpt>
      <trkpt lat="63.71455" lon="20.16701">
        <ele>34.078268</ele>
        <time>2020-08-28T21:14:21.160Z</time>
      </trkpt>
      <trkpt lat="63.71375" lon="20.16676">
        <ele>33.527148</ele>
        <time>2020-08-28T21:14:34.259Z</time>
      </trkpt>
      <trkpt lat="63.7133" lon="20.16649">
        <ele>33.21804</ele>
        <time>2020-08-28T21:14:41.761Z</time>
      </trkpt>
      <trkpt lat="63.71285" lon="20.16599">
        <ele>32.905246</ele>
        <time>2020-08-28T21:14:49.838Z</time>
      </trkpt>
      <trkpt lat="63.70915" lon="20.16156">
        <ele>30.44751</ele>
        <time>2020-08-28T21:15:57.639Z</time>
      </trkpt>
      <trkpt lat="63.70825" lon="20.16047">
        <ele>30.102435</ele>
        <time>2020-08-28T21:16:15.169Z</time>
      </trkpt>
      <trkpt lat="63.70747" lon="20.15938">
        <ele>29.992659</ele>
        <time>2020-08-28T21:16:31.373Z</time>
      </trkpt>
      <trkpt lat="63.70741" lon="20.15925">
        <ele>29.9831</ele>
        <time>2020-08-28T21:16:32.794Z</time>
      </trkpt>
      <trkpt lat="63.70716" lon="20.15867">
        <ele>29.940066</ele>
        <time>2020-08-28T21:16:39.172Z</time>
      </trkpt>
      <trkpt lat="63.70608" lon="20.15626">
        <ele>29.925328</ele>
        <time>2020-08-28T21:17:06.150Z</time>
      </trkpt>
      <trkpt lat="63.70581" lon="20.1557">
        <ele>29.926202</ele>
        <time>2020-08-28T21:17:12.737Z</time>
      </trkpt>
      <trkpt lat="63.70565" lon="20.15538">
        <ele>29.93546</ele>
        <time>2020-08-28T21:17:16.615Z</time>
      </trkpt>
      <trkpt lat="63.70537" lon="20.15479">
        <ele>29.952181</ele>
        <time>2020-08-28T21:17:23.579Z</time>
      </trkpt>
      <trkpt lat="63.7052" lon="20.1545">
        <ele>29.96133</ele>
        <time>2020-08-28T21:17:27.376Z</time>
      </trkpt>
      <trkpt lat="63.70518" lon="20.15447">
        <ele>29.962374</ele>
        <time>2020-08-28T21:17:27.820Z</time>
      </trkpt>
      <trkpt lat="63.70495" lon="20.1541">
        <ele>29.974286</ele>
        <time>2020-08-28T21:17:32.779Z</time>
      </trkpt>
      <trkpt lat="63.70415" lon="20.15342">
        <ele>30.02806</ele>
        <time>2020-08-28T21:17:48.217Z</time>
      </trkpt>
      <trkpt lat="63.70355" lon="20.15221">
        <ele>30.114396</ele>
        <time>2020-08-28T21:18:02.585Z</time>
      </trkpt>
      <trkpt lat="63.70255" lon="20.15094">
        <ele>30.429402</ele>
        <time>2020-08-28T21:18:23.850Z</time>
      </trkpt>
      <trkpt lat="63.70214" lon="20.15065">
        <ele>30.673979</ele>
        <time>2020-08-28T21:18:31.990Z</time>
      </trkpt>
      <trkpt lat="63.70195" lon="20.15051">
        <ele>30.79065</ele>
        <time>2020-08-28T21:18:36.003Z</time>
      </trkpt>
      <trkpt lat="63.70125" lon="20.14968">
        <ele>31.246414</ele>
        <time>2020-08-28T21:18:52.271Z</time>
      </trkpt>
      <trkpt lat="63.7009" lon="20.14961">
        <ele>31.470889</ele>
        <time>2020-08-28T21:18:59.685Z</time>
      </trkpt>
      <trkpt lat="63.70025" lon="20.14977">
        <ele>31.886498</ele>
        <time>2020-08-28T21:19:12.932Z</time>
      </trkpt>
      <trkpt lat="63.7002" lon="20.14974">
        <ele>31.920087</ele>
        <time>2020-08-28T21:19:14.154Z</time>
      </trkpt>
      <trkpt lat="63.6999" lon="20.14957">
        <ele>32.116936</ele>
        <time>2020-08-28T21:19:20.075Z</time>
      </trkpt>
      <trkpt lat="63.6998" lon="20.14951">
        <ele>32.187347</ele>
        <time>2020-08-28T21:19:22.331Z</time>
      </trkpt>
      <trkpt lat="63.69926" lon="20.14895">
        <ele>32.274084</ele>
        <time>2020-08-28T21:19:33.181Z</time>
      </trkpt>
      <trkpt lat="63.69863" lon="20.14806">
        <ele>32.025106</ele>
        <time>2020-08-28T21:19:46.154Z</time>
      </trkpt>
      <trkpt lat="63.69716" lon="20.14564">
        <ele>31.033787</ele>
        <time>2020-08-28T21:20:14.944Z</time>
      </trkpt>
      <trkpt lat="63.69688" lon="20.14487">
        <ele>30.724025</ele>
        <time>2020-08-28T21:20:22.123Z</time>
      </trkpt>
      <trkpt lat="63.69622" lon="20.14225">
        <ele>30.241769</ele>
        <time>2020-08-28T21:20:44.430Z</time>
      </trkpt>
      <trkpt lat="63.69601" lon="20.14183">
        <ele>30.164417</ele>
        <time>2020-08-28T21:20:49.411Z</time>
      </trkpt>
      <trkpt lat="63.69566" lon="20.14146">
        <ele>30.060344</ele>
        <time>2020-08-28T21:20:56.168Z</time>
      </trkpt>
      <trkpt lat="63.69393" lon="20.14009">
        <ele>30.001065</ele>
        <time>2020-08-28T21:21:28.793Z</time>
      </trkpt>
      <trkpt lat="63.69308" lon="20.13926">
        <ele>30.000012</ele>
        <time>2020-08-28T21:21:45.208Z</time>
      </trkpt>
      <trkpt lat="63.69279" lon="20.13918">
        <ele>30.000012</ele>
        <time>2020-08-28T21:21:50.371Z</time>
      </trkpt>
      <trkpt lat="63.69218" lon="20.13934">
        <ele>30.000012</ele>
        <time>2020-08-28T21:22:01.326Z</time>
      </trkpt>
      <trkpt lat="63.69056" lon="20.13875">
        <ele>30.000012</ele>
        <time>2020-08-28T21:22:30.665Z</time>
      </trkpt>
      <trkpt lat="63.68904" lon="20.13861">
        <ele>30.000012</ele>
        <time>2020-08-28T21:22:57.837Z</time>
      </trkpt>
      <trkpt lat="63.68882" lon="20.13842">
        <ele>30.000012</ele>
        <time>2020-08-28T21:23:01.956Z</time>
      </trkpt>
      <trkpt lat="63.68821" lon="20.13756">
        <ele>29.997253</ele>
        <time>2020-08-28T21:23:14.775Z</time>
      </trkpt>
      <trkpt lat="63.68785" lon="20.13722">
        <ele>29.995058</ele>
        <time>2020-08-28T21:23:21.776Z</time>
      </trkpt>
      <trkpt lat="63.68736" lon="20.13698">
        <ele>29.992258</ele>
        <time>2020-08-28T21:23:30.696Z</time>
      </trkpt>
      <trkpt lat="63.68692" lon="20.13695">
        <ele>29.98242</ele>
        <time>2020-08-28T21:23:38.590Z</time>
      </trkpt>
      <trkpt lat="63.68652" lon="20.13705">
        <ele>29.889053</ele>
        <time>2020-08-28T21:23:45.669Z</time>
      </trkpt>
      <trkpt lat="63.68593" lon="20.13691">
        <ele>29.750738</ele>
        <time>2020-08-28T21:23:56.032Z</time>
      </trkpt>
      <trkpt lat="63.68554" lon="20.13668">
        <ele>29.65714</ele>
        <time>2020-08-28T21:24:02.911Z</time>
      </trkpt>
      <trkpt lat="63.68482" lon="20.13595">
        <ele>29.264545</ele>
        <time>2020-08-28T21:24:16.028Z</time>
      </trkpt>
      <trkpt lat="63.68448" lon="20.1358">
        <ele>29.010204</ele>
        <time>2020-08-28T21:24:21.555Z</time>
      </trkpt>
      <trkpt lat="63.68415" lon="20.13593">
        <ele>28.770356</ele>
        <time>2020-08-28T21:24:26.731Z</time>
      </trkpt>
      <trkpt lat="63.6838" lon="20.13625">
        <ele>28.49626</ele>
        <time>2020-08-28T21:24:32.615Z</time>
      </trkpt>
      <trkpt lat="63.6833" lon="20.1363">
        <ele>28.125826</ele>
        <time>2020-08-28T21:24:40.596Z</time>
      </trkpt>
      <trkpt lat="63.68309" lon="20.13621">
        <ele>27.973804</ele>
        <time>2020-08-28T21:24:43.778Z</time>
      </trkpt>
      <trkpt lat="63.68119" lon="20.1346">
        <ele>26.783837</ele>
        <time>2020-08-28T21:25:16.515Z</time>
      </trkpt>
      <trkpt lat="63.68093" lon="20.13434">
        <ele>26.710692</ele>
        <time>2020-08-28T21:25:21.508Z</time>
      </trkpt>
      <trkpt lat="63.68062" lon="20.13379">
        <ele>26.608933</ele>
        <time>2020-08-28T21:25:28.570Z</time>
      </trkpt>
      <trkpt lat="63.68024" lon="20.13293">
        <ele>26.460134</ele>
        <time>2020-08-28T21:25:38.250Z</time>
      </trkpt>
      <trkpt lat="63.68005" lon="20.13224">
        <ele>26.304922</ele>
        <time>2020-08-28T21:25:44.595Z</time>
      </trkpt>
      <trkpt lat="63.67978" lon="20.13171">
        <ele>26.153082</ele>
        <time>2020-08-28T21:25:50.698Z</time>
      </trkpt>
      <trkpt lat="63.67947" lon="20.13149">
        <ele>26.009966</ele>
        <time>2020-08-28T21:25:56.275Z</time>
      </trkpt>
      <trkpt lat="63.6785" lon="20.13144">
        <ele>25.36455</ele>
        <time>2020-08-28T21:26:11.787Z</time>
      </trkpt>
      <trkpt lat="63.67744" lon="20.13068">
        <ele>23.924724</ele>
        <time>2020-08-28T21:26:28.306Z</time>
      </trkpt>
      <trkpt lat="63.6765" lon="20.13056">
        <ele>22.793316</ele>
        <time>2020-08-28T21:26:42.171Z</time>
      </trkpt>
      <trkpt lat="63.67622" lon="20.13022">
        <ele>22.43443</ele>
        <time>2020-08-28T21:26:46.900Z</time>
      </trkpt>
      <trkpt lat="63.67587" lon="20.12963">
        <ele>21.949785</ele>
        <time>2020-08-28T21:26:53.463Z</time>
      </trkpt>
      <trkpt lat="63.67511" lon="20.12886">
        <ele>21.18578</ele>
        <time>2020-08-28T21:27:06.812Z</time>
      </trkpt>
      <trkpt lat="63.67494" lon="20.12881">
        <ele>21.088663</ele>
        <time>2020-08-28T21:27:09.733Z</time>
      </trkpt>
      <trkpt lat="63.67486" lon="20.12851">
        <ele>21.005835</ele>
        <time>2020-08-28T21:27:12.312Z</time>
      </trkpt>
      <trkpt lat="63.67445" lon="20.12697">
        <ele>20.572306</ele>
        <time>2020-08-28T21:27:25.566Z</time>
      </trkpt>
      <trkpt lat="63.67415" lon="20.12587">
        <ele>20.144348</ele>
        <time>2020-08-28T21:27:35.050Z</time>
      </trkpt>
      <trkpt lat="63.67394" lon="20.12465">
        <ele>19.50192</ele>
        <time>2020-08-28T21:27:44.488Z</time>
      </trkpt>
      <trkpt lat="63.67366" lon="20.12312">
        <ele>18.689949</ele>
        <time>2020-08-28T21:27:55.557Z</time>
      </trkpt>
      <trkpt lat="63.6735" lon="20.12117">
        <ele>17.121005</ele>
        <time>2020-08-28T21:28:08.054Z</time>
      </trkpt>
      <trkpt lat="63.67357" lon="20.12063">
        <ele>16.599462</ele>
        <time>2020-08-28T21:28:11.504Z</time>
      </trkpt>
      <trkpt lat="63.67354" lon="20.11942">
        <ele>15.464994</ele>
        <time>2020-08-28T21:28:18.978Z</time>
      </trkpt>
      <trkpt lat="63.67367" lon="20.11719">
        <ele>13.727309</ele>
        <time>2020-08-28T21:28:32.635Z</time>
      </trkpt>
      <trkpt lat="63.6737" lon="20.11662">
        <ele>13.345892</ele>
        <time>2020-08-28T21:28:36.205Z</time>
      </trkpt>
      <trkpt lat="63.67381" lon="20.11486">
        <ele>12.178003</ele>
        <time>2020-08-28T21:28:48.048Z</time>
      </trkpt>
      <trkpt lat="63.67388" lon="20.11364">
        <ele>12.660936</ele>
        <time>2020-08-28T21:28:57.969Z</time>
      </trkpt>
      <trkpt lat="63.67393" lon="20.11295">
        <ele>13.284701</ele>
        <time>2020-08-28T21:29:04.541Z</time>
      </trkpt>
      <trkpt lat="63.67403" lon="20.11215">
        <ele>14.026974</ele>
        <time>2020-08-28T21:29:13.478Z</time>
      </trkpt>
      <trkpt lat="63.67441" lon="20.11057">
        <ele>15.743885</ele>
        <time>2020-08-28T21:29:36.239Z</time>
      </trkpt>
      <trkpt lat="63.67526" lon="20.10744">
        <ele>22.944258</ele>
        <time>2020-08-28T21:30:30.199Z</time>
      </trkpt>
      <trkpt lat="63.67548" lon="20.10599">
        <ele>24.974311</ele>
        <time>2020-08-28T21:30:50.840Z</time>
      </trkpt>
      <trkpt lat="63.67553" lon="20.10523">
        <ele>25.893603</ele>
        <time>2020-08-28T21:31:00.275Z</time>
      </trkpt>
      <trkpt lat="63.6755" lon="20.10436">
        <ele>26.920454</ele>
        <time>2020-08-28T21:31:10.019Z</time>
      </trkpt>
      <trkpt lat="63.67534" lon="20.10354">
        <ele>27.977801</ele>
        <time>2020-08-28T21:31:19.145Z</time>
      </trkpt>
      <trkpt lat="63.6746" lon="20.10057">
        <ele>29.162576</ele>
        <time>2020-08-28T21:31:49.270Z</time>
      </trkpt>
      <trkpt lat="63.67448" lon="20.09984">
        <ele>29.373833</ele>
        <time>2020-08-28T21:31:55.589Z</time>
      </trkpt>
      <trkpt lat="63.67442" lon="20.09865">
        <ele>29.518532</ele>
        <time>2020-08-28T21:32:05.444Z</time>
      </trkpt>
      <trkpt lat="63.67446" lon="20.09811">
        <ele>29.574324</ele>
        <time>2020-08-28T21:32:10.032Z</time>
      </trkpt>
      <trkpt lat="63.6748" lon="20.09707">
        <ele>29.703368</ele>
        <time>2020-08-28T21:32:20.670Z</time>
      </trkpt>
      <trkpt lat="63.67494" lon="20.09638">
        <ele>29.779124</ele>
        <time>2020-08-28T21:32:26.886Z</time>
      </trkpt>
      <trkpt lat="63.67512" lon="20.09388">
        <ele>29.91419</ele>
        <time>2020-08-28T21:32:47.397Z</time>
      </trkpt>
      <trkpt lat="63.67524" lon="20.09309">
        <ele>29.951199</ele>
        <time>2020-08-28T21:32:54.037Z</time>
      </trkpt>
      <trkpt lat="63.67536" lon="20.09263">
        <ele>29.975033</ele>
        <time>2020-08-28T21:32:58.288Z</time>
      </trkpt>
      <trkpt lat="63.67552" lon="20.09214">
        <ele>29.998952</ele>
        <time>2020-08-28T21:33:03.105Z</time>
      </trkpt>
      <trkpt lat="63.67574" lon="20.09136">
        <ele>29.980765</ele>
        <time>2020-08-28T21:33:10.441Z</time>
      </trkpt>
      <trkpt lat="63.67596" lon="20.09074">
        <ele>29.965364</ele>
        <time>2020-08-28T21:33:16.629Z</time>
      </trkpt>
      <trkpt lat="63.67602" lon="20.09028">
        <ele>29.955878</ele>
        <time>2020-08-28T21:33:20.440Z</time>
      </trkpt>
      <trkpt lat="63.67592" lon="20.08908">
        <ele>29.932003</ele>
        <time>2020-08-28T21:33:30.049Z</time>
      </trkpt>
      <trkpt lat="63.67575" lon="20.08789">
        <ele>29.911971</ele>
        <time>2020-08-28T21:33:39.900Z</time>
      </trkpt>
      <trkpt lat="63.67574" lon="20.08744">
        <ele>29.906178</ele>
        <time>2020-08-28T21:33:43.457Z</time>
      </trkpt>
      <trkpt lat="63.67582" lon="20.08705">
        <ele>29.900582</ele>
        <time>2020-08-28T21:33:46.896Z</time>
      </trkpt>
      <trkpt lat="63.67596" lon="20.08674">
        <ele>29.894925</ele>
        <time>2020-08-28T21:33:50.396Z</time>
      </trkpt>
      <trkpt lat="63.67644" lon="20.08604">
        <ele>29.878245</ele>
        <time>2020-08-28T21:34:00.661Z</time>
      </trkpt>
      <trkpt lat="63.6769" lon="20.08491">
        <ele>29.625108</ele>
        <time>2020-08-28T21:34:12.547Z</time>
      </trkpt>
      <trkpt lat="63.67697" lon="20.08453">
        <ele>29.490626</ele>
        <time>2020-08-28T21:34:15.729Z</time>
      </trkpt>
      <trkpt lat="63.67699" lon="20.08406">
        <ele>29.337431</ele>
        <time>2020-08-28T21:34:19.332Z</time>
      </trkpt>
      <trkpt lat="63.6769" lon="20.08239">
        <ele>28.795408</ele>
        <time>2020-08-28T21:34:31.375Z</time>
      </trkpt>
      <trkpt lat="63.67693" lon="20.08172">
        <ele>28.578057</ele>
        <time>2020-08-28T21:34:35.699Z</time>
      </trkpt>
      <trkpt lat="63.67702" lon="20.08102">
        <ele>27.786216</ele>
        <time>2020-08-28T21:34:40.346Z</time>
      </trkpt>
      <trkpt lat="63.67718" lon="20.08021">
        <ele>26.758949</ele>
        <time>2020-08-28T21:34:45.763Z</time>
      </trkpt>
      <trkpt lat="63.67722" lon="20.07965">
        <ele>26.103098</ele>
        <time>2020-08-28T21:34:49.252Z</time>
      </trkpt>
      <trkpt lat="63.67724" lon="20.0794">
        <ele>25.816635</ele>
        <time>2020-08-28T21:34:50.671Z</time>
      </trkpt>
      <trkpt lat="63.67726" lon="20.07852">
        <ele>24.796621</ele>
        <time>2020-08-28T21:34:55.867Z</time>
      </trkpt>
      <trkpt lat="63.67729" lon="20.07793">
        <ele>24.109255</ele>
        <time>2020-08-28T21:34:59.362Z</time>
      </trkpt>
      <trkpt lat="63.67762" lon="20.07535">
        <ele>20.204225</ele>
        <time>2020-08-28T21:35:14.639Z</time>
      </trkpt>
      <trkpt lat="63.67763" lon="20.07502">
        <ele>19.71345</ele>
        <time>2020-08-28T21:35:16.585Z</time>
      </trkpt>
      <trkpt lat="63.67762" lon="20.07452">
        <ele>18.97474</ele>
        <time>2020-08-28T21:35:19.513Z</time>
      </trkpt>
      <trkpt lat="63.67737" lon="20.07248">
        <ele>16.111943</ele>
        <time>2020-08-28T21:35:31.816Z</time>
      </trkpt>
      <trkpt lat="63.67737" lon="20.07151">
        <ele>14.859179</ele>
        <time>2020-08-28T21:35:37.440Z</time>
      </trkpt>
      <trkpt lat="63.67743" lon="20.07013">
        <ele>13.070237</ele>
        <time>2020-08-28T21:35:45.730Z</time>
      </trkpt>
      <trkpt lat="63.67746" lon="20.06992">
        <ele>12.784459</ele>
        <time>2020-08-28T21:35:46.997Z</time>
      </trkpt>
      <trkpt lat="63.67748" lon="20.06975">
        <ele>12.589344</ele>
        <time>2020-08-28T21:35:48.016Z</time>
      </trkpt>
      <trkpt lat="63.67837" lon="20.06484">
        <ele>8.602912</ele>
        <time>2020-08-28T21:36:21.826Z</time>
      </trkpt>
      <trkpt lat="63.67905" lon="20.06247">
        <ele>7.414977</ele>
        <time>2020-08-28T21:36:41.900Z</time>
      </trkpt>
      <trkpt lat="63.67922" lon="20.0619">
        <ele>7.405496</ele>
        <time>2020-08-28T21:36:47.148Z</time>
      </trkpt>
      <trkpt lat="63.67937" lon="20.06131">
        <ele>7.396115</ele>
        <time>2020-08-28T21:36:52.485Z</time>
      </trkpt>
      <trkpt lat="63.67947" lon="20.06094">
        <ele>7.390107</ele>
        <time>2020-08-28T21:36:55.965Z</time>
      </trkpt>
      <trkpt lat="63.67982" lon="20.05968">
        <ele>7.369738</ele>
        <time>2020-08-28T21:37:07.939Z</time>
      </trkpt>
      <trkpt lat="63.67997" lon="20.05876">
        <ele>7.401426</ele>
        <time>2020-08-28T21:37:16.097Z</time>
      </trkpt>
      <trkpt lat="63.68028" lon="20.0552">
        <ele>7.901425</ele>
        <time>2020-08-28T21:37:46.493Z</time>
      </trkpt>
      <trkpt lat="63.68034" lon="20.05458">
        <ele>8.009068</ele>
        <time>2020-08-28T21:37:51.787Z</time>
      </trkpt>
      <trkpt lat="63.68043" lon="20.05368">
        <ele>8.172777</ele>
        <time>2020-08-28T21:37:59.486Z</time>
      </trkpt>
      <trkpt lat="63.68088" lon="20.05042">
        <ele>8.813395</ele>
        <time>2020-08-28T21:38:28.680Z</time>
      </trkpt>
      <trkpt lat="63.68095" lon="20.04989">
        <ele>8.938269</ele>
        <time>2020-08-28T21:38:33.539Z</time>
      </trkpt>
      <trkpt lat="63.68134" lon="20.04712">
        <ele>9.575499</ele>
        <time>2020-08-28T21:38:58.789Z</time>
      </trkpt>
      <trkpt lat="63.68143" lon="20.04644">
        <ele>9.677824</ele>
        <time>2020-08-28T21:39:04.899Z</time>
      </trkpt>
      <trkpt lat="63.68165" lon="20.0434">
        <ele>10.123798</ele>
        <time>2020-08-28T21:39:30.489Z</time>
      </trkpt>
      <trkpt lat="63.68166" lon="20.04192">
        <ele>10.088508</ele>
        <time>2020-08-28T21:39:42.272Z</time>
      </trkpt>
      <trkpt lat="63.68154" lon="20.03912">
        <ele>9.982627</ele>
        <time>2020-08-28T21:40:04.017Z</time>
      </trkpt>
      <trkpt lat="63.6815" lon="20.03714">
        <ele>9.783141</ele>
        <time>2020-08-28T21:40:19.096Z</time>
      </trkpt>
      <trkpt lat="63.68147" lon="20.03584">
        <ele>9.652774</ele>
        <time>2020-08-28T21:40:28.977Z</time>
      </trkpt>
      <trkpt lat="63.68134" lon="20.03441">
        <ele>9.592191</ele>
        <time>2020-08-28T21:40:40.235Z</time>
      </trkpt>
      <trkpt lat="63.68088" lon="20.03301">
        <ele>9.596299</ele>
        <time>2020-08-28T21:40:53.843Z</time>
      </trkpt>
      <trkpt lat="63.67995" lon="20.03078">
        <ele>9.760848</ele>
        <time>2020-08-28T21:41:18.660Z</time>
      </trkpt>
      <trkpt lat="63.67966" lon="20.02997">
        <ele>9.866904</ele>
        <time>2020-08-28T21:41:27.187Z</time>
      </trkpt>
      <trkpt lat="63.67962" lon="20.02985">
        <ele>9.881402</ele>
        <time>2020-08-28T21:41:28.327Z</time>
      </trkpt>
      <trkpt lat="63.67951" lon="20.02937">
        <ele>9.937128</ele>
        <time>2020-08-28T21:41:32.882Z</time>
      </trkpt>
      <trkpt lat="63.67949" lon="20.02925">
        <ele>9.95008</ele>
        <time>2020-08-28T21:41:33.952Z</time>
      </trkpt>
      <trkpt lat="63.67944" lon="20.02885">
        <ele>9.992035</ele>
        <time>2020-08-28T21:41:37.390Z</time>
      </trkpt>
      <trkpt lat="63.67937" lon="20.02682">
        <ele>10.664809</ele>
        <time>2020-08-28T21:41:54.952Z</time>
      </trkpt>
      <trkpt lat="63.67937" lon="20.02673">
        <ele>10.69792</ele>
        <time>2020-08-28T21:41:55.734Z</time>
      </trkpt>
      <trkpt lat="63.67931" lon="20.02459">
        <ele>11.463378</ele>
        <time>2020-08-28T21:42:15.724Z</time>
      </trkpt>
      <trkpt lat="63.67938" lon="20.02372">
        <ele>11.918724</ele>
        <time>2020-08-28T21:42:24.847Z</time>
      </trkpt>
      <trkpt lat="63.67962" lon="20.02277">
        <ele>12.483976</ele>
        <time>2020-08-28T21:42:35.956Z</time>
      </trkpt>
      <trkpt lat="63.6799" lon="20.02211">
        <ele>12.949016</ele>
        <time>2020-08-28T21:42:44.738Z</time>
      </trkpt>
      <trkpt lat="63.68028" lon="20.02126">
        <ele>13.534081</ele>
        <time>2020-08-28T21:42:55.824Z</time>
      </trkpt>
      <trkpt lat="63.68065" lon="20.02037">
        <ele>13.257798</ele>
        <time>2020-08-28T21:43:05.877Z</time>
      </trkpt>
      <trkpt lat="63.68089" lon="20.01946">
        <ele>13.015429</ele>
        <time>2020-08-28T21:43:13.860Z</time>
      </trkpt>
      <trkpt lat="63.68098" lon="20.01875">
        <ele>12.847458</ele>
        <time>2020-08-28T21:43:18.888Z</time>
      </trkpt>
      <trkpt lat="63.68095" lon="20.01785">
        <ele>12.641545</ele>
        <time>2020-08-28T21:43:24.701Z</time>
      </trkpt>
      <trkpt lat="63.68065" lon="20.01629">
        <ele>11.783265</ele>
        <time>2020-08-28T21:43:35.713Z</time>
      </trkpt>
      <trkpt lat="63.6806" lon="20.01539">
        <ele>11.310085</ele>
        <time>2020-08-28T21:43:41.794Z</time>
      </trkpt>
      <trkpt lat="63.68059" lon="20.01526">
        <ele>11.241222</ele>
        <time>2020-08-28T21:43:42.617Z</time>
      </trkpt>
      <trkpt lat="63.68051" lon="20.01219">
        <ele>10.299533</ele>
        <time>2020-08-28T21:44:04.676Z</time>
      </trkpt>
      <trkpt lat="63.68049" lon="20.01031">
        <ele>10.063824</ele>
        <time>2020-08-28T21:44:19.467Z</time>
      </trkpt>
      <trkpt lat="63.68053" lon="20.00803">
        <ele>9.997369</ele>
        <time>2020-08-28T21:44:37.624Z</time>
      </trkpt>
      <trkpt lat="63.68015" lon="20.00811">
        <ele>9.9961</ele>
        <time>2020-08-28T21:44:44.381Z</time>
      </trkpt>
      <trkpt lat="63.67964" lon="20.00844">
        <ele>9.994311</ele>
        <time>2020-08-28T21:44:53.886Z</time>
      </trkpt>
      <trkpt lat="63.67929" lon="20.00853">
        <ele>9.934413</ele>
        <time>2020-08-28T21:45:00.189Z</time>
      </trkpt>
      <trkpt lat="63.67925" lon="20.00851">
        <ele>9.924408</ele>
        <time>2020-08-28T21:45:00.939Z</time>
      </trkpt>
      <trkpt lat="63.67894" lon="20.00834">
        <ele>9.849621</ele>
        <time>2020-08-28T21:45:06.506Z</time>
      </trkpt>
      <trkpt lat="63.6786" lon="20.00794">
        <ele>9.757015</ele>
        <time>2020-08-28T21:45:13.187Z</time>
      </trkpt>
      <trkpt lat="63.6785" lon="20.00783">
        <ele>9.732231</ele>
        <time>2020-08-28T21:45:14.945Z</time>
      </trkpt>
      <trkpt lat="63.6782" lon="20.00713">
        <ele>9.629186</ele>
        <time>2020-08-28T21:45:22.142Z</time>
      </trkpt>
      <trkpt lat="63.678" lon="20.00634">
        <ele>9.510419</ele>
        <time>2020-08-28T21:45:28.854Z</time>
      </trkpt>
      <trkpt lat="63.67756" lon="20.00467">
        <ele>9.175365</ele>
        <time>2020-08-28T21:45:43.105Z</time>
      </trkpt>
      <trkpt lat="63.67745" lon="20.00429">
        <ele>9.095943</ele>
        <time>2020-08-28T21:45:46.554Z</time>
      </trkpt>
      <trkpt lat="63.67732" lon="20.00386">
        <ele>9.00634</ele>
        <time>2020-08-28T21:45:50.555Z</time>
      </trkpt>
      <trkpt lat="63.6769" lon="20.00235">
        <ele>8.923452</ele>
        <time>2020-08-28T21:46:04.172Z</time>
      </trkpt>
      <trkpt lat="63.67668" lon="20.00213">
        <ele>8.956654</ele>
        <time>2020-08-28T21:46:08.408Z</time>
      </trkpt>
      <trkpt lat="63.67533" lon="20.00127">
        <ele>9.15696</ele>
        <time>2020-08-28T21:46:34.988Z</time>
      </trkpt>
      <trkpt lat="63.67497" lon="20.00083">
        <ele>9.21678</ele>
        <time>2020-08-28T21:46:42.459Z</time>
      </trkpt>
      <trkpt lat="63.67433" lon="19.99909">
        <ele>9.365521</ele>
        <time>2020-08-28T21:47:00.626Z</time>
      </trkpt>
      <trkpt lat="63.67382" lon="20.00032">
        <ele>9.419509</ele>
        <time>2020-08-28T21:47:13.972Z</time>
      </trkpt>
      <trkpt lat="63.67364" lon="20.0007">
        <ele>9.434037</ele>
        <time>2020-08-28T21:47:18.503Z</time>
      </trkpt>
      <trkpt lat="63.67321" lon="20.00134">
        <ele>9.464005</ele>
        <time>2020-08-28T21:47:27.857Z</time>
      </trkpt>
      <trkpt lat="63.67269" lon="20.00193">
        <ele>9.509014</ele>
        <time>2020-08-28T21:47:38.335Z</time>
      </trkpt>
      <trkpt lat="63.67238" lon="20.00228">
        <ele>9.552588</ele>
        <time>2020-08-28T21:47:44.746Z</time>
      </trkpt>
      <trkpt lat="63.67209" lon="20.00261">
        <ele>9.593808</ele>
        <time>2020-08-28T21:47:50.819Z</time>
      </trkpt>
      <trkpt lat="63.67175" lon="20.00276">
        <ele>9.637037</ele>
        <time>2020-08-28T21:47:57.149Z</time>
      </trkpt>
      <trkpt lat="63.67143" lon="20.0027">
        <ele>9.677935</ele>
        <time>2020-08-28T21:48:03.114Z</time>
      </trkpt>
      <trkpt lat="63.67112" lon="20.00241">
        <ele>9.706342</ele>
        <time>2020-08-28T21:48:09.082Z</time>
      </trkpt>
      <trkpt lat="63.67101" lon="20.0023">
        <ele>9.689451</ele>
        <time>2020-08-28T21:48:11.344Z</time>
      </trkpt>
      <trkpt lat="63.67028" lon="20.00154">
        <ele>9.583349</ele>
        <time>2020-08-28T21:48:25.192Z</time>
      </trkpt>
      <trkpt lat="63.66852" lon="19.99967">
        <ele>9.345622</ele>
        <time>2020-08-28T21:48:59.026Z</time>
      </trkpt>
      <trkpt lat="63.66775" lon="19.99885">
        <ele>9.224752</ele>
        <time>2020-08-28T21:49:13.998Z</time>
      </trkpt>
      <trkpt lat="63.66751" lon="19.99856">
        <ele>9.155824</ele>
        <time>2020-08-28T21:49:18.752Z</time>
      </trkpt>
      <trkpt lat="63.66729" lon="19.99845">
        <ele>9.097608</ele>
        <time>2020-08-28T21:49:22.766Z</time>
      </trkpt>
      <trkpt lat="63.66699" lon="19.99842">
        <ele>9.020557</ele>
        <time>2020-08-28T21:49:28.074Z</time>
      </trkpt>
      <trkpt lat="63.66605" lon="19.99872">
        <ele>8.703492</ele>
        <time>2020-08-28T21:49:43.833Z</time>
      </trkpt>
      <trkpt lat="63.66547" lon="19.99831">
        <ele>8.185672</ele>
        <time>2020-08-28T21:49:53.547Z</time>
      </trkpt>
      <trkpt lat="63.66501" lon="19.99797">
        <ele>7.773634</ele>
        <time>2020-08-28T21:50:01.165Z</time>
      </trkpt>
      <trkpt lat="63.66476" lon="19.99776">
        <ele>7.545539</ele>
        <time>2020-08-28T21:50:05.266Z</time>
      </trkpt>
      <trkpt lat="63.66374" lon="19.9969">
        <ele>6.315196</ele>
        <time>2020-08-28T21:50:21.819Z</time>
      </trkpt>
      <trkpt lat="63.66361" lon="19.99677">
        <ele>6.138973</ele>
        <time>2020-08-28T21:50:24.009Z</time>
      </trkpt>
      <trkpt lat="63.66357" lon="19.99674">
        <ele>6.090681</ele>
        <time>2020-08-28T21:50:24.541Z</time>
      </trkpt>
      <trkpt lat="63.66274" lon="19.99593">
        <ele>4.994027</ele>
        <time>2020-08-28T21:50:38.153Z</time>
      </trkpt>
      <trkpt lat="63.66242" lon="19.99571">
        <ele>4.655218</ele>
        <time>2020-08-28T21:50:43.275Z</time>
      </trkpt>
      <trkpt lat="63.66205" lon="19.99566">
        <ele>4.287457</ele>
        <time>2020-08-28T21:50:48.829Z</time>
      </trkpt>
      <trkpt lat="63.6591" lon="19.9956">
        <ele>1.956272</ele>
        <time>2020-08-28T21:51:35.554Z</time>
      </trkpt>
      <trkpt lat="63.65842" lon="19.99573">
        <ele>2.072383</ele>
        <time>2020-08-28T21:51:47.657Z</time>
      </trkpt>
      <trkpt lat="63.65763" lon="19.99544">
        <ele>2.205989</ele>
        <time>2020-08-28T21:52:02.772Z</time>
      </trkpt>
      <trkpt lat="63.65727" lon="19.9951">
        <ele>2.446587</ele>
        <time>2020-08-28T21:52:10.790Z</time>
      </trkpt>
      <trkpt lat="63.6566" lon="19.99353">
        <ele>3.468054</ele>
        <time>2020-08-28T21:52:31.448Z</time>
      </trkpt>
      <trkpt lat="63.65577" lon="19.99247">
        <ele>4.562344</ele>
        <time>2020-08-28T21:52:52.216Z</time>
      </trkpt>
      <trkpt lat="63.65531" lon="19.99172">
        <ele>5.336415</ele>
        <time>2020-08-28T21:53:05.121Z</time>
      </trkpt>
      <trkpt lat="63.65469" lon="19.99045">
        <ele>6.468196</ele>
        <time>2020-08-28T21:53:23.772Z</time>
      </trkpt>
      <trkpt lat="63.65446" lon="19.99012">
        <ele>6.766533</ele>
        <time>2020-08-28T21:53:29.789Z</time>
      </trkpt>
      <trkpt lat="63.6542" lon="19.98974">
        <ele>7.069452</ele>
        <time>2020-08-28T21:53:36.318Z</time>
      </trkpt>
      <trkpt lat="63.65393" lon="19.98937">
        <ele>7.385627</ele>
        <time>2020-08-28T21:53:43.023Z</time>
      </trkpt>
      <trkpt lat="63.65364" lon="19.98921">
        <ele>7.678686</ele>
        <time>2020-08-28T21:53:49.188Z</time>
      </trkpt>
      <trkpt lat="63.65352" lon="19.98914">
        <ele>7.805304</ele>
        <time>2020-08-28T21:53:51.831Z</time>
      </trkpt>
      <trkpt lat="63.65295" lon="19.98911">
        <ele>8.363257</ele>
        <time>2020-08-28T21:54:03.343Z</time>
      </trkpt>
      <trkpt lat="63.65283" lon="19.98912">
        <ele>8.47091</ele>
        <time>2020-08-28T21:54:05.772Z</time>
      </trkpt>
      <trkpt lat="63.65165" lon="19.98927">
        <ele>9.511156</ele>
        <time>2020-08-28T21:54:29.416Z</time>
      </trkpt>
      <trkpt lat="63.65137" lon="19.98915">
        <ele>9.764334</ele>
        <time>2020-08-28T21:54:35.444Z</time>
      </trkpt>
      <trkpt lat="63.65096" lon="19.98858">
        <ele>10.490728</ele>
        <time>2020-08-28T21:54:46.138Z</time>
      </trkpt>
      <trkpt lat="63.65064" lon="19.98765">
        <ele>11.481713</ele>
        <time>2020-08-28T21:54:58.301Z</time>
      </trkpt>
      <trkpt lat="63.65041" lon="19.98729">
        <ele>12.012582</ele>
        <time>2020-08-28T21:55:05.095Z</time>
      </trkpt>
      <trkpt lat="63.6502" lon="19.98713">
        <ele>12.442342</ele>
        <time>2020-08-28T21:55:10.696Z</time>
      </trkpt>
      <trkpt lat="63.64941" lon="19.98721">
        <ele>14.103805</ele>
        <time>2020-08-28T21:55:30.522Z</time>
      </trkpt>
      <trkpt lat="63.64913" lon="19.98707">
        <ele>14.817735</ele>
        <time>2020-08-28T21:55:38.614Z</time>
      </trkpt>
      <trkpt lat="63.64881" lon="19.98676">
        <ele>15.690799</ele>
        <time>2020-08-28T21:55:48.207Z</time>
      </trkpt>
      <trkpt lat="63.64811" lon="19.98548">
        <ele>17.861642</ele>
        <time>2020-08-28T21:56:10.931Z</time>
      </trkpt>
      <trkpt lat="63.64806" lon="19.9853">
        <ele>17.980317</ele>
        <time>2020-08-28T21:56:13.747Z</time>
      </trkpt>
      <trkpt lat="63.64791" lon="19.98483">
        <ele>18.293642</ele>
        <time>2020-08-28T21:56:19.358Z</time>
      </trkpt>
      <trkpt lat="63.64754" lon="19.98315">
        <ele>19.316892</ele>
        <time>2020-08-28T21:56:38.269Z</time>
      </trkpt>
      <trkpt lat="63.64739" lon="19.98276">
        <ele>19.591255</ele>
        <time>2020-08-28T21:56:42.509Z</time>
      </trkpt>
      <trkpt lat="63.64663" lon="19.98168">
        <ele>20.018715</ele>
        <time>2020-08-28T21:56:59.246Z</time>
      </trkpt>
      <trkpt lat="63.6463" lon="19.98118">
        <ele>20.023985</ele>
        <time>2020-08-28T21:57:06.082Z</time>
      </trkpt>
      <trkpt lat="63.64611" lon="19.98073">
        <ele>20.02774</ele>
        <time>2020-08-28T21:57:10.960Z</time>
      </trkpt>
      <trkpt lat="63.6457" lon="19.97975">
        <ele>20.034748</ele>
        <time>2020-08-28T21:57:21.430Z</time>
      </trkpt>
      <trkpt lat="63.64552" lon="19.97901">
        <ele>20.027387</ele>
        <time>2020-08-28T21:57:28.010Z</time>
      </trkpt>
      <trkpt lat="63.64539" lon="19.97817">
        <ele>20.01962</ele>
        <time>2020-08-28T21:57:35.017Z</time>
      </trkpt>
      <trkpt lat="63.64465" lon="19.97629">
        <ele>20.000012</ele>
        <time>2020-08-28T21:57:54.927Z</time>
      </trkpt>
      <trkpt lat="63.64431" lon="19.97515">
        <ele>20.000012</ele>
        <time>2020-08-28T21:58:05.739Z</time>
      </trkpt>
      <trkpt lat="63.64415" lon="19.97485">
        <ele>20.000012</ele>
        <time>2020-08-28T21:58:09.440Z</time>
      </trkpt>
      <trkpt lat="63.64317" lon="19.97367">
        <ele>20.000012</ele>
        <time>2020-08-28T21:58:29.404Z</time>
      </trkpt>
      <trkpt lat="63.64293" lon="19.97325">
        <ele>20.000012</ele>
        <time>2020-08-28T21:58:34.768Z</time>
      </trkpt>
      <trkpt lat="63.64274" lon="19.9727">
        <ele>20.000012</ele>
        <time>2020-08-28T21:58:40.297Z</time>
      </trkpt>
      <trkpt lat="63.64262" lon="19.97221">
        <ele>20.000012</ele>
        <time>2020-08-28T21:58:44.711Z</time>
      </trkpt>
      <trkpt lat="63.64253" lon="19.97053">
        <ele>20.000012</ele>
        <time>2020-08-28T21:58:58.170Z</time>
      </trkpt>
      <trkpt lat="63.64224" lon="19.96914">
        <ele>20.000012</ele>
        <time>2020-08-28T21:59:10.299Z</time>
      </trkpt>
      <trkpt lat="63.64167" lon="19.96725">
        <ele>20.000012</ele>
        <time>2020-08-28T21:59:28.409Z</time>
      </trkpt>
      <trkpt lat="63.6413" lon="19.96583">
        <ele>20.000012</ele>
        <time>2020-08-28T21:59:41.513Z</time>
      </trkpt>
      <trkpt lat="63.64119" lon="19.96503">
        <ele>20.000012</ele>
        <time>2020-08-28T21:59:48.128Z</time>
      </trkpt>
      <trkpt lat="63.64115" lon="19.96393">
        <ele>20.000012</ele>
        <time>2020-08-28T21:59:56.833Z</time>
      </trkpt>
      <trkpt lat="63.64113" lon="19.96219">
        <ele>20.000012</ele>
        <time>2020-08-28T22:00:10.686Z</time>
      </trkpt>
      <trkpt lat="63.64133" lon="19.9603">
        <ele>20.000012</ele>
        <time>2020-08-28T22:00:26.039Z</time>
      </trkpt>
      <trkpt lat="63.64134" lon="19.95867">
        <ele>20.0243</ele>
        <time>2020-08-28T22:00:38.934Z</time>
      </trkpt>
      <trkpt lat="63.64119" lon="19.95796">
        <ele>20.051618</ele>
        <time>2020-08-28T22:00:45.186Z</time>
      </trkpt>
      <trkpt lat="63.64094" lon="19.95721">
        <ele>20.083631</ele>
        <time>2020-08-28T22:00:52.548Z</time>
      </trkpt>
      <trkpt lat="63.64044" lon="19.9563">
        <ele>20.134107</ele>
        <time>2020-08-28T22:01:04.343Z</time>
      </trkpt>
      <trkpt lat="63.64013" lon="19.95554">
        <ele>20.481502</ele>
        <time>2020-08-28T22:01:12.806Z</time>
      </trkpt>
      <trkpt lat="63.64001" lon="19.95496">
        <ele>20.738774</ele>
        <time>2020-08-28T22:01:18.198Z</time>
      </trkpt>
      <trkpt lat="63.63994" lon="19.95432">
        <ele>21.002308</ele>
        <time>2020-08-28T22:01:23.983Z</time>
      </trkpt>
      <trkpt lat="63.63992" lon="19.95355">
        <ele>21.309399</ele>
        <time>2020-08-28T22:01:31.137Z</time>
      </trkpt>
      <trkpt lat="63.63996" lon="19.95296">
        <ele>21.548028</ele>
        <time>2020-08-28T22:01:37.088Z</time>
      </trkpt>
      <trkpt lat="63.64003" lon="19.95256">
        <ele>21.719833</ele>
        <time>2020-08-28T22:01:41.622Z</time>
      </trkpt>
      <trkpt lat="63.64026" lon="19.9518">
        <ele>22.60236</ele>
        <time>2020-08-28T22:01:51.703Z</time>
      </trkpt>
      <trkpt lat="63.64057" lon="19.95108">
        <ele>23.645179</ele>
        <time>2020-08-28T22:02:03.163Z</time>
      </trkpt>
      <trkpt lat="63.6408" lon="19.95057">
        <ele>24.389806</ele>
        <time>2020-08-28T22:02:11.460Z</time>
      </trkpt>
      <trkpt lat="63.64115" lon="19.94974">
        <ele>25.582195</ele>
        <time>2020-08-28T22:02:24.942Z</time>
      </trkpt>
      <trkpt lat="63.64136" lon="19.94896">
        <ele>26.272002</ele>
        <time>2020-08-28T22:02:35.528Z</time>
      </trkpt>
      <trkpt lat="63.64153" lon="19.94716">
        <ele>27.324558</ele>
        <time>2020-08-28T22:02:55.051Z</time>
      </trkpt>
      <trkpt lat="63.64174" lon="19.94561">
        <ele>28.248707</ele>
        <time>2020-08-28T22:03:08.772Z</time>
      </trkpt>
      <trkpt lat="63.64177" lon="19.94422">
        <ele>27.673712</ele>
        <time>2020-08-28T22:03:19.054Z</time>
      </trkpt>
      <trkpt lat="63.64164" lon="19.94245">
        <ele>26.891891</ele>
        <time>2020-08-28T22:03:31.071Z</time>
      </trkpt>
      <trkpt lat="63.64139" lon="19.94123">
        <ele>26.106724</ele>
        <time>2020-08-28T22:03:39.682Z</time>
      </trkpt>
      <trkpt lat="63.64069" lon="19.93939">
        <ele>23.946766</ele>
        <time>2020-08-28T22:03:54.938Z</time>
      </trkpt>
      <trkpt lat="63.64056" lon="19.93875">
        <ele>23.312787</ele>
        <time>2020-08-28T22:03:59.360Z</time>
      </trkpt>
      <trkpt lat="63.64045" lon="19.9366">
        <ele>20.894255</ele>
        <time>2020-08-28T22:04:12.596Z</time>
      </trkpt>
      <trkpt lat="63.64029" lon="19.93518">
        <ele>19.146571</ele>
        <time>2020-08-28T22:04:21.310Z</time>
      </trkpt>
      <trkpt lat="63.64009" lon="19.93438">
        <ele>18.067241</ele>
        <time>2020-08-28T22:04:26.629Z</time>
      </trkpt>
      <trkpt lat="63.63992" lon="19.93395">
        <ele>17.3771</ele>
        <time>2020-08-28T22:04:29.980Z</time>
      </trkpt>
      <trkpt lat="63.63951" lon="19.93323">
        <ele>15.999094</ele>
        <time>2020-08-28T22:04:36.961Z</time>
      </trkpt>
      <trkpt lat="63.63945" lon="19.93305">
        <ele>15.736968</ele>
        <time>2020-08-28T22:04:38.201Z</time>
      </trkpt>
      <trkpt lat="63.63941" lon="19.93292">
        <ele>15.554023</ele>
        <time>2020-08-28T22:04:39.069Z</time>
      </trkpt>
      <trkpt lat="63.63937" lon="19.93217">
        <ele>14.658114</ele>
        <time>2020-08-28T22:04:43.632Z</time>
      </trkpt>
      <trkpt lat="63.63953" lon="19.93009">
        <ele>12.835496</ele>
        <time>2020-08-28T22:04:56.860Z</time>
      </trkpt>
      <trkpt lat="63.6396" lon="19.92856">
        <ele>12.093991</ele>
        <time>2020-08-28T22:05:07.367Z</time>
      </trkpt>
      <trkpt lat="63.63961" lon="19.9282">
        <ele>11.918744</ele>
        <time>2020-08-28T22:05:10.076Z</time>
      </trkpt>
      <trkpt lat="63.63962" lon="19.92727">
        <ele>11.469885</ele>
        <time>2020-08-28T22:05:16.986Z</time>
      </trkpt>
      <trkpt lat="63.63959" lon="19.92702">
        <ele>11.34561</ele>
        <time>2020-08-28T22:05:18.842Z</time>
      </trkpt>
      <trkpt lat="63.63957" lon="19.92687">
        <ele>11.318242</ele>
        <time>2020-08-28T22:05:20.012Z</time>
      </trkpt>
      <trkpt lat="63.63947" lon="19.9263">
        <ele>11.208881</ele>
        <time>2020-08-28T22:05:24.519Z</time>
      </trkpt>
      <trkpt lat="63.63942" lon="19.92596">
        <ele>11.14467</ele>
        <time>2020-08-28T22:05:27.227Z</time>
      </trkpt>
      <trkpt lat="63.63933" lon="19.92535">
        <ele>11.030225</ele>
        <time>2020-08-28T22:05:32.020Z</time>
      </trkpt>
      <trkpt lat="63.63933" lon="19.92483">
        <ele>10.936915</ele>
        <time>2020-08-28T22:05:35.975Z</time>
      </trkpt>
      <trkpt lat="63.63938" lon="19.92424">
        <ele>10.828943</ele>
        <time>2020-08-28T22:05:40.541Z</time>
      </trkpt>
      <trkpt lat="63.63922" lon="19.92406">
        <ele>10.757937</ele>
        <time>2020-08-28T22:05:43.444Z</time>
      </trkpt>
      <trkpt lat="63.63871" lon="19.92344">
        <ele>10.501702</ele>
        <time>2020-08-28T22:05:53.049Z</time>
      </trkpt>
      <trkpt lat="63.63745" lon="19.92126">
        <ele>9.723414</ele>
        <time>2020-08-28T22:06:19.041Z</time>
      </trkpt>
      <trkpt lat="63.6368" lon="19.92067">
        <ele>9.500526</ele>
        <time>2020-08-28T22:06:30.906Z</time>
      </trkpt>
      <trkpt lat="63.63614" lon="19.92048">
        <ele>9.291688</ele>
        <time>2020-08-28T22:06:42.207Z</time>
      </trkpt>
      <trkpt lat="63.63591" lon="19.9205">
        <ele>9.220375</ele>
        <time>2020-08-28T22:06:46.100Z</time>
      </trkpt>
      <trkpt lat="63.63548" lon="19.92063">
        <ele>9.143529</ele>
        <time>2020-08-28T22:06:53.709Z</time>
      </trkpt>
      <trkpt lat="63.63138" lon="19.92334">
        <ele>8.726828</ele>
        <time>2020-08-28T22:08:08.915Z</time>
      </trkpt>
      <trkpt lat="63.63118" lon="19.92337">
        <ele>8.697244</ele>
        <time>2020-08-28T22:08:12.362Z</time>
      </trkpt>
      <trkpt lat="63.63099" lon="19.9234">
        <ele>8.668516</ele>
        <time>2020-08-28T22:08:15.654Z</time>
      </trkpt>
      <trkpt lat="63.6305" lon="19.92334">
        <ele>8.593047</ele>
        <time>2020-08-28T22:08:24.201Z</time>
      </trkpt>
      <trkpt lat="63.6302" lon="19.92319">
        <ele>8.53026</ele>
        <time>2020-08-28T22:08:29.279Z</time>
      </trkpt>
      <trkpt lat="63.62772" lon="19.92121">
        <ele>8.005916</ele>
        <time>2020-08-28T22:09:14.904Z</time>
      </trkpt>
      <trkpt lat="63.62761" lon="19.92113">
        <ele>7.984205</ele>
        <time>2020-08-28T22:09:16.946Z</time>
      </trkpt>
      <trkpt lat="63.62722" lon="19.92077">
        <ele>7.907961</ele>
        <time>2020-08-28T22:09:24.116Z</time>
      </trkpt>
      <trkpt lat="63.62658" lon="19.91991">
        <ele>7.50253</ele>
        <time>2020-08-28T22:09:36.832Z</time>
      </trkpt>
      <trkpt lat="63.62631" lon="19.91942">
        <ele>7.297212</ele>
        <time>2020-08-28T22:09:42.477Z</time>
      </trkpt>
      <trkpt lat="63.62593" lon="19.91841">
        <ele>6.944516</ele>
        <time>2020-08-28T22:09:51.919Z</time>
      </trkpt>
      <trkpt lat="63.62569" lon="19.91772">
        <ele>6.616073</ele>
        <time>2020-08-28T22:09:57.933Z</time>
      </trkpt>
      <trkpt lat="63.62537" lon="19.91653">
        <ele>5.885212</ele>
        <time>2020-08-28T22:10:07.471Z</time>
      </trkpt>
      <trkpt lat="63.62451" lon="19.91341">
        <ele>3.999947</ele>
        <time>2020-08-28T22:10:31.815Z</time>
      </trkpt>
      <trkpt lat="63.62417" lon="19.91214">
        <ele>3.255231</ele>
        <time>2020-08-28T22:10:41.802Z</time>
      </trkpt>
      <trkpt lat="63.62402" lon="19.91158">
        <ele>2.925064</ele>
        <time>2020-08-28T22:10:46.267Z</time>
      </trkpt>
      <trkpt lat="63.62385" lon="19.91091">
        <ele>2.627922</ele>
        <time>2020-08-28T22:10:51.647Z</time>
      </trkpt>
      <trkpt lat="63.62363" lon="19.91008">
        <ele>2.477768</ele>
        <time>2020-08-28T22:10:58.645Z</time>
      </trkpt>
      <trkpt lat="63.62326" lon="19.9087">
        <ele>2.226735</ele>
        <time>2020-08-28T22:11:10.763Z</time>
      </trkpt>
      <trkpt lat="63.62328" lon="19.90864">
        <ele>2.215099</ele>
        <time>2020-08-28T22:11:11.400Z</time>
      </trkpt>
      <trkpt lat="63.62329" lon="19.90853">
        <ele>2.197829</ele>
        <time>2020-08-28T22:11:12.266Z</time>
      </trkpt>
      <trkpt lat="63.62328" lon="19.90844">
        <ele>2.183349</ele>
        <time>2020-08-28T22:11:13.023Z</time>
      </trkpt>
      <trkpt lat="63.62326" lon="19.90835">
        <ele>2.16751</ele>
        <time>2020-08-28T22:11:13.819Z</time>
      </trkpt>
      <trkpt lat="63.62317" lon="19.90827">
        <ele>2.135733</ele>
        <time>2020-08-28T22:11:15.405Z</time>
      </trkpt>
      <trkpt lat="63.62314" lon="19.90828">
        <ele>2.121967</ele>
        <time>2020-08-28T22:11:16.101Z</time>
      </trkpt>
      <trkpt lat="63.62309" lon="19.9081">
        <ele>2.090974</ele>
        <time>2020-08-28T22:11:17.787Z</time>
      </trkpt>
      <trkpt lat="63.62293" lon="19.90729">
        <ele>2.140455</ele>
        <time>2020-08-28T22:11:25.081Z</time>
      </trkpt>
      <trkpt lat="63.62283" lon="19.90384">
        <ele>2.752015</ele>
        <time>2020-08-28T22:11:54.712Z</time>
      </trkpt>
      <trkpt lat="63.62281" lon="19.90335">
        <ele>2.890204</ele>
        <time>2020-08-28T22:11:59.046Z</time>
      </trkpt>
      <trkpt lat="63.62278" lon="19.902">
        <ele>3.279012</ele>
        <time>2020-08-28T22:12:10.987Z</time>
      </trkpt>
      <trkpt lat="63.62274" lon="19.90069">
        <ele>3.655731</ele>
        <time>2020-08-28T22:12:22.757Z</time>
      </trkpt>
      <trkpt lat="63.62271" lon="19.90002">
        <ele>3.849603</ele>
        <time>2020-08-28T22:12:28.792Z</time>
      </trkpt>
      <trkpt lat="63.62271" lon="19.89986">
        <ele>3.893005</ele>
        <time>2020-08-28T22:12:30.204Z</time>
      </trkpt>
      <trkpt lat="63.62267" lon="19.89763">
        <ele>4.409997</ele>
        <time>2020-08-28T22:12:49.826Z</time>
      </trkpt>
      <trkpt lat="63.62268" lon="19.89736">
        <ele>4.472075</ele>
        <time>2020-08-28T22:12:52.276Z</time>
      </trkpt>
      <trkpt lat="63.62261" lon="19.89716">
        <ele>4.530738</ele>
        <time>2020-08-28T22:12:54.420Z</time>
      </trkpt>
      <trkpt lat="63.62248" lon="19.89683">
        <ele>4.632237</ele>
        <time>2020-08-28T22:12:58.222Z</time>
      </trkpt>
      <trkpt lat="63.62214" lon="19.89599">
        <ele>4.873393</ele>
        <time>2020-08-28T22:13:07.669Z</time>
      </trkpt>
      <trkpt lat="63.62106" lon="19.89341">
        <ele>5.393058</ele>
        <time>2020-08-28T22:13:37.282Z</time>
      </trkpt>
      <trkpt lat="63.61969" lon="19.89015">
        <ele>6.590997</ele>
        <time>2020-08-28T22:14:16.626Z</time>
      </trkpt>
      <trkpt lat="63.61922" lon="19.88929">
        <ele>7.107477</ele>
        <time>2020-08-28T22:14:29.103Z</time>
      </trkpt>
      <trkpt lat="63.61838" lon="19.88789">
        <ele>8.002313</ele>
        <time>2020-08-28T22:14:50.790Z</time>
      </trkpt>
      <trkpt lat="63.61817" lon="19.88755">
        <ele>8.189705</ele>
        <time>2020-08-28T22:14:56.163Z</time>
      </trkpt>
      <trkpt lat="63.61666" lon="19.88489">
        <ele>9.32809</ele>
        <time>2020-08-28T22:15:34.370Z</time>
      </trkpt>
      <trkpt lat="63.61395" lon="19.87871">
        <ele>9.821229</ele>
        <time>2020-08-28T22:16:44.678Z</time>
      </trkpt>
      <trkpt lat="63.61135" lon="19.87407">
        <ele>9.527581</ele>
        <time>2020-08-28T22:17:42.846Z</time>
      </trkpt>
      <trkpt lat="63.61061" lon="19.87244">
        <ele>9.240706</ele>
        <time>2020-08-28T22:18:00.454Z</time>
      </trkpt>
      <trkpt lat="63.60905" lon="19.86858">
        <ele>8.408186</ele>
        <time>2020-08-28T22:18:39.208Z</time>
      </trkpt>
      <trkpt lat="63.60748" lon="19.86493">
        <ele>7.639135</ele>
        <time>2020-08-28T22:19:17.324Z</time>
      </trkpt>
      <trkpt lat="63.60555" lon="19.86048">
        <ele>6.772078</ele>
        <time>2020-08-28T22:20:04.634Z</time>
      </trkpt>
      <trkpt lat="63.60464" lon="19.85843">
        <ele>5.926572</ele>
        <time>2020-08-28T22:20:25.566Z</time>
      </trkpt>
      <trkpt lat="63.60413" lon="19.85751">
        <ele>5.419275</ele>
        <time>2020-08-28T22:20:35.807Z</time>
      </trkpt>
      <trkpt lat="63.60353" lon="19.85682">
        <ele>4.752311</ele>
        <time>2020-08-28T22:20:46.098Z</time>
      </trkpt>
      <trkpt lat="63.60305" lon="19.85654">
        <ele>4.217651</ele>
        <time>2020-08-28T22:20:53.552Z</time>
      </trkpt>
      <trkpt lat="63.60177" lon="19.8562">
        <ele>3.042445</ele>
        <time>2020-08-28T22:21:13.337Z</time>
      </trkpt>
      <trkpt lat="63.60129" lon="19.85593">
        <ele>2.748785</ele>
        <time>2020-08-28T22:21:21.301Z</time>
      </trkpt>
      <trkpt lat="63.60103" lon="19.85568">
        <ele>2.582456</ele>
        <time>2020-08-28T22:21:25.896Z</time>
      </trkpt>
      <trkpt lat="63.59943" lon="19.8534">
        <ele>2.644301</ele>
        <time>2020-08-28T22:21:59.893Z</time>
      </trkpt>
      <trkpt lat="63.59663" lon="19.84853">
        <ele>5.377217</ele>
        <time>2020-08-28T22:23:13.593Z</time>
      </trkpt>
      <trkpt lat="63.59605" lon="19.8479">
        <ele>5.788076</ele>
        <time>2020-08-28T22:23:26.184Z</time>
      </trkpt>
      <trkpt lat="63.59483" lon="19.84694">
        <ele>5.950681</ele>
        <time>2020-08-28T22:23:49.777Z</time>
      </trkpt>
      <trkpt lat="63.59463" lon="19.84679">
        <ele>5.976906</ele>
        <time>2020-08-28T22:23:53.355Z</time>
      </trkpt>
      <trkpt lat="63.59217" lon="19.84491">
        <ele>6.176765</ele>
        <time>2020-08-28T22:24:39.108Z</time>
      </trkpt>
      <trkpt lat="63.58893" lon="19.84244">
        <ele>8.506403</ele>
        <time>2020-08-28T22:25:49.175Z</time>
      </trkpt>
      <trkpt lat="63.58868" lon="19.84225">
        <ele>8.667227</ele>
        <time>2020-08-28T22:25:54.412Z</time>
      </trkpt>
      <trkpt lat="63.58697" lon="19.84116">
        <ele>9.469175</ele>
        <time>2020-08-28T22:26:28.802Z</time>
      </trkpt>
      <trkpt lat="63.58553" lon="19.84058">
        <ele>9.539783</ele>
        <time>2020-08-28T22:26:54.960Z</time>
      </trkpt>
      <trkpt lat="63.58504" lon="19.84014">
        <ele>9.351758</ele>
        <time>2020-08-28T22:27:03.887Z</time>
      </trkpt>
      <trkpt lat="63.58275" lon="19.83699">
        <ele>8.046555</ele>
        <time>2020-08-28T22:27:48.002Z</time>
      </trkpt>
      <trkpt lat="63.58272" lon="19.83695">
        <ele>8.024954</ele>
        <time>2020-08-28T22:27:48.542Z</time>
      </trkpt>
      <trkpt lat="63.58251" lon="19.83666">
        <ele>7.837163</ele>
        <time>2020-08-28T22:27:52.586Z</time>
      </trkpt>
      <trkpt lat="63.58088" lon="19.83471">
        <ele>6.530364</ele>
        <time>2020-08-28T22:28:21.663Z</time>
      </trkpt>
      <trkpt lat="63.57971" lon="19.8334">
        <ele>5.915075</ele>
        <time>2020-08-28T22:28:43.142Z</time>
      </trkpt>
      <trkpt lat="63.57908" lon="19.83269">
        <ele>6.088676</ele>
        <time>2020-08-28T22:28:55.783Z</time>
      </trkpt>
      <trkpt lat="63.57906" lon="19.83267">
        <ele>6.101528</ele>
        <time>2020-08-28T22:28:56.360Z</time>
      </trkpt>
      <trkpt lat="63.57694" lon="19.83032">
        <ele>7.673417</ele>
        <time>2020-08-28T22:29:44.460Z</time>
      </trkpt>
      <trkpt lat="63.57643" lon="19.83011">
        <ele>8.094187</ele>
        <time>2020-08-28T22:29:55.175Z</time>
      </trkpt>
      <trkpt lat="63.57505" lon="19.83025">
        <ele>9.203407</ele>
        <time>2020-08-28T22:30:23.613Z</time>
      </trkpt>
      <trkpt lat="63.57458" lon="19.83011">
        <ele>9.581921</ele>
        <time>2020-08-28T22:30:32.937Z</time>
      </trkpt>
      <trkpt lat="63.57255" lon="19.82886">
        <ele>11.170181</ele>
        <time>2020-08-28T22:31:15.014Z</time>
      </trkpt>
      <trkpt lat="63.57234" lon="19.82864">
        <ele>11.414625</ele>
        <time>2020-08-28T22:31:20.119Z</time>
      </trkpt>
      <trkpt lat="63.57155" lon="19.82757">
        <ele>12.388693</ele>
        <time>2020-08-28T22:31:40.953Z</time>
      </trkpt>
      <trkpt lat="63.56966" lon="19.82502">
        <ele>13.550411</ele>
        <time>2020-08-28T22:32:24.977Z</time>
      </trkpt>
      <trkpt lat="63.56939" lon="19.82463">
        <ele>13.159697</ele>
        <time>2020-08-28T22:32:29.810Z</time>
      </trkpt>
      <trkpt lat="63.56904" lon="19.82415">
        <ele>12.537006</ele>
        <time>2020-08-28T22:32:35.710Z</time>
      </trkpt>
      <trkpt lat="63.56881" lon="19.82376">
        <ele>12.093653</ele>
        <time>2020-08-28T22:32:39.737Z</time>
      </trkpt>
      <trkpt lat="63.56842" lon="19.82288">
        <ele>11.241823</ele>
        <time>2020-08-28T22:32:47.446Z</time>
      </trkpt>
      <trkpt lat="63.56783" lon="19.8209">
        <ele>10.60049</ele>
        <time>2020-08-28T22:33:03.183Z</time>
      </trkpt>
      <trkpt lat="63.56681" lon="19.81677">
        <ele>11.018701</ele>
        <time>2020-08-28T22:33:45.269Z</time>
      </trkpt>
      <trkpt lat="63.56676" lon="19.81651">
        <ele>11.099342</ele>
        <time>2020-08-28T22:33:48.026Z</time>
      </trkpt>
      <trkpt lat="63.56665" lon="19.81585">
        <ele>11.299951</ele>
        <time>2020-08-28T22:33:54.368Z</time>
      </trkpt>
      <trkpt lat="63.56652" lon="19.8151">
        <ele>11.462378</ele>
        <time>2020-08-28T22:34:01.243Z</time>
      </trkpt>
      <trkpt lat="63.56649" lon="19.81486">
        <ele>11.441062</ele>
        <time>2020-08-28T22:34:03.527Z</time>
      </trkpt>
      <trkpt lat="63.56638" lon="19.81393">
        <ele>11.360964</ele>
        <time>2020-08-28T22:34:11.179Z</time>
      </trkpt>
      <trkpt lat="63.56632" lon="19.81278">
        <ele>11.264885</ele>
        <time>2020-08-28T22:34:20.048Z</time>
      </trkpt>
      <trkpt lat="63.56632" lon="19.81213">
        <ele>11.210598</ele>
        <time>2020-08-28T22:34:24.755Z</time>
      </trkpt>
      <trkpt lat="63.56631" lon="19.81121">
        <ele>11.119506</ele>
        <time>2020-08-28T22:34:31.238Z</time>
      </trkpt>
      <trkpt lat="63.56637" lon="19.80605">
        <ele>9.944768</ele>
        <time>2020-08-28T22:35:08.700Z</time>
      </trkpt>
      <trkpt lat="63.56642" lon="19.80252">
        <ele>9.650947</ele>
        <time>2020-08-28T22:35:36.843Z</time>
      </trkpt>
      <trkpt lat="63.56639" lon="19.80119">
        <ele>9.557366</ele>
        <time>2020-08-28T22:35:47.360Z</time>
      </trkpt>
      <trkpt lat="63.56619" lon="19.79982">
        <ele>9.456547</ele>
        <time>2020-08-28T22:35:58.332Z</time>
      </trkpt>
      <trkpt lat="63.56579" lon="19.79791">
        <ele>9.219944</ele>
        <time>2020-08-28T22:36:14.052Z</time>
      </trkpt>
      <trkpt lat="63.56572" lon="19.79624">
        <ele>9.004068</ele>
        <time>2020-08-28T22:36:26.692Z</time>
      </trkpt>
      <trkpt lat="63.56578" lon="19.79414">
        <ele>9.001256</ele>
        <time>2020-08-28T22:36:43.185Z</time>
      </trkpt>
      <trkpt lat="63.56574" lon="19.79289">
        <ele>9.102681</ele>
        <time>2020-08-28T22:36:53.519Z</time>
      </trkpt>
      <trkpt lat="63.56557" lon="19.7914">
        <ele>9.229743</ele>
        <time>2020-08-28T22:37:06.665Z</time>
      </trkpt>
      <trkpt lat="63.56516" lon="19.78952">
        <ele>9.525004</ele>
        <time>2020-08-28T22:37:24.516Z</time>
      </trkpt>
      <trkpt lat="63.56499" lon="19.788">
        <ele>9.747113</ele>
        <time>2020-08-28T22:37:37.703Z</time>
      </trkpt>
      <trkpt lat="63.56469" lon="19.78462">
        <ele>9.945845</ele>
        <time>2020-08-28T22:38:05.547Z</time>
      </trkpt>
      <trkpt lat="63.56464" lon="19.7841">
        <ele>9.971754</ele>
        <time>2020-08-28T22:38:09.811Z</time>
      </trkpt>
      <trkpt lat="63.56404" lon="19.777">
        <ele>10.030924</ele>
        <time>2020-08-28T22:39:07.237Z</time>
      </trkpt>
      <trkpt lat="63.5633" lon="19.76824">
        <ele>10.510609</ele>
        <time>2020-08-28T22:40:19.271Z</time>
      </trkpt>
      <trkpt lat="63.56301" lon="19.762">
        <ele>12.777102</ele>
        <time>2020-08-28T22:41:15.995Z</time>
      </trkpt>
      <trkpt lat="63.56304" lon="19.75674">
        <ele>15.80561</ele>
        <time>2020-08-28T22:42:08.487Z</time>
      </trkpt>
      <trkpt lat="63.56294" lon="19.75487">
        <ele>16.868501</ele>
        <time>2020-08-28T22:42:27.363Z</time>
      </trkpt>
      <trkpt lat="63.56256" lon="19.75326">
        <ele>17.763432</ele>
        <time>2020-08-28T22:42:45.100Z</time>
      </trkpt>
      <trkpt lat="63.56188" lon="19.75128">
        <ele>18.358579</ele>
        <time>2020-08-28T22:43:07.561Z</time>
      </trkpt>
      <trkpt lat="63.56147" lon="19.74951">
        <ele>18.236118</ele>
        <time>2020-08-28T22:43:23.000Z</time>
      </trkpt>
      <trkpt lat="63.56113" lon="19.7462">
        <ele>16.546593</ele>
        <time>2020-08-28T22:43:46.044Z</time>
      </trkpt>
      <trkpt lat="63.56106" lon="19.74464">
        <ele>15.506145</ele>
        <time>2020-08-28T22:43:55.922Z</time>
      </trkpt>
      <trkpt lat="63.56106" lon="19.74332">
        <ele>14.371726</ele>
        <time>2020-08-28T22:44:04.083Z</time>
      </trkpt>
      <trkpt lat="63.56106" lon="19.74174">
        <ele>12.999529</ele>
        <time>2020-08-28T22:44:14.007Z</time>
      </trkpt>
      <trkpt lat="63.56097" lon="19.74036">
        <ele>11.92471</ele>
        <time>2020-08-28T22:44:22.866Z</time>
      </trkpt>
      <trkpt lat="63.56078" lon="19.73846">
        <ele>11.100265</ele>
        <time>2020-08-28T22:44:36.053Z</time>
      </trkpt>
      <trkpt lat="63.56062" lon="19.73579">
        <ele>10.277384</ele>
        <time>2020-08-28T22:44:56.044Z</time>
      </trkpt>
      <trkpt lat="63.56061" lon="19.73429">
        <ele>10.181399</ele>
        <time>2020-08-28T22:45:07.689Z</time>
      </trkpt>
      <trkpt lat="63.5606" lon="19.73414">
        <ele>10.171393</ele>
        <time>2020-08-28T22:45:08.922Z</time>
      </trkpt>
      <trkpt lat="63.56068" lon="19.73183">
        <ele>10.099137</ele>
        <time>2020-08-28T22:45:27.356Z</time>
      </trkpt>
      <trkpt lat="63.56189" lon="19.71193">
        <ele>10.641302</ele>
        <time>2020-08-28T22:48:09.296Z</time>
      </trkpt>
      <trkpt lat="63.56201" lon="19.71063">
        <ele>10.582596</ele>
        <time>2020-08-28T22:48:19.658Z</time>
      </trkpt>
      <trkpt lat="63.56239" lon="19.70841">
        <ele>10.425391</ele>
        <time>2020-08-28T22:48:37.978Z</time>
      </trkpt>
      <trkpt lat="63.5631" lon="19.70406">
        <ele>9.266947</ele>
        <time>2020-08-28T22:49:12.314Z</time>
      </trkpt>
      <trkpt lat="63.56324" lon="19.70316">
        <ele>8.795562</ele>
        <time>2020-08-28T22:49:18.835Z</time>
      </trkpt>
      <trkpt lat="63.5633" lon="19.70265">
        <ele>8.534252</ele>
        <time>2020-08-28T22:49:22.384Z</time>
      </trkpt>
      <trkpt lat="63.5633" lon="19.70193">
        <ele>8.180862</ele>
        <time>2020-08-28T22:49:27.161Z</time>
      </trkpt>
      <trkpt lat="63.56325" lon="19.70012">
        <ele>7.237747</ele>
        <time>2020-08-28T22:49:38.965Z</time>
      </trkpt>
      <trkpt lat="63.56322" lon="19.69957">
        <ele>6.935472</ele>
        <time>2020-08-28T22:49:42.605Z</time>
      </trkpt>
      <trkpt lat="63.5631" lon="19.69851">
        <ele>6.337784</ele>
        <time>2020-08-28T22:49:49.803Z</time>
      </trkpt>
      <trkpt lat="63.56296" lon="19.69817">
        <ele>6.088073</ele>
        <time>2020-08-28T22:49:52.928Z</time>
      </trkpt>
      <trkpt lat="63.56287" lon="19.69805">
        <ele>5.96276</ele>
        <time>2020-08-28T22:49:54.423Z</time>
      </trkpt>
      <trkpt lat="63.56201" lon="19.69774">
        <ele>5.739633</ele>
        <time>2020-08-28T22:50:08.765Z</time>
      </trkpt>
      <trkpt lat="63.56183" lon="19.6976">
        <ele>5.809506</ele>
        <time>2020-08-28T22:50:12.375Z</time>
      </trkpt>
      <trkpt lat="63.56163" lon="19.69743">
        <ele>5.886444</ele>
        <time>2020-08-28T22:50:16.388Z</time>
      </trkpt>
      <trkpt lat="63.56151" lon="19.69695">
        <ele>5.975667</ele>
        <time>2020-08-28T22:50:21.064Z</time>
      </trkpt>
      <trkpt lat="63.56145" lon="19.69644">
        <ele>6.061539</ele>
        <time>2020-08-28T22:50:26.004Z</time>
      </trkpt>
      <trkpt lat="63.56145" lon="19.69597">
        <ele>6.137932</ele>
        <time>2020-08-28T22:50:30.279Z</time>
      </trkpt>
      <trkpt lat="63.56145" lon="19.69576">
        <ele>6.172155</ele>
        <time>2020-08-28T22:50:32.472Z</time>
      </trkpt>
      <trkpt lat="63.56159" lon="19.69211">
        <ele>8.450499</ele>
        <time>2020-08-28T22:51:09.704Z</time>
      </trkpt>
      <trkpt lat="63.56167" lon="19.69114">
        <ele>9.030242</ele>
        <time>2020-08-28T22:51:19.584Z</time>
      </trkpt>
      <trkpt lat="63.56191" lon="19.68948">
        <ele>9.929916</ele>
        <time>2020-08-28T22:51:36.577Z</time>
      </trkpt>
      <trkpt lat="63.56235" lon="19.68665">
        <ele>11.340516</ele>
        <time>2020-08-28T22:52:04.653Z</time>
      </trkpt>
      <trkpt lat="63.56254" lon="19.6858">
        <ele>11.710417</ele>
        <time>2020-08-28T22:52:13.109Z</time>
      </trkpt>
      <trkpt lat="63.56275" lon="19.68512">
        <ele>12.035678</ele>
        <time>2020-08-28T22:52:20.585Z</time>
      </trkpt>
      <trkpt lat="63.56762" lon="19.67056">
        <ele>19.31405</ele>
        <time>2020-08-28T22:55:09.529Z</time>
      </trkpt>
      <trkpt lat="63.56805" lon="19.66928">
        <ele>19.561394</ele>
        <time>2020-08-28T22:55:22.902Z</time>
      </trkpt>
      <trkpt lat="63.56829" lon="19.66854">
        <ele>19.703199</ele>
        <time>2020-08-28T22:55:30.296Z</time>
      </trkpt>
      <trkpt lat="63.56872" lon="19.66765">
        <ele>19.81806</ele>
        <time>2020-08-28T22:55:40.700Z</time>
      </trkpt>
      <trkpt lat="63.5695" lon="19.66691">
        <ele>19.876504</ele>
        <time>2020-08-28T22:55:55.698Z</time>
      </trkpt>
      <trkpt lat="63.57211" lon="19.66518">
        <ele>20.286207</ele>
        <time>2020-08-28T22:56:46.006Z</time>
      </trkpt>
      <trkpt lat="63.57249" lon="19.66493">
        <ele>20.334234</ele>
        <time>2020-08-28T22:56:53.463Z</time>
      </trkpt>
      <trkpt lat="63.57566" lon="19.66283">
        <ele>20.498068</ele>
        <time>2020-08-28T22:57:52.861Z</time>
      </trkpt>
      <trkpt lat="63.57623" lon="19.66246">
        <ele>20.405328</ele>
        <time>2020-08-28T22:58:03.020Z</time>
      </trkpt>
      <trkpt lat="63.57679" lon="19.66218">
        <ele>20.314523</ele>
        <time>2020-08-28T22:58:12.949Z</time>
      </trkpt>
      <trkpt lat="63.57729" lon="19.66232">
        <ele>20.241058</ele>
        <time>2020-08-28T22:58:21.581Z</time>
      </trkpt>
      <trkpt lat="63.57802" lon="19.66227">
        <ele>20.142899</ele>
        <time>2020-08-28T22:58:34.158Z</time>
      </trkpt>
      <trkpt lat="63.57839" lon="19.66212">
        <ele>20.091326</ele>
        <time>2020-08-28T22:58:40.855Z</time>
      </trkpt>
      <trkpt lat="63.57893" lon="19.6619">
        <ele>20.059163</ele>
        <time>2020-08-28T22:58:50.547Z</time>
      </trkpt>
      <trkpt lat="63.57983" lon="19.66129">
        <ele>20.253062</ele>
        <time>2020-08-28T22:59:07.510Z</time>
      </trkpt>
      <trkpt lat="63.58068" lon="19.66087">
        <ele>20.529221</ele>
        <time>2020-08-28T22:59:24.025Z</time>
      </trkpt>
      <trkpt lat="63.5816" lon="19.66064">
        <ele>21.388109</ele>
        <time>2020-08-28T22:59:42.375Z</time>
      </trkpt>
      <trkpt lat="63.58274" lon="19.66068">
        <ele>22.794566</ele>
        <time>2020-08-28T23:00:07.974Z</time>
      </trkpt>
      <trkpt lat="63.58316" lon="19.66073">
        <ele>23.538213</ele>
        <time>2020-08-28T23:00:17.863Z</time>
      </trkpt>
      <trkpt lat="63.58395" lon="19.6604">
        <ele>24.970759</ele>
        <time>2020-08-28T23:00:37.474Z</time>
      </trkpt>
      <trkpt lat="63.58628" lon="19.65898">
        <ele>28.960025</ele>
        <time>2020-08-28T23:01:34.132Z</time>
      </trkpt>
      <trkpt lat="63.58635" lon="19.65893">
        <ele>29.04471</ele>
        <time>2020-08-28T23:01:35.715Z</time>
      </trkpt>
      <trkpt lat="63.58622" lon="19.65796">
        <ele>29.544857</ele>
        <time>2020-08-28T23:01:45.215Z</time>
      </trkpt>
      <trkpt lat="63.58584" lon="19.65532">
        <ele>30.803133</ele>
        <time>2020-08-28T23:02:10.337Z</time>
      </trkpt>
      <trkpt lat="63.58563" lon="19.65386">
        <ele>31.367533</ele>
        <time>2020-08-28T23:02:24.129Z</time>
      </trkpt>
      <trkpt lat="63.58524" lon="19.65031">
        <ele>32.921683</ele>
        <time>2020-08-28T23:02:58.039Z</time>
      </trkpt>
      <trkpt lat="63.58495" lon="19.64726">
        <ele>34.668716</ele>
        <time>2020-08-28T23:03:28.044Z</time>
      </trkpt>
      <trkpt lat="63.58467" lon="19.6423">
        <ele>38.978362</ele>
        <time>2020-08-28T23:04:20.878Z</time>
      </trkpt>
      <trkpt lat="63.58461" lon="19.6402">
        <ele>41.237038</ele>
        <time>2020-08-28T23:04:45.769Z</time>
      </trkpt>
      <trkpt lat="63.58457" lon="19.63589">
        <ele>47.474258</ele>
        <time>2020-08-28T23:05:40.721Z</time>
      </trkpt>
      <trkpt lat="63.58462" lon="19.63296">
        <ele>51.685763</ele>
        <time>2020-08-28T23:06:17.735Z</time>
      </trkpt>
      <trkpt lat="63.58482" lon="19.62889">
        <ele>57.019519</ele>
        <time>2020-08-28T23:07:07.636Z</time>
      </trkpt>
      <trkpt lat="63.58491" lon="19.6275">
        <ele>58.441281</ele>
        <time>2020-08-28T23:07:23.697Z</time>
      </trkpt>
      <trkpt lat="63.58502" lon="19.6257">
        <ele>59.87185</ele>
        <time>2020-08-28T23:07:43.401Z</time>
      </trkpt>
      <trkpt lat="63.58515" lon="19.62257">
        <ele>60.942229</ele>
        <time>2020-08-28T23:08:12.673Z</time>
      </trkpt>
      <trkpt lat="63.58518" lon="19.62107">
        <ele>60.860481</ele>
        <time>2020-08-28T23:08:24.082Z</time>
      </trkpt>
      <trkpt lat="63.58521" lon="19.61954">
        <ele>60.042179</ele>
        <time>2020-08-28T23:08:34.151Z</time>
      </trkpt>
      <trkpt lat="63.58522" lon="19.61815">
        <ele>58.411569</ele>
        <time>2020-08-28T23:08:42.495Z</time>
      </trkpt>
      <trkpt lat="63.58523" lon="19.6172">
        <ele>57.29904</ele>
        <time>2020-08-28T23:08:48.015Z</time>
      </trkpt>
      <trkpt lat="63.58523" lon="19.61679">
        <ele>56.816703</ele>
        <time>2020-08-28T23:08:50.390Z</time>
      </trkpt>
      <trkpt lat="63.58522" lon="19.6154">
        <ele>55.197594</ele>
        <time>2020-08-28T23:08:58.414Z</time>
      </trkpt>
      <trkpt lat="63.58516" lon="19.61273">
        <ele>52.092092</ele>
        <time>2020-08-28T23:09:14.365Z</time>
      </trkpt>
      <trkpt lat="63.58514" lon="19.6121">
        <ele>51.373836</ele>
        <time>2020-08-28T23:09:18.390Z</time>
      </trkpt>
      <trkpt lat="63.58523" lon="19.61117">
        <ele>51.056952</ele>
        <time>2020-08-28T23:09:25.212Z</time>
      </trkpt>
      <trkpt lat="63.58527" lon="19.60999">
        <ele>50.660105</ele>
        <time>2020-08-28T23:09:34.042Z</time>
      </trkpt>
      <trkpt lat="63.58528" lon="19.6096">
        <ele>50.532033</ele>
        <time>2020-08-28T23:09:36.971Z</time>
      </trkpt>
      <trkpt lat="63.58523" lon="19.60883">
        <ele>50.271517</ele>
        <time>2020-08-28T23:09:43.097Z</time>
      </trkpt>
      <trkpt lat="63.5851" lon="19.60801">
        <ele>50.030106</ele>
        <time>2020-08-28T23:09:50.305Z</time>
      </trkpt>
      <trkpt lat="63.58494" lon="19.60767">
        <ele>50.026341</ele>
        <time>2020-08-28T23:09:54.336Z</time>
      </trkpt>
      <trkpt lat="63.5848" lon="19.60548">
        <ele>50.00929</ele>
        <time>2020-08-28T23:10:11.884Z</time>
      </trkpt>
      <trkpt lat="63.58458" lon="19.60173">
        <ele>50.015614</ele>
        <time>2020-08-28T23:10:42.042Z</time>
      </trkpt>
      <trkpt lat="63.58425" lon="19.59564">
        <ele>50.069842</ele>
        <time>2020-08-28T23:11:30.857Z</time>
      </trkpt>
      <trkpt lat="63.58412" lon="19.59191">
        <ele>50.016766</ele>
        <time>2020-08-28T23:12:00.491Z</time>
      </trkpt>
      <trkpt lat="63.58408" lon="19.58676">
        <ele>49.981911</ele>
        <time>2020-08-28T23:12:41.275Z</time>
      </trkpt>
      <trkpt lat="63.58419" lon="19.5815">
        <ele>49.822571</ele>
        <time>2020-08-28T23:13:22.780Z</time>
      </trkpt>
      <trkpt lat="63.58431" lon="19.57852">
        <ele>49.544538</ele>
        <time>2020-08-28T23:13:45.824Z</time>
      </trkpt>
      <trkpt lat="63.58451" lon="19.57401">
        <ele>48.888412</ele>
        <time>2020-08-28T23:14:19.757Z</time>
      </trkpt>
      <trkpt lat="63.58454" lon="19.57325">
        <ele>48.766369</ele>
        <time>2020-08-28T23:14:25.415Z</time>
      </trkpt>
      <trkpt lat="63.58467" lon="19.56947">
        <ele>48.108356</ele>
        <time>2020-08-28T23:14:53.783Z</time>
      </trkpt>
      <trkpt lat="63.58473" lon="19.56487">
        <ele>47.084537</ele>
        <time>2020-08-28T23:15:28.038Z</time>
      </trkpt>
      <trkpt lat="63.58465" lon="19.55759">
        <ele>44.196253</ele>
        <time>2020-08-28T23:16:18.319Z</time>
      </trkpt>
      <trkpt lat="63.58455" lon="19.55511">
        <ele>43.33761</ele>
        <time>2020-08-28T23:16:35.852Z</time>
      </trkpt>
      <trkpt lat="63.58427" lon="19.54985">
        <ele>42.311703</ele>
        <time>2020-08-28T23:17:15.306Z</time>
      </trkpt>
      <trkpt lat="63.58375" lon="19.54357">
        <ele>41.516105</ele>
        <time>2020-08-28T23:18:04.450Z</time>
      </trkpt>
      <trkpt lat="63.58357" lon="19.54183">
        <ele>40.913644</ele>
        <time>2020-08-28T23:18:17.083Z</time>
      </trkpt>
      <trkpt lat="63.58352" lon="19.54128">
        <ele>40.723003</ele>
        <time>2020-08-28T23:18:21.034Z</time>
      </trkpt>
      <trkpt lat="63.58348" lon="19.54029">
        <ele>40.385462</ele>
        <time>2020-08-28T23:18:27.936Z</time>
      </trkpt>
      <trkpt lat="63.58346" lon="19.5393">
        <ele>39.929028</ele>
        <time>2020-08-28T23:18:34.738Z</time>
      </trkpt>
      <trkpt lat="63.58347" lon="19.53847">
        <ele>39.497846</ele>
        <time>2020-08-28T23:18:40.303Z</time>
      </trkpt>
      <trkpt lat="63.58359" lon="19.53564">
        <ele>38.013386</ele>
        <time>2020-08-28T23:18:59.479Z</time>
      </trkpt>
      <trkpt lat="63.58359" lon="19.53537">
        <ele>37.87007</ele>
        <time>2020-08-28T23:19:01.295Z</time>
      </trkpt>
      <trkpt lat="63.58332" lon="19.53526">
        <ele>37.547581</ele>
        <time>2020-08-28T23:19:05.568Z</time>
      </trkpt>
      <trkpt lat="63.58308" lon="19.53521">
        <ele>37.272508</ele>
        <time>2020-08-28T23:19:09.155Z</time>
      </trkpt>
      <trkpt lat="63.58254" lon="19.53516">
        <ele>36.632602</ele>
        <time>2020-08-28T23:19:17.471Z</time>
      </trkpt>
      <trkpt lat="63.5824" lon="19.53516">
        <ele>36.465141</ele>
        <time>2020-08-28T23:19:19.653Z</time>
      </trkpt>
      <trkpt lat="63.58225" lon="19.53516">
        <ele>36.289479</ele>
        <time>2020-08-28T23:19:21.931Z</time>
      </trkpt>
      <trkpt lat="63.58193" lon="19.53513">
        <ele>35.896688</ele>
        <time>2020-08-28T23:19:26.757Z</time>
      </trkpt>
      <trkpt lat="63.58166" lon="19.53503">
        <ele>35.542673</ele>
        <time>2020-08-28T23:19:30.830Z</time>
      </trkpt>
      <trkpt lat="63.58125" lon="19.5348">
        <ele>34.98455</ele>
        <time>2020-08-28T23:19:37.197Z</time>
      </trkpt>
      <trkpt lat="63.58082" lon="19.53428">
        <ele>34.348089</ele>
        <time>2020-08-28T23:19:44.462Z</time>
      </trkpt>
      <trkpt lat="63.5805" lon="19.53375">
        <ele>33.823648</ele>
        <time>2020-08-28T23:19:50.428Z</time>
      </trkpt>
      <trkpt lat="63.58021" lon="19.5332">
        <ele>33.274955</ele>
        <time>2020-08-28T23:19:56.061Z</time>
      </trkpt>
      <trkpt lat="63.57949" lon="19.53163">
        <ele>31.776077</ele>
        <time>2020-08-28T23:20:10.824Z</time>
      </trkpt>
      <trkpt lat="63.57897" lon="19.53048">
        <ele>30.66721</ele>
        <time>2020-08-28T23:20:21.515Z</time>
      </trkpt>
      <trkpt lat="63.57775" lon="19.52771">
        <ele>27.864602</ele>
        <time>2020-08-28T23:20:46.810Z</time>
      </trkpt>
      <trkpt lat="63.57727" lon="19.5269">
        <ele>26.774904</ele>
        <time>2020-08-28T23:20:55.523Z</time>
      </trkpt>
      <trkpt lat="63.57677" lon="19.52628">
        <ele>25.744821</ele>
        <time>2020-08-28T23:21:03.684Z</time>
      </trkpt>
      <trkpt lat="63.57639" lon="19.52619">
        <ele>25.068665</ele>
        <time>2020-08-28T23:21:09.026Z</time>
      </trkpt>
      <trkpt lat="63.57522" lon="19.52632">
        <ele>22.8158</ele>
        <time>2020-08-28T23:21:25.599Z</time>
      </trkpt>
      <trkpt lat="63.57479" lon="19.52612">
        <ele>21.963391</ele>
        <time>2020-08-28T23:21:31.863Z</time>
      </trkpt>
      <trkpt lat="63.57399" lon="19.5252">
        <ele>20.206704</ele>
        <time>2020-08-28T23:21:44.542Z</time>
      </trkpt>
      <trkpt lat="63.57342" lon="19.52479">
        <ele>19.022782</ele>
        <time>2020-08-28T23:21:53.074Z</time>
      </trkpt>
      <trkpt lat="63.5729" lon="19.52459">
        <ele>17.994464</ele>
        <time>2020-08-28T23:22:00.529Z</time>
      </trkpt>
      <trkpt lat="63.57267" lon="19.52448">
        <ele>17.499065</ele>
        <time>2020-08-28T23:22:03.947Z</time>
      </trkpt>
      <trkpt lat="63.57108" lon="19.52395">
        <ele>14.124509</ele>
        <time>2020-08-28T23:22:26.363Z</time>
      </trkpt>
      <trkpt lat="63.57085" lon="19.5238">
        <ele>13.693453</ele>
        <time>2020-08-28T23:22:29.659Z</time>
      </trkpt>
      <trkpt lat="63.57064" lon="19.52358">
        <ele>13.266493</ele>
        <time>2020-08-28T23:22:32.898Z</time>
      </trkpt>
      <trkpt lat="63.57049" lon="19.52335">
        <ele>12.928386</ele>
        <time>2020-08-28T23:22:35.533Z</time>
      </trkpt>
      <trkpt lat="63.57038" lon="19.5229">
        <ele>12.507478</ele>
        <time>2020-08-28T23:22:38.756Z</time>
      </trkpt>
      <trkpt lat="63.57022" lon="19.52175">
        <ele>11.528623</ele>
        <time>2020-08-28T23:22:46.434Z</time>
      </trkpt>
      <trkpt lat="63.57011" lon="19.52054">
        <ele>10.639625</ele>
        <time>2020-08-28T23:22:54.370Z</time>
      </trkpt>
      <trkpt lat="63.57003" lon="19.52053">
        <ele>10.551553</ele>
        <time>2020-08-28T23:22:55.700Z</time>
      </trkpt>
      <trkpt lat="63.56971" lon="19.51711">
        <ele>8.902272</ele>
        <time>2020-08-28T23:23:21.136Z</time>
      </trkpt>
      <trkpt lat="63.56967" lon="19.51667">
        <ele>8.744188</ele>
        <time>2020-08-28T23:23:24.453Z</time>
      </trkpt>
      <trkpt lat="63.56948" lon="19.51482">
        <ele>8.093282</ele>
        <time>2020-08-28T23:23:38.405Z</time>
      </trkpt>
      <trkpt lat="63.56914" lon="19.51111">
        <ele>7.193545</ele>
        <time>2020-08-28T23:24:06.925Z</time>
      </trkpt>
      <trkpt lat="63.56873" lon="19.50677">
        <ele>7.184176</ele>
        <time>2020-08-28T23:24:43.738Z</time>
      </trkpt>
      <trkpt lat="63.56877" lon="19.50655">
        <ele>7.211198</ele>
        <time>2020-08-28T23:24:45.886Z</time>
      </trkpt>
      <trkpt lat="63.56876" lon="19.50608">
        <ele>7.264033</ele>
        <time>2020-08-28T23:24:49.913Z</time>
      </trkpt>
      <trkpt lat="63.5688" lon="19.50558">
        <ele>7.323414</ele>
        <time>2020-08-28T23:24:54.501Z</time>
      </trkpt>
      <trkpt lat="63.56889" lon="19.50522">
        <ele>7.381467</ele>
        <time>2020-08-28T23:24:58.052Z</time>
      </trkpt>
      <trkpt lat="63.56913" lon="19.50435">
        <ele>7.710308</ele>
        <time>2020-08-28T23:25:07.411Z</time>
      </trkpt>
      <trkpt lat="63.56936" lon="19.50368">
        <ele>7.979683</ele>
        <time>2020-08-28T23:25:15.161Z</time>
      </trkpt>
      <trkpt lat="63.56974" lon="19.50236">
        <ele>8.485007</ele>
        <time>2020-08-28T23:25:29.457Z</time>
      </trkpt>
      <trkpt lat="63.56983" lon="19.50183">
        <ele>8.653399</ele>
        <time>2020-08-28T23:25:34.397Z</time>
      </trkpt>
      <trkpt lat="63.56984" lon="19.50131">
        <ele>8.648094</ele>
        <time>2020-08-28T23:25:39.031Z</time>
      </trkpt>
      <trkpt lat="63.56985" lon="19.49973">
        <ele>8.632144</ele>
        <time>2020-08-28T23:25:52.058Z</time>
      </trkpt>
      <trkpt lat="63.56985" lon="19.49956">
        <ele>8.630363</ele>
        <time>2020-08-28T23:25:53.404Z</time>
      </trkpt>
      <trkpt lat="63.56989" lon="19.49906">
        <ele>8.625243</ele>
        <time>2020-08-28T23:25:57.262Z</time>
      </trkpt>
      <trkpt lat="63.56993" lon="19.4988">
        <ele>8.622447</ele>
        <time>2020-08-28T23:25:59.314Z</time>
      </trkpt>
      <trkpt lat="63.56985" lon="19.49873">
        <ele>8.620421</ele>
        <time>2020-08-28T23:26:00.734Z</time>
      </trkpt>
      <trkpt lat="63.56968" lon="19.49845">
        <ele>8.615592</ele>
        <time>2020-08-28T23:26:04.302Z</time>
      </trkpt>
      <trkpt lat="63.56965" lon="19.49836">
        <ele>8.614497</ele>
        <time>2020-08-28T23:26:05.067Z</time>
      </trkpt>
      <trkpt lat="63.5696" lon="19.49809">
        <ele>8.570176</ele>
        <time>2020-08-28T23:26:07.086Z</time>
      </trkpt>
      <trkpt lat="63.56945" lon="19.49736">
        <ele>8.288404</ele>
        <time>2020-08-28T23:26:12.795Z</time>
      </trkpt>
      <trkpt lat="63.56927" lon="19.49671">
        <ele>8.021478</ele>
        <time>2020-08-28T23:26:18.150Z</time>
      </trkpt>
      <trkpt lat="63.56909" lon="19.496">
        <ele>7.73158</ele>
        <time>2020-08-28T23:26:23.936Z</time>
      </trkpt>
      <trkpt lat="63.56888" lon="19.49547">
        <ele>7.487617</ele>
        <time>2020-08-28T23:26:28.816Z</time>
      </trkpt>
      <trkpt lat="63.56834" lon="19.49407">
        <ele>6.955673</ele>
        <time>2020-08-28T23:26:41.892Z</time>
      </trkpt>
      <trkpt lat="63.56914" lon="19.4924">
        <ele>6.373447</ele>
        <time>2020-08-28T23:27:00.041Z</time>
      </trkpt>
      <trkpt lat="63.56978" lon="19.49085">
        <ele>5.945689</ele>
        <time>2020-08-28T23:27:16.042Z</time>
      </trkpt>
      <trkpt lat="63.56988" lon="19.49062">
        <ele>5.888303</ele>
        <time>2020-08-28T23:27:18.338Z</time>
      </trkpt>
      <trkpt lat="63.56992" lon="19.4903">
        <ele>5.824943</ele>
        <time>2020-08-28T23:27:20.830Z</time>
      </trkpt>
      <trkpt lat="63.57006" lon="19.4897">
        <ele>5.696925</ele>
        <time>2020-08-28T23:27:25.874Z</time>
      </trkpt>
      <trkpt lat="63.57053" lon="19.48855">
        <ele>5.352117</ele>
        <time>2020-08-28T23:27:37.322Z</time>
      </trkpt>
      <trkpt lat="63.5708" lon="19.48776">
        <ele>5.044334</ele>
        <time>2020-08-28T23:27:44.481Z</time>
      </trkpt>
      <trkpt lat="63.57163" lon="19.48428">
        <ele>3.781226</ele>
        <time>2020-08-28T23:28:12.412Z</time>
      </trkpt>
      <trkpt lat="63.5724" lon="19.48103">
        <ele>2.614118</ele>
        <time>2020-08-28T23:28:38.481Z</time>
      </trkpt>
      <trkpt lat="63.57267" lon="19.47991">
        <ele>2.312113</ele>
        <time>2020-08-28T23:28:47.526Z</time>
      </trkpt>
      <trkpt lat="63.57286" lon="19.47868">
        <ele>2.000506</ele>
        <time>2020-08-28T23:28:57.229Z</time>
      </trkpt>
      <trkpt lat="63.57301" lon="19.47708">
        <ele>2.115112</ele>
        <time>2020-08-28T23:29:10.015Z</time>
      </trkpt>
      <trkpt lat="63.57304" lon="19.47675">
        <ele>2.187129</ele>
        <time>2020-08-28T23:29:12.814Z</time>
      </trkpt>
      <trkpt lat="63.57355" lon="19.47133">
        <ele>4.014443</ele>
        <time>2020-08-28T23:30:03.423Z</time>
      </trkpt>
      <trkpt lat="63.57371" lon="19.47129">
        <ele>4.170366</ele>
        <time>2020-08-28T23:30:07.039Z</time>
      </trkpt>
      <trkpt lat="63.5742" lon="19.46625">
        <ele>7.138595</ele>
        <time>2020-08-28T23:30:57.992Z</time>
      </trkpt>
      <trkpt lat="63.57439" lon="19.46518">
        <ele>7.693554</ele>
        <time>2020-08-28T23:31:09.343Z</time>
      </trkpt>
      <trkpt lat="63.57469" lon="19.46456">
        <ele>8.139349</ele>
        <time>2020-08-28T23:31:18.193Z</time>
      </trkpt>
      <trkpt lat="63.57506" lon="19.46418">
        <ele>8.582074</ele>
        <time>2020-08-28T23:31:26.735Z</time>
      </trkpt>
      <trkpt lat="63.57544" lon="19.46399">
        <ele>8.943569</ele>
        <time>2020-08-28T23:31:34.792Z</time>
      </trkpt>
      <trkpt lat="63.57688" lon="19.46327">
        <ele>9.499207</ele>
        <time>2020-08-28T23:32:02.773Z</time>
      </trkpt>
      <trkpt lat="63.57707" lon="19.46318">
        <ele>9.572208</ele>
        <time>2020-08-28T23:32:06.180Z</time>
      </trkpt>
      <trkpt lat="63.57725" lon="19.46309">
        <ele>9.614617</ele>
        <time>2020-08-28T23:32:09.743Z</time>
      </trkpt>
      <trkpt lat="63.57727" lon="19.46316">
        <ele>9.620999</ele>
        <time>2020-08-28T23:32:10.367Z</time>
      </trkpt>
      <trkpt lat="63.57729" lon="19.46322">
        <ele>9.627225</ele>
        <time>2020-08-28T23:32:11.007Z</time>
      </trkpt>
      <trkpt lat="63.57733" lon="19.46328">
        <ele>9.636188</ele>
        <time>2020-08-28T23:32:11.870Z</time>
      </trkpt>
      <trkpt lat="63.57738" lon="19.46328">
        <ele>9.644217</ele>
        <time>2020-08-28T23:32:12.683Z</time>
      </trkpt>
      <trkpt lat="63.57747" lon="19.46318">
        <ele>9.663206</ele>
        <time>2020-08-28T23:32:14.674Z</time>
      </trkpt>
      <trkpt lat="63.57765" lon="19.46289">
        <ele>9.701417</ele>
        <time>2020-08-28T23:32:18.500Z</time>
      </trkpt>
      <trkpt lat="63.5781" lon="19.46254">
        <ele>9.786713</ele>
        <time>2020-08-28T23:32:27.250Z</time>
      </trkpt>
      <trkpt lat="63.57827" lon="19.46255">
        <ele>9.817763</ele>
        <time>2020-08-28T23:32:30.438Z</time>
      </trkpt>
      <trkpt lat="63.57841" lon="19.46251">
        <ele>9.843437</ele>
        <time>2020-08-28T23:32:33.031Z</time>
      </trkpt>
      <trkpt lat="63.57846" lon="19.46248">
        <ele>9.851317</ele>
        <time>2020-08-28T23:32:33.868Z</time>
      </trkpt>
      <trkpt lat="63.57847" lon="19.46241">
        <ele>9.857282</ele>
        <time>2020-08-28T23:32:34.502Z</time>
      </trkpt>
      <trkpt lat="63.57848" lon="19.46231">
        <ele>9.865014</ele>
        <time>2020-08-28T23:32:35.298Z</time>
      </trkpt>
      <trkpt lat="63.57846" lon="19.4622">
        <ele>9.874039</ele>
        <time>2020-08-28T23:32:36.227Z</time>
      </trkpt>
      <trkpt lat="63.57864" lon="19.46197">
        <ele>9.916599</ele>
        <time>2020-08-28T23:32:39.949Z</time>
      </trkpt>
      <trkpt lat="63.57893" lon="19.46134">
        <ele>10.184644</ele>
        <time>2020-08-28T23:32:47.526Z</time>
      </trkpt>
      <trkpt lat="63.57988" lon="19.45809">
        <ele>11.680455</ele>
        <time>2020-08-28T23:33:22.575Z</time>
      </trkpt>
      <trkpt lat="63.58007" lon="19.45761">
        <ele>12.153652</ele>
        <time>2020-08-28T23:33:29.004Z</time>
      </trkpt>
      <trkpt lat="63.58016" lon="19.45734">
        <ele>12.416415</ele>
        <time>2020-08-28T23:33:32.678Z</time>
      </trkpt>
      <trkpt lat="63.58044" lon="19.45685">
        <ele>12.998451</ele>
        <time>2020-08-28T23:33:41.001Z</time>
      </trkpt>
      <trkpt lat="63.58092" lon="19.45606">
        <ele>13.994866</ele>
        <time>2020-08-28T23:33:55.742Z</time>
      </trkpt>
      <trkpt lat="63.58184" lon="19.45492">
        <ele>16.096538</ele>
        <time>2020-08-28T23:34:22.404Z</time>
      </trkpt>
      <trkpt lat="63.58323" lon="19.45277">
        <ele>18.392308</ele>
        <time>2020-08-28T23:35:01.700Z</time>
      </trkpt>
      <trkpt lat="63.58357" lon="19.45233">
        <ele>18.680925</ele>
        <time>2020-08-28T23:35:09.530Z</time>
      </trkpt>
      <trkpt lat="63.58393" lon="19.45197">
        <ele>18.96863</ele>
        <time>2020-08-28T23:35:16.819Z</time>
      </trkpt>
      <trkpt lat="63.5837" lon="19.44868">
        <ele>16.474374</ele>
        <time>2020-08-28T23:35:38.623Z</time>
      </trkpt>
      <trkpt lat="63.58355" lon="19.44792">
        <ele>15.763668</ele>
        <time>2020-08-28T23:35:43.322Z</time>
      </trkpt>
      <trkpt lat="63.58313" lon="19.44697">
        <ele>14.098053</ele>
        <time>2020-08-28T23:35:50.993Z</time>
      </trkpt>
      <trkpt lat="63.58266" lon="19.44627">
        <ele>12.417889</ele>
        <time>2020-08-28T23:35:58.357Z</time>
      </trkpt>
      <trkpt lat="63.58258" lon="19.44608">
        <ele>12.066181</ele>
        <time>2020-08-28T23:35:59.947Z</time>
      </trkpt>
      <trkpt lat="63.58217" lon="19.44513">
        <ele>10.333529</ele>
        <time>2020-08-28T23:36:07.775Z</time>
      </trkpt>
      <trkpt lat="63.58195" lon="19.44464">
        <ele>9.965595</ele>
        <time>2020-08-28T23:36:12.129Z</time>
      </trkpt>
      <trkpt lat="63.58173" lon="19.44412">
        <ele>9.637206</ele>
        <time>2020-08-28T23:36:16.830Z</time>
      </trkpt>
      <trkpt lat="63.58118" lon="19.44291">
        <ele>8.863332</ele>
        <time>2020-08-28T23:36:29.473Z</time>
      </trkpt>
      <trkpt lat="63.58016" lon="19.4407">
        <ele>8.113073</ele>
        <time>2020-08-28T23:36:53.779Z</time>
      </trkpt>
      <trkpt lat="63.57901" lon="19.43807">
        <ele>7.447121</ele>
        <time>2020-08-28T23:37:21.237Z</time>
      </trkpt>
      <trkpt lat="63.5777" lon="19.43516">
        <ele>6.522346</ele>
        <time>2020-08-28T23:37:51.356Z</time>
      </trkpt>
      <trkpt lat="63.57727" lon="19.43446">
        <ele>6.247735</ele>
        <time>2020-08-28T23:38:00.048Z</time>
      </trkpt>
      <trkpt lat="63.57369" lon="19.43031">
        <ele>4.615869</ele>
        <time>2020-08-28T23:39:07.137Z</time>
      </trkpt>
      <trkpt lat="63.57324" lon="19.4297">
        <ele>4.739043</ele>
        <time>2020-08-28T23:39:16.501Z</time>
      </trkpt>
      <trkpt lat="63.57289" lon="19.42915">
        <ele>4.838738</ele>
        <time>2020-08-28T23:39:24.291Z</time>
      </trkpt>
      <trkpt lat="63.5719" lon="19.42698">
        <ele>5.440046</ele>
        <time>2020-08-28T23:39:51.639Z</time>
      </trkpt>
      <trkpt lat="63.57134" lon="19.42624">
        <ele>5.903272</ele>
        <time>2020-08-28T23:40:04.961Z</time>
      </trkpt>
      <trkpt lat="63.57105" lon="19.42598">
        <ele>6.127296</ele>
        <time>2020-08-28T23:40:11.396Z</time>
      </trkpt>
      <trkpt lat="63.57077" lon="19.42576">
        <ele>6.323868</ele>
        <time>2020-08-28T23:40:17.305Z</time>
      </trkpt>
      <trkpt lat="63.56975" lon="19.42516">
        <ele>6.800387</ele>
        <time>2020-08-28T23:40:38.387Z</time>
      </trkpt>
      <trkpt lat="63.56907" lon="19.42445">
        <ele>7.113313</ele>
        <time>2020-08-28T23:40:52.338Z</time>
      </trkpt>
      <trkpt lat="63.56693" lon="19.42102">
        <ele>6.8771</ele>
        <time>2020-08-28T23:41:38.488Z</time>
      </trkpt>
      <trkpt lat="63.56625" lon="19.41957">
        <ele>6.671359</ele>
        <time>2020-08-28T23:41:54.313Z</time>
      </trkpt>
      <trkpt lat="63.56534" lon="19.41734">
        <ele>6.116444</ele>
        <time>2020-08-28T23:42:16.732Z</time>
      </trkpt>
      <trkpt lat="63.56384" lon="19.41408">
        <ele>5.336361</ele>
        <time>2020-08-28T23:42:51.792Z</time>
      </trkpt>
      <trkpt lat="63.56336" lon="19.41292">
        <ele>5.157941</ele>
        <time>2020-08-28T23:43:03.830Z</time>
      </trkpt>
      <trkpt lat="63.5631" lon="19.41247">
        <ele>5.083789</ele>
        <time>2020-08-28T23:43:09.490Z</time>
      </trkpt>
      <trkpt lat="63.56197" lon="19.41131">
        <ele>4.778363</ele>
        <time>2020-08-28T23:43:30.911Z</time>
      </trkpt>
      <trkpt lat="63.56163" lon="19.41083">
        <ele>4.657376</ele>
        <time>2020-08-28T23:43:37.743Z</time>
      </trkpt>
      <trkpt lat="63.56006" lon="19.40788">
        <ele>4.146111</ele>
        <time>2020-08-28T23:44:12.379Z</time>
      </trkpt>
      <trkpt lat="63.55931" lon="19.40625">
        <ele>4.118706</ele>
        <time>2020-08-28T23:44:30.707Z</time>
      </trkpt>
      <trkpt lat="63.55929" lon="19.40621">
        <ele>4.13214</ele>
        <time>2020-08-28T23:44:31.120Z</time>
      </trkpt>
      <trkpt lat="63.55871" lon="19.40478">
        <ele>4.622335</ele>
        <time>2020-08-28T23:44:47.659Z</time>
      </trkpt>
      <trkpt lat="63.55826" lon="19.40367">
        <ele>5.001672</ele>
        <time>2020-08-28T23:45:01.514Z</time>
      </trkpt>
      <trkpt lat="63.55792" lon="19.40285">
        <ele>5.68912</ele>
        <time>2020-08-28T23:45:12.474Z</time>
      </trkpt>
      <trkpt lat="63.55687" lon="19.40046">
        <ele>7.722494</ele>
        <time>2020-08-28T23:45:46.561Z</time>
      </trkpt>
      <trkpt lat="63.55587" lon="19.3986">
        <ele>9.071217</ele>
        <time>2020-08-28T23:46:14.408Z</time>
      </trkpt>
      <trkpt lat="63.55578" lon="19.39846">
        <ele>9.192606</ele>
        <time>2020-08-28T23:46:16.889Z</time>
      </trkpt>
      <trkpt lat="63.5552" lon="19.39776">
        <ele>9.12557</ele>
        <time>2020-08-28T23:46:29.582Z</time>
      </trkpt>
      <trkpt lat="63.55512" lon="19.39768">
        <ele>9.067215</ele>
        <time>2020-08-28T23:46:31.241Z</time>
      </trkpt>
      <trkpt lat="63.55429" lon="19.3968">
        <ele>8.488258</ele>
        <time>2020-08-28T23:46:45.732Z</time>
      </trkpt>
      <trkpt lat="63.55396" lon="19.39643">
        <ele>8.238563</ele>
        <time>2020-08-28T23:46:50.928Z</time>
      </trkpt>
      <trkpt lat="63.55274" lon="19.39501">
        <ele>6.031933</ele>
        <time>2020-08-28T23:47:10.515Z</time>
      </trkpt>
      <trkpt lat="63.55226" lon="19.39448">
        <ele>5.401954</ele>
        <time>2020-08-28T23:47:18.463Z</time>
      </trkpt>
      <trkpt lat="63.55183" lon="19.39399">
        <ele>5.473585</ele>
        <time>2020-08-28T23:47:26.292Z</time>
      </trkpt>
      <trkpt lat="63.55129" lon="19.393">
        <ele>5.577334</ele>
        <time>2020-08-28T23:47:39.591Z</time>
      </trkpt>
      <trkpt lat="63.54998" lon="19.39018">
        <ele>7.426116</ele>
        <time>2020-08-28T23:48:20.074Z</time>
      </trkpt>
      <trkpt lat="63.54952" lon="19.38918">
        <ele>8.185323</ele>
        <time>2020-08-28T23:48:34.175Z</time>
      </trkpt>
      <trkpt lat="63.54926" lon="19.3886">
        <ele>8.478065</ele>
        <time>2020-08-28T23:48:42.063Z</time>
      </trkpt>
      <trkpt lat="63.54923" lon="19.38794">
        <ele>8.71375</ele>
        <time>2020-08-28T23:48:48.289Z</time>
      </trkpt>
      <trkpt lat="63.54901" lon="19.38668">
        <ele>9.193441</ele>
        <time>2020-08-28T23:49:00.528Z</time>
      </trkpt>
      <trkpt lat="63.54815" lon="19.37884">
        <ele>10.000829</ele>
        <time>2020-08-28T23:50:06.053Z</time>
      </trkpt>
      <trkpt lat="63.54791" lon="19.37738">
        <ele>10.092796</ele>
        <time>2020-08-28T23:50:19.363Z</time>
      </trkpt>
      <trkpt lat="63.54769" lon="19.37651">
        <ele>10.127746</ele>
        <time>2020-08-28T23:50:27.654Z</time>
      </trkpt>
      <trkpt lat="63.54764" lon="19.37627">
        <ele>10.137107</ele>
        <time>2020-08-28T23:50:30.012Z</time>
      </trkpt>
      <trkpt lat="63.54738" lon="19.37547">
        <ele>10.171811</ele>
        <time>2020-08-28T23:50:37.952Z</time>
      </trkpt>
      <trkpt lat="63.54703" lon="19.37472">
        <ele>10.196574</ele>
        <time>2020-08-28T23:50:46.305Z</time>
      </trkpt>
      <trkpt lat="63.5467" lon="19.37413">
        <ele>9.885733</ele>
        <time>2020-08-28T23:50:53.377Z</time>
      </trkpt>
      <trkpt lat="63.54587" lon="19.3731">
        <ele>9.203547</ele>
        <time>2020-08-28T23:51:08.096Z</time>
      </trkpt>
      <trkpt lat="63.54539" lon="19.37252">
        <ele>8.841873</ele>
        <time>2020-08-28T23:51:16.680Z</time>
      </trkpt>
      <trkpt lat="63.54482" lon="19.37198">
        <ele>8.552902</ele>
        <time>2020-08-28T23:51:26.697Z</time>
      </trkpt>
      <trkpt lat="63.54378" lon="19.3712">
        <ele>8.065883</ele>
        <time>2020-08-28T23:51:45.139Z</time>
      </trkpt>
      <trkpt lat="63.54247" lon="19.37037">
        <ele>7.985833</ele>
        <time>2020-08-28T23:52:09.453Z</time>
      </trkpt>
      <trkpt lat="63.54009" lon="19.36876">
        <ele>7.724744</ele>
        <time>2020-08-28T23:52:53.238Z</time>
      </trkpt>
      <trkpt lat="63.53826" lon="19.36759">
        <ele>7.356648</ele>
        <time>2020-08-28T23:53:25.512Z</time>
      </trkpt>
      <trkpt lat="63.53727" lon="19.36696">
        <ele>7.375784</ele>
        <time>2020-08-28T23:53:43.868Z</time>
      </trkpt>
      <trkpt lat="63.53631" lon="19.36631">
        <ele>7.736081</ele>
        <time>2020-08-28T23:54:02.897Z</time>
      </trkpt>
      <trkpt lat="63.53528" lon="19.36588">
        <ele>8.321067</ele>
        <time>2020-08-28T23:54:23.867Z</time>
      </trkpt>
      <trkpt lat="63.53457" lon="19.36578">
        <ele>8.754078</ele>
        <time>2020-08-28T23:54:38.221Z</time>
      </trkpt>
      <trkpt lat="63.53292" lon="19.36582">
        <ele>9.568384</ele>
        <time>2020-08-28T23:55:10.800Z</time>
      </trkpt>
      <trkpt lat="63.53203" lon="19.36599">
        <ele>9.705067</ele>
        <time>2020-08-28T23:55:27.125Z</time>
      </trkpt>
      <trkpt lat="63.53033" lon="19.36571">
        <ele>9.510622</ele>
        <time>2020-08-28T23:55:56.220Z</time>
      </trkpt>
      <trkpt lat="63.52977" lon="19.36545">
        <ele>9.396047</ele>
        <time>2020-08-28T23:56:05.991Z</time>
      </trkpt>
      <trkpt lat="63.52621" lon="19.36177">
        <ele>9.710755</ele>
        <time>2020-08-28T23:57:16.943Z</time>
      </trkpt>
      <trkpt lat="63.52577" lon="19.36142">
        <ele>9.855862</ele>
        <time>2020-08-28T23:57:25.801Z</time>
      </trkpt>
      <trkpt lat="63.52419" lon="19.36067">
        <ele>10.282304</ele>
        <time>2020-08-28T23:57:56.358Z</time>
      </trkpt>
      <trkpt lat="63.521" lon="19.36021">
        <ele>10.577289</ele>
        <time>2020-08-28T23:58:54.323Z</time>
      </trkpt>
      <trkpt lat="63.52036" lon="19.36003">
        <ele>10.434691</ele>
        <time>2020-08-28T23:59:05.399Z</time>
      </trkpt>
      <trkpt lat="63.51995" lon="19.35978">
        <ele>10.340759</ele>
        <time>2020-08-28T23:59:12.595Z</time>
      </trkpt>
      <trkpt lat="63.51805" lon="19.3577">
        <ele>9.758439</ele>
        <time>2020-08-28T23:59:48.308Z</time>
      </trkpt>
      <trkpt lat="63.51764" lon="19.35717">
        <ele>9.717001</ele>
        <time>2020-08-28T23:59:56.556Z</time>
      </trkpt>
      <trkpt lat="63.51745" lon="19.35676">
        <ele>9.728193</ele>
        <time>2020-08-29T00:00:01.314Z</time>
      </trkpt>
      <trkpt lat="63.5167" lon="19.35413">
        <ele>9.794722</ele>
        <time>2020-08-29T00:00:26.760Z</time>
      </trkpt>
      <trkpt lat="63.51642" lon="19.35283">
        <ele>9.857536</ele>
        <time>2020-08-29T00:00:38.578Z</time>
      </trkpt>
      <trkpt lat="63.51581" lon="19.34901">
        <ele>9.977282</ele>
        <time>2020-08-29T00:01:11.159Z</time>
      </trkpt>
      <trkpt lat="63.51553" lon="19.34808">
        <ele>9.99081</ele>
        <time>2020-08-29T00:01:20.103Z</time>
      </trkpt>
      <trkpt lat="63.51538" lon="19.34772">
        <ele>9.996849</ele>
        <time>2020-08-29T00:01:24.086Z</time>
      </trkpt>
      <trkpt lat="63.51472" lon="19.34677">
        <ele>10.0194</ele>
        <time>2020-08-29T00:01:38.060Z</time>
      </trkpt>
      <trkpt lat="63.5139" lon="19.34545">
        <ele>10.049448</ele>
        <time>2020-08-29T00:01:56.054Z</time>
      </trkpt>
      <trkpt lat="63.51286" lon="19.34396">
        <ele>10.05209</ele>
        <time>2020-08-29T00:02:18.141Z</time>
      </trkpt>
      <trkpt lat="63.51145" lon="19.34138">
        <ele>10.169271</ele>
        <time>2020-08-29T00:02:50.575Z</time>
      </trkpt>
      <trkpt lat="63.51002" lon="19.33856">
        <ele>10.778389</ele>
        <time>2020-08-29T00:03:25.991Z</time>
      </trkpt>
      <trkpt lat="63.50893" lon="19.33647">
        <ele>11.974093</ele>
        <time>2020-08-29T00:03:55.628Z</time>
      </trkpt>
      <trkpt lat="63.50842" lon="19.3351">
        <ele>12.932674</ele>
        <time>2020-08-29T00:04:13.471Z</time>
      </trkpt>
      <trkpt lat="63.50762" lon="19.33235">
        <ele>14.390105</ele>
        <time>2020-08-29T00:04:46.031Z</time>
      </trkpt>
      <trkpt lat="63.50734" lon="19.33171">
        <ele>14.772047</ele>
        <time>2020-08-29T00:04:53.980Z</time>
      </trkpt>
      <trkpt lat="63.50711" lon="19.33134">
        <ele>14.934397</ele>
        <time>2020-08-29T00:04:59.222Z</time>
      </trkpt>
      <trkpt lat="63.50683" lon="19.33098">
        <ele>14.683035</ele>
        <time>2020-08-29T00:05:04.637Z</time>
      </trkpt>
      <trkpt lat="63.50643" lon="19.33067">
        <ele>14.356085</ele>
        <time>2020-08-29T00:05:11.482Z</time>
      </trkpt>
      <trkpt lat="63.50602" lon="19.33052">
        <ele>14.026746</ele>
        <time>2020-08-29T00:05:18.000Z</time>
      </trkpt>
      <trkpt lat="63.50546" lon="19.33038">
        <ele>13.590573</ele>
        <time>2020-08-29T00:05:26.233Z</time>
      </trkpt>
      <trkpt lat="63.50379" lon="19.32995">
        <ele>11.425219</ele>
        <time>2020-08-29T00:05:51.376Z</time>
      </trkpt>
      <trkpt lat="63.50334" lon="19.32984">
        <ele>10.950688</ele>
        <time>2020-08-29T00:05:58.472Z</time>
      </trkpt>
      <trkpt lat="63.50314" lon="19.32979">
        <ele>10.759257</ele>
        <time>2020-08-29T00:06:01.627Z</time>
      </trkpt>
      <trkpt lat="63.5026" lon="19.32948">
        <ele>10.220327</ele>
        <time>2020-08-29T00:06:10.383Z</time>
      </trkpt>
      <trkpt lat="63.50222" lon="19.32899">
        <ele>9.805921</ele>
        <time>2020-08-29T00:06:17.109Z</time>
      </trkpt>
      <trkpt lat="63.50197" lon="19.32853">
        <ele>9.501749</ele>
        <time>2020-08-29T00:06:22.239Z</time>
      </trkpt>
      <trkpt lat="63.50194" lon="19.32847">
        <ele>9.471345</ele>
        <time>2020-08-29T00:06:22.859Z</time>
      </trkpt>
      <trkpt lat="63.50183" lon="19.32823">
        <ele>9.357232</ele>
        <time>2020-08-29T00:06:25.127Z</time>
      </trkpt>
      <trkpt lat="63.5017" lon="19.32797">
        <ele>9.222041</ele>
        <time>2020-08-29T00:06:28.022Z</time>
      </trkpt>
      <trkpt lat="63.50163" lon="19.32783">
        <ele>9.153008</ele>
        <time>2020-08-29T00:06:29.463Z</time>
      </trkpt>
      <trkpt lat="63.50161" lon="19.32779">
        <ele>9.131409</ele>
        <time>2020-08-29T00:06:29.823Z</time>
      </trkpt>
      <trkpt lat="63.50005" lon="19.32462">
        <ele>8.039607</ele>
        <time>2020-08-29T00:07:03.732Z</time>
      </trkpt>
      <trkpt lat="63.5" lon="19.32453">
        <ele>8.030585</ele>
        <time>2020-08-29T00:07:04.829Z</time>
      </trkpt>
      <trkpt lat="63.49978" lon="19.32407">
        <ele>7.987826</ele>
        <time>2020-08-29T00:07:10.371Z</time>
      </trkpt>
      <trkpt lat="63.49959" lon="19.32369">
        <ele>7.952183</ele>
        <time>2020-08-29T00:07:15.103Z</time>
      </trkpt>
      <trkpt lat="63.49944" lon="19.32341">
        <ele>7.925163</ele>
        <time>2020-08-29T00:07:18.727Z</time>
      </trkpt>
      <trkpt lat="63.49921" lon="19.32291">
        <ele>8.065387</ele>
        <time>2020-08-29T00:07:25.069Z</time>
      </trkpt>
      <trkpt lat="63.4988" lon="19.32203">
        <ele>8.583928</ele>
        <time>2020-08-29T00:07:36.698Z</time>
      </trkpt>
      <trkpt lat="63.49809" lon="19.32091">
        <ele>9.375918</ele>
        <time>2020-08-29T00:07:55.340Z</time>
      </trkpt>
      <trkpt lat="63.49774" lon="19.32053">
        <ele>9.696506</ele>
        <time>2020-08-29T00:08:03.764Z</time>
      </trkpt>
      <trkpt lat="63.49716" lon="19.32021">
        <ele>10.119529</ele>
        <time>2020-08-29T00:08:16.002Z</time>
      </trkpt>
      <trkpt lat="63.4968" lon="19.32011">
        <ele>10.380457</ele>
        <time>2020-08-29T00:08:23.268Z</time>
      </trkpt>
      <trkpt lat="63.49647" lon="19.32003">
        <ele>10.616932</ele>
        <time>2020-08-29T00:08:29.750Z</time>
      </trkpt>
      <trkpt lat="63.49606" lon="19.31991">
        <ele>10.908589</ele>
        <time>2020-08-29T00:08:37.638Z</time>
      </trkpt>
      <trkpt lat="63.49554" lon="19.31969">
        <ele>11.271121</ele>
        <time>2020-08-29T00:08:47.475Z</time>
      </trkpt>
      <trkpt lat="63.49542" lon="19.31963">
        <ele>11.354656</ele>
        <time>2020-08-29T00:08:49.774Z</time>
      </trkpt>
      <trkpt lat="63.49497" lon="19.31947">
        <ele>11.671052</ele>
        <time>2020-08-29T00:08:58.840Z</time>
      </trkpt>
      <trkpt lat="63.49485" lon="19.31945">
        <ele>11.749403</ele>
        <time>2020-08-29T00:09:01.165Z</time>
      </trkpt>
      <trkpt lat="63.49472" lon="19.3195">
        <ele>11.844442</ele>
        <time>2020-08-29T00:09:03.931Z</time>
      </trkpt>
      <trkpt lat="63.49462" lon="19.3196">
        <ele>11.916495</ele>
        <time>2020-08-29T00:09:06.153Z</time>
      </trkpt>
      <trkpt lat="63.49456" lon="19.31974">
        <ele>11.979752</ele>
        <time>2020-08-29T00:09:08.124Z</time>
      </trkpt>
      <trkpt lat="63.49451" lon="19.3199">
        <ele>12.0385</ele>
        <time>2020-08-29T00:09:09.867Z</time>
      </trkpt>
      <trkpt lat="63.49184" lon="19.31578">
        <ele>17.167845</ele>
        <time>2020-08-29T00:10:26.715Z</time>
      </trkpt>
      <trkpt lat="63.48935" lon="19.31196">
        <ele>18.881689</ele>
        <time>2020-08-29T00:11:23.733Z</time>
      </trkpt>
      <trkpt lat="63.48857" lon="19.31068">
        <ele>19.331838</ele>
        <time>2020-08-29T00:11:42.484Z</time>
      </trkpt>
      <trkpt lat="63.48841" lon="19.3104">
        <ele>19.473304</ele>
        <time>2020-08-29T00:11:46.738Z</time>
      </trkpt>
      <trkpt lat="63.48752" lon="19.30889">
        <ele>20.259525</ele>
        <time>2020-08-29T00:12:10.076Z</time>
      </trkpt>
      <trkpt lat="63.48696" lon="19.30791">
        <ele>20.440904</ele>
        <time>2020-08-29T00:12:23.799Z</time>
      </trkpt>
      <trkpt lat="63.48684" lon="19.30769">
        <ele>20.314122</ele>
        <time>2020-08-29T00:12:26.629Z</time>
      </trkpt>
      <trkpt lat="63.48648" lon="19.30703">
        <ele>19.947947</ele>
        <time>2020-08-29T00:12:34.466Z</time>
      </trkpt>
      <trkpt lat="63.48534" lon="19.30489">
        <ele>18.089057</ele>
        <time>2020-08-29T00:12:56.433Z</time>
      </trkpt>
      <trkpt lat="63.48397" lon="19.30225">
        <ele>14.36025</ele>
        <time>2020-08-29T00:13:21.237Z</time>
      </trkpt>
      <trkpt lat="63.4826" lon="19.29968">
        <ele>11.134913</ele>
        <time>2020-08-29T00:13:46.527Z</time>
      </trkpt>
      <trkpt lat="63.48214" lon="19.29885">
        <ele>10.426382</ele>
        <time>2020-08-29T00:13:55.656Z</time>
      </trkpt>
      <trkpt lat="63.48176" lon="19.29818">
        <ele>9.843919</ele>
        <time>2020-08-29T00:14:03.454Z</time>
      </trkpt>
      <trkpt lat="63.48125" lon="19.29727">
        <ele>9.298423</ele>
        <time>2020-08-29T00:14:13.952Z</time>
      </trkpt>
      <trkpt lat="63.48076" lon="19.29642">
        <ele>8.875756</ele>
        <time>2020-08-29T00:14:24.068Z</time>
      </trkpt>
      <trkpt lat="63.47949" lon="19.29449">
        <ele>8.059631</ele>
        <time>2020-08-29T00:14:48.610Z</time>
      </trkpt>
      <trkpt lat="63.47765" lon="19.2917">
        <ele>7.674486</ele>
        <time>2020-08-29T00:15:27.352Z</time>
      </trkpt>
      <trkpt lat="63.47445" lon="19.2872">
        <ele>8.215913</ele>
        <time>2020-08-29T00:16:38.239Z</time>
      </trkpt>
      <trkpt lat="63.47318" lon="19.28519">
        <ele>7.596215</ele>
        <time>2020-08-29T00:17:02.882Z</time>
      </trkpt>
      <trkpt lat="63.47269" lon="19.28428">
        <ele>7.255906</ele>
        <time>2020-08-29T00:17:13.332Z</time>
      </trkpt>
      <trkpt lat="63.4719" lon="19.28271">
        <ele>7.770735</ele>
        <time>2020-08-29T00:17:32.902Z</time>
      </trkpt>
      <trkpt lat="63.47151" lon="19.28186">
        <ele>8.038597</ele>
        <time>2020-08-29T00:17:44.395Z</time>
      </trkpt>
      <trkpt lat="63.46806" lon="19.27346">
        <ele>15.171805</ele>
        <time>2020-08-29T00:19:37.932Z</time>
      </trkpt>
      <trkpt lat="63.46663" lon="19.27052">
        <ele>18.538159</ele>
        <time>2020-08-29T00:20:26.661Z</time>
      </trkpt>
      <trkpt lat="63.4658" lon="19.26901">
        <ele>17.714591</ele>
        <time>2020-08-29T00:20:46.488Z</time>
      </trkpt>
      <trkpt lat="63.46529" lon="19.26811">
        <ele>16.413046</ele>
        <time>2020-08-29T00:20:55.181Z</time>
      </trkpt>
      <trkpt lat="63.46421" lon="19.2663">
        <ele>11.570667</ele>
        <time>2020-08-29T00:21:11.779Z</time>
      </trkpt>
      <trkpt lat="63.46364" lon="19.26527">
        <ele>8.43052</ele>
        <time>2020-08-29T00:21:20.733Z</time>
      </trkpt>
      <trkpt lat="63.46392" lon="19.2644">
        <ele>7.333749</ele>
        <time>2020-08-29T00:21:27.017Z</time>
      </trkpt>
      <trkpt lat="63.46425" lon="19.26339">
        <ele>6.532153</ele>
        <time>2020-08-29T00:21:35.020Z</time>
      </trkpt>
      <trkpt lat="63.46501" lon="19.26107">
        <ele>5.436882</ele>
        <time>2020-08-29T00:21:56.978Z</time>
      </trkpt>
      <trkpt lat="63.46556" lon="19.25939">
        <ele>5.90688</ele>
        <time>2020-08-29T00:22:15.228Z</time>
      </trkpt>
      <trkpt lat="63.46597" lon="19.25836">
        <ele>6.361527</ele>
        <time>2020-08-29T00:22:28.340Z</time>
      </trkpt>
      <trkpt lat="63.46636" lon="19.2575">
        <ele>7.235937</ele>
        <time>2020-08-29T00:22:40.407Z</time>
      </trkpt>
      <trkpt lat="63.46662" lon="19.257">
        <ele>7.793436</ele>
        <time>2020-08-29T00:22:48.341Z</time>
      </trkpt>
      <trkpt lat="63.46766" lon="19.25555">
        <ele>10.038393</ele>
        <time>2020-08-29T00:23:18.035Z</time>
      </trkpt>
      <trkpt lat="63.47246" lon="19.24952">
        <ele>21.602695</ele>
        <time>2020-08-29T00:25:35.984Z</time>
      </trkpt>
      <trkpt lat="63.47397" lon="19.24762">
        <ele>22.674412</ele>
        <time>2020-08-29T00:26:08.990Z</time>
      </trkpt>
      <trkpt lat="63.47416" lon="19.24737">
        <ele>22.627755</ele>
        <time>2020-08-29T00:26:12.498Z</time>
      </trkpt>
      <trkpt lat="63.47492" lon="19.2462">
        <ele>22.43235</ele>
        <time>2020-08-29T00:26:27.680Z</time>
      </trkpt>
      <trkpt lat="63.47515" lon="19.24553">
        <ele>22.533961</ele>
        <time>2020-08-29T00:26:33.863Z</time>
      </trkpt>
      <trkpt lat="63.47523" lon="19.24502">
        <ele>22.692938</ele>
        <time>2020-08-29T00:26:37.888Z</time>
      </trkpt>
      <trkpt lat="63.47543" lon="19.24014">
        <ele>25.539128</ele>
        <time>2020-08-29T00:27:24.613Z</time>
      </trkpt>
      <trkpt lat="63.47541" lon="19.23859">
        <ele>27.16068</ele>
        <time>2020-08-29T00:27:43.668Z</time>
      </trkpt>
      <trkpt lat="63.47517" lon="19.23344">
        <ele>35.495368</ele>
        <time>2020-08-29T00:28:54.919Z</time>
      </trkpt>
      <trkpt lat="63.4752" lon="19.23249">
        <ele>36.70274</ele>
        <time>2020-08-29T00:29:06.781Z</time>
      </trkpt>
      <trkpt lat="63.47535" lon="19.23149">
        <ele>38.050092</ele>
        <time>2020-08-29T00:29:19.204Z</time>
      </trkpt>
      <trkpt lat="63.47612" lon="19.22778">
        <ele>43.230973</ele>
        <time>2020-08-29T00:30:04.872Z</time>
      </trkpt>
      <trkpt lat="63.4763" lon="19.22695">
        <ele>44.393503</ele>
        <time>2020-08-29T00:30:16.448Z</time>
      </trkpt>
      <trkpt lat="63.47649" lon="19.22638">
        <ele>45.527295</ele>
        <time>2020-08-29T00:30:26.228Z</time>
      </trkpt>
      <trkpt lat="63.47706" lon="19.22494">
        <ele>49.916299</ele>
        <time>2020-08-29T00:30:54.563Z</time>
      </trkpt>
      <trkpt lat="63.4788" lon="19.22102">
        <ele>64.126458</ele>
        <time>2020-08-29T00:32:26.110Z</time>
      </trkpt>
      <trkpt lat="63.4792" lon="19.22004">
        <ele>67.823149</ele>
        <time>2020-08-29T00:32:48.689Z</time>
      </trkpt>
      <trkpt lat="63.47993" lon="19.21782">
        <ele>75.578627</ele>
        <time>2020-08-29T00:33:36.385Z</time>
      </trkpt>
      <trkpt lat="63.48015" lon="19.21694">
        <ele>78.002948</ele>
        <time>2020-08-29T00:33:52.870Z</time>
      </trkpt>
      <trkpt lat="63.48036" lon="19.21593">
        <ele>80.484223</ele>
        <time>2020-08-29T00:34:10.352Z</time>
      </trkpt>
      <trkpt lat="63.48068" lon="19.21406">
        <ele>84.959753</ele>
        <time>2020-08-29T00:34:39.958Z</time>
      </trkpt>
      <trkpt lat="63.48097" lon="19.2121">
        <ele>88.029043</ele>
        <time>2020-08-29T00:35:06.131Z</time>
      </trkpt>
      <trkpt lat="63.48105" lon="19.21126">
        <ele>89.239256</ele>
        <time>2020-08-29T00:35:16.620Z</time>
      </trkpt>
      <trkpt lat="63.4812" lon="19.2105">
        <ele>90.413282</ele>
        <time>2020-08-29T00:35:26.597Z</time>
      </trkpt>
      <trkpt lat="63.48145" lon="19.20973">
        <ele>91.520557</ele>
        <time>2020-08-29T00:35:37.744Z</time>
      </trkpt>
      <trkpt lat="63.48172" lon="19.20904">
        <ele>92.32646</ele>
        <time>2020-08-29T00:35:48.054Z</time>
      </trkpt>
      <trkpt lat="63.48362" lon="19.20368">
        <ele>97.490717</ele>
        <time>2020-08-29T00:36:59.057Z</time>
      </trkpt>
      <trkpt lat="63.48408" lon="19.20219">
        <ele>97.623046</ele>
        <time>2020-08-29T00:37:15.296Z</time>
      </trkpt>
      <trkpt lat="63.48464" lon="19.19946">
        <ele>97.003197</ele>
        <time>2020-08-29T00:37:37.516Z</time>
      </trkpt>
      <trkpt lat="63.48542" lon="19.19425">
        <ele>91.332341</ele>
        <time>2020-08-29T00:38:11.312Z</time>
      </trkpt>
      <trkpt lat="63.4854" lon="19.19275">
        <ele>89.363647</ele>
        <time>2020-08-29T00:38:19.798Z</time>
      </trkpt>
      <trkpt lat="63.48538" lon="19.1911">
        <ele>86.896541</ele>
        <time>2020-08-29T00:38:29.214Z</time>
      </trkpt>
      <trkpt lat="63.4849" lon="19.19118">
        <ele>85.272725</ele>
        <time>2020-08-29T00:38:40.431Z</time>
      </trkpt>
      <trkpt lat="63.48431" lon="19.19097">
        <ele>83.255925</ele>
        <time>2020-08-29T00:38:54.609Z</time>
      </trkpt>
      <trkpt lat="63.48389" lon="19.19054">
        <ele>82.548156</ele>
        <time>2020-08-29T00:39:06.155Z</time>
      </trkpt>
      <trkpt lat="63.48291" lon="19.18928">
        <ele>80.938294</ele>
        <time>2020-08-29T00:39:36.524Z</time>
      </trkpt>
      <trkpt lat="63.48262" lon="19.18884">
        <ele>80.574968</ele>
        <time>2020-08-29T00:39:46.138Z</time>
      </trkpt>
      <trkpt lat="63.48243" lon="19.18838">
        <ele>80.502171</ele>
        <time>2020-08-29T00:39:54.018Z</time>
      </trkpt>
      <trkpt lat="63.48239" lon="19.18816">
        <ele>80.47548</ele>
        <time>2020-08-29T00:39:56.962Z</time>
      </trkpt>
      <trkpt lat="63.48238" lon="19.18752">
        <ele>80.400905</ele>
        <time>2020-08-29T00:40:05.201Z</time>
      </trkpt>
      <trkpt lat="63.48252" lon="19.1865">
        <ele>80.277046</ele>
        <time>2020-08-29T00:40:19.148Z</time>
      </trkpt>
      <trkpt lat="63.48283" lon="19.18511">
        <ele>80.24561</ele>
        <time>2020-08-29T00:40:40.036Z</time>
      </trkpt>
      <trkpt lat="63.48334" lon="19.18288">
        <ele>81.029585</ele>
        <time>2020-08-29T00:41:14.895Z</time>
      </trkpt>
      <trkpt lat="63.48367" lon="19.1818">
        <ele>81.544226</ele>
        <time>2020-08-29T00:41:34.272Z</time>
      </trkpt>
      <trkpt lat="63.48393" lon="19.1807">
        <ele>83.067023</ele>
        <time>2020-08-29T00:41:54.176Z</time>
      </trkpt>
      <trkpt lat="63.48406" lon="19.17996">
        <ele>84.046052</ele>
        <time>2020-08-29T00:42:07.844Z</time>
      </trkpt>
      <trkpt lat="63.48417" lon="19.1783">
        <ele>86.087408</ele>
        <time>2020-08-29T00:42:38.250Z</time>
      </trkpt>
      <trkpt lat="63.48402" lon="19.17422">
        <ele>93.511561</ele>
        <time>2020-08-29T00:43:57.901Z</time>
      </trkpt>
      <trkpt lat="63.48396" lon="19.17355">
        <ele>94.549584</ele>
        <time>2020-08-29T00:44:10.895Z</time>
      </trkpt>
      <trkpt lat="63.48301" lon="19.16742">
        <ele>103.295828</ele>
        <time>2020-08-29T00:46:05.154Z</time>
      </trkpt>
      <trkpt lat="63.48279" lon="19.16678">
        <ele>104.284772</ele>
        <time>2020-08-29T00:46:18.441Z</time>
      </trkpt>
      <trkpt lat="63.4823" lon="19.16577">
        <ele>105.381234</ele>
        <time>2020-08-29T00:46:42.288Z</time>
      </trkpt>
      <trkpt lat="63.48143" lon="19.16486">
        <ele>106.800995</ele>
        <time>2020-08-29T00:47:15.206Z</time>
      </trkpt>
      <trkpt lat="63.47988" lon="19.16378">
        <ele>107.754346</ele>
        <time>2020-08-29T00:48:07.278Z</time>
      </trkpt>
      <trkpt lat="63.47679" lon="19.16004">
        <ele>105.943626</ele>
        <time>2020-08-29T00:49:46.902Z</time>
      </trkpt>
      <trkpt lat="63.4765" lon="19.15959">
        <ele>105.60711</ele>
        <time>2020-08-29T00:49:55.799Z</time>
      </trkpt>
      <trkpt lat="63.47618" lon="19.15888">
        <ele>104.789102</ele>
        <time>2020-08-29T00:50:07.011Z</time>
      </trkpt>
      <trkpt lat="63.47567" lon="19.15765">
        <ele>103.022696</ele>
        <time>2020-08-29T00:50:25.496Z</time>
      </trkpt>
      <trkpt lat="63.47508" lon="19.15624">
        <ele>101.05707</ele>
        <time>2020-08-29T00:50:46.684Z</time>
      </trkpt>
      <trkpt lat="63.47496" lon="19.15597">
        <ele>100.746188</ele>
        <time>2020-08-29T00:50:50.907Z</time>
      </trkpt>
      <trkpt lat="63.47447" lon="19.15459">
        <ele>99.310869</ele>
        <time>2020-08-29T00:51:10.939Z</time>
      </trkpt>
      <trkpt lat="63.47426" lon="19.15368">
        <ele>98.484076</ele>
        <time>2020-08-29T00:51:22.744Z</time>
      </trkpt>
      <trkpt lat="63.47401" lon="19.152">
        <ele>97.142621</ele>
        <time>2020-08-29T00:51:43.669Z</time>
      </trkpt>
      <trkpt lat="63.47388" lon="19.15146">
        <ele>96.699383</ele>
        <time>2020-08-29T00:51:50.837Z</time>
      </trkpt>
      <trkpt lat="63.47226" lon="19.14831">
        <ele>92.781699</ele>
        <time>2020-08-29T00:52:45.834Z</time>
      </trkpt>
      <trkpt lat="63.47176" lon="19.14707">
        <ele>91.243567</ele>
        <time>2020-08-29T00:53:04.381Z</time>
      </trkpt>
      <trkpt lat="63.47152" lon="19.14662">
        <ele>90.426458</ele>
        <time>2020-08-29T00:53:12.084Z</time>
      </trkpt>
      <trkpt lat="63.4706" lon="19.14553">
        <ele>87.702693</ele>
        <time>2020-08-29T00:53:37.412Z</time>
      </trkpt>
      <trkpt lat="63.47039" lon="19.14503">
        <ele>86.900185</ele>
        <time>2020-08-29T00:53:44.794Z</time>
      </trkpt>
      <trkpt lat="63.46986" lon="19.14264">
        <ele>83.332667</ele>
        <time>2020-08-29T00:54:13.300Z</time>
      </trkpt>
      <trkpt lat="63.46979" lon="19.14106">
        <ele>81.230305</ele>
        <time>2020-08-29T00:54:30.131Z</time>
      </trkpt>
      <trkpt lat="63.46977" lon="19.13884">
        <ele>79.384076</ele>
        <time>2020-08-29T00:54:54.068Z</time>
      </trkpt>
      <trkpt lat="63.46961" lon="19.1381">
        <ele>78.70984</ele>
        <time>2020-08-29T00:55:03.680Z</time>
      </trkpt>
      <trkpt lat="63.46948" lon="19.13779">
        <ele>78.352716</ele>
        <time>2020-08-29T00:55:08.691Z</time>
      </trkpt>
      <trkpt lat="63.46923" lon="19.13727">
        <ele>78.266218</ele>
        <time>2020-08-29T00:55:18.965Z</time>
      </trkpt>
      <trkpt lat="63.46905" lon="19.13691">
        <ele>78.876252</ele>
        <time>2020-08-29T00:55:27.126Z</time>
      </trkpt>
      <trkpt lat="63.46884" lon="19.13643">
        <ele>79.624438</ele>
        <time>2020-08-29T00:55:37.245Z</time>
      </trkpt>
      <trkpt lat="63.4681" lon="19.13361">
        <ele>83.830023</ele>
        <time>2020-08-29T00:56:37.953Z</time>
      </trkpt>
      <trkpt lat="63.46781" lon="19.13269">
        <ele>85.917</ele>
        <time>2020-08-29T00:57:00.753Z</time>
      </trkpt>
      <trkpt lat="63.46756" lon="19.13148">
        <ele>88.363338</ele>
        <time>2020-08-29T00:57:26.899Z</time>
      </trkpt>
      <trkpt lat="63.46741" lon="19.1303">
        <ele>90.237147</ele>
        <time>2020-08-29T00:57:49.741Z</time>
      </trkpt>
      <trkpt lat="63.46738" lon="19.12937">
        <ele>91.059584</ele>
        <time>2020-08-29T00:58:06.294Z</time>
      </trkpt>
      <trkpt lat="63.46744" lon="19.12854">
        <ele>91.795272</ele>
        <time>2020-08-29T00:58:20.334Z</time>
      </trkpt>
      <trkpt lat="63.46813" lon="19.12389">
        <ele>94.029445</ele>
        <time>2020-08-29T00:59:30.058Z</time>
      </trkpt>
      <trkpt lat="63.4686" lon="19.12118">
        <ele>94.696563</ele>
        <time>2020-08-29T01:00:08.228Z</time>
      </trkpt>
      <trkpt lat="63.46868" lon="19.11999">
        <ele>94.99454</ele>
        <time>2020-08-29T01:00:25.168Z</time>
      </trkpt>
      <trkpt lat="63.46859" lon="19.11884">
        <ele>95.509404</ele>
        <time>2020-08-29T01:00:42.441Z</time>
      </trkpt>
      <trkpt lat="63.46721" lon="19.11061">
        <ele>105.48839</ele>
        <time>2020-08-29T01:03:13.892Z</time>
      </trkpt>
      <trkpt lat="63.46706" lon="19.10929">
        <ele>106.738825</ele>
        <time>2020-08-29T01:03:37.342Z</time>
      </trkpt>
      <trkpt lat="63.46669" lon="19.10551">
        <ele>108.363198</ele>
        <time>2020-08-29T01:04:34.507Z</time>
      </trkpt>
      <trkpt lat="63.464" lon="19.08947">
        <ele>101.71829</ele>
        <time>2020-08-29T01:08:01.507Z</time>
      </trkpt>
      <trkpt lat="63.46392" lon="19.08867">
        <ele>101.459495</ele>
        <time>2020-08-29T01:08:12.169Z</time>
      </trkpt>
      <trkpt lat="63.46387" lon="19.08638">
        <ele>102.161329</ele>
        <time>2020-08-29T01:08:43.792Z</time>
      </trkpt>
      <trkpt lat="63.46377" lon="19.08523">
        <ele>102.522615</ele>
        <time>2020-08-29T01:09:01.427Z</time>
      </trkpt>
      <trkpt lat="63.46363" lon="19.08464">
        <ele>102.780093</ele>
        <time>2020-08-29T01:09:11.715Z</time>
      </trkpt>
      <trkpt lat="63.46318" lon="19.08332">
        <ele>103.931564</ele>
        <time>2020-08-29T01:09:37.913Z</time>
      </trkpt>
      <trkpt lat="63.46304" lon="19.08276">
        <ele>104.380426</ele>
        <time>2020-08-29T01:09:48.222Z</time>
      </trkpt>
      <trkpt lat="63.46293" lon="19.082">
        <ele>104.939176</ele>
        <time>2020-08-29T01:10:00.905Z</time>
      </trkpt>
      <trkpt lat="63.46281" lon="19.0803">
        <ele>105.1752</ele>
        <time>2020-08-29T01:10:26.712Z</time>
      </trkpt>
      <trkpt lat="63.46261" lon="19.07914">
        <ele>104.74656</ele>
        <time>2020-08-29T01:10:43.312Z</time>
      </trkpt>
      <trkpt lat="63.46208" lon="19.0775">
        <ele>103.718143</ele>
        <time>2020-08-29T01:11:06.342Z</time>
      </trkpt>
      <trkpt lat="63.46158" lon="19.07636">
        <ele>99.915074</ele>
        <time>2020-08-29T01:11:22.421Z</time>
      </trkpt>
      <trkpt lat="63.4611" lon="19.07489">
        <ele>95.588749</ele>
        <time>2020-08-29T01:11:39.567Z</time>
      </trkpt>
      <trkpt lat="63.46049" lon="19.07286">
        <ele>89.325014</ele>
        <time>2020-08-29T01:12:02.418Z</time>
      </trkpt>
      <trkpt lat="63.46051" lon="19.07248">
        <ele>88.319286</ele>
        <time>2020-08-29T01:12:04.416Z</time>
      </trkpt>
      <trkpt lat="63.4607" lon="19.07119">
        <ele>84.777692</ele>
        <time>2020-08-29T01:12:11.694Z</time>
      </trkpt>
      <trkpt lat="63.46098" lon="19.06972">
        <ele>82.674309</ele>
        <time>2020-08-29T01:12:20.804Z</time>
      </trkpt>
      <trkpt lat="63.46105" lon="19.06764">
        <ele>80.520914</ele>
        <time>2020-08-29T01:12:34.356Z</time>
      </trkpt>
      <trkpt lat="63.46133" lon="19.06579">
        <ele>79.885204</ele>
        <time>2020-08-29T01:12:48.485Z</time>
      </trkpt>
      <trkpt lat="63.46137" lon="19.06469">
        <ele>79.891699</ele>
        <time>2020-08-29T01:12:57.399Z</time>
      </trkpt>
      <trkpt lat="63.46147" lon="19.06374">
        <ele>79.897382</ele>
        <time>2020-08-29T01:13:05.811Z</time>
      </trkpt>
      <trkpt lat="63.46158" lon="19.06329">
        <ele>79.900419</ele>
        <time>2020-08-29T01:13:10.448Z</time>
      </trkpt>
      <trkpt lat="63.46211" lon="19.06204">
        <ele>80.500799</ele>
        <time>2020-08-29T01:13:26.326Z</time>
      </trkpt>
      <trkpt lat="63.46261" lon="19.06016">
        <ele>81.315975</ele>
        <time>2020-08-29T01:13:46.595Z</time>
      </trkpt>
      <trkpt lat="63.46274" lon="19.05901">
        <ele>81.675788</ele>
        <time>2020-08-29T01:13:57.264Z</time>
      </trkpt>
      <trkpt lat="63.46284" lon="19.05662">
        <ele>82.370232</ele>
        <time>2020-08-29T01:14:18.511Z</time>
      </trkpt>
      <trkpt lat="63.46295" lon="19.05555">
        <ele>82.686333</ele>
        <time>2020-08-29T01:14:28.161Z</time>
      </trkpt>
      <trkpt lat="63.46318" lon="19.05473">
        <ele>82.96379</ele>
        <time>2020-08-29T01:14:36.759Z</time>
      </trkpt>
      <trkpt lat="63.46412" lon="19.05236">
        <ele>83.815697</ele>
        <time>2020-08-29T01:15:05.174Z</time>
      </trkpt>
      <trkpt lat="63.46428" lon="19.05179">
        <ele>83.938349</ele>
        <time>2020-08-29T01:15:11.186Z</time>
      </trkpt>
      <trkpt lat="63.46434" lon="19.0514">
        <ele>84.012988</ele>
        <time>2020-08-29T01:15:14.790Z</time>
      </trkpt>
      <trkpt lat="63.4644" lon="19.05071">
        <ele>84.139775</ele>
        <time>2020-08-29T01:15:20.821Z</time>
      </trkpt>
      <trkpt lat="63.46421" lon="19.04872">
        <ele>84.627437</ele>
        <time>2020-08-29T01:15:37.628Z</time>
      </trkpt>
      <trkpt lat="63.46433" lon="19.04758">
        <ele>85.235468</ele>
        <time>2020-08-29T01:15:47.061Z</time>
      </trkpt>
      <trkpt lat="63.46431" lon="19.04738">
        <ele>85.345145</ele>
        <time>2020-08-29T01:15:48.904Z</time>
      </trkpt>
      <trkpt lat="63.46425" lon="19.04722">
        <ele>85.453416</ele>
        <time>2020-08-29T01:15:50.761Z</time>
      </trkpt>
      <trkpt lat="63.46369" lon="19.04663">
        <ele>86.178292</ele>
        <time>2020-08-29T01:16:04.710Z</time>
      </trkpt>
      <trkpt lat="63.46352" lon="19.04632">
        <ele>86.43239</ele>
        <time>2020-08-29T01:16:10.200Z</time>
      </trkpt>
      <trkpt lat="63.46333" lon="19.04586">
        <ele>87.127618</ele>
        <time>2020-08-29T01:16:17.666Z</time>
      </trkpt>
      <trkpt lat="63.46322" lon="19.04559">
        <ele>87.632016</ele>
        <time>2020-08-29T01:16:22.212Z</time>
      </trkpt>
      <trkpt lat="63.46279" lon="19.04444">
        <ele>89.725612</ele>
        <time>2020-08-29T01:16:41.806Z</time>
      </trkpt>
      <trkpt lat="63.46205" lon="19.04294">
        <ele>92.361841</ele>
        <time>2020-08-29T01:17:11.347Z</time>
      </trkpt>
      <trkpt lat="63.45883" lon="19.05043">
        <ele>95.797288</ele>
        <time>2020-08-29T01:18:41.948Z</time>
      </trkpt>
      <trkpt lat="63.45804" lon="19.05229">
        <ele>96.158424</ele>
        <time>2020-08-29T01:19:04.212Z</time>
      </trkpt>
      <trkpt lat="63.4572" lon="19.05427">
        <ele>96.290373</ele>
        <time>2020-08-29T01:19:41.425Z</time>
      </trkpt>
      <trkpt lat="63.45139" lon="19.06843">
        <ele>86.89914</ele>
        <time>2020-08-29T01:23:32.193Z</time>
      </trkpt>
      <trkpt lat="63.45087" lon="19.06948">
        <ele>86.099266</ele>
        <time>2020-08-29T01:23:50.572Z</time>
      </trkpt>
      <trkpt lat="63.45026" lon="19.07021">
        <ele>85.340597</ele>
        <time>2020-08-29T01:24:09.005Z</time>
      </trkpt>
      <trkpt lat="63.44959" lon="19.07073">
        <ele>84.571354</ele>
        <time>2020-08-29T01:24:28.029Z</time>
      </trkpt>
      <trkpt lat="63.44357" lon="19.07504">
        <ele>81.830716</ele>
        <time>2020-08-29T01:27:29.095Z</time>
      </trkpt>
      <trkpt lat="63.44264" lon="19.07541">
        <ele>81.178041</ele>
        <time>2020-08-29T01:27:55.135Z</time>
      </trkpt>
      <trkpt lat="63.4419" lon="19.07544">
        <ele>80.106359</ele>
        <time>2020-08-29T01:28:14.640Z</time>
      </trkpt>
      <trkpt lat="63.44008" lon="19.07502">
        <ele>77.431416</ele>
        <time>2020-08-29T01:29:01.908Z</time>
      </trkpt>
      <trkpt lat="63.4357" lon="19.07376">
        <ele>71.298698</ele>
        <time>2020-08-29T01:30:57.717Z</time>
      </trkpt>
      <trkpt lat="63.4349" lon="19.07363">
        <ele>71.262614</ele>
        <time>2020-08-29T01:31:20.415Z</time>
      </trkpt>
      <trkpt lat="63.42663" lon="19.07334">
        <ele>74.445308</ele>
        <time>2020-08-29T01:35:38.454Z</time>
      </trkpt>
      <trkpt lat="63.42569" lon="19.0733">
        <ele>73.966547</ele>
        <time>2020-08-29T01:36:08.506Z</time>
      </trkpt>
      <trkpt lat="63.42093" lon="19.07302">
        <ele>70.070588</ele>
        <time>2020-08-29T01:38:17.341Z</time>
      </trkpt>
      <trkpt lat="63.41987" lon="19.07289">
        <ele>68.903882</ele>
        <time>2020-08-29T01:38:45.669Z</time>
      </trkpt>
      <trkpt lat="63.41923" lon="19.07259">
        <ele>68.188047</ele>
        <time>2020-08-29T01:39:03.157Z</time>
      </trkpt>
      <trkpt lat="63.41858" lon="19.07207">
        <ele>67.454366</ele>
        <time>2020-08-29T01:39:21.605Z</time>
      </trkpt>
      <trkpt lat="63.41809" lon="19.07139">
        <ele>66.834803</ele>
        <time>2020-08-29T01:39:37.204Z</time>
      </trkpt>
      <trkpt lat="63.41755" lon="19.07044">
        <ele>66.319004</ele>
        <time>2020-08-29T01:39:55.775Z</time>
      </trkpt>
      <trkpt lat="63.41721" lon="19.06956">
        <ele>66.188199</ele>
        <time>2020-08-29T01:40:10.440Z</time>
      </trkpt>
      <trkpt lat="63.41558" lon="19.06589">
        <ele>66.099429</ele>
        <time>2020-08-29T01:41:20.487Z</time>
      </trkpt>
      <trkpt lat="63.41102" lon="19.05633">
        <ele>66.493654</ele>
        <time>2020-08-29T01:44:28.953Z</time>
      </trkpt>
      <trkpt lat="63.40995" lon="19.0547">
        <ele>65.4643</ele>
        <time>2020-08-29T01:45:04.545Z</time>
      </trkpt>
      <trkpt lat="63.40865" lon="19.05323">
        <ele>63.648032</ele>
        <time>2020-08-29T01:45:41.625Z</time>
      </trkpt>
      <trkpt lat="63.40753" lon="19.05186">
        <ele>64.654138</ele>
        <time>2020-08-29T01:46:18.821Z</time>
      </trkpt>
      <trkpt lat="63.40739" lon="19.05245">
        <ele>65.279907</ele>
        <time>2020-08-29T01:46:26.239Z</time>
      </trkpt>
      <trkpt lat="63.40718" lon="19.05325">
        <ele>66.154438</ele>
        <time>2020-08-29T01:46:39.362Z</time>
      </trkpt>
      <trkpt lat="63.40667" lon="19.05448">
        <ele>68.080471</ele>
        <time>2020-08-29T01:47:06.020Z</time>
      </trkpt>
      <trkpt lat="63.40637" lon="19.05457">
        <ele>68.93847</ele>
        <time>2020-08-29T01:47:15.979Z</time>
      </trkpt>
      <trkpt lat="63.40618" lon="19.05478">
        <ele>69.5642</ele>
        <time>2020-08-29T01:47:22.084Z</time>
      </trkpt>
      <trkpt lat="63.40606" lon="19.05519">
        <ele>70.200455</ele>
        <time>2020-08-29T01:47:29.289Z</time>
      </trkpt>
      <trkpt lat="63.40566" lon="19.05549">
        <ele>71.394546</ele>
        <time>2020-08-29T01:47:38.954Z</time>
      </trkpt>
      <trkpt lat="63.40512" lon="19.05563">
        <ele>70.802599</ele>
        <time>2020-08-29T01:47:48.664Z</time>
      </trkpt>
      <trkpt lat="63.40372" lon="19.05558">
        <ele>66.126649</ele>
        <time>2020-08-29T01:48:06.785Z</time>
      </trkpt>
      <trkpt lat="63.40274" lon="19.05567">
        <ele>62.667059</ele>
        <time>2020-08-29T01:48:19.311Z</time>
      </trkpt>
      <trkpt lat="63.40124" lon="19.05617">
        <ele>58.967679</ele>
        <time>2020-08-29T01:48:41.415Z</time>
      </trkpt>
      <trkpt lat="63.39997" lon="19.05583">
        <ele>57.849285</ele>
        <time>2020-08-29T01:49:04.339Z</time>
      </trkpt>
      <trkpt lat="63.39936" lon="19.05611">
        <ele>57.755961</ele>
        <time>2020-08-29T01:49:15.952Z</time>
      </trkpt>
      <trkpt lat="63.39872" lon="19.05655">
        <ele>57.655739</ele>
        <time>2020-08-29T01:49:28.323Z</time>
      </trkpt>
      <trkpt lat="63.39746" lon="19.05765">
        <ele>56.691948</ele>
        <time>2020-08-29T01:49:51.609Z</time>
      </trkpt>
      <trkpt lat="63.39427" lon="19.05956">
        <ele>51.676529</ele>
        <time>2020-08-29T01:50:42.345Z</time>
      </trkpt>
      <trkpt lat="63.39379" lon="19.05968">
        <ele>50.627324</ele>
        <time>2020-08-29T01:50:49.379Z</time>
      </trkpt>
      <trkpt lat="63.39342" lon="19.05998">
        <ele>49.771562</ele>
        <time>2020-08-29T01:50:55.127Z</time>
      </trkpt>
      <trkpt lat="63.39255" lon="19.06107">
        <ele>47.771878</ele>
        <time>2020-08-29T01:51:08.888Z</time>
      </trkpt>
      <trkpt lat="63.39208" lon="19.06139">
        <ele>46.813299</ele>
        <time>2020-08-29T01:51:15.751Z</time>
      </trkpt>
      <trkpt lat="63.39181" lon="19.06146">
        <ele>46.265192</ele>
        <time>2020-08-29T01:51:20.700Z</time>
      </trkpt>
      <trkpt lat="63.39181" lon="19.06135">
        <ele>46.162926</ele>
        <time>2020-08-29T01:51:21.332Z</time>
      </trkpt>
      <trkpt lat="63.3917" lon="19.06081">
        <ele>45.818852</ele>
        <time>2020-08-29T01:51:26.502Z</time>
      </trkpt>
      <trkpt lat="63.39152" lon="19.06045">
        <ele>46.327115</ele>
        <time>2020-08-29T01:51:30.967Z</time>
      </trkpt>
      <trkpt lat="63.3913" lon="19.06021">
        <ele>46.853535</ele>
        <time>2020-08-29T01:51:35.703Z</time>
      </trkpt>
      <trkpt lat="63.39117" lon="19.06091">
        <ele>47.570262</ele>
        <time>2020-08-29T01:51:43.705Z</time>
      </trkpt>
      <trkpt lat="63.39084" lon="19.06229">
        <ele>49.048505</ele>
        <time>2020-08-29T01:52:03.300Z</time>
      </trkpt>
      <trkpt lat="63.39045" lon="19.0633">
        <ele>50.624162</ele>
        <time>2020-08-29T01:52:22.411Z</time>
      </trkpt>
      <trkpt lat="63.38983" lon="19.06452">
        <ele>53.06912</ele>
        <time>2020-08-29T01:52:46.944Z</time>
      </trkpt>
      <trkpt lat="63.38868" lon="19.06603">
        <ele>55.425047</ele>
        <time>2020-08-29T01:53:16.503Z</time>
      </trkpt>
      <trkpt lat="63.38739" lon="19.06756">
        <ele>56.425207</ele>
        <time>2020-08-29T01:53:43.912Z</time>
      </trkpt>
      <trkpt lat="63.38665" lon="19.06844">
        <ele>56.762957</ele>
        <time>2020-08-29T01:53:59.976Z</time>
      </trkpt>
      <trkpt lat="63.38621" lon="19.06896">
        <ele>56.964142</ele>
        <time>2020-08-29T01:54:09.718Z</time>
      </trkpt>
      <trkpt lat="63.38529" lon="19.07005">
        <ele>57.197172</ele>
        <time>2020-08-29T01:54:29.684Z</time>
      </trkpt>
      <trkpt lat="63.38274" lon="19.073">
        <ele>57.492263</ele>
        <time>2020-08-29T01:55:20.466Z</time>
      </trkpt>
      <trkpt lat="63.38144" lon="19.07429">
        <ele>58.100365</ele>
        <time>2020-08-29T01:55:49.042Z</time>
      </trkpt>
      <trkpt lat="63.38118" lon="19.07452">
        <ele>58.10504</ele>
        <time>2020-08-29T01:55:54.386Z</time>
      </trkpt>
      <trkpt lat="63.38012" lon="19.0756">
        <ele>57.740834</ele>
        <time>2020-08-29T01:56:14.313Z</time>
      </trkpt>
      <trkpt lat="63.37631" lon="19.07871">
        <ele>53.889591</ele>
        <time>2020-08-29T01:57:17.343Z</time>
      </trkpt>
      <trkpt lat="63.37271" lon="19.08149">
        <ele>46.901975</ele>
        <time>2020-08-29T01:58:11.404Z</time>
      </trkpt>
      <trkpt lat="63.3689" lon="19.08473">
        <ele>39.092179</ele>
        <time>2020-08-29T01:59:09.488Z</time>
      </trkpt>
      <trkpt lat="63.36805" lon="19.0856">
        <ele>37.183411</ele>
        <time>2020-08-29T01:59:22.593Z</time>
      </trkpt>
      <trkpt lat="63.36711" lon="19.08678">
        <ele>35.192409</ele>
        <time>2020-08-29T01:59:37.650Z</time>
      </trkpt>
      <trkpt lat="63.36566" lon="19.08921">
        <ele>33.219203</ele>
        <time>2020-08-29T02:00:04.483Z</time>
      </trkpt>
      <trkpt lat="63.36339" lon="19.09423">
        <ele>35.103337</ele>
        <time>2020-08-29T02:01:09.644Z</time>
      </trkpt>
      <trkpt lat="63.3628" lon="19.09535">
        <ele>36.241217</ele>
        <time>2020-08-29T02:01:28.319Z</time>
      </trkpt>
      <trkpt lat="63.36143" lon="19.0976">
        <ele>38.37638</ele>
        <time>2020-08-29T02:02:06.339Z</time>
      </trkpt>
      <trkpt lat="63.36041" lon="19.0993">
        <ele>40.112924</ele>
        <time>2020-08-29T02:02:31.811Z</time>
      </trkpt>
      <trkpt lat="63.35795" lon="19.10439">
        <ele>46.282394</ele>
        <time>2020-08-29T02:03:54.021Z</time>
      </trkpt>
      <trkpt lat="63.35704" lon="19.10645">
        <ele>48.38682</ele>
        <time>2020-08-29T02:04:24.429Z</time>
      </trkpt>
      <trkpt lat="63.35611" lon="19.10803">
        <ele>48.640759</ele>
        <time>2020-08-29T02:04:46.911Z</time>
      </trkpt>
      <trkpt lat="63.35529" lon="19.10942">
        <ele>48.291108</ele>
        <time>2020-08-29T02:05:03.503Z</time>
      </trkpt>
      <trkpt lat="63.35303" lon="19.11261">
        <ele>43.915119</ele>
        <time>2020-08-29T02:05:42.702Z</time>
      </trkpt>
      <trkpt lat="63.35065" lon="19.11571">
        <ele>36.984732</ele>
        <time>2020-08-29T02:06:19.630Z</time>
      </trkpt>
      <trkpt lat="63.34965" lon="19.11737">
        <ele>33.815153</ele>
        <time>2020-08-29T02:06:36.640Z</time>
      </trkpt>
      <trkpt lat="63.34884" lon="19.11912">
        <ele>30.932562</ele>
        <time>2020-08-29T02:06:52.131Z</time>
      </trkpt>
      <trkpt lat="63.34855" lon="19.12002">
        <ele>29.661225</ele>
        <time>2020-08-29T02:06:58.897Z</time>
      </trkpt>
      <trkpt lat="63.34777" lon="19.11925">
        <ele>27.471786</ele>
        <time>2020-08-29T02:07:10.230Z</time>
      </trkpt>
      <trkpt lat="63.34662" lon="19.12028">
        <ele>24.219171</ele>
        <time>2020-08-29T02:07:26.840Z</time>
      </trkpt>
      <trkpt lat="63.34529" lon="19.12353">
        <ele>21.005895</ele>
        <time>2020-08-29T02:07:55.679Z</time>
      </trkpt>
      <trkpt lat="63.345" lon="19.12417">
        <ele>20.601045</ele>
        <time>2020-08-29T02:08:02.169Z</time>
      </trkpt>
      <trkpt lat="63.34478" lon="19.12469">
        <ele>20.271808</ele>
        <time>2020-08-29T02:08:07.445Z</time>
      </trkpt>
      <trkpt lat="63.34472" lon="19.12484">
        <ele>20.188097</ele>
        <time>2020-08-29T02:08:08.753Z</time>
      </trkpt>
      <trkpt lat="63.34438" lon="19.12275">
        <ele>19.114251</ele>
        <time>2020-08-29T02:08:24.631Z</time>
      </trkpt>
      <trkpt lat="63.34367" lon="19.11845">
        <ele>15.880898</ele>
        <time>2020-08-29T02:08:53.890Z</time>
      </trkpt>
      <trkpt lat="63.34348" lon="19.11753">
        <ele>15.485934</ele>
        <time>2020-08-29T02:09:00.493Z</time>
      </trkpt>
      <trkpt lat="63.34345" lon="19.11738">
        <ele>15.424183</ele>
        <time>2020-08-29T02:09:01.562Z</time>
      </trkpt>
      <trkpt lat="63.3429" lon="19.1154">
        <ele>14.91875</ele>
        <time>2020-08-29T02:09:19.455Z</time>
      </trkpt>
      <trkpt lat="63.34277" lon="19.11494">
        <ele>15.447735</ele>
        <time>2020-08-29T02:09:24.750Z</time>
      </trkpt>
      <trkpt lat="63.34253" lon="19.11426">
        <ele>16.292136</ele>
        <time>2020-08-29T02:09:33.899Z</time>
      </trkpt>
      <trkpt lat="63.34229" lon="19.1137">
        <ele>17.04123</ele>
        <time>2020-08-29T02:09:42.545Z</time>
      </trkpt>
      <trkpt lat="63.34223" lon="19.11383">
        <ele>17.217617</ele>
        <time>2020-08-29T02:09:44.516Z</time>
      </trkpt>
      <trkpt lat="63.34217" lon="19.11393">
        <ele>17.387288</ele>
        <time>2020-08-29T02:09:47.066Z</time>
      </trkpt>
      <trkpt lat="63.34195" lon="19.11393">
        <ele>17.875866</ele>
        <time>2020-08-29T02:09:53.257Z</time>
      </trkpt>
      <trkpt lat="63.34148" lon="19.11274">
        <ele>20.150101</ele>
        <time>2020-08-29T02:10:15.206Z</time>
      </trkpt>
      <trkpt lat="63.34119" lon="19.11229">
        <ele>21.553196</ele>
        <time>2020-08-29T02:10:26.539Z</time>
      </trkpt>
      <trkpt lat="63.34096" lon="19.11197">
        <ele>22.623271</ele>
        <time>2020-08-29T02:10:35.265Z</time>
      </trkpt>
      <trkpt lat="63.34004" lon="19.11101">
        <ele>26.540792</ele>
        <time>2020-08-29T02:11:07.650Z</time>
      </trkpt>
      <trkpt lat="63.3381" lon="19.10889">
        <ele>32.091457</ele>
        <time>2020-08-29T02:12:10.602Z</time>
      </trkpt>
      <trkpt lat="63.33791" lon="19.1087">
        <ele>32.148652</ele>
        <time>2020-08-29T02:12:15.193Z</time>
      </trkpt>
      <trkpt lat="63.33757" lon="19.10839">
        <ele>32.25221</ele>
        <time>2020-08-29T02:12:22.724Z</time>
      </trkpt>
      <trkpt lat="63.33461" lon="19.10692">
        <ele>25.052568</ele>
        <time>2020-08-29T02:13:04.628Z</time>
      </trkpt>
      <trkpt lat="63.33412" lon="19.10688">
        <ele>23.612511</ele>
        <time>2020-08-29T02:13:11.029Z</time>
      </trkpt>
      <trkpt lat="63.33365" lon="19.10705">
        <ele>22.184909</ele>
        <time>2020-08-29T02:13:17.566Z</time>
      </trkpt>
      <trkpt lat="63.33222" lon="19.10804">
        <ele>19.850693</ele>
        <time>2020-08-29T02:13:40.400Z</time>
      </trkpt>
      <trkpt lat="63.33113" lon="19.10921">
        <ele>18.737779</ele>
        <time>2020-08-29T02:14:02.361Z</time>
      </trkpt>
      <trkpt lat="63.33043" lon="19.10975">
        <ele>18.280903</ele>
        <time>2020-08-29T02:14:15.007Z</time>
      </trkpt>
      <trkpt lat="63.32932" lon="19.11026">
        <ele>16.674154</ele>
        <time>2020-08-29T02:14:32.845Z</time>
      </trkpt>
      <trkpt lat="63.32852" lon="19.11098">
        <ele>15.127301</ele>
        <time>2020-08-29T02:14:45.485Z</time>
      </trkpt>
      <trkpt lat="63.32772" lon="19.11131">
        <ele>13.455063</ele>
        <time>2020-08-29T02:14:57.034Z</time>
      </trkpt>
      <trkpt lat="63.32719" lon="19.11121">
        <ele>12.305271</ele>
        <time>2020-08-29T02:15:04.760Z</time>
      </trkpt>
      <trkpt lat="63.32686" lon="19.11129">
        <ele>11.580985</ele>
        <time>2020-08-29T02:15:09.708Z</time>
      </trkpt>
      <trkpt lat="63.32598" lon="19.1122">
        <ele>10.362577</ele>
        <time>2020-08-29T02:15:24.594Z</time>
      </trkpt>
      <trkpt lat="63.32538" lon="19.11246">
        <ele>9.815477</ele>
        <time>2020-08-29T02:15:34.729Z</time>
      </trkpt>
      <trkpt lat="63.3249" lon="19.1124">
        <ele>9.390009</ele>
        <time>2020-08-29T02:15:43.102Z</time>
      </trkpt>
      <trkpt lat="63.32465" lon="19.11224">
        <ele>9.552949</ele>
        <time>2020-08-29T02:15:48.108Z</time>
      </trkpt>
      <trkpt lat="63.32441" lon="19.11192">
        <ele>9.766214</ele>
        <time>2020-08-29T02:15:53.550Z</time>
      </trkpt>
      <trkpt lat="63.32381" lon="19.11099">
        <ele>10.329972</ele>
        <time>2020-08-29T02:16:09.077Z</time>
      </trkpt>
      <trkpt lat="63.32345" lon="19.11047">
        <ele>10.654856</ele>
        <time>2020-08-29T02:16:18.863Z</time>
      </trkpt>
      <trkpt lat="63.32296" lon="19.10958">
        <ele>11.531324</ele>
        <time>2020-08-29T02:16:33.852Z</time>
      </trkpt>
      <trkpt lat="63.32258" lon="19.10849">
        <ele>12.481436</ele>
        <time>2020-08-29T02:16:48.894Z</time>
      </trkpt>
      <trkpt lat="63.32226" lon="19.10783">
        <ele>13.148507</ele>
        <time>2020-08-29T02:16:59.088Z</time>
      </trkpt>
      <trkpt lat="63.32191" lon="19.10729">
        <ele>13.749889</ele>
        <time>2020-08-29T02:17:08.816Z</time>
      </trkpt>
      <trkpt lat="63.32163" lon="19.10677">
        <ele>14.21069</ele>
        <time>2020-08-29T02:17:16.942Z</time>
      </trkpt>
      <trkpt lat="63.32124" lon="19.10505">
        <ele>15.316782</ele>
        <time>2020-08-29T02:17:35.460Z</time>
      </trkpt>
      <trkpt lat="63.32046" lon="19.10299">
        <ele>17.744149</ele>
        <time>2020-08-29T02:18:05.399Z</time>
      </trkpt>
      <trkpt lat="63.32033" lon="19.10252">
        <ele>18.318233</ele>
        <time>2020-08-29T02:18:11.698Z</time>
      </trkpt>
      <trkpt lat="63.32028" lon="19.10218">
        <ele>18.698676</ele>
        <time>2020-08-29T02:18:16.448Z</time>
      </trkpt>
      <trkpt lat="63.3203" lon="19.10085">
        <ele>20.114421</ele>
        <time>2020-08-29T02:18:32.826Z</time>
      </trkpt>
      <trkpt lat="63.32023" lon="19.1003">
        <ele>20.836098</ele>
        <time>2020-08-29T02:18:40.147Z</time>
      </trkpt>
      <trkpt lat="63.32004" lon="19.09983">
        <ele>21.647455</ele>
        <time>2020-08-29T02:18:48.544Z</time>
      </trkpt>
      <trkpt lat="63.31948" lon="19.09886">
        <ele>23.656177</ele>
        <time>2020-08-29T02:19:08.481Z</time>
      </trkpt>
      <trkpt lat="63.31922" lon="19.0982">
        <ele>24.776812</ele>
        <time>2020-08-29T02:19:19.127Z</time>
      </trkpt>
      <trkpt lat="63.31877" lon="19.0965">
        <ele>26.69757</ele>
        <time>2020-08-29T02:19:42.025Z</time>
      </trkpt>
      <trkpt lat="63.31869" lon="19.09634">
        <ele>26.913957</ele>
        <time>2020-08-29T02:19:44.924Z</time>
      </trkpt>
      <trkpt lat="63.31853" lon="19.09615">
        <ele>27.301088</ele>
        <time>2020-08-29T02:19:49.370Z</time>
      </trkpt>
      <trkpt lat="63.31811" lon="19.09584">
        <ele>28.213242</ele>
        <time>2020-08-29T02:20:00.097Z</time>
      </trkpt>
      <trkpt lat="63.31529" lon="19.09425">
        <ele>32.895879</ele>
        <time>2020-08-29T02:21:08.703Z</time>
      </trkpt>
      <trkpt lat="63.31386" lon="19.09343">
        <ele>35.000353</ele>
        <time>2020-08-29T02:21:43.474Z</time>
      </trkpt>
      <trkpt lat="63.31348" lon="19.09327">
        <ele>35.451242</ele>
        <time>2020-08-29T02:21:52.233Z</time>
      </trkpt>
      <trkpt lat="63.31138" lon="19.0917">
        <ele>37.589691</ele>
        <time>2020-08-29T02:22:39.947Z</time>
      </trkpt>
      <trkpt lat="63.31113" lon="19.09142">
        <ele>37.817243</ele>
        <time>2020-08-29T02:22:45.698Z</time>
      </trkpt>
      <trkpt lat="63.31086" lon="19.09108">
        <ele>38.04114</ele>
        <time>2020-08-29T02:22:52.060Z</time>
      </trkpt>
      <trkpt lat="63.30893" lon="19.08765">
        <ele>38.965036</ele>
        <time>2020-08-29T02:23:42.015Z</time>
      </trkpt>
      <trkpt lat="63.30862" lon="19.08722">
        <ele>38.983483</ele>
        <time>2020-08-29T02:23:48.809Z</time>
      </trkpt>
      <trkpt lat="63.30835" lon="19.08697">
        <ele>38.998521</ele>
        <time>2020-08-29T02:23:54.185Z</time>
      </trkpt>
      <trkpt lat="63.30786" lon="19.0868">
        <ele>38.857395</ele>
        <time>2020-08-29T02:24:03.003Z</time>
      </trkpt>
      <trkpt lat="63.30333" lon="19.08659">
        <ele>32.263775</ele>
        <time>2020-08-29T02:25:13.313Z</time>
      </trkpt>
      <trkpt lat="63.30235" lon="19.08646">
        <ele>30.517197</ele>
        <time>2020-08-29T02:25:27.258Z</time>
      </trkpt>
      <trkpt lat="63.30196" lon="19.08612">
        <ele>29.836386</ele>
        <time>2020-08-29T02:25:33.322Z</time>
      </trkpt>
      <trkpt lat="63.30088" lon="19.08489">
        <ele>27.937399</ele>
        <time>2020-08-29T02:25:52.343Z</time>
      </trkpt>
      <trkpt lat="63.30067" lon="19.08447">
        <ele>27.763237</ele>
        <time>2020-08-29T02:25:57.426Z</time>
      </trkpt>
      <trkpt lat="63.29988" lon="19.08208">
        <ele>26.935593</ele>
        <time>2020-08-29T02:26:20.980Z</time>
      </trkpt>
      <trkpt lat="63.29972" lon="19.08161">
        <ele>26.569546</ele>
        <time>2020-08-29T02:26:25.246Z</time>
      </trkpt>
      <trkpt lat="63.29952" lon="19.08063">
        <ele>25.611239</ele>
        <time>2020-08-29T02:26:32.750Z</time>
      </trkpt>
      <trkpt lat="63.29936" lon="19.07943">
        <ele>24.492191</ele>
        <time>2020-08-29T02:26:41.005Z</time>
      </trkpt>
      <trkpt lat="63.29917" lon="19.07733">
        <ele>22.470844</ele>
        <time>2020-08-29T02:26:54.467Z</time>
      </trkpt>
      <trkpt lat="63.299" lon="19.07652">
        <ele>21.534971</ele>
        <time>2020-08-29T02:27:00.180Z</time>
      </trkpt>
      <trkpt lat="63.29879" lon="19.07595">
        <ele>20.777111</ele>
        <time>2020-08-29T02:27:04.867Z</time>
      </trkpt>
      <trkpt lat="63.29858" lon="19.07566">
        <ele>20.199373</ele>
        <time>2020-08-29T02:27:08.503Z</time>
      </trkpt>
      <trkpt lat="63.29823" lon="19.0754">
        <ele>19.343932</ele>
        <time>2020-08-29T02:27:14.014Z</time>
      </trkpt>
      <trkpt lat="63.29788" lon="19.07537">
        <ele>18.90508</ele>
        <time>2020-08-29T02:27:19.424Z</time>
      </trkpt>
      <trkpt lat="63.29695" lon="19.07553">
        <ele>18.065647</ele>
        <time>2020-08-29T02:27:34.655Z</time>
      </trkpt>
      <trkpt lat="63.29659" lon="19.07549">
        <ele>17.741854</ele>
        <time>2020-08-29T02:27:40.873Z</time>
      </trkpt>
      <trkpt lat="63.29638" lon="19.07536">
        <ele>17.547834</ele>
        <time>2020-08-29T02:27:44.695Z</time>
      </trkpt>
      <trkpt lat="63.29586" lon="19.07477">
        <ele>17.653711</ele>
        <time>2020-08-29T02:27:55.399Z</time>
      </trkpt>
      <trkpt lat="63.29549" lon="19.07447">
        <ele>17.74124</ele>
        <time>2020-08-29T02:28:02.939Z</time>
      </trkpt>
      <trkpt lat="63.29516" lon="19.07435">
        <ele>17.815546</ele>
        <time>2020-08-29T02:28:09.520Z</time>
      </trkpt>
      <trkpt lat="63.29355" lon="19.07447">
        <ele>18.683777</ele>
        <time>2020-08-29T02:28:42.697Z</time>
      </trkpt>
      <trkpt lat="63.29093" lon="19.07473">
        <ele>20.909358</ele>
        <time>2020-08-29T02:29:38.224Z</time>
      </trkpt>
      <trkpt lat="63.28998" lon="19.07482">
        <ele>22.383404</ele>
        <time>2020-08-29T02:30:00.472Z</time>
      </trkpt>
      <trkpt lat="63.28963" lon="19.07478">
        <ele>22.926198</ele>
        <time>2020-08-29T02:30:08.997Z</time>
      </trkpt>
      <trkpt lat="63.28916" lon="19.07446">
        <ele>23.692588</ele>
        <time>2020-08-29T02:30:21.300Z</time>
      </trkpt>
      <trkpt lat="63.28858" lon="19.07364">
        <ele>24.742058</ele>
        <time>2020-08-29T02:30:38.239Z</time>
      </trkpt>
      <trkpt lat="63.28521" lon="19.06471">
        <ele>31.622326</ele>
        <time>2020-08-29T02:32:39.657Z</time>
      </trkpt>
      <trkpt lat="63.28505" lon="19.06415">
        <ele>31.654558</ele>
        <time>2020-08-29T02:32:45.092Z</time>
      </trkpt>
      <trkpt lat="63.28459" lon="19.06001">
        <ele>30.782281</ele>
        <time>2020-08-29T02:33:16.546Z</time>
      </trkpt>
      <trkpt lat="63.28454" lon="19.05911">
        <ele>30.413223</ele>
        <time>2020-08-29T02:33:23.193Z</time>
      </trkpt>
      <trkpt lat="63.28458" lon="19.05834">
        <ele>30.095168</ele>
        <time>2020-08-29T02:33:28.881Z</time>
      </trkpt>
      <trkpt lat="63.28461" lon="19.05761">
        <ele>29.753561</ele>
        <time>2020-08-29T02:33:34.317Z</time>
      </trkpt>
      <trkpt lat="63.28474" lon="19.05594">
        <ele>28.968565</ele>
        <time>2020-08-29T02:33:46.881Z</time>
      </trkpt>
      <trkpt lat="63.28485" lon="19.05065">
        <ele>25.98006</ele>
        <time>2020-08-29T02:34:24.579Z</time>
      </trkpt>
      <trkpt lat="63.28512" lon="19.04746">
        <ele>23.055862</ele>
        <time>2020-08-29T02:34:46.019Z</time>
      </trkpt>
      <trkpt lat="63.28514" lon="19.04609">
        <ele>21.758701</ele>
        <time>2020-08-29T02:34:54.941Z</time>
      </trkpt>
      <trkpt lat="63.28493" lon="19.04439">
        <ele>19.988749</ele>
        <time>2020-08-29T02:35:06.540Z</time>
      </trkpt>
      <trkpt lat="63.28444" lon="19.04161">
        <ele>17.036189</ele>
        <time>2020-08-29T02:35:26.147Z</time>
      </trkpt>
      <trkpt lat="63.28382" lon="19.03947">
        <ele>14.547394</ele>
        <time>2020-08-29T02:35:42.882Z</time>
      </trkpt>
      <trkpt lat="63.283" lon="19.03726">
        <ele>12.086567</ele>
        <time>2020-08-29T02:36:01.893Z</time>
      </trkpt>
      <trkpt lat="63.28287" lon="19.0371">
        <ele>11.815633</ele>
        <time>2020-08-29T02:36:03.980Z</time>
      </trkpt>
      <trkpt lat="63.28237" lon="19.03648">
        <ele>10.812264</ele>
        <time>2020-08-29T02:36:12.835Z</time>
      </trkpt>
      <trkpt lat="63.28178" lon="19.03595">
        <ele>10.308193</ele>
        <time>2020-08-29T02:36:22.809Z</time>
      </trkpt>
      <trkpt lat="63.28133" lon="19.0354">
        <ele>9.900649</ele>
        <time>2020-08-29T02:36:30.961Z</time>
      </trkpt>
      <trkpt lat="63.28052" lon="19.03393">
        <ele>9.713516</ele>
        <time>2020-08-29T02:36:49.443Z</time>
      </trkpt>
      <trkpt lat="63.28027" lon="19.03364">
        <ele>9.879222</ele>
        <time>2020-08-29T02:36:55.008Z</time>
      </trkpt>
      <trkpt lat="63.28001" lon="19.03357">
        <ele>10.031156</ele>
        <time>2020-08-29T02:37:00.247Z</time>
      </trkpt>
      <trkpt lat="63.27615" lon="19.03487">
        <ele>13.777413</ele>
        <time>2020-08-29T02:38:22.243Z</time>
      </trkpt>
      <trkpt lat="63.2753" lon="19.03495">
        <ele>14.947183</ele>
        <time>2020-08-29T02:38:41.380Z</time>
      </trkpt>
      <trkpt lat="63.27379" lon="19.03472">
        <ele>17.441905</ele>
        <time>2020-08-29T02:39:16.829Z</time>
      </trkpt>
      <trkpt lat="63.27282" lon="19.0347">
        <ele>18.797686</ele>
        <time>2020-08-29T02:39:39.455Z</time>
      </trkpt>
      <trkpt lat="63.27209" lon="19.03481">
        <ele>19.823656</ele>
        <time>2020-08-29T02:39:55.371Z</time>
      </trkpt>
      <trkpt lat="63.2716" lon="19.03463">
        <ele>19.724547</ele>
        <time>2020-08-29T02:40:04.992Z</time>
      </trkpt>
      <trkpt lat="63.27102" lon="19.03409">
        <ele>19.5774</ele>
        <time>2020-08-29T02:40:16.114Z</time>
      </trkpt>
      <trkpt lat="63.26864" lon="19.03092">
        <ele>16.76151</ele>
        <time>2020-08-29T02:40:57.987Z</time>
      </trkpt>
      <trkpt lat="63.2672" lon="19.02882">
        <ele>14.507988</ele>
        <time>2020-08-29T02:41:23.529Z</time>
      </trkpt>
      <trkpt lat="63.26668" lon="19.02803">
        <ele>13.832879</ele>
        <time>2020-08-29T02:41:33.247Z</time>
      </trkpt>
      <trkpt lat="63.26549" lon="19.02636">
        <ele>12.346221</ele>
        <time>2020-08-29T02:41:55.231Z</time>
      </trkpt>
      <trkpt lat="63.26523" lon="19.02598">
        <ele>12.021199</ele>
        <time>2020-08-29T02:42:00.065Z</time>
      </trkpt>
      <trkpt lat="63.26464" lon="19.02539">
        <ele>11.351802</ele>
        <time>2020-08-29T02:42:09.975Z</time>
      </trkpt>
      <trkpt lat="63.26431" lon="19.02517">
        <ele>10.993079</ele>
        <time>2020-08-29T02:42:15.254Z</time>
      </trkpt>
      <trkpt lat="63.26334" lon="19.02517">
        <ele>9.877967</ele>
        <time>2020-08-29T02:42:29.898Z</time>
      </trkpt>
      <trkpt lat="63.26263" lon="19.02496">
        <ele>9.044274</ele>
        <time>2020-08-29T02:42:40.745Z</time>
      </trkpt>
      <trkpt lat="63.26076" lon="19.02367">
        <ele>7.038684</ele>
        <time>2020-08-29T02:43:10.959Z</time>
      </trkpt>
      <trkpt lat="63.26044" lon="19.02323">
        <ele>7.03034</ele>
        <time>2020-08-29T02:43:17.018Z</time>
      </trkpt>
      <trkpt lat="63.2599" lon="19.0228">
        <ele>7.017498</ele>
        <time>2020-08-29T02:43:26.715Z</time>
      </trkpt>
      <trkpt lat="63.25687" lon="19.02185">
        <ele>8.825201</ele>
        <time>2020-08-29T02:44:27.244Z</time>
      </trkpt>
      <trkpt lat="63.25556" lon="19.02126">
        <ele>11.024111</ele>
        <time>2020-08-29T02:44:59.043Z</time>
      </trkpt>
      <trkpt lat="63.25535" lon="19.02103">
        <ele>11.679745</ele>
        <time>2020-08-29T02:45:04.938Z</time>
      </trkpt>
      <trkpt lat="63.25513" lon="19.02032">
        <ele>12.920436</ele>
        <time>2020-08-29T02:45:15.432Z</time>
      </trkpt>
      <trkpt lat="63.25509" lon="19.01971">
        <ele>13.789043</ele>
        <time>2020-08-29T02:45:23.125Z</time>
      </trkpt>
      <trkpt lat="63.25503" lon="19.01745">
        <ele>17.024377</ele>
        <time>2020-08-29T02:45:53.000Z</time>
      </trkpt>
      <trkpt lat="63.25499" lon="19.01618">
        <ele>19.033873</ele>
        <time>2020-08-29T02:46:10.244Z</time>
      </trkpt>
      <trkpt lat="63.25505" lon="19.0145">
        <ele>21.679256</ele>
        <time>2020-08-29T02:46:32.831Z</time>
      </trkpt>
      <trkpt lat="63.2551" lon="19.01091">
        <ele>25.695865</ele>
        <time>2020-08-29T02:47:16.584Z</time>
      </trkpt>
      <trkpt lat="63.25511" lon="19.01041">
        <ele>26.178378</ele>
        <time>2020-08-29T02:47:21.717Z</time>
      </trkpt>
      <trkpt lat="63.25512" lon="19.00804">
        <ele>26.317327</ele>
        <time>2020-08-29T02:47:41.884Z</time>
      </trkpt>
      <trkpt lat="63.25508" lon="19.0076">
        <ele>26.148367</ele>
        <time>2020-08-29T02:47:44.956Z</time>
      </trkpt>
      <trkpt lat="63.25477" lon="19.00663">
        <ele>25.69157</ele>
        <time>2020-08-29T02:47:52.794Z</time>
      </trkpt>
      <trkpt lat="63.25384" lon="19.00504">
        <ele>23.559786</ele>
        <time>2020-08-29T02:48:08.856Z</time>
      </trkpt>
      <trkpt lat="63.25339" lon="19.00453">
        <ele>22.422619</ele>
        <time>2020-08-29T02:48:15.783Z</time>
      </trkpt>
      <trkpt lat="63.25229" lon="19.00401">
        <ele>20.986926</ele>
        <time>2020-08-29T02:48:31.941Z</time>
      </trkpt>
      <trkpt lat="63.25168" lon="19.00407">
        <ele>20.613846</ele>
        <time>2020-08-29T02:48:41.980Z</time>
      </trkpt>
      <trkpt lat="63.25097" lon="19.00389">
        <ele>20.491396</ele>
        <time>2020-08-29T02:48:55.757Z</time>
      </trkpt>
      <trkpt lat="63.25076" lon="19.00369">
        <ele>20.75693</ele>
        <time>2020-08-29T02:49:00.802Z</time>
      </trkpt>
      <trkpt lat="63.25028" lon="19.00299">
        <ele>21.395123</ele>
        <time>2020-08-29T02:49:13.517Z</time>
      </trkpt>
      <trkpt lat="63.25035" lon="19.0026">
        <ele>21.608202</ele>
        <time>2020-08-29T02:49:17.951Z</time>
      </trkpt>
      <trkpt lat="63.24981" lon="18.99632">
        <ele>23.614505</ele>
        <time>2020-08-29T02:50:19.729Z</time>
      </trkpt>
      <trkpt lat="63.24962" lon="18.99345">
        <ele>21.915333</ele>
        <time>2020-08-29T02:50:38.317Z</time>
      </trkpt>
      <trkpt lat="63.2494" lon="18.99233">
        <ele>19.858702</ele>
        <time>2020-08-29T02:50:45.455Z</time>
      </trkpt>
      <trkpt lat="63.24936" lon="18.99196">
        <ele>19.197147</ele>
        <time>2020-08-29T02:50:47.524Z</time>
      </trkpt>
      <trkpt lat="63.24932" lon="18.9916">
        <ele>18.542297</ele>
        <time>2020-08-29T02:50:49.686Z</time>
      </trkpt>
      <trkpt lat="63.24913" lon="18.99088">
        <ele>17.060895</ele>
        <time>2020-08-29T02:50:54.395Z</time>
      </trkpt>
      <trkpt lat="63.24872" lon="18.99006">
        <ele>14.890823</ele>
        <time>2020-08-29T02:51:01.153Z</time>
      </trkpt>
      <trkpt lat="63.24815" lon="18.98913">
        <ele>12.415412</ele>
        <time>2020-08-29T02:51:09.934Z</time>
      </trkpt>
      <trkpt lat="63.24761" lon="18.98848">
        <ele>10.28999</ele>
        <time>2020-08-29T02:51:17.785Z</time>
      </trkpt>
      <trkpt lat="63.2474" lon="18.98811">
        <ele>9.343333</ele>
        <time>2020-08-29T02:51:21.396Z</time>
      </trkpt>
      <trkpt lat="63.24723" lon="18.98766">
        <ele>8.539021</ele>
        <time>2020-08-29T02:51:24.945Z</time>
      </trkpt>
      <trkpt lat="63.24707" lon="18.98683">
        <ele>8.403003</ele>
        <time>2020-08-29T02:51:30.809Z</time>
      </trkpt>
      <trkpt lat="63.24697" lon="18.98583">
        <ele>8.247344</ele>
        <time>2020-08-29T02:51:38.251Z</time>
      </trkpt>
      <trkpt lat="63.24677" lon="18.98459">
        <ele>8.049441</ele>
        <time>2020-08-29T02:51:49.464Z</time>
      </trkpt>
      <trkpt lat="63.24628" lon="18.98234">
        <ele>9.488669</ele>
        <time>2020-08-29T02:52:15.417Z</time>
      </trkpt>
      <trkpt lat="63.24567" lon="18.98004">
        <ele>11.795525</ele>
        <time>2020-08-29T02:52:45.367Z</time>
      </trkpt>
      <trkpt lat="63.24475" lon="18.97712">
        <ele>15.218552</ele>
        <time>2020-08-29T02:53:25.191Z</time>
      </trkpt>
      <trkpt lat="63.24451" lon="18.97598">
        <ele>16.090395</ele>
        <time>2020-08-29T02:53:38.632Z</time>
      </trkpt>
      <trkpt lat="63.24437" lon="18.9753">
        <ele>16.608882</ele>
        <time>2020-08-29T02:53:46.431Z</time>
      </trkpt>
      <trkpt lat="63.24401" lon="18.97338">
        <ele>17.981988</ele>
        <time>2020-08-29T02:54:07.066Z</time>
      </trkpt>
      <trkpt lat="63.24389" lon="18.97229">
        <ele>18.295241</ele>
        <time>2020-08-29T02:54:17.425Z</time>
      </trkpt>
      <trkpt lat="63.2439" lon="18.97032">
        <ele>18.849649</ele>
        <time>2020-08-29T02:54:34.514Z</time>
      </trkpt>
      <trkpt lat="63.2438" lon="18.96842">
        <ele>19.031562</ele>
        <time>2020-08-29T02:54:50.770Z</time>
      </trkpt>
      <trkpt lat="63.24366" lon="18.96763">
        <ele>19.011369</ele>
        <time>2020-08-29T02:54:57.760Z</time>
      </trkpt>
      <trkpt lat="63.24346" lon="18.96695">
        <ele>18.992168</ele>
        <time>2020-08-29T02:55:04.308Z</time>
      </trkpt>
      <trkpt lat="63.24331" lon="18.9662">
        <ele>18.972665</ele>
        <time>2020-08-29T02:55:10.893Z</time>
      </trkpt>
      <trkpt lat="63.2432" lon="18.96449">
        <ele>17.85164</ele>
        <time>2020-08-29T02:55:23.008Z</time>
      </trkpt>
      <trkpt lat="63.24297" lon="18.96332">
        <ele>16.822717</ele>
        <time>2020-08-29T02:55:31.239Z</time>
      </trkpt>
      <trkpt lat="63.24282" lon="18.96275">
        <ele>16.295767</ele>
        <time>2020-08-29T02:55:35.300Z</time>
      </trkpt>
      <trkpt lat="63.24263" lon="18.96216">
        <ele>15.699273</ele>
        <time>2020-08-29T02:55:39.742Z</time>
      </trkpt>
      <trkpt lat="63.2422" lon="18.96099">
        <ele>14.389987</ele>
        <time>2020-08-29T02:55:48.623Z</time>
      </trkpt>
      <trkpt lat="63.24208" lon="18.96054">
        <ele>13.932243</ele>
        <time>2020-08-29T02:55:51.841Z</time>
      </trkpt>
      <trkpt lat="63.24195" lon="18.95884">
        <ele>12.424566</ele>
        <time>2020-08-29T02:56:03.018Z</time>
      </trkpt>
      <trkpt lat="63.24193" lon="18.95836">
        <ele>12.541068</ele>
        <time>2020-08-29T02:56:06.387Z</time>
      </trkpt>
      <trkpt lat="63.24192" lon="18.9582">
        <ele>12.694218</ele>
        <time>2020-08-29T02:56:08.556Z</time>
      </trkpt>
      <trkpt lat="63.24194" lon="18.95636">
        <ele>14.38188</ele>
        <time>2020-08-29T02:56:27.570Z</time>
      </trkpt>
      <trkpt lat="63.24196" lon="18.95507">
        <ele>15.561248</ele>
        <time>2020-08-29T02:56:43.827Z</time>
      </trkpt>
      <trkpt lat="63.24196" lon="18.95485">
        <ele>15.763158</ele>
        <time>2020-08-29T02:56:47.146Z</time>
      </trkpt>
      <trkpt lat="63.24197" lon="18.95442">
        <ele>16.432785</ele>
        <time>2020-08-29T02:56:53.086Z</time>
      </trkpt>
      <trkpt lat="63.24199" lon="18.95359">
        <ele>18.10453</ele>
        <time>2020-08-29T02:57:04.733Z</time>
      </trkpt>
      <trkpt lat="63.24201" lon="18.95237">
        <ele>20.570321</ele>
        <time>2020-08-29T02:57:22.787Z</time>
      </trkpt>
      <trkpt lat="63.24202" lon="18.9515">
        <ele>22.323129</ele>
        <time>2020-08-29T02:57:35.889Z</time>
      </trkpt>
      <trkpt lat="63.24209" lon="18.95068">
        <ele>24.004314</ele>
        <time>2020-08-29T02:57:48.416Z</time>
      </trkpt>
      <trkpt lat="63.24213" lon="18.95045">
        <ele>24.454907</ele>
        <time>2020-08-29T02:57:52.269Z</time>
      </trkpt>
      <trkpt lat="63.24232" lon="18.94999">
        <ele>25.556543</ele>
        <time>2020-08-29T02:58:01.438Z</time>
      </trkpt>
      <trkpt lat="63.24273" lon="18.94941">
        <ele>27.445635</ele>
        <time>2020-08-29T02:58:16.512Z</time>
      </trkpt>
      <trkpt lat="63.24286" lon="18.94936">
        <ele>27.973695</ele>
        <time>2020-08-29T02:58:20.911Z</time>
      </trkpt>
      <trkpt lat="63.24302" lon="18.94929">
        <ele>28.613127</ele>
        <time>2020-08-29T02:58:26.050Z</time>
      </trkpt>
      <trkpt lat="63.24499" lon="18.95046">
        <ele>34.374296</ele>
        <time>2020-08-29T02:59:21.012Z</time>
      </trkpt>
      <trkpt lat="63.24646" lon="18.95147">
        <ele>36.094105</ele>
        <time>2020-08-29T02:59:52.423Z</time>
      </trkpt>
      <trkpt lat="63.2468" lon="18.95178">
        <ele>36.361175</ele>
        <time>2020-08-29T02:59:59.510Z</time>
      </trkpt>
      <trkpt lat="63.24788" lon="18.95305">
        <ele>36.796929</ele>
        <time>2020-08-29T03:00:22.209Z</time>
      </trkpt>
      <trkpt lat="63.2484" lon="18.95335">
        <ele>36.935365</ele>
        <time>2020-08-29T03:00:32.162Z</time>
      </trkpt>
      <trkpt lat="63.24891" lon="18.9535">
        <ele>37.202627</ele>
        <time>2020-08-29T03:00:41.762Z</time>
      </trkpt>
      <trkpt lat="63.24942" lon="18.95367">
        <ele>37.682975</ele>
        <time>2020-08-29T03:00:51.736Z</time>
      </trkpt>
      <trkpt lat="63.24982" lon="18.95373">
        <ele>38.048453</ele>
        <time>2020-08-29T03:00:59.750Z</time>
      </trkpt>
      <trkpt lat="63.25012" lon="18.95373">
        <ele>38.326852</ele>
        <time>2020-08-29T03:01:06.087Z</time>
      </trkpt>
      <trkpt lat="63.25033" lon="18.95361">
        <ele>38.53347</ele>
        <time>2020-08-29T03:01:10.934Z</time>
      </trkpt>
      <trkpt lat="63.25049" lon="18.95337">
        <ele>38.751996</ele>
        <time>2020-08-29T03:01:15.089Z</time>
      </trkpt>
      <trkpt lat="63.25179" lon="18.9499">
        <ele>43.898023</ele>
        <time>2020-08-29T03:02:08.497Z</time>
      </trkpt>
      <trkpt lat="63.25218" lon="18.94904">
        <ele>45.385457</ele>
        <time>2020-08-29T03:02:24.678Z</time>
      </trkpt>
      <trkpt lat="63.25272" lon="18.94795">
        <ele>47.35322</ele>
        <time>2020-08-29T03:02:44.404Z</time>
      </trkpt>
      <trkpt lat="63.25309" lon="18.94711">
        <ele>47.874281</ele>
        <time>2020-08-29T03:02:57.074Z</time>
      </trkpt>
      <trkpt lat="63.25341" lon="18.94651">
        <ele>47.59497</ele>
        <time>2020-08-29T03:03:05.699Z</time>
      </trkpt>
      <trkpt lat="63.25389" lon="18.94579">
        <ele>47.202838</ele>
        <time>2020-08-29T03:03:15.180Z</time>
      </trkpt>
      <trkpt lat="63.25604" lon="18.94297">
        <ele>39.907477</ele>
        <time>2020-08-29T03:03:47.191Z</time>
      </trkpt>
      <trkpt lat="63.25631" lon="18.94261">
        <ele>38.756303</ele>
        <time>2020-08-29T03:03:51.046Z</time>
      </trkpt>
      <trkpt lat="63.25685" lon="18.94186">
        <ele>36.418994</ele>
        <time>2020-08-29T03:03:59.028Z</time>
      </trkpt>
      <trkpt lat="63.25712" lon="18.94144">
        <ele>35.240731</ele>
        <time>2020-08-29T03:04:03.206Z</time>
      </trkpt>
      <trkpt lat="63.25734" lon="18.9411">
        <ele>34.249423</ele>
        <time>2020-08-29T03:04:06.810Z</time>
      </trkpt>
      <trkpt lat="63.25782" lon="18.94042">
        <ele>33.44193</ele>
        <time>2020-08-29T03:04:14.816Z</time>
      </trkpt>
      <trkpt lat="63.25821" lon="18.93978">
        <ele>32.93697</ele>
        <time>2020-08-29T03:04:22.192Z</time>
      </trkpt>
      <trkpt lat="63.25851" lon="18.93917">
        <ele>32.513941</ele>
        <time>2020-08-29T03:04:29.236Z</time>
      </trkpt>
      <trkpt lat="63.25861" lon="18.9388">
        <ele>32.31112</ele>
        <time>2020-08-29T03:04:33.097Z</time>
      </trkpt>
      <trkpt lat="63.25868" lon="18.9385">
        <ele>32.149699</ele>
        <time>2020-08-29T03:04:35.820Z</time>
      </trkpt>
      <trkpt lat="63.25926" lon="18.93561">
        <ele>31.569679</ele>
        <time>2020-08-29T03:05:00.800Z</time>
      </trkpt>
      <trkpt lat="63.25938" lon="18.935">
        <ele>31.458243</ele>
        <time>2020-08-29T03:05:05.501Z</time>
      </trkpt>
      <trkpt lat="63.26005" lon="18.93169">
        <ele>28.770639</ele>
        <time>2020-08-29T03:05:29.516Z</time>
      </trkpt>
      <trkpt lat="63.26034" lon="18.93056">
        <ele>27.501287</ele>
        <time>2020-08-29T03:05:37.321Z</time>
      </trkpt>
      <trkpt lat="63.26068" lon="18.92986">
        <ele>26.310105</ele>
        <time>2020-08-29T03:05:43.429Z</time>
      </trkpt>
      <trkpt lat="63.26089" lon="18.92951">
        <ele>25.614462</ele>
        <time>2020-08-29T03:05:46.926Z</time>
      </trkpt>
      <trkpt lat="63.26165" lon="18.92829">
        <ele>23.478957</ele>
        <time>2020-08-29T03:05:59.732Z</time>
      </trkpt>
      <trkpt lat="63.26188" lon="18.92804">
        <ele>23.369145</ele>
        <time>2020-08-29T03:06:03.439Z</time>
      </trkpt>
      <trkpt lat="63.26207" lon="18.92795">
        <ele>23.282216</ele>
        <time>2020-08-29T03:06:06.338Z</time>
      </trkpt>
      <trkpt lat="63.26271" lon="18.92805">
        <ele>23.005486</ele>
        <time>2020-08-29T03:06:17.510Z</time>
      </trkpt>
      <trkpt lat="63.26384" lon="18.92744">
        <ele>22.711661</ele>
        <time>2020-08-29T03:06:41.382Z</time>
      </trkpt>
      <trkpt lat="63.2645" lon="18.92698">
        <ele>22.661721</ele>
        <time>2020-08-29T03:06:54.520Z</time>
      </trkpt>
      <trkpt lat="63.26554" lon="18.92644">
        <ele>21.60748</ele>
        <time>2020-08-29T03:07:10.304Z</time>
      </trkpt>
      <trkpt lat="63.26613" lon="18.92624">
        <ele>20.504139</ele>
        <time>2020-08-29T03:07:18.615Z</time>
      </trkpt>
      <trkpt lat="63.26632" lon="18.92614">
        <ele>20.139092</ele>
        <time>2020-08-29T03:07:21.259Z</time>
      </trkpt>
      <trkpt lat="63.26674" lon="18.92584">
        <ele>19.326304</ele>
        <time>2020-08-29T03:07:27.393Z</time>
      </trkpt>
      <trkpt lat="63.26826" lon="18.92448">
        <ele>17.6238</ele>
        <time>2020-08-29T03:07:52.214Z</time>
      </trkpt>
      <trkpt lat="63.26903" lon="18.92401">
        <ele>17.740288</ele>
        <time>2020-08-29T03:08:07.649Z</time>
      </trkpt>
      <trkpt lat="63.26956" lon="18.92382">
        <ele>17.995287</ele>
        <time>2020-08-29T03:08:18.587Z</time>
      </trkpt>
      <trkpt lat="63.26999" lon="18.92381">
        <ele>18.201639</ele>
        <time>2020-08-29T03:08:27.381Z</time>
      </trkpt>
      <trkpt lat="63.27033" lon="18.92391">
        <ele>18.333187</ele>
        <time>2020-08-29T03:08:34.028Z</time>
      </trkpt>
      <trkpt lat="63.27075" lon="18.92415">
        <ele>18.446727</ele>
        <time>2020-08-29T03:08:42.286Z</time>
      </trkpt>
      <trkpt lat="63.27179" lon="18.92489">
        <ele>18.734874</ele>
        <time>2020-08-29T03:09:02.400Z</time>
      </trkpt>
      <trkpt lat="63.27357" lon="18.92618">
        <ele>18.799021</ele>
        <time>2020-08-29T03:09:35.663Z</time>
      </trkpt>
      <trkpt lat="63.27418" lon="18.92652">
        <ele>18.685661</ele>
        <time>2020-08-29T03:09:47.030Z</time>
      </trkpt>
      <trkpt lat="63.27459" lon="18.92642">
        <ele>18.603218</ele>
        <time>2020-08-29T03:09:54.353Z</time>
      </trkpt>
      <trkpt lat="63.27483" lon="18.9262">
        <ele>18.552629</ele>
        <time>2020-08-29T03:09:58.747Z</time>
      </trkpt>
      <trkpt lat="63.27596" lon="18.92477">
        <ele>18.360031</ele>
        <time>2020-08-29T03:10:20.326Z</time>
      </trkpt>
      <trkpt lat="63.27644" lon="18.92419">
        <ele>18.300367</ele>
        <time>2020-08-29T03:10:29.700Z</time>
      </trkpt>
      <trkpt lat="63.27666" lon="18.9239">
        <ele>18.272429</ele>
        <time>2020-08-29T03:10:34.388Z</time>
      </trkpt>
      <trkpt lat="63.27703" lon="18.92321">
        <ele>18.57076</ele>
        <time>2020-08-29T03:10:43.635Z</time>
      </trkpt>
      <trkpt lat="63.27726" lon="18.92262">
        <ele>19.078995</ele>
        <time>2020-08-29T03:10:50.888Z</time>
      </trkpt>
      <trkpt lat="63.27922" lon="18.917">
        <ele>24.297872</ele>
        <time>2020-08-29T03:12:07.519Z</time>
      </trkpt>
      <trkpt lat="63.27943" lon="18.91648">
        <ele>24.601926</ele>
        <time>2020-08-29T03:12:14.077Z</time>
      </trkpt>
      <trkpt lat="63.27969" lon="18.91609">
        <ele>24.905608</ele>
        <time>2020-08-29T03:12:20.230Z</time>
      </trkpt>
      <trkpt lat="63.2807" lon="18.9155">
        <ele>26.009739</ele>
        <time>2020-08-29T03:12:41.217Z</time>
      </trkpt>
      <trkpt lat="63.2811" lon="18.91517">
        <ele>27.009787</ele>
        <time>2020-08-29T03:12:49.773Z</time>
      </trkpt>
      <trkpt lat="63.28154" lon="18.91436">
        <ele>28.378716</ele>
        <time>2020-08-29T03:13:03.832Z</time>
      </trkpt>
      <trkpt lat="63.28177" lon="18.91334">
        <ele>29.595825</ele>
        <time>2020-08-29T03:13:17.912Z</time>
      </trkpt>
      <trkpt lat="63.28247" lon="18.9087">
        <ele>38.721377</ele>
        <time>2020-08-29T03:14:28.815Z</time>
      </trkpt>
      <trkpt lat="63.28266" lon="18.90776">
        <ele>40.369861</ele>
        <time>2020-08-29T03:14:44.736Z</time>
      </trkpt>
      <trkpt lat="63.2829" lon="18.90705">
        <ele>41.780145</ele>
        <time>2020-08-29T03:14:57.281Z</time>
      </trkpt>
      <trkpt lat="63.28352" lon="18.90588">
        <ele>44.501749</ele>
        <time>2020-08-29T03:15:18.958Z</time>
      </trkpt>
      <trkpt lat="63.2837" lon="18.90556">
        <ele>44.471945</ele>
        <time>2020-08-29T03:15:24.503Z</time>
      </trkpt>
      <trkpt lat="63.28502" lon="18.9031">
        <ele>43.937196</ele>
        <time>2020-08-29T03:15:52.213Z</time>
      </trkpt>
      <trkpt lat="63.28638" lon="18.90066">
        <ele>41.09343</ele>
        <time>2020-08-29T03:16:16.838Z</time>
      </trkpt>
      <trkpt lat="63.28703" lon="18.89992">
        <ele>40.05007</ele>
        <time>2020-08-29T03:16:28.033Z</time>
      </trkpt>
      <trkpt lat="63.28742" lon="18.89962">
        <ele>39.47632</ele>
        <time>2020-08-29T03:16:34.225Z</time>
      </trkpt>
      <trkpt lat="63.28779" lon="18.89928">
        <ele>38.900468</ele>
        <time>2020-08-29T03:16:40.373Z</time>
      </trkpt>
      <trkpt lat="63.28858" lon="18.89848">
        <ele>36.726538</ele>
        <time>2020-08-29T03:16:52.742Z</time>
      </trkpt>
      <trkpt lat="63.28906" lon="18.89784">
        <ele>35.255799</ele>
        <time>2020-08-29T03:17:00.132Z</time>
      </trkpt>
      <trkpt lat="63.29214" lon="18.89344">
        <ele>22.467891</ele>
        <time>2020-08-29T03:17:46.552Z</time>
      </trkpt>
      <trkpt lat="63.29448" lon="18.8901">
        <ele>17.215628</ele>
        <time>2020-08-29T03:18:26.442Z</time>
      </trkpt>
      <trkpt lat="63.29497" lon="18.88939">
        <ele>16.666464</ele>
        <time>2020-08-29T03:18:35.607Z</time>
      </trkpt>
      <trkpt lat="63.29512" lon="18.88917">
        <ele>16.498211</ele>
        <time>2020-08-29T03:18:38.565Z</time>
      </trkpt>
      <trkpt lat="63.29582" lon="18.88826">
        <ele>16.185273</ele>
        <time>2020-08-29T03:18:52.337Z</time>
      </trkpt>
      <trkpt lat="63.29652" lon="18.88729">
        <ele>16.492136</ele>
        <time>2020-08-29T03:19:07.933Z</time>
      </trkpt>
      <trkpt lat="63.29661" lon="18.88719">
        <ele>16.53027</ele>
        <time>2020-08-29T03:19:09.980Z</time>
      </trkpt>
      <trkpt lat="63.29641" lon="18.88603">
        <ele>16.761676</ele>
        <time>2020-08-29T03:19:21.220Z</time>
      </trkpt>
      <trkpt lat="63.29626" lon="18.8851">
        <ele>17.342813</ele>
        <time>2020-08-29T03:19:30.887Z</time>
      </trkpt>
      <trkpt lat="63.29602" lon="18.8833">
        <ele>18.452377</ele>
        <time>2020-08-29T03:19:49.291Z</time>
      </trkpt>
      <trkpt lat="63.29596" lon="18.88264">
        <ele>18.847905</ele>
        <time>2020-08-29T03:19:56.237Z</time>
      </trkpt>
      <trkpt lat="63.29591" lon="18.8819">
        <ele>19.318224</ele>
        <time>2020-08-29T03:20:04.246Z</time>
      </trkpt>
      <trkpt lat="63.29587" lon="18.87993">
        <ele>20.646362</ele>
        <time>2020-08-29T03:20:25.409Z</time>
      </trkpt>
      <trkpt lat="63.29589" lon="18.87921">
        <ele>21.134013</ele>
        <time>2020-08-29T03:20:32.816Z</time>
      </trkpt>
      <trkpt lat="63.29591" lon="18.87844">
        <ele>21.653386</ele>
        <time>2020-08-29T03:20:40.177Z</time>
      </trkpt>
      <trkpt lat="63.29594" lon="18.87782">
        <ele>21.659064</ele>
        <time>2020-08-29T03:20:45.820Z</time>
      </trkpt>
      <trkpt lat="63.296" lon="18.87707">
        <ele>21.432497</ele>
        <time>2020-08-29T03:20:52.349Z</time>
      </trkpt>
      <trkpt lat="63.29606" lon="18.87638">
        <ele>21.220772</ele>
        <time>2020-08-29T03:20:57.865Z</time>
      </trkpt>
      <trkpt lat="63.29643" lon="18.87393">
        <ele>20.06776</ele>
        <time>2020-08-29T03:21:14.889Z</time>
      </trkpt>
      <trkpt lat="63.29657" lon="18.87323">
        <ele>19.222354</ele>
        <time>2020-08-29T03:21:19.561Z</time>
      </trkpt>
      <trkpt lat="63.29669" lon="18.8727">
        <ele>18.549588</ele>
        <time>2020-08-29T03:21:23.272Z</time>
      </trkpt>
      <trkpt lat="63.29701" lon="18.87149">
        <ele>17.004736</ele>
        <time>2020-08-29T03:21:31.764Z</time>
      </trkpt>
      <trkpt lat="63.29745" lon="18.87014">
        <ele>14.908472</ele>
        <time>2020-08-29T03:21:41.747Z</time>
      </trkpt>
      <trkpt lat="63.2976" lon="18.86975">
        <ele>14.21024</ele>
        <time>2020-08-29T03:21:44.766Z</time>
      </trkpt>
      <trkpt lat="63.29776" lon="18.86934">
        <ele>13.452115</ele>
        <time>2020-08-29T03:21:48.092Z</time>
      </trkpt>
      <trkpt lat="63.29799" lon="18.86883">
        <ele>12.460391</ele>
        <time>2020-08-29T03:21:52.386Z</time>
      </trkpt>
      <trkpt lat="63.29795" lon="18.86873">
        <ele>12.274067</ele>
        <time>2020-08-29T03:21:53.164Z</time>
      </trkpt>
      <trkpt lat="63.29776" lon="18.86828">
        <ele>11.413013</ele>
        <time>2020-08-29T03:21:56.804Z</time>
      </trkpt>
      <trkpt lat="63.29691" lon="18.86621">
        <ele>8.149719</ele>
        <time>2020-08-29T03:22:13.199Z</time>
      </trkpt>
      <trkpt lat="63.29667" lon="18.8656">
        <ele>7.258786</ele>
        <time>2020-08-29T03:22:18.072Z</time>
      </trkpt>
      <trkpt lat="63.29508" lon="18.86149">
        <ele>4.916795</ele>
        <time>2020-08-29T03:22:57.027Z</time>
      </trkpt>
      <trkpt lat="63.29472" lon="18.86079">
        <ele>4.995384</ele>
        <time>2020-08-29T03:23:06.098Z</time>
      </trkpt>
      <trkpt lat="63.29453" lon="18.86061">
        <ele>5.029231</ele>
        <time>2020-08-29T03:23:10.038Z</time>
      </trkpt>
      <trkpt lat="63.29427" lon="18.86045">
        <ele>5.074503</ele>
        <time>2020-08-29T03:23:15.329Z</time>
      </trkpt>
      <trkpt lat="63.29292" lon="18.86007">
        <ele>5.269365</ele>
        <time>2020-08-29T03:23:41.495Z</time>
      </trkpt>
      <trkpt lat="63.29257" lon="18.85988">
        <ele>5.3137</ele>
        <time>2020-08-29T03:23:47.953Z</time>
      </trkpt>
      <trkpt lat="63.29236" lon="18.85968">
        <ele>5.34224</ele>
        <time>2020-08-29T03:23:51.927Z</time>
      </trkpt>
      <trkpt lat="63.29205" lon="18.85913">
        <ele>5.392175</ele>
        <time>2020-08-29T03:23:58.865Z</time>
      </trkpt>
      <trkpt lat="63.29193" lon="18.85883">
        <ele>5.356892</ele>
        <time>2020-08-29T03:24:02.042Z</time>
      </trkpt>
      <trkpt lat="63.29186" lon="18.8586">
        <ele>5.29549</ele>
        <time>2020-08-29T03:24:04.076Z</time>
      </trkpt>
      <trkpt lat="63.29175" lon="18.85816">
        <ele>5.187778</ele>
        <time>2020-08-29T03:24:07.924Z</time>
      </trkpt>
      <trkpt lat="63.29164" lon="18.85721">
        <ele>4.977117</ele>
        <time>2020-08-29T03:24:15.004Z</time>
      </trkpt>
      <trkpt lat="63.29145" lon="18.85327">
        <ele>4.674783</ele>
        <time>2020-08-29T03:24:44.292Z</time>
      </trkpt>
      <trkpt lat="63.29149" lon="18.85266">
        <ele>4.718305</ele>
        <time>2020-08-29T03:24:49.438Z</time>
      </trkpt>
      <trkpt lat="63.2918" lon="18.85002">
        <ele>5.487077</ele>
        <time>2020-08-29T03:25:15.286Z</time>
      </trkpt>
      <trkpt lat="63.29179" lon="18.84908">
        <ele>5.976109</ele>
        <time>2020-08-29T03:25:24.930Z</time>
      </trkpt>
      <trkpt lat="63.2917" lon="18.8486">
        <ele>6.249354</ele>
        <time>2020-08-29T03:25:30.271Z</time>
      </trkpt>
      <trkpt lat="63.29138" lon="18.84756">
        <ele>6.908956</ele>
        <time>2020-08-29T03:25:42.593Z</time>
      </trkpt>
      <trkpt lat="63.29115" lon="18.84706">
        <ele>6.780682</ele>
        <time>2020-08-29T03:25:48.997Z</time>
      </trkpt>
      <trkpt lat="63.29075" lon="18.84661">
        <ele>6.598462</ele>
        <time>2020-08-29T03:25:57.396Z</time>
      </trkpt>
      <trkpt lat="63.29037" lon="18.84654">
        <ele>6.446365</ele>
        <time>2020-08-29T03:26:03.664Z</time>
      </trkpt>
      <trkpt lat="63.28868" lon="18.84675">
        <ele>4.750466</ele>
        <time>2020-08-29T03:26:28.467Z</time>
      </trkpt>
      <trkpt lat="63.28831" lon="18.84657">
        <ele>4.226658</ele>
        <time>2020-08-29T03:26:34.029Z</time>
      </trkpt>
      <trkpt lat="63.28816" lon="18.84637">
        <ele>3.983922</ele>
        <time>2020-08-29T03:26:36.644Z</time>
      </trkpt>
      <trkpt lat="63.28791" lon="18.84555">
        <ele>3.616591</ele>
        <time>2020-08-29T03:26:43.373Z</time>
      </trkpt>
      <trkpt lat="63.28761" lon="18.84251">
        <ele>3.07568</ele>
        <time>2020-08-29T03:27:07.401Z</time>
      </trkpt>
      <trkpt lat="63.28757" lon="18.84219">
        <ele>3.018072</ele>
        <time>2020-08-29T03:27:10.144Z</time>
      </trkpt>
      <trkpt lat="63.28755" lon="18.84183">
        <ele>3.017642</ele>
        <time>2020-08-29T03:27:13.228Z</time>
      </trkpt>
      <trkpt lat="63.28762" lon="18.8407">
        <ele>3.021715</ele>
        <time>2020-08-29T03:27:22.674Z</time>
      </trkpt>
      <trkpt lat="63.28925" lon="18.82943">
        <ele>3.481912</ele>
        <time>2020-08-29T03:28:57.396Z</time>
      </trkpt>
      <trkpt lat="63.28935" lon="18.8282">
        <ele>3.901775</ele>
        <time>2020-08-29T03:29:09.259Z</time>
      </trkpt>
      <trkpt lat="63.28933" lon="18.82782">
        <ele>4.030339</ele>
        <time>2020-08-29T03:29:13.010Z</time>
      </trkpt>
      <trkpt lat="63.28929" lon="18.82751">
        <ele>4.138627</ele>
        <time>2020-08-29T03:29:16.081Z</time>
      </trkpt>
      <trkpt lat="63.28928" lon="18.8273">
        <ele>4.208321</ele>
        <time>2020-08-29T03:29:18.274Z</time>
      </trkpt>
      <trkpt lat="63.28929" lon="18.82663">
        <ele>4.467584</ele>
        <time>2020-08-29T03:29:24.828Z</time>
      </trkpt>
      <trkpt lat="63.28938" lon="18.82561">
        <ele>5.032279</ele>
        <time>2020-08-29T03:29:35.440Z</time>
      </trkpt>
      <trkpt lat="63.29" lon="18.82119">
        <ele>7.188045</ele>
        <time>2020-08-29T03:30:20.005Z</time>
      </trkpt>
      <trkpt lat="63.29014" lon="18.81983">
        <ele>7.677407</ele>
        <time>2020-08-29T03:30:32.056Z</time>
      </trkpt>
      <trkpt lat="63.2902" lon="18.81893">
        <ele>8.009126</ele>
        <time>2020-08-29T03:30:39.999Z</time>
      </trkpt>
      <trkpt lat="63.2901" lon="18.8182">
        <ele>8.372155</ele>
        <time>2020-08-29T03:30:46.843Z</time>
      </trkpt>
      <trkpt lat="63.28987" lon="18.81766">
        <ele>8.729961</ele>
        <time>2020-08-29T03:30:53.754Z</time>
      </trkpt>
      <trkpt lat="63.28941" lon="18.81738">
        <ele>9.240758</ele>
        <time>2020-08-29T03:31:04.067Z</time>
      </trkpt>
      <trkpt lat="63.2875" lon="18.81729">
        <ele>11.358009</ele>
        <time>2020-08-29T03:31:47.054Z</time>
      </trkpt>
      <trkpt lat="63.28368" lon="18.81632">
        <ele>13.153774</ele>
        <time>2020-08-29T03:32:59.465Z</time>
      </trkpt>
      <trkpt lat="63.28221" lon="18.81598">
        <ele>14.280695</ele>
        <time>2020-08-29T03:33:29.472Z</time>
      </trkpt>
      <trkpt lat="63.28188" lon="18.81597">
        <ele>14.552347</ele>
        <time>2020-08-29T03:33:36.491Z</time>
      </trkpt>
      <trkpt lat="63.28128" lon="18.81596">
        <ele>14.939983</ele>
        <time>2020-08-29T03:33:49.530Z</time>
      </trkpt>
      <trkpt lat="63.2798" lon="18.816">
        <ele>15.699965</ele>
        <time>2020-08-29T03:34:17.887Z</time>
      </trkpt>
      <trkpt lat="63.27954" lon="18.81601">
        <ele>15.720455</ele>
        <time>2020-08-29T03:34:22.418Z</time>
      </trkpt>
      <trkpt lat="63.27919" lon="18.81594">
        <ele>15.747667</ele>
        <time>2020-08-29T03:34:28.601Z</time>
      </trkpt>
      <trkpt lat="63.27898" lon="18.81579">
        <ele>15.764596</ele>
        <time>2020-08-29T03:34:32.506Z</time>
      </trkpt>
      <trkpt lat="63.27869" lon="18.81538">
        <ele>15.791778</ele>
        <time>2020-08-29T03:34:38.688Z</time>
      </trkpt>
      <trkpt lat="63.27841" lon="18.81474">
        <ele>15.822795</ele>
        <time>2020-08-29T03:34:45.718Z</time>
      </trkpt>
      <trkpt lat="63.27745" lon="18.81224">
        <ele>16.251785</ele>
        <time>2020-08-29T03:35:13.478Z</time>
      </trkpt>
      <trkpt lat="63.27723" lon="18.81166">
        <ele>16.359488</ele>
        <time>2020-08-29T03:35:20.198Z</time>
      </trkpt>
      <trkpt lat="63.27702" lon="18.81106">
        <ele>16.398271</ele>
        <time>2020-08-29T03:35:26.806Z</time>
      </trkpt>
      <trkpt lat="63.2765" lon="18.80993">
        <ele>16.385971</ele>
        <time>2020-08-29T03:35:40.275Z</time>
      </trkpt>
      <trkpt lat="63.27599" lon="18.80951">
        <ele>16.376807</ele>
        <time>2020-08-29T03:35:49.783Z</time>
      </trkpt>
      <trkpt lat="63.27558" lon="18.80933">
        <ele>16.293457</ele>
        <time>2020-08-29T03:35:56.787Z</time>
      </trkpt>
      <trkpt lat="63.27416" lon="18.80929">
        <ele>15.111478</ele>
        <time>2020-08-29T03:36:18.713Z</time>
      </trkpt>
      <trkpt lat="63.27378" lon="18.80912">
        <ele>14.914042</ele>
        <time>2020-08-29T03:36:24.765Z</time>
      </trkpt>
      <trkpt lat="63.27351" lon="18.80888">
        <ele>15.007691</ele>
        <time>2020-08-29T03:36:29.605Z</time>
      </trkpt>
      <trkpt lat="63.2733" lon="18.80856">
        <ele>15.088452</ele>
        <time>2020-08-29T03:36:34.100Z</time>
      </trkpt>
      <trkpt lat="63.27309" lon="18.80808">
        <ele>15.184624</ele>
        <time>2020-08-29T03:36:39.859Z</time>
      </trkpt>
      <trkpt lat="63.27288" lon="18.80747">
        <ele>15.29479</ele>
        <time>2020-08-29T03:36:46.712Z</time>
      </trkpt>
      <trkpt lat="63.27268" lon="18.80692">
        <ele>15.395243</ele>
        <time>2020-08-29T03:36:53.195Z</time>
      </trkpt>
      <trkpt lat="63.27242" lon="18.80592">
        <ele>15.802014</ele>
        <time>2020-08-29T03:37:04.563Z</time>
      </trkpt>
      <trkpt lat="63.27237" lon="18.80571">
        <ele>15.911548</ele>
        <time>2020-08-29T03:37:07.079Z</time>
      </trkpt>
      <trkpt lat="63.27224" lon="18.80513">
        <ele>16.217556</ele>
        <time>2020-08-29T03:37:13.651Z</time>
      </trkpt>
      <trkpt lat="63.27132" lon="18.79931">
        <ele>18.730145</ele>
        <time>2020-08-29T03:38:10.935Z</time>
      </trkpt>
      <trkpt lat="63.27129" lon="18.79894">
        <ele>18.757708</ele>
        <time>2020-08-29T03:38:14.526Z</time>
      </trkpt>
      <trkpt lat="63.27127" lon="18.79785">
        <ele>18.46799</ele>
        <time>2020-08-29T03:38:23.893Z</time>
      </trkpt>
      <trkpt lat="63.27121" lon="18.79731">
        <ele>18.320948</ele>
        <time>2020-08-29T03:38:28.319Z</time>
      </trkpt>
      <trkpt lat="63.27108" lon="18.79676">
        <ele>18.158194</ele>
        <time>2020-08-29T03:38:32.784Z</time>
      </trkpt>
      <trkpt lat="63.27087" lon="18.79613">
        <ele>17.946438</ele>
        <time>2020-08-29T03:38:38.202Z</time>
      </trkpt>
      <trkpt lat="63.27063" lon="18.79547">
        <ele>17.664062</ele>
        <time>2020-08-29T03:38:43.570Z</time>
      </trkpt>
      <trkpt lat="63.27025" lon="18.79441">
        <ele>16.291073</ele>
        <time>2020-08-29T03:38:51.944Z</time>
      </trkpt>
      <trkpt lat="63.2699" lon="18.79332">
        <ele>14.924948</ele>
        <time>2020-08-29T03:39:00.332Z</time>
      </trkpt>
      <trkpt lat="63.26988" lon="18.79327">
        <ele>14.857891</ele>
        <time>2020-08-29T03:39:00.683Z</time>
      </trkpt>
      <trkpt lat="63.26928" lon="18.7908">
        <ele>12.209848</ele>
        <time>2020-08-29T03:39:18.244Z</time>
      </trkpt>
      <trkpt lat="63.26904" lon="18.79026">
        <ele>11.542784</ele>
        <time>2020-08-29T03:39:23.003Z</time>
      </trkpt>
      <trkpt lat="63.26892" lon="18.7901">
        <ele>11.266166</ele>
        <time>2020-08-29T03:39:25.153Z</time>
      </trkpt>
      <trkpt lat="63.26863" lon="18.78984">
        <ele>10.642507</ele>
        <time>2020-08-29T03:39:29.666Z</time>
      </trkpt>
      <trkpt lat="63.26792" lon="18.78929">
        <ele>8.893181</ele>
        <time>2020-08-29T03:39:40.518Z</time>
      </trkpt>
      <trkpt lat="63.26758" lon="18.78896">
        <ele>7.967369</ele>
        <time>2020-08-29T03:39:45.600Z</time>
      </trkpt>
      <trkpt lat="63.26681" lon="18.78796">
        <ele>5.719682</ele>
        <time>2020-08-29T03:39:57.375Z</time>
      </trkpt>
      <trkpt lat="63.26654" lon="18.78758">
        <ele>4.991245</ele>
        <time>2020-08-29T03:40:01.637Z</time>
      </trkpt>
      <trkpt lat="63.26634" lon="18.78842">
        <ele>4.043162</ele>
        <time>2020-08-29T03:40:11.960Z</time>
      </trkpt>
      <trkpt lat="63.26634" lon="18.78859">
        <ele>3.873077</ele>
        <time>2020-08-29T03:40:13.953Z</time>
      </trkpt>
      <trkpt lat="63.26641" lon="18.78878">
        <ele>3.628063</ele>
        <time>2020-08-29T03:40:16.828Z</time>
      </trkpt>
      <trkpt lat="63.26656" lon="18.78903">
        <ele>3.201433</ele>
        <time>2020-08-29T03:40:21.488Z</time>
      </trkpt>
      <trkpt lat="63.26657" lon="18.78951">
        <ele>2.716271</ele>
        <time>2020-08-29T03:40:27.198Z</time>
      </trkpt>
      <trkpt lat="63.26658" lon="18.78969">
        <ele>2.537029</ele>
        <time>2020-08-29T03:40:29.044Z</time>
      </trkpt>
      <trkpt lat="63.26643" lon="18.7895">
        <ele>2.149869</ele>
        <time>2020-08-29T03:40:33.570Z</time>
      </trkpt>
      <trkpt lat="63.26586" lon="18.78906">
        <ele>1.363943</ele>
        <time>2020-08-29T03:40:48.773Z</time>
      </trkpt>
      <trkpt lat="63.26489" lon="18.78829">
        <ele>0.700524</ele>
        <time>2020-08-29T03:41:17.661Z</time>
      </trkpt>
      <trkpt lat="63.26441" lon="18.78771">
        <ele>0.510294</ele>
        <time>2020-08-29T03:41:34.188Z</time>
      </trkpt>
      <trkpt lat="63.26407" lon="18.78711">
        <ele>0.80032</ele>
        <time>2020-08-29T03:41:48.116Z</time>
      </trkpt>
      <trkpt lat="63.26397" lon="18.78702">
        <ele>0.878673</ele>
        <time>2020-08-29T03:41:51.832Z</time>
      </trkpt>
      <trkpt lat="63.26353" lon="18.78644">
        <ele>1.219934</ele>
        <time>2020-08-29T03:42:07.782Z</time>
      </trkpt>
      <trkpt lat="63.26362" lon="18.78617">
        <ele>1.321188</ele>
        <time>2020-08-29T03:42:13.093Z</time>
      </trkpt>
      <trkpt lat="63.26378" lon="18.78586">
        <ele>1.466054</ele>
        <time>2020-08-29T03:42:19.506Z</time>
      </trkpt>
      <trkpt lat="63.26386" lon="18.78556">
        <ele>1.572329</ele>
        <time>2020-08-29T03:42:25.018Z</time>
      </trkpt>
      <trkpt lat="63.26388" lon="18.7854">
        <ele>1.622404</ele>
        <time>2020-08-29T03:42:27.308Z</time>
      </trkpt>
      <trkpt lat="63.26382" lon="18.78509">
        <ele>1.782439</ele>
        <time>2020-08-29T03:42:32.012Z</time>
      </trkpt>
      <trkpt lat="63.26383" lon="18.78494">
        <ele>1.860345</ele>
        <time>2020-08-29T03:42:34.758Z</time>
      </trkpt>
      <trkpt lat="63.26278" lon="18.78402">
        <ele>3.126996</ele>
        <time>2020-08-29T03:42:59.757Z</time>
      </trkpt>
      <trkpt lat="63.26209" lon="18.78342">
        <ele>3.926863</ele>
        <time>2020-08-29T03:43:14.842Z</time>
      </trkpt>
      <trkpt lat="63.26139" lon="18.78284">
        <ele>4.700524</ele>
        <time>2020-08-29T03:43:30.217Z</time>
      </trkpt>
      <trkpt lat="63.26014" lon="18.782">
        <ele>6.603856</ele>
        <time>2020-08-29T03:43:58.528Z</time>
      </trkpt>
      <trkpt lat="63.26015" lon="18.78185">
        <ele>6.747562</ele>
        <time>2020-08-29T03:44:00.550Z</time>
      </trkpt>
      <trkpt lat="63.25995" lon="18.78171">
        <ele>7.208829</ele>
        <time>2020-08-29T03:44:05.860Z</time>
      </trkpt>
      <trkpt lat="63.25957" lon="18.78143">
        <ele>8.038469</ele>
        <time>2020-08-29T03:44:16.024Z</time>
      </trkpt>
      <trkpt lat="63.2594" lon="18.78121">
        <ele>8.459115</ele>
        <time>2020-08-29T03:44:21.719Z</time>
      </trkpt>
      <trkpt lat="63.25925" lon="18.7809">
        <ele>8.886422</ele>
        <time>2020-08-29T03:44:26.942Z</time>
      </trkpt>
      <trkpt lat="63.25911" lon="18.78031">
        <ele>9.533002</ele>
        <time>2020-08-29T03:44:35.254Z</time>
      </trkpt>
      <trkpt lat="63.25904" lon="18.7799">
        <ele>9.979636</ele>
        <time>2020-08-29T03:44:41.168Z</time>
      </trkpt>
      <trkpt lat="63.25896" lon="18.77948">
        <ele>10.430828</ele>
        <time>2020-08-29T03:44:46.544Z</time>
      </trkpt>
      <trkpt lat="63.25875" lon="18.77821">
        <ele>11.791619</ele>
        <time>2020-08-29T03:45:02.216Z</time>
      </trkpt>
      <trkpt lat="63.25867" lon="18.77775">
        <ele>12.284454</ele>
        <time>2020-08-29T03:45:07.837Z</time>
      </trkpt>
      <trkpt lat="63.25841" lon="18.77521">
        <ele>14.517803</ele>
        <time>2020-08-29T03:45:35.945Z</time>
      </trkpt>
      <trkpt lat="63.25842" lon="18.77427">
        <ele>15.238475</ele>
        <time>2020-08-29T03:45:45.626Z</time>
      </trkpt>
      <trkpt lat="63.25837" lon="18.77375">
        <ele>15.639179</ele>
        <time>2020-08-29T03:45:51.565Z</time>
      </trkpt>
      <trkpt lat="63.25833" lon="18.77319">
        <ele>16.075102</ele>
        <time>2020-08-29T03:45:57.804Z</time>
      </trkpt>
      <trkpt lat="63.25828" lon="18.77272">
        <ele>16.425711</ele>
        <time>2020-08-29T03:46:03.217Z</time>
      </trkpt>
      <trkpt lat="63.25828" lon="18.77223">
        <ele>16.721002</ele>
        <time>2020-08-29T03:46:08.694Z</time>
      </trkpt>
      <trkpt lat="63.25833" lon="18.77187">
        <ele>16.948943</ele>
        <time>2020-08-29T03:46:12.679Z</time>
      </trkpt>
      <trkpt lat="63.25858" lon="18.77123">
        <ele>17.466558</ele>
        <time>2020-08-29T03:46:21.887Z</time>
      </trkpt>
      <trkpt lat="63.2587" lon="18.77109">
        <ele>17.644039</ele>
        <time>2020-08-29T03:46:25.282Z</time>
      </trkpt>
      <trkpt lat="63.25881" lon="18.771">
        <ele>17.801684</ele>
        <time>2020-08-29T03:46:28.071Z</time>
      </trkpt>
      <trkpt lat="63.25926" lon="18.77079">
        <ele>18.421823</ele>
        <time>2020-08-29T03:46:38.536Z</time>
      </trkpt>
      <trkpt lat="63.25961" lon="18.77082">
        <ele>18.721666</ele>
        <time>2020-08-29T03:46:45.975Z</time>
      </trkpt>
      <trkpt lat="63.2654" lon="18.77193">
        <ele>13.794824</ele>
        <time>2020-08-29T03:48:22.838Z</time>
      </trkpt>
      <trkpt lat="63.26564" lon="18.77186">
        <ele>13.16743</ele>
        <time>2020-08-29T03:48:26.225Z</time>
      </trkpt>
      <trkpt lat="63.26593" lon="18.77171">
        <ele>12.399271</ele>
        <time>2020-08-29T03:48:30.338Z</time>
      </trkpt>
      <trkpt lat="63.26624" lon="18.77153">
        <ele>11.58625</ele>
        <time>2020-08-29T03:48:34.660Z</time>
      </trkpt>
      <trkpt lat="63.26699" lon="18.77073">
        <ele>9.221235</ele>
        <time>2020-08-29T03:48:45.820Z</time>
      </trkpt>
      <trkpt lat="63.26755" lon="18.76998">
        <ele>7.178223</ele>
        <time>2020-08-29T03:48:54.597Z</time>
      </trkpt>
      <trkpt lat="63.26817" lon="18.76878">
        <ele>4.719707</ele>
        <time>2020-08-29T03:49:06.183Z</time>
      </trkpt>
      <trkpt lat="63.26835" lon="18.76832">
        <ele>4.351022</ele>
        <time>2020-08-29T03:49:10.178Z</time>
      </trkpt>
      <trkpt lat="63.26858" lon="18.7677">
        <ele>3.878982</ele>
        <time>2020-08-29T03:49:15.414Z</time>
      </trkpt>
      <trkpt lat="63.26927" lon="18.76522">
        <ele>2.735624</ele>
        <time>2020-08-29T03:49:37.161Z</time>
      </trkpt>
      <trkpt lat="63.26959" lon="18.7642">
        <ele>3.506637</ele>
        <time>2020-08-29T03:49:49.597Z</time>
      </trkpt>
      <trkpt lat="63.27009" lon="18.76273">
        <ele>4.642776</ele>
        <time>2020-08-29T03:50:10.449Z</time>
      </trkpt>
      <trkpt lat="63.27081" lon="18.76063">
        <ele>7.459988</ele>
        <time>2020-08-29T03:50:42.744Z</time>
      </trkpt>
      <trkpt lat="63.27153" lon="18.75849">
        <ele>10.848769</ele>
        <time>2020-08-29T03:51:14.549Z</time>
      </trkpt>
      <trkpt lat="63.27221" lon="18.75649">
        <ele>14.55402</ele>
        <time>2020-08-29T03:51:46.260Z</time>
      </trkpt>
      <trkpt lat="63.27268" lon="18.7553">
        <ele>17.736891</ele>
        <time>2020-08-29T03:52:10.950Z</time>
      </trkpt>
      <trkpt lat="63.27317" lon="18.75422">
        <ele>21.381952</ele>
        <time>2020-08-29T03:52:36.216Z</time>
      </trkpt>
      <trkpt lat="63.27343" lon="18.75372">
        <ele>23.176474</ele>
        <time>2020-08-29T03:52:48.730Z</time>
      </trkpt>
      <trkpt lat="63.27357" lon="18.75345">
        <ele>24.123058</ele>
        <time>2020-08-29T03:52:55.711Z</time>
      </trkpt>
      <trkpt lat="63.27477" lon="18.75164">
        <ele>30.721511</ele>
        <time>2020-08-29T03:53:45.757Z</time>
      </trkpt>
      <trkpt lat="63.27577" lon="18.75064">
        <ele>34.479591</ele>
        <time>2020-08-29T03:54:16.779Z</time>
      </trkpt>
      <trkpt lat="63.27607" lon="18.75031">
        <ele>35.388229</ele>
        <time>2020-08-29T03:54:26.279Z</time>
      </trkpt>
      <trkpt lat="63.27634" lon="18.75002">
        <ele>36.179757</ele>
        <time>2020-08-29T03:54:34.302Z</time>
      </trkpt>
      <trkpt lat="63.27649" lon="18.74991">
        <ele>36.586022</ele>
        <time>2020-08-29T03:54:38.240Z</time>
      </trkpt>
      <trkpt lat="63.27663" lon="18.74969">
        <ele>37.05588</ele>
        <time>2020-08-29T03:54:42.963Z</time>
      </trkpt>
      <trkpt lat="63.27695" lon="18.74932">
        <ele>37.656529</ele>
        <time>2020-08-29T03:54:52.131Z</time>
      </trkpt>
      <trkpt lat="63.27721" lon="18.74914">
        <ele>37.679198</ele>
        <time>2020-08-29T03:54:58.575Z</time>
      </trkpt>
      <trkpt lat="63.27827" lon="18.74868">
        <ele>37.770257</ele>
        <time>2020-08-29T03:55:19.106Z</time>
      </trkpt>
      <trkpt lat="63.27853" lon="18.7484">
        <ele>37.794869</ele>
        <time>2020-08-29T03:55:23.607Z</time>
      </trkpt>
      <trkpt lat="63.27987" lon="18.74583">
        <ele>32.691697</ele>
        <time>2020-08-29T03:55:48.080Z</time>
      </trkpt>
      <trkpt lat="63.2808" lon="18.74451">
        <ele>29.393877</ele>
        <time>2020-08-29T03:56:02.869Z</time>
      </trkpt>
      <trkpt lat="63.28136" lon="18.74316">
        <ele>27.007269</ele>
        <time>2020-08-29T03:56:14.761Z</time>
      </trkpt>
      <trkpt lat="63.28147" lon="18.74293">
        <ele>26.726827</ele>
        <time>2020-08-29T03:56:16.849Z</time>
      </trkpt>
      <trkpt lat="63.28156" lon="18.74278">
        <ele>26.51974</ele>
        <time>2020-08-29T03:56:18.612Z</time>
      </trkpt>
      <trkpt lat="63.28173" lon="18.74218">
        <ele>25.91774</ele>
        <time>2020-08-29T03:56:23.402Z</time>
      </trkpt>
      <trkpt lat="63.2822" lon="18.74114">
        <ele>24.68146</ele>
        <time>2020-08-29T03:56:33.255Z</time>
      </trkpt>
      <trkpt lat="63.28233" lon="18.74093">
        <ele>24.365354</ele>
        <time>2020-08-29T03:56:35.925Z</time>
      </trkpt>
      <trkpt lat="63.28262" lon="18.73973">
        <ele>23.338408</ele>
        <time>2020-08-29T03:56:45.162Z</time>
      </trkpt>
      <trkpt lat="63.28302" lon="18.73815">
        <ele>22.126012</ele>
        <time>2020-08-29T03:56:57.717Z</time>
      </trkpt>
      <trkpt lat="63.28312" lon="18.73784">
        <ele>21.868942</ele>
        <time>2020-08-29T03:57:00.310Z</time>
      </trkpt>
      <trkpt lat="63.28326" lon="18.7376">
        <ele>21.606587</ele>
        <time>2020-08-29T03:57:02.973Z</time>
      </trkpt>
      <trkpt lat="63.28339" lon="18.73711">
        <ele>21.228311</ele>
        <time>2020-08-29T03:57:06.891Z</time>
      </trkpt>
      <trkpt lat="63.28361" lon="18.7365">
        <ele>21.03849</ele>
        <time>2020-08-29T03:57:12.545Z</time>
      </trkpt>
      <trkpt lat="63.28456" lon="18.73446">
        <ele>20.698195</ele>
        <time>2020-08-29T03:57:36.558Z</time>
      </trkpt>
      <trkpt lat="63.28482" lon="18.73398">
        <ele>20.720573</ele>
        <time>2020-08-29T03:57:43.266Z</time>
      </trkpt>
      <trkpt lat="63.28529" lon="18.73326">
        <ele>21.065128</ele>
        <time>2020-08-29T03:57:55.309Z</time>
      </trkpt>
      <trkpt lat="63.28563" lon="18.73281">
        <ele>21.3038</ele>
        <time>2020-08-29T03:58:03.747Z</time>
      </trkpt>
      <trkpt lat="63.2858" lon="18.73258">
        <ele>21.427033</ele>
        <time>2020-08-29T03:58:08.325Z</time>
      </trkpt>
      <trkpt lat="63.28599" lon="18.73245">
        <ele>21.547353</ele>
        <time>2020-08-29T03:58:12.407Z</time>
      </trkpt>
      <trkpt lat="63.28608" lon="18.73233">
        <ele>21.608766</ele>
        <time>2020-08-29T03:58:14.531Z</time>
      </trkpt>
      <trkpt lat="63.28615" lon="18.73217">
        <ele>21.671952</ele>
        <time>2020-08-29T03:58:16.658Z</time>
      </trkpt>
      <trkpt lat="63.28626" lon="18.73196">
        <ele>21.680998</ele>
        <time>2020-08-29T03:58:19.203Z</time>
      </trkpt>
      <trkpt lat="63.28643" lon="18.73173">
        <ele>21.445162</ele>
        <time>2020-08-29T03:58:23.216Z</time>
      </trkpt>
      <trkpt lat="63.28688" lon="18.73111">
        <ele>20.836884</ele>
        <time>2020-08-29T03:58:32.804Z</time>
      </trkpt>
      <trkpt lat="63.28715" lon="18.73073">
        <ele>20.470092</ele>
        <time>2020-08-29T03:58:38.486Z</time>
      </trkpt>
      <trkpt lat="63.2873" lon="18.73037">
        <ele>20.215514</ele>
        <time>2020-08-29T03:58:41.730Z</time>
      </trkpt>
      <trkpt lat="63.28773" lon="18.72939">
        <ele>19.116685</ele>
        <time>2020-08-29T03:58:50.223Z</time>
      </trkpt>
      <trkpt lat="63.28786" lon="18.7288">
        <ele>17.907361</ele>
        <time>2020-08-29T03:58:54.294Z</time>
      </trkpt>
      <trkpt lat="63.28794" lon="18.72803">
        <ele>16.423581</ele>
        <time>2020-08-29T03:58:58.916Z</time>
      </trkpt>
      <trkpt lat="63.28794" lon="18.72788">
        <ele>16.139825</ele>
        <time>2020-08-29T03:58:59.713Z</time>
      </trkpt>
      <trkpt lat="63.28794" lon="18.72777">
        <ele>15.947157</ele>
        <time>2020-08-29T03:59:00.317Z</time>
      </trkpt>
      <trkpt lat="63.28791" lon="18.7275">
        <ele>15.414913</ele>
        <time>2020-08-29T03:59:02.092Z</time>
      </trkpt>
      <trkpt lat="63.28786" lon="18.72714">
        <ele>14.726386</ele>
        <time>2020-08-29T03:59:04.162Z</time>
      </trkpt>
      <trkpt lat="63.2877" lon="18.72644">
        <ele>13.27014</ele>
        <time>2020-08-29T03:59:08.729Z</time>
      </trkpt>
      <trkpt lat="63.28756" lon="18.72602">
        <ele>12.265273</ele>
        <time>2020-08-29T03:59:11.994Z</time>
      </trkpt>
      <trkpt lat="63.28746" lon="18.72572">
        <ele>11.706203</ele>
        <time>2020-08-29T03:59:14.011Z</time>
      </trkpt>
      <trkpt lat="63.28734" lon="18.72539">
        <ele>11.072909</ele>
        <time>2020-08-29T03:59:16.637Z</time>
      </trkpt>
      <trkpt lat="63.28723" lon="18.72443">
        <ele>9.584853</ele>
        <time>2020-08-29T03:59:22.407Z</time>
      </trkpt>
      <trkpt lat="63.28727" lon="18.7223">
        <ele>6.377377</ele>
        <time>2020-08-29T03:59:35.845Z</time>
      </trkpt>
      <trkpt lat="63.28727" lon="18.72198">
        <ele>6.037301</ele>
        <time>2020-08-29T03:59:37.958Z</time>
      </trkpt>
      <trkpt lat="63.28727" lon="18.72189">
        <ele>5.966452</ele>
        <time>2020-08-29T03:59:38.568Z</time>
      </trkpt>
      <trkpt lat="63.28731" lon="18.7218">
        <ele>5.880969</ele>
        <time>2020-08-29T03:59:39.359Z</time>
      </trkpt>
      <trkpt lat="63.28729" lon="18.72167">
        <ele>5.772261</ele>
        <time>2020-08-29T03:59:40.324Z</time>
      </trkpt>
      <trkpt lat="63.28727" lon="18.72147">
        <ele>5.613993</ele>
        <time>2020-08-29T03:59:41.682Z</time>
      </trkpt>
      <trkpt lat="63.28725" lon="18.72133">
        <ele>5.492979</ele>
        <time>2020-08-29T03:59:42.739Z</time>
      </trkpt>
      <trkpt lat="63.28721" lon="18.72114">
        <ele>5.329272</ele>
        <time>2020-08-29T03:59:44.128Z</time>
      </trkpt>
      <trkpt lat="63.28706" lon="18.71937">
        <ele>3.9118</ele>
        <time>2020-08-29T03:59:56.430Z</time>
      </trkpt>
      <trkpt lat="63.28703" lon="18.71919">
        <ele>3.760271</ele>
        <time>2020-08-29T03:59:57.731Z</time>
      </trkpt>
      <trkpt lat="63.28692" lon="18.7177">
        <ele>2.839903</ele>
        <time>2020-08-29T04:00:08.216Z</time>
      </trkpt>
      <trkpt lat="63.28696" lon="18.71741">
        <ele>2.738256</ele>
        <time>2020-08-29T04:00:10.345Z</time>
      </trkpt>
      <trkpt lat="63.28697" lon="18.71721">
        <ele>2.667701</ele>
        <time>2020-08-29T04:00:11.909Z</time>
      </trkpt>
      <trkpt lat="63.28697" lon="18.71711">
        <ele>2.634756</ele>
        <time>2020-08-29T04:00:12.593Z</time>
      </trkpt>
      <trkpt lat="63.28703" lon="18.71673">
        <ele>2.497269</ele>
        <time>2020-08-29T04:00:15.528Z</time>
      </trkpt>
      <trkpt lat="63.28721" lon="18.71623">
        <ele>2.282641</ele>
        <time>2020-08-29T04:00:20.236Z</time>
      </trkpt>
      <trkpt lat="63.28734" lon="18.71592">
        <ele>2.136854</ele>
        <time>2020-08-29T04:00:23.485Z</time>
      </trkpt>
      <trkpt lat="63.2876" lon="18.7151">
        <ele>1.794069</ele>
        <time>2020-08-29T04:00:31.502Z</time>
      </trkpt>
      <trkpt lat="63.28769" lon="18.71481">
        <ele>1.679348</ele>
        <time>2020-08-29T04:00:34.482Z</time>
      </trkpt>
      <trkpt lat="63.28776" lon="18.71452">
        <ele>1.697609</ele>
        <time>2020-08-29T04:00:37.117Z</time>
      </trkpt>
      <trkpt lat="63.28785" lon="18.71412">
        <ele>1.722683</ele>
        <time>2020-08-29T04:00:40.938Z</time>
      </trkpt>
      <trkpt lat="63.28791" lon="18.71391">
        <ele>1.73658</ele>
        <time>2020-08-29T04:00:43.052Z</time>
      </trkpt>
      <trkpt lat="63.2883" lon="18.71262">
        <ele>1.823002</ele>
        <time>2020-08-29T04:00:56.395Z</time>
      </trkpt>
      <trkpt lat="63.28842" lon="18.71224">
        <ele>1.849074</ele>
        <time>2020-08-29T04:01:00.437Z</time>
      </trkpt>
      <trkpt lat="63.28852" lon="18.71209">
        <ele>1.863612</ele>
        <time>2020-08-29T04:01:02.911Z</time>
      </trkpt>
      <trkpt lat="63.28847" lon="18.71195">
        <ele>1.873803</ele>
        <time>2020-08-29T04:01:04.896Z</time>
      </trkpt>
      <trkpt lat="63.28841" lon="18.71186">
        <ele>1.882531</ele>
        <time>2020-08-29T04:01:06.602Z</time>
      </trkpt>
      <trkpt lat="63.28838" lon="18.71157">
        <ele>1.898971</ele>
        <time>2020-08-29T04:01:10.003Z</time>
      </trkpt>
      <trkpt lat="63.28832" lon="18.71104">
        <ele>1.909013</ele>
        <time>2020-08-29T04:01:14.616Z</time>
      </trkpt>
      <trkpt lat="63.28815" lon="18.7096">
        <ele>1.931899</ele>
        <time>2020-08-29T04:01:27.063Z</time>
      </trkpt>
      <trkpt lat="63.28802" lon="18.70848">
        <ele>1.94977</ele>
        <time>2020-08-29T04:01:36.857Z</time>
      </trkpt>
      <trkpt lat="63.28789" lon="18.70857">
        <ele>1.954449</ele>
        <time>2020-08-29T04:01:39.062Z</time>
      </trkpt>
      <trkpt lat="63.2877" lon="18.70868">
        <ele>1.961255</ele>
        <time>2020-08-29T04:01:42.786Z</time>
      </trkpt>
      <trkpt lat="63.28743" lon="18.70878">
        <ele>2.044033</ele>
        <time>2020-08-29T04:01:47.354Z</time>
      </trkpt>
      <trkpt lat="63.2874" lon="18.70841">
        <ele>2.10558</ele>
        <time>2020-08-29T04:01:50.538Z</time>
      </trkpt>
      <trkpt lat="63.28701" lon="18.70795">
        <ele>2.266664</ele>
        <time>2020-08-29T04:01:58.367Z</time>
      </trkpt>
      <trkpt lat="63.28645" lon="18.70781">
        <ele>2.466883</ele>
        <time>2020-08-29T04:02:08.046Z</time>
      </trkpt>
      <trkpt lat="63.28438" lon="18.70926">
        <ele>5.883878</ele>
        <time>2020-08-29T04:02:58.675Z</time>
      </trkpt>
      <trkpt lat="63.2843" lon="18.70929">
        <ele>6.043053</ele>
        <time>2020-08-29T04:03:00.902Z</time>
      </trkpt>
      <trkpt lat="63.28427" lon="18.70926">
        <ele>6.132243</ele>
        <time>2020-08-29T04:03:02.439Z</time>
      </trkpt>
      <trkpt lat="63.28422" lon="18.70902">
        <ele>6.41465</ele>
        <time>2020-08-29T04:03:05.400Z</time>
      </trkpt>
      <trkpt lat="63.28416" lon="18.70869">
        <ele>6.774924</ele>
        <time>2020-08-29T04:03:09.472Z</time>
      </trkpt>
      <trkpt lat="63.28413" lon="18.70862">
        <ele>6.875515</ele>
        <time>2020-08-29T04:03:11.003Z</time>
      </trkpt>
      <trkpt lat="63.28402" lon="18.70852">
        <ele>7.156882</ele>
        <time>2020-08-29T04:03:14.200Z</time>
      </trkpt>
      <trkpt lat="63.28398" lon="18.70847">
        <ele>7.269964</ele>
        <time>2020-08-29T04:03:15.850Z</time>
      </trkpt>
      <trkpt lat="63.28336" lon="18.70874">
        <ele>8.717038</ele>
        <time>2020-08-29T04:03:33.983Z</time>
      </trkpt>
      <trkpt lat="63.27984" lon="18.71059">
        <ele>13.261666</ele>
        <time>2020-08-29T04:04:53.509Z</time>
      </trkpt>
      <trkpt lat="63.27873" lon="18.7104">
        <ele>14.584625</ele>
        <time>2020-08-29T04:05:16.840Z</time>
      </trkpt>
      <trkpt lat="63.27855" lon="18.70978">
        <ele>15.040754</ele>
        <time>2020-08-29T04:05:24.061Z</time>
      </trkpt>
      <trkpt lat="63.27829" lon="18.70976">
        <ele>15.403884</ele>
        <time>2020-08-29T04:05:30.253Z</time>
      </trkpt>
      <trkpt lat="63.27805" lon="18.70968">
        <ele>15.754783</ele>
        <time>2020-08-29T04:05:36.073Z</time>
      </trkpt>
      <trkpt lat="63.27736" lon="18.70917">
        <ele>17.146107</ele>
        <time>2020-08-29T04:05:54.484Z</time>
      </trkpt>
      <trkpt lat="63.27703" lon="18.70879">
        <ele>18.140392</ele>
        <time>2020-08-29T04:06:04.784Z</time>
      </trkpt>
      <trkpt lat="63.27697" lon="18.70871">
        <ele>18.316703</ele>
        <time>2020-08-29T04:06:06.857Z</time>
      </trkpt>
      <trkpt lat="63.27671" lon="18.70849">
        <ele>19.047654</ele>
        <time>2020-08-29T04:06:14.290Z</time>
      </trkpt>
      <trkpt lat="63.27661" lon="18.70845">
        <ele>19.328766</ele>
        <time>2020-08-29T04:06:17.449Z</time>
      </trkpt>
      <trkpt lat="63.27642" lon="18.70838">
        <ele>19.829474</ele>
        <time>2020-08-29T04:06:22.371Z</time>
      </trkpt>
      <trkpt lat="63.2762" lon="18.70826">
        <ele>20.427534</ele>
        <time>2020-08-29T04:06:28.715Z</time>
      </trkpt>
      <trkpt lat="63.27599" lon="18.70795">
        <ele>21.095282</ele>
        <time>2020-08-29T04:06:35.801Z</time>
      </trkpt>
      <trkpt lat="63.27554" lon="18.70702">
        <ele>22.833015</ele>
        <time>2020-08-29T04:06:52.684Z</time>
      </trkpt>
      <trkpt lat="63.2752" lon="18.70582">
        <ele>24.631006</ele>
        <time>2020-08-29T04:07:10.385Z</time>
      </trkpt>
      <trkpt lat="63.27501" lon="18.7044">
        <ele>26.387198</ele>
        <time>2020-08-29T04:07:29.064Z</time>
      </trkpt>
      <trkpt lat="63.27498" lon="18.70365">
        <ele>26.987462</ele>
        <time>2020-08-29T04:07:38.056Z</time>
      </trkpt>
      <trkpt lat="63.27501" lon="18.70318">
        <ele>27.359388</ele>
        <time>2020-08-29T04:07:43.192Z</time>
      </trkpt>
      <trkpt lat="63.27502" lon="18.70295">
        <ele>27.54825</ele>
        <time>2020-08-29T04:07:46.165Z</time>
      </trkpt>
      <trkpt lat="63.27504" lon="18.70261">
        <ele>27.818191</ele>
        <time>2020-08-29T04:07:49.880Z</time>
      </trkpt>
      <trkpt lat="63.27505" lon="18.70184">
        <ele>28.43016</ele>
        <time>2020-08-29T04:07:58.206Z</time>
      </trkpt>
      <trkpt lat="63.27505" lon="18.70179">
        <ele>28.468284</ele>
        <time>2020-08-29T04:07:58.684Z</time>
      </trkpt>
      <trkpt lat="63.27505" lon="18.70158">
        <ele>28.635776</ele>
        <time>2020-08-29T04:08:00.713Z</time>
      </trkpt>
      <trkpt lat="63.27506" lon="18.7011">
        <ele>29.01377</ele>
        <time>2020-08-29T04:08:05.828Z</time>
      </trkpt>
      <trkpt lat="63.27506" lon="18.70097">
        <ele>29.12101</ele>
        <time>2020-08-29T04:08:07.125Z</time>
      </trkpt>
      <trkpt lat="63.27508" lon="18.70014">
        <ele>29.119946</ele>
        <time>2020-08-29T04:08:14.602Z</time>
      </trkpt>
      <trkpt lat="63.27506" lon="18.69923">
        <ele>28.739916</ele>
        <time>2020-08-29T04:08:22.357Z</time>
      </trkpt>
      <trkpt lat="63.27492" lon="18.69777">
        <ele>28.121319</ele>
        <time>2020-08-29T04:08:32.931Z</time>
      </trkpt>
      <trkpt lat="63.27488" lon="18.69748">
        <ele>27.99428</ele>
        <time>2020-08-29T04:08:34.930Z</time>
      </trkpt>
      <trkpt lat="63.27482" lon="18.69705">
        <ele>27.809366</ele>
        <time>2020-08-29T04:08:37.875Z</time>
      </trkpt>
      <trkpt lat="63.2745" lon="18.69555">
        <ele>25.682719</ele>
        <time>2020-08-29T04:08:48.570Z</time>
      </trkpt>
      <trkpt lat="63.27444" lon="18.69529">
        <ele>25.259019</ele>
        <time>2020-08-29T04:08:50.338Z</time>
      </trkpt>
      <trkpt lat="63.27405" lon="18.69426">
        <ele>23.293471</ele>
        <time>2020-08-29T04:08:58.574Z</time>
      </trkpt>
      <trkpt lat="63.27379" lon="18.69367">
        <ele>22.072978</ele>
        <time>2020-08-29T04:09:03.579Z</time>
      </trkpt>
      <trkpt lat="63.27352" lon="18.69315">
        <ele>20.500506</ele>
        <time>2020-08-29T04:09:08.160Z</time>
      </trkpt>
      <trkpt lat="63.27298" lon="18.69245">
        <ele>17.50767</ele>
        <time>2020-08-29T04:09:16.162Z</time>
      </trkpt>
      <trkpt lat="63.27277" lon="18.69219">
        <ele>16.367943</ele>
        <time>2020-08-29T04:09:19.237Z</time>
      </trkpt>
      <trkpt lat="63.2727" lon="18.69215">
        <ele>16.021776</ele>
        <time>2020-08-29T04:09:20.151Z</time>
      </trkpt>
      <trkpt lat="63.27263" lon="18.69199">
        <ele>15.561909</ele>
        <time>2020-08-29T04:09:21.377Z</time>
      </trkpt>
      <trkpt lat="63.2726" lon="18.69178">
        <ele>15.092373</ele>
        <time>2020-08-29T04:09:22.683Z</time>
      </trkpt>
      <trkpt lat="63.27259" lon="18.69173">
        <ele>14.957528</ele>
        <time>2020-08-29T04:09:23.014Z</time>
      </trkpt>
      <trkpt lat="63.27255" lon="18.69168">
        <ele>14.752238</ele>
        <time>2020-08-29T04:09:23.571Z</time>
      </trkpt>
      <trkpt lat="63.27247" lon="18.69159">
        <ele>14.323816</ele>
        <time>2020-08-29T04:09:24.699Z</time>
      </trkpt>
      <trkpt lat="63.27244" lon="18.69155">
        <ele>14.171996</ele>
        <time>2020-08-29T04:09:25.094Z</time>
      </trkpt>
      <trkpt lat="63.27231" lon="18.69162">
        <ele>13.526224</ele>
        <time>2020-08-29T04:09:26.855Z</time>
      </trkpt>
      <trkpt lat="63.27224" lon="18.69156">
        <ele>13.187788</ele>
        <time>2020-08-29T04:09:27.765Z</time>
      </trkpt>
      <trkpt lat="63.27207" lon="18.69138">
        <ele>12.359279</ele>
        <time>2020-08-29T04:09:30.185Z</time>
      </trkpt>
      <trkpt lat="63.27191" lon="18.6913">
        <ele>11.638736</ele>
        <time>2020-08-29T04:09:32.303Z</time>
      </trkpt>
      <trkpt lat="63.27123" lon="18.6909">
        <ele>8.567769</ele>
        <time>2020-08-29T04:09:41.196Z</time>
      </trkpt>
      <trkpt lat="63.27054" lon="18.69074">
        <ele>5.520393</ele>
        <time>2020-08-29T04:09:50.367Z</time>
      </trkpt>
      <trkpt lat="63.2698" lon="18.69071">
        <ele>4.641503</ele>
        <time>2020-08-29T04:10:00.999Z</time>
      </trkpt>
      <trkpt lat="63.26893" lon="18.69067">
        <ele>3.723658</ele>
        <time>2020-08-29T04:10:15.825Z</time>
      </trkpt>
      <trkpt lat="63.26856" lon="18.69065">
        <ele>3.991591</ele>
        <time>2020-08-29T04:10:23.626Z</time>
      </trkpt>
      <trkpt lat="63.26761" lon="18.69022">
        <ele>7.179812</ele>
        <time>2020-08-29T04:10:51.033Z</time>
      </trkpt>
      <trkpt lat="63.26752" lon="18.69017">
        <ele>7.473207</ele>
        <time>2020-08-29T04:10:53.889Z</time>
      </trkpt>
      <trkpt lat="63.26747" lon="18.69013">
        <ele>7.670911</ele>
        <time>2020-08-29T04:10:56.152Z</time>
      </trkpt>
      <trkpt lat="63.26741" lon="18.69009">
        <ele>7.875737</ele>
        <time>2020-08-29T04:10:58.587Z</time>
      </trkpt>
      <trkpt lat="63.26738" lon="18.69008">
        <ele>7.954028</ele>
        <time>2020-08-29T04:10:59.532Z</time>
      </trkpt>
      <trkpt lat="63.26734" lon="18.69017">
        <ele>8.148942</ele>
        <time>2020-08-29T04:11:01.454Z</time>
      </trkpt>
      <trkpt lat="63.26733" lon="18.69034">
        <ele>8.398702</ele>
        <time>2020-08-29T04:11:03.809Z</time>
      </trkpt>
      <trkpt lat="63.26731" lon="18.69043">
        <ele>8.549897</ele>
        <time>2020-08-29T04:11:05.289Z</time>
      </trkpt>
      <trkpt lat="63.26678" lon="18.69003">
        <ele>10.828403</ele>
        <time>2020-08-29T04:11:24.942Z</time>
      </trkpt>
      <trkpt lat="63.26624" lon="18.68963">
        <ele>13.501324</ele>
        <time>2020-08-29T04:11:44.112Z</time>
      </trkpt>
      <trkpt lat="63.26613" lon="18.68948">
        <ele>14.112662</ele>
        <time>2020-08-29T04:11:49.228Z</time>
      </trkpt>
      <trkpt lat="63.26542" lon="18.68863">
        <ele>17.893462</ele>
        <time>2020-08-29T04:12:15.777Z</time>
      </trkpt>
      <trkpt lat="63.26475" lon="18.68776">
        <ele>20.532709</ele>
        <time>2020-08-29T04:12:39.019Z</time>
      </trkpt>
      <trkpt lat="63.26423" lon="18.68708">
        <ele>22.606545</ele>
        <time>2020-08-29T04:12:55.943Z</time>
      </trkpt>
      <trkpt lat="63.26404" lon="18.68684">
        <ele>23.337349</ele>
        <time>2020-08-29T04:13:02.250Z</time>
      </trkpt>
      <trkpt lat="63.26401" lon="18.68665">
        <ele>23.652293</ele>
        <time>2020-08-29T04:13:04.890Z</time>
      </trkpt>
      <trkpt lat="63.26381" lon="18.68657">
        <ele>24.322909</ele>
        <time>2020-08-29T04:13:10.958Z</time>
      </trkpt>
      <trkpt lat="63.26358" lon="18.68652">
        <ele>25.070297</ele>
        <time>2020-08-29T04:13:17.299Z</time>
      </trkpt>
      <trkpt lat="63.26347" lon="18.6865">
        <ele>25.461686</ele>
        <time>2020-08-29T04:13:20.983Z</time>
      </trkpt>
      <trkpt lat="63.26337" lon="18.68648">
        <ele>25.79671</ele>
        <time>2020-08-29T04:13:23.658Z</time>
      </trkpt>
      <trkpt lat="63.26309" lon="18.68643">
        <ele>26.7154</ele>
        <time>2020-08-29T04:13:31.786Z</time>
      </trkpt>
      <trkpt lat="63.26263" lon="18.68632">
        <ele>28.228158</ele>
        <time>2020-08-29T04:13:45.228Z</time>
      </trkpt>
      <trkpt lat="63.26232" lon="18.68627">
        <ele>29.258172</ele>
        <time>2020-08-29T04:13:54.734Z</time>
      </trkpt>
      <trkpt lat="63.26111" lon="18.6861">
        <ele>32.633895</ele>
        <time>2020-08-29T04:14:29.370Z</time>
      </trkpt>
      <trkpt lat="63.261" lon="18.68609">
        <ele>32.915902</ele>
        <time>2020-08-29T04:14:32.181Z</time>
      </trkpt>
      <trkpt lat="63.26053" lon="18.68603">
        <ele>34.175714</ele>
        <time>2020-08-29T04:14:44.351Z</time>
      </trkpt>
      <trkpt lat="63.26035" lon="18.686">
        <ele>34.639033</ele>
        <time>2020-08-29T04:14:48.651Z</time>
      </trkpt>
      <trkpt lat="63.26019" lon="18.68598">
        <ele>34.906531</ele>
        <time>2020-08-29T04:14:52.806Z</time>
      </trkpt>
      <trkpt lat="63.2601" lon="18.68598">
        <ele>35.027805</ele>
        <time>2020-08-29T04:14:54.952Z</time>
      </trkpt>
      <trkpt lat="63.25937" lon="18.68586">
        <ele>36.027536</ele>
        <time>2020-08-29T04:15:12.130Z</time>
      </trkpt>
      <trkpt lat="63.25897" lon="18.6858">
        <ele>36.568365</ele>
        <time>2020-08-29T04:15:21.010Z</time>
      </trkpt>
      <trkpt lat="63.25855" lon="18.68575">
        <ele>37.146986</ele>
        <time>2020-08-29T04:15:30.331Z</time>
      </trkpt>
      <trkpt lat="63.25822" lon="18.68569">
        <ele>37.002955</ele>
        <time>2020-08-29T04:15:37.350Z</time>
      </trkpt>
      <trkpt lat="63.25771" lon="18.6856">
        <ele>36.719112</ele>
        <time>2020-08-29T04:15:47.197Z</time>
      </trkpt>
      <trkpt lat="63.25731" lon="18.68554">
        <ele>36.498649</ele>
        <time>2020-08-29T04:15:53.652Z</time>
      </trkpt>
      <trkpt lat="63.25662" lon="18.68544">
        <ele>35.853545</ele>
        <time>2020-08-29T04:16:04.256Z</time>
      </trkpt>
      <trkpt lat="63.25662" lon="18.68544">
        <ele>35.835915</ele>
        <time>2020-08-29T04:16:04.323Z</time>
      </trkpt>
      <trkpt lat="63.25637" lon="18.68541">
        <ele>35.122866</ele>
        <time>2020-08-29T04:16:07.878Z</time>
      </trkpt>
      <trkpt lat="63.25612" lon="18.68537">
        <ele>34.391633</ele>
        <time>2020-08-29T04:16:11.359Z</time>
      </trkpt>
      <trkpt lat="63.25543" lon="18.68504">
        <ele>32.320401</ele>
        <time>2020-08-29T04:16:21.059Z</time>
      </trkpt>
      <trkpt lat="63.25482" lon="18.68443">
        <ele>30.497365</ele>
        <time>2020-08-29T04:16:30.021Z</time>
      </trkpt>
      <trkpt lat="63.2545" lon="18.68385">
        <ele>29.59842</ele>
        <time>2020-08-29T04:16:35.671Z</time>
      </trkpt>
      <trkpt lat="63.25413" lon="18.68276">
        <ele>28.24876</ele>
        <time>2020-08-29T04:16:44.583Z</time>
      </trkpt>
      <trkpt lat="63.25399" lon="18.68216">
        <ele>27.587739</ele>
        <time>2020-08-29T04:16:49.203Z</time>
      </trkpt>
      <trkpt lat="63.25386" lon="18.6814">
        <ele>27.115743</ele>
        <time>2020-08-29T04:16:55.121Z</time>
      </trkpt>
      <trkpt lat="63.25351" lon="18.67915">
        <ele>28.68347</ele>
        <time>2020-08-29T04:17:18.028Z</time>
      </trkpt>
      <trkpt lat="63.25325" lon="18.67753">
        <ele>30.208105</ele>
        <time>2020-08-29T04:17:40.094Z</time>
      </trkpt>
      <trkpt lat="63.25301" lon="18.67628">
        <ele>32.960014</ele>
        <time>2020-08-29T04:17:59.819Z</time>
      </trkpt>
      <trkpt lat="63.25266" lon="18.67493">
        <ele>36.086631</ele>
        <time>2020-08-29T04:18:23.654Z</time>
      </trkpt>
      <trkpt lat="63.25234" lon="18.67389">
        <ele>38.79649</ele>
        <time>2020-08-29T04:18:43.689Z</time>
      </trkpt>
      <trkpt lat="63.25129" lon="18.67086">
        <ele>47.627049</ele>
        <time>2020-08-29T04:19:45.483Z</time>
      </trkpt>
      <trkpt lat="63.25116" lon="18.67013">
        <ele>48.843814</ele>
        <time>2020-08-29T04:19:57.649Z</time>
      </trkpt>
      <trkpt lat="63.25106" lon="18.66935">
        <ele>50.071241</ele>
        <time>2020-08-29T04:20:09.308Z</time>
      </trkpt>
      <trkpt lat="63.25104" lon="18.66849">
        <ele>51.395137</ele>
        <time>2020-08-29T04:20:21.198Z</time>
      </trkpt>
      <trkpt lat="63.25118" lon="18.66648">
        <ele>52.681598</ele>
        <time>2020-08-29T04:20:42.591Z</time>
      </trkpt>
      <trkpt lat="63.25116" lon="18.66527">
        <ele>51.76117</ele>
        <time>2020-08-29T04:20:51.153Z</time>
      </trkpt>
      <trkpt lat="63.25109" lon="18.66455">
        <ele>51.194169</ele>
        <time>2020-08-29T04:20:55.836Z</time>
      </trkpt>
      <trkpt lat="63.25097" lon="18.66395">
        <ele>50.695818</ele>
        <time>2020-08-29T04:20:59.802Z</time>
      </trkpt>
      <trkpt lat="63.25081" lon="18.66352">
        <ele>50.276507</ele>
        <time>2020-08-29T04:21:03.115Z</time>
      </trkpt>
      <trkpt lat="63.25037" lon="18.66288">
        <ele>48.042825</ele>
        <time>2020-08-29T04:21:10.044Z</time>
      </trkpt>
      <trkpt lat="63.24786" lon="18.66111">
        <ele>37.024919</ele>
        <time>2020-08-29T04:21:44.212Z</time>
      </trkpt>
      <trkpt lat="63.24759" lon="18.66103">
        <ele>35.895202</ele>
        <time>2020-08-29T04:21:47.965Z</time>
      </trkpt>
      <trkpt lat="63.24725" lon="18.6611">
        <ele>34.593483</ele>
        <time>2020-08-29T04:21:52.528Z</time>
      </trkpt>
      <trkpt lat="63.24632" lon="18.66177">
        <ele>30.998344</ele>
        <time>2020-08-29T04:22:05.934Z</time>
      </trkpt>
      <trkpt lat="63.24601" lon="18.66206">
        <ele>29.763428</ele>
        <time>2020-08-29T04:22:10.440Z</time>
      </trkpt>
      <trkpt lat="63.24554" lon="18.66268">
        <ele>27.62801</ele>
        <time>2020-08-29T04:22:17.606Z</time>
      </trkpt>
      <trkpt lat="63.24524" lon="18.66294">
        <ele>26.257298</ele>
        <time>2020-08-29T04:22:21.714Z</time>
      </trkpt>
      <trkpt lat="63.24497" lon="18.66288">
        <ele>25.091657</ele>
        <time>2020-08-29T04:22:25.201Z</time>
      </trkpt>
      <trkpt lat="63.24469" lon="18.66267">
        <ele>23.800365</ele>
        <time>2020-08-29T04:22:29.086Z</time>
      </trkpt>
      <trkpt lat="63.2445" lon="18.66239">
        <ele>22.819083</ele>
        <time>2020-08-29T04:22:32.122Z</time>
      </trkpt>
      <trkpt lat="63.24435" lon="18.66212">
        <ele>21.98392</ele>
        <time>2020-08-29T04:22:34.619Z</time>
      </trkpt>
      <trkpt lat="63.2441" lon="18.66166">
        <ele>20.63594</ele>
        <time>2020-08-29T04:22:38.784Z</time>
      </trkpt>
      <trkpt lat="63.24385" lon="18.66103">
        <ele>19.16848</ele>
        <time>2020-08-29T04:22:43.736Z</time>
      </trkpt>
      <trkpt lat="63.2436" lon="18.65968">
        <ele>16.61066</ele>
        <time>2020-08-29T04:22:52.509Z</time>
      </trkpt>
      <trkpt lat="63.24348" lon="18.65915">
        <ele>15.562633</ele>
        <time>2020-08-29T04:22:56.117Z</time>
      </trkpt>
      <trkpt lat="63.24328" lon="18.65855">
        <ele>14.267125</ele>
        <time>2020-08-29T04:23:00.630Z</time>
      </trkpt>
      <trkpt lat="63.24284" lon="18.65757">
        <ele>11.889359</ele>
        <time>2020-08-29T04:23:08.966Z</time>
      </trkpt>
      <trkpt lat="63.24257" lon="18.65729">
        <ele>10.764659</ele>
        <time>2020-08-29T04:23:12.853Z</time>
      </trkpt>
      <trkpt lat="63.24217" lon="18.65714">
        <ele>9.225161</ele>
        <time>2020-08-29T04:23:18.121Z</time>
      </trkpt>
      <trkpt lat="63.24144" lon="18.65715">
        <ele>6.760457</ele>
        <time>2020-08-29T04:23:27.874Z</time>
      </trkpt>
      <trkpt lat="63.2407" lon="18.65701">
        <ele>5.394804</ele>
        <time>2020-08-29T04:23:38.431Z</time>
      </trkpt>
      <trkpt lat="63.23914" lon="18.65618">
        <ele>3.880677</ele>
        <time>2020-08-29T04:24:05.504Z</time>
      </trkpt>
      <trkpt lat="63.23863" lon="18.65611">
        <ele>3.973788</ele>
        <time>2020-08-29T04:24:16.544Z</time>
      </trkpt>
      <trkpt lat="63.23797" lon="18.65633">
        <ele>4.056992</ele>
        <time>2020-08-29T04:24:30.272Z</time>
      </trkpt>
      <trkpt lat="63.23764" lon="18.65661">
        <ele>3.952813</ele>
        <time>2020-08-29T04:24:37.295Z</time>
      </trkpt>
      <trkpt lat="63.23728" lon="18.65712">
        <ele>3.824889</ele>
        <time>2020-08-29T04:24:45.591Z</time>
      </trkpt>
      <trkpt lat="63.23613" lon="18.65943">
        <ele>2.995845</ele>
        <time>2020-08-29T04:25:10.976Z</time>
      </trkpt>
      <trkpt lat="63.23592" lon="18.65976">
        <ele>2.760968</ele>
        <time>2020-08-29T04:25:15.032Z</time>
      </trkpt>
      <trkpt lat="63.23553" lon="18.66001">
        <ele>2.398037</ele>
        <time>2020-08-29T04:25:21.436Z</time>
      </trkpt>
      <trkpt lat="63.23515" lon="18.65992">
        <ele>2.052866</ele>
        <time>2020-08-29T04:25:27.724Z</time>
      </trkpt>
      <trkpt lat="63.23494" lon="18.6597">
        <ele>1.980568</ele>
        <time>2020-08-29T04:25:31.741Z</time>
      </trkpt>
      <trkpt lat="63.23457" lon="18.65902">
        <ele>2.248696</ele>
        <time>2020-08-29T04:25:40.271Z</time>
      </trkpt>
      <trkpt lat="63.2342" lon="18.6577">
        <ele>2.642806</ele>
        <time>2020-08-29T04:25:54.433Z</time>
      </trkpt>
      <trkpt lat="63.23322" lon="18.65509">
        <ele>5.264055</ele>
        <time>2020-08-29T04:26:31.341Z</time>
      </trkpt>
      <trkpt lat="63.233" lon="18.65422">
        <ele>6.31761</ele>
        <time>2020-08-29T04:26:43.696Z</time>
      </trkpt>
      <trkpt lat="63.23246" lon="18.6515">
        <ele>10.798535</ele>
        <time>2020-08-29T04:27:23.835Z</time>
      </trkpt>
      <trkpt lat="63.23242" lon="18.65115">
        <ele>11.390154</ele>
        <time>2020-08-29T04:27:29.484Z</time>
      </trkpt>
      <trkpt lat="63.23236" lon="18.65066">
        <ele>12.231317</ele>
        <time>2020-08-29T04:27:36.117Z</time>
      </trkpt>
      <trkpt lat="63.23235" lon="18.6501">
        <ele>13.178966</ele>
        <time>2020-08-29T04:27:44.043Z</time>
      </trkpt>
      <trkpt lat="63.23239" lon="18.64961">
        <ele>13.95117</ele>
        <time>2020-08-29T04:27:51.683Z</time>
      </trkpt>
      <trkpt lat="63.23308" lon="18.64649">
        <ele>18.334055</ele>
        <time>2020-08-29T04:28:35.971Z</time>
      </trkpt>
      <trkpt lat="63.23356" lon="18.64462">
        <ele>19.237068</ele>
        <time>2020-08-29T04:28:56.472Z</time>
      </trkpt>
      <trkpt lat="63.23429" lon="18.64263">
        <ele>19.754155</ele>
        <time>2020-08-29T04:29:17.864Z</time>
      </trkpt>
      <trkpt lat="63.23489" lon="18.64137">
        <ele>19.709195</ele>
        <time>2020-08-29T04:29:32.730Z</time>
      </trkpt>
      <trkpt lat="63.23506" lon="18.6409">
        <ele>19.69413</ele>
        <time>2020-08-29T04:29:37.800Z</time>
      </trkpt>
      <trkpt lat="63.23517" lon="18.64038">
        <ele>19.680016</ele>
        <time>2020-08-29T04:29:42.648Z</time>
      </trkpt>
      <trkpt lat="63.23528" lon="18.63891">
        <ele>19.753824</ele>
        <time>2020-08-29T04:29:55.426Z</time>
      </trkpt>
      <trkpt lat="63.23522" lon="18.63698">
        <ele>19.955978</ele>
        <time>2020-08-29T04:30:12.197Z</time>
      </trkpt>
      <trkpt lat="63.23501" lon="18.63363">
        <ele>20.761743</ele>
        <time>2020-08-29T04:30:42.087Z</time>
      </trkpt>
      <trkpt lat="63.23498" lon="18.63205">
        <ele>21.257637</ele>
        <time>2020-08-29T04:30:57.711Z</time>
      </trkpt>
      <trkpt lat="63.23497" lon="18.63178">
        <ele>21.352073</ele>
        <time>2020-08-29T04:31:00.575Z</time>
      </trkpt>
      <trkpt lat="63.23499" lon="18.63122">
        <ele>21.704213</ele>
        <time>2020-08-29T04:31:06.193Z</time>
      </trkpt>
      <trkpt lat="63.23506" lon="18.63035">
        <ele>22.263076</ele>
        <time>2020-08-29T04:31:15.495Z</time>
      </trkpt>
      <trkpt lat="63.23506" lon="18.63025">
        <ele>22.327099</ele>
        <time>2020-08-29T04:31:16.784Z</time>
      </trkpt>
      <trkpt lat="63.23531" lon="18.62529">
        <ele>24.752377</ele>
        <time>2020-08-29T04:32:08.856Z</time>
      </trkpt>
      <trkpt lat="63.23579" lon="18.61552">
        <ele>24.331778</ele>
        <time>2020-08-29T04:33:26.890Z</time>
      </trkpt>
      <trkpt lat="63.23585" lon="18.61426">
        <ele>24.836593</ele>
        <time>2020-08-29T04:33:38.176Z</time>
      </trkpt>
      <trkpt lat="63.23617" lon="18.60806">
        <ele>28.434354</ele>
        <time>2020-08-29T04:34:43.712Z</time>
      </trkpt>
      <trkpt lat="63.23619" lon="18.60659">
        <ele>29.368523</ele>
        <time>2020-08-29T04:34:59.481Z</time>
      </trkpt>
      <trkpt lat="63.23614" lon="18.60596">
        <ele>29.778439</ele>
        <time>2020-08-29T04:35:06.331Z</time>
      </trkpt>
      <trkpt lat="63.23567" lon="18.60283">
        <ele>31.59322</ele>
        <time>2020-08-29T04:35:40.134Z</time>
      </trkpt>
      <trkpt lat="63.23533" lon="18.60074">
        <ele>32.550009</ele>
        <time>2020-08-29T04:36:01.553Z</time>
      </trkpt>
      <trkpt lat="63.23521" lon="18.60027">
        <ele>32.741295</ele>
        <time>2020-08-29T04:36:06.594Z</time>
      </trkpt>
      <trkpt lat="63.23509" lon="18.59992">
        <ele>32.787085</ele>
        <time>2020-08-29T04:36:10.458Z</time>
      </trkpt>
      <trkpt lat="63.23492" lon="18.59964">
        <ele>32.836881</ele>
        <time>2020-08-29T04:36:14.676Z</time>
      </trkpt>
      <trkpt lat="63.2335" lon="18.59786">
        <ele>33.194302</ele>
        <time>2020-08-29T04:36:45.611Z</time>
      </trkpt>
      <trkpt lat="63.23329" lon="18.5975">
        <ele>33.232251</ele>
        <time>2020-08-29T04:36:50.475Z</time>
      </trkpt>
      <trkpt lat="63.23313" lon="18.59699">
        <ele>33.272891</ele>
        <time>2020-08-29T04:36:55.721Z</time>
      </trkpt>
      <trkpt lat="63.23305" lon="18.59636">
        <ele>33.315098</ele>
        <time>2020-08-29T04:37:01.281Z</time>
      </trkpt>
      <trkpt lat="63.23307" lon="18.59572">
        <ele>33.356627</ele>
        <time>2020-08-29T04:37:06.802Z</time>
      </trkpt>
      <trkpt lat="63.2333" lon="18.59393">
        <ele>33.506198</ele>
        <time>2020-08-29T04:37:23.116Z</time>
      </trkpt>
      <trkpt lat="63.23339" lon="18.59284">
        <ele>33.608502</ele>
        <time>2020-08-29T04:37:32.853Z</time>
      </trkpt>
      <trkpt lat="63.23349" lon="18.58357">
        <ele>34.072266</ele>
        <time>2020-08-29T04:38:52.023Z</time>
      </trkpt>
      <trkpt lat="63.2335" lon="18.58196">
        <ele>34.21646</ele>
        <time>2020-08-29T04:39:05.448Z</time>
      </trkpt>
      <trkpt lat="63.2335" lon="18.58148">
        <ele>34.274222</ele>
        <time>2020-08-29T04:39:09.487Z</time>
      </trkpt>
      <trkpt lat="63.23344" lon="18.58062">
        <ele>34.377569</ele>
        <time>2020-08-29T04:39:16.935Z</time>
      </trkpt>
      <trkpt lat="63.23329" lon="18.57831">
        <ele>34.75932</ele>
        <time>2020-08-29T04:39:38.094Z</time>
      </trkpt>
      <trkpt lat="63.23328" lon="18.57807">
        <ele>34.821945</ele>
        <time>2020-08-29T04:39:40.448Z</time>
      </trkpt>
      <trkpt lat="63.23304" lon="18.57468">
        <ele>35.639293</ele>
        <time>2020-08-29T04:40:12.433Z</time>
      </trkpt>
      <trkpt lat="63.2328" lon="18.5711">
        <ele>35.927446</ele>
        <time>2020-08-29T04:40:43.448Z</time>
      </trkpt>
      <trkpt lat="63.23239" lon="18.56542">
        <ele>35.344784</ele>
        <time>2020-08-29T04:41:30.072Z</time>
      </trkpt>
      <trkpt lat="63.23215" lon="18.56446">
        <ele>35.15534</ele>
        <time>2020-08-29T04:41:38.616Z</time>
      </trkpt>
      <trkpt lat="63.23191" lon="18.56392">
        <ele>35.02195</ele>
        <time>2020-08-29T04:41:44.559Z</time>
      </trkpt>
      <trkpt lat="63.23184" lon="18.5638">
        <ele>34.988432</ele>
        <time>2020-08-29T04:41:45.992Z</time>
      </trkpt>
      <trkpt lat="63.2301" lon="18.56072">
        <ele>33.707791</ele>
        <time>2020-08-29T04:42:23.663Z</time>
      </trkpt>
      <trkpt lat="63.22924" lon="18.55919">
        <ele>33.277222</ele>
        <time>2020-08-29T04:42:43.180Z</time>
      </trkpt>
      <trkpt lat="63.22895" lon="18.55864">
        <ele>33.161643</ele>
        <time>2020-08-29T04:42:49.891Z</time>
      </trkpt>
      <trkpt lat="63.22857" lon="18.55801">
        <ele>33.303172</ele>
        <time>2020-08-29T04:42:58.404Z</time>
      </trkpt>
      <trkpt lat="63.22812" lon="18.55738">
        <ele>33.46357</ele>
        <time>2020-08-29T04:43:08.457Z</time>
      </trkpt>
      <trkpt lat="63.22741" lon="18.55659">
        <ele>33.804348</ele>
        <time>2020-08-29T04:43:24.672Z</time>
      </trkpt>
      <trkpt lat="63.22677" lon="18.55611">
        <ele>35.517675</ele>
        <time>2020-08-29T04:43:40.331Z</time>
      </trkpt>
      <trkpt lat="63.226" lon="18.55579">
        <ele>37.520516</ele>
        <time>2020-08-29T04:44:02.156Z</time>
      </trkpt>
      <trkpt lat="63.22505" lon="18.55571">
        <ele>41.588383</ele>
        <time>2020-08-29T04:44:33.614Z</time>
      </trkpt>
      <trkpt lat="63.22281" lon="18.55554">
        <ele>52.399946</ele>
        <time>2020-08-29T04:45:55.305Z</time>
      </trkpt>
      <trkpt lat="63.2225" lon="18.5555">
        <ele>53.78162</ele>
        <time>2020-08-29T04:46:04.812Z</time>
      </trkpt>
      <trkpt lat="63.22129" lon="18.55532">
        <ele>56.779556</ele>
        <time>2020-08-29T04:46:36.906Z</time>
      </trkpt>
      <trkpt lat="63.22095" lon="18.55526">
        <ele>57.292971</ele>
        <time>2020-08-29T04:46:44.202Z</time>
      </trkpt>
      <trkpt lat="63.22036" lon="18.55532">
        <ele>58.190449</ele>
        <time>2020-08-29T04:46:56.518Z</time>
      </trkpt>
      <trkpt lat="63.21426" lon="18.55724">
        <ele>58.12925</ele>
        <time>2020-08-29T04:48:50.482Z</time>
      </trkpt>
      <trkpt lat="63.21379" lon="18.55724">
        <ele>58.012511</ele>
        <time>2020-08-29T04:48:58.781Z</time>
      </trkpt>
      <trkpt lat="63.21355" lon="18.55705">
        <ele>57.95109</ele>
        <time>2020-08-29T04:49:03.140Z</time>
      </trkpt>
      <trkpt lat="63.21184" lon="18.55456">
        <ele>57.483763</ele>
        <time>2020-08-29T04:49:38.926Z</time>
      </trkpt>
      <trkpt lat="63.2104" lon="18.5524">
        <ele>59.036374</ele>
        <time>2020-08-29T04:50:15.078Z</time>
      </trkpt>
      <trkpt lat="63.20962" lon="18.55108">
        <ele>62.136639</ele>
        <time>2020-08-29T04:50:42.396Z</time>
      </trkpt>
      <trkpt lat="63.20927" lon="18.54986">
        <ele>64.484081</ele>
        <time>2020-08-29T04:51:03.661Z</time>
      </trkpt>
      <trkpt lat="63.20873" lon="18.54673">
        <ele>70.423861</ele>
        <time>2020-08-29T04:51:54.522Z</time>
      </trkpt>
      <trkpt lat="63.2086" lon="18.54628">
        <ele>71.386276</ele>
        <time>2020-08-29T04:52:01.888Z</time>
      </trkpt>
      <trkpt lat="63.20835" lon="18.54571">
        <ele>72.828476</ele>
        <time>2020-08-29T04:52:12.208Z</time>
      </trkpt>
      <trkpt lat="63.20763" lon="18.54429">
        <ele>73.650819</ele>
        <time>2020-08-29T04:52:35.827Z</time>
      </trkpt>
      <trkpt lat="63.20661" lon="18.54236">
        <ele>73.06082</ele>
        <time>2020-08-29T04:52:58.377Z</time>
      </trkpt>
      <trkpt lat="63.20596" lon="18.54102">
        <ele>70.754736</ele>
        <time>2020-08-29T04:53:10.787Z</time>
      </trkpt>
      <trkpt lat="63.20525" lon="18.53967">
        <ele>67.149626</ele>
        <time>2020-08-29T04:53:22.997Z</time>
      </trkpt>
      <trkpt lat="63.20457" lon="18.53847">
        <ele>62.874808</ele>
        <time>2020-08-29T04:53:34.001Z</time>
      </trkpt>
      <trkpt lat="63.20322" lon="18.53641">
        <ele>54.096026</ele>
        <time>2020-08-29T04:53:54.642Z</time>
      </trkpt>
      <trkpt lat="63.20282" lon="18.53528">
        <ele>50.53277</ele>
        <time>2020-08-29T04:54:02.703Z</time>
      </trkpt>
      <trkpt lat="63.20225" lon="18.53192">
        <ele>41.117292</ele>
        <time>2020-08-29T04:54:22.749Z</time>
      </trkpt>
      <trkpt lat="63.20186" lon="18.52795">
        <ele>29.868544</ele>
        <time>2020-08-29T04:54:45.345Z</time>
      </trkpt>
      <trkpt lat="63.20144" lon="18.52569">
        <ele>22.919265</ele>
        <time>2020-08-29T04:54:58.729Z</time>
      </trkpt>
      <trkpt lat="63.20138" lon="18.52499">
        <ele>20.882878</ele>
        <time>2020-08-29T04:55:02.700Z</time>
      </trkpt>
      <trkpt lat="63.20133" lon="18.52478">
        <ele>20.228072</ele>
        <time>2020-08-29T04:55:03.916Z</time>
      </trkpt>
      <trkpt lat="63.2013" lon="18.52411">
        <ele>18.289289</ele>
        <time>2020-08-29T04:55:07.746Z</time>
      </trkpt>
      <trkpt lat="63.20142" lon="18.5231">
        <ele>16.265746</ele>
        <time>2020-08-29T04:55:13.609Z</time>
      </trkpt>
      <trkpt lat="63.20181" lon="18.52154">
        <ele>12.955704</ele>
        <time>2020-08-29T04:55:24.055Z</time>
      </trkpt>
      <trkpt lat="63.20195" lon="18.52093">
        <ele>11.698044</ele>
        <time>2020-08-29T04:55:28.413Z</time>
      </trkpt>
      <trkpt lat="63.20247" lon="18.51882">
        <ele>9.530481</ele>
        <time>2020-08-29T04:55:44.544Z</time>
      </trkpt>
      <trkpt lat="63.20282" lon="18.51735">
        <ele>8.530925</ele>
        <time>2020-08-29T04:55:56.940Z</time>
      </trkpt>
      <trkpt lat="63.20318" lon="18.51578">
        <ele>8.049747</ele>
        <time>2020-08-29T04:56:10.571Z</time>
      </trkpt>
      <trkpt lat="63.20362" lon="18.51397">
        <ele>7.755366</ele>
        <time>2020-08-29T04:56:27.058Z</time>
      </trkpt>
      <trkpt lat="63.20464" lon="18.51186">
        <ele>7.822394</ele>
        <time>2020-08-29T04:56:53.320Z</time>
      </trkpt>
      <trkpt lat="63.20492" lon="18.51142">
        <ele>7.873117</ele>
        <time>2020-08-29T04:56:59.908Z</time>
      </trkpt>
      <trkpt lat="63.20537" lon="18.51077">
        <ele>8.135497</ele>
        <time>2020-08-29T04:57:10.138Z</time>
      </trkpt>
      <trkpt lat="63.20561" lon="18.51044">
        <ele>8.466207</ele>
        <time>2020-08-29T04:57:15.818Z</time>
      </trkpt>
      <trkpt lat="63.20617" lon="18.5098">
        <ele>9.212029</ele>
        <time>2020-08-29T04:57:29.892Z</time>
      </trkpt>
      <trkpt lat="63.2062" lon="18.50978">
        <ele>9.24844</ele>
        <time>2020-08-29T04:57:30.576Z</time>
      </trkpt>
      <trkpt lat="63.20617" lon="18.50962">
        <ele>9.341471</ele>
        <time>2020-08-29T04:57:32.344Z</time>
      </trkpt>
      <trkpt lat="63.20597" lon="18.50873">
        <ele>9.867683</ele>
        <time>2020-08-29T04:57:43.022Z</time>
      </trkpt>
      <trkpt lat="63.20588" lon="18.5084">
        <ele>10.088129</ele>
        <time>2020-08-29T04:57:47.121Z</time>
      </trkpt>
      <trkpt lat="63.20571" lon="18.50783">
        <ele>10.660379</ele>
        <time>2020-08-29T04:57:54.612Z</time>
      </trkpt>
      <trkpt lat="63.20527" lon="18.5067">
        <ele>11.923401</ele>
        <time>2020-08-29T04:58:11.028Z</time>
      </trkpt>
      <trkpt lat="63.20506" lon="18.50634">
        <ele>12.416916</ele>
        <time>2020-08-29T04:58:17.635Z</time>
      </trkpt>
      <trkpt lat="63.20477" lon="18.50592">
        <ele>13.065345</ele>
        <time>2020-08-29T04:58:26.035Z</time>
      </trkpt>
      <trkpt lat="63.20442" lon="18.50553">
        <ele>13.560648</ele>
        <time>2020-08-29T04:58:34.819Z</time>
      </trkpt>
      <trkpt lat="63.20389" lon="18.50491">
        <ele>13.9869</ele>
        <time>2020-08-29T04:58:47.158Z</time>
      </trkpt>
      <trkpt lat="63.20367" lon="18.50465">
        <ele>14.171205</ele>
        <time>2020-08-29T04:58:52.162Z</time>
      </trkpt>
      <trkpt lat="63.20322" lon="18.50414">
        <ele>14.531217</ele>
        <time>2020-08-29T04:59:01.314Z</time>
      </trkpt>
      <trkpt lat="63.20265" lon="18.50348">
        <ele>14.882064</ele>
        <time>2020-08-29T04:59:13.359Z</time>
      </trkpt>
      <trkpt lat="63.20181" lon="18.50246">
        <ele>15.313411</ele>
        <time>2020-08-29T04:59:32.099Z</time>
      </trkpt>
      <trkpt lat="63.20093" lon="18.50139">
        <ele>15.635863</ele>
        <time>2020-08-29T04:59:51.566Z</time>
      </trkpt>
      <trkpt lat="63.20026" lon="18.50058">
        <ele>15.808668</ele>
        <time>2020-08-29T05:00:05.935Z</time>
      </trkpt>
      <trkpt lat="63.19985" lon="18.50011">
        <ele>15.912176</ele>
        <time>2020-08-29T05:00:14.165Z</time>
      </trkpt>
      <trkpt lat="63.19874" lon="18.49882">
        <ele>15.491342</ele>
        <time>2020-08-29T05:00:35.313Z</time>
      </trkpt>
      <trkpt lat="63.19855" lon="18.49861">
        <ele>15.420946</ele>
        <time>2020-08-29T05:00:38.747Z</time>
      </trkpt>
      <trkpt lat="63.19756" lon="18.4975">
        <ele>14.96946</ele>
        <time>2020-08-29T05:00:57.045Z</time>
      </trkpt>
      <trkpt lat="63.19587" lon="18.49561">
        <ele>14.453387</ele>
        <time>2020-08-29T05:01:28.785Z</time>
      </trkpt>
      <trkpt lat="63.1957" lon="18.49541">
        <ele>14.438076</ele>
        <time>2020-08-29T05:01:32.321Z</time>
      </trkpt>
      <trkpt lat="63.19502" lon="18.4947">
        <ele>14.391697</ele>
        <time>2020-08-29T05:01:45.937Z</time>
      </trkpt>
      <trkpt lat="63.19399" lon="18.49346">
        <ele>15.230727</ele>
        <time>2020-08-29T05:02:08.885Z</time>
      </trkpt>
      <trkpt lat="63.19319" lon="18.49228">
        <ele>16.504348</ele>
        <time>2020-08-29T05:02:29.236Z</time>
      </trkpt>
      <trkpt lat="63.19215" lon="18.49026">
        <ele>19.828931</ele>
        <time>2020-08-29T05:03:04.833Z</time>
      </trkpt>
      <trkpt lat="63.19188" lon="18.48978">
        <ele>21.271312</ele>
        <time>2020-08-29T05:03:15.239Z</time>
      </trkpt>
      <trkpt lat="63.19023" lon="18.4866">
        <ele>31.127692</ele>
        <time>2020-08-29T05:04:31.176Z</time>
      </trkpt>
      <trkpt lat="63.18965" lon="18.48548">
        <ele>34.348557</ele>
        <time>2020-08-29T05:04:55.597Z</time>
      </trkpt>
      <trkpt lat="63.18881" lon="18.48387">
        <ele>38.13594</ele>
        <time>2020-08-29T05:05:27.236Z</time>
      </trkpt>
      <trkpt lat="63.18871" lon="18.48368">
        <ele>38.537475</ele>
        <time>2020-08-29T05:05:31.014Z</time>
      </trkpt>
      <trkpt lat="63.18831" lon="18.48285">
        <ele>40.206513</ele>
        <time>2020-08-29T05:05:45.907Z</time>
      </trkpt>
      <trkpt lat="63.18796" lon="18.48194">
        <ele>41.840841</ele>
        <time>2020-08-29T05:06:01.045Z</time>
      </trkpt>
      <trkpt lat="63.18769" lon="18.48102">
        <ele>43.369587</ele>
        <time>2020-08-29T05:06:15.150Z</time>
      </trkpt>
      <trkpt lat="63.18745" lon="18.48002">
        <ele>44.93234</ele>
        <time>2020-08-29T05:06:29.590Z</time>
      </trkpt>
      <trkpt lat="63.18728" lon="18.47899">
        <ele>46.462362</ele>
        <time>2020-08-29T05:06:43.950Z</time>
      </trkpt>
      <trkpt lat="63.18659" lon="18.47441">
        <ele>53.91781</ele>
        <time>2020-08-29T05:07:47.815Z</time>
      </trkpt>
      <trkpt lat="63.18634" lon="18.47333">
        <ele>56.097659</ele>
        <time>2020-08-29T05:08:04.586Z</time>
      </trkpt>
      <trkpt lat="63.18606" lon="18.47248">
        <ele>57.974424</ele>
        <time>2020-08-29T05:08:19.466Z</time>
      </trkpt>
      <trkpt lat="63.18553" lon="18.47125">
        <ele>61.18464</ele>
        <time>2020-08-29T05:08:44.504Z</time>
      </trkpt>
      <trkpt lat="63.18468" lon="18.46992">
        <ele>65.978554</ele>
        <time>2020-08-29T05:09:19.350Z</time>
      </trkpt>
      <trkpt lat="63.18403" lon="18.46928">
        <ele>69.318823</ele>
        <time>2020-08-29T05:09:43.427Z</time>
      </trkpt>
      <trkpt lat="63.18334" lon="18.46886">
        <ele>72.845609</ele>
        <time>2020-08-29T05:10:07.773Z</time>
      </trkpt>
      <trkpt lat="63.18201" lon="18.46866">
        <ele>79.784684</ele>
        <time>2020-08-29T05:10:53.553Z</time>
      </trkpt>
      <trkpt lat="63.18143" lon="18.46844">
        <ele>83.31056</ele>
        <time>2020-08-29T05:11:16.391Z</time>
      </trkpt>
      <trkpt lat="63.18117" lon="18.46827">
        <ele>84.909453</ele>
        <time>2020-08-29T05:11:27.173Z</time>
      </trkpt>
      <trkpt lat="63.18059" lon="18.46758">
        <ele>88.542264</ele>
        <time>2020-08-29T05:11:52.465Z</time>
      </trkpt>
      <trkpt lat="63.18026" lon="18.467">
        <ele>90.408845</ele>
        <time>2020-08-29T05:12:08.349Z</time>
      </trkpt>
      <trkpt lat="63.18008" lon="18.46654">
        <ele>91.65194</ele>
        <time>2020-08-29T05:12:18.524Z</time>
      </trkpt>
      <trkpt lat="63.17869" lon="18.46146">
        <ele>99.986358</ele>
        <time>2020-08-29T05:13:34.456Z</time>
      </trkpt>
      <trkpt lat="63.17853" lon="18.46061">
        <ele>99.225316</ele>
        <time>2020-08-29T05:13:41.654Z</time>
      </trkpt>
      <trkpt lat="63.17813" lon="18.45728">
        <ele>95.013189</ele>
        <time>2020-08-29T05:14:02.618Z</time>
      </trkpt>
      <trkpt lat="63.17793" lon="18.45559">
        <ele>91.334551</ele>
        <time>2020-08-29T05:14:12.633Z</time>
      </trkpt>
      <trkpt lat="63.17792" lon="18.45549">
        <ele>91.106638</ele>
        <time>2020-08-29T05:14:13.194Z</time>
      </trkpt>
      <trkpt lat="63.17784" lon="18.45461">
        <ele>89.219751</ele>
        <time>2020-08-29T05:14:18.345Z</time>
      </trkpt>
      <trkpt lat="63.17782" lon="18.45316">
        <ele>86.607985</ele>
        <time>2020-08-29T05:14:26.839Z</time>
      </trkpt>
      <trkpt lat="63.17787" lon="18.45192">
        <ele>85.193793</ele>
        <time>2020-08-29T05:14:34.545Z</time>
      </trkpt>
      <trkpt lat="63.17796" lon="18.4505">
        <ele>83.557361</ele>
        <time>2020-08-29T05:14:44.304Z</time>
      </trkpt>
      <trkpt lat="63.17811" lon="18.44905">
        <ele>82.143583</ele>
        <time>2020-08-29T05:14:54.681Z</time>
      </trkpt>
      <trkpt lat="63.17813" lon="18.44838">
        <ele>81.664554</ele>
        <time>2020-08-29T05:14:59.665Z</time>
      </trkpt>
      <trkpt lat="63.17805" lon="18.4467">
        <ele>80.468465</ele>
        <time>2020-08-29T05:15:11.778Z</time>
      </trkpt>
      <trkpt lat="63.17774" lon="18.44531">
        <ele>78.753596</ele>
        <time>2020-08-29T05:15:22.188Z</time>
      </trkpt>
      <trkpt lat="63.17708" lon="18.4429">
        <ele>73.583873</ele>
        <time>2020-08-29T05:15:39.008Z</time>
      </trkpt>
      <trkpt lat="63.17667" lon="18.4414">
        <ele>69.556439</ele>
        <time>2020-08-29T05:15:48.718Z</time>
      </trkpt>
      <trkpt lat="63.17636" lon="18.4403">
        <ele>66.245213</ele>
        <time>2020-08-29T05:15:55.932Z</time>
      </trkpt>
      <trkpt lat="63.17624" lon="18.4399">
        <ele>65.016979</ele>
        <time>2020-08-29T05:15:58.568Z</time>
      </trkpt>
      <trkpt lat="63.17635" lon="18.43978">
        <ele>64.31209</ele>
        <time>2020-08-29T05:16:00.079Z</time>
      </trkpt>
      <trkpt lat="63.17644" lon="18.43961">
        <ele>63.649711</ele>
        <time>2020-08-29T05:16:01.459Z</time>
      </trkpt>
      <trkpt lat="63.17648" lon="18.43945">
        <ele>63.181826</ele>
        <time>2020-08-29T05:16:02.488Z</time>
      </trkpt>
      <trkpt lat="63.17599" lon="18.43858">
        <ele>61.38377</ele>
        <time>2020-08-29T05:16:10.299Z</time>
      </trkpt>
      <trkpt lat="63.17573" lon="18.43818">
        <ele>60.761295</ele>
        <time>2020-08-29T05:16:14.530Z</time>
      </trkpt>
      <trkpt lat="63.17525" lon="18.43749">
        <ele>59.653902</ele>
        <time>2020-08-29T05:16:23.155Z</time>
      </trkpt>
      <trkpt lat="63.17483" lon="18.43692">
        <ele>58.894074</ele>
        <time>2020-08-29T05:16:31.969Z</time>
      </trkpt>
      <trkpt lat="63.17381" lon="18.43581">
        <ele>61.019088</ele>
        <time>2020-08-29T05:16:58.626Z</time>
      </trkpt>
      <trkpt lat="63.17134" lon="18.43379">
        <ele>67.818905</ele>
        <time>2020-08-29T05:18:10.852Z</time>
      </trkpt>
      <trkpt lat="63.17102" lon="18.43342">
        <ele>68.399625</ele>
        <time>2020-08-29T05:18:20.447Z</time>
      </trkpt>
      <trkpt lat="63.17042" lon="18.43237">
        <ele>69.621793</ele>
        <time>2020-08-29T05:18:38.184Z</time>
      </trkpt>
      <trkpt lat="63.17015" lon="18.43165">
        <ele>70.296096</ele>
        <time>2020-08-29T05:18:46.549Z</time>
      </trkpt>
      <trkpt lat="63.16982" lon="18.43073">
        <ele>69.398621</ele>
        <time>2020-08-29T05:18:55.053Z</time>
      </trkpt>
      <trkpt lat="63.16935" lon="18.42934">
        <ele>67.967386</ele>
        <time>2020-08-29T05:19:06.052Z</time>
      </trkpt>
      <trkpt lat="63.16877" lon="18.42765">
        <ele>66.390635</ele>
        <time>2020-08-29T05:19:18.528Z</time>
      </trkpt>
      <trkpt lat="63.1685" lon="18.42687">
        <ele>65.739693</ele>
        <time>2020-08-29T05:19:24.513Z</time>
      </trkpt>
      <trkpt lat="63.16825" lon="18.42625">
        <ele>65.192442</ele>
        <time>2020-08-29T05:19:30.086Z</time>
      </trkpt>
      <trkpt lat="63.1677" lon="18.42522">
        <ele>64.914477</ele>
        <time>2020-08-29T05:19:44.396Z</time>
      </trkpt>
      <trkpt lat="63.1675" lon="18.42492">
        <ele>65.536371</ele>
        <time>2020-08-29T05:19:49.857Z</time>
      </trkpt>
      <trkpt lat="63.16754" lon="18.42479">
        <ele>65.720397</ele>
        <time>2020-08-29T05:19:52.138Z</time>
      </trkpt>
      <trkpt lat="63.16763" lon="18.42438">
        <ele>66.235452</ele>
        <time>2020-08-29T05:19:57.044Z</time>
      </trkpt>
      <trkpt lat="63.16767" lon="18.42406">
        <ele>66.624138</ele>
        <time>2020-08-29T05:20:01.620Z</time>
      </trkpt>
      <trkpt lat="63.16769" lon="18.42375">
        <ele>66.974847</ele>
        <time>2020-08-29T05:20:05.246Z</time>
      </trkpt>
      <trkpt lat="63.16769" lon="18.42331">
        <ele>67.481117</ele>
        <time>2020-08-29T05:20:11.020Z</time>
      </trkpt>
      <trkpt lat="63.16765" lon="18.42299">
        <ele>67.86626</ele>
        <time>2020-08-29T05:20:15.347Z</time>
      </trkpt>
      <trkpt lat="63.16747" lon="18.42235">
        <ele>68.727578</ele>
        <time>2020-08-29T05:20:25.239Z</time>
      </trkpt>
      <trkpt lat="63.16725" lon="18.422">
        <ele>69.281424</ele>
        <time>2020-08-29T05:20:33.315Z</time>
      </trkpt>
      <trkpt lat="63.16656" lon="18.42138">
        <ele>70.582272</ele>
        <time>2020-08-29T05:20:53.416Z</time>
      </trkpt>
      <trkpt lat="63.16564" lon="18.4208">
        <ele>72.120661</ele>
        <time>2020-08-29T05:21:12.023Z</time>
      </trkpt>
      <trkpt lat="63.16381" lon="18.41985">
        <ele>72.169995</ele>
        <time>2020-08-29T05:21:44.544Z</time>
      </trkpt>
      <trkpt lat="63.16353" lon="18.4198">
        <ele>72.342986</ele>
        <time>2020-08-29T05:21:49.802Z</time>
      </trkpt>
      <trkpt lat="63.16351" lon="18.41911">
        <ele>72.537989</ele>
        <time>2020-08-29T05:21:56.566Z</time>
      </trkpt>
      <trkpt lat="63.1632" lon="18.41565">
        <ele>72.627419</ele>
        <time>2020-08-29T05:22:30.465Z</time>
      </trkpt>
      <trkpt lat="63.16316" lon="18.41446">
        <ele>72.053095</ele>
        <time>2020-08-29T05:22:39.431Z</time>
      </trkpt>
      <trkpt lat="63.16318" lon="18.41042">
        <ele>68.121354</ele>
        <time>2020-08-29T05:23:05.266Z</time>
      </trkpt>
      <trkpt lat="63.16349" lon="18.40619">
        <ele>62.700555</ele>
        <time>2020-08-29T05:23:31.741Z</time>
      </trkpt>
      <trkpt lat="63.16328" lon="18.40262">
        <ele>59.599923</ele>
        <time>2020-08-29T05:23:56.171Z</time>
      </trkpt>
      <trkpt lat="63.16325" lon="18.39952">
        <ele>58.707006</ele>
        <time>2020-08-29T05:24:19.199Z</time>
      </trkpt>
      <trkpt lat="63.16327" lon="18.39917">
        <ele>58.749321</ele>
        <time>2020-08-29T05:24:21.849Z</time>
      </trkpt>
      <trkpt lat="63.1638" lon="18.39644">
        <ele>60.240215</ele>
        <time>2020-08-29T05:24:51.134Z</time>
      </trkpt>
      <trkpt lat="63.16423" lon="18.39416">
        <ele>64.03402</ele>
        <time>2020-08-29T05:25:24.032Z</time>
      </trkpt>
      <trkpt lat="63.16453" lon="18.39286">
        <ele>67.313419</ele>
        <time>2020-08-29T05:25:48.535Z</time>
      </trkpt>
      <trkpt lat="63.16471" lon="18.39239">
        <ele>69.12813</ele>
        <time>2020-08-29T05:25:59.508Z</time>
      </trkpt>
      <trkpt lat="63.16518" lon="18.39161">
        <ele>72.885796</ele>
        <time>2020-08-29T05:26:22.570Z</time>
      </trkpt>
      <trkpt lat="63.16543" lon="18.39123">
        <ele>74.8434</ele>
        <time>2020-08-29T05:26:35.187Z</time>
      </trkpt>
      <trkpt lat="63.16565" lon="18.39092">
        <ele>76.54208</ele>
        <time>2020-08-29T05:26:49.250Z</time>
      </trkpt>
      <trkpt lat="63.16617" lon="18.39022">
        <ele>81.013318</ele>
        <time>2020-08-29T05:27:21.333Z</time>
      </trkpt>
      <trkpt lat="63.1664" lon="18.38969">
        <ele>83.44297</ele>
        <time>2020-08-29T05:27:38.877Z</time>
      </trkpt>
      <trkpt lat="63.16653" lon="18.3892">
        <ele>85.387917</ele>
        <time>2020-08-29T05:27:52.946Z</time>
      </trkpt>
      <trkpt lat="63.16661" lon="18.38868">
        <ele>87.206022</ele>
        <time>2020-08-29T05:28:07.090Z</time>
      </trkpt>
      <trkpt lat="63.16671" lon="18.38665">
        <ele>93.932961</ele>
        <time>2020-08-29T05:28:55.351Z</time>
      </trkpt>
      <trkpt lat="63.16683" lon="18.38603">
        <ele>96.152567</ele>
        <time>2020-08-29T05:29:11.799Z</time>
      </trkpt>
      <trkpt lat="63.16689" lon="18.38577">
        <ele>97.131592</ele>
        <time>2020-08-29T05:29:19.851Z</time>
      </trkpt>
      <trkpt lat="63.16692" lon="18.38553">
        <ele>97.944243</ele>
        <time>2020-08-29T05:29:25.784Z</time>
      </trkpt>
      <trkpt lat="63.16694" lon="18.38462">
        <ele>100.917856</ele>
        <time>2020-08-29T05:29:47.183Z</time>
      </trkpt>
      <trkpt lat="63.16692" lon="18.38429">
        <ele>102.006593</ele>
        <time>2020-08-29T05:29:55.307Z</time>
      </trkpt>
      <trkpt lat="63.16728" lon="18.38342">
        <ele>104.774992</ele>
        <time>2020-08-29T05:30:16.635Z</time>
      </trkpt>
      <trkpt lat="63.1677" lon="18.38191">
        <ele>108.33579</ele>
        <time>2020-08-29T05:30:44.096Z</time>
      </trkpt>
      <trkpt lat="63.16801" lon="18.38122">
        <ele>110.281893</ele>
        <time>2020-08-29T05:30:57.074Z</time>
      </trkpt>
      <trkpt lat="63.16802" lon="18.38091">
        <ele>110.906517</ele>
        <time>2020-08-29T05:31:00.727Z</time>
      </trkpt>
      <trkpt lat="63.16794" lon="18.38059">
        <ele>111.16854</ele>
        <time>2020-08-29T05:31:04.221Z</time>
      </trkpt>
      <trkpt lat="63.16702" lon="18.37874">
        <ele>112.155628</ele>
        <time>2020-08-29T05:31:29.027Z</time>
      </trkpt>
      <trkpt lat="63.1667" lon="18.37876">
        <ele>112.408687</ele>
        <time>2020-08-29T05:31:34.933Z</time>
      </trkpt>
      <trkpt lat="63.16671" lon="18.37858">
        <ele>112.476552</ele>
        <time>2020-08-29T05:31:37.921Z</time>
      </trkpt>
      <trkpt lat="63.16664" lon="18.37723">
        <ele>113.494995</ele>
        <time>2020-08-29T05:31:57.251Z</time>
      </trkpt>
      <trkpt lat="63.16667" lon="18.37671">
        <ele>113.894554</ele>
        <time>2020-08-29T05:32:05.354Z</time>
      </trkpt>
      <trkpt lat="63.16675" lon="18.37619">
        <ele>114.315922</ele>
        <time>2020-08-29T05:32:14.108Z</time>
      </trkpt>
      <trkpt lat="63.16724" lon="18.37455">
        <ele>116.001495</ele>
        <time>2020-08-29T05:32:48.163Z</time>
      </trkpt>
      <trkpt lat="63.16759" lon="18.37308">
        <ele>118.12937</ele>
        <time>2020-08-29T05:33:18.063Z</time>
      </trkpt>
      <trkpt lat="63.16792" lon="18.37197">
        <ele>119.82028</ele>
        <time>2020-08-29T05:33:41.426Z</time>
      </trkpt>
      <trkpt lat="63.1684" lon="18.3698">
        <ele>122.627478</ele>
        <time>2020-08-29T05:34:22.435Z</time>
      </trkpt>
      <trkpt lat="63.16852" lon="18.36939">
        <ele>123.162152</ele>
        <time>2020-08-29T05:34:30.364Z</time>
      </trkpt>
      <trkpt lat="63.1687" lon="18.36909">
        <ele>123.719542</ele>
        <time>2020-08-29T05:34:38.686Z</time>
      </trkpt>
      <trkpt lat="63.16878" lon="18.36898">
        <ele>123.964685</ele>
        <time>2020-08-29T05:34:42.475Z</time>
      </trkpt>
      <trkpt lat="63.16876" lon="18.36837">
        <ele>124.641721</ele>
        <time>2020-08-29T05:34:52.754Z</time>
      </trkpt>
      <trkpt lat="63.16876" lon="18.36779">
        <ele>125.320033</ele>
        <time>2020-08-29T05:35:03.010Z</time>
      </trkpt>
      <trkpt lat="63.16876" lon="18.36738">
        <ele>125.830387</ele>
        <time>2020-08-29T05:35:09.928Z</time>
      </trkpt>
      <trkpt lat="63.16877" lon="18.36703">
        <ele>126.26795</ele>
        <time>2020-08-29T05:35:16.218Z</time>
      </trkpt>
      <trkpt lat="63.16888" lon="18.36342">
        <ele>130.59616</ele>
        <time>2020-08-29T05:36:20.184Z</time>
      </trkpt>
      <trkpt lat="63.16894" lon="18.35801">
        <ele>134.433537</ele>
        <time>2020-08-29T05:37:45.917Z</time>
      </trkpt>
      <trkpt lat="63.16893" lon="18.35765">
        <ele>134.587068</ele>
        <time>2020-08-29T05:37:50.816Z</time>
      </trkpt>
      <trkpt lat="63.16891" lon="18.35743">
        <ele>134.678755</ele>
        <time>2020-08-29T05:37:53.895Z</time>
      </trkpt>
      <trkpt lat="63.1687" lon="18.35638">
        <ele>135.169767</ele>
        <time>2020-08-29T05:38:09.782Z</time>
      </trkpt>
      <trkpt lat="63.16865" lon="18.35615">
        <ele>135.276486</ele>
        <time>2020-08-29T05:38:13.243Z</time>
      </trkpt>
      <trkpt lat="63.16858" lon="18.35589">
        <ele>135.3254</ele>
        <time>2020-08-29T05:38:17.365Z</time>
      </trkpt>
      <trkpt lat="63.168" lon="18.35394">
        <ele>135.707748</ele>
        <time>2020-08-29T05:38:48.971Z</time>
      </trkpt>
      <trkpt lat="63.1679" lon="18.35348">
        <ele>135.790272</ele>
        <time>2020-08-29T05:38:56.166Z</time>
      </trkpt>
      <trkpt lat="63.16786" lon="18.35319">
        <ele>135.840809</ele>
        <time>2020-08-29T05:39:00.576Z</time>
      </trkpt>
      <trkpt lat="63.1678" lon="18.35186">
        <ele>136.50682</ele>
        <time>2020-08-29T05:39:20.266Z</time>
      </trkpt>
      <trkpt lat="63.16784" lon="18.35103">
        <ele>137.105285</ele>
        <time>2020-08-29T05:39:33.116Z</time>
      </trkpt>
      <trkpt lat="63.16789" lon="18.3505">
        <ele>137.49543</ele>
        <time>2020-08-29T05:39:41.735Z</time>
      </trkpt>
      <trkpt lat="63.16808" lon="18.34956">
        <ele>138.225205</ele>
        <time>2020-08-29T05:39:58.229Z</time>
      </trkpt>
      <trkpt lat="63.16844" lon="18.34844">
        <ele>139.493102</ele>
        <time>2020-08-29T05:40:21.296Z</time>
      </trkpt>
      <trkpt lat="63.17019" lon="18.34396">
        <ele>146.610718</ele>
        <time>2020-08-29T05:42:04.166Z</time>
      </trkpt>
      <trkpt lat="63.17058" lon="18.34284">
        <ele>148.34627</ele>
        <time>2020-08-29T05:42:28.404Z</time>
      </trkpt>
      <trkpt lat="63.17154" lon="18.33956">
        <ele>153.650621</ele>
        <time>2020-08-29T05:43:37.492Z</time>
      </trkpt>
      <trkpt lat="63.17179" lon="18.33819">
        <ele>156.177156</ele>
        <time>2020-08-29T05:44:05.739Z</time>
      </trkpt>
      <trkpt lat="63.17184" lon="18.33732">
        <ele>157.693085</ele>
        <time>2020-08-29T05:44:22.886Z</time>
      </trkpt>
      <trkpt lat="63.17183" lon="18.33667">
        <ele>158.82018</ele>
        <time>2020-08-29T05:44:35.723Z</time>
      </trkpt>
      <trkpt lat="63.17176" lon="18.33583">
        <ele>160.299884</ele>
        <time>2020-08-29T05:44:52.128Z</time>
      </trkpt>
      <trkpt lat="63.17165" lon="18.33519">
        <ele>160.839921</ele>
        <time>2020-08-29T05:45:04.731Z</time>
      </trkpt>
      <trkpt lat="63.17132" lon="18.33391">
        <ele>161.384938</ele>
        <time>2020-08-29T05:45:30.684Z</time>
      </trkpt>
      <trkpt lat="63.17022" lon="18.33124">
        <ele>160.770395</ele>
        <time>2020-08-29T05:46:13.361Z</time>
      </trkpt>
      <trkpt lat="63.17004" lon="18.33084">
        <ele>160.280307</ele>
        <time>2020-08-29T05:46:19.653Z</time>
      </trkpt>
      <trkpt lat="63.16997" lon="18.33066">
        <ele>160.071109</ele>
        <time>2020-08-29T05:46:21.988Z</time>
      </trkpt>
      <trkpt lat="63.16598" lon="18.32121">
        <ele>151.398926</ele>
        <time>2020-08-29T05:48:52.256Z</time>
      </trkpt>
      <trkpt lat="63.16567" lon="18.32008">
        <ele>152.477881</ele>
        <time>2020-08-29T05:49:15.295Z</time>
      </trkpt>
      <trkpt lat="63.16533" lon="18.31836">
        <ele>155.901046</ele>
        <time>2020-08-29T05:49:51.903Z</time>
      </trkpt>
      <trkpt lat="63.16494" lon="18.31711">
        <ele>158.72362</ele>
        <time>2020-08-29T05:50:23.981Z</time>
      </trkpt>
      <trkpt lat="63.16467" lon="18.31659">
        <ele>160.736761</ele>
        <time>2020-08-29T05:50:40.775Z</time>
      </trkpt>
      <trkpt lat="63.16372" lon="18.31533">
        <ele>166.998679</ele>
        <time>2020-08-29T05:51:33.330Z</time>
      </trkpt>
      <trkpt lat="63.16345" lon="18.31464">
        <ele>169.47317</ele>
        <time>2020-08-29T05:51:53.611Z</time>
      </trkpt>
      <trkpt lat="63.16324" lon="18.3138">
        <ele>172.469189</ele>
        <time>2020-08-29T05:52:15.737Z</time>
      </trkpt>
      <trkpt lat="63.16314" lon="18.31296">
        <ele>175.176906</ele>
        <time>2020-08-29T05:52:36.227Z</time>
      </trkpt>
      <trkpt lat="63.1631" lon="18.31208">
        <ele>177.927327</ele>
        <time>2020-08-29T05:52:57.386Z</time>
      </trkpt>
      <trkpt lat="63.16312" lon="18.3103">
        <ele>183.325863</ele>
        <time>2020-08-29T05:53:40.498Z</time>
      </trkpt>
      <trkpt lat="63.16322" lon="18.30884">
        <ele>187.665706</ele>
        <time>2020-08-29T05:54:15.591Z</time>
      </trkpt>
      <trkpt lat="63.16341" lon="18.30734">
        <ele>192.209705</ele>
        <time>2020-08-29T05:54:50.454Z</time>
      </trkpt>
      <trkpt lat="63.16402" lon="18.30365">
        <ele>199.562346</ele>
        <time>2020-08-29T05:56:06.651Z</time>
      </trkpt>
      <trkpt lat="63.16439" lon="18.30197">
        <ele>201.302569</ele>
        <time>2020-08-29T05:56:37.367Z</time>
      </trkpt>
      <trkpt lat="63.16443" lon="18.30183">
        <ele>201.440954</ele>
        <time>2020-08-29T05:56:39.991Z</time>
      </trkpt>
      <trkpt lat="63.16453" lon="18.30146">
        <ele>201.805614</ele>
        <time>2020-08-29T05:56:46.972Z</time>
      </trkpt>
      <trkpt lat="63.16502" lon="18.30016">
        <ele>203.187229</ele>
        <time>2020-08-29T05:57:12.685Z</time>
      </trkpt>
      <trkpt lat="63.16607" lon="18.29783">
        <ele>204.416586</ele>
        <time>2020-08-29T05:58:01.069Z</time>
      </trkpt>
      <trkpt lat="63.16613" lon="18.29768">
        <ele>204.492297</ele>
        <time>2020-08-29T05:58:04.618Z</time>
      </trkpt>
      <trkpt lat="63.16617" lon="18.29757">
        <ele>204.546198</ele>
        <time>2020-08-29T05:58:06.285Z</time>
      </trkpt>
      <trkpt lat="63.16656" lon="18.29626">
        <ele>205.058716</ele>
        <time>2020-08-29T05:58:28.049Z</time>
      </trkpt>
      <trkpt lat="63.16682" lon="18.29465">
        <ele>205.597715</ele>
        <time>2020-08-29T05:58:51.856Z</time>
      </trkpt>
      <trkpt lat="63.16696" lon="18.29277">
        <ele>207.043833</ele>
        <time>2020-08-29T05:59:20.799Z</time>
      </trkpt>
      <trkpt lat="63.16692" lon="18.29123">
        <ele>209.119156</ele>
        <time>2020-08-29T05:59:47.884Z</time>
      </trkpt>
      <trkpt lat="63.1667" lon="18.28984">
        <ele>211.099807</ele>
        <time>2020-08-29T06:00:16.062Z</time>
      </trkpt>
      <trkpt lat="63.16651" lon="18.28905">
        <ele>212.757122</ele>
        <time>2020-08-29T06:00:33.847Z</time>
      </trkpt>
      <trkpt lat="63.16627" lon="18.28831">
        <ele>214.569689</ele>
        <time>2020-08-29T06:00:52.466Z</time>
      </trkpt>
      <trkpt lat="63.16542" lon="18.28615">
        <ele>220.058186</ele>
        <time>2020-08-29T06:01:49.079Z</time>
      </trkpt>
      <trkpt lat="63.16513" lon="18.28478">
        <ele>222.605568</ele>
        <time>2020-08-29T06:02:17.915Z</time>
      </trkpt>
      <trkpt lat="63.16502" lon="18.28366">
        <ele>224.524636</ele>
        <time>2020-08-29T06:02:39.262Z</time>
      </trkpt>
      <trkpt lat="63.165" lon="18.28279">
        <ele>225.947462</ele>
        <time>2020-08-29T06:02:55.278Z</time>
      </trkpt>
      <trkpt lat="63.16514" lon="18.28039">
        <ele>228.776757</ele>
        <time>2020-08-29T06:03:37.788Z</time>
      </trkpt>
      <trkpt lat="63.16516" lon="18.27945">
        <ele>229.869952</ele>
        <time>2020-08-29T06:03:53.305Z</time>
      </trkpt>
      <trkpt lat="63.16502" lon="18.27822">
        <ele>230.938707</ele>
        <time>2020-08-29T06:04:13.645Z</time>
      </trkpt>
      <trkpt lat="63.16461" lon="18.27696">
        <ele>231.871164</ele>
        <time>2020-08-29T06:04:37.348Z</time>
      </trkpt>
      <trkpt lat="63.16455" lon="18.27684">
        <ele>231.985686</ele>
        <time>2020-08-29T06:04:40.217Z</time>
      </trkpt>
      <trkpt lat="63.16448" lon="18.27673">
        <ele>232.090126</ele>
        <time>2020-08-29T06:04:42.684Z</time>
      </trkpt>
      <trkpt lat="63.16268" lon="18.27353">
        <ele>234.8397</ele>
        <time>2020-08-29T06:05:59.529Z</time>
      </trkpt>
      <trkpt lat="63.16221" lon="18.27269">
        <ele>235.295667</ele>
        <time>2020-08-29T06:06:20.158Z</time>
      </trkpt>
      <trkpt lat="63.16201" lon="18.27233">
        <ele>235.471738</ele>
        <time>2020-08-29T06:06:28.983Z</time>
      </trkpt>
      <trkpt lat="63.16048" lon="18.26972">
        <ele>235.92706</ele>
        <time>2020-08-29T06:07:27.736Z</time>
      </trkpt>
      <trkpt lat="63.15991" lon="18.26917">
        <ele>235.763163</ele>
        <time>2020-08-29T06:07:44.711Z</time>
      </trkpt>
      <trkpt lat="63.1593" lon="18.26889">
        <ele>235.617594</ele>
        <time>2020-08-29T06:08:01.920Z</time>
      </trkpt>
      <trkpt lat="63.1538" lon="18.26731">
        <ele>234.946815</ele>
        <time>2020-08-29T06:10:44.987Z</time>
      </trkpt>
      <trkpt lat="63.15303" lon="18.26686">
        <ele>235.198214</ele>
        <time>2020-08-29T06:11:09.836Z</time>
      </trkpt>
      <trkpt lat="63.15288" lon="18.26672">
        <ele>235.250422</ele>
        <time>2020-08-29T06:11:15.162Z</time>
      </trkpt>
      <trkpt lat="63.15265" lon="18.26649">
        <ele>235.331266</ele>
        <time>2020-08-29T06:11:23.002Z</time>
      </trkpt>
      <trkpt lat="63.15077" lon="18.26434">
        <ele>235.72278</ele>
        <time>2020-08-29T06:12:27.358Z</time>
      </trkpt>
      <trkpt lat="63.15022" lon="18.26372">
        <ele>235.695568</ele>
        <time>2020-08-29T06:12:45.396Z</time>
      </trkpt>
      <trkpt lat="63.15016" lon="18.26365">
        <ele>235.692113</ele>
        <time>2020-08-29T06:12:47.894Z</time>
      </trkpt>
      <trkpt lat="63.14954" lon="18.26282">
        <ele>235.660028</ele>
        <time>2020-08-29T06:13:09.107Z</time>
      </trkpt>
      <trkpt lat="63.14904" lon="18.26177">
        <ele>235.287305</ele>
        <time>2020-08-29T06:13:28.940Z</time>
      </trkpt>
      <trkpt lat="63.14873" lon="18.26079">
        <ele>234.917703</ele>
        <time>2020-08-29T06:13:43.833Z</time>
      </trkpt>
      <trkpt lat="63.14836" lon="18.25911">
        <ele>234.367622</ele>
        <time>2020-08-29T06:14:06.712Z</time>
      </trkpt>
      <trkpt lat="63.14811" lon="18.25841">
        <ele>234.202281</ele>
        <time>2020-08-29T06:14:17.644Z</time>
      </trkpt>
      <trkpt lat="63.14786" lon="18.25792">
        <ele>234.063236</ele>
        <time>2020-08-29T06:14:26.983Z</time>
      </trkpt>
      <trkpt lat="63.14737" lon="18.25737">
        <ele>233.838746</ele>
        <time>2020-08-29T06:14:42.641Z</time>
      </trkpt>
      <trkpt lat="63.1464" lon="18.25689">
        <ele>233.831613</ele>
        <time>2020-08-29T06:15:13.411Z</time>
      </trkpt>
      <trkpt lat="63.14588" lon="18.25644">
        <ele>233.97857</ele>
        <time>2020-08-29T06:15:30.855Z</time>
      </trkpt>
      <trkpt lat="63.14546" lon="18.25575">
        <ele>234.11875</ele>
        <time>2020-08-29T06:15:47.098Z</time>
      </trkpt>
      <trkpt lat="63.14489" lon="18.25441">
        <ele>233.296624</ele>
        <time>2020-08-29T06:16:10.989Z</time>
      </trkpt>
      <trkpt lat="63.14438" lon="18.25364">
        <ele>232.552333</ele>
        <time>2020-08-29T06:16:27.272Z</time>
      </trkpt>
      <trkpt lat="63.14398" lon="18.25336">
        <ele>232.042412</ele>
        <time>2020-08-29T06:16:37.895Z</time>
      </trkpt>
      <trkpt lat="63.14357" lon="18.25329">
        <ele>230.69015</ele>
        <time>2020-08-29T06:16:48.083Z</time>
      </trkpt>
      <trkpt lat="63.14063" lon="18.25397">
        <ele>218.485742</ele>
        <time>2020-08-29T06:17:55.658Z</time>
      </trkpt>
      <trkpt lat="63.13971" lon="18.25403">
        <ele>212.127814</ele>
        <time>2020-08-29T06:18:14.898Z</time>
      </trkpt>
      <trkpt lat="63.13925" lon="18.25386">
        <ele>208.529045</ele>
        <time>2020-08-29T06:18:24.182Z</time>
      </trkpt>
      <trkpt lat="63.13885" lon="18.25352">
        <ele>205.167319</ele>
        <time>2020-08-29T06:18:32.754Z</time>
      </trkpt>
      <trkpt lat="63.13779" lon="18.25228">
        <ele>195.253453</ele>
        <time>2020-08-29T06:18:56.888Z</time>
      </trkpt>
      <trkpt lat="63.13722" lon="18.25136">
        <ele>189.304919</ele>
        <time>2020-08-29T06:19:11.323Z</time>
      </trkpt>
      <trkpt lat="63.13665" lon="18.25007">
        <ele>183.321152</ele>
        <time>2020-08-29T06:19:27.948Z</time>
      </trkpt>
      <trkpt lat="63.13594" lon="18.24794">
        <ele>174.867583</ele>
        <time>2020-08-29T06:19:53.017Z</time>
      </trkpt>
      <trkpt lat="63.13566" lon="18.24704">
        <ele>172.537021</ele>
        <time>2020-08-29T06:20:03.479Z</time>
      </trkpt>
      <trkpt lat="63.1347" lon="18.24387">
        <ele>165.194262</ele>
        <time>2020-08-29T06:20:42.901Z</time>
      </trkpt>
      <trkpt lat="63.13389" lon="18.24141">
        <ele>161.204408</ele>
        <time>2020-08-29T06:21:16.786Z</time>
      </trkpt>
      <trkpt lat="63.13368" lon="18.2408">
        <ele>160.313898</ele>
        <time>2020-08-29T06:21:25.351Z</time>
      </trkpt>
      <trkpt lat="63.13332" lon="18.24198">
        <ele>158.664629</ele>
        <time>2020-08-29T06:21:41.134Z</time>
      </trkpt>
      <trkpt lat="63.13282" lon="18.24333">
        <ele>156.648422</ele>
        <time>2020-08-29T06:22:00.264Z</time>
      </trkpt>
      <trkpt lat="63.12925" lon="18.25053">
        <ele>144.903913</ele>
        <time>2020-08-29T06:23:59.117Z</time>
      </trkpt>
      <trkpt lat="63.1281" lon="18.25259">
        <ele>142.17684</ele>
        <time>2020-08-29T06:24:36.702Z</time>
      </trkpt>
      <trkpt lat="63.12738" lon="18.2537">
        <ele>140.824974</ele>
        <time>2020-08-29T06:24:59.964Z</time>
      </trkpt>
      <trkpt lat="63.12684" lon="18.25435">
        <ele>140.53517</ele>
        <time>2020-08-29T06:25:16.942Z</time>
      </trkpt>
      <trkpt lat="63.1262" lon="18.2549">
        <ele>140.213644</ele>
        <time>2020-08-29T06:25:36.527Z</time>
      </trkpt>
      <trkpt lat="63.12567" lon="18.25522">
        <ele>140.002731</ele>
        <time>2020-08-29T06:25:52.775Z</time>
      </trkpt>
      <trkpt lat="63.12465" lon="18.25547">
        <ele>140.176125</ele>
        <time>2020-08-29T06:26:24.066Z</time>
      </trkpt>
      <trkpt lat="63.12324" lon="18.25538">
        <ele>140.17718</ele>
        <time>2020-08-29T06:27:06.923Z</time>
      </trkpt>
      <trkpt lat="63.12181" lon="18.25524">
        <ele>139.519598</ele>
        <time>2020-08-29T06:27:48.114Z</time>
      </trkpt>
      <trkpt lat="63.1191" lon="18.25499">
        <ele>135.00951</ele>
        <time>2020-08-29T06:28:57.797Z</time>
      </trkpt>
      <trkpt lat="63.11764" lon="18.25484">
        <ele>132.42282</ele>
        <time>2020-08-29T06:29:33.948Z</time>
      </trkpt>
      <trkpt lat="63.1176" lon="18.25528">
        <ele>132.089094</ele>
        <time>2020-08-29T06:29:36.900Z</time>
      </trkpt>
      <trkpt lat="63.11748" lon="18.25584">
        <ele>131.624094</ele>
        <time>2020-08-29T06:29:41.202Z</time>
      </trkpt>
      <trkpt lat="63.1171" lon="18.25662">
        <ele>131.185635</ele>
        <time>2020-08-29T06:29:50.080Z</time>
      </trkpt>
      <trkpt lat="63.11638" lon="18.25764">
        <ele>132.44722</ele>
        <time>2020-08-29T06:30:09.024Z</time>
      </trkpt>
      <trkpt lat="63.11577" lon="18.25858">
        <ele>133.536478</ele>
        <time>2020-08-29T06:30:28.666Z</time>
      </trkpt>
      <trkpt lat="63.1155" lon="18.25949">
        <ele>134.739813</ele>
        <time>2020-08-29T06:30:42.601Z</time>
      </trkpt>
      <trkpt lat="63.11525" lon="18.2599">
        <ele>135.523047</ele>
        <time>2020-08-29T06:30:51.348Z</time>
      </trkpt>
      <trkpt lat="63.11474" lon="18.26013">
        <ele>136.884292</ele>
        <time>2020-08-29T06:31:06.338Z</time>
      </trkpt>
      <trkpt lat="63.11327" lon="18.26029">
        <ele>139.436071</ele>
        <time>2020-08-29T06:31:41.653Z</time>
      </trkpt>
      <trkpt lat="63.11254" lon="18.26092">
        <ele>140.4238</ele>
        <time>2020-08-29T06:31:58.295Z</time>
      </trkpt>
      <trkpt lat="63.11198" lon="18.26212">
        <ele>141.082042</ele>
        <time>2020-08-29T06:32:14.255Z</time>
      </trkpt>
      <trkpt lat="63.11173" lon="18.26238">
        <ele>141.300492</ele>
        <time>2020-08-29T06:32:19.824Z</time>
      </trkpt>
      <trkpt lat="63.11107" lon="18.26242">
        <ele>141.829952</ele>
        <time>2020-08-29T06:32:33.792Z</time>
      </trkpt>
      <trkpt lat="63.11074" lon="18.26251">
        <ele>142.308483</ele>
        <time>2020-08-29T06:32:41.059Z</time>
      </trkpt>
      <trkpt lat="63.11035" lon="18.26241">
        <ele>143.143546</ele>
        <time>2020-08-29T06:32:50.276Z</time>
      </trkpt>
      <trkpt lat="63.10998" lon="18.26261">
        <ele>143.954959</ele>
        <time>2020-08-29T06:32:59.819Z</time>
      </trkpt>
      <trkpt lat="63.10965" lon="18.26259">
        <ele>144.641591</ele>
        <time>2020-08-29T06:33:08.318Z</time>
      </trkpt>
      <trkpt lat="63.10921" lon="18.26187">
        <ele>145.814649</ele>
        <time>2020-08-29T06:33:23.521Z</time>
      </trkpt>
      <trkpt lat="63.10874" lon="18.26057">
        <ele>147.975695</ele>
        <time>2020-08-29T06:33:45.502Z</time>
      </trkpt>
      <trkpt lat="63.10843" lon="18.26005">
        <ele>149.087874</ele>
        <time>2020-08-29T06:33:56.899Z</time>
      </trkpt>
      <trkpt lat="63.10739" lon="18.25927">
        <ele>151.240831</ele>
        <time>2020-08-29T06:34:25.889Z</time>
      </trkpt>
      <trkpt lat="63.10717" lon="18.25927">
        <ele>151.392595</ele>
        <time>2020-08-29T06:34:30.736Z</time>
      </trkpt>
      <trkpt lat="63.10652" lon="18.26034">
        <ele>151.955102</ele>
        <time>2020-08-29T06:34:46.069Z</time>
      </trkpt>
      <trkpt lat="63.10607" lon="18.26069">
        <ele>152.045442</ele>
        <time>2020-08-29T06:34:54.098Z</time>
      </trkpt>
      <trkpt lat="63.10548" lon="18.26132">
        <ele>151.569214</ele>
        <time>2020-08-29T06:35:04.641Z</time>
      </trkpt>
      <trkpt lat="63.10456" lon="18.26151">
        <ele>150.900146</ele>
        <time>2020-08-29T06:35:19.992Z</time>
      </trkpt>
      <trkpt lat="63.10401" lon="18.26109">
        <ele>150.439275</ele>
        <time>2020-08-29T06:35:30.468Z</time>
      </trkpt>
      <trkpt lat="63.10356" lon="18.26089">
        <ele>150.083838</ele>
        <time>2020-08-29T06:35:38.416Z</time>
      </trkpt>
      <trkpt lat="63.10314" lon="18.26087">
        <ele>149.747552</ele>
        <time>2020-08-29T06:35:45.535Z</time>
      </trkpt>
      <trkpt lat="63.10264" lon="18.26161">
        <ele>148.904318</ele>
        <time>2020-08-29T06:35:54.941Z</time>
      </trkpt>
      <trkpt lat="63.10156" lon="18.2623">
        <ele>146.066393</ele>
        <time>2020-08-29T06:36:11.067Z</time>
      </trkpt>
      <trkpt lat="63.10076" lon="18.26323">
        <ele>143.298894</ele>
        <time>2020-08-29T06:36:23.268Z</time>
      </trkpt>
      <trkpt lat="63.09897" lon="18.26466">
        <ele>136.203229</ele>
        <time>2020-08-29T06:36:48.717Z</time>
      </trkpt>
      <trkpt lat="63.09815" lon="18.26514">
        <ele>132.788613</ele>
        <time>2020-08-29T06:36:59.871Z</time>
      </trkpt>
      <trkpt lat="63.09756" lon="18.26529">
        <ele>130.455932</ele>
        <time>2020-08-29T06:37:07.582Z</time>
      </trkpt>
      <trkpt lat="63.09708" lon="18.26553">
        <ele>128.511464</ele>
        <time>2020-08-29T06:37:14.173Z</time>
      </trkpt>
      <trkpt lat="63.09603" lon="18.26583">
        <ele>124.378804</ele>
        <time>2020-08-29T06:37:28.233Z</time>
      </trkpt>
      <trkpt lat="63.09546" lon="18.26588">
        <ele>122.075418</ele>
        <time>2020-08-29T06:37:35.913Z</time>
      </trkpt>
      <trkpt lat="63.09481" lon="18.26659">
        <ele>119.100419</ele>
        <time>2020-08-29T06:37:45.629Z</time>
      </trkpt>
      <trkpt lat="63.09443" lon="18.26672">
        <ele>117.560646</ele>
        <time>2020-08-29T06:37:50.541Z</time>
      </trkpt>
      <trkpt lat="63.09428" lon="18.26699">
        <ele>116.756245</ele>
        <time>2020-08-29T06:37:53.021Z</time>
      </trkpt>
      <trkpt lat="63.09405" lon="18.26718">
        <ele>115.496022</ele>
        <time>2020-08-29T06:37:56.198Z</time>
      </trkpt>
      <trkpt lat="63.09298" lon="18.26726">
        <ele>110.104546</ele>
        <time>2020-08-29T06:38:09.647Z</time>
      </trkpt>
      <trkpt lat="63.09266" lon="18.26776">
        <ele>108.101208</ele>
        <time>2020-08-29T06:38:14.672Z</time>
      </trkpt>
      <trkpt lat="63.0922" lon="18.26816">
        <ele>106.040056</ele>
        <time>2020-08-29T06:38:21.008Z</time>
      </trkpt>
      <trkpt lat="63.09182" lon="18.26869">
        <ele>104.234095</ele>
        <time>2020-08-29T06:38:26.845Z</time>
      </trkpt>
      <trkpt lat="63.09125" lon="18.26967">
        <ele>101.316727</ele>
        <time>2020-08-29T06:38:36.550Z</time>
      </trkpt>
      <trkpt lat="63.09081" lon="18.27014">
        <ele>99.77594</ele>
        <time>2020-08-29T06:38:43.240Z</time>
      </trkpt>
      <trkpt lat="63.09017" lon="18.27113">
        <ele>97.742508</ele>
        <time>2020-08-29T06:38:54.259Z</time>
      </trkpt>
      <trkpt lat="63.08987" lon="18.27172">
        <ele>96.699087</ele>
        <time>2020-08-29T06:39:00.093Z</time>
      </trkpt>
      <trkpt lat="63.08971" lon="18.27169">
        <ele>96.295285</ele>
        <time>2020-08-29T06:39:02.497Z</time>
      </trkpt>
      <trkpt lat="63.0896" lon="18.27135">
        <ele>95.81565</ele>
        <time>2020-08-29T06:39:05.258Z</time>
      </trkpt>
      <trkpt lat="63.08874" lon="18.27299">
        <ele>93.942011</ele>
        <time>2020-08-29T06:39:34.272Z</time>
      </trkpt>
      <trkpt lat="63.08803" lon="18.2742">
        <ele>92.519537</ele>
        <time>2020-08-29T06:39:58.179Z</time>
      </trkpt>
      <trkpt lat="63.08762" lon="18.2747">
        <ele>91.873893</ele>
        <time>2020-08-29T06:40:10.595Z</time>
      </trkpt>
      <trkpt lat="63.08716" lon="18.2751">
        <ele>91.188975</ele>
        <time>2020-08-29T06:40:23.617Z</time>
      </trkpt>
      <trkpt lat="63.0868" lon="18.27534">
        <ele>90.662924</ele>
        <time>2020-08-29T06:40:33.564Z</time>
      </trkpt>
      <trkpt lat="63.0826" lon="18.27725">
        <ele>84.096012</ele>
        <time>2020-08-29T06:42:24.977Z</time>
      </trkpt>
      <trkpt lat="63.08196" lon="18.27766">
        <ele>83.171027</ele>
        <time>2020-08-29T06:42:42.443Z</time>
      </trkpt>
      <trkpt lat="63.08063" lon="18.27899">
        <ele>79.833342</ele>
        <time>2020-08-29T06:43:20.873Z</time>
      </trkpt>
      <trkpt lat="63.08015" lon="18.27972">
        <ele>78.097505</ele>
        <time>2020-08-29T06:43:34.722Z</time>
      </trkpt>
      <trkpt lat="63.07999" lon="18.28004">
        <ele>77.45005</ele>
        <time>2020-08-29T06:43:39.757Z</time>
      </trkpt>
      <trkpt lat="63.0797" lon="18.28077">
        <ele>75.222709</ele>
        <time>2020-08-29T06:43:49.155Z</time>
      </trkpt>
      <trkpt lat="63.07965" lon="18.2809">
        <ele>74.725869</ele>
        <time>2020-08-29T06:43:50.620Z</time>
      </trkpt>
      <trkpt lat="63.07931" lon="18.28211">
        <ele>70.449181</ele>
        <time>2020-08-29T06:44:04.444Z</time>
      </trkpt>
      <trkpt lat="63.07917" lon="18.28307">
        <ele>67.424154</ele>
        <time>2020-08-29T06:44:13.745Z</time>
      </trkpt>
      <trkpt lat="63.07914" lon="18.28325">
        <ele>66.873953</ele>
        <time>2020-08-29T06:44:15.375Z</time>
      </trkpt>
      <trkpt lat="63.07895" lon="18.28551">
        <ele>61.820739</ele>
        <time>2020-08-29T06:44:37.484Z</time>
      </trkpt>
      <trkpt lat="63.07895" lon="18.28564">
        <ele>61.570674</ele>
        <time>2020-08-29T06:44:38.641Z</time>
      </trkpt>
      <trkpt lat="63.07888" lon="18.28698">
        <ele>58.989855</ele>
        <time>2020-08-29T06:44:53.270Z</time>
      </trkpt>
      <trkpt lat="63.07812" lon="18.3003">
        <ele>53.450053</ele>
        <time>2020-08-29T06:47:42.733Z</time>
      </trkpt>
      <trkpt lat="63.0781" lon="18.30064">
        <ele>53.409301</ele>
        <time>2020-08-29T06:47:46.219Z</time>
      </trkpt>
      <trkpt lat="63.07802" lon="18.30195">
        <ele>53.249285</ele>
        <time>2020-08-29T06:48:05.283Z</time>
      </trkpt>
      <trkpt lat="63.07791" lon="18.30326">
        <ele>53.08872</ele>
        <time>2020-08-29T06:48:22.497Z</time>
      </trkpt>
      <trkpt lat="63.07769" lon="18.30493">
        <ele>51.958919</ele>
        <time>2020-08-29T06:48:47.239Z</time>
      </trkpt>
      <trkpt lat="63.07617" lon="18.3128">
        <ele>42.545725</ele>
        <time>2020-08-29T06:50:24.557Z</time>
      </trkpt>
      <trkpt lat="63.07588" lon="18.3138">
        <ele>39.956527</ele>
        <time>2020-08-29T06:50:35.731Z</time>
      </trkpt>
      <trkpt lat="63.07565" lon="18.31436">
        <ele>38.258279</ele>
        <time>2020-08-29T06:50:42.635Z</time>
      </trkpt>
      <trkpt lat="63.07545" lon="18.31479">
        <ele>36.013426</ele>
        <time>2020-08-29T06:50:48.372Z</time>
      </trkpt>
      <trkpt lat="63.07531" lon="18.31507">
        <ele>34.588288</ele>
        <time>2020-08-29T06:50:51.942Z</time>
      </trkpt>
      <trkpt lat="63.07429" lon="18.31667">
        <ele>24.737247</ele>
        <time>2020-08-29T06:51:17.483Z</time>
      </trkpt>
      <trkpt lat="63.07407" lon="18.3169">
        <ele>23.758282</ele>
        <time>2020-08-29T06:51:20.241Z</time>
      </trkpt>
      <trkpt lat="63.07347" lon="18.31741">
        <ele>21.889849</ele>
        <time>2020-08-29T06:51:28.492Z</time>
      </trkpt>
      <trkpt lat="63.07311" lon="18.31749">
        <ele>20.839774</ele>
        <time>2020-08-29T06:51:33.569Z</time>
      </trkpt>
      <trkpt lat="63.07196" lon="18.31736">
        <ele>19.842002</ele>
        <time>2020-08-29T06:51:53.453Z</time>
      </trkpt>
      <trkpt lat="63.0712" lon="18.31747">
        <ele>20.869056</ele>
        <time>2020-08-29T06:52:10.872Z</time>
      </trkpt>
      <trkpt lat="63.07082" lon="18.31763">
        <ele>21.389072</ele>
        <time>2020-08-29T06:52:20.790Z</time>
      </trkpt>
      <trkpt lat="63.07053" lon="18.3179">
        <ele>22.217289</ele>
        <time>2020-08-29T06:52:29.542Z</time>
      </trkpt>
      <trkpt lat="63.06993" lon="18.31868">
        <ele>24.490083</ele>
        <time>2020-08-29T06:52:49.454Z</time>
      </trkpt>
      <trkpt lat="63.06959" lon="18.31893">
        <ele>25.655108</ele>
        <time>2020-08-29T06:52:59.960Z</time>
      </trkpt>
      <trkpt lat="63.06933" lon="18.31901">
        <ele>26.510516</ele>
        <time>2020-08-29T06:53:07.825Z</time>
      </trkpt>
      <trkpt lat="63.06835" lon="18.31898">
        <ele>29.465153</ele>
        <time>2020-08-29T06:53:35.026Z</time>
      </trkpt>
      <trkpt lat="63.06793" lon="18.31909">
        <ele>30.712839</ele>
        <time>2020-08-29T06:53:46.442Z</time>
      </trkpt>
      <trkpt lat="63.0669" lon="18.31972">
        <ele>33.632541</ele>
        <time>2020-08-29T06:54:14.661Z</time>
      </trkpt>
      <trkpt lat="63.06665" lon="18.31978">
        <ele>34.237937</ele>
        <time>2020-08-29T06:54:21.506Z</time>
      </trkpt>
      <trkpt lat="63.06588" lon="18.31957">
        <ele>36.077544</ele>
        <time>2020-08-29T06:54:41.748Z</time>
      </trkpt>
      <trkpt lat="63.0655" lon="18.31957">
        <ele>36.970492</ele>
        <time>2020-08-29T06:54:50.772Z</time>
      </trkpt>
      <trkpt lat="63.06512" lon="18.31972">
        <ele>37.165236</ele>
        <time>2020-08-29T06:54:59.225Z</time>
      </trkpt>
      <trkpt lat="63.06477" lon="18.32009">
        <ele>37.359961</ele>
        <time>2020-08-29T06:55:07.061Z</time>
      </trkpt>
      <trkpt lat="63.06434" lon="18.32073">
        <ele>37.624948</ele>
        <time>2020-08-29T06:55:16.688Z</time>
      </trkpt>
      <trkpt lat="63.0621" lon="18.32419">
        <ele>37.23847</ele>
        <time>2020-08-29T06:56:02.499Z</time>
      </trkpt>
      <trkpt lat="63.06155" lon="18.32491">
        <ele>37.252519</ele>
        <time>2020-08-29T06:56:14.875Z</time>
      </trkpt>
      <trkpt lat="63.06104" lon="18.32534">
        <ele>37.264608</ele>
        <time>2020-08-29T06:56:24.942Z</time>
      </trkpt>
      <trkpt lat="63.06074" lon="18.32557">
        <ele>37.026445</ele>
        <time>2020-08-29T06:56:30.634Z</time>
      </trkpt>
      <trkpt lat="63.06011" lon="18.32591">
        <ele>35.956221</ele>
        <time>2020-08-29T06:56:40.965Z</time>
      </trkpt>
      <trkpt lat="63.05962" lon="18.32611">
        <ele>35.124702</ele>
        <time>2020-08-29T06:56:48.148Z</time>
      </trkpt>
      <trkpt lat="63.05852" lon="18.32677">
        <ele>31.978339</ele>
        <time>2020-08-29T06:57:02.918Z</time>
      </trkpt>
      <trkpt lat="63.05785" lon="18.32732">
        <ele>29.369005</ele>
        <time>2020-08-29T06:57:11.948Z</time>
      </trkpt>
      <trkpt lat="63.05747" lon="18.32765">
        <ele>27.853139</ele>
        <time>2020-08-29T06:57:17.175Z</time>
      </trkpt>
      <trkpt lat="63.05721" lon="18.32785">
        <ele>27.108463</ele>
        <time>2020-08-29T06:57:20.590Z</time>
      </trkpt>
      <trkpt lat="63.05675" lon="18.32825">
        <ele>25.799645</ele>
        <time>2020-08-29T06:57:27.126Z</time>
      </trkpt>
      <trkpt lat="63.05622" lon="18.32873">
        <ele>24.313403</ele>
        <time>2020-08-29T06:57:34.815Z</time>
      </trkpt>
      <trkpt lat="63.05605" lon="18.32831">
        <ele>23.649403</ele>
        <time>2020-08-29T06:57:38.423Z</time>
      </trkpt>
      <trkpt lat="63.05545" lon="18.32718">
        <ele>22.666388</ele>
        <time>2020-08-29T06:57:50.317Z</time>
      </trkpt>
      <trkpt lat="63.05486" lon="18.32664">
        <ele>22.267663</ele>
        <time>2020-08-29T06:58:01.070Z</time>
      </trkpt>
      <trkpt lat="63.0541" lon="18.32615">
        <ele>21.81065</ele>
        <time>2020-08-29T06:58:15.025Z</time>
      </trkpt>
      <trkpt lat="63.0536" lon="18.32594">
        <ele>21.609148</ele>
        <time>2020-08-29T06:58:23.413Z</time>
      </trkpt>
      <trkpt lat="63.05354" lon="18.3259">
        <ele>21.58309</ele>
        <time>2020-08-29T06:58:24.502Z</time>
      </trkpt>
      <trkpt lat="63.05318" lon="18.32573">
        <ele>21.436861</ele>
        <time>2020-08-29T06:58:30.611Z</time>
      </trkpt>
      <trkpt lat="63.053" lon="18.32567">
        <ele>21.365609</ele>
        <time>2020-08-29T06:58:33.626Z</time>
      </trkpt>
      <trkpt lat="63.05224" lon="18.32534">
        <ele>20.577323</ele>
        <time>2020-08-29T06:58:46.481Z</time>
      </trkpt>
      <trkpt lat="63.05188" lon="18.32523">
        <ele>19.775519</ele>
        <time>2020-08-29T06:58:52.662Z</time>
      </trkpt>
      <trkpt lat="63.05038" lon="18.32484">
        <ele>15.582246</ele>
        <time>2020-08-29T06:59:12.591Z</time>
      </trkpt>
      <trkpt lat="63.05001" lon="18.32479">
        <ele>13.785612</ele>
        <time>2020-08-29T06:59:17.084Z</time>
      </trkpt>
      <trkpt lat="63.04964" lon="18.3249">
        <ele>12.028653</ele>
        <time>2020-08-29T06:59:21.483Z</time>
      </trkpt>
      <trkpt lat="63.04932" lon="18.32516">
        <ele>10.429501</ele>
        <time>2020-08-29T06:59:25.558Z</time>
      </trkpt>
      <trkpt lat="63.04925" lon="18.32528">
        <ele>10.016485</ele>
        <time>2020-08-29T06:59:26.511Z</time>
      </trkpt>
      <trkpt lat="63.04923" lon="18.32553">
        <ele>9.448972</ele>
        <time>2020-08-29T06:59:28.007Z</time>
      </trkpt>
      <trkpt lat="63.04923" lon="18.32584">
        <ele>8.790683</ele>
        <time>2020-08-29T06:59:29.779Z</time>
      </trkpt>
      <trkpt lat="63.04851" lon="18.3259">
        <ele>6.933972</ele>
        <time>2020-08-29T06:59:38.742Z</time>
      </trkpt>
      <trkpt lat="63.04804" lon="18.3259">
        <ele>5.764297</ele>
        <time>2020-08-29T06:59:44.812Z</time>
      </trkpt>
      <trkpt lat="63.04765" lon="18.32591">
        <ele>4.779585</ele>
        <time>2020-08-29T06:59:51.544Z</time>
      </trkpt>
      <trkpt lat="63.04615" lon="18.32603">
        <ele>5.407216</ele>
        <time>2020-08-29T07:00:22.018Z</time>
      </trkpt>
      <trkpt lat="63.04567" lon="18.3261">
        <ele>5.876269</ele>
        <time>2020-08-29T07:00:32.531Z</time>
      </trkpt>
      <trkpt lat="63.04532" lon="18.32616">
        <ele>6.782515</ele>
        <time>2020-08-29T07:00:41.194Z</time>
      </trkpt>
      <trkpt lat="63.04474" lon="18.3263">
        <ele>8.437122</ele>
        <time>2020-08-29T07:00:56.293Z</time>
      </trkpt>
      <trkpt lat="63.04368" lon="18.32631">
        <ele>11.631298</ele>
        <time>2020-08-29T07:01:26.444Z</time>
      </trkpt>
      <trkpt lat="63.04231" lon="18.32644">
        <ele>17.453228</ele>
        <time>2020-08-29T07:02:10.942Z</time>
      </trkpt>
      <trkpt lat="63.0412" lon="18.32654">
        <ele>22.046138</ele>
        <time>2020-08-29T07:02:45.013Z</time>
      </trkpt>
      <trkpt lat="63.04098" lon="18.32656">
        <ele>22.925687</ele>
        <time>2020-08-29T07:02:51.620Z</time>
      </trkpt>
      <trkpt lat="63.03907" lon="18.32671">
        <ele>30.614116</ele>
        <time>2020-08-29T07:03:50.988Z</time>
      </trkpt>
      <trkpt lat="63.03868" lon="18.32671">
        <ele>32.163385</ele>
        <time>2020-08-29T07:04:02.788Z</time>
      </trkpt>
      <trkpt lat="63.03761" lon="18.32682">
        <ele>35.784484</ele>
        <time>2020-08-29T07:04:34.062Z</time>
      </trkpt>
      <trkpt lat="63.03637" lon="18.32684">
        <ele>39.398856</ele>
        <time>2020-08-29T07:05:08.176Z</time>
      </trkpt>
      <trkpt lat="63.03545" lon="18.3264">
        <ele>41.010102</ele>
        <time>2020-08-29T07:05:31.829Z</time>
      </trkpt>
      <trkpt lat="63.03465" lon="18.3257">
        <ele>41.59304</ele>
        <time>2020-08-29T07:05:48.625Z</time>
      </trkpt>
      <trkpt lat="63.03422" lon="18.32515">
        <ele>40.739463</ele>
        <time>2020-08-29T07:05:56.133Z</time>
      </trkpt>
      <trkpt lat="63.0338" lon="18.32444">
        <ele>39.831878</ele>
        <time>2020-08-29T07:06:03.367Z</time>
      </trkpt>
      <trkpt lat="63.03338" lon="18.3235">
        <ele>38.889989</ele>
        <time>2020-08-29T07:06:11.332Z</time>
      </trkpt>
      <trkpt lat="63.03296" lon="18.32225">
        <ele>38.354642</ele>
        <time>2020-08-29T07:06:20.632Z</time>
      </trkpt>
      <trkpt lat="63.03005" lon="18.31192">
        <ele>35.133859</ele>
        <time>2020-08-29T07:07:53.109Z</time>
      </trkpt>
      <trkpt lat="63.02956" lon="18.31012">
        <ele>35.436113</ele>
        <time>2020-08-29T07:08:13.359Z</time>
      </trkpt>
      <trkpt lat="63.029" lon="18.30766">
        <ele>35.861107</ele>
        <time>2020-08-29T07:08:39.625Z</time>
      </trkpt>
      <trkpt lat="63.02844" lon="18.30531">
        <ele>34.30803</ele>
        <time>2020-08-29T07:08:57.950Z</time>
      </trkpt>
      <trkpt lat="63.02826" lon="18.30443">
        <ele>33.270962</ele>
        <time>2020-08-29T07:09:03.916Z</time>
      </trkpt>
      <trkpt lat="63.02813" lon="18.3039">
        <ele>32.616452</ele>
        <time>2020-08-29T07:09:07.521Z</time>
      </trkpt>
      <trkpt lat="63.02754" lon="18.30215">
        <ele>29.201519</ele>
        <time>2020-08-29T07:09:19.895Z</time>
      </trkpt>
      <trkpt lat="63.02715" lon="18.30127">
        <ele>26.962543</ele>
        <time>2020-08-29T07:09:26.673Z</time>
      </trkpt>
      <trkpt lat="63.02669" lon="18.3003">
        <ele>24.394566</ele>
        <time>2020-08-29T07:09:34.808Z</time>
      </trkpt>
      <trkpt lat="63.02656" lon="18.30011">
        <ele>24.044738</ele>
        <time>2020-08-29T07:09:36.835Z</time>
      </trkpt>
      <trkpt lat="63.02592" lon="18.29919">
        <ele>22.346779</ele>
        <time>2020-08-29T07:09:46.977Z</time>
      </trkpt>
      <trkpt lat="63.02506" lon="18.29829">
        <ele>20.419008</ele>
        <time>2020-08-29T07:10:01.073Z</time>
      </trkpt>
      <trkpt lat="63.02476" lon="18.29797">
        <ele>20.346815</ele>
        <time>2020-08-29T07:10:06.832Z</time>
      </trkpt>
      <trkpt lat="63.02466" lon="18.29799">
        <ele>20.325952</ele>
        <time>2020-08-29T07:10:08.606Z</time>
      </trkpt>
      <trkpt lat="63.02269" lon="18.29697">
        <ele>18.927168</ele>
        <time>2020-08-29T07:10:45.061Z</time>
      </trkpt>
      <trkpt lat="63.02229" lon="18.29678">
        <ele>18.305407</ele>
        <time>2020-08-29T07:10:51.298Z</time>
      </trkpt>
      <trkpt lat="63.01888" lon="18.29513">
        <ele>8.093484</ele>
        <time>2020-08-29T07:11:36.251Z</time>
      </trkpt>
      <trkpt lat="63.01811" lon="18.29474">
        <ele>5.86727</ele>
        <time>2020-08-29T07:11:47.176Z</time>
      </trkpt>
      <trkpt lat="63.01694" lon="18.29393">
        <ele>4.444496</ele>
        <time>2020-08-29T07:12:05.363Z</time>
      </trkpt>
      <trkpt lat="63.01568" lon="18.29258">
        <ele>5.006494</ele>
        <time>2020-08-29T07:12:29.428Z</time>
      </trkpt>
      <trkpt lat="63.01487" lon="18.29165">
        <ele>6.239983</ele>
        <time>2020-08-29T07:12:52.008Z</time>
      </trkpt>
      <trkpt lat="63.01426" lon="18.291">
        <ele>9.352515</ele>
        <time>2020-08-29T07:13:15.197Z</time>
      </trkpt>
      <trkpt lat="63.01372" lon="18.2906">
        <ele>12.03642</ele>
        <time>2020-08-29T07:13:35.939Z</time>
      </trkpt>
      <trkpt lat="63.01317" lon="18.29037">
        <ele>14.653719</ele>
        <time>2020-08-29T07:13:54.846Z</time>
      </trkpt>
      <trkpt lat="63.01275" lon="18.29034">
        <ele>15.083219</ele>
        <time>2020-08-29T07:14:07.049Z</time>
      </trkpt>
      <trkpt lat="63.01215" lon="18.29042">
        <ele>15.6584</ele>
        <time>2020-08-29T07:14:21.935Z</time>
      </trkpt>
      <trkpt lat="63.01154" lon="18.29039">
        <ele>16.231718</ele>
        <time>2020-08-29T07:14:31.349Z</time>
      </trkpt>
      <trkpt lat="63.01014" lon="18.29044">
        <ele>13.019065</ele>
        <time>2020-08-29T07:14:49.703Z</time>
      </trkpt>
      <trkpt lat="63.00969" lon="18.29035">
        <ele>11.774171</ele>
        <time>2020-08-29T07:14:55.813Z</time>
      </trkpt>
      <trkpt lat="63.00927" lon="18.29008">
        <ele>10.801602</ele>
        <time>2020-08-29T07:15:01.850Z</time>
      </trkpt>
      <trkpt lat="63.00841" lon="18.28886">
        <ele>8.739589</ele>
        <time>2020-08-29T07:15:16.354Z</time>
      </trkpt>
      <trkpt lat="63.00806" lon="18.28807">
        <ele>7.727908</ele>
        <time>2020-08-29T07:15:23.615Z</time>
      </trkpt>
      <trkpt lat="63.00777" lon="18.28729">
        <ele>6.862343</ele>
        <time>2020-08-29T07:15:30.031Z</time>
      </trkpt>
      <trkpt lat="63.00757" lon="18.28655">
        <ele>6.125246</ele>
        <time>2020-08-29T07:15:35.540Z</time>
      </trkpt>
      <trkpt lat="63.00739" lon="18.28556">
        <ele>5.222442</ele>
        <time>2020-08-29T07:15:42.382Z</time>
      </trkpt>
      <trkpt lat="63.00729" lon="18.28447">
        <ele>4.323946</ele>
        <time>2020-08-29T07:15:49.666Z</time>
      </trkpt>
      <trkpt lat="63.00727" lon="18.28334">
        <ele>3.702632</ele>
        <time>2020-08-29T07:15:57.266Z</time>
      </trkpt>
      <trkpt lat="63.00732" lon="18.2822">
        <ele>3.074041</ele>
        <time>2020-08-29T07:16:04.968Z</time>
      </trkpt>
      <trkpt lat="63.00748" lon="18.28053">
        <ele>2.20595</ele>
        <time>2020-08-29T07:16:17.301Z</time>
      </trkpt>
      <trkpt lat="63.00756" lon="18.27955">
        <ele>2.018737</ele>
        <time>2020-08-29T07:16:24.774Z</time>
      </trkpt>
      <trkpt lat="63.00795" lon="18.27568">
        <ele>1.476553</ele>
        <time>2020-08-29T07:16:55.324Z</time>
      </trkpt>
      <trkpt lat="63.00802" lon="18.27416">
        <ele>1.449515</ele>
        <time>2020-08-29T07:17:07.795Z</time>
      </trkpt>
      <trkpt lat="63.00799" lon="18.27291">
        <ele>1.427184</ele>
        <time>2020-08-29T07:17:18.177Z</time>
      </trkpt>
      <trkpt lat="63.00787" lon="18.27153">
        <ele>1.385838</ele>
        <time>2020-08-29T07:17:29.795Z</time>
      </trkpt>
      <trkpt lat="63.00766" lon="18.27022">
        <ele>1.344702</ele>
        <time>2020-08-29T07:17:40.928Z</time>
      </trkpt>
      <trkpt lat="63.00737" lon="18.26901">
        <ele>1.275033</ele>
        <time>2020-08-29T07:17:51.643Z</time>
      </trkpt>
      <trkpt lat="63.00691" lon="18.26752">
        <ele>0.983225</ele>
        <time>2020-08-29T07:18:05.248Z</time>
      </trkpt>
      <trkpt lat="63.00616" lon="18.26531">
        <ele>0.585107</ele>
        <time>2020-08-29T07:18:26.242Z</time>
      </trkpt>
      <trkpt lat="63.00552" lon="18.26317">
        <ele>0.334294</ele>
        <time>2020-08-29T07:18:46.435Z</time>
      </trkpt>
      <trkpt lat="63.00515" lon="18.26156">
        <ele>0.239603</ele>
        <time>2020-08-29T07:19:00.817Z</time>
      </trkpt>
      <trkpt lat="63.0048" lon="18.25942">
        <ele>0.16935</ele>
        <time>2020-08-29T07:19:19.063Z</time>
      </trkpt>
      <trkpt lat="63.00464" lon="18.25814">
        <ele>0.15666</ele>
        <time>2020-08-29T07:19:29.668Z</time>
      </trkpt>
      <trkpt lat="63.00452" lon="18.25695">
        <ele>0.15922</ele>
        <time>2020-08-29T07:19:39.510Z</time>
      </trkpt>
      <trkpt lat="63.00447" lon="18.25584">
        <ele>0.161543</ele>
        <time>2020-08-29T07:19:48.533Z</time>
      </trkpt>
      <trkpt lat="63.00445" lon="18.25397">
        <ele>0.346595</ele>
        <time>2020-08-29T07:20:03.915Z</time>
      </trkpt>
      <trkpt lat="63.00442" lon="18.25118">
        <ele>0.809893</ele>
        <time>2020-08-29T07:20:28.101Z</time>
      </trkpt>
      <trkpt lat="63.00424" lon="18.24365">
        <ele>3.481159</ele>
        <time>2020-08-29T07:21:38.541Z</time>
      </trkpt>
      <trkpt lat="63.00429" lon="18.24177">
        <ele>3.720194</ele>
        <time>2020-08-29T07:21:55.231Z</time>
      </trkpt>
      <trkpt lat="63.0044" lon="18.2405">
        <ele>3.792281</ele>
        <time>2020-08-29T07:22:06.116Z</time>
      </trkpt>
      <trkpt lat="63.00549" lon="18.23304">
        <ele>2.72704</ele>
        <time>2020-08-29T07:23:05.642Z</time>
      </trkpt>
      <trkpt lat="63.00606" lon="18.23076">
        <ele>2.448851</ele>
        <time>2020-08-29T07:23:25.475Z</time>
      </trkpt>
      <trkpt lat="63.00655" lon="18.22936">
        <ele>2.373225</ele>
        <time>2020-08-29T07:23:39.473Z</time>
      </trkpt>
      <trkpt lat="63.00708" lon="18.22816">
        <ele>2.738006</ele>
        <time>2020-08-29T07:23:53.568Z</time>
      </trkpt>
      <trkpt lat="63.00779" lon="18.22684">
        <ele>3.834686</ele>
        <time>2020-08-29T07:24:12.597Z</time>
      </trkpt>
      <trkpt lat="63.00867" lon="18.22544">
        <ele>5.908201</ele>
        <time>2020-08-29T07:24:40.313Z</time>
      </trkpt>
      <trkpt lat="63.00908" lon="18.22481">
        <ele>7.237412</ele>
        <time>2020-08-29T07:24:54.242Z</time>
      </trkpt>
      <trkpt lat="63.00951" lon="18.22413">
        <ele>8.632431</ele>
        <time>2020-08-29T07:25:09.442Z</time>
      </trkpt>
      <trkpt lat="63.01101" lon="18.22171">
        <ele>10.8381</ele>
        <time>2020-08-29T07:25:51.978Z</time>
      </trkpt>
      <trkpt lat="63.01181" lon="18.21984">
        <ele>8.834741</ele>
        <time>2020-08-29T07:26:07.899Z</time>
      </trkpt>
      <trkpt lat="63.0123" lon="18.21849">
        <ele>7.175875</ele>
        <time>2020-08-29T07:26:18.380Z</time>
      </trkpt>
      <trkpt lat="63.01266" lon="18.21746">
        <ele>6.606088</ele>
        <time>2020-08-29T07:26:26.952Z</time>
      </trkpt>
      <trkpt lat="63.01311" lon="18.21621">
        <ele>5.914839</ele>
        <time>2020-08-29T07:26:38.297Z</time>
      </trkpt>
      <trkpt lat="63.01348" lon="18.21513">
        <ele>5.395783</ele>
        <time>2020-08-29T07:26:50.082Z</time>
      </trkpt>
      <trkpt lat="63.01373" lon="18.21435">
        <ele>5.218491</ele>
        <time>2020-08-29T07:26:57.846Z</time>
      </trkpt>
      <trkpt lat="63.01392" lon="18.21372">
        <ele>5.078517</ele>
        <time>2020-08-29T07:27:03.697Z</time>
      </trkpt>
      <trkpt lat="63.01444" lon="18.21158">
        <ele>4.556589</ele>
        <time>2020-08-29T07:27:21.202Z</time>
      </trkpt>
      <trkpt lat="63.01465" lon="18.21035">
        <ele>4.100707</ele>
        <time>2020-08-29T07:27:30.482Z</time>
      </trkpt>
      <trkpt lat="63.01488" lon="18.20826">
        <ele>3.355363</ele>
        <time>2020-08-29T07:27:46.139Z</time>
      </trkpt>
      <trkpt lat="63.01496" lon="18.20697">
        <ele>3.090912</ele>
        <time>2020-08-29T07:27:55.896Z</time>
      </trkpt>
      <trkpt lat="63.015" lon="18.20437">
        <ele>2.574882</ele>
        <time>2020-08-29T07:28:15.696Z</time>
      </trkpt>
      <trkpt lat="63.01485" lon="18.20198">
        <ele>2.131382</ele>
        <time>2020-08-29T07:28:33.908Z</time>
      </trkpt>
      <trkpt lat="63.01472" lon="18.20088">
        <ele>1.920686</ele>
        <time>2020-08-29T07:28:42.609Z</time>
      </trkpt>
      <trkpt lat="63.01455" lon="18.19979">
        <ele>1.745748</ele>
        <time>2020-08-29T07:28:51.428Z</time>
      </trkpt>
      <trkpt lat="63.01441" lon="18.19888">
        <ele>1.624368</ele>
        <time>2020-08-29T07:28:58.749Z</time>
      </trkpt>
      <trkpt lat="63.01397" lon="18.19678">
        <ele>1.329962</ele>
        <time>2020-08-29T07:29:16.746Z</time>
      </trkpt>
      <trkpt lat="63.01329" lon="18.19447">
        <ele>1.511091</ele>
        <time>2020-08-29T07:29:38.485Z</time>
      </trkpt>
      <trkpt lat="63.0131" lon="18.19392">
        <ele>1.558271</ele>
        <time>2020-08-29T07:29:44.371Z</time>
      </trkpt>
      <trkpt lat="63.01301" lon="18.19365">
        <ele>1.582194</ele>
        <time>2020-08-29T07:29:47.361Z</time>
      </trkpt>
      <trkpt lat="63.01281" lon="18.1931">
        <ele>2.126978</ele>
        <time>2020-08-29T07:29:53.957Z</time>
      </trkpt>
      <trkpt lat="63.01264" lon="18.19266">
        <ele>2.797148</ele>
        <time>2020-08-29T07:29:59.934Z</time>
      </trkpt>
      <trkpt lat="63.01242" lon="18.19214">
        <ele>3.61028</ele>
        <time>2020-08-29T07:30:07.646Z</time>
      </trkpt>
      <trkpt lat="63.01195" lon="18.1912">
        <ele>5.206821</ele>
        <time>2020-08-29T07:30:25.123Z</time>
      </trkpt>
      <trkpt lat="63.01164" lon="18.19067">
        <ele>6.238285</ele>
        <time>2020-08-29T07:30:37.016Z</time>
      </trkpt>
      <trkpt lat="63.01135" lon="18.19022">
        <ele>7.912897</ele>
        <time>2020-08-29T07:30:48.237Z</time>
      </trkpt>
      <trkpt lat="63.01111" lon="18.18985">
        <ele>9.268651</ele>
        <time>2020-08-29T07:30:57.474Z</time>
      </trkpt>
      <trkpt lat="63.01106" lon="18.19005">
        <ele>9.768481</ele>
        <time>2020-08-29T07:31:01.246Z</time>
      </trkpt>
      <trkpt lat="63.01096" lon="18.19037">
        <ele>10.608866</ele>
        <time>2020-08-29T07:31:07.425Z</time>
      </trkpt>
      <trkpt lat="63.01086" lon="18.19057">
        <ele>11.22891</ele>
        <time>2020-08-29T07:31:11.857Z</time>
      </trkpt>
      <trkpt lat="63.01066" lon="18.19068">
        <ele>12.200386</ele>
        <time>2020-08-29T07:31:19.110Z</time>
      </trkpt>
      <trkpt lat="63.0099" lon="18.19022">
        <ele>15.877927</ele>
        <time>2020-08-29T07:31:45.364Z</time>
      </trkpt>
      <trkpt lat="63.00979" lon="18.19024">
        <ele>16.422346</ele>
        <time>2020-08-29T07:31:49.673Z</time>
      </trkpt>
      <trkpt lat="63.00962" lon="18.19028">
        <ele>17.200793</ele>
        <time>2020-08-29T07:31:55.223Z</time>
      </trkpt>
      <trkpt lat="63.00944" lon="18.19041">
        <ele>18.07905</ele>
        <time>2020-08-29T07:32:01.408Z</time>
      </trkpt>
      <trkpt lat="63.00919" lon="18.19061">
        <ele>19.355336</ele>
        <time>2020-08-29T07:32:09.571Z</time>
      </trkpt>
      <trkpt lat="63.00892" lon="18.19086">
        <ele>20.712324</ele>
        <time>2020-08-29T07:32:18.885Z</time>
      </trkpt>
      <trkpt lat="63.00878" lon="18.19099">
        <ele>21.427502</ele>
        <time>2020-08-29T07:32:24.134Z</time>
      </trkpt>
      <trkpt lat="63.00858" lon="18.19121">
        <ele>22.468739</ele>
        <time>2020-08-29T07:32:31.457Z</time>
      </trkpt>
      <trkpt lat="63.00848" lon="18.1913">
        <ele>22.969697</ele>
        <time>2020-08-29T07:32:35.105Z</time>
      </trkpt>
      <trkpt lat="63.00838" lon="18.19144">
        <ele>23.468598</ele>
        <time>2020-08-29T07:32:39.234Z</time>
      </trkpt>
      <trkpt lat="63.00819" lon="18.19174">
        <ele>24.462029</ele>
        <time>2020-08-29T07:32:46.556Z</time>
      </trkpt>
      <trkpt lat="63.00802" lon="18.192">
        <ele>25.326506</ele>
        <time>2020-08-29T07:32:53.344Z</time>
      </trkpt>
      <trkpt lat="63.00755" lon="18.19294">
        <ele>27.987812</ele>
        <time>2020-08-29T07:33:12.692Z</time>
      </trkpt>
      <trkpt lat="63.00759" lon="18.1931">
        <ele>28.336989</ele>
        <time>2020-08-29T07:33:15.672Z</time>
      </trkpt>
      <trkpt lat="63.00735" lon="18.19409">
        <ele>30.461148</ele>
        <time>2020-08-29T07:33:31.113Z</time>
      </trkpt>
      <trkpt lat="63.00707" lon="18.19706">
        <ele>35.858931</ele>
        <time>2020-08-29T07:34:14.648Z</time>
      </trkpt>
      <trkpt lat="63.00688" lon="18.19775">
        <ele>37.31483</ele>
        <time>2020-08-29T07:34:25.849Z</time>
      </trkpt>
      <trkpt lat="63.00677" lon="18.19803">
        <ele>37.88971</ele>
        <time>2020-08-29T07:34:30.857Z</time>
      </trkpt>
      <trkpt lat="63.00673" lon="18.19839">
        <ele>38.434685</ele>
        <time>2020-08-29T07:34:35.920Z</time>
      </trkpt>
      <trkpt lat="63.00613" lon="18.1994">
        <ele>40.861421</ele>
        <time>2020-08-29T07:34:58.190Z</time>
      </trkpt>
      <trkpt lat="63.00542" lon="18.20159">
        <ele>44.037908</ele>
        <time>2020-08-29T07:35:32.111Z</time>
      </trkpt>
      <trkpt lat="63.00515" lon="18.20224">
        <ele>44.631919</ele>
        <time>2020-08-29T07:35:41.987Z</time>
      </trkpt>
      <trkpt lat="63.00495" lon="18.20252">
        <ele>44.990137</ele>
        <time>2020-08-29T07:35:47.681Z</time>
      </trkpt>
      <trkpt lat="63.00486" lon="18.20253">
        <ele>45.122019</ele>
        <time>2020-08-29T07:35:49.694Z</time>
      </trkpt>
      <trkpt lat="63.00467" lon="18.20249">
        <ele>45.405668</ele>
        <time>2020-08-29T07:35:53.912Z</time>
      </trkpt>
      <trkpt lat="63.00466" lon="18.20304">
        <ele>45.777845</ele>
        <time>2020-08-29T07:35:58.973Z</time>
      </trkpt>
      <trkpt lat="63.00444" lon="18.20507">
        <ele>44.610649</ele>
        <time>2020-08-29T07:36:15.034Z</time>
      </trkpt>
      <trkpt lat="63.00369" lon="18.20825">
        <ele>40.153199</ele>
        <time>2020-08-29T07:36:36.278Z</time>
      </trkpt>
      <trkpt lat="63.00337" lon="18.20935">
        <ele>37.653123</ele>
        <time>2020-08-29T07:36:43.576Z</time>
      </trkpt>
      <trkpt lat="63.00332" lon="18.20952">
        <ele>37.26249</ele>
        <time>2020-08-29T07:36:44.645Z</time>
      </trkpt>
      <trkpt lat="63.00294" lon="18.21072">
        <ele>34.459815</ele>
        <time>2020-08-29T07:36:52.708Z</time>
      </trkpt>
      <trkpt lat="62.99927" lon="18.22065">
        <ele>11.717897</ele>
        <time>2020-08-29T07:38:05.607Z</time>
      </trkpt>
      <trkpt lat="62.99888" lon="18.22182">
        <ele>10.686263</ele>
        <time>2020-08-29T07:38:15.518Z</time>
      </trkpt>
      <trkpt lat="62.99829" lon="18.22436">
        <ele>10.964605</ele>
        <time>2020-08-29T07:38:41.567Z</time>
      </trkpt>
      <trkpt lat="62.99806" lon="18.22562">
        <ele>11.989069</ele>
        <time>2020-08-29T07:38:56.655Z</time>
      </trkpt>
      <trkpt lat="62.99793" lon="18.22671">
        <ele>12.901417</ele>
        <time>2020-08-29T07:39:09.828Z</time>
      </trkpt>
      <trkpt lat="62.99785" lon="18.22767">
        <ele>14.217774</ele>
        <time>2020-08-29T07:39:21.563Z</time>
      </trkpt>
      <trkpt lat="62.9977" lon="18.23191">
        <ele>20.07755</ele>
        <time>2020-08-29T07:40:15.632Z</time>
      </trkpt>
      <trkpt lat="62.99767" lon="18.23268">
        <ele>21.169642</ele>
        <time>2020-08-29T07:40:25.285Z</time>
      </trkpt>
      <trkpt lat="62.99752" lon="18.23375">
        <ele>22.753917</ele>
        <time>2020-08-29T07:40:39.310Z</time>
      </trkpt>
      <trkpt lat="62.99713" lon="18.2357">
        <ele>25.967539</ele>
        <time>2020-08-29T07:41:06.622Z</time>
      </trkpt>
      <trkpt lat="62.99686" lon="18.23671">
        <ele>27.80036</ele>
        <time>2020-08-29T07:41:21.772Z</time>
      </trkpt>
      <trkpt lat="62.99556" lon="18.24008">
        <ele>35.019901</ele>
        <time>2020-08-29T07:42:21.597Z</time>
      </trkpt>
      <trkpt lat="62.99517" lon="18.24167">
        <ele>37.937716</ele>
        <time>2020-08-29T07:42:45.578Z</time>
      </trkpt>
      <trkpt lat="62.99495" lon="18.24309">
        <ele>40.286292</ele>
        <time>2020-08-29T07:43:05.046Z</time>
      </trkpt>
      <trkpt lat="62.99464" lon="18.24643">
        <ele>45.840229</ele>
        <time>2020-08-29T07:43:49.740Z</time>
      </trkpt>
      <trkpt lat="62.99455" lon="18.24708">
        <ele>46.986251</ele>
        <time>2020-08-29T07:43:59.050Z</time>
      </trkpt>
      <trkpt lat="62.9943" lon="18.24829">
        <ele>49.221806</ele>
        <time>2020-08-29T07:44:17.503Z</time>
      </trkpt>
      <trkpt lat="62.99405" lon="18.2491">
        <ele>50.791921</ele>
        <time>2020-08-29T07:44:31.056Z</time>
      </trkpt>
      <trkpt lat="62.99347" lon="18.25048">
        <ele>53.852085</ele>
        <time>2020-08-29T07:44:57.162Z</time>
      </trkpt>
      <trkpt lat="62.99275" lon="18.25186">
        <ele>56.400598</ele>
        <time>2020-08-29T07:45:23.109Z</time>
      </trkpt>
      <trkpt lat="62.99196" lon="18.25304">
        <ele>57.871464</ele>
        <time>2020-08-29T07:45:44.866Z</time>
      </trkpt>
      <trkpt lat="62.991" lon="18.25422">
        <ele>58.308481</ele>
        <time>2020-08-29T07:46:04.827Z</time>
      </trkpt>
      <trkpt lat="62.99001" lon="18.25523">
        <ele>57.932609</ele>
        <time>2020-08-29T07:46:22.271Z</time>
      </trkpt>
      <trkpt lat="62.98684" lon="18.25787">
        <ele>56.740773</ele>
        <time>2020-08-29T07:47:17.783Z</time>
      </trkpt>
      <trkpt lat="62.98585" lon="18.25854">
        <ele>60.04771</ele>
        <time>2020-08-29T07:47:41.163Z</time>
      </trkpt>
      <trkpt lat="62.98502" lon="18.25899">
        <ele>63.70575</ele>
        <time>2020-08-29T07:48:12.019Z</time>
      </trkpt>
      <trkpt lat="62.98468" lon="18.25912">
        <ele>66.472346</ele>
        <time>2020-08-29T07:48:27.174Z</time>
      </trkpt>
      <trkpt lat="62.98406" lon="18.25937">
        <ele>73.369357</ele>
        <time>2020-08-29T07:48:58.205Z</time>
      </trkpt>
      <trkpt lat="62.98284" lon="18.25964">
        <ele>87.288449</ele>
        <time>2020-08-29T07:50:11.970Z</time>
      </trkpt>
      <trkpt lat="62.98039" lon="18.25966">
        <ele>112.01127</ele>
        <time>2020-08-29T07:52:30.662Z</time>
      </trkpt>
      <trkpt lat="62.97894" lon="18.25952">
        <ele>113.764853</ele>
        <time>2020-08-29T07:53:01.027Z</time>
      </trkpt>
      <trkpt lat="62.97647" lon="18.259">
        <ele>90.720495</ele>
        <time>2020-08-29T07:53:27.739Z</time>
      </trkpt>
      <trkpt lat="62.9759" lon="18.25866">
        <ele>84.035048</ele>
        <time>2020-08-29T07:53:34.059Z</time>
      </trkpt>
      <trkpt lat="62.9754" lon="18.25812">
        <ele>79.037373</ele>
        <time>2020-08-29T07:53:40.070Z</time>
      </trkpt>
      <trkpt lat="62.97491" lon="18.25746">
        <ele>73.880078</ele>
        <time>2020-08-29T07:53:46.395Z</time>
      </trkpt>
      <trkpt lat="62.97419" lon="18.25625">
        <ele>66.506566</ele>
        <time>2020-08-29T07:53:56.786Z</time>
      </trkpt>
      <trkpt lat="62.9737" lon="18.25561">
        <ele>63.105973</ele>
        <time>2020-08-29T07:54:03.525Z</time>
      </trkpt>
      <trkpt lat="62.97283" lon="18.25485">
        <ele>57.514977</ele>
        <time>2020-08-29T07:54:14.648Z</time>
      </trkpt>
      <trkpt lat="62.97206" lon="18.25454">
        <ele>53.793305</ele>
        <time>2020-08-29T07:54:24.026Z</time>
      </trkpt>
      <trkpt lat="62.9717" lon="18.25454">
        <ele>52.0584</ele>
        <time>2020-08-29T07:54:28.516Z</time>
      </trkpt>
      <trkpt lat="62.96966" lon="18.25503">
        <ele>43.578873</ele>
        <time>2020-08-29T07:54:54.418Z</time>
      </trkpt>
      <trkpt lat="62.96899" lon="18.25517">
        <ele>41.150921</ele>
        <time>2020-08-29T07:55:03.002Z</time>
      </trkpt>
      <trkpt lat="62.96816" lon="18.25529">
        <ele>38.510037</ele>
        <time>2020-08-29T07:55:13.616Z</time>
      </trkpt>
      <trkpt lat="62.96613" lon="18.2554">
        <ele>33.948188</ele>
        <time>2020-08-29T07:55:41.321Z</time>
      </trkpt>
      <trkpt lat="62.96514" lon="18.2551">
        <ele>33.543898</ele>
        <time>2020-08-29T07:55:59.291Z</time>
      </trkpt>
      <trkpt lat="62.96479" lon="18.25512">
        <ele>33.852491</ele>
        <time>2020-08-29T07:56:06.599Z</time>
      </trkpt>
      <trkpt lat="62.96422" lon="18.25533">
        <ele>34.359956</ele>
        <time>2020-08-29T07:56:19.544Z</time>
      </trkpt>
      <trkpt lat="62.96383" lon="18.2556">
        <ele>34.737695</ele>
        <time>2020-08-29T07:56:29.046Z</time>
      </trkpt>
      <trkpt lat="62.96118" lon="18.25828">
        <ele>38.036436</ele>
        <time>2020-08-29T07:57:32.668Z</time>
      </trkpt>
      <trkpt lat="62.96108" lon="18.25835">
        <ele>38.132513</ele>
        <time>2020-08-29T07:57:34.771Z</time>
      </trkpt>
      <trkpt lat="62.96048" lon="18.25879">
        <ele>38.549256</ele>
        <time>2020-08-29T07:57:46.810Z</time>
      </trkpt>
      <trkpt lat="62.95969" lon="18.25928">
        <ele>37.920996</ele>
        <time>2020-08-29T07:58:01.319Z</time>
      </trkpt>
      <trkpt lat="62.95951" lon="18.2593">
        <ele>37.78098</ele>
        <time>2020-08-29T07:58:04.188Z</time>
      </trkpt>
      <trkpt lat="62.95916" lon="18.25943">
        <ele>37.513786</ele>
        <time>2020-08-29T07:58:09.423Z</time>
      </trkpt>
      <trkpt lat="62.95879" lon="18.25944">
        <ele>37.180501</ele>
        <time>2020-08-29T07:58:14.694Z</time>
      </trkpt>
      <trkpt lat="62.95834" lon="18.25943">
        <ele>35.692074</ele>
        <time>2020-08-29T07:58:20.988Z</time>
      </trkpt>
      <trkpt lat="62.95728" lon="18.25945">
        <ele>32.256139</ele>
        <time>2020-08-29T07:58:34.586Z</time>
      </trkpt>
      <trkpt lat="62.95623" lon="18.2587">
        <ele>28.287638</ele>
        <time>2020-08-29T07:58:48.265Z</time>
      </trkpt>
      <trkpt lat="62.95584" lon="18.2579">
        <ele>26.32887</ele>
        <time>2020-08-29T07:58:55.068Z</time>
      </trkpt>
      <trkpt lat="62.95564" lon="18.25723">
        <ele>24.984252</ele>
        <time>2020-08-29T07:58:59.909Z</time>
      </trkpt>
      <trkpt lat="62.95546" lon="18.25614">
        <ele>24.31142</ele>
        <time>2020-08-29T07:59:07.231Z</time>
      </trkpt>
      <trkpt lat="62.95543" lon="18.25533">
        <ele>23.948006</ele>
        <time>2020-08-29T07:59:12.727Z</time>
      </trkpt>
      <trkpt lat="62.95545" lon="18.25247">
        <ele>23.283205</ele>
        <time>2020-08-29T07:59:35.766Z</time>
      </trkpt>
      <trkpt lat="62.95541" lon="18.25138">
        <ele>23.689966</ele>
        <time>2020-08-29T07:59:45.881Z</time>
      </trkpt>
      <trkpt lat="62.95506" lon="18.24696">
        <ele>25.826501</ele>
        <time>2020-08-29T08:00:30.107Z</time>
      </trkpt>
      <trkpt lat="62.95499" lon="18.24653">
        <ele>26.083072</ele>
        <time>2020-08-29T08:00:34.614Z</time>
      </trkpt>
      <trkpt lat="62.95477" lon="18.24569">
        <ele>26.642766</ele>
        <time>2020-08-29T08:00:44.407Z</time>
      </trkpt>
      <trkpt lat="62.9546" lon="18.24531">
        <ele>27.043401</ele>
        <time>2020-08-29T08:00:49.806Z</time>
      </trkpt>
      <trkpt lat="62.95426" lon="18.24488">
        <ele>27.749399</ele>
        <time>2020-08-29T08:00:58.598Z</time>
      </trkpt>
      <trkpt lat="62.95403" lon="18.24475">
        <ele>28.193881</ele>
        <time>2020-08-29T08:01:04.216Z</time>
      </trkpt>
      <trkpt lat="62.9537" lon="18.24468">
        <ele>28.790228</ele>
        <time>2020-08-29T08:01:11.924Z</time>
      </trkpt>
      <trkpt lat="62.95349" lon="18.24476">
        <ele>29.18709</ele>
        <time>2020-08-29T08:01:17.081Z</time>
      </trkpt>
      <trkpt lat="62.9519" lon="18.24594">
        <ele>32.974831</ele>
        <time>2020-08-29T08:01:59.586Z</time>
      </trkpt>
      <trkpt lat="62.95111" lon="18.24624">
        <ele>34.748559</ele>
        <time>2020-08-29T08:02:20.705Z</time>
      </trkpt>
      <trkpt lat="62.9509" lon="18.24646">
        <ele>35.133394</ele>
        <time>2020-08-29T08:02:26.727Z</time>
      </trkpt>
      <trkpt lat="62.95065" lon="18.24679">
        <ele>35.600808</ele>
        <time>2020-08-29T08:02:33.802Z</time>
      </trkpt>
      <trkpt lat="62.95049" lon="18.24722">
        <ele>36.013849</ele>
        <time>2020-08-29T08:02:39.765Z</time>
      </trkpt>
      <trkpt lat="62.95012" lon="18.24884">
        <ele>37.307999</ele>
        <time>2020-08-29T08:02:57.306Z</time>
      </trkpt>
      <trkpt lat="62.9498" lon="18.24971">
        <ele>37.32213</ele>
        <time>2020-08-29T08:03:07.073Z</time>
      </trkpt>
      <trkpt lat="62.94956" lon="18.25012">
        <ele>37.330529</ele>
        <time>2020-08-29T08:03:12.550Z</time>
      </trkpt>
      <trkpt lat="62.94895" lon="18.25068">
        <ele>37.348702</ele>
        <time>2020-08-29T08:03:23.855Z</time>
      </trkpt>
      <trkpt lat="62.94715" lon="18.25167">
        <ele>36.030459</ele>
        <time>2020-08-29T08:03:54.022Z</time>
      </trkpt>
      <trkpt lat="62.94594" lon="18.25207">
        <ele>32.977462</ele>
        <time>2020-08-29T08:04:11.389Z</time>
      </trkpt>
      <trkpt lat="62.94534" lon="18.25218">
        <ele>31.224363</ele>
        <time>2020-08-29T08:04:18.929Z</time>
      </trkpt>
      <trkpt lat="62.94441" lon="18.25202">
        <ele>27.613637</ele>
        <time>2020-08-29T08:04:30.328Z</time>
      </trkpt>
      <trkpt lat="62.94422" lon="18.25211">
        <ele>26.803004</ele>
        <time>2020-08-29T08:04:32.680Z</time>
      </trkpt>
      <trkpt lat="62.94416" lon="18.25182">
        <ele>26.200324</ele>
        <time>2020-08-29T08:04:34.498Z</time>
      </trkpt>
      <trkpt lat="62.94407" lon="18.25155">
        <ele>25.561603</ele>
        <time>2020-08-29T08:04:36.416Z</time>
      </trkpt>
      <trkpt lat="62.94395" lon="18.25133">
        <ele>24.915472</ele>
        <time>2020-08-29T08:04:38.348Z</time>
      </trkpt>
      <trkpt lat="62.94375" lon="18.25107">
        <ele>23.930763</ele>
        <time>2020-08-29T08:04:41.339Z</time>
      </trkpt>
      <trkpt lat="62.94325" lon="18.25015">
        <ele>22.406257</ele>
        <time>2020-08-29T08:04:49.813Z</time>
      </trkpt>
      <trkpt lat="62.942" lon="18.24711">
        <ele>20.158508</ele>
        <time>2020-08-29T08:05:19.346Z</time>
      </trkpt>
      <trkpt lat="62.94168" lon="18.24646">
        <ele>20.005173</ele>
        <time>2020-08-29T08:05:26.973Z</time>
      </trkpt>
      <trkpt lat="62.94132" lon="18.24598">
        <ele>19.858667</ele>
        <time>2020-08-29T08:05:34.253Z</time>
      </trkpt>
      <trkpt lat="62.93981" lon="18.24453">
        <ele>19.659923</ele>
        <time>2020-08-29T08:06:02.834Z</time>
      </trkpt>
      <trkpt lat="62.93941" lon="18.24376">
        <ele>19.637579</ele>
        <time>2020-08-29T08:06:12.297Z</time>
      </trkpt>
      <trkpt lat="62.93882" lon="18.24211">
        <ele>20.329297</ele>
        <time>2020-08-29T08:06:30.759Z</time>
      </trkpt>
      <trkpt lat="62.93862" lon="18.24152">
        <ele>20.586687</ele>
        <time>2020-08-29T08:06:37.996Z</time>
      </trkpt>
      <trkpt lat="62.93801" lon="18.23969">
        <ele>21.626299</ele>
        <time>2020-08-29T08:07:00.356Z</time>
      </trkpt>
      <trkpt lat="62.93776" lon="18.239">
        <ele>22.143166</ele>
        <time>2020-08-29T08:07:09.174Z</time>
      </trkpt>
      <trkpt lat="62.93767" lon="18.23878">
        <ele>22.311488</ele>
        <time>2020-08-29T08:07:12.124Z</time>
      </trkpt>
      <trkpt lat="62.9373" lon="18.238">
        <ele>22.975229</ele>
        <time>2020-08-29T08:07:23.572Z</time>
      </trkpt>
      <trkpt lat="62.93676" lon="18.23716">
        <ele>24.154766</ele>
        <time>2020-08-29T08:07:38.112Z</time>
      </trkpt>
      <trkpt lat="62.93652" lon="18.23676">
        <ele>24.797384</ele>
        <time>2020-08-29T08:07:44.650Z</time>
      </trkpt>
      <trkpt lat="62.93614" lon="18.23591">
        <ele>25.964916</ele>
        <time>2020-08-29T08:07:57.435Z</time>
      </trkpt>
      <trkpt lat="62.93562" lon="18.23456">
        <ele>28.270982</ele>
        <time>2020-08-29T08:08:19.933Z</time>
      </trkpt>
      <trkpt lat="62.93544" lon="18.23412">
        <ele>29.505687</ele>
        <time>2020-08-29T08:08:28.173Z</time>
      </trkpt>
      <trkpt lat="62.93516" lon="18.23342">
        <ele>31.464388</ele>
        <time>2020-08-29T08:08:43.074Z</time>
      </trkpt>
      <trkpt lat="62.93483" lon="18.23247">
        <ele>33.948788</ele>
        <time>2020-08-29T08:09:00.898Z</time>
      </trkpt>
      <trkpt lat="62.93479" lon="18.2323">
        <ele>34.357116</ele>
        <time>2020-08-29T08:09:04.148Z</time>
      </trkpt>
      <trkpt lat="62.93474" lon="18.23212">
        <ele>34.79765</ele>
        <time>2020-08-29T08:09:08.296Z</time>
      </trkpt>
      <trkpt lat="62.93462" lon="18.2314">
        <ele>36.152056</ele>
        <time>2020-08-29T08:09:20.408Z</time>
      </trkpt>
      <trkpt lat="62.93465" lon="18.23029">
        <ele>37.885615</ele>
        <time>2020-08-29T08:09:36.727Z</time>
      </trkpt>
      <trkpt lat="62.93531" lon="18.22686">
        <ele>41.731552</ele>
        <time>2020-08-29T08:10:20.225Z</time>
      </trkpt>
      <trkpt lat="62.93536" lon="18.22642">
        <ele>41.767169</ele>
        <time>2020-08-29T08:10:23.752Z</time>
      </trkpt>
      <trkpt lat="62.93537" lon="18.22548">
        <ele>41.840887</ele>
        <time>2020-08-29T08:10:30.724Z</time>
      </trkpt>
      <trkpt lat="62.93525" lon="18.22376">
        <ele>41.581331</ele>
        <time>2020-08-29T08:10:42.500Z</time>
      </trkpt>
      <trkpt lat="62.93516" lon="18.22313">
        <ele>41.13005</ele>
        <time>2020-08-29T08:10:46.682Z</time>
      </trkpt>
      <trkpt lat="62.93463" lon="18.22104">
        <ele>39.482497</ele>
        <time>2020-08-29T08:11:02.451Z</time>
      </trkpt>
      <trkpt lat="62.93456" lon="18.22082">
        <ele>39.291424</ele>
        <time>2020-08-29T08:11:04.203Z</time>
      </trkpt>
      <trkpt lat="62.93438" lon="18.22031">
        <ele>39.093529</ele>
        <time>2020-08-29T08:11:09.029Z</time>
      </trkpt>
      <trkpt lat="62.93389" lon="18.21928">
        <ele>38.746362</ele>
        <time>2020-08-29T08:11:20.442Z</time>
      </trkpt>
      <trkpt lat="62.93306" lon="18.21808">
        <ele>38.19265</ele>
        <time>2020-08-29T08:11:37.642Z</time>
      </trkpt>
      <trkpt lat="62.92865" lon="18.21311">
        <ele>34.04928</ele>
        <time>2020-08-29T08:12:54.842Z</time>
      </trkpt>
      <trkpt lat="62.92786" lon="18.21249">
        <ele>34.439274</ele>
        <time>2020-08-29T08:13:09.377Z</time>
      </trkpt>
      <trkpt lat="62.92591" lon="18.21185">
        <ele>39.03256</ele>
        <time>2020-08-29T08:13:55.915Z</time>
      </trkpt>
      <trkpt lat="62.92556" lon="18.21153">
        <ele>40.744586</ele>
        <time>2020-08-29T08:14:08.736Z</time>
      </trkpt>
      <trkpt lat="62.92533" lon="18.21119">
        <ele>41.973056</ele>
        <time>2020-08-29T08:14:18.757Z</time>
      </trkpt>
      <trkpt lat="62.92508" lon="18.21068">
        <ele>43.491159</ele>
        <time>2020-08-29T08:14:32.092Z</time>
      </trkpt>
      <trkpt lat="62.92487" lon="18.21004">
        <ele>45.789415</ele>
        <time>2020-08-29T08:14:47.275Z</time>
      </trkpt>
      <trkpt lat="62.9243" lon="18.20685">
        <ele>57.240325</ele>
        <time>2020-08-29T08:15:54.420Z</time>
      </trkpt>
      <trkpt lat="62.92389" lon="18.20546">
        <ele>59.833639</ele>
        <time>2020-08-29T08:16:20.164Z</time>
      </trkpt>
      <trkpt lat="62.9234" lon="18.20439">
        <ele>62.225786</ele>
        <time>2020-08-29T08:16:38.719Z</time>
      </trkpt>
      <trkpt lat="62.92218" lon="18.20268">
        <ele>63.374433</ele>
        <time>2020-08-29T08:17:05.180Z</time>
      </trkpt>
      <trkpt lat="62.92181" lon="18.20197">
        <ele>63.350093</ele>
        <time>2020-08-29T08:17:13.007Z</time>
      </trkpt>
      <trkpt lat="62.92141" lon="18.20088">
        <ele>63.264217</ele>
        <time>2020-08-29T08:17:23.321Z</time>
      </trkpt>
      <trkpt lat="62.9213" lon="18.20028">
        <ele>63.212352</ele>
        <time>2020-08-29T08:17:28.012Z</time>
      </trkpt>
      <trkpt lat="62.92124" lon="18.19958">
        <ele>63.155459</ele>
        <time>2020-08-29T08:17:33.432Z</time>
      </trkpt>
      <trkpt lat="62.92121" lon="18.19829">
        <ele>63.052332</ele>
        <time>2020-08-29T08:17:43.971Z</time>
      </trkpt>
      <trkpt lat="62.92125" lon="18.19731">
        <ele>63.552966</ele>
        <time>2020-08-29T08:17:53.086Z</time>
      </trkpt>
      <trkpt lat="62.92128" lon="18.19696">
        <ele>63.854051</ele>
        <time>2020-08-29T08:17:56.279Z</time>
      </trkpt>
      <trkpt lat="62.92132" lon="18.1966">
        <ele>64.172125</ele>
        <time>2020-08-29T08:18:00.301Z</time>
      </trkpt>
      <trkpt lat="62.92159" lon="18.19508">
        <ele>65.558287</ele>
        <time>2020-08-29T08:18:18.123Z</time>
      </trkpt>
      <trkpt lat="62.9225" lon="18.19092">
        <ele>71.398549</ele>
        <time>2020-08-29T08:19:17.113Z</time>
      </trkpt>
      <trkpt lat="62.92331" lon="18.18562">
        <ele>77.146537</ele>
        <time>2020-08-29T08:20:22.420Z</time>
      </trkpt>
      <trkpt lat="62.92346" lon="18.18432">
        <ele>78.007891</ele>
        <time>2020-08-29T08:20:35.628Z</time>
      </trkpt>
      <trkpt lat="62.92344" lon="18.18297">
        <ele>78.832032</ele>
        <time>2020-08-29T08:20:47.944Z</time>
      </trkpt>
      <trkpt lat="62.92328" lon="18.18188">
        <ele>78.897948</ele>
        <time>2020-08-29T08:20:57.627Z</time>
      </trkpt>
      <trkpt lat="62.92304" lon="18.18102">
        <ele>78.956862</ele>
        <time>2020-08-29T08:21:05.997Z</time>
      </trkpt>
      <trkpt lat="62.92236" lon="18.17922">
        <ele>79.244597</ele>
        <time>2020-08-29T08:21:24.530Z</time>
      </trkpt>
      <trkpt lat="62.92217" lon="18.17818">
        <ele>79.595527</ele>
        <time>2020-08-29T08:21:33.891Z</time>
      </trkpt>
      <trkpt lat="62.92214" lon="18.17778">
        <ele>79.720423</ele>
        <time>2020-08-29T08:21:37.345Z</time>
      </trkpt>
      <trkpt lat="62.92176" lon="18.17783">
        <ele>79.978566</ele>
        <time>2020-08-29T08:21:44.866Z</time>
      </trkpt>
      <trkpt lat="62.92124" lon="18.17776">
        <ele>80.581018</ele>
        <time>2020-08-29T08:21:56.495Z</time>
      </trkpt>
      <trkpt lat="62.9206" lon="18.17721">
        <ele>83.282289</ele>
        <time>2020-08-29T08:22:14.589Z</time>
      </trkpt>
      <trkpt lat="62.92024" lon="18.17669">
        <ele>84.997027</ele>
        <time>2020-08-29T08:22:28.150Z</time>
      </trkpt>
      <trkpt lat="62.91991" lon="18.17597">
        <ele>86.824267</ele>
        <time>2020-08-29T08:22:44.289Z</time>
      </trkpt>
      <trkpt lat="62.91921" lon="18.1731">
        <ele>95.909309</ele>
        <time>2020-08-29T08:23:42.376Z</time>
      </trkpt>
      <trkpt lat="62.91897" lon="18.17089">
        <ele>101.775569</ele>
        <time>2020-08-29T08:24:21.062Z</time>
      </trkpt>
      <trkpt lat="62.91873" lon="18.16953">
        <ele>105.197948</ele>
        <time>2020-08-29T08:24:43.434Z</time>
      </trkpt>
      <trkpt lat="62.91841" lon="18.16844">
        <ele>108.219688</ele>
        <time>2020-08-29T08:25:02.240Z</time>
      </trkpt>
      <trkpt lat="62.91811" lon="18.16784">
        <ele>110.194167</ele>
        <time>2020-08-29T08:25:14.981Z</time>
      </trkpt>
      <trkpt lat="62.91761" lon="18.16704">
        <ele>113.231699</ele>
        <time>2020-08-29T08:25:35.163Z</time>
      </trkpt>
      <trkpt lat="62.91708" lon="18.16645">
        <ele>116.172696</ele>
        <time>2020-08-29T08:25:55.855Z</time>
      </trkpt>
      <trkpt lat="62.91641" lon="18.1662">
        <ele>119.898608</ele>
        <time>2020-08-29T08:26:20.429Z</time>
      </trkpt>
      <trkpt lat="62.91396" lon="18.16702">
        <ele>132.687445</ele>
        <time>2020-08-29T08:27:50.233Z</time>
      </trkpt>
      <trkpt lat="62.91374" lon="18.16706">
        <ele>133.712713</ele>
        <time>2020-08-29T08:27:56.812Z</time>
      </trkpt>
      <trkpt lat="62.91333" lon="18.16697">
        <ele>135.333308</ele>
        <time>2020-08-29T08:28:07.834Z</time>
      </trkpt>
      <trkpt lat="62.91297" lon="18.16676">
        <ele>135.058435</ele>
        <time>2020-08-29T08:28:15.662Z</time>
      </trkpt>
      <trkpt lat="62.91268" lon="18.16646">
        <ele>134.815138</ele>
        <time>2020-08-29T08:28:21.365Z</time>
      </trkpt>
      <trkpt lat="62.91233" lon="18.16578">
        <ele>134.469829</ele>
        <time>2020-08-29T08:28:28.415Z</time>
      </trkpt>
      <trkpt lat="62.91212" lon="18.16514">
        <ele>134.205241</ele>
        <time>2020-08-29T08:28:33.348Z</time>
      </trkpt>
      <trkpt lat="62.91208" lon="18.16498">
        <ele>134.144635</ele>
        <time>2020-08-29T08:28:34.383Z</time>
      </trkpt>
      <trkpt lat="62.91197" lon="18.16456">
        <ele>133.753762</ele>
        <time>2020-08-29T08:28:37.341Z</time>
      </trkpt>
      <trkpt lat="62.91157" lon="18.16346">
        <ele>131.146832</ele>
        <time>2020-08-29T08:28:45.566Z</time>
      </trkpt>
      <trkpt lat="62.91135" lon="18.16308">
        <ele>130.022386</ele>
        <time>2020-08-29T08:28:49.022Z</time>
      </trkpt>
      <trkpt lat="62.90885" lon="18.16001">
        <ele>117.379674</ele>
        <time>2020-08-29T08:29:24.285Z</time>
      </trkpt>
      <trkpt lat="62.90821" lon="18.15893">
        <ele>113.419427</ele>
        <time>2020-08-29T08:29:34.224Z</time>
      </trkpt>
      <trkpt lat="62.90792" lon="18.15818">
        <ele>111.222072</ele>
        <time>2020-08-29T08:29:39.666Z</time>
      </trkpt>
      <trkpt lat="62.90761" lon="18.15692">
        <ele>107.564314</ele>
        <time>2020-08-29T08:29:47.469Z</time>
      </trkpt>
      <trkpt lat="62.90709" lon="18.15305">
        <ele>95.669877</ele>
        <time>2020-08-29T08:30:08.920Z</time>
      </trkpt>
      <trkpt lat="62.9068" lon="18.15161">
        <ele>90.454659</ele>
        <time>2020-08-29T08:30:17.010Z</time>
      </trkpt>
      <trkpt lat="62.90633" lon="18.15022">
        <ele>84.651696</ele>
        <time>2020-08-29T08:30:25.981Z</time>
      </trkpt>
      <trkpt lat="62.90525" lon="18.14815">
        <ele>74.430688</ele>
        <time>2020-08-29T08:30:42.311Z</time>
      </trkpt>
      <trkpt lat="62.905" lon="18.14742">
        <ele>71.748933</ele>
        <time>2020-08-29T08:30:47.165Z</time>
      </trkpt>
      <trkpt lat="62.90481" lon="18.14618">
        <ele>68.561501</ele>
        <time>2020-08-29T08:30:54.206Z</time>
      </trkpt>
      <trkpt lat="62.90478" lon="18.14551">
        <ele>66.889425</ele>
        <time>2020-08-29T08:30:57.966Z</time>
      </trkpt>
      <trkpt lat="62.9048" lon="18.14395">
        <ele>63.076824</ele>
        <time>2020-08-29T08:31:06.649Z</time>
      </trkpt>
      <trkpt lat="62.90468" lon="18.14256">
        <ele>59.717561</ele>
        <time>2020-08-29T08:31:14.514Z</time>
      </trkpt>
      <trkpt lat="62.90446" lon="18.14154">
        <ele>57.032915</ele>
        <time>2020-08-29T08:31:20.748Z</time>
      </trkpt>
      <trkpt lat="62.90418" lon="18.14073">
        <ele>54.64483</ele>
        <time>2020-08-29T08:31:26.241Z</time>
      </trkpt>
      <trkpt lat="62.90396" lon="18.14024">
        <ele>52.912973</ele>
        <time>2020-08-29T08:31:30.000Z</time>
      </trkpt>
      <trkpt lat="62.90368" lon="18.13983">
        <ele>50.91753</ele>
        <time>2020-08-29T08:31:33.933Z</time>
      </trkpt>
      <trkpt lat="62.90306" lon="18.13931">
        <ele>46.935083</ele>
        <time>2020-08-29T08:31:41.672Z</time>
      </trkpt>
      <trkpt lat="62.90233" lon="18.13926">
        <ele>42.685181</ele>
        <time>2020-08-29T08:31:50.187Z</time>
      </trkpt>
      <trkpt lat="62.90198" lon="18.13943">
        <ele>41.582196</ele>
        <time>2020-08-29T08:31:54.591Z</time>
      </trkpt>
      <trkpt lat="62.90181" lon="18.13957">
        <ele>41.03092</ele>
        <time>2020-08-29T08:31:56.772Z</time>
      </trkpt>
      <trkpt lat="62.90138" lon="18.13996">
        <ele>39.645336</ele>
        <time>2020-08-29T08:32:02.585Z</time>
      </trkpt>
      <trkpt lat="62.8983" lon="18.14308">
        <ele>36.629557</ele>
        <time>2020-08-29T08:32:58.790Z</time>
      </trkpt>
      <trkpt lat="62.89657" lon="18.14439">
        <ele>36.275065</ele>
        <time>2020-08-29T08:33:35.590Z</time>
      </trkpt>
      <trkpt lat="62.89629" lon="18.14451">
        <ele>36.11006</ele>
        <time>2020-08-29T08:33:40.017Z</time>
      </trkpt>
      <trkpt lat="62.896" lon="18.14449">
        <ele>35.939596</ele>
        <time>2020-08-29T08:33:44.394Z</time>
      </trkpt>
      <trkpt lat="62.89583" lon="18.1444">
        <ele>35.835349</ele>
        <time>2020-08-29T08:33:46.982Z</time>
      </trkpt>
      <trkpt lat="62.89554" lon="18.14417">
        <ele>35.512549</ele>
        <time>2020-08-29T08:33:50.901Z</time>
      </trkpt>
      <trkpt lat="62.89502" lon="18.14366">
        <ele>34.542274</ele>
        <time>2020-08-29T08:33:58.794Z</time>
      </trkpt>
      <trkpt lat="62.89446" lon="18.14262">
        <ele>33.304329</ele>
        <time>2020-08-29T08:34:09.081Z</time>
      </trkpt>
      <trkpt lat="62.89435" lon="18.14241">
        <ele>33.06438</ele>
        <time>2020-08-29T08:34:10.965Z</time>
      </trkpt>
      <trkpt lat="62.89401" lon="18.14108">
        <ele>33.7562</ele>
        <time>2020-08-29T08:34:24.618Z</time>
      </trkpt>
      <trkpt lat="62.8938" lon="18.13966">
        <ele>35.251118</ele>
        <time>2020-08-29T08:34:41.886Z</time>
      </trkpt>
      <trkpt lat="62.89374" lon="18.13875">
        <ele>36.166635</ele>
        <time>2020-08-29T08:34:54.846Z</time>
      </trkpt>
      <trkpt lat="62.89376" lon="18.13812">
        <ele>36.820265</ele>
        <time>2020-08-29T08:35:03.853Z</time>
      </trkpt>
      <trkpt lat="62.89414" lon="18.13602">
        <ele>39.46913</ele>
        <time>2020-08-29T08:35:34.130Z</time>
      </trkpt>
      <trkpt lat="62.89435" lon="18.13539">
        <ele>40.365833</ele>
        <time>2020-08-29T08:35:42.565Z</time>
      </trkpt>
      <trkpt lat="62.8947" lon="18.13468">
        <ele>40.994599</ele>
        <time>2020-08-29T08:35:51.945Z</time>
      </trkpt>
      <trkpt lat="62.89478" lon="18.13436">
        <ele>40.653569</ele>
        <time>2020-08-29T08:35:54.848Z</time>
      </trkpt>
      <trkpt lat="62.89479" lon="18.13417">
        <ele>40.478814</ele>
        <time>2020-08-29T08:35:56.716Z</time>
      </trkpt>
      <trkpt lat="62.8948" lon="18.13394">
        <ele>40.26516</ele>
        <time>2020-08-29T08:35:58.196Z</time>
      </trkpt>
      <trkpt lat="62.89475" lon="18.13355">
        <ele>39.899378</ele>
        <time>2020-08-29T08:36:00.971Z</time>
      </trkpt>
      <trkpt lat="62.89461" lon="18.13306">
        <ele>39.366271</ele>
        <time>2020-08-29T08:36:04.694Z</time>
      </trkpt>
      <trkpt lat="62.89355" lon="18.13043">
        <ele>35.360886</ele>
        <time>2020-08-29T08:36:25.269Z</time>
      </trkpt>
      <trkpt lat="62.89327" lon="18.12939">
        <ele>33.670511</ele>
        <time>2020-08-29T08:36:32.343Z</time>
      </trkpt>
      <trkpt lat="62.89306" lon="18.12797">
        <ele>32.010154</ele>
        <time>2020-08-29T08:36:41.691Z</time>
      </trkpt>
      <trkpt lat="62.89292" lon="18.12581">
        <ele>31.43901</ele>
        <time>2020-08-29T08:36:57.222Z</time>
      </trkpt>
      <trkpt lat="62.89287" lon="18.12495">
        <ele>31.210812</ele>
        <time>2020-08-29T08:37:04.651Z</time>
      </trkpt>
      <trkpt lat="62.89287" lon="18.12488">
        <ele>31.191771</ele>
        <time>2020-08-29T08:37:05.361Z</time>
      </trkpt>
      <trkpt lat="62.8926" lon="18.12235">
        <ele>32.61456</ele>
        <time>2020-08-29T08:37:31.856Z</time>
      </trkpt>
      <trkpt lat="62.89217" lon="18.11988">
        <ele>34.266834</ele>
        <time>2020-08-29T08:38:01.039Z</time>
      </trkpt>
      <trkpt lat="62.89182" lon="18.11856">
        <ele>34.926283</ele>
        <time>2020-08-29T08:38:16.919Z</time>
      </trkpt>
      <trkpt lat="62.89119" lon="18.11669">
        <ele>34.965305</ele>
        <time>2020-08-29T08:38:35.597Z</time>
      </trkpt>
      <trkpt lat="62.89099" lon="18.11623">
        <ele>34.423556</ele>
        <time>2020-08-29T08:38:39.906Z</time>
      </trkpt>
      <trkpt lat="62.89056" lon="18.11549">
        <ele>33.398818</ele>
        <time>2020-08-29T08:38:47.898Z</time>
      </trkpt>
      <trkpt lat="62.89049" lon="18.11541">
        <ele>33.251695</ele>
        <time>2020-08-29T08:38:48.838Z</time>
      </trkpt>
      <trkpt lat="62.89034" lon="18.11522">
        <ele>32.931356</ele>
        <time>2020-08-29T08:38:51.261Z</time>
      </trkpt>
      <trkpt lat="62.89004" lon="18.11495">
        <ele>32.331161</ele>
        <time>2020-08-29T08:38:55.474Z</time>
      </trkpt>
      <trkpt lat="62.88985" lon="18.11482">
        <ele>31.616205</ele>
        <time>2020-08-29T08:38:58.039Z</time>
      </trkpt>
      <trkpt lat="62.88971" lon="18.11472">
        <ele>30.997466</ele>
        <time>2020-08-29T08:38:59.902Z</time>
      </trkpt>
      <trkpt lat="62.88736" lon="18.11374">
        <ele>20.948435</ele>
        <time>2020-08-29T08:39:29.612Z</time>
      </trkpt>
      <trkpt lat="62.88711" lon="18.11352">
        <ele>19.833117</ele>
        <time>2020-08-29T08:39:32.837Z</time>
      </trkpt>
      <trkpt lat="62.88691" lon="18.11326">
        <ele>18.824878</ele>
        <time>2020-08-29T08:39:35.780Z</time>
      </trkpt>
      <trkpt lat="62.88641" lon="18.11247">
        <ele>16.577514</ele>
        <time>2020-08-29T08:39:43.576Z</time>
      </trkpt>
      <trkpt lat="62.88591" lon="18.11121">
        <ele>14.605776</ele>
        <time>2020-08-29T08:39:53.546Z</time>
      </trkpt>
      <trkpt lat="62.88554" lon="18.1098">
        <ele>12.702093</ele>
        <time>2020-08-29T08:40:04.235Z</time>
      </trkpt>
      <trkpt lat="62.88531" lon="18.10842">
        <ele>12.041583</ele>
        <time>2020-08-29T08:40:14.494Z</time>
      </trkpt>
      <trkpt lat="62.88524" lon="18.1079">
        <ele>11.851303</ele>
        <time>2020-08-29T08:40:18.296Z</time>
      </trkpt>
      <trkpt lat="62.88521" lon="18.10769">
        <ele>11.772122</ele>
        <time>2020-08-29T08:40:20.047Z</time>
      </trkpt>
      <trkpt lat="62.88491" lon="18.10543">
        <ele>11.114646</ele>
        <time>2020-08-29T08:40:37.999Z</time>
      </trkpt>
      <trkpt lat="62.88472" lon="18.10441">
        <ele>11.133081</ele>
        <time>2020-08-29T08:40:46.856Z</time>
      </trkpt>
      <trkpt lat="62.88448" lon="18.10349">
        <ele>11.150665</ele>
        <time>2020-08-29T08:40:55.694Z</time>
      </trkpt>
      <trkpt lat="62.88403" lon="18.10234">
        <ele>11.21358</ele>
        <time>2020-08-29T08:41:08.479Z</time>
      </trkpt>
      <trkpt lat="62.88389" lon="18.10207">
        <ele>11.293795</ele>
        <time>2020-08-29T08:41:11.804Z</time>
      </trkpt>
      <trkpt lat="62.88373" lon="18.10175">
        <ele>11.389678</ele>
        <time>2020-08-29T08:41:16.023Z</time>
      </trkpt>
      <trkpt lat="62.88272" lon="18.09999">
        <ele>11.959143</ele>
        <time>2020-08-29T08:41:41.142Z</time>
      </trkpt>
      <trkpt lat="62.88207" lon="18.09945">
        <ele>12.301643</ele>
        <time>2020-08-29T08:41:54.997Z</time>
      </trkpt>
      <trkpt lat="62.88177" lon="18.09929">
        <ele>12.456454</ele>
        <time>2020-08-29T08:42:01.111Z</time>
      </trkpt>
      <trkpt lat="62.88164" lon="18.09925">
        <ele>12.520723</ele>
        <time>2020-08-29T08:42:03.686Z</time>
      </trkpt>
      <trkpt lat="62.88135" lon="18.09916">
        <ele>12.665359</ele>
        <time>2020-08-29T08:42:09.261Z</time>
      </trkpt>
      <trkpt lat="62.88112" lon="18.09904">
        <ele>12.785182</ele>
        <time>2020-08-29T08:42:13.825Z</time>
      </trkpt>
      <trkpt lat="62.88091" lon="18.09889">
        <ele>12.8509</ele>
        <time>2020-08-29T08:42:18.048Z</time>
      </trkpt>
      <trkpt lat="62.87909" lon="18.09713">
        <ele>12.57995</ele>
        <time>2020-08-29T08:42:52.724Z</time>
      </trkpt>
      <trkpt lat="62.87833" lon="18.0962">
        <ele>12.214333</ele>
        <time>2020-08-29T08:43:06.829Z</time>
      </trkpt>
      <trkpt lat="62.87788" lon="18.09547">
        <ele>11.978009</ele>
        <time>2020-08-29T08:43:16.078Z</time>
      </trkpt>
      <trkpt lat="62.87734" lon="18.09391">
        <ele>11.915712</ele>
        <time>2020-08-29T08:43:31.415Z</time>
      </trkpt>
      <trkpt lat="62.87685" lon="18.09198">
        <ele>11.893882</ele>
        <time>2020-08-29T08:43:49.982Z</time>
      </trkpt>
      <trkpt lat="62.87667" lon="18.09141">
        <ele>11.744049</ele>
        <time>2020-08-29T08:43:55.919Z</time>
      </trkpt>
      <trkpt lat="62.87637" lon="18.09071">
        <ele>11.533115</ele>
        <time>2020-08-29T08:44:03.816Z</time>
      </trkpt>
      <trkpt lat="62.87597" lon="18.09001">
        <ele>11.28811</ele>
        <time>2020-08-29T08:44:12.270Z</time>
      </trkpt>
      <trkpt lat="62.8757" lon="18.08963">
        <ele>11.137499</ele>
        <time>2020-08-29T08:44:17.139Z</time>
      </trkpt>
      <trkpt lat="62.8753" lon="18.08912">
        <ele>10.625163</ele>
        <time>2020-08-29T08:44:24.099Z</time>
      </trkpt>
      <trkpt lat="62.87512" lon="18.08894">
        <ele>10.286548</ele>
        <time>2020-08-29T08:44:27.059Z</time>
      </trkpt>
      <trkpt lat="62.87492" lon="18.08875">
        <ele>9.931474</ele>
        <time>2020-08-29T08:44:30.197Z</time>
      </trkpt>
      <trkpt lat="62.87459" lon="18.08847">
        <ele>9.342202</ele>
        <time>2020-08-29T08:44:35.267Z</time>
      </trkpt>
      <trkpt lat="62.87444" lon="18.08837">
        <ele>9.080826</ele>
        <time>2020-08-29T08:44:37.463Z</time>
      </trkpt>
      <trkpt lat="62.87412" lon="18.08813">
        <ele>8.514765</ele>
        <time>2020-08-29T08:44:42.236Z</time>
      </trkpt>
      <trkpt lat="62.87361" lon="18.08776">
        <ele>7.771743</ele>
        <time>2020-08-29T08:44:49.898Z</time>
      </trkpt>
      <trkpt lat="62.8728" lon="18.08714">
        <ele>6.852622</ele>
        <time>2020-08-29T08:45:02.708Z</time>
      </trkpt>
      <trkpt lat="62.87226" lon="18.0867">
        <ele>6.2431</ele>
        <time>2020-08-29T08:45:11.993Z</time>
      </trkpt>
      <trkpt lat="62.8721" lon="18.08656">
        <ele>6.149921</ele>
        <time>2020-08-29T08:45:15.186Z</time>
      </trkpt>
      <trkpt lat="62.87158" lon="18.08615">
        <ele>6.447967</ele>
        <time>2020-08-29T08:45:25.250Z</time>
      </trkpt>
      <trkpt lat="62.8714" lon="18.08568">
        <ele>6.595607</ele>
        <time>2020-08-29T08:45:30.668Z</time>
      </trkpt>
      <trkpt lat="62.87133" lon="18.08539">
        <ele>6.678591</ele>
        <time>2020-08-29T08:45:33.652Z</time>
      </trkpt>
      <trkpt lat="62.87141" lon="18.08521">
        <ele>6.742724</ele>
        <time>2020-08-29T08:45:36.180Z</time>
      </trkpt>
      <trkpt lat="62.87151" lon="18.08492">
        <ele>6.831086</ele>
        <time>2020-08-29T08:45:39.430Z</time>
      </trkpt>
      <trkpt lat="62.87159" lon="18.08454">
        <ele>6.932747</ele>
        <time>2020-08-29T08:45:43.423Z</time>
      </trkpt>
      <trkpt lat="62.87177" lon="18.08359">
        <ele>7.317118</ele>
        <time>2020-08-29T08:45:53.488Z</time>
      </trkpt>
      <trkpt lat="62.87206" lon="18.08152">
        <ele>8.52383</ele>
        <time>2020-08-29T08:46:15.652Z</time>
      </trkpt>
      <trkpt lat="62.87214" lon="18.08054">
        <ele>9.079857</ele>
        <time>2020-08-29T08:46:25.495Z</time>
      </trkpt>
      <trkpt lat="62.87213" lon="18.0793">
        <ele>9.403705</ele>
        <time>2020-08-29T08:46:37.195Z</time>
      </trkpt>
      <trkpt lat="62.87212" lon="18.07914">
        <ele>9.424756</ele>
        <time>2020-08-29T08:46:38.852Z</time>
      </trkpt>
      <trkpt lat="62.8721" lon="18.07898">
        <ele>9.445114</ele>
        <time>2020-08-29T08:46:40.315Z</time>
      </trkpt>
      <trkpt lat="62.87208" lon="18.07877">
        <ele>9.473521</ele>
        <time>2020-08-29T08:46:42.296Z</time>
      </trkpt>
      <trkpt lat="62.87206" lon="18.07858">
        <ele>9.498333</ele>
        <time>2020-08-29T08:46:43.952Z</time>
      </trkpt>
      <trkpt lat="62.87176" lon="18.0763">
        <ele>9.78411</ele>
        <time>2020-08-29T08:47:03.515Z</time>
      </trkpt>
      <trkpt lat="62.87172" lon="18.07604">
        <ele>9.68347</ele>
        <time>2020-08-29T08:47:05.598Z</time>
      </trkpt>
      <trkpt lat="62.87168" lon="18.07577">
        <ele>9.574384</ele>
        <time>2020-08-29T08:47:07.650Z</time>
      </trkpt>
      <trkpt lat="62.8715" lon="18.07488">
        <ele>9.203151</ele>
        <time>2020-08-29T08:47:14.548Z</time>
      </trkpt>
      <trkpt lat="62.87142" lon="18.07462">
        <ele>9.086927</ele>
        <time>2020-08-29T08:47:16.701Z</time>
      </trkpt>
      <trkpt lat="62.87138" lon="18.0745">
        <ele>9.028815</ele>
        <time>2020-08-29T08:47:17.720Z</time>
      </trkpt>
      <trkpt lat="62.87116" lon="18.0738">
        <ele>8.709128</ele>
        <time>2020-08-29T08:47:23.634Z</time>
      </trkpt>
      <trkpt lat="62.87108" lon="18.07352">
        <ele>8.58174</ele>
        <time>2020-08-29T08:47:26.039Z</time>
      </trkpt>
      <trkpt lat="62.87091" lon="18.07303">
        <ele>8.347737</ele>
        <time>2020-08-29T08:47:30.342Z</time>
      </trkpt>
      <trkpt lat="62.87057" lon="18.07186">
        <ele>8.061255</ele>
        <time>2020-08-29T08:47:40.358Z</time>
      </trkpt>
      <trkpt lat="62.87041" lon="18.07054">
        <ele>7.802385</ele>
        <time>2020-08-29T08:47:50.764Z</time>
      </trkpt>
      <trkpt lat="62.87069" lon="18.06731">
        <ele>7.541072</ele>
        <time>2020-08-29T08:48:17.892Z</time>
      </trkpt>
      <trkpt lat="62.87072" lon="18.06651">
        <ele>7.535822</ele>
        <time>2020-08-29T08:48:24.534Z</time>
      </trkpt>
      <trkpt lat="62.8707" lon="18.06588">
        <ele>7.531732</ele>
        <time>2020-08-29T08:48:29.633Z</time>
      </trkpt>
      <trkpt lat="62.87056" lon="18.06464">
        <ele>7.459357</ele>
        <time>2020-08-29T08:48:39.762Z</time>
      </trkpt>
      <trkpt lat="62.87043" lon="18.06389">
        <ele>7.384061</ele>
        <time>2020-08-29T08:48:46.007Z</time>
      </trkpt>
      <trkpt lat="62.87025" lon="18.06317">
        <ele>7.30643</ele>
        <time>2020-08-29T08:48:52.340Z</time>
      </trkpt>
      <trkpt lat="62.86936" lon="18.06052">
        <ele>7.26712</ele>
        <time>2020-08-29T08:49:17.965Z</time>
      </trkpt>
      <trkpt lat="62.86896" lon="18.05907">
        <ele>7.377346</ele>
        <time>2020-08-29T08:49:32.538Z</time>
      </trkpt>
      <trkpt lat="62.86871" lon="18.05796">
        <ele>7.694846</ele>
        <time>2020-08-29T08:49:43.703Z</time>
      </trkpt>
      <trkpt lat="62.86814" lon="18.05414">
        <ele>9.165689</ele>
        <time>2020-08-29T08:50:22.436Z</time>
      </trkpt>
      <trkpt lat="62.86806" lon="18.0537">
        <ele>9.253738</ele>
        <time>2020-08-29T08:50:26.953Z</time>
      </trkpt>
      <trkpt lat="62.86794" lon="18.05319">
        <ele>9.359877</ele>
        <time>2020-08-29T08:50:32.118Z</time>
      </trkpt>
      <trkpt lat="62.86749" lon="18.05214">
        <ele>9.631087</ele>
        <time>2020-08-29T08:50:44.491Z</time>
      </trkpt>
      <trkpt lat="62.86712" lon="18.05163">
        <ele>9.675235</ele>
        <time>2020-08-29T08:50:52.032Z</time>
      </trkpt>
      <trkpt lat="62.86662" lon="18.05123">
        <ele>9.325634</ele>
        <time>2020-08-29T08:51:00.554Z</time>
      </trkpt>
      <trkpt lat="62.86639" lon="18.05113">
        <ele>9.172221</ele>
        <time>2020-08-29T08:51:04.177Z</time>
      </trkpt>
      <trkpt lat="62.86616" lon="18.05102">
        <ele>9.013967</ele>
        <time>2020-08-29T08:51:07.939Z</time>
      </trkpt>
      <trkpt lat="62.86592" lon="18.05089">
        <ele>8.850405</ele>
        <time>2020-08-29T08:51:11.877Z</time>
      </trkpt>
      <trkpt lat="62.86571" lon="18.05076">
        <ele>8.705343</ele>
        <time>2020-08-29T08:51:15.298Z</time>
      </trkpt>
      <trkpt lat="62.86546" lon="18.05053">
        <ele>8.550812</ele>
        <time>2020-08-29T08:51:19.583Z</time>
      </trkpt>
      <trkpt lat="62.86524" lon="18.05029">
        <ele>8.480786</ele>
        <time>2020-08-29T08:51:23.546Z</time>
      </trkpt>
      <trkpt lat="62.86485" lon="18.04966">
        <ele>8.343157</ele>
        <time>2020-08-29T08:51:31.351Z</time>
      </trkpt>
      <trkpt lat="62.86466" lon="18.04928">
        <ele>8.268527</ele>
        <time>2020-08-29T08:51:35.825Z</time>
      </trkpt>
      <trkpt lat="62.86415" lon="18.04805">
        <ele>8.063162</ele>
        <time>2020-08-29T08:51:49.415Z</time>
      </trkpt>
      <trkpt lat="62.86364" lon="18.04672">
        <ele>8.599265</ele>
        <time>2020-08-29T08:52:04.501Z</time>
      </trkpt>
      <trkpt lat="62.86361" lon="18.04659">
        <ele>8.645702</ele>
        <time>2020-08-29T08:52:05.862Z</time>
      </trkpt>
      <trkpt lat="62.86349" lon="18.04629">
        <ele>8.768504</ele>
        <time>2020-08-29T08:52:09.510Z</time>
      </trkpt>
      <trkpt lat="62.8632" lon="18.04555">
        <ele>9.070639</ele>
        <time>2020-08-29T08:52:18.687Z</time>
      </trkpt>
      <trkpt lat="62.86305" lon="18.04505">
        <ele>9.254607</ele>
        <time>2020-08-29T08:52:24.511Z</time>
      </trkpt>
      <trkpt lat="62.86286" lon="18.04432">
        <ele>9.91105</ele>
        <time>2020-08-29T08:52:33.100Z</time>
      </trkpt>
      <trkpt lat="62.86273" lon="18.04373">
        <ele>10.442866</ele>
        <time>2020-08-29T08:52:39.906Z</time>
      </trkpt>
      <trkpt lat="62.86247" lon="18.04247">
        <ele>11.577267</ele>
        <time>2020-08-29T08:52:54.968Z</time>
      </trkpt>
      <trkpt lat="62.86231" lon="18.04162">
        <ele>12.327797</ele>
        <time>2020-08-29T08:53:05.485Z</time>
      </trkpt>
      <trkpt lat="62.86211" lon="18.04074">
        <ele>13.115332</ele>
        <time>2020-08-29T08:53:16.786Z</time>
      </trkpt>
      <trkpt lat="62.86182" lon="18.0397">
        <ele>14.083349</ele>
        <time>2020-08-29T08:53:30.394Z</time>
      </trkpt>
      <trkpt lat="62.86168" lon="18.03921">
        <ele>14.54278</ele>
        <time>2020-08-29T08:53:36.682Z</time>
      </trkpt>
      <trkpt lat="62.86139" lon="18.03814">
        <ele>15.532046</ele>
        <time>2020-08-29T08:53:49.302Z</time>
      </trkpt>
      <trkpt lat="62.86127" lon="18.03769">
        <ele>15.689642</ele>
        <time>2020-08-29T08:53:54.252Z</time>
      </trkpt>
      <trkpt lat="62.86119" lon="18.03728">
        <ele>15.749466</ele>
        <time>2020-08-29T08:53:58.552Z</time>
      </trkpt>
      <trkpt lat="62.86111" lon="18.03678">
        <ele>15.819769</ele>
        <time>2020-08-29T08:54:03.302Z</time>
      </trkpt>
      <trkpt lat="62.86104" lon="18.03628">
        <ele>15.890278</ele>
        <time>2020-08-29T08:54:07.966Z</time>
      </trkpt>
      <trkpt lat="62.86086" lon="18.03515">
        <ele>16.049366</ele>
        <time>2020-08-29T08:54:17.647Z</time>
      </trkpt>
      <trkpt lat="62.86055" lon="18.0331">
        <ele>15.883158</ele>
        <time>2020-08-29T08:54:33.955Z</time>
      </trkpt>
      <trkpt lat="62.86024" lon="18.03098">
        <ele>15.405257</ele>
        <time>2020-08-29T08:54:50.467Z</time>
      </trkpt>
      <trkpt lat="62.85995" lon="18.02899">
        <ele>15.306004</ele>
        <time>2020-08-29T08:55:06.767Z</time>
      </trkpt>
      <trkpt lat="62.85978" lon="18.02793">
        <ele>15.299618</ele>
        <time>2020-08-29T08:55:16.280Z</time>
      </trkpt>
      <trkpt lat="62.85966" lon="18.0274">
        <ele>15.296196</ele>
        <time>2020-08-29T08:55:21.492Z</time>
      </trkpt>
      <trkpt lat="62.85955" lon="18.02698">
        <ele>15.293434</ele>
        <time>2020-08-29T08:55:25.540Z</time>
      </trkpt>
      <trkpt lat="62.85947" lon="18.02662">
        <ele>15.214793</ele>
        <time>2020-08-29T08:55:29.098Z</time>
      </trkpt>
      <trkpt lat="62.85943" lon="18.02644">
        <ele>15.167386</ele>
        <time>2020-08-29T08:55:30.819Z</time>
      </trkpt>
      <trkpt lat="62.85926" lon="18.02551">
        <ele>14.932864</ele>
        <time>2020-08-29T08:55:38.567Z</time>
      </trkpt>
      <trkpt lat="62.85922" lon="18.02522">
        <ele>14.860313</ele>
        <time>2020-08-29T08:55:41.282Z</time>
      </trkpt>
      <trkpt lat="62.85912" lon="18.02527">
        <ele>14.807417</ele>
        <time>2020-08-29T08:55:42.960Z</time>
      </trkpt>
      <trkpt lat="62.8587" lon="18.02521">
        <ele>14.590449</ele>
        <time>2020-08-29T08:55:49.536Z</time>
      </trkpt>
      <trkpt lat="62.85842" lon="18.02494">
        <ele>14.431434</ele>
        <time>2020-08-29T08:55:54.374Z</time>
      </trkpt>
      <trkpt lat="62.85837" lon="18.02489">
        <ele>14.404074</ele>
        <time>2020-08-29T08:55:55.117Z</time>
      </trkpt>
      <trkpt lat="62.85831" lon="18.02499">
        <ele>14.364987</ele>
        <time>2020-08-29T08:55:56.164Z</time>
      </trkpt>
      <trkpt lat="62.85804" lon="18.0252">
        <ele>13.910594</ele>
        <time>2020-08-29T08:56:00.418Z</time>
      </trkpt>
      <trkpt lat="62.85781" lon="18.02516">
        <ele>13.5349</ele>
        <time>2020-08-29T08:56:03.881Z</time>
      </trkpt>
      <trkpt lat="62.8577" lon="18.02508">
        <ele>13.340542</ele>
        <time>2020-08-29T08:56:05.538Z</time>
      </trkpt>
      <trkpt lat="62.85753" lon="18.02496">
        <ele>13.06083</ele>
        <time>2020-08-29T08:56:07.951Z</time>
      </trkpt>
      <trkpt lat="62.85676" lon="18.02403">
        <ele>11.626826</ele>
        <time>2020-08-29T08:56:20.595Z</time>
      </trkpt>
      <trkpt lat="62.85645" lon="18.0235">
        <ele>11.260389</ele>
        <time>2020-08-29T08:56:26.412Z</time>
      </trkpt>
      <trkpt lat="62.85616" lon="18.02279">
        <ele>10.975073</ele>
        <time>2020-08-29T08:56:33.111Z</time>
      </trkpt>
      <trkpt lat="62.85582" lon="18.02164">
        <ele>10.5597</ele>
        <time>2020-08-29T08:56:43.365Z</time>
      </trkpt>
      <trkpt lat="62.85519" lon="18.01807">
        <ele>10.561505</ele>
        <time>2020-08-29T08:57:14.863Z</time>
      </trkpt>
      <trkpt lat="62.85496" lon="18.01706">
        <ele>10.693192</ele>
        <time>2020-08-29T08:57:25.172Z</time>
      </trkpt>
      <trkpt lat="62.85457" lon="18.01601">
        <ele>11.453778</ele>
        <time>2020-08-29T08:57:37.737Z</time>
      </trkpt>
      <trkpt lat="62.85361" lon="18.0143">
        <ele>13.029988</ele>
        <time>2020-08-29T08:58:05.503Z</time>
      </trkpt>
      <trkpt lat="62.85332" lon="18.01347">
        <ele>14.00138</ele>
        <time>2020-08-29T08:58:17.217Z</time>
      </trkpt>
      <trkpt lat="62.85285" lon="18.01164">
        <ele>15.938228</ele>
        <time>2020-08-29T08:58:41.080Z</time>
      </trkpt>
      <trkpt lat="62.85258" lon="18.0109">
        <ele>16.733498</ele>
        <time>2020-08-29T08:58:51.699Z</time>
      </trkpt>
      <trkpt lat="62.85224" lon="18.01031">
        <ele>17.366351</ele>
        <time>2020-08-29T08:59:02.259Z</time>
      </trkpt>
      <trkpt lat="62.84992" lon="18.0076">
        <ele>20.799522</ele>
        <time>2020-08-29T08:59:58.974Z</time>
      </trkpt>
      <trkpt lat="62.84894" lon="18.00612">
        <ele>21.9779</ele>
        <time>2020-08-29T09:00:24.445Z</time>
      </trkpt>
      <trkpt lat="62.84875" lon="18.00573">
        <ele>22.215335</ele>
        <time>2020-08-29T09:00:30.046Z</time>
      </trkpt>
      <trkpt lat="62.84835" lon="18.00497">
        <ele>22.689635</ele>
        <time>2020-08-29T09:00:40.794Z</time>
      </trkpt>
      <trkpt lat="62.84778" lon="18.00363">
        <ele>22.869038</ele>
        <time>2020-08-29T09:00:57.129Z</time>
      </trkpt>
      <trkpt lat="62.84632" lon="17.99986">
        <ele>22.46011</ele>
        <time>2020-08-29T09:01:35.051Z</time>
      </trkpt>
      <trkpt lat="62.84571" lon="17.99857">
        <ele>22.159567</ele>
        <time>2020-08-29T09:01:49.360Z</time>
      </trkpt>
      <trkpt lat="62.84569" lon="17.99853">
        <ele>22.147528</ele>
        <time>2020-08-29T09:01:49.868Z</time>
      </trkpt>
      <trkpt lat="62.84547" lon="17.99813">
        <ele>22.016832</ele>
        <time>2020-08-29T09:01:54.837Z</time>
      </trkpt>
      <trkpt lat="62.84444" lon="17.9966">
        <ele>21.462106</ele>
        <time>2020-08-29T09:02:15.453Z</time>
      </trkpt>
      <trkpt lat="62.84265" lon="17.9946">
        <ele>19.878281</ele>
        <time>2020-08-29T09:02:46.909Z</time>
      </trkpt>
      <trkpt lat="62.84256" lon="17.9945">
        <ele>19.81808</ele>
        <time>2020-08-29T09:02:48.553Z</time>
      </trkpt>
      <trkpt lat="62.84187" lon="17.99375">
        <ele>19.3767</ele>
        <time>2020-08-29T09:03:01.259Z</time>
      </trkpt>
      <trkpt lat="62.84103" lon="17.99284">
        <ele>18.819494</ele>
        <time>2020-08-29T09:03:16.813Z</time>
      </trkpt>
      <trkpt lat="62.84077" lon="17.99241">
        <ele>18.571533</ele>
        <time>2020-08-29T09:03:22.057Z</time>
      </trkpt>
      <trkpt lat="62.8406" lon="17.99198">
        <ele>18.368526</ele>
        <time>2020-08-29T09:03:26.253Z</time>
      </trkpt>
      <trkpt lat="62.84019" lon="17.99048">
        <ele>17.750272</ele>
        <time>2020-08-29T09:03:38.704Z</time>
      </trkpt>
      <trkpt lat="62.8398" lon="17.98776">
        <ele>16.685574</ele>
        <time>2020-08-29T09:03:59.115Z</time>
      </trkpt>
      <trkpt lat="62.83949" lon="17.98621">
        <ele>16.047274</ele>
        <time>2020-08-29T09:04:11.522Z</time>
      </trkpt>
      <trkpt lat="62.83925" lon="17.98535">
        <ele>15.485436</ele>
        <time>2020-08-29T09:04:19.099Z</time>
      </trkpt>
      <trkpt lat="62.8389" lon="17.98438">
        <ele>14.784461</ele>
        <time>2020-08-29T09:04:27.705Z</time>
      </trkpt>
      <trkpt lat="62.83842" lon="17.98333">
        <ele>13.934147</ele>
        <time>2020-08-29T09:04:37.629Z</time>
      </trkpt>
      <trkpt lat="62.8381" lon="17.98283">
        <ele>13.197347</ele>
        <time>2020-08-29T09:04:43.239Z</time>
      </trkpt>
      <trkpt lat="62.83804" lon="17.98274">
        <ele>13.023134</ele>
        <time>2020-08-29T09:04:44.265Z</time>
      </trkpt>
      <trkpt lat="62.83792" lon="17.98257">
        <ele>12.707334</ele>
        <time>2020-08-29T09:04:46.219Z</time>
      </trkpt>
      <trkpt lat="62.83767" lon="17.9822">
        <ele>12.03101</ele>
        <time>2020-08-29T09:04:50.432Z</time>
      </trkpt>
      <trkpt lat="62.83744" lon="17.98165">
        <ele>11.26615</ele>
        <time>2020-08-29T09:04:55.125Z</time>
      </trkpt>
      <trkpt lat="62.83696" lon="17.97974">
        <ele>9.132535</ele>
        <time>2020-08-29T09:05:08.655Z</time>
      </trkpt>
      <trkpt lat="62.83669" lon="17.97906">
        <ele>8.342465</ele>
        <time>2020-08-29T09:05:14.438Z</time>
      </trkpt>
      <trkpt lat="62.83644" lon="17.97869">
        <ele>7.760296</ele>
        <time>2020-08-29T09:05:18.704Z</time>
      </trkpt>
      <trkpt lat="62.83574" lon="17.97794">
        <ele>6.252559</ele>
        <time>2020-08-29T09:05:29.923Z</time>
      </trkpt>
      <trkpt lat="62.83458" lon="17.97547">
        <ele>5.204002</ele>
        <time>2020-08-29T09:05:55.461Z</time>
      </trkpt>
      <trkpt lat="62.83436" lon="17.97465">
        <ele>5.488411</ele>
        <time>2020-08-29T09:06:03.752Z</time>
      </trkpt>
      <trkpt lat="62.83386" lon="17.97204">
        <ele>7.485231</ele>
        <time>2020-08-29T09:06:33.197Z</time>
      </trkpt>
      <trkpt lat="62.83363" lon="17.97113">
        <ele>8.342077</ele>
        <time>2020-08-29T09:06:47.000Z</time>
      </trkpt>
      <trkpt lat="62.8333" lon="17.97041">
        <ele>9.310833</ele>
        <time>2020-08-29T09:06:59.381Z</time>
      </trkpt>
      <trkpt lat="62.83283" lon="17.96994">
        <ele>10.377725</ele>
        <time>2020-08-29T09:07:12.098Z</time>
      </trkpt>
      <trkpt lat="62.83277" lon="17.96992">
        <ele>10.508814</ele>
        <time>2020-08-29T09:07:14.248Z</time>
      </trkpt>
      <trkpt lat="62.83268" lon="17.96988">
        <ele>10.680026</ele>
        <time>2020-08-29T09:07:16.376Z</time>
      </trkpt>
      <trkpt lat="62.83021" lon="17.97051">
        <ele>13.246661</ele>
        <time>2020-08-29T09:08:06.628Z</time>
      </trkpt>
      <trkpt lat="62.82965" lon="17.9705">
        <ele>13.811847</ele>
        <time>2020-08-29T09:08:17.399Z</time>
      </trkpt>
      <trkpt lat="62.82909" lon="17.97009">
        <ele>14.406947</ele>
        <time>2020-08-29T09:08:29.696Z</time>
      </trkpt>
      <trkpt lat="62.82811" lon="17.96902">
        <ele>16.260067</ele>
        <time>2020-08-29T09:08:55.675Z</time>
      </trkpt>
      <trkpt lat="62.82766" lon="17.96889">
        <ele>17.197959</ele>
        <time>2020-08-29T09:09:07.306Z</time>
      </trkpt>
      <trkpt lat="62.8271" lon="17.96909">
        <ele>18.380658</ele>
        <time>2020-08-29T09:09:21.633Z</time>
      </trkpt>
      <trkpt lat="62.82627" lon="17.96964">
        <ele>19.407287</ele>
        <time>2020-08-29T09:09:42.530Z</time>
      </trkpt>
      <trkpt lat="62.82455" lon="17.97055">
        <ele>19.97784</ele>
        <time>2020-08-29T09:10:16.049Z</time>
      </trkpt>
      <trkpt lat="62.82402" lon="17.97068">
        <ele>19.613835</ele>
        <time>2020-08-29T09:10:24.306Z</time>
      </trkpt>
      <trkpt lat="62.82367" lon="17.97059">
        <ele>19.37154</ele>
        <time>2020-08-29T09:10:29.563Z</time>
      </trkpt>
      <trkpt lat="62.82341" lon="17.97044">
        <ele>18.992187</ele>
        <time>2020-08-29T09:10:33.363Z</time>
      </trkpt>
      <trkpt lat="62.82306" lon="17.97022">
        <ele>18.074479</ele>
        <time>2020-08-29T09:10:38.412Z</time>
      </trkpt>
      <trkpt lat="62.82254" lon="17.96991">
        <ele>16.743231</ele>
        <time>2020-08-29T09:10:45.653Z</time>
      </trkpt>
      <trkpt lat="62.82224" lon="17.96972">
        <ele>15.965189</ele>
        <time>2020-08-29T09:10:49.829Z</time>
      </trkpt>
      <trkpt lat="62.82178" lon="17.96942">
        <ele>14.775906</ele>
        <time>2020-08-29T09:10:56.206Z</time>
      </trkpt>
      <trkpt lat="62.82147" lon="17.96911">
        <ele>14.041902</ele>
        <time>2020-08-29T09:11:00.855Z</time>
      </trkpt>
      <trkpt lat="62.82116" lon="17.96858">
        <ele>13.207262</ele>
        <time>2020-08-29T09:11:06.148Z</time>
      </trkpt>
      <trkpt lat="62.82072" lon="17.96722">
        <ele>11.5751</ele>
        <time>2020-08-29T09:11:16.797Z</time>
      </trkpt>
      <trkpt lat="62.82045" lon="17.96621">
        <ele>10.789742</ele>
        <time>2020-08-29T09:11:24.821Z</time>
      </trkpt>
      <trkpt lat="62.82026" lon="17.96481">
        <ele>10.369553</ele>
        <time>2020-08-29T09:11:35.309Z</time>
      </trkpt>
      <trkpt lat="62.8202" lon="17.9626">
        <ele>9.861717</ele>
        <time>2020-08-29T09:11:52.700Z</time>
      </trkpt>
      <trkpt lat="62.8201" lon="17.96155">
        <ele>10.101059</ele>
        <time>2020-08-29T09:12:01.919Z</time>
      </trkpt>
      <trkpt lat="62.82001" lon="17.96102">
        <ele>10.227793</ele>
        <time>2020-08-29T09:12:06.955Z</time>
      </trkpt>
      <trkpt lat="62.81931" lon="17.95813">
        <ele>11.05808</ele>
        <time>2020-08-29T09:12:37.369Z</time>
      </trkpt>
      <trkpt lat="62.81908" lon="17.95735">
        <ele>11.338933</ele>
        <time>2020-08-29T09:12:46.040Z</time>
      </trkpt>
      <trkpt lat="62.81855" lon="17.95619">
        <ele>11.832536</ele>
        <time>2020-08-29T09:13:00.893Z</time>
      </trkpt>
      <trkpt lat="62.81659" lon="17.95295">
        <ele>12.776086</ele>
        <time>2020-08-29T09:13:47.798Z</time>
      </trkpt>
      <trkpt lat="62.81633" lon="17.95251">
        <ele>12.841443</ele>
        <time>2020-08-29T09:13:54.029Z</time>
      </trkpt>
      <trkpt lat="62.81619" lon="17.95228">
        <ele>12.876796</ele>
        <time>2020-08-29T09:13:57.513Z</time>
      </trkpt>
      <trkpt lat="62.81563" lon="17.95164">
        <ele>13.005515</ele>
        <time>2020-08-29T09:14:09.023Z</time>
      </trkpt>
      <trkpt lat="62.81552" lon="17.95156">
        <ele>12.957213</ele>
        <time>2020-08-29T09:14:11.240Z</time>
      </trkpt>
      <trkpt lat="62.81531" lon="17.95147">
        <ele>12.63675</ele>
        <time>2020-08-29T09:14:14.800Z</time>
      </trkpt>
      <trkpt lat="62.81442" lon="17.95129">
        <ele>11.276539</ele>
        <time>2020-08-29T09:14:28.288Z</time>
      </trkpt>
      <trkpt lat="62.81378" lon="17.95154">
        <ele>10.301685</ele>
        <time>2020-08-29T09:14:36.991Z</time>
      </trkpt>
      <trkpt lat="62.8136" lon="17.95174">
        <ele>10.141132</ele>
        <time>2020-08-29T09:14:39.746Z</time>
      </trkpt>
      <trkpt lat="62.81321" lon="17.95228">
        <ele>9.782501</ele>
        <time>2020-08-29T09:14:45.987Z</time>
      </trkpt>
      <trkpt lat="62.81266" lon="17.95307">
        <ele>9.279765</ele>
        <time>2020-08-29T09:14:56.366Z</time>
      </trkpt>
      <trkpt lat="62.81257" lon="17.95319">
        <ele>9.199277</ele>
        <time>2020-08-29T09:14:58.114Z</time>
      </trkpt>
      <trkpt lat="62.81212" lon="17.95383">
        <ele>9.643703</ele>
        <time>2020-08-29T09:15:09.566Z</time>
      </trkpt>
      <trkpt lat="62.81203" lon="17.95395">
        <ele>10.097898</ele>
        <time>2020-08-29T09:15:12.806Z</time>
      </trkpt>
      <trkpt lat="62.81184" lon="17.95425">
        <ele>11.157754</ele>
        <time>2020-08-29T09:15:19.719Z</time>
      </trkpt>
      <trkpt lat="62.81165" lon="17.95455">
        <ele>12.203259</ele>
        <time>2020-08-29T09:15:27.492Z</time>
      </trkpt>
      <trkpt lat="62.81111" lon="17.95558">
        <ele>15.3751</ele>
        <time>2020-08-29T09:15:52.402Z</time>
      </trkpt>
      <trkpt lat="62.81097" lon="17.95593">
        <ele>16.301981</ele>
        <time>2020-08-29T09:16:00.104Z</time>
      </trkpt>
      <trkpt lat="62.81084" lon="17.95625">
        <ele>17.252826</ele>
        <time>2020-08-29T09:16:07.305Z</time>
      </trkpt>
      <trkpt lat="62.81069" lon="17.95673">
        <ele>18.87904</ele>
        <time>2020-08-29T09:16:18.152Z</time>
      </trkpt>
      <trkpt lat="62.81089" lon="17.95712">
        <ele>20.482567</ele>
        <time>2020-08-29T09:16:28.220Z</time>
      </trkpt>
      <trkpt lat="62.81101" lon="17.95751">
        <ele>21.792784</ele>
        <time>2020-08-29T09:16:35.842Z</time>
      </trkpt>
      <trkpt lat="62.81106" lon="17.95793">
        <ele>22.972016</ele>
        <time>2020-08-29T09:16:43.195Z</time>
      </trkpt>
      <trkpt lat="62.81103" lon="17.95834">
        <ele>24.109623</ele>
        <time>2020-08-29T09:16:50.681Z</time>
      </trkpt>
      <trkpt lat="62.81094" lon="17.95869">
        <ele>25.242158</ele>
        <time>2020-08-29T09:16:58.085Z</time>
      </trkpt>
      <trkpt lat="62.81077" lon="17.95897">
        <ele>26.482924</ele>
        <time>2020-08-29T09:17:05.520Z</time>
      </trkpt>
      <trkpt lat="62.81068" lon="17.95902">
        <ele>27.06632</ele>
        <time>2020-08-29T09:17:08.958Z</time>
      </trkpt>
      <trkpt lat="62.81059" lon="17.95896">
        <ele>27.635396</ele>
        <time>2020-08-29T09:17:12.468Z</time>
      </trkpt>
      <trkpt lat="62.81044" lon="17.95851">
        <ele>29.032375</ele>
        <time>2020-08-29T09:17:20.979Z</time>
      </trkpt>
      <trkpt lat="62.81025" lon="17.95791">
        <ele>30.887035</ele>
        <time>2020-08-29T09:17:32.827Z</time>
      </trkpt>
      <trkpt lat="62.81004" lon="17.95736">
        <ele>32.702744</ele>
        <time>2020-08-29T09:17:44.905Z</time>
      </trkpt>
      <trkpt lat="62.80921" lon="17.95544">
        <ele>38.691007</ele>
        <time>2020-08-29T09:18:28.514Z</time>
      </trkpt>
      <trkpt lat="62.80841" lon="17.95394">
        <ele>42.110195</ele>
        <time>2020-08-29T09:18:58.717Z</time>
      </trkpt>
      <trkpt lat="62.80797" lon="17.95327">
        <ele>43.339337</ele>
        <time>2020-08-29T09:19:10.601Z</time>
      </trkpt>
      <trkpt lat="62.80765" lon="17.95285">
        <ele>42.86222</ele>
        <time>2020-08-29T09:19:17.835Z</time>
      </trkpt>
      <trkpt lat="62.80732" lon="17.9525">
        <ele>42.4034</ele>
        <time>2020-08-29T09:19:23.767Z</time>
      </trkpt>
      <trkpt lat="62.80686" lon="17.95202">
        <ele>41.748903</ele>
        <time>2020-08-29T09:19:31.051Z</time>
      </trkpt>
      <trkpt lat="62.80628" lon="17.95137">
        <ele>40.332329</ele>
        <time>2020-08-29T09:19:39.445Z</time>
      </trkpt>
      <trkpt lat="62.80576" lon="17.95077">
        <ele>37.97133</ele>
        <time>2020-08-29T09:19:46.579Z</time>
      </trkpt>
      <trkpt lat="62.80539" lon="17.95029">
        <ele>36.229353</ele>
        <time>2020-08-29T09:19:51.848Z</time>
      </trkpt>
      <trkpt lat="62.80497" lon="17.94963">
        <ele>34.118183</ele>
        <time>2020-08-29T09:19:58.354Z</time>
      </trkpt>
      <trkpt lat="62.80476" lon="17.94928">
        <ele>33.80748</ele>
        <time>2020-08-29T09:20:01.563Z</time>
      </trkpt>
      <trkpt lat="62.79122" lon="17.92733">
        <ele>27.081756</ele>
        <time>2020-08-29T09:24:43.405Z</time>
      </trkpt>
      <trkpt lat="62.79054" lon="17.92621">
        <ele>28.075772</ele>
        <time>2020-08-29T09:25:05.601Z</time>
      </trkpt>
      <trkpt lat="62.79003" lon="17.92541">
        <ele>29.708368</ele>
        <time>2020-08-29T09:25:22.805Z</time>
      </trkpt>
      <trkpt lat="62.7896" lon="17.92468">
        <ele>31.216881</ele>
        <time>2020-08-29T09:25:37.984Z</time>
      </trkpt>
      <trkpt lat="62.78897" lon="17.92374">
        <ele>33.288958</ele>
        <time>2020-08-29T09:25:57.717Z</time>
      </trkpt>
      <trkpt lat="62.78796" lon="17.92215">
        <ele>36.342639</ele>
        <time>2020-08-29T09:26:28.557Z</time>
      </trkpt>
      <trkpt lat="62.78748" lon="17.92151">
        <ele>37.827705</ele>
        <time>2020-08-29T09:26:43.333Z</time>
      </trkpt>
      <trkpt lat="62.78632" lon="17.92022">
        <ele>42.764969</ele>
        <time>2020-08-29T09:27:21.477Z</time>
      </trkpt>
      <trkpt lat="62.78577" lon="17.91974">
        <ele>45.090493</ele>
        <time>2020-08-29T09:27:41.347Z</time>
      </trkpt>
      <trkpt lat="62.78558" lon="17.9196">
        <ele>45.993847</ele>
        <time>2020-08-29T09:27:48.485Z</time>
      </trkpt>
      <trkpt lat="62.78534" lon="17.91944">
        <ele>47.117219</ele>
        <time>2020-08-29T09:27:56.543Z</time>
      </trkpt>
      <trkpt lat="62.78496" lon="17.91917">
        <ele>48.892468</ele>
        <time>2020-08-29T09:28:09.620Z</time>
      </trkpt>
      <trkpt lat="62.78486" lon="17.91902">
        <ele>49.430282</ele>
        <time>2020-08-29T09:28:14.220Z</time>
      </trkpt>
      <trkpt lat="62.7848" lon="17.91886">
        <ele>49.833871</ele>
        <time>2020-08-29T09:28:16.679Z</time>
      </trkpt>
      <trkpt lat="62.78481" lon="17.91863">
        <ele>50.30429</ele>
        <time>2020-08-29T09:28:19.740Z</time>
      </trkpt>
      <trkpt lat="62.78493" lon="17.91837">
        <ele>51.052094</ele>
        <time>2020-08-29T09:28:25.693Z</time>
      </trkpt>
      <trkpt lat="62.78505" lon="17.9182">
        <ele>51.699474</ele>
        <time>2020-08-29T09:28:29.494Z</time>
      </trkpt>
      <trkpt lat="62.78527" lon="17.91801">
        <ele>52.567468</ele>
        <time>2020-08-29T09:28:36.870Z</time>
      </trkpt>
      <trkpt lat="62.78575" lon="17.91789">
        <ele>53.779108</ele>
        <time>2020-08-29T09:28:50.328Z</time>
      </trkpt>
      <trkpt lat="62.78595" lon="17.91791">
        <ele>54.280055</ele>
        <time>2020-08-29T09:28:56.479Z</time>
      </trkpt>
      <trkpt lat="62.78604" lon="17.91791">
        <ele>54.520383</ele>
        <time>2020-08-29T09:28:58.529Z</time>
      </trkpt>
      <trkpt lat="62.78634" lon="17.91792">
        <ele>55.26899</ele>
        <time>2020-08-29T09:29:06.250Z</time>
      </trkpt>
      <trkpt lat="62.78678" lon="17.91788">
        <ele>56.375156</ele>
        <time>2020-08-29T09:29:15.797Z</time>
      </trkpt>
      <trkpt lat="62.78675" lon="17.9176">
        <ele>56.70141</ele>
        <time>2020-08-29T09:29:19.265Z</time>
      </trkpt>
      <trkpt lat="62.78671" lon="17.91732">
        <ele>56.925314</ele>
        <time>2020-08-29T09:29:21.941Z</time>
      </trkpt>
      <trkpt lat="62.78662" lon="17.91714">
        <ele>57.018298</ele>
        <time>2020-08-29T09:29:24.367Z</time>
      </trkpt>
      <trkpt lat="62.78645" lon="17.91697">
        <ele>57.164639</ele>
        <time>2020-08-29T09:29:28.902Z</time>
      </trkpt>
      <trkpt lat="62.78628" lon="17.91694">
        <ele>57.2912</ele>
        <time>2020-08-29T09:29:32.158Z</time>
      </trkpt>
      <trkpt lat="62.78479" lon="17.9176">
        <ele>58.212567</ele>
        <time>2020-08-29T09:30:02.330Z</time>
      </trkpt>
      <trkpt lat="62.78352" lon="17.91802">
        <ele>58.041377</ele>
        <time>2020-08-29T09:30:24.126Z</time>
      </trkpt>
      <trkpt lat="62.7797" lon="17.91864">
        <ele>55.40359</ele>
        <time>2020-08-29T09:31:26.507Z</time>
      </trkpt>
      <trkpt lat="62.77912" lon="17.91873">
        <ele>53.324963</ele>
        <time>2020-08-29T09:31:34.419Z</time>
      </trkpt>
      <trkpt lat="62.77857" lon="17.91879">
        <ele>51.309062</ele>
        <time>2020-08-29T09:31:41.395Z</time>
      </trkpt>
      <trkpt lat="62.7776" lon="17.91872">
        <ele>47.739622</ele>
        <time>2020-08-29T09:31:53.155Z</time>
      </trkpt>
      <trkpt lat="62.7773" lon="17.91866">
        <ele>46.59323</ele>
        <time>2020-08-29T09:31:56.839Z</time>
      </trkpt>
      <trkpt lat="62.7771" lon="17.91862">
        <ele>45.843139</ele>
        <time>2020-08-29T09:31:59.263Z</time>
      </trkpt>
      <trkpt lat="62.77669" lon="17.91849">
        <ele>44.258143</ele>
        <time>2020-08-29T09:32:04.568Z</time>
      </trkpt>
      <trkpt lat="62.77641" lon="17.91837">
        <ele>43.202876</ele>
        <time>2020-08-29T09:32:08.124Z</time>
      </trkpt>
      <trkpt lat="62.77499" lon="17.91759">
        <ele>40.772578</ele>
        <time>2020-08-29T09:32:29.234Z</time>
      </trkpt>
      <trkpt lat="62.77455" lon="17.91724">
        <ele>40.25539</ele>
        <time>2020-08-29T09:32:37.959Z</time>
      </trkpt>
      <trkpt lat="62.77423" lon="17.91696">
        <ele>40.22831</ele>
        <time>2020-08-29T09:32:44.570Z</time>
      </trkpt>
      <trkpt lat="62.77389" lon="17.91665">
        <ele>40.550278</ele>
        <time>2020-08-29T09:32:51.736Z</time>
      </trkpt>
      <trkpt lat="62.77376" lon="17.91651">
        <ele>40.682987</ele>
        <time>2020-08-29T09:32:54.822Z</time>
      </trkpt>
      <trkpt lat="62.77363" lon="17.91724">
        <ele>41.001629</ele>
        <time>2020-08-29T09:33:02.288Z</time>
      </trkpt>
      <trkpt lat="62.77344" lon="17.91836">
        <ele>41.483138</ele>
        <time>2020-08-29T09:33:14.197Z</time>
      </trkpt>
      <trkpt lat="62.77317" lon="17.91901">
        <ele>42.076883</ele>
        <time>2020-08-29T09:33:23.134Z</time>
      </trkpt>
      <trkpt lat="62.77299" lon="17.91918">
        <ele>42.472509</ele>
        <time>2020-08-29T09:33:27.198Z</time>
      </trkpt>
      <trkpt lat="62.77281" lon="17.91922">
        <ele>42.843423</ele>
        <time>2020-08-29T09:33:30.939Z</time>
      </trkpt>
      <trkpt lat="62.77261" lon="17.9191">
        <ele>43.281774</ele>
        <time>2020-08-29T09:33:36.431Z</time>
      </trkpt>
      <trkpt lat="62.77193" lon="17.91849">
        <ele>44.793015</ele>
        <time>2020-08-29T09:33:54.909Z</time>
      </trkpt>
      <trkpt lat="62.77178" lon="17.91901">
        <ele>45.368618</ele>
        <time>2020-08-29T09:34:02.426Z</time>
      </trkpt>
      <trkpt lat="62.7717" lon="17.91912">
        <ele>45.642364</ele>
        <time>2020-08-29T09:34:04.965Z</time>
      </trkpt>
      <trkpt lat="62.77159" lon="17.91917">
        <ele>45.933321</ele>
        <time>2020-08-29T09:34:07.538Z</time>
      </trkpt>
      <trkpt lat="62.77147" lon="17.91913">
        <ele>46.259321</ele>
        <time>2020-08-29T09:34:11.416Z</time>
      </trkpt>
      <trkpt lat="62.77107" lon="17.91844">
        <ele>47.62868</ele>
        <time>2020-08-29T09:34:25.492Z</time>
      </trkpt>
      <trkpt lat="62.77075" lon="17.91818">
        <ele>48.553096</ele>
        <time>2020-08-29T09:34:34.957Z</time>
      </trkpt>
      <trkpt lat="62.77062" lon="17.91817">
        <ele>48.9179</ele>
        <time>2020-08-29T09:34:38.140Z</time>
      </trkpt>
      <trkpt lat="62.7702" lon="17.91845">
        <ele>50.095014</ele>
        <time>2020-08-29T09:34:49.801Z</time>
      </trkpt>
      <trkpt lat="62.76995" lon="17.91899">
        <ele>50.555078</ele>
        <time>2020-08-29T09:34:58.030Z</time>
      </trkpt>
      <trkpt lat="62.7699" lon="17.91922">
        <ele>50.686494</ele>
        <time>2020-08-29T09:35:01.163Z</time>
      </trkpt>
      <trkpt lat="62.76982" lon="17.91969">
        <ele>50.938661</ele>
        <time>2020-08-29T09:35:05.986Z</time>
      </trkpt>
      <trkpt lat="62.76974" lon="17.92028">
        <ele>51.246284</ele>
        <time>2020-08-29T09:35:12.216Z</time>
      </trkpt>
      <trkpt lat="62.76958" lon="17.92115">
        <ele>51.715347</ele>
        <time>2020-08-29T09:35:21.040Z</time>
      </trkpt>
      <trkpt lat="62.76896" lon="17.92349">
        <ele>51.907068</ele>
        <time>2020-08-29T09:35:43.505Z</time>
      </trkpt>
      <trkpt lat="62.76819" lon="17.92624">
        <ele>50.370163</ele>
        <time>2020-08-29T09:36:07.139Z</time>
      </trkpt>
      <trkpt lat="62.76794" lon="17.9274">
        <ele>48.922952</ele>
        <time>2020-08-29T09:36:15.298Z</time>
      </trkpt>
      <trkpt lat="62.76779" lon="17.92837">
        <ele>47.771724</ele>
        <time>2020-08-29T09:36:21.481Z</time>
      </trkpt>
      <trkpt lat="62.76706" lon="17.93215">
        <ele>39.548768</ele>
        <time>2020-08-29T09:36:44.489Z</time>
      </trkpt>
      <trkpt lat="62.76687" lon="17.93425">
        <ele>35.975945</ele>
        <time>2020-08-29T09:36:56.379Z</time>
      </trkpt>
      <trkpt lat="62.76555" lon="17.9384">
        <ele>31.099908</ele>
        <time>2020-08-29T09:37:28.436Z</time>
      </trkpt>
      <trkpt lat="62.76536" lon="17.93884">
        <ele>30.800098</ele>
        <time>2020-08-29T09:37:34.203Z</time>
      </trkpt>
      <trkpt lat="62.76521" lon="17.93908">
        <ele>30.58707</ele>
        <time>2020-08-29T09:37:38.590Z</time>
      </trkpt>
      <trkpt lat="62.76455" lon="17.93966">
        <ele>32.063307</ele>
        <time>2020-08-29T09:37:56.433Z</time>
      </trkpt>
      <trkpt lat="62.76351" lon="17.94087">
        <ele>34.577004</ele>
        <time>2020-08-29T09:38:28.120Z</time>
      </trkpt>
      <trkpt lat="62.76106" lon="17.94496">
        <ele>36.604845</ele>
        <time>2020-08-29T09:39:30.673Z</time>
      </trkpt>
      <trkpt lat="62.75919" lon="17.94931">
        <ele>33.500798</ele>
        <time>2020-08-29T09:40:10.716Z</time>
      </trkpt>
      <trkpt lat="62.75533" lon="17.95468">
        <ele>28.938676</ele>
        <time>2020-08-29T09:41:22.232Z</time>
      </trkpt>
      <trkpt lat="62.75483" lon="17.95579">
        <ele>28.432973</ele>
        <time>2020-08-29T09:41:32.995Z</time>
      </trkpt>
      <trkpt lat="62.75427" lon="17.95643">
        <ele>28.120639</ele>
        <time>2020-08-29T09:41:42.952Z</time>
      </trkpt>
      <trkpt lat="62.75329" lon="17.95681">
        <ele>27.988536</ele>
        <time>2020-08-29T09:42:00.598Z</time>
      </trkpt>
      <trkpt lat="62.75309" lon="17.95677">
        <ele>28.246818</ele>
        <time>2020-08-29T09:42:04.790Z</time>
      </trkpt>
      <trkpt lat="62.7524" lon="17.95644">
        <ele>29.147729</ele>
        <time>2020-08-29T09:42:20.556Z</time>
      </trkpt>
      <trkpt lat="62.75202" lon="17.95603">
        <ele>29.69307</ele>
        <time>2020-08-29T09:42:30.636Z</time>
      </trkpt>
      <trkpt lat="62.75173" lon="17.9556">
        <ele>30.16594</ele>
        <time>2020-08-29T09:42:39.116Z</time>
      </trkpt>
      <trkpt lat="62.75137" lon="17.95528">
        <ele>30.766897</ele>
        <time>2020-08-29T09:42:48.403Z</time>
      </trkpt>
      <trkpt lat="62.74984" lon="17.95516">
        <ele>33.11509</ele>
        <time>2020-08-29T09:43:22.968Z</time>
      </trkpt>
      <trkpt lat="62.74922" lon="17.95541">
        <ele>33.888751</ele>
        <time>2020-08-29T09:43:36.466Z</time>
      </trkpt>
      <trkpt lat="62.74888" lon="17.95539">
        <ele>34.305905</ele>
        <time>2020-08-29T09:43:43.872Z</time>
      </trkpt>
      <trkpt lat="62.74828" lon="17.95514">
        <ele>35.047827</ele>
        <time>2020-08-29T09:43:57.209Z</time>
      </trkpt>
      <trkpt lat="62.74701" lon="17.9557">
        <ele>36.158222</ele>
        <time>2020-08-29T09:44:24.958Z</time>
      </trkpt>
      <trkpt lat="62.74654" lon="17.95631">
        <ele>36.573823</ele>
        <time>2020-08-29T09:44:35.483Z</time>
      </trkpt>
      <trkpt lat="62.74592" lon="17.95745">
        <ele>36.094527</ele>
        <time>2020-08-29T09:44:49.581Z</time>
      </trkpt>
      <trkpt lat="62.74491" lon="17.95867">
        <ele>35.226591</ele>
        <time>2020-08-29T09:45:07.243Z</time>
      </trkpt>
      <trkpt lat="62.74463" lon="17.95888">
        <ele>34.777824</ele>
        <time>2020-08-29T09:45:11.573Z</time>
      </trkpt>
      <trkpt lat="62.74447" lon="17.95896">
        <ele>34.524323</ele>
        <time>2020-08-29T09:45:13.994Z</time>
      </trkpt>
      <trkpt lat="62.74251" lon="17.95904">
        <ele>31.691109</ele>
        <time>2020-08-29T09:45:42.437Z</time>
      </trkpt>
      <trkpt lat="62.74204" lon="17.95901">
        <ele>31.060983</ele>
        <time>2020-08-29T09:45:49.494Z</time>
      </trkpt>
      <trkpt lat="62.74134" lon="17.95869">
        <ele>30.33086</ele>
        <time>2020-08-29T09:46:00.520Z</time>
      </trkpt>
      <trkpt lat="62.74113" lon="17.95842">
        <ele>30.256729</ele>
        <time>2020-08-29T09:46:04.554Z</time>
      </trkpt>
      <trkpt lat="62.74097" lon="17.9581">
        <ele>30.192702</ele>
        <time>2020-08-29T09:46:08.086Z</time>
      </trkpt>
      <trkpt lat="62.74082" lon="17.95758">
        <ele>30.107735</ele>
        <time>2020-08-29T09:46:12.898Z</time>
      </trkpt>
      <trkpt lat="62.74046" lon="17.95583">
        <ele>29.862326</ele>
        <time>2020-08-29T09:46:28.490Z</time>
      </trkpt>
      <trkpt lat="62.73959" lon="17.95213">
        <ele>30.310239</ele>
        <time>2020-08-29T09:47:04.311Z</time>
      </trkpt>
      <trkpt lat="62.73848" lon="17.94294">
        <ele>30.830336</ele>
        <time>2020-08-29T09:48:26.265Z</time>
      </trkpt>
      <trkpt lat="62.73827" lon="17.94227">
        <ele>30.620168</ele>
        <time>2020-08-29T09:48:32.305Z</time>
      </trkpt>
      <trkpt lat="62.73801" lon="17.94172">
        <ele>30.4159</ele>
        <time>2020-08-29T09:48:37.965Z</time>
      </trkpt>
      <trkpt lat="62.73695" lon="17.93975">
        <ele>26.763052</ele>
        <time>2020-08-29T09:48:56.663Z</time>
      </trkpt>
      <trkpt lat="62.73681" lon="17.93956">
        <ele>26.274778</ele>
        <time>2020-08-29T09:48:58.841Z</time>
      </trkpt>
      <trkpt lat="62.73661" lon="17.93989">
        <ele>25.54834</ele>
        <time>2020-08-29T09:49:02.016Z</time>
      </trkpt>
      <trkpt lat="62.73615" lon="17.9408">
        <ele>23.694208</ele>
        <time>2020-08-29T09:49:09.962Z</time>
      </trkpt>
      <trkpt lat="62.73592" lon="17.94174">
        <ele>22.224121</ele>
        <time>2020-08-29T09:49:16.198Z</time>
      </trkpt>
      <trkpt lat="62.73567" lon="17.94234">
        <ele>21.128241</ele>
        <time>2020-08-29T09:49:20.938Z</time>
      </trkpt>
      <trkpt lat="62.73546" lon="17.94269">
        <ele>20.334855</ele>
        <time>2020-08-29T09:49:24.607Z</time>
      </trkpt>
      <trkpt lat="62.73529" lon="17.94283">
        <ele>19.779682</ele>
        <time>2020-08-29T09:49:27.208Z</time>
      </trkpt>
      <trkpt lat="62.735" lon="17.94278">
        <ele>19.677297</ele>
        <time>2020-08-29T09:49:31.460Z</time>
      </trkpt>
      <trkpt lat="62.73386" lon="17.94164">
        <ele>19.675115</ele>
        <time>2020-08-29T09:49:53.098Z</time>
      </trkpt>
      <trkpt lat="62.73319" lon="17.94129">
        <ele>20.906062</ele>
        <time>2020-08-29T09:50:10.371Z</time>
      </trkpt>
      <trkpt lat="62.73282" lon="17.94123">
        <ele>22.054523</ele>
        <time>2020-08-29T09:50:20.733Z</time>
      </trkpt>
      <trkpt lat="62.73238" lon="17.94129">
        <ele>23.424763</ele>
        <time>2020-08-29T09:50:33.869Z</time>
      </trkpt>
      <trkpt lat="62.73169" lon="17.94168">
        <ele>25.52046</ele>
        <time>2020-08-29T09:50:55.001Z</time>
      </trkpt>
      <trkpt lat="62.73127" lon="17.94208">
        <ele>26.627829</ele>
        <time>2020-08-29T09:51:08.766Z</time>
      </trkpt>
      <trkpt lat="62.72989" lon="17.94572">
        <ele>30.033818</ele>
        <time>2020-08-29T09:51:59.385Z</time>
      </trkpt>
      <trkpt lat="62.72903" lon="17.9484">
        <ele>29.372733</ele>
        <time>2020-08-29T09:52:22.987Z</time>
      </trkpt>
      <trkpt lat="62.72818" lon="17.95007">
        <ele>27.506935</ele>
        <time>2020-08-29T09:52:38.991Z</time>
      </trkpt>
      <trkpt lat="62.72755" lon="17.9522">
        <ele>25.222615</ele>
        <time>2020-08-29T09:52:55.288Z</time>
      </trkpt>
      <trkpt lat="62.72725" lon="17.953">
        <ele>24.294664</ele>
        <time>2020-08-29T09:53:02.037Z</time>
      </trkpt>
      <trkpt lat="62.72698" lon="17.95363">
        <ele>23.634082</ele>
        <time>2020-08-29T09:53:07.673Z</time>
      </trkpt>
      <trkpt lat="62.72586" lon="17.95565">
        <ele>21.479762</ele>
        <time>2020-08-29T09:53:29.186Z</time>
      </trkpt>
      <trkpt lat="62.72522" lon="17.95713">
        <ele>20.53961</ele>
        <time>2020-08-29T09:53:43.447Z</time>
      </trkpt>
      <trkpt lat="62.72477" lon="17.95767">
        <ele>20.054991</ele>
        <time>2020-08-29T09:53:51.565Z</time>
      </trkpt>
      <trkpt lat="62.72363" lon="17.95956">
        <ele>19.130047</ele>
        <time>2020-08-29T09:54:14.823Z</time>
      </trkpt>
      <trkpt lat="62.7232" lon="17.96067">
        <ele>18.796941</ele>
        <time>2020-08-29T09:54:25.796Z</time>
      </trkpt>
      <trkpt lat="62.72234" lon="17.96233">
        <ele>19.136178</ele>
        <time>2020-08-29T09:54:45.705Z</time>
      </trkpt>
      <trkpt lat="62.72182" lon="17.96283">
        <ele>19.379972</ele>
        <time>2020-08-29T09:54:57.060Z</time>
      </trkpt>
      <trkpt lat="62.72145" lon="17.96304">
        <ele>19.773192</ele>
        <time>2020-08-29T09:55:05.650Z</time>
      </trkpt>
      <trkpt lat="62.71961" lon="17.96475">
        <ele>23.723279</ele>
        <time>2020-08-29T09:55:57.082Z</time>
      </trkpt>
      <trkpt lat="62.71937" lon="17.96492">
        <ele>23.945489</ele>
        <time>2020-08-29T09:56:02.974Z</time>
      </trkpt>
      <trkpt lat="62.71859" lon="17.96498">
        <ele>24.654551</ele>
        <time>2020-08-29T09:56:19.356Z</time>
      </trkpt>
      <trkpt lat="62.71822" lon="17.96543">
        <ele>25.04204</ele>
        <time>2020-08-29T09:56:26.741Z</time>
      </trkpt>
      <trkpt lat="62.71713" lon="17.96746">
        <ele>22.559038</ele>
        <time>2020-08-29T09:56:47.355Z</time>
      </trkpt>
      <trkpt lat="62.71605" lon="17.9699">
        <ele>19.380919</ele>
        <time>2020-08-29T09:57:08.416Z</time>
      </trkpt>
      <trkpt lat="62.71476" lon="17.97468">
        <ele>15.441421</ele>
        <time>2020-08-29T09:57:45.655Z</time>
      </trkpt>
      <trkpt lat="62.71446" lon="17.97574">
        <ele>15.774818</ele>
        <time>2020-08-29T09:57:54.916Z</time>
      </trkpt>
      <trkpt lat="62.71428" lon="17.9762">
        <ele>15.938992</ele>
        <time>2020-08-29T09:58:00.143Z</time>
      </trkpt>
      <trkpt lat="62.71401" lon="17.97643">
        <ele>16.110262</ele>
        <time>2020-08-29T09:58:06.587Z</time>
      </trkpt>
      <trkpt lat="62.71331" lon="17.97652">
        <ele>16.885573</ele>
        <time>2020-08-29T09:58:24.038Z</time>
      </trkpt>
      <trkpt lat="62.71302" lon="17.97665">
        <ele>17.697942</ele>
        <time>2020-08-29T09:58:31.684Z</time>
      </trkpt>
      <trkpt lat="62.71279" lon="17.97685">
        <ele>18.400364</ele>
        <time>2020-08-29T09:58:38.732Z</time>
      </trkpt>
      <trkpt lat="62.71259" lon="17.97719">
        <ele>19.095607</ele>
        <time>2020-08-29T09:58:45.933Z</time>
      </trkpt>
      <trkpt lat="62.71067" lon="17.98186">
        <ele>26.239833</ele>
        <time>2020-08-29T10:00:03.090Z</time>
      </trkpt>
      <trkpt lat="62.70908" lon="17.98376">
        <ele>26.953212</ele>
        <time>2020-08-29T10:00:35.606Z</time>
      </trkpt>
      <trkpt lat="62.7074" lon="17.9849">
        <ele>25.941645</ele>
        <time>2020-08-29T10:01:03.705Z</time>
      </trkpt>
      <trkpt lat="62.70519" lon="17.98663">
        <ele>24.103748</ele>
        <time>2020-08-29T10:01:41.856Z</time>
      </trkpt>
      <trkpt lat="62.70479" lon="17.98688">
        <ele>23.633451</ele>
        <time>2020-08-29T10:01:48.118Z</time>
      </trkpt>
      <trkpt lat="62.70411" lon="17.98714">
        <ele>22.842014</ele>
        <time>2020-08-29T10:01:58.188Z</time>
      </trkpt>
      <trkpt lat="62.69773" lon="17.98538">
        <ele>13.363851</ele>
        <time>2020-08-29T10:03:33.507Z</time>
      </trkpt>
      <trkpt lat="62.69716" lon="17.98523">
        <ele>12.370753</ele>
        <time>2020-08-29T10:03:41.332Z</time>
      </trkpt>
      <trkpt lat="62.69667" lon="17.98496">
        <ele>11.790024</ele>
        <time>2020-08-29T10:03:48.469Z</time>
      </trkpt>
      <trkpt lat="62.69582" lon="17.98397">
        <ele>10.850653</ele>
        <time>2020-08-29T10:04:02.743Z</time>
      </trkpt>
      <trkpt lat="62.69336" lon="17.98048">
        <ele>12.138018</ele>
        <time>2020-08-29T10:05:03.183Z</time>
      </trkpt>
      <trkpt lat="62.69264" lon="17.97972">
        <ele>12.51644</ele>
        <time>2020-08-29T10:05:18.938Z</time>
      </trkpt>
      <trkpt lat="62.6915" lon="17.97913">
        <ele>11.783626</ele>
        <time>2020-08-29T10:05:38.665Z</time>
      </trkpt>
      <trkpt lat="62.69044" lon="17.97876">
        <ele>10.690371</ele>
        <time>2020-08-29T10:05:54.086Z</time>
      </trkpt>
      <trkpt lat="62.69019" lon="17.9787">
        <ele>10.448355</ele>
        <time>2020-08-29T10:05:57.906Z</time>
      </trkpt>
      <trkpt lat="62.68987" lon="17.97899">
        <ele>10.110328</ele>
        <time>2020-08-29T10:06:03.070Z</time>
      </trkpt>
      <trkpt lat="62.68977" lon="17.97919">
        <ele>9.976105</ele>
        <time>2020-08-29T10:06:04.963Z</time>
      </trkpt>
      <trkpt lat="62.68951" lon="17.9785">
        <ele>9.579331</ele>
        <time>2020-08-29T10:06:11.373Z</time>
      </trkpt>
      <trkpt lat="62.68905" lon="17.97758">
        <ele>9.133217</ele>
        <time>2020-08-29T10:06:21.734Z</time>
      </trkpt>
      <trkpt lat="62.68812" lon="17.97623">
        <ele>9.834448</ele>
        <time>2020-08-29T10:06:44.246Z</time>
      </trkpt>
      <trkpt lat="62.6875" lon="17.9754">
        <ele>10.360876</ele>
        <time>2020-08-29T10:06:59.565Z</time>
      </trkpt>
      <trkpt lat="62.68706" lon="17.97481">
        <ele>10.947658</ele>
        <time>2020-08-29T10:07:10.565Z</time>
      </trkpt>
      <trkpt lat="62.68482" lon="17.97176">
        <ele>13.958319</ele>
        <time>2020-08-29T10:08:07.795Z</time>
      </trkpt>
      <trkpt lat="62.68337" lon="17.96903">
        <ele>15.675367</ele>
        <time>2020-08-29T10:08:48.420Z</time>
      </trkpt>
      <trkpt lat="62.68273" lon="17.9681">
        <ele>15.468689</ele>
        <time>2020-08-29T10:09:02.026Z</time>
      </trkpt>
      <trkpt lat="62.67975" lon="17.965">
        <ele>12.751813</ele>
        <time>2020-08-29T10:09:53.082Z</time>
      </trkpt>
      <trkpt lat="62.6789" lon="17.9643">
        <ele>12.195424</ele>
        <time>2020-08-29T10:10:07.438Z</time>
      </trkpt>
      <trkpt lat="62.67754" lon="17.96352">
        <ele>12.364201</ele>
        <time>2020-08-29T10:10:31.747Z</time>
      </trkpt>
      <trkpt lat="62.67402" lon="17.96021">
        <ele>15.010369</ele>
        <time>2020-08-29T10:11:51.134Z</time>
      </trkpt>
      <trkpt lat="62.67364" lon="17.9597">
        <ele>15.367532</ele>
        <time>2020-08-29T10:12:00.636Z</time>
      </trkpt>
      <trkpt lat="62.67307" lon="17.95839">
        <ele>15.149094</ele>
        <time>2020-08-29T10:12:16.524Z</time>
      </trkpt>
      <trkpt lat="62.67279" lon="17.95723">
        <ele>14.628522</ele>
        <time>2020-08-29T10:12:26.677Z</time>
      </trkpt>
      <trkpt lat="62.67167" lon="17.94925">
        <ele>6.167998</ele>
        <time>2020-08-29T10:13:19.204Z</time>
      </trkpt>
      <trkpt lat="62.67161" lon="17.94844">
        <ele>5.184357</ele>
        <time>2020-08-29T10:13:24.157Z</time>
      </trkpt>
      <trkpt lat="62.67159" lon="17.94722">
        <ele>4.04358</ele>
        <time>2020-08-29T10:13:31.571Z</time>
      </trkpt>
      <trkpt lat="62.67163" lon="17.94669">
        <ele>3.560132</ele>
        <time>2020-08-29T10:13:34.897Z</time>
      </trkpt>
      <trkpt lat="62.67178" lon="17.94566">
        <ele>2.572764</ele>
        <time>2020-08-29T10:13:41.846Z</time>
      </trkpt>
      <trkpt lat="62.672" lon="17.94467">
        <ele>1.577469</ele>
        <time>2020-08-29T10:13:49.233Z</time>
      </trkpt>
      <trkpt lat="62.6731" lon="17.9404">
        <ele>2.714635</ele>
        <time>2020-08-29T10:14:33.560Z</time>
      </trkpt>
      <trkpt lat="62.67379" lon="17.93845">
        <ele>4.297156</ele>
        <time>2020-08-29T10:15:00.040Z</time>
      </trkpt>
      <trkpt lat="62.67493" lon="17.93561">
        <ele>6.142868</ele>
        <time>2020-08-29T10:15:39.236Z</time>
      </trkpt>
      <trkpt lat="62.67661" lon="17.92997">
        <ele>4.669769</ele>
        <time>2020-08-29T10:16:28.923Z</time>
      </trkpt>
      <trkpt lat="62.67863" lon="17.92458">
        <ele>2.257271</ele>
        <time>2020-08-29T10:17:18.479Z</time>
      </trkpt>
      <trkpt lat="62.67897" lon="17.92347">
        <ele>2.244196</ele>
        <time>2020-08-29T10:17:29.517Z</time>
      </trkpt>
      <trkpt lat="62.67917" lon="17.92214">
        <ele>2.244535</ele>
        <time>2020-08-29T10:17:42.332Z</time>
      </trkpt>
      <trkpt lat="62.67921" lon="17.92094">
        <ele>3.006648</ele>
        <time>2020-08-29T10:17:54.255Z</time>
      </trkpt>
      <trkpt lat="62.67917" lon="17.92046">
        <ele>3.309625</ele>
        <time>2020-08-29T10:17:59.226Z</time>
      </trkpt>
      <trkpt lat="62.67898" lon="17.91936">
        <ele>4.061537</ele>
        <time>2020-08-29T10:18:11.898Z</time>
      </trkpt>
      <trkpt lat="62.67882" lon="17.91882">
        <ele>4.467583</ele>
        <time>2020-08-29T10:18:18.685Z</time>
      </trkpt>
      <trkpt lat="62.67851" lon="17.91811">
        <ele>5.027478</ele>
        <time>2020-08-29T10:18:28.757Z</time>
      </trkpt>
      <trkpt lat="62.67821" lon="17.91763">
        <ele>5.470096</ele>
        <time>2020-08-29T10:18:37.040Z</time>
      </trkpt>
      <trkpt lat="62.67798" lon="17.91734">
        <ele>5.788479</ele>
        <time>2020-08-29T10:18:42.903Z</time>
      </trkpt>
      <trkpt lat="62.67712" lon="17.91669">
        <ele>6.863946</ele>
        <time>2020-08-29T10:19:02.141Z</time>
      </trkpt>
      <trkpt lat="62.67689" lon="17.91643">
        <ele>7.089419</ele>
        <time>2020-08-29T10:19:07.528Z</time>
      </trkpt>
      <trkpt lat="62.6767" lon="17.91609">
        <ele>7.301621</ele>
        <time>2020-08-29T10:19:12.392Z</time>
      </trkpt>
      <trkpt lat="62.67645" lon="17.91532">
        <ele>7.674153</ele>
        <time>2020-08-29T10:19:20.889Z</time>
      </trkpt>
      <trkpt lat="62.67632" lon="17.9143">
        <ele>8.092802</ele>
        <time>2020-08-29T10:19:30.549Z</time>
      </trkpt>
      <trkpt lat="62.67619" lon="17.9098">
        <ele>10.91223</ele>
        <time>2020-08-29T10:20:16.062Z</time>
      </trkpt>
      <trkpt lat="62.67622" lon="17.90871">
        <ele>12.150653</ele>
        <time>2020-08-29T10:20:29.385Z</time>
      </trkpt>
      <trkpt lat="62.67635" lon="17.90762">
        <ele>13.523974</ele>
        <time>2020-08-29T10:20:43.619Z</time>
      </trkpt>
      <trkpt lat="62.67667" lon="17.90645">
        <ele>15.181322</ele>
        <time>2020-08-29T10:21:00.735Z</time>
      </trkpt>
      <trkpt lat="62.67698" lon="17.9056">
        <ele>16.210897</ele>
        <time>2020-08-29T10:21:14.306Z</time>
      </trkpt>
      <trkpt lat="62.67938" lon="17.8998">
        <ele>20.287762</ele>
        <time>2020-08-29T10:22:30.932Z</time>
      </trkpt>
      <trkpt lat="62.68234" lon="17.89305">
        <ele>20.342296</ele>
        <time>2020-08-29T10:23:42.758Z</time>
      </trkpt>
      <trkpt lat="62.68269" lon="17.89198">
        <ele>20.90609</ele>
        <time>2020-08-29T10:23:57.132Z</time>
      </trkpt>
      <trkpt lat="62.68289" lon="17.89063">
        <ele>22.663226</ele>
        <time>2020-08-29T10:24:14.782Z</time>
      </trkpt>
      <trkpt lat="62.68291" lon="17.89025">
        <ele>23.334731</ele>
        <time>2020-08-29T10:24:19.872Z</time>
      </trkpt>
      <trkpt lat="62.6829" lon="17.88952">
        <ele>24.648116</ele>
        <time>2020-08-29T10:24:30.374Z</time>
      </trkpt>
      <trkpt lat="62.68235" lon="17.88398">
        <ele>35.088266</ele>
        <time>2020-08-29T10:25:54.270Z</time>
      </trkpt>
      <trkpt lat="62.6822" lon="17.88321">
        <ele>35.671884</ele>
        <time>2020-08-29T10:26:04.274Z</time>
      </trkpt>
      <trkpt lat="62.68179" lon="17.88018">
        <ele>36.604244</ele>
        <time>2020-08-29T10:26:31.920Z</time>
      </trkpt>
      <trkpt lat="62.68162" lon="17.87941">
        <ele>35.504544</ele>
        <time>2020-08-29T10:26:37.485Z</time>
      </trkpt>
      <trkpt lat="62.68158" lon="17.87925">
        <ele>35.211266</ele>
        <time>2020-08-29T10:26:38.699Z</time>
      </trkpt>
      <trkpt lat="62.68154" lon="17.87914">
        <ele>34.993038</ele>
        <time>2020-08-29T10:26:39.468Z</time>
      </trkpt>
      <trkpt lat="62.6807" lon="17.87724">
        <ele>30.783214</ele>
        <time>2020-08-29T10:26:54.765Z</time>
      </trkpt>
      <trkpt lat="62.68" lon="17.87503">
        <ele>24.194638</ele>
        <time>2020-08-29T10:27:09.462Z</time>
      </trkpt>
      <trkpt lat="62.67964" lon="17.87427">
        <ele>21.453727</ele>
        <time>2020-08-29T10:27:15.313Z</time>
      </trkpt>
      <trkpt lat="62.67925" lon="17.87359">
        <ele>18.573167</ele>
        <time>2020-08-29T10:27:21.301Z</time>
      </trkpt>
      <trkpt lat="62.67862" lon="17.87249">
        <ele>13.894403</ele>
        <time>2020-08-29T10:27:30.815Z</time>
      </trkpt>
      <trkpt lat="62.67781" lon="17.87122">
        <ele>8.75372</ele>
        <time>2020-08-29T10:27:42.553Z</time>
      </trkpt>
      <trkpt lat="62.67771" lon="17.87093">
        <ele>8.088055</ele>
        <time>2020-08-29T10:27:44.789Z</time>
      </trkpt>
      <trkpt lat="62.67767" lon="17.8708">
        <ele>7.802469</ele>
        <time>2020-08-29T10:27:45.609Z</time>
      </trkpt>
      <trkpt lat="62.67758" lon="17.87064">
        <ele>7.378669</ele>
        <time>2020-08-29T10:27:47.014Z</time>
      </trkpt>
      <trkpt lat="62.67748" lon="17.86995">
        <ele>6.065161</ele>
        <time>2020-08-29T10:27:51.476Z</time>
      </trkpt>
      <trkpt lat="62.67745" lon="17.86928">
        <ele>4.86033</ele>
        <time>2020-08-29T10:27:55.673Z</time>
      </trkpt>
      <trkpt lat="62.67752" lon="17.86836">
        <ele>3.190472</ele>
        <time>2020-08-29T10:28:01.602Z</time>
      </trkpt>
      <trkpt lat="62.67763" lon="17.86774">
        <ele>2.917219</ele>
        <time>2020-08-29T10:28:06.037Z</time>
      </trkpt>
      <trkpt lat="62.6784" lon="17.86574">
        <ele>2.494624</ele>
        <time>2020-08-29T10:28:28.178Z</time>
      </trkpt>
      <trkpt lat="62.679" lon="17.86451">
        <ele>3.152877</ele>
        <time>2020-08-29T10:28:46.023Z</time>
      </trkpt>
      <trkpt lat="62.68069" lon="17.86055">
        <ele>7.413802</ele>
        <time>2020-08-29T10:29:47.849Z</time>
      </trkpt>
      <trkpt lat="62.68075" lon="17.86029">
        <ele>7.66338</ele>
        <time>2020-08-29T10:29:51.207Z</time>
      </trkpt>
      <trkpt lat="62.68111" lon="17.85942">
        <ele>8.56038</ele>
        <time>2020-08-29T10:30:04.096Z</time>
      </trkpt>
      <trkpt lat="62.68141" lon="17.85873">
        <ele>8.503914</ele>
        <time>2020-08-29T10:30:13.973Z</time>
      </trkpt>
      <trkpt lat="62.68181" lon="17.85758">
        <ele>8.418763</ele>
        <time>2020-08-29T10:30:26.852Z</time>
      </trkpt>
      <trkpt lat="62.68194" lon="17.85697">
        <ele>8.379003</ele>
        <time>2020-08-29T10:30:31.892Z</time>
      </trkpt>
      <trkpt lat="62.68212" lon="17.85475">
        <ele>6.688716</ele>
        <time>2020-08-29T10:30:47.133Z</time>
      </trkpt>
      <trkpt lat="62.68212" lon="17.85466">
        <ele>6.593422</ele>
        <time>2020-08-29T10:30:47.612Z</time>
      </trkpt>
      <trkpt lat="62.68211" lon="17.85441">
        <ele>6.308237</ele>
        <time>2020-08-29T10:30:49.163Z</time>
      </trkpt>
      <trkpt lat="62.68192" lon="17.85239">
        <ele>4.028825</ele>
        <time>2020-08-29T10:31:02.671Z</time>
      </trkpt>
      <trkpt lat="62.68188" lon="17.85203">
        <ele>3.884067</ele>
        <time>2020-08-29T10:31:05.021Z</time>
      </trkpt>
      <trkpt lat="62.68173" lon="17.85197">
        <ele>3.780844</ele>
        <time>2020-08-29T10:31:07.704Z</time>
      </trkpt>
      <trkpt lat="62.6815" lon="17.85191">
        <ele>3.627395</ele>
        <time>2020-08-29T10:31:10.789Z</time>
      </trkpt>
      <trkpt lat="62.68128" lon="17.85173">
        <ele>3.469522</ele>
        <time>2020-08-29T10:31:14.778Z</time>
      </trkpt>
      <trkpt lat="62.68098" lon="17.85121">
        <ele>3.206502</ele>
        <time>2020-08-29T10:31:21.401Z</time>
      </trkpt>
      <trkpt lat="62.68093" lon="17.85099">
        <ele>3.127504</ele>
        <time>2020-08-29T10:31:23.462Z</time>
      </trkpt>
      <trkpt lat="62.68095" lon="17.85085">
        <ele>3.083388</ele>
        <time>2020-08-29T10:31:24.670Z</time>
      </trkpt>
      <trkpt lat="62.68098" lon="17.85075">
        <ele>3.044612</ele>
        <time>2020-08-29T10:31:25.979Z</time>
      </trkpt>
      <trkpt lat="62.68059" lon="17.85001">
        <ele>2.921945</ele>
        <time>2020-08-29T10:31:36.858Z</time>
      </trkpt>
      <trkpt lat="62.68008" lon="17.84944">
        <ele>3.724068</ele>
        <time>2020-08-29T10:31:50.226Z</time>
      </trkpt>
      <trkpt lat="62.67996" lon="17.84932">
        <ele>3.921795</ele>
        <time>2020-08-29T10:31:53.563Z</time>
      </trkpt>
      <trkpt lat="62.67997" lon="17.84919">
        <ele>4.006069</ele>
        <time>2020-08-29T10:31:55.087Z</time>
      </trkpt>
      <trkpt lat="62.67999" lon="17.84869">
        <ele>4.328619</ele>
        <time>2020-08-29T10:32:00.388Z</time>
      </trkpt>
      <trkpt lat="62.67998" lon="17.84854">
        <ele>4.423491</ele>
        <time>2020-08-29T10:32:02.107Z</time>
      </trkpt>
      <trkpt lat="62.68015" lon="17.84848">
        <ele>4.659688</ele>
        <time>2020-08-29T10:32:06.075Z</time>
      </trkpt>
      <trkpt lat="62.68037" lon="17.84839">
        <ele>4.975295</ele>
        <time>2020-08-29T10:32:11.445Z</time>
      </trkpt>
      <trkpt lat="62.68044" lon="17.84828">
        <ele>5.098146</ele>
        <time>2020-08-29T10:32:13.470Z</time>
      </trkpt>
      <trkpt lat="62.68046" lon="17.84792">
        <ele>5.316306</ele>
        <time>2020-08-29T10:32:17.267Z</time>
      </trkpt>
      <trkpt lat="62.68038" lon="17.84775">
        <ele>5.399404</ele>
        <time>2020-08-29T10:32:20.079Z</time>
      </trkpt>
      <trkpt lat="62.67995" lon="17.84742">
        <ele>5.735529</ele>
        <time>2020-08-29T10:32:30.329Z</time>
      </trkpt>
      <trkpt lat="62.67962" lon="17.84703">
        <ele>6.018735</ele>
        <time>2020-08-29T10:32:38.380Z</time>
      </trkpt>
      <trkpt lat="62.67954" lon="17.8469">
        <ele>6.09669</ele>
        <time>2020-08-29T10:32:40.572Z</time>
      </trkpt>
      <trkpt lat="62.67941" lon="17.84668">
        <ele>6.218668</ele>
        <time>2020-08-29T10:32:43.723Z</time>
      </trkpt>
      <trkpt lat="62.67921" lon="17.84642">
        <ele>6.390744</ele>
        <time>2020-08-29T10:32:48.215Z</time>
      </trkpt>
      <trkpt lat="62.67906" lon="17.84625">
        <ele>6.51747</ele>
        <time>2020-08-29T10:32:51.406Z</time>
      </trkpt>
      <trkpt lat="62.67886" lon="17.846">
        <ele>6.628657</ele>
        <time>2020-08-29T10:32:55.723Z</time>
      </trkpt>
      <trkpt lat="62.67811" lon="17.84521">
        <ele>6.406014</ele>
        <time>2020-08-29T10:33:10.827Z</time>
      </trkpt>
      <trkpt lat="62.67649" lon="17.84318">
        <ele>5.922574</ele>
        <time>2020-08-29T10:33:43.012Z</time>
      </trkpt>
      <trkpt lat="62.67623" lon="17.84288">
        <ele>5.849656</ele>
        <time>2020-08-29T10:33:48.293Z</time>
      </trkpt>
      <trkpt lat="62.67605" lon="17.84271">
        <ele>5.80027</ele>
        <time>2020-08-29T10:33:51.933Z</time>
      </trkpt>
      <trkpt lat="62.67578" lon="17.84249">
        <ele>5.726535</ele>
        <time>2020-08-29T10:33:57.485Z</time>
      </trkpt>
      <trkpt lat="62.67572" lon="17.84245">
        <ele>5.716435</ele>
        <time>2020-08-29T10:33:58.530Z</time>
      </trkpt>
      <trkpt lat="62.67569" lon="17.84221">
        <ele>5.791149</ele>
        <time>2020-08-29T10:34:00.728Z</time>
      </trkpt>
      <trkpt lat="62.67573" lon="17.84207">
        <ele>5.838539</ele>
        <time>2020-08-29T10:34:02.153Z</time>
      </trkpt>
      <trkpt lat="62.67579" lon="17.84166">
        <ele>5.96653</ele>
        <time>2020-08-29T10:34:05.933Z</time>
      </trkpt>
      <trkpt lat="62.67445" lon="17.8404">
        <ele>6.942989</ele>
        <time>2020-08-29T10:34:36.588Z</time>
      </trkpt>
      <trkpt lat="62.67397" lon="17.84008">
        <ele>7.640566</ele>
        <time>2020-08-29T10:34:47.644Z</time>
      </trkpt>
      <trkpt lat="62.67385" lon="17.84003">
        <ele>7.801113</ele>
        <time>2020-08-29T10:34:50.239Z</time>
      </trkpt>
      <trkpt lat="62.67373" lon="17.83996">
        <ele>7.971927</ele>
        <time>2020-08-29T10:34:53.265Z</time>
      </trkpt>
      <trkpt lat="62.67277" lon="17.83964">
        <ele>9.30273</ele>
        <time>2020-08-29T10:35:16.318Z</time>
      </trkpt>
      <trkpt lat="62.67279" lon="17.83963">
        <ele>9.327462</ele>
        <time>2020-08-29T10:35:16.932Z</time>
      </trkpt>
      <trkpt lat="62.67234" lon="17.83957">
        <ele>10.134732</ele>
        <time>2020-08-29T10:35:27.749Z</time>
      </trkpt>
      <trkpt lat="62.67218" lon="17.83952">
        <ele>10.430862</ele>
        <time>2020-08-29T10:35:31.675Z</time>
      </trkpt>
      <trkpt lat="62.67148" lon="17.83951">
        <ele>11.695679</ele>
        <time>2020-08-29T10:35:48.935Z</time>
      </trkpt>
      <trkpt lat="62.67072" lon="17.83997">
        <ele>13.004771</ele>
        <time>2020-08-29T10:36:08.377Z</time>
      </trkpt>
      <trkpt lat="62.67052" lon="17.84006">
        <ele>13.281891</ele>
        <time>2020-08-29T10:36:13.034Z</time>
      </trkpt>
      <trkpt lat="62.67039" lon="17.84011">
        <ele>13.469707</ele>
        <time>2020-08-29T10:36:16.205Z</time>
      </trkpt>
      <trkpt lat="62.66913" lon="17.84061">
        <ele>15.148332</ele>
        <time>2020-08-29T10:36:45.137Z</time>
      </trkpt>
      <trkpt lat="62.66841" lon="17.84108">
        <ele>15.57165</ele>
        <time>2020-08-29T10:37:00.784Z</time>
      </trkpt>
      <trkpt lat="62.66784" lon="17.84166">
        <ele>15.924713</ele>
        <time>2020-08-29T10:37:13.162Z</time>
      </trkpt>
      <trkpt lat="62.6675" lon="17.84217">
        <ele>16.108241</ele>
        <time>2020-08-29T10:37:21.040Z</time>
      </trkpt>
      <trkpt lat="62.66714" lon="17.84277">
        <ele>16.138354</ele>
        <time>2020-08-29T10:37:29.570Z</time>
      </trkpt>
      <trkpt lat="62.66674" lon="17.84365">
        <ele>16.176237</ele>
        <time>2020-08-29T10:37:40.266Z</time>
      </trkpt>
      <trkpt lat="62.66639" lon="17.84458">
        <ele>16.212722</ele>
        <time>2020-08-29T10:37:50.472Z</time>
      </trkpt>
      <trkpt lat="62.66623" lon="17.84522">
        <ele>16.248524</ele>
        <time>2020-08-29T10:37:56.820Z</time>
      </trkpt>
      <trkpt lat="62.66531" lon="17.84875">
        <ele>16.489709</ele>
        <time>2020-08-29T10:38:32.298Z</time>
      </trkpt>
      <trkpt lat="62.66496" lon="17.84995">
        <ele>16.572471</ele>
        <time>2020-08-29T10:38:44.757Z</time>
      </trkpt>
      <trkpt lat="62.6647" lon="17.85058">
        <ele>16.620963</ele>
        <time>2020-08-29T10:38:52.065Z</time>
      </trkpt>
      <trkpt lat="62.66344" lon="17.85377">
        <ele>16.528127</ele>
        <time>2020-08-29T10:39:28.837Z</time>
      </trkpt>
      <trkpt lat="62.66306" lon="17.8545">
        <ele>16.369885</ele>
        <time>2020-08-29T10:39:37.087Z</time>
      </trkpt>
      <trkpt lat="62.6625" lon="17.8552">
        <ele>15.867665</ele>
        <time>2020-08-29T10:39:47.731Z</time>
      </trkpt>
      <trkpt lat="62.66243" lon="17.85538">
        <ele>15.785146</ele>
        <time>2020-08-29T10:39:49.523Z</time>
      </trkpt>
      <trkpt lat="62.66242" lon="17.85557">
        <ele>15.713886</ele>
        <time>2020-08-29T10:39:51.150Z</time>
      </trkpt>
      <trkpt lat="62.66243" lon="17.85569">
        <ele>15.670067</ele>
        <time>2020-08-29T10:39:52.053Z</time>
      </trkpt>
      <trkpt lat="62.66252" lon="17.85599">
        <ele>15.543469</ele>
        <time>2020-08-29T10:39:54.622Z</time>
      </trkpt>
      <trkpt lat="62.66262" lon="17.8563">
        <ele>15.405102</ele>
        <time>2020-08-29T10:39:57.719Z</time>
      </trkpt>
      <trkpt lat="62.66274" lon="17.85653">
        <ele>15.282888</ele>
        <time>2020-08-29T10:40:00.157Z</time>
      </trkpt>
      <trkpt lat="62.66267" lon="17.85685">
        <ele>15.152791</ele>
        <time>2020-08-29T10:40:03.009Z</time>
      </trkpt>
      <trkpt lat="62.66228" lon="17.85837">
        <ele>14.853397</ele>
        <time>2020-08-29T10:40:15.609Z</time>
      </trkpt>
      <trkpt lat="62.66212" lon="17.85982">
        <ele>14.624948</ele>
        <time>2020-08-29T10:40:27.373Z</time>
      </trkpt>
      <trkpt lat="62.66184" lon="17.86091">
        <ele>14.626417</ele>
        <time>2020-08-29T10:40:38.005Z</time>
      </trkpt>
      <trkpt lat="62.66147" lon="17.8617">
        <ele>15.014031</ele>
        <time>2020-08-29T10:40:48.064Z</time>
      </trkpt>
      <trkpt lat="62.66055" lon="17.86272">
        <ele>15.776526</ele>
        <time>2020-08-29T10:41:09.786Z</time>
      </trkpt>
      <trkpt lat="62.66016" lon="17.86308">
        <ele>16.270545</ele>
        <time>2020-08-29T10:41:18.843Z</time>
      </trkpt>
      <trkpt lat="62.65987" lon="17.86338">
        <ele>16.674506</ele>
        <time>2020-08-29T10:41:25.906Z</time>
      </trkpt>
      <trkpt lat="62.65961" lon="17.86377">
        <ele>17.068169</ele>
        <time>2020-08-29T10:41:32.787Z</time>
      </trkpt>
      <trkpt lat="62.6594" lon="17.86426">
        <ele>17.45652</ele>
        <time>2020-08-29T10:41:39.627Z</time>
      </trkpt>
      <trkpt lat="62.65916" lon="17.86518">
        <ele>18.067705</ele>
        <time>2020-08-29T10:41:50.422Z</time>
      </trkpt>
      <trkpt lat="62.65909" lon="17.86587">
        <ele>18.576302</ele>
        <time>2020-08-29T10:41:57.598Z</time>
      </trkpt>
      <trkpt lat="62.65907" lon="17.86838">
        <ele>20.390029</ele>
        <time>2020-08-29T10:42:22.789Z</time>
      </trkpt>
      <trkpt lat="62.65897" lon="17.86961">
        <ele>21.734495</ele>
        <time>2020-08-29T10:42:36.807Z</time>
      </trkpt>
      <trkpt lat="62.6586" lon="17.87164">
        <ele>25.171769</ele>
        <time>2020-08-29T10:43:05.307Z</time>
      </trkpt>
      <trkpt lat="62.65836" lon="17.87254">
        <ele>26.828724</ele>
        <time>2020-08-29T10:43:20.726Z</time>
      </trkpt>
      <trkpt lat="62.65792" lon="17.87339">
        <ele>29.39955</ele>
        <time>2020-08-29T10:43:40.039Z</time>
      </trkpt>
      <trkpt lat="62.65771" lon="17.87394">
        <ele>30.912827</ele>
        <time>2020-08-29T10:43:51.060Z</time>
      </trkpt>
      <trkpt lat="62.65737" lon="17.87525">
        <ele>34.080249</ele>
        <time>2020-08-29T10:44:13.964Z</time>
      </trkpt>
      <trkpt lat="62.65702" lon="17.87932">
        <ele>42.026947</ele>
        <time>2020-08-29T10:45:12.537Z</time>
      </trkpt>
      <trkpt lat="62.65633" lon="17.88415">
        <ele>51.777948</ele>
        <time>2020-08-29T10:46:25.089Z</time>
      </trkpt>
      <trkpt lat="62.656" lon="17.88558">
        <ele>54.97097</ele>
        <time>2020-08-29T10:46:49.030Z</time>
      </trkpt>
      <trkpt lat="62.65556" lon="17.88679">
        <ele>58.034949</ele>
        <time>2020-08-29T10:47:11.887Z</time>
      </trkpt>
      <trkpt lat="62.65524" lon="17.88738">
        <ele>59.467169</ele>
        <time>2020-08-29T10:47:24.248Z</time>
      </trkpt>
      <trkpt lat="62.6551" lon="17.88753">
        <ele>60.007055</ele>
        <time>2020-08-29T10:47:29.193Z</time>
      </trkpt>
      <trkpt lat="62.65497" lon="17.88762">
        <ele>60.47076</ele>
        <time>2020-08-29T10:47:32.869Z</time>
      </trkpt>
      <trkpt lat="62.6548" lon="17.88762">
        <ele>61.083461</ele>
        <time>2020-08-29T10:47:38.103Z</time>
      </trkpt>
      <trkpt lat="62.65477" lon="17.88715">
        <ele>61.825384</ele>
        <time>2020-08-29T10:47:43.987Z</time>
      </trkpt>
      <trkpt lat="62.65468" lon="17.88624">
        <ele>63.302848</ele>
        <time>2020-08-29T10:47:55.930Z</time>
      </trkpt>
      <trkpt lat="62.65456" lon="17.88573">
        <ele>64.235331</ele>
        <time>2020-08-29T10:48:03.333Z</time>
      </trkpt>
      <trkpt lat="62.65442" lon="17.88534">
        <ele>64.799133</ele>
        <time>2020-08-29T10:48:09.710Z</time>
      </trkpt>
      <trkpt lat="62.65433" lon="17.88513">
        <ele>65.136222</ele>
        <time>2020-08-29T10:48:13.134Z</time>
      </trkpt>
      <trkpt lat="62.65401" lon="17.8845">
        <ele>66.242387</ele>
        <time>2020-08-29T10:48:24.166Z</time>
      </trkpt>
      <trkpt lat="62.65365" lon="17.88383">
        <ele>67.449411</ele>
        <time>2020-08-29T10:48:36.028Z</time>
      </trkpt>
      <trkpt lat="62.65353" lon="17.88361">
        <ele>67.841657</ele>
        <time>2020-08-29T10:48:39.963Z</time>
      </trkpt>
      <trkpt lat="62.65341" lon="17.88339">
        <ele>68.226243</ele>
        <time>2020-08-29T10:48:43.816Z</time>
      </trkpt>
      <trkpt lat="62.65311" lon="17.88283">
        <ele>69.232536</ele>
        <time>2020-08-29T10:48:54.282Z</time>
      </trkpt>
      <trkpt lat="62.65299" lon="17.88267">
        <ele>69.580682</ele>
        <time>2020-08-29T10:48:58.193Z</time>
      </trkpt>
      <trkpt lat="62.65285" lon="17.8827">
        <ele>69.946467</ele>
        <time>2020-08-29T10:49:02.008Z</time>
      </trkpt>
      <trkpt lat="62.65273" lon="17.88293">
        <ele>70.350024</ele>
        <time>2020-08-29T10:49:06.392Z</time>
      </trkpt>
      <trkpt lat="62.65232" lon="17.88415">
        <ele>72.067416</ele>
        <time>2020-08-29T10:49:24.215Z</time>
      </trkpt>
      <trkpt lat="62.6522" lon="17.88458">
        <ele>72.648796</ele>
        <time>2020-08-29T10:49:30.150Z</time>
      </trkpt>
      <trkpt lat="62.65216" lon="17.88467">
        <ele>72.794601</ele>
        <time>2020-08-29T10:49:31.568Z</time>
      </trkpt>
      <trkpt lat="62.65214" lon="17.88471">
        <ele>72.856275</ele>
        <time>2020-08-29T10:49:32.167Z</time>
      </trkpt>
      <trkpt lat="62.6521" lon="17.88486">
        <ele>73.058523</ele>
        <time>2020-08-29T10:49:34.447Z</time>
      </trkpt>
      <trkpt lat="62.6517" lon="17.88756">
        <ele>75.776974</ele>
        <time>2020-08-29T10:50:07.640Z</time>
      </trkpt>
      <trkpt lat="62.65155" lon="17.88799">
        <ele>76.290709</ele>
        <time>2020-08-29T10:50:14.023Z</time>
      </trkpt>
      <trkpt lat="62.65012" lon="17.89151">
        <ele>79.788541</ele>
        <time>2020-08-29T10:51:05.242Z</time>
      </trkpt>
      <trkpt lat="62.64982" lon="17.89224">
        <ele>80.216789</ele>
        <time>2020-08-29T10:51:15.171Z</time>
      </trkpt>
      <trkpt lat="62.64978" lon="17.89234">
        <ele>80.274317</ele>
        <time>2020-08-29T10:51:16.578Z</time>
      </trkpt>
      <trkpt lat="62.64936" lon="17.89342">
        <ele>80.894179</ele>
        <time>2020-08-29T10:51:30.411Z</time>
      </trkpt>
      <trkpt lat="62.64925" lon="17.89363">
        <ele>81.034477</ele>
        <time>2020-08-29T10:51:33.552Z</time>
      </trkpt>
      <trkpt lat="62.64917" lon="17.89374">
        <ele>81.121176</ele>
        <time>2020-08-29T10:51:35.419Z</time>
      </trkpt>
      <trkpt lat="62.64855" lon="17.89448">
        <ele>81.263935</ele>
        <time>2020-08-29T10:51:49.913Z</time>
      </trkpt>
      <trkpt lat="62.64833" lon="17.8938">
        <ele>81.007681</ele>
        <time>2020-08-29T10:51:57.570Z</time>
      </trkpt>
      <trkpt lat="62.64819" lon="17.8933">
        <ele>80.824465</ele>
        <time>2020-08-29T10:52:02.981Z</time>
      </trkpt>
      <trkpt lat="62.64801" lon="17.89275">
        <ele>80.619173</ele>
        <time>2020-08-29T10:52:08.225Z</time>
      </trkpt>
      <trkpt lat="62.64752" lon="17.89337">
        <ele>79.936981</ele>
        <time>2020-08-29T10:52:16.516Z</time>
      </trkpt>
      <trkpt lat="62.64709" lon="17.89391">
        <ele>77.334668</ele>
        <time>2020-08-29T10:52:23.128Z</time>
      </trkpt>
      <trkpt lat="62.64686" lon="17.8942">
        <ele>75.917018</ele>
        <time>2020-08-29T10:52:26.617Z</time>
      </trkpt>
      <trkpt lat="62.64661" lon="17.89451">
        <ele>74.406607</ele>
        <time>2020-08-29T10:52:30.186Z</time>
      </trkpt>
      <trkpt lat="62.64555" lon="17.89589">
        <ele>67.132169</ele>
        <time>2020-08-29T10:52:44.945Z</time>
      </trkpt>
      <trkpt lat="62.64524" lon="17.8962">
        <ele>64.86429</ele>
        <time>2020-08-29T10:52:49.051Z</time>
      </trkpt>
      <trkpt lat="62.6452" lon="17.89623">
        <ele>64.601036</ele>
        <time>2020-08-29T10:52:49.474Z</time>
      </trkpt>
      <trkpt lat="62.64511" lon="17.89629">
        <ele>63.96134</ele>
        <time>2020-08-29T10:52:50.686Z</time>
      </trkpt>
      <trkpt lat="62.64513" lon="17.89597">
        <ele>62.954139</ele>
        <time>2020-08-29T10:52:52.670Z</time>
      </trkpt>
      <trkpt lat="62.64521" lon="17.89481">
        <ele>59.395194</ele>
        <time>2020-08-29T10:52:59.265Z</time>
      </trkpt>
      <trkpt lat="62.64522" lon="17.89462">
        <ele>58.852241</ele>
        <time>2020-08-29T10:53:00.467Z</time>
      </trkpt>
      <trkpt lat="62.64508" lon="17.89456">
        <ele>58.419304</ele>
        <time>2020-08-29T10:53:02.455Z</time>
      </trkpt>
      <trkpt lat="62.64498" lon="17.89444">
        <ele>58.106813</ele>
        <time>2020-08-29T10:53:03.674Z</time>
      </trkpt>
      <trkpt lat="62.64487" lon="17.89443">
        <ele>57.788306</ele>
        <time>2020-08-29T10:53:05.229Z</time>
      </trkpt>
      <trkpt lat="62.64464" lon="17.89443">
        <ele>57.12306</ele>
        <time>2020-08-29T10:53:08.071Z</time>
      </trkpt>
      <trkpt lat="62.64458" lon="17.89455">
        <ele>56.890596</ele>
        <time>2020-08-29T10:53:09.248Z</time>
      </trkpt>
      <trkpt lat="62.64453" lon="17.89458">
        <ele>56.734904</ele>
        <time>2020-08-29T10:53:10.109Z</time>
      </trkpt>
      <trkpt lat="62.64444" lon="17.89453">
        <ele>56.469612</ele>
        <time>2020-08-29T10:53:11.530Z</time>
      </trkpt>
      <trkpt lat="62.64445" lon="17.89432">
        <ele>56.197317</ele>
        <time>2020-08-29T10:53:12.937Z</time>
      </trkpt>
      <trkpt lat="62.64417" lon="17.89416">
        <ele>55.362751</ele>
        <time>2020-08-29T10:53:18.707Z</time>
      </trkpt>
      <trkpt lat="62.64413" lon="17.89415">
        <ele>55.24206</ele>
        <time>2020-08-29T10:53:19.290Z</time>
      </trkpt>
      <trkpt lat="62.64407" lon="17.89416">
        <ele>55.078531</ele>
        <time>2020-08-29T10:53:20.071Z</time>
      </trkpt>
      <trkpt lat="62.64371" lon="17.89403">
        <ele>54.021033</ele>
        <time>2020-08-29T10:53:25.279Z</time>
      </trkpt>
      <trkpt lat="62.64367" lon="17.89346">
        <ele>53.360081</ele>
        <time>2020-08-29T10:53:29.057Z</time>
      </trkpt>
      <trkpt lat="62.64366" lon="17.89299">
        <ele>52.855084</ele>
        <time>2020-08-29T10:53:32.291Z</time>
      </trkpt>
      <trkpt lat="62.64364" lon="17.89277">
        <ele>52.623788</ele>
        <time>2020-08-29T10:53:33.885Z</time>
      </trkpt>
      <trkpt lat="62.64361" lon="17.89242">
        <ele>52.245813</ele>
        <time>2020-08-29T10:53:36.082Z</time>
      </trkpt>
      <trkpt lat="62.6433" lon="17.88974">
        <ele>49.221653</ele>
        <time>2020-08-29T10:53:53.635Z</time>
      </trkpt>
      <trkpt lat="62.64325" lon="17.88949">
        <ele>48.836148</ele>
        <time>2020-08-29T10:53:55.086Z</time>
      </trkpt>
      <trkpt lat="62.64322" lon="17.88937">
        <ele>48.639792</ele>
        <time>2020-08-29T10:53:55.894Z</time>
      </trkpt>
      <trkpt lat="62.64317" lon="17.8892">
        <ele>48.354516</ele>
        <time>2020-08-29T10:53:57.237Z</time>
      </trkpt>
      <trkpt lat="62.64307" lon="17.88893">
        <ele>47.835586</ele>
        <time>2020-08-29T10:53:59.314Z</time>
      </trkpt>
      <trkpt lat="62.64301" lon="17.88902">
        <ele>47.613376</ele>
        <time>2020-08-29T10:54:00.210Z</time>
      </trkpt>
      <trkpt lat="62.64251" lon="17.88953">
        <ele>45.876508</ele>
        <time>2020-08-29T10:54:07.578Z</time>
      </trkpt>
      <trkpt lat="62.64247" lon="17.88933">
        <ele>45.551435</ele>
        <time>2020-08-29T10:54:08.787Z</time>
      </trkpt>
      <trkpt lat="62.6422" lon="17.88786">
        <ele>43.514627</ele>
        <time>2020-08-29T10:54:18.322Z</time>
      </trkpt>
      <trkpt lat="62.64187" lon="17.88687">
        <ele>42.468321</ele>
        <time>2020-08-29T10:54:26.151Z</time>
      </trkpt>
      <trkpt lat="62.64178" lon="17.88666">
        <ele>42.217377</ele>
        <time>2020-08-29T10:54:27.873Z</time>
      </trkpt>
      <trkpt lat="62.6417" lon="17.88644">
        <ele>41.966433</ele>
        <time>2020-08-29T10:54:29.815Z</time>
      </trkpt>
      <trkpt lat="62.64152" lon="17.88606">
        <ele>41.497921</ele>
        <time>2020-08-29T10:54:33.499Z</time>
      </trkpt>
      <trkpt lat="62.64044" lon="17.88457">
        <ele>40.288856</ele>
        <time>2020-08-29T10:54:53.872Z</time>
      </trkpt>
      <trkpt lat="62.64021" lon="17.88418">
        <ele>40.20155</ele>
        <time>2020-08-29T10:54:59.036Z</time>
      </trkpt>
      <trkpt lat="62.64002" lon="17.88375">
        <ele>40.118396</ele>
        <time>2020-08-29T10:55:04.026Z</time>
      </trkpt>
      <trkpt lat="62.63973" lon="17.88294">
        <ele>39.973692</ele>
        <time>2020-08-29T10:55:12.730Z</time>
      </trkpt>
      <trkpt lat="62.63947" lon="17.88171">
        <ele>39.480832</ele>
        <time>2020-08-29T10:55:24.147Z</time>
      </trkpt>
      <trkpt lat="62.63925" lon="17.87914">
        <ele>38.491551</ele>
        <time>2020-08-29T10:55:42.512Z</time>
      </trkpt>
      <trkpt lat="62.63921" lon="17.8787">
        <ele>37.890543</ele>
        <time>2020-08-29T10:55:45.688Z</time>
      </trkpt>
      <trkpt lat="62.63918" lon="17.87837">
        <ele>37.452564</ele>
        <time>2020-08-29T10:55:47.699Z</time>
      </trkpt>
      <trkpt lat="62.63894" lon="17.87678">
        <ele>35.26192</ele>
        <time>2020-08-29T10:55:57.940Z</time>
      </trkpt>
      <trkpt lat="62.63873" lon="17.87589">
        <ele>33.953392</ele>
        <time>2020-08-29T10:56:03.891Z</time>
      </trkpt>
      <trkpt lat="62.63861" lon="17.87536">
        <ele>33.082434</ele>
        <time>2020-08-29T10:56:07.299Z</time>
      </trkpt>
      <trkpt lat="62.63855" lon="17.87513">
        <ele>32.59679</ele>
        <time>2020-08-29T10:56:08.896Z</time>
      </trkpt>
      <trkpt lat="62.6381" lon="17.8729">
        <ele>28.221972</ele>
        <time>2020-08-29T10:56:22.925Z</time>
      </trkpt>
      <trkpt lat="62.63785" lon="17.87076">
        <ele>24.836261</ele>
        <time>2020-08-29T10:56:35.743Z</time>
      </trkpt>
      <trkpt lat="62.63779" lon="17.86969">
        <ele>23.438251</ele>
        <time>2020-08-29T10:56:42.243Z</time>
      </trkpt>
      <trkpt lat="62.63787" lon="17.86782">
        <ele>21.245272</ele>
        <time>2020-08-29T10:56:54.224Z</time>
      </trkpt>
      <trkpt lat="62.6381" lon="17.86401">
        <ele>20.569607</ele>
        <time>2020-08-29T10:57:24.823Z</time>
      </trkpt>
      <trkpt lat="62.63812" lon="17.8636">
        <ele>20.634682</ele>
        <time>2020-08-29T10:57:28.683Z</time>
      </trkpt>
      <trkpt lat="62.63817" lon="17.86113">
        <ele>21.027418</ele>
        <time>2020-08-29T10:57:50.934Z</time>
      </trkpt>
      <trkpt lat="62.63806" lon="17.85926">
        <ele>21.257182</ele>
        <time>2020-08-29T10:58:07.004Z</time>
      </trkpt>
      <trkpt lat="62.63784" lon="17.85759">
        <ele>21.411561</ele>
        <time>2020-08-29T10:58:21.410Z</time>
      </trkpt>
      <trkpt lat="62.63768" lon="17.85624">
        <ele>21.645414</ele>
        <time>2020-08-29T10:58:33.029Z</time>
      </trkpt>
      <trkpt lat="62.6375" lon="17.85469">
        <ele>22.569417</ele>
        <time>2020-08-29T10:58:47.586Z</time>
      </trkpt>
      <trkpt lat="62.63746" lon="17.85368">
        <ele>23.153078</ele>
        <time>2020-08-29T10:58:57.666Z</time>
      </trkpt>
      <trkpt lat="62.63744" lon="17.85319">
        <ele>23.442796</ele>
        <time>2020-08-29T10:59:02.893Z</time>
      </trkpt>
      <trkpt lat="62.63743" lon="17.85281">
        <ele>23.661448</ele>
        <time>2020-08-29T10:59:07.034Z</time>
      </trkpt>
      <trkpt lat="62.63724" lon="17.84712">
        <ele>32.612243</ele>
        <time>2020-08-29T11:00:23.249Z</time>
      </trkpt>
      <trkpt lat="62.63721" lon="17.84676">
        <ele>33.278343</ele>
        <time>2020-08-29T11:00:29.283Z</time>
      </trkpt>
      <trkpt lat="62.63719" lon="17.84579">
        <ele>35.019586</ele>
        <time>2020-08-29T11:00:43.000Z</time>
      </trkpt>
      <trkpt lat="62.63712" lon="17.84447">
        <ele>37.292441</ele>
        <time>2020-08-29T11:01:02.051Z</time>
      </trkpt>
      <trkpt lat="62.63711" lon="17.84359">
        <ele>38.549322</ele>
        <time>2020-08-29T11:01:14.221Z</time>
      </trkpt>
      <trkpt lat="62.63712" lon="17.84131">
        <ele>41.829094</ele>
        <time>2020-08-29T11:01:41.844Z</time>
      </trkpt>
      <trkpt lat="62.63729" lon="17.83877">
        <ele>44.943982</ele>
        <time>2020-08-29T11:02:13.238Z</time>
      </trkpt>
      <trkpt lat="62.63729" lon="17.83869">
        <ele>45.038222</ele>
        <time>2020-08-29T11:02:14.845Z</time>
      </trkpt>
      <trkpt lat="62.63742" lon="17.83755">
        <ele>46.41275</ele>
        <time>2020-08-29T11:02:28.720Z</time>
      </trkpt>
      <trkpt lat="62.63787" lon="17.83352">
        <ele>49.635988</ele>
        <time>2020-08-29T11:03:13.295Z</time>
      </trkpt>
      <trkpt lat="62.63811" lon="17.83097">
        <ele>50.104655</ele>
        <time>2020-08-29T11:03:36.273Z</time>
      </trkpt>
      <trkpt lat="62.63817" lon="17.8299">
        <ele>50.229987</ele>
        <time>2020-08-29T11:03:44.939Z</time>
      </trkpt>
      <trkpt lat="62.63819" lon="17.82896">
        <ele>50.135454</ele>
        <time>2020-08-29T11:03:52.180Z</time>
      </trkpt>
      <trkpt lat="62.63818" lon="17.82702">
        <ele>49.459473</ele>
        <time>2020-08-29T11:04:06.410Z</time>
      </trkpt>
      <trkpt lat="62.63807" lon="17.82511">
        <ele>48.841847</ele>
        <time>2020-08-29T11:04:20.130Z</time>
      </trkpt>
      <trkpt lat="62.63796" lon="17.82394">
        <ele>48.587023</ele>
        <time>2020-08-29T11:04:28.825Z</time>
      </trkpt>
      <trkpt lat="62.63763" lon="17.82146">
        <ele>48.085432</ele>
        <time>2020-08-29T11:04:49.144Z</time>
      </trkpt>
      <trkpt lat="62.63755" lon="17.82092">
        <ele>48.080849</ele>
        <time>2020-08-29T11:04:53.738Z</time>
      </trkpt>
      <trkpt lat="62.63752" lon="17.82074">
        <ele>48.079281</ele>
        <time>2020-08-29T11:04:55.405Z</time>
      </trkpt>
      <trkpt lat="62.63742" lon="17.82007">
        <ele>48.073542</ele>
        <time>2020-08-29T11:05:01.361Z</time>
      </trkpt>
      <trkpt lat="62.63665" lon="17.81541">
        <ele>47.73191</ele>
        <time>2020-08-29T11:05:41.927Z</time>
      </trkpt>
      <trkpt lat="62.63643" lon="17.81446">
        <ele>47.607347</ele>
        <time>2020-08-29T11:05:49.781Z</time>
      </trkpt>
      <trkpt lat="62.63631" lon="17.81404">
        <ele>47.477801</ele>
        <time>2020-08-29T11:05:53.345Z</time>
      </trkpt>
      <trkpt lat="62.63586" lon="17.81275">
        <ele>46.99464</ele>
        <time>2020-08-29T11:06:05.128Z</time>
      </trkpt>
      <trkpt lat="62.63575" lon="17.81251">
        <ele>46.893732</ele>
        <time>2020-08-29T11:06:07.590Z</time>
      </trkpt>
      <trkpt lat="62.63566" lon="17.8123">
        <ele>46.808191</ele>
        <time>2020-08-29T11:06:09.600Z</time>
      </trkpt>
      <trkpt lat="62.63448" lon="17.81027">
        <ele>46.455019</ele>
        <time>2020-08-29T11:06:34.935Z</time>
      </trkpt>
      <trkpt lat="62.6342" lon="17.80975">
        <ele>46.465274</ele>
        <time>2020-08-29T11:06:41.903Z</time>
      </trkpt>
      <trkpt lat="62.63417" lon="17.8097">
        <ele>46.466216</ele>
        <time>2020-08-29T11:06:42.695Z</time>
      </trkpt>
      <trkpt lat="62.63397" lon="17.80922">
        <ele>46.474485</ele>
        <time>2020-08-29T11:06:48.183Z</time>
      </trkpt>
      <trkpt lat="62.63393" lon="17.80911">
        <ele>46.476256</ele>
        <time>2020-08-29T11:06:49.584Z</time>
      </trkpt>
      <trkpt lat="62.63365" lon="17.80835">
        <ele>46.79147</ele>
        <time>2020-08-29T11:06:58.328Z</time>
      </trkpt>
      <trkpt lat="62.6331" lon="17.80641">
        <ele>47.75932</ele>
        <time>2020-08-29T11:07:19.628Z</time>
      </trkpt>
      <trkpt lat="62.63239" lon="17.8032">
        <ele>50.25189</ele>
        <time>2020-08-29T11:07:57.325Z</time>
      </trkpt>
      <trkpt lat="62.63229" lon="17.80244">
        <ele>50.880012</ele>
        <time>2020-08-29T11:08:06.280Z</time>
      </trkpt>
      <trkpt lat="62.63222" lon="17.80164">
        <ele>51.425041</ele>
        <time>2020-08-29T11:08:15.447Z</time>
      </trkpt>
      <trkpt lat="62.6322" lon="17.80108">
        <ele>51.697303</ele>
        <time>2020-08-29T11:08:21.462Z</time>
      </trkpt>
      <trkpt lat="62.63215" lon="17.79989">
        <ele>52.275884</ele>
        <time>2020-08-29T11:08:33.904Z</time>
      </trkpt>
      <trkpt lat="62.63211" lon="17.79884">
        <ele>52.791585</ele>
        <time>2020-08-29T11:08:43.969Z</time>
      </trkpt>
      <trkpt lat="62.63192" lon="17.7969">
        <ele>52.762566</ele>
        <time>2020-08-29T11:08:59.877Z</time>
      </trkpt>
      <trkpt lat="62.63176" lon="17.79601">
        <ele>52.455661</ele>
        <time>2020-08-29T11:09:06.744Z</time>
      </trkpt>
      <trkpt lat="62.631" lon="17.79275">
        <ele>51.262258</ele>
        <time>2020-08-29T11:09:32.481Z</time>
      </trkpt>
      <trkpt lat="62.63085" lon="17.79186">
        <ele>50.947542</ele>
        <time>2020-08-29T11:09:39.585Z</time>
      </trkpt>
      <trkpt lat="62.63069" lon="17.79035">
        <ele>50.564162</ele>
        <time>2020-08-29T11:09:51.755Z</time>
      </trkpt>
      <trkpt lat="62.63065" lon="17.78978">
        <ele>50.519861</ele>
        <time>2020-08-29T11:09:56.409Z</time>
      </trkpt>
      <trkpt lat="62.63065" lon="17.78969">
        <ele>50.512598</ele>
        <time>2020-08-29T11:09:57.311Z</time>
      </trkpt>
      <trkpt lat="62.63056" lon="17.78693">
        <ele>50.305549</ele>
        <time>2020-08-29T11:10:19.259Z</time>
      </trkpt>
      <trkpt lat="62.63049" lon="17.78584">
        <ele>50.450328</ele>
        <time>2020-08-29T11:10:28.217Z</time>
      </trkpt>
      <trkpt lat="62.63016" lon="17.78591">
        <ele>50.544106</ele>
        <time>2020-08-29T11:10:33.968Z</time>
      </trkpt>
      <trkpt lat="62.6297" lon="17.78577">
        <ele>50.677218</ele>
        <time>2020-08-29T11:10:42.415Z</time>
      </trkpt>
      <trkpt lat="62.62803" lon="17.78478">
        <ele>52.573179</ele>
        <time>2020-08-29T11:11:19.304Z</time>
      </trkpt>
      <trkpt lat="62.62767" lon="17.78414">
        <ele>53.231012</ele>
        <time>2020-08-29T11:11:31.004Z</time>
      </trkpt>
      <trkpt lat="62.62682" lon="17.78181">
        <ele>55.207386</ele>
        <time>2020-08-29T11:12:03.674Z</time>
      </trkpt>
      <trkpt lat="62.62625" lon="17.78067">
        <ele>55.748317</ele>
        <time>2020-08-29T11:12:19.359Z</time>
      </trkpt>
      <trkpt lat="62.62098" lon="17.77291">
        <ele>50.649568</ele>
        <time>2020-08-29T11:13:58.484Z</time>
      </trkpt>
      <trkpt lat="62.6204" lon="17.77205">
        <ele>50.200148</ele>
        <time>2020-08-29T11:14:10.280Z</time>
      </trkpt>
      <trkpt lat="62.62111" lon="17.7683">
        <ele>49.892547</ele>
        <time>2020-08-29T11:14:43.188Z</time>
      </trkpt>
      <trkpt lat="62.62141" lon="17.7666">
        <ele>49.778405</ele>
        <time>2020-08-29T11:14:57.749Z</time>
      </trkpt>
      <trkpt lat="62.62152" lon="17.76535">
        <ele>49.698935</ele>
        <time>2020-08-29T11:15:07.783Z</time>
      </trkpt>
      <trkpt lat="62.62153" lon="17.76458">
        <ele>49.693287</ele>
        <time>2020-08-29T11:15:13.924Z</time>
      </trkpt>
      <trkpt lat="62.62142" lon="17.7625">
        <ele>49.802321</ele>
        <time>2020-08-29T11:15:30.854Z</time>
      </trkpt>
      <trkpt lat="62.62145" lon="17.76039">
        <ele>50.158989</ele>
        <time>2020-08-29T11:15:49.278Z</time>
      </trkpt>
      <trkpt lat="62.62227" lon="17.74832">
        <ele>55.385869</ele>
        <time>2020-08-29T11:17:47.320Z</time>
      </trkpt>
      <trkpt lat="62.62245" lon="17.74707">
        <ele>55.878085</ele>
        <time>2020-08-29T11:17:59.174Z</time>
      </trkpt>
      <trkpt lat="62.62333" lon="17.74303">
        <ele>57.674553</ele>
        <time>2020-08-29T11:18:41.971Z</time>
      </trkpt>
      <trkpt lat="62.62372" lon="17.74126">
        <ele>58.109419</ele>
        <time>2020-08-29T11:19:00.717Z</time>
      </trkpt>
      <trkpt lat="62.62396" lon="17.74017">
        <ele>58.174876</ele>
        <time>2020-08-29T11:19:11.309Z</time>
      </trkpt>
      <trkpt lat="62.62434" lon="17.73775">
        <ele>57.652234</ele>
        <time>2020-08-29T11:19:30.553Z</time>
      </trkpt>
      <trkpt lat="62.62508" lon="17.7324">
        <ele>53.294432</ele>
        <time>2020-08-29T11:20:07.426Z</time>
      </trkpt>
      <trkpt lat="62.62538" lon="17.73065">
        <ele>51.633732</ele>
        <time>2020-08-29T11:20:19.337Z</time>
      </trkpt>
      <trkpt lat="62.62566" lon="17.72922">
        <ele>50.312792</ele>
        <time>2020-08-29T11:20:29.402Z</time>
      </trkpt>
      <trkpt lat="62.6259" lon="17.72817">
        <ele>49.322745</ele>
        <time>2020-08-29T11:20:37.118Z</time>
      </trkpt>
      <trkpt lat="62.62607" lon="17.72762">
        <ele>48.768081</ele>
        <time>2020-08-29T11:20:41.622Z</time>
      </trkpt>
      <trkpt lat="62.62648" lon="17.72687">
        <ele>48.560375</ele>
        <time>2020-08-29T11:20:49.678Z</time>
      </trkpt>
      <trkpt lat="62.62831" lon="17.72483">
        <ele>49.27769</ele>
        <time>2020-08-29T11:21:26.713Z</time>
      </trkpt>
      <trkpt lat="62.62924" lon="17.72359">
        <ele>51.189671</ele>
        <time>2020-08-29T11:21:54.401Z</time>
      </trkpt>
      <trkpt lat="62.62964" lon="17.72264">
        <ele>53.79316</ele>
        <time>2020-08-29T11:22:12.772Z</time>
      </trkpt>
      <trkpt lat="62.63" lon="17.72151">
        <ele>56.573001</ele>
        <time>2020-08-29T11:22:34.228Z</time>
      </trkpt>
      <trkpt lat="62.63074" lon="17.71916">
        <ele>62.722792</ele>
        <time>2020-08-29T11:23:18.766Z</time>
      </trkpt>
      <trkpt lat="62.63086" lon="17.71875">
        <ele>63.824568</ele>
        <time>2020-08-29T11:23:26.383Z</time>
      </trkpt>
      <trkpt lat="62.63128" lon="17.71706">
        <ele>68.155151</ele>
        <time>2020-08-29T11:23:55.265Z</time>
      </trkpt>
      <trkpt lat="62.63137" lon="17.7163">
        <ele>69.969609</ele>
        <time>2020-08-29T11:24:07.139Z</time>
      </trkpt>
      <trkpt lat="62.63152" lon="17.71431">
        <ele>74.595088</ele>
        <time>2020-08-29T11:24:38.197Z</time>
      </trkpt>
      <trkpt lat="62.63162" lon="17.71346">
        <ele>76.627649</ele>
        <time>2020-08-29T11:24:52.584Z</time>
      </trkpt>
      <trkpt lat="62.63175" lon="17.71288">
        <ele>78.19547</ele>
        <time>2020-08-29T11:25:03.265Z</time>
      </trkpt>
      <trkpt lat="62.63193" lon="17.71228">
        <ele>79.966829</ele>
        <time>2020-08-29T11:25:15.461Z</time>
      </trkpt>
      <trkpt lat="62.63404" lon="17.70697">
        <ele>94.903818</ele>
        <time>2020-08-29T11:27:06.215Z</time>
      </trkpt>
      <trkpt lat="62.63448" lon="17.7053">
        <ele>94.963063</ele>
        <time>2020-08-29T11:27:23.812Z</time>
      </trkpt>
      <trkpt lat="62.63674" lon="17.69158">
        <ele>73.588699</ele>
        <time>2020-08-29T11:28:49.642Z</time>
      </trkpt>
      <trkpt lat="62.63691" lon="17.69008">
        <ele>71.607335</ele>
        <time>2020-08-29T11:28:59.398Z</time>
      </trkpt>
      <trkpt lat="62.63694" lon="17.68738">
        <ele>68.436841</ele>
        <time>2020-08-29T11:29:16.753Z</time>
      </trkpt>
      <trkpt lat="62.63741" lon="17.68428">
        <ele>64.991206</ele>
        <time>2020-08-29T11:29:37.024Z</time>
      </trkpt>
      <trkpt lat="62.63759" lon="17.68261">
        <ele>63.406016</ele>
        <time>2020-08-29T11:29:47.874Z</time>
      </trkpt>
      <trkpt lat="62.63763" lon="17.68176">
        <ele>62.615155</ele>
        <time>2020-08-29T11:29:53.575Z</time>
      </trkpt>
      <trkpt lat="62.63766" lon="17.67573">
        <ele>61.951905</ele>
        <time>2020-08-29T11:30:42.224Z</time>
      </trkpt>
      <trkpt lat="62.63782" lon="17.67452">
        <ele>61.944239</ele>
        <time>2020-08-29T11:30:53.179Z</time>
      </trkpt>
      <trkpt lat="62.63811" lon="17.67355">
        <ele>61.719535</ele>
        <time>2020-08-29T11:31:03.067Z</time>
      </trkpt>
      <trkpt lat="62.63828" lon="17.67299">
        <ele>61.366558</ele>
        <time>2020-08-29T11:31:07.925Z</time>
      </trkpt>
      <trkpt lat="62.63897" lon="17.67077">
        <ele>59.950654</ele>
        <time>2020-08-29T11:31:26.286Z</time>
      </trkpt>
      <trkpt lat="62.63903" lon="17.67057">
        <ele>59.803959</ele>
        <time>2020-08-29T11:31:27.875Z</time>
      </trkpt>
      <trkpt lat="62.63908" lon="17.67036">
        <ele>59.607857</ele>
        <time>2020-08-29T11:31:29.270Z</time>
      </trkpt>
      <trkpt lat="62.63927" lon="17.66881">
        <ele>58.302537</ele>
        <time>2020-08-29T11:31:39.617Z</time>
      </trkpt>
      <trkpt lat="62.63925" lon="17.66675">
        <ele>56.663531</ele>
        <time>2020-08-29T11:31:53.254Z</time>
      </trkpt>
      <trkpt lat="62.63928" lon="17.66563">
        <ele>56.290036</ele>
        <time>2020-08-29T11:32:01.475Z</time>
      </trkpt>
      <trkpt lat="62.63933" lon="17.66505">
        <ele>56.092327</ele>
        <time>2020-08-29T11:32:05.948Z</time>
      </trkpt>
      <trkpt lat="62.63967" lon="17.6626">
        <ele>55.227435</ele>
        <time>2020-08-29T11:32:25.437Z</time>
      </trkpt>
      <trkpt lat="62.63987" lon="17.66165">
        <ele>54.856163</ele>
        <time>2020-08-29T11:32:33.157Z</time>
      </trkpt>
      <trkpt lat="62.64022" lon="17.66037">
        <ele>54.323494</ele>
        <time>2020-08-29T11:32:43.973Z</time>
      </trkpt>
      <trkpt lat="62.64062" lon="17.65914">
        <ele>53.792304</ele>
        <time>2020-08-29T11:32:54.676Z</time>
      </trkpt>
      <trkpt lat="62.64183" lon="17.65578">
        <ele>52.529313</ele>
        <time>2020-08-29T11:33:25.995Z</time>
      </trkpt>
      <trkpt lat="62.642" lon="17.65497">
        <ele>52.430183</ele>
        <time>2020-08-29T11:33:32.992Z</time>
      </trkpt>
      <trkpt lat="62.64206" lon="17.65395">
        <ele>52.316106</ele>
        <time>2020-08-29T11:33:41.229Z</time>
      </trkpt>
      <trkpt lat="62.64217" lon="17.6486">
        <ele>52.396577</ele>
        <time>2020-08-29T11:34:26.676Z</time>
      </trkpt>
      <trkpt lat="62.64224" lon="17.64755">
        <ele>52.271661</ele>
        <time>2020-08-29T11:34:35.295Z</time>
      </trkpt>
      <trkpt lat="62.64276" lon="17.64195">
        <ele>51.536663</ele>
        <time>2020-08-29T11:35:18.737Z</time>
      </trkpt>
      <trkpt lat="62.6428" lon="17.64152">
        <ele>51.477625</ele>
        <time>2020-08-29T11:35:22.028Z</time>
      </trkpt>
      <trkpt lat="62.64317" lon="17.63736">
        <ele>53.114272</ele>
        <time>2020-08-29T11:36:00.398Z</time>
      </trkpt>
      <trkpt lat="62.6432" lon="17.63657">
        <ele>54.986652</ele>
        <time>2020-08-29T11:36:10.949Z</time>
      </trkpt>
      <trkpt lat="62.64318" lon="17.6358">
        <ele>56.813562</ele>
        <time>2020-08-29T11:36:22.190Z</time>
      </trkpt>
      <trkpt lat="62.64312" lon="17.63511">
        <ele>58.461245</ele>
        <time>2020-08-29T11:36:33.422Z</time>
      </trkpt>
      <trkpt lat="62.64308" lon="17.63486">
        <ele>59.079931</ele>
        <time>2020-08-29T11:36:37.428Z</time>
      </trkpt>
      <trkpt lat="62.64303" lon="17.63446">
        <ele>60.074952</ele>
        <time>2020-08-29T11:36:45.428Z</time>
      </trkpt>
      <trkpt lat="62.64267" lon="17.63298">
        <ele>65.103478</ele>
        <time>2020-08-29T11:37:18.102Z</time>
      </trkpt>
      <trkpt lat="62.6423" lon="17.63207">
        <ele>69.641221</ele>
        <time>2020-08-29T11:37:45.011Z</time>
      </trkpt>
      <trkpt lat="62.64134" lon="17.62981">
        <ele>79.835955</ele>
        <time>2020-08-29T11:38:46.032Z</time>
      </trkpt>
      <trkpt lat="62.64123" lon="17.62955">
        <ele>80.747687</ele>
        <time>2020-08-29T11:38:52.211Z</time>
      </trkpt>
      <trkpt lat="62.63949" lon="17.62548">
        <ele>92.686631</ele>
        <time>2020-08-29T11:40:12.649Z</time>
      </trkpt>
      <trkpt lat="62.63915" lon="17.62491">
        <ele>94.333117</ele>
        <time>2020-08-29T11:40:25.008Z</time>
      </trkpt>
      <trkpt lat="62.63758" lon="17.62275">
        <ele>99.994596</ele>
        <time>2020-08-29T11:41:15.242Z</time>
      </trkpt>
      <trkpt lat="62.63704" lon="17.62182">
        <ele>102.669211</ele>
        <time>2020-08-29T11:41:33.351Z</time>
      </trkpt>
      <trkpt lat="62.6365" lon="17.62028">
        <ele>106.133354</ele>
        <time>2020-08-29T11:42:01.880Z</time>
      </trkpt>
      <trkpt lat="62.63614" lon="17.6189">
        <ele>110.472937</ele>
        <time>2020-08-29T11:42:29.105Z</time>
      </trkpt>
      <trkpt lat="62.63611" lon="17.61861">
        <ele>111.312069</ele>
        <time>2020-08-29T11:42:34.988Z</time>
      </trkpt>
      <trkpt lat="62.63611" lon="17.61809">
        <ele>112.808138</ele>
        <time>2020-08-29T11:42:43.548Z</time>
      </trkpt>
      <trkpt lat="62.63612" lon="17.61784">
        <ele>113.510441</ele>
        <time>2020-08-29T11:42:48.711Z</time>
      </trkpt>
      <trkpt lat="62.63612" lon="17.61681">
        <ele>116.472939</ele>
        <time>2020-08-29T11:43:06.805Z</time>
      </trkpt>
      <trkpt lat="62.63607" lon="17.61584">
        <ele>118.876083</ele>
        <time>2020-08-29T11:43:23.810Z</time>
      </trkpt>
      <trkpt lat="62.63587" lon="17.61492">
        <ele>121.119916</ele>
        <time>2020-08-29T11:43:42.276Z</time>
      </trkpt>
      <trkpt lat="62.63473" lon="17.61113">
        <ele>129.611695</ele>
        <time>2020-08-29T11:44:43.353Z</time>
      </trkpt>
      <trkpt lat="62.63458" lon="17.61049">
        <ele>130.713026</ele>
        <time>2020-08-29T11:44:52.791Z</time>
      </trkpt>
      <trkpt lat="62.63432" lon="17.60706">
        <ele>134.779942</ele>
        <time>2020-08-29T11:45:35.363Z</time>
      </trkpt>
      <trkpt lat="62.63414" lon="17.6062">
        <ele>135.754697</ele>
        <time>2020-08-29T11:45:45.702Z</time>
      </trkpt>
      <trkpt lat="62.63388" lon="17.60521">
        <ele>136.134527</ele>
        <time>2020-08-29T11:45:57.197Z</time>
      </trkpt>
      <trkpt lat="62.63347" lon="17.60419">
        <ele>135.89057</ele>
        <time>2020-08-29T11:46:08.433Z</time>
      </trkpt>
      <trkpt lat="62.633" lon="17.60325">
        <ele>135.638987</ele>
        <time>2020-08-29T11:46:18.247Z</time>
      </trkpt>
      <trkpt lat="62.63199" lon="17.60155">
        <ele>133.546168</ele>
        <time>2020-08-29T11:46:35.994Z</time>
      </trkpt>
      <trkpt lat="62.63173" lon="17.60127">
        <ele>132.984574</ele>
        <time>2020-08-29T11:46:39.949Z</time>
      </trkpt>
      <trkpt lat="62.63072" lon="17.60049">
        <ele>132.538186</ele>
        <time>2020-08-29T11:46:55.694Z</time>
      </trkpt>
      <trkpt lat="62.63052" lon="17.60023">
        <ele>132.71563</ele>
        <time>2020-08-29T11:46:59.925Z</time>
      </trkpt>
      <trkpt lat="62.63027" lon="17.59959">
        <ele>133.011339</ele>
        <time>2020-08-29T11:47:07.990Z</time>
      </trkpt>
      <trkpt lat="62.63029" lon="17.59877">
        <ele>133.299757</ele>
        <time>2020-08-29T11:47:17.395Z</time>
      </trkpt>
      <trkpt lat="62.63054" lon="17.59671">
        <ele>137.836024</ele>
        <time>2020-08-29T11:47:48.259Z</time>
      </trkpt>
      <trkpt lat="62.63059" lon="17.59116">
        <ele>153.667333</ele>
        <time>2020-08-29T11:49:30.926Z</time>
      </trkpt>
      <trkpt lat="62.63043" lon="17.58947">
        <ele>156.887633</ele>
        <time>2020-08-29T11:49:58.636Z</time>
      </trkpt>
      <trkpt lat="62.6302" lon="17.58795">
        <ele>158.951563</ele>
        <time>2020-08-29T11:50:18.131Z</time>
      </trkpt>
      <trkpt lat="62.62993" lon="17.58621">
        <ele>160.233555</ele>
        <time>2020-08-29T11:50:34.184Z</time>
      </trkpt>
      <trkpt lat="62.62953" lon="17.58364">
        <ele>159.39966</ele>
        <time>2020-08-29T11:50:52.956Z</time>
      </trkpt>
      <trkpt lat="62.62934" lon="17.58273">
        <ele>159.257014</ele>
        <time>2020-08-29T11:51:00.352Z</time>
      </trkpt>
      <trkpt lat="62.62831" lon="17.57966">
        <ele>159.395969</ele>
        <time>2020-08-29T11:51:33.480Z</time>
      </trkpt>
      <trkpt lat="62.62813" lon="17.579">
        <ele>159.446963</ele>
        <time>2020-08-29T11:51:40.352Z</time>
      </trkpt>
      <trkpt lat="62.6268" lon="17.571">
        <ele>159.750698</ele>
        <time>2020-08-29T11:52:50.496Z</time>
      </trkpt>
      <trkpt lat="62.62673" lon="17.57027">
        <ele>159.780438</ele>
        <time>2020-08-29T11:52:56.754Z</time>
      </trkpt>
      <trkpt lat="62.62671" lon="17.56935">
        <ele>159.816712</ele>
        <time>2020-08-29T11:53:04.430Z</time>
      </trkpt>
      <trkpt lat="62.62677" lon="17.56771">
        <ele>159.74863</ele>
        <time>2020-08-29T11:53:18.165Z</time>
      </trkpt>
      <trkpt lat="62.62688" lon="17.56701">
        <ele>159.698116</ele>
        <time>2020-08-29T11:53:24.169Z</time>
      </trkpt>
      <trkpt lat="62.62711" lon="17.56605">
        <ele>159.623238</ele>
        <time>2020-08-29T11:53:32.793Z</time>
      </trkpt>
      <trkpt lat="62.62728" lon="17.56556">
        <ele>159.580659</ele>
        <time>2020-08-29T11:53:37.574Z</time>
      </trkpt>
      <trkpt lat="62.62779" lon="17.5647">
        <ele>159.172328</ele>
        <time>2020-08-29T11:53:48.103Z</time>
      </trkpt>
      <trkpt lat="62.62906" lon="17.56353">
        <ele>158.202286</ele>
        <time>2020-08-29T11:54:09.691Z</time>
      </trkpt>
      <trkpt lat="62.62927" lon="17.5632">
        <ele>158.109781</ele>
        <time>2020-08-29T11:54:13.838Z</time>
      </trkpt>
      <trkpt lat="62.62959" lon="17.56241">
        <ele>157.937855</ele>
        <time>2020-08-29T11:54:22.076Z</time>
      </trkpt>
      <trkpt lat="62.62969" lon="17.56203">
        <ele>157.867393</ele>
        <time>2020-08-29T11:54:25.322Z</time>
      </trkpt>
      <trkpt lat="62.6298" lon="17.56155">
        <ele>157.778634</ele>
        <time>2020-08-29T11:54:29.844Z</time>
      </trkpt>
      <trkpt lat="62.63001" lon="17.5608">
        <ele>157.634486</ele>
        <time>2020-08-29T11:54:36.932Z</time>
      </trkpt>
      <trkpt lat="62.63062" lon="17.55952">
        <ele>157.5428</ele>
        <time>2020-08-29T11:54:52.083Z</time>
      </trkpt>
      <trkpt lat="62.63136" lon="17.5572">
        <ele>157.600601</ele>
        <time>2020-08-29T11:55:14.741Z</time>
      </trkpt>
      <trkpt lat="62.63154" lon="17.55652">
        <ele>157.80098</ele>
        <time>2020-08-29T11:55:21.039Z</time>
      </trkpt>
      <trkpt lat="62.6318" lon="17.55505">
        <ele>158.201155</ele>
        <time>2020-08-29T11:55:34.337Z</time>
      </trkpt>
      <trkpt lat="62.63232" lon="17.55079">
        <ele>161.879431</ele>
        <time>2020-08-29T11:56:22.522Z</time>
      </trkpt>
      <trkpt lat="62.6325" lon="17.54955">
        <ele>164.03628</ele>
        <time>2020-08-29T11:56:40.042Z</time>
      </trkpt>
      <trkpt lat="62.63266" lon="17.54779">
        <ele>167.780603</ele>
        <time>2020-08-29T11:57:06.368Z</time>
      </trkpt>
      <trkpt lat="62.63294" lon="17.54566">
        <ele>173.111789</ele>
        <time>2020-08-29T11:57:42.970Z</time>
      </trkpt>
      <trkpt lat="62.6331" lon="17.54493">
        <ele>175.458609</ele>
        <time>2020-08-29T11:57:57.085Z</time>
      </trkpt>
      <trkpt lat="62.63329" lon="17.54438">
        <ele>177.433861</ele>
        <time>2020-08-29T11:58:09.378Z</time>
      </trkpt>
      <trkpt lat="62.63589" lon="17.53869">
        <ele>198.154135</ele>
        <time>2020-08-29T12:00:33.658Z</time>
      </trkpt>
      <trkpt lat="62.63667" lon="17.53704">
        <ele>197.311162</ele>
        <time>2020-08-29T12:00:50.129Z</time>
      </trkpt>
      <trkpt lat="62.63675" lon="17.53689">
        <ele>196.659246</ele>
        <time>2020-08-29T12:00:51.270Z</time>
      </trkpt>
      <trkpt lat="62.63908" lon="17.53176">
        <ele>171.77368</ele>
        <time>2020-08-29T12:01:28.149Z</time>
      </trkpt>
      <trkpt lat="62.63931" lon="17.5311">
        <ele>169.810037</ele>
        <time>2020-08-29T12:01:32.501Z</time>
      </trkpt>
      <trkpt lat="62.63949" lon="17.53011">
        <ele>167.251306</ele>
        <time>2020-08-29T12:01:38.422Z</time>
      </trkpt>
      <trkpt lat="62.63954" lon="17.5291">
        <ele>164.842307</ele>
        <time>2020-08-29T12:01:44.418Z</time>
      </trkpt>
      <trkpt lat="62.63946" lon="17.52797">
        <ele>164.239517</ele>
        <time>2020-08-29T12:01:52.082Z</time>
      </trkpt>
      <trkpt lat="62.63872" lon="17.52387">
        <ele>166.32292</ele>
        <time>2020-08-29T12:02:39.062Z</time>
      </trkpt>
      <trkpt lat="62.63864" lon="17.52282">
        <ele>167.239223</ele>
        <time>2020-08-29T12:02:51.366Z</time>
      </trkpt>
      <trkpt lat="62.63867" lon="17.52183">
        <ele>168.087583</ele>
        <time>2020-08-29T12:03:02.195Z</time>
      </trkpt>
      <trkpt lat="62.63872" lon="17.52154">
        <ele>168.352614</ele>
        <time>2020-08-29T12:03:06.223Z</time>
      </trkpt>
      <trkpt lat="62.63875" lon="17.52129">
        <ele>168.573703</ele>
        <time>2020-08-29T12:03:08.581Z</time>
      </trkpt>
      <trkpt lat="62.63885" lon="17.52081">
        <ele>169.013344</ele>
        <time>2020-08-29T12:03:14.529Z</time>
      </trkpt>
      <trkpt lat="62.6392" lon="17.51981">
        <ele>170.065301</ele>
        <time>2020-08-29T12:03:26.549Z</time>
      </trkpt>
      <trkpt lat="62.64032" lon="17.51786">
        <ele>174.374459</ele>
        <time>2020-08-29T12:04:01.138Z</time>
      </trkpt>
      <trkpt lat="62.64067" lon="17.517">
        <ele>177.358906</ele>
        <time>2020-08-29T12:04:18.524Z</time>
      </trkpt>
      <trkpt lat="62.64213" lon="17.51202">
        <ele>197.635175</ele>
        <time>2020-08-29T12:06:20.393Z</time>
      </trkpt>
      <trkpt lat="62.64245" lon="17.51079">
        <ele>201.977458</ele>
        <time>2020-08-29T12:06:48.329Z</time>
      </trkpt>
      <trkpt lat="62.64305" lon="17.50797">
        <ele>210.510967</ele>
        <time>2020-08-29T12:07:40.736Z</time>
      </trkpt>
      <trkpt lat="62.64312" lon="17.50715">
        <ele>211.997854</ele>
        <time>2020-08-29T12:07:52.628Z</time>
      </trkpt>
      <trkpt lat="62.64311" lon="17.50667">
        <ele>212.836053</ele>
        <time>2020-08-29T12:07:59.055Z</time>
      </trkpt>
      <trkpt lat="62.643" lon="17.50594">
        <ele>214.195024</ele>
        <time>2020-08-29T12:08:09.109Z</time>
      </trkpt>
      <trkpt lat="62.64278" lon="17.50534">
        <ele>215.558818</ele>
        <time>2020-08-29T12:08:18.724Z</time>
      </trkpt>
      <trkpt lat="62.64257" lon="17.50499">
        <ele>216.214967</ele>
        <time>2020-08-29T12:08:25.604Z</time>
      </trkpt>
      <trkpt lat="62.64054" lon="17.50264">
        <ele>217.929927</ele>
        <time>2020-08-29T12:09:15.083Z</time>
      </trkpt>
      <trkpt lat="62.63822" lon="17.4995">
        <ele>213.22203</ele>
        <time>2020-08-29T12:09:53.355Z</time>
      </trkpt>
      <trkpt lat="62.63665" lon="17.49667">
        <ele>207.060315</ele>
        <time>2020-08-29T12:10:19.905Z</time>
      </trkpt>
      <trkpt lat="62.63633" lon="17.49627">
        <ele>206.379995</ele>
        <time>2020-08-29T12:10:24.842Z</time>
      </trkpt>
      <trkpt lat="62.63268" lon="17.49335">
        <ele>200.582517</ele>
        <time>2020-08-29T12:11:22.387Z</time>
      </trkpt>
      <trkpt lat="62.63149" lon="17.49199">
        <ele>199.527177</ele>
        <time>2020-08-29T12:11:44.222Z</time>
      </trkpt>
      <trkpt lat="62.63024" lon="17.49104">
        <ele>199.205165</ele>
        <time>2020-08-29T12:12:07.089Z</time>
      </trkpt>
      <trkpt lat="62.62855" lon="17.48873">
        <ele>199.091745</ele>
        <time>2020-08-29T12:12:42.932Z</time>
      </trkpt>
      <trkpt lat="62.62815" lon="17.488">
        <ele>198.666799</ele>
        <time>2020-08-29T12:12:51.806Z</time>
      </trkpt>
      <trkpt lat="62.62797" lon="17.48717">
        <ele>198.294712</ele>
        <time>2020-08-29T12:12:58.586Z</time>
      </trkpt>
      <trkpt lat="62.62792" lon="17.48674">
        <ele>198.115022</ele>
        <time>2020-08-29T12:13:01.786Z</time>
      </trkpt>
      <trkpt lat="62.6279" lon="17.48232">
        <ele>195.119311</ele>
        <time>2020-08-29T12:13:31.652Z</time>
      </trkpt>
      <trkpt lat="62.62745" lon="17.4775">
        <ele>189.872945</ele>
        <time>2020-08-29T12:14:02.852Z</time>
      </trkpt>
      <trkpt lat="62.62598" lon="17.46769">
        <ele>171.757876</ele>
        <time>2020-08-29T12:15:03.299Z</time>
      </trkpt>
      <trkpt lat="62.62597" lon="17.4665">
        <ele>169.391179</ele>
        <time>2020-08-29T12:15:09.907Z</time>
      </trkpt>
      <trkpt lat="62.6263" lon="17.46499">
        <ele>165.855619</ele>
        <time>2020-08-29T12:15:19.101Z</time>
      </trkpt>
      <trkpt lat="62.62631" lon="17.46384">
        <ele>163.36862</ele>
        <time>2020-08-29T12:15:25.558Z</time>
      </trkpt>
      <trkpt lat="62.62615" lon="17.46302">
        <ele>161.461745</ele>
        <time>2020-08-29T12:15:30.599Z</time>
      </trkpt>
      <trkpt lat="62.62483" lon="17.458">
        <ele>153.472094</ele>
        <time>2020-08-29T12:16:05.696Z</time>
      </trkpt>
      <trkpt lat="62.6247" lon="17.45747">
        <ele>152.865696</ele>
        <time>2020-08-29T12:16:09.613Z</time>
      </trkpt>
      <trkpt lat="62.62406" lon="17.45483">
        <ele>150.385651</ele>
        <time>2020-08-29T12:16:29.661Z</time>
      </trkpt>
      <trkpt lat="62.62373" lon="17.45351">
        <ele>149.54037</ele>
        <time>2020-08-29T12:16:40.465Z</time>
      </trkpt>
      <trkpt lat="62.62333" lon="17.45183">
        <ele>148.385452</ele>
        <time>2020-08-29T12:16:53.732Z</time>
      </trkpt>
      <trkpt lat="62.62291" lon="17.44945">
        <ele>146.52791</ele>
        <time>2020-08-29T12:17:10.853Z</time>
      </trkpt>
      <trkpt lat="62.62278" lon="17.44799">
        <ele>145.184835</ele>
        <time>2020-08-29T12:17:20.572Z</time>
      </trkpt>
      <trkpt lat="62.6228" lon="17.44602">
        <ele>143.027696</ele>
        <time>2020-08-29T12:17:33.088Z</time>
      </trkpt>
      <trkpt lat="62.62295" lon="17.4441">
        <ele>140.65505</ele>
        <time>2020-08-29T12:17:45.137Z</time>
      </trkpt>
      <trkpt lat="62.62298" lon="17.44344">
        <ele>139.720334</ele>
        <time>2020-08-29T12:17:49.087Z</time>
      </trkpt>
      <trkpt lat="62.62309" lon="17.44193">
        <ele>137.527377</ele>
        <time>2020-08-29T12:17:58.326Z</time>
      </trkpt>
      <trkpt lat="62.6232" lon="17.4407">
        <ele>135.731247</ele>
        <time>2020-08-29T12:18:05.780Z</time>
      </trkpt>
      <trkpt lat="62.62347" lon="17.4361">
        <ele>128.774742</ele>
        <time>2020-08-29T12:18:33.796Z</time>
      </trkpt>
      <trkpt lat="62.62342" lon="17.43429">
        <ele>125.910598</ele>
        <time>2020-08-29T12:18:44.650Z</time>
      </trkpt>
      <trkpt lat="62.62301" lon="17.42582">
        <ele>110.423602</ele>
        <time>2020-08-29T12:19:34.137Z</time>
      </trkpt>
      <trkpt lat="62.62282" lon="17.42211">
        <ele>102.407818</ele>
        <time>2020-08-29T12:19:55.060Z</time>
      </trkpt>
      <trkpt lat="62.62274" lon="17.4212">
        <ele>100.490431</ele>
        <time>2020-08-29T12:20:00.292Z</time>
      </trkpt>
      <trkpt lat="62.62246" lon="17.41966">
        <ele>97.403904</ele>
        <time>2020-08-29T12:20:09.788Z</time>
      </trkpt>
      <trkpt lat="62.62228" lon="17.41905">
        <ele>96.062972</ele>
        <time>2020-08-29T12:20:13.987Z</time>
      </trkpt>
      <trkpt lat="62.6221" lon="17.41861">
        <ele>94.950624</ele>
        <time>2020-08-29T12:20:17.488Z</time>
      </trkpt>
      <trkpt lat="62.62167" lon="17.41793">
        <ele>92.801633</ele>
        <time>2020-08-29T12:20:24.291Z</time>
      </trkpt>
      <trkpt lat="62.62111" lon="17.41741">
        <ele>90.346376</ele>
        <time>2020-08-29T12:20:32.100Z</time>
      </trkpt>
      <trkpt lat="62.61879" lon="17.41618">
        <ele>79.81667</ele>
        <time>2020-08-29T12:21:01.656Z</time>
      </trkpt>
      <trkpt lat="62.61437" lon="17.41366">
        <ele>55.986661</ele>
        <time>2020-08-29T12:21:56.165Z</time>
      </trkpt>
      <trkpt lat="62.61354" lon="17.41338">
        <ele>52.522512</ele>
        <time>2020-08-29T12:22:06.777Z</time>
      </trkpt>
      <trkpt lat="62.60771" lon="17.41271">
        <ele>37.649793</ele>
        <time>2020-08-29T12:23:26.908Z</time>
      </trkpt>
      <trkpt lat="62.60719" lon="17.41232">
        <ele>35.903096</ele>
        <time>2020-08-29T12:23:34.009Z</time>
      </trkpt>
      <trkpt lat="62.60698" lon="17.41206">
        <ele>35.124668</ele>
        <time>2020-08-29T12:23:37.169Z</time>
      </trkpt>
      <trkpt lat="62.60603" lon="17.41042">
        <ele>31.602331</ele>
        <time>2020-08-29T12:23:52.942Z</time>
      </trkpt>
      <trkpt lat="62.60478" lon="17.40847">
        <ele>28.640481</ele>
        <time>2020-08-29T12:24:14.741Z</time>
      </trkpt>
      <trkpt lat="62.60445" lon="17.40779">
        <ele>28.56813</ele>
        <time>2020-08-29T12:24:23.418Z</time>
      </trkpt>
      <trkpt lat="62.60437" lon="17.40749">
        <ele>28.54342</ele>
        <time>2020-08-29T12:24:26.241Z</time>
      </trkpt>
      <trkpt lat="62.60401" lon="17.4077">
        <ele>28.484202</ele>
        <time>2020-08-29T12:24:33.586Z</time>
      </trkpt>
      <trkpt lat="62.60384" lon="17.4078">
        <ele>28.456296</ele>
        <time>2020-08-29T12:24:37.218Z</time>
      </trkpt>
      <trkpt lat="62.6033" lon="17.40784">
        <ele>28.372038</ele>
        <time>2020-08-29T12:24:46.443Z</time>
      </trkpt>
      <trkpt lat="62.60292" lon="17.40785">
        <ele>27.741676</ele>
        <time>2020-08-29T12:24:52.703Z</time>
      </trkpt>
      <trkpt lat="62.60248" lon="17.40787">
        <ele>26.900641</ele>
        <time>2020-08-29T12:24:59.576Z</time>
      </trkpt>
      <trkpt lat="62.60107" lon="17.40792">
        <ele>24.446525</ele>
        <time>2020-08-29T12:25:18.349Z</time>
      </trkpt>
      <trkpt lat="62.60067" lon="17.40801">
        <ele>23.926715</ele>
        <time>2020-08-29T12:25:23.688Z</time>
      </trkpt>
      <trkpt lat="62.60002" lon="17.40832">
        <ele>23.048472</ele>
        <time>2020-08-29T12:25:33.915Z</time>
      </trkpt>
      <trkpt lat="62.59968" lon="17.40877">
        <ele>22.737711</ele>
        <time>2020-08-29T12:25:41.504Z</time>
      </trkpt>
      <trkpt lat="62.59886" lon="17.40985">
        <ele>25.289773</ele>
        <time>2020-08-29T12:26:05.220Z</time>
      </trkpt>
      <trkpt lat="62.59793" lon="17.41114">
        <ele>28.648283</ele>
        <time>2020-08-29T12:26:39.017Z</time>
      </trkpt>
      <trkpt lat="62.59698" lon="17.41246">
        <ele>33.218698</ele>
        <time>2020-08-29T12:27:14.670Z</time>
      </trkpt>
      <trkpt lat="62.59637" lon="17.41323">
        <ele>35.485421</ele>
        <time>2020-08-29T12:27:35.497Z</time>
      </trkpt>
      <trkpt lat="62.59597" lon="17.41359">
        <ele>36.537142</ele>
        <time>2020-08-29T12:27:47.344Z</time>
      </trkpt>
      <trkpt lat="62.59543" lon="17.41389">
        <ele>37.875852</ele>
        <time>2020-08-29T12:28:01.277Z</time>
      </trkpt>
      <trkpt lat="62.59178" lon="17.41537">
        <ele>42.671614</ele>
        <time>2020-08-29T12:29:19.248Z</time>
      </trkpt>
      <trkpt lat="62.5913" lon="17.41567">
        <ele>43.444459</ele>
        <time>2020-08-29T12:29:31.256Z</time>
      </trkpt>
      <trkpt lat="62.59" lon="17.41692">
        <ele>46.643242</ele>
        <time>2020-08-29T12:30:08.035Z</time>
      </trkpt>
      <trkpt lat="62.58963" lon="17.41718">
        <ele>47.430492</ele>
        <time>2020-08-29T12:30:17.753Z</time>
      </trkpt>
      <trkpt lat="62.58717" lon="17.41772">
        <ele>51.351193</ele>
        <time>2020-08-29T12:31:14.948Z</time>
      </trkpt>
      <trkpt lat="62.58663" lon="17.41775">
        <ele>52.015468</ele>
        <time>2020-08-29T12:31:25.986Z</time>
      </trkpt>
      <trkpt lat="62.58629" lon="17.41774">
        <ele>52.441619</ele>
        <time>2020-08-29T12:31:32.821Z</time>
      </trkpt>
      <trkpt lat="62.58483" lon="17.41761">
        <ele>54.361417</ele>
        <time>2020-08-29T12:32:03.506Z</time>
      </trkpt>
      <trkpt lat="62.58405" lon="17.41772">
        <ele>55.902476</ele>
        <time>2020-08-29T12:32:22.545Z</time>
      </trkpt>
      <trkpt lat="62.58217" lon="17.41827">
        <ele>60.506802</ele>
        <time>2020-08-29T12:33:15.518Z</time>
      </trkpt>
      <trkpt lat="62.5813" lon="17.41841">
        <ele>61.687643</ele>
        <time>2020-08-29T12:33:34.938Z</time>
      </trkpt>
      <trkpt lat="62.5807" lon="17.4185">
        <ele>62.098503</ele>
        <time>2020-08-29T12:33:45.539Z</time>
      </trkpt>
      <trkpt lat="62.57983" lon="17.41841">
        <ele>60.685821</ele>
        <time>2020-08-29T12:33:58.432Z</time>
      </trkpt>
      <trkpt lat="62.57678" lon="17.41727">
        <ele>54.291275</ele>
        <time>2020-08-29T12:34:40.863Z</time>
      </trkpt>
      <trkpt lat="62.57452" lon="17.41662">
        <ele>50.970517</ele>
        <time>2020-08-29T12:35:14.636Z</time>
      </trkpt>
      <trkpt lat="62.57388" lon="17.41643">
        <ele>50.240505</ele>
        <time>2020-08-29T12:35:24.732Z</time>
      </trkpt>
      <trkpt lat="62.57237" lon="17.41597">
        <ele>49.358847</ele>
        <time>2020-08-29T12:35:49.491Z</time>
      </trkpt>
      <trkpt lat="62.57091" lon="17.4154">
        <ele>49.094977</ele>
        <time>2020-08-29T12:36:15.204Z</time>
      </trkpt>
      <trkpt lat="62.56996" lon="17.41532">
        <ele>49.079148</ele>
        <time>2020-08-29T12:36:32.537Z</time>
      </trkpt>
      <trkpt lat="62.56877" lon="17.41536">
        <ele>49.156539</ele>
        <time>2020-08-29T12:36:55.074Z</time>
      </trkpt>
      <trkpt lat="62.56757" lon="17.41548">
        <ele>48.236452</ele>
        <time>2020-08-29T12:37:15.055Z</time>
      </trkpt>
      <trkpt lat="62.5668" lon="17.41556">
        <ele>47.326173</ele>
        <time>2020-08-29T12:37:26.325Z</time>
      </trkpt>
      <trkpt lat="62.56596" lon="17.41551">
        <ele>45.039365</ele>
        <time>2020-08-29T12:37:37.791Z</time>
      </trkpt>
      <trkpt lat="62.56385" lon="17.41517">
        <ele>36.745753</ele>
        <time>2020-08-29T12:38:04.602Z</time>
      </trkpt>
      <trkpt lat="62.56196" lon="17.41527">
        <ele>26.371556</ele>
        <time>2020-08-29T12:38:27.087Z</time>
      </trkpt>
      <trkpt lat="62.56167" lon="17.41524">
        <ele>24.559068</ele>
        <time>2020-08-29T12:38:30.445Z</time>
      </trkpt>
      <trkpt lat="62.56117" lon="17.41501">
        <ele>21.418337</ele>
        <time>2020-08-29T12:38:36.322Z</time>
      </trkpt>
      <trkpt lat="62.56089" lon="17.4148">
        <ele>19.765182</ele>
        <time>2020-08-29T12:38:39.689Z</time>
      </trkpt>
      <trkpt lat="62.56073" lon="17.41466">
        <ele>18.769912</ele>
        <time>2020-08-29T12:38:41.684Z</time>
      </trkpt>
      <trkpt lat="62.5603" lon="17.41418">
        <ele>16.024455</ele>
        <time>2020-08-29T12:38:47.379Z</time>
      </trkpt>
      <trkpt lat="62.5598" lon="17.41342">
        <ele>12.534244</ele>
        <time>2020-08-29T12:38:54.619Z</time>
      </trkpt>
      <trkpt lat="62.55841" lon="17.4103">
        <ele>5.873396</ele>
        <time>2020-08-29T12:39:21.003Z</time>
      </trkpt>
      <trkpt lat="62.55776" lon="17.40921">
        <ele>4.735692</ele>
        <time>2020-08-29T12:39:32.986Z</time>
      </trkpt>
      <trkpt lat="62.5575" lon="17.40884">
        <ele>4.314844</ele>
        <time>2020-08-29T12:39:37.736Z</time>
      </trkpt>
      <trkpt lat="62.55739" lon="17.40869">
        <ele>4.141414</ele>
        <time>2020-08-29T12:39:39.744Z</time>
      </trkpt>
      <trkpt lat="62.55713" lon="17.40838">
        <ele>3.735642</ele>
        <time>2020-08-29T12:39:44.493Z</time>
      </trkpt>
      <trkpt lat="62.55669" lon="17.4079">
        <ele>3.273302</ele>
        <time>2020-08-29T12:39:52.504Z</time>
      </trkpt>
      <trkpt lat="62.55639" lon="17.40759">
        <ele>3.113583</ele>
        <time>2020-08-29T12:39:57.914Z</time>
      </trkpt>
      <trkpt lat="62.55627" lon="17.40747">
        <ele>3.052277</ele>
        <time>2020-08-29T12:39:59.998Z</time>
      </trkpt>
      <trkpt lat="62.55498" lon="17.406">
        <ele>2.399546</ele>
        <time>2020-08-29T12:40:24.475Z</time>
      </trkpt>
      <trkpt lat="62.55398" lon="17.40485">
        <ele>2.011396</ele>
        <time>2020-08-29T12:40:43.613Z</time>
      </trkpt>
      <trkpt lat="62.55349" lon="17.40439">
        <ele>1.863195</ele>
        <time>2020-08-29T12:40:52.550Z</time>
      </trkpt>
      <trkpt lat="62.55296" lon="17.40399">
        <ele>1.753695</ele>
        <time>2020-08-29T12:41:02.138Z</time>
      </trkpt>
      <trkpt lat="62.55269" lon="17.4039">
        <ele>1.701426</ele>
        <time>2020-08-29T12:41:06.778Z</time>
      </trkpt>
      <trkpt lat="62.55172" lon="17.40369">
        <ele>1.552624</ele>
        <time>2020-08-29T12:41:23.913Z</time>
      </trkpt>
      <trkpt lat="62.55155" lon="17.40363">
        <ele>1.549089</ele>
        <time>2020-08-29T12:41:27.142Z</time>
      </trkpt>
      <trkpt lat="62.55107" lon="17.40328">
        <ele>1.53886</ele>
        <time>2020-08-29T12:41:36.054Z</time>
      </trkpt>
      <trkpt lat="62.5508" lon="17.4029">
        <ele>1.532332</ele>
        <time>2020-08-29T12:41:41.822Z</time>
      </trkpt>
      <trkpt lat="62.5503" lon="17.40199">
        <ele>1.506615</ele>
        <time>2020-08-29T12:41:53.585Z</time>
      </trkpt>
      <trkpt lat="62.5502" lon="17.40228">
        <ele>1.480315</ele>
        <time>2020-08-29T12:41:56.429Z</time>
      </trkpt>
      <trkpt lat="62.55018" lon="17.40292">
        <ele>1.432855</ele>
        <time>2020-08-29T12:42:01.650Z</time>
      </trkpt>
      <trkpt lat="62.5503" lon="17.40326">
        <ele>1.401562</ele>
        <time>2020-08-29T12:42:05.078Z</time>
      </trkpt>
      <trkpt lat="62.55131" lon="17.40412">
        <ele>1.228672</ele>
        <time>2020-08-29T12:42:23.742Z</time>
      </trkpt>
      <trkpt lat="62.55174" lon="17.4047">
        <ele>1.168169</ele>
        <time>2020-08-29T12:42:32.415Z</time>
      </trkpt>
      <trkpt lat="62.55203" lon="17.40523">
        <ele>1.121962</ele>
        <time>2020-08-29T12:42:39.090Z</time>
      </trkpt>
      <trkpt lat="62.55153" lon="17.40566">
        <ele>1.056802</ele>
        <time>2020-08-29T12:42:48.574Z</time>
      </trkpt>
      <trkpt lat="62.55113" lon="17.40594">
        <ele>1.020944</ele>
        <time>2020-08-29T12:42:55.983Z</time>
      </trkpt>
      <trkpt lat="62.55098" lon="17.40622">
        <ele>1.03184</ele>
        <time>2020-08-29T12:42:59.483Z</time>
      </trkpt>
      <trkpt lat="62.55083" lon="17.40594">
        <ele>1.042759</ele>
        <time>2020-08-29T12:43:03.010Z</time>
      </trkpt>
      <trkpt lat="62.55065" lon="17.40565">
        <ele>1.054798</ele>
        <time>2020-08-29T12:43:06.890Z</time>
      </trkpt>
      <trkpt lat="62.55058" lon="17.40556">
        <ele>1.059389</ele>
        <time>2020-08-29T12:43:08.369Z</time>
      </trkpt>
      <trkpt lat="62.55049" lon="17.40549">
        <ele>1.064951</ele>
        <time>2020-08-29T12:43:10.181Z</time>
      </trkpt>
      <trkpt lat="62.55043" lon="17.40546">
        <ele>1.068145</ele>
        <time>2020-08-29T12:43:11.218Z</time>
      </trkpt>
      <trkpt lat="62.55035" lon="17.40542">
        <ele>1.072646</ele>
        <time>2020-08-29T12:43:12.682Z</time>
      </trkpt>
      <trkpt lat="62.55004" lon="17.40547">
        <ele>1.09005</ele>
        <time>2020-08-29T12:43:18.368Z</time>
      </trkpt>
      <trkpt lat="62.54968" lon="17.40568">
        <ele>1.110259</ele>
        <time>2020-08-29T12:43:25.048Z</time>
      </trkpt>
      <trkpt lat="62.54916" lon="17.40595">
        <ele>1.282489</ele>
        <time>2020-08-29T12:43:34.902Z</time>
      </trkpt>
      <trkpt lat="62.54904" lon="17.40599">
        <ele>1.331229</ele>
        <time>2020-08-29T12:43:37.293Z</time>
      </trkpt>
      <trkpt lat="62.54871" lon="17.40596">
        <ele>1.458284</ele>
        <time>2020-08-29T12:43:43.516Z</time>
      </trkpt>
      <trkpt lat="62.54692" lon="17.40416">
        <ele>2.585378</ele>
        <time>2020-08-29T12:44:22.308Z</time>
      </trkpt>
      <trkpt lat="62.54624" lon="17.40351">
        <ele>3.129356</ele>
        <time>2020-08-29T12:44:37.726Z</time>
      </trkpt>
      <trkpt lat="62.54574" lon="17.40302">
        <ele>3.648447</ele>
        <time>2020-08-29T12:44:49.391Z</time>
      </trkpt>
      <trkpt lat="62.54361" lon="17.40097">
        <ele>5.369889</ele>
        <time>2020-08-29T12:45:37.521Z</time>
      </trkpt>
      <trkpt lat="62.54331" lon="17.40065">
        <ele>5.541418</ele>
        <time>2020-08-29T12:45:43.732Z</time>
      </trkpt>
      <trkpt lat="62.54275" lon="17.40004">
        <ele>5.600971</ele>
        <time>2020-08-29T12:45:54.742Z</time>
      </trkpt>
      <trkpt lat="62.54189" lon="17.39912">
        <ele>5.111281</ele>
        <time>2020-08-29T12:46:10.517Z</time>
      </trkpt>
      <trkpt lat="62.54068" lon="17.39782">
        <ele>4.329841</ele>
        <time>2020-08-29T12:46:31.811Z</time>
      </trkpt>
      <trkpt lat="62.54061" lon="17.39773">
        <ele>4.275192</ele>
        <time>2020-08-29T12:46:33.183Z</time>
      </trkpt>
      <trkpt lat="62.54032" lon="17.39742">
        <ele>4.071207</ele>
        <time>2020-08-29T12:46:38.373Z</time>
      </trkpt>
      <trkpt lat="62.53951" lon="17.39656">
        <ele>3.685966</ele>
        <time>2020-08-29T12:46:53.283Z</time>
      </trkpt>
      <trkpt lat="62.53933" lon="17.39636">
        <ele>3.696278</ele>
        <time>2020-08-29T12:46:56.947Z</time>
      </trkpt>
      <trkpt lat="62.5393" lon="17.39633">
        <ele>3.697683</ele>
        <time>2020-08-29T12:46:57.433Z</time>
      </trkpt>
      <trkpt lat="62.53855" lon="17.39554">
        <ele>3.738543</ele>
        <time>2020-08-29T12:47:12.470Z</time>
      </trkpt>
      <trkpt lat="62.53817" lon="17.39514">
        <ele>3.759119</ele>
        <time>2020-08-29T12:47:20.470Z</time>
      </trkpt>
      <trkpt lat="62.53771" lon="17.39465">
        <ele>3.939995</ele>
        <time>2020-08-29T12:47:30.449Z</time>
      </trkpt>
      <trkpt lat="62.53749" lon="17.3944">
        <ele>4.034405</ele>
        <time>2020-08-29T12:47:35.344Z</time>
      </trkpt>
      <trkpt lat="62.53725" lon="17.39413">
        <ele>4.13519</ele>
        <time>2020-08-29T12:47:40.561Z</time>
      </trkpt>
      <trkpt lat="62.53545" lon="17.39213">
        <ele>4.648257</ele>
        <time>2020-08-29T12:48:18.493Z</time>
      </trkpt>
      <trkpt lat="62.53418" lon="17.39082">
        <ele>4.501884</ele>
        <time>2020-08-29T12:48:43.341Z</time>
      </trkpt>
      <trkpt lat="62.53354" lon="17.39015">
        <ele>4.291464</ele>
        <time>2020-08-29T12:48:55.133Z</time>
      </trkpt>
      <trkpt lat="62.53344" lon="17.3906">
        <ele>4.22329</ele>
        <time>2020-08-29T12:48:59.083Z</time>
      </trkpt>
      <trkpt lat="62.53337" lon="17.39089">
        <ele>4.157631</ele>
        <time>2020-08-29T12:49:01.628Z</time>
      </trkpt>
      <trkpt lat="62.53327" lon="17.39132">
        <ele>4.053588</ele>
        <time>2020-08-29T12:49:05.448Z</time>
      </trkpt>
      <trkpt lat="62.53319" lon="17.3917">
        <ele>3.962503</ele>
        <time>2020-08-29T12:49:08.757Z</time>
      </trkpt>
      <trkpt lat="62.5331" lon="17.39207">
        <ele>3.872581</ele>
        <time>2020-08-29T12:49:12.068Z</time>
      </trkpt>
      <trkpt lat="62.53288" lon="17.39302">
        <ele>3.641945</ele>
        <time>2020-08-29T12:49:20.481Z</time>
      </trkpt>
      <trkpt lat="62.53276" lon="17.39289">
        <ele>3.577083</ele>
        <time>2020-08-29T12:49:22.864Z</time>
      </trkpt>
      <trkpt lat="62.53251" lon="17.39263">
        <ele>3.447455</ele>
        <time>2020-08-29T12:49:27.635Z</time>
      </trkpt>
      <trkpt lat="62.53207" lon="17.39216">
        <ele>3.325724</ele>
        <time>2020-08-29T12:49:36.253Z</time>
      </trkpt>
      <trkpt lat="62.53206" lon="17.39215">
        <ele>3.324137</ele>
        <time>2020-08-29T12:49:36.465Z</time>
      </trkpt>
      <trkpt lat="62.53188" lon="17.39195">
        <ele>3.294499</ele>
        <time>2020-08-29T12:49:40.180Z</time>
      </trkpt>
      <trkpt lat="62.53118" lon="17.39118">
        <ele>3.183384</ele>
        <time>2020-08-29T12:49:54.595Z</time>
      </trkpt>
      <trkpt lat="62.53112" lon="17.39111">
        <ele>3.174202</ele>
        <time>2020-08-29T12:49:55.797Z</time>
      </trkpt>
      <trkpt lat="62.53085" lon="17.39082">
        <ele>3.131129</ele>
        <time>2020-08-29T12:50:01.461Z</time>
      </trkpt>
      <trkpt lat="62.53022" lon="17.39016">
        <ele>3.160966</ele>
        <time>2020-08-29T12:50:14.250Z</time>
      </trkpt>
      <trkpt lat="62.53" lon="17.38991">
        <ele>3.180041</ele>
        <time>2020-08-29T12:50:19.134Z</time>
      </trkpt>
      <trkpt lat="62.52957" lon="17.38945">
        <ele>3.215623</ele>
        <time>2020-08-29T12:50:28.354Z</time>
      </trkpt>
      <trkpt lat="62.52919" lon="17.38917">
        <ele>3.245597</ele>
        <time>2020-08-29T12:50:35.702Z</time>
      </trkpt>
      <trkpt lat="62.52886" lon="17.38893">
        <ele>3.253242</ele>
        <time>2020-08-29T12:50:42.244Z</time>
      </trkpt>
      <trkpt lat="62.52888" lon="17.38835">
        <ele>3.255024</ele>
        <time>2020-08-29T12:50:47.266Z</time>
      </trkpt>
      <trkpt lat="62.5289" lon="17.38785">
        <ele>3.256583</ele>
        <time>2020-08-29T12:50:51.738Z</time>
      </trkpt>
      <trkpt lat="62.52858" lon="17.38814">
        <ele>3.258926</ele>
        <time>2020-08-29T12:50:58.297Z</time>
      </trkpt>
      <trkpt lat="62.52831" lon="17.38838">
        <ele>3.260842</ele>
        <time>2020-08-29T12:51:03.549Z</time>
      </trkpt>
      <trkpt lat="62.52765" lon="17.38774">
        <ele>3.176613</ele>
        <time>2020-08-29T12:51:17.128Z</time>
      </trkpt>
      <trkpt lat="62.52766" lon="17.38763">
        <ele>3.163133</ele>
        <time>2020-08-29T12:51:18.164Z</time>
      </trkpt>
      <trkpt lat="62.52763" lon="17.38756">
        <ele>3.152714</ele>
        <time>2020-08-29T12:51:18.899Z</time>
      </trkpt>
      <trkpt lat="62.52735" lon="17.38735">
        <ele>3.077036</ele>
        <time>2020-08-29T12:51:23.990Z</time>
      </trkpt>
      <trkpt lat="62.52688" lon="17.38721">
        <ele>2.958142</ele>
        <time>2020-08-29T12:51:32.212Z</time>
      </trkpt>
      <trkpt lat="62.52637" lon="17.38718">
        <ele>2.82703</ele>
        <time>2020-08-29T12:51:41.382Z</time>
      </trkpt>
      <trkpt lat="62.52506" lon="17.38718">
        <ele>2.625796</ele>
        <time>2020-08-29T12:52:04.728Z</time>
      </trkpt>
      <trkpt lat="62.52505" lon="17.38701">
        <ele>2.613948</ele>
        <time>2020-08-29T12:52:06.244Z</time>
      </trkpt>
      <trkpt lat="62.52506" lon="17.38694">
        <ele>2.609249</ele>
        <time>2020-08-29T12:52:06.839Z</time>
      </trkpt>
      <trkpt lat="62.52504" lon="17.38682">
        <ele>2.60117</ele>
        <time>2020-08-29T12:52:07.854Z</time>
      </trkpt>
      <trkpt lat="62.52495" lon="17.38669">
        <ele>2.584446</ele>
        <time>2020-08-29T12:52:09.906Z</time>
      </trkpt>
      <trkpt lat="62.52477" lon="17.38666">
        <ele>2.558</ele>
        <time>2020-08-29T12:52:13.219Z</time>
      </trkpt>
      <trkpt lat="62.52467" lon="17.38664">
        <ele>2.543827</ele>
        <time>2020-08-29T12:52:15.022Z</time>
      </trkpt>
      <trkpt lat="62.52454" lon="17.38675">
        <ele>2.598359</ele>
        <time>2020-08-29T12:52:17.645Z</time>
      </trkpt>
      <trkpt lat="62.52436" lon="17.38671">
        <ele>2.676302</ele>
        <time>2020-08-29T12:52:21.060Z</time>
      </trkpt>
      <trkpt lat="62.52408" lon="17.38662">
        <ele>2.804306</ele>
        <time>2020-08-29T12:52:26.623Z</time>
      </trkpt>
      <trkpt lat="62.52356" lon="17.38657">
        <ele>3.033301</ele>
        <time>2020-08-29T12:52:37.041Z</time>
      </trkpt>
      <trkpt lat="62.52258" lon="17.38645">
        <ele>3.938674</ele>
        <time>2020-08-29T12:52:57.287Z</time>
      </trkpt>
      <trkpt lat="62.52238" lon="17.38644">
        <ele>4.343099</ele>
        <time>2020-08-29T12:53:01.713Z</time>
      </trkpt>
      <trkpt lat="62.52206" lon="17.38649">
        <ele>4.994123</ele>
        <time>2020-08-29T12:53:09.025Z</time>
      </trkpt>
      <trkpt lat="62.52166" lon="17.38672">
        <ele>5.847524</ele>
        <time>2020-08-29T12:53:19.103Z</time>
      </trkpt>
      <trkpt lat="62.52133" lon="17.38701">
        <ele>6.576792</ele>
        <time>2020-08-29T12:53:28.587Z</time>
      </trkpt>
      <trkpt lat="62.52032" lon="17.38827">
        <ele>13.48512</ele>
        <time>2020-08-29T12:54:07.755Z</time>
      </trkpt>
      <trkpt lat="62.51948" lon="17.38935">
        <ele>19.933296</ele>
        <time>2020-08-29T12:54:56.798Z</time>
      </trkpt>
      <trkpt lat="62.51879" lon="17.39026">
        <ele>24.46307</ele>
        <time>2020-08-29T12:55:32.262Z</time>
      </trkpt>
      <trkpt lat="62.51856" lon="17.39051">
        <ele>25.936538</ele>
        <time>2020-08-29T12:55:42.042Z</time>
      </trkpt>
      <trkpt lat="62.5185" lon="17.39058">
        <ele>26.3056</ele>
        <time>2020-08-29T12:55:43.851Z</time>
      </trkpt>
      <trkpt lat="62.51836" lon="17.39061">
        <ele>27.075566</ele>
        <time>2020-08-29T12:55:47.855Z</time>
      </trkpt>
      <trkpt lat="62.51831" lon="17.39062">
        <ele>27.358709</ele>
        <time>2020-08-29T12:55:49.411Z</time>
      </trkpt>
      <trkpt lat="62.51828" lon="17.39052">
        <ele>27.678523</ele>
        <time>2020-08-29T12:55:51.228Z</time>
      </trkpt>
      <trkpt lat="62.51823" lon="17.39031">
        <ele>28.292042</ele>
        <time>2020-08-29T12:55:53.623Z</time>
      </trkpt>
      <trkpt lat="62.51803" lon="17.38943">
        <ele>28.449315</ele>
        <time>2020-08-29T12:56:02.605Z</time>
      </trkpt>
      <trkpt lat="62.51791" lon="17.38899">
        <ele>27.715463</ele>
        <time>2020-08-29T12:56:06.428Z</time>
      </trkpt>
      <trkpt lat="62.51761" lon="17.38824">
        <ele>26.269392</ele>
        <time>2020-08-29T12:56:12.781Z</time>
      </trkpt>
      <trkpt lat="62.5175" lon="17.38771">
        <ele>25.420928</ele>
        <time>2020-08-29T12:56:16.115Z</time>
      </trkpt>
      <trkpt lat="62.51748" lon="17.38736">
        <ele>24.905302</ele>
        <time>2020-08-29T12:56:18.748Z</time>
      </trkpt>
      <trkpt lat="62.51738" lon="17.38698">
        <ele>24.28376</ele>
        <time>2020-08-29T12:56:21.186Z</time>
      </trkpt>
      <trkpt lat="62.51725" lon="17.38654">
        <ele>23.513917</ele>
        <time>2020-08-29T12:56:24.246Z</time>
      </trkpt>
      <trkpt lat="62.51665" lon="17.38559">
        <ele>21.189784</ele>
        <time>2020-08-29T12:56:33.818Z</time>
      </trkpt>
      <trkpt lat="62.51653" lon="17.3854">
        <ele>20.717983</ele>
        <time>2020-08-29T12:56:35.833Z</time>
      </trkpt>
      <trkpt lat="62.51649" lon="17.38527">
        <ele>20.505213</ele>
        <time>2020-08-29T12:56:36.805Z</time>
      </trkpt>
      <trkpt lat="62.5165" lon="17.3842">
        <ele>18.956039</ele>
        <time>2020-08-29T12:56:44.228Z</time>
      </trkpt>
      <trkpt lat="62.5165" lon="17.38326">
        <ele>18.084463</ele>
        <time>2020-08-29T12:56:51.060Z</time>
      </trkpt>
      <trkpt lat="62.51648" lon="17.38083">
        <ele>18.69404</ele>
        <time>2020-08-29T12:57:11.993Z</time>
      </trkpt>
      <trkpt lat="62.51557" lon="17.38092">
        <ele>20.120152</ele>
        <time>2020-08-29T12:57:35.860Z</time>
      </trkpt>
      <trkpt lat="62.51541" lon="17.38094">
        <ele>20.593381</ele>
        <time>2020-08-29T12:57:40.050Z</time>
      </trkpt>
      <trkpt lat="62.51527" lon="17.38097">
        <ele>21.032517</ele>
        <time>2020-08-29T12:57:44.446Z</time>
      </trkpt>
      <trkpt lat="62.5152" lon="17.38099">
        <ele>21.252406</ele>
        <time>2020-08-29T12:57:46.490Z</time>
      </trkpt>
      <trkpt lat="62.51513" lon="17.38101">
        <ele>21.451064</ele>
        <time>2020-08-29T12:57:48.364Z</time>
      </trkpt>
      <trkpt lat="62.5151" lon="17.38089">
        <ele>21.648496</ele>
        <time>2020-08-29T12:57:50.839Z</time>
      </trkpt>
      <trkpt lat="62.51504" lon="17.3809">
        <ele>21.833853</ele>
        <time>2020-08-29T12:57:52.981Z</time>
      </trkpt>
      <trkpt lat="62.51496" lon="17.38083">
        <ele>22.088222</ele>
        <time>2020-08-29T12:57:55.547Z</time>
      </trkpt>
      <trkpt lat="62.51451" lon="17.37964">
        <ele>24.241815</ele>
        <time>2020-08-29T12:58:16.953Z</time>
      </trkpt>
      <trkpt lat="62.51408" lon="17.37876">
        <ele>25.69491</ele>
        <time>2020-08-29T12:58:32.895Z</time>
      </trkpt>
      <trkpt lat="62.51371" lon="17.37807">
        <ele>26.876327</ele>
        <time>2020-08-29T12:58:45.561Z</time>
      </trkpt>
      <trkpt lat="62.51366" lon="17.37797">
        <ele>27.042727</ele>
        <time>2020-08-29T12:58:47.302Z</time>
      </trkpt>
      <trkpt lat="62.51323" lon="17.37721">
        <ele>28.379551</ele>
        <time>2020-08-29T12:59:01.411Z</time>
      </trkpt>
      <trkpt lat="62.51298" lon="17.37676">
        <ele>29.042272</ele>
        <time>2020-08-29T12:59:09.642Z</time>
      </trkpt>
      <trkpt lat="62.51277" lon="17.3764">
        <ele>29.492579</ele>
        <time>2020-08-29T12:59:16.387Z</time>
      </trkpt>
      <trkpt lat="62.51256" lon="17.37602">
        <ele>29.971666</ele>
        <time>2020-08-29T12:59:23.267Z</time>
      </trkpt>
      <trkpt lat="62.51251" lon="17.37593">
        <ele>30.079792</ele>
        <time>2020-08-29T12:59:24.852Z</time>
      </trkpt>
      <trkpt lat="62.51222" lon="17.37542">
        <ele>30.725725</ele>
        <time>2020-08-29T12:59:33.878Z</time>
      </trkpt>
      <trkpt lat="62.51192" lon="17.37489">
        <ele>31.380821</ele>
        <time>2020-08-29T12:59:42.823Z</time>
      </trkpt>
      <trkpt lat="62.51175" lon="17.37458">
        <ele>31.761819</ele>
        <time>2020-08-29T12:59:47.844Z</time>
      </trkpt>
      <trkpt lat="62.51143" lon="17.37403">
        <ele>32.157977</ele>
        <time>2020-08-29T12:59:56.991Z</time>
      </trkpt>
      <trkpt lat="62.51123" lon="17.37367">
        <ele>32.376626</ele>
        <time>2020-08-29T13:00:02.499Z</time>
      </trkpt>
      <trkpt lat="62.51104" lon="17.37333">
        <ele>32.589709</ele>
        <time>2020-08-29T13:00:07.679Z</time>
      </trkpt>
      <trkpt lat="62.51096" lon="17.37319">
        <ele>32.677603</ele>
        <time>2020-08-29T13:00:09.830Z</time>
      </trkpt>
      <trkpt lat="62.5107" lon="17.37274">
        <ele>32.958052</ele>
        <time>2020-08-29T13:00:16.501Z</time>
      </trkpt>
      <trkpt lat="62.51055" lon="17.37248">
        <ele>33.124501</ele>
        <time>2020-08-29T13:00:20.570Z</time>
      </trkpt>
      <trkpt lat="62.5103" lon="17.37202">
        <ele>33.414172</ele>
        <time>2020-08-29T13:00:27.528Z</time>
      </trkpt>
      <trkpt lat="62.51015" lon="17.37176">
        <ele>33.603397</ele>
        <time>2020-08-29T13:00:31.420Z</time>
      </trkpt>
      <trkpt lat="62.51007" lon="17.37158">
        <ele>33.719553</ele>
        <time>2020-08-29T13:00:33.994Z</time>
      </trkpt>
      <trkpt lat="62.50989" lon="17.37119">
        <ele>33.979332</ele>
        <time>2020-08-29T13:00:39.450Z</time>
      </trkpt>
      <trkpt lat="62.50986" lon="17.37127">
        <ele>34.027384</ele>
        <time>2020-08-29T13:00:40.568Z</time>
      </trkpt>
      <trkpt lat="62.50982" lon="17.37134">
        <ele>34.076876</ele>
        <time>2020-08-29T13:00:41.705Z</time>
      </trkpt>
      <trkpt lat="62.50972" lon="17.37115">
        <ele>34.21272</ele>
        <time>2020-08-29T13:00:44.534Z</time>
      </trkpt>
      <trkpt lat="62.50968" lon="17.37105">
        <ele>34.273831</ele>
        <time>2020-08-29T13:00:45.816Z</time>
      </trkpt>
      <trkpt lat="62.50959" lon="17.37086">
        <ele>34.401188</ele>
        <time>2020-08-29T13:00:48.682Z</time>
      </trkpt>
      <trkpt lat="62.50948" lon="17.37103">
        <ele>34.541486</ele>
        <time>2020-08-29T13:00:51.622Z</time>
      </trkpt>
      <trkpt lat="62.50904" lon="17.37172">
        <ele>35.089533</ele>
        <time>2020-08-29T13:01:03.191Z</time>
      </trkpt>
      <trkpt lat="62.50894" lon="17.37184">
        <ele>35.205494</ele>
        <time>2020-08-29T13:01:05.777Z</time>
      </trkpt>
      <trkpt lat="62.50882" lon="17.37198">
        <ele>35.325696</ele>
        <time>2020-08-29T13:01:08.551Z</time>
      </trkpt>
      <trkpt lat="62.50874" lon="17.37205">
        <ele>35.403362</ele>
        <time>2020-08-29T13:01:10.450Z</time>
      </trkpt>
      <trkpt lat="62.50869" lon="17.37196">
        <ele>35.464875</ele>
        <time>2020-08-29T13:01:12.133Z</time>
      </trkpt>
      <trkpt lat="62.50864" lon="17.37196">
        <ele>35.50665</ele>
        <time>2020-08-29T13:01:13.226Z</time>
      </trkpt>
      <trkpt lat="62.50753" lon="17.3729">
        <ele>36.567837</ele>
        <time>2020-08-29T13:01:39.140Z</time>
      </trkpt>
      <trkpt lat="62.50706" lon="17.37328">
        <ele>36.701613</ele>
        <time>2020-08-29T13:01:49.141Z</time>
      </trkpt>
      <trkpt lat="62.50661" lon="17.37357">
        <ele>36.49496</ele>
        <time>2020-08-29T13:01:58.168Z</time>
      </trkpt>
      <trkpt lat="62.50528" lon="17.37407">
        <ele>35.422116</ele>
        <time>2020-08-29T13:02:20.365Z</time>
      </trkpt>
      <trkpt lat="62.50498" lon="17.37416">
        <ele>34.729875</ele>
        <time>2020-08-29T13:02:24.837Z</time>
      </trkpt>
      <trkpt lat="62.50487" lon="17.3742">
        <ele>34.471139</ele>
        <time>2020-08-29T13:02:26.549Z</time>
      </trkpt>
      <trkpt lat="62.50482" lon="17.37424">
        <ele>34.36072</ele>
        <time>2020-08-29T13:02:27.170Z</time>
      </trkpt>
      <trkpt lat="62.50406" lon="17.37445">
        <ele>32.581337</ele>
        <time>2020-08-29T13:02:38.171Z</time>
      </trkpt>
      <trkpt lat="62.50341" lon="17.37436">
        <ele>30.765595</ele>
        <time>2020-08-29T13:02:46.999Z</time>
      </trkpt>
      <trkpt lat="62.50308" lon="17.37413">
        <ele>29.663192</ele>
        <time>2020-08-29T13:02:51.615Z</time>
      </trkpt>
      <trkpt lat="62.50281" lon="17.3736">
        <ele>28.48563</ele>
        <time>2020-08-29T13:02:56.570Z</time>
      </trkpt>
      <trkpt lat="62.50234" lon="17.37231">
        <ele>26.033392</ele>
        <time>2020-08-29T13:03:06.989Z</time>
      </trkpt>
      <trkpt lat="62.50189" lon="17.37097">
        <ele>24.2344</ele>
        <time>2020-08-29T13:03:17.832Z</time>
      </trkpt>
      <trkpt lat="62.5015" lon="17.36988">
        <ele>22.753257</ele>
        <time>2020-08-29T13:03:27.060Z</time>
      </trkpt>
      <trkpt lat="62.50095" lon="17.36784">
        <ele>21.007418</ele>
        <time>2020-08-29T13:03:43.823Z</time>
      </trkpt>
      <trkpt lat="62.50073" lon="17.36669">
        <ele>20.321212</ele>
        <time>2020-08-29T13:03:53.016Z</time>
      </trkpt>
      <trkpt lat="62.50052" lon="17.36543">
        <ele>19.687635</ele>
        <time>2020-08-29T13:04:03.279Z</time>
      </trkpt>
      <trkpt lat="62.50051" lon="17.36544">
        <ele>19.685884</ele>
        <time>2020-08-29T13:04:03.436Z</time>
      </trkpt>
      <trkpt lat="62.5004" lon="17.36482">
        <ele>19.634497</ele>
        <time>2020-08-29T13:04:08.655Z</time>
      </trkpt>
      <trkpt lat="62.50033" lon="17.36438">
        <ele>19.598696</ele>
        <time>2020-08-29T13:04:12.303Z</time>
      </trkpt>
      <trkpt lat="62.50025" lon="17.36374">
        <ele>19.546626</ele>
        <time>2020-08-29T13:04:17.796Z</time>
      </trkpt>
      <trkpt lat="62.49948" lon="17.35939">
        <ele>19.781384</ele>
        <time>2020-08-29T13:04:59.322Z</time>
      </trkpt>
      <trkpt lat="62.49855" lon="17.35542">
        <ele>20.582813</ele>
        <time>2020-08-29T13:05:40.512Z</time>
      </trkpt>
      <trkpt lat="62.49846" lon="17.35455">
        <ele>20.69514</ele>
        <time>2020-08-29T13:05:48.750Z</time>
      </trkpt>
      <trkpt lat="62.49834" lon="17.35374">
        <ele>20.706788</ele>
        <time>2020-08-29T13:05:56.481Z</time>
      </trkpt>
      <trkpt lat="62.49816" lon="17.35235">
        <ele>20.726521</ele>
        <time>2020-08-29T13:06:09.057Z</time>
      </trkpt>
      <trkpt lat="62.49815" lon="17.35166">
        <ele>20.735969</ele>
        <time>2020-08-29T13:06:14.736Z</time>
      </trkpt>
      <trkpt lat="62.49808" lon="17.35056">
        <ele>20.614184</ele>
        <time>2020-08-29T13:06:23.649Z</time>
      </trkpt>
      <trkpt lat="62.49801" lon="17.34995">
        <ele>20.461777</ele>
        <time>2020-08-29T13:06:28.699Z</time>
      </trkpt>
      <trkpt lat="62.49793" lon="17.34962">
        <ele>20.372274</ele>
        <time>2020-08-29T13:06:31.597Z</time>
      </trkpt>
      <trkpt lat="62.49773" lon="17.34873">
        <ele>20.134422</ele>
        <time>2020-08-29T13:06:39.399Z</time>
      </trkpt>
      <trkpt lat="62.49762" lon="17.34813">
        <ele>19.977998</ele>
        <time>2020-08-29T13:06:44.466Z</time>
      </trkpt>
      <trkpt lat="62.49705" lon="17.34438">
        <ele>19.020778</ele>
        <time>2020-08-29T13:07:15.788Z</time>
      </trkpt>
      <trkpt lat="62.49697" lon="17.34364">
        <ele>18.833961</ele>
        <time>2020-08-29T13:07:21.947Z</time>
      </trkpt>
      <trkpt lat="62.49691" lon="17.3435">
        <ele>18.786913</ele>
        <time>2020-08-29T13:07:23.339Z</time>
      </trkpt>
      <trkpt lat="62.49588" lon="17.34291">
        <ele>18.198905</ele>
        <time>2020-08-29T13:07:41.627Z</time>
      </trkpt>
      <trkpt lat="62.49565" lon="17.34317">
        <ele>18.057358</ele>
        <time>2020-08-29T13:07:46.103Z</time>
      </trkpt>
      <trkpt lat="62.49559" lon="17.34328">
        <ele>18.013919</ele>
        <time>2020-08-29T13:07:47.359Z</time>
      </trkpt>
      <trkpt lat="62.49534" lon="17.34304">
        <ele>17.867183</ele>
        <time>2020-08-29T13:07:52.076Z</time>
      </trkpt>
      <trkpt lat="62.49524" lon="17.34294">
        <ele>17.84172</ele>
        <time>2020-08-29T13:07:53.945Z</time>
      </trkpt>
      <trkpt lat="62.49476" lon="17.34257">
        <ele>17.72846</ele>
        <time>2020-08-29T13:08:02.594Z</time>
      </trkpt>
      <trkpt lat="62.49444" lon="17.34217">
        <ele>17.644405</ele>
        <time>2020-08-29T13:08:09.064Z</time>
      </trkpt>
      <trkpt lat="62.4941" lon="17.34175">
        <ele>17.557862</ele>
        <time>2020-08-29T13:08:16.098Z</time>
      </trkpt>
      <trkpt lat="62.49353" lon="17.34093">
        <ele>17.614219</ele>
        <time>2020-08-29T13:08:29.558Z</time>
      </trkpt>
      <trkpt lat="62.49334" lon="17.34068">
        <ele>17.733486</ele>
        <time>2020-08-29T13:08:33.923Z</time>
      </trkpt>
      <trkpt lat="62.49329" lon="17.34052">
        <ele>17.781535</ele>
        <time>2020-08-29T13:08:35.693Z</time>
      </trkpt>
      <trkpt lat="62.49325" lon="17.34054">
        <ele>17.803902</ele>
        <time>2020-08-29T13:08:36.615Z</time>
      </trkpt>
      <trkpt lat="62.49316" lon="17.34037">
        <ele>17.867194</ele>
        <time>2020-08-29T13:08:39.118Z</time>
      </trkpt>
      <trkpt lat="62.49312" lon="17.34011">
        <ele>17.936742</ele>
        <time>2020-08-29T13:08:41.704Z</time>
      </trkpt>
      <trkpt lat="62.49312" lon="17.33995">
        <ele>17.97596</ele>
        <time>2020-08-29T13:08:43.204Z</time>
      </trkpt>
      <trkpt lat="62.49317" lon="17.33977">
        <ele>18.030262</ele>
        <time>2020-08-29T13:08:45.359Z</time>
      </trkpt>
      <trkpt lat="62.49318" lon="17.33966">
        <ele>18.056667</ele>
        <time>2020-08-29T13:08:46.458Z</time>
      </trkpt>
      <trkpt lat="62.49311" lon="17.33944">
        <ele>18.123511</ele>
        <time>2020-08-29T13:08:48.960Z</time>
      </trkpt>
      <trkpt lat="62.4928" lon="17.33892">
        <ele>18.334838</ele>
        <time>2020-08-29T13:08:57.095Z</time>
      </trkpt>
      <trkpt lat="62.49264" lon="17.33844">
        <ele>18.447665</ele>
        <time>2020-08-29T13:09:02.747Z</time>
      </trkpt>
      <trkpt lat="62.49251" lon="17.33791">
        <ele>18.498485</ele>
        <time>2020-08-29T13:09:08.627Z</time>
      </trkpt>
      <trkpt lat="62.4925" lon="17.3379">
        <ele>18.499467</ele>
        <time>2020-08-29T13:09:08.784Z</time>
      </trkpt>
      <trkpt lat="62.49254" lon="17.33776">
        <ele>18.512242</ele>
        <time>2020-08-29T13:09:10.187Z</time>
      </trkpt>
      <trkpt lat="62.49257" lon="17.33765">
        <ele>18.522664</ele>
        <time>2020-08-29T13:09:11.371Z</time>
      </trkpt>
      <trkpt lat="62.49256" lon="17.33763">
        <ele>18.52457</ele>
        <time>2020-08-29T13:09:11.561Z</time>
      </trkpt>
      <trkpt lat="62.49217" lon="17.33703">
        <ele>18.610776</ele>
        <time>2020-08-29T13:09:20.903Z</time>
      </trkpt>
      <trkpt lat="62.49147" lon="17.3356">
        <ele>18.709489</ele>
        <time>2020-08-29T13:09:38.367Z</time>
      </trkpt>
      <trkpt lat="62.4908" lon="17.334">
        <ele>18.419412</ele>
        <time>2020-08-29T13:09:55.757Z</time>
      </trkpt>
      <trkpt lat="62.48992" lon="17.33071">
        <ele>18.187634</ele>
        <time>2020-08-29T13:10:27.636Z</time>
      </trkpt>
      <trkpt lat="62.48991" lon="17.33051">
        <ele>18.183753</ele>
        <time>2020-08-29T13:10:29.240Z</time>
      </trkpt>
      <trkpt lat="62.48997" lon="17.33038">
        <ele>18.180203</ele>
        <time>2020-08-29T13:10:30.759Z</time>
      </trkpt>
      <trkpt lat="62.48995" lon="17.33031">
        <ele>18.17848</ele>
        <time>2020-08-29T13:10:31.633Z</time>
      </trkpt>
      <trkpt lat="62.48991" lon="17.33016">
        <ele>18.175074</ele>
        <time>2020-08-29T13:10:33.274Z</time>
      </trkpt>
      <trkpt lat="62.48989" lon="17.33006">
        <ele>18.173014</ele>
        <time>2020-08-29T13:10:34.175Z</time>
      </trkpt>
      <trkpt lat="62.48981" lon="17.32996">
        <ele>18.169153</ele>
        <time>2020-08-29T13:10:35.797Z</time>
      </trkpt>
      <trkpt lat="62.48975" lon="17.32978">
        <ele>18.16485</ele>
        <time>2020-08-29T13:10:37.667Z</time>
      </trkpt>
      <trkpt lat="62.48965" lon="17.32942">
        <ele>18.173723</ele>
        <time>2020-08-29T13:10:41.428Z</time>
      </trkpt>
      <trkpt lat="62.48958" lon="17.32913">
        <ele>18.220725</ele>
        <time>2020-08-29T13:10:44.231Z</time>
      </trkpt>
      <trkpt lat="62.48949" lon="17.32892">
        <ele>18.259578</ele>
        <time>2020-08-29T13:10:46.936Z</time>
      </trkpt>
      <trkpt lat="62.48941" lon="17.32881">
        <ele>18.288538</ele>
        <time>2020-08-29T13:10:48.730Z</time>
      </trkpt>
      <trkpt lat="62.48925" lon="17.32847">
        <ele>18.356703</ele>
        <time>2020-08-29T13:10:53.235Z</time>
      </trkpt>
      <trkpt lat="62.48904" lon="17.3281">
        <ele>18.437185</ele>
        <time>2020-08-29T13:10:58.382Z</time>
      </trkpt>
      <trkpt lat="62.48887" lon="17.32779">
        <ele>18.503842</ele>
        <time>2020-08-29T13:11:02.914Z</time>
      </trkpt>
      <trkpt lat="62.48838" lon="17.32698">
        <ele>18.690076</ele>
        <time>2020-08-29T13:11:14.891Z</time>
      </trkpt>
      <trkpt lat="62.4882" lon="17.32673">
        <ele>18.936804</ele>
        <time>2020-08-29T13:11:19.021Z</time>
      </trkpt>
      <trkpt lat="62.48811" lon="17.32661">
        <ele>19.075761</ele>
        <time>2020-08-29T13:11:21.156Z</time>
      </trkpt>
      <trkpt lat="62.48793" lon="17.32638">
        <ele>19.346367</ele>
        <time>2020-08-29T13:11:25.476Z</time>
      </trkpt>
      <trkpt lat="62.48759" lon="17.32606">
        <ele>19.831125</ele>
        <time>2020-08-29T13:11:33.552Z</time>
      </trkpt>
      <trkpt lat="62.48721" lon="17.32582">
        <ele>20.339795</ele>
        <time>2020-08-29T13:11:42.753Z</time>
      </trkpt>
      <trkpt lat="62.48702" lon="17.32567">
        <ele>20.604141</ele>
        <time>2020-08-29T13:11:47.705Z</time>
      </trkpt>
      <trkpt lat="62.48625" lon="17.32507">
        <ele>22.559136</ele>
        <time>2020-08-29T13:12:08.940Z</time>
      </trkpt>
      <trkpt lat="62.48602" lon="17.32489">
        <ele>23.318518</ele>
        <time>2020-08-29T13:12:15.562Z</time>
      </trkpt>
      <trkpt lat="62.48577" lon="17.32466">
        <ele>24.17128</ele>
        <time>2020-08-29T13:12:23.627Z</time>
      </trkpt>
      <trkpt lat="62.48519" lon="17.32401">
        <ele>26.205134</ele>
        <time>2020-08-29T13:12:43.627Z</time>
      </trkpt>
      <trkpt lat="62.48487" lon="17.32351">
        <ele>27.486679</ele>
        <time>2020-08-29T13:12:55.676Z</time>
      </trkpt>
      <trkpt lat="62.48444" lon="17.32272">
        <ele>29.353795</ele>
        <time>2020-08-29T13:13:12.735Z</time>
      </trkpt>
      <trkpt lat="62.48425" lon="17.32239">
        <ele>30.183168</ele>
        <time>2020-08-29T13:13:19.625Z</time>
      </trkpt>
      <trkpt lat="62.48413" lon="17.32222">
        <ele>30.63799</ele>
        <time>2020-08-29T13:13:24.002Z</time>
      </trkpt>
      <trkpt lat="62.48337" lon="17.32117">
        <ele>33.419545</ele>
        <time>2020-08-29T13:13:49.015Z</time>
      </trkpt>
      <trkpt lat="62.4833" lon="17.32104">
        <ele>33.646398</ele>
        <time>2020-08-29T13:13:51.897Z</time>
      </trkpt>
      <trkpt lat="62.48316" lon="17.32079">
        <ele>34.120849</ele>
        <time>2020-08-29T13:13:56.752Z</time>
      </trkpt>
      <trkpt lat="62.48307" lon="17.32054">
        <ele>34.502418</ele>
        <time>2020-08-29T13:14:00.802Z</time>
      </trkpt>
      <trkpt lat="62.48303" lon="17.32036">
        <ele>34.740706</ele>
        <time>2020-08-29T13:14:03.593Z</time>
      </trkpt>
      <trkpt lat="62.48294" lon="17.32046">
        <ele>34.989996</ele>
        <time>2020-08-29T13:14:05.937Z</time>
      </trkpt>
      <trkpt lat="62.48289" lon="17.32053">
        <ele>35.144046</ele>
        <time>2020-08-29T13:14:07.373Z</time>
      </trkpt>
      <trkpt lat="62.48285" lon="17.32059">
        <ele>35.283974</ele>
        <time>2020-08-29T13:14:08.724Z</time>
      </trkpt>
      <trkpt lat="62.48281" lon="17.32062">
        <ele>35.387768</ele>
        <time>2020-08-29T13:14:09.958Z</time>
      </trkpt>
      <trkpt lat="62.48274" lon="17.32061">
        <ele>35.571861</ele>
        <time>2020-08-29T13:14:11.952Z</time>
      </trkpt>
      <trkpt lat="62.48268" lon="17.32059">
        <ele>35.718049</ele>
        <time>2020-08-29T13:14:13.412Z</time>
      </trkpt>
      <trkpt lat="62.48263" lon="17.32038">
        <ele>36.006034</ele>
        <time>2020-08-29T13:14:16.117Z</time>
      </trkpt>
      <trkpt lat="62.4826" lon="17.32029">
        <ele>36.131317</ele>
        <time>2020-08-29T13:14:17.322Z</time>
      </trkpt>
      <trkpt lat="62.48258" lon="17.32019">
        <ele>36.27239</ele>
        <time>2020-08-29T13:14:18.868Z</time>
      </trkpt>
      <trkpt lat="62.48253" lon="17.32025">
        <ele>36.403663</ele>
        <time>2020-08-29T13:14:20.406Z</time>
      </trkpt>
      <trkpt lat="62.48246" lon="17.32023">
        <ele>36.5929</ele>
        <time>2020-08-29T13:14:22.353Z</time>
      </trkpt>
      <trkpt lat="62.48236" lon="17.32006">
        <ele>36.935827</ele>
        <time>2020-08-29T13:14:25.546Z</time>
      </trkpt>
      <trkpt lat="62.48224" lon="17.31983">
        <ele>37.306813</ele>
        <time>2020-08-29T13:14:30.085Z</time>
      </trkpt>
      <trkpt lat="62.48196" lon="17.31935">
        <ele>37.671215</ele>
        <time>2020-08-29T13:14:39.027Z</time>
      </trkpt>
      <trkpt lat="62.48186" lon="17.31919">
        <ele>37.799785</ele>
        <time>2020-08-29T13:14:41.994Z</time>
      </trkpt>
      <trkpt lat="62.48174" lon="17.31896">
        <ele>37.971377</ele>
        <time>2020-08-29T13:14:45.947Z</time>
      </trkpt>
      <trkpt lat="62.48157" lon="17.31862">
        <ele>38.209752</ele>
        <time>2020-08-29T13:14:51.245Z</time>
      </trkpt>
      <trkpt lat="62.48144" lon="17.31833">
        <ele>38.403241</ele>
        <time>2020-08-29T13:14:55.626Z</time>
      </trkpt>
      <trkpt lat="62.48122" lon="17.31782">
        <ele>38.735139</ele>
        <time>2020-08-29T13:15:02.217Z</time>
      </trkpt>
      <trkpt lat="62.48102" lon="17.31731">
        <ele>39.055617</ele>
        <time>2020-08-29T13:15:08.058Z</time>
      </trkpt>
      <trkpt lat="62.48078" lon="17.3167">
        <ele>38.353432</ele>
        <time>2020-08-29T13:15:14.249Z</time>
      </trkpt>
      <trkpt lat="62.48026" lon="17.31551">
        <ele>36.266577</ele>
        <time>2020-08-29T13:15:25.332Z</time>
      </trkpt>
      <trkpt lat="62.47999" lon="17.31534">
        <ele>35.508578</ele>
        <time>2020-08-29T13:15:29.073Z</time>
      </trkpt>
      <trkpt lat="62.47982" lon="17.31548">
        <ele>35.011611</ele>
        <time>2020-08-29T13:15:31.441Z</time>
      </trkpt>
      <trkpt lat="62.47915" lon="17.31641">
        <ele>31.398645</ele>
        <time>2020-08-29T13:15:41.527Z</time>
      </trkpt>
      <trkpt lat="62.47889" lon="17.31715">
        <ele>28.988354</ele>
        <time>2020-08-29T13:15:46.874Z</time>
      </trkpt>
      <trkpt lat="62.47876" lon="17.31736">
        <ele>28.117755</ele>
        <time>2020-08-29T13:15:48.802Z</time>
      </trkpt>
      <trkpt lat="62.47852" lon="17.31755">
        <ele>26.654463</ele>
        <time>2020-08-29T13:15:52.026Z</time>
      </trkpt>
      <trkpt lat="62.47826" lon="17.31748">
        <ele>25.211023</ele>
        <time>2020-08-29T13:15:55.197Z</time>
      </trkpt>
      <trkpt lat="62.47805" lon="17.31724">
        <ele>23.908527</ele>
        <time>2020-08-29T13:15:58.173Z</time>
      </trkpt>
      <trkpt lat="62.4779" lon="17.31691">
        <ele>22.920818</ele>
        <time>2020-08-29T13:16:00.825Z</time>
      </trkpt>
      <trkpt lat="62.47778" lon="17.31641">
        <ele>21.709443</ele>
        <time>2020-08-29T13:16:04.068Z</time>
      </trkpt>
      <trkpt lat="62.47761" lon="17.31456">
        <ele>17.706696</ele>
        <time>2020-08-29T13:16:15.256Z</time>
      </trkpt>
      <trkpt lat="62.47753" lon="17.31438">
        <ele>17.181215</ele>
        <time>2020-08-29T13:16:16.858Z</time>
      </trkpt>
      <trkpt lat="62.47735" lon="17.31425">
        <ele>16.306292</ele>
        <time>2020-08-29T13:16:19.578Z</time>
      </trkpt>
      <trkpt lat="62.4773" lon="17.31423">
        <ele>16.051352</ele>
        <time>2020-08-29T13:16:20.284Z</time>
      </trkpt>
      <trkpt lat="62.47724" lon="17.31484">
        <ele>15.218497</ele>
        <time>2020-08-29T13:16:24.151Z</time>
      </trkpt>
      <trkpt lat="62.47703" lon="17.31683">
        <ele>12.799063</ele>
        <time>2020-08-29T13:16:36.823Z</time>
      </trkpt>
      <trkpt lat="62.47698" lon="17.31731">
        <ele>12.209446</ele>
        <time>2020-08-29T13:16:40.098Z</time>
      </trkpt>
      <trkpt lat="62.47682" lon="17.31724">
        <ele>11.801329</ele>
        <time>2020-08-29T13:16:42.252Z</time>
      </trkpt>
      <trkpt lat="62.47553" lon="17.31658">
        <ele>9.253856</ele>
        <time>2020-08-29T13:17:01.173Z</time>
      </trkpt>
      <trkpt lat="62.47423" lon="17.31517">
        <ele>7.761156</ele>
        <time>2020-08-29T13:17:22.361Z</time>
      </trkpt>
      <trkpt lat="62.47354" lon="17.31457">
        <ele>7.514619</ele>
        <time>2020-08-29T13:17:35.696Z</time>
      </trkpt>
      <trkpt lat="62.47336" lon="17.31445">
        <ele>7.451298</ele>
        <time>2020-08-29T13:17:39.608Z</time>
      </trkpt>
      <trkpt lat="62.473" lon="17.31431">
        <ele>8.194152</ele>
        <time>2020-08-29T13:17:47.934Z</time>
      </trkpt>
      <trkpt lat="62.47281" lon="17.31427">
        <ele>8.752658</ele>
        <time>2020-08-29T13:17:52.556Z</time>
      </trkpt>
      <trkpt lat="62.47259" lon="17.31428">
        <ele>9.401231</ele>
        <time>2020-08-29T13:17:58.021Z</time>
      </trkpt>
      <trkpt lat="62.47243" lon="17.31428">
        <ele>9.897256</ele>
        <time>2020-08-29T13:18:02.629Z</time>
      </trkpt>
      <trkpt lat="62.47172" lon="17.31458">
        <ele>12.035354</ele>
        <time>2020-08-29T13:18:23.718Z</time>
      </trkpt>
      <trkpt lat="62.47123" lon="17.31503">
        <ele>13.899932</ele>
        <time>2020-08-29T13:18:41.117Z</time>
      </trkpt>
      <trkpt lat="62.47058" lon="17.31591">
        <ele>16.92428</ele>
        <time>2020-08-29T13:19:06.083Z</time>
      </trkpt>
      <trkpt lat="62.47014" lon="17.31664">
        <ele>19.127696</ele>
        <time>2020-08-29T13:19:22.202Z</time>
      </trkpt>
      <trkpt lat="62.46992" lon="17.31705">
        <ele>20.101291</ele>
        <time>2020-08-29T13:19:30.440Z</time>
      </trkpt>
      <trkpt lat="62.46996" lon="17.31721">
        <ele>20.299781</ele>
        <time>2020-08-29T13:19:32.084Z</time>
      </trkpt>
      <trkpt lat="62.46992" lon="17.3176">
        <ele>20.741942</ele>
        <time>2020-08-29T13:19:37.337Z</time>
      </trkpt>
      <trkpt lat="62.46959" lon="17.3189">
        <ele>22.383182</ele>
        <time>2020-08-29T13:19:55.031Z</time>
      </trkpt>
      <trkpt lat="62.46923" lon="17.32004">
        <ele>23.910034</ele>
        <time>2020-08-29T13:20:10.667Z</time>
      </trkpt>
      <trkpt lat="62.46913" lon="17.32031">
        <ele>24.242492</ele>
        <time>2020-08-29T13:20:14.369Z</time>
      </trkpt>
      <trkpt lat="62.46899" lon="17.32078">
        <ele>24.62903</ele>
        <time>2020-08-29T13:20:20.318Z</time>
      </trkpt>
      <trkpt lat="62.46893" lon="17.32108">
        <ele>24.856425</ele>
        <time>2020-08-29T13:20:23.676Z</time>
      </trkpt>
      <trkpt lat="62.4689" lon="17.32134">
        <ele>25.041804</ele>
        <time>2020-08-29T13:20:26.562Z</time>
      </trkpt>
      <trkpt lat="62.46888" lon="17.32174">
        <ele>25.32585</ele>
        <time>2020-08-29T13:20:31.046Z</time>
      </trkpt>
      <trkpt lat="62.46888" lon="17.32175">
        <ele>25.334198</ele>
        <time>2020-08-29T13:20:31.161Z</time>
      </trkpt>
      <trkpt lat="62.46888" lon="17.32226">
        <ele>25.68762</ele>
        <time>2020-08-29T13:20:36.677Z</time>
      </trkpt>
      <trkpt lat="62.46888" lon="17.32235">
        <ele>25.751211</ele>
        <time>2020-08-29T13:20:37.766Z</time>
      </trkpt>
      <trkpt lat="62.46906" lon="17.32445">
        <ele>26.949522</ele>
        <time>2020-08-29T13:20:59.208Z</time>
      </trkpt>
      <trkpt lat="62.46901" lon="17.32561">
        <ele>27.115995</ele>
        <time>2020-08-29T13:21:09.140Z</time>
      </trkpt>
      <trkpt lat="62.46897" lon="17.32619">
        <ele>27.20091</ele>
        <time>2020-08-29T13:21:13.974Z</time>
      </trkpt>
      <trkpt lat="62.46892" lon="17.32666">
        <ele>27.269373</ele>
        <time>2020-08-29T13:21:18.039Z</time>
      </trkpt>
      <trkpt lat="62.46876" lon="17.32775">
        <ele>27.431391</ele>
        <time>2020-08-29T13:21:27.899Z</time>
      </trkpt>
      <trkpt lat="62.46864" lon="17.32851">
        <ele>27.374643</ele>
        <time>2020-08-29T13:21:34.386Z</time>
      </trkpt>
      <trkpt lat="62.46855" lon="17.32918">
        <ele>27.325488</ele>
        <time>2020-08-29T13:21:39.840Z</time>
      </trkpt>
      <trkpt lat="62.46853" lon="17.32937">
        <ele>27.311701</ele>
        <time>2020-08-29T13:21:41.568Z</time>
      </trkpt>
      <trkpt lat="62.46842" lon="17.33025">
        <ele>27.246986</ele>
        <time>2020-08-29T13:21:49.041Z</time>
      </trkpt>
      <trkpt lat="62.46834" lon="17.33091">
        <ele>27.198743</ele>
        <time>2020-08-29T13:21:54.883Z</time>
      </trkpt>
      <trkpt lat="62.46826" lon="17.33155">
        <ele>27.127534</ele>
        <time>2020-08-29T13:21:59.813Z</time>
      </trkpt>
      <trkpt lat="62.46819" lon="17.33213">
        <ele>26.855302</ele>
        <time>2020-08-29T13:22:04.199Z</time>
      </trkpt>
      <trkpt lat="62.46811" lon="17.33254">
        <ele>26.657377</ele>
        <time>2020-08-29T13:22:07.541Z</time>
      </trkpt>
      <trkpt lat="62.46801" lon="17.33302">
        <ele>26.421602</ele>
        <time>2020-08-29T13:22:11.349Z</time>
      </trkpt>
      <trkpt lat="62.46789" lon="17.3335">
        <ele>26.176879</ele>
        <time>2020-08-29T13:22:15.047Z</time>
      </trkpt>
      <trkpt lat="62.46781" lon="17.33381">
        <ele>26.012401</ele>
        <time>2020-08-29T13:22:17.795Z</time>
      </trkpt>
      <trkpt lat="62.46777" lon="17.33405">
        <ele>25.897461</ele>
        <time>2020-08-29T13:22:19.736Z</time>
      </trkpt>
      <trkpt lat="62.46777" lon="17.33416">
        <ele>25.850933</ele>
        <time>2020-08-29T13:22:20.326Z</time>
      </trkpt>
      <trkpt lat="62.46786" lon="17.33451">
        <ele>25.673059</ele>
        <time>2020-08-29T13:22:23.537Z</time>
      </trkpt>
      <trkpt lat="62.46787" lon="17.33461">
        <ele>25.625244</ele>
        <time>2020-08-29T13:22:24.134Z</time>
      </trkpt>
      <trkpt lat="62.46786" lon="17.33472">
        <ele>25.575127</ele>
        <time>2020-08-29T13:22:25.399Z</time>
      </trkpt>
      <trkpt lat="62.46765" lon="17.33553">
        <ele>25.114674</ele>
        <time>2020-08-29T13:22:31.645Z</time>
      </trkpt>
      <trkpt lat="62.46739" lon="17.33685">
        <ele>24.345445</ele>
        <time>2020-08-29T13:22:41.532Z</time>
      </trkpt>
      <trkpt lat="62.46732" lon="17.33727">
        <ele>24.112825</ele>
        <time>2020-08-29T13:22:44.427Z</time>
      </trkpt>
      <trkpt lat="62.46725" lon="17.33779">
        <ele>23.822263</ele>
        <time>2020-08-29T13:22:48.048Z</time>
      </trkpt>
      <trkpt lat="62.46711" lon="17.33878">
        <ele>23.468171</ele>
        <time>2020-08-29T13:22:55.209Z</time>
      </trkpt>
      <trkpt lat="62.46702" lon="17.33931">
        <ele>24.090116</ele>
        <time>2020-08-29T13:23:01.495Z</time>
      </trkpt>
      <trkpt lat="62.4668" lon="17.34031">
        <ele>25.322496</ele>
        <time>2020-08-29T13:23:12.693Z</time>
      </trkpt>
      <trkpt lat="62.46673" lon="17.34059">
        <ele>25.664085</ele>
        <time>2020-08-29T13:23:16.830Z</time>
      </trkpt>
      <trkpt lat="62.46665" lon="17.34093">
        <ele>26.087033</ele>
        <time>2020-08-29T13:23:21.143Z</time>
      </trkpt>
      <trkpt lat="62.46649" lon="17.34134">
        <ele>26.689145</ele>
        <time>2020-08-29T13:23:29.282Z</time>
      </trkpt>
      <trkpt lat="62.46642" lon="17.34139">
        <ele>26.851987</ele>
        <time>2020-08-29T13:23:30.733Z</time>
      </trkpt>
      <trkpt lat="62.46633" lon="17.34143">
        <ele>27.079576</ele>
        <time>2020-08-29T13:23:33.269Z</time>
      </trkpt>
      <trkpt lat="62.46625" lon="17.34144">
        <ele>27.271107</ele>
        <time>2020-08-29T13:23:35.364Z</time>
      </trkpt>
      <trkpt lat="62.46618" lon="17.34141">
        <ele>27.445123</ele>
        <time>2020-08-29T13:23:39.608Z</time>
      </trkpt>
      <trkpt lat="62.46599" lon="17.34124">
        <ele>28.1415</ele>
        <time>2020-08-29T13:23:45.414Z</time>
      </trkpt>
      <trkpt lat="62.46553" lon="17.34028">
        <ele>30.623137</ele>
        <time>2020-08-29T13:24:08.622Z</time>
      </trkpt>
      <trkpt lat="62.46539" lon="17.34014">
        <ele>31.227368</ele>
        <time>2020-08-29T13:24:13.408Z</time>
      </trkpt>
      <trkpt lat="62.46505" lon="17.34017">
        <ele>32.527164</ele>
        <time>2020-08-29T13:24:24.818Z</time>
      </trkpt>
      <trkpt lat="62.4647" lon="17.34059">
        <ele>34.102915</ele>
        <time>2020-08-29T13:24:36.756Z</time>
      </trkpt>
      <trkpt lat="62.46442" lon="17.34106">
        <ele>34.342516</ele>
        <time>2020-08-29T13:24:43.315Z</time>
      </trkpt>
      <trkpt lat="62.46417" lon="17.34159">
        <ele>33.838444</ele>
        <time>2020-08-29T13:24:48.733Z</time>
      </trkpt>
      <trkpt lat="62.46399" lon="17.34193">
        <ele>33.492234</ele>
        <time>2020-08-29T13:24:52.081Z</time>
      </trkpt>
      <trkpt lat="62.46374" lon="17.34241">
        <ele>32.999122</ele>
        <time>2020-08-29T13:24:56.843Z</time>
      </trkpt>
      <trkpt lat="62.46372" lon="17.34244">
        <ele>32.967843</ele>
        <time>2020-08-29T13:24:57.087Z</time>
      </trkpt>
      <trkpt lat="62.46349" lon="17.34288">
        <ele>32.512174</ele>
        <time>2020-08-29T13:25:01.350Z</time>
      </trkpt>
      <trkpt lat="62.46299" lon="17.3438">
        <ele>32.000524</ele>
        <time>2020-08-29T13:25:09.865Z</time>
      </trkpt>
      <trkpt lat="62.46265" lon="17.34429">
        <ele>31.956422</ele>
        <time>2020-08-29T13:25:15.730Z</time>
      </trkpt>
      <trkpt lat="62.46251" lon="17.34445">
        <ele>31.938727</ele>
        <time>2020-08-29T13:25:18.136Z</time>
      </trkpt>
      <trkpt lat="62.46239" lon="17.34458">
        <ele>31.924621</ele>
        <time>2020-08-29T13:25:21.155Z</time>
      </trkpt>
      <trkpt lat="62.46198" lon="17.34491">
        <ele>31.877633</ele>
        <time>2020-08-29T13:25:30.799Z</time>
      </trkpt>
      <trkpt lat="62.46176" lon="17.34507">
        <ele>31.851702</ele>
        <time>2020-08-29T13:25:36.884Z</time>
      </trkpt>
      <trkpt lat="62.46136" lon="17.34536">
        <ele>32.881666</ele>
        <time>2020-08-29T13:25:48.665Z</time>
      </trkpt>
      <trkpt lat="62.46119" lon="17.34546">
        <ele>33.432759</ele>
        <time>2020-08-29T13:25:53.387Z</time>
      </trkpt>
      <trkpt lat="62.46113" lon="17.3451">
        <ele>33.995362</ele>
        <time>2020-08-29T13:25:58.861Z</time>
      </trkpt>
      <trkpt lat="62.46103" lon="17.34517">
        <ele>34.33419</ele>
        <time>2020-08-29T13:26:01.820Z</time>
      </trkpt>
      <trkpt lat="62.46099" lon="17.34519">
        <ele>34.457418</ele>
        <time>2020-08-29T13:26:02.910Z</time>
      </trkpt>
      <trkpt lat="62.46096" lon="17.34521">
        <ele>34.555674</ele>
        <time>2020-08-29T13:26:04.101Z</time>
      </trkpt>
      <trkpt lat="62.46089" lon="17.34498">
        <ele>34.959573</ele>
        <time>2020-08-29T13:26:07.836Z</time>
      </trkpt>
      <trkpt lat="62.46082" lon="17.34496">
        <ele>35.189141</ele>
        <time>2020-08-29T13:26:10.018Z</time>
      </trkpt>
      <trkpt lat="62.46054" lon="17.34534">
        <ele>36.246757</ele>
        <time>2020-08-29T13:26:19.844Z</time>
      </trkpt>
      <trkpt lat="62.46048" lon="17.34541">
        <ele>36.46504</ele>
        <time>2020-08-29T13:26:21.848Z</time>
      </trkpt>
      <trkpt lat="62.46029" lon="17.34563">
        <ele>37.15219</ele>
        <time>2020-08-29T13:26:27.960Z</time>
      </trkpt>
      <trkpt lat="62.4601" lon="17.34587">
        <ele>37.725262</ele>
        <time>2020-08-29T13:26:33.797Z</time>
      </trkpt>
      <trkpt lat="62.4595" lon="17.34665">
        <ele>38.726134</ele>
        <time>2020-08-29T13:26:50.892Z</time>
      </trkpt>
      <trkpt lat="62.45939" lon="17.34681">
        <ele>38.917242</ele>
        <time>2020-08-29T13:26:53.707Z</time>
      </trkpt>
      <trkpt lat="62.45926" lon="17.34697">
        <ele>39.13022</ele>
        <time>2020-08-29T13:26:56.915Z</time>
      </trkpt>
      <trkpt lat="62.45833" lon="17.34818">
        <ele>40.445484</ele>
        <time>2020-08-29T13:27:18.223Z</time>
      </trkpt>
      <trkpt lat="62.45829" lon="17.34832">
        <ele>40.505042</ele>
        <time>2020-08-29T13:27:19.572Z</time>
      </trkpt>
      <trkpt lat="62.4582" lon="17.34842">
        <ele>40.581119</ele>
        <time>2020-08-29T13:27:21.524Z</time>
      </trkpt>
      <trkpt lat="62.45814" lon="17.34849">
        <ele>40.635275</ele>
        <time>2020-08-29T13:27:22.880Z</time>
      </trkpt>
      <trkpt lat="62.45806" lon="17.34846">
        <ele>40.694327</ele>
        <time>2020-08-29T13:27:24.249Z</time>
      </trkpt>
      <trkpt lat="62.458" lon="17.34852">
        <ele>40.744295</ele>
        <time>2020-08-29T13:27:25.422Z</time>
      </trkpt>
      <trkpt lat="62.45784" lon="17.34868">
        <ele>40.882617</ele>
        <time>2020-08-29T13:27:29.002Z</time>
      </trkpt>
      <trkpt lat="62.45742" lon="17.34901">
        <ele>41.218909</ele>
        <time>2020-08-29T13:27:37.914Z</time>
      </trkpt>
      <trkpt lat="62.45667" lon="17.3494">
        <ele>41.992711</ele>
        <time>2020-08-29T13:27:54.800Z</time>
      </trkpt>
      <trkpt lat="62.45641" lon="17.34947">
        <ele>42.333578</ele>
        <time>2020-08-29T13:28:01.029Z</time>
      </trkpt>
      <trkpt lat="62.45597" lon="17.34952">
        <ele>42.918791</ele>
        <time>2020-08-29T13:28:11.191Z</time>
      </trkpt>
      <trkpt lat="62.45553" lon="17.34951">
        <ele>43.504323</ele>
        <time>2020-08-29T13:28:21.082Z</time>
      </trkpt>
      <trkpt lat="62.45534" lon="17.34948">
        <ele>43.752051</ele>
        <time>2020-08-29T13:28:25.181Z</time>
      </trkpt>
      <trkpt lat="62.45522" lon="17.34945">
        <ele>43.915852</ele>
        <time>2020-08-29T13:28:27.778Z</time>
      </trkpt>
      <trkpt lat="62.45509" lon="17.34941">
        <ele>43.832117</ele>
        <time>2020-08-29T13:28:30.500Z</time>
      </trkpt>
      <trkpt lat="62.45499" lon="17.34936">
        <ele>43.747534</ele>
        <time>2020-08-29T13:28:32.692Z</time>
      </trkpt>
      <trkpt lat="62.45484" lon="17.3493">
        <ele>43.622026</ele>
        <time>2020-08-29T13:28:35.805Z</time>
      </trkpt>
      <trkpt lat="62.45412" lon="17.34886">
        <ele>43.007581</ele>
        <time>2020-08-29T13:28:48.166Z</time>
      </trkpt>
      <trkpt lat="62.45326" lon="17.34817">
        <ele>41.640887</ele>
        <time>2020-08-29T13:29:00.960Z</time>
      </trkpt>
      <trkpt lat="62.45315" lon="17.34822">
        <ele>41.259413</ele>
        <time>2020-08-29T13:29:02.494Z</time>
      </trkpt>
      <trkpt lat="62.45311" lon="17.34819">
        <ele>41.132233</ele>
        <time>2020-08-29T13:29:02.927Z</time>
      </trkpt>
      <trkpt lat="62.45306" lon="17.34815">
        <ele>40.955249</ele>
        <time>2020-08-29T13:29:03.562Z</time>
      </trkpt>
      <trkpt lat="62.453" lon="17.34795">
        <ele>40.581978</ele>
        <time>2020-08-29T13:29:05.147Z</time>
      </trkpt>
      <trkpt lat="62.45255" lon="17.34762">
        <ele>39.002156</ele>
        <time>2020-08-29T13:29:11.357Z</time>
      </trkpt>
      <trkpt lat="62.45243" lon="17.34747">
        <ele>38.52667</ele>
        <time>2020-08-29T13:29:13.054Z</time>
      </trkpt>
      <trkpt lat="62.45201" lon="17.34712">
        <ele>37.037815</ele>
        <time>2020-08-29T13:29:18.751Z</time>
      </trkpt>
      <trkpt lat="62.45183" lon="17.34694">
        <ele>36.345222</ele>
        <time>2020-08-29T13:29:21.300Z</time>
      </trkpt>
      <trkpt lat="62.45117" lon="17.34624">
        <ele>33.613631</ele>
        <time>2020-08-29T13:29:30.583Z</time>
      </trkpt>
      <trkpt lat="62.45085" lon="17.34589">
        <ele>32.272808</ele>
        <time>2020-08-29T13:29:35.171Z</time>
      </trkpt>
      <trkpt lat="62.45046" lon="17.34549">
        <ele>30.686425</ele>
        <time>2020-08-29T13:29:40.936Z</time>
      </trkpt>
      <trkpt lat="62.45028" lon="17.34531">
        <ele>29.923893</ele>
        <time>2020-08-29T13:29:43.732Z</time>
      </trkpt>
      <trkpt lat="62.4501" lon="17.34518">
        <ele>29.281005</ele>
        <time>2020-08-29T13:29:46.252Z</time>
      </trkpt>
      <trkpt lat="62.44993" lon="17.34506">
        <ele>28.663918</ele>
        <time>2020-08-29T13:29:48.733Z</time>
      </trkpt>
      <trkpt lat="62.44962" lon="17.34489">
        <ele>27.607293</ele>
        <time>2020-08-29T13:29:52.910Z</time>
      </trkpt>
      <trkpt lat="62.44916" lon="17.34479">
        <ele>26.0468</ele>
        <time>2020-08-29T13:29:59.167Z</time>
      </trkpt>
      <trkpt lat="62.44907" lon="17.34479">
        <ele>25.727239</ele>
        <time>2020-08-29T13:30:00.421Z</time>
      </trkpt>
      <trkpt lat="62.44843" lon="17.34475">
        <ele>23.631637</ele>
        <time>2020-08-29T13:30:09.206Z</time>
      </trkpt>
      <trkpt lat="62.44793" lon="17.34472">
        <ele>22.514462</ele>
        <time>2020-08-29T13:30:16.179Z</time>
      </trkpt>
      <trkpt lat="62.44776" lon="17.34468">
        <ele>22.127838</ele>
        <time>2020-08-29T13:30:18.662Z</time>
      </trkpt>
      <trkpt lat="62.44757" lon="17.34459">
        <ele>21.701441</ele>
        <time>2020-08-29T13:30:21.360Z</time>
      </trkpt>
      <trkpt lat="62.44743" lon="17.3445">
        <ele>21.367502</ele>
        <time>2020-08-29T13:30:23.503Z</time>
      </trkpt>
      <trkpt lat="62.4471" lon="17.34425">
        <ele>20.597679</ele>
        <time>2020-08-29T13:30:28.599Z</time>
      </trkpt>
      <trkpt lat="62.44692" lon="17.34405">
        <ele>20.150857</ele>
        <time>2020-08-29T13:30:31.630Z</time>
      </trkpt>
      <trkpt lat="62.4468" lon="17.34387">
        <ele>19.811334</ele>
        <time>2020-08-29T13:30:34.099Z</time>
      </trkpt>
      <trkpt lat="62.4462" lon="17.34303">
        <ele>19.730825</ele>
        <time>2020-08-29T13:30:46.283Z</time>
      </trkpt>
      <trkpt lat="62.44581" lon="17.34268">
        <ele>19.755445</ele>
        <time>2020-08-29T13:30:54.202Z</time>
      </trkpt>
      <trkpt lat="62.44576" lon="17.34263">
        <ele>19.758536</ele>
        <time>2020-08-29T13:30:55.107Z</time>
      </trkpt>
      <trkpt lat="62.4457" lon="17.34256">
        <ele>19.762179</ele>
        <time>2020-08-29T13:30:56.323Z</time>
      </trkpt>
      <trkpt lat="62.44565" lon="17.34249">
        <ele>19.765872</ele>
        <time>2020-08-29T13:30:57.509Z</time>
      </trkpt>
      <trkpt lat="62.44563" lon="17.34245">
        <ele>19.767725</ele>
        <time>2020-08-29T13:30:58.096Z</time>
      </trkpt>
      <trkpt lat="62.44558" lon="17.34232">
        <ele>19.772018</ele>
        <time>2020-08-29T13:30:59.785Z</time>
      </trkpt>
      <trkpt lat="62.44535" lon="17.34202">
        <ele>19.787741</ele>
        <time>2020-08-29T13:31:05.189Z</time>
      </trkpt>
      <trkpt lat="62.44486" lon="17.34164">
        <ele>20.762146</ele>
        <time>2020-08-29T13:31:17.414Z</time>
      </trkpt>
      <trkpt lat="62.44441" lon="17.34143">
        <ele>21.995664</ele>
        <time>2020-08-29T13:31:29.162Z</time>
      </trkpt>
      <trkpt lat="62.44421" lon="17.34143">
        <ele>22.504715</ele>
        <time>2020-08-29T13:31:35.268Z</time>
      </trkpt>
      <trkpt lat="62.44393" lon="17.34163">
        <ele>23.304947</ele>
        <time>2020-08-29T13:31:43.946Z</time>
      </trkpt>
      <trkpt lat="62.44363" lon="17.34199">
        <ele>24.214618</ele>
        <time>2020-08-29T13:31:53.920Z</time>
      </trkpt>
      <trkpt lat="62.4436" lon="17.3421">
        <ele>24.366096</ele>
        <time>2020-08-29T13:31:55.784Z</time>
      </trkpt>
      <trkpt lat="62.44355" lon="17.34206">
        <ele>24.511974</ele>
        <time>2020-08-29T13:31:57.182Z</time>
      </trkpt>
      <trkpt lat="62.44345" lon="17.34199">
        <ele>24.895294</ele>
        <time>2020-08-29T13:32:00.010Z</time>
      </trkpt>
      <trkpt lat="62.44341" lon="17.34196">
        <ele>25.069794</ele>
        <time>2020-08-29T13:32:01.284Z</time>
      </trkpt>
      <trkpt lat="62.4434" lon="17.34179">
        <ele>25.41027</ele>
        <time>2020-08-29T13:32:03.908Z</time>
      </trkpt>
      <trkpt lat="62.44333" lon="17.34141">
        <ele>26.213539</ele>
        <time>2020-08-29T13:32:09.359Z</time>
      </trkpt>
      <trkpt lat="62.44328" lon="17.34132">
        <ele>26.478697</ele>
        <time>2020-08-29T13:32:11.253Z</time>
      </trkpt>
      <trkpt lat="62.44315" lon="17.34105">
        <ele>27.249349</ele>
        <time>2020-08-29T13:32:17.963Z</time>
      </trkpt>
      <trkpt lat="62.44303" lon="17.34079">
        <ele>27.961083</ele>
        <time>2020-08-29T13:32:22.588Z</time>
      </trkpt>
      <trkpt lat="62.44278" lon="17.34048">
        <ele>29.167577</ele>
        <time>2020-08-29T13:32:32.302Z</time>
      </trkpt>
      <trkpt lat="62.44193" lon="17.34033">
        <ele>32.819534</ele>
        <time>2020-08-29T13:33:01.016Z</time>
      </trkpt>
      <trkpt lat="62.44186" lon="17.34033">
        <ele>33.138094</ele>
        <time>2020-08-29T13:33:04.195Z</time>
      </trkpt>
      <trkpt lat="62.44179" lon="17.34033">
        <ele>33.420896</ele>
        <time>2020-08-29T13:33:06.301Z</time>
      </trkpt>
      <trkpt lat="62.44167" lon="17.34038">
        <ele>33.995566</ele>
        <time>2020-08-29T13:33:09.720Z</time>
      </trkpt>
      <trkpt lat="62.4416" lon="17.34047">
        <ele>34.35878</ele>
        <time>2020-08-29T13:33:11.928Z</time>
      </trkpt>
      <trkpt lat="62.44154" lon="17.3405">
        <ele>34.621947</ele>
        <time>2020-08-29T13:33:14.082Z</time>
      </trkpt>
      <trkpt lat="62.44147" lon="17.34049">
        <ele>34.955173</ele>
        <time>2020-08-29T13:33:16.628Z</time>
      </trkpt>
      <trkpt lat="62.44143" lon="17.34048">
        <ele>35.122199</ele>
        <time>2020-08-29T13:33:17.600Z</time>
      </trkpt>
      <trkpt lat="62.44141" lon="17.34034">
        <ele>35.429062</ele>
        <time>2020-08-29T13:33:19.507Z</time>
      </trkpt>
      <trkpt lat="62.44135" lon="17.34023">
        <ele>35.79716</ele>
        <time>2020-08-29T13:33:21.580Z</time>
      </trkpt>
      <trkpt lat="62.44128" lon="17.34017">
        <ele>36.122491</ele>
        <time>2020-08-29T13:33:23.842Z</time>
      </trkpt>
      <trkpt lat="62.4412" lon="17.34013">
        <ele>36.477742</ele>
        <time>2020-08-29T13:33:26.797Z</time>
      </trkpt>
      <trkpt lat="62.43966" lon="17.33989">
        <ele>44.253202</ele>
        <time>2020-08-29T13:34:18.963Z</time>
      </trkpt>
      <trkpt lat="62.43931" lon="17.33989">
        <ele>46.271731</ele>
        <time>2020-08-29T13:34:32.366Z</time>
      </trkpt>
      <trkpt lat="62.43884" lon="17.33986">
        <ele>48.994383</ele>
        <time>2020-08-29T13:34:51.445Z</time>
      </trkpt>
      <trkpt lat="62.43854" lon="17.33986">
        <ele>50.694874</ele>
        <time>2020-08-29T13:35:02.627Z</time>
      </trkpt>
      <trkpt lat="62.43845" lon="17.33989">
        <ele>51.134653</ele>
        <time>2020-08-29T13:35:06.615Z</time>
      </trkpt>
      <trkpt lat="62.4383" lon="17.34">
        <ele>51.95434</ele>
        <time>2020-08-29T13:35:12.623Z</time>
      </trkpt>
      <trkpt lat="62.43802" lon="17.34009">
        <ele>53.402146</ele>
        <time>2020-08-29T13:35:23.331Z</time>
      </trkpt>
      <trkpt lat="62.43766" lon="17.34018">
        <ele>55.321165</ele>
        <time>2020-08-29T13:35:36.836Z</time>
      </trkpt>
      <trkpt lat="62.43754" lon="17.34023">
        <ele>55.934132</ele>
        <time>2020-08-29T13:35:41.234Z</time>
      </trkpt>
      <trkpt lat="62.43714" lon="17.34058">
        <ele>58.152611</ele>
        <time>2020-08-29T13:35:55.423Z</time>
      </trkpt>
      <trkpt lat="62.43674" lon="17.34112">
        <ele>60.426297</ele>
        <time>2020-08-29T13:36:10.253Z</time>
      </trkpt>
      <trkpt lat="62.43661" lon="17.34123">
        <ele>60.942725</ele>
        <time>2020-08-29T13:36:14.179Z</time>
      </trkpt>
      <trkpt lat="62.43657" lon="17.34127">
        <ele>61.149885</ele>
        <time>2020-08-29T13:36:15.696Z</time>
      </trkpt>
      <trkpt lat="62.43642" lon="17.34147">
        <ele>61.829348</ele>
        <time>2020-08-29T13:36:20.158Z</time>
      </trkpt>
      <trkpt lat="62.43638" lon="17.3416">
        <ele>62.115763</ele>
        <time>2020-08-29T13:36:22.061Z</time>
      </trkpt>
      <trkpt lat="62.43631" lon="17.34172">
        <ele>62.471771</ele>
        <time>2020-08-29T13:36:24.839Z</time>
      </trkpt>
      <trkpt lat="62.43612" lon="17.34201">
        <ele>63.385032</ele>
        <time>2020-08-29T13:36:31.423Z</time>
      </trkpt>
      <trkpt lat="62.43555" lon="17.3424">
        <ele>65.699245</ele>
        <time>2020-08-29T13:36:50.612Z</time>
      </trkpt>
      <trkpt lat="62.43527" lon="17.34253">
        <ele>66.835644</ele>
        <time>2020-08-29T13:37:00.400Z</time>
      </trkpt>
      <trkpt lat="62.43496" lon="17.3425">
        <ele>68.335577</ele>
        <time>2020-08-29T13:37:10.763Z</time>
      </trkpt>
      <trkpt lat="62.43476" lon="17.34242">
        <ele>69.314974</ele>
        <time>2020-08-29T13:37:17.583Z</time>
      </trkpt>
      <trkpt lat="62.43457" lon="17.34228">
        <ele>70.28149</ele>
        <time>2020-08-29T13:37:24.568Z</time>
      </trkpt>
      <trkpt lat="62.43382" lon="17.34116">
        <ele>74.657964</ele>
        <time>2020-08-29T13:37:55.893Z</time>
      </trkpt>
      <trkpt lat="62.43357" lon="17.34093">
        <ele>75.827682</ele>
        <time>2020-08-29T13:38:05.606Z</time>
      </trkpt>
      <trkpt lat="62.43332" lon="17.34103">
        <ele>76.637824</ele>
        <time>2020-08-29T13:38:14.790Z</time>
      </trkpt>
      <trkpt lat="62.43302" lon="17.34158">
        <ele>77.861268</ele>
        <time>2020-08-29T13:38:26.083Z</time>
      </trkpt>
      <trkpt lat="62.43294" lon="17.34169">
        <ele>78.153251</ele>
        <time>2020-08-29T13:38:28.726Z</time>
      </trkpt>
      <trkpt lat="62.43274" lon="17.34186">
        <ele>78.836791</ele>
        <time>2020-08-29T13:38:35.005Z</time>
      </trkpt>
      <trkpt lat="62.43168" lon="17.34317">
        <ele>81.267858</ele>
        <time>2020-08-29T13:39:05.580Z</time>
      </trkpt>
      <trkpt lat="62.43125" lon="17.34393">
        <ele>81.343502</ele>
        <time>2020-08-29T13:39:16.610Z</time>
      </trkpt>
      <trkpt lat="62.4294" lon="17.34608">
        <ele>79.819572</ele>
        <time>2020-08-29T13:39:49.554Z</time>
      </trkpt>
      <trkpt lat="62.42901" lon="17.34641">
        <ele>79.30123</ele>
        <time>2020-08-29T13:39:56.117Z</time>
      </trkpt>
      <trkpt lat="62.42854" lon="17.34668">
        <ele>79.019921</ele>
        <time>2020-08-29T13:40:04.157Z</time>
      </trkpt>
      <trkpt lat="62.42776" lon="17.34683">
        <ele>78.645679</ele>
        <time>2020-08-29T13:40:17.953Z</time>
      </trkpt>
      <trkpt lat="62.42681" lon="17.34691">
        <ele>78.01777</ele>
        <time>2020-08-29T13:40:35.115Z</time>
      </trkpt>
      <trkpt lat="62.4263" lon="17.34692">
        <ele>77.536773</ele>
        <time>2020-08-29T13:40:43.986Z</time>
      </trkpt>
      <trkpt lat="62.426" lon="17.34694">
        <ele>77.250341</ele>
        <time>2020-08-29T13:40:49.164Z</time>
      </trkpt>
      <trkpt lat="62.42557" lon="17.34692">
        <ele>76.84772</ele>
        <time>2020-08-29T13:40:56.000Z</time>
      </trkpt>
      <trkpt lat="62.42519" lon="17.34685">
        <ele>75.842306</ele>
        <time>2020-08-29T13:41:01.540Z</time>
      </trkpt>
      <trkpt lat="62.42488" lon="17.34677">
        <ele>74.48619</ele>
        <time>2020-08-29T13:41:05.731Z</time>
      </trkpt>
      <trkpt lat="62.42463" lon="17.3467">
        <ele>73.35238</ele>
        <time>2020-08-29T13:41:09.114Z</time>
      </trkpt>
      <trkpt lat="62.42438" lon="17.34659">
        <ele>72.224179</ele>
        <time>2020-08-29T13:41:12.410Z</time>
      </trkpt>
      <trkpt lat="62.42411" lon="17.34644">
        <ele>71.000021</ele>
        <time>2020-08-29T13:41:15.935Z</time>
      </trkpt>
      <trkpt lat="62.42315" lon="17.34591">
        <ele>66.103998</ele>
        <time>2020-08-29T13:41:28.106Z</time>
      </trkpt>
      <trkpt lat="62.42226" lon="17.3454">
        <ele>61.020974</ele>
        <time>2020-08-29T13:41:39.400Z</time>
      </trkpt>
      <trkpt lat="62.42158" lon="17.34503">
        <ele>57.732087</ele>
        <time>2020-08-29T13:41:48.607Z</time>
      </trkpt>
      <trkpt lat="62.42063" lon="17.34451">
        <ele>54.382405</ele>
        <time>2020-08-29T13:42:02.077Z</time>
      </trkpt>
      <trkpt lat="62.41981" lon="17.34402">
        <ele>51.367577</ele>
        <time>2020-08-29T13:42:13.899Z</time>
      </trkpt>
      <trkpt lat="62.41953" lon="17.34387">
        <ele>50.280684</ele>
        <time>2020-08-29T13:42:17.831Z</time>
      </trkpt>
      <trkpt lat="62.41781" lon="17.34291">
        <ele>44.176366</ele>
        <time>2020-08-29T13:42:41.160Z</time>
      </trkpt>
      <trkpt lat="62.41738" lon="17.34269">
        <ele>42.861111</ele>
        <time>2020-08-29T13:42:47.409Z</time>
      </trkpt>
      <trkpt lat="62.4172" lon="17.34263">
        <ele>42.349265</ele>
        <time>2020-08-29T13:42:49.933Z</time>
      </trkpt>
      <trkpt lat="62.41717" lon="17.34262">
        <ele>42.262637</ele>
        <time>2020-08-29T13:42:50.363Z</time>
      </trkpt>
      <trkpt lat="62.41711" lon="17.34255">
        <ele>42.039928</ele>
        <time>2020-08-29T13:42:51.424Z</time>
      </trkpt>
      <trkpt lat="62.41711" lon="17.34248">
        <ele>41.944911</ele>
        <time>2020-08-29T13:42:51.887Z</time>
      </trkpt>
      <trkpt lat="62.41713" lon="17.34231">
        <ele>41.706632</ele>
        <time>2020-08-29T13:42:53.071Z</time>
      </trkpt>
      <trkpt lat="62.41715" lon="17.3422">
        <ele>41.555508</ele>
        <time>2020-08-29T13:42:53.831Z</time>
      </trkpt>
      <trkpt lat="62.41664" lon="17.34193">
        <ele>40.423802</ele>
        <time>2020-08-29T13:43:01.598Z</time>
      </trkpt>
      <trkpt lat="62.41607" lon="17.3416">
        <ele>39.787968</ele>
        <time>2020-08-29T13:43:10.934Z</time>
      </trkpt>
      <trkpt lat="62.41599" lon="17.34152">
        <ele>39.694352</ele>
        <time>2020-08-29T13:43:12.395Z</time>
      </trkpt>
      <trkpt lat="62.41595" lon="17.34147">
        <ele>39.644314</ele>
        <time>2020-08-29T13:43:13.136Z</time>
      </trkpt>
      <trkpt lat="62.41594" lon="17.34145">
        <ele>39.622647</ele>
        <time>2020-08-29T13:43:13.454Z</time>
      </trkpt>
      <trkpt lat="62.41585" lon="17.34126">
        <ele>39.489022</ele>
        <time>2020-08-29T13:43:15.619Z</time>
      </trkpt>
      <trkpt lat="62.41577" lon="17.34116">
        <ele>39.39574</ele>
        <time>2020-08-29T13:43:17.073Z</time>
      </trkpt>
      <trkpt lat="62.4157" lon="17.34111">
        <ele>39.309781</ele>
        <time>2020-08-29T13:43:18.405Z</time>
      </trkpt>
      <trkpt lat="62.41543" lon="17.34095">
        <ele>39.011269</ele>
        <time>2020-08-29T13:43:23.053Z</time>
      </trkpt>
      <trkpt lat="62.41514" lon="17.3405">
        <ele>38.676743</ele>
        <time>2020-08-29T13:43:29.078Z</time>
      </trkpt>
      <trkpt lat="62.41493" lon="17.34009">
        <ele>38.552933</ele>
        <time>2020-08-29T13:43:33.917Z</time>
      </trkpt>
      <trkpt lat="62.41475" lon="17.33971">
        <ele>38.446023</ele>
        <time>2020-08-29T13:43:38.077Z</time>
      </trkpt>
      <trkpt lat="62.41431" lon="17.33882">
        <ele>38.184321</ele>
        <time>2020-08-29T13:43:48.720Z</time>
      </trkpt>
      <trkpt lat="62.41415" lon="17.33849">
        <ele>38.088289</ele>
        <time>2020-08-29T13:43:52.692Z</time>
      </trkpt>
      <trkpt lat="62.41358" lon="17.33716">
        <ele>37.818998</ele>
        <time>2020-08-29T13:44:07.612Z</time>
      </trkpt>
      <trkpt lat="62.41351" lon="17.33701">
        <ele>37.797033</ele>
        <time>2020-08-29T13:44:09.324Z</time>
      </trkpt>
      <trkpt lat="62.41346" lon="17.3369">
        <ele>37.780316</ele>
        <time>2020-08-29T13:44:10.631Z</time>
      </trkpt>
      <trkpt lat="62.41329" lon="17.33655">
        <ele>37.724815</ele>
        <time>2020-08-29T13:44:14.778Z</time>
      </trkpt>
      <trkpt lat="62.41306" lon="17.33605">
        <ele>37.646923</ele>
        <time>2020-08-29T13:44:20.745Z</time>
      </trkpt>
      <trkpt lat="62.41292" lon="17.33579">
        <ele>37.604046</ele>
        <time>2020-08-29T13:44:24.146Z</time>
      </trkpt>
      <trkpt lat="62.41282" lon="17.3356">
        <ele>37.573374</ele>
        <time>2020-08-29T13:44:26.377Z</time>
      </trkpt>
      <trkpt lat="62.41233" lon="17.33486">
        <ele>37.383337</ele>
        <time>2020-08-29T13:44:37.261Z</time>
      </trkpt>
      <trkpt lat="62.41223" lon="17.33476">
        <ele>37.341288</ele>
        <time>2020-08-29T13:44:39.112Z</time>
      </trkpt>
      <trkpt lat="62.41222" lon="17.33474">
        <ele>37.333262</ele>
        <time>2020-08-29T13:44:39.486Z</time>
      </trkpt>
      <trkpt lat="62.41196" lon="17.33451">
        <ele>37.227294</ele>
        <time>2020-08-29T13:44:44.343Z</time>
      </trkpt>
      <trkpt lat="62.41162" lon="17.33421">
        <ele>37.084668</ele>
        <time>2020-08-29T13:44:50.632Z</time>
      </trkpt>
      <trkpt lat="62.41154" lon="17.33412">
        <ele>37.047812</ele>
        <time>2020-08-29T13:44:52.247Z</time>
      </trkpt>
      <trkpt lat="62.41098" lon="17.33337">
        <ele>36.806894</ele>
        <time>2020-08-29T13:45:03.523Z</time>
      </trkpt>
      <trkpt lat="62.41092" lon="17.33335">
        <ele>36.797595</ele>
        <time>2020-08-29T13:45:04.643Z</time>
      </trkpt>
      <trkpt lat="62.41081" lon="17.33334">
        <ele>36.782665</ele>
        <time>2020-08-29T13:45:06.487Z</time>
      </trkpt>
      <trkpt lat="62.41071" lon="17.33332">
        <ele>36.76759</ele>
        <time>2020-08-29T13:45:08.293Z</time>
      </trkpt>
      <trkpt lat="62.41053" lon="17.33329">
        <ele>36.741533</ele>
        <time>2020-08-29T13:45:11.516Z</time>
      </trkpt>
      <trkpt lat="62.41046" lon="17.33331">
        <ele>36.730987</ele>
        <time>2020-08-29T13:45:12.831Z</time>
      </trkpt>
      <trkpt lat="62.41041" lon="17.33332">
        <ele>36.723786</ele>
        <time>2020-08-29T13:45:13.717Z</time>
      </trkpt>
      <trkpt lat="62.41032" lon="17.33342">
        <ele>36.708132</ele>
        <time>2020-08-29T13:45:15.566Z</time>
      </trkpt>
      <trkpt lat="62.41007" lon="17.33361">
        <ele>36.669474</ele>
        <time>2020-08-29T13:45:20.442Z</time>
      </trkpt>
      <trkpt lat="62.40982" lon="17.33373">
        <ele>36.633199</ele>
        <time>2020-08-29T13:45:24.955Z</time>
      </trkpt>
      <trkpt lat="62.40975" lon="17.33379">
        <ele>36.621473</ele>
        <time>2020-08-29T13:45:26.447Z</time>
      </trkpt>
      <trkpt lat="62.40971" lon="17.33383">
        <ele>36.614816</ele>
        <time>2020-08-29T13:45:27.250Z</time>
      </trkpt>
      <trkpt lat="62.40967" lon="17.33387">
        <ele>36.608246</ele>
        <time>2020-08-29T13:45:28.052Z</time>
      </trkpt>
      <trkpt lat="62.40962" lon="17.33391">
        <ele>36.601515</ele>
        <time>2020-08-29T13:45:28.858Z</time>
      </trkpt>
      <trkpt lat="62.40943" lon="17.33418">
        <ele>36.567663</ele>
        <time>2020-08-29T13:45:33.226Z</time>
      </trkpt>
      <trkpt lat="62.4084" lon="17.33509">
        <ele>36.655368</ele>
        <time>2020-08-29T13:45:54.413Z</time>
      </trkpt>
      <trkpt lat="62.40638" lon="17.33625">
        <ele>36.247331</ele>
        <time>2020-08-29T13:46:33.658Z</time>
      </trkpt>
      <trkpt lat="62.406" lon="17.33637">
        <ele>36.102001</ele>
        <time>2020-08-29T13:46:40.145Z</time>
      </trkpt>
      <trkpt lat="62.40419" lon="17.33628">
        <ele>32.76814</ele>
        <time>2020-08-29T13:47:07.102Z</time>
      </trkpt>
      <trkpt lat="62.40379" lon="17.33624">
        <ele>31.626911</ele>
        <time>2020-08-29T13:47:12.618Z</time>
      </trkpt>
      <trkpt lat="62.40314" lon="17.33618">
        <ele>29.517357</ele>
        <time>2020-08-29T13:47:21.579Z</time>
      </trkpt>
      <trkpt lat="62.40239" lon="17.33612">
        <ele>27.102285</ele>
        <time>2020-08-29T13:47:31.689Z</time>
      </trkpt>
      <trkpt lat="62.4019" lon="17.33606">
        <ele>25.695199</ele>
        <time>2020-08-29T13:47:38.313Z</time>
      </trkpt>
      <trkpt lat="62.40162" lon="17.33604">
        <ele>24.916995</ele>
        <time>2020-08-29T13:47:42.097Z</time>
      </trkpt>
      <trkpt lat="62.40103" lon="17.33596">
        <ele>23.288977</ele>
        <time>2020-08-29T13:47:50.436Z</time>
      </trkpt>
      <trkpt lat="62.40092" lon="17.33594">
        <ele>22.973108</ele>
        <time>2020-08-29T13:47:51.964Z</time>
      </trkpt>
      <trkpt lat="62.40087" lon="17.33593">
        <ele>22.838717</ele>
        <time>2020-08-29T13:47:52.667Z</time>
      </trkpt>
      <trkpt lat="62.40081" lon="17.33591">
        <ele>22.673302</ele>
        <time>2020-08-29T13:47:53.589Z</time>
      </trkpt>
      <trkpt lat="62.40076" lon="17.33577">
        <ele>22.433482</ele>
        <time>2020-08-29T13:47:54.875Z</time>
      </trkpt>
      <trkpt lat="62.40076" lon="17.33569">
        <ele>22.337575</ele>
        <time>2020-08-29T13:47:55.373Z</time>
      </trkpt>
      <trkpt lat="62.40069" lon="17.33567">
        <ele>22.140619</ele>
        <time>2020-08-29T13:47:56.361Z</time>
      </trkpt>
      <trkpt lat="62.40061" lon="17.33564">
        <ele>21.925755</ele>
        <time>2020-08-29T13:47:57.421Z</time>
      </trkpt>
      <trkpt lat="62.40051" lon="17.33583">
        <ele>21.619598</ele>
        <time>2020-08-29T13:47:59.605Z</time>
      </trkpt>
      <trkpt lat="62.39974" lon="17.33559">
        <ele>20.200061</ele>
        <time>2020-08-29T13:48:11.318Z</time>
      </trkpt>
      <trkpt lat="62.39945" lon="17.33542">
        <ele>19.644764</ele>
        <time>2020-08-29T13:48:15.797Z</time>
      </trkpt>
      <trkpt lat="62.39941" lon="17.33539">
        <ele>19.561659</ele>
        <time>2020-08-29T13:48:16.503Z</time>
      </trkpt>
      <trkpt lat="62.39854" lon="17.33489">
        <ele>17.652271</ele>
        <time>2020-08-29T13:48:30.148Z</time>
      </trkpt>
      <trkpt lat="62.39846" lon="17.33488">
        <ele>17.451429</ele>
        <time>2020-08-29T13:48:31.147Z</time>
      </trkpt>
      <trkpt lat="62.39839" lon="17.33485">
        <ele>17.243472</ele>
        <time>2020-08-29T13:48:32.314Z</time>
      </trkpt>
      <trkpt lat="62.39832" lon="17.33477">
        <ele>17.039678</ele>
        <time>2020-08-29T13:48:33.486Z</time>
      </trkpt>
      <trkpt lat="62.39828" lon="17.33463">
        <ele>16.835998</ele>
        <time>2020-08-29T13:48:34.588Z</time>
      </trkpt>
      <trkpt lat="62.39823" lon="17.33469">
        <ele>16.702347</ele>
        <time>2020-08-29T13:48:35.323Z</time>
      </trkpt>
      <trkpt lat="62.39815" lon="17.33474">
        <ele>16.468834</ele>
        <time>2020-08-29T13:48:36.480Z</time>
      </trkpt>
      <trkpt lat="62.39811" lon="17.33475">
        <ele>16.371702</ele>
        <time>2020-08-29T13:48:36.997Z</time>
      </trkpt>
      <trkpt lat="62.39805" lon="17.33502">
        <ele>15.989388</ele>
        <time>2020-08-29T13:48:39.132Z</time>
      </trkpt>
      <trkpt lat="62.39805" lon="17.33511">
        <ele>15.87767</ele>
        <time>2020-08-29T13:48:39.709Z</time>
      </trkpt>
      <trkpt lat="62.39804" lon="17.33525">
        <ele>15.69568</ele>
        <time>2020-08-29T13:48:40.670Z</time>
      </trkpt>
      <trkpt lat="62.39803" lon="17.33531">
        <ele>15.614283</ele>
        <time>2020-08-29T13:48:41.045Z</time>
      </trkpt>
      <trkpt lat="62.3977" lon="17.3352">
        <ele>14.717304</ele>
        <time>2020-08-29T13:48:45.789Z</time>
      </trkpt>
      <trkpt lat="62.39753" lon="17.33529">
        <ele>14.262771</ele>
        <time>2020-08-29T13:48:48.115Z</time>
      </trkpt>
      <trkpt lat="62.39737" lon="17.33543">
        <ele>13.791723</ele>
        <time>2020-08-29T13:48:50.545Z</time>
      </trkpt>
      <trkpt lat="62.39732" lon="17.33547">
        <ele>13.65403</ele>
        <time>2020-08-29T13:48:51.182Z</time>
      </trkpt>
      <trkpt lat="62.39568" lon="17.33727">
        <ele>7.23286</ele>
        <time>2020-08-29T13:49:15.927Z</time>
      </trkpt>
      <trkpt lat="62.39493" lon="17.33744">
        <ele>5.384075</ele>
        <time>2020-08-29T13:49:26.317Z</time>
      </trkpt>
      <trkpt lat="62.3927" lon="17.33819">
        <ele>1.267671</ele>
        <time>2020-08-29T13:50:00.278Z</time>
      </trkpt>
      <trkpt lat="62.39083" lon="17.33919">
        <ele>0.145295</ele>
        <time>2020-08-29T13:50:34.236Z</time>
      </trkpt>
      <trkpt lat="62.38907" lon="17.34057">
        <ele>0.004558</ele>
        <time>2020-08-29T13:51:08.915Z</time>
      </trkpt>
      <trkpt lat="62.38833" lon="17.34125">
        <ele>0.00629</ele>
        <time>2020-08-29T13:51:23.831Z</time>
      </trkpt>
      <trkpt lat="62.38712" lon="17.34262">
        <ele>0.031501</ele>
        <time>2020-08-29T13:51:49.312Z</time>
      </trkpt>
      <trkpt lat="62.38566" lon="17.34451">
        <ele>0.394704</ele>
        <time>2020-08-29T13:52:21.709Z</time>
      </trkpt>
      <trkpt lat="62.38484" lon="17.34577">
        <ele>1.751101</ele>
        <time>2020-08-29T13:52:43.111Z</time>
      </trkpt>
      <trkpt lat="62.38369" lon="17.34775">
        <ele>4.623631</ele>
        <time>2020-08-29T13:53:20.801Z</time>
      </trkpt>
      <trkpt lat="62.38271" lon="17.34979">
        <ele>8.1045</ele>
        <time>2020-08-29T13:53:58.878Z</time>
      </trkpt>
      <trkpt lat="62.38267" lon="17.34986">
        <ele>8.187763</ele>
        <time>2020-08-29T13:54:01.157Z</time>
      </trkpt>
      <trkpt lat="62.3828" lon="17.35046">
        <ele>8.754281</ele>
        <time>2020-08-29T13:54:08.255Z</time>
      </trkpt>
      <trkpt lat="62.38278" lon="17.35052">
        <ele>8.817854</ele>
        <time>2020-08-29T13:54:09.982Z</time>
      </trkpt>
      <trkpt lat="62.3826" lon="17.35143">
        <ele>9.668792</ele>
        <time>2020-08-29T13:54:21.599Z</time>
      </trkpt>
      <trkpt lat="62.38236" lon="17.35201">
        <ele>10.331255</ele>
        <time>2020-08-29T13:54:30.128Z</time>
      </trkpt>
      <trkpt lat="62.3822" lon="17.35374">
        <ele>11.082853</ele>
        <time>2020-08-29T13:54:46.597Z</time>
      </trkpt>
      <trkpt lat="62.38203" lon="17.35454">
        <ele>11.078703</ele>
        <time>2020-08-29T13:54:53.806Z</time>
      </trkpt>
      <trkpt lat="62.38182" lon="17.3551">
        <ele>11.07533</ele>
        <time>2020-08-29T13:54:59.689Z</time>
      </trkpt>
      <trkpt lat="62.38137" lon="17.3558">
        <ele>11.069733</ele>
        <time>2020-08-29T13:55:09.532Z</time>
      </trkpt>
      <trkpt lat="62.38118" lon="17.35611">
        <ele>11.071145</ele>
        <time>2020-08-29T13:55:13.816Z</time>
      </trkpt>
      <trkpt lat="62.381" lon="17.35637">
        <ele>11.074739</ele>
        <time>2020-08-29T13:55:17.712Z</time>
      </trkpt>
      <trkpt lat="62.37972" lon="17.35868">
        <ele>11.127996</ele>
        <time>2020-08-29T13:55:49.141Z</time>
      </trkpt>
      <trkpt lat="62.37963" lon="17.35898">
        <ele>11.14949</ele>
        <time>2020-08-29T13:55:52.323Z</time>
      </trkpt>
      <trkpt lat="62.37958" lon="17.35906">
        <ele>11.157853</ele>
        <time>2020-08-29T13:55:53.686Z</time>
      </trkpt>
      <trkpt lat="62.37953" lon="17.35917">
        <ele>11.167179</ele>
        <time>2020-08-29T13:55:55.010Z</time>
      </trkpt>
      <trkpt lat="62.37936" lon="17.3593">
        <ele>11.189993</ele>
        <time>2020-08-29T13:55:58.345Z</time>
      </trkpt>
      <trkpt lat="62.37834" lon="17.36072">
        <ele>11.4026</ele>
        <time>2020-08-29T13:56:21.239Z</time>
      </trkpt>
      <trkpt lat="62.37758" lon="17.36192">
        <ele>11.959339</ele>
        <time>2020-08-29T13:56:39.718Z</time>
      </trkpt>
      <trkpt lat="62.37683" lon="17.36268">
        <ele>12.553762</ele>
        <time>2020-08-29T13:56:57.846Z</time>
      </trkpt>
      <trkpt lat="62.37678" lon="17.36282">
        <ele>12.676159</ele>
        <time>2020-08-29T13:56:59.438Z</time>
      </trkpt>
      <trkpt lat="62.37674" lon="17.36289">
        <ele>12.76121</ele>
        <time>2020-08-29T13:57:00.713Z</time>
      </trkpt>
      <trkpt lat="62.37666" lon="17.36292">
        <ele>12.89584</ele>
        <time>2020-08-29T13:57:02.529Z</time>
      </trkpt>
      <trkpt lat="62.37662" lon="17.36289">
        <ele>12.961595</ele>
        <time>2020-08-29T13:57:03.934Z</time>
      </trkpt>
      <trkpt lat="62.37644" lon="17.36284">
        <ele>13.247672</ele>
        <time>2020-08-29T13:57:07.850Z</time>
      </trkpt>
      <trkpt lat="62.37594" lon="17.36308">
        <ele>14.076162</ele>
        <time>2020-08-29T13:57:20.377Z</time>
      </trkpt>
      <trkpt lat="62.37562" lon="17.3634">
        <ele>14.630607</ele>
        <time>2020-08-29T13:57:28.805Z</time>
      </trkpt>
      <trkpt lat="62.37559" lon="17.36345">
        <ele>14.702076</ele>
        <time>2020-08-29T13:57:30.398Z</time>
      </trkpt>
      <trkpt lat="62.37378" lon="17.36498">
        <ele>17.439512</ele>
        <time>2020-08-29T13:58:15.910Z</time>
      </trkpt>
      <trkpt lat="62.37198" lon="17.36695">
        <ele>18.472767</ele>
        <time>2020-08-29T13:58:56.215Z</time>
      </trkpt>
      <trkpt lat="62.37086" lon="17.36805">
        <ele>18.279505</ele>
        <time>2020-08-29T13:59:18.598Z</time>
      </trkpt>
      <trkpt lat="62.3698" lon="17.36881">
        <ele>17.970032</ele>
        <time>2020-08-29T13:59:38.279Z</time>
      </trkpt>
      <trkpt lat="62.36772" lon="17.36998">
        <ele>16.757534</ele>
        <time>2020-08-29T14:00:15.511Z</time>
      </trkpt>
      <trkpt lat="62.36723" lon="17.37039">
        <ele>16.33612</ele>
        <time>2020-08-29T14:00:24.432Z</time>
      </trkpt>
      <trkpt lat="62.36702" lon="17.37046">
        <ele>16.162313</ele>
        <time>2020-08-29T14:00:28.079Z</time>
      </trkpt>
      <trkpt lat="62.36685" lon="17.37036">
        <ele>15.974505</ele>
        <time>2020-08-29T14:00:30.572Z</time>
      </trkpt>
      <trkpt lat="62.36668" lon="17.37031">
        <ele>15.541842</ele>
        <time>2020-08-29T14:00:33.172Z</time>
      </trkpt>
      <trkpt lat="62.36663" lon="17.37025">
        <ele>15.384329</ele>
        <time>2020-08-29T14:00:34.215Z</time>
      </trkpt>
      <trkpt lat="62.36656" lon="17.37024">
        <ele>15.218722</ele>
        <time>2020-08-29T14:00:35.156Z</time>
      </trkpt>
      <trkpt lat="62.36651" lon="17.3703">
        <ele>15.066775</ele>
        <time>2020-08-29T14:00:35.883Z</time>
      </trkpt>
      <trkpt lat="62.36558" lon="17.37077">
        <ele>12.606759</ele>
        <time>2020-08-29T14:00:49.517Z</time>
      </trkpt>
      <trkpt lat="62.3655" lon="17.37077">
        <ele>12.387178</ele>
        <time>2020-08-29T14:00:50.668Z</time>
      </trkpt>
      <trkpt lat="62.36541" lon="17.37071">
        <ele>12.148974</ele>
        <time>2020-08-29T14:00:51.814Z</time>
      </trkpt>
      <trkpt lat="62.3653" lon="17.37058">
        <ele>11.819161</ele>
        <time>2020-08-29T14:00:53.768Z</time>
      </trkpt>
      <trkpt lat="62.36512" lon="17.37052">
        <ele>11.371542</ele>
        <time>2020-08-29T14:00:56.133Z</time>
      </trkpt>
      <trkpt lat="62.36477" lon="17.37102">
        <ele>10.530528</ele>
        <time>2020-08-29T14:01:01.848Z</time>
      </trkpt>
      <trkpt lat="62.36437" lon="17.37099">
        <ele>9.727831</ele>
        <time>2020-08-29T14:01:07.400Z</time>
      </trkpt>
      <trkpt lat="62.36395" lon="17.37081">
        <ele>8.870978</ele>
        <time>2020-08-29T14:01:13.426Z</time>
      </trkpt>
      <trkpt lat="62.36279" lon="17.37005">
        <ele>9.048335</ele>
        <time>2020-08-29T14:01:36.978Z</time>
      </trkpt>
      <trkpt lat="62.36249" lon="17.36992">
        <ele>9.613677</ele>
        <time>2020-08-29T14:01:44.291Z</time>
      </trkpt>
      <trkpt lat="62.36241" lon="17.36989">
        <ele>9.76414</ele>
        <time>2020-08-29T14:01:46.957Z</time>
      </trkpt>
      <trkpt lat="62.36191" lon="17.3697">
        <ele>10.695111</ele>
        <time>2020-08-29T14:02:00.827Z</time>
      </trkpt>
      <trkpt lat="62.36139" lon="17.36933">
        <ele>12.193228</ele>
        <time>2020-08-29T14:02:17.384Z</time>
      </trkpt>
      <trkpt lat="62.36095" lon="17.36921">
        <ele>13.707852</ele>
        <time>2020-08-29T14:02:31.857Z</time>
      </trkpt>
      <trkpt lat="62.36073" lon="17.36928">
        <ele>14.481489</ele>
        <time>2020-08-29T14:02:38.770Z</time>
      </trkpt>
      <trkpt lat="62.36041" lon="17.36954">
        <ele>15.644284</ele>
        <time>2020-08-29T14:02:48.990Z</time>
      </trkpt>
      <trkpt lat="62.35949" lon="17.3694">
        <ele>17.68946</ele>
        <time>2020-08-29T14:03:13.937Z</time>
      </trkpt>
      <trkpt lat="62.35898" lon="17.36981">
        <ele>18.230665</ele>
        <time>2020-08-29T14:03:25.981Z</time>
      </trkpt>
      <trkpt lat="62.35892" lon="17.36976">
        <ele>18.291852</ele>
        <time>2020-08-29T14:03:27.164Z</time>
      </trkpt>
      <trkpt lat="62.35889" lon="17.36965">
        <ele>18.355137</ele>
        <time>2020-08-29T14:03:28.579Z</time>
      </trkpt>
      <trkpt lat="62.35868" lon="17.36979">
        <ele>18.570873</ele>
        <time>2020-08-29T14:03:32.606Z</time>
      </trkpt>
      <trkpt lat="62.35847" lon="17.36993">
        <ele>18.792827</ele>
        <time>2020-08-29T14:03:36.689Z</time>
      </trkpt>
      <trkpt lat="62.35794" lon="17.37026">
        <ele>18.955484</ele>
        <time>2020-08-29T14:03:46.077Z</time>
      </trkpt>
      <trkpt lat="62.35751" lon="17.37047">
        <ele>18.85338</ele>
        <time>2020-08-29T14:03:53.610Z</time>
      </trkpt>
      <trkpt lat="62.35733" lon="17.37056">
        <ele>18.812437</ele>
        <time>2020-08-29T14:03:56.489Z</time>
      </trkpt>
      <trkpt lat="62.35713" lon="17.37056">
        <ele>18.766878</ele>
        <time>2020-08-29T14:03:59.737Z</time>
      </trkpt>
      <trkpt lat="62.35684" lon="17.37045">
        <ele>18.699202</ele>
        <time>2020-08-29T14:04:04.937Z</time>
      </trkpt>
      <trkpt lat="62.35658" lon="17.3702">
        <ele>18.634065</ele>
        <time>2020-08-29T14:04:10.514Z</time>
      </trkpt>
      <trkpt lat="62.35636" lon="17.36992">
        <ele>18.845798</ele>
        <time>2020-08-29T14:04:15.991Z</time>
      </trkpt>
      <trkpt lat="62.35616" lon="17.36959">
        <ele>19.187458</ele>
        <time>2020-08-29T14:04:21.942Z</time>
      </trkpt>
      <trkpt lat="62.35594" lon="17.36918">
        <ele>19.569763</ele>
        <time>2020-08-29T14:04:28.698Z</time>
      </trkpt>
      <trkpt lat="62.35572" lon="17.36867">
        <ele>20.003998</ele>
        <time>2020-08-29T14:04:36.469Z</time>
      </trkpt>
      <trkpt lat="62.35575" lon="17.36862">
        <ele>20.055024</ele>
        <time>2020-08-29T14:04:37.432Z</time>
      </trkpt>
      <trkpt lat="62.35565" lon="17.36835">
        <ele>20.274647</ele>
        <time>2020-08-29T14:04:41.316Z</time>
      </trkpt>
      <trkpt lat="62.35554" lon="17.36808">
        <ele>20.497284</ele>
        <time>2020-08-29T14:04:45.351Z</time>
      </trkpt>
      <trkpt lat="62.35543" lon="17.36781">
        <ele>20.71998</ele>
        <time>2020-08-29T14:04:49.343Z</time>
      </trkpt>
      <trkpt lat="62.35536" lon="17.36766">
        <ele>20.847195</ele>
        <time>2020-08-29T14:04:51.396Z</time>
      </trkpt>
      <trkpt lat="62.35533" lon="17.36753">
        <ele>20.939789</ele>
        <time>2020-08-29T14:04:53.230Z</time>
      </trkpt>
      <trkpt lat="62.35523" lon="17.36751">
        <ele>21.03801</ele>
        <time>2020-08-29T14:04:55.606Z</time>
      </trkpt>
      <trkpt lat="62.35443" lon="17.36679">
        <ele>21.47655</ele>
        <time>2020-08-29T14:05:14.876Z</time>
      </trkpt>
      <trkpt lat="62.35388" lon="17.36649">
        <ele>21.767163</ele>
        <time>2020-08-29T14:05:25.689Z</time>
      </trkpt>
      <trkpt lat="62.35375" lon="17.36629">
        <ele>21.848444</ele>
        <time>2020-08-29T14:05:28.336Z</time>
      </trkpt>
      <trkpt lat="62.35328" lon="17.36604">
        <ele>21.710229</ele>
        <time>2020-08-29T14:05:36.472Z</time>
      </trkpt>
      <trkpt lat="62.35289" lon="17.36597">
        <ele>21.446456</ele>
        <time>2020-08-29T14:05:42.990Z</time>
      </trkpt>
      <trkpt lat="62.35278" lon="17.36626">
        <ele>21.325152</ele>
        <time>2020-08-29T14:05:45.958Z</time>
      </trkpt>
      <trkpt lat="62.35276" lon="17.36632">
        <ele>21.305759</ele>
        <time>2020-08-29T14:05:46.452Z</time>
      </trkpt>
      <trkpt lat="62.35274" lon="17.3664">
        <ele>21.273617</ele>
        <time>2020-08-29T14:05:47.240Z</time>
      </trkpt>
      <trkpt lat="62.35263" lon="17.3665">
        <ele>21.192128</ele>
        <time>2020-08-29T14:05:49.317Z</time>
      </trkpt>
      <trkpt lat="62.35259" lon="17.36635">
        <ele>21.135677</ele>
        <time>2020-08-29T14:05:50.717Z</time>
      </trkpt>
      <trkpt lat="62.35252" lon="17.36625">
        <ele>21.081149</ele>
        <time>2020-08-29T14:05:52.005Z</time>
      </trkpt>
      <trkpt lat="62.35235" lon="17.36618">
        <ele>20.962285</ele>
        <time>2020-08-29T14:05:54.907Z</time>
      </trkpt>
      <trkpt lat="62.3522" lon="17.36613">
        <ele>20.858149</ele>
        <time>2020-08-29T14:05:57.424Z</time>
      </trkpt>
      <trkpt lat="62.35202" lon="17.36606">
        <ele>20.733976</ele>
        <time>2020-08-29T14:06:00.423Z</time>
      </trkpt>
      <trkpt lat="62.35173" lon="17.36594">
        <ele>20.356805</ele>
        <time>2020-08-29T14:06:05.264Z</time>
      </trkpt>
      <trkpt lat="62.35121" lon="17.36572">
        <ele>19.623561</ele>
        <time>2020-08-29T14:06:13.970Z</time>
      </trkpt>
      <trkpt lat="62.35091" lon="17.36562">
        <ele>19.212493</ele>
        <time>2020-08-29T14:06:18.623Z</time>
      </trkpt>
      <trkpt lat="62.3502" lon="17.3656">
        <ele>18.228218</ele>
        <time>2020-08-29T14:06:29.492Z</time>
      </trkpt>
      <trkpt lat="62.34962" lon="17.36573">
        <ele>16.461143</ele>
        <time>2020-08-29T14:06:38.002Z</time>
      </trkpt>
      <trkpt lat="62.3495" lon="17.36576">
        <ele>16.122698</ele>
        <time>2020-08-29T14:06:39.479Z</time>
      </trkpt>
      <trkpt lat="62.34891" lon="17.36592">
        <ele>14.303238</ele>
        <time>2020-08-29T14:06:47.772Z</time>
      </trkpt>
      <trkpt lat="62.34868" lon="17.36595">
        <ele>13.628782</ele>
        <time>2020-08-29T14:06:50.713Z</time>
      </trkpt>
      <trkpt lat="62.34843" lon="17.36588">
        <ele>12.862046</ele>
        <time>2020-08-29T14:06:54.078Z</time>
      </trkpt>
      <trkpt lat="62.3484" lon="17.36587">
        <ele>12.758648</ele>
        <time>2020-08-29T14:06:54.539Z</time>
      </trkpt>
      <trkpt lat="62.3482" lon="17.36581">
        <ele>12.166743</ele>
        <time>2020-08-29T14:06:57.192Z</time>
      </trkpt>
      <trkpt lat="62.34807" lon="17.36577">
        <ele>11.765127</ele>
        <time>2020-08-29T14:06:58.916Z</time>
      </trkpt>
      <trkpt lat="62.34799" lon="17.36575">
        <ele>11.498706</ele>
        <time>2020-08-29T14:07:00.107Z</time>
      </trkpt>
      <trkpt lat="62.34774" lon="17.36564">
        <ele>10.751223</ele>
        <time>2020-08-29T14:07:03.495Z</time>
      </trkpt>
      <trkpt lat="62.34753" lon="17.36547">
        <ele>10.067493</ele>
        <time>2020-08-29T14:07:06.568Z</time>
      </trkpt>
      <trkpt lat="62.3474" lon="17.36538">
        <ele>9.636053</ele>
        <time>2020-08-29T14:07:08.527Z</time>
      </trkpt>
      <trkpt lat="62.34707" lon="17.36517">
        <ele>8.614441</ele>
        <time>2020-08-29T14:07:13.156Z</time>
      </trkpt>
      <trkpt lat="62.34652" lon="17.36494">
        <ele>7.236132</ele>
        <time>2020-08-29T14:07:21.237Z</time>
      </trkpt>
      <trkpt lat="62.34646" lon="17.36493">
        <ele>7.191934</ele>
        <time>2020-08-29T14:07:22.195Z</time>
      </trkpt>
      <trkpt lat="62.34611" lon="17.36484">
        <ele>6.951523</ele>
        <time>2020-08-29T14:07:27.579Z</time>
      </trkpt>
      <trkpt lat="62.34609" lon="17.36484">
        <ele>6.940496</ele>
        <time>2020-08-29T14:07:27.848Z</time>
      </trkpt>
      <trkpt lat="62.34587" lon="17.36479">
        <ele>6.783669</ele>
        <time>2020-08-29T14:07:31.665Z</time>
      </trkpt>
      <trkpt lat="62.34542" lon="17.36469">
        <ele>6.477344</ele>
        <time>2020-08-29T14:07:39.494Z</time>
      </trkpt>
      <trkpt lat="62.34514" lon="17.36469">
        <ele>6.281677</ele>
        <time>2020-08-29T14:07:44.910Z</time>
      </trkpt>
      <trkpt lat="62.34505" lon="17.36469">
        <ele>6.221935</ele>
        <time>2020-08-29T14:07:46.613Z</time>
      </trkpt>
      <trkpt lat="62.34458" lon="17.36467">
        <ele>6.458576</ele>
        <time>2020-08-29T14:07:56.537Z</time>
      </trkpt>
      <trkpt lat="62.34448" lon="17.36466">
        <ele>6.576002</ele>
        <time>2020-08-29T14:07:58.563Z</time>
      </trkpt>
      <trkpt lat="62.34433" lon="17.36466">
        <ele>6.763884</ele>
        <time>2020-08-29T14:08:01.882Z</time>
      </trkpt>
      <trkpt lat="62.34411" lon="17.36465">
        <ele>7.04069</ele>
        <time>2020-08-29T14:08:06.967Z</time>
      </trkpt>
      <trkpt lat="62.34395" lon="17.36465">
        <ele>7.230991</ele>
        <time>2020-08-29T14:08:10.472Z</time>
      </trkpt>
      <trkpt lat="62.34368" lon="17.36465">
        <ele>7.572044</ele>
        <time>2020-08-29T14:08:16.899Z</time>
      </trkpt>
      <trkpt lat="62.34358" lon="17.36465">
        <ele>7.699321</ele>
        <time>2020-08-29T14:08:19.302Z</time>
      </trkpt>
      <trkpt lat="62.3434" lon="17.36465">
        <ele>7.913103</ele>
        <time>2020-08-29T14:08:23.316Z</time>
      </trkpt>
      <trkpt lat="62.34322" lon="17.36466">
        <ele>8.133118</ele>
        <time>2020-08-29T14:08:27.478Z</time>
      </trkpt>
      <trkpt lat="62.34314" lon="17.36465">
        <ele>8.238229</ele>
        <time>2020-08-29T14:08:29.541Z</time>
      </trkpt>
      <trkpt lat="62.34249" lon="17.36462">
        <ele>9.271818</ele>
        <time>2020-08-29T14:08:45.201Z</time>
      </trkpt>
      <trkpt lat="62.34194" lon="17.36442">
        <ele>10.190047</ele>
        <time>2020-08-29T14:08:58.737Z</time>
      </trkpt>
      <trkpt lat="62.34174" lon="17.36428">
        <ele>10.542207</ele>
        <time>2020-08-29T14:09:03.791Z</time>
      </trkpt>
      <trkpt lat="62.34159" lon="17.36418">
        <ele>10.794198</ele>
        <time>2020-08-29T14:09:07.312Z</time>
      </trkpt>
      <trkpt lat="62.34125" lon="17.36385">
        <ele>11.466165</ele>
        <time>2020-08-29T14:09:15.984Z</time>
      </trkpt>
      <trkpt lat="62.34118" lon="17.36381">
        <ele>11.619239</ele>
        <time>2020-08-29T14:09:17.590Z</time>
      </trkpt>
      <trkpt lat="62.34112" lon="17.36376">
        <ele>11.775427</ele>
        <time>2020-08-29T14:09:19.118Z</time>
      </trkpt>
      <trkpt lat="62.34063" lon="17.36337">
        <ele>12.937814</ele>
        <time>2020-08-29T14:09:31.714Z</time>
      </trkpt>
      <trkpt lat="62.34056" lon="17.36332">
        <ele>13.103821</ele>
        <time>2020-08-29T14:09:33.687Z</time>
      </trkpt>
      <trkpt lat="62.34036" lon="17.36322">
        <ele>13.559855</ele>
        <time>2020-08-29T14:09:39.209Z</time>
      </trkpt>
      <trkpt lat="62.34013" lon="17.36313">
        <ele>14.079229</ele>
        <time>2020-08-29T14:09:45.608Z</time>
      </trkpt>
      <trkpt lat="62.33992" lon="17.36303">
        <ele>14.563279</ele>
        <time>2020-08-29T14:09:51.328Z</time>
      </trkpt>
      <trkpt lat="62.33966" lon="17.36292">
        <ele>15.152544</ele>
        <time>2020-08-29T14:09:58.696Z</time>
      </trkpt>
      <trkpt lat="62.33947" lon="17.36282">
        <ele>15.636526</ele>
        <time>2020-08-29T14:10:03.921Z</time>
      </trkpt>
      <trkpt lat="62.33939" lon="17.36278">
        <ele>15.854372</ele>
        <time>2020-08-29T14:10:06.507Z</time>
      </trkpt>
      <trkpt lat="62.33929" lon="17.36273">
        <ele>16.118143</ele>
        <time>2020-08-29T14:10:09.211Z</time>
      </trkpt>
      <trkpt lat="62.33914" lon="17.36268">
        <ele>16.510004</ele>
        <time>2020-08-29T14:10:13.229Z</time>
      </trkpt>
      <trkpt lat="62.33901" lon="17.36262">
        <ele>16.833831</ele>
        <time>2020-08-29T14:10:16.942Z</time>
      </trkpt>
      <trkpt lat="62.3386" lon="17.36244">
        <ele>17.911702</ele>
        <time>2020-08-29T14:10:28.341Z</time>
      </trkpt>
      <trkpt lat="62.33834" lon="17.36235">
        <ele>18.573938</ele>
        <time>2020-08-29T14:10:35.422Z</time>
      </trkpt>
      <trkpt lat="62.33822" lon="17.36239">
        <ele>18.902031</ele>
        <time>2020-08-29T14:10:38.882Z</time>
      </trkpt>
      <trkpt lat="62.33768" lon="17.36219">
        <ele>19.937586</ele>
        <time>2020-08-29T14:10:53.409Z</time>
      </trkpt>
      <trkpt lat="62.33723" lon="17.36189">
        <ele>20.018726</ele>
        <time>2020-08-29T14:11:04.076Z</time>
      </trkpt>
      <trkpt lat="62.33714" lon="17.36174">
        <ele>20.039749</ele>
        <time>2020-08-29T14:11:06.746Z</time>
      </trkpt>
      <trkpt lat="62.33692" lon="17.36105">
        <ele>20.106978</ele>
        <time>2020-08-29T14:11:14.252Z</time>
      </trkpt>
      <trkpt lat="62.33675" lon="17.36078">
        <ele>20.142905</ele>
        <time>2020-08-29T14:11:17.499Z</time>
      </trkpt>
      <trkpt lat="62.33653" lon="17.3606">
        <ele>20.184042</ele>
        <time>2020-08-29T14:11:21.306Z</time>
      </trkpt>
      <trkpt lat="62.33645" lon="17.36063">
        <ele>20.198314</ele>
        <time>2020-08-29T14:11:22.489Z</time>
      </trkpt>
      <trkpt lat="62.33604" lon="17.36076">
        <ele>19.450924</ele>
        <time>2020-08-29T14:11:28.699Z</time>
      </trkpt>
      <trkpt lat="62.3356" lon="17.36096">
        <ele>18.173039</ele>
        <time>2020-08-29T14:11:35.153Z</time>
      </trkpt>
      <trkpt lat="62.33528" lon="17.36107">
        <ele>17.251164</ele>
        <time>2020-08-29T14:11:39.617Z</time>
      </trkpt>
      <trkpt lat="62.33444" lon="17.36148">
        <ele>14.829096</ele>
        <time>2020-08-29T14:11:51.134Z</time>
      </trkpt>
      <trkpt lat="62.33396" lon="17.36272">
        <ele>13.037189</ele>
        <time>2020-08-29T14:12:01.348Z</time>
      </trkpt>
      <trkpt lat="62.33381" lon="17.36311">
        <ele>12.47731</ele>
        <time>2020-08-29T14:12:04.738Z</time>
      </trkpt>
      <trkpt lat="62.33374" lon="17.36329">
        <ele>12.220037</ele>
        <time>2020-08-29T14:12:06.320Z</time>
      </trkpt>
      <trkpt lat="62.33354" lon="17.36364">
        <ele>11.599222</ele>
        <time>2020-08-29T14:12:10.385Z</time>
      </trkpt>
      <trkpt lat="62.33346" lon="17.36372">
        <ele>11.378205</ele>
        <time>2020-08-29T14:12:11.788Z</time>
      </trkpt>
      <trkpt lat="62.33341" lon="17.36376">
        <ele>11.264859</ele>
        <time>2020-08-29T14:12:12.579Z</time>
      </trkpt>
      <trkpt lat="62.33325" lon="17.36383">
        <ele>10.857204</ele>
        <time>2020-08-29T14:12:15.400Z</time>
      </trkpt>
      <trkpt lat="62.3329" lon="17.3639">
        <ele>10.816755</ele>
        <time>2020-08-29T14:12:21.180Z</time>
      </trkpt>
      <trkpt lat="62.33245" lon="17.36376">
        <ele>10.875372</ele>
        <time>2020-08-29T14:12:29.245Z</time>
      </trkpt>
      <trkpt lat="62.33237" lon="17.36374">
        <ele>10.885245</ele>
        <time>2020-08-29T14:12:30.704Z</time>
      </trkpt>
      <trkpt lat="62.33221" lon="17.36377">
        <ele>10.905526</ele>
        <time>2020-08-29T14:12:34.318Z</time>
      </trkpt>
      <trkpt lat="62.33164" lon="17.36359">
        <ele>10.978692</ele>
        <time>2020-08-29T14:12:46.429Z</time>
      </trkpt>
      <trkpt lat="62.33155" lon="17.36359">
        <ele>10.989741</ele>
        <time>2020-08-29T14:12:48.409Z</time>
      </trkpt>
      <trkpt lat="62.33147" lon="17.36374">
        <ele>11.003749</ele>
        <time>2020-08-29T14:12:50.772Z</time>
      </trkpt>
      <trkpt lat="62.3305" lon="17.36623">
        <ele>11.413938</ele>
        <time>2020-08-29T14:13:21.075Z</time>
      </trkpt>
      <trkpt lat="62.32989" lon="17.36758">
        <ele>10.692552</ele>
        <time>2020-08-29T14:13:35.854Z</time>
      </trkpt>
      <trkpt lat="62.32968" lon="17.3682">
        <ele>10.183156</ele>
        <time>2020-08-29T14:13:41.494Z</time>
      </trkpt>
      <trkpt lat="62.32886" lon="17.36952">
        <ele>8.628571</ele>
        <time>2020-08-29T14:13:56.609Z</time>
      </trkpt>
      <trkpt lat="62.3285" lon="17.37058">
        <ele>7.334109</ele>
        <time>2020-08-29T14:14:05.332Z</time>
      </trkpt>
      <trkpt lat="62.32828" lon="17.371">
        <ele>6.721231</ele>
        <time>2020-08-29T14:14:09.472Z</time>
      </trkpt>
      <trkpt lat="62.32799" lon="17.37129">
        <ele>6.03576</ele>
        <time>2020-08-29T14:14:14.138Z</time>
      </trkpt>
      <trkpt lat="62.32715" lon="17.37169">
        <ele>5.09509</ele>
        <time>2020-08-29T14:14:27.472Z</time>
      </trkpt>
      <trkpt lat="62.32689" lon="17.37165">
        <ele>5.065697</ele>
        <time>2020-08-29T14:14:31.995Z</time>
      </trkpt>
      <trkpt lat="62.32664" lon="17.37148">
        <ele>5.035129</ele>
        <time>2020-08-29T14:14:36.759Z</time>
      </trkpt>
      <trkpt lat="62.32637" lon="17.37124">
        <ele>5.002304</ele>
        <time>2020-08-29T14:14:42.243Z</time>
      </trkpt>
      <trkpt lat="62.32624" lon="17.37109">
        <ele>4.985</ele>
        <time>2020-08-29T14:14:45.678Z</time>
      </trkpt>
      <trkpt lat="62.32546" lon="17.37015">
        <ele>5.300602</ele>
        <time>2020-08-29T14:15:05.018Z</time>
      </trkpt>
      <trkpt lat="62.32494" lon="17.36967">
        <ele>5.723498</ele>
        <time>2020-08-29T14:15:17.766Z</time>
      </trkpt>
      <trkpt lat="62.32458" lon="17.36954">
        <ele>5.992709</ele>
        <time>2020-08-29T14:15:25.063Z</time>
      </trkpt>
      <trkpt lat="62.32451" lon="17.36956">
        <ele>6.047217</ele>
        <time>2020-08-29T14:15:27.018Z</time>
      </trkpt>
      <trkpt lat="62.32443" lon="17.36963">
        <ele>6.111442</ele>
        <time>2020-08-29T14:15:28.279Z</time>
      </trkpt>
      <trkpt lat="62.3242" lon="17.37005">
        <ele>6.296628</ele>
        <time>2020-08-29T14:15:34.255Z</time>
      </trkpt>
      <trkpt lat="62.32403" lon="17.37066">
        <ele>6.397392</ele>
        <time>2020-08-29T14:15:40.451Z</time>
      </trkpt>
      <trkpt lat="62.32373" lon="17.37101">
        <ele>6.503007</ele>
        <time>2020-08-29T14:15:46.992Z</time>
      </trkpt>
      <trkpt lat="62.32354" lon="17.37104">
        <ele>6.56088</ele>
        <time>2020-08-29T14:15:50.317Z</time>
      </trkpt>
      <trkpt lat="62.32296" lon="17.37064">
        <ele>6.749588</ele>
        <time>2020-08-29T14:16:02.317Z</time>
      </trkpt>
      <trkpt lat="62.32268" lon="17.37041">
        <ele>6.893608</ele>
        <time>2020-08-29T14:16:08.174Z</time>
      </trkpt>
      <trkpt lat="62.32261" lon="17.37037">
        <ele>6.98243</ele>
        <time>2020-08-29T14:16:10.012Z</time>
      </trkpt>
      <trkpt lat="62.32221" lon="17.37037">
        <ele>7.481227</ele>
        <time>2020-08-29T14:16:18.739Z</time>
      </trkpt>
      <trkpt lat="62.32182" lon="17.36989">
        <ele>8.049684</ele>
        <time>2020-08-29T14:16:29.277Z</time>
      </trkpt>
      <trkpt lat="62.32161" lon="17.36977">
        <ele>8.323343</ele>
        <time>2020-08-29T14:16:34.660Z</time>
      </trkpt>
      <trkpt lat="62.32077" lon="17.36957">
        <ele>9.038136</ele>
        <time>2020-08-29T14:16:54.613Z</time>
      </trkpt>
      <trkpt lat="62.32056" lon="17.36964">
        <ele>9.004316</ele>
        <time>2020-08-29T14:16:58.847Z</time>
      </trkpt>
      <trkpt lat="62.32046" lon="17.36966">
        <ele>8.988992</ele>
        <time>2020-08-29T14:17:00.878Z</time>
      </trkpt>
      <trkpt lat="62.32034" lon="17.36965">
        <ele>8.969461</ele>
        <time>2020-08-29T14:17:03.211Z</time>
      </trkpt>
      <trkpt lat="62.3196" lon="17.3695">
        <ele>8.851547</ele>
        <time>2020-08-29T14:17:15.749Z</time>
      </trkpt>
      <trkpt lat="62.31946" lon="17.36947">
        <ele>8.829286</ele>
        <time>2020-08-29T14:17:17.846Z</time>
      </trkpt>
      <trkpt lat="62.31933" lon="17.36948">
        <ele>8.808833</ele>
        <time>2020-08-29T14:17:20.267Z</time>
      </trkpt>
      <trkpt lat="62.31906" lon="17.36983">
        <ele>8.55335</ele>
        <time>2020-08-29T14:17:25.338Z</time>
      </trkpt>
      <trkpt lat="62.31891" lon="17.37005">
        <ele>8.349237</ele>
        <time>2020-08-29T14:17:28.089Z</time>
      </trkpt>
      <trkpt lat="62.31881" lon="17.3702">
        <ele>8.216443</ele>
        <time>2020-08-29T14:17:29.815Z</time>
      </trkpt>
      <trkpt lat="62.3186" lon="17.37051">
        <ele>7.922462</ele>
        <time>2020-08-29T14:17:33.760Z</time>
      </trkpt>
      <trkpt lat="62.318" lon="17.37155">
        <ele>7.039217</ele>
        <time>2020-08-29T14:17:45.800Z</time>
      </trkpt>
      <trkpt lat="62.31791" lon="17.3718">
        <ele>6.876236</ele>
        <time>2020-08-29T14:17:48.285Z</time>
      </trkpt>
      <trkpt lat="62.31784" lon="17.37196">
        <ele>6.760965</ele>
        <time>2020-08-29T14:17:49.758Z</time>
      </trkpt>
      <trkpt lat="62.31771" lon="17.3722">
        <ele>6.79802</ele>
        <time>2020-08-29T14:17:52.659Z</time>
      </trkpt>
      <trkpt lat="62.31754" lon="17.37255">
        <ele>6.882491</ele>
        <time>2020-08-29T14:17:56.830Z</time>
      </trkpt>
      <trkpt lat="62.31743" lon="17.37264">
        <ele>6.927521</ele>
        <time>2020-08-29T14:17:59.357Z</time>
      </trkpt>
      <trkpt lat="62.31692" lon="17.37283">
        <ele>7.114426</ele>
        <time>2020-08-29T14:18:09.141Z</time>
      </trkpt>
      <trkpt lat="62.3167" lon="17.37278">
        <ele>7.19487</ele>
        <time>2020-08-29T14:18:13.578Z</time>
      </trkpt>
      <trkpt lat="62.31485" lon="17.37109">
        <ele>8.946983</ele>
        <time>2020-08-29T14:18:56.184Z</time>
      </trkpt>
      <trkpt lat="62.31459" lon="17.37103">
        <ele>9.221925</ele>
        <time>2020-08-29T14:19:01.641Z</time>
      </trkpt>
      <trkpt lat="62.31451" lon="17.37105">
        <ele>9.305067</ele>
        <time>2020-08-29T14:19:03.488Z</time>
      </trkpt>
      <trkpt lat="62.31409" lon="17.3711">
        <ele>9.510766</ele>
        <time>2020-08-29T14:19:12.627Z</time>
      </trkpt>
      <trkpt lat="62.31375" lon="17.37115">
        <ele>9.675893</ele>
        <time>2020-08-29T14:19:20.005Z</time>
      </trkpt>
      <trkpt lat="62.31327" lon="17.37139">
        <ele>9.914088</ele>
        <time>2020-08-29T14:19:29.497Z</time>
      </trkpt>
      <trkpt lat="62.3127" lon="17.3723">
        <ele>9.865154</ele>
        <time>2020-08-29T14:19:41.939Z</time>
      </trkpt>
      <trkpt lat="62.31244" lon="17.37244">
        <ele>9.392531</ele>
        <time>2020-08-29T14:19:46.065Z</time>
      </trkpt>
      <trkpt lat="62.31229" lon="17.37263">
        <ele>9.080154</ele>
        <time>2020-08-29T14:19:48.561Z</time>
      </trkpt>
      <trkpt lat="62.31172" lon="17.37355">
        <ele>7.826408</ele>
        <time>2020-08-29T14:19:58.398Z</time>
      </trkpt>
      <trkpt lat="62.31131" lon="17.37424">
        <ele>6.886083</ele>
        <time>2020-08-29T14:20:05.442Z</time>
      </trkpt>
      <trkpt lat="62.31129" lon="17.37441">
        <ele>6.712342</ele>
        <time>2020-08-29T14:20:06.613Z</time>
      </trkpt>
      <trkpt lat="62.31122" lon="17.37462">
        <ele>6.456062</ele>
        <time>2020-08-29T14:20:08.345Z</time>
      </trkpt>
      <trkpt lat="62.31118" lon="17.3747">
        <ele>6.344796</ele>
        <time>2020-08-29T14:20:09.074Z</time>
      </trkpt>
      <trkpt lat="62.3111" lon="17.37483">
        <ele>6.135987</ele>
        <time>2020-08-29T14:20:10.400Z</time>
      </trkpt>
      <trkpt lat="62.3106" lon="17.37565">
        <ele>4.786097</ele>
        <time>2020-08-29T14:20:19.646Z</time>
      </trkpt>
      <trkpt lat="62.31029" lon="17.37551">
        <ele>4.109142</ele>
        <time>2020-08-29T14:20:24.267Z</time>
      </trkpt>
      <trkpt lat="62.31013" lon="17.37539">
        <ele>3.755036</ele>
        <time>2020-08-29T14:20:26.636Z</time>
      </trkpt>
      <trkpt lat="62.30937" lon="17.37574">
        <ele>2.979968</ele>
        <time>2020-08-29T14:20:38.448Z</time>
      </trkpt>
      <trkpt lat="62.30919" lon="17.37588">
        <ele>2.91319</ele>
        <time>2020-08-29T14:20:41.644Z</time>
      </trkpt>
      <trkpt lat="62.30895" lon="17.37605">
        <ele>2.824329</ele>
        <time>2020-08-29T14:20:45.841Z</time>
      </trkpt>
      <trkpt lat="62.30834" lon="17.37621">
        <ele>2.610556</ele>
        <time>2020-08-29T14:20:57.057Z</time>
      </trkpt>
      <trkpt lat="62.30821" lon="17.37619">
        <ele>2.566491</ele>
        <time>2020-08-29T14:20:59.339Z</time>
      </trkpt>
      <trkpt lat="62.30809" lon="17.37621">
        <ele>2.532492</ele>
        <time>2020-08-29T14:21:02.064Z</time>
      </trkpt>
      <trkpt lat="62.30788" lon="17.37617">
        <ele>2.828922</ele>
        <time>2020-08-29T14:21:06.131Z</time>
      </trkpt>
      <trkpt lat="62.30773" lon="17.37614">
        <ele>3.054551</ele>
        <time>2020-08-29T14:21:09.719Z</time>
      </trkpt>
      <trkpt lat="62.30758" lon="17.37607">
        <ele>3.27268</ele>
        <time>2020-08-29T14:21:12.870Z</time>
      </trkpt>
      <trkpt lat="62.30728" lon="17.37561">
        <ele>3.796919</ele>
        <time>2020-08-29T14:21:21.262Z</time>
      </trkpt>
      <trkpt lat="62.30709" lon="17.37555">
        <ele>4.073536</ele>
        <time>2020-08-29T14:21:26.008Z</time>
      </trkpt>
      <trkpt lat="62.30647" lon="17.37564">
        <ele>4.960709</ele>
        <time>2020-08-29T14:21:41.347Z</time>
      </trkpt>
      <trkpt lat="62.30546" lon="17.37547">
        <ele>6.033547</ele>
        <time>2020-08-29T14:22:06.591Z</time>
      </trkpt>
      <trkpt lat="62.30455" lon="17.3759">
        <ele>6.869206</ele>
        <time>2020-08-29T14:22:25.035Z</time>
      </trkpt>
      <trkpt lat="62.30437" lon="17.376">
        <ele>6.606773</ele>
        <time>2020-08-29T14:22:28.390Z</time>
      </trkpt>
      <trkpt lat="62.30406" lon="17.37642">
        <ele>6.089172</ele>
        <time>2020-08-29T14:22:35.866Z</time>
      </trkpt>
      <trkpt lat="62.3032" lon="17.37779">
        <ele>4.574497</ele>
        <time>2020-08-29T14:22:56.818Z</time>
      </trkpt>
      <trkpt lat="62.30312" lon="17.37798">
        <ele>4.402971</ele>
        <time>2020-08-29T14:22:58.942Z</time>
      </trkpt>
      <trkpt lat="62.30316" lon="17.37812">
        <ele>4.286404</ele>
        <time>2020-08-29T14:23:00.092Z</time>
      </trkpt>
      <trkpt lat="62.30311" lon="17.37845">
        <ele>4.043064</ele>
        <time>2020-08-29T14:23:02.293Z</time>
      </trkpt>
      <trkpt lat="62.30276" lon="17.37868">
        <ele>3.504191</ele>
        <time>2020-08-29T14:23:07.430Z</time>
      </trkpt>
      <trkpt lat="62.30259" lon="17.37866">
        <ele>3.239153</ele>
        <time>2020-08-29T14:23:09.947Z</time>
      </trkpt>
      <trkpt lat="62.30251" lon="17.37867">
        <ele>3.129007</ele>
        <time>2020-08-29T14:23:11.174Z</time>
      </trkpt>
      <trkpt lat="62.30251" lon="17.37877">
        <ele>3.053094</ele>
        <time>2020-08-29T14:23:11.860Z</time>
      </trkpt>
      <trkpt lat="62.30241" lon="17.37954">
        <ele>2.502276</ele>
        <time>2020-08-29T14:23:17.369Z</time>
      </trkpt>
      <trkpt lat="62.30227" lon="17.38003">
        <ele>2.106042</ele>
        <time>2020-08-29T14:23:21.463Z</time>
      </trkpt>
      <trkpt lat="62.30207" lon="17.38052">
        <ele>1.727317</ele>
        <time>2020-08-29T14:23:26.341Z</time>
      </trkpt>
      <trkpt lat="62.30193" lon="17.38076">
        <ele>1.796474</ele>
        <time>2020-08-29T14:23:29.277Z</time>
      </trkpt>
      <trkpt lat="62.30175" lon="17.38111">
        <ele>1.886701</ele>
        <time>2020-08-29T14:23:33.400Z</time>
      </trkpt>
      <trkpt lat="62.3016" lon="17.38157">
        <ele>1.984957</ele>
        <time>2020-08-29T14:23:37.524Z</time>
      </trkpt>
      <trkpt lat="62.30155" lon="17.38183">
        <ele>2.034555</ele>
        <time>2020-08-29T14:23:39.756Z</time>
      </trkpt>
      <trkpt lat="62.30152" lon="17.38218">
        <ele>2.097383</ele>
        <time>2020-08-29T14:23:42.621Z</time>
      </trkpt>
      <trkpt lat="62.30149" lon="17.38266">
        <ele>2.183502</ele>
        <time>2020-08-29T14:23:47.252Z</time>
      </trkpt>
      <trkpt lat="62.30133" lon="17.38504">
        <ele>3.566368</ele>
        <time>2020-08-29T14:24:13.794Z</time>
      </trkpt>
      <trkpt lat="62.30131" lon="17.38517">
        <ele>3.699903</ele>
        <time>2020-08-29T14:24:15.185Z</time>
      </trkpt>
      <trkpt lat="62.30134" lon="17.38548">
        <ele>3.999279</ele>
        <time>2020-08-29T14:24:19.171Z</time>
      </trkpt>
      <trkpt lat="62.30128" lon="17.38561">
        <ele>4.168019</ele>
        <time>2020-08-29T14:24:21.042Z</time>
      </trkpt>
      <trkpt lat="62.30125" lon="17.38569">
        <ele>4.272871</ele>
        <time>2020-08-29T14:24:22.616Z</time>
      </trkpt>
      <trkpt lat="62.30102" lon="17.3864">
        <ele>5.118131</ele>
        <time>2020-08-29T14:24:33.080Z</time>
      </trkpt>
      <trkpt lat="62.3008" lon="17.38719">
        <ele>6.012209</ele>
        <time>2020-08-29T14:24:44.081Z</time>
      </trkpt>
      <trkpt lat="62.30074" lon="17.38739">
        <ele>6.18571</ele>
        <time>2020-08-29T14:24:47.198Z</time>
      </trkpt>
      <trkpt lat="62.30072" lon="17.38748">
        <ele>6.221048</ele>
        <time>2020-08-29T14:24:48.333Z</time>
      </trkpt>
      <trkpt lat="62.30045" lon="17.38858">
        <ele>6.658574</ele>
        <time>2020-08-29T14:25:02.257Z</time>
      </trkpt>
      <trkpt lat="62.30038" lon="17.38932">
        <ele>6.925811</ele>
        <time>2020-08-29T14:25:09.605Z</time>
      </trkpt>
      <trkpt lat="62.30035" lon="17.38957">
        <ele>7.017027</ele>
        <time>2020-08-29T14:25:12.202Z</time>
      </trkpt>
      <trkpt lat="62.3003" lon="17.38982">
        <ele>7.11482</ele>
        <time>2020-08-29T14:25:14.521Z</time>
      </trkpt>
      <trkpt lat="62.30025" lon="17.39">
        <ele>7.187266</ele>
        <time>2020-08-29T14:25:16.105Z</time>
      </trkpt>
      <trkpt lat="62.30014" lon="17.39026">
        <ele>7.313479</ele>
        <time>2020-08-29T14:25:19.471Z</time>
      </trkpt>
      <trkpt lat="62.30006" lon="17.39039">
        <ele>7.389422</ele>
        <time>2020-08-29T14:25:21.168Z</time>
      </trkpt>
      <trkpt lat="62.29996" lon="17.39054">
        <ele>7.479752</ele>
        <time>2020-08-29T14:25:23.101Z</time>
      </trkpt>
      <trkpt lat="62.29922" lon="17.39123">
        <ele>7.327187</ele>
        <time>2020-08-29T14:25:36.467Z</time>
      </trkpt>
      <trkpt lat="62.29891" lon="17.39165">
        <ele>7.23153</ele>
        <time>2020-08-29T14:25:42.731Z</time>
      </trkpt>
      <trkpt lat="62.29866" lon="17.39184">
        <ele>7.165076</ele>
        <time>2020-08-29T14:25:47.085Z</time>
      </trkpt>
      <trkpt lat="62.29853" lon="17.39186">
        <ele>7.130429</ele>
        <time>2020-08-29T14:25:49.705Z</time>
      </trkpt>
      <trkpt lat="62.2981" lon="17.39178">
        <ele>7.348848</ele>
        <time>2020-08-29T14:25:58.606Z</time>
      </trkpt>
      <trkpt lat="62.29781" lon="17.3917">
        <ele>7.93343</ele>
        <time>2020-08-29T14:26:04.827Z</time>
      </trkpt>
      <trkpt lat="62.2976" lon="17.39167">
        <ele>8.370289</ele>
        <time>2020-08-29T14:26:09.769Z</time>
      </trkpt>
      <trkpt lat="62.29743" lon="17.39165">
        <ele>8.704507</ele>
        <time>2020-08-29T14:26:14.013Z</time>
      </trkpt>
      <trkpt lat="62.29722" lon="17.3916">
        <ele>9.131396</ele>
        <time>2020-08-29T14:26:19.937Z</time>
      </trkpt>
      <trkpt lat="62.29714" lon="17.39156">
        <ele>9.297183</ele>
        <time>2020-08-29T14:26:21.910Z</time>
      </trkpt>
      <trkpt lat="62.29707" lon="17.39152">
        <ele>9.439684</ele>
        <time>2020-08-29T14:26:24.136Z</time>
      </trkpt>
      <trkpt lat="62.29684" lon="17.39146">
        <ele>9.907487</ele>
        <time>2020-08-29T14:26:30.563Z</time>
      </trkpt>
      <trkpt lat="62.29676" lon="17.39146">
        <ele>10.076536</ele>
        <time>2020-08-29T14:26:32.746Z</time>
      </trkpt>
      <trkpt lat="62.29664" lon="17.39134">
        <ele>10.328102</ele>
        <time>2020-08-29T14:26:37.341Z</time>
      </trkpt>
      <trkpt lat="62.29608" lon="17.39093">
        <ele>11.149359</ele>
        <time>2020-08-29T14:26:52.607Z</time>
      </trkpt>
      <trkpt lat="62.29597" lon="17.3908">
        <ele>11.288514</ele>
        <time>2020-08-29T14:26:56.346Z</time>
      </trkpt>
      <trkpt lat="62.29594" lon="17.39073">
        <ele>11.342929</ele>
        <time>2020-08-29T14:26:57.667Z</time>
      </trkpt>
      <trkpt lat="62.29545" lon="17.39013">
        <ele>11.980463</ele>
        <time>2020-08-29T14:27:10.290Z</time>
      </trkpt>
      <trkpt lat="62.29541" lon="17.39008">
        <ele>12.034717</ele>
        <time>2020-08-29T14:27:11.980Z</time>
      </trkpt>
      <trkpt lat="62.29525" lon="17.38988">
        <ele>12.238547</ele>
        <time>2020-08-29T14:27:15.561Z</time>
      </trkpt>
      <trkpt lat="62.29518" lon="17.38977">
        <ele>12.339919</ele>
        <time>2020-08-29T14:27:17.089Z</time>
      </trkpt>
      <trkpt lat="62.29512" lon="17.38964">
        <ele>12.435656</ele>
        <time>2020-08-29T14:27:19.091Z</time>
      </trkpt>
      <trkpt lat="62.29507" lon="17.38964">
        <ele>12.485535</ele>
        <time>2020-08-29T14:27:19.736Z</time>
      </trkpt>
      <trkpt lat="62.2942" lon="17.3876">
        <ele>11.091613</ele>
        <time>2020-08-29T14:27:39.335Z</time>
      </trkpt>
      <trkpt lat="62.29392" lon="17.38729">
        <ele>10.628938</ele>
        <time>2020-08-29T14:27:43.900Z</time>
      </trkpt>
      <trkpt lat="62.29377" lon="17.38717">
        <ele>10.384673</ele>
        <time>2020-08-29T14:27:46.281Z</time>
      </trkpt>
      <trkpt lat="62.29337" lon="17.38698">
        <ele>10.022754</ele>
        <time>2020-08-29T14:27:52.754Z</time>
      </trkpt>
      <trkpt lat="62.29312" lon="17.38689">
        <ele>9.984128</ele>
        <time>2020-08-29T14:27:56.960Z</time>
      </trkpt>
      <trkpt lat="62.29303" lon="17.38684">
        <ele>9.970154</ele>
        <time>2020-08-29T14:27:58.414Z</time>
      </trkpt>
      <trkpt lat="62.29286" lon="17.38677">
        <ele>9.943091</ele>
        <time>2020-08-29T14:28:01.617Z</time>
      </trkpt>
      <trkpt lat="62.2928" lon="17.38675">
        <ele>9.933915</ele>
        <time>2020-08-29T14:28:02.634Z</time>
      </trkpt>
      <trkpt lat="62.29186" lon="17.38655">
        <ele>9.789173</ele>
        <time>2020-08-29T14:28:21.143Z</time>
      </trkpt>
      <trkpt lat="62.29176" lon="17.38656">
        <ele>9.780053</ele>
        <time>2020-08-29T14:28:23.240Z</time>
      </trkpt>
      <trkpt lat="62.29166" lon="17.38655">
        <ele>9.861061</ele>
        <time>2020-08-29T14:28:25.594Z</time>
      </trkpt>
      <trkpt lat="62.29144" lon="17.38663">
        <ele>10.026877</ele>
        <time>2020-08-29T14:28:29.997Z</time>
      </trkpt>
      <trkpt lat="62.29129" lon="17.38675">
        <ele>10.154049</ele>
        <time>2020-08-29T14:28:33.660Z</time>
      </trkpt>
      <trkpt lat="62.291" lon="17.38708">
        <ele>10.406934</ele>
        <time>2020-08-29T14:28:40.525Z</time>
      </trkpt>
      <trkpt lat="62.29069" lon="17.38744">
        <ele>10.677459</ele>
        <time>2020-08-29T14:28:47.897Z</time>
      </trkpt>
      <trkpt lat="62.29029" lon="17.3878">
        <ele>11.011164</ele>
        <time>2020-08-29T14:28:57.077Z</time>
      </trkpt>
      <trkpt lat="62.28955" lon="17.38945">
        <ele>11.952783</ele>
        <time>2020-08-29T14:29:19.938Z</time>
      </trkpt>
      <trkpt lat="62.28925" lon="17.3909">
        <ele>12.626847</ele>
        <time>2020-08-29T14:29:36.047Z</time>
      </trkpt>
      <trkpt lat="62.28913" lon="17.39111">
        <ele>12.771221</ele>
        <time>2020-08-29T14:29:39.372Z</time>
      </trkpt>
      <trkpt lat="62.28901" lon="17.39143">
        <ele>12.866168</ele>
        <time>2020-08-29T14:29:43.528Z</time>
      </trkpt>
      <trkpt lat="62.28892" lon="17.39178">
        <ele>12.944201</ele>
        <time>2020-08-29T14:29:47.280Z</time>
      </trkpt>
      <trkpt lat="62.28879" lon="17.39218">
        <ele>13.038114</ele>
        <time>2020-08-29T14:29:51.908Z</time>
      </trkpt>
      <trkpt lat="62.28833" lon="17.39276">
        <ele>13.257657</ele>
        <time>2020-08-29T14:30:02.406Z</time>
      </trkpt>
      <trkpt lat="62.28534" lon="17.39511">
        <ele>13.078039</ele>
        <time>2020-08-29T14:30:58.474Z</time>
      </trkpt>
      <trkpt lat="62.28498" lon="17.3953">
        <ele>12.883767</ele>
        <time>2020-08-29T14:31:04.466Z</time>
      </trkpt>
      <trkpt lat="62.28451" lon="17.39535">
        <ele>12.636276</ele>
        <time>2020-08-29T14:31:11.975Z</time>
      </trkpt>
      <trkpt lat="62.28298" lon="17.39497">
        <ele>11.293132</ele>
        <time>2020-08-29T14:31:35.645Z</time>
      </trkpt>
      <trkpt lat="62.28237" lon="17.3948">
        <ele>10.741812</ele>
        <time>2020-08-29T14:31:45.350Z</time>
      </trkpt>
      <trkpt lat="62.28213" lon="17.39474">
        <ele>10.611219</ele>
        <time>2020-08-29T14:31:49.224Z</time>
      </trkpt>
      <trkpt lat="62.2814" lon="17.39461">
        <ele>10.220611</ele>
        <time>2020-08-29T14:32:01.087Z</time>
      </trkpt>
      <trkpt lat="62.28056" lon="17.39466">
        <ele>9.811342</ele>
        <time>2020-08-29T14:32:15.288Z</time>
      </trkpt>
      <trkpt lat="62.27938" lon="17.3948">
        <ele>9.657966</ele>
        <time>2020-08-29T14:32:35.663Z</time>
      </trkpt>
      <trkpt lat="62.27883" lon="17.39491">
        <ele>9.607729</ele>
        <time>2020-08-29T14:32:45.231Z</time>
      </trkpt>
      <trkpt lat="62.27857" lon="17.39496">
        <ele>9.735983</ele>
        <time>2020-08-29T14:32:50.001Z</time>
      </trkpt>
      <trkpt lat="62.27746" lon="17.39523">
        <ele>10.27413</ele>
        <time>2020-08-29T14:33:12.728Z</time>
      </trkpt>
      <trkpt lat="62.2766" lon="17.39565">
        <ele>10.444301</ele>
        <time>2020-08-29T14:33:29.491Z</time>
      </trkpt>
      <trkpt lat="62.27646" lon="17.39573">
        <ele>10.439471</ele>
        <time>2020-08-29T14:33:32.636Z</time>
      </trkpt>
      <trkpt lat="62.27629" lon="17.39575">
        <ele>10.434012</ele>
        <time>2020-08-29T14:33:35.200Z</time>
      </trkpt>
      <trkpt lat="62.27617" lon="17.39577">
        <ele>10.42986</ele>
        <time>2020-08-29T14:33:37.594Z</time>
      </trkpt>
      <trkpt lat="62.27609" lon="17.39572">
        <ele>10.427015</ele>
        <time>2020-08-29T14:33:39.477Z</time>
      </trkpt>
      <trkpt lat="62.27592" lon="17.39553">
        <ele>10.420766</ele>
        <time>2020-08-29T14:33:42.406Z</time>
      </trkpt>
      <trkpt lat="62.27579" lon="17.39535">
        <ele>10.415605</ele>
        <time>2020-08-29T14:33:45.616Z</time>
      </trkpt>
      <trkpt lat="62.27566" lon="17.39517">
        <ele>10.410318</ele>
        <time>2020-08-29T14:33:47.996Z</time>
      </trkpt>
      <trkpt lat="62.27525" lon="17.39468">
        <ele>10.255875</ele>
        <time>2020-08-29T14:33:55.827Z</time>
      </trkpt>
      <trkpt lat="62.27493" lon="17.39449">
        <ele>10.002583</ele>
        <time>2020-08-29T14:34:01.024Z</time>
      </trkpt>
      <trkpt lat="62.27454" lon="17.39469">
        <ele>9.7037</ele>
        <time>2020-08-29T14:34:06.889Z</time>
      </trkpt>
      <trkpt lat="62.27358" lon="17.39592">
        <ele>8.991796</ele>
        <time>2020-08-29T14:34:25.026Z</time>
      </trkpt>
      <trkpt lat="62.2732" lon="17.39602">
        <ele>8.929142</ele>
        <time>2020-08-29T14:34:31.512Z</time>
      </trkpt>
      <trkpt lat="62.2728" lon="17.39581">
        <ele>8.861846</ele>
        <time>2020-08-29T14:34:38.631Z</time>
      </trkpt>
      <trkpt lat="62.27275" lon="17.39575">
        <ele>8.851564</ele>
        <time>2020-08-29T14:34:39.548Z</time>
      </trkpt>
      <trkpt lat="62.27241" lon="17.39622">
        <ele>8.784439</ele>
        <time>2020-08-29T14:34:47.152Z</time>
      </trkpt>
      <trkpt lat="62.27228" lon="17.39625">
        <ele>8.763597</ele>
        <time>2020-08-29T14:34:49.667Z</time>
      </trkpt>
      <trkpt lat="62.27188" lon="17.39669">
        <ele>8.825048</ele>
        <time>2020-08-29T14:34:58.317Z</time>
      </trkpt>
      <trkpt lat="62.27166" lon="17.39681">
        <ele>8.901134</ele>
        <time>2020-08-29T14:35:02.596Z</time>
      </trkpt>
      <trkpt lat="62.27106" lon="17.39694">
        <ele>9.102101</ele>
        <time>2020-08-29T14:35:14.400Z</time>
      </trkpt>
      <trkpt lat="62.27045" lon="17.39724">
        <ele>9.313966</ele>
        <time>2020-08-29T14:35:27.182Z</time>
      </trkpt>
      <trkpt lat="62.27021" lon="17.39746">
        <ele>9.461898</ele>
        <time>2020-08-29T14:35:32.434Z</time>
      </trkpt>
      <trkpt lat="62.26987" lon="17.3978">
        <ele>9.70484</ele>
        <time>2020-08-29T14:35:41.830Z</time>
      </trkpt>
      <trkpt lat="62.26813" lon="17.39955">
        <ele>11.243637</ele>
        <time>2020-08-29T14:36:31.448Z</time>
      </trkpt>
      <trkpt lat="62.26803" lon="17.39952">
        <ele>11.3424</ele>
        <time>2020-08-29T14:36:33.989Z</time>
      </trkpt>
      <trkpt lat="62.26792" lon="17.40077">
        <ele>11.977852</ele>
        <time>2020-08-29T14:36:46.654Z</time>
      </trkpt>
      <trkpt lat="62.26756" lon="17.40438">
        <ele>14.255144</ele>
        <time>2020-08-29T14:37:25.362Z</time>
      </trkpt>
      <trkpt lat="62.26735" lon="17.40709">
        <ele>15.939783</ele>
        <time>2020-08-29T14:37:53.768Z</time>
      </trkpt>
      <trkpt lat="62.26727" lon="17.41049">
        <ele>17.979901</ele>
        <time>2020-08-29T14:38:27.901Z</time>
      </trkpt>
      <trkpt lat="62.2672" lon="17.41197">
        <ele>18.901233</ele>
        <time>2020-08-29T14:38:43.088Z</time>
      </trkpt>
      <trkpt lat="62.26702" lon="17.41308">
        <ele>19.631123</ele>
        <time>2020-08-29T14:38:55.516Z</time>
      </trkpt>
      <trkpt lat="62.26628" lon="17.41624">
        <ele>22.002542</ele>
        <time>2020-08-29T14:39:33.231Z</time>
      </trkpt>
      <trkpt lat="62.26592" lon="17.41808">
        <ele>22.639041</ele>
        <time>2020-08-29T14:39:52.427Z</time>
      </trkpt>
      <trkpt lat="62.26581" lon="17.41889">
        <ele>22.856547</ele>
        <time>2020-08-29T14:40:00.010Z</time>
      </trkpt>
      <trkpt lat="62.26565" lon="17.4215">
        <ele>23.273489</ele>
        <time>2020-08-29T14:40:22.138Z</time>
      </trkpt>
      <trkpt lat="62.26562" lon="17.42345">
        <ele>23.388202</ele>
        <time>2020-08-29T14:40:39.299Z</time>
      </trkpt>
      <trkpt lat="62.26559" lon="17.42481">
        <ele>23.254281</ele>
        <time>2020-08-29T14:40:50.586Z</time>
      </trkpt>
      <trkpt lat="62.26559" lon="17.42614">
        <ele>22.948251</ele>
        <time>2020-08-29T14:41:00.886Z</time>
      </trkpt>
      <trkpt lat="62.26555" lon="17.42798">
        <ele>22.524489</ele>
        <time>2020-08-29T14:41:14.457Z</time>
      </trkpt>
      <trkpt lat="62.26551" lon="17.42958">
        <ele>22.052359</ele>
        <time>2020-08-29T14:41:26.016Z</time>
      </trkpt>
      <trkpt lat="62.26548" lon="17.43077">
        <ele>21.701976</ele>
        <time>2020-08-29T14:41:34.973Z</time>
      </trkpt>
      <trkpt lat="62.26539" lon="17.43257">
        <ele>21.333466</ele>
        <time>2020-08-29T14:41:49.670Z</time>
      </trkpt>
      <trkpt lat="62.26523" lon="17.43422">
        <ele>21.183459</ele>
        <time>2020-08-29T14:42:04.197Z</time>
      </trkpt>
      <trkpt lat="62.26515" lon="17.43488">
        <ele>21.123726</ele>
        <time>2020-08-29T14:42:09.584Z</time>
      </trkpt>
      <trkpt lat="62.26491" lon="17.43735">
        <ele>20.155355</ele>
        <time>2020-08-29T14:42:28.231Z</time>
      </trkpt>
      <trkpt lat="62.26478" lon="17.43853">
        <ele>19.555656</ele>
        <time>2020-08-29T14:42:36.562Z</time>
      </trkpt>
      <trkpt lat="62.26463" lon="17.43992">
        <ele>18.893304</ele>
        <time>2020-08-29T14:42:46.491Z</time>
      </trkpt>
      <trkpt lat="62.26428" lon="17.44338">
        <ele>17.457007</ele>
        <time>2020-08-29T14:43:12.651Z</time>
      </trkpt>
      <trkpt lat="62.26408" lon="17.44521">
        <ele>16.917116</ele>
        <time>2020-08-29T14:43:27.015Z</time>
      </trkpt>
      <trkpt lat="62.264" lon="17.44634">
        <ele>16.587895</ele>
        <time>2020-08-29T14:43:35.661Z</time>
      </trkpt>
      <trkpt lat="62.26373" lon="17.44864">
        <ele>15.806676</ele>
        <time>2020-08-29T14:43:53.441Z</time>
      </trkpt>
      <trkpt lat="62.26359" lon="17.44999">
        <ele>15.333436</ele>
        <time>2020-08-29T14:44:03.484Z</time>
      </trkpt>
      <trkpt lat="62.26353" lon="17.45062">
        <ele>15.114921</ele>
        <time>2020-08-29T14:44:08.150Z</time>
      </trkpt>
      <trkpt lat="62.26294" lon="17.45646">
        <ele>14.209561</ele>
        <time>2020-08-29T14:44:54.292Z</time>
      </trkpt>
      <trkpt lat="62.26258" lon="17.45828">
        <ele>14.401104</ele>
        <time>2020-08-29T14:45:12.293Z</time>
      </trkpt>
      <trkpt lat="62.26232" lon="17.45915">
        <ele>15.179308</ele>
        <time>2020-08-29T14:45:22.511Z</time>
      </trkpt>
      <trkpt lat="62.26189" lon="17.46034">
        <ele>16.313453</ele>
        <time>2020-08-29T14:45:38.466Z</time>
      </trkpt>
      <trkpt lat="62.26103" lon="17.4627">
        <ele>19.616264</ele>
        <time>2020-08-29T14:46:14.615Z</time>
      </trkpt>
      <trkpt lat="62.26092" lon="17.46303">
        <ele>20.158107</ele>
        <time>2020-08-29T14:46:19.998Z</time>
      </trkpt>
      <trkpt lat="62.26083" lon="17.46326">
        <ele>20.548726</ele>
        <time>2020-08-29T14:46:23.698Z</time>
      </trkpt>
      <trkpt lat="62.25956" lon="17.46675">
        <ele>26.517301</ele>
        <time>2020-08-29T14:47:21.955Z</time>
      </trkpt>
      <trkpt lat="62.2595" lon="17.46689">
        <ele>26.756638</ele>
        <time>2020-08-29T14:47:24.245Z</time>
      </trkpt>
      <trkpt lat="62.25797" lon="17.47098">
        <ele>31.327602</ele>
        <time>2020-08-29T14:48:21.463Z</time>
      </trkpt>
      <trkpt lat="62.25736" lon="17.47249">
        <ele>32.631686</ele>
        <time>2020-08-29T14:48:41.948Z</time>
      </trkpt>
      <trkpt lat="62.2567" lon="17.47393">
        <ele>33.849618</ele>
        <time>2020-08-29T14:49:02.609Z</time>
      </trkpt>
      <trkpt lat="62.25495" lon="17.47641">
        <ele>36.224906</ele>
        <time>2020-08-29T14:49:47.854Z</time>
      </trkpt>
      <trkpt lat="62.25321" lon="17.47873">
        <ele>37.873293</ele>
        <time>2020-08-29T14:50:30.549Z</time>
      </trkpt>
      <trkpt lat="62.25254" lon="17.47945">
        <ele>38.284946</ele>
        <time>2020-08-29T14:50:44.482Z</time>
      </trkpt>
      <trkpt lat="62.25112" lon="17.48131">
        <ele>37.37512</ele>
        <time>2020-08-29T14:51:11.828Z</time>
      </trkpt>
      <trkpt lat="62.2489" lon="17.48433">
        <ele>34.220449</ele>
        <time>2020-08-29T14:51:51.472Z</time>
      </trkpt>
      <trkpt lat="62.24735" lon="17.4863">
        <ele>31.664803</ele>
        <time>2020-08-29T14:52:18.146Z</time>
      </trkpt>
      <trkpt lat="62.24691" lon="17.4869">
        <ele>30.89523</ele>
        <time>2020-08-29T14:52:25.645Z</time>
      </trkpt>
      <trkpt lat="62.24668" lon="17.48725">
        <ele>30.472245</ele>
        <time>2020-08-29T14:52:29.822Z</time>
      </trkpt>
      <trkpt lat="62.24633" lon="17.48799">
        <ele>29.8702</ele>
        <time>2020-08-29T14:52:37.155Z</time>
      </trkpt>
      <trkpt lat="62.24607" lon="17.48871">
        <ele>29.589859</ele>
        <time>2020-08-29T14:52:43.660Z</time>
      </trkpt>
      <trkpt lat="62.24596" lon="17.48913">
        <ele>29.443183</ele>
        <time>2020-08-29T14:52:47.104Z</time>
      </trkpt>
      <trkpt lat="62.24575" lon="17.49056">
        <ele>28.981205</ele>
        <time>2020-08-29T14:52:58.667Z</time>
      </trkpt>
      <trkpt lat="62.24562" lon="17.49282">
        <ele>28.834357</ele>
        <time>2020-08-29T14:53:18.124Z</time>
      </trkpt>
      <trkpt lat="62.24554" lon="17.4941">
        <ele>28.875016</ele>
        <time>2020-08-29T14:53:29.510Z</time>
      </trkpt>
      <trkpt lat="62.24518" lon="17.50051">
        <ele>28.077341</ele>
        <time>2020-08-29T14:54:20.514Z</time>
      </trkpt>
      <trkpt lat="62.24466" lon="17.51031">
        <ele>26.183634</ele>
        <time>2020-08-29T14:55:37.671Z</time>
      </trkpt>
      <trkpt lat="62.24447" lon="17.51162">
        <ele>25.345222</ele>
        <time>2020-08-29T14:55:47.352Z</time>
      </trkpt>
      <trkpt lat="62.2437" lon="17.51478">
        <ele>22.983776</ele>
        <time>2020-08-29T14:56:11.590Z</time>
      </trkpt>
      <trkpt lat="62.2423" lon="17.51966">
        <ele>18.090089</ele>
        <time>2020-08-29T14:56:50.518Z</time>
      </trkpt>
      <trkpt lat="62.24196" lon="17.52139">
        <ele>15.890879</ele>
        <time>2020-08-29T14:57:02.026Z</time>
      </trkpt>
      <trkpt lat="62.24179" lon="17.52384">
        <ele>12.434206</ele>
        <time>2020-08-29T14:57:17.094Z</time>
      </trkpt>
      <trkpt lat="62.24167" lon="17.52578">
        <ele>10.954093</ele>
        <time>2020-08-29T14:57:29.679Z</time>
      </trkpt>
      <trkpt lat="62.2412" lon="17.5256">
        <ele>10.398425</ele>
        <time>2020-08-29T14:57:37.087Z</time>
      </trkpt>
      <trkpt lat="62.24016" lon="17.52517">
        <ele>9.714884</ele>
        <time>2020-08-29T14:57:56.063Z</time>
      </trkpt>
      <trkpt lat="62.24011" lon="17.52511">
        <ele>9.72426</ele>
        <time>2020-08-29T14:57:57.295Z</time>
      </trkpt>
      <trkpt lat="62.23991" lon="17.52493">
        <ele>9.757984</ele>
        <time>2020-08-29T14:58:01.260Z</time>
      </trkpt>
      <trkpt lat="62.23943" lon="17.52437">
        <ele>9.844663</ele>
        <time>2020-08-29T14:58:11.516Z</time>
      </trkpt>
      <trkpt lat="62.23881" lon="17.52363">
        <ele>9.915752</ele>
        <time>2020-08-29T14:58:24.414Z</time>
      </trkpt>
      <trkpt lat="62.23872" lon="17.5235">
        <ele>9.902543</ele>
        <time>2020-08-29T14:58:26.376Z</time>
      </trkpt>
      <trkpt lat="62.23852" lon="17.52307">
        <ele>9.868417</ele>
        <time>2020-08-29T14:58:31.418Z</time>
      </trkpt>
      <trkpt lat="62.23845" lon="17.52288">
        <ele>9.855078</ele>
        <time>2020-08-29T14:58:33.386Z</time>
      </trkpt>
      <trkpt lat="62.23824" lon="17.52232">
        <ele>9.815136</ele>
        <time>2020-08-29T14:58:39.264Z</time>
      </trkpt>
      <trkpt lat="62.23583" lon="17.51539">
        <ele>8.8068</ele>
        <time>2020-08-29T14:59:48.344Z</time>
      </trkpt>
      <trkpt lat="62.23544" lon="17.51424">
        <ele>8.412971</ele>
        <time>2020-08-29T14:59:58.971Z</time>
      </trkpt>
      <trkpt lat="62.23511" lon="17.51338">
        <ele>7.933398</ele>
        <time>2020-08-29T15:00:07.146Z</time>
      </trkpt>
      <trkpt lat="62.2348" lon="17.51278">
        <ele>7.548337</ele>
        <time>2020-08-29T15:00:13.631Z</time>
      </trkpt>
      <trkpt lat="62.23367" lon="17.51151">
        <ele>6.505099</ele>
        <time>2020-08-29T15:00:33.242Z</time>
      </trkpt>
      <trkpt lat="62.23336" lon="17.511">
        <ele>6.214831</ele>
        <time>2020-08-29T15:00:39.494Z</time>
      </trkpt>
      <trkpt lat="62.23317" lon="17.51049">
        <ele>5.991212</ele>
        <time>2020-08-29T15:00:44.402Z</time>
      </trkpt>
      <trkpt lat="62.2326" lon="17.50817">
        <ele>5.54684</ele>
        <time>2020-08-29T15:01:05.137Z</time>
      </trkpt>
      <trkpt lat="62.23204" lon="17.50641">
        <ele>5.370722</ele>
        <time>2020-08-29T15:01:22.693Z</time>
      </trkpt>
      <trkpt lat="62.23183" lon="17.50595">
        <ele>5.24161</ele>
        <time>2020-08-29T15:01:28.125Z</time>
      </trkpt>
      <trkpt lat="62.23125" lon="17.50505">
        <ele>4.94352</ele>
        <time>2020-08-29T15:01:40.244Z</time>
      </trkpt>
      <trkpt lat="62.23065" lon="17.50409">
        <ele>4.627473</ele>
        <time>2020-08-29T15:01:52.465Z</time>
      </trkpt>
      <trkpt lat="62.22974" lon="17.50216">
        <ele>3.747207</ele>
        <time>2020-08-29T15:02:12.424Z</time>
      </trkpt>
      <trkpt lat="62.22953" lon="17.50173">
        <ele>3.543475</ele>
        <time>2020-08-29T15:02:17.175Z</time>
      </trkpt>
      <trkpt lat="62.22919" lon="17.50102">
        <ele>3.432492</ele>
        <time>2020-08-29T15:02:24.986Z</time>
      </trkpt>
      <trkpt lat="62.22899" lon="17.50058">
        <ele>3.516669</ele>
        <time>2020-08-29T15:02:30.158Z</time>
      </trkpt>
      <trkpt lat="62.22869" lon="17.49995">
        <ele>3.638672</ele>
        <time>2020-08-29T15:02:37.883Z</time>
      </trkpt>
      <trkpt lat="62.22818" lon="17.49893">
        <ele>3.84185</ele>
        <time>2020-08-29T15:02:51.621Z</time>
      </trkpt>
      <trkpt lat="62.22794" lon="17.49861">
        <ele>3.950598</ele>
        <time>2020-08-29T15:02:57.581Z</time>
      </trkpt>
      <trkpt lat="62.22744" lon="17.49796">
        <ele>4.264171</ele>
        <time>2020-08-29T15:03:09.804Z</time>
      </trkpt>
      <trkpt lat="62.22669" lon="17.49704">
        <ele>4.729969</ele>
        <time>2020-08-29T15:03:26.707Z</time>
      </trkpt>
      <trkpt lat="62.22637" lon="17.49676">
        <ele>4.858964</ele>
        <time>2020-08-29T15:03:32.854Z</time>
      </trkpt>
      <trkpt lat="62.2262" lon="17.49666">
        <ele>4.859074</ele>
        <time>2020-08-29T15:03:35.988Z</time>
      </trkpt>
      <trkpt lat="62.22593" lon="17.49659">
        <ele>4.859239</ele>
        <time>2020-08-29T15:03:40.797Z</time>
      </trkpt>
      <trkpt lat="62.22526" lon="17.4966">
        <ele>4.859643</ele>
        <time>2020-08-29T15:03:52.535Z</time>
      </trkpt>
      <trkpt lat="62.22473" lon="17.49663">
        <ele>4.85997</ele>
        <time>2020-08-29T15:04:01.901Z</time>
      </trkpt>
      <trkpt lat="62.22432" lon="17.49663">
        <ele>4.963949</ele>
        <time>2020-08-29T15:04:09.076Z</time>
      </trkpt>
      <trkpt lat="62.22402" lon="17.49645">
        <ele>5.056794</ele>
        <time>2020-08-29T15:04:15.100Z</time>
      </trkpt>
      <trkpt lat="62.22302" lon="17.49533">
        <ele>5.383894</ele>
        <time>2020-08-29T15:04:36.727Z</time>
      </trkpt>
      <trkpt lat="62.22288" lon="17.49528">
        <ele>5.420113</ele>
        <time>2020-08-29T15:04:39.635Z</time>
      </trkpt>
      <trkpt lat="62.22248" lon="17.49516">
        <ele>5.518664</ele>
        <time>2020-08-29T15:04:47.170Z</time>
      </trkpt>
      <trkpt lat="62.22204" lon="17.49511">
        <ele>5.624124</ele>
        <time>2020-08-29T15:04:55.191Z</time>
      </trkpt>
      <trkpt lat="62.22177" lon="17.49509">
        <ele>5.689734</ele>
        <time>2020-08-29T15:05:00.120Z</time>
      </trkpt>
      <trkpt lat="62.22148" lon="17.49501">
        <ele>5.761804</ele>
        <time>2020-08-29T15:05:05.518Z</time>
      </trkpt>
      <trkpt lat="62.22128" lon="17.49484">
        <ele>5.815058</ele>
        <time>2020-08-29T15:05:09.420Z</time>
      </trkpt>
      <trkpt lat="62.22004" lon="17.49356">
        <ele>6.261246</ele>
        <time>2020-08-29T15:05:34.477Z</time>
      </trkpt>
      <trkpt lat="62.21969" lon="17.49336">
        <ele>6.378776</ele>
        <time>2020-08-29T15:05:41.743Z</time>
      </trkpt>
      <trkpt lat="62.21883" lon="17.49338">
        <ele>7.272184</ele>
        <time>2020-08-29T15:05:59.978Z</time>
      </trkpt>
      <trkpt lat="62.21862" lon="17.49338">
        <ele>7.498931</ele>
        <time>2020-08-29T15:06:04.475Z</time>
      </trkpt>
      <trkpt lat="62.21729" lon="17.4935">
        <ele>8.829626</ele>
        <time>2020-08-29T15:06:33.732Z</time>
      </trkpt>
      <trkpt lat="62.21569" lon="17.49358">
        <ele>9.881487</ele>
        <time>2020-08-29T15:07:05.615Z</time>
      </trkpt>
      <trkpt lat="62.21424" lon="17.49364">
        <ele>10.021916</ele>
        <time>2020-08-29T15:07:31.601Z</time>
      </trkpt>
      <trkpt lat="62.21288" lon="17.49372">
        <ele>8.931193</ele>
        <time>2020-08-29T15:07:53.634Z</time>
      </trkpt>
      <trkpt lat="62.21129" lon="17.49377">
        <ele>6.684413</ele>
        <time>2020-08-29T15:08:16.909Z</time>
      </trkpt>
      <trkpt lat="62.21094" lon="17.49379">
        <ele>6.094945</ele>
        <time>2020-08-29T15:08:21.873Z</time>
      </trkpt>
      <trkpt lat="62.2104" lon="17.49386">
        <ele>5.224465</ele>
        <time>2020-08-29T15:08:29.548Z</time>
      </trkpt>
      <trkpt lat="62.21004" lon="17.49397">
        <ele>4.663703</ele>
        <time>2020-08-29T15:08:34.792Z</time>
      </trkpt>
      <trkpt lat="62.20972" lon="17.49411">
        <ele>4.177844</ele>
        <time>2020-08-29T15:08:39.402Z</time>
      </trkpt>
      <trkpt lat="62.20896" lon="17.49449">
        <ele>2.984877</ele>
        <time>2020-08-29T15:08:51.067Z</time>
      </trkpt>
      <trkpt lat="62.20864" lon="17.49465">
        <ele>2.720209</ele>
        <time>2020-08-29T15:08:56.199Z</time>
      </trkpt>
      <trkpt lat="62.20858" lon="17.49468">
        <ele>2.697649</ele>
        <time>2020-08-29T15:08:57.113Z</time>
      </trkpt>
      <trkpt lat="62.20822" lon="17.49475">
        <ele>2.552847</ele>
        <time>2020-08-29T15:09:02.962Z</time>
      </trkpt>
      <trkpt lat="62.2073" lon="17.49465">
        <ele>2.18281</ele>
        <time>2020-08-29T15:09:18.869Z</time>
      </trkpt>
      <trkpt lat="62.2071" lon="17.49463">
        <ele>2.103243</ele>
        <time>2020-08-29T15:09:22.449Z</time>
      </trkpt>
      <trkpt lat="62.20675" lon="17.4945">
        <ele>2.154083</ele>
        <time>2020-08-29T15:09:28.965Z</time>
      </trkpt>
      <trkpt lat="62.20663" lon="17.49442">
        <ele>2.181854</ele>
        <time>2020-08-29T15:09:31.368Z</time>
      </trkpt>
      <trkpt lat="62.2063" lon="17.49422">
        <ele>2.256488</ele>
        <time>2020-08-29T15:09:37.754Z</time>
      </trkpt>
      <trkpt lat="62.20587" lon="17.49395">
        <ele>2.354482</ele>
        <time>2020-08-29T15:09:46.161Z</time>
      </trkpt>
      <trkpt lat="62.20543" lon="17.4938">
        <ele>2.451971</ele>
        <time>2020-08-29T15:09:54.431Z</time>
      </trkpt>
      <trkpt lat="62.20513" lon="17.49377">
        <ele>2.519541</ele>
        <time>2020-08-29T15:09:59.966Z</time>
      </trkpt>
      <trkpt lat="62.20491" lon="17.49376">
        <ele>2.571794</ele>
        <time>2020-08-29T15:10:04.179Z</time>
      </trkpt>
      <trkpt lat="62.20421" lon="17.49398">
        <ele>2.733373</ele>
        <time>2020-08-29T15:10:17.015Z</time>
      </trkpt>
      <trkpt lat="62.2037" lon="17.49419">
        <ele>2.854227</ele>
        <time>2020-08-29T15:10:26.696Z</time>
      </trkpt>
      <trkpt lat="62.20286" lon="17.49454">
        <ele>3.430705</ele>
        <time>2020-08-29T15:10:42.867Z</time>
      </trkpt>
      <trkpt lat="62.20179" lon="17.49504">
        <ele>4.304334</ele>
        <time>2020-08-29T15:11:06.100Z</time>
      </trkpt>
      <trkpt lat="62.20139" lon="17.49519">
        <ele>4.918798</ele>
        <time>2020-08-29T15:11:15.113Z</time>
      </trkpt>
      <trkpt lat="62.20113" lon="17.49529">
        <ele>5.319983</ele>
        <time>2020-08-29T15:11:20.869Z</time>
      </trkpt>
      <trkpt lat="62.20035" lon="17.49551">
        <ele>6.546642</ele>
        <time>2020-08-29T15:11:39.428Z</time>
      </trkpt>
      <trkpt lat="62.19955" lon="17.49589">
        <ele>7.707017</ele>
        <time>2020-08-29T15:11:58.343Z</time>
      </trkpt>
      <trkpt lat="62.19935" lon="17.49602">
        <ele>7.982458</ele>
        <time>2020-08-29T15:12:03.034Z</time>
      </trkpt>
      <trkpt lat="62.19925" lon="17.49612">
        <ele>8.138674</ele>
        <time>2020-08-29T15:12:05.626Z</time>
      </trkpt>
      <trkpt lat="62.19904" lon="17.49637">
        <ele>8.455661</ele>
        <time>2020-08-29T15:12:10.835Z</time>
      </trkpt>
      <trkpt lat="62.19839" lon="17.49739">
        <ele>9.515519</ele>
        <time>2020-08-29T15:12:28.182Z</time>
      </trkpt>
      <trkpt lat="62.1982" lon="17.49765">
        <ele>9.636676</ele>
        <time>2020-08-29T15:12:32.829Z</time>
      </trkpt>
      <trkpt lat="62.19802" lon="17.4979">
        <ele>9.752156</ele>
        <time>2020-08-29T15:12:37.241Z</time>
      </trkpt>
      <trkpt lat="62.19736" lon="17.49882">
        <ele>10.183111</ele>
        <time>2020-08-29T15:12:52.570Z</time>
      </trkpt>
      <trkpt lat="62.19729" lon="17.49889">
        <ele>10.222296</ele>
        <time>2020-08-29T15:12:53.934Z</time>
      </trkpt>
      <trkpt lat="62.19723" lon="17.49897">
        <ele>10.261645</ele>
        <time>2020-08-29T15:12:55.360Z</time>
      </trkpt>
      <trkpt lat="62.19657" lon="17.49942">
        <ele>10.485013</ele>
        <time>2020-08-29T15:13:08.331Z</time>
      </trkpt>
      <trkpt lat="62.19551" lon="17.49993">
        <ele>10.498463</ele>
        <time>2020-08-29T15:13:27.897Z</time>
      </trkpt>
      <trkpt lat="62.19509" lon="17.50009">
        <ele>10.496159</ele>
        <time>2020-08-29T15:13:35.263Z</time>
      </trkpt>
      <trkpt lat="62.19456" lon="17.5003">
        <ele>9.921621</ele>
        <time>2020-08-29T15:13:44.045Z</time>
      </trkpt>
      <trkpt lat="62.19455" lon="17.5003">
        <ele>9.905124</ele>
        <time>2020-08-29T15:13:44.295Z</time>
      </trkpt>
      <trkpt lat="62.1945" lon="17.50032">
        <ele>9.858024</ele>
        <time>2020-08-29T15:13:45.021Z</time>
      </trkpt>
      <trkpt lat="62.1942" lon="17.50044">
        <ele>9.519488</ele>
        <time>2020-08-29T15:13:50.031Z</time>
      </trkpt>
      <trkpt lat="62.19283" lon="17.50096">
        <ele>7.692722</ele>
        <time>2020-08-29T15:14:10.186Z</time>
      </trkpt>
      <trkpt lat="62.19267" lon="17.50103">
        <ele>7.414739</ele>
        <time>2020-08-29T15:14:12.341Z</time>
      </trkpt>
      <trkpt lat="62.19165" lon="17.50145">
        <ele>5.608319</ele>
        <time>2020-08-29T15:14:27.078Z</time>
      </trkpt>
      <trkpt lat="62.19131" lon="17.50159">
        <ele>5.499868</ele>
        <time>2020-08-29T15:14:32.297Z</time>
      </trkpt>
      <trkpt lat="62.19091" lon="17.50176">
        <ele>5.609479</ele>
        <time>2020-08-29T15:14:38.651Z</time>
      </trkpt>
      <trkpt lat="62.18923" lon="17.50241">
        <ele>6.536076</ele>
        <time>2020-08-29T15:15:15.859Z</time>
      </trkpt>
      <trkpt lat="62.18878" lon="17.50253">
        <ele>7.029113</ele>
        <time>2020-08-29T15:15:26.638Z</time>
      </trkpt>
      <trkpt lat="62.18867" lon="17.50257">
        <ele>7.150522</ele>
        <time>2020-08-29T15:15:29.125Z</time>
      </trkpt>
      <trkpt lat="62.1881" lon="17.50262">
        <ele>7.767161</ele>
        <time>2020-08-29T15:15:41.248Z</time>
      </trkpt>
      <trkpt lat="62.18775" lon="17.50264">
        <ele>7.605234</ele>
        <time>2020-08-29T15:15:47.415Z</time>
      </trkpt>
      <trkpt lat="62.18666" lon="17.50273">
        <ele>6.443854</ele>
        <time>2020-08-29T15:16:04.127Z</time>
      </trkpt>
      <trkpt lat="62.18656" lon="17.50273">
        <ele>6.342893</ele>
        <time>2020-08-29T15:16:05.411Z</time>
      </trkpt>
      <trkpt lat="62.18638" lon="17.50275">
        <ele>6.142069</ele>
        <time>2020-08-29T15:16:08.103Z</time>
      </trkpt>
      <trkpt lat="62.18517" lon="17.50287">
        <ele>4.133947</ele>
        <time>2020-08-29T15:16:24.942Z</time>
      </trkpt>
      <trkpt lat="62.18454" lon="17.50275">
        <ele>3.008812</ele>
        <time>2020-08-29T15:16:34.213Z</time>
      </trkpt>
      <trkpt lat="62.18399" lon="17.50249">
        <ele>2.666537</ele>
        <time>2020-08-29T15:16:42.874Z</time>
      </trkpt>
      <trkpt lat="62.18362" lon="17.50218">
        <ele>2.560103</ele>
        <time>2020-08-29T15:16:49.243Z</time>
      </trkpt>
      <trkpt lat="62.18352" lon="17.5021">
        <ele>2.530078</ele>
        <time>2020-08-29T15:16:51.095Z</time>
      </trkpt>
      <trkpt lat="62.18009" lon="17.49832">
        <ele>4.096635</ele>
        <time>2020-08-29T15:18:05.578Z</time>
      </trkpt>
      <trkpt lat="62.17985" lon="17.49805">
        <ele>4.311681</ele>
        <time>2020-08-29T15:18:11.456Z</time>
      </trkpt>
      <trkpt lat="62.17968" lon="17.49785">
        <ele>4.47059</ele>
        <time>2020-08-29T15:18:15.843Z</time>
      </trkpt>
      <trkpt lat="62.17932" lon="17.49744">
        <ele>5.14743</ele>
        <time>2020-08-29T15:18:25.101Z</time>
      </trkpt>
      <trkpt lat="62.17867" lon="17.49675">
        <ele>6.644262</ele>
        <time>2020-08-29T15:18:42.186Z</time>
      </trkpt>
      <trkpt lat="62.17766" lon="17.4957">
        <ele>9.202815</ele>
        <time>2020-08-29T15:19:11.324Z</time>
      </trkpt>
      <trkpt lat="62.17744" lon="17.4955">
        <ele>9.866059</ele>
        <time>2020-08-29T15:19:17.782Z</time>
      </trkpt>
      <trkpt lat="62.17703" lon="17.49518">
        <ele>11.078704</ele>
        <time>2020-08-29T15:19:29.725Z</time>
      </trkpt>
      <trkpt lat="62.17641" lon="17.49473">
        <ele>12.91619</ele>
        <time>2020-08-29T15:19:47.836Z</time>
      </trkpt>
      <trkpt lat="62.17424" lon="17.49312">
        <ele>17.837574</ele>
        <time>2020-08-29T15:20:45.871Z</time>
      </trkpt>
      <trkpt lat="62.17386" lon="17.4927">
        <ele>18.258699</ele>
        <time>2020-08-29T15:20:55.113Z</time>
      </trkpt>
      <trkpt lat="62.17221" lon="17.4904">
        <ele>19.367513</ele>
        <time>2020-08-29T15:21:32.511Z</time>
      </trkpt>
      <trkpt lat="62.17072" lon="17.48806">
        <ele>19.205794</ele>
        <time>2020-08-29T15:22:04.386Z</time>
      </trkpt>
      <trkpt lat="62.16939" lon="17.48615">
        <ele>18.523606</ele>
        <time>2020-08-29T15:22:31.452Z</time>
      </trkpt>
      <trkpt lat="62.16915" lon="17.48589">
        <ele>18.361959</ele>
        <time>2020-08-29T15:22:35.945Z</time>
      </trkpt>
      <trkpt lat="62.16759" lon="17.48477">
        <ele>16.765416</ele>
        <time>2020-08-29T15:23:01.661Z</time>
      </trkpt>
      <trkpt lat="62.16561" lon="17.48421">
        <ele>14.205328</ele>
        <time>2020-08-29T15:23:30.496Z</time>
      </trkpt>
      <trkpt lat="62.16521" lon="17.48421">
        <ele>13.67842</ele>
        <time>2020-08-29T15:23:36.583Z</time>
      </trkpt>
      <trkpt lat="62.1649" lon="17.48434">
        <ele>13.346442</ele>
        <time>2020-08-29T15:23:41.885Z</time>
      </trkpt>
      <trkpt lat="62.1648" lon="17.48443">
        <ele>13.437448</ele>
        <time>2020-08-29T15:23:43.651Z</time>
      </trkpt>
      <trkpt lat="62.16447" lon="17.48467">
        <ele>13.754245</ele>
        <time>2020-08-29T15:23:50.061Z</time>
      </trkpt>
      <trkpt lat="62.16446" lon="17.48464">
        <ele>13.768707</ele>
        <time>2020-08-29T15:23:50.660Z</time>
      </trkpt>
      <trkpt lat="62.16434" lon="17.48402">
        <ele>14.054628</ele>
        <time>2020-08-29T15:24:00.354Z</time>
      </trkpt>
      <trkpt lat="62.16414" lon="17.48337">
        <ele>14.377373</ele>
        <time>2020-08-29T15:24:11.991Z</time>
      </trkpt>
      <trkpt lat="62.16411" lon="17.48329">
        <ele>14.421186</ele>
        <time>2020-08-29T15:24:13.948Z</time>
      </trkpt>
      <trkpt lat="62.16398" lon="17.48288">
        <ele>14.628378</ele>
        <time>2020-08-29T15:24:21.823Z</time>
      </trkpt>
      <trkpt lat="62.16381" lon="17.48208">
        <ele>15.138178</ele>
        <time>2020-08-29T15:24:37.031Z</time>
      </trkpt>
      <trkpt lat="62.16363" lon="17.48072">
        <ele>16.909647</ele>
        <time>2020-08-29T15:25:02.797Z</time>
      </trkpt>
      <trkpt lat="62.16361" lon="17.4803">
        <ele>17.441856</ele>
        <time>2020-08-29T15:25:10.682Z</time>
      </trkpt>
      <trkpt lat="62.16361" lon="17.48002">
        <ele>17.783469</ele>
        <time>2020-08-29T15:25:15.589Z</time>
      </trkpt>
      <trkpt lat="62.16378" lon="17.47854">
        <ele>19.700093</ele>
        <time>2020-08-29T15:25:42.497Z</time>
      </trkpt>
      <trkpt lat="62.16435" lon="17.47456">
        <ele>25.157673</ele>
        <time>2020-08-29T15:26:59.060Z</time>
      </trkpt>
      <trkpt lat="62.16433" lon="17.4742">
        <ele>25.475768</ele>
        <time>2020-08-29T15:27:05.205Z</time>
      </trkpt>
      <trkpt lat="62.16428" lon="17.47395">
        <ele>25.703462</ele>
        <time>2020-08-29T15:27:10.386Z</time>
      </trkpt>
      <trkpt lat="62.1642" lon="17.4738">
        <ele>25.901725</ele>
        <time>2020-08-29T15:27:14.352Z</time>
      </trkpt>
      <trkpt lat="62.16407" lon="17.47347">
        <ele>26.276109</ele>
        <time>2020-08-29T15:27:21.531Z</time>
      </trkpt>
      <trkpt lat="62.16404" lon="17.47338">
        <ele>26.37405</ele>
        <time>2020-08-29T15:27:23.813Z</time>
      </trkpt>
      <trkpt lat="62.16406" lon="17.47288">
        <ele>26.804034</ele>
        <time>2020-08-29T15:27:31.625Z</time>
      </trkpt>
      <trkpt lat="62.16407" lon="17.47227">
        <ele>27.332069</ele>
        <time>2020-08-29T15:27:41.776Z</time>
      </trkpt>
      <trkpt lat="62.16399" lon="17.47159">
        <ele>27.939422</ele>
        <time>2020-08-29T15:27:53.035Z</time>
      </trkpt>
      <trkpt lat="62.16388" lon="17.47096">
        <ele>28.325943</ele>
        <time>2020-08-29T15:28:03.414Z</time>
      </trkpt>
      <trkpt lat="62.16358" lon="17.46917">
        <ele>28.775095</ele>
        <time>2020-08-29T15:28:30.494Z</time>
      </trkpt>
      <trkpt lat="62.16337" lon="17.46795">
        <ele>29.079743</ele>
        <time>2020-08-29T15:28:49.047Z</time>
      </trkpt>
      <trkpt lat="62.16335" lon="17.46781">
        <ele>29.114349</ele>
        <time>2020-08-29T15:28:51.223Z</time>
      </trkpt>
      <trkpt lat="62.16298" lon="17.46573">
        <ele>29.998881</ele>
        <time>2020-08-29T15:29:24.817Z</time>
      </trkpt>
      <trkpt lat="62.16272" lon="17.46446">
        <ele>30.56913</ele>
        <time>2020-08-29T15:29:46.272Z</time>
      </trkpt>
      <trkpt lat="62.16251" lon="17.4635">
        <ele>31.11117</ele>
        <time>2020-08-29T15:30:02.825Z</time>
      </trkpt>
      <trkpt lat="62.16216" lon="17.46186">
        <ele>32.152065</ele>
        <time>2020-08-29T15:30:30.855Z</time>
      </trkpt>
      <trkpt lat="62.1615" lon="17.4591">
        <ele>34.567659</ele>
        <time>2020-08-29T15:31:20.477Z</time>
      </trkpt>
      <trkpt lat="62.16073" lon="17.45625">
        <ele>38.808398</ele>
        <time>2020-08-29T15:32:18.445Z</time>
      </trkpt>
      <trkpt lat="62.16053" lon="17.45572">
        <ele>40.122888</ele>
        <time>2020-08-29T15:32:31.333Z</time>
      </trkpt>
      <trkpt lat="62.15761" lon="17.44922">
        <ele>58.251016</ele>
        <time>2020-08-29T15:35:38.746Z</time>
      </trkpt>
      <trkpt lat="62.15677" lon="17.44716">
        <ele>63.395083</ele>
        <time>2020-08-29T15:36:34.879Z</time>
      </trkpt>
      <trkpt lat="62.15657" lon="17.44679">
        <ele>64.402731</ele>
        <time>2020-08-29T15:36:46.019Z</time>
      </trkpt>
      <trkpt lat="62.15593" lon="17.4461">
        <ele>66.926699</ele>
        <time>2020-08-29T15:37:14.572Z</time>
      </trkpt>
      <trkpt lat="62.1558" lon="17.4458">
        <ele>67.268753</ele>
        <time>2020-08-29T15:37:21.509Z</time>
      </trkpt>
      <trkpt lat="62.15572" lon="17.44551">
        <ele>67.547905</ele>
        <time>2020-08-29T15:37:27.514Z</time>
      </trkpt>
      <trkpt lat="62.15574" lon="17.44499">
        <ele>67.982658</ele>
        <time>2020-08-29T15:37:36.035Z</time>
      </trkpt>
      <trkpt lat="62.15577" lon="17.44453">
        <ele>68.374699</ele>
        <time>2020-08-29T15:37:43.777Z</time>
      </trkpt>
      <trkpt lat="62.15593" lon="17.44379">
        <ele>69.051789</ele>
        <time>2020-08-29T15:37:56.780Z</time>
      </trkpt>
      <trkpt lat="62.15637" lon="17.44208">
        <ele>70.5078</ele>
        <time>2020-08-29T15:38:27.209Z</time>
      </trkpt>
      <trkpt lat="62.1564" lon="17.44119">
        <ele>71.075626</ele>
        <time>2020-08-29T15:38:40.992Z</time>
      </trkpt>
      <trkpt lat="62.15629" lon="17.44037">
        <ele>71.626937</ele>
        <time>2020-08-29T15:38:54.733Z</time>
      </trkpt>
      <trkpt lat="62.15591" lon="17.43889">
        <ele>72.82892</ele>
        <time>2020-08-29T15:39:22.372Z</time>
      </trkpt>
      <trkpt lat="62.15584" lon="17.43733">
        <ele>74.266814</ele>
        <time>2020-08-29T15:39:49.032Z</time>
      </trkpt>
      <trkpt lat="62.15577" lon="17.43673">
        <ele>74.822291</ele>
        <time>2020-08-29T15:39:59.411Z</time>
      </trkpt>
      <trkpt lat="62.15537" lon="17.43433">
        <ele>76.902626</ele>
        <time>2020-08-29T15:40:42.625Z</time>
      </trkpt>
      <trkpt lat="62.1552" lon="17.43358">
        <ele>77.50951</ele>
        <time>2020-08-29T15:40:56.209Z</time>
      </trkpt>
      <trkpt lat="62.15491" lon="17.43303">
        <ele>78.104056</ele>
        <time>2020-08-29T15:41:09.179Z</time>
      </trkpt>
      <trkpt lat="62.15481" lon="17.43287">
        <ele>78.303043</ele>
        <time>2020-08-29T15:41:13.614Z</time>
      </trkpt>
      <trkpt lat="62.15417" lon="17.43188">
        <ele>78.889023</ele>
        <time>2020-08-29T15:41:39.284Z</time>
      </trkpt>
      <trkpt lat="62.15374" lon="17.43139">
        <ele>79.050589</ele>
        <time>2020-08-29T15:41:54.212Z</time>
      </trkpt>
      <trkpt lat="62.15284" lon="17.43061">
        <ele>79.223254</ele>
        <time>2020-08-29T15:42:22.948Z</time>
      </trkpt>
      <trkpt lat="62.1527" lon="17.4304">
        <ele>79.139232</ele>
        <time>2020-08-29T15:42:27.895Z</time>
      </trkpt>
      <trkpt lat="62.15069" lon="17.4267">
        <ele>77.725263</ele>
        <time>2020-08-29T15:43:42.270Z</time>
      </trkpt>
      <trkpt lat="62.15051" lon="17.42646">
        <ele>77.597955</ele>
        <time>2020-08-29T15:43:48.300Z</time>
      </trkpt>
      <trkpt lat="62.1495" lon="17.42584">
        <ele>77.215632</ele>
        <time>2020-08-29T15:44:17.627Z</time>
      </trkpt>
      <trkpt lat="62.1495" lon="17.42584">
        <ele>77.215632</ele>
        <time>2020-08-29T15:44:17.671Z</time>
      </trkpt>
      <trkpt lat="62.14934" lon="17.42576">
        <ele>77.174383</ele>
        <time>2020-08-29T15:44:22.511Z</time>
      </trkpt>
      <trkpt lat="62.14899" lon="17.42582">
        <ele>77.087702</ele>
        <time>2020-08-29T15:44:32.715Z</time>
      </trkpt>
      <trkpt lat="62.14822" lon="17.42637">
        <ele>77.016929</ele>
        <time>2020-08-29T15:44:56.773Z</time>
      </trkpt>
      <trkpt lat="62.14804" lon="17.42642">
        <ele>77.091659</ele>
        <time>2020-08-29T15:45:02.699Z</time>
      </trkpt>
      <trkpt lat="62.14787" lon="17.42625">
        <ele>77.162964</ele>
        <time>2020-08-29T15:45:08.397Z</time>
      </trkpt>
      <trkpt lat="62.14561" lon="17.42159">
        <ele>78.458003</ele>
        <time>2020-08-29T15:46:46.508Z</time>
      </trkpt>
      <trkpt lat="62.14541" lon="17.42127">
        <ele>78.525513</ele>
        <time>2020-08-29T15:46:54.276Z</time>
      </trkpt>
      <trkpt lat="62.14464" lon="17.42035">
        <ele>78.761347</ele>
        <time>2020-08-29T15:47:21.193Z</time>
      </trkpt>
      <trkpt lat="62.14454" lon="17.42014">
        <ele>78.797737</ele>
        <time>2020-08-29T15:47:25.329Z</time>
      </trkpt>
      <trkpt lat="62.14445" lon="17.41988">
        <ele>78.838503</ele>
        <time>2020-08-29T15:47:29.950Z</time>
      </trkpt>
      <trkpt lat="62.14441" lon="17.41953">
        <ele>78.882721</ele>
        <time>2020-08-29T15:47:34.957Z</time>
      </trkpt>
      <trkpt lat="62.14451" lon="17.41797">
        <ele>79.021138</ele>
        <time>2020-08-29T15:47:57.203Z</time>
      </trkpt>
      <trkpt lat="62.14446" lon="17.41713">
        <ele>79.09065</ele>
        <time>2020-08-29T15:48:09.164Z</time>
      </trkpt>
      <trkpt lat="62.1442" lon="17.41651">
        <ele>79.158578</ele>
        <time>2020-08-29T15:48:20.857Z</time>
      </trkpt>
      <trkpt lat="62.14385" lon="17.4161">
        <ele>79.219007</ele>
        <time>2020-08-29T15:48:33.104Z</time>
      </trkpt>
      <trkpt lat="62.1437" lon="17.41581">
        <ele>79.171818</ele>
        <time>2020-08-29T15:48:39.294Z</time>
      </trkpt>
      <trkpt lat="62.14354" lon="17.41492">
        <ele>79.06808</ele>
        <time>2020-08-29T15:48:52.848Z</time>
      </trkpt>
      <trkpt lat="62.14342" lon="17.41282">
        <ele>78.839024</ele>
        <time>2020-08-29T15:49:21.916Z</time>
      </trkpt>
      <trkpt lat="62.14337" lon="17.4126">
        <ele>78.812268</ele>
        <time>2020-08-29T15:49:24.955Z</time>
      </trkpt>
      <trkpt lat="62.14331" lon="17.41251">
        <ele>78.713397</ele>
        <time>2020-08-29T15:49:26.779Z</time>
      </trkpt>
      <trkpt lat="62.14251" lon="17.41152">
        <ele>77.066312</ele>
        <time>2020-08-29T15:49:50.900Z</time>
      </trkpt>
      <trkpt lat="62.14224" lon="17.4114">
        <ele>76.57414</ele>
        <time>2020-08-29T15:49:57.764Z</time>
      </trkpt>
      <trkpt lat="62.14215" lon="17.41139">
        <ele>76.417064</ele>
        <time>2020-08-29T15:50:00.018Z</time>
      </trkpt>
      <trkpt lat="62.14201" lon="17.41137">
        <ele>76.172486</ele>
        <time>2020-08-29T15:50:03.222Z</time>
      </trkpt>
      <trkpt lat="62.14178" lon="17.41152">
        <ele>75.741101</ele>
        <time>2020-08-29T15:50:09.343Z</time>
      </trkpt>
      <trkpt lat="62.14158" lon="17.41185">
        <ele>75.327925</ele>
        <time>2020-08-29T15:50:15.500Z</time>
      </trkpt>
      <trkpt lat="62.14114" lon="17.41311">
        <ele>74.163049</ele>
        <time>2020-08-29T15:50:33.747Z</time>
      </trkpt>
      <trkpt lat="62.14069" lon="17.4141">
        <ele>73.129683</ele>
        <time>2020-08-29T15:50:50.662Z</time>
      </trkpt>
      <trkpt lat="62.13847" lon="17.41627">
        <ele>72.811115</ele>
        <time>2020-08-29T15:52:04.366Z</time>
      </trkpt>
      <trkpt lat="62.13841" lon="17.4163">
        <ele>72.805181</ele>
        <time>2020-08-29T15:52:06.571Z</time>
      </trkpt>
      <trkpt lat="62.1382" lon="17.4163">
        <ele>72.786385</ele>
        <time>2020-08-29T15:52:12.937Z</time>
      </trkpt>
      <trkpt lat="62.13659" lon="17.41592">
        <ele>72.367801</ele>
        <time>2020-08-29T15:52:59.733Z</time>
      </trkpt>
      <trkpt lat="62.13597" lon="17.41531">
        <ele>71.929366</ele>
        <time>2020-08-29T15:53:18.187Z</time>
      </trkpt>
      <trkpt lat="62.13477" lon="17.41432">
        <ele>71.381141</ele>
        <time>2020-08-29T15:53:54.059Z</time>
      </trkpt>
      <trkpt lat="62.13431" lon="17.4144">
        <ele>71.280279</ele>
        <time>2020-08-29T15:54:07.750Z</time>
      </trkpt>
      <trkpt lat="62.13333" lon="17.41518">
        <ele>71.03897</ele>
        <time>2020-08-29T15:54:39.292Z</time>
      </trkpt>
      <trkpt lat="62.13299" lon="17.4154">
        <ele>70.947519</ele>
        <time>2020-08-29T15:54:50.017Z</time>
      </trkpt>
      <trkpt lat="62.13276" lon="17.41544">
        <ele>70.888393</ele>
        <time>2020-08-29T15:54:56.260Z</time>
      </trkpt>
      <trkpt lat="62.13258" lon="17.41539">
        <ele>70.840664</ele>
        <time>2020-08-29T15:55:01.839Z</time>
      </trkpt>
      <trkpt lat="62.13217" lon="17.41504">
        <ele>70.728612</ele>
        <time>2020-08-29T15:55:14.025Z</time>
      </trkpt>
      <trkpt lat="62.13163" lon="17.4144">
        <ele>70.440568</ele>
        <time>2020-08-29T15:55:31.467Z</time>
      </trkpt>
      <trkpt lat="62.13143" lon="17.41426">
        <ele>70.315624</ele>
        <time>2020-08-29T15:55:37.138Z</time>
      </trkpt>
      <trkpt lat="62.13123" lon="17.41428">
        <ele>70.198922</ele>
        <time>2020-08-29T15:55:42.944Z</time>
      </trkpt>
      <trkpt lat="62.13107" lon="17.4144">
        <ele>70.098584</ele>
        <time>2020-08-29T15:55:47.506Z</time>
      </trkpt>
      <trkpt lat="62.13043" lon="17.41539">
        <ele>69.638147</ele>
        <time>2020-08-29T15:56:09.695Z</time>
      </trkpt>
      <trkpt lat="62.1301" lon="17.41606">
        <ele>69.581193</ele>
        <time>2020-08-29T15:56:22.945Z</time>
      </trkpt>
      <trkpt lat="62.13004" lon="17.41628">
        <ele>69.571047</ele>
        <time>2020-08-29T15:56:26.642Z</time>
      </trkpt>
      <trkpt lat="62.12994" lon="17.4172">
        <ele>69.534407</ele>
        <time>2020-08-29T15:56:39.800Z</time>
      </trkpt>
      <trkpt lat="62.12983" lon="17.41752">
        <ele>69.518586</ele>
        <time>2020-08-29T15:56:45.429Z</time>
      </trkpt>
      <trkpt lat="62.12965" lon="17.41775">
        <ele>69.500879</ele>
        <time>2020-08-29T15:56:51.700Z</time>
      </trkpt>
      <trkpt lat="62.12916" lon="17.41784">
        <ele>69.452754</ele>
        <time>2020-08-29T15:57:06.068Z</time>
      </trkpt>
      <trkpt lat="62.12854" lon="17.41821">
        <ele>69.330978</ele>
        <time>2020-08-29T15:57:25.344Z</time>
      </trkpt>
      <trkpt lat="62.12811" lon="17.41942">
        <ele>69.197395</ele>
        <time>2020-08-29T15:57:46.045Z</time>
      </trkpt>
      <trkpt lat="62.12801" lon="17.41947">
        <ele>69.178817</ele>
        <time>2020-08-29T15:57:48.921Z</time>
      </trkpt>
      <trkpt lat="62.12796" lon="17.41945">
        <ele>69.17003</ele>
        <time>2020-08-29T15:57:50.247Z</time>
      </trkpt>
      <trkpt lat="62.12789" lon="17.41936">
        <ele>69.154405</ele>
        <time>2020-08-29T15:57:52.764Z</time>
      </trkpt>
      <trkpt lat="62.12765" lon="17.41878">
        <ele>68.933914</ele>
        <time>2020-08-29T15:58:03.114Z</time>
      </trkpt>
      <trkpt lat="62.12757" lon="17.41897">
        <ele>68.827252</ele>
        <time>2020-08-29T15:58:05.241Z</time>
      </trkpt>
      <trkpt lat="62.12693" lon="17.42006">
        <ele>68.104771</ele>
        <time>2020-08-29T15:58:19.855Z</time>
      </trkpt>
      <trkpt lat="62.12644" lon="17.42066">
        <ele>67.601227</ele>
        <time>2020-08-29T15:58:29.585Z</time>
      </trkpt>
      <trkpt lat="62.12591" lon="17.42088">
        <ele>66.624356</ele>
        <time>2020-08-29T15:58:38.418Z</time>
      </trkpt>
      <trkpt lat="62.12498" lon="17.42155">
        <ele>64.703948</ele>
        <time>2020-08-29T15:58:54.054Z</time>
      </trkpt>
      <trkpt lat="62.12423" lon="17.4219">
        <ele>62.782197</ele>
        <time>2020-08-29T15:59:05.939Z</time>
      </trkpt>
      <trkpt lat="62.12364" lon="17.42225">
        <ele>60.96185</ele>
        <time>2020-08-29T15:59:14.457Z</time>
      </trkpt>
      <trkpt lat="62.12319" lon="17.42239">
        <ele>59.578591</ele>
        <time>2020-08-29T15:59:20.767Z</time>
      </trkpt>
      <trkpt lat="62.12254" lon="17.42209">
        <ele>57.175717</ele>
        <time>2020-08-29T15:59:29.678Z</time>
      </trkpt>
      <trkpt lat="62.12214" lon="17.42205">
        <ele>55.543731</ele>
        <time>2020-08-29T15:59:34.836Z</time>
      </trkpt>
      <trkpt lat="62.12164" lon="17.4225">
        <ele>53.249219</ele>
        <time>2020-08-29T15:59:41.999Z</time>
      </trkpt>
      <trkpt lat="62.12141" lon="17.4228">
        <ele>52.132198</ele>
        <time>2020-08-29T15:59:45.467Z</time>
      </trkpt>
      <trkpt lat="62.12105" lon="17.42383">
        <ele>49.566191</ele>
        <time>2020-08-29T15:59:53.250Z</time>
      </trkpt>
      <trkpt lat="62.12061" lon="17.42569">
        <ele>45.380571</ele>
        <time>2020-08-29T16:00:05.899Z</time>
      </trkpt>
      <trkpt lat="62.11979" lon="17.42695">
        <ele>41.12276</ele>
        <time>2020-08-29T16:00:19.163Z</time>
      </trkpt>
      <trkpt lat="62.11898" lon="17.4284">
        <ele>36.766006</ele>
        <time>2020-08-29T16:00:32.960Z</time>
      </trkpt>
      <trkpt lat="62.11878" lon="17.42882">
        <ele>35.67218</ele>
        <time>2020-08-29T16:00:36.746Z</time>
      </trkpt>
      <trkpt lat="62.11864" lon="17.42911">
        <ele>35.069113</ele>
        <time>2020-08-29T16:00:39.241Z</time>
      </trkpt>
      <trkpt lat="62.11707" lon="17.43065">
        <ele>29.874293</ele>
        <time>2020-08-29T16:01:03.100Z</time>
      </trkpt>
      <trkpt lat="62.1165" lon="17.43226">
        <ele>28.226743</ele>
        <time>2020-08-29T16:01:17.621Z</time>
      </trkpt>
      <trkpt lat="62.11588" lon="17.43309">
        <ele>26.998899</ele>
        <time>2020-08-29T16:01:29.180Z</time>
      </trkpt>
      <trkpt lat="62.115" lon="17.4355">
        <ele>25.195971</ele>
        <time>2020-08-29T16:01:51.906Z</time>
      </trkpt>
      <trkpt lat="62.11468" lon="17.43606">
        <ele>24.666753</ele>
        <time>2020-08-29T16:01:58.425Z</time>
      </trkpt>
      <trkpt lat="62.11462" lon="17.43613">
        <ele>24.577729</ele>
        <time>2020-08-29T16:01:59.445Z</time>
      </trkpt>
      <trkpt lat="62.11446" lon="17.43632">
        <ele>24.334283</ele>
        <time>2020-08-29T16:02:02.249Z</time>
      </trkpt>
      <trkpt lat="62.11356" lon="17.43689">
        <ele>23.06998</ele>
        <time>2020-08-29T16:02:16.895Z</time>
      </trkpt>
      <trkpt lat="62.11243" lon="17.43719">
        <ele>21.807181</ele>
        <time>2020-08-29T16:02:34.741Z</time>
      </trkpt>
      <trkpt lat="62.11147" lon="17.43869">
        <ele>20.709553</ele>
        <time>2020-08-29T16:02:54.395Z</time>
      </trkpt>
      <trkpt lat="62.11126" lon="17.43883">
        <ele>20.634651</ele>
        <time>2020-08-29T16:02:58.178Z</time>
      </trkpt>
      <trkpt lat="62.11077" lon="17.43895">
        <ele>20.465238</ele>
        <time>2020-08-29T16:03:06.911Z</time>
      </trkpt>
      <trkpt lat="62.11039" lon="17.4393">
        <ele>20.325481</ele>
        <time>2020-08-29T16:03:14.270Z</time>
      </trkpt>
      <trkpt lat="62.10926" lon="17.44122">
        <ele>20.063344</ele>
        <time>2020-08-29T16:03:40.692Z</time>
      </trkpt>
      <trkpt lat="62.10899" lon="17.44243">
        <ele>20.022417</ele>
        <time>2020-08-29T16:03:52.314Z</time>
      </trkpt>
      <trkpt lat="62.10886" lon="17.44284">
        <ele>20.007272</ele>
        <time>2020-08-29T16:03:56.620Z</time>
      </trkpt>
      <trkpt lat="62.10869" lon="17.44318">
        <ele>20.003077</ele>
        <time>2020-08-29T16:04:00.981Z</time>
      </trkpt>
      <trkpt lat="62.10826" lon="17.44404">
        <ele>20.017576</ele>
        <time>2020-08-29T16:04:11.877Z</time>
      </trkpt>
      <trkpt lat="62.10816" lon="17.44425">
        <ele>20.02099</ele>
        <time>2020-08-29T16:04:14.438Z</time>
      </trkpt>
      <trkpt lat="62.10789" lon="17.4456">
        <ele>20.037933</ele>
        <time>2020-08-29T16:04:27.224Z</time>
      </trkpt>
      <trkpt lat="62.1075" lon="17.44697">
        <ele>20.081826</ele>
        <time>2020-08-29T16:04:41.284Z</time>
      </trkpt>
      <trkpt lat="62.10745" lon="17.44746">
        <ele>20.099914</ele>
        <time>2020-08-29T16:04:45.731Z</time>
      </trkpt>
      <trkpt lat="62.10736" lon="17.45032">
        <ele>20.184501</ele>
        <time>2020-08-29T16:05:11.147Z</time>
      </trkpt>
      <trkpt lat="62.10725" lon="17.45082">
        <ele>20.186316</ele>
        <time>2020-08-29T16:05:15.994Z</time>
      </trkpt>
      <trkpt lat="62.10712" lon="17.45099">
        <ele>20.187366</ele>
        <time>2020-08-29T16:05:18.793Z</time>
      </trkpt>
      <trkpt lat="62.10707" lon="17.45099">
        <ele>20.187753</ele>
        <time>2020-08-29T16:05:19.933Z</time>
      </trkpt>
      <trkpt lat="62.10697" lon="17.45097">
        <ele>20.188467</ele>
        <time>2020-08-29T16:05:21.737Z</time>
      </trkpt>
      <trkpt lat="62.10657" lon="17.45079">
        <ele>20.191328</ele>
        <time>2020-08-29T16:05:29.245Z</time>
      </trkpt>
      <trkpt lat="62.10617" lon="17.45033">
        <ele>20.194508</ele>
        <time>2020-08-29T16:05:37.562Z</time>
      </trkpt>
      <trkpt lat="62.10584" lon="17.45007">
        <ele>20.18773</ele>
        <time>2020-08-29T16:05:43.979Z</time>
      </trkpt>
      <trkpt lat="62.10556" lon="17.45015">
        <ele>20.178644</ele>
        <time>2020-08-29T16:05:49.235Z</time>
      </trkpt>
      <trkpt lat="62.10529" lon="17.45038">
        <ele>20.169406</ele>
        <time>2020-08-29T16:05:54.577Z</time>
      </trkpt>
      <trkpt lat="62.10524" lon="17.45039">
        <ele>20.167827</ele>
        <time>2020-08-29T16:05:55.480Z</time>
      </trkpt>
      <trkpt lat="62.10519" lon="17.45034">
        <ele>20.166305</ele>
        <time>2020-08-29T16:05:56.361Z</time>
      </trkpt>
      <trkpt lat="62.10479" lon="17.44982">
        <ele>20.151543</ele>
        <time>2020-08-29T16:06:04.945Z</time>
      </trkpt>
      <trkpt lat="62.1044" lon="17.44957">
        <ele>20.138718</ele>
        <time>2020-08-29T16:06:12.581Z</time>
      </trkpt>
      <trkpt lat="62.10389" lon="17.44901">
        <ele>20.466377</ele>
        <time>2020-08-29T16:06:23.616Z</time>
      </trkpt>
      <trkpt lat="62.10378" lon="17.4488">
        <ele>20.546844</ele>
        <time>2020-08-29T16:06:26.375Z</time>
      </trkpt>
      <trkpt lat="62.10363" lon="17.4485">
        <ele>20.667816</ele>
        <time>2020-08-29T16:06:30.534Z</time>
      </trkpt>
      <trkpt lat="62.10331" lon="17.44787">
        <ele>20.914942</ele>
        <time>2020-08-29T16:06:39.180Z</time>
      </trkpt>
      <trkpt lat="62.10264" lon="17.44643">
        <ele>22.064189</ele>
        <time>2020-08-29T16:07:00.923Z</time>
      </trkpt>
      <trkpt lat="62.1023" lon="17.44548">
        <ele>23.061099</ele>
        <time>2020-08-29T16:07:14.302Z</time>
      </trkpt>
      <trkpt lat="62.10226" lon="17.44539">
        <ele>23.154385</ele>
        <time>2020-08-29T16:07:15.806Z</time>
      </trkpt>
      <trkpt lat="62.10217" lon="17.44521">
        <ele>23.382153</ele>
        <time>2020-08-29T16:07:19.150Z</time>
      </trkpt>
      <trkpt lat="62.10192" lon="17.44508">
        <ele>23.832996</ele>
        <time>2020-08-29T16:07:25.480Z</time>
      </trkpt>
      <trkpt lat="62.10157" lon="17.44513">
        <ele>24.480952</ele>
        <time>2020-08-29T16:07:34.436Z</time>
      </trkpt>
      <trkpt lat="62.10108" lon="17.44541">
        <ele>25.67944</ele>
        <time>2020-08-29T16:07:47.981Z</time>
      </trkpt>
      <trkpt lat="62.10084" lon="17.44545">
        <ele>26.242257</ele>
        <time>2020-08-29T16:07:54.436Z</time>
      </trkpt>
      <trkpt lat="62.10047" lon="17.44508">
        <ele>27.214561</ele>
        <time>2020-08-29T16:08:05.272Z</time>
      </trkpt>
      <trkpt lat="62.10014" lon="17.44459">
        <ele>28.15564</ele>
        <time>2020-08-29T16:08:15.651Z</time>
      </trkpt>
      <trkpt lat="62.09955" lon="17.44182">
        <ele>31.389739</ele>
        <time>2020-08-29T16:08:51.969Z</time>
      </trkpt>
      <trkpt lat="62.09914" lon="17.44059">
        <ele>33.000405</ele>
        <time>2020-08-29T16:09:10.605Z</time>
      </trkpt>
      <trkpt lat="62.09895" lon="17.43925">
        <ele>34.536202</ele>
        <time>2020-08-29T16:09:27.757Z</time>
      </trkpt>
      <trkpt lat="62.09888" lon="17.43898">
        <ele>34.868476</ele>
        <time>2020-08-29T16:09:31.471Z</time>
      </trkpt>
      <trkpt lat="62.0988" lon="17.43861">
        <ele>35.309235</ele>
        <time>2020-08-29T16:09:36.396Z</time>
      </trkpt>
      <trkpt lat="62.09871" lon="17.43836">
        <ele>35.669888</ele>
        <time>2020-08-29T16:09:40.357Z</time>
      </trkpt>
      <trkpt lat="62.09744" lon="17.43622">
        <ele>39.617061</ele>
        <time>2020-08-29T16:10:22.240Z</time>
      </trkpt>
      <trkpt lat="62.09662" lon="17.43589">
        <ele>41.755199</ele>
        <time>2020-08-29T16:10:45.276Z</time>
      </trkpt>
      <trkpt lat="62.09615" lon="17.43542">
        <ele>43.238795</ele>
        <time>2020-08-29T16:10:59.632Z</time>
      </trkpt>
      <trkpt lat="62.09603" lon="17.43523">
        <ele>43.677437</ele>
        <time>2020-08-29T16:11:03.842Z</time>
      </trkpt>
      <trkpt lat="62.09591" lon="17.435">
        <ele>44.141513</ele>
        <time>2020-08-29T16:11:08.559Z</time>
      </trkpt>
      <trkpt lat="62.0957" lon="17.43424">
        <ele>45.328094</ele>
        <time>2020-08-29T16:11:20.032Z</time>
      </trkpt>
      <trkpt lat="62.09559" lon="17.43202">
        <ele>47.621838</ele>
        <time>2020-08-29T16:11:48.932Z</time>
      </trkpt>
      <trkpt lat="62.09555" lon="17.43156">
        <ele>48.005477</ele>
        <time>2020-08-29T16:11:54.144Z</time>
      </trkpt>
      <trkpt lat="62.09546" lon="17.43127">
        <ele>48.281675</ele>
        <time>2020-08-29T16:11:57.872Z</time>
      </trkpt>
      <trkpt lat="62.09519" lon="17.43063">
        <ele>48.993428</ele>
        <time>2020-08-29T16:12:07.111Z</time>
      </trkpt>
      <trkpt lat="62.09415" lon="17.42944">
        <ele>49.843218</ele>
        <time>2020-08-29T16:12:31.451Z</time>
      </trkpt>
      <trkpt lat="62.09382" lon="17.42916">
        <ele>49.925553</ele>
        <time>2020-08-29T16:12:38.130Z</time>
      </trkpt>
      <trkpt lat="62.09341" lon="17.42902">
        <ele>50.020029</ele>
        <time>2020-08-29T16:12:45.598Z</time>
      </trkpt>
      <trkpt lat="62.09229" lon="17.42932">
        <ele>49.402282</ele>
        <time>2020-08-29T16:13:05.477Z</time>
      </trkpt>
      <trkpt lat="62.09156" lon="17.42911">
        <ele>48.851847</ele>
        <time>2020-08-29T16:13:17.593Z</time>
      </trkpt>
      <trkpt lat="62.09019" lon="17.42929">
        <ele>46.004688</ele>
        <time>2020-08-29T16:13:38.113Z</time>
      </trkpt>
      <trkpt lat="62.08979" lon="17.42897">
        <ele>45.04727</ele>
        <time>2020-08-29T16:13:44.036Z</time>
      </trkpt>
      <trkpt lat="62.08922" lon="17.42815">
        <ele>43.022715</ele>
        <time>2020-08-29T16:13:53.413Z</time>
      </trkpt>
      <trkpt lat="62.08893" lon="17.42797">
        <ele>42.066918</ele>
        <time>2020-08-29T16:13:57.505Z</time>
      </trkpt>
      <trkpt lat="62.08831" lon="17.42788">
        <ele>40.105907</ele>
        <time>2020-08-29T16:14:05.940Z</time>
      </trkpt>
      <trkpt lat="62.08777" lon="17.428">
        <ele>38.518735</ele>
        <time>2020-08-29T16:14:13.463Z</time>
      </trkpt>
      <trkpt lat="62.08544" lon="17.42946">
        <ele>32.744756</ele>
        <time>2020-08-29T16:14:48.610Z</time>
      </trkpt>
      <trkpt lat="62.08497" lon="17.42964">
        <ele>31.658689</ele>
        <time>2020-08-29T16:14:55.660Z</time>
      </trkpt>
      <trkpt lat="62.0848" lon="17.42959">
        <ele>31.274746</ele>
        <time>2020-08-29T16:14:58.132Z</time>
      </trkpt>
      <trkpt lat="62.08461" lon="17.42941">
        <ele>30.816145</ele>
        <time>2020-08-29T16:15:01.088Z</time>
      </trkpt>
      <trkpt lat="62.08404" lon="17.42856">
        <ele>29.096795</ele>
        <time>2020-08-29T16:15:11.118Z</time>
      </trkpt>
      <trkpt lat="62.08298" lon="17.42756">
        <ele>26.167674</ele>
        <time>2020-08-29T16:15:27.635Z</time>
      </trkpt>
      <trkpt lat="62.08237" lon="17.42638">
        <ele>24.2318</ele>
        <time>2020-08-29T16:15:39.205Z</time>
      </trkpt>
      <trkpt lat="62.08219" lon="17.42622">
        <ele>23.761634</ele>
        <time>2020-08-29T16:15:42.057Z</time>
      </trkpt>
      <trkpt lat="62.08197" lon="17.42619">
        <ele>23.248203</ele>
        <time>2020-08-29T16:15:45.168Z</time>
      </trkpt>
      <trkpt lat="62.08176" lon="17.42632">
        <ele>22.719843</ele>
        <time>2020-08-29T16:15:48.434Z</time>
      </trkpt>
      <trkpt lat="62.0815" lon="17.42671">
        <ele>21.98291</ele>
        <time>2020-08-29T16:15:53.038Z</time>
      </trkpt>
      <trkpt lat="62.08112" lon="17.42759">
        <ele>21.139911</ele>
        <time>2020-08-29T16:16:01.497Z</time>
      </trkpt>
      <trkpt lat="62.0808" lon="17.42848">
        <ele>20.441625</ele>
        <time>2020-08-29T16:16:09.646Z</time>
      </trkpt>
      <trkpt lat="62.08034" lon="17.43042">
        <ele>19.25922</ele>
        <time>2020-08-29T16:16:26.108Z</time>
      </trkpt>
      <trkpt lat="62.07985" lon="17.4332">
        <ele>18.574789</ele>
        <time>2020-08-29T16:16:49.982Z</time>
      </trkpt>
      <trkpt lat="62.07973" lon="17.43357">
        <ele>18.512562</ele>
        <time>2020-08-29T16:16:53.817Z</time>
      </trkpt>
      <trkpt lat="62.07948" lon="17.43385">
        <ele>18.922853</ele>
        <time>2020-08-29T16:16:59.338Z</time>
      </trkpt>
      <trkpt lat="62.07938" lon="17.43386">
        <ele>19.077781</ele>
        <time>2020-08-29T16:17:01.249Z</time>
      </trkpt>
      <trkpt lat="62.07902" lon="17.43387">
        <ele>19.610217</ele>
        <time>2020-08-29T16:17:08.765Z</time>
      </trkpt>
      <trkpt lat="62.07869" lon="17.43388">
        <ele>20.111434</ele>
        <time>2020-08-29T16:17:16.465Z</time>
      </trkpt>
      <trkpt lat="62.07849" lon="17.43388">
        <ele>20.402945</ele>
        <time>2020-08-29T16:17:21.490Z</time>
      </trkpt>
      <trkpt lat="62.078" lon="17.43376">
        <ele>21.142984</ele>
        <time>2020-08-29T16:17:34.698Z</time>
      </trkpt>
      <trkpt lat="62.07767" lon="17.43333">
        <ele>22.7745</ele>
        <time>2020-08-29T16:17:46.225Z</time>
      </trkpt>
      <trkpt lat="62.0774" lon="17.43267">
        <ele>24.538519</ele>
        <time>2020-08-29T16:17:59.441Z</time>
      </trkpt>
      <trkpt lat="62.07722" lon="17.43165">
        <ele>26.737805</ele>
        <time>2020-08-29T16:18:16.676Z</time>
      </trkpt>
      <trkpt lat="62.07708" lon="17.43129">
        <ele>27.697001</ele>
        <time>2020-08-29T16:18:24.357Z</time>
      </trkpt>
      <trkpt lat="62.07644" lon="17.43033">
        <ele>30.696399</ele>
        <time>2020-08-29T16:18:51.768Z</time>
      </trkpt>
      <trkpt lat="62.07581" lon="17.42853">
        <ele>34.489048</ele>
        <time>2020-08-29T16:19:24.165Z</time>
      </trkpt>
      <trkpt lat="62.07562" lon="17.42829">
        <ele>35.30036</ele>
        <time>2020-08-29T16:19:29.782Z</time>
      </trkpt>
      <trkpt lat="62.07481" lon="17.42782">
        <ele>34.302915</ele>
        <time>2020-08-29T16:19:45.947Z</time>
      </trkpt>
      <trkpt lat="62.07437" lon="17.42726">
        <ele>33.598342</ele>
        <time>2020-08-29T16:19:53.543Z</time>
      </trkpt>
      <trkpt lat="62.07407" lon="17.42664">
        <ele>33.028547</ele>
        <time>2020-08-29T16:19:59.146Z</time>
      </trkpt>
      <trkpt lat="62.07391" lon="17.42578">
        <ele>30.992543</ele>
        <time>2020-08-29T16:20:04.684Z</time>
      </trkpt>
      <trkpt lat="62.07373" lon="17.42542">
        <ele>29.679906</ele>
        <time>2020-08-29T16:20:07.830Z</time>
      </trkpt>
      <trkpt lat="62.07314" lon="17.42481">
        <ele>26.224585</ele>
        <time>2020-08-29T16:20:15.993Z</time>
      </trkpt>
      <trkpt lat="62.07293" lon="17.42484">
        <ele>25.126871</ele>
        <time>2020-08-29T16:20:18.573Z</time>
      </trkpt>
      <trkpt lat="62.07252" lon="17.42511">
        <ele>22.910088</ele>
        <time>2020-08-29T16:20:23.902Z</time>
      </trkpt>
      <trkpt lat="62.07225" lon="17.42512">
        <ele>21.607091</ele>
        <time>2020-08-29T16:20:27.261Z</time>
      </trkpt>
      <trkpt lat="62.07119" lon="17.4248">
        <ele>16.403108</ele>
        <time>2020-08-29T16:20:40.907Z</time>
      </trkpt>
      <trkpt lat="62.07053" lon="17.42438">
        <ele>13.852978</ele>
        <time>2020-08-29T16:20:50.177Z</time>
      </trkpt>
      <trkpt lat="62.07042" lon="17.42433">
        <ele>13.571079</ele>
        <time>2020-08-29T16:20:51.583Z</time>
      </trkpt>
      <trkpt lat="62.07031" lon="17.42427">
        <ele>13.273062</ele>
        <time>2020-08-29T16:20:53.187Z</time>
      </trkpt>
      <trkpt lat="62.07013" lon="17.42421">
        <ele>12.801576</ele>
        <time>2020-08-29T16:20:55.762Z</time>
      </trkpt>
      <trkpt lat="62.06986" lon="17.42429">
        <ele>12.089329</ele>
        <time>2020-08-29T16:20:59.679Z</time>
      </trkpt>
      <trkpt lat="62.06969" lon="17.42442">
        <ele>11.610058</ele>
        <time>2020-08-29T16:21:02.266Z</time>
      </trkpt>
      <trkpt lat="62.06938" lon="17.42493">
        <ele>10.577725</ele>
        <time>2020-08-29T16:21:08.151Z</time>
      </trkpt>
      <trkpt lat="62.06924" lon="17.42516">
        <ele>10.12244</ele>
        <time>2020-08-29T16:21:10.934Z</time>
      </trkpt>
      <trkpt lat="62.06906" lon="17.42546">
        <ele>9.815006</ele>
        <time>2020-08-29T16:21:14.353Z</time>
      </trkpt>
      <trkpt lat="62.06866" lon="17.42599">
        <ele>9.252121</ele>
        <time>2020-08-29T16:21:21.996Z</time>
      </trkpt>
      <trkpt lat="62.06838" lon="17.4265">
        <ele>8.812401</ele>
        <time>2020-08-29T16:21:27.892Z</time>
      </trkpt>
      <trkpt lat="62.06806" lon="17.42679">
        <ele>8.393067</ele>
        <time>2020-08-29T16:21:33.430Z</time>
      </trkpt>
      <trkpt lat="62.06769" lon="17.42687">
        <ele>7.942848</ele>
        <time>2020-08-29T16:21:39.370Z</time>
      </trkpt>
      <trkpt lat="62.06679" lon="17.42667">
        <ele>7.311267</ele>
        <time>2020-08-29T16:21:54.143Z</time>
      </trkpt>
      <trkpt lat="62.06666" lon="17.42665">
        <ele>7.226169</ele>
        <time>2020-08-29T16:21:56.170Z</time>
      </trkpt>
      <trkpt lat="62.0666" lon="17.42662">
        <ele>7.179475</ele>
        <time>2020-08-29T16:21:57.286Z</time>
      </trkpt>
      <trkpt lat="62.06642" lon="17.42653">
        <ele>7.057328</ele>
        <time>2020-08-29T16:22:00.435Z</time>
      </trkpt>
      <trkpt lat="62.06608" lon="17.42613">
        <ele>6.793165</ele>
        <time>2020-08-29T16:22:07.137Z</time>
      </trkpt>
      <trkpt lat="62.0657" lon="17.42556">
        <ele>6.857938</ele>
        <time>2020-08-29T16:22:15.521Z</time>
      </trkpt>
      <trkpt lat="62.06565" lon="17.42547">
        <ele>6.899573</ele>
        <time>2020-08-29T16:22:16.876Z</time>
      </trkpt>
      <trkpt lat="62.06542" lon="17.42509">
        <ele>7.06961</ele>
        <time>2020-08-29T16:22:22.744Z</time>
      </trkpt>
      <trkpt lat="62.06511" lon="17.42456">
        <ele>7.30354</ele>
        <time>2020-08-29T16:22:31.429Z</time>
      </trkpt>
      <trkpt lat="62.06481" lon="17.42366">
        <ele>7.606864</ele>
        <time>2020-08-29T16:22:42.581Z</time>
      </trkpt>
      <trkpt lat="62.06472" lon="17.42347">
        <ele>7.683089</ele>
        <time>2020-08-29T16:22:45.325Z</time>
      </trkpt>
      <trkpt lat="62.06461" lon="17.42319">
        <ele>7.74304</ele>
        <time>2020-08-29T16:22:49.045Z</time>
      </trkpt>
      <trkpt lat="62.06453" lon="17.42292">
        <ele>7.751846</ele>
        <time>2020-08-29T16:22:52.112Z</time>
      </trkpt>
      <trkpt lat="62.06442" lon="17.42233">
        <ele>7.769954</ele>
        <time>2020-08-29T16:22:58.310Z</time>
      </trkpt>
      <trkpt lat="62.06427" lon="17.42158">
        <ele>7.793158</ele>
        <time>2020-08-29T16:23:05.772Z</time>
      </trkpt>
      <trkpt lat="62.06414" lon="17.42163">
        <ele>7.801353</ele>
        <time>2020-08-29T16:23:08.857Z</time>
      </trkpt>
      <trkpt lat="62.0636" lon="17.42205">
        <ele>7.836378</ele>
        <time>2020-08-29T16:23:22.193Z</time>
      </trkpt>
      <trkpt lat="62.06306" lon="17.423">
        <ele>7.222259</ele>
        <time>2020-08-29T16:23:36.800Z</time>
      </trkpt>
      <trkpt lat="62.06303" lon="17.42301">
        <ele>7.179458</ele>
        <time>2020-08-29T16:23:37.428Z</time>
      </trkpt>
      <trkpt lat="62.0629" lon="17.423">
        <ele>7.020066</ele>
        <time>2020-08-29T16:23:40.060Z</time>
      </trkpt>
      <trkpt lat="62.06285" lon="17.42299">
        <ele>6.960386</ele>
        <time>2020-08-29T16:23:41.062Z</time>
      </trkpt>
      <trkpt lat="62.06276" lon="17.42287">
        <ele>6.828492</ele>
        <time>2020-08-29T16:23:43.299Z</time>
      </trkpt>
      <trkpt lat="62.06257" lon="17.42252">
        <ele>6.534021</ele>
        <time>2020-08-29T16:23:48.206Z</time>
      </trkpt>
      <trkpt lat="62.0625" lon="17.4222">
        <ele>6.325051</ele>
        <time>2020-08-29T16:23:51.673Z</time>
      </trkpt>
      <trkpt lat="62.06238" lon="17.42159">
        <ele>5.951428</ele>
        <time>2020-08-29T16:23:57.986Z</time>
      </trkpt>
      <trkpt lat="62.0624" lon="17.42233">
        <ele>5.545771</ele>
        <time>2020-08-29T16:24:03.378Z</time>
      </trkpt>
      <trkpt lat="62.0622" lon="17.42307">
        <ele>5.115424</ele>
        <time>2020-08-29T16:24:09.569Z</time>
      </trkpt>
      <trkpt lat="62.06205" lon="17.42329">
        <ele>4.919542</ele>
        <time>2020-08-29T16:24:12.455Z</time>
      </trkpt>
      <trkpt lat="62.06144" lon="17.42469">
        <ele>3.950324</ele>
        <time>2020-08-29T16:24:26.939Z</time>
      </trkpt>
      <trkpt lat="62.06113" lon="17.42559">
        <ele>3.752641</ele>
        <time>2020-08-29T16:24:35.650Z</time>
      </trkpt>
      <trkpt lat="62.06081" lon="17.42606">
        <ele>3.795695</ele>
        <time>2020-08-29T16:24:42.076Z</time>
      </trkpt>
      <trkpt lat="62.06024" lon="17.42673">
        <ele>3.868158</ele>
        <time>2020-08-29T16:24:53.885Z</time>
      </trkpt>
      <trkpt lat="62.05987" lon="17.42701">
        <ele>3.912235</ele>
        <time>2020-08-29T16:25:02.069Z</time>
      </trkpt>
      <trkpt lat="62.05953" lon="17.42711">
        <ele>4.592091</ele>
        <time>2020-08-29T16:25:09.591Z</time>
      </trkpt>
      <trkpt lat="62.05873" lon="17.42728">
        <ele>6.456954</ele>
        <time>2020-08-29T16:25:28.930Z</time>
      </trkpt>
      <trkpt lat="62.0584" lon="17.42734">
        <ele>7.231774</ele>
        <time>2020-08-29T16:25:37.969Z</time>
      </trkpt>
      <trkpt lat="62.05796" lon="17.42748">
        <ele>8.378059</ele>
        <time>2020-08-29T16:25:50.987Z</time>
      </trkpt>
      <trkpt lat="62.05763" lon="17.42776">
        <ele>9.715663</ele>
        <time>2020-08-29T16:26:01.670Z</time>
      </trkpt>
      <trkpt lat="62.0567" lon="17.42875">
        <ele>13.614352</ele>
        <time>2020-08-29T16:26:33.195Z</time>
      </trkpt>
      <trkpt lat="62.05333" lon="17.43253">
        <ele>27.427335</ele>
        <time>2020-08-29T16:28:25.016Z</time>
      </trkpt>
      <trkpt lat="62.05286" lon="17.43301">
        <ele>29.342477</ele>
        <time>2020-08-29T16:28:40.630Z</time>
      </trkpt>
      <trkpt lat="62.05211" lon="17.43353">
        <ele>32.259352</ele>
        <time>2020-08-29T16:29:04.477Z</time>
      </trkpt>
      <trkpt lat="62.05133" lon="17.43374">
        <ele>34.940723</ele>
        <time>2020-08-29T16:29:27.611Z</time>
      </trkpt>
      <trkpt lat="62.0509" lon="17.43375">
        <ele>36.01809</ele>
        <time>2020-08-29T16:29:39.708Z</time>
      </trkpt>
      <trkpt lat="62.05021" lon="17.4336">
        <ele>37.738464</ele>
        <time>2020-08-29T16:29:57.558Z</time>
      </trkpt>
      <trkpt lat="62.04947" lon="17.43316">
        <ele>39.195423</ele>
        <time>2020-08-29T16:30:15.509Z</time>
      </trkpt>
      <trkpt lat="62.04811" lon="17.43208">
        <ele>40.252778</ele>
        <time>2020-08-29T16:30:43.877Z</time>
      </trkpt>
      <trkpt lat="62.04795" lon="17.43196">
        <ele>40.272714</ele>
        <time>2020-08-29T16:30:47.019Z</time>
      </trkpt>
      <trkpt lat="62.04765" lon="17.43172">
        <ele>40.096416</ele>
        <time>2020-08-29T16:30:52.504Z</time>
      </trkpt>
      <trkpt lat="62.04703" lon="17.43125">
        <ele>39.728003</ele>
        <time>2020-08-29T16:31:03.537Z</time>
      </trkpt>
      <trkpt lat="62.04678" lon="17.43107">
        <ele>39.586326</ele>
        <time>2020-08-29T16:31:07.604Z</time>
      </trkpt>
      <trkpt lat="62.04631" lon="17.43069">
        <ele>39.283581</ele>
        <time>2020-08-29T16:31:15.458Z</time>
      </trkpt>
      <trkpt lat="62.04211" lon="17.42738">
        <ele>32.648617</ele>
        <time>2020-08-29T16:32:21.810Z</time>
      </trkpt>
      <trkpt lat="62.04136" lon="17.42678">
        <ele>31.196683</ele>
        <time>2020-08-29T16:32:33.023Z</time>
      </trkpt>
      <trkpt lat="62.04091" lon="17.42642">
        <ele>30.042652</ele>
        <time>2020-08-29T16:32:39.558Z</time>
      </trkpt>
      <trkpt lat="62.03828" lon="17.42435">
        <ele>22.592038</ele>
        <time>2020-08-29T16:33:17.374Z</time>
      </trkpt>
      <trkpt lat="62.03486" lon="17.42193">
        <ele>11.885279</ele>
        <time>2020-08-29T16:34:05.180Z</time>
      </trkpt>
      <trkpt lat="62.03456" lon="17.42169">
        <ele>10.931026</ele>
        <time>2020-08-29T16:34:09.204Z</time>
      </trkpt>
      <trkpt lat="62.03421" lon="17.42119">
        <ele>9.778056</ele>
        <time>2020-08-29T16:34:14.791Z</time>
      </trkpt>
      <trkpt lat="62.03403" lon="17.42086">
        <ele>9.145064</ele>
        <time>2020-08-29T16:34:17.892Z</time>
      </trkpt>
      <trkpt lat="62.03417" lon="17.42056">
        <ele>8.610931</ele>
        <time>2020-08-29T16:34:20.593Z</time>
      </trkpt>
      <trkpt lat="62.0344" lon="17.4199">
        <ele>7.598085</ele>
        <time>2020-08-29T16:34:25.705Z</time>
      </trkpt>
      <trkpt lat="62.03461" lon="17.41849">
        <ele>5.909184</ele>
        <time>2020-08-29T16:34:35.251Z</time>
      </trkpt>
      <trkpt lat="62.03472" lon="17.41787">
        <ele>5.751446</ele>
        <time>2020-08-29T16:34:39.841Z</time>
      </trkpt>
      <trkpt lat="62.03429" lon="17.41726">
        <ele>5.490202</ele>
        <time>2020-08-29T16:34:48.756Z</time>
      </trkpt>
      <trkpt lat="62.03411" lon="17.41699">
        <ele>5.378178</ele>
        <time>2020-08-29T16:34:52.714Z</time>
      </trkpt>
      <trkpt lat="62.03342" lon="17.41596">
        <ele>5.185422</ele>
        <time>2020-08-29T16:35:09.076Z</time>
      </trkpt>
      <trkpt lat="62.03337" lon="17.41588">
        <ele>5.242359</ele>
        <time>2020-08-29T16:35:10.302Z</time>
      </trkpt>
      <trkpt lat="62.03287" lon="17.41514">
        <ele>5.823849</ele>
        <time>2020-08-29T16:35:23.361Z</time>
      </trkpt>
      <trkpt lat="62.03262" lon="17.41474">
        <ele>6.116529</ele>
        <time>2020-08-29T16:35:30.139Z</time>
      </trkpt>
      <trkpt lat="62.03255" lon="17.41462">
        <ele>6.202218</ele>
        <time>2020-08-29T16:35:32.323Z</time>
      </trkpt>
      <trkpt lat="62.03206" lon="17.41354">
        <ele>6.874193</ele>
        <time>2020-08-29T16:35:48.387Z</time>
      </trkpt>
      <trkpt lat="62.03187" lon="17.41297">
        <ele>7.195757</ele>
        <time>2020-08-29T16:35:55.852Z</time>
      </trkpt>
      <trkpt lat="62.03143" lon="17.41156">
        <ele>7.975686</ele>
        <time>2020-08-29T16:36:13.406Z</time>
      </trkpt>
      <trkpt lat="62.03103" lon="17.41023">
        <ele>8.563904</ele>
        <time>2020-08-29T16:36:28.807Z</time>
      </trkpt>
      <trkpt lat="62.03037" lon="17.40806">
        <ele>8.914402</ele>
        <time>2020-08-29T16:36:52.321Z</time>
      </trkpt>
      <trkpt lat="62.02987" lon="17.40674">
        <ele>9.029429</ele>
        <time>2020-08-29T16:37:07.121Z</time>
      </trkpt>
      <trkpt lat="62.02961" lon="17.40621">
        <ele>9.031967</ele>
        <time>2020-08-29T16:37:13.819Z</time>
      </trkpt>
      <trkpt lat="62.02925" lon="17.40568">
        <ele>9.035033</ele>
        <time>2020-08-29T16:37:21.942Z</time>
      </trkpt>
      <trkpt lat="62.02789" lon="17.40401">
        <ele>9.143397</ele>
        <time>2020-08-29T16:37:51.380Z</time>
      </trkpt>
      <trkpt lat="62.02725" lon="17.40344">
        <ele>9.217047</ele>
        <time>2020-08-29T16:38:04.576Z</time>
      </trkpt>
      <trkpt lat="62.02701" lon="17.40335">
        <ele>9.248308</ele>
        <time>2020-08-29T16:38:09.183Z</time>
      </trkpt>
      <trkpt lat="62.02651" lon="17.40338">
        <ele>9.325015</ele>
        <time>2020-08-29T16:38:18.719Z</time>
      </trkpt>
      <trkpt lat="62.02598" lon="17.40375">
        <ele>9.4105</ele>
        <time>2020-08-29T16:38:29.384Z</time>
      </trkpt>
      <trkpt lat="62.02339" lon="17.40665">
        <ele>9.869159</ele>
        <time>2020-08-29T16:39:25.354Z</time>
      </trkpt>
      <trkpt lat="62.02314" lon="17.40683">
        <ele>9.894768</ele>
        <time>2020-08-29T16:39:30.388Z</time>
      </trkpt>
      <trkpt lat="62.02276" lon="17.40706">
        <ele>9.932026</ele>
        <time>2020-08-29T16:39:37.701Z</time>
      </trkpt>
      <trkpt lat="62.02228" lon="17.40726">
        <ele>9.978792</ele>
        <time>2020-08-29T16:39:46.841Z</time>
      </trkpt>
      <trkpt lat="62.02165" lon="17.40734">
        <ele>10.00052</ele>
        <time>2020-08-29T16:39:58.499Z</time>
      </trkpt>
      <trkpt lat="62.02098" lon="17.40729">
        <ele>10.011206</ele>
        <time>2020-08-29T16:40:10.747Z</time>
      </trkpt>
      <trkpt lat="62.02045" lon="17.40723">
        <ele>10.019675</ele>
        <time>2020-08-29T16:40:20.436Z</time>
      </trkpt>
      <trkpt lat="62.02002" lon="17.40714">
        <ele>10.513265</ele>
        <time>2020-08-29T16:40:28.673Z</time>
      </trkpt>
      <trkpt lat="62.01921" lon="17.40669">
        <ele>11.818117</ele>
        <time>2020-08-29T16:40:48.474Z</time>
      </trkpt>
      <trkpt lat="62.0189" lon="17.40647">
        <ele>12.319268</ele>
        <time>2020-08-29T16:40:56.584Z</time>
      </trkpt>
      <trkpt lat="62.01858" lon="17.4061">
        <ele>12.952327</ele>
        <time>2020-08-29T16:41:06.211Z</time>
      </trkpt>
      <trkpt lat="62.01824" lon="17.40568">
        <ele>14.105447</ele>
        <time>2020-08-29T16:41:17.114Z</time>
      </trkpt>
      <trkpt lat="62.01732" lon="17.4041">
        <ele>17.564155</ele>
        <time>2020-08-29T16:41:51.414Z</time>
      </trkpt>
      <trkpt lat="62.01682" lon="17.40316">
        <ele>19.308156</ele>
        <time>2020-08-29T16:42:09.275Z</time>
      </trkpt>
      <trkpt lat="62.0164" lon="17.40241">
        <ele>20.679579</ele>
        <time>2020-08-29T16:42:23.493Z</time>
      </trkpt>
      <trkpt lat="62.01573" lon="17.40159">
        <ele>22.621739</ele>
        <time>2020-08-29T16:42:43.848Z</time>
      </trkpt>
      <trkpt lat="62.01539" lon="17.40137">
        <ele>23.58392</ele>
        <time>2020-08-29T16:42:53.465Z</time>
      </trkpt>
      <trkpt lat="62.01482" lon="17.40124">
        <ele>25.085657</ele>
        <time>2020-08-29T16:43:08.669Z</time>
      </trkpt>
      <trkpt lat="62.01312" lon="17.40123">
        <ele>29.257873</ele>
        <time>2020-08-29T16:43:55.506Z</time>
      </trkpt>
      <trkpt lat="62.01292" lon="17.40123">
        <ele>29.71132</ele>
        <time>2020-08-29T16:44:00.786Z</time>
      </trkpt>
      <trkpt lat="62.01237" lon="17.40116">
        <ele>30.941966</ele>
        <time>2020-08-29T16:44:14.225Z</time>
      </trkpt>
      <trkpt lat="62.01202" lon="17.40097">
        <ele>31.532246</ele>
        <time>2020-08-29T16:44:22.685Z</time>
      </trkpt>
      <trkpt lat="62.01172" lon="17.40068">
        <ele>31.827067</ele>
        <time>2020-08-29T16:44:30.096Z</time>
      </trkpt>
      <trkpt lat="62.01145" lon="17.40028">
        <ele>32.119879</ele>
        <time>2020-08-29T16:44:37.247Z</time>
      </trkpt>
      <trkpt lat="62.00905" lon="17.39536">
        <ele>33.32285</ele>
        <time>2020-08-29T16:45:44.811Z</time>
      </trkpt>
      <trkpt lat="62.00861" lon="17.39468">
        <ele>32.765089</ele>
        <time>2020-08-29T16:45:54.092Z</time>
      </trkpt>
      <trkpt lat="62.008" lon="17.39399">
        <ele>32.066949</ele>
        <time>2020-08-29T16:46:04.343Z</time>
      </trkpt>
      <trkpt lat="62.00624" lon="17.39191">
        <ele>24.686797</ele>
        <time>2020-08-29T16:46:30.850Z</time>
      </trkpt>
      <trkpt lat="62.00582" lon="17.3916">
        <ele>23.367799</ele>
        <time>2020-08-29T16:46:36.772Z</time>
      </trkpt>
      <trkpt lat="62.00535" lon="17.39136">
        <ele>21.929915</ele>
        <time>2020-08-29T16:46:43.352Z</time>
      </trkpt>
      <trkpt lat="61.99945" lon="17.3894">
        <ele>9.884891</ele>
        <time>2020-08-29T16:48:12.239Z</time>
      </trkpt>
      <trkpt lat="61.99907" lon="17.38927">
        <ele>9.473224</ele>
        <time>2020-08-29T16:48:18.318Z</time>
      </trkpt>
      <trkpt lat="61.99901" lon="17.38925">
        <ele>9.428992</ele>
        <time>2020-08-29T16:48:19.097Z</time>
      </trkpt>
      <trkpt lat="61.99848" lon="17.38903">
        <ele>8.980441</ele>
        <time>2020-08-29T16:48:27.966Z</time>
      </trkpt>
      <trkpt lat="61.99774" lon="17.38847">
        <ele>8.337488</ele>
        <time>2020-08-29T16:48:41.263Z</time>
      </trkpt>
      <trkpt lat="61.99677" lon="17.38729">
        <ele>8.361798</ele>
        <time>2020-08-29T16:49:02.388Z</time>
      </trkpt>
      <trkpt lat="61.99611" lon="17.38629">
        <ele>8.467467</ele>
        <time>2020-08-29T16:49:18.215Z</time>
      </trkpt>
      <trkpt lat="61.99581" lon="17.38579">
        <ele>8.520585</ele>
        <time>2020-08-29T16:49:25.698Z</time>
      </trkpt>
      <trkpt lat="61.99469" lon="17.38424">
        <ele>8.706325</ele>
        <time>2020-08-29T16:49:51.321Z</time>
      </trkpt>
      <trkpt lat="61.99194" lon="17.3802">
        <ele>7.946726</ele>
        <time>2020-08-29T16:50:51.307Z</time>
      </trkpt>
      <trkpt lat="61.99142" lon="17.37944">
        <ele>7.652428</ele>
        <time>2020-08-29T16:51:01.972Z</time>
      </trkpt>
      <trkpt lat="61.99108" lon="17.37896">
        <ele>7.395848</ele>
        <time>2020-08-29T16:51:08.750Z</time>
      </trkpt>
      <trkpt lat="61.98986" lon="17.37725">
        <ele>6.752127</ele>
        <time>2020-08-29T16:51:33.243Z</time>
      </trkpt>
      <trkpt lat="61.98952" lon="17.37706">
        <ele>6.795436</ele>
        <time>2020-08-29T16:51:39.779Z</time>
      </trkpt>
      <trkpt lat="61.98904" lon="17.37714">
        <ele>6.854249</ele>
        <time>2020-08-29T16:51:49.087Z</time>
      </trkpt>
      <trkpt lat="61.98871" lon="17.37726">
        <ele>6.895418</ele>
        <time>2020-08-29T16:51:55.944Z</time>
      </trkpt>
      <trkpt lat="61.98779" lon="17.37768">
        <ele>7.480824</ele>
        <time>2020-08-29T16:52:15.809Z</time>
      </trkpt>
      <trkpt lat="61.98762" lon="17.37776">
        <ele>7.618087</ele>
        <time>2020-08-29T16:52:19.506Z</time>
      </trkpt>
      <trkpt lat="61.9873" lon="17.37791">
        <ele>7.886621</ele>
        <time>2020-08-29T16:52:26.680Z</time>
      </trkpt>
      <trkpt lat="61.98677" lon="17.37839">
        <ele>8.362077</ele>
        <time>2020-08-29T16:52:39.142Z</time>
      </trkpt>
      <trkpt lat="61.9863" lon="17.37899">
        <ele>8.437692</ele>
        <time>2020-08-29T16:52:50.237Z</time>
      </trkpt>
      <trkpt lat="61.98487" lon="17.38094">
        <ele>8.319253</ele>
        <time>2020-08-29T16:53:21.062Z</time>
      </trkpt>
      <trkpt lat="61.98423" lon="17.38187">
        <ele>7.876876</ele>
        <time>2020-08-29T16:53:34.212Z</time>
      </trkpt>
      <trkpt lat="61.98292" lon="17.38396">
        <ele>6.741546</ele>
        <time>2020-08-29T16:54:01.096Z</time>
      </trkpt>
      <trkpt lat="61.9825" lon="17.38438">
        <ele>6.381663</ele>
        <time>2020-08-29T16:54:08.848Z</time>
      </trkpt>
      <trkpt lat="61.9818" lon="17.38492">
        <ele>6.211</ele>
        <time>2020-08-29T16:54:21.733Z</time>
      </trkpt>
      <trkpt lat="61.98126" lon="17.38496">
        <ele>6.296577</ele>
        <time>2020-08-29T16:54:31.567Z</time>
      </trkpt>
      <trkpt lat="61.98101" lon="17.38486">
        <ele>6.339006</ele>
        <time>2020-08-29T16:54:36.716Z</time>
      </trkpt>
      <trkpt lat="61.97951" lon="17.38375">
        <ele>7.4065</ele>
        <time>2020-08-29T16:55:10.673Z</time>
      </trkpt>
      <trkpt lat="61.97831" lon="17.38302">
        <ele>8.423815</ele>
        <time>2020-08-29T16:55:38.001Z</time>
      </trkpt>
      <trkpt lat="61.97789" lon="17.383">
        <ele>8.661692</ele>
        <time>2020-08-29T16:55:46.768Z</time>
      </trkpt>
      <trkpt lat="61.97733" lon="17.38316">
        <ele>8.984119</ele>
        <time>2020-08-29T16:55:58.134Z</time>
      </trkpt>
      <trkpt lat="61.97657" lon="17.38339">
        <ele>9.045423</ele>
        <time>2020-08-29T16:56:12.610Z</time>
      </trkpt>
      <trkpt lat="61.97499" lon="17.38378">
        <ele>8.43912</ele>
        <time>2020-08-29T16:56:40.086Z</time>
      </trkpt>
      <trkpt lat="61.97486" lon="17.3838">
        <ele>8.359987</ele>
        <time>2020-08-29T16:56:42.088Z</time>
      </trkpt>
      <trkpt lat="61.97374" lon="17.38403">
        <ele>7.635735</ele>
        <time>2020-08-29T16:57:01.030Z</time>
      </trkpt>
      <trkpt lat="61.97349" lon="17.38403">
        <ele>7.479468</ele>
        <time>2020-08-29T16:57:05.142Z</time>
      </trkpt>
      <trkpt lat="61.97331" lon="17.38403">
        <ele>7.404243</ele>
        <time>2020-08-29T16:57:08.161Z</time>
      </trkpt>
      <trkpt lat="61.97288" lon="17.38398">
        <ele>7.31743</ele>
        <time>2020-08-29T16:57:15.522Z</time>
      </trkpt>
      <trkpt lat="61.96979" lon="17.38221">
        <ele>7.376338</ele>
        <time>2020-08-29T16:58:14.665Z</time>
      </trkpt>
      <trkpt lat="61.96945" lon="17.38193">
        <ele>7.780171</ele>
        <time>2020-08-29T16:58:23.414Z</time>
      </trkpt>
      <trkpt lat="61.96903" lon="17.38146">
        <ele>8.291008</ele>
        <time>2020-08-29T16:58:34.295Z</time>
      </trkpt>
      <trkpt lat="61.96857" lon="17.38089">
        <ele>8.869249</ele>
        <time>2020-08-29T16:58:46.519Z</time>
      </trkpt>
      <trkpt lat="61.9685" lon="17.38081">
        <ele>8.957544</ele>
        <time>2020-08-29T16:58:48.387Z</time>
      </trkpt>
      <trkpt lat="61.96767" lon="17.37978">
        <ele>9.190673</ele>
        <time>2020-08-29T16:59:08.879Z</time>
      </trkpt>
      <trkpt lat="61.96728" lon="17.37916">
        <ele>9.184676</ele>
        <time>2020-08-29T16:59:17.712Z</time>
      </trkpt>
      <trkpt lat="61.96705" lon="17.37865">
        <ele>9.18059</ele>
        <time>2020-08-29T16:59:23.038Z</time>
      </trkpt>
      <trkpt lat="61.96687" lon="17.37817">
        <ele>9.156814</ele>
        <time>2020-08-29T16:59:27.630Z</time>
      </trkpt>
      <trkpt lat="61.96655" lon="17.37691">
        <ele>8.862769</ele>
        <time>2020-08-29T16:59:38.732Z</time>
      </trkpt>
      <trkpt lat="61.966" lon="17.37426">
        <ele>8.431155</ele>
        <time>2020-08-29T17:00:03.405Z</time>
      </trkpt>
      <trkpt lat="61.96581" lon="17.37375">
        <ele>8.469851</ele>
        <time>2020-08-29T17:00:09.194Z</time>
      </trkpt>
      <trkpt lat="61.96562" lon="17.37341">
        <ele>8.503015</ele>
        <time>2020-08-29T17:00:14.157Z</time>
      </trkpt>
      <trkpt lat="61.96369" lon="17.37095">
        <ele>8.720867</ele>
        <time>2020-08-29T17:00:57.062Z</time>
      </trkpt>
      <trkpt lat="61.96331" lon="17.37033">
        <ele>8.755228</ele>
        <time>2020-08-29T17:01:05.853Z</time>
      </trkpt>
      <trkpt lat="61.96294" lon="17.36922">
        <ele>8.690937</ele>
        <time>2020-08-29T17:01:17.450Z</time>
      </trkpt>
      <trkpt lat="61.96242" lon="17.36598">
        <ele>8.57808</ele>
        <time>2020-08-29T17:01:46.759Z</time>
      </trkpt>
      <trkpt lat="61.96221" lon="17.3648">
        <ele>8.603354</ele>
        <time>2020-08-29T17:01:57.748Z</time>
      </trkpt>
      <trkpt lat="61.96178" lon="17.36229">
        <ele>8.78536</ele>
        <time>2020-08-29T17:02:21.809Z</time>
      </trkpt>
      <trkpt lat="61.96063" lon="17.35725">
        <ele>9.730465</ele>
        <time>2020-08-29T17:03:14.126Z</time>
      </trkpt>
      <trkpt lat="61.95976" lon="17.3535">
        <ele>10.22937</ele>
        <time>2020-08-29T17:03:53.385Z</time>
      </trkpt>
      <trkpt lat="61.95948" lon="17.35243">
        <ele>10.00412</ele>
        <time>2020-08-29T17:04:03.598Z</time>
      </trkpt>
      <trkpt lat="61.95859" lon="17.34931">
        <ele>7.787372</ele>
        <time>2020-08-29T17:04:30.466Z</time>
      </trkpt>
      <trkpt lat="61.95839" lon="17.34843">
        <ele>6.688659</ele>
        <time>2020-08-29T17:04:37.111Z</time>
      </trkpt>
      <trkpt lat="61.95804" lon="17.3464">
        <ele>4.253593</ele>
        <time>2020-08-29T17:04:51.349Z</time>
      </trkpt>
      <trkpt lat="61.95783" lon="17.34532">
        <ele>3.226202</ele>
        <time>2020-08-29T17:04:59.188Z</time>
      </trkpt>
      <trkpt lat="61.95775" lon="17.34474">
        <ele>2.750203</ele>
        <time>2020-08-29T17:05:03.367Z</time>
      </trkpt>
      <trkpt lat="61.95768" lon="17.34425">
        <ele>2.350011</ele>
        <time>2020-08-29T17:05:06.983Z</time>
      </trkpt>
      <trkpt lat="61.95765" lon="17.34366">
        <ele>1.888924</ele>
        <time>2020-08-29T17:05:11.284Z</time>
      </trkpt>
      <trkpt lat="61.95765" lon="17.34345">
        <ele>1.722847</ele>
        <time>2020-08-29T17:05:12.803Z</time>
      </trkpt>
      <trkpt lat="61.95765" lon="17.34315">
        <ele>1.485971</ele>
        <time>2020-08-29T17:05:15.018Z</time>
      </trkpt>
      <trkpt lat="61.95765" lon="17.34287">
        <ele>1.266324</ele>
        <time>2020-08-29T17:05:17.289Z</time>
      </trkpt>
      <trkpt lat="61.9576" lon="17.34244">
        <ele>0.917193</ele>
        <time>2020-08-29T17:05:20.659Z</time>
      </trkpt>
      <trkpt lat="61.95752" lon="17.34209">
        <ele>0.990881</ele>
        <time>2020-08-29T17:05:23.930Z</time>
      </trkpt>
      <trkpt lat="61.9574" lon="17.34152">
        <ele>1.184526</ele>
        <time>2020-08-29T17:05:29.415Z</time>
      </trkpt>
      <trkpt lat="61.95737" lon="17.34131">
        <ele>1.250158</ele>
        <time>2020-08-29T17:05:31.395Z</time>
      </trkpt>
      <trkpt lat="61.95736" lon="17.34117">
        <ele>1.293892</ele>
        <time>2020-08-29T17:05:32.704Z</time>
      </trkpt>
      <trkpt lat="61.95739" lon="17.34105">
        <ele>1.334268</ele>
        <time>2020-08-29T17:05:33.951Z</time>
      </trkpt>
      <trkpt lat="61.95742" lon="17.34097">
        <ele>1.364047</ele>
        <time>2020-08-29T17:05:34.860Z</time>
      </trkpt>
      <trkpt lat="61.95743" lon="17.34091">
        <ele>1.385279</ele>
        <time>2020-08-29T17:05:35.736Z</time>
      </trkpt>
      <trkpt lat="61.95799" lon="17.33978">
        <ele>1.886959</ele>
        <time>2020-08-29T17:05:51.826Z</time>
      </trkpt>
      <trkpt lat="61.9581" lon="17.33942">
        <ele>2.021217</ele>
        <time>2020-08-29T17:05:56.143Z</time>
      </trkpt>
      <trkpt lat="61.95816" lon="17.33898">
        <ele>2.366193</ele>
        <time>2020-08-29T17:06:01.032Z</time>
      </trkpt>
      <trkpt lat="61.95818" lon="17.33849">
        <ele>2.836513</ele>
        <time>2020-08-29T17:06:06.585Z</time>
      </trkpt>
      <trkpt lat="61.95818" lon="17.33837">
        <ele>2.94434</ele>
        <time>2020-08-29T17:06:07.941Z</time>
      </trkpt>
      <trkpt lat="61.95817" lon="17.33803">
        <ele>3.274203</ele>
        <time>2020-08-29T17:06:11.821Z</time>
      </trkpt>
      <trkpt lat="61.95809" lon="17.33732">
        <ele>3.966502</ele>
        <time>2020-08-29T17:06:20.252Z</time>
      </trkpt>
      <trkpt lat="61.958" lon="17.3366">
        <ele>4.668285</ele>
        <time>2020-08-29T17:06:28.964Z</time>
      </trkpt>
      <trkpt lat="61.95793" lon="17.33602">
        <ele>5.242014</ele>
        <time>2020-08-29T17:06:36.282Z</time>
      </trkpt>
      <trkpt lat="61.95788" lon="17.33542">
        <ele>5.803238</ele>
        <time>2020-08-29T17:06:43.629Z</time>
      </trkpt>
      <trkpt lat="61.95784" lon="17.33452">
        <ele>6.598845</ele>
        <time>2020-08-29T17:06:54.192Z</time>
      </trkpt>
      <trkpt lat="61.95787" lon="17.33313">
        <ele>7.830718</ele>
        <time>2020-08-29T17:07:10.319Z</time>
      </trkpt>
      <trkpt lat="61.95792" lon="17.33274">
        <ele>8.185439</ele>
        <time>2020-08-29T17:07:14.870Z</time>
      </trkpt>
      <trkpt lat="61.95812" lon="17.33153">
        <ele>9.115303</ele>
        <time>2020-08-29T17:07:28.153Z</time>
      </trkpt>
      <trkpt lat="61.95827" lon="17.33097">
        <ele>9.2378</ele>
        <time>2020-08-29T17:07:34.258Z</time>
      </trkpt>
      <trkpt lat="61.9585" lon="17.33026">
        <ele>9.402992</ele>
        <time>2020-08-29T17:07:42.137Z</time>
      </trkpt>
      <trkpt lat="61.95872" lon="17.32973">
        <ele>9.536148</ele>
        <time>2020-08-29T17:07:48.057Z</time>
      </trkpt>
      <trkpt lat="61.95893" lon="17.32929">
        <ele>9.655355</ele>
        <time>2020-08-29T17:07:53.233Z</time>
      </trkpt>
      <trkpt lat="61.95935" lon="17.32832">
        <ele>9.969494</ele>
        <time>2020-08-29T17:08:04.206Z</time>
      </trkpt>
      <trkpt lat="61.95971" lon="17.32754">
        <ele>10.292812</ele>
        <time>2020-08-29T17:08:13.935Z</time>
      </trkpt>
      <trkpt lat="61.95997" lon="17.32684">
        <ele>10.556067</ele>
        <time>2020-08-29T17:08:22.137Z</time>
      </trkpt>
      <trkpt lat="61.96019" lon="17.32619">
        <ele>10.790405</ele>
        <time>2020-08-29T17:08:29.956Z</time>
      </trkpt>
      <trkpt lat="61.96042" lon="17.3252">
        <ele>11.727212</ele>
        <time>2020-08-29T17:08:41.523Z</time>
      </trkpt>
      <trkpt lat="61.96073" lon="17.32369">
        <ele>13.697835</ele>
        <time>2020-08-29T17:09:01.047Z</time>
      </trkpt>
      <trkpt lat="61.96085" lon="17.3232">
        <ele>14.358492</ele>
        <time>2020-08-29T17:09:08.439Z</time>
      </trkpt>
      <trkpt lat="61.96097" lon="17.32278">
        <ele>14.945342</ele>
        <time>2020-08-29T17:09:15.111Z</time>
      </trkpt>
      <trkpt lat="61.96124" lon="17.32198">
        <ele>16.486482</ele>
        <time>2020-08-29T17:09:28.670Z</time>
      </trkpt>
      <trkpt lat="61.96125" lon="17.32196">
        <ele>16.541357</ele>
        <time>2020-08-29T17:09:29.182Z</time>
      </trkpt>
      <trkpt lat="61.96153" lon="17.3213">
        <ele>18.19784</ele>
        <time>2020-08-29T17:09:41.889Z</time>
      </trkpt>
      <trkpt lat="61.9618" lon="17.32042">
        <ele>20.198636</ele>
        <time>2020-08-29T17:09:57.657Z</time>
      </trkpt>
      <trkpt lat="61.9619" lon="17.31987">
        <ele>21.299718</ele>
        <time>2020-08-29T17:10:06.373Z</time>
      </trkpt>
      <trkpt lat="61.96211" lon="17.31766">
        <ele>24.723733</ele>
        <time>2020-08-29T17:10:38.921Z</time>
      </trkpt>
      <trkpt lat="61.96221" lon="17.31731">
        <ele>25.266377</ele>
        <time>2020-08-29T17:10:44.071Z</time>
      </trkpt>
      <trkpt lat="61.96236" lon="17.31696">
        <ele>25.908454</ele>
        <time>2020-08-29T17:10:50.017Z</time>
      </trkpt>
      <trkpt lat="61.96256" lon="17.31675">
        <ele>26.52554</ele>
        <time>2020-08-29T17:10:55.465Z</time>
      </trkpt>
      <trkpt lat="61.96329" lon="17.31599">
        <ele>28.110157</ele>
        <time>2020-08-29T17:11:14.216Z</time>
      </trkpt>
      <trkpt lat="61.96356" lon="17.31567">
        <ele>28.35753</ele>
        <time>2020-08-29T17:11:20.387Z</time>
      </trkpt>
      <trkpt lat="61.96447" lon="17.31453">
        <ele>29.218693</ele>
        <time>2020-08-29T17:11:40.151Z</time>
      </trkpt>
      <trkpt lat="61.96473" lon="17.31409">
        <ele>29.832769</ele>
        <time>2020-08-29T17:11:46.807Z</time>
      </trkpt>
      <trkpt lat="61.96481" lon="17.31388">
        <ele>30.099694</ele>
        <time>2020-08-29T17:11:49.580Z</time>
      </trkpt>
      <trkpt lat="61.96491" lon="17.3135">
        <ele>30.528495</ele>
        <time>2020-08-29T17:11:54.348Z</time>
      </trkpt>
      <trkpt lat="61.96501" lon="17.31305">
        <ele>31.024504</ele>
        <time>2020-08-29T17:12:00.254Z</time>
      </trkpt>
      <trkpt lat="61.96503" lon="17.31288">
        <ele>31.19076</ele>
        <time>2020-08-29T17:12:02.205Z</time>
      </trkpt>
      <trkpt lat="61.96505" lon="17.31265">
        <ele>31.430595</ele>
        <time>2020-08-29T17:12:05.004Z</time>
      </trkpt>
      <trkpt lat="61.96504" lon="17.31226">
        <ele>31.81837</ele>
        <time>2020-08-29T17:12:09.971Z</time>
      </trkpt>
      <trkpt lat="61.96499" lon="17.31199">
        <ele>32.102095</ele>
        <time>2020-08-29T17:12:13.442Z</time>
      </trkpt>
      <trkpt lat="61.96491" lon="17.31174">
        <ele>32.410981</ele>
        <time>2020-08-29T17:12:17.478Z</time>
      </trkpt>
      <trkpt lat="61.96454" lon="17.31137">
        <ele>33.355301</ele>
        <time>2020-08-29T17:12:29.535Z</time>
      </trkpt>
      <trkpt lat="61.96422" lon="17.31128">
        <ele>34.337781</ele>
        <time>2020-08-29T17:12:42.740Z</time>
      </trkpt>
      <trkpt lat="61.96404" lon="17.31127">
        <ele>34.868061</ele>
        <time>2020-08-29T17:12:50.122Z</time>
      </trkpt>
      <trkpt lat="61.96352" lon="17.31095">
        <ele>36.484775</ele>
        <time>2020-08-29T17:13:11.789Z</time>
      </trkpt>
      <trkpt lat="61.9634" lon="17.31093">
        <ele>36.855625</ele>
        <time>2020-08-29T17:13:17.104Z</time>
      </trkpt>
      <trkpt lat="61.96328" lon="17.31105">
        <ele>37.262477</ele>
        <time>2020-08-29T17:13:22.285Z</time>
      </trkpt>
      <trkpt lat="61.96315" lon="17.31118">
        <ele>37.69633</ele>
        <time>2020-08-29T17:13:27.865Z</time>
      </trkpt>
      <trkpt lat="61.96297" lon="17.31142">
        <ele>38.32623</ele>
        <time>2020-08-29T17:13:35.714Z</time>
      </trkpt>
      <trkpt lat="61.96245" lon="17.31162">
        <ele>38.895168</ele>
        <time>2020-08-29T17:13:54.123Z</time>
      </trkpt>
      <trkpt lat="61.96201" lon="17.31143">
        <ele>39.280646</ele>
        <time>2020-08-29T17:14:08.850Z</time>
      </trkpt>
      <trkpt lat="61.96176" lon="17.31118">
        <ele>39.520969</ele>
        <time>2020-08-29T17:14:17.334Z</time>
      </trkpt>
      <trkpt lat="61.96138" lon="17.31044">
        <ele>39.97273</ele>
        <time>2020-08-29T17:14:32.794Z</time>
      </trkpt>
      <trkpt lat="61.96121" lon="17.31028">
        <ele>40.03909</ele>
        <time>2020-08-29T17:14:38.420Z</time>
      </trkpt>
      <trkpt lat="61.96033" lon="17.31055">
        <ele>40.018597</ele>
        <time>2020-08-29T17:15:04.639Z</time>
      </trkpt>
      <trkpt lat="61.96007" lon="17.31078">
        <ele>40.011989</ele>
        <time>2020-08-29T17:15:13.117Z</time>
      </trkpt>
      <trkpt lat="61.9593" lon="17.31068">
        <ele>40.000012</ele>
        <time>2020-08-29T17:15:35.803Z</time>
      </trkpt>
      <trkpt lat="61.95895" lon="17.31094">
        <ele>40.000012</ele>
        <time>2020-08-29T17:15:46.842Z</time>
      </trkpt>
      <trkpt lat="61.95848" lon="17.31156">
        <ele>40.000012</ele>
        <time>2020-08-29T17:16:03.243Z</time>
      </trkpt>
      <trkpt lat="61.95801" lon="17.31186">
        <ele>40.000012</ele>
        <time>2020-08-29T17:16:17.930Z</time>
      </trkpt>
      <trkpt lat="61.95721" lon="17.31195">
        <ele>40.000012</ele>
        <time>2020-08-29T17:16:41.880Z</time>
      </trkpt>
      <trkpt lat="61.95654" lon="17.31236">
        <ele>40.000012</ele>
        <time>2020-08-29T17:17:02.476Z</time>
      </trkpt>
      <trkpt lat="61.95605" lon="17.31245">
        <ele>40.000229</ele>
        <time>2020-08-29T17:17:17.067Z</time>
      </trkpt>
      <trkpt lat="61.95538" lon="17.31283">
        <ele>40.002804</ele>
        <time>2020-08-29T17:17:37.629Z</time>
      </trkpt>
      <trkpt lat="61.95481" lon="17.31329">
        <ele>40.005072</ele>
        <time>2020-08-29T17:17:55.756Z</time>
      </trkpt>
      <trkpt lat="61.95453" lon="17.31314">
        <ele>40.006135</ele>
        <time>2020-08-29T17:18:04.268Z</time>
      </trkpt>
      <trkpt lat="61.95398" lon="17.31324">
        <ele>40.246174</ele>
        <time>2020-08-29T17:18:20.736Z</time>
      </trkpt>
      <trkpt lat="61.95372" lon="17.31343">
        <ele>40.410575</ele>
        <time>2020-08-29T17:18:28.917Z</time>
      </trkpt>
      <trkpt lat="61.95339" lon="17.31394">
        <ele>40.655908</ele>
        <time>2020-08-29T17:18:41.786Z</time>
      </trkpt>
      <trkpt lat="61.95307" lon="17.3142">
        <ele>40.861871</ele>
        <time>2020-08-29T17:18:53.019Z</time>
      </trkpt>
      <trkpt lat="61.95243" lon="17.31528">
        <ele>42.003387</ele>
        <time>2020-08-29T17:19:20.619Z</time>
      </trkpt>
      <trkpt lat="61.95232" lon="17.31545">
        <ele>42.292186</ele>
        <time>2020-08-29T17:19:25.874Z</time>
      </trkpt>
      <trkpt lat="61.95188" lon="17.31557">
        <ele>43.206966</ele>
        <time>2020-08-29T17:19:41.888Z</time>
      </trkpt>
      <trkpt lat="61.95164" lon="17.31586">
        <ele>43.779195</ele>
        <time>2020-08-29T17:19:52.372Z</time>
      </trkpt>
      <trkpt lat="61.95129" lon="17.31647">
        <ele>44.715046</ele>
        <time>2020-08-29T17:20:09.614Z</time>
      </trkpt>
      <trkpt lat="61.95056" lon="17.31641">
        <ele>46.100381</ele>
        <time>2020-08-29T17:20:37.176Z</time>
      </trkpt>
      <trkpt lat="61.95021" lon="17.31649">
        <ele>46.765862</ele>
        <time>2020-08-29T17:20:49.915Z</time>
      </trkpt>
      <trkpt lat="61.94991" lon="17.3164">
        <ele>47.343879</ele>
        <time>2020-08-29T17:21:00.713Z</time>
      </trkpt>
      <trkpt lat="61.94979" lon="17.31627">
        <ele>47.595501</ele>
        <time>2020-08-29T17:21:05.294Z</time>
      </trkpt>
      <trkpt lat="61.94913" lon="17.31412">
        <ele>48.172968</ele>
        <time>2020-08-29T17:21:43.800Z</time>
      </trkpt>
      <trkpt lat="61.94854" lon="17.31306">
        <ele>48.136219</ele>
        <time>2020-08-29T17:22:05.589Z</time>
      </trkpt>
      <trkpt lat="61.94831" lon="17.31225">
        <ele>47.727535</ele>
        <time>2020-08-29T17:22:17.403Z</time>
      </trkpt>
      <trkpt lat="61.94829" lon="17.31195">
        <ele>47.538334</ele>
        <time>2020-08-29T17:22:21.161Z</time>
      </trkpt>
      <trkpt lat="61.94834" lon="17.31011">
        <ele>46.376086</ele>
        <time>2020-08-29T17:22:43.889Z</time>
      </trkpt>
      <trkpt lat="61.94822" lon="17.3093">
        <ele>45.842979</ele>
        <time>2020-08-29T17:22:54.250Z</time>
      </trkpt>
      <trkpt lat="61.9482" lon="17.30812">
        <ele>45.484578</ele>
        <time>2020-08-29T17:23:08.962Z</time>
      </trkpt>
      <trkpt lat="61.94804" lon="17.30686">
        <ele>45.169937</ele>
        <time>2020-08-29T17:23:25.992Z</time>
      </trkpt>
      <trkpt lat="61.94783" lon="17.30608">
        <ele>44.951773</ele>
        <time>2020-08-29T17:23:38.550Z</time>
      </trkpt>
      <trkpt lat="61.94773" lon="17.30583">
        <ele>44.870609</ele>
        <time>2020-08-29T17:23:43.362Z</time>
      </trkpt>
      <trkpt lat="61.94758" lon="17.3055">
        <ele>44.838694</ele>
        <time>2020-08-29T17:23:50.060Z</time>
      </trkpt>
      <trkpt lat="61.94723" lon="17.30534">
        <ele>45.028729</ele>
        <time>2020-08-29T17:24:01.478Z</time>
      </trkpt>
      <trkpt lat="61.94688" lon="17.30551">
        <ele>45.218327</ele>
        <time>2020-08-29T17:24:13.036Z</time>
      </trkpt>
      <trkpt lat="61.94648" lon="17.30589">
        <ele>45.447115</ele>
        <time>2020-08-29T17:24:27.040Z</time>
      </trkpt>
      <trkpt lat="61.94616" lon="17.30566">
        <ele>45.623999</ele>
        <time>2020-08-29T17:24:37.794Z</time>
      </trkpt>
      <trkpt lat="61.94574" lon="17.30442">
        <ele>45.323335</ele>
        <time>2020-08-29T17:24:59.692Z</time>
      </trkpt>
      <trkpt lat="61.94472" lon="17.30285">
        <ele>44.236397</ele>
        <time>2020-08-29T17:25:33.367Z</time>
      </trkpt>
      <trkpt lat="61.94451" lon="17.30239">
        <ele>43.571028</ele>
        <time>2020-08-29T17:25:40.992Z</time>
      </trkpt>
      <trkpt lat="61.94394" lon="17.30029">
        <ele>40.704478</ele>
        <time>2020-08-29T17:26:09.234Z</time>
      </trkpt>
      <trkpt lat="61.94305" lon="17.2978">
        <ele>35.187938</ele>
        <time>2020-08-29T17:26:43.602Z</time>
      </trkpt>
      <trkpt lat="61.94293" lon="17.29708">
        <ele>33.693047</ele>
        <time>2020-08-29T17:26:51.548Z</time>
      </trkpt>
      <trkpt lat="61.94289" lon="17.29561">
        <ele>30.419602</ele>
        <time>2020-08-29T17:27:06.602Z</time>
      </trkpt>
      <trkpt lat="61.94281" lon="17.29528">
        <ele>29.522098</ele>
        <time>2020-08-29T17:27:10.087Z</time>
      </trkpt>
      <trkpt lat="61.94217" lon="17.29389">
        <ele>24.654839</ele>
        <time>2020-08-29T17:27:30.094Z</time>
      </trkpt>
      <trkpt lat="61.94211" lon="17.29367">
        <ele>24.020574</ele>
        <time>2020-08-29T17:27:32.581Z</time>
      </trkpt>
      <trkpt lat="61.9422" lon="17.2935">
        <ele>23.407387</ele>
        <time>2020-08-29T17:27:34.128Z</time>
      </trkpt>
      <trkpt lat="61.94227" lon="17.29174">
        <ele>20.777731</ele>
        <time>2020-08-29T17:27:45.227Z</time>
      </trkpt>
      <trkpt lat="61.9422" lon="17.29065">
        <ele>19.39667</ele>
        <time>2020-08-29T17:27:52.332Z</time>
      </trkpt>
      <trkpt lat="61.94211" lon="17.29022">
        <ele>18.809205</ele>
        <time>2020-08-29T17:27:55.974Z</time>
      </trkpt>
      <trkpt lat="61.94192" lon="17.28985">
        <ele>18.118044</ele>
        <time>2020-08-29T17:28:00.372Z</time>
      </trkpt>
      <trkpt lat="61.94183" lon="17.28921">
        <ele>17.725934</ele>
        <time>2020-08-29T17:28:05.702Z</time>
      </trkpt>
      <trkpt lat="61.94169" lon="17.28883">
        <ele>17.658436</ele>
        <time>2020-08-29T17:28:09.783Z</time>
      </trkpt>
      <trkpt lat="61.94159" lon="17.28877">
        <ele>17.630068</ele>
        <time>2020-08-29T17:28:11.380Z</time>
      </trkpt>
      <trkpt lat="61.94153" lon="17.28757">
        <ele>17.462929</ele>
        <time>2020-08-29T17:28:21.540Z</time>
      </trkpt>
      <trkpt lat="61.94156" lon="17.28731">
        <ele>17.426301</ele>
        <time>2020-08-29T17:28:23.754Z</time>
      </trkpt>
      <trkpt lat="61.94081" lon="17.28614">
        <ele>17.388154</ele>
        <time>2020-08-29T17:28:40.386Z</time>
      </trkpt>
      <trkpt lat="61.94016" lon="17.28549">
        <ele>17.677069</ele>
        <time>2020-08-29T17:28:53.920Z</time>
      </trkpt>
      <trkpt lat="61.93901" lon="17.28442">
        <ele>18.532493</ele>
        <time>2020-08-29T17:29:18.916Z</time>
      </trkpt>
      <trkpt lat="61.93848" lon="17.284">
        <ele>19.136628</ele>
        <time>2020-08-29T17:29:30.416Z</time>
      </trkpt>
      <trkpt lat="61.93795" lon="17.28347">
        <ele>19.772314</ele>
        <time>2020-08-29T17:29:43.168Z</time>
      </trkpt>
      <trkpt lat="61.9373" lon="17.28259">
        <ele>21.95557</ele>
        <time>2020-08-29T17:30:02.643Z</time>
      </trkpt>
      <trkpt lat="61.93703" lon="17.28218">
        <ele>23.014087</ele>
        <time>2020-08-29T17:30:11.698Z</time>
      </trkpt>
      <trkpt lat="61.93622" lon="17.28102">
        <ele>26.386675</ele>
        <time>2020-08-29T17:30:41.328Z</time>
      </trkpt>
      <trkpt lat="61.93531" lon="17.27965">
        <ele>31.918429</ele>
        <time>2020-08-29T17:31:20.375Z</time>
      </trkpt>
      <trkpt lat="61.93471" lon="17.27827">
        <ele>35.902399</ele>
        <time>2020-08-29T17:31:50.030Z</time>
      </trkpt>
      <trkpt lat="61.93457" lon="17.27777">
        <ele>36.943522</ele>
        <time>2020-08-29T17:31:58.798Z</time>
      </trkpt>
      <trkpt lat="61.93448" lon="17.27729">
        <ele>37.887563</ele>
        <time>2020-08-29T17:32:06.381Z</time>
      </trkpt>
      <trkpt lat="61.93429" lon="17.27583">
        <ele>40.630585</ele>
        <time>2020-08-29T17:32:27.114Z</time>
      </trkpt>
      <trkpt lat="61.93417" lon="17.27434">
        <ele>42.2647</ele>
        <time>2020-08-29T17:32:45.765Z</time>
      </trkpt>
      <trkpt lat="61.93405" lon="17.27189">
        <ele>44.116748</ele>
        <time>2020-08-29T17:33:11.579Z</time>
      </trkpt>
      <trkpt lat="61.93396" lon="17.27136">
        <ele>44.305346</ele>
        <time>2020-08-29T17:33:16.724Z</time>
      </trkpt>
      <trkpt lat="61.93386" lon="17.27085">
        <ele>44.177624</ele>
        <time>2020-08-29T17:33:21.618Z</time>
      </trkpt>
      <trkpt lat="61.93359" lon="17.26983">
        <ele>43.909574</ele>
        <time>2020-08-29T17:33:30.979Z</time>
      </trkpt>
      <trkpt lat="61.93285" lon="17.2674">
        <ele>42.774414</ele>
        <time>2020-08-29T17:33:51.488Z</time>
      </trkpt>
      <trkpt lat="61.93282" lon="17.26731">
        <ele>42.699172</ele>
        <time>2020-08-29T17:33:52.209Z</time>
      </trkpt>
      <trkpt lat="61.93207" lon="17.26478">
        <ele>40.72508</ele>
        <time>2020-08-29T17:34:12.817Z</time>
      </trkpt>
      <trkpt lat="61.93184" lon="17.26385">
        <ele>40.32381</ele>
        <time>2020-08-29T17:34:20.505Z</time>
      </trkpt>
      <trkpt lat="61.93164" lon="17.26232">
        <ele>39.711706</ele>
        <time>2020-08-29T17:34:32.768Z</time>
      </trkpt>
      <trkpt lat="61.93141" lon="17.25999">
        <ele>38.68292</ele>
        <time>2020-08-29T17:34:51.152Z</time>
      </trkpt>
      <trkpt lat="61.93134" lon="17.25923">
        <ele>38.327619</ele>
        <time>2020-08-29T17:34:56.889Z</time>
      </trkpt>
      <trkpt lat="61.93108" lon="17.25687">
        <ele>36.743563</ele>
        <time>2020-08-29T17:35:13.889Z</time>
      </trkpt>
      <trkpt lat="61.93051" lon="17.25103">
        <ele>30.323344</ele>
        <time>2020-08-29T17:35:52.446Z</time>
      </trkpt>
      <trkpt lat="61.93043" lon="17.25033">
        <ele>29.480428</ele>
        <time>2020-08-29T17:35:57.027Z</time>
      </trkpt>
      <trkpt lat="61.93031" lon="17.24913">
        <ele>27.88276</ele>
        <time>2020-08-29T17:36:04.772Z</time>
      </trkpt>
      <trkpt lat="61.93021" lon="17.24855">
        <ele>27.071527</ele>
        <time>2020-08-29T17:36:08.634Z</time>
      </trkpt>
      <trkpt lat="61.93005" lon="17.24768">
        <ele>25.853766</ele>
        <time>2020-08-29T17:36:14.413Z</time>
      </trkpt>
      <trkpt lat="61.92993" lon="17.24707">
        <ele>24.991479</ele>
        <time>2020-08-29T17:36:18.563Z</time>
      </trkpt>
      <trkpt lat="61.92978" lon="17.2463">
        <ele>23.994339</ele>
        <time>2020-08-29T17:36:23.931Z</time>
      </trkpt>
      <trkpt lat="61.92973" lon="17.24601">
        <ele>23.674247</ele>
        <time>2020-08-29T17:36:25.889Z</time>
      </trkpt>
      <trkpt lat="61.92957" lon="17.24519">
        <ele>22.762668</ele>
        <time>2020-08-29T17:36:31.576Z</time>
      </trkpt>
      <trkpt lat="61.9292" lon="17.24342">
        <ele>20.772894</ele>
        <time>2020-08-29T17:36:44.400Z</time>
      </trkpt>
      <trkpt lat="61.92912" lon="17.24309">
        <ele>20.415499</ele>
        <time>2020-08-29T17:36:46.860Z</time>
      </trkpt>
      <trkpt lat="61.92889" lon="17.24197">
        <ele>19.763482</ele>
        <time>2020-08-29T17:36:55.542Z</time>
      </trkpt>
      <trkpt lat="61.92746" lon="17.23517">
        <ele>16.603207</ele>
        <time>2020-08-29T17:37:50.522Z</time>
      </trkpt>
      <trkpt lat="61.92729" lon="17.23423">
        <ele>16.425814</ele>
        <time>2020-08-29T17:37:58.506Z</time>
      </trkpt>
      <trkpt lat="61.92718" lon="17.23403">
        <ele>16.369739</ele>
        <time>2020-08-29T17:38:01.010Z</time>
      </trkpt>
      <trkpt lat="61.92707" lon="17.23392">
        <ele>16.326649</ele>
        <time>2020-08-29T17:38:02.938Z</time>
      </trkpt>
      <trkpt lat="61.92703" lon="17.23412">
        <ele>16.287577</ele>
        <time>2020-08-29T17:38:04.866Z</time>
      </trkpt>
      <trkpt lat="61.92669" lon="17.23558">
        <ele>16.174661</ele>
        <time>2020-08-29T17:38:18.423Z</time>
      </trkpt>
      <trkpt lat="61.9265" lon="17.23612">
        <ele>16.231603</ele>
        <time>2020-08-29T17:38:24.332Z</time>
      </trkpt>
      <trkpt lat="61.92622" lon="17.23674">
        <ele>16.303796</ele>
        <time>2020-08-29T17:38:31.973Z</time>
      </trkpt>
      <trkpt lat="61.92555" lon="17.23758">
        <ele>16.438326</ele>
        <time>2020-08-29T17:38:46.363Z</time>
      </trkpt>
      <trkpt lat="61.92511" lon="17.238">
        <ele>16.418841</ele>
        <time>2020-08-29T17:38:55.211Z</time>
      </trkpt>
      <trkpt lat="61.92415" lon="17.239">
        <ele>16.375725</ele>
        <time>2020-08-29T17:39:14.170Z</time>
      </trkpt>
      <trkpt lat="61.92317" lon="17.23986">
        <ele>16.006503</ele>
        <time>2020-08-29T17:39:31.950Z</time>
      </trkpt>
      <trkpt lat="61.9231" lon="17.23992">
        <ele>15.972753</ele>
        <time>2020-08-29T17:39:33.214Z</time>
      </trkpt>
      <trkpt lat="61.92303" lon="17.23999">
        <ele>15.939815</ele>
        <time>2020-08-29T17:39:34.442Z</time>
      </trkpt>
      <trkpt lat="61.92239" lon="17.24055">
        <ele>15.636079</ele>
        <time>2020-08-29T17:39:45.896Z</time>
      </trkpt>
      <trkpt lat="61.92048" lon="17.24161">
        <ele>14.381968</ele>
        <time>2020-08-29T17:40:17.719Z</time>
      </trkpt>
      <trkpt lat="61.92005" lon="17.24208">
        <ele>14.122133</ele>
        <time>2020-08-29T17:40:25.419Z</time>
      </trkpt>
      <trkpt lat="61.9196" lon="17.2428">
        <ele>13.815948</ele>
        <time>2020-08-29T17:40:34.643Z</time>
      </trkpt>
      <trkpt lat="61.91942" lon="17.24319">
        <ele>13.673666</ele>
        <time>2020-08-29T17:40:38.948Z</time>
      </trkpt>
      <trkpt lat="61.91905" lon="17.24419">
        <ele>13.418835</ele>
        <time>2020-08-29T17:40:48.948Z</time>
      </trkpt>
      <trkpt lat="61.91859" lon="17.2459">
        <ele>13.332316</ele>
        <time>2020-08-29T17:41:05.072Z</time>
      </trkpt>
      <trkpt lat="61.91848" lon="17.24651">
        <ele>13.303805</ele>
        <time>2020-08-29T17:41:10.595Z</time>
      </trkpt>
      <trkpt lat="61.91844" lon="17.24674">
        <ele>13.293465</ele>
        <time>2020-08-29T17:41:12.577Z</time>
      </trkpt>
      <trkpt lat="61.91829" lon="17.24764">
        <ele>13.27987</ele>
        <time>2020-08-29T17:41:20.797Z</time>
      </trkpt>
      <trkpt lat="61.91785" lon="17.25045">
        <ele>13.40403</ele>
        <time>2020-08-29T17:41:46.220Z</time>
      </trkpt>
      <trkpt lat="61.91771" lon="17.25113">
        <ele>13.442467</ele>
        <time>2020-08-29T17:41:52.538Z</time>
      </trkpt>
      <trkpt lat="61.91745" lon="17.25192">
        <ele>13.515789</ele>
        <time>2020-08-29T17:42:00.676Z</time>
      </trkpt>
      <trkpt lat="61.91669" lon="17.25374">
        <ele>13.700185</ele>
        <time>2020-08-29T17:42:21.557Z</time>
      </trkpt>
      <trkpt lat="61.91642" lon="17.25435">
        <ele>13.976892</ele>
        <time>2020-08-29T17:42:28.934Z</time>
      </trkpt>
      <trkpt lat="61.91616" lon="17.25546">
        <ele>14.505205</ele>
        <time>2020-08-29T17:42:40.817Z</time>
      </trkpt>
      <trkpt lat="61.9159" lon="17.25699">
        <ele>15.187453</ele>
        <time>2020-08-29T17:42:57.139Z</time>
      </trkpt>
      <trkpt lat="61.91587" lon="17.25716">
        <ele>15.264754</ele>
        <time>2020-08-29T17:42:59.077Z</time>
      </trkpt>
      <trkpt lat="61.91569" lon="17.25808">
        <ele>15.890982</ele>
        <time>2020-08-29T17:43:09.890Z</time>
      </trkpt>
      <trkpt lat="61.91567" lon="17.25821">
        <ele>15.976736</ele>
        <time>2020-08-29T17:43:11.509Z</time>
      </trkpt>
      <trkpt lat="61.91562" lon="17.25864">
        <ele>16.269612</ele>
        <time>2020-08-29T17:43:16.162Z</time>
      </trkpt>
      <trkpt lat="61.91564" lon="17.25927">
        <ele>16.691321</ele>
        <time>2020-08-29T17:43:23.100Z</time>
      </trkpt>
      <trkpt lat="61.91566" lon="17.25986">
        <ele>17.077768</ele>
        <time>2020-08-29T17:43:29.474Z</time>
      </trkpt>
      <trkpt lat="61.9156" lon="17.26039">
        <ele>17.439125</ele>
        <time>2020-08-29T17:43:35.213Z</time>
      </trkpt>
      <trkpt lat="61.91553" lon="17.26088">
        <ele>17.777675</ele>
        <time>2020-08-29T17:43:40.418Z</time>
      </trkpt>
      <trkpt lat="61.91543" lon="17.2613">
        <ele>17.91929</ele>
        <time>2020-08-29T17:43:45.307Z</time>
      </trkpt>
      <trkpt lat="61.9153" lon="17.26169">
        <ele>18.002594</ele>
        <time>2020-08-29T17:43:49.641Z</time>
      </trkpt>
      <trkpt lat="61.91519" lon="17.26194">
        <ele>18.065852</ele>
        <time>2020-08-29T17:43:52.994Z</time>
      </trkpt>
      <trkpt lat="61.91504" lon="17.2622">
        <ele>18.13731</ele>
        <time>2020-08-29T17:43:56.620Z</time>
      </trkpt>
      <trkpt lat="61.91487" lon="17.26244">
        <ele>18.216254</ele>
        <time>2020-08-29T17:44:00.664Z</time>
      </trkpt>
      <trkpt lat="61.9142" lon="17.26311">
        <ele>18.496444</ele>
        <time>2020-08-29T17:44:13.837Z</time>
      </trkpt>
      <trkpt lat="61.91344" lon="17.26383">
        <ele>18.573667</ele>
        <time>2020-08-29T17:44:27.954Z</time>
      </trkpt>
      <trkpt lat="61.91199" lon="17.26525">
        <ele>18.856528</ele>
        <time>2020-08-29T17:44:57.654Z</time>
      </trkpt>
      <trkpt lat="61.91196" lon="17.26527">
        <ele>18.868883</ele>
        <time>2020-08-29T17:44:58.249Z</time>
      </trkpt>
      <trkpt lat="61.91158" lon="17.26561">
        <ele>19.044241</ele>
        <time>2020-08-29T17:45:06.360Z</time>
      </trkpt>
      <trkpt lat="61.91121" lon="17.26597">
        <ele>19.221997</ele>
        <time>2020-08-29T17:45:14.512Z</time>
      </trkpt>
      <trkpt lat="61.91094" lon="17.26615">
        <ele>19.343679</ele>
        <time>2020-08-29T17:45:20.013Z</time>
      </trkpt>
      <trkpt lat="61.91068" lon="17.26629">
        <ele>19.380971</ele>
        <time>2020-08-29T17:45:25.146Z</time>
      </trkpt>
      <trkpt lat="61.90969" lon="17.26671">
        <ele>19.206292</ele>
        <time>2020-08-29T17:45:43.693Z</time>
      </trkpt>
      <trkpt lat="61.90845" lon="17.26724">
        <ele>18.316968</ele>
        <time>2020-08-29T17:46:03.575Z</time>
      </trkpt>
      <trkpt lat="61.908" lon="17.26731">
        <ele>17.747261</ele>
        <time>2020-08-29T17:46:10.113Z</time>
      </trkpt>
      <trkpt lat="61.90796" lon="17.26732">
        <ele>17.697195</ele>
        <time>2020-08-29T17:46:10.645Z</time>
      </trkpt>
      <trkpt lat="61.90744" lon="17.26725">
        <ele>17.025756</ele>
        <time>2020-08-29T17:46:18.447Z</time>
      </trkpt>
      <trkpt lat="61.90703" lon="17.2672">
        <ele>16.567207</ele>
        <time>2020-08-29T17:46:24.460Z</time>
      </trkpt>
      <trkpt lat="61.907" lon="17.2672">
        <ele>16.537141</ele>
        <time>2020-08-29T17:46:24.907Z</time>
      </trkpt>
      <trkpt lat="61.90696" lon="17.2672">
        <ele>16.495051</ele>
        <time>2020-08-29T17:46:25.478Z</time>
      </trkpt>
      <trkpt lat="61.90617" lon="17.26732">
        <ele>15.696484</ele>
        <time>2020-08-29T17:46:37.319Z</time>
      </trkpt>
      <trkpt lat="61.9057" lon="17.26767">
        <ele>15.199117</ele>
        <time>2020-08-29T17:46:45.297Z</time>
      </trkpt>
      <trkpt lat="61.90541" lon="17.26796">
        <ele>15.052835</ele>
        <time>2020-08-29T17:46:50.747Z</time>
      </trkpt>
      <trkpt lat="61.90498" lon="17.26847">
        <ele>15.340838</ele>
        <time>2020-08-29T17:46:59.780Z</time>
      </trkpt>
      <trkpt lat="61.90247" lon="17.27126">
        <ele>17.704531</ele>
        <time>2020-08-29T17:47:59.248Z</time>
      </trkpt>
      <trkpt lat="61.90214" lon="17.27179">
        <ele>18.117875</ele>
        <time>2020-08-29T17:48:08.313Z</time>
      </trkpt>
      <trkpt lat="61.90147" lon="17.27312">
        <ele>19.030559</ele>
        <time>2020-08-29T17:48:28.012Z</time>
      </trkpt>
      <trkpt lat="61.90106" lon="17.27373">
        <ele>19.528928</ele>
        <time>2020-08-29T17:48:38.465Z</time>
      </trkpt>
      <trkpt lat="61.89976" lon="17.27495">
        <ele>20.057143</ele>
        <time>2020-08-29T17:49:05.706Z</time>
      </trkpt>
      <trkpt lat="61.89949" lon="17.27527">
        <ele>20.154096</ele>
        <time>2020-08-29T17:49:11.280Z</time>
      </trkpt>
      <trkpt lat="61.89927" lon="17.27568">
        <ele>20.178541</ele>
        <time>2020-08-29T17:49:16.350Z</time>
      </trkpt>
      <trkpt lat="61.89828" lon="17.27765">
        <ele>19.628638</ele>
        <time>2020-08-29T17:49:39.122Z</time>
      </trkpt>
      <trkpt lat="61.8979" lon="17.27825">
        <ele>19.375003</ele>
        <time>2020-08-29T17:49:46.781Z</time>
      </trkpt>
      <trkpt lat="61.89732" lon="17.27907">
        <ele>18.768033</ele>
        <time>2020-08-29T17:49:57.808Z</time>
      </trkpt>
      <trkpt lat="61.89647" lon="17.28021">
        <ele>17.885109</ele>
        <time>2020-08-29T17:50:13.463Z</time>
      </trkpt>
      <trkpt lat="61.89453" lon="17.28273">
        <ele>15.408327</ele>
        <time>2020-08-29T17:50:48.320Z</time>
      </trkpt>
      <trkpt lat="61.89415" lon="17.28339">
        <ele>14.811791</ele>
        <time>2020-08-29T17:50:55.693Z</time>
      </trkpt>
      <trkpt lat="61.89376" lon="17.28422">
        <ele>14.14905</ele>
        <time>2020-08-29T17:51:03.963Z</time>
      </trkpt>
      <trkpt lat="61.89337" lon="17.28521">
        <ele>13.527456</ele>
        <time>2020-08-29T17:51:13.254Z</time>
      </trkpt>
      <trkpt lat="61.89309" lon="17.28589">
        <ele>13.149527</ele>
        <time>2020-08-29T17:51:19.884Z</time>
      </trkpt>
      <trkpt lat="61.89219" lon="17.28746">
        <ele>12.16552</ele>
        <time>2020-08-29T17:51:38.387Z</time>
      </trkpt>
      <trkpt lat="61.89156" lon="17.28843">
        <ele>11.695416</ele>
        <time>2020-08-29T17:51:51.197Z</time>
      </trkpt>
      <trkpt lat="61.89042" lon="17.28993">
        <ele>10.84439</ele>
        <time>2020-08-29T17:52:13.040Z</time>
      </trkpt>
      <trkpt lat="61.89019" lon="17.29041">
        <ele>10.627406</ele>
        <time>2020-08-29T17:52:18.175Z</time>
      </trkpt>
      <trkpt lat="61.88951" lon="17.29203">
        <ele>9.941316</ele>
        <time>2020-08-29T17:52:34.610Z</time>
      </trkpt>
      <trkpt lat="61.88919" lon="17.29301">
        <ele>9.710584</ele>
        <time>2020-08-29T17:52:43.647Z</time>
      </trkpt>
      <trkpt lat="61.88853" lon="17.29542">
        <ele>9.201327</ele>
        <time>2020-08-29T17:53:05.863Z</time>
      </trkpt>
      <trkpt lat="61.88837" lon="17.29599">
        <ele>9.191799</ele>
        <time>2020-08-29T17:53:11.442Z</time>
      </trkpt>
      <trkpt lat="61.88793" lon="17.29708">
        <ele>9.171439</ele>
        <time>2020-08-29T17:53:23.512Z</time>
      </trkpt>
      <trkpt lat="61.88762" lon="17.29785">
        <ele>9.157008</ele>
        <time>2020-08-29T17:53:32.191Z</time>
      </trkpt>
      <trkpt lat="61.88674" lon="17.30002">
        <ele>9.002373</ele>
        <time>2020-08-29T17:53:56.182Z</time>
      </trkpt>
      <trkpt lat="61.88636" lon="17.30089">
        <ele>8.928893</ele>
        <time>2020-08-29T17:54:05.658Z</time>
      </trkpt>
      <trkpt lat="61.88535" lon="17.3033">
        <ele>8.434091</ele>
        <time>2020-08-29T17:54:31.109Z</time>
      </trkpt>
      <trkpt lat="61.8851" lon="17.30378">
        <ele>8.315616</ele>
        <time>2020-08-29T17:54:36.938Z</time>
      </trkpt>
      <trkpt lat="61.88498" lon="17.30396">
        <ele>8.280274</ele>
        <time>2020-08-29T17:54:39.417Z</time>
      </trkpt>
      <trkpt lat="61.8847" lon="17.30442">
        <ele>8.226683</ele>
        <time>2020-08-29T17:54:45.463Z</time>
      </trkpt>
      <trkpt lat="61.88454" lon="17.30464">
        <ele>8.198684</ele>
        <time>2020-08-29T17:54:48.684Z</time>
      </trkpt>
      <trkpt lat="61.88431" lon="17.30492">
        <ele>8.15869</ele>
        <time>2020-08-29T17:54:53.233Z</time>
      </trkpt>
      <trkpt lat="61.88363" lon="17.30556">
        <ele>8.045683</ele>
        <time>2020-08-29T17:55:06.292Z</time>
      </trkpt>
      <trkpt lat="61.88307" lon="17.30614">
        <ele>8.014815</ele>
        <time>2020-08-29T17:55:17.405Z</time>
      </trkpt>
      <trkpt lat="61.88272" lon="17.30639">
        <ele>8.01072</ele>
        <time>2020-08-29T17:55:24.042Z</time>
      </trkpt>
      <trkpt lat="61.88234" lon="17.30655">
        <ele>8.006467</ele>
        <time>2020-08-29T17:55:30.943Z</time>
      </trkpt>
      <trkpt lat="61.88211" lon="17.30664">
        <ele>8.003889</ele>
        <time>2020-08-29T17:55:35.125Z</time>
      </trkpt>
      <trkpt lat="61.88164" lon="17.30679">
        <ele>7.99966</ele>
        <time>2020-08-29T17:55:43.576Z</time>
      </trkpt>
      <trkpt lat="61.8811" lon="17.30696">
        <ele>7.998069</ele>
        <time>2020-08-29T17:55:53.350Z</time>
      </trkpt>
      <trkpt lat="61.88075" lon="17.3071">
        <ele>7.997053</ele>
        <time>2020-08-29T17:55:59.598Z</time>
      </trkpt>
      <trkpt lat="61.8802" lon="17.30732">
        <ele>7.995422</ele>
        <time>2020-08-29T17:56:09.601Z</time>
      </trkpt>
      <trkpt lat="61.87981" lon="17.30752">
        <ele>7.981046</ele>
        <time>2020-08-29T17:56:16.743Z</time>
      </trkpt>
      <trkpt lat="61.87961" lon="17.30768">
        <ele>7.96517</ele>
        <time>2020-08-29T17:56:20.510Z</time>
      </trkpt>
      <trkpt lat="61.87844" lon="17.30909">
        <ele>7.863935</ele>
        <time>2020-08-29T17:56:44.317Z</time>
      </trkpt>
      <trkpt lat="61.87624" lon="17.31054">
        <ele>7.374705</ele>
        <time>2020-08-29T17:57:23.885Z</time>
      </trkpt>
      <trkpt lat="61.87442" lon="17.31281">
        <ele>6.771415</ele>
        <time>2020-08-29T17:57:59.643Z</time>
      </trkpt>
      <trkpt lat="61.87401" lon="17.31334">
        <ele>6.616794</ele>
        <time>2020-08-29T17:58:07.712Z</time>
      </trkpt>
      <trkpt lat="61.87371" lon="17.31376">
        <ele>6.50181</ele>
        <time>2020-08-29T17:58:13.757Z</time>
      </trkpt>
      <trkpt lat="61.87341" lon="17.31424">
        <ele>6.5112</ele>
        <time>2020-08-29T17:58:20.125Z</time>
      </trkpt>
      <trkpt lat="61.87319" lon="17.31458">
        <ele>6.624314</ele>
        <time>2020-08-29T17:58:24.963Z</time>
      </trkpt>
      <trkpt lat="61.87306" lon="17.31473">
        <ele>6.683446</ele>
        <time>2020-08-29T17:58:27.566Z</time>
      </trkpt>
      <trkpt lat="61.87296" lon="17.31483">
        <ele>6.730158</ele>
        <time>2020-08-29T17:58:29.748Z</time>
      </trkpt>
      <trkpt lat="61.87268" lon="17.31501">
        <ele>6.850601</ele>
        <time>2020-08-29T17:58:35.240Z</time>
      </trkpt>
      <trkpt lat="61.87241" lon="17.31504">
        <ele>6.961224</ele>
        <time>2020-08-29T17:58:40.437Z</time>
      </trkpt>
      <trkpt lat="61.87218" lon="17.3149">
        <ele>7.060782</ele>
        <time>2020-08-29T17:58:45.485Z</time>
      </trkpt>
      <trkpt lat="61.87206" lon="17.3148">
        <ele>7.114895</ele>
        <time>2020-08-29T17:58:48.147Z</time>
      </trkpt>
      <trkpt lat="61.87185" lon="17.31465">
        <ele>7.272537</ele>
        <time>2020-08-29T17:58:52.802Z</time>
      </trkpt>
      <trkpt lat="61.8718" lon="17.31463">
        <ele>7.353676</ele>
        <time>2020-08-29T17:58:53.828Z</time>
      </trkpt>
      <trkpt lat="61.87168" lon="17.31455">
        <ele>7.544901</ele>
        <time>2020-08-29T17:58:56.440Z</time>
      </trkpt>
      <trkpt lat="61.87157" lon="17.31457">
        <ele>7.726312</ele>
        <time>2020-08-29T17:58:59.179Z</time>
      </trkpt>
      <trkpt lat="61.87133" lon="17.3146">
        <ele>8.099845</ele>
        <time>2020-08-29T17:59:04.409Z</time>
      </trkpt>
      <trkpt lat="61.87127" lon="17.31465">
        <ele>8.195261</ele>
        <time>2020-08-29T17:59:05.906Z</time>
      </trkpt>
      <trkpt lat="61.87121" lon="17.31473">
        <ele>8.293927</ele>
        <time>2020-08-29T17:59:07.409Z</time>
      </trkpt>
      <trkpt lat="61.87104" lon="17.31511">
        <ele>8.680756</ele>
        <time>2020-08-29T17:59:13.009Z</time>
      </trkpt>
      <trkpt lat="61.87092" lon="17.3155">
        <ele>9.020349</ele>
        <time>2020-08-29T17:59:18.145Z</time>
      </trkpt>
      <trkpt lat="61.87085" lon="17.31571">
        <ele>9.208292</ele>
        <time>2020-08-29T17:59:21.021Z</time>
      </trkpt>
      <trkpt lat="61.87041" lon="17.31629">
        <ele>10.027205</ele>
        <time>2020-08-29T17:59:33.623Z</time>
      </trkpt>
      <trkpt lat="61.87029" lon="17.31639">
        <ele>10.265695</ele>
        <time>2020-08-29T17:59:36.727Z</time>
      </trkpt>
      <trkpt lat="61.87019" lon="17.31646">
        <ele>10.457406</ele>
        <time>2020-08-29T17:59:39.214Z</time>
      </trkpt>
      <trkpt lat="61.87011" lon="17.31648">
        <ele>10.598963</ele>
        <time>2020-08-29T17:59:41.083Z</time>
      </trkpt>
      <trkpt lat="61.87006" lon="17.3163">
        <ele>10.779206</ele>
        <time>2020-08-29T17:59:43.384Z</time>
      </trkpt>
      <trkpt lat="61.87" lon="17.31609">
        <ele>10.998114</ele>
        <time>2020-08-29T17:59:46.320Z</time>
      </trkpt>
      <trkpt lat="61.86992" lon="17.31589">
        <ele>11.222227</ele>
        <time>2020-08-29T17:59:49.145Z</time>
      </trkpt>
      <trkpt lat="61.86984" lon="17.31571">
        <ele>11.443509</ele>
        <time>2020-08-29T17:59:51.977Z</time>
      </trkpt>
      <trkpt lat="61.86972" lon="17.31552">
        <ele>11.714213</ele>
        <time>2020-08-29T17:59:55.679Z</time>
      </trkpt>
      <trkpt lat="61.86956" lon="17.31532">
        <ele>12.057949</ele>
        <time>2020-08-29T18:00:00.021Z</time>
      </trkpt>
      <trkpt lat="61.86901" lon="17.31478">
        <ele>13.175085</ele>
        <time>2020-08-29T18:00:14.416Z</time>
      </trkpt>
      <trkpt lat="61.86867" lon="17.31442">
        <ele>13.575088</ele>
        <time>2020-08-29T18:00:23.222Z</time>
      </trkpt>
      <trkpt lat="61.86822" lon="17.31396">
        <ele>14.023895</ele>
        <time>2020-08-29T18:00:34.207Z</time>
      </trkpt>
      <trkpt lat="61.86778" lon="17.31354">
        <ele>14.462332</ele>
        <time>2020-08-29T18:00:44.208Z</time>
      </trkpt>
      <trkpt lat="61.86692" lon="17.31277">
        <ele>14.496719</ele>
        <time>2020-08-29T18:01:01.003Z</time>
      </trkpt>
      <trkpt lat="61.86666" lon="17.31264">
        <ele>14.255423</ele>
        <time>2020-08-29T18:01:05.213Z</time>
      </trkpt>
      <trkpt lat="61.86648" lon="17.31261">
        <ele>14.094642</ele>
        <time>2020-08-29T18:01:07.912Z</time>
      </trkpt>
      <trkpt lat="61.866" lon="17.31253">
        <ele>13.652559</ele>
        <time>2020-08-29T18:01:15.261Z</time>
      </trkpt>
      <trkpt lat="61.86594" lon="17.31252">
        <ele>13.595882</ele>
        <time>2020-08-29T18:01:16.121Z</time>
      </trkpt>
      <trkpt lat="61.86528" lon="17.31242">
        <ele>12.82443</ele>
        <time>2020-08-29T18:01:25.742Z</time>
      </trkpt>
      <trkpt lat="61.86434" lon="17.3123">
        <ele>11.424134</ele>
        <time>2020-08-29T18:01:39.432Z</time>
      </trkpt>
      <trkpt lat="61.86405" lon="17.31227">
        <ele>11.001018</ele>
        <time>2020-08-29T18:01:43.713Z</time>
      </trkpt>
      <trkpt lat="61.864" lon="17.31226">
        <ele>10.928223</ele>
        <time>2020-08-29T18:01:44.433Z</time>
      </trkpt>
      <trkpt lat="61.86326" lon="17.31217">
        <ele>10.05577</ele>
        <time>2020-08-29T18:01:55.740Z</time>
      </trkpt>
      <trkpt lat="61.86305" lon="17.31215">
        <ele>9.83204</ele>
        <time>2020-08-29T18:01:59.072Z</time>
      </trkpt>
      <trkpt lat="61.86191" lon="17.31198">
        <ele>8.598745</ele>
        <time>2020-08-29T18:02:16.950Z</time>
      </trkpt>
      <trkpt lat="61.86104" lon="17.31147">
        <ele>7.389109</ele>
        <time>2020-08-29T18:02:30.446Z</time>
      </trkpt>
      <trkpt lat="61.85873" lon="17.30877">
        <ele>3.820938</ele>
        <time>2020-08-29T18:03:09.208Z</time>
      </trkpt>
      <trkpt lat="61.85757" lon="17.3069">
        <ele>3.370408</ele>
        <time>2020-08-29T18:03:33.278Z</time>
      </trkpt>
      <trkpt lat="61.85727" lon="17.30637">
        <ele>3.382997</ele>
        <time>2020-08-29T18:03:41.316Z</time>
      </trkpt>
      <trkpt lat="61.85702" lon="17.30592">
        <ele>3.886014</ele>
        <time>2020-08-29T18:03:48.052Z</time>
      </trkpt>
      <trkpt lat="61.85692" lon="17.30575">
        <ele>4.077983</ele>
        <time>2020-08-29T18:03:50.953Z</time>
      </trkpt>
      <trkpt lat="61.85675" lon="17.30538">
        <ele>4.454689</ele>
        <time>2020-08-29T18:03:56.198Z</time>
      </trkpt>
      <trkpt lat="61.85673" lon="17.30533">
        <ele>4.514635</ele>
        <time>2020-08-29T18:03:57.393Z</time>
      </trkpt>
      <trkpt lat="61.85646" lon="17.30457">
        <ele>5.200674</ele>
        <time>2020-08-29T18:04:07.731Z</time>
      </trkpt>
      <trkpt lat="61.85626" lon="17.30371">
        <ele>5.897231</ele>
        <time>2020-08-29T18:04:18.810Z</time>
      </trkpt>
      <trkpt lat="61.85595" lon="17.30228">
        <ele>7.490919</ele>
        <time>2020-08-29T18:04:37.367Z</time>
      </trkpt>
      <trkpt lat="61.85575" lon="17.30138">
        <ele>8.54563</ele>
        <time>2020-08-29T18:04:49.056Z</time>
      </trkpt>
      <trkpt lat="61.85548" lon="17.30016">
        <ele>9.961394</ele>
        <time>2020-08-29T18:05:05.095Z</time>
      </trkpt>
      <trkpt lat="61.85532" lon="17.29925">
        <ele>10.965419</ele>
        <time>2020-08-29T18:05:16.882Z</time>
      </trkpt>
      <trkpt lat="61.85528" lon="17.29897">
        <ele>11.258023</ele>
        <time>2020-08-29T18:05:20.263Z</time>
      </trkpt>
      <trkpt lat="61.85525" lon="17.29863">
        <ele>11.616413</ele>
        <time>2020-08-29T18:05:24.385Z</time>
      </trkpt>
      <trkpt lat="61.85524" lon="17.29815">
        <ele>12.109033</ele>
        <time>2020-08-29T18:05:30.005Z</time>
      </trkpt>
      <trkpt lat="61.85525" lon="17.29772">
        <ele>12.550391</ele>
        <time>2020-08-29T18:05:35.020Z</time>
      </trkpt>
      <trkpt lat="61.85528" lon="17.29608">
        <ele>14.13285</ele>
        <time>2020-08-29T18:05:53.948Z</time>
      </trkpt>
      <trkpt lat="61.85529" lon="17.29559">
        <ele>14.443353</ele>
        <time>2020-08-29T18:05:59.485Z</time>
      </trkpt>
      <trkpt lat="61.85524" lon="17.29479">
        <ele>14.951655</ele>
        <time>2020-08-29T18:06:08.377Z</time>
      </trkpt>
      <trkpt lat="61.85496" lon="17.29275">
        <ele>16.290557</ele>
        <time>2020-08-29T18:06:29.776Z</time>
      </trkpt>
      <trkpt lat="61.85482" lon="17.2899">
        <ele>17.387263</ele>
        <time>2020-08-29T18:06:57.055Z</time>
      </trkpt>
      <trkpt lat="61.85443" lon="17.28722">
        <ele>18.396555</ele>
        <time>2020-08-29T18:07:23.865Z</time>
      </trkpt>
      <trkpt lat="61.85405" lon="17.28556">
        <ele>19.048677</ele>
        <time>2020-08-29T18:07:41.537Z</time>
      </trkpt>
      <trkpt lat="61.85383" lon="17.28497">
        <ele>19.244417</ele>
        <time>2020-08-29T18:07:48.764Z</time>
      </trkpt>
      <trkpt lat="61.85365" lon="17.28459">
        <ele>19.352474</ele>
        <time>2020-08-29T18:07:53.740Z</time>
      </trkpt>
      <trkpt lat="61.8535" lon="17.28435">
        <ele>19.432922</ele>
        <time>2020-08-29T18:07:57.333Z</time>
      </trkpt>
      <trkpt lat="61.85284" lon="17.28361">
        <ele>19.755459</ele>
        <time>2020-08-29T18:08:11.607Z</time>
      </trkpt>
      <trkpt lat="61.8521" lon="17.28288">
        <ele>19.937831</ele>
        <time>2020-08-29T18:08:26.644Z</time>
      </trkpt>
      <trkpt lat="61.852" lon="17.28278">
        <ele>19.942583</ele>
        <time>2020-08-29T18:08:28.489Z</time>
      </trkpt>
      <trkpt lat="61.85177" lon="17.28252">
        <ele>19.95472</ele>
        <time>2020-08-29T18:08:33.200Z</time>
      </trkpt>
      <trkpt lat="61.85133" lon="17.28174">
        <ele>19.980845</ele>
        <time>2020-08-29T18:08:43.351Z</time>
      </trkpt>
      <trkpt lat="61.85111" lon="17.28103">
        <ele>19.999408</ele>
        <time>2020-08-29T18:08:50.565Z</time>
      </trkpt>
      <trkpt lat="61.85075" lon="17.27954">
        <ele>20.000012</ele>
        <time>2020-08-29T18:09:04.652Z</time>
      </trkpt>
      <trkpt lat="61.85045" lon="17.27886">
        <ele>20.000012</ele>
        <time>2020-08-29T18:09:12.521Z</time>
      </trkpt>
      <trkpt lat="61.85021" lon="17.27842">
        <ele>20.000012</ele>
        <time>2020-08-29T18:09:18.202Z</time>
      </trkpt>
      <trkpt lat="61.84991" lon="17.27807">
        <ele>20.000012</ele>
        <time>2020-08-29T18:09:24.249Z</time>
      </trkpt>
      <trkpt lat="61.84859" lon="17.27671">
        <ele>20.000012</ele>
        <time>2020-08-29T18:09:50.561Z</time>
      </trkpt>
      <trkpt lat="61.84817" lon="17.27604">
        <ele>19.993731</ele>
        <time>2020-08-29T18:09:59.874Z</time>
      </trkpt>
      <trkpt lat="61.84735" lon="17.27359">
        <ele>19.961208</ele>
        <time>2020-08-29T18:10:25.068Z</time>
      </trkpt>
      <trkpt lat="61.84648" lon="17.27135">
        <ele>19.792109</ele>
        <time>2020-08-29T18:10:48.941Z</time>
      </trkpt>
      <trkpt lat="61.84539" lon="17.2677">
        <ele>19.827266</ele>
        <time>2020-08-29T18:11:24.401Z</time>
      </trkpt>
      <trkpt lat="61.8452" lon="17.26727">
        <ele>19.846992</ele>
        <time>2020-08-29T18:11:29.397Z</time>
      </trkpt>
      <trkpt lat="61.84503" lon="17.26698">
        <ele>20.290532</ele>
        <time>2020-08-29T18:11:33.629Z</time>
      </trkpt>
      <trkpt lat="61.84389" lon="17.26576">
        <ele>23.107443</ele>
        <time>2020-08-29T18:12:05.081Z</time>
      </trkpt>
      <trkpt lat="61.84363" lon="17.26528">
        <ele>23.90908</ele>
        <time>2020-08-29T18:12:15.291Z</time>
      </trkpt>
      <trkpt lat="61.84339" lon="17.26488">
        <ele>25.258756</ele>
        <time>2020-08-29T18:12:24.929Z</time>
      </trkpt>
      <trkpt lat="61.84199" lon="17.26256">
        <ele>32.616988</ele>
        <time>2020-08-29T18:13:23.615Z</time>
      </trkpt>
      <trkpt lat="61.84146" lon="17.26216">
        <ele>34.249863</ele>
        <time>2020-08-29T18:13:39.995Z</time>
      </trkpt>
      <trkpt lat="61.84023" lon="17.26171">
        <ele>37.040396</ele>
        <time>2020-08-29T18:14:09.826Z</time>
      </trkpt>
      <trkpt lat="61.8399" lon="17.2617">
        <ele>37.173756</ele>
        <time>2020-08-29T18:14:16.435Z</time>
      </trkpt>
      <trkpt lat="61.83932" lon="17.26198">
        <ele>37.411937</ele>
        <time>2020-08-29T18:14:27.337Z</time>
      </trkpt>
      <trkpt lat="61.83859" lon="17.2626">
        <ele>37.308491</ele>
        <time>2020-08-29T18:14:40.386Z</time>
      </trkpt>
      <trkpt lat="61.83803" lon="17.26315">
        <ele>36.429412</ele>
        <time>2020-08-29T18:14:49.926Z</time>
      </trkpt>
      <trkpt lat="61.83695" lon="17.26412">
        <ele>34.327977</ele>
        <time>2020-08-29T18:15:06.745Z</time>
      </trkpt>
      <trkpt lat="61.83619" lon="17.26483">
        <ele>31.539973</ele>
        <time>2020-08-29T18:15:17.489Z</time>
      </trkpt>
      <trkpt lat="61.83581" lon="17.26504">
        <ele>30.234339</ele>
        <time>2020-08-29T18:15:22.420Z</time>
      </trkpt>
      <trkpt lat="61.83555" lon="17.2651">
        <ele>29.3554</ele>
        <time>2020-08-29T18:15:25.744Z</time>
      </trkpt>
      <trkpt lat="61.83537" lon="17.26504">
        <ele>28.844875</ele>
        <time>2020-08-29T18:15:27.960Z</time>
      </trkpt>
      <trkpt lat="61.83508" lon="17.26483">
        <ele>28.046319</ele>
        <time>2020-08-29T18:15:31.964Z</time>
      </trkpt>
      <trkpt lat="61.83491" lon="17.26463">
        <ele>27.559284</ele>
        <time>2020-08-29T18:15:34.419Z</time>
      </trkpt>
      <trkpt lat="61.83473" lon="17.26428">
        <ele>26.949935</ele>
        <time>2020-08-29T18:15:37.587Z</time>
      </trkpt>
      <trkpt lat="61.83445" lon="17.26331">
        <ele>25.583894</ele>
        <time>2020-08-29T18:15:44.872Z</time>
      </trkpt>
      <trkpt lat="61.83421" lon="17.26151">
        <ele>23.979564</ele>
        <time>2020-08-29T18:15:58.872Z</time>
      </trkpt>
      <trkpt lat="61.83415" lon="17.26088">
        <ele>23.637754</ele>
        <time>2020-08-29T18:16:04.123Z</time>
      </trkpt>
      <trkpt lat="61.83408" lon="17.26016">
        <ele>23.242703</ele>
        <time>2020-08-29T18:16:09.733Z</time>
      </trkpt>
      <trkpt lat="61.83399" lon="17.25928">
        <ele>22.757643</ele>
        <time>2020-08-29T18:16:16.338Z</time>
      </trkpt>
      <trkpt lat="61.83393" lon="17.25873">
        <ele>22.455837</ele>
        <time>2020-08-29T18:16:20.100Z</time>
      </trkpt>
      <trkpt lat="61.83382" lon="17.25795">
        <ele>21.006852</ele>
        <time>2020-08-29T18:16:25.393Z</time>
      </trkpt>
      <trkpt lat="61.83371" lon="17.25732">
        <ele>19.787448</ele>
        <time>2020-08-29T18:16:29.513Z</time>
      </trkpt>
      <trkpt lat="61.83359" lon="17.25683">
        <ele>18.805511</ele>
        <time>2020-08-29T18:16:32.747Z</time>
      </trkpt>
      <trkpt lat="61.83341" lon="17.25628">
        <ele>17.61442</ele>
        <time>2020-08-29T18:16:36.587Z</time>
      </trkpt>
      <trkpt lat="61.83313" lon="17.25571">
        <ele>16.122809</ele>
        <time>2020-08-29T18:16:41.327Z</time>
      </trkpt>
      <trkpt lat="61.83298" lon="17.25547">
        <ele>15.473089</ele>
        <time>2020-08-29T18:16:43.565Z</time>
      </trkpt>
      <trkpt lat="61.83274" lon="17.25513">
        <ele>14.572496</ele>
        <time>2020-08-29T18:16:47.156Z</time>
      </trkpt>
      <trkpt lat="61.83246" lon="17.25473">
        <ele>13.542212</ele>
        <time>2020-08-29T18:16:51.406Z</time>
      </trkpt>
      <trkpt lat="61.83221" lon="17.2544">
        <ele>12.652626</ele>
        <time>2020-08-29T18:16:55.132Z</time>
      </trkpt>
      <trkpt lat="61.83187" lon="17.25388">
        <ele>11.377059</ele>
        <time>2020-08-29T18:17:00.683Z</time>
      </trkpt>
      <trkpt lat="61.83146" lon="17.253">
        <ele>10.376647</ele>
        <time>2020-08-29T18:17:09.519Z</time>
      </trkpt>
      <trkpt lat="61.83111" lon="17.25209">
        <ele>11.146551</ele>
        <time>2020-08-29T18:17:20.207Z</time>
      </trkpt>
      <trkpt lat="61.83097" lon="17.25162">
        <ele>11.510548</ele>
        <time>2020-08-29T18:17:25.989Z</time>
      </trkpt>
      <trkpt lat="61.83091" lon="17.25142">
        <ele>11.667424</ele>
        <time>2020-08-29T18:17:29.124Z</time>
      </trkpt>
      <trkpt lat="61.83078" lon="17.25084">
        <ele>12.095919</ele>
        <time>2020-08-29T18:17:37.074Z</time>
      </trkpt>
      <trkpt lat="61.83066" lon="17.25029">
        <ele>12.495709</ele>
        <time>2020-08-29T18:17:44.884Z</time>
      </trkpt>
      <trkpt lat="61.83057" lon="17.24956">
        <ele>13.679098</ele>
        <time>2020-08-29T18:17:55.048Z</time>
      </trkpt>
      <trkpt lat="61.83057" lon="17.24881">
        <ele>15.158174</ele>
        <time>2020-08-29T18:18:05.691Z</time>
      </trkpt>
      <trkpt lat="61.83059" lon="17.24855">
        <ele>15.667158</ele>
        <time>2020-08-29T18:18:10.023Z</time>
      </trkpt>
      <trkpt lat="61.83067" lon="17.2476">
        <ele>17.564674</ele>
        <time>2020-08-29T18:18:24.829Z</time>
      </trkpt>
      <trkpt lat="61.83078" lon="17.24588">
        <ele>20.902749</ele>
        <time>2020-08-29T18:18:50.906Z</time>
      </trkpt>
      <trkpt lat="61.83077" lon="17.24538">
        <ele>21.839613</ele>
        <time>2020-08-29T18:18:58.897Z</time>
      </trkpt>
      <trkpt lat="61.83074" lon="17.24502">
        <ele>22.515773</ele>
        <time>2020-08-29T18:19:04.278Z</time>
      </trkpt>
      <trkpt lat="61.83062" lon="17.24408">
        <ele>24.324955</ele>
        <time>2020-08-29T18:19:17.725Z</time>
      </trkpt>
      <trkpt lat="61.83052" lon="17.24356">
        <ele>25.36382</ele>
        <time>2020-08-29T18:19:25.706Z</time>
      </trkpt>
      <trkpt lat="61.83015" lon="17.24172">
        <ele>28.741507</ele>
        <time>2020-08-29T18:19:53.794Z</time>
      </trkpt>
      <trkpt lat="61.83" lon="17.24102">
        <ele>29.886581</ele>
        <time>2020-08-29T18:20:03.949Z</time>
      </trkpt>
      <trkpt lat="61.82972" lon="17.23966">
        <ele>32.138199</ele>
        <time>2020-08-29T18:20:23.346Z</time>
      </trkpt>
      <trkpt lat="61.82966" lon="17.23911">
        <ele>32.967962</ele>
        <time>2020-08-29T18:20:30.490Z</time>
      </trkpt>
      <trkpt lat="61.82964" lon="17.23825">
        <ele>33.826379</ele>
        <time>2020-08-29T18:20:41.287Z</time>
      </trkpt>
      <trkpt lat="61.82999" lon="17.23348">
        <ele>38.07097</ele>
        <time>2020-08-29T18:21:35.607Z</time>
      </trkpt>
      <trkpt lat="61.82994" lon="17.23233">
        <ele>38.875833</ele>
        <time>2020-08-29T18:21:47.685Z</time>
      </trkpt>
      <trkpt lat="61.82966" lon="17.23044">
        <ele>39.604325</ele>
        <time>2020-08-29T18:22:06.774Z</time>
      </trkpt>
      <trkpt lat="61.82957" lon="17.23011">
        <ele>39.669839</ele>
        <time>2020-08-29T18:22:10.352Z</time>
      </trkpt>
      <trkpt lat="61.82944" lon="17.22979">
        <ele>39.741928</ele>
        <time>2020-08-29T18:22:14.036Z</time>
      </trkpt>
      <trkpt lat="61.8292" lon="17.22942">
        <ele>39.848833</ele>
        <time>2020-08-29T18:22:19.534Z</time>
      </trkpt>
      <trkpt lat="61.82803" lon="17.22839">
        <ele>39.948393</ele>
        <time>2020-08-29T18:22:41.839Z</time>
      </trkpt>
      <trkpt lat="61.82709" lon="17.22809">
        <ele>39.827789</ele>
        <time>2020-08-29T18:22:58.025Z</time>
      </trkpt>
      <trkpt lat="61.82585" lon="17.2279">
        <ele>39.799503</ele>
        <time>2020-08-29T18:23:20.134Z</time>
      </trkpt>
      <trkpt lat="61.8257" lon="17.22785">
        <ele>39.797727</ele>
        <time>2020-08-29T18:23:22.820Z</time>
      </trkpt>
      <trkpt lat="61.82553" lon="17.2278">
        <ele>39.795674</ele>
        <time>2020-08-29T18:23:25.953Z</time>
      </trkpt>
      <trkpt lat="61.82479" lon="17.22736">
        <ele>39.800149</ele>
        <time>2020-08-29T18:23:39.903Z</time>
      </trkpt>
      <trkpt lat="61.82445" lon="17.22699">
        <ele>39.808024</ele>
        <time>2020-08-29T18:23:46.836Z</time>
      </trkpt>
      <trkpt lat="61.82433" lon="17.22682">
        <ele>39.811049</ele>
        <time>2020-08-29T18:23:49.525Z</time>
      </trkpt>
      <trkpt lat="61.82415" lon="17.22657">
        <ele>39.815532</ele>
        <time>2020-08-29T18:23:53.443Z</time>
      </trkpt>
      <trkpt lat="61.82396" lon="17.22624">
        <ele>39.820683</ele>
        <time>2020-08-29T18:23:57.877Z</time>
      </trkpt>
      <trkpt lat="61.82387" lon="17.22609">
        <ele>39.822951</ele>
        <time>2020-08-29T18:23:59.822Z</time>
      </trkpt>
      <trkpt lat="61.82367" lon="17.22564">
        <ele>39.822328</ele>
        <time>2020-08-29T18:24:05.034Z</time>
      </trkpt>
      <trkpt lat="61.82288" lon="17.22368">
        <ele>39.346099</ele>
        <time>2020-08-29T18:24:25.604Z</time>
      </trkpt>
      <trkpt lat="61.82255" lon="17.22274">
        <ele>39.131156</ele>
        <time>2020-08-29T18:24:34.480Z</time>
      </trkpt>
      <trkpt lat="61.82246" lon="17.22231">
        <ele>39.041985</ele>
        <time>2020-08-29T18:24:38.071Z</time>
      </trkpt>
      <trkpt lat="61.82241" lon="17.22203">
        <ele>38.98578</ele>
        <time>2020-08-29T18:24:40.385Z</time>
      </trkpt>
      <trkpt lat="61.82232" lon="17.22155">
        <ele>38.88804</ele>
        <time>2020-08-29T18:24:44.306Z</time>
      </trkpt>
      <trkpt lat="61.8222" lon="17.22054">
        <ele>38.693881</ele>
        <time>2020-08-29T18:24:52.258Z</time>
      </trkpt>
      <trkpt lat="61.82214" lon="17.21768">
        <ele>38.122497</ele>
        <time>2020-08-29T18:25:16.232Z</time>
      </trkpt>
      <trkpt lat="61.82212" lon="17.21687">
        <ele>37.94859</ele>
        <time>2020-08-29T18:25:23.405Z</time>
      </trkpt>
      <trkpt lat="61.82207" lon="17.2161">
        <ele>37.78304</ele>
        <time>2020-08-29T18:25:29.293Z</time>
      </trkpt>
      <trkpt lat="61.82189" lon="17.21458">
        <ele>36.593566</ele>
        <time>2020-08-29T18:25:40.430Z</time>
      </trkpt>
      <trkpt lat="61.82178" lon="17.21403">
        <ele>35.734019</ele>
        <time>2020-08-29T18:25:44.494Z</time>
      </trkpt>
      <trkpt lat="61.82166" lon="17.21355">
        <ele>34.949445</ele>
        <time>2020-08-29T18:25:47.957Z</time>
      </trkpt>
      <trkpt lat="61.82125" lon="17.21217">
        <ele>32.61079</ele>
        <time>2020-08-29T18:25:57.661Z</time>
      </trkpt>
      <trkpt lat="61.82071" lon="17.21094">
        <ele>29.207656</ele>
        <time>2020-08-29T18:26:07.301Z</time>
      </trkpt>
      <trkpt lat="61.82045" lon="17.21038">
        <ele>27.499051</ele>
        <time>2020-08-29T18:26:11.823Z</time>
      </trkpt>
      <trkpt lat="61.82031" lon="17.21013">
        <ele>26.632286</ele>
        <time>2020-08-29T18:26:14.081Z</time>
      </trkpt>
      <trkpt lat="61.81966" lon="17.20904">
        <ele>23.25615</ele>
        <time>2020-08-29T18:26:24.425Z</time>
      </trkpt>
      <trkpt lat="61.8194" lon="17.20862">
        <ele>22.397727</ele>
        <time>2020-08-29T18:26:28.532Z</time>
      </trkpt>
      <trkpt lat="61.81915" lon="17.20816">
        <ele>21.515168</ele>
        <time>2020-08-29T18:26:32.932Z</time>
      </trkpt>
      <trkpt lat="61.81907" lon="17.20804">
        <ele>21.267179</ele>
        <time>2020-08-29T18:26:34.279Z</time>
      </trkpt>
      <trkpt lat="61.81885" lon="17.20768">
        <ele>20.526831</ele>
        <time>2020-08-29T18:26:38.272Z</time>
      </trkpt>
      <trkpt lat="61.81858" lon="17.20732">
        <ele>19.684704</ele>
        <time>2020-08-29T18:26:42.903Z</time>
      </trkpt>
      <trkpt lat="61.81836" lon="17.20709">
        <ele>19.064833</ele>
        <time>2020-08-29T18:26:46.455Z</time>
      </trkpt>
      <trkpt lat="61.81813" lon="17.20694">
        <ele>18.832829</ele>
        <time>2020-08-29T18:26:50.034Z</time>
      </trkpt>
      <trkpt lat="61.81733" lon="17.20669">
        <ele>18.042316</ele>
        <time>2020-08-29T18:27:02.853Z</time>
      </trkpt>
      <trkpt lat="61.81709" lon="17.20664">
        <ele>17.80783</ele>
        <time>2020-08-29T18:27:06.680Z</time>
      </trkpt>
      <trkpt lat="61.81693" lon="17.20661">
        <ele>17.654468</ele>
        <time>2020-08-29T18:27:09.125Z</time>
      </trkpt>
      <trkpt lat="61.81638" lon="17.20661">
        <ele>17.164417</ele>
        <time>2020-08-29T18:27:17.926Z</time>
      </trkpt>
      <trkpt lat="61.81608" lon="17.20675">
        <ele>16.934936</ele>
        <time>2020-08-29T18:27:22.724Z</time>
      </trkpt>
      <trkpt lat="61.81588" lon="17.20692">
        <ele>16.773399</ele>
        <time>2020-08-29T18:27:26.086Z</time>
      </trkpt>
      <trkpt lat="61.81563" lon="17.20711">
        <ele>16.574024</ele>
        <time>2020-08-29T18:27:30.277Z</time>
      </trkpt>
      <trkpt lat="61.81527" lon="17.20726">
        <ele>16.294861</ele>
        <time>2020-08-29T18:27:36.130Z</time>
      </trkpt>
      <trkpt lat="61.81422" lon="17.20712">
        <ele>15.736656</ele>
        <time>2020-08-29T18:27:53.211Z</time>
      </trkpt>
      <trkpt lat="61.81375" lon="17.20701">
        <ele>15.555477</ele>
        <time>2020-08-29T18:28:01.240Z</time>
      </trkpt>
      <trkpt lat="61.81352" lon="17.20695">
        <ele>15.466637</ele>
        <time>2020-08-29T18:28:05.236Z</time>
      </trkpt>
      <trkpt lat="61.81337" lon="17.20693">
        <ele>15.411347</ele>
        <time>2020-08-29T18:28:07.718Z</time>
      </trkpt>
      <trkpt lat="61.81272" lon="17.2068">
        <ele>15.299678</ele>
        <time>2020-08-29T18:28:19.122Z</time>
      </trkpt>
      <trkpt lat="61.81126" lon="17.20642">
        <ele>15.346425</ele>
        <time>2020-08-29T18:28:45.517Z</time>
      </trkpt>
      <trkpt lat="61.81112" lon="17.20632">
        <ele>15.430549</ele>
        <time>2020-08-29T18:28:48.232Z</time>
      </trkpt>
      <trkpt lat="61.81099" lon="17.20617">
        <ele>15.515756</ele>
        <time>2020-08-29T18:28:51.043Z</time>
      </trkpt>
      <trkpt lat="61.81089" lon="17.20605">
        <ele>15.582917</ele>
        <time>2020-08-29T18:28:53.274Z</time>
      </trkpt>
      <trkpt lat="61.81079" lon="17.20593">
        <ele>15.644066</ele>
        <time>2020-08-29T18:28:55.320Z</time>
      </trkpt>
      <trkpt lat="61.81041" lon="17.20514">
        <ele>15.943859</ele>
        <time>2020-08-29T18:29:05.689Z</time>
      </trkpt>
      <trkpt lat="61.8103" lon="17.20479">
        <ele>16.058973</ele>
        <time>2020-08-29T18:29:09.699Z</time>
      </trkpt>
      <trkpt lat="61.81012" lon="17.20392">
        <ele>16.310748</ele>
        <time>2020-08-29T18:29:18.938Z</time>
      </trkpt>
      <trkpt lat="61.8101" lon="17.20372">
        <ele>16.371403</ele>
        <time>2020-08-29T18:29:21.030Z</time>
      </trkpt>
      <trkpt lat="61.80997" lon="17.20354">
        <ele>16.54003</ele>
        <time>2020-08-29T18:29:24.347Z</time>
      </trkpt>
      <trkpt lat="61.80994" lon="17.2034">
        <ele>16.622224</ele>
        <time>2020-08-29T18:29:26.053Z</time>
      </trkpt>
      <trkpt lat="61.80989" lon="17.20274">
        <ele>16.96696</ele>
        <time>2020-08-29T18:29:32.929Z</time>
      </trkpt>
      <trkpt lat="61.80988" lon="17.20241">
        <ele>17.140642</ele>
        <time>2020-08-29T18:29:36.590Z</time>
      </trkpt>
      <trkpt lat="61.80988" lon="17.20233">
        <ele>17.181736</ele>
        <time>2020-08-29T18:29:37.467Z</time>
      </trkpt>
      <trkpt lat="61.80989" lon="17.20214">
        <ele>17.282672</ele>
        <time>2020-08-29T18:29:39.391Z</time>
      </trkpt>
      <trkpt lat="61.80991" lon="17.20197">
        <ele>17.370983</ele>
        <time>2020-08-29T18:29:41.199Z</time>
      </trkpt>
      <trkpt lat="61.80995" lon="17.20184">
        <ele>17.454798</ele>
        <time>2020-08-29T18:29:42.927Z</time>
      </trkpt>
      <trkpt lat="61.80991" lon="17.20127">
        <ele>17.751192</ele>
        <time>2020-08-29T18:29:48.762Z</time>
      </trkpt>
      <trkpt lat="61.80981" lon="17.19975">
        <ele>18.454248</ele>
        <time>2020-08-29T18:30:04.369Z</time>
      </trkpt>
      <trkpt lat="61.8098" lon="17.19963">
        <ele>18.491359</ele>
        <time>2020-08-29T18:30:05.607Z</time>
      </trkpt>
      <trkpt lat="61.80978" lon="17.1994">
        <ele>18.55821</ele>
        <time>2020-08-29T18:30:07.891Z</time>
      </trkpt>
      <trkpt lat="61.80965" lon="17.19839">
        <ele>18.86838</ele>
        <time>2020-08-29T18:30:17.878Z</time>
      </trkpt>
      <trkpt lat="61.80943" lon="17.19758">
        <ele>19.141624</ele>
        <time>2020-08-29T18:30:26.486Z</time>
      </trkpt>
      <trkpt lat="61.80935" lon="17.19734">
        <ele>19.229033</ele>
        <time>2020-08-29T18:30:29.171Z</time>
      </trkpt>
      <trkpt lat="61.80914" lon="17.19672">
        <ele>19.452346</ele>
        <time>2020-08-29T18:30:36.059Z</time>
      </trkpt>
      <trkpt lat="61.8088" lon="17.19654">
        <ele>19.450595</ele>
        <time>2020-08-29T18:30:42.808Z</time>
      </trkpt>
      <trkpt lat="61.80854" lon="17.19614">
        <ele>19.449004</ele>
        <time>2020-08-29T18:30:48.730Z</time>
      </trkpt>
      <trkpt lat="61.80851" lon="17.19607">
        <ele>19.44876</ele>
        <time>2020-08-29T18:30:49.638Z</time>
      </trkpt>
      <trkpt lat="61.80849" lon="17.19599">
        <ele>19.448543</ele>
        <time>2020-08-29T18:30:50.468Z</time>
      </trkpt>
      <trkpt lat="61.80813" lon="17.19419">
        <ele>19.443933</ele>
        <time>2020-08-29T18:31:07.006Z</time>
      </trkpt>
      <trkpt lat="61.80807" lon="17.19401">
        <ele>19.443398</ele>
        <time>2020-08-29T18:31:09.051Z</time>
      </trkpt>
      <trkpt lat="61.80799" lon="17.1936">
        <ele>19.412129</ele>
        <time>2020-08-29T18:31:12.745Z</time>
      </trkpt>
      <trkpt lat="61.80795" lon="17.19331">
        <ele>19.388974</ele>
        <time>2020-08-29T18:31:15.525Z</time>
      </trkpt>
      <trkpt lat="61.80792" lon="17.19292">
        <ele>19.358941</ele>
        <time>2020-08-29T18:31:18.852Z</time>
      </trkpt>
      <trkpt lat="61.8078" lon="17.19251">
        <ele>19.322242</ele>
        <time>2020-08-29T18:31:22.878Z</time>
      </trkpt>
      <trkpt lat="61.80774" lon="17.19203">
        <ele>19.284783</ele>
        <time>2020-08-29T18:31:27.055Z</time>
      </trkpt>
      <trkpt lat="61.80756" lon="17.19121">
        <ele>19.216567</ele>
        <time>2020-08-29T18:31:34.718Z</time>
      </trkpt>
      <trkpt lat="61.80741" lon="17.1906">
        <ele>19.164678</ele>
        <time>2020-08-29T18:31:40.465Z</time>
      </trkpt>
      <trkpt lat="61.80734" lon="17.19047">
        <ele>19.157773</ele>
        <time>2020-08-29T18:31:42.052Z</time>
      </trkpt>
      <trkpt lat="61.80701" lon="17.18964">
        <ele>19.180955</ele>
        <time>2020-08-29T18:31:51.552Z</time>
      </trkpt>
      <trkpt lat="61.8069" lon="17.18963">
        <ele>19.186096</ele>
        <time>2020-08-29T18:31:53.641Z</time>
      </trkpt>
      <trkpt lat="61.80671" lon="17.18911">
        <ele>19.200047</ele>
        <time>2020-08-29T18:31:59.174Z</time>
      </trkpt>
      <trkpt lat="61.80612" lon="17.18751">
        <ele>19.307061</ele>
        <time>2020-08-29T18:32:16.690Z</time>
      </trkpt>
      <trkpt lat="61.80562" lon="17.18637">
        <ele>19.708504</ele>
        <time>2020-08-29T18:32:30.878Z</time>
      </trkpt>
      <trkpt lat="61.8056" lon="17.1863">
        <ele>19.729678</ele>
        <time>2020-08-29T18:32:31.724Z</time>
      </trkpt>
      <trkpt lat="61.80506" lon="17.18512">
        <ele>20.154137</ele>
        <time>2020-08-29T18:32:47.170Z</time>
      </trkpt>
      <trkpt lat="61.80489" lon="17.18473">
        <ele>20.377339</ele>
        <time>2020-08-29T18:32:52.144Z</time>
      </trkpt>
      <trkpt lat="61.80466" lon="17.18409">
        <ele>20.837798</ele>
        <time>2020-08-29T18:33:00.112Z</time>
      </trkpt>
      <trkpt lat="61.80428" lon="17.18271">
        <ele>21.743406</ele>
        <time>2020-08-29T18:33:16.514Z</time>
      </trkpt>
      <trkpt lat="61.80412" lon="17.18184">
        <ele>22.2786</ele>
        <time>2020-08-29T18:33:26.543Z</time>
      </trkpt>
      <trkpt lat="61.80399" lon="17.181">
        <ele>22.966595</ele>
        <time>2020-08-29T18:33:36.183Z</time>
      </trkpt>
      <trkpt lat="61.80392" lon="17.18024">
        <ele>23.621623</ele>
        <time>2020-08-29T18:33:44.716Z</time>
      </trkpt>
      <trkpt lat="61.80388" lon="17.17963">
        <ele>24.148647</ele>
        <time>2020-08-29T18:33:51.913Z</time>
      </trkpt>
      <trkpt lat="61.80386" lon="17.17847">
        <ele>25.126853</ele>
        <time>2020-08-29T18:34:04.886Z</time>
      </trkpt>
      <trkpt lat="61.80386" lon="17.17837">
        <ele>25.215674</ele>
        <time>2020-08-29T18:34:06.290Z</time>
      </trkpt>
      <trkpt lat="61.8039" lon="17.17811">
        <ele>25.445601</ele>
        <time>2020-08-29T18:34:09.355Z</time>
      </trkpt>
      <trkpt lat="61.804" lon="17.17764">
        <ele>25.845914</ele>
        <time>2020-08-29T18:34:14.978Z</time>
      </trkpt>
      <trkpt lat="61.80415" lon="17.17731">
        <ele>26.202286</ele>
        <time>2020-08-29T18:34:19.905Z</time>
      </trkpt>
      <trkpt lat="61.8042" lon="17.17721">
        <ele>26.307233</ele>
        <time>2020-08-29T18:34:21.452Z</time>
      </trkpt>
      <trkpt lat="61.80424" lon="17.17702">
        <ele>26.473639</ele>
        <time>2020-08-29T18:34:24.033Z</time>
      </trkpt>
      <trkpt lat="61.80413" lon="17.17687">
        <ele>26.678573</ele>
        <time>2020-08-29T18:34:26.871Z</time>
      </trkpt>
      <trkpt lat="61.80347" lon="17.17582">
        <ele>28.02086</ele>
        <time>2020-08-29T18:34:45.695Z</time>
      </trkpt>
      <trkpt lat="61.80253" lon="17.17433">
        <ele>30.089695</ele>
        <time>2020-08-29T18:35:12.524Z</time>
      </trkpt>
      <trkpt lat="61.80206" lon="17.17369">
        <ele>31.117178</ele>
        <time>2020-08-29T18:35:26.070Z</time>
      </trkpt>
      <trkpt lat="61.80157" lon="17.17309">
        <ele>32.153623</ele>
        <time>2020-08-29T18:35:39.867Z</time>
      </trkpt>
      <trkpt lat="61.80104" lon="17.17258">
        <ele>33.250414</ele>
        <time>2020-08-29T18:35:54.096Z</time>
      </trkpt>
      <trkpt lat="61.80038" lon="17.17204">
        <ele>34.584376</ele>
        <time>2020-08-29T18:36:11.188Z</time>
      </trkpt>
      <trkpt lat="61.79957" lon="17.17138">
        <ele>35.852023</ele>
        <time>2020-08-29T18:36:30.677Z</time>
      </trkpt>
      <trkpt lat="61.79904" lon="17.17095">
        <ele>36.541866</ele>
        <time>2020-08-29T18:36:42.844Z</time>
      </trkpt>
      <trkpt lat="61.79843" lon="17.17049">
        <ele>37.343353</ele>
        <time>2020-08-29T18:36:56.639Z</time>
      </trkpt>
      <trkpt lat="61.79803" lon="17.17019">
        <ele>37.916169</ele>
        <time>2020-08-29T18:37:05.574Z</time>
      </trkpt>
      <trkpt lat="61.7976" lon="17.16983">
        <ele>38.540437</ele>
        <time>2020-08-29T18:37:15.383Z</time>
      </trkpt>
      <trkpt lat="61.79721" lon="17.16946">
        <ele>39.116236</ele>
        <time>2020-08-29T18:37:24.730Z</time>
      </trkpt>
      <trkpt lat="61.79647" lon="17.16855">
        <ele>40.809867</ele>
        <time>2020-08-29T18:37:44.929Z</time>
      </trkpt>
      <trkpt lat="61.79571" lon="17.16733">
        <ele>43.537324</ele>
        <time>2020-08-29T18:38:10.237Z</time>
      </trkpt>
      <trkpt lat="61.79519" lon="17.16626">
        <ele>45.922828</ele>
        <time>2020-08-29T18:38:32.197Z</time>
      </trkpt>
      <trkpt lat="61.7947" lon="17.16504">
        <ele>49.049477</ele>
        <time>2020-08-29T18:38:56.204Z</time>
      </trkpt>
      <trkpt lat="61.79425" lon="17.16363">
        <ele>52.407548</ele>
        <time>2020-08-29T18:39:21.973Z</time>
      </trkpt>
      <trkpt lat="61.79383" lon="17.16196">
        <ele>55.007511</ele>
        <time>2020-08-29T18:39:48.299Z</time>
      </trkpt>
      <trkpt lat="61.79312" lon="17.15881">
        <ele>58.442215</ele>
        <time>2020-08-29T18:40:28.571Z</time>
      </trkpt>
      <trkpt lat="61.79216" lon="17.15483">
        <ele>59.603657</ele>
        <time>2020-08-29T18:41:08.486Z</time>
      </trkpt>
      <trkpt lat="61.79186" lon="17.15351">
        <ele>59.63666</ele>
        <time>2020-08-29T18:41:20.285Z</time>
      </trkpt>
      <trkpt lat="61.79126" lon="17.15091">
        <ele>59.102534</ele>
        <time>2020-08-29T18:41:43.162Z</time>
      </trkpt>
      <trkpt lat="61.79112" lon="17.15031">
        <ele>58.973564</ele>
        <time>2020-08-29T18:41:48.319Z</time>
      </trkpt>
      <trkpt lat="61.79064" lon="17.1483">
        <ele>58.600541</ele>
        <time>2020-08-29T18:42:06.053Z</time>
      </trkpt>
      <trkpt lat="61.78965" lon="17.14413">
        <ele>58.364611</ele>
        <time>2020-08-29T18:42:43.897Z</time>
      </trkpt>
      <trkpt lat="61.78929" lon="17.14287">
        <ele>58.581341</ele>
        <time>2020-08-29T18:42:57.770Z</time>
      </trkpt>
      <trkpt lat="61.78891" lon="17.14173">
        <ele>59.22386</ele>
        <time>2020-08-29T18:43:11.707Z</time>
      </trkpt>
      <trkpt lat="61.78848" lon="17.14062">
        <ele>59.889897</ele>
        <time>2020-08-29T18:43:26.638Z</time>
      </trkpt>
      <trkpt lat="61.78802" lon="17.13959">
        <ele>60.197507</ele>
        <time>2020-08-29T18:43:40.556Z</time>
      </trkpt>
      <trkpt lat="61.78753" lon="17.13869">
        <ele>60.270067</ele>
        <time>2020-08-29T18:43:52.691Z</time>
      </trkpt>
      <trkpt lat="61.78708" lon="17.13792">
        <ele>60.336025</ele>
        <time>2020-08-29T18:44:02.252Z</time>
      </trkpt>
      <trkpt lat="61.78671" lon="17.13737">
        <ele>60.219917</ele>
        <time>2020-08-29T18:44:09.522Z</time>
      </trkpt>
      <trkpt lat="61.78633" lon="17.13688">
        <ele>60.0046</ele>
        <time>2020-08-29T18:44:16.662Z</time>
      </trkpt>
      <trkpt lat="61.78626" lon="17.13699">
        <ele>59.964607</ele>
        <time>2020-08-29T18:44:18.065Z</time>
      </trkpt>
      <trkpt lat="61.78621" lon="17.13706">
        <ele>59.934045</ele>
        <time>2020-08-29T18:44:19.115Z</time>
      </trkpt>
      <trkpt lat="61.78598" lon="17.13716">
        <ele>59.822947</ele>
        <time>2020-08-29T18:44:22.998Z</time>
      </trkpt>
      <trkpt lat="61.78557" lon="17.13736">
        <ele>59.622238</ele>
        <time>2020-08-29T18:44:30.427Z</time>
      </trkpt>
      <trkpt lat="61.78509" lon="17.13721">
        <ele>59.453675</ele>
        <time>2020-08-29T18:44:39.396Z</time>
      </trkpt>
      <trkpt lat="61.78428" lon="17.13661">
        <ele>59.305276</ele>
        <time>2020-08-29T18:44:55.517Z</time>
      </trkpt>
      <trkpt lat="61.78403" lon="17.13655">
        <ele>59.260834</ele>
        <time>2020-08-29T18:45:00.320Z</time>
      </trkpt>
      <trkpt lat="61.78146" lon="17.13754">
        <ele>57.519696</ele>
        <time>2020-08-29T18:45:44.572Z</time>
      </trkpt>
      <trkpt lat="61.78015" lon="17.1376">
        <ele>55.510356</ele>
        <time>2020-08-29T18:46:04.919Z</time>
      </trkpt>
      <trkpt lat="61.77967" lon="17.1375">
        <ele>53.975377</ele>
        <time>2020-08-29T18:46:11.632Z</time>
      </trkpt>
      <trkpt lat="61.77883" lon="17.13732">
        <ele>50.620168</ele>
        <time>2020-08-29T18:46:22.847Z</time>
      </trkpt>
      <trkpt lat="61.77837" lon="17.13723">
        <ele>48.796959</ele>
        <time>2020-08-29T18:46:28.711Z</time>
      </trkpt>
      <trkpt lat="61.77819" lon="17.1372">
        <ele>48.111283</ele>
        <time>2020-08-29T18:46:30.957Z</time>
      </trkpt>
      <trkpt lat="61.77807" lon="17.13717">
        <ele>47.603831</ele>
        <time>2020-08-29T18:46:32.523Z</time>
      </trkpt>
      <trkpt lat="61.77758" lon="17.13708">
        <ele>45.674627</ele>
        <time>2020-08-29T18:46:38.831Z</time>
      </trkpt>
      <trkpt lat="61.7772" lon="17.13696">
        <ele>44.149795</ele>
        <time>2020-08-29T18:46:43.854Z</time>
      </trkpt>
      <trkpt lat="61.77703" lon="17.13688">
        <ele>43.493066</ele>
        <time>2020-08-29T18:46:45.979Z</time>
      </trkpt>
      <trkpt lat="61.77637" lon="17.1364">
        <ele>41.053955</ele>
        <time>2020-08-29T18:46:55.734Z</time>
      </trkpt>
      <trkpt lat="61.77578" lon="17.13584">
        <ele>40.75917</ele>
        <time>2020-08-29T18:47:05.628Z</time>
      </trkpt>
      <trkpt lat="61.77523" lon="17.13507">
        <ele>40.457989</ele>
        <time>2020-08-29T18:47:18.073Z</time>
      </trkpt>
      <trkpt lat="61.77446" lon="17.1334">
        <ele>41.846444</ele>
        <time>2020-08-29T18:47:43.870Z</time>
      </trkpt>
      <trkpt lat="61.77435" lon="17.13308">
        <ele>42.250758</ele>
        <time>2020-08-29T18:47:48.587Z</time>
      </trkpt>
      <trkpt lat="61.77411" lon="17.1323">
        <ele>43.238343</ele>
        <time>2020-08-29T18:48:00.266Z</time>
      </trkpt>
      <trkpt lat="61.77329" lon="17.12915">
        <ele>47.747569</ele>
        <time>2020-08-29T18:48:49.901Z</time>
      </trkpt>
      <trkpt lat="61.773" lon="17.12827">
        <ele>49.162168</ele>
        <time>2020-08-29T18:49:03.120Z</time>
      </trkpt>
      <trkpt lat="61.77272" lon="17.12743">
        <ele>49.133894</ele>
        <time>2020-08-29T18:49:14.608Z</time>
      </trkpt>
      <trkpt lat="61.77265" lon="17.12715">
        <ele>49.069695</ele>
        <time>2020-08-29T18:49:17.646Z</time>
      </trkpt>
      <trkpt lat="61.77256" lon="17.12664">
        <ele>48.958779</ele>
        <time>2020-08-29T18:49:22.861Z</time>
      </trkpt>
      <trkpt lat="61.77232" lon="17.12669">
        <ele>48.857056</ele>
        <time>2020-08-29T18:49:26.764Z</time>
      </trkpt>
      <trkpt lat="61.77178" lon="17.12666">
        <ele>48.624336</ele>
        <time>2020-08-29T18:49:34.762Z</time>
      </trkpt>
      <trkpt lat="61.7708" lon="17.12618">
        <ele>45.296781</ele>
        <time>2020-08-29T18:49:47.583Z</time>
      </trkpt>
      <trkpt lat="61.76857" lon="17.12496">
        <ele>36.466096</ele>
        <time>2020-08-29T18:50:15.942Z</time>
      </trkpt>
      <trkpt lat="61.76761" lon="17.12447">
        <ele>34.636614</ele>
        <time>2020-08-29T18:50:30.022Z</time>
      </trkpt>
      <trkpt lat="61.76731" lon="17.12434">
        <ele>34.599693</ele>
        <time>2020-08-29T18:50:35.224Z</time>
      </trkpt>
      <trkpt lat="61.76485" lon="17.12328">
        <ele>35.321988</ele>
        <time>2020-08-29T18:51:29.000Z</time>
      </trkpt>
      <trkpt lat="61.76122" lon="17.12251">
        <ele>29.710968</ele>
        <time>2020-08-29T18:52:21.990Z</time>
      </trkpt>
      <trkpt lat="61.76067" lon="17.12239">
        <ele>28.373374</ele>
        <time>2020-08-29T18:52:29.156Z</time>
      </trkpt>
      <trkpt lat="61.76018" lon="17.12229">
        <ele>27.040424</ele>
        <time>2020-08-29T18:52:35.553Z</time>
      </trkpt>
      <trkpt lat="61.7601" lon="17.12228">
        <ele>26.822163</ele>
        <time>2020-08-29T18:52:36.576Z</time>
      </trkpt>
      <trkpt lat="61.75794" lon="17.12185">
        <ele>22.211118</ele>
        <time>2020-08-29T18:53:06.356Z</time>
      </trkpt>
      <trkpt lat="61.75746" lon="17.12174">
        <ele>21.370373</ele>
        <time>2020-08-29T18:53:14.168Z</time>
      </trkpt>
      <trkpt lat="61.7564" lon="17.12156">
        <ele>21.73683</ele>
        <time>2020-08-29T18:53:33.481Z</time>
      </trkpt>
      <trkpt lat="61.75571" lon="17.12144">
        <ele>22.013197</ele>
        <time>2020-08-29T18:53:47.945Z</time>
      </trkpt>
      <trkpt lat="61.75554" lon="17.12062">
        <ele>22.472503</ele>
        <time>2020-08-29T18:53:57.420Z</time>
      </trkpt>
      <trkpt lat="61.75533" lon="17.11966">
        <ele>23.091854</ele>
        <time>2020-08-29T18:54:08.875Z</time>
      </trkpt>
      <trkpt lat="61.75523" lon="17.11918">
        <ele>23.405226</ele>
        <time>2020-08-29T18:54:14.641Z</time>
      </trkpt>
      <trkpt lat="61.75509" lon="17.11853">
        <ele>23.820832</ele>
        <time>2020-08-29T18:54:22.342Z</time>
      </trkpt>
      <trkpt lat="61.75502" lon="17.11825">
        <ele>24.00738</ele>
        <time>2020-08-29T18:54:25.864Z</time>
      </trkpt>
      <trkpt lat="61.75488" lon="17.11818">
        <ele>24.185277</ele>
        <time>2020-08-29T18:54:29.107Z</time>
      </trkpt>
      <trkpt lat="61.75475" lon="17.11821">
        <ele>24.337441</ele>
        <time>2020-08-29T18:54:31.814Z</time>
      </trkpt>
      <trkpt lat="61.7547" lon="17.11825">
        <ele>24.403653</ele>
        <time>2020-08-29T18:54:33.041Z</time>
      </trkpt>
      <trkpt lat="61.75479" lon="17.11795">
        <ele>24.609135</ele>
        <time>2020-08-29T18:54:36.708Z</time>
      </trkpt>
      <trkpt lat="61.75413" lon="17.11763">
        <ele>25.449983</ele>
        <time>2020-08-29T18:54:51.816Z</time>
      </trkpt>
      <trkpt lat="61.75386" lon="17.1175">
        <ele>25.797617</ele>
        <time>2020-08-29T18:54:58.091Z</time>
      </trkpt>
      <trkpt lat="61.75314" lon="17.11714">
        <ele>26.716068</ele>
        <time>2020-08-29T18:55:14.901Z</time>
      </trkpt>
      <trkpt lat="61.75302" lon="17.11703">
        <ele>26.872374</ele>
        <time>2020-08-29T18:55:17.959Z</time>
      </trkpt>
      <trkpt lat="61.75243" lon="17.1163">
        <ele>27.682005</ele>
        <time>2020-08-29T18:55:33.390Z</time>
      </trkpt>
      <trkpt lat="61.75176" lon="17.11522">
        <ele>28.668689</ele>
        <time>2020-08-29T18:55:52.136Z</time>
      </trkpt>
      <trkpt lat="61.75154" lon="17.11485">
        <ele>28.868736</ele>
        <time>2020-08-29T18:55:58.159Z</time>
      </trkpt>
      <trkpt lat="61.75107" lon="17.11412">
        <ele>29.28554</ele>
        <time>2020-08-29T18:56:10.085Z</time>
      </trkpt>
      <trkpt lat="61.75098" lon="17.11395">
        <ele>29.370444</ele>
        <time>2020-08-29T18:56:12.469Z</time>
      </trkpt>
      <trkpt lat="61.75073" lon="17.11308">
        <ele>29.717893</ele>
        <time>2020-08-29T18:56:21.953Z</time>
      </trkpt>
      <trkpt lat="61.75037" lon="17.11248">
        <ele>30.057352</ele>
        <time>2020-08-29T18:56:30.874Z</time>
      </trkpt>
      <trkpt lat="61.74987" lon="17.11191">
        <ele>30.506086</ele>
        <time>2020-08-29T18:56:41.792Z</time>
      </trkpt>
      <trkpt lat="61.74954" lon="17.11156">
        <ele>30.8009</ele>
        <time>2020-08-29T18:56:49.211Z</time>
      </trkpt>
      <trkpt lat="61.74932" lon="17.11135">
        <ele>30.995579</ele>
        <time>2020-08-29T18:56:54.336Z</time>
      </trkpt>
      <trkpt lat="61.74852" lon="17.11039">
        <ele>32.003376</ele>
        <time>2020-08-29T18:57:13.997Z</time>
      </trkpt>
      <trkpt lat="61.74806" lon="17.10983">
        <ele>32.757924</ele>
        <time>2020-08-29T18:57:26.436Z</time>
      </trkpt>
      <trkpt lat="61.74758" lon="17.10923">
        <ele>33.54901</ele>
        <time>2020-08-29T18:57:38.987Z</time>
      </trkpt>
      <trkpt lat="61.74728" lon="17.10892">
        <ele>33.983469</ele>
        <time>2020-08-29T18:57:46.275Z</time>
      </trkpt>
      <trkpt lat="61.74718" lon="17.10882">
        <ele>34.096106</ele>
        <time>2020-08-29T18:57:48.880Z</time>
      </trkpt>
      <trkpt lat="61.74703" lon="17.10874">
        <ele>34.260779</ele>
        <time>2020-08-29T18:57:52.395Z</time>
      </trkpt>
      <trkpt lat="61.74651" lon="17.10856">
        <ele>34.79379</ele>
        <time>2020-08-29T18:58:03.553Z</time>
      </trkpt>
      <trkpt lat="61.74634" lon="17.10775">
        <ele>35.2218</ele>
        <time>2020-08-29T18:58:12.184Z</time>
      </trkpt>
      <trkpt lat="61.74606" lon="17.10701">
        <ele>35.682772</ele>
        <time>2020-08-29T18:58:21.395Z</time>
      </trkpt>
      <trkpt lat="61.74514" lon="17.10578">
        <ele>36.588936</ele>
        <time>2020-08-29T18:58:43.434Z</time>
      </trkpt>
      <trkpt lat="61.74497" lon="17.10568">
        <ele>36.73422</ele>
        <time>2020-08-29T18:58:46.913Z</time>
      </trkpt>
      <trkpt lat="61.74493" lon="17.10584">
        <ele>36.803213</ele>
        <time>2020-08-29T18:58:48.692Z</time>
      </trkpt>
      <trkpt lat="61.74487" lon="17.10607">
        <ele>36.904596</ele>
        <time>2020-08-29T18:58:51.521Z</time>
      </trkpt>
      <trkpt lat="61.74456" lon="17.10673">
        <ele>37.218197</ele>
        <time>2020-08-29T18:59:00.974Z</time>
      </trkpt>
      <trkpt lat="61.7443" lon="17.10782">
        <ele>37.217397</ele>
        <time>2020-08-29T18:59:13.359Z</time>
      </trkpt>
      <trkpt lat="61.74403" lon="17.10854">
        <ele>37.216806</ele>
        <time>2020-08-29T18:59:22.398Z</time>
      </trkpt>
      <trkpt lat="61.74387" lon="17.10891">
        <ele>37.216474</ele>
        <time>2020-08-29T18:59:27.015Z</time>
      </trkpt>
      <trkpt lat="61.7438" lon="17.10882">
        <ele>37.21636</ele>
        <time>2020-08-29T18:59:28.476Z</time>
      </trkpt>
      <trkpt lat="61.74379" lon="17.10882">
        <ele>37.216352</ele>
        <time>2020-08-29T18:59:28.645Z</time>
      </trkpt>
      <trkpt lat="61.74312" lon="17.10789">
        <ele>35.749298</ele>
        <time>2020-08-29T18:59:40.797Z</time>
      </trkpt>
      <trkpt lat="61.74287" lon="17.10715">
        <ele>34.175342</ele>
        <time>2020-08-29T18:59:46.690Z</time>
      </trkpt>
      <trkpt lat="61.74276" lon="17.10707">
        <ele>33.741432</ele>
        <time>2020-08-29T18:59:48.308Z</time>
      </trkpt>
      <trkpt lat="61.74246" lon="17.1069">
        <ele>32.597718</ele>
        <time>2020-08-29T18:59:52.310Z</time>
      </trkpt>
      <trkpt lat="61.74225" lon="17.10676">
        <ele>31.78947</ele>
        <time>2020-08-29T18:59:55.075Z</time>
      </trkpt>
      <trkpt lat="61.7421" lon="17.10664">
        <ele>31.193441</ele>
        <time>2020-08-29T18:59:57.152Z</time>
      </trkpt>
      <trkpt lat="61.74196" lon="17.10656">
        <ele>30.674614</ele>
        <time>2020-08-29T18:59:58.926Z</time>
      </trkpt>
      <trkpt lat="61.74192" lon="17.10641">
        <ele>30.313864</ele>
        <time>2020-08-29T18:59:59.900Z</time>
      </trkpt>
      <trkpt lat="61.7418" lon="17.10615">
        <ele>29.466932</ele>
        <time>2020-08-29T19:00:02.129Z</time>
      </trkpt>
      <trkpt lat="61.74164" lon="17.10619">
        <ele>28.690302</ele>
        <time>2020-08-29T19:00:04.129Z</time>
      </trkpt>
      <trkpt lat="61.74145" lon="17.10646">
        <ele>27.621352</ele>
        <time>2020-08-29T19:00:06.913Z</time>
      </trkpt>
      <trkpt lat="61.74144" lon="17.10636">
        <ele>27.38959</ele>
        <time>2020-08-29T19:00:07.515Z</time>
      </trkpt>
      <trkpt lat="61.74144" lon="17.10615">
        <ele>26.914106</ele>
        <time>2020-08-29T19:00:08.749Z</time>
      </trkpt>
      <trkpt lat="61.74125" lon="17.10617">
        <ele>25.990358</ele>
        <time>2020-08-29T19:00:11.168Z</time>
      </trkpt>
      <trkpt lat="61.74112" lon="17.10611">
        <ele>25.392838</ele>
        <time>2020-08-29T19:00:12.749Z</time>
      </trkpt>
      <trkpt lat="61.74107" lon="17.10594">
        <ele>24.928555</ele>
        <time>2020-08-29T19:00:13.986Z</time>
      </trkpt>
      <trkpt lat="61.74104" lon="17.10488">
        <ele>22.521758</ele>
        <time>2020-08-29T19:00:20.529Z</time>
      </trkpt>
      <trkpt lat="61.74102" lon="17.1048">
        <ele>22.305412</ele>
        <time>2020-08-29T19:00:21.150Z</time>
      </trkpt>
      <trkpt lat="61.74095" lon="17.10453">
        <ele>21.852362</ele>
        <time>2020-08-29T19:00:23.343Z</time>
      </trkpt>
      <trkpt lat="61.74068" lon="17.10442">
        <ele>21.359448</ele>
        <time>2020-08-29T19:00:27.077Z</time>
      </trkpt>
      <trkpt lat="61.73991" lon="17.1047">
        <ele>19.944185</ele>
        <time>2020-08-29T19:00:38.959Z</time>
      </trkpt>
      <trkpt lat="61.73971" lon="17.10497">
        <ele>19.526322</ele>
        <time>2020-08-29T19:00:42.560Z</time>
      </trkpt>
      <trkpt lat="61.73949" lon="17.1051">
        <ele>19.102376</ele>
        <time>2020-08-29T19:00:46.511Z</time>
      </trkpt>
      <trkpt lat="61.73937" lon="17.10515">
        <ele>18.890663</ele>
        <time>2020-08-29T19:00:48.453Z</time>
      </trkpt>
      <trkpt lat="61.73934" lon="17.10528">
        <ele>18.766031</ele>
        <time>2020-08-29T19:00:49.619Z</time>
      </trkpt>
      <trkpt lat="61.73933" lon="17.10532">
        <ele>18.748228</ele>
        <time>2020-08-29T19:00:49.996Z</time>
      </trkpt>
      <trkpt lat="61.7393" lon="17.10545">
        <ele>18.711084</ele>
        <time>2020-08-29T19:00:51.266Z</time>
      </trkpt>
      <trkpt lat="61.73927" lon="17.10558">
        <ele>18.676501</ele>
        <time>2020-08-29T19:00:52.295Z</time>
      </trkpt>
      <trkpt lat="61.73845" lon="17.10509">
        <ele>18.240465</ele>
        <time>2020-08-29T19:01:06.021Z</time>
      </trkpt>
      <trkpt lat="61.73841" lon="17.10515">
        <ele>18.213839</ele>
        <time>2020-08-29T19:01:06.853Z</time>
      </trkpt>
      <trkpt lat="61.7383" lon="17.10507">
        <ele>18.152003</ele>
        <time>2020-08-29T19:01:09.041Z</time>
      </trkpt>
      <trkpt lat="61.73821" lon="17.10501">
        <ele>18.102328</ele>
        <time>2020-08-29T19:01:10.641Z</time>
      </trkpt>
      <trkpt lat="61.73817" lon="17.10488">
        <ele>18.064489</ele>
        <time>2020-08-29T19:01:11.904Z</time>
      </trkpt>
      <trkpt lat="61.73751" lon="17.10427">
        <ele>17.83561</ele>
        <time>2020-08-29T19:01:24.708Z</time>
      </trkpt>
      <trkpt lat="61.73581" lon="17.10221">
        <ele>18.111653</ele>
        <time>2020-08-29T19:02:01.856Z</time>
      </trkpt>
      <trkpt lat="61.7352" lon="17.10158">
        <ele>18.473863</ele>
        <time>2020-08-29T19:02:15.687Z</time>
      </trkpt>
      <trkpt lat="61.73483" lon="17.10128">
        <ele>18.684551</ele>
        <time>2020-08-29T19:02:23.983Z</time>
      </trkpt>
      <trkpt lat="61.73446" lon="17.10103">
        <ele>18.923066</ele>
        <time>2020-08-29T19:02:32.201Z</time>
      </trkpt>
      <trkpt lat="61.73435" lon="17.101">
        <ele>19.018023</ele>
        <time>2020-08-29T19:02:34.552Z</time>
      </trkpt>
      <trkpt lat="61.73425" lon="17.10107">
        <ele>19.109671</ele>
        <time>2020-08-29T19:02:36.741Z</time>
      </trkpt>
      <trkpt lat="61.7342" lon="17.1012">
        <ele>19.174767</ele>
        <time>2020-08-29T19:02:38.311Z</time>
      </trkpt>
      <trkpt lat="61.73418" lon="17.10115">
        <ele>19.206018</ele>
        <time>2020-08-29T19:02:39.072Z</time>
      </trkpt>
      <trkpt lat="61.7341" lon="17.1011">
        <ele>19.279663</ele>
        <time>2020-08-29T19:02:40.846Z</time>
      </trkpt>
      <trkpt lat="61.73405" lon="17.1011">
        <ele>19.321652</ele>
        <time>2020-08-29T19:02:41.918Z</time>
      </trkpt>
      <trkpt lat="61.73406" lon="17.10086">
        <ele>19.422731</ele>
        <time>2020-08-29T19:02:44.327Z</time>
      </trkpt>
      <trkpt lat="61.73401" lon="17.10069">
        <ele>19.504006</ele>
        <time>2020-08-29T19:02:46.278Z</time>
      </trkpt>
      <trkpt lat="61.73396" lon="17.10059">
        <ele>19.561417</ele>
        <time>2020-08-29T19:02:47.682Z</time>
      </trkpt>
      <trkpt lat="61.7338" lon="17.10042">
        <ele>19.717699</ele>
        <time>2020-08-29T19:02:51.317Z</time>
      </trkpt>
      <trkpt lat="61.7337" lon="17.10036">
        <ele>19.807878</ele>
        <time>2020-08-29T19:02:53.442Z</time>
      </trkpt>
      <trkpt lat="61.73363" lon="17.10033">
        <ele>19.870004</ele>
        <time>2020-08-29T19:02:54.891Z</time>
      </trkpt>
      <trkpt lat="61.73318" lon="17.10016">
        <ele>20.273241</ele>
        <time>2020-08-29T19:03:04.511Z</time>
      </trkpt>
      <trkpt lat="61.73236" lon="17.10022">
        <ele>21.282362</ele>
        <time>2020-08-29T19:03:22.103Z</time>
      </trkpt>
      <trkpt lat="61.73118" lon="17.10063">
        <ele>22.83308</ele>
        <time>2020-08-29T19:03:49.233Z</time>
      </trkpt>
      <trkpt lat="61.73105" lon="17.10062">
        <ele>22.92589</ele>
        <time>2020-08-29T19:03:52.192Z</time>
      </trkpt>
      <trkpt lat="61.73065" lon="17.10077">
        <ele>23.22148</ele>
        <time>2020-08-29T19:04:01.222Z</time>
      </trkpt>
      <trkpt lat="61.72954" lon="17.10107">
        <ele>24.039447</ele>
        <time>2020-08-29T19:04:23.309Z</time>
      </trkpt>
      <trkpt lat="61.72939" lon="17.1011">
        <ele>24.016261</ele>
        <time>2020-08-29T19:04:25.946Z</time>
      </trkpt>
      <trkpt lat="61.72911" lon="17.10123">
        <ele>23.656605</ele>
        <time>2020-08-29T19:04:30.642Z</time>
      </trkpt>
      <trkpt lat="61.72874" lon="17.10137">
        <ele>23.178767</ele>
        <time>2020-08-29T19:04:36.388Z</time>
      </trkpt>
      <trkpt lat="61.72842" lon="17.10147">
        <ele>22.761422</ele>
        <time>2020-08-29T19:04:41.202Z</time>
      </trkpt>
      <trkpt lat="61.72738" lon="17.10185">
        <ele>21.105016</ele>
        <time>2020-08-29T19:04:56.232Z</time>
      </trkpt>
      <trkpt lat="61.72736" lon="17.10188">
        <ele>21.049086</ele>
        <time>2020-08-29T19:04:56.512Z</time>
      </trkpt>
      <trkpt lat="61.72729" lon="17.10187">
        <ele>20.890315</ele>
        <time>2020-08-29T19:04:57.448Z</time>
      </trkpt>
      <trkpt lat="61.72727" lon="17.10184">
        <ele>20.842843</ele>
        <time>2020-08-29T19:04:57.701Z</time>
      </trkpt>
      <trkpt lat="61.72677" lon="17.10201">
        <ele>19.66826</ele>
        <time>2020-08-29T19:05:04.815Z</time>
      </trkpt>
      <trkpt lat="61.7267" lon="17.10215">
        <ele>19.438132</ele>
        <time>2020-08-29T19:05:06.227Z</time>
      </trkpt>
      <trkpt lat="61.72663" lon="17.10218">
        <ele>19.272928</ele>
        <time>2020-08-29T19:05:07.129Z</time>
      </trkpt>
      <trkpt lat="61.72654" lon="17.1022">
        <ele>19.07437</ele>
        <time>2020-08-29T19:05:08.294Z</time>
      </trkpt>
      <trkpt lat="61.72645" lon="17.10208">
        <ele>18.825634</ele>
        <time>2020-08-29T19:05:09.875Z</time>
      </trkpt>
      <trkpt lat="61.72614" lon="17.10221">
        <ele>18.105585</ele>
        <time>2020-08-29T19:05:14.111Z</time>
      </trkpt>
      <trkpt lat="61.7255" lon="17.10244">
        <ele>16.771082</ele>
        <time>2020-08-29T19:05:23.025Z</time>
      </trkpt>
      <trkpt lat="61.72501" lon="17.10259">
        <ele>15.809108</ele>
        <time>2020-08-29T19:05:29.969Z</time>
      </trkpt>
      <trkpt lat="61.72479" lon="17.10261">
        <ele>15.370023</ele>
        <time>2020-08-29T19:05:33.217Z</time>
      </trkpt>
      <trkpt lat="61.72455" lon="17.10257">
        <ele>14.900299</ele>
        <time>2020-08-29T19:05:36.592Z</time>
      </trkpt>
      <trkpt lat="61.72438" lon="17.10238">
        <ele>14.519283</ele>
        <time>2020-08-29T19:05:39.406Z</time>
      </trkpt>
      <trkpt lat="61.72379" lon="17.1018">
        <ele>13.501941</ele>
        <time>2020-08-29T19:05:48.868Z</time>
      </trkpt>
      <trkpt lat="61.72338" lon="17.1015">
        <ele>12.883446</ele>
        <time>2020-08-29T19:05:55.367Z</time>
      </trkpt>
      <trkpt lat="61.72292" lon="17.10121">
        <ele>12.206766</ele>
        <time>2020-08-29T19:06:02.522Z</time>
      </trkpt>
      <trkpt lat="61.72275" lon="17.10109">
        <ele>11.942489</ele>
        <time>2020-08-29T19:06:05.370Z</time>
      </trkpt>
      <trkpt lat="61.72206" lon="17.10063">
        <ele>11.040699</ele>
        <time>2020-08-29T19:06:16.097Z</time>
      </trkpt>
      <trkpt lat="61.72139" lon="17.10003">
        <ele>10.186438</ele>
        <time>2020-08-29T19:06:27.049Z</time>
      </trkpt>
      <trkpt lat="61.72139" lon="17.10003">
        <ele>10.180972</ele>
        <time>2020-08-29T19:06:27.111Z</time>
      </trkpt>
      <trkpt lat="61.72072" lon="17.09931">
        <ele>9.366241</ele>
        <time>2020-08-29T19:06:38.727Z</time>
      </trkpt>
      <trkpt lat="61.72008" lon="17.09862">
        <ele>8.798837</ele>
        <time>2020-08-29T19:06:50.158Z</time>
      </trkpt>
      <trkpt lat="61.71936" lon="17.09789">
        <ele>8.178011</ele>
        <time>2020-08-29T19:07:02.991Z</time>
      </trkpt>
      <trkpt lat="61.7193" lon="17.09789">
        <ele>8.130295</ele>
        <time>2020-08-29T19:07:03.937Z</time>
      </trkpt>
      <trkpt lat="61.7192" lon="17.09782">
        <ele>8.052022</ele>
        <time>2020-08-29T19:07:05.607Z</time>
      </trkpt>
      <trkpt lat="61.71914" lon="17.09778">
        <ele>8.001232</ele>
        <time>2020-08-29T19:07:06.764Z</time>
      </trkpt>
      <trkpt lat="61.71913" lon="17.09765">
        <ele>7.958406</ele>
        <time>2020-08-29T19:07:07.750Z</time>
      </trkpt>
      <trkpt lat="61.71908" lon="17.09757">
        <ele>7.91548</ele>
        <time>2020-08-29T19:07:08.731Z</time>
      </trkpt>
      <trkpt lat="61.71907" lon="17.09755">
        <ele>7.902978</ele>
        <time>2020-08-29T19:07:08.971Z</time>
      </trkpt>
      <trkpt lat="61.71735" lon="17.09572">
        <ele>6.68459</ele>
        <time>2020-08-29T19:07:39.740Z</time>
      </trkpt>
      <trkpt lat="61.71729" lon="17.09571">
        <ele>6.668834</ele>
        <time>2020-08-29T19:07:40.663Z</time>
      </trkpt>
      <trkpt lat="61.71724" lon="17.09577">
        <ele>6.655277</ele>
        <time>2020-08-29T19:07:41.559Z</time>
      </trkpt>
      <trkpt lat="61.71711" lon="17.09569">
        <ele>6.619148</ele>
        <time>2020-08-29T19:07:44.084Z</time>
      </trkpt>
      <trkpt lat="61.71706" lon="17.09561">
        <ele>6.603513</ele>
        <time>2020-08-29T19:07:45.132Z</time>
      </trkpt>
      <trkpt lat="61.71697" lon="17.09546">
        <ele>6.572311</ele>
        <time>2020-08-29T19:07:47.167Z</time>
      </trkpt>
      <trkpt lat="61.71693" lon="17.0954">
        <ele>6.561067</ele>
        <time>2020-08-29T19:07:47.918Z</time>
      </trkpt>
      <trkpt lat="61.71583" lon="17.09274">
        <ele>6.878986</ele>
        <time>2020-08-29T19:08:19.490Z</time>
      </trkpt>
      <trkpt lat="61.71552" lon="17.09182">
        <ele>7.287382</ele>
        <time>2020-08-29T19:08:31.512Z</time>
      </trkpt>
      <trkpt lat="61.71511" lon="17.09136">
        <ele>7.638466</ele>
        <time>2020-08-29T19:08:41.885Z</time>
      </trkpt>
      <trkpt lat="61.71497" lon="17.09127">
        <ele>7.795872</ele>
        <time>2020-08-29T19:08:45.225Z</time>
      </trkpt>
      <trkpt lat="61.71478" lon="17.09067">
        <ele>8.24921</ele>
        <time>2020-08-29T19:08:53.012Z</time>
      </trkpt>
      <trkpt lat="61.71473" lon="17.09053">
        <ele>8.363894</ele>
        <time>2020-08-29T19:08:55.089Z</time>
      </trkpt>
      <trkpt lat="61.71467" lon="17.0906">
        <ele>8.460079</ele>
        <time>2020-08-29T19:08:56.675Z</time>
      </trkpt>
      <trkpt lat="61.71446" lon="17.0907">
        <ele>8.749635</ele>
        <time>2020-08-29T19:09:01.531Z</time>
      </trkpt>
      <trkpt lat="61.71435" lon="17.0907">
        <ele>8.89781</ele>
        <time>2020-08-29T19:09:04.076Z</time>
      </trkpt>
      <trkpt lat="61.71408" lon="17.09047">
        <ele>9.283444</ele>
        <time>2020-08-29T19:09:10.595Z</time>
      </trkpt>
      <trkpt lat="61.71382" lon="17.09029">
        <ele>9.638635</ele>
        <time>2020-08-29T19:09:16.545Z</time>
      </trkpt>
      <trkpt lat="61.71338" lon="17.09007">
        <ele>10.177245</ele>
        <time>2020-08-29T19:09:26.578Z</time>
      </trkpt>
      <trkpt lat="61.71316" lon="17.08986">
        <ele>10.364347</ele>
        <time>2020-08-29T19:09:31.458Z</time>
      </trkpt>
      <trkpt lat="61.71262" lon="17.08949">
        <ele>10.809312</ele>
        <time>2020-08-29T19:09:42.994Z</time>
      </trkpt>
      <trkpt lat="61.71257" lon="17.08958">
        <ele>10.866194</ele>
        <time>2020-08-29T19:09:44.481Z</time>
      </trkpt>
      <trkpt lat="61.71249" lon="17.08948">
        <ele>10.937178</ele>
        <time>2020-08-29T19:09:46.421Z</time>
      </trkpt>
      <trkpt lat="61.71204" lon="17.08922">
        <ele>11.302702</ele>
        <time>2020-08-29T19:09:56.045Z</time>
      </trkpt>
      <trkpt lat="61.71147" lon="17.08877">
        <ele>11.685285</ele>
        <time>2020-08-29T19:10:08.262Z</time>
      </trkpt>
      <trkpt lat="61.71113" lon="17.08863">
        <ele>11.87533</ele>
        <time>2020-08-29T19:10:15.337Z</time>
      </trkpt>
      <trkpt lat="61.71088" lon="17.08864">
        <ele>12.009593</ele>
        <time>2020-08-29T19:10:20.357Z</time>
      </trkpt>
      <trkpt lat="61.71033" lon="17.08892">
        <ele>12.314888</ele>
        <time>2020-08-29T19:10:31.823Z</time>
      </trkpt>
      <trkpt lat="61.70994" lon="17.08908">
        <ele>12.551484</ele>
        <time>2020-08-29T19:10:39.969Z</time>
      </trkpt>
      <trkpt lat="61.70965" lon="17.08916">
        <ele>12.76026</ele>
        <time>2020-08-29T19:10:46.068Z</time>
      </trkpt>
      <trkpt lat="61.70882" lon="17.08855">
        <ele>13.373159</ele>
        <time>2020-08-29T19:11:04.192Z</time>
      </trkpt>
      <trkpt lat="61.70837" lon="17.08805">
        <ele>13.735252</ele>
        <time>2020-08-29T19:11:15.077Z</time>
      </trkpt>
      <trkpt lat="61.70678" lon="17.08721">
        <ele>15.215941</ele>
        <time>2020-08-29T19:11:50.245Z</time>
      </trkpt>
      <trkpt lat="61.70628" lon="17.08691">
        <ele>15.72684</ele>
        <time>2020-08-29T19:12:01.500Z</time>
      </trkpt>
      <trkpt lat="61.70585" lon="17.08627">
        <ele>16.264798</ele>
        <time>2020-08-29T19:12:12.498Z</time>
      </trkpt>
      <trkpt lat="61.70568" lon="17.08597">
        <ele>16.496409</ele>
        <time>2020-08-29T19:12:17.384Z</time>
      </trkpt>
      <trkpt lat="61.70545" lon="17.08561">
        <ele>16.789465</ele>
        <time>2020-08-29T19:12:23.526Z</time>
      </trkpt>
      <trkpt lat="61.70525" lon="17.08528">
        <ele>17.050639</ele>
        <time>2020-08-29T19:12:28.949Z</time>
      </trkpt>
      <trkpt lat="61.70503" lon="17.08483">
        <ele>17.359318</ele>
        <time>2020-08-29T19:12:35.231Z</time>
      </trkpt>
      <trkpt lat="61.705" lon="17.08474">
        <ele>17.416701</ele>
        <time>2020-08-29T19:12:36.507Z</time>
      </trkpt>
      <trkpt lat="61.70486" lon="17.08436">
        <ele>17.642118</ele>
        <time>2020-08-29T19:12:41.096Z</time>
      </trkpt>
      <trkpt lat="61.70473" lon="17.08386">
        <ele>17.914002</ele>
        <time>2020-08-29T19:12:46.782Z</time>
      </trkpt>
      <trkpt lat="61.70465" lon="17.08339">
        <ele>18.152789</ele>
        <time>2020-08-29T19:12:51.798Z</time>
      </trkpt>
      <trkpt lat="61.70434" lon="17.08044">
        <ele>20.198035</ele>
        <time>2020-08-29T19:13:21.851Z</time>
      </trkpt>
      <trkpt lat="61.704" lon="17.0774">
        <ele>23.72233</ele>
        <time>2020-08-29T19:13:59.812Z</time>
      </trkpt>
      <trkpt lat="61.70381" lon="17.07661">
        <ele>25.397645</ele>
        <time>2020-08-29T19:14:12.963Z</time>
      </trkpt>
      <trkpt lat="61.70368" lon="17.07632">
        <ele>26.169956</ele>
        <time>2020-08-29T19:14:18.907Z</time>
      </trkpt>
      <trkpt lat="61.70349" lon="17.07606">
        <ele>27.073766</ele>
        <time>2020-08-29T19:14:26.203Z</time>
      </trkpt>
      <trkpt lat="61.70327" lon="17.07581">
        <ele>28.055877</ele>
        <time>2020-08-29T19:14:34.025Z</time>
      </trkpt>
      <trkpt lat="61.70313" lon="17.07557">
        <ele>28.769069</ele>
        <time>2020-08-29T19:14:39.827Z</time>
      </trkpt>
      <trkpt lat="61.70243" lon="17.07394">
        <ele>32.204777</ele>
        <time>2020-08-29T19:15:13.873Z</time>
      </trkpt>
      <trkpt lat="61.7022" lon="17.07355">
        <ele>33.113334</ele>
        <time>2020-08-29T19:15:22.385Z</time>
      </trkpt>
      <trkpt lat="61.702" lon="17.07331">
        <ele>33.804144</ele>
        <time>2020-08-29T19:15:28.023Z</time>
      </trkpt>
      <trkpt lat="61.70175" lon="17.07306">
        <ele>34.65326</ele>
        <time>2020-08-29T19:15:34.306Z</time>
      </trkpt>
      <trkpt lat="61.70146" lon="17.07291">
        <ele>35.311314</ele>
        <time>2020-08-29T19:15:40.770Z</time>
      </trkpt>
      <trkpt lat="61.69998" lon="17.07272">
        <ele>35.414112</ele>
        <time>2020-08-29T19:16:08.042Z</time>
      </trkpt>
      <trkpt lat="61.69986" lon="17.07266">
        <ele>35.422739</ele>
        <time>2020-08-29T19:16:09.924Z</time>
      </trkpt>
      <trkpt lat="61.69973" lon="17.07245">
        <ele>35.352922</ele>
        <time>2020-08-29T19:16:12.445Z</time>
      </trkpt>
      <trkpt lat="61.69973" lon="17.07233">
        <ele>35.269888</ele>
        <time>2020-08-29T19:16:13.297Z</time>
      </trkpt>
      <trkpt lat="61.69973" lon="17.07218">
        <ele>35.161153</ele>
        <time>2020-08-29T19:16:14.362Z</time>
      </trkpt>
      <trkpt lat="61.69924" lon="17.07217">
        <ele>34.448444</ele>
        <time>2020-08-29T19:16:21.658Z</time>
      </trkpt>
      <trkpt lat="61.69797" lon="17.07246">
        <ele>32.762586</ele>
        <time>2020-08-29T19:16:39.760Z</time>
      </trkpt>
      <trkpt lat="61.69757" lon="17.07267">
        <ele>32.602352</ele>
        <time>2020-08-29T19:16:46.246Z</time>
      </trkpt>
      <trkpt lat="61.6968" lon="17.07327">
        <ele>32.288358</ele>
        <time>2020-08-29T19:17:00.068Z</time>
      </trkpt>
      <trkpt lat="61.69662" lon="17.07345">
        <ele>32.210208</ele>
        <time>2020-08-29T19:17:03.641Z</time>
      </trkpt>
      <trkpt lat="61.69652" lon="17.07356">
        <ele>32.165557</ele>
        <time>2020-08-29T19:17:06.259Z</time>
      </trkpt>
      <trkpt lat="61.69534" lon="17.07454">
        <ele>33.221946</ele>
        <time>2020-08-29T19:17:33.172Z</time>
      </trkpt>
      <trkpt lat="61.69501" lon="17.07471">
        <ele>33.545066</ele>
        <time>2020-08-29T19:17:40.890Z</time>
      </trkpt>
      <trkpt lat="61.69465" lon="17.07484">
        <ele>33.814919</ele>
        <time>2020-08-29T19:17:48.502Z</time>
      </trkpt>
      <trkpt lat="61.69365" lon="17.07508">
        <ele>33.733594</ele>
        <time>2020-08-29T19:18:06.951Z</time>
      </trkpt>
      <trkpt lat="61.69343" lon="17.07512">
        <ele>33.715486</ele>
        <time>2020-08-29T19:18:10.512Z</time>
      </trkpt>
      <trkpt lat="61.69335" lon="17.07514">
        <ele>33.709367</ele>
        <time>2020-08-29T19:18:11.687Z</time>
      </trkpt>
      <trkpt lat="61.69131" lon="17.07554">
        <ele>32.819034</ele>
        <time>2020-08-29T19:18:44.238Z</time>
      </trkpt>
      <trkpt lat="61.69063" lon="17.07566">
        <ele>33.207076</ele>
        <time>2020-08-29T19:18:57.730Z</time>
      </trkpt>
      <trkpt lat="61.6896" lon="17.0759">
        <ele>34.159476</ele>
        <time>2020-08-29T19:19:20.301Z</time>
      </trkpt>
      <trkpt lat="61.68874" lon="17.07622">
        <ele>34.75966</ele>
        <time>2020-08-29T19:19:39.256Z</time>
      </trkpt>
      <trkpt lat="61.6855" lon="17.07783">
        <ele>35.459407</ele>
        <time>2020-08-29T19:20:40.845Z</time>
      </trkpt>
      <trkpt lat="61.68474" lon="17.078">
        <ele>34.845491</ele>
        <time>2020-08-29T19:20:53.130Z</time>
      </trkpt>
      <trkpt lat="61.68172" lon="17.07829">
        <ele>31.146572</ele>
        <time>2020-08-29T19:21:37.715Z</time>
      </trkpt>
      <trkpt lat="61.68086" lon="17.07836">
        <ele>30.260778</ele>
        <time>2020-08-29T19:21:50.943Z</time>
      </trkpt>
      <trkpt lat="61.68042" lon="17.07839">
        <ele>29.852102</ele>
        <time>2020-08-29T19:21:57.986Z</time>
      </trkpt>
      <trkpt lat="61.67947" lon="17.07846">
        <ele>29.868704</ele>
        <time>2020-08-29T19:22:14.390Z</time>
      </trkpt>
      <trkpt lat="61.67877" lon="17.07853">
        <ele>29.880922</ele>
        <time>2020-08-29T19:22:27.627Z</time>
      </trkpt>
      <trkpt lat="61.67856" lon="17.07855">
        <ele>29.971528</ele>
        <time>2020-08-29T19:22:31.791Z</time>
      </trkpt>
      <trkpt lat="61.67813" lon="17.07859">
        <ele>30.320776</ele>
        <time>2020-08-29T19:22:40.531Z</time>
      </trkpt>
      <trkpt lat="61.67724" lon="17.07855">
        <ele>31.045619</ele>
        <time>2020-08-29T19:22:59.166Z</time>
      </trkpt>
      <trkpt lat="61.67709" lon="17.07852">
        <ele>31.172217</ele>
        <time>2020-08-29T19:23:02.559Z</time>
      </trkpt>
      <trkpt lat="61.67686" lon="17.07848">
        <ele>31.346048</ele>
        <time>2020-08-29T19:23:07.232Z</time>
      </trkpt>
      <trkpt lat="61.67637" lon="17.07834">
        <ele>31.359975</ele>
        <time>2020-08-29T19:23:17.194Z</time>
      </trkpt>
      <trkpt lat="61.67204" lon="17.07694">
        <ele>31.200904</ele>
        <time>2020-08-29T19:24:33.863Z</time>
      </trkpt>
      <trkpt lat="61.6714" lon="17.07683">
        <ele>31.102166</ele>
        <time>2020-08-29T19:24:44.456Z</time>
      </trkpt>
      <trkpt lat="61.6708" lon="17.07691">
        <ele>31.092238</ele>
        <time>2020-08-29T19:24:54.486Z</time>
      </trkpt>
      <trkpt lat="61.67045" lon="17.07705">
        <ele>31.086359</ele>
        <time>2020-08-29T19:25:00.594Z</time>
      </trkpt>
      <trkpt lat="61.66972" lon="17.07754">
        <ele>31.116082</ele>
        <time>2020-08-29T19:25:15.090Z</time>
      </trkpt>
      <trkpt lat="61.66939" lon="17.07786">
        <ele>31.38857</ele>
        <time>2020-08-29T19:25:22.708Z</time>
      </trkpt>
      <trkpt lat="61.6691" lon="17.07821">
        <ele>31.63639</ele>
        <time>2020-08-29T19:25:29.642Z</time>
      </trkpt>
      <trkpt lat="61.66904" lon="17.07829">
        <ele>31.687361</ele>
        <time>2020-08-29T19:25:31.115Z</time>
      </trkpt>
      <trkpt lat="61.66888" lon="17.07852">
        <ele>31.830331</ele>
        <time>2020-08-29T19:25:35.014Z</time>
      </trkpt>
      <trkpt lat="61.66872" lon="17.07875">
        <ele>31.972495</ele>
        <time>2020-08-29T19:25:39.098Z</time>
      </trkpt>
      <trkpt lat="61.6685" lon="17.07915">
        <ele>32.190157</ele>
        <time>2020-08-29T19:25:45.131Z</time>
      </trkpt>
      <trkpt lat="61.6684" lon="17.07933">
        <ele>32.284653</ele>
        <time>2020-08-29T19:25:47.785Z</time>
      </trkpt>
      <trkpt lat="61.66678" lon="17.083">
        <ele>33.740092</ele>
        <time>2020-08-29T19:26:33.673Z</time>
      </trkpt>
      <trkpt lat="61.66586" lon="17.08492">
        <ele>34.969844</ele>
        <time>2020-08-29T19:27:01.022Z</time>
      </trkpt>
      <trkpt lat="61.6651" lon="17.08604">
        <ele>36.477822</ele>
        <time>2020-08-29T19:27:22.393Z</time>
      </trkpt>
      <trkpt lat="61.66423" lon="17.08702">
        <ele>38.161992</ele>
        <time>2020-08-29T19:27:45.765Z</time>
      </trkpt>
      <trkpt lat="61.66374" lon="17.08747">
        <ele>39.277099</ele>
        <time>2020-08-29T19:27:58.814Z</time>
      </trkpt>
      <trkpt lat="61.6628" lon="17.08806">
        <ele>41.311743</ele>
        <time>2020-08-29T19:28:23.160Z</time>
      </trkpt>
      <trkpt lat="61.66188" lon="17.08835">
        <ele>42.521526</ele>
        <time>2020-08-29T19:28:45.760Z</time>
      </trkpt>
      <trkpt lat="61.66087" lon="17.08839">
        <ele>43.544376</ele>
        <time>2020-08-29T19:29:06.782Z</time>
      </trkpt>
      <trkpt lat="61.65992" lon="17.08817">
        <ele>42.41415</ele>
        <time>2020-08-29T19:29:21.463Z</time>
      </trkpt>
      <trkpt lat="61.65953" lon="17.08797">
        <ele>41.840113</ele>
        <time>2020-08-29T19:29:27.025Z</time>
      </trkpt>
      <trkpt lat="61.65846" lon="17.08726">
        <ele>40.09362</ele>
        <time>2020-08-29T19:29:42.513Z</time>
      </trkpt>
      <trkpt lat="61.65714" lon="17.08635">
        <ele>38.033794</ele>
        <time>2020-08-29T19:30:02.949Z</time>
      </trkpt>
      <trkpt lat="61.65571" lon="17.08539">
        <ele>37.674324</ele>
        <time>2020-08-29T19:30:29.530Z</time>
      </trkpt>
      <trkpt lat="61.65431" lon="17.08454">
        <ele>37.576852</ele>
        <time>2020-08-29T19:30:56.038Z</time>
      </trkpt>
      <trkpt lat="61.65377" lon="17.0842">
        <ele>37.475955</ele>
        <time>2020-08-29T19:31:05.801Z</time>
      </trkpt>
      <trkpt lat="61.6533" lon="17.08399">
        <ele>37.054336</ele>
        <time>2020-08-29T19:31:13.503Z</time>
      </trkpt>
      <trkpt lat="61.65336" lon="17.08368">
        <ele>36.918872</ele>
        <time>2020-08-29T19:31:16.125Z</time>
      </trkpt>
      <trkpt lat="61.65324" lon="17.08375">
        <ele>36.8137</ele>
        <time>2020-08-29T19:31:18.078Z</time>
      </trkpt>
      <trkpt lat="61.65299" lon="17.08369">
        <ele>36.58859</ele>
        <time>2020-08-29T19:31:22.298Z</time>
      </trkpt>
      <trkpt lat="61.6528" lon="17.08361">
        <ele>36.418528</ele>
        <time>2020-08-29T19:31:25.390Z</time>
      </trkpt>
      <trkpt lat="61.65252" lon="17.08353">
        <ele>36.166501</ele>
        <time>2020-08-29T19:31:29.940Z</time>
      </trkpt>
      <trkpt lat="61.65234" lon="17.0836">
        <ele>36.002458</ele>
        <time>2020-08-29T19:31:32.847Z</time>
      </trkpt>
      <trkpt lat="61.65129" lon="17.08354">
        <ele>33.64747</ele>
        <time>2020-08-29T19:31:48.582Z</time>
      </trkpt>
      <trkpt lat="61.65018" lon="17.0835">
        <ele>30.642572</ele>
        <time>2020-08-29T19:32:03.942Z</time>
      </trkpt>
      <trkpt lat="61.65004" lon="17.08349">
        <ele>30.099652</ele>
        <time>2020-08-29T19:32:05.793Z</time>
      </trkpt>
      <trkpt lat="61.64949" lon="17.08349">
        <ele>28.004192</ele>
        <time>2020-08-29T19:32:13.117Z</time>
      </trkpt>
      <trkpt lat="61.64939" lon="17.08349">
        <ele>27.616783</ele>
        <time>2020-08-29T19:32:14.404Z</time>
      </trkpt>
      <trkpt lat="61.64904" lon="17.08347">
        <ele>26.306674</ele>
        <time>2020-08-29T19:32:18.896Z</time>
      </trkpt>
      <trkpt lat="61.64885" lon="17.08343">
        <ele>25.585411</ele>
        <time>2020-08-29T19:32:21.493Z</time>
      </trkpt>
      <trkpt lat="61.64874" lon="17.08337">
        <ele>25.132819</ele>
        <time>2020-08-29T19:32:23.019Z</time>
      </trkpt>
      <trkpt lat="61.64872" lon="17.08353">
        <ele>24.882763</ele>
        <time>2020-08-29T19:32:23.997Z</time>
      </trkpt>
      <trkpt lat="61.64857" lon="17.08344">
        <ele>24.482281</ele>
        <time>2020-08-29T19:32:26.061Z</time>
      </trkpt>
      <trkpt lat="61.64843" lon="17.0833">
        <ele>24.074705</ele>
        <time>2020-08-29T19:32:28.048Z</time>
      </trkpt>
      <trkpt lat="61.64803" lon="17.08283">
        <ele>22.898559</ele>
        <time>2020-08-29T19:32:34.078Z</time>
      </trkpt>
      <trkpt lat="61.64796" lon="17.08276">
        <ele>22.700829</ele>
        <time>2020-08-29T19:32:35.106Z</time>
      </trkpt>
      <trkpt lat="61.64794" lon="17.08285">
        <ele>22.590258</ele>
        <time>2020-08-29T19:32:35.712Z</time>
      </trkpt>
      <trkpt lat="61.64791" lon="17.08306">
        <ele>22.311606</ele>
        <time>2020-08-29T19:32:37.162Z</time>
      </trkpt>
      <trkpt lat="61.64765" lon="17.0827">
        <ele>21.513414</ele>
        <time>2020-08-29T19:32:41.540Z</time>
      </trkpt>
      <trkpt lat="61.64691" lon="17.08202">
        <ele>20.275632</ele>
        <time>2020-08-29T19:32:53.845Z</time>
      </trkpt>
      <trkpt lat="61.64627" lon="17.08162">
        <ele>20.112999</ele>
        <time>2020-08-29T19:33:05.657Z</time>
      </trkpt>
      <trkpt lat="61.64627" lon="17.08156">
        <ele>20.105847</ele>
        <time>2020-08-29T19:33:06.249Z</time>
      </trkpt>
      <trkpt lat="61.64612" lon="17.08142">
        <ele>20.067218</ele>
        <time>2020-08-29T19:33:09.270Z</time>
      </trkpt>
      <trkpt lat="61.64589" lon="17.08135">
        <ele>20.011198</ele>
        <time>2020-08-29T19:33:13.485Z</time>
      </trkpt>
      <trkpt lat="61.64581" lon="17.08134">
        <ele>19.990025</ele>
        <time>2020-08-29T19:33:15.105Z</time>
      </trkpt>
      <trkpt lat="61.64574" lon="17.08128">
        <ele>19.971619</ele>
        <time>2020-08-29T19:33:16.593Z</time>
      </trkpt>
      <trkpt lat="61.6457" lon="17.08115">
        <ele>19.953664</ele>
        <time>2020-08-29T19:33:17.880Z</time>
      </trkpt>
      <trkpt lat="61.64559" lon="17.08106">
        <ele>19.925754</ele>
        <time>2020-08-29T19:33:20.007Z</time>
      </trkpt>
      <trkpt lat="61.64561" lon="17.08099">
        <ele>19.920078</ele>
        <time>2020-08-29T19:33:20.718Z</time>
      </trkpt>
      <trkpt lat="61.64564" lon="17.08083">
        <ele>19.907432</ele>
        <time>2020-08-29T19:33:22.341Z</time>
      </trkpt>
      <trkpt lat="61.64569" lon="17.08079">
        <ele>19.899444</ele>
        <time>2020-08-29T19:33:23.350Z</time>
      </trkpt>
      <trkpt lat="61.64546" lon="17.08066">
        <ele>19.863883</ele>
        <time>2020-08-29T19:33:27.632Z</time>
      </trkpt>
      <trkpt lat="61.64535" lon="17.0806">
        <ele>19.847254</ele>
        <time>2020-08-29T19:33:29.750Z</time>
      </trkpt>
      <trkpt lat="61.64519" lon="17.08045">
        <ele>19.82036</ele>
        <time>2020-08-29T19:33:32.923Z</time>
      </trkpt>
      <trkpt lat="61.64503" lon="17.08034">
        <ele>19.794877</ele>
        <time>2020-08-29T19:33:36.124Z</time>
      </trkpt>
      <trkpt lat="61.64487" lon="17.08029">
        <ele>19.770854</ele>
        <time>2020-08-29T19:33:38.855Z</time>
      </trkpt>
      <trkpt lat="61.64409" lon="17.07996">
        <ele>19.590384</ele>
        <time>2020-08-29T19:33:52.626Z</time>
      </trkpt>
      <trkpt lat="61.64362" lon="17.07986">
        <ele>18.829018</ele>
        <time>2020-08-29T19:33:59.773Z</time>
      </trkpt>
      <trkpt lat="61.64319" lon="17.07978">
        <ele>18.124993</ele>
        <time>2020-08-29T19:34:06.086Z</time>
      </trkpt>
      <trkpt lat="61.64316" lon="17.07977">
        <ele>18.074403</ele>
        <time>2020-08-29T19:34:06.544Z</time>
      </trkpt>
      <trkpt lat="61.64293" lon="17.07974">
        <ele>17.706701</ele>
        <time>2020-08-29T19:34:09.837Z</time>
      </trkpt>
      <trkpt lat="61.64293" lon="17.07987">
        <ele>17.604148</ele>
        <time>2020-08-29T19:34:10.692Z</time>
      </trkpt>
      <trkpt lat="61.64273" lon="17.07983">
        <ele>17.284624</ele>
        <time>2020-08-29T19:34:13.483Z</time>
      </trkpt>
      <trkpt lat="61.6426" lon="17.0798">
        <ele>17.066272</ele>
        <time>2020-08-29T19:34:15.349Z</time>
      </trkpt>
      <trkpt lat="61.64223" lon="17.07967">
        <ele>16.298322</ele>
        <time>2020-08-29T19:34:20.480Z</time>
      </trkpt>
      <trkpt lat="61.64188" lon="17.07952">
        <ele>15.39544</ele>
        <time>2020-08-29T19:34:25.224Z</time>
      </trkpt>
      <trkpt lat="61.6409" lon="17.07903">
        <ele>12.846164</ele>
        <time>2020-08-29T19:34:38.507Z</time>
      </trkpt>
      <trkpt lat="61.64047" lon="17.07882">
        <ele>12.468699</ele>
        <time>2020-08-29T19:34:44.758Z</time>
      </trkpt>
      <trkpt lat="61.64003" lon="17.07865">
        <ele>13.160477</ele>
        <time>2020-08-29T19:34:51.746Z</time>
      </trkpt>
      <trkpt lat="61.63954" lon="17.07848">
        <ele>13.919466</ele>
        <time>2020-08-29T19:35:02.967Z</time>
      </trkpt>
      <trkpt lat="61.63863" lon="17.07823">
        <ele>16.610172</ele>
        <time>2020-08-29T19:35:31.246Z</time>
      </trkpt>
      <trkpt lat="61.63822" lon="17.07803">
        <ele>19.466051</ele>
        <time>2020-08-29T19:35:48.541Z</time>
      </trkpt>
      <trkpt lat="61.63751" lon="17.07752">
        <ele>24.508387</ele>
        <time>2020-08-29T19:36:20.628Z</time>
      </trkpt>
      <trkpt lat="61.63718" lon="17.07719">
        <ele>27.002266</ele>
        <time>2020-08-29T19:36:36.348Z</time>
      </trkpt>
      <trkpt lat="61.63726" lon="17.0769">
        <ele>27.764974</ele>
        <time>2020-08-29T19:36:42.290Z</time>
      </trkpt>
      <trkpt lat="61.63719" lon="17.07693">
        <ele>28.077085</ele>
        <time>2020-08-29T19:36:45.956Z</time>
      </trkpt>
      <trkpt lat="61.63702" lon="17.07676">
        <ele>28.952153</ele>
        <time>2020-08-29T19:36:52.921Z</time>
      </trkpt>
      <trkpt lat="61.63665" lon="17.07618">
        <ele>31.092345</ele>
        <time>2020-08-29T19:37:09.214Z</time>
      </trkpt>
      <trkpt lat="61.6363" lon="17.07549">
        <ele>33.349266</ele>
        <time>2020-08-29T19:37:26.626Z</time>
      </trkpt>
      <trkpt lat="61.63544" lon="17.07342">
        <ele>35.876976</ele>
        <time>2020-08-29T19:37:56.298Z</time>
      </trkpt>
      <trkpt lat="61.63529" lon="17.07301">
        <ele>35.992218</ele>
        <time>2020-08-29T19:38:01.050Z</time>
      </trkpt>
      <trkpt lat="61.6352" lon="17.07277">
        <ele>36.059844</ele>
        <time>2020-08-29T19:38:03.530Z</time>
      </trkpt>
      <trkpt lat="61.63512" lon="17.07235">
        <ele>36.161203</ele>
        <time>2020-08-29T19:38:07.247Z</time>
      </trkpt>
      <trkpt lat="61.63499" lon="17.0707">
        <ele>35.981808</ele>
        <time>2020-08-29T19:38:20.236Z</time>
      </trkpt>
      <trkpt lat="61.63486" lon="17.06979">
        <ele>35.632739</ele>
        <time>2020-08-29T19:38:27.307Z</time>
      </trkpt>
      <trkpt lat="61.63479" lon="17.06967">
        <ele>35.562963</ele>
        <time>2020-08-29T19:38:28.649Z</time>
      </trkpt>
      <trkpt lat="61.63468" lon="17.06968">
        <ele>35.4729</ele>
        <time>2020-08-29T19:38:30.634Z</time>
      </trkpt>
      <trkpt lat="61.63454" lon="17.06979">
        <ele>35.355455</ele>
        <time>2020-08-29T19:38:33.208Z</time>
      </trkpt>
      <trkpt lat="61.63448" lon="17.06969">
        <ele>35.296248</ele>
        <time>2020-08-29T19:38:34.363Z</time>
      </trkpt>
      <trkpt lat="61.63402" lon="17.06532">
        <ele>35.138263</ele>
        <time>2020-08-29T19:39:13.570Z</time>
      </trkpt>
      <trkpt lat="61.63368" lon="17.06381">
        <ele>35.895916</ele>
        <time>2020-08-29T19:39:31.015Z</time>
      </trkpt>
      <trkpt lat="61.63316" lon="17.06234">
        <ele>36.894081</ele>
        <time>2020-08-29T19:39:51.141Z</time>
      </trkpt>
      <trkpt lat="61.6328" lon="17.0615">
        <ele>37.376435</ele>
        <time>2020-08-29T19:40:03.317Z</time>
      </trkpt>
      <trkpt lat="61.63239" lon="17.06074">
        <ele>37.726524</ele>
        <time>2020-08-29T19:40:15.117Z</time>
      </trkpt>
      <trkpt lat="61.63201" lon="17.06025">
        <ele>38.016771</ele>
        <time>2020-08-29T19:40:24.385Z</time>
      </trkpt>
      <trkpt lat="61.63144" lon="17.05971">
        <ele>38.359929</ele>
        <time>2020-08-29T19:40:36.080Z</time>
      </trkpt>
      <trkpt lat="61.6312" lon="17.05949">
        <ele>38.33126</ele>
        <time>2020-08-29T19:40:40.898Z</time>
      </trkpt>
      <trkpt lat="61.63095" lon="17.05929">
        <ele>38.301662</ele>
        <time>2020-08-29T19:40:45.759Z</time>
      </trkpt>
      <trkpt lat="61.6302" lon="17.0587">
        <ele>38.214231</ele>
        <time>2020-08-29T19:40:59.785Z</time>
      </trkpt>
      <trkpt lat="61.6282" lon="17.05729">
        <ele>38.535024</ele>
        <time>2020-08-29T19:41:39.694Z</time>
      </trkpt>
      <trkpt lat="61.62789" lon="17.05703">
        <ele>38.807771</ele>
        <time>2020-08-29T19:41:46.741Z</time>
      </trkpt>
      <trkpt lat="61.6257" lon="17.05528">
        <ele>40.79472</ele>
        <time>2020-08-29T19:42:39.026Z</time>
      </trkpt>
      <trkpt lat="61.62425" lon="17.0542">
        <ele>40.072755</ele>
        <time>2020-08-29T19:43:07.864Z</time>
      </trkpt>
      <trkpt lat="61.62404" lon="17.05406">
        <ele>39.542976</ele>
        <time>2020-08-29T19:43:11.559Z</time>
      </trkpt>
      <trkpt lat="61.62308" lon="17.05347">
        <ele>37.217682</ele>
        <time>2020-08-29T19:43:25.135Z</time>
      </trkpt>
      <trkpt lat="61.62262" lon="17.05326">
        <ele>34.297208</ele>
        <time>2020-08-29T19:43:31.054Z</time>
      </trkpt>
      <trkpt lat="61.62245" lon="17.0532">
        <ele>33.204753</ele>
        <time>2020-08-29T19:43:33.047Z</time>
      </trkpt>
      <trkpt lat="61.6223" lon="17.05313">
        <ele>32.183929</ele>
        <time>2020-08-29T19:43:34.927Z</time>
      </trkpt>
      <trkpt lat="61.62215" lon="17.05311">
        <ele>31.172867</ele>
        <time>2020-08-29T19:43:36.772Z</time>
      </trkpt>
      <trkpt lat="61.62185" lon="17.05316">
        <ele>29.232488</ele>
        <time>2020-08-29T19:43:40.324Z</time>
      </trkpt>
      <trkpt lat="61.62155" lon="17.05323">
        <ele>27.255191</ele>
        <time>2020-08-29T19:43:43.933Z</time>
      </trkpt>
      <trkpt lat="61.62079" lon="17.05337">
        <ele>22.631267</ele>
        <time>2020-08-29T19:43:52.988Z</time>
      </trkpt>
      <trkpt lat="61.61999" lon="17.05354">
        <ele>17.984232</ele>
        <time>2020-08-29T19:44:02.973Z</time>
      </trkpt>
      <trkpt lat="61.61935" lon="17.05365">
        <ele>14.750619</ele>
        <time>2020-08-29T19:44:11.274Z</time>
      </trkpt>
      <trkpt lat="61.61936" lon="17.0538">
        <ele>14.592886</ele>
        <time>2020-08-29T19:44:12.392Z</time>
      </trkpt>
      <trkpt lat="61.61937" lon="17.05391">
        <ele>14.479199</ele>
        <time>2020-08-29T19:44:13.057Z</time>
      </trkpt>
      <trkpt lat="61.61796" lon="17.05432">
        <ele>11.275528</ele>
        <time>2020-08-29T19:44:33.908Z</time>
      </trkpt>
      <trkpt lat="61.61774" lon="17.05461">
        <ele>10.945497</ele>
        <time>2020-08-29T19:44:38.174Z</time>
      </trkpt>
      <trkpt lat="61.61775" lon="17.05446">
        <ele>10.935284</ele>
        <time>2020-08-29T19:44:39.449Z</time>
      </trkpt>
      <trkpt lat="61.61775" lon="17.05423">
        <ele>10.92074</ele>
        <time>2020-08-29T19:44:41.221Z</time>
      </trkpt>
      <trkpt lat="61.61329" lon="17.05556">
        <ele>10.418615</ele>
        <time>2020-08-29T19:46:01.657Z</time>
      </trkpt>
      <trkpt lat="61.6127" lon="17.05569">
        <ele>10.391063</ele>
        <time>2020-08-29T19:46:12.155Z</time>
      </trkpt>
      <trkpt lat="61.61227" lon="17.05579">
        <ele>10.118507</ele>
        <time>2020-08-29T19:46:19.526Z</time>
      </trkpt>
      <trkpt lat="61.61222" lon="17.0558">
        <ele>10.088238</ele>
        <time>2020-08-29T19:46:20.293Z</time>
      </trkpt>
      <trkpt lat="61.61162" lon="17.05588">
        <ele>9.709021</ele>
        <time>2020-08-29T19:46:29.927Z</time>
      </trkpt>
      <trkpt lat="61.61091" lon="17.05596">
        <ele>9.261075</ele>
        <time>2020-08-29T19:46:41.007Z</time>
      </trkpt>
      <trkpt lat="61.61065" lon="17.05598">
        <ele>9.292516</ele>
        <time>2020-08-29T19:46:44.956Z</time>
      </trkpt>
      <trkpt lat="61.609" lon="17.05619">
        <ele>9.842462</ele>
        <time>2020-08-29T19:47:14.761Z</time>
      </trkpt>
      <trkpt lat="61.60885" lon="17.0562">
        <ele>10.338081</ele>
        <time>2020-08-29T19:47:18.439Z</time>
      </trkpt>
      <trkpt lat="61.60881" lon="17.0562">
        <ele>10.470811</ele>
        <time>2020-08-29T19:47:20.039Z</time>
      </trkpt>
      <trkpt lat="61.60803" lon="17.05614">
        <ele>12.994429</ele>
        <time>2020-08-29T19:47:42.129Z</time>
      </trkpt>
      <trkpt lat="61.60765" lon="17.056">
        <ele>14.22413</ele>
        <time>2020-08-29T19:47:54.345Z</time>
      </trkpt>
      <trkpt lat="61.6076" lon="17.05597">
        <ele>14.412306</ele>
        <time>2020-08-29T19:47:56.224Z</time>
      </trkpt>
      <trkpt lat="61.60725" lon="17.05579">
        <ele>15.588162</ele>
        <time>2020-08-29T19:48:08.054Z</time>
      </trkpt>
      <trkpt lat="61.60681" lon="17.05552">
        <ele>17.174043</ele>
        <time>2020-08-29T19:48:22.443Z</time>
      </trkpt>
      <trkpt lat="61.60628" lon="17.05517">
        <ele>19.094171</ele>
        <time>2020-08-29T19:48:39.555Z</time>
      </trkpt>
      <trkpt lat="61.60602" lon="17.05499">
        <ele>20.046444</ele>
        <time>2020-08-29T19:48:47.246Z</time>
      </trkpt>
      <trkpt lat="61.60594" lon="17.05494">
        <ele>20.329145</ele>
        <time>2020-08-29T19:48:49.575Z</time>
      </trkpt>
      <trkpt lat="61.60553" lon="17.05457">
        <ele>21.619618</ele>
        <time>2020-08-29T19:49:00.413Z</time>
      </trkpt>
      <trkpt lat="61.60531" lon="17.05435">
        <ele>21.854025</ele>
        <time>2020-08-29T19:49:05.944Z</time>
      </trkpt>
      <trkpt lat="61.6051" lon="17.05408">
        <ele>22.093245</ele>
        <time>2020-08-29T19:49:11.237Z</time>
      </trkpt>
      <trkpt lat="61.60466" lon="17.0534">
        <ele>22.624239</ele>
        <time>2020-08-29T19:49:22.075Z</time>
      </trkpt>
      <trkpt lat="61.60373" lon="17.05178">
        <ele>23.598752</ele>
        <time>2020-08-29T19:49:45.416Z</time>
      </trkpt>
      <trkpt lat="61.60347" lon="17.05132">
        <ele>23.797582</ele>
        <time>2020-08-29T19:49:51.953Z</time>
      </trkpt>
      <trkpt lat="61.6034" lon="17.05118">
        <ele>23.857561</ele>
        <time>2020-08-29T19:49:53.990Z</time>
      </trkpt>
      <trkpt lat="61.60302" lon="17.05054">
        <ele>24.143448</ele>
        <time>2020-08-29T19:50:03.567Z</time>
      </trkpt>
      <trkpt lat="61.60254" lon="17.04971">
        <ele>24.632409</ele>
        <time>2020-08-29T19:50:16.246Z</time>
      </trkpt>
      <trkpt lat="61.60237" lon="17.04942">
        <ele>24.846568</ele>
        <time>2020-08-29T19:50:20.634Z</time>
      </trkpt>
      <trkpt lat="61.60218" lon="17.04909">
        <ele>25.096495</ele>
        <time>2020-08-29T19:50:25.846Z</time>
      </trkpt>
      <trkpt lat="61.60183" lon="17.0485">
        <ele>25.536941</ele>
        <time>2020-08-29T19:50:35.036Z</time>
      </trkpt>
      <trkpt lat="61.60022" lon="17.0456">
        <ele>27.983332</ele>
        <time>2020-08-29T19:51:21.536Z</time>
      </trkpt>
      <trkpt lat="61.59923" lon="17.04362">
        <ele>28.859631</ele>
        <time>2020-08-29T19:51:50.973Z</time>
      </trkpt>
      <trkpt lat="61.59799" lon="17.04117">
        <ele>27.938951</ele>
        <time>2020-08-29T19:52:18.888Z</time>
      </trkpt>
      <trkpt lat="61.59789" lon="17.04099">
        <ele>27.779453</ele>
        <time>2020-08-29T19:52:20.566Z</time>
      </trkpt>
      <trkpt lat="61.59738" lon="17.03994">
        <ele>26.869031</ele>
        <time>2020-08-29T19:52:30.519Z</time>
      </trkpt>
      <trkpt lat="61.5968" lon="17.03876">
        <ele>25.828286</ele>
        <time>2020-08-29T19:52:42.015Z</time>
      </trkpt>
      <trkpt lat="61.59657" lon="17.0383">
        <ele>25.419975</ele>
        <time>2020-08-29T19:52:46.822Z</time>
      </trkpt>
      <trkpt lat="61.5964" lon="17.03796">
        <ele>25.119532</ele>
        <time>2020-08-29T19:52:50.399Z</time>
      </trkpt>
      <trkpt lat="61.59619" lon="17.03755">
        <ele>24.753404</ele>
        <time>2020-08-29T19:52:54.963Z</time>
      </trkpt>
      <trkpt lat="61.59185" lon="17.02899">
        <ele>27.277259</ele>
        <time>2020-08-29T19:54:51.405Z</time>
      </trkpt>
      <trkpt lat="61.59132" lon="17.0281">
        <ele>27.351136</ele>
        <time>2020-08-29T19:55:03.252Z</time>
      </trkpt>
      <trkpt lat="61.59105" lon="17.02774">
        <ele>27.385788</ele>
        <time>2020-08-29T19:55:08.743Z</time>
      </trkpt>
      <trkpt lat="61.59102" lon="17.0277">
        <ele>27.390021</ele>
        <time>2020-08-29T19:55:09.386Z</time>
      </trkpt>
      <trkpt lat="61.59085" lon="17.02749">
        <ele>27.411183</ele>
        <time>2020-08-29T19:55:12.739Z</time>
      </trkpt>
      <trkpt lat="61.59073" lon="17.02736">
        <ele>27.428845</ele>
        <time>2020-08-29T19:55:15.034Z</time>
      </trkpt>
      <trkpt lat="61.58966" lon="17.02637">
        <ele>27.821855</ele>
        <time>2020-08-29T19:55:36.777Z</time>
      </trkpt>
      <trkpt lat="61.58942" lon="17.02622">
        <ele>27.90658</ele>
        <time>2020-08-29T19:55:41.798Z</time>
      </trkpt>
      <trkpt lat="61.58916" lon="17.02607">
        <ele>27.997839</ele>
        <time>2020-08-29T19:55:47.266Z</time>
      </trkpt>
      <trkpt lat="61.58893" lon="17.02595">
        <ele>28.100288</ele>
        <time>2020-08-29T19:55:51.941Z</time>
      </trkpt>
      <trkpt lat="61.58859" lon="17.02584">
        <ele>28.277629</ele>
        <time>2020-08-29T19:55:58.996Z</time>
      </trkpt>
      <trkpt lat="61.58796" lon="17.02574">
        <ele>28.595892</ele>
        <time>2020-08-29T19:56:11.747Z</time>
      </trkpt>
      <trkpt lat="61.5854" lon="17.02567">
        <ele>28.532687</ele>
        <time>2020-08-29T19:56:58.333Z</time>
      </trkpt>
      <trkpt lat="61.57708" lon="17.02687">
        <ele>12.420092</ele>
        <time>2020-08-29T19:58:55.398Z</time>
      </trkpt>
      <trkpt lat="61.57535" lon="17.02732">
        <ele>10.573142</ele>
        <time>2020-08-29T19:59:22.373Z</time>
      </trkpt>
      <trkpt lat="61.57436" lon="17.02743">
        <ele>10.122243</ele>
        <time>2020-08-29T19:59:39.515Z</time>
      </trkpt>
      <trkpt lat="61.57408" lon="17.02742">
        <ele>10.129241</ele>
        <time>2020-08-29T19:59:44.583Z</time>
      </trkpt>
      <trkpt lat="61.57377" lon="17.02738">
        <ele>10.136973</ele>
        <time>2020-08-29T19:59:50.215Z</time>
      </trkpt>
      <trkpt lat="61.57253" lon="17.02694">
        <ele>10.149921</ele>
        <time>2020-08-29T20:00:12.973Z</time>
      </trkpt>
      <trkpt lat="61.56901" lon="17.02523">
        <ele>10.037173</ele>
        <time>2020-08-29T20:01:16.896Z</time>
      </trkpt>
      <trkpt lat="61.56867" lon="17.02505">
        <ele>10.045049</ele>
        <time>2020-08-29T20:01:22.989Z</time>
      </trkpt>
      <trkpt lat="61.56794" lon="17.02461">
        <ele>10.062553</ele>
        <time>2020-08-29T20:01:36.513Z</time>
      </trkpt>
      <trkpt lat="61.56479" lon="17.02279">
        <ele>11.347582</ele>
        <time>2020-08-29T20:02:36.640Z</time>
      </trkpt>
      <trkpt lat="61.56395" lon="17.02208">
        <ele>12.784515</ele>
        <time>2020-08-29T20:02:58.235Z</time>
      </trkpt>
      <trkpt lat="61.56356" lon="17.02168">
        <ele>14.108928</ele>
        <time>2020-08-29T20:03:09.767Z</time>
      </trkpt>
      <trkpt lat="61.56155" lon="17.01867">
        <ele>22.376885</ele>
        <time>2020-08-29T20:04:23.074Z</time>
      </trkpt>
      <trkpt lat="61.56093" lon="17.01785">
        <ele>24.602545</ele>
        <time>2020-08-29T20:04:43.787Z</time>
      </trkpt>
      <trkpt lat="61.55905" lon="17.01573">
        <ele>28.57486</ele>
        <time>2020-08-29T20:05:37.385Z</time>
      </trkpt>
      <trkpt lat="61.55828" lon="17.01478">
        <ele>29.031495</ele>
        <time>2020-08-29T20:05:53.030Z</time>
      </trkpt>
      <trkpt lat="61.55785" lon="17.01414">
        <ele>28.561452</ele>
        <time>2020-08-29T20:06:00.743Z</time>
      </trkpt>
      <trkpt lat="61.55756" lon="17.01372">
        <ele>27.921359</ele>
        <time>2020-08-29T20:06:05.588Z</time>
      </trkpt>
      <trkpt lat="61.55652" lon="17.01209">
        <ele>25.771102</ele>
        <time>2020-08-29T20:06:23.493Z</time>
      </trkpt>
      <trkpt lat="61.5507" lon="17.00307">
        <ele>24.486302</ele>
        <time>2020-08-29T20:08:28.860Z</time>
      </trkpt>
      <trkpt lat="61.55029" lon="17.00235">
        <ele>25.409948</ele>
        <time>2020-08-29T20:08:41.873Z</time>
      </trkpt>
      <trkpt lat="61.54999" lon="17.00179">
        <ele>26.090956</ele>
        <time>2020-08-29T20:08:51.813Z</time>
      </trkpt>
      <trkpt lat="61.54951" lon="17.00069">
        <ele>27.295616</ele>
        <time>2020-08-29T20:09:10.046Z</time>
      </trkpt>
      <trkpt lat="61.54878" lon="16.99914">
        <ele>28.571986</ele>
        <time>2020-08-29T20:09:34.040Z</time>
      </trkpt>
      <trkpt lat="61.5486" lon="16.99878">
        <ele>28.881792</ele>
        <time>2020-08-29T20:09:38.991Z</time>
      </trkpt>
      <trkpt lat="61.54801" lon="16.99761">
        <ele>29.473762</ele>
        <time>2020-08-29T20:09:54.015Z</time>
      </trkpt>
      <trkpt lat="61.54723" lon="16.99615">
        <ele>29.553995</ele>
        <time>2020-08-29T20:10:12.589Z</time>
      </trkpt>
      <trkpt lat="61.54594" lon="16.99351">
        <ele>29.806006</ele>
        <time>2020-08-29T20:10:45.614Z</time>
      </trkpt>
      <trkpt lat="61.54511" lon="16.99182">
        <ele>29.923573</ele>
        <time>2020-08-29T20:11:06.615Z</time>
      </trkpt>
      <trkpt lat="61.54372" lon="16.98903">
        <ele>30.123211</ele>
        <time>2020-08-29T20:11:41.106Z</time>
      </trkpt>
      <trkpt lat="61.54313" lon="16.98803">
        <ele>30.228295</ele>
        <time>2020-08-29T20:11:55.013Z</time>
      </trkpt>
      <trkpt lat="61.54295" lon="16.98777">
        <ele>30.309283</ele>
        <time>2020-08-29T20:11:59.143Z</time>
      </trkpt>
      <trkpt lat="61.54264" lon="16.98733">
        <ele>30.700792</ele>
        <time>2020-08-29T20:12:06.452Z</time>
      </trkpt>
      <trkpt lat="61.54205" lon="16.98661">
        <ele>31.413841</ele>
        <time>2020-08-29T20:12:20.278Z</time>
      </trkpt>
      <trkpt lat="61.53832" lon="16.98247">
        <ele>39.084651</ele>
        <time>2020-08-29T20:13:59.609Z</time>
      </trkpt>
      <trkpt lat="61.53773" lon="16.98157">
        <ele>41.94491</ele>
        <time>2020-08-29T20:14:23.154Z</time>
      </trkpt>
      <trkpt lat="61.53763" lon="16.98138">
        <ele>42.476589</ele>
        <time>2020-08-29T20:14:27.697Z</time>
      </trkpt>
      <trkpt lat="61.53749" lon="16.9811">
        <ele>43.259523</ele>
        <time>2020-08-29T20:14:33.904Z</time>
      </trkpt>
      <trkpt lat="61.53727" lon="16.98055">
        <ele>44.645238</ele>
        <time>2020-08-29T20:14:44.862Z</time>
      </trkpt>
      <trkpt lat="61.53701" lon="16.97978">
        <ele>46.482994</ele>
        <time>2020-08-29T20:14:59.033Z</time>
      </trkpt>
      <trkpt lat="61.53671" lon="16.97882">
        <ele>47.303022</ele>
        <time>2020-08-29T20:15:15.375Z</time>
      </trkpt>
      <trkpt lat="61.53647" lon="16.9782">
        <ele>47.852141</ele>
        <time>2020-08-29T20:15:24.450Z</time>
      </trkpt>
      <trkpt lat="61.5362" lon="16.97763">
        <ele>48.404691</ele>
        <time>2020-08-29T20:15:32.575Z</time>
      </trkpt>
      <trkpt lat="61.53307" lon="16.97228">
        <ele>44.909445</ele>
        <time>2020-08-29T20:16:33.895Z</time>
      </trkpt>
      <trkpt lat="61.5327" lon="16.97141">
        <ele>44.344638</ele>
        <time>2020-08-29T20:16:41.773Z</time>
      </trkpt>
      <trkpt lat="61.53252" lon="16.97077">
        <ele>43.99492</ele>
        <time>2020-08-29T20:16:46.887Z</time>
      </trkpt>
      <trkpt lat="61.53238" lon="16.97007">
        <ele>43.633742</ele>
        <time>2020-08-29T20:16:52.450Z</time>
      </trkpt>
      <trkpt lat="61.53188" lon="16.96757">
        <ele>43.658806</ele>
        <time>2020-08-29T20:17:15.415Z</time>
      </trkpt>
      <trkpt lat="61.53187" lon="16.9675">
        <ele>43.690003</ele>
        <time>2020-08-29T20:17:16.548Z</time>
      </trkpt>
      <trkpt lat="61.53122" lon="16.9641">
        <ele>44.902309</ele>
        <time>2020-08-29T20:17:55.407Z</time>
      </trkpt>
      <trkpt lat="61.53094" lon="16.96311">
        <ele>45.144915</ele>
        <time>2020-08-29T20:18:06.088Z</time>
      </trkpt>
      <trkpt lat="61.53056" lon="16.96208">
        <ele>45.311863</ele>
        <time>2020-08-29T20:18:16.542Z</time>
      </trkpt>
      <trkpt lat="61.52977" lon="16.96051">
        <ele>43.886512</ele>
        <time>2020-08-29T20:18:32.691Z</time>
      </trkpt>
      <trkpt lat="61.5293" lon="16.95967">
        <ele>43.075622</ele>
        <time>2020-08-29T20:18:41.629Z</time>
      </trkpt>
      <trkpt lat="61.52915" lon="16.95937">
        <ele>42.836509</ele>
        <time>2020-08-29T20:18:44.576Z</time>
      </trkpt>
      <trkpt lat="61.52826" lon="16.95786">
        <ele>41.51255</ele>
        <time>2020-08-29T20:19:01.777Z</time>
      </trkpt>
      <trkpt lat="61.52794" lon="16.95743">
        <ele>41.072552</ele>
        <time>2020-08-29T20:19:07.890Z</time>
      </trkpt>
      <trkpt lat="61.52747" lon="16.9569">
        <ele>40.790928</ele>
        <time>2020-08-29T20:19:16.737Z</time>
      </trkpt>
      <trkpt lat="61.5266" lon="16.95628">
        <ele>40.438887</ele>
        <time>2020-08-29T20:19:32.198Z</time>
      </trkpt>
      <trkpt lat="61.52617" lon="16.95611">
        <ele>40.274432</ele>
        <time>2020-08-29T20:19:39.571Z</time>
      </trkpt>
      <trkpt lat="61.52609" lon="16.95609">
        <ele>40.297908</ele>
        <time>2020-08-29T20:19:41.011Z</time>
      </trkpt>
      <trkpt lat="61.52585" lon="16.95603">
        <ele>40.399922</ele>
        <time>2020-08-29T20:19:45.317Z</time>
      </trkpt>
      <trkpt lat="61.52573" lon="16.95601">
        <ele>40.451402</ele>
        <time>2020-08-29T20:19:47.550Z</time>
      </trkpt>
      <trkpt lat="61.52549" lon="16.95599">
        <ele>40.551559</ele>
        <time>2020-08-29T20:19:51.929Z</time>
      </trkpt>
      <trkpt lat="61.52487" lon="16.95604">
        <ele>40.807389</ele>
        <time>2020-08-29T20:20:03.575Z</time>
      </trkpt>
      <trkpt lat="61.52452" lon="16.95616">
        <ele>40.958198</ele>
        <time>2020-08-29T20:20:10.741Z</time>
      </trkpt>
      <trkpt lat="61.52112" lon="16.9576">
        <ele>45.5281</ele>
        <time>2020-08-29T20:21:27.108Z</time>
      </trkpt>
      <trkpt lat="61.51927" lon="16.95823">
        <ele>49.273019</ele>
        <time>2020-08-29T20:22:12.860Z</time>
      </trkpt>
      <trkpt lat="61.51826" lon="16.95841">
        <ele>51.53773</ele>
        <time>2020-08-29T20:22:39.020Z</time>
      </trkpt>
      <trkpt lat="61.51733" lon="16.95819">
        <ele>53.696949</ele>
        <time>2020-08-29T20:23:03.043Z</time>
      </trkpt>
      <trkpt lat="61.51021" lon="16.9542">
        <ele>65.014189</ele>
        <time>2020-08-29T20:25:50.070Z</time>
      </trkpt>
      <trkpt lat="61.50892" lon="16.95333">
        <ele>67.108782</ele>
        <time>2020-08-29T20:26:20.681Z</time>
      </trkpt>
      <trkpt lat="61.50819" lon="16.95255">
        <ele>68.356384</ele>
        <time>2020-08-29T20:26:39.522Z</time>
      </trkpt>
      <trkpt lat="61.50287" lon="16.946">
        <ele>76.938884</ele>
        <time>2020-08-29T20:28:59.238Z</time>
      </trkpt>
      <trkpt lat="61.5024" lon="16.94552">
        <ele>77.445955</ele>
        <time>2020-08-29T20:29:08.775Z</time>
      </trkpt>
      <trkpt lat="61.50178" lon="16.94507">
        <ele>76.578482</ele>
        <time>2020-08-29T20:29:19.373Z</time>
      </trkpt>
      <trkpt lat="61.50101" lon="16.94475">
        <ele>75.518007</ele>
        <time>2020-08-29T20:29:30.848Z</time>
      </trkpt>
      <trkpt lat="61.50033" lon="16.94461">
        <ele>74.098457</ele>
        <time>2020-08-29T20:29:40.222Z</time>
      </trkpt>
      <trkpt lat="61.49845" lon="16.94439">
        <ele>68.591775</ele>
        <time>2020-08-29T20:30:05.007Z</time>
      </trkpt>
      <trkpt lat="61.49588" lon="16.94406">
        <ele>60.714536</ele>
        <time>2020-08-29T20:30:38.786Z</time>
      </trkpt>
      <trkpt lat="61.49366" lon="16.94402">
        <ele>54.671609</ele>
        <time>2020-08-29T20:31:08.462Z</time>
      </trkpt>
      <trkpt lat="61.49307" lon="16.94401">
        <ele>53.737523</ele>
        <time>2020-08-29T20:31:16.933Z</time>
      </trkpt>
      <trkpt lat="61.49306" lon="16.94362">
        <ele>53.536132</ele>
        <time>2020-08-29T20:31:19.754Z</time>
      </trkpt>
      <trkpt lat="61.49303" lon="16.94296">
        <ele>53.189053</ele>
        <time>2020-08-29T20:31:24.586Z</time>
      </trkpt>
      <trkpt lat="61.49301" lon="16.94276">
        <ele>53.082685</ele>
        <time>2020-08-29T20:31:26.159Z</time>
      </trkpt>
      <trkpt lat="61.49293" lon="16.94259">
        <ele>52.965294</ele>
        <time>2020-08-29T20:31:27.764Z</time>
      </trkpt>
      <trkpt lat="61.4924" lon="16.94185">
        <ele>52.269473</ele>
        <time>2020-08-29T20:31:38.331Z</time>
      </trkpt>
      <trkpt lat="61.49211" lon="16.94111">
        <ele>51.889899</ele>
        <time>2020-08-29T20:31:46.125Z</time>
      </trkpt>
      <trkpt lat="61.49133" lon="16.93985">
        <ele>51.106252</ele>
        <time>2020-08-29T20:32:02.039Z</time>
      </trkpt>
      <trkpt lat="61.49089" lon="16.93914">
        <ele>50.491226</ele>
        <time>2020-08-29T20:32:10.411Z</time>
      </trkpt>
      <trkpt lat="61.48997" lon="16.93794">
        <ele>48.293533</ele>
        <time>2020-08-29T20:32:25.764Z</time>
      </trkpt>
      <trkpt lat="61.48975" lon="16.9377">
        <ele>47.792122</ele>
        <time>2020-08-29T20:32:29.116Z</time>
      </trkpt>
      <trkpt lat="61.48935" lon="16.93729">
        <ele>46.854327</ele>
        <time>2020-08-29T20:32:35.111Z</time>
      </trkpt>
      <trkpt lat="61.48892" lon="16.93711">
        <ele>45.779491</ele>
        <time>2020-08-29T20:32:41.090Z</time>
      </trkpt>
      <trkpt lat="61.48844" lon="16.93707">
        <ele>44.621939</ele>
        <time>2020-08-29T20:32:47.509Z</time>
      </trkpt>
      <trkpt lat="61.48759" lon="16.93698">
        <ele>42.682412</ele>
        <time>2020-08-29T20:32:59.194Z</time>
      </trkpt>
      <trkpt lat="61.48657" lon="16.93605">
        <ele>41.452434</ele>
        <time>2020-08-29T20:33:15.630Z</time>
      </trkpt>
      <trkpt lat="61.48617" lon="16.93591">
        <ele>40.996886</ele>
        <time>2020-08-29T20:33:22.490Z</time>
      </trkpt>
      <trkpt lat="61.48588" lon="16.93603">
        <ele>40.944823</ele>
        <time>2020-08-29T20:33:27.716Z</time>
      </trkpt>
      <trkpt lat="61.48573" lon="16.93617">
        <ele>41.177561</ele>
        <time>2020-08-29T20:33:30.848Z</time>
      </trkpt>
      <trkpt lat="61.48554" lon="16.93642">
        <ele>41.484481</ele>
        <time>2020-08-29T20:33:35.274Z</time>
      </trkpt>
      <trkpt lat="61.48527" lon="16.93706">
        <ele>42.048539</ele>
        <time>2020-08-29T20:33:43.946Z</time>
      </trkpt>
      <trkpt lat="61.48512" lon="16.93773">
        <ele>42.53941</ele>
        <time>2020-08-29T20:33:52.166Z</time>
      </trkpt>
      <trkpt lat="61.48493" lon="16.93816">
        <ele>42.933333</ele>
        <time>2020-08-29T20:33:59.175Z</time>
      </trkpt>
      <trkpt lat="61.48451" lon="16.93836">
        <ele>43.830074</ele>
        <time>2020-08-29T20:34:10.496Z</time>
      </trkpt>
      <trkpt lat="61.48263" lon="16.93998">
        <ele>50.447261</ele>
        <time>2020-08-29T20:35:08.129Z</time>
      </trkpt>
      <trkpt lat="61.48126" lon="16.94033">
        <ele>55.422109</ele>
        <time>2020-08-29T20:35:49.142Z</time>
      </trkpt>
      <trkpt lat="61.48095" lon="16.94069">
        <ele>56.709225</ele>
        <time>2020-08-29T20:35:59.705Z</time>
      </trkpt>
      <trkpt lat="61.48093" lon="16.94085">
        <ele>56.993491</ele>
        <time>2020-08-29T20:36:02.196Z</time>
      </trkpt>
      <trkpt lat="61.48091" lon="16.94125">
        <ele>57.703429</ele>
        <time>2020-08-29T20:36:07.996Z</time>
      </trkpt>
      <trkpt lat="61.4781" lon="16.9416">
        <ele>67.379179</ele>
        <time>2020-08-29T20:37:30.448Z</time>
      </trkpt>
      <trkpt lat="61.47709" lon="16.94174">
        <ele>69.085872</ele>
        <time>2020-08-29T20:37:54.999Z</time>
      </trkpt>
      <trkpt lat="61.47655" lon="16.94182">
        <ele>69.832254</ele>
        <time>2020-08-29T20:38:06.626Z</time>
      </trkpt>
      <trkpt lat="61.46404" lon="16.94358">
        <ele>69.598208</ele>
        <time>2020-08-29T20:41:48.192Z</time>
      </trkpt>
      <trkpt lat="61.46295" lon="16.94404">
        <ele>68.663446</ele>
        <time>2020-08-29T20:42:05.725Z</time>
      </trkpt>
      <trkpt lat="61.45883" lon="16.94652">
        <ele>63.27517</ele>
        <time>2020-08-29T20:43:09.632Z</time>
      </trkpt>
      <trkpt lat="61.45726" lon="16.94749">
        <ele>61.719357</ele>
        <time>2020-08-29T20:43:35.294Z</time>
      </trkpt>
      <trkpt lat="61.45594" lon="16.94832">
        <ele>60.809654</ele>
        <time>2020-08-29T20:43:57.504Z</time>
      </trkpt>
      <trkpt lat="61.45585" lon="16.94837">
        <ele>60.761705</ele>
        <time>2020-08-29T20:43:59.027Z</time>
      </trkpt>
      <trkpt lat="61.4553" lon="16.94871">
        <ele>60.470371</ele>
        <time>2020-08-29T20:44:08.417Z</time>
      </trkpt>
      <trkpt lat="61.45113" lon="16.95124">
        <ele>59.643996</ele>
        <time>2020-08-29T20:45:23.876Z</time>
      </trkpt>
      <trkpt lat="61.44949" lon="16.95223">
        <ele>59.191861</ele>
        <time>2020-08-29T20:45:52.757Z</time>
      </trkpt>
      <trkpt lat="61.44806" lon="16.95316">
        <ele>58.72859</ele>
        <time>2020-08-29T20:46:18.285Z</time>
      </trkpt>
      <trkpt lat="61.44753" lon="16.95359">
        <ele>58.491478</ele>
        <time>2020-08-29T20:46:27.897Z</time>
      </trkpt>
      <trkpt lat="61.44687" lon="16.9544">
        <ele>58.167862</ele>
        <time>2020-08-29T20:46:40.585Z</time>
      </trkpt>
      <trkpt lat="61.44635" lon="16.95523">
        <ele>57.825084</ele>
        <time>2020-08-29T20:46:51.230Z</time>
      </trkpt>
      <trkpt lat="61.44557" lon="16.9565">
        <ele>56.998202</ele>
        <time>2020-08-29T20:47:06.927Z</time>
      </trkpt>
      <trkpt lat="61.44354" lon="16.95968">
        <ele>54.736028</ele>
        <time>2020-08-29T20:47:46.420Z</time>
      </trkpt>
      <trkpt lat="61.4422" lon="16.96186">
        <ele>53.867512</ele>
        <time>2020-08-29T20:48:14.485Z</time>
      </trkpt>
      <trkpt lat="61.44168" lon="16.96256">
        <ele>53.682267</ele>
        <time>2020-08-29T20:48:25.021Z</time>
      </trkpt>
      <trkpt lat="61.44113" lon="16.96308">
        <ele>53.503031</ele>
        <time>2020-08-29T20:48:35.353Z</time>
      </trkpt>
      <trkpt lat="61.44082" lon="16.96326">
        <ele>53.405908</ele>
        <time>2020-08-29T20:48:40.933Z</time>
      </trkpt>
      <trkpt lat="61.44051" lon="16.96333">
        <ele>53.321022</ele>
        <time>2020-08-29T20:48:46.058Z</time>
      </trkpt>
      <trkpt lat="61.44021" lon="16.96336">
        <ele>53.276901</ele>
        <time>2020-08-29T20:48:51.136Z</time>
      </trkpt>
      <trkpt lat="61.43951" lon="16.96319">
        <ele>53.174972</ele>
        <time>2020-08-29T20:49:03.143Z</time>
      </trkpt>
      <trkpt lat="61.43907" lon="16.96295">
        <ele>53.108622</ele>
        <time>2020-08-29T20:49:11.178Z</time>
      </trkpt>
      <trkpt lat="61.43892" lon="16.9629">
        <ele>53.086297</ele>
        <time>2020-08-29T20:49:13.914Z</time>
      </trkpt>
      <trkpt lat="61.43754" lon="16.96233">
        <ele>52.917292</ele>
        <time>2020-08-29T20:49:39.572Z</time>
      </trkpt>
      <trkpt lat="61.43641" lon="16.96212">
        <ele>51.776757</ele>
        <time>2020-08-29T20:49:58.155Z</time>
      </trkpt>
      <trkpt lat="61.4308" lon="16.96193">
        <ele>41.97478</ele>
        <time>2020-08-29T20:51:16.908Z</time>
      </trkpt>
      <trkpt lat="61.43026" lon="16.96203">
        <ele>41.502554</ele>
        <time>2020-08-29T20:51:25.872Z</time>
      </trkpt>
      <trkpt lat="61.42816" lon="16.96237">
        <ele>42.384416</ele>
        <time>2020-08-29T20:52:08.347Z</time>
      </trkpt>
      <trkpt lat="61.42635" lon="16.96269">
        <ele>44.07546</ele>
        <time>2020-08-29T20:52:46.789Z</time>
      </trkpt>
      <trkpt lat="61.42629" lon="16.9627">
        <ele>44.135107</ele>
        <time>2020-08-29T20:52:48.083Z</time>
      </trkpt>
      <trkpt lat="61.42557" lon="16.96283">
        <ele>44.177808</ele>
        <time>2020-08-29T20:53:02.431Z</time>
      </trkpt>
      <trkpt lat="61.41992" lon="16.96382">
        <ele>43.210935</ele>
        <time>2020-08-29T20:54:41.476Z</time>
      </trkpt>
      <trkpt lat="61.4194" lon="16.96375">
        <ele>42.713874</ele>
        <time>2020-08-29T20:54:48.968Z</time>
      </trkpt>
      <trkpt lat="61.41769" lon="16.96292">
        <ele>39.775691</ele>
        <time>2020-08-29T20:55:13.508Z</time>
      </trkpt>
      <trkpt lat="61.41748" lon="16.9628">
        <ele>39.380969</ele>
        <time>2020-08-29T20:55:16.619Z</time>
      </trkpt>
      <trkpt lat="61.41655" lon="16.96225">
        <ele>39.255379</ele>
        <time>2020-08-29T20:55:32.384Z</time>
      </trkpt>
      <trkpt lat="61.41575" lon="16.96165">
        <ele>39.440761</ele>
        <time>2020-08-29T20:55:49.682Z</time>
      </trkpt>
      <trkpt lat="61.41412" lon="16.95971">
        <ele>42.170669</ele>
        <time>2020-08-29T20:56:33.103Z</time>
      </trkpt>
      <trkpt lat="61.41351" lon="16.95928">
        <ele>42.949574</ele>
        <time>2020-08-29T20:56:47.659Z</time>
      </trkpt>
      <trkpt lat="61.40666" lon="16.95724">
        <ele>50.632403</ele>
        <time>2020-08-29T20:59:16.084Z</time>
      </trkpt>
      <trkpt lat="61.40505" lon="16.95679">
        <ele>51.004837</ele>
        <time>2020-08-29T20:59:45.285Z</time>
      </trkpt>
      <trkpt lat="61.40436" lon="16.95659">
        <ele>50.972581</ele>
        <time>2020-08-29T20:59:56.875Z</time>
      </trkpt>
      <trkpt lat="61.40313" lon="16.9561">
        <ele>51.220291</ele>
        <time>2020-08-29T21:00:19.357Z</time>
      </trkpt>
      <trkpt lat="61.39905" lon="16.95318">
        <ele>55.743268</ele>
        <time>2020-08-29T21:01:52.543Z</time>
      </trkpt>
      <trkpt lat="61.39484" lon="16.95009">
        <ele>59.467923</ele>
        <time>2020-08-29T21:03:24.071Z</time>
      </trkpt>
      <trkpt lat="61.39394" lon="16.94945">
        <ele>59.736804</ele>
        <time>2020-08-29T21:03:42.097Z</time>
      </trkpt>
      <trkpt lat="61.39272" lon="16.9488">
        <ele>59.928216</ele>
        <time>2020-08-29T21:04:04.566Z</time>
      </trkpt>
      <trkpt lat="61.39212" lon="16.94867">
        <ele>59.88901</ele>
        <time>2020-08-29T21:04:15.364Z</time>
      </trkpt>
      <trkpt lat="61.39148" lon="16.94868">
        <ele>59.847694</ele>
        <time>2020-08-29T21:04:26.667Z</time>
      </trkpt>
      <trkpt lat="61.37951" lon="16.95062">
        <ele>54.527712</ele>
        <time>2020-08-29T21:07:49.808Z</time>
      </trkpt>
      <trkpt lat="61.37897" lon="16.95065">
        <ele>53.613953</ele>
        <time>2020-08-29T21:07:56.696Z</time>
      </trkpt>
      <trkpt lat="61.37875" lon="16.95063">
        <ele>52.923907</ele>
        <time>2020-08-29T21:07:59.477Z</time>
      </trkpt>
      <trkpt lat="61.37872" lon="16.95081">
        <ele>52.410064</ele>
        <time>2020-08-29T21:08:00.589Z</time>
      </trkpt>
      <trkpt lat="61.37857" lon="16.95111">
        <ele>51.285596</ele>
        <time>2020-08-29T21:08:03.176Z</time>
      </trkpt>
      <trkpt lat="61.37807" lon="16.95144">
        <ele>48.469052</ele>
        <time>2020-08-29T21:08:09.321Z</time>
      </trkpt>
      <trkpt lat="61.37707" lon="16.95306">
        <ele>41.429628</ele>
        <time>2020-08-29T21:08:24.141Z</time>
      </trkpt>
      <trkpt lat="61.37666" lon="16.95327">
        <ele>38.925159</ele>
        <time>2020-08-29T21:08:29.170Z</time>
      </trkpt>
      <trkpt lat="61.37632" lon="16.95327">
        <ele>36.9533</ele>
        <time>2020-08-29T21:08:33.132Z</time>
      </trkpt>
      <trkpt lat="61.37591" lon="16.95309">
        <ele>34.511304</ele>
        <time>2020-08-29T21:08:38.091Z</time>
      </trkpt>
      <trkpt lat="61.37546" lon="16.95312">
        <ele>32.254798</ele>
        <time>2020-08-29T21:08:43.558Z</time>
      </trkpt>
      <trkpt lat="61.37511" lon="16.95328">
        <ele>30.830017</ele>
        <time>2020-08-29T21:08:47.957Z</time>
      </trkpt>
      <trkpt lat="61.37475" lon="16.95344">
        <ele>29.376779</ele>
        <time>2020-08-29T21:08:52.531Z</time>
      </trkpt>
      <trkpt lat="61.3739" lon="16.95405">
        <ele>25.833613</ele>
        <time>2020-08-29T21:09:04.198Z</time>
      </trkpt>
      <trkpt lat="61.37322" lon="16.95421">
        <ele>24.117699</ele>
        <time>2020-08-29T21:09:13.550Z</time>
      </trkpt>
      <trkpt lat="61.37257" lon="16.95398">
        <ele>22.489421</ele>
        <time>2020-08-29T21:09:22.653Z</time>
      </trkpt>
      <trkpt lat="61.37125" lon="16.9539">
        <ele>19.167461</ele>
        <time>2020-08-29T21:09:40.727Z</time>
      </trkpt>
      <trkpt lat="61.37064" lon="16.95364">
        <ele>17.627238</ele>
        <time>2020-08-29T21:09:49.002Z</time>
      </trkpt>
      <trkpt lat="61.37036" lon="16.95335">
        <ele>16.888657</ele>
        <time>2020-08-29T21:09:53.236Z</time>
      </trkpt>
      <trkpt lat="61.36992" lon="16.95322">
        <ele>16.251467</ele>
        <time>2020-08-29T21:09:59.410Z</time>
      </trkpt>
      <trkpt lat="61.36906" lon="16.95788">
        <ele>13.799745</ele>
        <time>2020-08-29T21:10:36.401Z</time>
      </trkpt>
      <trkpt lat="61.36857" lon="16.96077">
        <ele>13.493135</ele>
        <time>2020-08-29T21:11:03.240Z</time>
      </trkpt>
      <trkpt lat="61.36823" lon="16.96388">
        <ele>13.513815</ele>
        <time>2020-08-29T21:11:31.255Z</time>
      </trkpt>
      <trkpt lat="61.36717" lon="16.96807">
        <ele>12.740256</ele>
        <time>2020-08-29T21:12:09.586Z</time>
      </trkpt>
      <trkpt lat="61.36693" lon="16.96878">
        <ele>12.52425</ele>
        <time>2020-08-29T21:12:16.264Z</time>
      </trkpt>
      <trkpt lat="61.36587" lon="16.97198">
        <ele>11.359904</ele>
        <time>2020-08-29T21:12:46.204Z</time>
      </trkpt>
      <trkpt lat="61.36546" lon="16.97335">
        <ele>10.883124</ele>
        <time>2020-08-29T21:12:58.731Z</time>
      </trkpt>
      <trkpt lat="61.36467" lon="16.97522">
        <ele>10.184333</ele>
        <time>2020-08-29T21:13:18.238Z</time>
      </trkpt>
      <trkpt lat="61.36447" lon="16.97575">
        <ele>10.00996</ele>
        <time>2020-08-29T21:13:23.597Z</time>
      </trkpt>
      <trkpt lat="61.36424" lon="16.97648">
        <ele>9.822289</ele>
        <time>2020-08-29T21:13:30.468Z</time>
      </trkpt>
      <trkpt lat="61.36379" lon="16.97828">
        <ele>9.388401</ele>
        <time>2020-08-29T21:13:46.536Z</time>
      </trkpt>
      <trkpt lat="61.36363" lon="16.97895">
        <ele>9.261159</ele>
        <time>2020-08-29T21:13:52.702Z</time>
      </trkpt>
      <trkpt lat="61.36337" lon="16.98003">
        <ele>9.269762</ele>
        <time>2020-08-29T21:14:02.795Z</time>
      </trkpt>
      <trkpt lat="61.36247" lon="16.98332">
        <ele>9.418833</ele>
        <time>2020-08-29T21:14:36.066Z</time>
      </trkpt>
      <trkpt lat="61.36232" lon="16.98371">
        <ele>9.464643</ele>
        <time>2020-08-29T21:14:40.408Z</time>
      </trkpt>
      <trkpt lat="61.36218" lon="16.98391">
        <ele>9.498021</ele>
        <time>2020-08-29T21:14:43.633Z</time>
      </trkpt>
      <trkpt lat="61.36171" lon="16.98451">
        <ele>9.607249</ele>
        <time>2020-08-29T21:14:53.956Z</time>
      </trkpt>
      <trkpt lat="61.36147" lon="16.98472">
        <ele>9.647316</ele>
        <time>2020-08-29T21:14:58.842Z</time>
      </trkpt>
      <trkpt lat="61.36142" lon="16.98474">
        <ele>9.650573</ele>
        <time>2020-08-29T21:14:59.646Z</time>
      </trkpt>
      <trkpt lat="61.36061" lon="16.98543">
        <ele>9.715556</ele>
        <time>2020-08-29T21:15:15.655Z</time>
      </trkpt>
      <trkpt lat="61.36039" lon="16.98572">
        <ele>9.73472</ele>
        <time>2020-08-29T21:15:20.254Z</time>
      </trkpt>
      <trkpt lat="61.36009" lon="16.98634">
        <ele>9.766255</ele>
        <time>2020-08-29T21:15:27.808Z</time>
      </trkpt>
      <trkpt lat="61.35997" lon="16.98671">
        <ele>9.763968</ele>
        <time>2020-08-29T21:15:31.555Z</time>
      </trkpt>
      <trkpt lat="61.36009" lon="16.98696">
        <ele>9.749564</ele>
        <time>2020-08-29T21:15:34.487Z</time>
      </trkpt>
      <trkpt lat="61.36026" lon="16.98761">
        <ele>9.718619</ele>
        <time>2020-08-29T21:15:40.727Z</time>
      </trkpt>
      <trkpt lat="61.36033" lon="16.99078">
        <ele>9.563455</ele>
        <time>2020-08-29T21:16:07.438Z</time>
      </trkpt>
      <trkpt lat="61.36023" lon="16.99229">
        <ele>9.452518</ele>
        <time>2020-08-29T21:16:20.270Z</time>
      </trkpt>
      <trkpt lat="61.36011" lon="16.9928">
        <ele>9.411393</ele>
        <time>2020-08-29T21:16:24.980Z</time>
      </trkpt>
      <trkpt lat="61.35996" lon="16.99313">
        <ele>9.378709</ele>
        <time>2020-08-29T21:16:28.729Z</time>
      </trkpt>
      <trkpt lat="61.35971" lon="16.99357">
        <ele>9.326581</ele>
        <time>2020-08-29T21:16:34.451Z</time>
      </trkpt>
      <trkpt lat="61.35906" lon="16.99461">
        <ele>9.18926</ele>
        <time>2020-08-29T21:16:48.451Z</time>
      </trkpt>
      <trkpt lat="61.35888" lon="16.9951">
        <ele>9.138047</ele>
        <time>2020-08-29T21:16:53.691Z</time>
      </trkpt>
      <trkpt lat="61.35867" lon="16.99601">
        <ele>9.056465</ele>
        <time>2020-08-29T21:17:02.009Z</time>
      </trkpt>
      <trkpt lat="61.35867" lon="16.99686">
        <ele>9.048618</ele>
        <time>2020-08-29T21:17:09.140Z</time>
      </trkpt>
      <trkpt lat="61.3589" lon="16.99939">
        <ele>9.076543</ele>
        <time>2020-08-29T21:17:31.343Z</time>
      </trkpt>
      <trkpt lat="61.3589" lon="16.99981">
        <ele>9.081107</ele>
        <time>2020-08-29T21:17:35.076Z</time>
      </trkpt>
      <trkpt lat="61.35886" lon="16.99999">
        <ele>9.090056</ele>
        <time>2020-08-29T21:17:36.775Z</time>
      </trkpt>
      <trkpt lat="61.35846" lon="17.00153">
        <ele>9.226239</ele>
        <time>2020-08-29T21:17:52.184Z</time>
      </trkpt>
      <trkpt lat="61.35841" lon="17.00194">
        <ele>9.259422</ele>
        <time>2020-08-29T21:17:55.972Z</time>
      </trkpt>
      <trkpt lat="61.35822" lon="17.00401">
        <ele>9.433709</ele>
        <time>2020-08-29T21:18:14.468Z</time>
      </trkpt>
      <trkpt lat="61.35813" lon="17.0063">
        <ele>9.650576</ele>
        <time>2020-08-29T21:18:34.846Z</time>
      </trkpt>
      <trkpt lat="61.35818" lon="17.00775">
        <ele>9.759848</ele>
        <time>2020-08-29T21:18:47.863Z</time>
      </trkpt>
      <trkpt lat="61.35821" lon="17.00891">
        <ele>9.818964</ele>
        <time>2020-08-29T21:18:58.240Z</time>
      </trkpt>
      <trkpt lat="61.35826" lon="17.01098">
        <ele>9.908268</ele>
        <time>2020-08-29T21:19:15.965Z</time>
      </trkpt>
      <trkpt lat="61.35823" lon="17.01145">
        <ele>9.860334</ele>
        <time>2020-08-29T21:19:19.888Z</time>
      </trkpt>
      <trkpt lat="61.35819" lon="17.01194">
        <ele>9.809593</ele>
        <time>2020-08-29T21:19:23.921Z</time>
      </trkpt>
      <trkpt lat="61.35798" lon="17.01324">
        <ele>9.670992</ele>
        <time>2020-08-29T21:19:35.075Z</time>
      </trkpt>
      <trkpt lat="61.35771" lon="17.01444">
        <ele>9.540299</ele>
        <time>2020-08-29T21:19:46.134Z</time>
      </trkpt>
      <trkpt lat="61.35752" lon="17.01528">
        <ele>9.565885</ele>
        <time>2020-08-29T21:19:53.936Z</time>
      </trkpt>
      <trkpt lat="61.35742" lon="17.01595">
        <ele>9.585362</ele>
        <time>2020-08-29T21:19:59.996Z</time>
      </trkpt>
      <trkpt lat="61.35735" lon="17.01654">
        <ele>9.602293</ele>
        <time>2020-08-29T21:20:05.299Z</time>
      </trkpt>
      <trkpt lat="61.35729" lon="17.01722">
        <ele>9.621438</ele>
        <time>2020-08-29T21:20:11.444Z</time>
      </trkpt>
      <trkpt lat="61.35729" lon="17.01782">
        <ele>9.637782</ele>
        <time>2020-08-29T21:20:16.789Z</time>
      </trkpt>
      <trkpt lat="61.35733" lon="17.01944">
        <ele>9.480558</ele>
        <time>2020-08-29T21:20:30.744Z</time>
      </trkpt>
      <trkpt lat="61.35729" lon="17.01979">
        <ele>9.439312</ele>
        <time>2020-08-29T21:20:33.747Z</time>
      </trkpt>
      <trkpt lat="61.35701" lon="17.02064">
        <ele>9.322553</ele>
        <time>2020-08-29T21:20:41.986Z</time>
      </trkpt>
      <trkpt lat="61.35683" lon="17.02114">
        <ele>9.24994</ele>
        <time>2020-08-29T21:20:47.067Z</time>
      </trkpt>
      <trkpt lat="61.35674" lon="17.02139">
        <ele>9.216006</ele>
        <time>2020-08-29T21:20:49.329Z</time>
      </trkpt>
      <trkpt lat="61.35634" lon="17.02268">
        <ele>8.914378</ele>
        <time>2020-08-29T21:21:01.561Z</time>
      </trkpt>
      <trkpt lat="61.35595" lon="17.02456">
        <ele>8.515725</ele>
        <time>2020-08-29T21:21:18.007Z</time>
      </trkpt>
      <trkpt lat="61.3557" lon="17.0252">
        <ele>8.402021</ele>
        <time>2020-08-29T21:21:24.844Z</time>
      </trkpt>
      <trkpt lat="61.35563" lon="17.02553">
        <ele>8.358862</ele>
        <time>2020-08-29T21:21:27.737Z</time>
      </trkpt>
      <trkpt lat="61.35561" lon="17.02596">
        <ele>8.305812</ele>
        <time>2020-08-29T21:21:31.293Z</time>
      </trkpt>
      <trkpt lat="61.35558" lon="17.02666">
        <ele>8.221286</ele>
        <time>2020-08-29T21:21:36.972Z</time>
      </trkpt>
      <trkpt lat="61.35454" lon="17.02639">
        <ele>8.111878</ele>
        <time>2020-08-29T21:21:55.555Z</time>
      </trkpt>
      <trkpt lat="61.35332" lon="17.02729">
        <ele>8.50097</ele>
        <time>2020-08-29T21:22:20.480Z</time>
      </trkpt>
      <trkpt lat="61.35317" lon="17.02741">
        <ele>8.548373</ele>
        <time>2020-08-29T21:22:23.932Z</time>
      </trkpt>
      <trkpt lat="61.35306" lon="17.02743">
        <ele>8.679966</ele>
        <time>2020-08-29T21:22:26.405Z</time>
      </trkpt>
      <trkpt lat="61.3529" lon="17.02741">
        <ele>9.02824</ele>
        <time>2020-08-29T21:22:30.057Z</time>
      </trkpt>
      <trkpt lat="61.3528" lon="17.02741">
        <ele>9.236211</ele>
        <time>2020-08-29T21:22:32.254Z</time>
      </trkpt>
      <trkpt lat="61.35272" lon="17.02739">
        <ele>9.418808</ele>
        <time>2020-08-29T21:22:34.191Z</time>
      </trkpt>
      <trkpt lat="61.35233" lon="17.0273">
        <ele>10.276839</ele>
        <time>2020-08-29T21:22:43.780Z</time>
      </trkpt>
      <trkpt lat="61.35125" lon="17.02637">
        <ele>12.77697</ele>
        <time>2020-08-29T21:23:16.430Z</time>
      </trkpt>
      <trkpt lat="61.35099" lon="17.02625">
        <ele>13.23595</ele>
        <time>2020-08-29T21:23:23.885Z</time>
      </trkpt>
      <trkpt lat="61.35057" lon="17.02661">
        <ele>14.026038</ele>
        <time>2020-08-29T21:23:35.229Z</time>
      </trkpt>
      <trkpt lat="61.35029" lon="17.02661">
        <ele>14.523811</ele>
        <time>2020-08-29T21:23:42.385Z</time>
      </trkpt>
      <trkpt lat="61.34997" lon="17.0273">
        <ele>15.335388</ele>
        <time>2020-08-29T21:23:52.138Z</time>
      </trkpt>
      <trkpt lat="61.349" lon="17.02872">
        <ele>15.479746</ele>
        <time>2020-08-29T21:24:13.443Z</time>
      </trkpt>
      <trkpt lat="61.34798" lon="17.02947">
        <ele>15.331243</ele>
        <time>2020-08-29T21:24:30.641Z</time>
      </trkpt>
      <trkpt lat="61.34589" lon="17.0306">
        <ele>15.550876</ele>
        <time>2020-08-29T21:25:10.431Z</time>
      </trkpt>
      <trkpt lat="61.34375" lon="17.03175">
        <ele>16.705742</ele>
        <time>2020-08-29T21:25:53.704Z</time>
      </trkpt>
      <trkpt lat="61.34181" lon="17.03315">
        <ele>17.82708</ele>
        <time>2020-08-29T21:26:35.312Z</time>
      </trkpt>
      <trkpt lat="61.33772" lon="17.03758">
        <ele>17.058837</ele>
        <time>2020-08-29T21:27:55.203Z</time>
      </trkpt>
      <trkpt lat="61.33691" lon="17.03865">
        <ele>16.324546</ele>
        <time>2020-08-29T21:28:10.140Z</time>
      </trkpt>
      <trkpt lat="61.33678" lon="17.03889">
        <ele>16.185608</ele>
        <time>2020-08-29T21:28:12.945Z</time>
      </trkpt>
      <trkpt lat="61.33677" lon="17.03902">
        <ele>16.13984</ele>
        <time>2020-08-29T21:28:13.778Z</time>
      </trkpt>
      <trkpt lat="61.33632" lon="17.03995">
        <ele>15.354554</ele>
        <time>2020-08-29T21:28:23.407Z</time>
      </trkpt>
      <trkpt lat="61.33609" lon="17.04063">
        <ele>14.842518</ele>
        <time>2020-08-29T21:28:29.280Z</time>
      </trkpt>
      <trkpt lat="61.33594" lon="17.04076">
        <ele>14.63254</ele>
        <time>2020-08-29T21:28:31.657Z</time>
      </trkpt>
      <trkpt lat="61.33564" lon="17.04155">
        <ele>14.005428</ele>
        <time>2020-08-29T21:28:38.876Z</time>
      </trkpt>
      <trkpt lat="61.33508" lon="17.04269">
        <ele>13.04888</ele>
        <time>2020-08-29T21:28:50.775Z</time>
      </trkpt>
      <trkpt lat="61.33461" lon="17.0434">
        <ele>12.360149</ele>
        <time>2020-08-29T21:28:59.481Z</time>
      </trkpt>
      <trkpt lat="61.33328" lon="17.0452">
        <ele>11.039633</ele>
        <time>2020-08-29T21:29:24.140Z</time>
      </trkpt>
      <trkpt lat="61.33319" lon="17.04532">
        <ele>10.977339</ele>
        <time>2020-08-29T21:29:25.839Z</time>
      </trkpt>
      <trkpt lat="61.333" lon="17.04557">
        <ele>10.844359</ele>
        <time>2020-08-29T21:29:29.488Z</time>
      </trkpt>
      <trkpt lat="61.3329" lon="17.04587">
        <ele>10.737995</ele>
        <time>2020-08-29T21:29:32.451Z</time>
      </trkpt>
      <trkpt lat="61.33278" lon="17.04603">
        <ele>10.651997</ele>
        <time>2020-08-29T21:29:34.877Z</time>
      </trkpt>
      <trkpt lat="61.33262" lon="17.04609">
        <ele>10.551618</ele>
        <time>2020-08-29T21:29:37.745Z</time>
      </trkpt>
      <trkpt lat="61.33132" lon="17.04784">
        <ele>10.617704</ele>
        <time>2020-08-29T21:30:06.250Z</time>
      </trkpt>
      <trkpt lat="61.33093" lon="17.04838">
        <ele>10.525642</ele>
        <time>2020-08-29T21:30:14.699Z</time>
      </trkpt>
      <trkpt lat="61.33059" lon="17.04892">
        <ele>10.279714</ele>
        <time>2020-08-29T21:30:21.938Z</time>
      </trkpt>
      <trkpt lat="61.33006" lon="17.05111">
        <ele>9.596295</ele>
        <time>2020-08-29T21:30:40.619Z</time>
      </trkpt>
      <trkpt lat="61.32988" lon="17.05185">
        <ele>9.211525</ele>
        <time>2020-08-29T21:30:46.737Z</time>
      </trkpt>
      <trkpt lat="61.32967" lon="17.0527">
        <ele>8.769367</ele>
        <time>2020-08-29T21:30:53.568Z</time>
      </trkpt>
      <trkpt lat="61.32941" lon="17.05355">
        <ele>8.293164</ele>
        <time>2020-08-29T21:31:01.101Z</time>
      </trkpt>
      <trkpt lat="61.32912" lon="17.05418">
        <ele>7.886393</ele>
        <time>2020-08-29T21:31:07.700Z</time>
      </trkpt>
      <trkpt lat="61.32851" lon="17.05522">
        <ele>7.392195</ele>
        <time>2020-08-29T21:31:20.336Z</time>
      </trkpt>
      <trkpt lat="61.32806" lon="17.05595">
        <ele>7.050279</ele>
        <time>2020-08-29T21:31:29.648Z</time>
      </trkpt>
      <trkpt lat="61.32792" lon="17.05618">
        <ele>6.939769</ele>
        <time>2020-08-29T21:31:32.678Z</time>
      </trkpt>
      <trkpt lat="61.32788" lon="17.05632">
        <ele>6.893844</ele>
        <time>2020-08-29T21:31:33.940Z</time>
      </trkpt>
      <trkpt lat="61.32777" lon="17.05651">
        <ele>6.807365</ele>
        <time>2020-08-29T21:31:36.287Z</time>
      </trkpt>
      <trkpt lat="61.32768" lon="17.05657">
        <ele>6.751124</ele>
        <time>2020-08-29T21:31:37.865Z</time>
      </trkpt>
      <trkpt lat="61.32724" lon="17.05728">
        <ele>6.637652</ele>
        <time>2020-08-29T21:31:47.161Z</time>
      </trkpt>
      <trkpt lat="61.32645" lon="17.05834">
        <ele>6.447629</ele>
        <time>2020-08-29T21:32:03.207Z</time>
      </trkpt>
      <trkpt lat="61.32634" lon="17.05846">
        <ele>6.421841</ele>
        <time>2020-08-29T21:32:05.417Z</time>
      </trkpt>
      <trkpt lat="61.32632" lon="17.05858">
        <ele>6.409053</ele>
        <time>2020-08-29T21:32:06.535Z</time>
      </trkpt>
      <trkpt lat="61.32609" lon="17.05883">
        <ele>6.444142</ele>
        <time>2020-08-29T21:32:11.444Z</time>
      </trkpt>
      <trkpt lat="61.32588" lon="17.05904">
        <ele>6.531855</ele>
        <time>2020-08-29T21:32:15.764Z</time>
      </trkpt>
      <trkpt lat="61.32577" lon="17.05929">
        <ele>6.596115</ele>
        <time>2020-08-29T21:32:18.982Z</time>
      </trkpt>
      <trkpt lat="61.3257" lon="17.05936">
        <ele>6.628172</ele>
        <time>2020-08-29T21:32:20.549Z</time>
      </trkpt>
      <trkpt lat="61.32566" lon="17.05921">
        <ele>6.659956</ele>
        <time>2020-08-29T21:32:22.230Z</time>
      </trkpt>
      <trkpt lat="61.32533" lon="17.0596">
        <ele>6.809537</ele>
        <time>2020-08-29T21:32:29.701Z</time>
      </trkpt>
      <trkpt lat="61.32505" lon="17.05988">
        <ele>6.931654</ele>
        <time>2020-08-29T21:32:35.739Z</time>
      </trkpt>
      <trkpt lat="61.32483" lon="17.0601">
        <ele>7.025435</ele>
        <time>2020-08-29T21:32:40.411Z</time>
      </trkpt>
      <trkpt lat="61.32462" lon="17.06027">
        <ele>7.087721</ele>
        <time>2020-08-29T21:32:44.808Z</time>
      </trkpt>
      <trkpt lat="61.32444" lon="17.06038">
        <ele>7.084809</ele>
        <time>2020-08-29T21:32:48.174Z</time>
      </trkpt>
      <trkpt lat="61.3244" lon="17.06041">
        <ele>7.08412</ele>
        <time>2020-08-29T21:32:48.984Z</time>
      </trkpt>
      <trkpt lat="61.32423" lon="17.06052">
        <ele>7.081122</ele>
        <time>2020-08-29T21:32:52.541Z</time>
      </trkpt>
      <trkpt lat="61.32409" lon="17.06061">
        <ele>7.07881</ele>
        <time>2020-08-29T21:32:55.201Z</time>
      </trkpt>
      <trkpt lat="61.32356" lon="17.06096">
        <ele>7.069917</ele>
        <time>2020-08-29T21:33:05.025Z</time>
      </trkpt>
      <trkpt lat="61.32325" lon="17.06117">
        <ele>7.064666</ele>
        <time>2020-08-29T21:33:10.639Z</time>
      </trkpt>
      <trkpt lat="61.32307" lon="17.06128">
        <ele>7.061692</ele>
        <time>2020-08-29T21:33:13.781Z</time>
      </trkpt>
      <trkpt lat="61.32273" lon="17.06152">
        <ele>6.979641</ele>
        <time>2020-08-29T21:33:19.701Z</time>
      </trkpt>
      <trkpt lat="61.32258" lon="17.06162">
        <ele>6.927594</ele>
        <time>2020-08-29T21:33:22.324Z</time>
      </trkpt>
      <trkpt lat="61.32229" lon="17.06182">
        <ele>6.829299</ele>
        <time>2020-08-29T21:33:27.312Z</time>
      </trkpt>
      <trkpt lat="61.3223" lon="17.06191">
        <ele>6.815022</ele>
        <time>2020-08-29T21:33:28.068Z</time>
      </trkpt>
      <trkpt lat="61.3219" lon="17.06217">
        <ele>6.680084</ele>
        <time>2020-08-29T21:33:35.030Z</time>
      </trkpt>
      <trkpt lat="61.32178" lon="17.06225">
        <ele>6.63916</ele>
        <time>2020-08-29T21:33:37.173Z</time>
      </trkpt>
      <trkpt lat="61.32176" lon="17.06226">
        <ele>6.631326</ele>
        <time>2020-08-29T21:33:37.591Z</time>
      </trkpt>
      <trkpt lat="61.32161" lon="17.06235">
        <ele>6.582087</ele>
        <time>2020-08-29T21:33:40.181Z</time>
      </trkpt>
      <trkpt lat="61.32123" lon="17.06262">
        <ele>6.514087</ele>
        <time>2020-08-29T21:33:47.240Z</time>
      </trkpt>
      <trkpt lat="61.32077" lon="17.06293">
        <ele>6.724319</ele>
        <time>2020-08-29T21:33:56.090Z</time>
      </trkpt>
      <trkpt lat="61.32042" lon="17.06314">
        <ele>6.88212</ele>
        <time>2020-08-29T21:34:02.996Z</time>
      </trkpt>
      <trkpt lat="61.31981" lon="17.06333">
        <ele>7.1532</ele>
        <time>2020-08-29T21:34:15.342Z</time>
      </trkpt>
      <trkpt lat="61.31905" lon="17.06313">
        <ele>7.791038</ele>
        <time>2020-08-29T21:34:31.236Z</time>
      </trkpt>
      <trkpt lat="61.31845" lon="17.0628">
        <ele>8.420867</ele>
        <time>2020-08-29T21:34:44.292Z</time>
      </trkpt>
      <trkpt lat="61.31834" lon="17.06275">
        <ele>8.536045</ele>
        <time>2020-08-29T21:34:46.684Z</time>
      </trkpt>
      <trkpt lat="61.31817" lon="17.06264">
        <ele>8.717111</ele>
        <time>2020-08-29T21:34:50.474Z</time>
      </trkpt>
      <trkpt lat="61.31794" lon="17.06248">
        <ele>8.969921</ele>
        <time>2020-08-29T21:34:55.784Z</time>
      </trkpt>
      <trkpt lat="61.31772" lon="17.06232">
        <ele>9.229414</ele>
        <time>2020-08-29T21:35:00.821Z</time>
      </trkpt>
      <trkpt lat="61.31638" lon="17.06114">
        <ele>11.003385</ele>
        <time>2020-08-29T21:35:32.499Z</time>
      </trkpt>
      <trkpt lat="61.31579" lon="17.0605">
        <ele>11.833742</ele>
        <time>2020-08-29T21:35:46.990Z</time>
      </trkpt>
      <trkpt lat="61.31462" lon="17.05843">
        <ele>13.58498</ele>
        <time>2020-08-29T21:36:20.853Z</time>
      </trkpt>
      <trkpt lat="61.31448" lon="17.05813">
        <ele>13.594261</ele>
        <time>2020-08-29T21:36:25.100Z</time>
      </trkpt>
      <trkpt lat="61.31431" lon="17.05781">
        <ele>13.604682</ele>
        <time>2020-08-29T21:36:29.608Z</time>
      </trkpt>
      <trkpt lat="61.31416" lon="17.05754">
        <ele>13.613788</ele>
        <time>2020-08-29T21:36:33.314Z</time>
      </trkpt>
      <trkpt lat="61.314" lon="17.05732">
        <ele>13.622962</ele>
        <time>2020-08-29T21:36:37.118Z</time>
      </trkpt>
      <trkpt lat="61.31375" lon="17.05715">
        <ele>13.634995</ele>
        <time>2020-08-29T21:36:41.408Z</time>
      </trkpt>
      <trkpt lat="61.3134" lon="17.05705">
        <ele>13.650966</ele>
        <time>2020-08-29T21:36:47.017Z</time>
      </trkpt>
      <trkpt lat="61.31294" lon="17.05727">
        <ele>13.225836</ele>
        <time>2020-08-29T21:36:54.417Z</time>
      </trkpt>
      <trkpt lat="61.31255" lon="17.05783">
        <ele>12.456507</ele>
        <time>2020-08-29T21:37:01.381Z</time>
      </trkpt>
      <trkpt lat="61.31246" lon="17.05799">
        <ele>12.262328</ele>
        <time>2020-08-29T21:37:03.052Z</time>
      </trkpt>
      <trkpt lat="61.31208" lon="17.05869">
        <ele>11.447225</ele>
        <time>2020-08-29T21:37:10.316Z</time>
      </trkpt>
      <trkpt lat="61.31183" lon="17.05906">
        <ele>10.946896</ele>
        <time>2020-08-29T21:37:14.685Z</time>
      </trkpt>
      <trkpt lat="61.31139" lon="17.05969">
        <ele>9.92537</ele>
        <time>2020-08-29T21:37:22.143Z</time>
      </trkpt>
      <trkpt lat="61.31135" lon="17.05975">
        <ele>9.835205</ele>
        <time>2020-08-29T21:37:22.732Z</time>
      </trkpt>
      <trkpt lat="61.31116" lon="17.05999">
        <ele>9.389491</ele>
        <time>2020-08-29T21:37:25.956Z</time>
      </trkpt>
      <trkpt lat="61.3109" lon="17.06025">
        <ele>8.799014</ele>
        <time>2020-08-29T21:37:30.120Z</time>
      </trkpt>
      <trkpt lat="61.31066" lon="17.06041">
        <ele>8.301957</ele>
        <time>2020-08-29T21:37:33.566Z</time>
      </trkpt>
      <trkpt lat="61.3101" lon="17.06061">
        <ele>7.156926</ele>
        <time>2020-08-29T21:37:41.695Z</time>
      </trkpt>
      <trkpt lat="61.31008" lon="17.06061">
        <ele>7.111552</ele>
        <time>2020-08-29T21:37:41.984Z</time>
      </trkpt>
      <trkpt lat="61.31" lon="17.06061">
        <ele>6.966804</ele>
        <time>2020-08-29T21:37:42.977Z</time>
      </trkpt>
      <trkpt lat="61.30987" lon="17.0606">
        <ele>6.698751</ele>
        <time>2020-08-29T21:37:44.973Z</time>
      </trkpt>
      <trkpt lat="61.30948" lon="17.06055">
        <ele>5.950319</ele>
        <time>2020-08-29T21:37:50.312Z</time>
      </trkpt>
      <trkpt lat="61.30874" lon="17.06037">
        <ele>4.480223</ele>
        <time>2020-08-29T21:38:00.915Z</time>
      </trkpt>
      <trkpt lat="61.30824" lon="17.06032">
        <ele>3.549824</ele>
        <time>2020-08-29T21:38:07.944Z</time>
      </trkpt>
      <trkpt lat="61.308" lon="17.06046">
        <ele>3.231167</ele>
        <time>2020-08-29T21:38:11.535Z</time>
      </trkpt>
      <trkpt lat="61.30736" lon="17.06129">
        <ele>2.260456</ele>
        <time>2020-08-29T21:38:22.876Z</time>
      </trkpt>
      <trkpt lat="61.30717" lon="17.06157">
        <ele>1.959929</ele>
        <time>2020-08-29T21:38:26.450Z</time>
      </trkpt>
      <trkpt lat="61.30628" lon="17.0629">
        <ele>1.356127</ele>
        <time>2020-08-29T21:38:43.630Z</time>
      </trkpt>
      <trkpt lat="61.30619" lon="17.06304">
        <ele>1.363463</ele>
        <time>2020-08-29T21:38:45.555Z</time>
      </trkpt>
      <trkpt lat="61.30541" lon="17.06418">
        <ele>1.423064</ele>
        <time>2020-08-29T21:39:03.030Z</time>
      </trkpt>
      <trkpt lat="61.30512" lon="17.0646">
        <ele>1.860185</ele>
        <time>2020-08-29T21:39:11.246Z</time>
      </trkpt>
      <trkpt lat="61.30474" lon="17.06517">
        <ele>2.823303</ele>
        <time>2020-08-29T21:39:22.974Z</time>
      </trkpt>
      <trkpt lat="61.30454" lon="17.06546">
        <ele>3.307082</ele>
        <time>2020-08-29T21:39:28.780Z</time>
      </trkpt>
      <trkpt lat="61.30443" lon="17.06561">
        <ele>3.578705</ele>
        <time>2020-08-29T21:39:32.242Z</time>
      </trkpt>
      <trkpt lat="61.30414" lon="17.06601">
        <ele>4.28149</ele>
        <time>2020-08-29T21:39:40.859Z</time>
      </trkpt>
      <trkpt lat="61.30409" lon="17.06608">
        <ele>4.408989</ele>
        <time>2020-08-29T21:39:42.431Z</time>
      </trkpt>
      <trkpt lat="61.30381" lon="17.0664">
        <ele>5.053412</ele>
        <time>2020-08-29T21:39:50.944Z</time>
      </trkpt>
      <trkpt lat="61.30398" lon="17.06704">
        <ele>5.705653</ele>
        <time>2020-08-29T21:40:00.741Z</time>
      </trkpt>
      <trkpt lat="61.30434" lon="17.06842">
        <ele>7.105185</ele>
        <time>2020-08-29T21:40:21.317Z</time>
      </trkpt>
      <trkpt lat="61.30436" lon="17.0685">
        <ele>7.187948</ele>
        <time>2020-08-29T21:40:22.348Z</time>
      </trkpt>
      <trkpt lat="61.30446" lon="17.0689">
        <ele>7.591211</ele>
        <time>2020-08-29T21:40:27.819Z</time>
      </trkpt>
      <trkpt lat="61.30451" lon="17.0691">
        <ele>7.786424</ele>
        <time>2020-08-29T21:40:30.254Z</time>
      </trkpt>
      <trkpt lat="61.30456" lon="17.06928">
        <ele>7.974393</ele>
        <time>2020-08-29T21:40:32.453Z</time>
      </trkpt>
      <trkpt lat="61.30553" lon="17.07276">
        <ele>9.764481</ele>
        <time>2020-08-29T21:41:15.459Z</time>
      </trkpt>
      <trkpt lat="61.30605" lon="17.07468">
        <ele>10.441657</ele>
        <time>2020-08-29T21:41:38.801Z</time>
      </trkpt>
      <trkpt lat="61.30622" lon="17.07529">
        <ele>10.65035</ele>
        <time>2020-08-29T21:41:46.093Z</time>
      </trkpt>
      <trkpt lat="61.30647" lon="17.07635">
        <ele>11.009577</ele>
        <time>2020-08-29T21:41:57.209Z</time>
      </trkpt>
      <trkpt lat="61.30661" lon="17.07715">
        <ele>11.28942</ele>
        <time>2020-08-29T21:42:05.229Z</time>
      </trkpt>
      <trkpt lat="61.30675" lon="17.07836">
        <ele>11.699084</ele>
        <time>2020-08-29T21:42:17.225Z</time>
      </trkpt>
      <trkpt lat="61.30689" lon="17.07958">
        <ele>12.111156</ele>
        <time>2020-08-29T21:42:29.307Z</time>
      </trkpt>
      <trkpt lat="61.30686" lon="17.08043">
        <ele>12.593587</ele>
        <time>2020-08-29T21:42:37.678Z</time>
      </trkpt>
      <trkpt lat="61.30669" lon="17.08129">
        <ele>13.221877</ele>
        <time>2020-08-29T21:42:47.449Z</time>
      </trkpt>
      <trkpt lat="61.30653" lon="17.08177">
        <ele>13.624293</ele>
        <time>2020-08-29T21:42:54.024Z</time>
      </trkpt>
      <trkpt lat="61.30616" lon="17.08272">
        <ele>14.452776</ele>
        <time>2020-08-29T21:43:07.856Z</time>
      </trkpt>
      <trkpt lat="61.30598" lon="17.08297">
        <ele>14.761964</ele>
        <time>2020-08-29T21:43:12.716Z</time>
      </trkpt>
      <trkpt lat="61.30591" lon="17.08297">
        <ele>14.861597</ele>
        <time>2020-08-29T21:43:14.542Z</time>
      </trkpt>
      <trkpt lat="61.30579" lon="17.08294">
        <ele>15.044319</ele>
        <time>2020-08-29T21:43:17.129Z</time>
      </trkpt>
      <trkpt lat="61.30573" lon="17.08318">
        <ele>15.243301</ele>
        <time>2020-08-29T21:43:20.109Z</time>
      </trkpt>
      <trkpt lat="61.3057" lon="17.08339">
        <ele>15.405753</ele>
        <time>2020-08-29T21:43:22.998Z</time>
      </trkpt>
      <trkpt lat="61.30569" lon="17.08384">
        <ele>15.729442</ele>
        <time>2020-08-29T21:43:27.781Z</time>
      </trkpt>
      <trkpt lat="61.30612" lon="17.0856">
        <ele>17.16092</ele>
        <time>2020-08-29T21:43:50.345Z</time>
      </trkpt>
      <trkpt lat="61.30673" lon="17.08869">
        <ele>18.965042</ele>
        <time>2020-08-29T21:44:25.942Z</time>
      </trkpt>
      <trkpt lat="61.30684" lon="17.08925">
        <ele>19.27579</ele>
        <time>2020-08-29T21:44:32.127Z</time>
      </trkpt>
      <trkpt lat="61.30696" lon="17.09022">
        <ele>19.51428</ele>
        <time>2020-08-29T21:44:42.118Z</time>
      </trkpt>
      <trkpt lat="61.30706" lon="17.09119">
        <ele>19.677262</ele>
        <time>2020-08-29T21:44:51.768Z</time>
      </trkpt>
      <trkpt lat="61.30716" lon="17.09501">
        <ele>19.842208</ele>
        <time>2020-08-29T21:45:26.132Z</time>
      </trkpt>
      <trkpt lat="61.30712" lon="17.0973">
        <ele>19.487624</ele>
        <time>2020-08-29T21:45:45.713Z</time>
      </trkpt>
      <trkpt lat="61.30699" lon="17.09993">
        <ele>18.225262</ele>
        <time>2020-08-29T21:46:06.903Z</time>
      </trkpt>
      <trkpt lat="61.30671" lon="17.10309">
        <ele>15.186142</ele>
        <time>2020-08-29T21:46:29.603Z</time>
      </trkpt>
      <trkpt lat="61.30658" lon="17.10443">
        <ele>13.73631</ele>
        <time>2020-08-29T21:46:38.760Z</time>
      </trkpt>
      <trkpt lat="61.30645" lon="17.10587">
        <ele>12.382385</ele>
        <time>2020-08-29T21:46:48.795Z</time>
      </trkpt>
      <trkpt lat="61.3063" lon="17.10692">
        <ele>11.363786</ele>
        <time>2020-08-29T21:46:56.641Z</time>
      </trkpt>
      <trkpt lat="61.3061" lon="17.10754">
        <ele>10.676724</ele>
        <time>2020-08-29T21:47:02.152Z</time>
      </trkpt>
      <trkpt lat="61.3054" lon="17.109">
        <ele>10.121343</ele>
        <time>2020-08-29T21:47:19.279Z</time>
      </trkpt>
      <trkpt lat="61.30543" lon="17.10905">
        <ele>10.107613</ele>
        <time>2020-08-29T21:47:19.988Z</time>
      </trkpt>
      <trkpt lat="61.30496" lon="17.11006">
        <ele>9.886587</ele>
        <time>2020-08-29T21:47:32.226Z</time>
      </trkpt>
      <trkpt lat="61.30429" lon="17.11152">
        <ele>9.751807</ele>
        <time>2020-08-29T21:47:49.103Z</time>
      </trkpt>
      <trkpt lat="61.30394" lon="17.11232">
        <ele>9.712188</ele>
        <time>2020-08-29T21:47:57.999Z</time>
      </trkpt>
      <trkpt lat="61.30352" lon="17.11319">
        <ele>9.737614</ele>
        <time>2020-08-29T21:48:08.443Z</time>
      </trkpt>
      <trkpt lat="61.30313" lon="17.11409">
        <ele>10.598086</ele>
        <time>2020-08-29T21:48:19.177Z</time>
      </trkpt>
      <trkpt lat="61.30273" lon="17.11493">
        <ele>11.43174</ele>
        <time>2020-08-29T21:48:32.238Z</time>
      </trkpt>
      <trkpt lat="61.30242" lon="17.11558">
        <ele>12.080945</ele>
        <time>2020-08-29T21:48:43.517Z</time>
      </trkpt>
      <trkpt lat="61.30215" lon="17.11596">
        <ele>12.807745</ele>
        <time>2020-08-29T21:48:52.784Z</time>
      </trkpt>
      <trkpt lat="61.30199" lon="17.11604">
        <ele>13.289011</ele>
        <time>2020-08-29T21:48:56.845Z</time>
      </trkpt>
      <trkpt lat="61.30187" lon="17.11603">
        <ele>13.645</ele>
        <time>2020-08-29T21:49:01.282Z</time>
      </trkpt>
      <trkpt lat="61.30161" lon="17.11595">
        <ele>14.392802</ele>
        <time>2020-08-29T21:49:07.809Z</time>
      </trkpt>
      <trkpt lat="61.30134" lon="17.11562">
        <ele>15.309288</ele>
        <time>2020-08-29T21:49:16.424Z</time>
      </trkpt>
      <trkpt lat="61.30119" lon="17.11542">
        <ele>15.827359</ele>
        <time>2020-08-29T21:49:22.273Z</time>
      </trkpt>
      <trkpt lat="61.30097" lon="17.11506">
        <ele>16.651676</ele>
        <time>2020-08-29T21:49:29.638Z</time>
      </trkpt>
      <trkpt lat="61.30074" lon="17.11475">
        <ele>17.434605</ele>
        <time>2020-08-29T21:49:36.267Z</time>
      </trkpt>
      <trkpt lat="61.30059" lon="17.11459">
        <ele>17.788506</ele>
        <time>2020-08-29T21:49:41.815Z</time>
      </trkpt>
      <trkpt lat="61.30034" lon="17.11441">
        <ele>18.247938</ele>
        <time>2020-08-29T21:49:47.748Z</time>
      </trkpt>
      <trkpt lat="61.30014" lon="17.11431">
        <ele>18.609993</ele>
        <time>2020-08-29T21:49:52.455Z</time>
      </trkpt>
      <trkpt lat="61.29997" lon="17.11425">
        <ele>18.91434</ele>
        <time>2020-08-29T21:49:56.658Z</time>
      </trkpt>
      <trkpt lat="61.29985" lon="17.11422">
        <ele>19.128827</ele>
        <time>2020-08-29T21:49:59.616Z</time>
      </trkpt>
      <trkpt lat="61.29969" lon="17.1142">
        <ele>19.410077</ele>
        <time>2020-08-29T21:50:02.981Z</time>
      </trkpt>
      <trkpt lat="61.29946" lon="17.11428">
        <ele>19.803843</ele>
        <time>2020-08-29T21:50:07.944Z</time>
      </trkpt>
      <trkpt lat="61.29924" lon="17.11439">
        <ele>20.210576</ele>
        <time>2020-08-29T21:50:13.095Z</time>
      </trkpt>
      <trkpt lat="61.29859" lon="17.11476">
        <ele>21.131658</ele>
        <time>2020-08-29T21:50:27.978Z</time>
      </trkpt>
      <trkpt lat="61.29837" lon="17.11488">
        <ele>21.385219</ele>
        <time>2020-08-29T21:50:33.260Z</time>
      </trkpt>
      <trkpt lat="61.29817" lon="17.11501">
        <ele>21.616268</ele>
        <time>2020-08-29T21:50:38.017Z</time>
      </trkpt>
      <trkpt lat="61.29794" lon="17.11522">
        <ele>21.883795</ele>
        <time>2020-08-29T21:50:43.336Z</time>
      </trkpt>
      <trkpt lat="61.29776" lon="17.11542">
        <ele>22.109894</ele>
        <time>2020-08-29T21:50:47.854Z</time>
      </trkpt>
      <trkpt lat="61.2975" lon="17.11574">
        <ele>22.439108</ele>
        <time>2020-08-29T21:50:54.132Z</time>
      </trkpt>
      <trkpt lat="61.29724" lon="17.11614">
        <ele>22.60993</ele>
        <time>2020-08-29T21:51:00.683Z</time>
      </trkpt>
      <trkpt lat="61.29705" lon="17.11649">
        <ele>22.430183</ele>
        <time>2020-08-29T21:51:05.614Z</time>
      </trkpt>
      <trkpt lat="61.29616" lon="17.11828">
        <ele>21.554189</ele>
        <time>2020-08-29T21:51:24.721Z</time>
      </trkpt>
      <trkpt lat="61.29585" lon="17.11881">
        <ele>21.264225</ele>
        <time>2020-08-29T21:51:30.600Z</time>
      </trkpt>
      <trkpt lat="61.29549" lon="17.1193">
        <ele>20.958672</ele>
        <time>2020-08-29T21:51:36.891Z</time>
      </trkpt>
      <trkpt lat="61.29493" lon="17.11992">
        <ele>20.503374</ele>
        <time>2020-08-29T21:51:46.835Z</time>
      </trkpt>
      <trkpt lat="61.29305" lon="17.12207">
        <ele>20.620793</ele>
        <time>2020-08-29T21:52:27.267Z</time>
      </trkpt>
      <trkpt lat="61.29286" lon="17.12229">
        <ele>20.656165</ele>
        <time>2020-08-29T21:52:31.616Z</time>
      </trkpt>
      <trkpt lat="61.29259" lon="17.12259">
        <ele>20.380001</ele>
        <time>2020-08-29T21:52:37.700Z</time>
      </trkpt>
      <trkpt lat="61.29234" lon="17.12307">
        <ele>20.071193</ele>
        <time>2020-08-29T21:52:43.695Z</time>
      </trkpt>
      <trkpt lat="61.29219" lon="17.12357">
        <ele>19.813792</ele>
        <time>2020-08-29T21:52:48.272Z</time>
      </trkpt>
      <trkpt lat="61.29211" lon="17.12404">
        <ele>19.599143</ele>
        <time>2020-08-29T21:52:51.960Z</time>
      </trkpt>
      <trkpt lat="61.29203" lon="17.12475">
        <ele>19.281778</ele>
        <time>2020-08-29T21:52:57.269Z</time>
      </trkpt>
      <trkpt lat="61.29199" lon="17.12518">
        <ele>19.089381</ele>
        <time>2020-08-29T21:53:00.225Z</time>
      </trkpt>
      <trkpt lat="61.29186" lon="17.12622">
        <ele>17.356025</ele>
        <time>2020-08-29T21:53:06.821Z</time>
      </trkpt>
      <trkpt lat="61.29178" lon="17.12696">
        <ele>16.048949</ele>
        <time>2020-08-29T21:53:11.453Z</time>
      </trkpt>
      <trkpt lat="61.29161" lon="17.12788">
        <ele>14.324981</ele>
        <time>2020-08-29T21:53:17.548Z</time>
      </trkpt>
      <trkpt lat="61.29153" lon="17.12821">
        <ele>13.690677</ele>
        <time>2020-08-29T21:53:19.666Z</time>
      </trkpt>
      <trkpt lat="61.29136" lon="17.12874">
        <ele>12.591117</ele>
        <time>2020-08-29T21:53:23.459Z</time>
      </trkpt>
      <trkpt lat="61.29105" lon="17.12952">
        <ele>11.384637</ele>
        <time>2020-08-29T21:53:29.778Z</time>
      </trkpt>
      <trkpt lat="61.29049" lon="17.13029">
        <ele>9.733055</ele>
        <time>2020-08-29T21:53:38.660Z</time>
      </trkpt>
      <trkpt lat="61.29027" lon="17.13056">
        <ele>9.115262</ele>
        <time>2020-08-29T21:53:42.270Z</time>
      </trkpt>
      <trkpt lat="61.28987" lon="17.13104">
        <ele>8.093358</ele>
        <time>2020-08-29T21:53:49.722Z</time>
      </trkpt>
      <trkpt lat="61.28905" lon="17.13198">
        <ele>7.476144</ele>
        <time>2020-08-29T21:54:05.060Z</time>
      </trkpt>
      <trkpt lat="61.28804" lon="17.13295">
        <ele>6.783041</ele>
        <time>2020-08-29T21:54:23.197Z</time>
      </trkpt>
      <trkpt lat="61.28789" lon="17.13314">
        <ele>6.686876</ele>
        <time>2020-08-29T21:54:25.985Z</time>
      </trkpt>
      <trkpt lat="61.28771" lon="17.13337">
        <ele>6.573956</ele>
        <time>2020-08-29T21:54:29.258Z</time>
      </trkpt>
      <trkpt lat="61.28576" lon="17.13666">
        <ele>5.737539</ele>
        <time>2020-08-29T21:55:10.694Z</time>
      </trkpt>
      <trkpt lat="61.28548" lon="17.13722">
        <ele>5.680473</ele>
        <time>2020-08-29T21:55:18.339Z</time>
      </trkpt>
      <trkpt lat="61.28475" lon="17.13926">
        <ele>6.776367</ele>
        <time>2020-08-29T21:55:44.050Z</time>
      </trkpt>
      <trkpt lat="61.28382" lon="17.14235">
        <ele>8.070375</ele>
        <time>2020-08-29T21:56:20.943Z</time>
      </trkpt>
      <trkpt lat="61.28361" lon="17.14283">
        <ele>8.276576</ele>
        <time>2020-08-29T21:56:26.931Z</time>
      </trkpt>
      <trkpt lat="61.28315" lon="17.14328">
        <ele>8.358469</ele>
        <time>2020-08-29T21:56:36.199Z</time>
      </trkpt>
      <trkpt lat="61.28226" lon="17.14375">
        <ele>7.820118</ele>
        <time>2020-08-29T21:56:50.974Z</time>
      </trkpt>
      <trkpt lat="61.28206" lon="17.14386">
        <ele>7.699574</ele>
        <time>2020-08-29T21:56:54.248Z</time>
      </trkpt>
      <trkpt lat="61.2819" lon="17.144">
        <ele>7.597291</ele>
        <time>2020-08-29T21:56:56.818Z</time>
      </trkpt>
      <trkpt lat="61.28143" lon="17.1445">
        <ele>7.298372</ele>
        <time>2020-08-29T21:57:05.107Z</time>
      </trkpt>
      <trkpt lat="61.28063" lon="17.14585">
        <ele>6.757462</ele>
        <time>2020-08-29T21:57:21.150Z</time>
      </trkpt>
      <trkpt lat="61.27879" lon="17.14817">
        <ele>7.346098</ele>
        <time>2020-08-29T21:58:02.547Z</time>
      </trkpt>
      <trkpt lat="61.27845" lon="17.14865">
        <ele>7.688423</ele>
        <time>2020-08-29T21:58:11.491Z</time>
      </trkpt>
      <trkpt lat="61.27827" lon="17.1489">
        <ele>7.920415</ele>
        <time>2020-08-29T21:58:16.294Z</time>
      </trkpt>
      <trkpt lat="61.2778" lon="17.14938">
        <ele>8.476134</ele>
        <time>2020-08-29T21:58:27.557Z</time>
      </trkpt>
      <trkpt lat="61.27669" lon="17.15027">
        <ele>9.612507</ele>
        <time>2020-08-29T21:58:52.841Z</time>
      </trkpt>
      <trkpt lat="61.27653" lon="17.1504">
        <ele>9.734084</ele>
        <time>2020-08-29T21:58:56.354Z</time>
      </trkpt>
      <trkpt lat="61.27621" lon="17.1506">
        <ele>9.955924</ele>
        <time>2020-08-29T21:59:02.766Z</time>
      </trkpt>
      <trkpt lat="61.27455" lon="17.15119">
        <ele>10.593961</ele>
        <time>2020-08-29T21:59:35.709Z</time>
      </trkpt>
      <trkpt lat="61.27422" lon="17.15137">
        <ele>10.592511</ele>
        <time>2020-08-29T21:59:41.770Z</time>
      </trkpt>
      <trkpt lat="61.27386" lon="17.15166">
        <ele>10.590822</ele>
        <time>2020-08-29T21:59:48.590Z</time>
      </trkpt>
      <trkpt lat="61.27162" lon="17.15363">
        <ele>8.490485</ele>
        <time>2020-08-29T22:00:26.415Z</time>
      </trkpt>
      <trkpt lat="61.2713" lon="17.15385">
        <ele>8.079427</ele>
        <time>2020-08-29T22:00:31.340Z</time>
      </trkpt>
      <trkpt lat="61.27106" lon="17.15391">
        <ele>7.781618</ele>
        <time>2020-08-29T22:00:34.904Z</time>
      </trkpt>
      <trkpt lat="61.27021" lon="17.15408">
        <ele>6.711161</ele>
        <time>2020-08-29T22:00:47.742Z</time>
      </trkpt>
      <trkpt lat="61.26923" lon="17.15397">
        <ele>5.875295</ele>
        <time>2020-08-29T22:01:02.915Z</time>
      </trkpt>
      <trkpt lat="61.26917" lon="17.15395">
        <ele>5.823591</ele>
        <time>2020-08-29T22:01:03.836Z</time>
      </trkpt>
      <trkpt lat="61.2688" lon="17.1538">
        <ele>5.514999</ele>
        <time>2020-08-29T22:01:09.819Z</time>
      </trkpt>
      <trkpt lat="61.2684" lon="17.15352">
        <ele>5.157542</ele>
        <time>2020-08-29T22:01:16.870Z</time>
      </trkpt>
      <trkpt lat="61.26813" lon="17.15332">
        <ele>5.059513</ele>
        <time>2020-08-29T22:01:21.512Z</time>
      </trkpt>
      <trkpt lat="61.26809" lon="17.15328">
        <ele>5.044134</ele>
        <time>2020-08-29T22:01:22.293Z</time>
      </trkpt>
      <trkpt lat="61.26702" lon="17.15237">
        <ele>4.666282</ele>
        <time>2020-08-29T22:01:41.896Z</time>
      </trkpt>
      <trkpt lat="61.2668" lon="17.15202">
        <ele>4.574771</ele>
        <time>2020-08-29T22:01:46.685Z</time>
      </trkpt>
      <trkpt lat="61.26674" lon="17.15193">
        <ele>4.554778</ele>
        <time>2020-08-29T22:01:47.958Z</time>
      </trkpt>
      <trkpt lat="61.26667" lon="17.15181">
        <ele>4.53971</ele>
        <time>2020-08-29T22:01:49.448Z</time>
      </trkpt>
      <trkpt lat="61.2664" lon="17.15147">
        <ele>4.484496</ele>
        <time>2020-08-29T22:01:55.016Z</time>
      </trkpt>
      <trkpt lat="61.26618" lon="17.15132">
        <ele>4.444912</ele>
        <time>2020-08-29T22:01:58.982Z</time>
      </trkpt>
      <trkpt lat="61.26551" lon="17.15098">
        <ele>4.325673</ele>
        <time>2020-08-29T22:02:10.878Z</time>
      </trkpt>
      <trkpt lat="61.26499" lon="17.15061">
        <ele>4.254887</ele>
        <time>2020-08-29T22:02:20.362Z</time>
      </trkpt>
      <trkpt lat="61.26414" lon="17.14971">
        <ele>4.313436</ele>
        <time>2020-08-29T22:02:37.273Z</time>
      </trkpt>
      <trkpt lat="61.26404" lon="17.14959">
        <ele>4.320693</ele>
        <time>2020-08-29T22:02:39.411Z</time>
      </trkpt>
      <trkpt lat="61.26365" lon="17.14917">
        <ele>4.347415</ele>
        <time>2020-08-29T22:02:47.331Z</time>
      </trkpt>
      <trkpt lat="61.2629" lon="17.14835">
        <ele>4.758045</ele>
        <time>2020-08-29T22:03:03.572Z</time>
      </trkpt>
      <trkpt lat="61.26235" lon="17.14787">
        <ele>5.120659</ele>
        <time>2020-08-29T22:03:15.466Z</time>
      </trkpt>
      <trkpt lat="61.26196" lon="17.14762">
        <ele>5.372849</ele>
        <time>2020-08-29T22:03:23.820Z</time>
      </trkpt>
      <trkpt lat="61.2616" lon="17.14743">
        <ele>5.684714</ele>
        <time>2020-08-29T22:03:31.413Z</time>
      </trkpt>
      <trkpt lat="61.26104" lon="17.14721">
        <ele>6.251256</ele>
        <time>2020-08-29T22:03:43.537Z</time>
      </trkpt>
      <trkpt lat="61.26053" lon="17.14732">
        <ele>6.75246</ele>
        <time>2020-08-29T22:03:54.291Z</time>
      </trkpt>
      <trkpt lat="61.26047" lon="17.14737">
        <ele>6.821952</ele>
        <time>2020-08-29T22:03:55.897Z</time>
      </trkpt>
      <trkpt lat="61.26038" lon="17.14744">
        <ele>6.91788</ele>
        <time>2020-08-29T22:03:57.923Z</time>
      </trkpt>
      <trkpt lat="61.26024" lon="17.14757">
        <ele>7.061931</ele>
        <time>2020-08-29T22:04:00.947Z</time>
      </trkpt>
      <trkpt lat="61.2601" lon="17.14773">
        <ele>7.219827</ele>
        <time>2020-08-29T22:04:04.433Z</time>
      </trkpt>
      <trkpt lat="61.25995" lon="17.14704">
        <ele>7.523616</ele>
        <time>2020-08-29T22:04:12.114Z</time>
      </trkpt>
      <trkpt lat="61.25991" lon="17.14686">
        <ele>7.602955</ele>
        <time>2020-08-29T22:04:14.054Z</time>
      </trkpt>
      <trkpt lat="61.2598" lon="17.14697">
        <ele>7.700884</ele>
        <time>2020-08-29T22:04:16.491Z</time>
      </trkpt>
      <trkpt lat="61.25945" lon="17.1472">
        <ele>8.009434</ele>
        <time>2020-08-29T22:04:24.246Z</time>
      </trkpt>
      <trkpt lat="61.25916" lon="17.14742">
        <ele>8.264724</ele>
        <time>2020-08-29T22:04:30.678Z</time>
      </trkpt>
      <trkpt lat="61.25883" lon="17.14759">
        <ele>8.542707</ele>
        <time>2020-08-29T22:04:37.432Z</time>
      </trkpt>
      <trkpt lat="61.25599" lon="17.14952">
        <ele>9.774181</ele>
        <time>2020-08-29T22:05:34.454Z</time>
      </trkpt>
      <trkpt lat="61.25487" lon="17.14994">
        <ele>10.068521</ele>
        <time>2020-08-29T22:05:55.508Z</time>
      </trkpt>
      <trkpt lat="61.25475" lon="17.14998">
        <ele>10.093502</ele>
        <time>2020-08-29T22:05:57.624Z</time>
      </trkpt>
      <trkpt lat="61.25462" lon="17.15001">
        <ele>10.120885</ele>
        <time>2020-08-29T22:05:59.956Z</time>
      </trkpt>
      <trkpt lat="61.24783" lon="17.15148">
        <ele>11.640707</ele>
        <time>2020-08-29T22:08:06.738Z</time>
      </trkpt>
      <trkpt lat="61.24739" lon="17.15171">
        <ele>11.76792</ele>
        <time>2020-08-29T22:08:15.193Z</time>
      </trkpt>
      <trkpt lat="61.24653" lon="17.15238">
        <ele>12.027521</ele>
        <time>2020-08-29T22:08:32.536Z</time>
      </trkpt>
      <trkpt lat="61.24636" lon="17.15259">
        <ele>12.082826</ele>
        <time>2020-08-29T22:08:36.115Z</time>
      </trkpt>
      <trkpt lat="61.24624" lon="17.15275">
        <ele>12.081655</ele>
        <time>2020-08-29T22:08:38.833Z</time>
      </trkpt>
      <trkpt lat="61.24588" lon="17.15325">
        <ele>12.05181</ele>
        <time>2020-08-29T22:08:46.648Z</time>
      </trkpt>
      <trkpt lat="61.2456" lon="17.15382">
        <ele>12.024362</ele>
        <time>2020-08-29T22:08:53.701Z</time>
      </trkpt>
      <trkpt lat="61.24415" lon="17.15722">
        <ele>11.669347</ele>
        <time>2020-08-29T22:09:31.040Z</time>
      </trkpt>
      <trkpt lat="61.24351" lon="17.15826">
        <ele>11.708038</ele>
        <time>2020-08-29T22:09:45.237Z</time>
      </trkpt>
      <trkpt lat="61.24316" lon="17.15874">
        <ele>11.876659</ele>
        <time>2020-08-29T22:09:52.676Z</time>
      </trkpt>
      <trkpt lat="61.24078" lon="17.16082">
        <ele>13.55246</ele>
        <time>2020-08-29T22:10:45.097Z</time>
      </trkpt>
      <trkpt lat="61.24034" lon="17.16133">
        <ele>13.957191</ele>
        <time>2020-08-29T22:10:55.672Z</time>
      </trkpt>
      <trkpt lat="61.23965" lon="17.1618">
        <ele>14.529174</ele>
        <time>2020-08-29T22:11:10.558Z</time>
      </trkpt>
      <trkpt lat="61.23857" lon="17.16231">
        <ele>15.354859</ele>
        <time>2020-08-29T22:11:32.758Z</time>
      </trkpt>
      <trkpt lat="61.2352" lon="17.16336">
        <ele>17.431555</ele>
        <time>2020-08-29T22:12:39.915Z</time>
      </trkpt>
      <trkpt lat="61.23432" lon="17.16345">
        <ele>18.089008</ele>
        <time>2020-08-29T22:12:57.866Z</time>
      </trkpt>
      <trkpt lat="61.23321" lon="17.16328">
        <ele>18.809186</ele>
        <time>2020-08-29T22:13:20.795Z</time>
      </trkpt>
      <trkpt lat="61.23264" lon="17.16319">
        <ele>19.022204</ele>
        <time>2020-08-29T22:13:32.004Z</time>
      </trkpt>
      <trkpt lat="61.23192" lon="17.16298">
        <ele>19.296973</ele>
        <time>2020-08-29T22:13:45.786Z</time>
      </trkpt>
      <trkpt lat="61.22956" lon="17.16225">
        <ele>17.980771</ele>
        <time>2020-08-29T22:14:25.110Z</time>
      </trkpt>
      <trkpt lat="61.22722" lon="17.16065">
        <ele>14.358783</ele>
        <time>2020-08-29T22:15:00.710Z</time>
      </trkpt>
      <trkpt lat="61.22694" lon="17.16045">
        <ele>13.878334</ele>
        <time>2020-08-29T22:15:05.025Z</time>
      </trkpt>
      <trkpt lat="61.22671" lon="17.16028">
        <ele>13.487466</ele>
        <time>2020-08-29T22:15:08.546Z</time>
      </trkpt>
      <trkpt lat="61.22576" lon="17.15954">
        <ele>12.314545</ele>
        <time>2020-08-29T22:15:23.750Z</time>
      </trkpt>
      <trkpt lat="61.22504" lon="17.15878">
        <ele>11.48</ele>
        <time>2020-08-29T22:15:36.518Z</time>
      </trkpt>
      <trkpt lat="61.22445" lon="17.15792">
        <ele>10.961061</ele>
        <time>2020-08-29T22:15:48.240Z</time>
      </trkpt>
      <trkpt lat="61.22279" lon="17.155">
        <ele>10.240936</ele>
        <time>2020-08-29T22:16:23.865Z</time>
      </trkpt>
      <trkpt lat="61.22223" lon="17.15382">
        <ele>10.275266</ele>
        <time>2020-08-29T22:16:38.930Z</time>
      </trkpt>
      <trkpt lat="61.22167" lon="17.15241">
        <ele>11.937675</ele>
        <time>2020-08-29T22:16:58.176Z</time>
      </trkpt>
      <trkpt lat="61.22117" lon="17.15074">
        <ele>13.9265</ele>
        <time>2020-08-29T22:17:23.364Z</time>
      </trkpt>
      <trkpt lat="61.22089" lon="17.1496">
        <ele>16.042819</ele>
        <time>2020-08-29T22:17:41.126Z</time>
      </trkpt>
      <trkpt lat="61.22077" lon="17.149">
        <ele>17.169707</ele>
        <time>2020-08-29T22:17:50.522Z</time>
      </trkpt>
      <trkpt lat="61.22067" lon="17.14851">
        <ele>18.084258</ele>
        <time>2020-08-29T22:17:58.261Z</time>
      </trkpt>
      <trkpt lat="61.22051" lon="17.14772">
        <ele>19.560648</ele>
        <time>2020-08-29T22:18:10.696Z</time>
      </trkpt>
      <trkpt lat="61.22001" lon="17.14439">
        <ele>25.075521</ele>
        <time>2020-08-29T22:18:59.826Z</time>
      </trkpt>
      <trkpt lat="61.21977" lon="17.14315">
        <ele>26.629815</ele>
        <time>2020-08-29T22:19:16.708Z</time>
      </trkpt>
      <trkpt lat="61.21903" lon="17.14052">
        <ele>28.32171</ele>
        <time>2020-08-29T22:19:48.292Z</time>
      </trkpt>
      <trkpt lat="61.21782" lon="17.1367">
        <ele>26.338951</ele>
        <time>2020-08-29T22:20:22.231Z</time>
      </trkpt>
      <trkpt lat="61.21776" lon="17.13654">
        <ele>26.187597</ele>
        <time>2020-08-29T22:20:23.531Z</time>
      </trkpt>
      <trkpt lat="61.21742" lon="17.13542">
        <ele>25.173932</ele>
        <time>2020-08-29T22:20:32.687Z</time>
      </trkpt>
      <trkpt lat="61.21704" lon="17.13419">
        <ele>24.057687</ele>
        <time>2020-08-29T22:20:42.830Z</time>
      </trkpt>
      <trkpt lat="61.2169" lon="17.13372">
        <ele>23.719097</ele>
        <time>2020-08-29T22:20:46.704Z</time>
      </trkpt>
      <trkpt lat="61.21683" lon="17.13352">
        <ele>23.575309</ele>
        <time>2020-08-29T22:20:48.444Z</time>
      </trkpt>
      <trkpt lat="61.21603" lon="17.13098">
        <ele>21.798194</ele>
        <time>2020-08-29T22:21:10.747Z</time>
      </trkpt>
      <trkpt lat="61.2158" lon="17.13024">
        <ele>21.396562</ele>
        <time>2020-08-29T22:21:17.438Z</time>
      </trkpt>
      <trkpt lat="61.21567" lon="17.12976">
        <ele>21.136905</ele>
        <time>2020-08-29T22:21:21.742Z</time>
      </trkpt>
      <trkpt lat="61.2154" lon="17.12848">
        <ele>20.498784</ele>
        <time>2020-08-29T22:21:32.237Z</time>
      </trkpt>
      <trkpt lat="61.21487" lon="17.12468">
        <ele>18.312166</ele>
        <time>2020-08-29T22:22:01.256Z</time>
      </trkpt>
      <trkpt lat="61.21478" lon="17.12398">
        <ele>17.890632</ele>
        <time>2020-08-29T22:22:06.500Z</time>
      </trkpt>
      <trkpt lat="61.21455" lon="17.12225">
        <ele>16.889674</ele>
        <time>2020-08-29T22:22:19.411Z</time>
      </trkpt>
      <trkpt lat="61.21447" lon="17.12161">
        <ele>16.518705</ele>
        <time>2020-08-29T22:22:24.269Z</time>
      </trkpt>
      <trkpt lat="61.21436" lon="17.12071">
        <ele>16.002644</ele>
        <time>2020-08-29T22:22:31.127Z</time>
      </trkpt>
      <trkpt lat="61.21423" lon="17.11975">
        <ele>15.658581</ele>
        <time>2020-08-29T22:22:38.760Z</time>
      </trkpt>
      <trkpt lat="61.21395" lon="17.11825">
        <ele>15.23862</ele>
        <time>2020-08-29T22:22:51.425Z</time>
      </trkpt>
      <trkpt lat="61.21372" lon="17.11752">
        <ele>15.014806</ele>
        <time>2020-08-29T22:22:58.437Z</time>
      </trkpt>
      <trkpt lat="61.21344" lon="17.11685">
        <ele>14.834746</ele>
        <time>2020-08-29T22:23:05.914Z</time>
      </trkpt>
      <trkpt lat="61.21333" lon="17.11665">
        <ele>14.804048</ele>
        <time>2020-08-29T22:23:08.293Z</time>
      </trkpt>
      <trkpt lat="61.21318" lon="17.11636">
        <ele>14.758496</ele>
        <time>2020-08-29T22:23:11.881Z</time>
      </trkpt>
      <trkpt lat="61.21277" lon="17.11564">
        <ele>14.639224</ele>
        <time>2020-08-29T22:23:21.234Z</time>
      </trkpt>
      <trkpt lat="61.21157" lon="17.1141">
        <ele>13.808178</ele>
        <time>2020-08-29T22:23:45.193Z</time>
      </trkpt>
      <trkpt lat="61.21091" lon="17.11353">
        <ele>13.088068</ele>
        <time>2020-08-29T22:23:56.265Z</time>
      </trkpt>
      <trkpt lat="61.21034" lon="17.11316">
        <ele>12.165263</ele>
        <time>2020-08-29T22:24:04.912Z</time>
      </trkpt>
      <trkpt lat="61.21002" lon="17.11301">
        <ele>11.265872</ele>
        <time>2020-08-29T22:24:09.405Z</time>
      </trkpt>
      <trkpt lat="61.20982" lon="17.11291">
        <ele>10.693614</ele>
        <time>2020-08-29T22:24:12.187Z</time>
      </trkpt>
      <trkpt lat="61.20956" lon="17.1128">
        <ele>9.962074</ele>
        <time>2020-08-29T22:24:15.723Z</time>
      </trkpt>
      <trkpt lat="61.2092" lon="17.11268">
        <ele>8.954563</ele>
        <time>2020-08-29T22:24:20.464Z</time>
      </trkpt>
      <trkpt lat="61.20884" lon="17.11262">
        <ele>7.944448</ele>
        <time>2020-08-29T22:24:25.166Z</time>
      </trkpt>
      <trkpt lat="61.20848" lon="17.11256">
        <ele>7.053478</ele>
        <time>2020-08-29T22:24:29.738Z</time>
      </trkpt>
      <trkpt lat="61.20801" lon="17.11256">
        <ele>5.912572</ele>
        <time>2020-08-29T22:24:35.877Z</time>
      </trkpt>
      <trkpt lat="61.20768" lon="17.1126">
        <ele>5.122952</ele>
        <time>2020-08-29T22:24:40.264Z</time>
      </trkpt>
      <trkpt lat="61.20714" lon="17.11264">
        <ele>3.800061</ele>
        <time>2020-08-29T22:24:48.030Z</time>
      </trkpt>
      <trkpt lat="61.20648" lon="17.1128">
        <ele>3.668888</ele>
        <time>2020-08-29T22:24:58.595Z</time>
      </trkpt>
      <trkpt lat="61.20616" lon="17.11293">
        <ele>3.889279</ele>
        <time>2020-08-29T22:25:05.213Z</time>
      </trkpt>
      <trkpt lat="61.2055" lon="17.11321">
        <ele>4.335279</ele>
        <time>2020-08-29T22:25:20.063Z</time>
      </trkpt>
      <trkpt lat="61.20534" lon="17.11328">
        <ele>4.441174</ele>
        <time>2020-08-29T22:25:23.930Z</time>
      </trkpt>
      <trkpt lat="61.20492" lon="17.11351">
        <ele>4.931595</ele>
        <time>2020-08-29T22:25:34.299Z</time>
      </trkpt>
      <trkpt lat="61.20415" lon="17.11396">
        <ele>6.065611</ele>
        <time>2020-08-29T22:25:53.180Z</time>
      </trkpt>
      <trkpt lat="61.20269" lon="17.11503">
        <ele>7.48876</ele>
        <time>2020-08-29T22:26:25.390Z</time>
      </trkpt>
      <trkpt lat="61.20086" lon="17.11675">
        <ele>8.21176</ele>
        <time>2020-08-29T22:27:02.102Z</time>
      </trkpt>
      <trkpt lat="61.20049" lon="17.11718">
        <ele>8.320341</ele>
        <time>2020-08-29T22:27:09.961Z</time>
      </trkpt>
      <trkpt lat="61.19987" lon="17.11791">
        <ele>8.620951</ele>
        <time>2020-08-29T22:27:23.562Z</time>
      </trkpt>
      <trkpt lat="61.19897" lon="17.11923">
        <ele>9.257134</ele>
        <time>2020-08-29T22:27:45.416Z</time>
      </trkpt>
      <trkpt lat="61.19782" lon="17.1213">
        <ele>10.343677</ele>
        <time>2020-08-29T22:28:15.875Z</time>
      </trkpt>
      <trkpt lat="61.19747" lon="17.12204">
        <ele>10.724643</ele>
        <time>2020-08-29T22:28:26.220Z</time>
      </trkpt>
      <trkpt lat="61.19634" lon="17.12479">
        <ele>11.978293</ele>
        <time>2020-08-29T22:29:02.137Z</time>
      </trkpt>
      <trkpt lat="61.19618" lon="17.12518">
        <ele>12.070207</ele>
        <time>2020-08-29T22:29:06.675Z</time>
      </trkpt>
      <trkpt lat="61.19602" lon="17.12558">
        <ele>12.009627</ele>
        <time>2020-08-29T22:29:11.369Z</time>
      </trkpt>
      <trkpt lat="61.19564" lon="17.12649">
        <ele>11.870489</ele>
        <time>2020-08-29T22:29:21.451Z</time>
      </trkpt>
      <trkpt lat="61.19532" lon="17.1272">
        <ele>11.758964</ele>
        <time>2020-08-29T22:29:29.308Z</time>
      </trkpt>
      <trkpt lat="61.19524" lon="17.12737">
        <ele>11.731104</ele>
        <time>2020-08-29T22:29:31.113Z</time>
      </trkpt>
      <trkpt lat="61.19455" lon="17.12867">
        <ele>11.239545</ele>
        <time>2020-08-29T22:29:45.835Z</time>
      </trkpt>
      <trkpt lat="61.19368" lon="17.13001">
        <ele>10.519553</ele>
        <time>2020-08-29T22:30:03.243Z</time>
      </trkpt>
      <trkpt lat="61.19314" lon="17.13095">
        <ele>10.432044</ele>
        <time>2020-08-29T22:30:15.095Z</time>
      </trkpt>
      <trkpt lat="61.18677" lon="17.14382">
        <ele>10.065122</ele>
        <time>2020-08-29T22:32:53.259Z</time>
      </trkpt>
      <trkpt lat="61.18647" lon="17.14435">
        <ele>10.104308</ele>
        <time>2020-08-29T22:33:00.297Z</time>
      </trkpt>
      <trkpt lat="61.18607" lon="17.14487">
        <ele>10.151735</ele>
        <time>2020-08-29T22:33:08.898Z</time>
      </trkpt>
      <trkpt lat="61.18549" lon="17.14518">
        <ele>10.325039</ele>
        <time>2020-08-29T22:33:19.859Z</time>
      </trkpt>
      <trkpt lat="61.18537" lon="17.14525">
        <ele>10.40997</ele>
        <time>2020-08-29T22:33:22.152Z</time>
      </trkpt>
      <trkpt lat="61.18497" lon="17.14542">
        <ele>10.696307</ele>
        <time>2020-08-29T22:33:30.134Z</time>
      </trkpt>
      <trkpt lat="61.18414" lon="17.1458">
        <ele>11.294746</ele>
        <time>2020-08-29T22:33:47.623Z</time>
      </trkpt>
      <trkpt lat="61.18352" lon="17.14606">
        <ele>12.00755</ele>
        <time>2020-08-29T22:34:01.328Z</time>
      </trkpt>
      <trkpt lat="61.17921" lon="17.14795">
        <ele>17.695193</ele>
        <time>2020-08-29T22:35:39.904Z</time>
      </trkpt>
      <trkpt lat="61.17844" lon="17.14864">
        <ele>18.298252</ele>
        <time>2020-08-29T22:35:56.419Z</time>
      </trkpt>
      <trkpt lat="61.17632" lon="17.15085">
        <ele>17.548051</ele>
        <time>2020-08-29T22:36:36.683Z</time>
      </trkpt>
      <trkpt lat="61.17608" lon="17.15111">
        <ele>17.352395</ele>
        <time>2020-08-29T22:36:40.971Z</time>
      </trkpt>
      <trkpt lat="61.1759" lon="17.15131">
        <ele>17.203856</ele>
        <time>2020-08-29T22:36:44.122Z</time>
      </trkpt>
      <trkpt lat="61.17485" lon="17.15238">
        <ele>16.045093</ele>
        <time>2020-08-29T22:37:01.721Z</time>
      </trkpt>
      <trkpt lat="61.17417" lon="17.15287">
        <ele>15.18418</ele>
        <time>2020-08-29T22:37:12.516Z</time>
      </trkpt>
      <trkpt lat="61.1714" lon="17.1541">
        <ele>12.424069</ele>
        <time>2020-08-29T22:37:56.280Z</time>
      </trkpt>
      <trkpt lat="61.1709" lon="17.15417">
        <ele>12.074384</ele>
        <time>2020-08-29T22:38:04.630Z</time>
      </trkpt>
      <trkpt lat="61.17045" lon="17.15403">
        <ele>11.765771</ele>
        <time>2020-08-29T22:38:12.048Z</time>
      </trkpt>
      <trkpt lat="61.17032" lon="17.15394">
        <ele>11.669585</ele>
        <time>2020-08-29T22:38:14.413Z</time>
      </trkpt>
      <trkpt lat="61.17025" lon="17.1539">
        <ele>11.617092</ele>
        <time>2020-08-29T22:38:15.689Z</time>
      </trkpt>
      <trkpt lat="61.16372" lon="17.14906">
        <ele>6.45876</ele>
        <time>2020-08-29T22:40:06.442Z</time>
      </trkpt>
      <trkpt lat="61.16297" lon="17.14868">
        <ele>5.637767</ele>
        <time>2020-08-29T22:40:18.128Z</time>
      </trkpt>
      <trkpt lat="61.16081" lon="17.1481">
        <ele>3.24044</ele>
        <time>2020-08-29T22:40:51.027Z</time>
      </trkpt>
      <trkpt lat="61.16036" lon="17.14798">
        <ele>2.800245</ele>
        <time>2020-08-29T22:40:58.185Z</time>
      </trkpt>
      <trkpt lat="61.15962" lon="17.14778">
        <ele>2.29602</ele>
        <time>2020-08-29T22:41:10.181Z</time>
      </trkpt>
      <trkpt lat="61.15806" lon="17.14735">
        <ele>1.956999</ele>
        <time>2020-08-29T22:41:37.391Z</time>
      </trkpt>
      <trkpt lat="61.15782" lon="17.14724">
        <ele>2.010028</ele>
        <time>2020-08-29T22:41:41.894Z</time>
      </trkpt>
      <trkpt lat="61.15766" lon="17.14717">
        <ele>2.04503</ele>
        <time>2020-08-29T22:41:44.909Z</time>
      </trkpt>
      <trkpt lat="61.15643" lon="17.14649">
        <ele>2.312653</ele>
        <time>2020-08-29T22:42:08.556Z</time>
      </trkpt>
      <trkpt lat="61.1557" lon="17.14635">
        <ele>2.684543</ele>
        <time>2020-08-29T22:42:23.126Z</time>
      </trkpt>
      <trkpt lat="61.15486" lon="17.14631">
        <ele>3.130888</ele>
        <time>2020-08-29T22:42:39.646Z</time>
      </trkpt>
      <trkpt lat="61.15473" lon="17.14634">
        <ele>3.201196</ele>
        <time>2020-08-29T22:42:42.351Z</time>
      </trkpt>
      <trkpt lat="61.15022" lon="17.14716">
        <ele>4.755832</ele>
        <time>2020-08-29T22:44:07.103Z</time>
      </trkpt>
      <trkpt lat="61.14887" lon="17.14742">
        <ele>5.720163</ele>
        <time>2020-08-29T22:44:34.814Z</time>
      </trkpt>
      <trkpt lat="61.14756" lon="17.14755">
        <ele>7.137797</ele>
        <time>2020-08-29T22:45:02.989Z</time>
      </trkpt>
      <trkpt lat="61.1466" lon="17.14723">
        <ele>8.317489</ele>
        <time>2020-08-29T22:45:24.121Z</time>
      </trkpt>
      <trkpt lat="61.14032" lon="17.14259">
        <ele>15.920279</ele>
        <time>2020-08-29T22:47:49.450Z</time>
      </trkpt>
      <trkpt lat="61.13812" lon="17.1415">
        <ele>14.633971</ele>
        <time>2020-08-29T22:48:25.298Z</time>
      </trkpt>
      <trkpt lat="61.13353" lon="17.1376">
        <ele>9.659649</ele>
        <time>2020-08-29T22:49:41.557Z</time>
      </trkpt>
      <trkpt lat="61.13231" lon="17.13642">
        <ele>8.701046</ele>
        <time>2020-08-29T22:50:03.287Z</time>
      </trkpt>
      <trkpt lat="61.13122" lon="17.1352">
        <ele>7.905185</ele>
        <time>2020-08-29T22:50:23.536Z</time>
      </trkpt>
      <trkpt lat="61.1306" lon="17.13451">
        <ele>7.468227</ele>
        <time>2020-08-29T22:50:34.790Z</time>
      </trkpt>
      <trkpt lat="61.12988" lon="17.13371">
        <ele>7.024818</ele>
        <time>2020-08-29T22:50:48.073Z</time>
      </trkpt>
      <trkpt lat="61.12707" lon="17.13065">
        <ele>6.041317</ele>
        <time>2020-08-29T22:51:41.014Z</time>
      </trkpt>
      <trkpt lat="61.12381" lon="17.1283">
        <ele>8.256417</ele>
        <time>2020-08-29T22:52:51.099Z</time>
      </trkpt>
      <trkpt lat="61.12317" lon="17.12808">
        <ele>8.659147</ele>
        <time>2020-08-29T22:53:04.285Z</time>
      </trkpt>
      <trkpt lat="61.11909" lon="17.12758">
        <ele>10.526902</ele>
        <time>2020-08-29T22:54:23.149Z</time>
      </trkpt>
      <trkpt lat="61.1181" lon="17.12716">
        <ele>10.578095</ele>
        <time>2020-08-29T22:54:41.332Z</time>
      </trkpt>
      <trkpt lat="61.11655" lon="17.12614">
        <ele>10.355715</ele>
        <time>2020-08-29T22:55:09.207Z</time>
      </trkpt>
      <trkpt lat="61.11632" lon="17.12604">
        <ele>10.322594</ele>
        <time>2020-08-29T22:55:13.221Z</time>
      </trkpt>
      <trkpt lat="61.11609" lon="17.12593">
        <ele>10.289596</ele>
        <time>2020-08-29T22:55:17.286Z</time>
      </trkpt>
      <trkpt lat="61.11352" lon="17.12485">
        <ele>10.156686</ele>
        <time>2020-08-29T22:56:03.545Z</time>
      </trkpt>
      <trkpt lat="61.11302" lon="17.12477">
        <ele>10.225385</ele>
        <time>2020-08-29T22:56:12.931Z</time>
      </trkpt>
      <trkpt lat="61.11243" lon="17.12492">
        <ele>10.317069</ele>
        <time>2020-08-29T22:56:23.864Z</time>
      </trkpt>
      <trkpt lat="61.11228" lon="17.12499">
        <ele>10.340173</ele>
        <time>2020-08-29T22:56:26.674Z</time>
      </trkpt>
      <trkpt lat="61.11206" lon="17.12509">
        <ele>10.375624</ele>
        <time>2020-08-29T22:56:30.911Z</time>
      </trkpt>
      <trkpt lat="61.10977" lon="17.12632">
        <ele>10.588657</ele>
        <time>2020-08-29T22:57:13.988Z</time>
      </trkpt>
      <trkpt lat="61.10822" lon="17.12715">
        <ele>10.292616</ele>
        <time>2020-08-29T22:57:41.394Z</time>
      </trkpt>
      <trkpt lat="61.10802" lon="17.12724">
        <ele>10.262203</ele>
        <time>2020-08-29T22:57:44.845Z</time>
      </trkpt>
      <trkpt lat="61.1078" lon="17.12734">
        <ele>10.229004</ele>
        <time>2020-08-29T22:57:48.718Z</time>
      </trkpt>
      <trkpt lat="61.10753" lon="17.12741">
        <ele>10.189289</ele>
        <time>2020-08-29T22:57:53.377Z</time>
      </trkpt>
      <trkpt lat="61.10739" lon="17.12742">
        <ele>10.168412</ele>
        <time>2020-08-29T22:57:55.817Z</time>
      </trkpt>
      <trkpt lat="61.10715" lon="17.12743">
        <ele>10.133269</ele>
        <time>2020-08-29T22:57:59.982Z</time>
      </trkpt>
      <trkpt lat="61.10656" lon="17.1274">
        <ele>10.046239</ele>
        <time>2020-08-29T22:58:10.332Z</time>
      </trkpt>
      <trkpt lat="61.10081" lon="17.12691">
        <ele>10.01311</ele>
        <time>2020-08-29T22:59:53.028Z</time>
      </trkpt>
      <trkpt lat="61.09844" lon="17.12671">
        <ele>10.239549</ele>
        <time>2020-08-29T23:00:35.369Z</time>
      </trkpt>
      <trkpt lat="61.09732" lon="17.12676">
        <ele>10.5486</ele>
        <time>2020-08-29T23:00:56.466Z</time>
      </trkpt>
      <trkpt lat="61.09161" lon="17.12806">
        <ele>15.072219</ele>
        <time>2020-08-29T23:02:53.721Z</time>
      </trkpt>
      <trkpt lat="61.09128" lon="17.12813">
        <ele>15.368845</ele>
        <time>2020-08-29T23:03:00.745Z</time>
      </trkpt>
      <trkpt lat="61.09087" lon="17.12821">
        <ele>15.73939</ele>
        <time>2020-08-29T23:03:09.568Z</time>
      </trkpt>
      <trkpt lat="61.08787" lon="17.1289">
        <ele>17.596567</ele>
        <time>2020-08-29T23:04:09.811Z</time>
      </trkpt>
      <trkpt lat="61.08776" lon="17.12892">
        <ele>17.620531</ele>
        <time>2020-08-29T23:04:11.647Z</time>
      </trkpt>
      <trkpt lat="61.08728" lon="17.12902">
        <ele>17.726734</ele>
        <time>2020-08-29T23:04:20.171Z</time>
      </trkpt>
      <trkpt lat="61.08668" lon="17.12913">
        <ele>17.864884</ele>
        <time>2020-08-29T23:04:30.664Z</time>
      </trkpt>
      <trkpt lat="61.08294" lon="17.12997">
        <ele>20.024256</ele>
        <time>2020-08-29T23:05:44.395Z</time>
      </trkpt>
      <trkpt lat="61.08261" lon="17.13004">
        <ele>20.425721</ele>
        <time>2020-08-29T23:05:51.743Z</time>
      </trkpt>
      <trkpt lat="61.08161" lon="17.13039">
        <ele>21.649398</ele>
        <time>2020-08-29T23:06:14.585Z</time>
      </trkpt>
      <trkpt lat="61.07533" lon="17.1351">
        <ele>28.828351</ele>
        <time>2020-08-29T23:08:38.258Z</time>
      </trkpt>
      <trkpt lat="61.07404" lon="17.13561">
        <ele>28.606035</ele>
        <time>2020-08-29T23:09:01.536Z</time>
      </trkpt>
      <trkpt lat="61.06217" lon="17.13962">
        <ele>13.256306</ele>
        <time>2020-08-29T23:12:01.218Z</time>
      </trkpt>
      <trkpt lat="61.0601" lon="17.14034">
        <ele>11.101786</ele>
        <time>2020-08-29T23:12:33.321Z</time>
      </trkpt>
      <trkpt lat="61.05924" lon="17.14064">
        <ele>10.605637</ele>
        <time>2020-08-29T23:12:47.417Z</time>
      </trkpt>
      <trkpt lat="61.05889" lon="17.14076">
        <ele>10.403672</ele>
        <time>2020-08-29T23:12:53.346Z</time>
      </trkpt>
      <trkpt lat="61.05545" lon="17.14192">
        <ele>10.015261</ele>
        <time>2020-08-29T23:13:54.736Z</time>
      </trkpt>
      <trkpt lat="61.0493" lon="17.14408">
        <ele>9.860954</ele>
        <time>2020-08-29T23:15:45.775Z</time>
      </trkpt>
      <trkpt lat="61.0481" lon="17.14443">
        <ele>9.74375</ele>
        <time>2020-08-29T23:16:07.065Z</time>
      </trkpt>
      <trkpt lat="61.04731" lon="17.14452">
        <ele>9.453374</ele>
        <time>2020-08-29T23:16:20.348Z</time>
      </trkpt>
      <trkpt lat="61.04713" lon="17.14458">
        <ele>9.37162</ele>
        <time>2020-08-29T23:16:23.426Z</time>
      </trkpt>
      <trkpt lat="61.04656" lon="17.14467">
        <ele>9.122053</ele>
        <time>2020-08-29T23:16:32.802Z</time>
      </trkpt>
      <trkpt lat="61.04576" lon="17.14466">
        <ele>8.796444</ele>
        <time>2020-08-29T23:16:45.660Z</time>
      </trkpt>
      <trkpt lat="61.04519" lon="17.14461">
        <ele>8.573723</ele>
        <time>2020-08-29T23:16:55.202Z</time>
      </trkpt>
      <trkpt lat="61.04486" lon="17.14458">
        <ele>8.449028</ele>
        <time>2020-08-29T23:17:00.692Z</time>
      </trkpt>
      <trkpt lat="61.04453" lon="17.1445">
        <ele>8.321608</ele>
        <time>2020-08-29T23:17:06.404Z</time>
      </trkpt>
      <trkpt lat="61.04393" lon="17.14429">
        <ele>8.361269</ele>
        <time>2020-08-29T23:17:17.145Z</time>
      </trkpt>
      <trkpt lat="61.04376" lon="17.14423">
        <ele>8.406021</ele>
        <time>2020-08-29T23:17:20.417Z</time>
      </trkpt>
      <trkpt lat="61.04024" lon="17.14311">
        <ele>9.628423</ele>
        <time>2020-08-29T23:18:28.513Z</time>
      </trkpt>
      <trkpt lat="61.03946" lon="17.14294">
        <ele>9.866484</ele>
        <time>2020-08-29T23:18:43.213Z</time>
      </trkpt>
      <trkpt lat="61.03818" lon="17.14295">
        <ele>10.143241</ele>
        <time>2020-08-29T23:19:07.040Z</time>
      </trkpt>
      <trkpt lat="61.03543" lon="17.14377">
        <ele>10.454092</ele>
        <time>2020-08-29T23:19:57.489Z</time>
      </trkpt>
      <trkpt lat="61.03437" lon="17.1441">
        <ele>10.40907</ele>
        <time>2020-08-29T23:20:16.309Z</time>
      </trkpt>
      <trkpt lat="61.03397" lon="17.14423">
        <ele>10.392446</ele>
        <time>2020-08-29T23:20:23.176Z</time>
      </trkpt>
      <trkpt lat="61.03257" lon="17.14467">
        <ele>10.886614</ele>
        <time>2020-08-29T23:20:49.229Z</time>
      </trkpt>
      <trkpt lat="61.02459" lon="17.14714">
        <ele>18.376254</ele>
        <time>2020-08-29T23:23:39.095Z</time>
      </trkpt>
      <trkpt lat="61.02391" lon="17.14717">
        <ele>18.538988</ele>
        <time>2020-08-29T23:23:51.917Z</time>
      </trkpt>
      <trkpt lat="61.02349" lon="17.14708">
        <ele>18.639621</ele>
        <time>2020-08-29T23:23:59.523Z</time>
      </trkpt>
      <trkpt lat="61.02193" lon="17.14632">
        <ele>18.370717</ele>
        <time>2020-08-29T23:24:26.964Z</time>
      </trkpt>
      <trkpt lat="61.02176" lon="17.14623">
        <ele>18.308464</ele>
        <time>2020-08-29T23:24:29.875Z</time>
      </trkpt>
      <trkpt lat="61.01974" lon="17.14519">
        <ele>17.219724</ele>
        <time>2020-08-29T23:25:03.971Z</time>
      </trkpt>
      <trkpt lat="61.0192" lon="17.14492">
        <ele>16.707531</ele>
        <time>2020-08-29T23:25:12.798Z</time>
      </trkpt>
      <trkpt lat="61.01896" lon="17.14478">
        <ele>16.402716</ele>
        <time>2020-08-29T23:25:16.805Z</time>
      </trkpt>
      <trkpt lat="61.0185" lon="17.14453">
        <ele>15.828024</ele>
        <time>2020-08-29T23:25:24.026Z</time>
      </trkpt>
      <trkpt lat="61.0179" lon="17.14419">
        <ele>15.085068</ele>
        <time>2020-08-29T23:25:33.183Z</time>
      </trkpt>
      <trkpt lat="61.01727" lon="17.14382">
        <ele>14.010154</ele>
        <time>2020-08-29T23:25:42.744Z</time>
      </trkpt>
      <trkpt lat="61.01708" lon="17.14371">
        <ele>13.672203</ele>
        <time>2020-08-29T23:25:45.462Z</time>
      </trkpt>
      <trkpt lat="61.01631" lon="17.14322">
        <ele>12.258781</ele>
        <time>2020-08-29T23:25:56.951Z</time>
      </trkpt>
      <trkpt lat="61.01553" lon="17.14243">
        <ele>11.073144</ele>
        <time>2020-08-29T23:26:09.553Z</time>
      </trkpt>
      <trkpt lat="61.01542" lon="17.14229">
        <ele>10.915204</ele>
        <time>2020-08-29T23:26:11.512Z</time>
      </trkpt>
      <trkpt lat="61.01513" lon="17.14192">
        <ele>10.516626</ele>
        <time>2020-08-29T23:26:16.662Z</time>
      </trkpt>
      <trkpt lat="61.01422" lon="17.14066">
        <ele>9.557544</ele>
        <time>2020-08-29T23:26:34.028Z</time>
      </trkpt>
      <trkpt lat="61.01389" lon="17.1402">
        <ele>9.465565</ele>
        <time>2020-08-29T23:26:40.802Z</time>
      </trkpt>
      <trkpt lat="61.01353" lon="17.13971">
        <ele>9.3657</ele>
        <time>2020-08-29T23:26:48.372Z</time>
      </trkpt>
      <trkpt lat="61.00775" lon="17.13169">
        <ele>10.360266</ele>
        <time>2020-08-29T23:28:56.667Z</time>
      </trkpt>
      <trkpt lat="61.00524" lon="17.12807">
        <ele>10.715125</ele>
        <time>2020-08-29T23:29:52.143Z</time>
      </trkpt>
      <trkpt lat="61.00492" lon="17.12761">
        <ele>10.75854</ele>
        <time>2020-08-29T23:29:59.369Z</time>
      </trkpt>
      <trkpt lat="61.00463" lon="17.12722">
        <ele>10.796574</ele>
        <time>2020-08-29T23:30:05.696Z</time>
      </trkpt>
      <trkpt lat="61.00412" lon="17.12647">
        <ele>10.866867</ele>
        <time>2020-08-29T23:30:17.185Z</time>
      </trkpt>
      <trkpt lat="61.00402" lon="17.12631">
        <ele>10.858519</ele>
        <time>2020-08-29T23:30:19.469Z</time>
      </trkpt>
      <trkpt lat="61.00384" lon="17.12602">
        <ele>10.838078</ele>
        <time>2020-08-29T23:30:23.587Z</time>
      </trkpt>
      <trkpt lat="61.0037" lon="17.12582">
        <ele>10.823514</ele>
        <time>2020-08-29T23:30:26.638Z</time>
      </trkpt>
      <trkpt lat="61.00338" lon="17.12537">
        <ele>10.789403</ele>
        <time>2020-08-29T23:30:33.580Z</time>
      </trkpt>
      <trkpt lat="61.0031" lon="17.12482">
        <ele>10.755559</ele>
        <time>2020-08-29T23:30:40.317Z</time>
      </trkpt>
      <trkpt lat="61.00301" lon="17.12465">
        <ele>10.745036</ele>
        <time>2020-08-29T23:30:42.298Z</time>
      </trkpt>
      <trkpt lat="61.00267" lon="17.12366">
        <ele>10.676628</ele>
        <time>2020-08-29T23:30:52.434Z</time>
      </trkpt>
      <trkpt lat="61.00245" lon="17.12293">
        <ele>10.604012</ele>
        <time>2020-08-29T23:30:59.419Z</time>
      </trkpt>
      <trkpt lat="61.0024" lon="17.12278">
        <ele>10.589472</ele>
        <time>2020-08-29T23:31:00.753Z</time>
      </trkpt>
      <trkpt lat="61.00199" lon="17.1212">
        <ele>10.438735</ele>
        <time>2020-08-29T23:31:15.464Z</time>
      </trkpt>
      <trkpt lat="61.00126" lon="17.11776">
        <ele>11.366569</ele>
        <time>2020-08-29T23:31:50.535Z</time>
      </trkpt>
      <trkpt lat="61.00125" lon="17.11769">
        <ele>11.389418</ele>
        <time>2020-08-29T23:31:51.372Z</time>
      </trkpt>
      <trkpt lat="61.00122" lon="17.11754">
        <ele>11.437015</ele>
        <time>2020-08-29T23:31:53.057Z</time>
      </trkpt>
      <trkpt lat="61.00107" lon="17.11646">
        <ele>12.419969</ele>
        <time>2020-08-29T23:32:05.449Z</time>
      </trkpt>
      <trkpt lat="61.00063" lon="17.11274">
        <ele>16.54971</ele>
        <time>2020-08-29T23:32:53.008Z</time>
      </trkpt>
      <trkpt lat="61.0004" lon="17.11122">
        <ele>18.578469</ele>
        <time>2020-08-29T23:33:13.271Z</time>
      </trkpt>
      <trkpt lat="61.00028" lon="17.11072">
        <ele>19.28258</ele>
        <time>2020-08-29T23:33:20.258Z</time>
      </trkpt>
      <trkpt lat="61.00021" lon="17.11044">
        <ele>19.689678</ele>
        <time>2020-08-29T23:33:24.741Z</time>
      </trkpt>
      <trkpt lat="60.99956" lon="17.10825">
        <ele>22.788735</ele>
        <time>2020-08-29T23:33:57.886Z</time>
      </trkpt>
      <trkpt lat="60.9995" lon="17.10798">
        <ele>23.154055</ele>
        <time>2020-08-29T23:34:01.898Z</time>
      </trkpt>
      <trkpt lat="60.9994" lon="17.10752">
        <ele>23.763302</ele>
        <time>2020-08-29T23:34:07.759Z</time>
      </trkpt>
      <trkpt lat="60.99925" lon="17.10644">
        <ele>24.735098</ele>
        <time>2020-08-29T23:34:20.618Z</time>
      </trkpt>
      <trkpt lat="60.99921" lon="17.10527">
        <ele>25.38437</ele>
        <time>2020-08-29T23:34:33.525Z</time>
      </trkpt>
      <trkpt lat="60.99924" lon="17.10422">
        <ele>25.968145</ele>
        <time>2020-08-29T23:34:44.210Z</time>
      </trkpt>
      <trkpt lat="60.99945" lon="17.10189">
        <ele>26.566511</ele>
        <time>2020-08-29T23:35:05.958Z</time>
      </trkpt>
      <trkpt lat="60.99947" lon="17.10037">
        <ele>26.666494</ele>
        <time>2020-08-29T23:35:19.220Z</time>
      </trkpt>
      <trkpt lat="60.99935" lon="17.09802">
        <ele>26.551933</ele>
        <time>2020-08-29T23:35:39.270Z</time>
      </trkpt>
      <trkpt lat="60.99923" lon="17.09687">
        <ele>26.436829</ele>
        <time>2020-08-29T23:35:49.116Z</time>
      </trkpt>
      <trkpt lat="60.99874" lon="17.09455">
        <ele>26.020816</ele>
        <time>2020-08-29T23:36:09.816Z</time>
      </trkpt>
      <trkpt lat="60.99844" lon="17.0935">
        <ele>25.777879</ele>
        <time>2020-08-29T23:36:19.565Z</time>
      </trkpt>
      <trkpt lat="60.99728" lon="17.09097">
        <ele>24.954779</ele>
        <time>2020-08-29T23:36:47.427Z</time>
      </trkpt>
      <trkpt lat="60.9969" lon="17.0902">
        <ele>24.681473</ele>
        <time>2020-08-29T23:36:56.171Z</time>
      </trkpt>
      <trkpt lat="60.99656" lon="17.08951">
        <ele>24.384365</ele>
        <time>2020-08-29T23:37:04.016Z</time>
      </trkpt>
      <trkpt lat="60.99349" lon="17.08328">
        <ele>21.73665</ele>
        <time>2020-08-29T23:38:13.771Z</time>
      </trkpt>
      <trkpt lat="60.99295" lon="17.08238">
        <ele>21.351255</ele>
        <time>2020-08-29T23:38:25.010Z</time>
      </trkpt>
      <trkpt lat="60.99236" lon="17.0817">
        <ele>21.141722</ele>
        <time>2020-08-29T23:38:36.197Z</time>
      </trkpt>
      <trkpt lat="60.99177" lon="17.08123">
        <ele>20.943632</ele>
        <time>2020-08-29T23:38:46.979Z</time>
      </trkpt>
      <trkpt lat="60.98927" lon="17.07998">
        <ele>20.940712</ele>
        <time>2020-08-29T23:39:32.934Z</time>
      </trkpt>
      <trkpt lat="60.9886" lon="17.07964">
        <ele>21.152428</ele>
        <time>2020-08-29T23:39:45.814Z</time>
      </trkpt>
      <trkpt lat="60.98818" lon="17.07945">
        <ele>21.286113</ele>
        <time>2020-08-29T23:39:54.073Z</time>
      </trkpt>
      <trkpt lat="60.98697" lon="17.07886">
        <ele>21.892873</ele>
        <time>2020-08-29T23:40:18.531Z</time>
      </trkpt>
      <trkpt lat="60.98601" lon="17.07835">
        <ele>22.446204</ele>
        <time>2020-08-29T23:40:37.873Z</time>
      </trkpt>
      <trkpt lat="60.98543" lon="17.07783">
        <ele>22.890284</ele>
        <time>2020-08-29T23:40:50.425Z</time>
      </trkpt>
      <trkpt lat="60.98519" lon="17.07752">
        <ele>23.091014</ele>
        <time>2020-08-29T23:40:56.137Z</time>
      </trkpt>
      <trkpt lat="60.98489" lon="17.07705">
        <ele>23.354416</ele>
        <time>2020-08-29T23:41:03.707Z</time>
      </trkpt>
      <trkpt lat="60.98442" lon="17.07609">
        <ele>23.919352</ele>
        <time>2020-08-29T23:41:17.171Z</time>
      </trkpt>
      <trkpt lat="60.98382" lon="17.07401">
        <ele>25.153351</ele>
        <time>2020-08-29T23:41:42.331Z</time>
      </trkpt>
      <trkpt lat="60.98351" lon="17.07276">
        <ele>25.842183</ele>
        <time>2020-08-29T23:41:57.079Z</time>
      </trkpt>
      <trkpt lat="60.98342" lon="17.07241">
        <ele>26.031789</ele>
        <time>2020-08-29T23:42:01.387Z</time>
      </trkpt>
      <trkpt lat="60.98194" lon="17.06681">
        <ele>28.682662</ele>
        <time>2020-08-29T23:43:04.938Z</time>
      </trkpt>
      <trkpt lat="60.98164" lon="17.06592">
        <ele>28.851436</ele>
        <time>2020-08-29T23:43:14.809Z</time>
      </trkpt>
      <trkpt lat="60.98117" lon="17.0648">
        <ele>29.084816</ele>
        <time>2020-08-29T23:43:28.223Z</time>
      </trkpt>
      <trkpt lat="60.98088" lon="17.06431">
        <ele>29.205893</ele>
        <time>2020-08-29T23:43:35.084Z</time>
      </trkpt>
      <trkpt lat="60.98052" lon="17.06375">
        <ele>29.308652</ele>
        <time>2020-08-29T23:43:43.360Z</time>
      </trkpt>
      <trkpt lat="60.97836" lon="17.06055">
        <ele>29.668553</ele>
        <time>2020-08-29T23:44:32.423Z</time>
      </trkpt>
      <trkpt lat="60.97704" lon="17.0586">
        <ele>29.582707</ele>
        <time>2020-08-29T23:45:00.898Z</time>
      </trkpt>
      <trkpt lat="60.97676" lon="17.05828">
        <ele>29.539806</ele>
        <time>2020-08-29T23:45:06.379Z</time>
      </trkpt>
      <trkpt lat="60.9755" lon="17.05732">
        <ele>29.485151</ele>
        <time>2020-08-29T23:45:29.773Z</time>
      </trkpt>
      <trkpt lat="60.97454" lon="17.05631">
        <ele>29.521531</ele>
        <time>2020-08-29T23:45:49.474Z</time>
      </trkpt>
      <trkpt lat="60.97395" lon="17.05562">
        <ele>29.641464</ele>
        <time>2020-08-29T23:46:01.933Z</time>
      </trkpt>
      <trkpt lat="60.9733" lon="17.05491">
        <ele>29.772647</ele>
        <time>2020-08-29T23:46:15.567Z</time>
      </trkpt>
      <trkpt lat="60.97198" lon="17.05347">
        <ele>29.940528</ele>
        <time>2020-08-29T23:46:42.743Z</time>
      </trkpt>
      <trkpt lat="60.96984" lon="17.05221">
        <ele>29.999698</ele>
        <time>2020-08-29T23:47:22.493Z</time>
      </trkpt>
      <trkpt lat="60.9691" lon="17.0515">
        <ele>30.050978</ele>
        <time>2020-08-29T23:47:37.216Z</time>
      </trkpt>
      <trkpt lat="60.96893" lon="17.05128">
        <ele>30.065528</ele>
        <time>2020-08-29T23:47:40.768Z</time>
      </trkpt>
      <trkpt lat="60.9687" lon="17.05091">
        <ele>30.087412</ele>
        <time>2020-08-29T23:47:46.140Z</time>
      </trkpt>
      <trkpt lat="60.9673" lon="17.04819">
        <ele>30.418065</ele>
        <time>2020-08-29T23:48:21.318Z</time>
      </trkpt>
      <trkpt lat="60.96691" lon="17.04759">
        <ele>30.524998</ele>
        <time>2020-08-29T23:48:30.499Z</time>
      </trkpt>
      <trkpt lat="60.96655" lon="17.04718">
        <ele>30.701155</ele>
        <time>2020-08-29T23:48:38.354Z</time>
      </trkpt>
      <trkpt lat="60.9656" lon="17.04651">
        <ele>31.131506</ele>
        <time>2020-08-29T23:48:57.727Z</time>
      </trkpt>
      <trkpt lat="60.96507" lon="17.04599">
        <ele>31.388118</ele>
        <time>2020-08-29T23:49:08.992Z</time>
      </trkpt>
      <trkpt lat="60.96338" lon="17.04353">
        <ele>32.229544</ele>
        <time>2020-08-29T23:49:49.081Z</time>
      </trkpt>
      <trkpt lat="60.96309" lon="17.0432">
        <ele>32.286779</ele>
        <time>2020-08-29T23:49:55.236Z</time>
      </trkpt>
      <trkpt lat="60.96262" lon="17.04266">
        <ele>32.378671</ele>
        <time>2020-08-29T23:50:04.911Z</time>
      </trkpt>
      <trkpt lat="60.96217" lon="17.04199">
        <ele>32.45666</ele>
        <time>2020-08-29T23:50:14.896Z</time>
      </trkpt>
      <trkpt lat="60.96185" lon="17.04135">
        <ele>32.451223</ele>
        <time>2020-08-29T23:50:22.657Z</time>
      </trkpt>
      <trkpt lat="60.96118" lon="17.03942">
        <ele>32.437137</ele>
        <time>2020-08-29T23:50:43.140Z</time>
      </trkpt>
      <trkpt lat="60.96099" lon="17.03888">
        <ele>32.47804</ele>
        <time>2020-08-29T23:50:49.058Z</time>
      </trkpt>
      <trkpt lat="60.96078" lon="17.03829">
        <ele>32.545968</ele>
        <time>2020-08-29T23:50:55.635Z</time>
      </trkpt>
      <trkpt lat="60.96012" lon="17.03654">
        <ele>32.75004</ele>
        <time>2020-08-29T23:51:15.562Z</time>
      </trkpt>
      <trkpt lat="60.96007" lon="17.0366">
        <ele>32.762201</ele>
        <time>2020-08-29T23:51:16.752Z</time>
      </trkpt>
      <trkpt lat="60.95981" lon="17.0366">
        <ele>32.773519</ele>
        <time>2020-08-29T23:51:21.485Z</time>
      </trkpt>
      <trkpt lat="60.95917" lon="17.03628">
        <ele>32.752814</ele>
        <time>2020-08-29T23:51:33.422Z</time>
      </trkpt>
      <trkpt lat="60.95881" lon="17.03607">
        <ele>32.740896</ele>
        <time>2020-08-29T23:51:40.126Z</time>
      </trkpt>
      <trkpt lat="60.95872" lon="17.03602">
        <ele>32.738119</ele>
        <time>2020-08-29T23:51:41.626Z</time>
      </trkpt>
      <trkpt lat="60.95803" lon="17.03573">
        <ele>32.603468</ele>
        <time>2020-08-29T23:51:53.750Z</time>
      </trkpt>
      <trkpt lat="60.95737" lon="17.03563">
        <ele>32.21739</ele>
        <time>2020-08-29T23:52:04.774Z</time>
      </trkpt>
      <trkpt lat="60.95595" lon="17.03561">
        <ele>31.291923</ele>
        <time>2020-08-29T23:52:27.345Z</time>
      </trkpt>
      <trkpt lat="60.95471" lon="17.03526">
        <ele>30.302443</ele>
        <time>2020-08-29T23:52:47.028Z</time>
      </trkpt>
      <trkpt lat="60.95426" lon="17.03502">
        <ele>29.989307</ele>
        <time>2020-08-29T23:52:54.392Z</time>
      </trkpt>
      <trkpt lat="60.95059" lon="17.03236">
        <ele>27.435837</ele>
        <time>2020-08-29T23:53:57.638Z</time>
      </trkpt>
      <trkpt lat="60.94962" lon="17.0319">
        <ele>26.612193</ele>
        <time>2020-08-29T23:54:13.265Z</time>
      </trkpt>
      <trkpt lat="60.9481" lon="17.03166">
        <ele>24.895205</ele>
        <time>2020-08-29T23:54:36.375Z</time>
      </trkpt>
      <trkpt lat="60.94287" lon="17.03155">
        <ele>19.123462</ele>
        <time>2020-08-29T23:55:55.925Z</time>
      </trkpt>
      <trkpt lat="60.94224" lon="17.03153">
        <ele>18.630623</ele>
        <time>2020-08-29T23:56:06.416Z</time>
      </trkpt>
      <trkpt lat="60.94223" lon="17.03268">
        <ele>18.673893</ele>
        <time>2020-08-29T23:56:16.109Z</time>
      </trkpt>
      <trkpt lat="60.94212" lon="17.03385">
        <ele>18.718496</ele>
        <time>2020-08-29T23:56:26.694Z</time>
      </trkpt>
      <trkpt lat="60.94202" lon="17.03431">
        <ele>18.737362</ele>
        <time>2020-08-29T23:56:31.294Z</time>
      </trkpt>
      <trkpt lat="60.94184" lon="17.0349">
        <ele>18.766748</ele>
        <time>2020-08-29T23:56:37.838Z</time>
      </trkpt>
      <trkpt lat="60.94172" lon="17.03515">
        <ele>18.867263</ele>
        <time>2020-08-29T23:56:41.149Z</time>
      </trkpt>
      <trkpt lat="60.94158" lon="17.03529">
        <ele>18.957531</ele>
        <time>2020-08-29T23:56:44.082Z</time>
      </trkpt>
      <trkpt lat="60.9414" lon="17.03538">
        <ele>19.069453</ele>
        <time>2020-08-29T23:56:47.796Z</time>
      </trkpt>
      <trkpt lat="60.94109" lon="17.03537">
        <ele>19.24709</ele>
        <time>2020-08-29T23:56:53.699Z</time>
      </trkpt>
      <trkpt lat="60.94073" lon="17.0351">
        <ele>19.47312</ele>
        <time>2020-08-29T23:57:01.314Z</time>
      </trkpt>
      <trkpt lat="60.94023" lon="17.03417">
        <ele>19.84914</ele>
        <time>2020-08-29T23:57:15.028Z</time>
      </trkpt>
      <trkpt lat="60.93987" lon="17.03377">
        <ele>19.970027</ele>
        <time>2020-08-29T23:57:23.144Z</time>
      </trkpt>
      <trkpt lat="60.9389" lon="17.03345">
        <ele>20.262496</ele>
        <time>2020-08-29T23:57:41.760Z</time>
      </trkpt>
      <trkpt lat="60.93872" lon="17.0335">
        <ele>20.317508</ele>
        <time>2020-08-29T23:57:45.063Z</time>
      </trkpt>
      <trkpt lat="60.9383" lon="17.03385">
        <ele>20.097221</ele>
        <time>2020-08-29T23:57:52.800Z</time>
      </trkpt>
      <trkpt lat="60.93808" lon="17.03393">
        <ele>19.908676</ele>
        <time>2020-08-29T23:57:56.422Z</time>
      </trkpt>
      <trkpt lat="60.93725" lon="17.0339">
        <ele>19.200144</ele>
        <time>2020-08-29T23:58:09.309Z</time>
      </trkpt>
      <trkpt lat="60.93645" lon="17.03421">
        <ele>18.549771</ele>
        <time>2020-08-29T23:58:21.420Z</time>
      </trkpt>
      <trkpt lat="60.9359" lon="17.035">
        <ele>18.054908</ele>
        <time>2020-08-29T23:58:31.803Z</time>
      </trkpt>
      <trkpt lat="60.9355" lon="17.03543">
        <ele>17.719862</ele>
        <time>2020-08-29T23:58:39.212Z</time>
      </trkpt>
      <trkpt lat="60.93544" lon="17.03548">
        <ele>17.668566</ele>
        <time>2020-08-29T23:58:40.335Z</time>
      </trkpt>
      <trkpt lat="60.93482" lon="17.03599">
        <ele>17.661202</ele>
        <time>2020-08-29T23:58:52.288Z</time>
      </trkpt>
      <trkpt lat="60.93446" lon="17.03631">
        <ele>17.807737</ele>
        <time>2020-08-29T23:58:59.842Z</time>
      </trkpt>
      <trkpt lat="60.93362" lon="17.03685">
        <ele>18.134093</ele>
        <time>2020-08-29T23:59:17.699Z</time>
      </trkpt>
      <trkpt lat="60.93334" lon="17.03722">
        <ele>18.170812</ele>
        <time>2020-08-29T23:59:24.066Z</time>
      </trkpt>
      <trkpt lat="60.93242" lon="17.03849">
        <ele>18.195226</ele>
        <time>2020-08-29T23:59:43.632Z</time>
      </trkpt>
      <trkpt lat="60.93127" lon="17.03972">
        <ele>18.031431</ele>
        <time>2020-08-30T00:00:05.370Z</time>
      </trkpt>
      <trkpt lat="60.93091" lon="17.0401">
        <ele>17.94804</ele>
        <time>2020-08-30T00:00:12.244Z</time>
      </trkpt>
      <trkpt lat="60.93017" lon="17.0402">
        <ele>17.884681</ele>
        <time>2020-08-30T00:00:25.721Z</time>
      </trkpt>
      <trkpt lat="60.9293" lon="17.04074">
        <ele>18.1039</ele>
        <time>2020-08-30T00:00:43.213Z</time>
      </trkpt>
      <trkpt lat="60.92899" lon="17.04094">
        <ele>18.18195</ele>
        <time>2020-08-30T00:00:49.430Z</time>
      </trkpt>
      <trkpt lat="60.92871" lon="17.04109">
        <ele>18.25134</ele>
        <time>2020-08-30T00:00:54.913Z</time>
      </trkpt>
      <trkpt lat="60.92848" lon="17.04117">
        <ele>18.174413</ele>
        <time>2020-08-30T00:00:59.357Z</time>
      </trkpt>
      <trkpt lat="60.92813" lon="17.04099">
        <ele>17.947964</ele>
        <time>2020-08-30T00:01:05.776Z</time>
      </trkpt>
      <trkpt lat="60.92802" lon="17.04084">
        <ele>17.868379</ele>
        <time>2020-08-30T00:01:07.865Z</time>
      </trkpt>
      <trkpt lat="60.92792" lon="17.04124">
        <ele>17.73319</ele>
        <time>2020-08-30T00:01:11.544Z</time>
      </trkpt>
      <trkpt lat="60.92747" lon="17.04146">
        <ele>17.445438</ele>
        <time>2020-08-30T00:01:18.640Z</time>
      </trkpt>
      <trkpt lat="60.92725" lon="17.04158">
        <ele>17.306434</ele>
        <time>2020-08-30T00:01:22.236Z</time>
      </trkpt>
      <trkpt lat="60.92688" lon="17.04178">
        <ele>17.102829</ele>
        <time>2020-08-30T00:01:28.120Z</time>
      </trkpt>
      <trkpt lat="60.92665" lon="17.04223">
        <ele>16.974029</ele>
        <time>2020-08-30T00:01:33.148Z</time>
      </trkpt>
      <trkpt lat="60.92651" lon="17.0425">
        <ele>16.896972</ele>
        <time>2020-08-30T00:01:36.233Z</time>
      </trkpt>
      <trkpt lat="60.92625" lon="17.04298">
        <ele>16.757792</ele>
        <time>2020-08-30T00:01:41.880Z</time>
      </trkpt>
      <trkpt lat="60.92568" lon="17.04412">
        <ele>16.439547</ele>
        <time>2020-08-30T00:01:55.734Z</time>
      </trkpt>
      <trkpt lat="60.92555" lon="17.0444">
        <ele>16.51092</ele>
        <time>2020-08-30T00:01:59.270Z</time>
      </trkpt>
      <trkpt lat="60.9255" lon="17.04449">
        <ele>16.537019</ele>
        <time>2020-08-30T00:02:00.686Z</time>
      </trkpt>
      <trkpt lat="60.92512" lon="17.04514">
        <ele>16.730946</ele>
        <time>2020-08-30T00:02:10.813Z</time>
      </trkpt>
      <trkpt lat="60.92462" lon="17.04569">
        <ele>16.950988</ele>
        <time>2020-08-30T00:02:22.594Z</time>
      </trkpt>
      <trkpt lat="60.92332" lon="17.04688">
        <ele>16.698092</ele>
        <time>2020-08-30T00:02:49.841Z</time>
      </trkpt>
      <trkpt lat="60.92259" lon="17.04735">
        <ele>16.336915</ele>
        <time>2020-08-30T00:03:02.199Z</time>
      </trkpt>
      <trkpt lat="60.92236" lon="17.04737">
        <ele>16.089228</ele>
        <time>2020-08-30T00:03:05.871Z</time>
      </trkpt>
      <trkpt lat="60.92165" lon="17.04742">
        <ele>15.055735</ele>
        <time>2020-08-30T00:03:16.715Z</time>
      </trkpt>
      <trkpt lat="60.91859" lon="17.04703">
        <ele>10.78728</ele>
        <time>2020-08-30T00:04:03.838Z</time>
      </trkpt>
      <trkpt lat="60.91747" lon="17.04708">
        <ele>9.855441</ele>
        <time>2020-08-30T00:04:22.781Z</time>
      </trkpt>
      <trkpt lat="60.91657" lon="17.04733">
        <ele>9.288797</ele>
        <time>2020-08-30T00:04:38.310Z</time>
      </trkpt>
      <trkpt lat="60.91508" lon="17.04819">
        <ele>8.542433</ele>
        <time>2020-08-30T00:05:05.050Z</time>
      </trkpt>
      <trkpt lat="60.91431" lon="17.04909">
        <ele>8.195541</ele>
        <time>2020-08-30T00:05:20.493Z</time>
      </trkpt>
      <trkpt lat="60.91368" lon="17.05035">
        <ele>7.870172</ele>
        <time>2020-08-30T00:05:36.059Z</time>
      </trkpt>
      <trkpt lat="60.90788" lon="17.06516">
        <ele>4.784305</ele>
        <time>2020-08-30T00:08:19.308Z</time>
      </trkpt>
      <trkpt lat="60.90758" lon="17.06621">
        <ele>4.475659</ele>
        <time>2020-08-30T00:08:29.402Z</time>
      </trkpt>
      <trkpt lat="60.90749" lon="17.06679">
        <ele>4.319062</ele>
        <time>2020-08-30T00:08:34.489Z</time>
      </trkpt>
      <trkpt lat="60.90699" lon="17.06638">
        <ele>4.06987</ele>
        <time>2020-08-30T00:08:43.037Z</time>
      </trkpt>
      <trkpt lat="60.90627" lon="17.06598">
        <ele>3.830201</ele>
        <time>2020-08-30T00:08:55.486Z</time>
      </trkpt>
      <trkpt lat="60.90579" lon="17.06571">
        <ele>3.672355</ele>
        <time>2020-08-30T00:09:03.928Z</time>
      </trkpt>
      <trkpt lat="60.90556" lon="17.06561">
        <ele>3.597529</ele>
        <time>2020-08-30T00:09:08.055Z</time>
      </trkpt>
      <trkpt lat="60.90511" lon="17.0654">
        <ele>3.607055</ele>
        <time>2020-08-30T00:09:16.343Z</time>
      </trkpt>
      <trkpt lat="60.90368" lon="17.06475">
        <ele>3.937644</ele>
        <time>2020-08-30T00:09:43.717Z</time>
      </trkpt>
      <trkpt lat="60.90272" lon="17.0645">
        <ele>4.19733</ele>
        <time>2020-08-30T00:10:02.087Z</time>
      </trkpt>
      <trkpt lat="60.90279" lon="17.06479">
        <ele>4.239296</ele>
        <time>2020-08-30T00:10:05.024Z</time>
      </trkpt>
      <trkpt lat="60.90279" lon="17.0648">
        <ele>4.240382</ele>
        <time>2020-08-30T00:10:05.197Z</time>
      </trkpt>
      <trkpt lat="60.90193" lon="17.0647">
        <ele>4.444476</ele>
        <time>2020-08-30T00:10:21.844Z</time>
      </trkpt>
      <trkpt lat="60.90144" lon="17.06477">
        <ele>4.472578</ele>
        <time>2020-08-30T00:10:31.010Z</time>
      </trkpt>
      <trkpt lat="60.90089" lon="17.06472">
        <ele>4.504638</ele>
        <time>2020-08-30T00:10:41.388Z</time>
      </trkpt>
      <trkpt lat="60.90058" lon="17.06481">
        <ele>4.522559</ele>
        <time>2020-08-30T00:10:47.100Z</time>
      </trkpt>
      <trkpt lat="60.90018" lon="17.06511">
        <ele>4.525713</ele>
        <time>2020-08-30T00:10:54.996Z</time>
      </trkpt>
      <trkpt lat="60.89949" lon="17.06618">
        <ele>4.41264</ele>
        <time>2020-08-30T00:11:10.910Z</time>
      </trkpt>
      <trkpt lat="60.89939" lon="17.06616">
        <ele>4.400093</ele>
        <time>2020-08-30T00:11:12.640Z</time>
      </trkpt>
      <trkpt lat="60.89923" lon="17.0661">
        <ele>4.378487</ele>
        <time>2020-08-30T00:11:15.663Z</time>
      </trkpt>
      <trkpt lat="60.89878" lon="17.0667">
        <ele>4.309753</ele>
        <time>2020-08-30T00:11:25.158Z</time>
      </trkpt>
      <trkpt lat="60.89872" lon="17.06716">
        <ele>4.288268</ele>
        <time>2020-08-30T00:11:29.191Z</time>
      </trkpt>
      <trkpt lat="60.89859" lon="17.06765">
        <ele>4.26437</ele>
        <time>2020-08-30T00:11:33.880Z</time>
      </trkpt>
      <trkpt lat="60.89851" lon="17.06784">
        <ele>4.25337</ele>
        <time>2020-08-30T00:11:36.059Z</time>
      </trkpt>
      <trkpt lat="60.89807" lon="17.06879">
        <ele>4.197022</ele>
        <time>2020-08-30T00:11:47.194Z</time>
      </trkpt>
      <trkpt lat="60.89712" lon="17.07087">
        <ele>4.242468</ele>
        <time>2020-08-30T00:12:12.239Z</time>
      </trkpt>
      <trkpt lat="60.89668" lon="17.07205">
        <ele>4.324092</ele>
        <time>2020-08-30T00:12:25.452Z</time>
      </trkpt>
      <trkpt lat="60.89642" lon="17.07302">
        <ele>4.409922</ele>
        <time>2020-08-30T00:12:35.407Z</time>
      </trkpt>
      <trkpt lat="60.89577" lon="17.07586">
        <ele>4.709354</ele>
        <time>2020-08-30T00:13:03.459Z</time>
      </trkpt>
      <trkpt lat="60.89503" lon="17.07794">
        <ele>4.971547</ele>
        <time>2020-08-30T00:13:26.744Z</time>
      </trkpt>
      <trkpt lat="60.89468" lon="17.07909">
        <ele>5.094828</ele>
        <time>2020-08-30T00:13:39.016Z</time>
      </trkpt>
      <trkpt lat="60.89454" lon="17.08021">
        <ele>5.155588</ele>
        <time>2020-08-30T00:13:49.453Z</time>
      </trkpt>
      <trkpt lat="60.89453" lon="17.08121">
        <ele>5.20817</ele>
        <time>2020-08-30T00:13:58.326Z</time>
      </trkpt>
      <trkpt lat="60.89458" lon="17.08292">
        <ele>5.223956</ele>
        <time>2020-08-30T00:14:13.071Z</time>
      </trkpt>
      <trkpt lat="60.89468" lon="17.08415">
        <ele>5.086069</ele>
        <time>2020-08-30T00:14:23.592Z</time>
      </trkpt>
      <trkpt lat="60.895" lon="17.0865">
        <ele>4.795813</ele>
        <time>2020-08-30T00:14:43.676Z</time>
      </trkpt>
      <trkpt lat="60.89541" lon="17.08897">
        <ele>4.387897</ele>
        <time>2020-08-30T00:15:05.097Z</time>
      </trkpt>
      <trkpt lat="60.89551" lon="17.0902">
        <ele>4.279969</ele>
        <time>2020-08-30T00:15:15.543Z</time>
      </trkpt>
      <trkpt lat="60.89551" lon="17.09101">
        <ele>4.270477</ele>
        <time>2020-08-30T00:15:22.472Z</time>
      </trkpt>
      <trkpt lat="60.89542" lon="17.09307">
        <ele>4.246245</ele>
        <time>2020-08-30T00:15:40.576Z</time>
      </trkpt>
      <trkpt lat="60.89529" lon="17.09439">
        <ele>4.327019</ele>
        <time>2020-08-30T00:15:52.543Z</time>
      </trkpt>
      <trkpt lat="60.89458" lon="17.09889">
        <ele>4.997055</ele>
        <time>2020-08-30T00:16:34.993Z</time>
      </trkpt>
      <trkpt lat="60.89432" lon="17.10137">
        <ele>5.962282</ele>
        <time>2020-08-30T00:17:00.218Z</time>
      </trkpt>
      <trkpt lat="60.89391" lon="17.10369">
        <ele>7.4958</ele>
        <time>2020-08-30T00:17:27.140Z</time>
      </trkpt>
      <trkpt lat="60.89365" lon="17.10486">
        <ele>8.389744</ele>
        <time>2020-08-30T00:17:41.716Z</time>
      </trkpt>
      <trkpt lat="60.89258" lon="17.1086">
        <ele>10.608883</ele>
        <time>2020-08-30T00:18:28.513Z</time>
      </trkpt>
      <trkpt lat="60.88946" lon="17.12134">
        <ele>12.561255</ele>
        <time>2020-08-30T00:20:37.783Z</time>
      </trkpt>
      <trkpt lat="60.88871" lon="17.12407">
        <ele>11.454764</ele>
        <time>2020-08-30T00:21:01.445Z</time>
      </trkpt>
      <trkpt lat="60.8883" lon="17.12514">
        <ele>10.732938</ele>
        <time>2020-08-30T00:21:11.316Z</time>
      </trkpt>
      <trkpt lat="60.88732" lon="17.12743">
        <ele>9.409143</ele>
        <time>2020-08-30T00:21:34.400Z</time>
      </trkpt>
      <trkpt lat="60.88638" lon="17.12917">
        <ele>8.63938</ele>
        <time>2020-08-30T00:21:55.470Z</time>
      </trkpt>
      <trkpt lat="60.88491" lon="17.13146">
        <ele>7.995102</ele>
        <time>2020-08-30T00:22:26.671Z</time>
      </trkpt>
      <trkpt lat="60.88396" lon="17.13346">
        <ele>7.562576</ele>
        <time>2020-08-30T00:22:49.517Z</time>
      </trkpt>
      <trkpt lat="60.88326" lon="17.13546">
        <ele>7.483947</ele>
        <time>2020-08-30T00:23:10.168Z</time>
      </trkpt>
      <trkpt lat="60.88281" lon="17.13748">
        <ele>7.555049</ele>
        <time>2020-08-30T00:23:30.209Z</time>
      </trkpt>
      <trkpt lat="60.88241" lon="17.13989">
        <ele>7.942483</ele>
        <time>2020-08-30T00:23:53.979Z</time>
      </trkpt>
      <trkpt lat="60.88227" lon="17.14171">
        <ele>8.031534</ele>
        <time>2020-08-30T00:24:10.557Z</time>
      </trkpt>
      <trkpt lat="60.88205" lon="17.14364">
        <ele>7.993761</ele>
        <time>2020-08-30T00:24:27.461Z</time>
      </trkpt>
      <trkpt lat="60.88166" lon="17.14604">
        <ele>7.705181</ele>
        <time>2020-08-30T00:24:48.384Z</time>
      </trkpt>
      <trkpt lat="60.87985" lon="17.15453">
        <ele>6.379649</ele>
        <time>2020-08-30T00:26:05.193Z</time>
      </trkpt>
      <trkpt lat="60.8791" lon="17.15745">
        <ele>5.814195</ele>
        <time>2020-08-30T00:26:32.130Z</time>
      </trkpt>
      <trkpt lat="60.87831" lon="17.15948">
        <ele>5.482039</ele>
        <time>2020-08-30T00:26:53.472Z</time>
      </trkpt>
      <trkpt lat="60.87783" lon="17.16054">
        <ele>5.313563</ele>
        <time>2020-08-30T00:27:05.687Z</time>
      </trkpt>
      <trkpt lat="60.87717" lon="17.16169">
        <ele>5.343107</ele>
        <time>2020-08-30T00:27:20.945Z</time>
      </trkpt>
      <trkpt lat="60.8759" lon="17.1636">
        <ele>5.569259</ele>
        <time>2020-08-30T00:27:49.937Z</time>
      </trkpt>
      <trkpt lat="60.87358" lon="17.16584">
        <ele>6.487384</ele>
        <time>2020-08-30T00:28:38.622Z</time>
      </trkpt>
      <trkpt lat="60.87219" lon="17.16703">
        <ele>7.264104</ele>
        <time>2020-08-30T00:29:08.136Z</time>
      </trkpt>
      <trkpt lat="60.87146" lon="17.16766">
        <ele>7.671272</ele>
        <time>2020-08-30T00:29:23.709Z</time>
      </trkpt>
      <trkpt lat="60.87088" lon="17.16811">
        <ele>7.881104</ele>
        <time>2020-08-30T00:29:35.758Z</time>
      </trkpt>
      <trkpt lat="60.86549" lon="17.17229">
        <ele>9.705651</ele>
        <time>2020-08-30T00:31:24.021Z</time>
      </trkpt>
      <trkpt lat="60.8645" lon="17.17333">
        <ele>9.893853</ele>
        <time>2020-08-30T00:31:44.393Z</time>
      </trkpt>
      <trkpt lat="60.86394" lon="17.17427">
        <ele>9.949038</ele>
        <time>2020-08-30T00:31:57.508Z</time>
      </trkpt>
      <trkpt lat="60.86068" lon="17.18068">
        <ele>9.996387</ele>
        <time>2020-08-30T00:33:18.079Z</time>
      </trkpt>
      <trkpt lat="60.85947" lon="17.18262">
        <ele>9.975489</ele>
        <time>2020-08-30T00:33:45.350Z</time>
      </trkpt>
      <trkpt lat="60.85871" lon="17.18373">
        <ele>9.891725</ele>
        <time>2020-08-30T00:34:01.814Z</time>
      </trkpt>
      <trkpt lat="60.85522" lon="17.18782">
        <ele>9.583303</ele>
        <time>2020-08-30T00:35:12.178Z</time>
      </trkpt>
      <trkpt lat="60.85316" lon="17.1905">
        <ele>9.780301</ele>
        <time>2020-08-30T00:35:56.563Z</time>
      </trkpt>
      <trkpt lat="60.85031" lon="17.19455">
        <ele>9.953538</ele>
        <time>2020-08-30T00:36:59.049Z</time>
      </trkpt>
      <trkpt lat="60.84973" lon="17.19529">
        <ele>9.91626</ele>
        <time>2020-08-30T00:37:11.089Z</time>
      </trkpt>
      <trkpt lat="60.84921" lon="17.19582">
        <ele>9.884476</ele>
        <time>2020-08-30T00:37:21.302Z</time>
      </trkpt>
      <trkpt lat="60.84809" lon="17.19693">
        <ele>9.845893</ele>
        <time>2020-08-30T00:37:43.291Z</time>
      </trkpt>
      <trkpt lat="60.8469" lon="17.19794">
        <ele>9.888992</ele>
        <time>2020-08-30T00:38:06.105Z</time>
      </trkpt>
      <trkpt lat="60.84469" lon="17.19859">
        <ele>11.05612</ele>
        <time>2020-08-30T00:38:48.056Z</time>
      </trkpt>
      <trkpt lat="60.84066" lon="17.20056">
        <ele>16.091632</ele>
        <time>2020-08-30T00:40:20.331Z</time>
      </trkpt>
      <trkpt lat="60.83912" lon="17.20134">
        <ele>17.570545</ele>
        <time>2020-08-30T00:40:54.394Z</time>
      </trkpt>
      <trkpt lat="60.83873" lon="17.20154">
        <ele>17.863926</ele>
        <time>2020-08-30T00:41:02.286Z</time>
      </trkpt>
      <trkpt lat="60.83739" lon="17.20244">
        <ele>17.751115</ele>
        <time>2020-08-30T00:41:26.953Z</time>
      </trkpt>
      <trkpt lat="60.83647" lon="17.20339">
        <ele>17.205709</ele>
        <time>2020-08-30T00:41:43.307Z</time>
      </trkpt>
      <trkpt lat="60.83399" lon="17.20627">
        <ele>14.394718</ele>
        <time>2020-08-30T00:42:27.155Z</time>
      </trkpt>
      <trkpt lat="60.83267" lon="17.20766">
        <ele>13.084157</ele>
        <time>2020-08-30T00:42:50.651Z</time>
      </trkpt>
      <trkpt lat="60.83233" lon="17.20792">
        <ele>12.779506</ele>
        <time>2020-08-30T00:42:56.438Z</time>
      </trkpt>
      <trkpt lat="60.83149" lon="17.20856">
        <ele>12.057275</ele>
        <time>2020-08-30T00:43:10.611Z</time>
      </trkpt>
      <trkpt lat="60.83013" lon="17.20948">
        <ele>10.987891</ele>
        <time>2020-08-30T00:43:33.340Z</time>
      </trkpt>
      <trkpt lat="60.8287" lon="17.21044">
        <ele>10.301003</ele>
        <time>2020-08-30T00:43:58.210Z</time>
      </trkpt>
      <trkpt lat="60.8283" lon="17.21075">
        <ele>10.192433</ele>
        <time>2020-08-30T00:44:05.599Z</time>
      </trkpt>
      <trkpt lat="60.82816" lon="17.21085">
        <ele>10.176712</ele>
        <time>2020-08-30T00:44:08.193Z</time>
      </trkpt>
      <trkpt lat="60.82804" lon="17.21094">
        <ele>10.163339</ele>
        <time>2020-08-30T00:44:10.418Z</time>
      </trkpt>
      <trkpt lat="60.82785" lon="17.21108">
        <ele>10.142129</ele>
        <time>2020-08-30T00:44:13.942Z</time>
      </trkpt>
      <trkpt lat="60.82651" lon="17.21192">
        <ele>10.02447</ele>
        <time>2020-08-30T00:44:38.617Z</time>
      </trkpt>
      <trkpt lat="60.82576" lon="17.21219">
        <ele>10.011731</ele>
        <time>2020-08-30T00:44:52.295Z</time>
      </trkpt>
      <trkpt lat="60.82485" lon="17.21233">
        <ele>10.000012</ele>
        <time>2020-08-30T00:45:08.567Z</time>
      </trkpt>
      <trkpt lat="60.82439" lon="17.21234">
        <ele>10.000012</ele>
        <time>2020-08-30T00:45:16.681Z</time>
      </trkpt>
      <trkpt lat="60.82365" lon="17.21231">
        <ele>10.000012</ele>
        <time>2020-08-30T00:45:29.833Z</time>
      </trkpt>
      <trkpt lat="60.82227" lon="17.21218">
        <ele>10.092012</ele>
        <time>2020-08-30T00:45:54.530Z</time>
      </trkpt>
      <trkpt lat="60.82158" lon="17.21213">
        <ele>10.15672</ele>
        <time>2020-08-30T00:46:07.085Z</time>
      </trkpt>
      <trkpt lat="60.82086" lon="17.21204">
        <ele>10.607151</ele>
        <time>2020-08-30T00:46:20.513Z</time>
      </trkpt>
      <trkpt lat="60.81989" lon="17.21191">
        <ele>11.331543</ele>
        <time>2020-08-30T00:46:40.349Z</time>
      </trkpt>
      <trkpt lat="60.8183" lon="17.21132">
        <ele>13.924688</ele>
        <time>2020-08-30T00:47:17.550Z</time>
      </trkpt>
      <trkpt lat="60.81763" lon="17.21128">
        <ele>14.929011</ele>
        <time>2020-08-30T00:47:34.955Z</time>
      </trkpt>
      <trkpt lat="60.81698" lon="17.21143">
        <ele>15.622858</ele>
        <time>2020-08-30T00:47:49.836Z</time>
      </trkpt>
      <trkpt lat="60.81689" lon="17.21146">
        <ele>15.720309</ele>
        <time>2020-08-30T00:47:52.262Z</time>
      </trkpt>
      <trkpt lat="60.81637" lon="17.21166">
        <ele>16.293287</ele>
        <time>2020-08-30T00:48:02.581Z</time>
      </trkpt>
      <trkpt lat="60.8162" lon="17.21172">
        <ele>16.477629</ele>
        <time>2020-08-30T00:48:06.021Z</time>
      </trkpt>
      <trkpt lat="60.81565" lon="17.21188">
        <ele>15.789504</ele>
        <time>2020-08-30T00:48:14.802Z</time>
      </trkpt>
      <trkpt lat="60.81369" lon="17.21218">
        <ele>12.522268</ele>
        <time>2020-08-30T00:48:41.968Z</time>
      </trkpt>
      <trkpt lat="60.81218" lon="17.21241">
        <ele>10.544648</ele>
        <time>2020-08-30T00:49:04.706Z</time>
      </trkpt>
      <trkpt lat="60.81115" lon="17.21254">
        <ele>10.216729</ele>
        <time>2020-08-30T00:49:22.513Z</time>
      </trkpt>
      <trkpt lat="60.80947" lon="17.21265">
        <ele>10.764719</ele>
        <time>2020-08-30T00:49:54.401Z</time>
      </trkpt>
      <trkpt lat="60.80887" lon="17.21251">
        <ele>11.134398</ele>
        <time>2020-08-30T00:50:06.835Z</time>
      </trkpt>
      <trkpt lat="60.80751" lon="17.21202">
        <ele>12.825614</ele>
        <time>2020-08-30T00:50:37.263Z</time>
      </trkpt>
      <trkpt lat="60.8071" lon="17.21187">
        <ele>13.320129</ele>
        <time>2020-08-30T00:50:46.466Z</time>
      </trkpt>
      <trkpt lat="60.80596" lon="17.21137">
        <ele>14.475238</ele>
        <time>2020-08-30T00:51:11.247Z</time>
      </trkpt>
      <trkpt lat="60.8052" lon="17.21112">
        <ele>15.148454</ele>
        <time>2020-08-30T00:51:26.782Z</time>
      </trkpt>
      <trkpt lat="60.80391" lon="17.2109">
        <ele>15.84813</ele>
        <time>2020-08-30T00:51:52.093Z</time>
      </trkpt>
      <trkpt lat="60.8008" lon="17.20987">
        <ele>17.234515</ele>
        <time>2020-08-30T00:52:52.277Z</time>
      </trkpt>
      <trkpt lat="60.79882" lon="17.20889">
        <ele>18.269422</ele>
        <time>2020-08-30T00:53:31.982Z</time>
      </trkpt>
      <trkpt lat="60.798" lon="17.20836">
        <ele>18.701891</ele>
        <time>2020-08-30T00:53:48.977Z</time>
      </trkpt>
      <trkpt lat="60.79696" lon="17.208">
        <ele>19.176392</ele>
        <time>2020-08-30T00:54:09.629Z</time>
      </trkpt>
      <trkpt lat="60.79535" lon="17.20773">
        <ele>19.443276</ele>
        <time>2020-08-30T00:54:39.252Z</time>
      </trkpt>
      <trkpt lat="60.79498" lon="17.20764">
        <ele>19.470897</ele>
        <time>2020-08-30T00:54:45.756Z</time>
      </trkpt>
      <trkpt lat="60.79461" lon="17.20756">
        <ele>19.452866</ele>
        <time>2020-08-30T00:54:52.063Z</time>
      </trkpt>
      <trkpt lat="60.79302" lon="17.20689">
        <ele>19.119692</ele>
        <time>2020-08-30T00:55:20.068Z</time>
      </trkpt>
      <trkpt lat="60.79246" lon="17.20651">
        <ele>19.061667</ele>
        <time>2020-08-30T00:55:30.352Z</time>
      </trkpt>
      <trkpt lat="60.79121" lon="17.20538">
        <ele>18.958998</ele>
        <time>2020-08-30T00:55:54.405Z</time>
      </trkpt>
      <trkpt lat="60.78927" lon="17.20314">
        <ele>19.261974</ele>
        <time>2020-08-30T00:56:34.867Z</time>
      </trkpt>
      <trkpt lat="60.78906" lon="17.20293">
        <ele>19.315777</ele>
        <time>2020-08-30T00:56:39.233Z</time>
      </trkpt>
      <trkpt lat="60.78863" lon="17.20248">
        <ele>19.427001</ele>
        <time>2020-08-30T00:56:48.365Z</time>
      </trkpt>
      <trkpt lat="60.78762" lon="17.20177">
        <ele>19.650622</ele>
        <time>2020-08-30T00:57:08.370Z</time>
      </trkpt>
      <trkpt lat="60.78656" lon="17.20117">
        <ele>19.865072</ele>
        <time>2020-08-30T00:57:28.750Z</time>
      </trkpt>
      <trkpt lat="60.78513" lon="17.20072">
        <ele>19.908526</ele>
        <time>2020-08-30T00:57:54.651Z</time>
      </trkpt>
      <trkpt lat="60.78382" lon="17.20057">
        <ele>19.730707</ele>
        <time>2020-08-30T00:58:17.453Z</time>
      </trkpt>
      <trkpt lat="60.78179" lon="17.20059">
        <ele>19.229344</ele>
        <time>2020-08-30T00:58:52.024Z</time>
      </trkpt>
      <trkpt lat="60.78095" lon="17.20045">
        <ele>19.019092</ele>
        <time>2020-08-30T00:59:06.269Z</time>
      </trkpt>
      <trkpt lat="60.78051" lon="17.20025">
        <ele>18.961325</ele>
        <time>2020-08-30T00:59:14.003Z</time>
      </trkpt>
      <trkpt lat="60.77812" lon="17.19858">
        <ele>18.786663</ele>
        <time>2020-08-30T00:59:58.521Z</time>
      </trkpt>
      <trkpt lat="60.77734" lon="17.19796">
        <ele>18.844178</ele>
        <time>2020-08-30T01:00:13.802Z</time>
      </trkpt>
      <trkpt lat="60.77376" lon="17.19482">
        <ele>19.463826</ele>
        <time>2020-08-30T01:01:26.121Z</time>
      </trkpt>
      <trkpt lat="60.77151" lon="17.19305">
        <ele>18.698659</ele>
        <time>2020-08-30T01:02:06.751Z</time>
      </trkpt>
      <trkpt lat="60.77048" lon="17.19221">
        <ele>17.870295</ele>
        <time>2020-08-30T01:02:24.343Z</time>
      </trkpt>
      <trkpt lat="60.76991" lon="17.19182">
        <ele>17.266534</ele>
        <time>2020-08-30T01:02:33.519Z</time>
      </trkpt>
      <trkpt lat="60.76919" lon="17.19165">
        <ele>16.526053</ele>
        <time>2020-08-30T01:02:44.624Z</time>
      </trkpt>
      <trkpt lat="60.76849" lon="17.19149">
        <ele>15.781858</ele>
        <time>2020-08-30T01:02:55.306Z</time>
      </trkpt>
      <trkpt lat="60.7681" lon="17.19133">
        <ele>15.366365</ele>
        <time>2020-08-30T01:03:01.287Z</time>
      </trkpt>
      <trkpt lat="60.76778" lon="17.19115">
        <ele>15.013255</ele>
        <time>2020-08-30T01:03:06.484Z</time>
      </trkpt>
      <trkpt lat="60.76689" lon="17.19063">
        <ele>14.294593</ele>
        <time>2020-08-30T01:03:21.318Z</time>
      </trkpt>
      <trkpt lat="60.76681" lon="17.19057">
        <ele>14.240793</ele>
        <time>2020-08-30T01:03:22.634Z</time>
      </trkpt>
      <trkpt lat="60.76619" lon="17.19027">
        <ele>13.843063</ele>
        <time>2020-08-30T01:03:32.863Z</time>
      </trkpt>
      <trkpt lat="60.76608" lon="17.1901">
        <ele>13.755518</ele>
        <time>2020-08-30T01:03:35.077Z</time>
      </trkpt>
      <trkpt lat="60.76586" lon="17.19001">
        <ele>13.613767</ele>
        <time>2020-08-30T01:03:38.827Z</time>
      </trkpt>
      <trkpt lat="60.76582" lon="17.18999">
        <ele>13.587515</ele>
        <time>2020-08-30T01:03:39.466Z</time>
      </trkpt>
      <trkpt lat="60.76576" lon="17.18997">
        <ele>13.549272</ele>
        <time>2020-08-30T01:03:40.509Z</time>
      </trkpt>
      <trkpt lat="60.76575" lon="17.18953">
        <ele>13.461831</ele>
        <time>2020-08-30T01:03:44.150Z</time>
      </trkpt>
      <trkpt lat="60.76572" lon="17.18953">
        <ele>13.45001</ele>
        <time>2020-08-30T01:03:44.646Z</time>
      </trkpt>
      <trkpt lat="60.76569" lon="17.18954">
        <ele>13.436846</ele>
        <time>2020-08-30T01:03:45.157Z</time>
      </trkpt>
      <trkpt lat="60.76519" lon="17.18969">
        <ele>13.230684</ele>
        <time>2020-08-30T01:03:53.609Z</time>
      </trkpt>
      <trkpt lat="60.76454" lon="17.18941">
        <ele>12.959694</ele>
        <time>2020-08-30T01:04:04.747Z</time>
      </trkpt>
      <trkpt lat="60.76388" lon="17.18898">
        <ele>12.728249</ele>
        <time>2020-08-30T01:04:16.370Z</time>
      </trkpt>
      <trkpt lat="60.76345" lon="17.18871">
        <ele>12.609239</ele>
        <time>2020-08-30T01:04:23.994Z</time>
      </trkpt>
      <trkpt lat="60.763" lon="17.18842">
        <ele>12.483094</ele>
        <time>2020-08-30T01:04:32.092Z</time>
      </trkpt>
      <trkpt lat="60.76295" lon="17.1884">
        <ele>12.470435</ele>
        <time>2020-08-30T01:04:32.873Z</time>
      </trkpt>
      <trkpt lat="60.76236" lon="17.18819">
        <ele>12.329421</ele>
        <time>2020-08-30T01:04:43.134Z</time>
      </trkpt>
      <trkpt lat="60.76222" lon="17.18817">
        <ele>12.313225</ele>
        <time>2020-08-30T01:04:45.640Z</time>
      </trkpt>
      <trkpt lat="60.7614" lon="17.18805">
        <ele>12.223339</ele>
        <time>2020-08-30T01:04:59.805Z</time>
      </trkpt>
      <trkpt lat="60.76074" lon="17.18805">
        <ele>12.150693</ele>
        <time>2020-08-30T01:05:11.584Z</time>
      </trkpt>
      <trkpt lat="60.76002" lon="17.18823">
        <ele>12.391512</ele>
        <time>2020-08-30T01:05:24.864Z</time>
      </trkpt>
      <trkpt lat="60.75987" lon="17.18829">
        <ele>12.447367</ele>
        <time>2020-08-30T01:05:27.698Z</time>
      </trkpt>
      <trkpt lat="60.75737" lon="17.18816">
        <ele>13.82625</ele>
        <time>2020-08-30T01:06:16.734Z</time>
      </trkpt>
      <trkpt lat="60.75676" lon="17.18827">
        <ele>14.498386</ele>
        <time>2020-08-30T01:06:29.796Z</time>
      </trkpt>
      <trkpt lat="60.75628" lon="17.18835">
        <ele>15.20969</ele>
        <time>2020-08-30T01:06:40.621Z</time>
      </trkpt>
      <trkpt lat="60.75577" lon="17.18836">
        <ele>15.951832</ele>
        <time>2020-08-30T01:06:52.118Z</time>
      </trkpt>
      <trkpt lat="60.75491" lon="17.18814">
        <ele>17.103367</ele>
        <time>2020-08-30T01:07:12.790Z</time>
      </trkpt>
      <trkpt lat="60.75429" lon="17.1877">
        <ele>17.873463</ele>
        <time>2020-08-30T01:07:27.042Z</time>
      </trkpt>
      <trkpt lat="60.75429" lon="17.18769">
        <ele>17.884589</ele>
        <time>2020-08-30T01:07:27.584Z</time>
      </trkpt>
      <trkpt lat="60.75426" lon="17.18768">
        <ele>17.912796</ele>
        <time>2020-08-30T01:07:28.139Z</time>
      </trkpt>
      <trkpt lat="60.75407" lon="17.18765">
        <ele>18.143604</ele>
        <time>2020-08-30T01:07:32.143Z</time>
      </trkpt>
      <trkpt lat="60.7517" lon="17.18624">
        <ele>19.6753</ele>
        <time>2020-08-30T01:08:20.248Z</time>
      </trkpt>
      <trkpt lat="60.75075" lon="17.18588">
        <ele>19.808118</ele>
        <time>2020-08-30T01:08:37.576Z</time>
      </trkpt>
      <trkpt lat="60.74948" lon="17.18571">
        <ele>19.960604</ele>
        <time>2020-08-30T01:09:00.360Z</time>
      </trkpt>
      <trkpt lat="60.74746" lon="17.18576">
        <ele>20.133186</ele>
        <time>2020-08-30T01:09:37.256Z</time>
      </trkpt>
      <trkpt lat="60.74691" lon="17.18565">
        <ele>20.170152</ele>
        <time>2020-08-30T01:09:47.353Z</time>
      </trkpt>
      <trkpt lat="60.74689" lon="17.18559">
        <ele>20.172605</ele>
        <time>2020-08-30T01:09:48.018Z</time>
      </trkpt>
      <trkpt lat="60.74682" lon="17.18558">
        <ele>20.177003</ele>
        <time>2020-08-30T01:09:49.264Z</time>
      </trkpt>
      <trkpt lat="60.74678" lon="17.18555">
        <ele>20.179762</ele>
        <time>2020-08-30T01:09:49.970Z</time>
      </trkpt>
      <trkpt lat="60.74615" lon="17.1854">
        <ele>20.174424</ele>
        <time>2020-08-30T01:10:01.324Z</time>
      </trkpt>
      <trkpt lat="60.74607" lon="17.18536">
        <ele>20.168134</ele>
        <time>2020-08-30T01:10:02.899Z</time>
      </trkpt>
      <trkpt lat="60.74603" lon="17.18539">
        <ele>20.16545</ele>
        <time>2020-08-30T01:10:03.580Z</time>
      </trkpt>
      <trkpt lat="60.7458" lon="17.18534">
        <ele>20.148855</ele>
        <time>2020-08-30T01:10:07.731Z</time>
      </trkpt>
      <trkpt lat="60.74479" lon="17.18507">
        <ele>20.076806</ele>
        <time>2020-08-30T01:10:25.377Z</time>
      </trkpt>
      <trkpt lat="60.74429" lon="17.18494">
        <ele>20.02905</ele>
        <time>2020-08-30T01:10:34.070Z</time>
      </trkpt>
      <trkpt lat="60.74343" lon="17.18465">
        <ele>19.943257</ele>
        <time>2020-08-30T01:10:49.445Z</time>
      </trkpt>
      <trkpt lat="60.74275" lon="17.18419">
        <ele>19.831881</ele>
        <time>2020-08-30T01:11:02.092Z</time>
      </trkpt>
      <trkpt lat="60.74253" lon="17.18412">
        <ele>19.766155</ele>
        <time>2020-08-30T01:11:06.119Z</time>
      </trkpt>
      <trkpt lat="60.74141" lon="17.18414">
        <ele>19.439275</ele>
        <time>2020-08-30T01:11:25.461Z</time>
      </trkpt>
      <trkpt lat="60.74086" lon="17.18403">
        <ele>18.914208</ele>
        <time>2020-08-30T01:11:34.149Z</time>
      </trkpt>
      <trkpt lat="60.74043" lon="17.1839">
        <ele>18.304063</ele>
        <time>2020-08-30T01:11:40.609Z</time>
      </trkpt>
      <trkpt lat="60.73986" lon="17.18373">
        <ele>17.472232</ele>
        <time>2020-08-30T01:11:49.082Z</time>
      </trkpt>
      <trkpt lat="60.73941" lon="17.18352">
        <ele>16.816476</ele>
        <time>2020-08-30T01:11:55.594Z</time>
      </trkpt>
      <trkpt lat="60.73894" lon="17.18353">
        <ele>15.932048</ele>
        <time>2020-08-30T01:12:02.211Z</time>
      </trkpt>
      <trkpt lat="60.73718" lon="17.18285">
        <ele>13.334342</ele>
        <time>2020-08-30T01:12:27.717Z</time>
      </trkpt>
      <trkpt lat="60.73589" lon="17.18202">
        <ele>13.039014</ele>
        <time>2020-08-30T01:12:51.963Z</time>
      </trkpt>
      <trkpt lat="60.73532" lon="17.18148">
        <ele>14.43195</ele>
        <time>2020-08-30T01:13:07.332Z</time>
      </trkpt>
      <trkpt lat="60.73525" lon="17.18142">
        <ele>14.580351</ele>
        <time>2020-08-30T01:13:09.054Z</time>
      </trkpt>
      <trkpt lat="60.73507" lon="17.18121">
        <ele>15.037691</ele>
        <time>2020-08-30T01:13:15.716Z</time>
      </trkpt>
      <trkpt lat="60.73461" lon="17.18066">
        <ele>16.217432</ele>
        <time>2020-08-30T01:13:32.686Z</time>
      </trkpt>
      <trkpt lat="60.73442" lon="17.18036">
        <ele>16.761966</ele>
        <time>2020-08-30T01:13:40.774Z</time>
      </trkpt>
      <trkpt lat="60.73384" lon="17.17955">
        <ele>18.183873</ele>
        <time>2020-08-30T01:14:03.702Z</time>
      </trkpt>
      <trkpt lat="60.73366" lon="17.17928">
        <ele>18.62474</ele>
        <time>2020-08-30T01:14:10.237Z</time>
      </trkpt>
      <trkpt lat="60.73323" lon="17.17868">
        <ele>19.6636</ele>
        <time>2020-08-30T01:14:25.584Z</time>
      </trkpt>
      <trkpt lat="60.73317" lon="17.17857">
        <ele>19.818957</ele>
        <time>2020-08-30T01:14:27.721Z</time>
      </trkpt>
      <trkpt lat="60.73285" lon="17.17805">
        <ele>20.622204</ele>
        <time>2020-08-30T01:14:39.005Z</time>
      </trkpt>
      <trkpt lat="60.73233" lon="17.17711">
        <ele>21.512677</ele>
        <time>2020-08-30T01:14:57.519Z</time>
      </trkpt>
      <trkpt lat="60.73218" lon="17.17687">
        <ele>21.758472</ele>
        <time>2020-08-30T01:15:02.738Z</time>
      </trkpt>
      <trkpt lat="60.73189" lon="17.17636">
        <ele>22.255082</ele>
        <time>2020-08-30T01:15:13.371Z</time>
      </trkpt>
      <trkpt lat="60.73167" lon="17.1763">
        <ele>22.542412</ele>
        <time>2020-08-30T01:15:18.259Z</time>
      </trkpt>
      <trkpt lat="60.73158" lon="17.17618">
        <ele>22.676982</ele>
        <time>2020-08-30T01:15:20.634Z</time>
      </trkpt>
      <trkpt lat="60.73156" lon="17.17615">
        <ele>22.70736</ele>
        <time>2020-08-30T01:15:21.238Z</time>
      </trkpt>
      <trkpt lat="60.73153" lon="17.17588">
        <ele>22.883022</ele>
        <time>2020-08-30T01:15:24.205Z</time>
      </trkpt>
      <trkpt lat="60.73147" lon="17.17575">
        <ele>23.005815</ele>
        <time>2020-08-30T01:15:26.162Z</time>
      </trkpt>
      <trkpt lat="60.73092" lon="17.17473">
        <ele>24.123604</ele>
        <time>2020-08-30T01:15:43.280Z</time>
      </trkpt>
      <trkpt lat="60.73075" lon="17.17443">
        <ele>24.463257</ele>
        <time>2020-08-30T01:15:48.429Z</time>
      </trkpt>
      <trkpt lat="60.73051" lon="17.17403">
        <ele>24.922562</ele>
        <time>2020-08-30T01:15:55.355Z</time>
      </trkpt>
      <trkpt lat="60.73019" lon="17.17346">
        <ele>25.56975</ele>
        <time>2020-08-30T01:16:05.124Z</time>
      </trkpt>
      <trkpt lat="60.72952" lon="17.17246">
        <ele>26.276511</ele>
        <time>2020-08-30T01:16:23.182Z</time>
      </trkpt>
      <trkpt lat="60.72931" lon="17.17227">
        <ele>26.468842</ele>
        <time>2020-08-30T01:16:27.879Z</time>
      </trkpt>
      <trkpt lat="60.72918" lon="17.17216">
        <ele>26.589992</ele>
        <time>2020-08-30T01:16:30.836Z</time>
      </trkpt>
      <trkpt lat="60.729" lon="17.17194">
        <ele>26.762711</ele>
        <time>2020-08-30T01:16:34.831Z</time>
      </trkpt>
      <trkpt lat="60.72883" lon="17.17195">
        <ele>26.907752</ele>
        <time>2020-08-30T01:16:38.188Z</time>
      </trkpt>
      <trkpt lat="60.72877" lon="17.17191">
        <ele>26.960102</ele>
        <time>2020-08-30T01:16:39.388Z</time>
      </trkpt>
      <trkpt lat="60.72796" lon="17.17115">
        <ele>26.890838</ele>
        <time>2020-08-30T01:16:55.298Z</time>
      </trkpt>
      <trkpt lat="60.72738" lon="17.17058">
        <ele>26.688139</ele>
        <time>2020-08-30T01:17:06.110Z</time>
      </trkpt>
      <trkpt lat="60.72739" lon="17.17048">
        <ele>26.672553</ele>
        <time>2020-08-30T01:17:06.890Z</time>
      </trkpt>
      <trkpt lat="60.72739" lon="17.17035">
        <ele>26.653115</ele>
        <time>2020-08-30T01:17:07.840Z</time>
      </trkpt>
      <trkpt lat="60.7268" lon="17.1703">
        <ele>26.314057</ele>
        <time>2020-08-30T01:17:17.019Z</time>
      </trkpt>
      <trkpt lat="60.72647" lon="17.1703">
        <ele>25.994715</ele>
        <time>2020-08-30T01:17:22.162Z</time>
      </trkpt>
      <trkpt lat="60.72624" lon="17.17027">
        <ele>25.771374</ele>
        <time>2020-08-30T01:17:25.761Z</time>
      </trkpt>
      <trkpt lat="60.72602" lon="17.17022">
        <ele>25.56654</ele>
        <time>2020-08-30T01:17:29.060Z</time>
      </trkpt>
      <trkpt lat="60.72598" lon="17.17019">
        <ele>25.528036</ele>
        <time>2020-08-30T01:17:29.667Z</time>
      </trkpt>
      <trkpt lat="60.72595" lon="17.17015">
        <ele>25.491102</ele>
        <time>2020-08-30T01:17:30.262Z</time>
      </trkpt>
      <trkpt lat="60.72592" lon="17.17016">
        <ele>25.461185</ele>
        <time>2020-08-30T01:17:30.752Z</time>
      </trkpt>
      <trkpt lat="60.72589" lon="17.17018">
        <ele>25.428628</ele>
        <time>2020-08-30T01:17:31.292Z</time>
      </trkpt>
      <trkpt lat="60.72589" lon="17.1702">
        <ele>25.416472</ele>
        <time>2020-08-30T01:17:31.493Z</time>
      </trkpt>
      <trkpt lat="60.72583" lon="17.17023">
        <ele>25.362114</ele>
        <time>2020-08-30T01:17:32.362Z</time>
      </trkpt>
      <trkpt lat="60.72543" lon="17.17029">
        <ele>24.976833</ele>
        <time>2020-08-30T01:17:38.714Z</time>
      </trkpt>
      <trkpt lat="60.72504" lon="17.17037">
        <ele>24.632792</ele>
        <time>2020-08-30T01:17:44.862Z</time>
      </trkpt>
      <trkpt lat="60.72457" lon="17.17043">
        <ele>24.237846</ele>
        <time>2020-08-30T01:17:52.224Z</time>
      </trkpt>
      <trkpt lat="60.72444" lon="17.17046">
        <ele>24.126305</ele>
        <time>2020-08-30T01:17:54.332Z</time>
      </trkpt>
      <trkpt lat="60.72421" lon="17.17046">
        <ele>23.93138</ele>
        <time>2020-08-30T01:17:58.014Z</time>
      </trkpt>
      <trkpt lat="60.72362" lon="17.17042">
        <ele>23.433789</ele>
        <time>2020-08-30T01:18:07.405Z</time>
      </trkpt>
      <trkpt lat="60.72331" lon="17.17041">
        <ele>23.157318</ele>
        <time>2020-08-30T01:18:12.226Z</time>
      </trkpt>
      <trkpt lat="60.7227" lon="17.17046">
        <ele>22.577902</ele>
        <time>2020-08-30T01:18:21.703Z</time>
      </trkpt>
      <trkpt lat="60.72215" lon="17.17057">
        <ele>22.054144</ele>
        <time>2020-08-30T01:18:30.311Z</time>
      </trkpt>
      <trkpt lat="60.72208" lon="17.17058">
        <ele>21.986677</ele>
        <time>2020-08-30T01:18:31.398Z</time>
      </trkpt>
      <trkpt lat="60.72196" lon="17.1706">
        <ele>21.874524</ele>
        <time>2020-08-30T01:18:33.181Z</time>
      </trkpt>
      <trkpt lat="60.72181" lon="17.17063">
        <ele>21.731762</ele>
        <time>2020-08-30T01:18:35.580Z</time>
      </trkpt>
      <trkpt lat="60.72177" lon="17.17061">
        <ele>21.693303</ele>
        <time>2020-08-30T01:18:36.198Z</time>
      </trkpt>
      <trkpt lat="60.72161" lon="17.1706">
        <ele>21.562559</ele>
        <time>2020-08-30T01:18:38.635Z</time>
      </trkpt>
      <trkpt lat="60.72131" lon="17.17075">
        <ele>21.348096</ele>
        <time>2020-08-30T01:18:43.548Z</time>
      </trkpt>
      <trkpt lat="60.72087" lon="17.17073">
        <ele>21.041965</ele>
        <time>2020-08-30T01:18:50.537Z</time>
      </trkpt>
      <trkpt lat="60.72016" lon="17.1706">
        <ele>20.552662</ele>
        <time>2020-08-30T01:19:02.021Z</time>
      </trkpt>
      <trkpt lat="60.71956" lon="17.17033">
        <ele>20.310004</ele>
        <time>2020-08-30T01:19:12.373Z</time>
      </trkpt>
      <trkpt lat="60.71881" lon="17.16983">
        <ele>20.16367</ele>
        <time>2020-08-30T01:19:25.949Z</time>
      </trkpt>
      <trkpt lat="60.71808" lon="17.16888">
        <ele>20.067184</ele>
        <time>2020-08-30T01:19:41.191Z</time>
      </trkpt>
      <trkpt lat="60.71802" lon="17.16863">
        <ele>20.084235</ele>
        <time>2020-08-30T01:19:43.659Z</time>
      </trkpt>
      <trkpt lat="60.71777" lon="17.16831">
        <ele>20.119775</ele>
        <time>2020-08-30T01:19:48.805Z</time>
      </trkpt>
      <trkpt lat="60.71687" lon="17.16749">
        <ele>20.240122</ele>
        <time>2020-08-30T01:20:06.570Z</time>
      </trkpt>
      <trkpt lat="60.71656" lon="17.1672">
        <ele>20.463526</ele>
        <time>2020-08-30T01:20:13.188Z</time>
      </trkpt>
      <trkpt lat="60.71639" lon="17.16698">
        <ele>20.711936</ele>
        <time>2020-08-30T01:20:17.381Z</time>
      </trkpt>
      <trkpt lat="60.71635" lon="17.16695">
        <ele>20.760782</ele>
        <time>2020-08-30T01:20:18.152Z</time>
      </trkpt>
      <trkpt lat="60.71624" lon="17.16689">
        <ele>20.901215</ele>
        <time>2020-08-30T01:20:20.439Z</time>
      </trkpt>
      <trkpt lat="60.71589" lon="17.16666">
        <ele>21.339938</ele>
        <time>2020-08-30T01:20:27.962Z</time>
      </trkpt>
      <trkpt lat="60.71582" lon="17.16651">
        <ele>21.471125</ele>
        <time>2020-08-30T01:20:30.513Z</time>
      </trkpt>
      <trkpt lat="60.7151" lon="17.166">
        <ele>22.39844</ele>
        <time>2020-08-30T01:20:48.356Z</time>
      </trkpt>
      <trkpt lat="60.71456" lon="17.16586">
        <ele>23.236387</ele>
        <time>2020-08-30T01:21:01.365Z</time>
      </trkpt>
      <trkpt lat="60.71376" lon="17.16564">
        <ele>24.518387</ele>
        <time>2020-08-30T01:21:21.096Z</time>
      </trkpt>
      <trkpt lat="60.71307" lon="17.16538">
        <ele>25.085562</ele>
        <time>2020-08-30T01:21:35.817Z</time>
      </trkpt>
      <trkpt lat="60.71268" lon="17.1652">
        <ele>24.708601</ele>
        <time>2020-08-30T01:21:42.705Z</time>
      </trkpt>
      <trkpt lat="60.71235" lon="17.16506">
        <ele>24.387175</ele>
        <time>2020-08-30T01:21:47.960Z</time>
      </trkpt>
      <trkpt lat="60.71227" lon="17.16498">
        <ele>24.30353</ele>
        <time>2020-08-30T01:21:49.233Z</time>
      </trkpt>
      <trkpt lat="60.71204" lon="17.16485">
        <ele>24.072701</ele>
        <time>2020-08-30T01:21:52.734Z</time>
      </trkpt>
      <trkpt lat="60.71175" lon="17.1647">
        <ele>23.790723</ele>
        <time>2020-08-30T01:21:56.860Z</time>
      </trkpt>
      <trkpt lat="60.71047" lon="17.16366">
        <ele>21.101496</ele>
        <time>2020-08-30T01:22:15.741Z</time>
      </trkpt>
      <trkpt lat="60.7092" lon="17.16273">
        <ele>18.767027</ele>
        <time>2020-08-30T01:22:35.182Z</time>
      </trkpt>
      <trkpt lat="60.70905" lon="17.16263">
        <ele>18.554481</ele>
        <time>2020-08-30T01:22:37.571Z</time>
      </trkpt>
      <trkpt lat="60.70864" lon="17.16233">
        <ele>17.969158</ele>
        <time>2020-08-30T01:22:44.192Z</time>
      </trkpt>
      <trkpt lat="60.70854" lon="17.16229">
        <ele>17.821071</ele>
        <time>2020-08-30T01:22:45.894Z</time>
      </trkpt>
      <trkpt lat="60.70794" lon="17.1618">
        <ele>17.032407</ele>
        <time>2020-08-30T01:22:55.854Z</time>
      </trkpt>
      <trkpt lat="60.70775" lon="17.16165">
        <ele>16.833184</ele>
        <time>2020-08-30T01:22:58.896Z</time>
      </trkpt>
      <trkpt lat="60.70763" lon="17.16148">
        <ele>16.68133</ele>
        <time>2020-08-30T01:23:01.191Z</time>
      </trkpt>
      <trkpt lat="60.70737" lon="17.16127">
        <ele>16.401145</ele>
        <time>2020-08-30T01:23:05.493Z</time>
      </trkpt>
      <trkpt lat="60.70735" lon="17.16125">
        <ele>16.378963</ele>
        <time>2020-08-30T01:23:05.805Z</time>
      </trkpt>
      <trkpt lat="60.70718" lon="17.16122">
        <ele>16.204571</ele>
        <time>2020-08-30T01:23:08.510Z</time>
      </trkpt>
      <trkpt lat="60.70692" lon="17.16102">
        <ele>15.923108</ele>
        <time>2020-08-30T01:23:12.802Z</time>
      </trkpt>
      <trkpt lat="60.70548" lon="17.15993">
        <ele>14.31635</ele>
        <time>2020-08-30T01:23:36.546Z</time>
      </trkpt>
      <trkpt lat="60.70521" lon="17.15972">
        <ele>14.004531</ele>
        <time>2020-08-30T01:23:41.007Z</time>
      </trkpt>
      <trkpt lat="60.70485" lon="17.15944">
        <ele>13.594201</ele>
        <time>2020-08-30T01:23:46.867Z</time>
      </trkpt>
      <trkpt lat="60.7046" lon="17.15927">
        <ele>13.279832</ele>
        <time>2020-08-30T01:23:50.829Z</time>
      </trkpt>
      <trkpt lat="60.70393" lon="17.15878">
        <ele>12.431168</ele>
        <time>2020-08-30T01:24:01.404Z</time>
      </trkpt>
      <trkpt lat="60.70346" lon="17.15846">
        <ele>11.8221</ele>
        <time>2020-08-30T01:24:09.039Z</time>
      </trkpt>
      <trkpt lat="60.70337" lon="17.15841">
        <ele>11.719165</ele>
        <time>2020-08-30T01:24:10.290Z</time>
      </trkpt>
      <trkpt lat="60.70265" lon="17.15791">
        <ele>11.092265</ele>
        <time>2020-08-30T01:24:22.011Z</time>
      </trkpt>
      <trkpt lat="60.70258" lon="17.15783">
        <ele>11.039689</ele>
        <time>2020-08-30T01:24:23.410Z</time>
      </trkpt>
      <trkpt lat="60.70235" lon="17.15758">
        <ele>10.884488</ele>
        <time>2020-08-30T01:24:27.594Z</time>
      </trkpt>
      <trkpt lat="60.70201" lon="17.15701">
        <ele>10.626456</ele>
        <time>2020-08-30T01:24:34.631Z</time>
      </trkpt>
      <trkpt lat="60.70177" lon="17.15639">
        <ele>10.394028</ele>
        <time>2020-08-30T01:24:41.274Z</time>
      </trkpt>
      <trkpt lat="60.70143" lon="17.15552">
        <ele>10.290631</ele>
        <time>2020-08-30T01:24:50.771Z</time>
      </trkpt>
      <trkpt lat="60.7013" lon="17.15519">
        <ele>10.283378</ele>
        <time>2020-08-30T01:24:54.478Z</time>
      </trkpt>
      <trkpt lat="60.70127" lon="17.1551">
        <ele>10.281535</ele>
        <time>2020-08-30T01:24:55.417Z</time>
      </trkpt>
      <trkpt lat="60.70123" lon="17.15501">
        <ele>10.279474</ele>
        <time>2020-08-30T01:24:56.465Z</time>
      </trkpt>
      <trkpt lat="60.70117" lon="17.15484">
        <ele>10.275795</ele>
        <time>2020-08-30T01:24:58.343Z</time>
      </trkpt>
      <trkpt lat="60.7011" lon="17.15464">
        <ele>10.271564</ele>
        <time>2020-08-30T01:25:00.553Z</time>
      </trkpt>
      <trkpt lat="60.70108" lon="17.15455">
        <ele>10.269867</ele>
        <time>2020-08-30T01:25:01.414Z</time>
      </trkpt>
      <trkpt lat="60.70101" lon="17.1543">
        <ele>10.264955</ele>
        <time>2020-08-30T01:25:03.933Z</time>
      </trkpt>
      <trkpt lat="60.70096" lon="17.15416">
        <ele>10.26198</ele>
        <time>2020-08-30T01:25:05.442Z</time>
      </trkpt>
      <trkpt lat="60.7009" lon="17.15401">
        <ele>10.258684</ele>
        <time>2020-08-30T01:25:07.187Z</time>
      </trkpt>
      <trkpt lat="60.70079" lon="17.15382">
        <ele>10.253466</ele>
        <time>2020-08-30T01:25:09.867Z</time>
      </trkpt>
      <trkpt lat="60.70053" lon="17.15352">
        <ele>10.243097</ele>
        <time>2020-08-30T01:25:15.213Z</time>
      </trkpt>
      <trkpt lat="60.7004" lon="17.15349">
        <ele>10.244333</ele>
        <time>2020-08-30T01:25:17.586Z</time>
      </trkpt>
      <trkpt lat="60.70027" lon="17.15345">
        <ele>10.248515</ele>
        <time>2020-08-30T01:25:19.963Z</time>
      </trkpt>
      <trkpt lat="60.7002" lon="17.15349">
        <ele>10.250826</ele>
        <time>2020-08-30T01:25:21.230Z</time>
      </trkpt>
      <trkpt lat="60.6993" lon="17.15365">
        <ele>10.279657</ele>
        <time>2020-08-30T01:25:37.415Z</time>
      </trkpt>
      <trkpt lat="60.69902" lon="17.15367">
        <ele>10.28888</ele>
        <time>2020-08-30T01:25:42.578Z</time>
      </trkpt>
      <trkpt lat="60.69809" lon="17.15365">
        <ele>10.134872</ele>
        <time>2020-08-30T01:25:59.060Z</time>
      </trkpt>
      <trkpt lat="60.6979" lon="17.15363">
        <ele>10.082585</ele>
        <time>2020-08-30T01:26:02.346Z</time>
      </trkpt>
      <trkpt lat="60.69744" lon="17.15349">
        <ele>9.952617</ele>
        <time>2020-08-30T01:26:10.453Z</time>
      </trkpt>
      <trkpt lat="60.69702" lon="17.1533">
        <ele>9.834571</ele>
        <time>2020-08-30T01:26:17.655Z</time>
      </trkpt>
      <trkpt lat="60.69429" lon="17.1516">
        <ele>7.490387</ele>
        <time>2020-08-30T01:27:02.077Z</time>
      </trkpt>
      <trkpt lat="60.69367" lon="17.15117">
        <ele>7.002068</ele>
        <time>2020-08-30T01:27:12.552Z</time>
      </trkpt>
      <trkpt lat="60.69346" lon="17.15103">
        <ele>6.850347</ele>
        <time>2020-08-30T01:27:16.232Z</time>
      </trkpt>
      <trkpt lat="60.69329" lon="17.15072">
        <ele>6.799293</ele>
        <time>2020-08-30T01:27:20.129Z</time>
      </trkpt>
      <trkpt lat="60.69311" lon="17.15003">
        <ele>6.714184</ele>
        <time>2020-08-30T01:27:26.513Z</time>
      </trkpt>
      <trkpt lat="60.6931" lon="17.14934">
        <ele>6.638941</ele>
        <time>2020-08-30T01:27:32.239Z</time>
      </trkpt>
      <trkpt lat="60.69318" lon="17.14901">
        <ele>6.59894</ele>
        <time>2020-08-30T01:27:35.344Z</time>
      </trkpt>
      <trkpt lat="60.69326" lon="17.1489">
        <ele>6.577199</ele>
        <time>2020-08-30T01:27:37.037Z</time>
      </trkpt>
      <trkpt lat="60.69327" lon="17.14882">
        <ele>6.567768</ele>
        <time>2020-08-30T01:27:37.813Z</time>
      </trkpt>
      <trkpt lat="60.69329" lon="17.1487">
        <ele>6.553631</ele>
        <time>2020-08-30T01:27:38.981Z</time>
      </trkpt>
      <trkpt lat="60.6933" lon="17.14861">
        <ele>6.543636</ele>
        <time>2020-08-30T01:27:39.808Z</time>
      </trkpt>
      <trkpt lat="60.69325" lon="17.14849">
        <ele>6.52631</ele>
        <time>2020-08-30T01:27:41.196Z</time>
      </trkpt>
      <trkpt lat="60.69322" lon="17.14828">
        <ele>6.503173</ele>
        <time>2020-08-30T01:27:42.983Z</time>
      </trkpt>
      <trkpt lat="60.69317" lon="17.14822">
        <ele>6.488363</ele>
        <time>2020-08-30T01:27:44.178Z</time>
      </trkpt>
      <trkpt lat="60.69308" lon="17.14811">
        <ele>6.465472</ele>
        <time>2020-08-30T01:27:46.023Z</time>
      </trkpt>
      <trkpt lat="60.693" lon="17.14798">
        <ele>6.470593</ele>
        <time>2020-08-30T01:27:47.749Z</time>
      </trkpt>
      <trkpt lat="60.69295" lon="17.14818">
        <ele>6.511744</ele>
        <time>2020-08-30T01:27:49.677Z</time>
      </trkpt>
      <trkpt lat="60.69225" lon="17.14829">
        <ele>6.770931</ele>
        <time>2020-08-30T01:28:02.514Z</time>
      </trkpt>
      <trkpt lat="60.69203" lon="17.14853">
        <ele>6.863678</ele>
        <time>2020-08-30T01:28:07.318Z</time>
      </trkpt>
      <trkpt lat="60.69175" lon="17.14885">
        <ele>6.984482</ele>
        <time>2020-08-30T01:28:13.446Z</time>
      </trkpt>
      <trkpt lat="60.69166" lon="17.14883">
        <ele>7.019057</ele>
        <time>2020-08-30T01:28:15.248Z</time>
      </trkpt>
      <trkpt lat="60.69152" lon="17.14853">
        <ele>7.095836</ele>
        <time>2020-08-30T01:28:19.265Z</time>
      </trkpt>
      <trkpt lat="60.69138" lon="17.14822">
        <ele>7.253848</ele>
        <time>2020-08-30T01:28:23.501Z</time>
      </trkpt>
      <trkpt lat="60.69018" lon="17.14569">
        <ele>8.968668</ele>
        <time>2020-08-30T01:29:00.562Z</time>
      </trkpt>
      <trkpt lat="60.68823" lon="17.14179">
        <ele>10.516044</ele>
        <time>2020-08-30T01:29:54.793Z</time>
      </trkpt>
      <trkpt lat="60.68761" lon="17.14068">
        <ele>10.784858</ele>
        <time>2020-08-30T01:30:09.803Z</time>
      </trkpt>
      <trkpt lat="60.68655" lon="17.13902">
        <ele>10.326719</ele>
        <time>2020-08-30T01:30:32.163Z</time>
      </trkpt>
      <trkpt lat="60.68622" lon="17.13827">
        <ele>10.150019</ele>
        <time>2020-08-30T01:30:40.305Z</time>
      </trkpt>
      <trkpt lat="60.68618" lon="17.13832">
        <ele>10.125174</ele>
        <time>2020-08-30T01:30:41.097Z</time>
      </trkpt>
      <trkpt lat="60.68609" lon="17.13847">
        <ele>10.06548</ele>
        <time>2020-08-30T01:30:42.993Z</time>
      </trkpt>
      <trkpt lat="60.68598" lon="17.13862">
        <ele>10.000316</ele>
        <time>2020-08-30T01:30:45.058Z</time>
      </trkpt>
      <trkpt lat="60.6858" lon="17.13864">
        <ele>9.907554</ele>
        <time>2020-08-30T01:30:48.062Z</time>
      </trkpt>
      <trkpt lat="60.68539" lon="17.13841">
        <ele>9.688584</ele>
        <time>2020-08-30T01:30:55.056Z</time>
      </trkpt>
      <trkpt lat="60.68531" lon="17.13837">
        <ele>9.648098</ele>
        <time>2020-08-30T01:30:56.341Z</time>
      </trkpt>
      <trkpt lat="60.68521" lon="17.13833">
        <ele>9.592132</ele>
        <time>2020-08-30T01:30:58.168Z</time>
      </trkpt>
      <trkpt lat="60.6848" lon="17.13811">
        <ele>9.377523</ele>
        <time>2020-08-30T01:31:05.034Z</time>
      </trkpt>
      <trkpt lat="60.684" lon="17.13769">
        <ele>9.078014</ele>
        <time>2020-08-30T01:31:18.744Z</time>
      </trkpt>
      <trkpt lat="60.68349" lon="17.13742">
        <ele>8.918587</ele>
        <time>2020-08-30T01:31:27.868Z</time>
      </trkpt>
      <trkpt lat="60.68334" lon="17.13739">
        <ele>8.874714</ele>
        <time>2020-08-30T01:31:30.385Z</time>
      </trkpt>
      <trkpt lat="60.68321" lon="17.13733">
        <ele>8.834328</ele>
        <time>2020-08-30T01:31:32.699Z</time>
      </trkpt>
      <trkpt lat="60.68285" lon="17.13736">
        <ele>8.726047</ele>
        <time>2020-08-30T01:31:38.924Z</time>
      </trkpt>
      <trkpt lat="60.6826" lon="17.13736">
        <ele>8.664044</ele>
        <time>2020-08-30T01:31:43.136Z</time>
      </trkpt>
      <trkpt lat="60.68232" lon="17.13734">
        <ele>8.595617</ele>
        <time>2020-08-30T01:31:48.013Z</time>
      </trkpt>
      <trkpt lat="60.68115" lon="17.13732">
        <ele>8.313656</ele>
        <time>2020-08-30T01:32:08.044Z</time>
      </trkpt>
      <trkpt lat="60.68076" lon="17.13776">
        <ele>8.183053</ele>
        <time>2020-08-30T01:32:15.639Z</time>
      </trkpt>
      <trkpt lat="60.68064" lon="17.13789">
        <ele>8.139192</ele>
        <time>2020-08-30T01:32:17.899Z</time>
      </trkpt>
      <trkpt lat="60.6806" lon="17.13784">
        <ele>8.124058</ele>
        <time>2020-08-30T01:32:18.717Z</time>
      </trkpt>
      <trkpt lat="60.68055" lon="17.13778">
        <ele>8.105905</ele>
        <time>2020-08-30T01:32:19.686Z</time>
      </trkpt>
      <trkpt lat="60.6805" lon="17.13781">
        <ele>8.086493</ele>
        <time>2020-08-30T01:32:20.707Z</time>
      </trkpt>
      <trkpt lat="60.68044" lon="17.13784">
        <ele>8.066451</ele>
        <time>2020-08-30T01:32:21.750Z</time>
      </trkpt>
      <trkpt lat="60.68037" lon="17.13788">
        <ele>8.044939</ele>
        <time>2020-08-30T01:32:22.857Z</time>
      </trkpt>
      <trkpt lat="60.68035" lon="17.13793">
        <ele>8.03426</ele>
        <time>2020-08-30T01:32:23.404Z</time>
      </trkpt>
      <trkpt lat="60.68031" lon="17.1381">
        <ele>8.003861</ele>
        <time>2020-08-30T01:32:25.000Z</time>
      </trkpt>
      <trkpt lat="60.68029" lon="17.13831">
        <ele>7.970662</ele>
        <time>2020-08-30T01:32:26.742Z</time>
      </trkpt>
      <trkpt lat="60.6803" lon="17.13847">
        <ele>7.944534</ele>
        <time>2020-08-30T01:32:28.074Z</time>
      </trkpt>
      <trkpt lat="60.68006" lon="17.13851">
        <ele>7.867428</ele>
        <time>2020-08-30T01:32:32.038Z</time>
      </trkpt>
      <trkpt lat="60.67977" lon="17.13865">
        <ele>7.77043</ele>
        <time>2020-08-30T01:32:36.995Z</time>
      </trkpt>
      <trkpt lat="60.67973" lon="17.13869">
        <ele>7.755613</ele>
        <time>2020-08-30T01:32:37.784Z</time>
      </trkpt>
      <trkpt lat="60.67908" lon="17.1394">
        <ele>7.381102</ele>
        <time>2020-08-30T01:32:50.060Z</time>
      </trkpt>
      <trkpt lat="60.67897" lon="17.13951">
        <ele>7.307775</ele>
        <time>2020-08-30T01:32:52.169Z</time>
      </trkpt>
      <trkpt lat="60.67888" lon="17.13961">
        <ele>7.250883</ele>
        <time>2020-08-30T01:32:53.787Z</time>
      </trkpt>
      <trkpt lat="60.6782" lon="17.14033">
        <ele>6.808678</ele>
        <time>2020-08-30T01:33:06.294Z</time>
      </trkpt>
      <trkpt lat="60.67809" lon="17.14045">
        <ele>6.739243</ele>
        <time>2020-08-30T01:33:08.250Z</time>
      </trkpt>
      <trkpt lat="60.67734" lon="17.14133">
        <ele>6.083084</ele>
        <time>2020-08-30T01:33:22.023Z</time>
      </trkpt>
      <trkpt lat="60.67729" lon="17.14138">
        <ele>6.038192</ele>
        <time>2020-08-30T01:33:22.923Z</time>
      </trkpt>
      <trkpt lat="60.67719" lon="17.14148">
        <ele>5.947845</ele>
        <time>2020-08-30T01:33:24.729Z</time>
      </trkpt>
      <trkpt lat="60.67714" lon="17.14153">
        <ele>5.907376</ele>
        <time>2020-08-30T01:33:25.538Z</time>
      </trkpt>
      <trkpt lat="60.67642" lon="17.14229">
        <ele>5.260378</ele>
        <time>2020-08-30T01:33:38.309Z</time>
      </trkpt>
      <trkpt lat="60.67632" lon="17.14238">
        <ele>5.203216</ele>
        <time>2020-08-30T01:33:39.925Z</time>
      </trkpt>
      <trkpt lat="60.67561" lon="17.14312">
        <ele>4.839977</ele>
        <time>2020-08-30T01:33:52.664Z</time>
      </trkpt>
      <trkpt lat="60.67555" lon="17.14319">
        <ele>4.80677</ele>
        <time>2020-08-30T01:33:53.843Z</time>
      </trkpt>
      <trkpt lat="60.67549" lon="17.14324">
        <ele>4.775696</ele>
        <time>2020-08-30T01:33:54.952Z</time>
      </trkpt>
      <trkpt lat="60.67541" lon="17.14329">
        <ele>4.740148</ele>
        <time>2020-08-30T01:33:56.222Z</time>
      </trkpt>
      <trkpt lat="60.67534" lon="17.14336">
        <ele>4.705206</ele>
        <time>2020-08-30T01:33:57.481Z</time>
      </trkpt>
      <trkpt lat="60.67509" lon="17.14364">
        <ele>4.571534</ele>
        <time>2020-08-30T01:34:02.359Z</time>
      </trkpt>
      <trkpt lat="60.67475" lon="17.14401">
        <ele>4.462189</ele>
        <time>2020-08-30T01:34:09.092Z</time>
      </trkpt>
      <trkpt lat="60.67398" lon="17.1448">
        <ele>5.392426</ele>
        <time>2020-08-30T01:34:26.372Z</time>
      </trkpt>
      <trkpt lat="60.67393" lon="17.14485">
        <ele>5.448974</ele>
        <time>2020-08-30T01:34:27.479Z</time>
      </trkpt>
      <trkpt lat="60.6737" lon="17.1451">
        <ele>5.732584</ele>
        <time>2020-08-30T01:34:33.267Z</time>
      </trkpt>
      <trkpt lat="60.67368" lon="17.14502">
        <ele>5.7787</ele>
        <time>2020-08-30T01:34:34.217Z</time>
      </trkpt>
      <trkpt lat="60.67365" lon="17.14491">
        <ele>5.8419</ele>
        <time>2020-08-30T01:34:35.743Z</time>
      </trkpt>
      <trkpt lat="60.67353" lon="17.14503">
        <ele>5.985332</ele>
        <time>2020-08-30T01:34:38.902Z</time>
      </trkpt>
      <trkpt lat="60.67346" lon="17.14509">
        <ele>6.06404</ele>
        <time>2020-08-30T01:34:40.574Z</time>
      </trkpt>
      <trkpt lat="60.67346" lon="17.14511">
        <ele>6.078966</ele>
        <time>2020-08-30T01:34:40.888Z</time>
      </trkpt>
      <trkpt lat="60.67344" lon="17.14514">
        <ele>6.103095</ele>
        <time>2020-08-30T01:34:41.396Z</time>
      </trkpt>
      <trkpt lat="60.6732" lon="17.14541">
        <ele>6.423767</ele>
        <time>2020-08-30T01:34:47.951Z</time>
      </trkpt>
      <trkpt lat="60.6731" lon="17.14552">
        <ele>6.652486</ele>
        <time>2020-08-30T01:34:50.699Z</time>
      </trkpt>
      <trkpt lat="60.67241" lon="17.14624">
        <ele>8.15159</ele>
        <time>2020-08-30T01:35:09.631Z</time>
      </trkpt>
      <trkpt lat="60.67236" lon="17.14625">
        <ele>8.253384</ele>
        <time>2020-08-30T01:35:11.238Z</time>
      </trkpt>
      <trkpt lat="60.67224" lon="17.14637">
        <ele>8.508973</ele>
        <time>2020-08-30T01:35:14.417Z</time>
      </trkpt>
      <trkpt lat="60.67219" lon="17.14642">
        <ele>8.619452</ele>
        <time>2020-08-30T01:35:15.780Z</time>
      </trkpt>
      <trkpt lat="60.67216" lon="17.1465">
        <ele>8.711233</ele>
        <time>2020-08-30T01:35:16.932Z</time>
      </trkpt>
      <trkpt lat="60.6713" lon="17.1474">
        <ele>10.275415</ele>
        <time>2020-08-30T01:35:39.670Z</time>
      </trkpt>
      <trkpt lat="60.67115" lon="17.14756">
        <ele>10.457483</ele>
        <time>2020-08-30T01:35:43.208Z</time>
      </trkpt>
      <trkpt lat="60.67089" lon="17.14783">
        <ele>10.771147</ele>
        <time>2020-08-30T01:35:49.543Z</time>
      </trkpt>
      <trkpt lat="60.67075" lon="17.14798">
        <ele>10.940172</ele>
        <time>2020-08-30T01:35:52.688Z</time>
      </trkpt>
      <trkpt lat="60.6704" lon="17.14833">
        <ele>11.362791</ele>
        <time>2020-08-30T01:36:00.563Z</time>
      </trkpt>
      <trkpt lat="60.67036" lon="17.14833">
        <ele>11.401919</ele>
        <time>2020-08-30T01:36:01.310Z</time>
      </trkpt>
      <trkpt lat="60.6703" lon="17.1484">
        <ele>11.480403</ele>
        <time>2020-08-30T01:36:02.776Z</time>
      </trkpt>
      <trkpt lat="60.6702" lon="17.14851">
        <ele>11.60695</ele>
        <time>2020-08-30T01:36:05.168Z</time>
      </trkpt>
      <trkpt lat="60.67018" lon="17.14857">
        <ele>11.647615</ele>
        <time>2020-08-30T01:36:05.915Z</time>
      </trkpt>
      <trkpt lat="60.67012" lon="17.14869">
        <ele>11.73344</ele>
        <time>2020-08-30T01:36:07.498Z</time>
      </trkpt>
      <trkpt lat="60.67004" lon="17.14878">
        <ele>11.824496</ele>
        <time>2020-08-30T01:36:09.415Z</time>
      </trkpt>
      <trkpt lat="60.6698" lon="17.14901">
        <ele>11.998093</ele>
        <time>2020-08-30T01:36:14.707Z</time>
      </trkpt>
      <trkpt lat="60.66973" lon="17.14908">
        <ele>12.050123</ele>
        <time>2020-08-30T01:36:16.328Z</time>
      </trkpt>
      <trkpt lat="60.66965" lon="17.14916">
        <ele>12.111871</ele>
        <time>2020-08-30T01:36:18.180Z</time>
      </trkpt>
      <trkpt lat="60.66865" lon="17.1502">
        <ele>12.855045</ele>
        <time>2020-08-30T01:36:40.434Z</time>
      </trkpt>
      <trkpt lat="60.66858" lon="17.15028">
        <ele>12.907873</ele>
        <time>2020-08-30T01:36:42.047Z</time>
      </trkpt>
      <trkpt lat="60.66845" lon="17.1504">
        <ele>12.998795</ele>
        <time>2020-08-30T01:36:44.845Z</time>
      </trkpt>
      <trkpt lat="60.66831" lon="17.15055">
        <ele>13.082351</ele>
        <time>2020-08-30T01:36:48.066Z</time>
      </trkpt>
      <trkpt lat="60.66814" lon="17.15074">
        <ele>13.183869</ele>
        <time>2020-08-30T01:36:51.967Z</time>
      </trkpt>
      <trkpt lat="60.66754" lon="17.15129">
        <ele>13.525057</ele>
        <time>2020-08-30T01:37:04.728Z</time>
      </trkpt>
      <trkpt lat="60.66747" lon="17.15125">
        <ele>13.562835</ele>
        <time>2020-08-30T01:37:06.149Z</time>
      </trkpt>
      <trkpt lat="60.66742" lon="17.1513">
        <ele>13.588299</ele>
        <time>2020-08-30T01:37:07.117Z</time>
      </trkpt>
      <trkpt lat="60.66734" lon="17.15138">
        <ele>13.636689</ele>
        <time>2020-08-30T01:37:08.892Z</time>
      </trkpt>
      <trkpt lat="60.66726" lon="17.15149">
        <ele>13.686693</ele>
        <time>2020-08-30T01:37:10.723Z</time>
      </trkpt>
      <trkpt lat="60.66724" lon="17.15152">
        <ele>13.699592</ele>
        <time>2020-08-30T01:37:11.205Z</time>
      </trkpt>
      <trkpt lat="60.6671" lon="17.15171">
        <ele>13.78639</ele>
        <time>2020-08-30T01:37:14.493Z</time>
      </trkpt>
      <trkpt lat="60.66674" lon="17.15203">
        <ele>13.968341</ele>
        <time>2020-08-30T01:37:22.088Z</time>
      </trkpt>
      <trkpt lat="60.66628" lon="17.15241">
        <ele>14.120836</ele>
        <time>2020-08-30T01:37:31.464Z</time>
      </trkpt>
      <trkpt lat="60.66596" lon="17.15267">
        <ele>14.227595</ele>
        <time>2020-08-30T01:37:38.064Z</time>
      </trkpt>
      <trkpt lat="60.66587" lon="17.15275">
        <ele>14.258426</ele>
        <time>2020-08-30T01:37:39.982Z</time>
      </trkpt>
      <trkpt lat="60.66566" lon="17.15294">
        <ele>14.329294</ele>
        <time>2020-08-30T01:37:44.229Z</time>
      </trkpt>
      <trkpt lat="60.66555" lon="17.15304">
        <ele>14.365001</ele>
        <time>2020-08-30T01:37:46.394Z</time>
      </trkpt>
      <trkpt lat="60.66517" lon="17.15335">
        <ele>14.487261</ele>
        <time>2020-08-30T01:37:54.003Z</time>
      </trkpt>
      <trkpt lat="60.66495" lon="17.15353">
        <ele>14.453713</ele>
        <time>2020-08-30T01:37:58.315Z</time>
      </trkpt>
      <trkpt lat="60.6649" lon="17.15357">
        <ele>14.446716</ele>
        <time>2020-08-30T01:37:59.264Z</time>
      </trkpt>
      <trkpt lat="60.6648" lon="17.15361">
        <ele>14.431598</ele>
        <time>2020-08-30T01:38:01.213Z</time>
      </trkpt>
      <trkpt lat="60.66473" lon="17.15367">
        <ele>14.42154</ele>
        <time>2020-08-30T01:38:02.545Z</time>
      </trkpt>
      <trkpt lat="60.66467" lon="17.15374">
        <ele>14.410864</ele>
        <time>2020-08-30T01:38:03.871Z</time>
      </trkpt>
      <trkpt lat="60.66462" lon="17.15391">
        <ele>14.397328</ele>
        <time>2020-08-30T01:38:05.589Z</time>
      </trkpt>
      <trkpt lat="60.66448" lon="17.15408">
        <ele>14.373734</ele>
        <time>2020-08-30T01:38:08.527Z</time>
      </trkpt>
      <trkpt lat="60.6638" lon="17.15475">
        <ele>14.267743</ele>
        <time>2020-08-30T01:38:21.324Z</time>
      </trkpt>
      <trkpt lat="60.66338" lon="17.15514">
        <ele>14.054206</ele>
        <time>2020-08-30T01:38:28.950Z</time>
      </trkpt>
      <trkpt lat="60.6632" lon="17.15534">
        <ele>13.894</ele>
        <time>2020-08-30T01:38:32.282Z</time>
      </trkpt>
      <trkpt lat="60.66314" lon="17.15542">
        <ele>13.835386</ele>
        <time>2020-08-30T01:38:33.509Z</time>
      </trkpt>
      <trkpt lat="60.66283" lon="17.15582">
        <ele>13.550627</ele>
        <time>2020-08-30T01:38:39.312Z</time>
      </trkpt>
      <trkpt lat="60.66207" lon="17.15681">
        <ele>12.837565</ele>
        <time>2020-08-30T01:38:53.515Z</time>
      </trkpt>
      <trkpt lat="60.66174" lon="17.15723">
        <ele>12.444217</ele>
        <time>2020-08-30T01:38:59.456Z</time>
      </trkpt>
      <trkpt lat="60.66169" lon="17.15723">
        <ele>12.390701</ele>
        <time>2020-08-30T01:39:00.198Z</time>
      </trkpt>
      <trkpt lat="60.66167" lon="17.15734">
        <ele>12.330948</ele>
        <time>2020-08-30T01:39:01.101Z</time>
      </trkpt>
      <trkpt lat="60.66157" lon="17.15763">
        <ele>12.149656</ele>
        <time>2020-08-30T01:39:03.802Z</time>
      </trkpt>
      <trkpt lat="60.66145" lon="17.15775">
        <ele>12.016363</ele>
        <time>2020-08-30T01:39:05.738Z</time>
      </trkpt>
      <trkpt lat="60.66146" lon="17.15788">
        <ele>11.951342</ele>
        <time>2020-08-30T01:39:06.731Z</time>
      </trkpt>
      <trkpt lat="60.66145" lon="17.15801">
        <ele>11.887321</ele>
        <time>2020-08-30T01:39:07.695Z</time>
      </trkpt>
      <trkpt lat="60.6611" lon="17.15902">
        <ele>11.2609</ele>
        <time>2020-08-30T01:39:17.034Z</time>
      </trkpt>
      <trkpt lat="60.66098" lon="17.15936">
        <ele>11.050539</ele>
        <time>2020-08-30T01:39:20.269Z</time>
      </trkpt>
      <trkpt lat="60.66094" lon="17.15947">
        <ele>10.981892</ele>
        <time>2020-08-30T01:39:21.344Z</time>
      </trkpt>
      <trkpt lat="60.66092" lon="17.15954">
        <ele>10.951665</ele>
        <time>2020-08-30T01:39:21.964Z</time>
      </trkpt>
      <trkpt lat="60.66083" lon="17.15978">
        <ele>10.856443</ele>
        <time>2020-08-30T01:39:24.269Z</time>
      </trkpt>
      <trkpt lat="60.66077" lon="17.15998">
        <ele>10.78548</ele>
        <time>2020-08-30T01:39:26.008Z</time>
      </trkpt>
      <trkpt lat="60.66057" lon="17.16056">
        <ele>10.559919</ele>
        <time>2020-08-30T01:39:31.629Z</time>
      </trkpt>
      <trkpt lat="60.66045" lon="17.16088">
        <ele>10.432139</ele>
        <time>2020-08-30T01:39:34.819Z</time>
      </trkpt>
      <trkpt lat="60.6602" lon="17.16153">
        <ele>10.167434</ele>
        <time>2020-08-30T01:39:41.461Z</time>
      </trkpt>
      <trkpt lat="60.66003" lon="17.16192">
        <ele>10.003887</ele>
        <time>2020-08-30T01:39:45.611Z</time>
      </trkpt>
      <trkpt lat="60.65986" lon="17.16223">
        <ele>9.856901</ele>
        <time>2020-08-30T01:39:49.314Z</time>
      </trkpt>
      <trkpt lat="60.65967" lon="17.16254">
        <ele>9.752417</ele>
        <time>2020-08-30T01:39:53.394Z</time>
      </trkpt>
      <trkpt lat="60.65945" lon="17.16291">
        <ele>9.654408</ele>
        <time>2020-08-30T01:39:58.214Z</time>
      </trkpt>
      <trkpt lat="60.65925" lon="17.16315">
        <ele>9.575325</ele>
        <time>2020-08-30T01:40:02.089Z</time>
      </trkpt>
      <trkpt lat="60.65908" lon="17.16335">
        <ele>9.508628</ele>
        <time>2020-08-30T01:40:05.415Z</time>
      </trkpt>
      <trkpt lat="60.65892" lon="17.16356">
        <ele>9.441066</ele>
        <time>2020-08-30T01:40:08.737Z</time>
      </trkpt>
      <trkpt lat="60.65878" lon="17.16361">
        <ele>9.393824</ele>
        <time>2020-08-30T01:40:11.107Z</time>
      </trkpt>
      <trkpt lat="60.65873" lon="17.16366">
        <ele>9.374754</ele>
        <time>2020-08-30T01:40:12.010Z</time>
      </trkpt>
      <trkpt lat="60.65867" lon="17.16372">
        <ele>9.350651</ele>
        <time>2020-08-30T01:40:13.204Z</time>
      </trkpt>
      <trkpt lat="60.65859" lon="17.16388">
        <ele>9.31217</ele>
        <time>2020-08-30T01:40:15.123Z</time>
      </trkpt>
      <trkpt lat="60.65847" lon="17.16408">
        <ele>9.259478</ele>
        <time>2020-08-30T01:40:17.733Z</time>
      </trkpt>
      <trkpt lat="60.65791" lon="17.16458">
        <ele>9.149035</ele>
        <time>2020-08-30T01:40:28.170Z</time>
      </trkpt>
      <trkpt lat="60.65774" lon="17.16432">
        <ele>9.12675</ele>
        <time>2020-08-30T01:40:31.695Z</time>
      </trkpt>
      <trkpt lat="60.65769" lon="17.16435">
        <ele>9.120392</ele>
        <time>2020-08-30T01:40:32.722Z</time>
      </trkpt>
      <trkpt lat="60.65757" lon="17.16442">
        <ele>9.107553</ele>
        <time>2020-08-30T01:40:34.811Z</time>
      </trkpt>
      <trkpt lat="60.65748" lon="17.16448">
        <ele>9.097305</ele>
        <time>2020-08-30T01:40:36.452Z</time>
      </trkpt>
      <trkpt lat="60.65744" lon="17.16454">
        <ele>9.091566</ele>
        <time>2020-08-30T01:40:37.384Z</time>
      </trkpt>
      <trkpt lat="60.65731" lon="17.16524">
        <ele>9.051447</ele>
        <time>2020-08-30T01:40:43.991Z</time>
      </trkpt>
      <trkpt lat="60.6571" lon="17.16567">
        <ele>9.019028</ele>
        <time>2020-08-30T01:40:49.280Z</time>
      </trkpt>
      <trkpt lat="60.65666" lon="17.16626">
        <ele>9.001673</ele>
        <time>2020-08-30T01:40:58.538Z</time>
      </trkpt>
      <trkpt lat="60.65649" lon="17.1665">
        <ele>9.002647</ele>
        <time>2020-08-30T01:41:02.165Z</time>
      </trkpt>
      <trkpt lat="60.65632" lon="17.16671">
        <ele>9.003583</ele>
        <time>2020-08-30T01:41:05.686Z</time>
      </trkpt>
      <trkpt lat="60.6561" lon="17.16701">
        <ele>9.004857</ele>
        <time>2020-08-30T01:41:10.463Z</time>
      </trkpt>
      <trkpt lat="60.65602" lon="17.16717">
        <ele>9.005378</ele>
        <time>2020-08-30T01:41:12.411Z</time>
      </trkpt>
      <trkpt lat="60.65563" lon="17.16783">
        <ele>9.007785</ele>
        <time>2020-08-30T01:41:21.411Z</time>
      </trkpt>
      <trkpt lat="60.65539" lon="17.16824">
        <ele>9.073641</ele>
        <time>2020-08-30T01:41:27.066Z</time>
      </trkpt>
      <trkpt lat="60.65523" lon="17.16845">
        <ele>9.157137</ele>
        <time>2020-08-30T01:41:30.558Z</time>
      </trkpt>
      <trkpt lat="60.65502" lon="17.16874">
        <ele>9.2664</ele>
        <time>2020-08-30T01:41:35.200Z</time>
      </trkpt>
      <trkpt lat="60.65478" lon="17.16911">
        <ele>9.39721</ele>
        <time>2020-08-30T01:41:40.814Z</time>
      </trkpt>
      <trkpt lat="60.65451" lon="17.16963">
        <ele>9.558071</ele>
        <time>2020-08-30T01:41:47.810Z</time>
      </trkpt>
      <trkpt lat="60.65443" lon="17.16982">
        <ele>9.61297</ele>
        <time>2020-08-30T01:41:50.688Z</time>
      </trkpt>
      <trkpt lat="60.65436" lon="17.17001">
        <ele>9.66342</ele>
        <time>2020-08-30T01:41:52.935Z</time>
      </trkpt>
      <trkpt lat="60.65426" lon="17.17041">
        <ele>9.757139</ele>
        <time>2020-08-30T01:41:57.559Z</time>
      </trkpt>
      <trkpt lat="60.65413" lon="17.17081">
        <ele>9.967906</ele>
        <time>2020-08-30T01:42:02.390Z</time>
      </trkpt>
      <trkpt lat="60.65368" lon="17.17177">
        <ele>10.682888</ele>
        <time>2020-08-30T01:42:16.410Z</time>
      </trkpt>
      <trkpt lat="60.6536" lon="17.17183">
        <ele>10.779213</ele>
        <time>2020-08-30T01:42:18.165Z</time>
      </trkpt>
      <trkpt lat="60.65355" lon="17.17192">
        <ele>10.846364</ele>
        <time>2020-08-30T01:42:19.640Z</time>
      </trkpt>
      <trkpt lat="60.65352" lon="17.17202">
        <ele>10.91344</ele>
        <time>2020-08-30T01:42:21.128Z</time>
      </trkpt>
      <trkpt lat="60.65351" lon="17.17216">
        <ele>10.990733</ele>
        <time>2020-08-30T01:42:22.620Z</time>
      </trkpt>
      <trkpt lat="60.6534" lon="17.17246">
        <ele>11.197299</ele>
        <time>2020-08-30T01:42:26.465Z</time>
      </trkpt>
      <trkpt lat="60.6533" lon="17.17275">
        <ele>11.385072</ele>
        <time>2020-08-30T01:42:30.439Z</time>
      </trkpt>
      <trkpt lat="60.65333" lon="17.1728">
        <ele>11.43386</ele>
        <time>2020-08-30T01:42:31.257Z</time>
      </trkpt>
      <trkpt lat="60.65338" lon="17.17286">
        <ele>11.494765</ele>
        <time>2020-08-30T01:42:32.485Z</time>
      </trkpt>
      <trkpt lat="60.65308" lon="17.17387">
        <ele>11.981087</ele>
        <time>2020-08-30T01:42:44.862Z</time>
      </trkpt>
      <trkpt lat="60.65261" lon="17.1755">
        <ele>12.585831</ele>
        <time>2020-08-30T01:43:03.457Z</time>
      </trkpt>
      <trkpt lat="60.65258" lon="17.1757">
        <ele>12.651336</ele>
        <time>2020-08-30T01:43:05.290Z</time>
      </trkpt>
      <trkpt lat="60.65255" lon="17.17596">
        <ele>12.737545</ele>
        <time>2020-08-30T01:43:07.781Z</time>
      </trkpt>
      <trkpt lat="60.65254" lon="17.17602">
        <ele>12.757032</ele>
        <time>2020-08-30T01:43:08.285Z</time>
      </trkpt>
      <trkpt lat="60.65246" lon="17.17618">
        <ele>12.828798</ele>
        <time>2020-08-30T01:43:10.396Z</time>
      </trkpt>
      <trkpt lat="60.6522" lon="17.17692">
        <ele>13.025189</ele>
        <time>2020-08-30T01:43:18.782Z</time>
      </trkpt>
      <trkpt lat="60.65197" lon="17.1778">
        <ele>13.178507</ele>
        <time>2020-08-30T01:43:28.028Z</time>
      </trkpt>
      <trkpt lat="60.6518" lon="17.17874">
        <ele>13.333477</ele>
        <time>2020-08-30T01:43:37.228Z</time>
      </trkpt>
      <trkpt lat="60.65165" lon="17.17965">
        <ele>13.481596</ele>
        <time>2020-08-30T01:43:46.146Z</time>
      </trkpt>
      <trkpt lat="60.65161" lon="17.1799">
        <ele>13.541061</ele>
        <time>2020-08-30T01:43:48.608Z</time>
      </trkpt>
      <trkpt lat="60.65161" lon="17.1801">
        <ele>13.601366</ele>
        <time>2020-08-30T01:43:50.432Z</time>
      </trkpt>
      <trkpt lat="60.65147" lon="17.18088">
        <ele>13.850604</ele>
        <time>2020-08-30T01:43:58.074Z</time>
      </trkpt>
      <trkpt lat="60.65132" lon="17.18121">
        <ele>13.985109</ele>
        <time>2020-08-30T01:44:02.253Z</time>
      </trkpt>
      <trkpt lat="60.65091" lon="17.18254">
        <ele>14.454178</ele>
        <time>2020-08-30T01:44:17.668Z</time>
      </trkpt>
      <trkpt lat="60.65071" lon="17.1832">
        <ele>14.794783</ele>
        <time>2020-08-30T01:44:25.651Z</time>
      </trkpt>
      <trkpt lat="60.6507" lon="17.18409">
        <ele>15.401694</ele>
        <time>2020-08-30T01:44:35.126Z</time>
      </trkpt>
      <trkpt lat="60.65067" lon="17.18431">
        <ele>15.558713</ele>
        <time>2020-08-30T01:44:37.625Z</time>
      </trkpt>
      <trkpt lat="60.65039" lon="17.18516">
        <ele>16.251671</ele>
        <time>2020-08-30T01:44:48.982Z</time>
      </trkpt>
      <trkpt lat="60.65015" lon="17.18612">
        <ele>16.978738</ele>
        <time>2020-08-30T01:45:01.058Z</time>
      </trkpt>
      <trkpt lat="60.64986" lon="17.18784">
        <ele>18.161359</ele>
        <time>2020-08-30T01:45:21.994Z</time>
      </trkpt>
      <trkpt lat="60.64958" lon="17.19034">
        <ele>19.62629</ele>
        <time>2020-08-30T01:45:48.525Z</time>
      </trkpt>
      <trkpt lat="60.64951" lon="17.19121">
        <ele>19.8945</ele>
        <time>2020-08-30T01:45:57.160Z</time>
      </trkpt>
      <trkpt lat="60.64942" lon="17.19356">
        <ele>20.613783</ele>
        <time>2020-08-30T01:46:19.674Z</time>
      </trkpt>
      <trkpt lat="60.6495" lon="17.19579">
        <ele>21.349243</ele>
        <time>2020-08-30T01:46:41.035Z</time>
      </trkpt>
      <trkpt lat="60.64962" lon="17.19835">
        <ele>22.559502</ele>
        <time>2020-08-30T01:47:06.940Z</time>
      </trkpt>
      <trkpt lat="60.64977" lon="17.20127">
        <ele>24.493706</ele>
        <time>2020-08-30T01:47:39.367Z</time>
      </trkpt>
      <trkpt lat="60.6498" lon="17.20189">
        <ele>25.012942</ele>
        <time>2020-08-30T01:47:46.558Z</time>
      </trkpt>
      <trkpt lat="60.64986" lon="17.20305">
        <ele>25.988532</ele>
        <time>2020-08-30T01:48:00.149Z</time>
      </trkpt>
      <trkpt lat="60.65001" lon="17.20604">
        <ele>28.121249</ele>
        <time>2020-08-30T01:48:34.733Z</time>
      </trkpt>
      <trkpt lat="60.65007" lon="17.20729">
        <ele>28.880051</ele>
        <time>2020-08-30T01:48:47.941Z</time>
      </trkpt>
      <trkpt lat="60.65023" lon="17.2105">
        <ele>29.640683</ele>
        <time>2020-08-30T01:49:18.487Z</time>
      </trkpt>
      <trkpt lat="60.65034" lon="17.21252">
        <ele>29.58968</ele>
        <time>2020-08-30T01:49:35.535Z</time>
      </trkpt>
      <trkpt lat="60.65042" lon="17.21378">
        <ele>29.284475</ele>
        <time>2020-08-30T01:49:45.842Z</time>
      </trkpt>
      <trkpt lat="60.65054" lon="17.21504">
        <ele>28.974412</ele>
        <time>2020-08-30T01:49:56.113Z</time>
      </trkpt>
      <trkpt lat="60.65116" lon="17.22055">
        <ele>27.389774</ele>
        <time>2020-08-30T01:50:40.906Z</time>
      </trkpt>
      <trkpt lat="60.65132" lon="17.22181">
        <ele>27.121548</ele>
        <time>2020-08-30T01:50:51.632Z</time>
      </trkpt>
      <trkpt lat="60.6514" lon="17.22261">
        <ele>26.992354</ele>
        <time>2020-08-30T01:50:58.566Z</time>
      </trkpt>
      <trkpt lat="60.65147" lon="17.2235">
        <ele>27.058409</ele>
        <time>2020-08-30T01:51:06.453Z</time>
      </trkpt>
      <trkpt lat="60.65154" lon="17.22426">
        <ele>27.114411</ele>
        <time>2020-08-30T01:51:13.323Z</time>
      </trkpt>
      <trkpt lat="60.65157" lon="17.22512">
        <ele>27.177257</ele>
        <time>2020-08-30T01:51:21.139Z</time>
      </trkpt>
      <trkpt lat="60.65152" lon="17.22572">
        <ele>27.221679</ele>
        <time>2020-08-30T01:51:26.757Z</time>
      </trkpt>
      <trkpt lat="60.65135" lon="17.22641">
        <ele>27.329808</ele>
        <time>2020-08-30T01:51:33.955Z</time>
      </trkpt>
      <trkpt lat="60.65076" lon="17.22842">
        <ele>27.815429</ele>
        <time>2020-08-30T01:51:56.144Z</time>
      </trkpt>
      <trkpt lat="60.65072" lon="17.22857">
        <ele>27.850712</ele>
        <time>2020-08-30T01:51:57.784Z</time>
      </trkpt>
      <trkpt lat="60.65041" lon="17.22971">
        <ele>28.127943</ele>
        <time>2020-08-30T01:52:10.091Z</time>
      </trkpt>
      <trkpt lat="60.64957" lon="17.23642">
        <ele>29.621233</ele>
        <time>2020-08-30T01:53:15.521Z</time>
      </trkpt>
      <trkpt lat="60.64947" lon="17.23747">
        <ele>29.691693</ele>
        <time>2020-08-30T01:53:25.415Z</time>
      </trkpt>
      <trkpt lat="60.64903" lon="17.24197">
        <ele>29.853337</ele>
        <time>2020-08-30T01:54:05.784Z</time>
      </trkpt>
      <trkpt lat="60.64898" lon="17.24248">
        <ele>29.853149</ele>
        <time>2020-08-30T01:54:10.259Z</time>
      </trkpt>
      <trkpt lat="60.6485" lon="17.24718">
        <ele>29.718008</ele>
        <time>2020-08-30T01:54:51.643Z</time>
      </trkpt>
      <trkpt lat="60.64821" lon="17.24893">
        <ele>29.653861</ele>
        <time>2020-08-30T01:55:07.873Z</time>
      </trkpt>
      <trkpt lat="60.64817" lon="17.24914">
        <ele>29.645983</ele>
        <time>2020-08-30T01:55:09.856Z</time>
      </trkpt>
      <trkpt lat="60.64796" lon="17.25024">
        <ele>29.604802</ele>
        <time>2020-08-30T01:55:20.133Z</time>
      </trkpt>
      <trkpt lat="60.64758" lon="17.25213">
        <ele>29.391552</ele>
        <time>2020-08-30T01:55:37.440Z</time>
      </trkpt>
      <trkpt lat="60.64702" lon="17.25462">
        <ele>29.105019</ele>
        <time>2020-08-30T01:56:00.177Z</time>
      </trkpt>
      <trkpt lat="60.64693" lon="17.25504">
        <ele>29.07264</ele>
        <time>2020-08-30T01:56:04.030Z</time>
      </trkpt>
      <trkpt lat="60.64691" lon="17.25511">
        <ele>29.067391</ele>
        <time>2020-08-30T01:56:04.670Z</time>
      </trkpt>
      <trkpt lat="60.64686" lon="17.25536">
        <ele>29.048137</ele>
        <time>2020-08-30T01:56:07.010Z</time>
      </trkpt>
      <trkpt lat="60.64664" lon="17.2563">
        <ele>28.974948</ele>
        <time>2020-08-30T01:56:15.882Z</time>
      </trkpt>
      <trkpt lat="60.64657" lon="17.25659">
        <ele>28.952256</ele>
        <time>2020-08-30T01:56:18.701Z</time>
      </trkpt>
      <trkpt lat="60.64613" lon="17.25863">
        <ele>29.045911</ele>
        <time>2020-08-30T01:56:38.507Z</time>
      </trkpt>
      <trkpt lat="60.64589" lon="17.26038">
        <ele>29.216831</ele>
        <time>2020-08-30T01:56:55.184Z</time>
      </trkpt>
      <trkpt lat="60.64584" lon="17.26169">
        <ele>29.387056</ele>
        <time>2020-08-30T01:57:07.335Z</time>
      </trkpt>
      <trkpt lat="60.64557" lon="17.26338">
        <ele>29.638751</ele>
        <time>2020-08-30T01:57:23.724Z</time>
      </trkpt>
      <trkpt lat="60.64543" lon="17.26565">
        <ele>29.822797</ele>
        <time>2020-08-30T01:57:44.499Z</time>
      </trkpt>
      <trkpt lat="60.64542" lon="17.26604">
        <ele>29.838204</ele>
        <time>2020-08-30T01:57:47.944Z</time>
      </trkpt>
      <trkpt lat="60.64543" lon="17.26782">
        <ele>29.909427</ele>
        <time>2020-08-30T01:58:03.700Z</time>
      </trkpt>
      <trkpt lat="60.64549" lon="17.27029">
        <ele>29.431681</ele>
        <time>2020-08-30T01:58:24.441Z</time>
      </trkpt>
      <trkpt lat="60.64783" lon="17.29221">
        <ele>20.95972</ele>
        <time>2020-08-30T02:01:18.705Z</time>
      </trkpt>
      <trkpt lat="60.64926" lon="17.30452">
        <ele>19.754685</ele>
        <time>2020-08-30T02:03:06.972Z</time>
      </trkpt>
      <trkpt lat="60.64955" lon="17.30689">
        <ele>19.221681</ele>
        <time>2020-08-30T02:03:26.737Z</time>
      </trkpt>
      <trkpt lat="60.64961" lon="17.30748">
        <ele>19.07886</ele>
        <time>2020-08-30T02:03:31.425Z</time>
      </trkpt>
      <trkpt lat="60.64978" lon="17.30984">
        <ele>18.306814</ele>
        <time>2020-08-30T02:03:50.153Z</time>
      </trkpt>
      <trkpt lat="60.64997" lon="17.31094">
        <ele>17.930074</ele>
        <time>2020-08-30T02:03:59.385Z</time>
      </trkpt>
      <trkpt lat="60.65004" lon="17.31204">
        <ele>17.537387</ele>
        <time>2020-08-30T02:04:08.362Z</time>
      </trkpt>
      <trkpt lat="60.65019" lon="17.31295">
        <ele>17.196152</ele>
        <time>2020-08-30T02:04:15.888Z</time>
      </trkpt>
      <trkpt lat="60.65025" lon="17.31344">
        <ele>17.016993</ele>
        <time>2020-08-30T02:04:19.850Z</time>
      </trkpt>
      <trkpt lat="60.65032" lon="17.31396">
        <ele>16.828038</ele>
        <time>2020-08-30T02:04:24.091Z</time>
      </trkpt>
      <trkpt lat="60.65041" lon="17.3145">
        <ele>16.625274</ele>
        <time>2020-08-30T02:04:28.419Z</time>
      </trkpt>
      <trkpt lat="60.65035" lon="17.31471">
        <ele>16.496726</ele>
        <time>2020-08-30T02:04:30.414Z</time>
      </trkpt>
      <trkpt lat="60.65026" lon="17.31479">
        <ele>16.395728</ele>
        <time>2020-08-30T02:04:31.811Z</time>
      </trkpt>
      <trkpt lat="60.65015" lon="17.31484">
        <ele>16.274432</ele>
        <time>2020-08-30T02:04:33.712Z</time>
      </trkpt>
      <trkpt lat="60.65002" lon="17.31497">
        <ele>16.122031</ele>
        <time>2020-08-30T02:04:36.179Z</time>
      </trkpt>
      <trkpt lat="60.64999" lon="17.31511">
        <ele>16.043337</ele>
        <time>2020-08-30T02:04:37.308Z</time>
      </trkpt>
      <trkpt lat="60.64988" lon="17.31602">
        <ele>15.560247</ele>
        <time>2020-08-30T02:04:44.680Z</time>
      </trkpt>
      <trkpt lat="60.64993" lon="17.31642">
        <ele>15.349503</ele>
        <time>2020-08-30T02:04:47.945Z</time>
      </trkpt>
      <trkpt lat="60.65002" lon="17.31673">
        <ele>15.162415</ele>
        <time>2020-08-30T02:04:50.708Z</time>
      </trkpt>
      <trkpt lat="60.65033" lon="17.3174">
        <ele>14.68521</ele>
        <time>2020-08-30T02:04:57.931Z</time>
      </trkpt>
      <trkpt lat="60.65044" lon="17.31748">
        <ele>14.565808</ele>
        <time>2020-08-30T02:04:59.760Z</time>
      </trkpt>
      <trkpt lat="60.65108" lon="17.32243">
        <ele>12.082535</ele>
        <time>2020-08-30T02:05:40.377Z</time>
      </trkpt>
      <trkpt lat="60.65109" lon="17.3254">
        <ele>10.942256</ele>
        <time>2020-08-30T02:06:04.466Z</time>
      </trkpt>
      <trkpt lat="60.65058" lon="17.32743">
        <ele>10.296293</ele>
        <time>2020-08-30T02:06:23.789Z</time>
      </trkpt>
      <trkpt lat="60.65048" lon="17.32805">
        <ele>10.190682</ele>
        <time>2020-08-30T02:06:29.539Z</time>
      </trkpt>
      <trkpt lat="60.64997" lon="17.32867">
        <ele>10.121624</ele>
        <time>2020-08-30T02:06:40.197Z</time>
      </trkpt>
      <trkpt lat="60.64997" lon="17.32918">
        <ele>10.09208</ele>
        <time>2020-08-30T02:06:44.793Z</time>
      </trkpt>
      <trkpt lat="60.64997" lon="17.32945">
        <ele>10.076818</ele>
        <time>2020-08-30T02:06:47.187Z</time>
      </trkpt>
      <trkpt lat="60.65002" lon="17.32994">
        <ele>10.047532</ele>
        <time>2020-08-30T02:06:51.787Z</time>
      </trkpt>
      <trkpt lat="60.6502" lon="17.33043">
        <ele>10.01278</ele>
        <time>2020-08-30T02:06:57.277Z</time>
      </trkpt>
      <trkpt lat="60.65062" lon="17.33131">
        <ele>10.005277</ele>
        <time>2020-08-30T02:07:08.502Z</time>
      </trkpt>
      <trkpt lat="60.65063" lon="17.33164">
        <ele>10.007035</ele>
        <time>2020-08-30T02:07:11.574Z</time>
      </trkpt>
      <trkpt lat="60.65056" lon="17.33241">
        <ele>10.011078</ele>
        <time>2020-08-30T02:07:18.647Z</time>
      </trkpt>
      <trkpt lat="60.65056" lon="17.33251">
        <ele>10.011606</ele>
        <time>2020-08-30T02:07:19.576Z</time>
      </trkpt>
      <trkpt lat="60.65096" lon="17.33253">
        <ele>10.015829</ele>
        <time>2020-08-30T02:07:26.983Z</time>
      </trkpt>
      <trkpt lat="60.65103" lon="17.33254">
        <ele>10.016629</ele>
        <time>2020-08-30T02:07:28.385Z</time>
      </trkpt>
      <trkpt lat="60.65108" lon="17.33257">
        <ele>10.017164</ele>
        <time>2020-08-30T02:07:29.324Z</time>
      </trkpt>
      <trkpt lat="60.65116" lon="17.33256">
        <ele>10.017984</ele>
        <time>2020-08-30T02:07:30.772Z</time>
      </trkpt>
      <trkpt lat="60.65128" lon="17.33257">
        <ele>10.019699</ele>
        <time>2020-08-30T02:07:33.038Z</time>
      </trkpt>
      <trkpt lat="60.65132" lon="17.33253">
        <ele>10.021602</ele>
        <time>2020-08-30T02:07:33.833Z</time>
      </trkpt>
      <trkpt lat="60.65135" lon="17.3329">
        <ele>10.029823</ele>
        <time>2020-08-30T02:07:37.271Z</time>
      </trkpt>
      <trkpt lat="60.65123" lon="17.33417">
        <ele>10.058391</ele>
        <time>2020-08-30T02:07:49.252Z</time>
      </trkpt>
      <trkpt lat="60.65101" lon="17.33664">
        <ele>10.096725</ele>
        <time>2020-08-30T02:08:12.096Z</time>
      </trkpt>
      <trkpt lat="60.65095" lon="17.33702">
        <ele>10.09457</ele>
        <time>2020-08-30T02:08:15.749Z</time>
      </trkpt>
      <trkpt lat="60.65084" lon="17.33791">
        <ele>10.089636</ele>
        <time>2020-08-30T02:08:24.135Z</time>
      </trkpt>
      <trkpt lat="60.65062" lon="17.33926">
        <ele>10.082065</ele>
        <time>2020-08-30T02:08:36.922Z</time>
      </trkpt>
      <trkpt lat="60.65012" lon="17.3423">
        <ele>10.020728</ele>
        <time>2020-08-30T02:09:06.031Z</time>
      </trkpt>
      <trkpt lat="60.65014" lon="17.34293">
        <ele>10.007737</ele>
        <time>2020-08-30T02:09:11.779Z</time>
      </trkpt>
      <trkpt lat="60.65023" lon="17.34365">
        <ele>10.004006</ele>
        <time>2020-08-30T02:09:18.538Z</time>
      </trkpt>
      <trkpt lat="60.6503" lon="17.34437">
        <ele>10.003045</ele>
        <time>2020-08-30T02:09:25.275Z</time>
      </trkpt>
      <trkpt lat="60.65037" lon="17.34509">
        <ele>10.00209</ele>
        <time>2020-08-30T02:09:31.980Z</time>
      </trkpt>
      <trkpt lat="60.65033" lon="17.346">
        <ele>10.000908</ele>
        <time>2020-08-30T02:09:40.264Z</time>
      </trkpt>
      <trkpt lat="60.65026" lon="17.34704">
        <ele>10.000012</ele>
        <time>2020-08-30T02:09:49.813Z</time>
      </trkpt>
      <trkpt lat="60.65007" lon="17.3504">
        <ele>10.000874</ele>
        <time>2020-08-30T02:10:20.684Z</time>
      </trkpt>
      <trkpt lat="60.65009" lon="17.35143">
        <ele>10.012763</ele>
        <time>2020-08-30T02:10:30.135Z</time>
      </trkpt>
      <trkpt lat="60.65008" lon="17.35224">
        <ele>10.021994</ele>
        <time>2020-08-30T02:10:37.480Z</time>
      </trkpt>
      <trkpt lat="60.64993" lon="17.35221">
        <ele>10.025544</ele>
        <time>2020-08-30T02:10:40.299Z</time>
      </trkpt>
      <trkpt lat="60.64988" lon="17.35237">
        <ele>10.027789</ele>
        <time>2020-08-30T02:10:42.084Z</time>
      </trkpt>
      <trkpt lat="60.64973" lon="17.35274">
        <ele>10.033212</ele>
        <time>2020-08-30T02:10:46.404Z</time>
      </trkpt>
      <trkpt lat="60.64948" lon="17.35481">
        <ele>10.05658</ele>
        <time>2020-08-30T02:11:06.006Z</time>
      </trkpt>
      <trkpt lat="60.64957" lon="17.35551">
        <ele>10.064245</ele>
        <time>2020-08-30T02:11:12.640Z</time>
      </trkpt>
      <trkpt lat="60.64899" lon="17.36397">
        <ele>9.794368</ele>
        <time>2020-08-30T02:12:30.113Z</time>
      </trkpt>
      <trkpt lat="60.64897" lon="17.36447">
        <ele>9.732883</ele>
        <time>2020-08-30T02:12:34.391Z</time>
      </trkpt>
      <trkpt lat="60.64893" lon="17.36513">
        <ele>9.546969</ele>
        <time>2020-08-30T02:12:39.869Z</time>
      </trkpt>
      <trkpt lat="60.64888" lon="17.36568">
        <ele>9.390565</ele>
        <time>2020-08-30T02:12:44.417Z</time>
      </trkpt>
      <trkpt lat="60.64885" lon="17.36679">
        <ele>9.07714</ele>
        <time>2020-08-30T02:12:53.583Z</time>
      </trkpt>
      <trkpt lat="60.64888" lon="17.36771">
        <ele>8.818599</ele>
        <time>2020-08-30T02:13:01.202Z</time>
      </trkpt>
      <trkpt lat="60.64869" lon="17.36927">
        <ele>8.549795</ele>
        <time>2020-08-30T02:13:15.232Z</time>
      </trkpt>
      <trkpt lat="60.64889" lon="17.36998">
        <ele>8.436243</ele>
        <time>2020-08-30T02:13:22.481Z</time>
      </trkpt>
      <trkpt lat="60.64946" lon="17.37177">
        <ele>8.105379</ele>
        <time>2020-08-30T02:13:40.824Z</time>
      </trkpt>
      <trkpt lat="60.64954" lon="17.372">
        <ele>8.0503</ele>
        <time>2020-08-30T02:13:43.329Z</time>
      </trkpt>
      <trkpt lat="60.64968" lon="17.37241">
        <ele>7.951298</ele>
        <time>2020-08-30T02:13:47.653Z</time>
      </trkpt>
      <trkpt lat="60.64981" lon="17.37301">
        <ele>7.82373</ele>
        <time>2020-08-30T02:13:53.211Z</time>
      </trkpt>
      <trkpt lat="60.64949" lon="17.3733">
        <ele>7.684394</ele>
        <time>2020-08-30T02:13:59.020Z</time>
      </trkpt>
      <trkpt lat="60.64909" lon="17.37363">
        <ele>7.514896</ele>
        <time>2020-08-30T02:14:06.084Z</time>
      </trkpt>
      <trkpt lat="60.64904" lon="17.37368">
        <ele>7.499715</ele>
        <time>2020-08-30T02:14:07.089Z</time>
      </trkpt>
      <trkpt lat="60.64894" lon="17.37376">
        <ele>7.487888</ele>
        <time>2020-08-30T02:14:08.885Z</time>
      </trkpt>
      <trkpt lat="60.64875" lon="17.37396">
        <ele>7.463937</ele>
        <time>2020-08-30T02:14:12.441Z</time>
      </trkpt>
      <trkpt lat="60.64725" lon="17.37558">
        <ele>7.350883</ele>
        <time>2020-08-30T02:14:42.561Z</time>
      </trkpt>
      <trkpt lat="60.64683" lon="17.37612">
        <ele>7.445232</ele>
        <time>2020-08-30T02:14:51.754Z</time>
      </trkpt>
      <trkpt lat="60.6467" lon="17.37628">
        <ele>7.472461</ele>
        <time>2020-08-30T02:14:54.370Z</time>
      </trkpt>
      <trkpt lat="60.64668" lon="17.37631">
        <ele>7.478251</ele>
        <time>2020-08-30T02:14:54.950Z</time>
      </trkpt>
      <trkpt lat="60.64659" lon="17.37638">
        <ele>7.495969</ele>
        <time>2020-08-30T02:14:56.711Z</time>
      </trkpt>
      <trkpt lat="60.64615" lon="17.37712">
        <ele>7.603519</ele>
        <time>2020-08-30T02:15:07.356Z</time>
      </trkpt>
      <trkpt lat="60.64599" lon="17.37712">
        <ele>7.634219</ele>
        <time>2020-08-30T02:15:10.584Z</time>
      </trkpt>
      <trkpt lat="60.64568" lon="17.37718">
        <ele>7.782095</ele>
        <time>2020-08-30T02:15:16.774Z</time>
      </trkpt>
      <trkpt lat="60.64538" lon="17.37738">
        <ele>7.947284</ele>
        <time>2020-08-30T02:15:23.034Z</time>
      </trkpt>
      <trkpt lat="60.64517" lon="17.37757">
        <ele>8.068499</ele>
        <time>2020-08-30T02:15:27.699Z</time>
      </trkpt>
      <trkpt lat="60.64507" lon="17.37774">
        <ele>8.133311</ele>
        <time>2020-08-30T02:15:30.137Z</time>
      </trkpt>
      <trkpt lat="60.6449" lon="17.378">
        <ele>8.246947</ele>
        <time>2020-08-30T02:15:34.688Z</time>
      </trkpt>
      <trkpt lat="60.64469" lon="17.37816">
        <ele>8.364791</ele>
        <time>2020-08-30T02:15:39.307Z</time>
      </trkpt>
      <trkpt lat="60.64464" lon="17.37825">
        <ele>8.40002</ele>
        <time>2020-08-30T02:15:40.767Z</time>
      </trkpt>
      <trkpt lat="60.64453" lon="17.37818">
        <ele>8.458345</ele>
        <time>2020-08-30T02:15:43.069Z</time>
      </trkpt>
      <trkpt lat="60.64445" lon="17.37808">
        <ele>8.506611</ele>
        <time>2020-08-30T02:15:44.875Z</time>
      </trkpt>
      <trkpt lat="60.64429" lon="17.37863">
        <ele>8.637535</ele>
        <time>2020-08-30T02:15:51.304Z</time>
      </trkpt>
      <trkpt lat="60.64417" lon="17.37936">
        <ele>8.758663</ele>
        <time>2020-08-30T02:15:59.054Z</time>
      </trkpt>
      <trkpt lat="60.64407" lon="17.37992">
        <ele>8.851998</ele>
        <time>2020-08-30T02:16:04.986Z</time>
      </trkpt>
      <trkpt lat="60.64399" lon="17.38032">
        <ele>8.918449</ele>
        <time>2020-08-30T02:16:09.090Z</time>
      </trkpt>
      <trkpt lat="60.64341" lon="17.3854">
        <ele>9.254356</ele>
        <time>2020-08-30T02:16:57.133Z</time>
      </trkpt>
      <trkpt lat="60.64321" lon="17.38699">
        <ele>9.195879</ele>
        <time>2020-08-30T02:17:11.776Z</time>
      </trkpt>
      <trkpt lat="60.64281" lon="17.38879">
        <ele>9.124821</ele>
        <time>2020-08-30T02:17:29.506Z</time>
      </trkpt>
      <trkpt lat="60.64269" lon="17.38937">
        <ele>9.148239</ele>
        <time>2020-08-30T02:17:35.191Z</time>
      </trkpt>
      <trkpt lat="60.64252" lon="17.3902">
        <ele>9.187199</ele>
        <time>2020-08-30T02:17:43.385Z</time>
      </trkpt>
      <trkpt lat="60.64225" lon="17.39158">
        <ele>9.25201</ele>
        <time>2020-08-30T02:17:57.334Z</time>
      </trkpt>
      <trkpt lat="60.64175" lon="17.3932">
        <ele>9.359551</ele>
        <time>2020-08-30T02:18:15.589Z</time>
      </trkpt>
      <trkpt lat="60.64161" lon="17.39332">
        <ele>9.379595</ele>
        <time>2020-08-30T02:18:18.487Z</time>
      </trkpt>
      <trkpt lat="60.6416" lon="17.39335">
        <ele>9.382075</ele>
        <time>2020-08-30T02:18:18.948Z</time>
      </trkpt>
      <trkpt lat="60.64159" lon="17.39339">
        <ele>9.385005</ele>
        <time>2020-08-30T02:18:19.438Z</time>
      </trkpt>
      <trkpt lat="60.6416" lon="17.39351">
        <ele>9.392598</ele>
        <time>2020-08-30T02:18:20.533Z</time>
      </trkpt>
      <trkpt lat="60.64144" lon="17.39397">
        <ele>9.428717</ele>
        <time>2020-08-30T02:18:25.812Z</time>
      </trkpt>
      <trkpt lat="60.6412" lon="17.39464">
        <ele>9.481923</ele>
        <time>2020-08-30T02:18:33.591Z</time>
      </trkpt>
      <trkpt lat="60.64006" lon="17.39778">
        <ele>9.168589</ele>
        <time>2020-08-30T02:19:08.075Z</time>
      </trkpt>
      <trkpt lat="60.63951" lon="17.39899">
        <ele>8.812283</ele>
        <time>2020-08-30T02:19:22.006Z</time>
      </trkpt>
      <trkpt lat="60.63943" lon="17.39938">
        <ele>8.710599</ele>
        <time>2020-08-30T02:19:25.546Z</time>
      </trkpt>
      <trkpt lat="60.63932" lon="17.39974">
        <ele>8.60778</ele>
        <time>2020-08-30T02:19:29.150Z</time>
      </trkpt>
      <trkpt lat="60.63882" lon="17.40109">
        <ele>8.20166</ele>
        <time>2020-08-30T02:19:43.534Z</time>
      </trkpt>
      <trkpt lat="60.63855" lon="17.40167">
        <ele>8.030909</ele>
        <time>2020-08-30T02:19:50.163Z</time>
      </trkpt>
      <trkpt lat="60.63781" lon="17.40287">
        <ele>7.611955</ele>
        <time>2020-08-30T02:20:06.569Z</time>
      </trkpt>
      <trkpt lat="60.63754" lon="17.40315">
        <ele>7.47873</ele>
        <time>2020-08-30T02:20:11.853Z</time>
      </trkpt>
      <trkpt lat="60.63641" lon="17.40436">
        <ele>6.837803</ele>
        <time>2020-08-30T02:20:33.918Z</time>
      </trkpt>
      <trkpt lat="60.63626" lon="17.40454">
        <ele>6.747259</ele>
        <time>2020-08-30T02:20:36.950Z</time>
      </trkpt>
      <trkpt lat="60.63621" lon="17.40455">
        <ele>6.725028</ele>
        <time>2020-08-30T02:20:37.693Z</time>
      </trkpt>
      <trkpt lat="60.6361" lon="17.40451">
        <ele>6.668404</ele>
        <time>2020-08-30T02:20:39.644Z</time>
      </trkpt>
      <trkpt lat="60.63601" lon="17.40455">
        <ele>6.618621</ele>
        <time>2020-08-30T02:20:41.297Z</time>
      </trkpt>
      <trkpt lat="60.63595" lon="17.40467">
        <ele>6.576941</ele>
        <time>2020-08-30T02:20:42.718Z</time>
      </trkpt>
      <trkpt lat="60.63588" lon="17.40492">
        <ele>6.49964</ele>
        <time>2020-08-30T02:20:45.167Z</time>
      </trkpt>
      <trkpt lat="60.63574" lon="17.40514">
        <ele>6.396737</ele>
        <time>2020-08-30T02:20:48.146Z</time>
      </trkpt>
      <trkpt lat="60.63528" lon="17.40559">
        <ele>6.105449</ele>
        <time>2020-08-30T02:20:56.718Z</time>
      </trkpt>
      <trkpt lat="60.63515" lon="17.40575">
        <ele>6.018576</ele>
        <time>2020-08-30T02:20:59.211Z</time>
      </trkpt>
      <trkpt lat="60.63223" lon="17.40932">
        <ele>4.119774</ele>
        <time>2020-08-30T02:21:57.420Z</time>
      </trkpt>
      <trkpt lat="60.632" lon="17.40958">
        <ele>3.982914</ele>
        <time>2020-08-30T02:22:01.921Z</time>
      </trkpt>
      <trkpt lat="60.63179" lon="17.40982">
        <ele>3.856864</ele>
        <time>2020-08-30T02:22:06.066Z</time>
      </trkpt>
      <trkpt lat="60.62997" lon="17.41192">
        <ele>2.89951</ele>
        <time>2020-08-30T02:22:42.488Z</time>
      </trkpt>
      <trkpt lat="60.62986" lon="17.41205">
        <ele>2.845534</ele>
        <time>2020-08-30T02:22:44.533Z</time>
      </trkpt>
      <trkpt lat="60.62976" lon="17.412">
        <ele>2.801649</ele>
        <time>2020-08-30T02:22:46.344Z</time>
      </trkpt>
      <trkpt lat="60.62966" lon="17.41198">
        <ele>2.763777</ele>
        <time>2020-08-30T02:22:48.121Z</time>
      </trkpt>
      <trkpt lat="60.62959" lon="17.41204">
        <ele>2.739117</ele>
        <time>2020-08-30T02:22:49.471Z</time>
      </trkpt>
      <trkpt lat="60.62952" lon="17.4121">
        <ele>2.714221</ele>
        <time>2020-08-30T02:22:50.691Z</time>
      </trkpt>
      <trkpt lat="60.62948" lon="17.41239">
        <ele>2.665174</ele>
        <time>2020-08-30T02:22:53.394Z</time>
      </trkpt>
      <trkpt lat="60.6295" lon="17.41248">
        <ele>2.649471</ele>
        <time>2020-08-30T02:22:54.277Z</time>
      </trkpt>
      <trkpt lat="60.62944" lon="17.41255">
        <ele>2.626166</ele>
        <time>2020-08-30T02:22:55.568Z</time>
      </trkpt>
      <trkpt lat="60.62946" lon="17.41266">
        <ele>2.607293</ele>
        <time>2020-08-30T02:22:56.491Z</time>
      </trkpt>
      <trkpt lat="60.62949" lon="17.41281">
        <ele>2.581529</ele>
        <time>2020-08-30T02:22:57.851Z</time>
      </trkpt>
      <trkpt lat="60.62819" lon="17.41378">
        <ele>2.188287</ele>
        <time>2020-08-30T02:23:22.285Z</time>
      </trkpt>
      <trkpt lat="60.62743" lon="17.41435">
        <ele>2.157941</ele>
        <time>2020-08-30T02:23:37.279Z</time>
      </trkpt>
      <trkpt lat="60.62658" lon="17.41509">
        <ele>2.153844</ele>
        <time>2020-08-30T02:23:54.654Z</time>
      </trkpt>
      <trkpt lat="60.62605" lon="17.41569">
        <ele>2.281818</ele>
        <time>2020-08-30T02:24:06.273Z</time>
      </trkpt>
      <trkpt lat="60.62566" lon="17.41613">
        <ele>2.375052</ele>
        <time>2020-08-30T02:24:14.814Z</time>
      </trkpt>
      <trkpt lat="60.62539" lon="17.41647">
        <ele>2.441155</ele>
        <time>2020-08-30T02:24:20.910Z</time>
      </trkpt>
      <trkpt lat="60.62389" lon="17.4185">
        <ele>3.092886</ele>
        <time>2020-08-30T02:24:56.419Z</time>
      </trkpt>
      <trkpt lat="60.6225" lon="17.42029">
        <ele>4.052551</ele>
        <time>2020-08-30T02:25:29.961Z</time>
      </trkpt>
      <trkpt lat="60.62244" lon="17.42047">
        <ele>4.123286</ele>
        <time>2020-08-30T02:25:32.244Z</time>
      </trkpt>
      <trkpt lat="60.62237" lon="17.42056">
        <ele>4.171435</ele>
        <time>2020-08-30T02:25:33.851Z</time>
      </trkpt>
      <trkpt lat="60.62224" lon="17.42064">
        <ele>4.261225</ele>
        <time>2020-08-30T02:25:36.894Z</time>
      </trkpt>
      <trkpt lat="60.62118" lon="17.42175">
        <ele>5.301477</ele>
        <time>2020-08-30T02:26:02.227Z</time>
      </trkpt>
      <trkpt lat="60.62004" lon="17.42294">
        <ele>6.613794</ele>
        <time>2020-08-30T02:26:30.113Z</time>
      </trkpt>
      <trkpt lat="60.61959" lon="17.4234">
        <ele>7.222994</ele>
        <time>2020-08-30T02:26:41.664Z</time>
      </trkpt>
      <trkpt lat="60.6193" lon="17.42371">
        <ele>7.620535</ele>
        <time>2020-08-30T02:26:49.209Z</time>
      </trkpt>
      <trkpt lat="60.61926" lon="17.4239">
        <ele>7.742626</ele>
        <time>2020-08-30T02:26:51.456Z</time>
      </trkpt>
      <trkpt lat="60.61916" lon="17.42399">
        <ele>7.868431</ele>
        <time>2020-08-30T02:26:53.911Z</time>
      </trkpt>
      <trkpt lat="60.61848" lon="17.4246">
        <ele>8.631781</ele>
        <time>2020-08-30T02:27:10.535Z</time>
      </trkpt>
      <trkpt lat="60.61833" lon="17.42473">
        <ele>8.784854</ele>
        <time>2020-08-30T02:27:14.040Z</time>
      </trkpt>
      <trkpt lat="60.61816" lon="17.4249">
        <ele>8.962364</ele>
        <time>2020-08-30T02:27:18.184Z</time>
      </trkpt>
      <trkpt lat="60.61755" lon="17.42553">
        <ele>9.614497</ele>
        <time>2020-08-30T02:27:33.036Z</time>
      </trkpt>
      <trkpt lat="60.61745" lon="17.42568">
        <ele>9.731804</ele>
        <time>2020-08-30T02:27:35.597Z</time>
      </trkpt>
      <trkpt lat="60.61739" lon="17.42573">
        <ele>9.794545</ele>
        <time>2020-08-30T02:27:36.997Z</time>
      </trkpt>
      <trkpt lat="60.61651" lon="17.42656">
        <ele>10.200905</ele>
        <time>2020-08-30T02:27:56.261Z</time>
      </trkpt>
      <trkpt lat="60.61631" lon="17.42681">
        <ele>10.293541</ele>
        <time>2020-08-30T02:28:00.868Z</time>
      </trkpt>
      <trkpt lat="60.61594" lon="17.42731">
        <ele>10.467374</ele>
        <time>2020-08-30T02:28:09.449Z</time>
      </trkpt>
      <trkpt lat="60.6158" lon="17.42732">
        <ele>10.520518</ele>
        <time>2020-08-30T02:28:12.068Z</time>
      </trkpt>
      <trkpt lat="60.61577" lon="17.42716">
        <ele>10.547104</ele>
        <time>2020-08-30T02:28:13.629Z</time>
      </trkpt>
      <trkpt lat="60.61574" lon="17.42705">
        <ele>10.556982</ele>
        <time>2020-08-30T02:28:14.887Z</time>
      </trkpt>
      <trkpt lat="60.61527" lon="17.42746">
        <ele>10.635724</ele>
        <time>2020-08-30T02:28:24.664Z</time>
      </trkpt>
      <trkpt lat="60.61509" lon="17.42751">
        <ele>10.663672</ele>
        <time>2020-08-30T02:28:28.098Z</time>
      </trkpt>
      <trkpt lat="60.61461" lon="17.42809">
        <ele>10.74932</ele>
        <time>2020-08-30T02:28:38.646Z</time>
      </trkpt>
      <trkpt lat="60.61305" lon="17.4293">
        <ele>10.921781</ele>
        <time>2020-08-30T02:29:10.234Z</time>
      </trkpt>
      <trkpt lat="60.61236" lon="17.4298">
        <ele>10.981798</ele>
        <time>2020-08-30T02:29:23.959Z</time>
      </trkpt>
      <trkpt lat="60.61083" lon="17.43076">
        <ele>11.104833</ele>
        <time>2020-08-30T02:29:52.804Z</time>
      </trkpt>
      <trkpt lat="60.60972" lon="17.43157">
        <ele>11.165292</ele>
        <time>2020-08-30T02:30:14.431Z</time>
      </trkpt>
      <trkpt lat="60.60841" lon="17.43293">
        <ele>11.16268</ele>
        <time>2020-08-30T02:30:40.552Z</time>
      </trkpt>
      <trkpt lat="60.60832" lon="17.43273">
        <ele>11.156811</ele>
        <time>2020-08-30T02:30:42.811Z</time>
      </trkpt>
      <trkpt lat="60.60822" lon="17.43258">
        <ele>11.150773</ele>
        <time>2020-08-30T02:30:45.150Z</time>
      </trkpt>
      <trkpt lat="60.60803" lon="17.43249">
        <ele>11.142013</ele>
        <time>2020-08-30T02:30:48.533Z</time>
      </trkpt>
      <trkpt lat="60.60778" lon="17.4326">
        <ele>11.130328</ele>
        <time>2020-08-30T02:30:53.043Z</time>
      </trkpt>
      <trkpt lat="60.60692" lon="17.43311">
        <ele>11.077906</ele>
        <time>2020-08-30T02:31:08.625Z</time>
      </trkpt>
      <trkpt lat="60.60565" lon="17.4339">
        <ele>11.000012</ele>
        <time>2020-08-30T02:31:32.193Z</time>
      </trkpt>
      <trkpt lat="60.60546" lon="17.43401">
        <ele>11.000012</ele>
        <time>2020-08-30T02:31:35.606Z</time>
      </trkpt>
      <trkpt lat="60.60315" lon="17.43537">
        <ele>11.000012</ele>
        <time>2020-08-30T02:32:18.475Z</time>
      </trkpt>
      <trkpt lat="60.60086" lon="17.43686">
        <ele>10.970752</ele>
        <time>2020-08-30T02:33:01.408Z</time>
      </trkpt>
      <trkpt lat="60.5998" lon="17.43742">
        <ele>10.858284</ele>
        <time>2020-08-30T02:33:20.769Z</time>
      </trkpt>
      <trkpt lat="60.59909" lon="17.43769">
        <ele>10.765443</ele>
        <time>2020-08-30T02:33:33.177Z</time>
      </trkpt>
      <trkpt lat="60.59866" lon="17.43771">
        <ele>10.686979</ele>
        <time>2020-08-30T02:33:40.481Z</time>
      </trkpt>
      <trkpt lat="60.59818" lon="17.43762">
        <ele>10.560775</ele>
        <time>2020-08-30T02:33:48.795Z</time>
      </trkpt>
      <trkpt lat="60.59694" lon="17.43703">
        <ele>10.249032</ele>
        <time>2020-08-30T02:34:10.408Z</time>
      </trkpt>
      <trkpt lat="60.59571" lon="17.43654">
        <ele>10.069296</ele>
        <time>2020-08-30T02:34:32.185Z</time>
      </trkpt>
      <trkpt lat="60.59555" lon="17.43648">
        <ele>10.04569</ele>
        <time>2020-08-30T02:34:35.079Z</time>
      </trkpt>
      <trkpt lat="60.59352" lon="17.43603">
        <ele>10.000014</ele>
        <time>2020-08-30T02:35:11.382Z</time>
      </trkpt>
      <trkpt lat="60.59309" lon="17.43607">
        <ele>10.005796</ele>
        <time>2020-08-30T02:35:19.042Z</time>
      </trkpt>
      <trkpt lat="60.59249" lon="17.43619">
        <ele>10.014021</ele>
        <time>2020-08-30T02:35:29.929Z</time>
      </trkpt>
      <trkpt lat="60.59164" lon="17.43635">
        <ele>10.038165</ele>
        <time>2020-08-30T02:35:45.209Z</time>
      </trkpt>
      <trkpt lat="60.59147" lon="17.43646">
        <ele>10.063811</ele>
        <time>2020-08-30T02:35:48.367Z</time>
      </trkpt>
      <trkpt lat="60.59113" lon="17.43683">
        <ele>10.120281</ele>
        <time>2020-08-30T02:35:55.358Z</time>
      </trkpt>
      <trkpt lat="60.59083" lon="17.43721">
        <ele>10.172164</ele>
        <time>2020-08-30T02:36:01.790Z</time>
      </trkpt>
      <trkpt lat="60.58926" lon="17.4385">
        <ele>10.549688</ele>
        <time>2020-08-30T02:36:33.228Z</time>
      </trkpt>
      <trkpt lat="60.58753" lon="17.43858">
        <ele>10.898465</ele>
        <time>2020-08-30T02:37:05.868Z</time>
      </trkpt>
      <trkpt lat="60.58721" lon="17.43874">
        <ele>10.933602</ele>
        <time>2020-08-30T02:37:11.940Z</time>
      </trkpt>
      <trkpt lat="60.58661" lon="17.43935">
        <ele>10.990525</ele>
        <time>2020-08-30T02:37:23.687Z</time>
      </trkpt>
      <trkpt lat="60.58603" lon="17.44013">
        <ele>10.820727</ele>
        <time>2020-08-30T02:37:35.530Z</time>
      </trkpt>
      <trkpt lat="60.5859" lon="17.44032">
        <ele>10.781334</ele>
        <time>2020-08-30T02:37:38.173Z</time>
      </trkpt>
      <trkpt lat="60.58562" lon="17.4407">
        <ele>10.700661</ele>
        <time>2020-08-30T02:37:43.714Z</time>
      </trkpt>
      <trkpt lat="60.58467" lon="17.44203">
        <ele>10.599298</ele>
        <time>2020-08-30T02:38:03.621Z</time>
      </trkpt>
      <trkpt lat="60.58436" lon="17.44247">
        <ele>10.625067</ele>
        <time>2020-08-30T02:38:10.515Z</time>
      </trkpt>
      <trkpt lat="60.58376" lon="17.44317">
        <ele>10.671809</ele>
        <time>2020-08-30T02:38:23.396Z</time>
      </trkpt>
      <trkpt lat="60.58292" lon="17.44408">
        <ele>10.721025</ele>
        <time>2020-08-30T02:38:41.560Z</time>
      </trkpt>
      <trkpt lat="60.58251" lon="17.44438">
        <ele>10.742438</ele>
        <time>2020-08-30T02:38:49.491Z</time>
      </trkpt>
      <trkpt lat="60.58214" lon="17.44455">
        <ele>10.760718</ele>
        <time>2020-08-30T02:38:55.813Z</time>
      </trkpt>
      <trkpt lat="60.582" lon="17.44463">
        <ele>10.768089</ele>
        <time>2020-08-30T02:38:58.238Z</time>
      </trkpt>
      <trkpt lat="60.58182" lon="17.4447">
        <ele>10.674609</ele>
        <time>2020-08-30T02:39:01.255Z</time>
      </trkpt>
      <trkpt lat="60.58123" lon="17.4449">
        <ele>10.278495</ele>
        <time>2020-08-30T02:39:11.068Z</time>
      </trkpt>
      <trkpt lat="60.58103" lon="17.44496">
        <ele>10.145421</ele>
        <time>2020-08-30T02:39:14.384Z</time>
      </trkpt>
      <trkpt lat="60.58096" lon="17.44497">
        <ele>10.103971</ele>
        <time>2020-08-30T02:39:15.311Z</time>
      </trkpt>
      <trkpt lat="60.58044" lon="17.44498">
        <ele>9.75891</ele>
        <time>2020-08-30T02:39:23.629Z</time>
      </trkpt>
      <trkpt lat="60.57986" lon="17.44478">
        <ele>9.453941</ele>
        <time>2020-08-30T02:39:32.775Z</time>
      </trkpt>
      <trkpt lat="60.57926" lon="17.44446">
        <ele>9.194612</ele>
        <time>2020-08-30T02:39:43.022Z</time>
      </trkpt>
      <trkpt lat="60.57837" lon="17.44365">
        <ele>8.855588</ele>
        <time>2020-08-30T02:39:59.994Z</time>
      </trkpt>
      <trkpt lat="60.57806" lon="17.44355">
        <ele>8.89685</ele>
        <time>2020-08-30T02:40:05.665Z</time>
      </trkpt>
      <trkpt lat="60.57742" lon="17.44355">
        <ele>8.979286</ele>
        <time>2020-08-30T02:40:17.263Z</time>
      </trkpt>
      <trkpt lat="60.57739" lon="17.44355">
        <ele>8.984245</ele>
        <time>2020-08-30T02:40:17.886Z</time>
      </trkpt>
      <trkpt lat="60.5771" lon="17.44346">
        <ele>9.021352</ele>
        <time>2020-08-30T02:40:23.199Z</time>
      </trkpt>
      <trkpt lat="60.57654" lon="17.44317">
        <ele>9.12193</ele>
        <time>2020-08-30T02:40:34.039Z</time>
      </trkpt>
      <trkpt lat="60.57404" lon="17.44007">
        <ele>10.055884</ele>
        <time>2020-08-30T02:41:28.693Z</time>
      </trkpt>
      <trkpt lat="60.57354" lon="17.43964">
        <ele>10.306777</ele>
        <time>2020-08-30T02:41:39.292Z</time>
      </trkpt>
      <trkpt lat="60.57322" lon="17.43942">
        <ele>10.706471</ele>
        <time>2020-08-30T02:41:46.210Z</time>
      </trkpt>
      <trkpt lat="60.57033" lon="17.43811">
        <ele>14.788867</ele>
        <time>2020-08-30T02:42:51.958Z</time>
      </trkpt>
      <trkpt lat="60.56884" lon="17.43668">
        <ele>18.077889</ele>
        <time>2020-08-30T02:43:33.670Z</time>
      </trkpt>
      <trkpt lat="60.5684" lon="17.43637">
        <ele>18.924446</ele>
        <time>2020-08-30T02:43:44.635Z</time>
      </trkpt>
      <trkpt lat="60.56832" lon="17.43631">
        <ele>18.965544</ele>
        <time>2020-08-30T02:43:46.572Z</time>
      </trkpt>
      <trkpt lat="60.56786" lon="17.43607">
        <ele>19.190948</ele>
        <time>2020-08-30T02:43:56.830Z</time>
      </trkpt>
      <trkpt lat="60.56769" lon="17.43603">
        <ele>19.27357</ele>
        <time>2020-08-30T02:44:00.401Z</time>
      </trkpt>
      <trkpt lat="60.56719" lon="17.43599">
        <ele>19.513561</ele>
        <time>2020-08-30T02:44:09.955Z</time>
      </trkpt>
      <trkpt lat="60.56679" lon="17.43614">
        <ele>19.707988</ele>
        <time>2020-08-30T02:44:16.814Z</time>
      </trkpt>
      <trkpt lat="60.5664" lon="17.43642">
        <ele>19.266738</ele>
        <time>2020-08-30T02:44:23.064Z</time>
      </trkpt>
      <trkpt lat="60.56591" lon="17.43701">
        <ele>18.403984</ele>
        <time>2020-08-30T02:44:31.368Z</time>
      </trkpt>
      <trkpt lat="60.56588" lon="17.43706">
        <ele>18.34129</ele>
        <time>2020-08-30T02:44:31.903Z</time>
      </trkpt>
      <trkpt lat="60.56576" lon="17.43729">
        <ele>18.090515</ele>
        <time>2020-08-30T02:44:34.320Z</time>
      </trkpt>
      <trkpt lat="60.56566" lon="17.43749">
        <ele>17.876895</ele>
        <time>2020-08-30T02:44:36.338Z</time>
      </trkpt>
      <trkpt lat="60.56539" lon="17.43797">
        <ele>17.342632</ele>
        <time>2020-08-30T02:44:41.374Z</time>
      </trkpt>
      <trkpt lat="60.56531" lon="17.4381">
        <ele>17.187938</ele>
        <time>2020-08-30T02:44:42.770Z</time>
      </trkpt>
      <trkpt lat="60.56507" lon="17.43854">
        <ele>16.881338</ele>
        <time>2020-08-30T02:44:47.461Z</time>
      </trkpt>
      <trkpt lat="60.56492" lon="17.43879">
        <ele>16.747264</ele>
        <time>2020-08-30T02:44:50.471Z</time>
      </trkpt>
      <trkpt lat="60.56484" lon="17.43891">
        <ele>16.683584</ele>
        <time>2020-08-30T02:44:51.878Z</time>
      </trkpt>
      <trkpt lat="60.56462" lon="17.43928">
        <ele>16.489186</ele>
        <time>2020-08-30T02:44:56.176Z</time>
      </trkpt>
      <trkpt lat="60.56449" lon="17.43946">
        <ele>16.383573</ele>
        <time>2020-08-30T02:44:58.688Z</time>
      </trkpt>
      <trkpt lat="60.56434" lon="17.43968">
        <ele>16.256692</ele>
        <time>2020-08-30T02:45:01.716Z</time>
      </trkpt>
      <trkpt lat="60.56421" lon="17.43987">
        <ele>16.148986</ele>
        <time>2020-08-30T02:45:04.397Z</time>
      </trkpt>
      <trkpt lat="60.56411" lon="17.44006">
        <ele>16.056487</ele>
        <time>2020-08-30T02:45:06.722Z</time>
      </trkpt>
      <trkpt lat="60.56355" lon="17.44121">
        <ele>16.327005</ele>
        <time>2020-08-30T02:45:22.209Z</time>
      </trkpt>
      <trkpt lat="60.56344" lon="17.44129">
        <ele>16.459625</ele>
        <time>2020-08-30T02:45:24.748Z</time>
      </trkpt>
      <trkpt lat="60.56195" lon="17.44098">
        <ele>18.227999</ele>
        <time>2020-08-30T02:45:58.876Z</time>
      </trkpt>
      <trkpt lat="60.56176" lon="17.44101">
        <ele>18.446869</ele>
        <time>2020-08-30T02:46:02.925Z</time>
      </trkpt>
      <trkpt lat="60.56141" lon="17.44129">
        <ele>18.888963</ele>
        <time>2020-08-30T02:46:11.202Z</time>
      </trkpt>
      <trkpt lat="60.5614" lon="17.44136">
        <ele>18.9335</ele>
        <time>2020-08-30T02:46:12.280Z</time>
      </trkpt>
      <trkpt lat="60.5614" lon="17.44143">
        <ele>18.971647</ele>
        <time>2020-08-30T02:46:12.953Z</time>
      </trkpt>
      <trkpt lat="60.56141" lon="17.44223">
        <ele>19.434377</ele>
        <time>2020-08-30T02:46:21.390Z</time>
      </trkpt>
      <trkpt lat="60.56138" lon="17.44264">
        <ele>19.674821</ele>
        <time>2020-08-30T02:46:25.554Z</time>
      </trkpt>
      <trkpt lat="60.56135" lon="17.44324">
        <ele>20.02267</ele>
        <time>2020-08-30T02:46:31.739Z</time>
      </trkpt>
      <trkpt lat="60.56133" lon="17.44352">
        <ele>20.099889</ele>
        <time>2020-08-30T02:46:34.686Z</time>
      </trkpt>
      <trkpt lat="60.56131" lon="17.4438">
        <ele>20.168601</ele>
        <time>2020-08-30T02:46:37.552Z</time>
      </trkpt>
      <trkpt lat="60.56135" lon="17.4438">
        <ele>20.185589</ele>
        <time>2020-08-30T02:46:38.239Z</time>
      </trkpt>
      <trkpt lat="60.56143" lon="17.44382">
        <ele>20.226379</ele>
        <time>2020-08-30T02:46:39.916Z</time>
      </trkpt>
      <trkpt lat="60.56143" lon="17.44394">
        <ele>20.255913</ele>
        <time>2020-08-30T02:46:41.204Z</time>
      </trkpt>
      <trkpt lat="60.56153" lon="17.44534">
        <ele>20.593708</ele>
        <time>2020-08-30T02:46:55.326Z</time>
      </trkpt>
      <trkpt lat="60.56215" lon="17.44669">
        <ele>20.925793</ele>
        <time>2020-08-30T02:47:12.665Z</time>
      </trkpt>
      <trkpt lat="60.56239" lon="17.44693">
        <ele>20.938731</ele>
        <time>2020-08-30T02:47:17.732Z</time>
      </trkpt>
      <trkpt lat="60.56335" lon="17.44746">
        <ele>20.985966</ele>
        <time>2020-08-30T02:47:36.161Z</time>
      </trkpt>
      <trkpt lat="60.56355" lon="17.44766">
        <ele>20.996583</ele>
        <time>2020-08-30T02:47:40.295Z</time>
      </trkpt>
      <trkpt lat="60.56351" lon="17.44772">
        <ele>20.998729</ele>
        <time>2020-08-30T02:47:41.140Z</time>
      </trkpt>
      <trkpt lat="60.56361" lon="17.44791">
        <ele>21.000012</ele>
        <time>2020-08-30T02:47:43.481Z</time>
      </trkpt>
      <trkpt lat="60.56385" lon="17.44836">
        <ele>21.000012</ele>
        <time>2020-08-30T02:47:49.275Z</time>
      </trkpt>
      <trkpt lat="60.56371" lon="17.44927">
        <ele>21.000012</ele>
        <time>2020-08-30T02:47:57.941Z</time>
      </trkpt>
      <trkpt lat="60.56367" lon="17.44973">
        <ele>21.000012</ele>
        <time>2020-08-30T02:48:02.246Z</time>
      </trkpt>
      <trkpt lat="60.56325" lon="17.45377">
        <ele>21.000012</ele>
        <time>2020-08-30T02:48:40.034Z</time>
      </trkpt>
      <trkpt lat="60.56286" lon="17.45753">
        <ele>20.891632</ele>
        <time>2020-08-30T02:49:15.037Z</time>
      </trkpt>
      <trkpt lat="60.56259" lon="17.4601">
        <ele>20.586419</ele>
        <time>2020-08-30T02:49:37.992Z</time>
      </trkpt>
      <trkpt lat="60.56245" lon="17.46138">
        <ele>20.394566</ele>
        <time>2020-08-30T02:49:49.419Z</time>
      </trkpt>
      <trkpt lat="60.56241" lon="17.46178">
        <ele>20.335322</ele>
        <time>2020-08-30T02:49:52.967Z</time>
      </trkpt>
      <trkpt lat="60.56164" lon="17.46264">
        <ele>20.172938</ele>
        <time>2020-08-30T02:50:07.841Z</time>
      </trkpt>
      <trkpt lat="60.56151" lon="17.46278">
        <ele>20.14737</ele>
        <time>2020-08-30T02:50:10.268Z</time>
      </trkpt>
      <trkpt lat="60.56147" lon="17.46282">
        <ele>20.13941</ele>
        <time>2020-08-30T02:50:11.021Z</time>
      </trkpt>
      <trkpt lat="60.56137" lon="17.46291">
        <ele>20.117964</ele>
        <time>2020-08-30T02:50:13.044Z</time>
      </trkpt>
      <trkpt lat="60.56133" lon="17.46289">
        <ele>20.110974</ele>
        <time>2020-08-30T02:50:13.702Z</time>
      </trkpt>
      <trkpt lat="60.5612" lon="17.46298">
        <ele>20.085492</ele>
        <time>2020-08-30T02:50:16.179Z</time>
      </trkpt>
      <trkpt lat="60.56073" lon="17.46376">
        <ele>20.002121</ele>
        <time>2020-08-30T02:50:26.901Z</time>
      </trkpt>
      <trkpt lat="60.56067" lon="17.46387">
        <ele>20.002009</ele>
        <time>2020-08-30T02:50:28.470Z</time>
      </trkpt>
      <trkpt lat="60.55929" lon="17.46644">
        <ele>20.000012</ele>
        <time>2020-08-30T02:51:01.785Z</time>
      </trkpt>
      <trkpt lat="60.55814" lon="17.469">
        <ele>20.000012</ele>
        <time>2020-08-30T02:51:32.275Z</time>
      </trkpt>
      <trkpt lat="60.55653" lon="17.47336">
        <ele>20.000012</ele>
        <time>2020-08-30T02:52:20.043Z</time>
      </trkpt>
      <trkpt lat="60.55547" lon="17.4772">
        <ele>20.000012</ele>
        <time>2020-08-30T02:52:58.670Z</time>
      </trkpt>
      <trkpt lat="60.55503" lon="17.47905">
        <ele>20.000012</ele>
        <time>2020-08-30T02:53:16.752Z</time>
      </trkpt>
      <trkpt lat="60.55476" lon="17.48042">
        <ele>20.000012</ele>
        <time>2020-08-30T02:53:29.625Z</time>
      </trkpt>
      <trkpt lat="60.55325" lon="17.48895">
        <ele>20.002504</ele>
        <time>2020-08-30T02:54:49.206Z</time>
      </trkpt>
      <trkpt lat="60.55322" lon="17.48913">
        <ele>20.003034</ele>
        <time>2020-08-30T02:54:50.938Z</time>
      </trkpt>
      <trkpt lat="60.55275" lon="17.49185">
        <ele>20.020469</ele>
        <time>2020-08-30T02:55:16.224Z</time>
      </trkpt>
      <trkpt lat="60.55028" lon="17.50629">
        <ele>20.963628</ele>
        <time>2020-08-30T02:57:32.138Z</time>
      </trkpt>
      <trkpt lat="60.55023" lon="17.50661">
        <ele>21.116353</ele>
        <time>2020-08-30T02:57:35.538Z</time>
      </trkpt>
      <trkpt lat="60.54738" lon="17.52288">
        <ele>28.75664</ele>
        <time>2020-08-30T03:00:33.773Z</time>
      </trkpt>
      <trkpt lat="60.54577" lon="17.53156">
        <ele>29.495202</ele>
        <time>2020-08-30T03:01:57.567Z</time>
      </trkpt>
      <trkpt lat="60.54542" lon="17.53328">
        <ele>29.233288</ele>
        <time>2020-08-30T03:02:13.135Z</time>
      </trkpt>
      <trkpt lat="60.54509" lon="17.53493">
        <ele>28.331132</ele>
        <time>2020-08-30T03:02:27.066Z</time>
      </trkpt>
      <trkpt lat="60.5445" lon="17.53781">
        <ele>25.960629</ele>
        <time>2020-08-30T03:02:49.333Z</time>
      </trkpt>
      <trkpt lat="60.5436" lon="17.54181">
        <ele>21.606774</ele>
        <time>2020-08-30T03:03:19.460Z</time>
      </trkpt>
      <trkpt lat="60.54271" lon="17.54542">
        <ele>18.162068</ele>
        <time>2020-08-30T03:03:48.119Z</time>
      </trkpt>
      <trkpt lat="60.54254" lon="17.54613">
        <ele>17.532948</ele>
        <time>2020-08-30T03:03:53.902Z</time>
      </trkpt>
      <trkpt lat="60.54207" lon="17.54797">
        <ele>16.479147</ele>
        <time>2020-08-30T03:04:09.278Z</time>
      </trkpt>
      <trkpt lat="60.54192" lon="17.54859">
        <ele>16.123327</ele>
        <time>2020-08-30T03:04:14.623Z</time>
      </trkpt>
      <trkpt lat="60.54182" lon="17.54896">
        <ele>15.91499</ele>
        <time>2020-08-30T03:04:17.813Z</time>
      </trkpt>
      <trkpt lat="60.53604" lon="17.57172">
        <ele>10.559996</ele>
        <time>2020-08-30T03:07:48.201Z</time>
      </trkpt>
      <trkpt lat="60.53541" lon="17.57418">
        <ele>10.277013</ele>
        <time>2020-08-30T03:08:11.637Z</time>
      </trkpt>
      <trkpt lat="60.53389" lon="17.58004">
        <ele>10.027311</ele>
        <time>2020-08-30T03:09:09.206Z</time>
      </trkpt>
      <trkpt lat="60.53337" lon="17.58182">
        <ele>10.000012</ele>
        <time>2020-08-30T03:09:27.409Z</time>
      </trkpt>
      <trkpt lat="60.53351" lon="17.58203">
        <ele>10.000012</ele>
        <time>2020-08-30T03:09:30.444Z</time>
      </trkpt>
      <trkpt lat="60.5336" lon="17.58232">
        <ele>10.000012</ele>
        <time>2020-08-30T03:09:33.577Z</time>
      </trkpt>
      <trkpt lat="60.5336" lon="17.58255">
        <ele>10.000012</ele>
        <time>2020-08-30T03:09:35.587Z</time>
      </trkpt>
      <trkpt lat="60.53246" lon="17.58862">
        <ele>10.000012</ele>
        <time>2020-08-30T03:10:32.653Z</time>
      </trkpt>
      <trkpt lat="60.53213" lon="17.58948">
        <ele>10.000012</ele>
        <time>2020-08-30T03:10:42.216Z</time>
      </trkpt>
      <trkpt lat="60.53145" lon="17.5906">
        <ele>10.000012</ele>
        <time>2020-08-30T03:10:57.812Z</time>
      </trkpt>
      <trkpt lat="60.53049" lon="17.59426">
        <ele>10.000012</ele>
        <time>2020-08-30T03:11:34.314Z</time>
      </trkpt>
      <trkpt lat="60.53001" lon="17.59561">
        <ele>10.000012</ele>
        <time>2020-08-30T03:11:48.932Z</time>
      </trkpt>
      <trkpt lat="60.5296" lon="17.59633">
        <ele>10.000012</ele>
        <time>2020-08-30T03:11:58.545Z</time>
      </trkpt>
      <trkpt lat="60.52937" lon="17.5966">
        <ele>10.000012</ele>
        <time>2020-08-30T03:12:03.324Z</time>
      </trkpt>
      <trkpt lat="60.52908" lon="17.59693">
        <ele>10.000012</ele>
        <time>2020-08-30T03:12:09.275Z</time>
      </trkpt>
      <trkpt lat="60.52848" lon="17.59774">
        <ele>10.000012</ele>
        <time>2020-08-30T03:12:22.099Z</time>
      </trkpt>
      <trkpt lat="60.52758" lon="17.59868">
        <ele>10.000012</ele>
        <time>2020-08-30T03:12:40.172Z</time>
      </trkpt>
      <trkpt lat="60.52731" lon="17.59897">
        <ele>10.000012</ele>
        <time>2020-08-30T03:12:45.633Z</time>
      </trkpt>
      <trkpt lat="60.52653" lon="17.59971">
        <ele>10.000012</ele>
        <time>2020-08-30T03:13:00.920Z</time>
      </trkpt>
      <trkpt lat="60.52566" lon="17.60083">
        <ele>9.991595</ele>
        <time>2020-08-30T03:13:19.228Z</time>
      </trkpt>
      <trkpt lat="60.5252" lon="17.60187">
        <ele>9.977469</ele>
        <time>2020-08-30T03:13:31.566Z</time>
      </trkpt>
      <trkpt lat="60.52505" lon="17.60233">
        <ele>9.971989</ele>
        <time>2020-08-30T03:13:36.361Z</time>
      </trkpt>
      <trkpt lat="60.52493" lon="17.60276">
        <ele>9.966983</ele>
        <time>2020-08-30T03:13:40.711Z</time>
      </trkpt>
      <trkpt lat="60.5248" lon="17.60276">
        <ele>9.964369</ele>
        <time>2020-08-30T03:13:42.982Z</time>
      </trkpt>
      <trkpt lat="60.52468" lon="17.6028">
        <ele>9.94845</ele>
        <time>2020-08-30T03:13:45.196Z</time>
      </trkpt>
      <trkpt lat="60.52435" lon="17.60295">
        <ele>9.880087</ele>
        <time>2020-08-30T03:13:51.028Z</time>
      </trkpt>
      <trkpt lat="60.52405" lon="17.6031">
        <ele>9.815306</ele>
        <time>2020-08-30T03:13:56.503Z</time>
      </trkpt>
      <trkpt lat="60.52385" lon="17.60309">
        <ele>9.774229</ele>
        <time>2020-08-30T03:13:59.962Z</time>
      </trkpt>
      <trkpt lat="60.52368" lon="17.60274">
        <ele>9.724688</ele>
        <time>2020-08-30T03:14:04.105Z</time>
      </trkpt>
      <trkpt lat="60.52356" lon="17.60244">
        <ele>9.685583</ele>
        <time>2020-08-30T03:14:07.352Z</time>
      </trkpt>
      <trkpt lat="60.52337" lon="17.60208">
        <ele>9.632537</ele>
        <time>2020-08-30T03:14:11.745Z</time>
      </trkpt>
      <trkpt lat="60.52322" lon="17.60196">
        <ele>9.5985</ele>
        <time>2020-08-30T03:14:14.537Z</time>
      </trkpt>
      <trkpt lat="60.52306" lon="17.60196">
        <ele>9.535461</ele>
        <time>2020-08-30T03:14:17.242Z</time>
      </trkpt>
      <trkpt lat="60.52277" lon="17.60221">
        <ele>9.403431</ele>
        <time>2020-08-30T03:14:22.480Z</time>
      </trkpt>
      <trkpt lat="60.52113" lon="17.60417">
        <ele>8.742496</ele>
        <time>2020-08-30T03:14:54.008Z</time>
      </trkpt>
      <trkpt lat="60.52082" lon="17.60445">
        <ele>8.683191</ele>
        <time>2020-08-30T03:14:59.904Z</time>
      </trkpt>
      <trkpt lat="60.51986" lon="17.60504">
        <ele>8.542339</ele>
        <time>2020-08-30T03:15:17.617Z</time>
      </trkpt>
      <trkpt lat="60.51931" lon="17.60534">
        <ele>8.620614</ele>
        <time>2020-08-30T03:15:27.993Z</time>
      </trkpt>
      <trkpt lat="60.51894" lon="17.60545">
        <ele>8.672145</ele>
        <time>2020-08-30T03:15:34.882Z</time>
      </trkpt>
      <trkpt lat="60.51859" lon="17.60554">
        <ele>8.721072</ele>
        <time>2020-08-30T03:15:41.432Z</time>
      </trkpt>
      <trkpt lat="60.51842" lon="17.6056">
        <ele>8.744645</ele>
        <time>2020-08-30T03:15:44.620Z</time>
      </trkpt>
      <trkpt lat="60.5183" lon="17.60554">
        <ele>8.761429</ele>
        <time>2020-08-30T03:15:46.843Z</time>
      </trkpt>
      <trkpt lat="60.51756" lon="17.60516">
        <ele>8.804299</ele>
        <time>2020-08-30T03:16:00.943Z</time>
      </trkpt>
      <trkpt lat="60.51701" lon="17.60459">
        <ele>8.829901</ele>
        <time>2020-08-30T03:16:11.985Z</time>
      </trkpt>
      <trkpt lat="60.51406" lon="17.60055">
        <ele>8.536281</ele>
        <time>2020-08-30T03:17:14.575Z</time>
      </trkpt>
      <trkpt lat="60.51353" lon="17.59995">
        <ele>8.444087</ele>
        <time>2020-08-30T03:17:25.004Z</time>
      </trkpt>
      <trkpt lat="60.51178" lon="17.59901">
        <ele>7.803472</ele>
        <time>2020-08-30T03:17:55.324Z</time>
      </trkpt>
      <trkpt lat="60.51147" lon="17.59893">
        <ele>7.678122</ele>
        <time>2020-08-30T03:18:00.539Z</time>
      </trkpt>
      <trkpt lat="60.51078" lon="17.59895">
        <ele>7.404355</ele>
        <time>2020-08-30T03:18:11.949Z</time>
      </trkpt>
      <trkpt lat="60.51046" lon="17.59902">
        <ele>7.275672</ele>
        <time>2020-08-30T03:18:17.321Z</time>
      </trkpt>
      <trkpt lat="60.51004" lon="17.59925">
        <ele>7.101543</ele>
        <time>2020-08-30T03:18:24.675Z</time>
      </trkpt>
      <trkpt lat="60.50597" lon="17.60231">
        <ele>5.802932</ele>
        <time>2020-08-30T03:19:38.112Z</time>
      </trkpt>
      <trkpt lat="60.50559" lon="17.60249">
        <ele>5.72956</ele>
        <time>2020-08-30T03:19:44.900Z</time>
      </trkpt>
      <trkpt lat="60.50523" lon="17.60255">
        <ele>5.66292</ele>
        <time>2020-08-30T03:19:51.126Z</time>
      </trkpt>
      <trkpt lat="60.50493" lon="17.60255">
        <ele>5.608733</ele>
        <time>2020-08-30T03:19:56.508Z</time>
      </trkpt>
      <trkpt lat="60.50442" lon="17.60235">
        <ele>5.640398</ele>
        <time>2020-08-30T03:20:05.729Z</time>
      </trkpt>
      <trkpt lat="60.50241" lon="17.60086">
        <ele>5.689349</ele>
        <time>2020-08-30T03:20:44.798Z</time>
      </trkpt>
      <trkpt lat="60.50173" lon="17.60049">
        <ele>5.665913</ele>
        <time>2020-08-30T03:20:56.968Z</time>
      </trkpt>
      <trkpt lat="60.50141" lon="17.6004">
        <ele>5.63237</ele>
        <time>2020-08-30T03:21:02.435Z</time>
      </trkpt>
      <trkpt lat="60.50105" lon="17.60142">
        <ele>5.4614</ele>
        <time>2020-08-30T03:21:12.867Z</time>
      </trkpt>
      <trkpt lat="60.50066" lon="17.60256">
        <ele>5.271279</ele>
        <time>2020-08-30T03:21:24.399Z</time>
      </trkpt>
      <trkpt lat="60.50021" lon="17.60512">
        <ele>5.290676</ele>
        <time>2020-08-30T03:21:47.696Z</time>
      </trkpt>
      <trkpt lat="60.49968" lon="17.60753">
        <ele>5.666579</ele>
        <time>2020-08-30T03:22:12.736Z</time>
      </trkpt>
      <trkpt lat="60.49883" lon="17.60991">
        <ele>6.486429</ele>
        <time>2020-08-30T03:22:42.015Z</time>
      </trkpt>
      <trkpt lat="60.49725" lon="17.61462">
        <ele>6.888738</ele>
        <time>2020-08-30T03:23:34.302Z</time>
      </trkpt>
      <trkpt lat="60.49658" lon="17.61648">
        <ele>6.631422</ele>
        <time>2020-08-30T03:23:52.404Z</time>
      </trkpt>
      <trkpt lat="60.49571" lon="17.61811">
        <ele>6.165093</ele>
        <time>2020-08-30T03:24:11.803Z</time>
      </trkpt>
      <trkpt lat="60.49514" lon="17.61893">
        <ele>6.541742</ele>
        <time>2020-08-30T03:24:25.519Z</time>
      </trkpt>
      <trkpt lat="60.49456" lon="17.61941">
        <ele>7.082675</ele>
        <time>2020-08-30T03:24:38.610Z</time>
      </trkpt>
      <trkpt lat="60.49422" lon="17.61972">
        <ele>7.410391</ele>
        <time>2020-08-30T03:24:46.856Z</time>
      </trkpt>
      <trkpt lat="60.49345" lon="17.61992">
        <ele>8.059159</ele>
        <time>2020-08-30T03:25:03.867Z</time>
      </trkpt>
      <trkpt lat="60.49106" lon="17.6197">
        <ele>9.592004</ele>
        <time>2020-08-30T03:25:51.132Z</time>
      </trkpt>
      <trkpt lat="60.48982" lon="17.61925">
        <ele>9.932712</ele>
        <time>2020-08-30T03:26:14.270Z</time>
      </trkpt>
      <trkpt lat="60.48819" lon="17.61905">
        <ele>10.000012</ele>
        <time>2020-08-30T03:26:43.427Z</time>
      </trkpt>
      <trkpt lat="60.4877" lon="17.61884">
        <ele>10.000012</ele>
        <time>2020-08-30T03:26:52.407Z</time>
      </trkpt>
      <trkpt lat="60.4862" lon="17.61711">
        <ele>10.000012</ele>
        <time>2020-08-30T03:27:23.170Z</time>
      </trkpt>
      <trkpt lat="60.48569" lon="17.61683">
        <ele>10.000012</ele>
        <time>2020-08-30T03:27:32.543Z</time>
      </trkpt>
      <trkpt lat="60.48467" lon="17.61708">
        <ele>10.000012</ele>
        <time>2020-08-30T03:27:50.877Z</time>
      </trkpt>
      <trkpt lat="60.48402" lon="17.61715">
        <ele>10.000012</ele>
        <time>2020-08-30T03:28:02.390Z</time>
      </trkpt>
      <trkpt lat="60.48339" lon="17.61695">
        <ele>10.000012</ele>
        <time>2020-08-30T03:28:13.806Z</time>
      </trkpt>
      <trkpt lat="60.48332" lon="17.61692">
        <ele>10.000012</ele>
        <time>2020-08-30T03:28:15.159Z</time>
      </trkpt>
      <trkpt lat="60.48247" lon="17.61657">
        <ele>10.000012</ele>
        <time>2020-08-30T03:28:30.551Z</time>
      </trkpt>
      <trkpt lat="60.48145" lon="17.61618">
        <ele>10.000012</ele>
        <time>2020-08-30T03:28:49.053Z</time>
      </trkpt>
      <trkpt lat="60.48078" lon="17.61572">
        <ele>10.000012</ele>
        <time>2020-08-30T03:29:01.605Z</time>
      </trkpt>
      <trkpt lat="60.48001" lon="17.61457">
        <ele>10.000012</ele>
        <time>2020-08-30T03:29:18.671Z</time>
      </trkpt>
      <trkpt lat="60.47988" lon="17.61439">
        <ele>10.000012</ele>
        <time>2020-08-30T03:29:21.469Z</time>
      </trkpt>
      <trkpt lat="60.47957" lon="17.61396">
        <ele>10.000012</ele>
        <time>2020-08-30T03:29:28.252Z</time>
      </trkpt>
      <trkpt lat="60.47884" lon="17.6132">
        <ele>10.000012</ele>
        <time>2020-08-30T03:29:42.882Z</time>
      </trkpt>
      <trkpt lat="60.47792" lon="17.61254">
        <ele>10.000012</ele>
        <time>2020-08-30T03:30:00.305Z</time>
      </trkpt>
      <trkpt lat="60.47744" lon="17.61239">
        <ele>10.000012</ele>
        <time>2020-08-30T03:30:08.899Z</time>
      </trkpt>
      <trkpt lat="60.47654" lon="17.61232">
        <ele>10.000012</ele>
        <time>2020-08-30T03:30:24.887Z</time>
      </trkpt>
      <trkpt lat="60.47594" lon="17.61238">
        <ele>10.000012</ele>
        <time>2020-08-30T03:30:35.572Z</time>
      </trkpt>
      <trkpt lat="60.47569" lon="17.61251">
        <ele>10.000012</ele>
        <time>2020-08-30T03:30:40.255Z</time>
      </trkpt>
      <trkpt lat="60.47555" lon="17.61258">
        <ele>10.000012</ele>
        <time>2020-08-30T03:30:42.750Z</time>
      </trkpt>
      <trkpt lat="60.46996" lon="17.61708">
        <ele>10.008494</ele>
        <time>2020-08-30T03:32:30.024Z</time>
      </trkpt>
      <trkpt lat="60.46942" lon="17.61728">
        <ele>10.072902</ele>
        <time>2020-08-30T03:32:39.939Z</time>
      </trkpt>
      <trkpt lat="60.46604" lon="17.61785">
        <ele>10.81032</ele>
        <time>2020-08-30T03:33:42.348Z</time>
      </trkpt>
      <trkpt lat="60.46458" lon="17.61738">
        <ele>11.726483</ele>
        <time>2020-08-30T03:34:11.930Z</time>
      </trkpt>
      <trkpt lat="60.463" lon="17.61673">
        <ele>13.033164</ele>
        <time>2020-08-30T03:34:45.346Z</time>
      </trkpt>
      <trkpt lat="60.46169" lon="17.61651">
        <ele>13.781021</ele>
        <time>2020-08-30T03:35:11.281Z</time>
      </trkpt>
      <trkpt lat="60.46103" lon="17.61621">
        <ele>14.145584</ele>
        <time>2020-08-30T03:35:24.197Z</time>
      </trkpt>
      <trkpt lat="60.45975" lon="17.6152">
        <ele>14.78888</ele>
        <time>2020-08-30T03:35:50.761Z</time>
      </trkpt>
      <trkpt lat="60.45966" lon="17.61491">
        <ele>14.867898</ele>
        <time>2020-08-30T03:35:54.033Z</time>
      </trkpt>
      <trkpt lat="60.45893" lon="17.6147">
        <ele>15.086348</ele>
        <time>2020-08-30T03:36:08.096Z</time>
      </trkpt>
      <trkpt lat="60.45838" lon="17.61462">
        <ele>15.219091</ele>
        <time>2020-08-30T03:36:18.618Z</time>
      </trkpt>
      <trkpt lat="60.45202" lon="17.61518">
        <ele>15.569851</ele>
        <time>2020-08-30T03:38:12.051Z</time>
      </trkpt>
      <trkpt lat="60.45165" lon="17.61529">
        <ele>15.815653</ele>
        <time>2020-08-30T03:38:19.492Z</time>
      </trkpt>
      <trkpt lat="60.4514" lon="17.6156">
        <ele>16.006012</ele>
        <time>2020-08-30T03:38:25.334Z</time>
      </trkpt>
      <trkpt lat="60.45129" lon="17.61584">
        <ele>16.113236</ele>
        <time>2020-08-30T03:38:28.692Z</time>
      </trkpt>
      <trkpt lat="60.45113" lon="17.61557">
        <ele>16.248226</ele>
        <time>2020-08-30T03:38:32.889Z</time>
      </trkpt>
      <trkpt lat="60.45074" lon="17.61517">
        <ele>16.531272</ele>
        <time>2020-08-30T03:38:41.993Z</time>
      </trkpt>
      <trkpt lat="60.44977" lon="17.61452">
        <ele>17.400413</ele>
        <time>2020-08-30T03:39:03.346Z</time>
      </trkpt>
      <trkpt lat="60.44961" lon="17.6144">
        <ele>17.551409</ele>
        <time>2020-08-30T03:39:06.962Z</time>
      </trkpt>
      <trkpt lat="60.44944" lon="17.61427">
        <ele>17.702772</ele>
        <time>2020-08-30T03:39:10.422Z</time>
      </trkpt>
      <trkpt lat="60.44927" lon="17.61414">
        <ele>17.865096</ele>
        <time>2020-08-30T03:39:14.310Z</time>
      </trkpt>
      <trkpt lat="60.44899" lon="17.61398">
        <ele>18.11441</ele>
        <time>2020-08-30T03:39:20.136Z</time>
      </trkpt>
      <trkpt lat="60.44862" lon="17.61383">
        <ele>18.356928</ele>
        <time>2020-08-30T03:39:27.635Z</time>
      </trkpt>
      <trkpt lat="60.44781" lon="17.61348">
        <ele>18.896882</ele>
        <time>2020-08-30T03:39:44.209Z</time>
      </trkpt>
      <trkpt lat="60.44776" lon="17.61346">
        <ele>18.928082</ele>
        <time>2020-08-30T03:39:45.169Z</time>
      </trkpt>
      <trkpt lat="60.44666" lon="17.61304">
        <ele>19.473167</ele>
        <time>2020-08-30T03:40:07.157Z</time>
      </trkpt>
      <trkpt lat="60.44563" lon="17.61258">
        <ele>19.815296</ele>
        <time>2020-08-30T03:40:26.894Z</time>
      </trkpt>
      <trkpt lat="60.44543" lon="17.61249">
        <ele>19.873859</ele>
        <time>2020-08-30T03:40:30.601Z</time>
      </trkpt>
      <trkpt lat="60.44511" lon="17.61235">
        <ele>19.897307</ele>
        <time>2020-08-30T03:40:36.600Z</time>
      </trkpt>
      <trkpt lat="60.44455" lon="17.61186">
        <ele>19.940722</ele>
        <time>2020-08-30T03:40:47.599Z</time>
      </trkpt>
      <trkpt lat="60.44347" lon="17.61059">
        <ele>20.018088</ele>
        <time>2020-08-30T03:41:09.796Z</time>
      </trkpt>
      <trkpt lat="60.44291" lon="17.61006">
        <ele>20.045619</ele>
        <time>2020-08-30T03:41:20.842Z</time>
      </trkpt>
      <trkpt lat="60.44108" lon="17.60879">
        <ele>20.372669</ele>
        <time>2020-08-30T03:41:55.965Z</time>
      </trkpt>
      <trkpt lat="60.44104" lon="17.60874">
        <ele>20.385017</ele>
        <time>2020-08-30T03:41:56.893Z</time>
      </trkpt>
      <trkpt lat="60.44097" lon="17.60866">
        <ele>20.4038</ele>
        <time>2020-08-30T03:41:58.308Z</time>
      </trkpt>
      <trkpt lat="60.44082" lon="17.60847">
        <ele>20.448353</ele>
        <time>2020-08-30T03:42:01.681Z</time>
      </trkpt>
      <trkpt lat="60.44068" lon="17.60828">
        <ele>20.490873</ele>
        <time>2020-08-30T03:42:04.926Z</time>
      </trkpt>
      <trkpt lat="60.43835" lon="17.60489">
        <ele>22.457274</ele>
        <time>2020-08-30T03:43:03.566Z</time>
      </trkpt>
      <trkpt lat="60.43824" lon="17.60478">
        <ele>22.524382</ele>
        <time>2020-08-30T03:43:06.222Z</time>
      </trkpt>
      <trkpt lat="60.43816" lon="17.60471">
        <ele>22.579313</ele>
        <time>2020-08-30T03:43:07.976Z</time>
      </trkpt>
      <trkpt lat="60.43769" lon="17.60446">
        <ele>22.853181</ele>
        <time>2020-08-30T03:43:16.914Z</time>
      </trkpt>
      <trkpt lat="60.43755" lon="17.60442">
        <ele>22.932784</ele>
        <time>2020-08-30T03:43:19.849Z</time>
      </trkpt>
      <trkpt lat="60.43746" lon="17.6044">
        <ele>22.948229</ele>
        <time>2020-08-30T03:43:21.350Z</time>
      </trkpt>
      <trkpt lat="60.43645" lon="17.60433">
        <ele>22.606603</ele>
        <time>2020-08-30T03:43:38.817Z</time>
      </trkpt>
      <trkpt lat="60.43627" lon="17.60432">
        <ele>22.547803</ele>
        <time>2020-08-30T03:43:41.518Z</time>
      </trkpt>
      <trkpt lat="60.43589" lon="17.60429">
        <ele>22.419454</ele>
        <time>2020-08-30T03:43:47.658Z</time>
      </trkpt>
      <trkpt lat="60.43532" lon="17.60422">
        <ele>22.267083</ele>
        <time>2020-08-30T03:43:57.123Z</time>
      </trkpt>
      <trkpt lat="60.43511" lon="17.60418">
        <ele>22.218233</ele>
        <time>2020-08-30T03:44:00.644Z</time>
      </trkpt>
      <trkpt lat="60.43496" lon="17.60414">
        <ele>22.182657</ele>
        <time>2020-08-30T03:44:03.208Z</time>
      </trkpt>
      <trkpt lat="60.43479" lon="17.60407">
        <ele>22.142588</ele>
        <time>2020-08-30T03:44:06.145Z</time>
      </trkpt>
      <trkpt lat="60.43451" lon="17.60388">
        <ele>22.074067</ele>
        <time>2020-08-30T03:44:11.290Z</time>
      </trkpt>
      <trkpt lat="60.4344" lon="17.60378">
        <ele>22.04464</ele>
        <time>2020-08-30T03:44:13.543Z</time>
      </trkpt>
      <trkpt lat="60.43433" lon="17.60373">
        <ele>22.028509</ele>
        <time>2020-08-30T03:44:14.769Z</time>
      </trkpt>
      <trkpt lat="60.43414" lon="17.60353">
        <ele>21.977669</ele>
        <time>2020-08-30T03:44:18.637Z</time>
      </trkpt>
      <trkpt lat="60.43393" lon="17.60335">
        <ele>21.936507</ele>
        <time>2020-08-30T03:44:22.620Z</time>
      </trkpt>
      <trkpt lat="60.43389" lon="17.60331">
        <ele>21.9357</ele>
        <time>2020-08-30T03:44:23.482Z</time>
      </trkpt>
      <trkpt lat="60.4336" lon="17.60312">
        <ele>21.930439</ele>
        <time>2020-08-30T03:44:28.848Z</time>
      </trkpt>
      <trkpt lat="60.43343" lon="17.60304">
        <ele>21.927237</ele>
        <time>2020-08-30T03:44:32.218Z</time>
      </trkpt>
      <trkpt lat="60.43325" lon="17.60298">
        <ele>21.924017</ele>
        <time>2020-08-30T03:44:35.508Z</time>
      </trkpt>
      <trkpt lat="60.43292" lon="17.60292">
        <ele>21.918224</ele>
        <time>2020-08-30T03:44:41.536Z</time>
      </trkpt>
      <trkpt lat="60.43281" lon="17.60292">
        <ele>21.916381</ele>
        <time>2020-08-30T03:44:43.408Z</time>
      </trkpt>
      <trkpt lat="60.43248" lon="17.60295">
        <ele>21.910637</ele>
        <time>2020-08-30T03:44:49.170Z</time>
      </trkpt>
      <trkpt lat="60.43246" lon="17.60295">
        <ele>21.910215</ele>
        <time>2020-08-30T03:44:49.591Z</time>
      </trkpt>
      <trkpt lat="60.4321" lon="17.60297">
        <ele>21.885251</ele>
        <time>2020-08-30T03:44:55.714Z</time>
      </trkpt>
      <trkpt lat="60.43188" lon="17.60298">
        <ele>21.843772</ele>
        <time>2020-08-30T03:44:59.525Z</time>
      </trkpt>
      <trkpt lat="60.43173" lon="17.60299">
        <ele>21.815874</ele>
        <time>2020-08-30T03:45:02.070Z</time>
      </trkpt>
      <trkpt lat="60.43165" lon="17.603">
        <ele>21.800436</ele>
        <time>2020-08-30T03:45:03.463Z</time>
      </trkpt>
      <trkpt lat="60.43146" lon="17.60299">
        <ele>21.764728</ele>
        <time>2020-08-30T03:45:06.757Z</time>
      </trkpt>
      <trkpt lat="60.43136" lon="17.60298">
        <ele>21.746678</ele>
        <time>2020-08-30T03:45:08.396Z</time>
      </trkpt>
      <trkpt lat="60.43126" lon="17.60297">
        <ele>21.728438</ele>
        <time>2020-08-30T03:45:10.059Z</time>
      </trkpt>
      <trkpt lat="60.43116" lon="17.60296">
        <ele>21.710216</ele>
        <time>2020-08-30T03:45:11.755Z</time>
      </trkpt>
      <trkpt lat="60.43081" lon="17.60289">
        <ele>21.644608</ele>
        <time>2020-08-30T03:45:17.855Z</time>
      </trkpt>
      <trkpt lat="60.42992" lon="17.60269">
        <ele>21.587303</ele>
        <time>2020-08-30T03:45:33.621Z</time>
      </trkpt>
      <trkpt lat="60.42955" lon="17.60262">
        <ele>21.598826</ele>
        <time>2020-08-30T03:45:40.176Z</time>
      </trkpt>
      <trkpt lat="60.42952" lon="17.60261">
        <ele>21.599635</ele>
        <time>2020-08-30T03:45:40.664Z</time>
      </trkpt>
      <trkpt lat="60.42873" lon="17.60244">
        <ele>21.624383</ele>
        <time>2020-08-30T03:45:55.219Z</time>
      </trkpt>
      <trkpt lat="60.42827" lon="17.60235">
        <ele>21.662542</ele>
        <time>2020-08-30T03:46:03.693Z</time>
      </trkpt>
      <trkpt lat="60.42793" lon="17.60225">
        <ele>21.69535</ele>
        <time>2020-08-30T03:46:09.979Z</time>
      </trkpt>
      <trkpt lat="60.42782" lon="17.60222">
        <ele>21.706225</ele>
        <time>2020-08-30T03:46:12.066Z</time>
      </trkpt>
      <trkpt lat="60.42763" lon="17.60217">
        <ele>21.724331</ele>
        <time>2020-08-30T03:46:15.502Z</time>
      </trkpt>
      <trkpt lat="60.42738" lon="17.6021">
        <ele>21.748451</ele>
        <time>2020-08-30T03:46:20.095Z</time>
      </trkpt>
      <trkpt lat="60.42722" lon="17.60207">
        <ele>21.764272</ele>
        <time>2020-08-30T03:46:23.068Z</time>
      </trkpt>
      <trkpt lat="60.42574" lon="17.60124">
        <ele>21.626002</ele>
        <time>2020-08-30T03:46:50.164Z</time>
      </trkpt>
      <trkpt lat="60.42388" lon="17.60003">
        <ele>21.04388</ele>
        <time>2020-08-30T03:47:22.888Z</time>
      </trkpt>
      <trkpt lat="60.42368" lon="17.59981">
        <ele>20.959062</ele>
        <time>2020-08-30T03:47:26.654Z</time>
      </trkpt>
      <trkpt lat="60.42366" lon="17.59979">
        <ele>20.949061</ele>
        <time>2020-08-30T03:47:27.043Z</time>
      </trkpt>
      <trkpt lat="60.42308" lon="17.59891">
        <ele>20.937688</ele>
        <time>2020-08-30T03:47:39.386Z</time>
      </trkpt>
      <trkpt lat="60.4226" lon="17.59797">
        <ele>21.038629</ele>
        <time>2020-08-30T03:47:51.334Z</time>
      </trkpt>
      <trkpt lat="60.42257" lon="17.5979">
        <ele>21.045816</ele>
        <time>2020-08-30T03:47:52.185Z</time>
      </trkpt>
      <trkpt lat="60.42238" lon="17.59755">
        <ele>21.084488</ele>
        <time>2020-08-30T03:47:57.024Z</time>
      </trkpt>
      <trkpt lat="60.4223" lon="17.5974">
        <ele>21.100256</ele>
        <time>2020-08-30T03:47:59.189Z</time>
      </trkpt>
      <trkpt lat="60.4218" lon="17.59655">
        <ele>21.597834</ele>
        <time>2020-08-30T03:48:12.588Z</time>
      </trkpt>
      <trkpt lat="60.42134" lon="17.59604">
        <ele>22.164041</ele>
        <time>2020-08-30T03:48:23.845Z</time>
      </trkpt>
      <trkpt lat="60.4208" lon="17.59565">
        <ele>22.784217</ele>
        <time>2020-08-30T03:48:36.563Z</time>
      </trkpt>
      <trkpt lat="60.41891" lon="17.59463">
        <ele>24.832365</ele>
        <time>2020-08-30T03:49:18.621Z</time>
      </trkpt>
      <trkpt lat="60.41784" lon="17.59375">
        <ele>24.78531</ele>
        <time>2020-08-30T03:49:41.032Z</time>
      </trkpt>
      <trkpt lat="60.41711" lon="17.5929">
        <ele>24.529118</ele>
        <time>2020-08-30T03:49:53.915Z</time>
      </trkpt>
      <trkpt lat="60.41688" lon="17.59259">
        <ele>24.095612</ele>
        <time>2020-08-30T03:49:57.887Z</time>
      </trkpt>
      <trkpt lat="60.41665" lon="17.59316">
        <ele>23.509038</ele>
        <time>2020-08-30T03:50:03.242Z</time>
      </trkpt>
      <trkpt lat="60.41658" lon="17.59335">
        <ele>23.320847</ele>
        <time>2020-08-30T03:50:05.041Z</time>
      </trkpt>
      <trkpt lat="60.4165" lon="17.59341">
        <ele>23.185108</ele>
        <time>2020-08-30T03:50:06.174Z</time>
      </trkpt>
      <trkpt lat="60.41632" lon="17.59341">
        <ele>22.906095</ele>
        <time>2020-08-30T03:50:08.721Z</time>
      </trkpt>
      <trkpt lat="60.41587" lon="17.5932">
        <ele>22.16691</ele>
        <time>2020-08-30T03:50:15.418Z</time>
      </trkpt>
      <trkpt lat="60.41551" lon="17.59325">
        <ele>21.669134</ele>
        <time>2020-08-30T03:50:20.548Z</time>
      </trkpt>
      <trkpt lat="60.4153" lon="17.59343">
        <ele>21.448906</ele>
        <time>2020-08-30T03:50:23.753Z</time>
      </trkpt>
      <trkpt lat="60.41441" lon="17.59521">
        <ele>20.253582</ele>
        <time>2020-08-30T03:50:43.608Z</time>
      </trkpt>
      <trkpt lat="60.41396" lon="17.59584">
        <ele>20.038971</ele>
        <time>2020-08-30T03:50:53.079Z</time>
      </trkpt>
      <trkpt lat="60.41361" lon="17.59619">
        <ele>20.011584</ele>
        <time>2020-08-30T03:50:59.824Z</time>
      </trkpt>
      <trkpt lat="60.41292" lon="17.59648">
        <ele>19.961041</ele>
        <time>2020-08-30T03:51:12.516Z</time>
      </trkpt>
      <trkpt lat="60.41259" lon="17.5964">
        <ele>19.937142</ele>
        <time>2020-08-30T03:51:18.609Z</time>
      </trkpt>
      <trkpt lat="60.41194" lon="17.59592">
        <ele>20.105597</ele>
        <time>2020-08-30T03:51:31.308Z</time>
      </trkpt>
      <trkpt lat="60.41147" lon="17.59511">
        <ele>20.260155</ele>
        <time>2020-08-30T03:51:42.752Z</time>
      </trkpt>
      <trkpt lat="60.41093" lon="17.59321">
        <ele>20.658183</ele>
        <time>2020-08-30T03:52:03.339Z</time>
      </trkpt>
      <trkpt lat="60.41071" lon="17.5927">
        <ele>20.814744</ele>
        <time>2020-08-30T03:52:09.827Z</time>
      </trkpt>
      <trkpt lat="60.40965" lon="17.59057">
        <ele>21.507186</ele>
        <time>2020-08-30T03:52:39.250Z</time>
      </trkpt>
      <trkpt lat="60.40903" lon="17.58957">
        <ele>21.864491</ele>
        <time>2020-08-30T03:52:54.473Z</time>
      </trkpt>
      <trkpt lat="60.40794" lon="17.58684">
        <ele>22.178615</ele>
        <time>2020-08-30T03:53:26.334Z</time>
      </trkpt>
      <trkpt lat="60.40743" lon="17.58613">
        <ele>22.198418</ele>
        <time>2020-08-30T03:53:37.328Z</time>
      </trkpt>
      <trkpt lat="60.40712" lon="17.58555">
        <ele>22.123597</ele>
        <time>2020-08-30T03:53:44.741Z</time>
      </trkpt>
      <trkpt lat="60.40645" lon="17.58454">
        <ele>21.974877</ele>
        <time>2020-08-30T03:53:59.170Z</time>
      </trkpt>
      <trkpt lat="60.40618" lon="17.58437">
        <ele>21.925911</ele>
        <time>2020-08-30T03:54:03.898Z</time>
      </trkpt>
      <trkpt lat="60.40569" lon="17.58425">
        <ele>21.784916</ele>
        <time>2020-08-30T03:54:12.380Z</time>
      </trkpt>
      <trkpt lat="60.40566" lon="17.58423">
        <ele>21.772851</ele>
        <time>2020-08-30T03:54:12.992Z</time>
      </trkpt>
      <trkpt lat="60.40558" lon="17.58419">
        <ele>21.746763</ele>
        <time>2020-08-30T03:54:14.413Z</time>
      </trkpt>
      <trkpt lat="60.40547" lon="17.58412">
        <ele>21.709313</ele>
        <time>2020-08-30T03:54:16.462Z</time>
      </trkpt>
      <trkpt lat="60.40538" lon="17.58406">
        <ele>21.681576</ele>
        <time>2020-08-30T03:54:17.966Z</time>
      </trkpt>
      <trkpt lat="60.40504" lon="17.58359">
        <ele>21.55053</ele>
        <time>2020-08-30T03:54:24.966Z</time>
      </trkpt>
      <trkpt lat="60.40496" lon="17.58325">
        <ele>21.490861</ele>
        <time>2020-08-30T03:54:28.171Z</time>
      </trkpt>
      <trkpt lat="60.40494" lon="17.58294">
        <ele>21.442459</ele>
        <time>2020-08-30T03:54:30.752Z</time>
      </trkpt>
      <trkpt lat="60.40496" lon="17.58281">
        <ele>21.421634</ele>
        <time>2020-08-30T03:54:31.846Z</time>
      </trkpt>
      <trkpt lat="60.40482" lon="17.58273">
        <ele>21.375903</ele>
        <time>2020-08-30T03:54:34.243Z</time>
      </trkpt>
      <trkpt lat="60.4046" lon="17.58254">
        <ele>21.293959</ele>
        <time>2020-08-30T03:54:38.172Z</time>
      </trkpt>
      <trkpt lat="60.40427" lon="17.58223">
        <ele>21.157104</ele>
        <time>2020-08-30T03:54:44.253Z</time>
      </trkpt>
      <trkpt lat="60.40422" lon="17.5822">
        <ele>21.137288</ele>
        <time>2020-08-30T03:54:45.164Z</time>
      </trkpt>
      <trkpt lat="60.40405" lon="17.58208">
        <ele>21.070994</ele>
        <time>2020-08-30T03:54:47.976Z</time>
      </trkpt>
      <trkpt lat="60.40353" lon="17.58189">
        <ele>20.872838</ele>
        <time>2020-08-30T03:54:56.867Z</time>
      </trkpt>
      <trkpt lat="60.40343" lon="17.58191">
        <ele>20.836448</ele>
        <time>2020-08-30T03:54:58.433Z</time>
      </trkpt>
      <trkpt lat="60.40337" lon="17.58195">
        <ele>20.81286</ele>
        <time>2020-08-30T03:54:59.431Z</time>
      </trkpt>
      <trkpt lat="60.40272" lon="17.58249">
        <ele>20.83501</ele>
        <time>2020-08-30T03:55:11.553Z</time>
      </trkpt>
      <trkpt lat="60.40268" lon="17.58255">
        <ele>20.862741</ele>
        <time>2020-08-30T03:55:12.407Z</time>
      </trkpt>
      <trkpt lat="60.40256" lon="17.58276">
        <ele>20.951853</ele>
        <time>2020-08-30T03:55:15.459Z</time>
      </trkpt>
      <trkpt lat="60.40251" lon="17.58283">
        <ele>20.986208</ele>
        <time>2020-08-30T03:55:16.578Z</time>
      </trkpt>
      <trkpt lat="60.40245" lon="17.5829">
        <ele>21.024338</ele>
        <time>2020-08-30T03:55:17.826Z</time>
      </trkpt>
      <trkpt lat="60.40229" lon="17.58297">
        <ele>21.111985</ele>
        <time>2020-08-30T03:55:20.833Z</time>
      </trkpt>
      <trkpt lat="60.40221" lon="17.58297">
        <ele>21.159949</ele>
        <time>2020-08-30T03:55:22.395Z</time>
      </trkpt>
      <trkpt lat="60.402" lon="17.5829">
        <ele>21.276791</ele>
        <time>2020-08-30T03:55:26.497Z</time>
      </trkpt>
      <trkpt lat="60.40193" lon="17.58288">
        <ele>21.316799</ele>
        <time>2020-08-30T03:55:27.897Z</time>
      </trkpt>
      <trkpt lat="60.40185" lon="17.58287">
        <ele>21.359906</ele>
        <time>2020-08-30T03:55:29.338Z</time>
      </trkpt>
      <trkpt lat="60.40177" lon="17.58287">
        <ele>21.407861</ele>
        <time>2020-08-30T03:55:31.015Z</time>
      </trkpt>
      <trkpt lat="60.40165" lon="17.58293">
        <ele>21.475835</ele>
        <time>2020-08-30T03:55:33.671Z</time>
      </trkpt>
      <trkpt lat="60.40153" lon="17.583">
        <ele>21.54334</ele>
        <time>2020-08-30T03:55:36.283Z</time>
      </trkpt>
      <trkpt lat="60.40147" lon="17.58305">
        <ele>21.581307</ele>
        <time>2020-08-30T03:55:38.062Z</time>
      </trkpt>
      <trkpt lat="60.40142" lon="17.58313">
        <ele>21.617392</ele>
        <time>2020-08-30T03:55:39.390Z</time>
      </trkpt>
      <trkpt lat="60.40137" lon="17.58322">
        <ele>21.651493</ele>
        <time>2020-08-30T03:55:40.658Z</time>
      </trkpt>
      <trkpt lat="60.40134" lon="17.58334">
        <ele>21.757434</ele>
        <time>2020-08-30T03:55:42.458Z</time>
      </trkpt>
      <trkpt lat="60.40128" lon="17.58371">
        <ele>22.13972</ele>
        <time>2020-08-30T03:55:46.862Z</time>
      </trkpt>
      <trkpt lat="60.40127" lon="17.58386">
        <ele>22.298012</ele>
        <time>2020-08-30T03:55:48.590Z</time>
      </trkpt>
      <trkpt lat="60.40139" lon="17.58416">
        <ele>22.693809</ele>
        <time>2020-08-30T03:55:53.253Z</time>
      </trkpt>
      <trkpt lat="60.40145" lon="17.58444">
        <ele>22.992605</ele>
        <time>2020-08-30T03:55:56.839Z</time>
      </trkpt>
      <trkpt lat="60.40145" lon="17.58451">
        <ele>23.060942</ele>
        <time>2020-08-30T03:55:57.576Z</time>
      </trkpt>
      <trkpt lat="60.40145" lon="17.58457">
        <ele>23.127736</ele>
        <time>2020-08-30T03:55:58.539Z</time>
      </trkpt>
      <trkpt lat="60.40121" lon="17.58511">
        <ele>23.849177</ele>
        <time>2020-08-30T03:56:07.311Z</time>
      </trkpt>
      <trkpt lat="60.40111" lon="17.5853">
        <ele>24.123853</ele>
        <time>2020-08-30T03:56:10.554Z</time>
      </trkpt>
      <trkpt lat="60.40107" lon="17.58538">
        <ele>24.246159</ele>
        <time>2020-08-30T03:56:12.359Z</time>
      </trkpt>
      <trkpt lat="60.40061" lon="17.58601">
        <ele>25.374245</ele>
        <time>2020-08-30T03:56:25.945Z</time>
      </trkpt>
      <trkpt lat="60.40036" lon="17.5865">
        <ele>26.198042</ele>
        <time>2020-08-30T03:56:34.965Z</time>
      </trkpt>
      <trkpt lat="60.3999" lon="17.58667">
        <ele>27.289256</ele>
        <time>2020-08-30T03:56:47.194Z</time>
      </trkpt>
      <trkpt lat="60.39949" lon="17.58697">
        <ele>28.312694</ele>
        <time>2020-08-30T03:56:58.382Z</time>
      </trkpt>
      <trkpt lat="60.39919" lon="17.58708">
        <ele>29.019361</ele>
        <time>2020-08-30T03:57:05.780Z</time>
      </trkpt>
      <trkpt lat="60.39897" lon="17.58703">
        <ele>29.556742</ele>
        <time>2020-08-30T03:57:11.377Z</time>
      </trkpt>
      <trkpt lat="60.39887" lon="17.58702">
        <ele>29.780559</ele>
        <time>2020-08-30T03:57:13.839Z</time>
      </trkpt>
      <trkpt lat="60.39873" lon="17.58704">
        <ele>30.111121</ele>
        <time>2020-08-30T03:57:17.299Z</time>
      </trkpt>
      <trkpt lat="60.39863" lon="17.58715">
        <ele>30.367657</ele>
        <time>2020-08-30T03:57:19.996Z</time>
      </trkpt>
      <trkpt lat="60.39803" lon="17.58837">
        <ele>32.314839</ele>
        <time>2020-08-30T03:57:41.203Z</time>
      </trkpt>
      <trkpt lat="60.39763" lon="17.58954">
        <ele>33.924096</ele>
        <time>2020-08-30T03:57:59.713Z</time>
      </trkpt>
      <trkpt lat="60.39743" lon="17.58983">
        <ele>34.454959</ele>
        <time>2020-08-30T03:58:05.988Z</time>
      </trkpt>
      <trkpt lat="60.39685" lon="17.58995">
        <ele>35.712716</ele>
        <time>2020-08-30T03:58:20.681Z</time>
      </trkpt>
      <trkpt lat="60.39623" lon="17.59001">
        <ele>37.042088</ele>
        <time>2020-08-30T03:58:35.764Z</time>
      </trkpt>
      <trkpt lat="60.39563" lon="17.59018">
        <ele>37.941563</ele>
        <time>2020-08-30T03:58:49.957Z</time>
      </trkpt>
      <trkpt lat="60.39549" lon="17.59031">
        <ele>38.103156</ele>
        <time>2020-08-30T03:58:53.366Z</time>
      </trkpt>
      <trkpt lat="60.39532" lon="17.59072">
        <ele>38.391046</ele>
        <time>2020-08-30T03:58:59.197Z</time>
      </trkpt>
      <trkpt lat="60.3951" lon="17.59189">
        <ele>39.052705</ele>
        <time>2020-08-30T03:59:11.588Z</time>
      </trkpt>
      <trkpt lat="60.39487" lon="17.59241">
        <ele>39.424789</ele>
        <time>2020-08-30T03:59:18.247Z</time>
      </trkpt>
      <trkpt lat="60.39464" lon="17.59267">
        <ele>39.673141</ele>
        <time>2020-08-30T03:59:23.356Z</time>
      </trkpt>
      <trkpt lat="60.39428" lon="17.59292">
        <ele>40.020967</ele>
        <time>2020-08-30T03:59:30.951Z</time>
      </trkpt>
      <trkpt lat="60.39334" lon="17.59314">
        <ele>40.899175</ele>
        <time>2020-08-30T03:59:50.840Z</time>
      </trkpt>
      <trkpt lat="60.39278" lon="17.59336">
        <ele>41.63078</ele>
        <time>2020-08-30T04:00:03.219Z</time>
      </trkpt>
      <trkpt lat="60.3925" lon="17.59366">
        <ele>42.145688</ele>
        <time>2020-08-30T04:00:10.554Z</time>
      </trkpt>
      <trkpt lat="60.3918" lon="17.5949">
        <ele>43.635002</ele>
        <time>2020-08-30T04:00:32.774Z</time>
      </trkpt>
      <trkpt lat="60.38997" lon="17.59621">
        <ele>46.295007</ele>
        <time>2020-08-30T04:01:16.520Z</time>
      </trkpt>
      <trkpt lat="60.38947" lon="17.59637">
        <ele>46.503941</ele>
        <time>2020-08-30T04:01:26.367Z</time>
      </trkpt>
      <trkpt lat="60.38912" lon="17.59665">
        <ele>46.575011</ele>
        <time>2020-08-30T04:01:33.209Z</time>
      </trkpt>
      <trkpt lat="60.389" lon="17.59675">
        <ele>46.599171</ele>
        <time>2020-08-30T04:01:35.157Z</time>
      </trkpt>
      <trkpt lat="60.3889" lon="17.59692">
        <ele>46.624507</ele>
        <time>2020-08-30T04:01:37.757Z</time>
      </trkpt>
      <trkpt lat="60.38859" lon="17.59788">
        <ele>46.73114</ele>
        <time>2020-08-30T04:01:47.205Z</time>
      </trkpt>
      <trkpt lat="60.3881" lon="17.60106">
        <ele>47.919933</ele>
        <time>2020-08-30T04:02:19.643Z</time>
      </trkpt>
      <trkpt lat="60.38807" lon="17.60133">
        <ele>48.027783</ele>
        <time>2020-08-30T04:02:22.758Z</time>
      </trkpt>
      <trkpt lat="60.38799" lon="17.60189">
        <ele>48.386324</ele>
        <time>2020-08-30T04:02:29.450Z</time>
      </trkpt>
      <trkpt lat="60.38788" lon="17.60252">
        <ele>49.115517</ele>
        <time>2020-08-30T04:02:37.220Z</time>
      </trkpt>
      <trkpt lat="60.3876" lon="17.60347">
        <ele>50.324431</ele>
        <time>2020-08-30T04:02:50.674Z</time>
      </trkpt>
      <trkpt lat="60.38708" lon="17.60513">
        <ele>52.58715</ele>
        <time>2020-08-30T04:03:16.222Z</time>
      </trkpt>
      <trkpt lat="60.38674" lon="17.60601">
        <ele>54.222572</ele>
        <time>2020-08-30T04:03:31.246Z</time>
      </trkpt>
      <trkpt lat="60.38655" lon="17.6072">
        <ele>56.076401</ele>
        <time>2020-08-30T04:03:48.534Z</time>
      </trkpt>
      <trkpt lat="60.38637" lon="17.60791">
        <ele>57.258208</ele>
        <time>2020-08-30T04:03:59.910Z</time>
      </trkpt>
      <trkpt lat="60.38634" lon="17.60916">
        <ele>58.652558</ele>
        <time>2020-08-30T04:04:16.352Z</time>
      </trkpt>
      <trkpt lat="60.38645" lon="17.61055">
        <ele>60.133579</ele>
        <time>2020-08-30T04:04:33.278Z</time>
      </trkpt>
      <trkpt lat="60.38644" lon="17.61067">
        <ele>60.267801</ele>
        <time>2020-08-30T04:04:35.207Z</time>
      </trkpt>
      <trkpt lat="60.38629" lon="17.61193">
        <ele>61.463006</ele>
        <time>2020-08-30T04:04:49.263Z</time>
      </trkpt>
      <trkpt lat="60.38617" lon="17.61281">
        <ele>61.787263</ele>
        <time>2020-08-30T04:04:59.210Z</time>
      </trkpt>
      <trkpt lat="60.38607" lon="17.61321">
        <ele>61.94841</ele>
        <time>2020-08-30T04:05:03.448Z</time>
      </trkpt>
      <trkpt lat="60.38595" lon="17.6134">
        <ele>62.06197</ele>
        <time>2020-08-30T04:05:06.954Z</time>
      </trkpt>
      <trkpt lat="60.38559" lon="17.6137">
        <ele>62.340966</ele>
        <time>2020-08-30T04:05:14.031Z</time>
      </trkpt>
      <trkpt lat="60.3854" lon="17.6143">
        <ele>62.598781</ele>
        <time>2020-08-30T04:05:20.678Z</time>
      </trkpt>
      <trkpt lat="60.38516" lon="17.61555">
        <ele>62.424803</ele>
        <time>2020-08-30T04:05:32.968Z</time>
      </trkpt>
      <trkpt lat="60.3846" lon="17.6163">
        <ele>62.113685</ele>
        <time>2020-08-30T04:05:44.423Z</time>
      </trkpt>
      <trkpt lat="60.38438" lon="17.61685">
        <ele>61.952483</ele>
        <time>2020-08-30T04:05:49.839Z</time>
      </trkpt>
      <trkpt lat="60.38428" lon="17.61725">
        <ele>61.847971</ele>
        <time>2020-08-30T04:05:53.244Z</time>
      </trkpt>
      <trkpt lat="60.38407" lon="17.61867">
        <ele>60.545497</ele>
        <time>2020-08-30T04:06:03.804Z</time>
      </trkpt>
      <trkpt lat="60.38389" lon="17.61931">
        <ele>59.899508</ele>
        <time>2020-08-30T04:06:08.886Z</time>
      </trkpt>
      <trkpt lat="60.38363" lon="17.61952">
        <ele>59.39306</ele>
        <time>2020-08-30T04:06:12.808Z</time>
      </trkpt>
      <trkpt lat="60.38305" lon="17.61967">
        <ele>58.497314</ele>
        <time>2020-08-30T04:06:20.901Z</time>
      </trkpt>
      <trkpt lat="60.38191" lon="17.6191">
        <ele>57.502689</ele>
        <time>2020-08-30T04:06:39.088Z</time>
      </trkpt>
      <trkpt lat="60.38163" lon="17.61906">
        <ele>57.268017</ele>
        <time>2020-08-30T04:06:43.893Z</time>
      </trkpt>
      <trkpt lat="60.38139" lon="17.6192">
        <ele>57.172382</ele>
        <time>2020-08-30T04:06:48.689Z</time>
      </trkpt>
      <trkpt lat="60.38134" lon="17.61924">
        <ele>57.215382</ele>
        <time>2020-08-30T04:06:49.486Z</time>
      </trkpt>
      <trkpt lat="60.38124" lon="17.61935">
        <ele>57.313585</ele>
        <time>2020-08-30T04:06:52.352Z</time>
      </trkpt>
      <trkpt lat="60.381" lon="17.61972">
        <ele>57.567298</ele>
        <time>2020-08-30T04:06:58.209Z</time>
      </trkpt>
      <trkpt lat="60.38068" lon="17.62046">
        <ele>57.976448</ele>
        <time>2020-08-30T04:07:08.647Z</time>
      </trkpt>
      <trkpt lat="60.38038" lon="17.62092">
        <ele>58.291387</ele>
        <time>2020-08-30T04:07:16.762Z</time>
      </trkpt>
      <trkpt lat="60.38029" lon="17.62116">
        <ele>58.415524</ele>
        <time>2020-08-30T04:07:19.635Z</time>
      </trkpt>
      <trkpt lat="60.38015" lon="17.62169">
        <ele>58.659801</ele>
        <time>2020-08-30T04:07:26.591Z</time>
      </trkpt>
      <trkpt lat="60.37999" lon="17.62274">
        <ele>59.004675</ele>
        <time>2020-08-30T04:07:37.410Z</time>
      </trkpt>
      <trkpt lat="60.37972" lon="17.62343">
        <ele>59.280164</ele>
        <time>2020-08-30T04:07:45.756Z</time>
      </trkpt>
      <trkpt lat="60.37922" lon="17.62389">
        <ele>59.631981</ele>
        <time>2020-08-30T04:07:56.371Z</time>
      </trkpt>
      <trkpt lat="60.37852" lon="17.62477">
        <ele>59.964348</ele>
        <time>2020-08-30T04:08:12.800Z</time>
      </trkpt>
      <trkpt lat="60.37844" lon="17.62509">
        <ele>60.018209</ele>
        <time>2020-08-30T04:08:16.237Z</time>
      </trkpt>
      <trkpt lat="60.37849" lon="17.62627">
        <ele>60.200316</ele>
        <time>2020-08-30T04:08:27.833Z</time>
      </trkpt>
      <trkpt lat="60.37843" lon="17.62687">
        <ele>60.293931</ele>
        <time>2020-08-30T04:08:33.381Z</time>
      </trkpt>
      <trkpt lat="60.37764" lon="17.62807">
        <ele>58.629925</ele>
        <time>2020-08-30T04:08:48.803Z</time>
      </trkpt>
      <trkpt lat="60.37729" lon="17.62904">
        <ele>57.452216</ele>
        <time>2020-08-30T04:08:56.823Z</time>
      </trkpt>
      <trkpt lat="60.37708" lon="17.63002">
        <ele>56.0763</ele>
        <time>2020-08-30T04:09:03.646Z</time>
      </trkpt>
      <trkpt lat="60.3766" lon="17.6307">
        <ele>53.88939</ele>
        <time>2020-08-30T04:09:10.867Z</time>
      </trkpt>
      <trkpt lat="60.37598" lon="17.63114">
        <ele>51.394203</ele>
        <time>2020-08-30T04:09:19.112Z</time>
      </trkpt>
      <trkpt lat="60.37528" lon="17.63217">
        <ele>49.454875</ele>
        <time>2020-08-30T04:09:30.562Z</time>
      </trkpt>
      <trkpt lat="60.37512" lon="17.63263">
        <ele>49.159427</ele>
        <time>2020-08-30T04:09:34.505Z</time>
      </trkpt>
      <trkpt lat="60.37483" lon="17.63405">
        <ele>48.341092</ele>
        <time>2020-08-30T04:09:46.905Z</time>
      </trkpt>
      <trkpt lat="60.37469" lon="17.63444">
        <ele>48.081927</ele>
        <time>2020-08-30T04:09:51.780Z</time>
      </trkpt>
      <trkpt lat="60.37443" lon="17.63473">
        <ele>48.633787</ele>
        <time>2020-08-30T04:09:58.531Z</time>
      </trkpt>
      <trkpt lat="60.37371" lon="17.63515">
        <ele>50.287721</ele>
        <time>2020-08-30T04:10:18.077Z</time>
      </trkpt>
      <trkpt lat="60.37221" lon="17.63595">
        <ele>53.496125</ele>
        <time>2020-08-30T04:10:58.616Z</time>
      </trkpt>
      <trkpt lat="60.37158" lon="17.63622">
        <ele>54.745416</ele>
        <time>2020-08-30T04:11:13.951Z</time>
      </trkpt>
      <trkpt lat="60.37045" lon="17.63695">
        <ele>56.337896</ele>
        <time>2020-08-30T04:11:38.590Z</time>
      </trkpt>
      <trkpt lat="60.37011" lon="17.63727">
        <ele>56.737194</ele>
        <time>2020-08-30T04:11:46.468Z</time>
      </trkpt>
      <trkpt lat="60.36971" lon="17.63791">
        <ele>57.272572</ele>
        <time>2020-08-30T04:11:57.503Z</time>
      </trkpt>
      <trkpt lat="60.36947" lon="17.6386">
        <ele>57.653043</ele>
        <time>2020-08-30T04:12:06.538Z</time>
      </trkpt>
      <trkpt lat="60.36903" lon="17.64027">
        <ele>58.454251</ele>
        <time>2020-08-30T04:12:26.413Z</time>
      </trkpt>
      <trkpt lat="60.3679" lon="17.64372">
        <ele>59.32265</ele>
        <time>2020-08-30T04:13:05.775Z</time>
      </trkpt>
      <trkpt lat="60.36774" lon="17.64412">
        <ele>59.390198</ele>
        <time>2020-08-30T04:13:10.205Z</time>
      </trkpt>
      <trkpt lat="60.36718" lon="17.64499">
        <ele>58.666193</ele>
        <time>2020-08-30T04:13:21.759Z</time>
      </trkpt>
      <trkpt lat="60.36666" lon="17.64553">
        <ele>57.99054</ele>
        <time>2020-08-30T04:13:30.779Z</time>
      </trkpt>
      <trkpt lat="60.36658" lon="17.64556">
        <ele>57.901606</ele>
        <time>2020-08-30T04:13:31.927Z</time>
      </trkpt>
      <trkpt lat="60.36633" lon="17.64563">
        <ele>57.614234</ele>
        <time>2020-08-30T04:13:35.597Z</time>
      </trkpt>
      <trkpt lat="60.36356" lon="17.64582">
        <ele>51.975312</ele>
        <time>2020-08-30T04:14:13.559Z</time>
      </trkpt>
      <trkpt lat="60.36295" lon="17.64571">
        <ele>50.982774</ele>
        <time>2020-08-30T04:14:22.510Z</time>
      </trkpt>
      <trkpt lat="60.36225" lon="17.64544">
        <ele>50.345571</ele>
        <time>2020-08-30T04:14:33.853Z</time>
      </trkpt>
      <trkpt lat="60.36229" lon="17.64278">
        <ele>50.707877</ele>
        <time>2020-08-30T04:15:14.941Z</time>
      </trkpt>
      <trkpt lat="60.36226" lon="17.64199">
        <ele>50.819926</ele>
        <time>2020-08-30T04:15:27.899Z</time>
      </trkpt>
      <trkpt lat="60.3622" lon="17.64163">
        <ele>50.874412</ele>
        <time>2020-08-30T04:15:33.954Z</time>
      </trkpt>
      <trkpt lat="60.36181" lon="17.64066">
        <ele>51.056202</ele>
        <time>2020-08-30T04:15:53.591Z</time>
      </trkpt>
      <trkpt lat="60.36174" lon="17.64021">
        <ele>51.125775</ele>
        <time>2020-08-30T04:16:00.835Z</time>
      </trkpt>
      <trkpt lat="60.36159" lon="17.63826">
        <ele>51.059607</ele>
        <time>2020-08-30T04:16:28.968Z</time>
      </trkpt>
      <trkpt lat="60.36152" lon="17.63804">
        <ele>50.979462</ele>
        <time>2020-08-30T04:16:32.604Z</time>
      </trkpt>
      <trkpt lat="60.36145" lon="17.6379">
        <ele>50.918034</ele>
        <time>2020-08-30T04:16:35.400Z</time>
      </trkpt>
      <trkpt lat="60.36061" lon="17.63705">
        <ele>50.345119</ele>
        <time>2020-08-30T04:17:01.188Z</time>
      </trkpt>
      <trkpt lat="60.36021" lon="17.63681">
        <ele>50.112434</ele>
        <time>2020-08-30T04:17:12.733Z</time>
      </trkpt>
      <trkpt lat="60.3595" lon="17.63588">
        <ele>49.713417</ele>
        <time>2020-08-30T04:17:36.309Z</time>
      </trkpt>
      <trkpt lat="60.35914" lon="17.63552">
        <ele>49.521693</ele>
        <time>2020-08-30T04:17:47.969Z</time>
      </trkpt>
      <trkpt lat="60.35809" lon="17.6344">
        <ele>49.363914</ele>
        <time>2020-08-30T04:18:22.710Z</time>
      </trkpt>
      <trkpt lat="60.35914" lon="17.63552">
        <ele>49.487537</ele>
        <time>2020-08-30T04:18:58.207Z</time>
      </trkpt>
      <trkpt lat="60.3595" lon="17.63588">
        <ele>49.700273</ele>
        <time>2020-08-30T04:19:10.717Z</time>
      </trkpt>
      <trkpt lat="60.36021" lon="17.63681">
        <ele>50.143021</ele>
        <time>2020-08-30T04:19:37.508Z</time>
      </trkpt>
      <trkpt lat="60.36061" lon="17.63705">
        <ele>50.365528</ele>
        <time>2020-08-30T04:19:51.051Z</time>
      </trkpt>
      <trkpt lat="60.36145" lon="17.6379">
        <ele>50.890679</ele>
        <time>2020-08-30T04:20:21.152Z</time>
      </trkpt>
      <trkpt lat="60.36152" lon="17.63804">
        <ele>50.946986</ele>
        <time>2020-08-30T04:20:24.340Z</time>
      </trkpt>
      <trkpt lat="60.36159" lon="17.63826">
        <ele>51.020449</ele>
        <time>2020-08-30T04:20:28.508Z</time>
      </trkpt>
      <trkpt lat="60.36174" lon="17.64021">
        <ele>51.16079</ele>
        <time>2020-08-30T04:20:58.360Z</time>
      </trkpt>
      <trkpt lat="60.36181" lon="17.64066">
        <ele>51.054349</ele>
        <time>2020-08-30T04:21:05.186Z</time>
      </trkpt>
      <trkpt lat="60.3622" lon="17.64163">
        <ele>50.77623</ele>
        <time>2020-08-30T04:21:22.383Z</time>
      </trkpt>
      <trkpt lat="60.36226" lon="17.64199">
        <ele>50.692872</ele>
        <time>2020-08-30T04:21:27.443Z</time>
      </trkpt>
      <trkpt lat="60.36229" lon="17.64278">
        <ele>50.50096</ele>
        <time>2020-08-30T04:21:38.115Z</time>
      </trkpt>
      <trkpt lat="60.36225" lon="17.64544">
        <ele>49.373779</ele>
        <time>2020-08-30T04:22:13.785Z</time>
      </trkpt>
      <trkpt lat="60.36203" lon="17.64542">
        <ele>49.178922</ele>
        <time>2020-08-30T04:22:17.440Z</time>
      </trkpt>
      <trkpt lat="60.36127" lon="17.64543">
        <ele>48.852876</ele>
        <time>2020-08-30T04:22:29.891Z</time>
      </trkpt>
      <trkpt lat="60.36067" lon="17.64522">
        <ele>48.696914</ele>
        <time>2020-08-30T04:22:40.574Z</time>
      </trkpt>
      <trkpt lat="60.35996" lon="17.64539">
        <ele>48.50598</ele>
        <time>2020-08-30T04:22:53.260Z</time>
      </trkpt>
      <trkpt lat="60.35918" lon="17.6459">
        <ele>48.143816</ele>
        <time>2020-08-30T04:23:07.088Z</time>
      </trkpt>
      <trkpt lat="60.35881" lon="17.6459">
        <ele>47.984548</ele>
        <time>2020-08-30T04:23:13.008Z</time>
      </trkpt>
      <trkpt lat="60.35861" lon="17.64585">
        <ele>47.893085</ele>
        <time>2020-08-30T04:23:16.449Z</time>
      </trkpt>
      <trkpt lat="60.35838" lon="17.64579">
        <ele>47.793677</ele>
        <time>2020-08-30T04:23:20.069Z</time>
      </trkpt>
      <trkpt lat="60.3581" lon="17.64568">
        <ele>47.704923</ele>
        <time>2020-08-30T04:23:24.730Z</time>
      </trkpt>
      <trkpt lat="60.35765" lon="17.64501">
        <ele>47.578822</ele>
        <time>2020-08-30T04:23:34.022Z</time>
      </trkpt>
      <trkpt lat="60.35742" lon="17.64483">
        <ele>47.525998</ele>
        <time>2020-08-30T04:23:37.820Z</time>
      </trkpt>
      <trkpt lat="60.35602" lon="17.64451">
        <ele>47.722969</ele>
        <time>2020-08-30T04:24:03.763Z</time>
      </trkpt>
      <trkpt lat="60.35371" lon="17.64342">
        <ele>49.225365</ele>
        <time>2020-08-30T04:24:53.172Z</time>
      </trkpt>
      <trkpt lat="60.35338" lon="17.64336">
        <ele>49.421692</ele>
        <time>2020-08-30T04:24:59.147Z</time>
      </trkpt>
      <trkpt lat="60.35283" lon="17.64307">
        <ele>49.757367</ele>
        <time>2020-08-30T04:25:08.978Z</time>
      </trkpt>
      <trkpt lat="60.35247" lon="17.64298">
        <ele>49.97094</ele>
        <time>2020-08-30T04:25:15.544Z</time>
      </trkpt>
      <trkpt lat="60.35235" lon="17.64283">
        <ele>50.055528</ele>
        <time>2020-08-30T04:25:18.288Z</time>
      </trkpt>
      <trkpt lat="60.35214" lon="17.64168">
        <ele>50.409615</ele>
        <time>2020-08-30T04:25:29.543Z</time>
      </trkpt>
      <trkpt lat="60.35199" lon="17.64134">
        <ele>50.540607</ele>
        <time>2020-08-30T04:25:34.108Z</time>
      </trkpt>
      <trkpt lat="60.3509" lon="17.64068">
        <ele>52.722498</ele>
        <time>2020-08-30T04:26:02.519Z</time>
      </trkpt>
      <trkpt lat="60.35055" lon="17.63989">
        <ele>53.872321</ele>
        <time>2020-08-30T04:26:17.396Z</time>
      </trkpt>
      <trkpt lat="60.35" lon="17.63945">
        <ele>54.727227</ele>
        <time>2020-08-30T04:26:31.026Z</time>
      </trkpt>
      <trkpt lat="60.34987" lon="17.6394">
        <ele>54.773618</ele>
        <time>2020-08-30T04:26:35.083Z</time>
      </trkpt>
      <trkpt lat="60.34976" lon="17.63937">
        <ele>54.812507</ele>
        <time>2020-08-30T04:26:36.744Z</time>
      </trkpt>
      <trkpt lat="60.3496" lon="17.63939">
        <ele>54.869163</ele>
        <time>2020-08-30T04:26:40.229Z</time>
      </trkpt>
      <trkpt lat="60.34941" lon="17.63955">
        <ele>54.943855</ele>
        <time>2020-08-30T04:26:44.476Z</time>
      </trkpt>
      <trkpt lat="60.34887" lon="17.64072">
        <ele>55.227201</ele>
        <time>2020-08-30T04:26:58.405Z</time>
      </trkpt>
      <trkpt lat="60.34783" lon="17.64208">
        <ele>52.900714</ele>
        <time>2020-08-30T04:27:15.810Z</time>
      </trkpt>
      <trkpt lat="60.34701" lon="17.64291">
        <ele>50.873715</ele>
        <time>2020-08-30T04:27:28.166Z</time>
      </trkpt>
      <trkpt lat="60.34696" lon="17.64301">
        <ele>50.698186</ele>
        <time>2020-08-30T04:27:29.280Z</time>
      </trkpt>
      <trkpt lat="60.34692" lon="17.64315">
        <ele>50.508282</ele>
        <time>2020-08-30T04:27:30.199Z</time>
      </trkpt>
      <trkpt lat="60.34654" lon="17.64547">
        <ele>47.674676</ele>
        <time>2020-08-30T04:27:46.696Z</time>
      </trkpt>
      <trkpt lat="60.34651" lon="17.64579">
        <ele>47.28975</ele>
        <time>2020-08-30T04:27:49.181Z</time>
      </trkpt>
      <trkpt lat="60.34653" lon="17.64607">
        <ele>47.14311</ele>
        <time>2020-08-30T04:27:50.952Z</time>
      </trkpt>
      <trkpt lat="60.34674" lon="17.64657">
        <ele>47.171526</ele>
        <time>2020-08-30T04:27:56.389Z</time>
      </trkpt>
      <trkpt lat="60.34738" lon="17.64731">
        <ele>47.236333</ele>
        <time>2020-08-30T04:28:10.360Z</time>
      </trkpt>
      <trkpt lat="60.34746" lon="17.64755">
        <ele>47.248498</ele>
        <time>2020-08-30T04:28:13.273Z</time>
      </trkpt>
      <trkpt lat="60.34755" lon="17.64825">
        <ele>47.279819</ele>
        <time>2020-08-30T04:28:20.752Z</time>
      </trkpt>
      <trkpt lat="60.34784" lon="17.64924">
        <ele>47.368498</ele>
        <time>2020-08-30T04:28:32.817Z</time>
      </trkpt>
      <trkpt lat="60.34796" lon="17.64959">
        <ele>47.406101</ele>
        <time>2020-08-30T04:28:37.146Z</time>
      </trkpt>
      <trkpt lat="60.34832" lon="17.65012">
        <ele>47.486646</ele>
        <time>2020-08-30T04:28:45.953Z</time>
      </trkpt>
      <trkpt lat="60.34842" lon="17.6504">
        <ele>47.517053</ele>
        <time>2020-08-30T04:28:49.087Z</time>
      </trkpt>
      <trkpt lat="60.34841" lon="17.65245">
        <ele>46.971892</ele>
        <time>2020-08-30T04:29:05.104Z</time>
      </trkpt>
      <trkpt lat="60.34831" lon="17.65384">
        <ele>45.986367</ele>
        <time>2020-08-30T04:29:15.197Z</time>
      </trkpt>
      <trkpt lat="60.34828" lon="17.65443">
        <ele>45.569066</ele>
        <time>2020-08-30T04:29:19.407Z</time>
      </trkpt>
      <trkpt lat="60.34807" lon="17.65603">
        <ele>44.483991</ele>
        <time>2020-08-30T04:29:31.267Z</time>
      </trkpt>
      <trkpt lat="60.34797" lon="17.6574">
        <ele>43.625118</ele>
        <time>2020-08-30T04:29:41.333Z</time>
      </trkpt>
      <trkpt lat="60.34778" lon="17.65878">
        <ele>42.82547</ele>
        <time>2020-08-30T04:29:52.510Z</time>
      </trkpt>
      <trkpt lat="60.34772" lon="17.661">
        <ele>43.125577</ele>
        <time>2020-08-30T04:30:11.950Z</time>
      </trkpt>
      <trkpt lat="60.34755" lon="17.66177">
        <ele>43.240566</ele>
        <time>2020-08-30T04:30:20.493Z</time>
      </trkpt>
      <trkpt lat="60.34749" lon="17.66298">
        <ele>44.097289</ele>
        <time>2020-08-30T04:30:33.658Z</time>
      </trkpt>
      <trkpt lat="60.3472" lon="17.66548">
        <ele>46.770199</ele>
        <time>2020-08-30T04:31:06.089Z</time>
      </trkpt>
      <trkpt lat="60.34742" lon="17.66696">
        <ele>48.031407</ele>
        <time>2020-08-30T04:31:25.784Z</time>
      </trkpt>
      <trkpt lat="60.34742" lon="17.66709">
        <ele>48.132734</ele>
        <time>2020-08-30T04:31:27.757Z</time>
      </trkpt>
      <trkpt lat="60.34743" lon="17.66719">
        <ele>48.208935</ele>
        <time>2020-08-30T04:31:29.171Z</time>
      </trkpt>
      <trkpt lat="60.34735" lon="17.66822">
        <ele>48.999179</ele>
        <time>2020-08-30T04:31:40.973Z</time>
      </trkpt>
      <trkpt lat="60.34731" lon="17.6707">
        <ele>48.812999</ele>
        <time>2020-08-30T04:32:03.728Z</time>
      </trkpt>
      <trkpt lat="60.34764" lon="17.67271">
        <ele>47.186632</ele>
        <time>2020-08-30T04:32:18.080Z</time>
      </trkpt>
      <trkpt lat="60.34764" lon="17.67431">
        <ele>45.137643</ele>
        <time>2020-08-30T04:32:28.376Z</time>
      </trkpt>
      <trkpt lat="60.34797" lon="17.67608">
        <ele>42.605332</ele>
        <time>2020-08-30T04:32:40.898Z</time>
      </trkpt>
      <trkpt lat="60.34824" lon="17.67801">
        <ele>41.796852</ele>
        <time>2020-08-30T04:32:55.688Z</time>
      </trkpt>
      <trkpt lat="60.34849" lon="17.68073">
        <ele>41.68168</ele>
        <time>2020-08-30T04:33:22.354Z</time>
      </trkpt>
      <trkpt lat="60.34853" lon="17.6816">
        <ele>42.048859</ele>
        <time>2020-08-30T04:33:31.667Z</time>
      </trkpt>
      <trkpt lat="60.34854" lon="17.68221">
        <ele>42.303823</ele>
        <time>2020-08-30T04:33:38.044Z</time>
      </trkpt>
      <trkpt lat="60.34837" lon="17.68337">
        <ele>42.813599</ele>
        <time>2020-08-30T04:33:50.534Z</time>
      </trkpt>
      <trkpt lat="60.34843" lon="17.68401">
        <ele>42.812888</ele>
        <time>2020-08-30T04:33:56.932Z</time>
      </trkpt>
      <trkpt lat="60.34834" lon="17.68477">
        <ele>42.747025</ele>
        <time>2020-08-30T04:34:04.352Z</time>
      </trkpt>
      <trkpt lat="60.34831" lon="17.68556">
        <ele>42.680074</ele>
        <time>2020-08-30T04:34:11.255Z</time>
      </trkpt>
      <trkpt lat="60.34824" lon="17.68605">
        <ele>42.637475</ele>
        <time>2020-08-30T04:34:15.397Z</time>
      </trkpt>
      <trkpt lat="60.3479" lon="17.68735">
        <ele>42.352411</ele>
        <time>2020-08-30T04:34:26.764Z</time>
      </trkpt>
      <trkpt lat="60.34779" lon="17.68796">
        <ele>42.079287</ele>
        <time>2020-08-30T04:34:31.549Z</time>
      </trkpt>
      <trkpt lat="60.34776" lon="17.68922">
        <ele>41.53994</ele>
        <time>2020-08-30T04:34:40.842Z</time>
      </trkpt>
      <trkpt lat="60.34787" lon="17.69223">
        <ele>41.504586</ele>
        <time>2020-08-30T04:35:06.532Z</time>
      </trkpt>
      <trkpt lat="60.34788" lon="17.69252">
        <ele>41.586954</ele>
        <time>2020-08-30T04:35:09.193Z</time>
      </trkpt>
      <trkpt lat="60.34789" lon="17.69277">
        <ele>41.66028</ele>
        <time>2020-08-30T04:35:12.576Z</time>
      </trkpt>
      <trkpt lat="60.34785" lon="17.69323">
        <ele>41.791586</ele>
        <time>2020-08-30T04:35:17.062Z</time>
      </trkpt>
      <trkpt lat="60.34763" lon="17.69398">
        <ele>42.04566</ele>
        <time>2020-08-30T04:35:27.190Z</time>
      </trkpt>
      <trkpt lat="60.34764" lon="17.69454">
        <ele>42.401498</ele>
        <time>2020-08-30T04:35:33.208Z</time>
      </trkpt>
      <trkpt lat="60.3477" lon="17.69527">
        <ele>42.87305</ele>
        <time>2020-08-30T04:35:41.750Z</time>
      </trkpt>
      <trkpt lat="60.34722" lon="17.69433">
        <ele>43.737017</ele>
        <time>2020-08-30T04:35:57.766Z</time>
      </trkpt>
      <trkpt lat="60.34681" lon="17.69363">
        <ele>44.356968</ele>
        <time>2020-08-30T04:36:09.130Z</time>
      </trkpt>
      <trkpt lat="60.34677" lon="17.69358">
        <ele>44.349911</ele>
        <time>2020-08-30T04:36:09.991Z</time>
      </trkpt>
      <trkpt lat="60.34665" lon="17.69344">
        <ele>44.326877</ele>
        <time>2020-08-30T04:36:12.945Z</time>
      </trkpt>
      <trkpt lat="60.34607" lon="17.69299">
        <ele>44.227959</ele>
        <time>2020-08-30T04:36:23.776Z</time>
      </trkpt>
      <trkpt lat="60.34566" lon="17.69281">
        <ele>44.160156</ele>
        <time>2020-08-30T04:36:31.097Z</time>
      </trkpt>
      <trkpt lat="60.34405" lon="17.69325">
        <ele>44.09968</ele>
        <time>2020-08-30T04:36:59.413Z</time>
      </trkpt>
      <trkpt lat="60.34354" lon="17.69315">
        <ele>44.110526</ele>
        <time>2020-08-30T04:37:09.375Z</time>
      </trkpt>
      <trkpt lat="60.34323" lon="17.69299">
        <ele>44.304631</ele>
        <time>2020-08-30T04:37:16.341Z</time>
      </trkpt>
      <trkpt lat="60.34314" lon="17.69293">
        <ele>44.436333</ele>
        <time>2020-08-30T04:37:18.067Z</time>
      </trkpt>
      <trkpt lat="60.34307" lon="17.69288">
        <ele>44.526081</ele>
        <time>2020-08-30T04:37:20.153Z</time>
      </trkpt>
      <trkpt lat="60.34277" lon="17.69243">
        <ele>45.037204</ele>
        <time>2020-08-30T04:37:28.561Z</time>
      </trkpt>
      <trkpt lat="60.34247" lon="17.69116">
        <ele>45.994801</ele>
        <time>2020-08-30T04:37:45.173Z</time>
      </trkpt>
      <trkpt lat="60.34221" lon="17.69071">
        <ele>46.464224</ele>
        <time>2020-08-30T04:37:53.435Z</time>
      </trkpt>
      <trkpt lat="60.34147" lon="17.69002">
        <ele>47.38101</ele>
        <time>2020-08-30T04:38:12.565Z</time>
      </trkpt>
      <trkpt lat="60.34075" lon="17.68958">
        <ele>48.200803</ele>
        <time>2020-08-30T04:38:28.925Z</time>
      </trkpt>
      <trkpt lat="60.34044" lon="17.68921">
        <ele>48.533776</ele>
        <time>2020-08-30T04:38:36.181Z</time>
      </trkpt>
      <trkpt lat="60.34005" lon="17.68843">
        <ele>48.368311</ele>
        <time>2020-08-30T04:38:46.793Z</time>
      </trkpt>
      <trkpt lat="60.33977" lon="17.68803">
        <ele>48.265602</ele>
        <time>2020-08-30T04:38:53.052Z</time>
      </trkpt>
      <trkpt lat="60.33776" lon="17.68584">
        <ele>46.603538</ele>
        <time>2020-08-30T04:39:30.377Z</time>
      </trkpt>
      <trkpt lat="60.33738" lon="17.68561">
        <ele>46.224784</ele>
        <time>2020-08-30T04:39:36.586Z</time>
      </trkpt>
      <trkpt lat="60.33687" lon="17.6855">
        <ele>46.024296</ele>
        <time>2020-08-30T04:39:44.746Z</time>
      </trkpt>
      <trkpt lat="60.33648" lon="17.68558">
        <ele>45.869136</ele>
        <time>2020-08-30T04:39:51.339Z</time>
      </trkpt>
      <trkpt lat="60.3356" lon="17.68593">
        <ele>45.548804</ele>
        <time>2020-08-30T04:40:07.822Z</time>
      </trkpt>
      <trkpt lat="60.33441" lon="17.68667">
        <ele>46.910032</ele>
        <time>2020-08-30T04:40:35.321Z</time>
      </trkpt>
      <trkpt lat="60.33385" lon="17.68711">
        <ele>47.604001</ele>
        <time>2020-08-30T04:40:49.585Z</time>
      </trkpt>
      <trkpt lat="60.3322" lon="17.69006">
        <ele>50.949626</ele>
        <time>2020-08-30T04:41:41.595Z</time>
      </trkpt>
      <trkpt lat="60.3304" lon="17.69305">
        <ele>52.995617</ele>
        <time>2020-08-30T04:42:34.128Z</time>
      </trkpt>
      <trkpt lat="60.33" lon="17.69358">
        <ele>53.140306</ele>
        <time>2020-08-30T04:42:42.603Z</time>
      </trkpt>
      <trkpt lat="60.32954" lon="17.69393">
        <ele>52.909282</ele>
        <time>2020-08-30T04:42:50.498Z</time>
      </trkpt>
      <trkpt lat="60.32797" lon="17.69441">
        <ele>49.957505</ele>
        <time>2020-08-30T04:43:13.732Z</time>
      </trkpt>
      <trkpt lat="60.32721" lon="17.6949">
        <ele>49.060036</ele>
        <time>2020-08-30T04:43:25.626Z</time>
      </trkpt>
      <trkpt lat="60.32651" lon="17.69553">
        <ele>48.21794</ele>
        <time>2020-08-30T04:43:38.246Z</time>
      </trkpt>
      <trkpt lat="60.32587" lon="17.69653">
        <ele>48.48242</ele>
        <time>2020-08-30T04:43:53.891Z</time>
      </trkpt>
      <trkpt lat="60.32539" lon="17.697">
        <ele>49.034996</ele>
        <time>2020-08-30T04:44:05.780Z</time>
      </trkpt>
      <trkpt lat="60.32495" lon="17.69715">
        <ele>49.50139</ele>
        <time>2020-08-30T04:44:16.502Z</time>
      </trkpt>
      <trkpt lat="60.32423" lon="17.69713">
        <ele>50.643881</ele>
        <time>2020-08-30T04:44:34.246Z</time>
      </trkpt>
      <trkpt lat="60.3237" lon="17.69738">
        <ele>51.689397</ele>
        <time>2020-08-30T04:44:47.769Z</time>
      </trkpt>
      <trkpt lat="60.32339" lon="17.69764">
        <ele>52.34042</ele>
        <time>2020-08-30T04:44:56.143Z</time>
      </trkpt>
      <trkpt lat="60.323" lon="17.69822">
        <ele>53.260822</ele>
        <time>2020-08-30T04:45:07.901Z</time>
      </trkpt>
      <trkpt lat="60.32235" lon="17.70024">
        <ele>55.338191</ele>
        <time>2020-08-30T04:45:36.927Z</time>
      </trkpt>
      <trkpt lat="60.3221" lon="17.70085">
        <ele>56.009885</ele>
        <time>2020-08-30T04:45:46.193Z</time>
      </trkpt>
      <trkpt lat="60.322" lon="17.70098">
        <ele>56.22537</ele>
        <time>2020-08-30T04:45:49.146Z</time>
      </trkpt>
      <trkpt lat="60.32116" lon="17.70142">
        <ele>57.348881</ele>
        <time>2020-08-30T04:46:09.888Z</time>
      </trkpt>
      <trkpt lat="60.32078" lon="17.70182">
        <ele>57.891008</ele>
        <time>2020-08-30T04:46:20.039Z</time>
      </trkpt>
      <trkpt lat="60.31994" lon="17.70338">
        <ele>58.288132</ele>
        <time>2020-08-30T04:46:43.781Z</time>
      </trkpt>
      <trkpt lat="60.31749" lon="17.70663">
        <ele>55.228895</ele>
        <time>2020-08-30T04:47:29.905Z</time>
      </trkpt>
      <trkpt lat="60.3171" lon="17.70739">
        <ele>54.173736</ele>
        <time>2020-08-30T04:47:38.018Z</time>
      </trkpt>
      <trkpt lat="60.31682" lon="17.70817">
        <ele>53.156958</ele>
        <time>2020-08-30T04:47:45.050Z</time>
      </trkpt>
      <trkpt lat="60.31648" lon="17.70883">
        <ele>52.161378</ele>
        <time>2020-08-30T04:47:51.852Z</time>
      </trkpt>
      <trkpt lat="60.31635" lon="17.70903">
        <ele>51.817766</ele>
        <time>2020-08-30T04:47:54.323Z</time>
      </trkpt>
      <trkpt lat="60.31616" lon="17.70925">
        <ele>51.359899</ele>
        <time>2020-08-30T04:47:57.323Z</time>
      </trkpt>
      <trkpt lat="60.31576" lon="17.70956">
        <ele>50.151091</ele>
        <time>2020-08-30T04:48:03.572Z</time>
      </trkpt>
      <trkpt lat="60.31536" lon="17.70975">
        <ele>48.997374</ele>
        <time>2020-08-30T04:48:09.304Z</time>
      </trkpt>
      <trkpt lat="60.31518" lon="17.70978">
        <ele>48.466432</ele>
        <time>2020-08-30T04:48:11.852Z</time>
      </trkpt>
      <trkpt lat="60.31461" lon="17.70966">
        <ele>46.85728</ele>
        <time>2020-08-30T04:48:19.647Z</time>
      </trkpt>
      <trkpt lat="60.31409" lon="17.7093">
        <ele>45.310633</ele>
        <time>2020-08-30T04:48:27.359Z</time>
      </trkpt>
      <trkpt lat="60.31325" lon="17.70819">
        <ele>42.555054</ele>
        <time>2020-08-30T04:48:41.371Z</time>
      </trkpt>
      <trkpt lat="60.31289" lon="17.70789">
        <ele>41.491402</ele>
        <time>2020-08-30T04:48:46.888Z</time>
      </trkpt>
      <trkpt lat="60.31239" lon="17.70771">
        <ele>40.889033</ele>
        <time>2020-08-30T04:48:54.278Z</time>
      </trkpt>
      <trkpt lat="60.31171" lon="17.70792">
        <ele>40.331741</ele>
        <time>2020-08-30T04:49:04.869Z</time>
      </trkpt>
      <trkpt lat="60.31076" lon="17.70839">
        <ele>40.510625</ele>
        <time>2020-08-30T04:49:24.562Z</time>
      </trkpt>
      <trkpt lat="60.31029" lon="17.70857">
        <ele>41.785923</ele>
        <time>2020-08-30T04:49:36.868Z</time>
      </trkpt>
      <trkpt lat="60.30956" lon="17.70867">
        <ele>43.76796</ele>
        <time>2020-08-30T04:49:58.514Z</time>
      </trkpt>
      <trkpt lat="60.30896" lon="17.70856">
        <ele>45.647715</ele>
        <time>2020-08-30T04:50:18.028Z</time>
      </trkpt>
      <trkpt lat="60.30672" lon="17.70756">
        <ele>52.474241</ele>
        <time>2020-08-30T04:51:26.491Z</time>
      </trkpt>
      <trkpt lat="60.30551" lon="17.70653">
        <ele>53.884953</ele>
        <time>2020-08-30T04:51:52.755Z</time>
      </trkpt>
      <trkpt lat="60.30425" lon="17.70503">
        <ele>52.431679</ele>
        <time>2020-08-30T04:52:15.612Z</time>
      </trkpt>
      <trkpt lat="60.3039" lon="17.70454">
        <ele>51.908196</ele>
        <time>2020-08-30T04:52:22.057Z</time>
      </trkpt>
      <trkpt lat="60.30312" lon="17.70301">
        <ele>50.54444</ele>
        <time>2020-08-30T04:52:38.891Z</time>
      </trkpt>
      <trkpt lat="60.30254" lon="17.70221">
        <ele>50.119587</ele>
        <time>2020-08-30T04:52:50.840Z</time>
      </trkpt>
      <trkpt lat="60.30182" lon="17.70161">
        <ele>50.067521</ele>
        <time>2020-08-30T04:53:05.539Z</time>
      </trkpt>
      <trkpt lat="60.3011" lon="17.70135">
        <ele>50.012025</ele>
        <time>2020-08-30T04:53:20.261Z</time>
      </trkpt>
      <trkpt lat="60.29646" lon="17.70099">
        <ele>48.469258</ele>
        <time>2020-08-30T04:54:43.830Z</time>
      </trkpt>
      <trkpt lat="60.29595" lon="17.70104">
        <ele>47.994747</ele>
        <time>2020-08-30T04:54:51.428Z</time>
      </trkpt>
      <trkpt lat="60.29563" lon="17.70123">
        <ele>47.533449</ele>
        <time>2020-08-30T04:54:56.152Z</time>
      </trkpt>
      <trkpt lat="60.29528" lon="17.70156">
        <ele>46.837111</ele>
        <time>2020-08-30T04:55:01.808Z</time>
      </trkpt>
      <trkpt lat="60.2948" lon="17.70233">
        <ele>45.754743</ele>
        <time>2020-08-30T04:55:10.637Z</time>
      </trkpt>
      <trkpt lat="60.29445" lon="17.7027">
        <ele>45.049854</ele>
        <time>2020-08-30T04:55:16.545Z</time>
      </trkpt>
      <trkpt lat="60.28898" lon="17.70481">
        <ele>42.952414</ele>
        <time>2020-08-30T04:56:55.996Z</time>
      </trkpt>
      <trkpt lat="60.2889" lon="17.70491">
        <ele>42.871894</ele>
        <time>2020-08-30T04:56:58.162Z</time>
      </trkpt>
      <trkpt lat="60.2888" lon="17.7051">
        <ele>42.704584</ele>
        <time>2020-08-30T04:57:00.131Z</time>
      </trkpt>
      <trkpt lat="60.28777" lon="17.70803">
        <ele>40.586105</ele>
        <time>2020-08-30T04:57:27.882Z</time>
      </trkpt>
      <trkpt lat="60.28745" lon="17.70868">
        <ele>40.169839</ele>
        <time>2020-08-30T04:57:35.086Z</time>
      </trkpt>
      <trkpt lat="60.28712" lon="17.70893">
        <ele>39.840976</ele>
        <time>2020-08-30T04:57:40.921Z</time>
      </trkpt>
      <trkpt lat="60.28616" lon="17.70899">
        <ele>38.988405</ele>
        <time>2020-08-30T04:57:57.157Z</time>
      </trkpt>
      <trkpt lat="60.28594" lon="17.70911">
        <ele>38.83229</ele>
        <time>2020-08-30T04:58:00.987Z</time>
      </trkpt>
      <trkpt lat="60.28564" lon="17.7095">
        <ele>38.577327</ele>
        <time>2020-08-30T04:58:07.052Z</time>
      </trkpt>
      <trkpt lat="60.28497" lon="17.71124">
        <ele>37.816829</ele>
        <time>2020-08-30T04:58:25.226Z</time>
      </trkpt>
      <trkpt lat="60.28459" lon="17.71176">
        <ele>37.678999</ele>
        <time>2020-08-30T04:58:32.868Z</time>
      </trkpt>
      <trkpt lat="60.28251" lon="17.71337">
        <ele>37.818525</ele>
        <time>2020-08-30T04:59:13.405Z</time>
      </trkpt>
      <trkpt lat="60.28204" lon="17.71349">
        <ele>38.102155</ele>
        <time>2020-08-30T04:59:23.508Z</time>
      </trkpt>
      <trkpt lat="60.28181" lon="17.71349">
        <ele>38.237095</ele>
        <time>2020-08-30T04:59:28.747Z</time>
      </trkpt>
      <trkpt lat="60.2816" lon="17.71344">
        <ele>38.409568</ele>
        <time>2020-08-30T04:59:33.703Z</time>
      </trkpt>
      <trkpt lat="60.28104" lon="17.71327">
        <ele>39.736364</ele>
        <time>2020-08-30T04:59:47.740Z</time>
      </trkpt>
      <trkpt lat="60.28032" lon="17.71312">
        <ele>41.464467</ele>
        <time>2020-08-30T05:00:07.438Z</time>
      </trkpt>
      <trkpt lat="60.27974" lon="17.71325">
        <ele>42.776996</ele>
        <time>2020-08-30T05:00:23.671Z</time>
      </trkpt>
      <trkpt lat="60.27936" lon="17.71364">
        <ele>43.469</ele>
        <time>2020-08-30T05:00:35.285Z</time>
      </trkpt>
      <trkpt lat="60.27905" lon="17.71422">
        <ele>44.150919</ele>
        <time>2020-08-30T05:00:45.975Z</time>
      </trkpt>
      <trkpt lat="60.2788" lon="17.71453">
        <ele>44.622004</ele>
        <time>2020-08-30T05:00:52.985Z</time>
      </trkpt>
      <trkpt lat="60.27849" lon="17.71466">
        <ele>45.135498</ele>
        <time>2020-08-30T05:00:59.920Z</time>
      </trkpt>
      <trkpt lat="60.27737" lon="17.71452">
        <ele>44.74749</ele>
        <time>2020-08-30T05:01:19.767Z</time>
      </trkpt>
      <trkpt lat="60.27656" lon="17.71409">
        <ele>44.001938</ele>
        <time>2020-08-30T05:01:32.549Z</time>
      </trkpt>
      <trkpt lat="60.27616" lon="17.71409">
        <ele>43.476317</ele>
        <time>2020-08-30T05:01:38.563Z</time>
      </trkpt>
      <trkpt lat="60.27581" lon="17.71421">
        <ele>42.962255</ele>
        <time>2020-08-30T05:01:44.010Z</time>
      </trkpt>
      <trkpt lat="60.27528" lon="17.71472">
        <ele>42.128355</ele>
        <time>2020-08-30T05:01:52.967Z</time>
      </trkpt>
      <trkpt lat="60.27454" lon="17.7158">
        <ele>41.080066</ele>
        <time>2020-08-30T05:02:07.558Z</time>
      </trkpt>
      <trkpt lat="60.27341" lon="17.71716">
        <ele>40.101336</ele>
        <time>2020-08-30T05:02:29.679Z</time>
      </trkpt>
      <trkpt lat="60.27209" lon="17.71945">
        <ele>39.458577</ele>
        <time>2020-08-30T05:03:00.303Z</time>
      </trkpt>
      <trkpt lat="60.27179" lon="17.71974">
        <ele>39.399502</ele>
        <time>2020-08-30T05:03:06.449Z</time>
      </trkpt>
      <trkpt lat="60.27092" lon="17.72002">
        <ele>39.38662</ele>
        <time>2020-08-30T05:03:22.834Z</time>
      </trkpt>
      <trkpt lat="60.27007" lon="17.72069">
        <ele>39.387642</ele>
        <time>2020-08-30T05:03:40.055Z</time>
      </trkpt>
      <trkpt lat="60.26694" lon="17.72086">
        <ele>39.68871</ele>
        <time>2020-08-30T05:04:38.473Z</time>
      </trkpt>
      <trkpt lat="60.26576" lon="17.72141">
        <ele>40.290684</ele>
        <time>2020-08-30T05:05:02.637Z</time>
      </trkpt>
      <trkpt lat="60.26564" lon="17.72147">
        <ele>40.365002</ele>
        <time>2020-08-30T05:05:05.298Z</time>
      </trkpt>
      <trkpt lat="60.26557" lon="17.7215">
        <ele>40.410721</ele>
        <time>2020-08-30T05:05:06.771Z</time>
      </trkpt>
      <trkpt lat="60.26528" lon="17.72149">
        <ele>40.587828</ele>
        <time>2020-08-30T05:05:12.712Z</time>
      </trkpt>
      <trkpt lat="60.2647" lon="17.72121">
        <ele>41.144532</ele>
        <time>2020-08-30T05:05:25.320Z</time>
      </trkpt>
      <trkpt lat="60.26379" lon="17.72065">
        <ele>42.686532</ele>
        <time>2020-08-30T05:05:47.464Z</time>
      </trkpt>
      <trkpt lat="60.26211" lon="17.71943">
        <ele>46.0241</ele>
        <time>2020-08-30T05:06:33.101Z</time>
      </trkpt>
      <trkpt lat="60.2605" lon="17.71753">
        <ele>48.57506</ele>
        <time>2020-08-30T05:07:18.287Z</time>
      </trkpt>
      <trkpt lat="60.26007" lon="17.71713">
        <ele>49.049248</ele>
        <time>2020-08-30T05:07:27.046Z</time>
      </trkpt>
      <trkpt lat="60.2599" lon="17.71696">
        <ele>49.083213</ele>
        <time>2020-08-30T05:07:30.445Z</time>
      </trkpt>
      <trkpt lat="60.25969" lon="17.71683">
        <ele>48.715506</ele>
        <time>2020-08-30T05:07:33.851Z</time>
      </trkpt>
      <trkpt lat="60.25926" lon="17.71666">
        <ele>47.969573</ele>
        <time>2020-08-30T05:07:40.625Z</time>
      </trkpt>
      <trkpt lat="60.25914" lon="17.71663">
        <ele>47.768995</ele>
        <time>2020-08-30T05:07:42.365Z</time>
      </trkpt>
      <trkpt lat="60.259" lon="17.7166">
        <ele>47.541415</ele>
        <time>2020-08-30T05:07:44.212Z</time>
      </trkpt>
      <trkpt lat="60.25848" lon="17.71651">
        <ele>46.664178</ele>
        <time>2020-08-30T05:07:51.404Z</time>
      </trkpt>
      <trkpt lat="60.25765" lon="17.71632">
        <ele>45.064967</ele>
        <time>2020-08-30T05:08:02.812Z</time>
      </trkpt>
      <trkpt lat="60.25704" lon="17.71619">
        <ele>43.824044</ele>
        <time>2020-08-30T05:08:11.359Z</time>
      </trkpt>
      <trkpt lat="60.25624" lon="17.716">
        <ele>42.268494</ele>
        <time>2020-08-30T05:08:23.047Z</time>
      </trkpt>
      <trkpt lat="60.25494" lon="17.71544">
        <ele>40.326332</ele>
        <time>2020-08-30T05:08:42.840Z</time>
      </trkpt>
      <trkpt lat="60.25407" lon="17.71529">
        <ele>39.016298</ele>
        <time>2020-08-30T05:08:55.567Z</time>
      </trkpt>
      <trkpt lat="60.25361" lon="17.71538">
        <ele>38.312777</ele>
        <time>2020-08-30T05:09:02.198Z</time>
      </trkpt>
      <trkpt lat="60.25232" lon="17.71585">
        <ele>36.965269</ele>
        <time>2020-08-30T05:09:21.780Z</time>
      </trkpt>
      <trkpt lat="60.25108" lon="17.71584">
        <ele>36.541564</ele>
        <time>2020-08-30T05:09:43.954Z</time>
      </trkpt>
      <trkpt lat="60.25008" lon="17.71645">
        <ele>36.80109</ele>
        <time>2020-08-30T05:10:04.501Z</time>
      </trkpt>
      <trkpt lat="60.24929" lon="17.71626">
        <ele>36.999444</ele>
        <time>2020-08-30T05:10:18.973Z</time>
      </trkpt>
      <trkpt lat="60.24898" lon="17.7163">
        <ele>36.930734</ele>
        <time>2020-08-30T05:10:24.263Z</time>
      </trkpt>
      <trkpt lat="60.24861" lon="17.71658">
        <ele>36.841839</ele>
        <time>2020-08-30T05:10:31.012Z</time>
      </trkpt>
      <trkpt lat="60.24827" lon="17.71712">
        <ele>36.746495</ele>
        <time>2020-08-30T05:10:38.171Z</time>
      </trkpt>
      <trkpt lat="60.24786" lon="17.71818">
        <ele>36.614821</ele>
        <time>2020-08-30T05:10:49.567Z</time>
      </trkpt>
      <trkpt lat="60.24752" lon="17.71951">
        <ele>36.894232</ele>
        <time>2020-08-30T05:11:03.057Z</time>
      </trkpt>
      <trkpt lat="60.24728" lon="17.71997">
        <ele>37.017146</ele>
        <time>2020-08-30T05:11:09.392Z</time>
      </trkpt>
      <trkpt lat="60.24701" lon="17.72019">
        <ele>37.127793</ele>
        <time>2020-08-30T05:11:15.274Z</time>
      </trkpt>
      <trkpt lat="60.24544" lon="17.72041">
        <ele>38.257748</ele>
        <time>2020-08-30T05:11:47.746Z</time>
      </trkpt>
      <trkpt lat="60.24462" lon="17.72027">
        <ele>38.870875</ele>
        <time>2020-08-30T05:12:04.613Z</time>
      </trkpt>
      <trkpt lat="60.24405" lon="17.72027">
        <ele>39.109747</ele>
        <time>2020-08-30T05:12:15.817Z</time>
      </trkpt>
      <trkpt lat="60.24321" lon="17.72048">
        <ele>39.460803</ele>
        <time>2020-08-30T05:12:31.663Z</time>
      </trkpt>
      <trkpt lat="60.24269" lon="17.72072">
        <ele>39.468727</ele>
        <time>2020-08-30T05:12:41.375Z</time>
      </trkpt>
      <trkpt lat="60.24183" lon="17.72087">
        <ele>39.290174</ele>
        <time>2020-08-30T05:12:56.296Z</time>
      </trkpt>
      <trkpt lat="60.24072" lon="17.72123">
        <ele>38.843586</ele>
        <time>2020-08-30T05:13:14.629Z</time>
      </trkpt>
      <trkpt lat="60.23907" lon="17.72134">
        <ele>37.881472</ele>
        <time>2020-08-30T05:13:41.308Z</time>
      </trkpt>
      <trkpt lat="60.23874" lon="17.72166">
        <ele>37.707884</ele>
        <time>2020-08-30T05:13:47.351Z</time>
      </trkpt>
      <trkpt lat="60.23817" lon="17.72317">
        <ele>37.257369</ele>
        <time>2020-08-30T05:14:03.126Z</time>
      </trkpt>
      <trkpt lat="60.23795" lon="17.72343">
        <ele>37.125017</ele>
        <time>2020-08-30T05:14:07.505Z</time>
      </trkpt>
      <trkpt lat="60.23769" lon="17.72359">
        <ele>36.98339</ele>
        <time>2020-08-30T05:14:11.802Z</time>
      </trkpt>
      <trkpt lat="60.2376" lon="17.72361">
        <ele>36.936768</ele>
        <time>2020-08-30T05:14:13.471Z</time>
      </trkpt>
      <trkpt lat="60.23754" lon="17.72362">
        <ele>36.901815</ele>
        <time>2020-08-30T05:14:14.588Z</time>
      </trkpt>
      <trkpt lat="60.2374" lon="17.72362">
        <ele>36.832236</ele>
        <time>2020-08-30T05:14:16.597Z</time>
      </trkpt>
      <trkpt lat="60.23696" lon="17.7236">
        <ele>36.598121</ele>
        <time>2020-08-30T05:14:23.928Z</time>
      </trkpt>
      <trkpt lat="60.23679" lon="17.72367">
        <ele>36.504278</ele>
        <time>2020-08-30T05:14:26.929Z</time>
      </trkpt>
      <trkpt lat="60.2362" lon="17.72443">
        <ele>36.194143</ele>
        <time>2020-08-30T05:14:38.192Z</time>
      </trkpt>
      <trkpt lat="60.23479" lon="17.72531">
        <ele>35.778758</ele>
        <time>2020-08-30T05:15:03.113Z</time>
      </trkpt>
      <trkpt lat="60.23445" lon="17.72577">
        <ele>35.932319</ele>
        <time>2020-08-30T05:15:10.718Z</time>
      </trkpt>
      <trkpt lat="60.23385" lon="17.72682">
        <ele>36.38809</ele>
        <time>2020-08-30T05:15:26.361Z</time>
      </trkpt>
      <trkpt lat="60.23352" lon="17.72722">
        <ele>36.60578</ele>
        <time>2020-08-30T05:15:34.384Z</time>
      </trkpt>
      <trkpt lat="60.23231" lon="17.72809">
        <ele>37.7875</ele>
        <time>2020-08-30T05:16:01.054Z</time>
      </trkpt>
      <trkpt lat="60.2322" lon="17.72817">
        <ele>37.90577</ele>
        <time>2020-08-30T05:16:03.573Z</time>
      </trkpt>
      <trkpt lat="60.23168" lon="17.72856">
        <ele>38.480204</ele>
        <time>2020-08-30T05:16:15.215Z</time>
      </trkpt>
      <trkpt lat="60.23123" lon="17.72893">
        <ele>38.98062</ele>
        <time>2020-08-30T05:16:26.158Z</time>
      </trkpt>
      <trkpt lat="60.23075" lon="17.72929">
        <ele>39.503399</ele>
        <time>2020-08-30T05:16:37.059Z</time>
      </trkpt>
      <trkpt lat="60.22995" lon="17.72995">
        <ele>40.390157</ele>
        <time>2020-08-30T05:16:54.632Z</time>
      </trkpt>
      <trkpt lat="60.22989" lon="17.73">
        <ele>40.463697</ele>
        <time>2020-08-30T05:16:56.294Z</time>
      </trkpt>
      <trkpt lat="60.22933" lon="17.7305">
        <ele>40.72792</ele>
        <time>2020-08-30T05:17:09.042Z</time>
      </trkpt>
      <trkpt lat="60.22926" lon="17.73057">
        <ele>40.764428</ele>
        <time>2020-08-30T05:17:10.874Z</time>
      </trkpt>
      <trkpt lat="60.22862" lon="17.73107">
        <ele>41.053903</ele>
        <time>2020-08-30T05:17:23.970Z</time>
      </trkpt>
      <trkpt lat="60.22847" lon="17.73119">
        <ele>41.120692</ele>
        <time>2020-08-30T05:17:27.024Z</time>
      </trkpt>
      <trkpt lat="60.22502" lon="17.7341">
        <ele>39.601579</ele>
        <time>2020-08-30T05:18:28.064Z</time>
      </trkpt>
      <trkpt lat="60.22497" lon="17.73414">
        <ele>39.579598</ele>
        <time>2020-08-30T05:18:28.782Z</time>
      </trkpt>
      <trkpt lat="60.22492" lon="17.73418">
        <ele>39.556059</ele>
        <time>2020-08-30T05:18:30.016Z</time>
      </trkpt>
      <trkpt lat="60.2233" lon="17.7355">
        <ele>39.813407</ele>
        <time>2020-08-30T05:19:02.739Z</time>
      </trkpt>
      <trkpt lat="60.22141" lon="17.73638">
        <ele>40.28036</ele>
        <time>2020-08-30T05:19:38.813Z</time>
      </trkpt>
      <trkpt lat="60.22125" lon="17.73646">
        <ele>40.322317</ele>
        <time>2020-08-30T05:19:41.967Z</time>
      </trkpt>
      <trkpt lat="60.2209" lon="17.73667">
        <ele>40.408898</ele>
        <time>2020-08-30T05:19:48.469Z</time>
      </trkpt>
      <trkpt lat="60.21981" lon="17.73687">
        <ele>40.673978</ele>
        <time>2020-08-30T05:20:08.819Z</time>
      </trkpt>
      <trkpt lat="60.21934" lon="17.73691">
        <ele>40.883827</ele>
        <time>2020-08-30T05:20:17.749Z</time>
      </trkpt>
      <trkpt lat="60.21758" lon="17.73705">
        <ele>41.848883</ele>
        <time>2020-08-30T05:20:52.311Z</time>
      </trkpt>
      <trkpt lat="60.2166" lon="17.73712">
        <ele>42.533223</ele>
        <time>2020-08-30T05:21:11.683Z</time>
      </trkpt>
      <trkpt lat="60.21656" lon="17.73858">
        <ele>43.171135</ele>
        <time>2020-08-30T05:21:26.691Z</time>
      </trkpt>
      <trkpt lat="60.21637" lon="17.74217">
        <ele>45.441918</ele>
        <time>2020-08-30T05:22:06.214Z</time>
      </trkpt>
      <trkpt lat="60.21604" lon="17.74518">
        <ele>47.647452</ele>
        <time>2020-08-30T05:22:40.913Z</time>
      </trkpt>
      <trkpt lat="60.21584" lon="17.74653">
        <ele>48.449143</ele>
        <time>2020-08-30T05:22:56.285Z</time>
      </trkpt>
      <trkpt lat="60.21529" lon="17.74946">
        <ele>50.036109</ele>
        <time>2020-08-30T05:23:29.276Z</time>
      </trkpt>
      <trkpt lat="60.21415" lon="17.75486">
        <ele>51.812535</ele>
        <time>2020-08-30T05:24:26.817Z</time>
      </trkpt>
      <trkpt lat="60.21371" lon="17.75676">
        <ele>52.133938</ele>
        <time>2020-08-30T05:24:46.241Z</time>
      </trkpt>
      <trkpt lat="60.21368" lon="17.75689">
        <ele>52.150162</ele>
        <time>2020-08-30T05:24:48.179Z</time>
      </trkpt>
      <trkpt lat="60.2123" lon="17.76362">
        <ele>52.0038</ele>
        <time>2020-08-30T05:25:52.311Z</time>
      </trkpt>
      <trkpt lat="60.212" lon="17.76511">
        <ele>51.705778</ele>
        <time>2020-08-30T05:26:05.585Z</time>
      </trkpt>
      <trkpt lat="60.21178" lon="17.76621">
        <ele>51.12269</ele>
        <time>2020-08-30T05:26:14.714Z</time>
      </trkpt>
      <trkpt lat="60.21135" lon="17.76847">
        <ele>49.707936</ele>
        <time>2020-08-30T05:26:32.512Z</time>
      </trkpt>
      <trkpt lat="60.21108" lon="17.76976">
        <ele>49.452992</ele>
        <time>2020-08-30T05:26:43.288Z</time>
      </trkpt>
      <trkpt lat="60.21152" lon="17.77011">
        <ele>49.379496</ele>
        <time>2020-08-30T05:26:51.603Z</time>
      </trkpt>
      <trkpt lat="60.21113" lon="17.7715">
        <ele>49.280247</ele>
        <time>2020-08-30T05:27:06.773Z</time>
      </trkpt>
      <trkpt lat="60.21067" lon="17.77288">
        <ele>50.361801</ele>
        <time>2020-08-30T05:27:25.564Z</time>
      </trkpt>
      <trkpt lat="60.21039" lon="17.77406">
        <ele>51.215325</ele>
        <time>2020-08-30T05:27:40.218Z</time>
      </trkpt>
      <trkpt lat="60.21014" lon="17.77622">
        <ele>51.76118</ele>
        <time>2020-08-30T05:28:04.033Z</time>
      </trkpt>
      <trkpt lat="60.2099" lon="17.77918">
        <ele>51.230251</ele>
        <time>2020-08-30T05:28:28.344Z</time>
      </trkpt>
      <trkpt lat="60.20965" lon="17.78168">
        <ele>49.399578</ele>
        <time>2020-08-30T05:28:46.408Z</time>
      </trkpt>
      <trkpt lat="60.20958" lon="17.78255">
        <ele>49.043767</ele>
        <time>2020-08-30T05:28:52.678Z</time>
      </trkpt>
      <trkpt lat="60.20919" lon="17.78693">
        <ele>47.702254</ele>
        <time>2020-08-30T05:29:29.732Z</time>
      </trkpt>
      <trkpt lat="60.20896" lon="17.7884">
        <ele>47.426659</ele>
        <time>2020-08-30T05:29:42.939Z</time>
      </trkpt>
      <trkpt lat="60.20703" lon="17.79445">
        <ele>46.58035</ele>
        <time>2020-08-30T05:30:41.677Z</time>
      </trkpt>
      <trkpt lat="60.20662" lon="17.79561">
        <ele>47.858324</ele>
        <time>2020-08-30T05:30:59.677Z</time>
      </trkpt>
      <trkpt lat="60.20626" lon="17.79631">
        <ele>49.260487</ele>
        <time>2020-08-30T05:31:13.937Z</time>
      </trkpt>
      <trkpt lat="60.20552" lon="17.79759">
        <ele>51.820127</ele>
        <time>2020-08-30T05:31:42.377Z</time>
      </trkpt>
      <trkpt lat="60.20297" lon="17.8007">
        <ele>55.530409</ele>
        <time>2020-08-30T05:32:48.424Z</time>
      </trkpt>
      <trkpt lat="60.2027" lon="17.80089">
        <ele>55.714715</ele>
        <time>2020-08-30T05:32:53.021Z</time>
      </trkpt>
      <trkpt lat="60.20251" lon="17.80098">
        <ele>55.835982</ele>
        <time>2020-08-30T05:32:55.824Z</time>
      </trkpt>
      <trkpt lat="60.20234" lon="17.80098">
        <ele>55.70548</ele>
        <time>2020-08-30T05:32:58.647Z</time>
      </trkpt>
      <trkpt lat="60.20217" lon="17.80084">
        <ele>55.560799</ele>
        <time>2020-08-30T05:33:01.302Z</time>
      </trkpt>
      <trkpt lat="60.20193" lon="17.80054">
        <ele>55.333074</ele>
        <time>2020-08-30T05:33:05.646Z</time>
      </trkpt>
      <trkpt lat="60.2015" lon="17.80172">
        <ele>54.755788</ele>
        <time>2020-08-30T05:33:16.580Z</time>
      </trkpt>
      <trkpt lat="60.19956" lon="17.80677">
        <ele>53.627662</ele>
        <time>2020-08-30T05:34:13.518Z</time>
      </trkpt>
      <trkpt lat="60.19893" lon="17.80839">
        <ele>52.45576</ele>
        <time>2020-08-30T05:34:28.464Z</time>
      </trkpt>
      <trkpt lat="60.19784" lon="17.81136">
        <ele>47.640936</ele>
        <time>2020-08-30T05:34:52.822Z</time>
      </trkpt>
      <trkpt lat="60.19703" lon="17.81403">
        <ele>43.850758</ele>
        <time>2020-08-30T05:35:14.057Z</time>
      </trkpt>
      <trkpt lat="60.1968" lon="17.81496">
        <ele>43.15717</ele>
        <time>2020-08-30T05:35:21.520Z</time>
      </trkpt>
      <trkpt lat="60.19659" lon="17.81582">
        <ele>42.564213</ele>
        <time>2020-08-30T05:35:28.777Z</time>
      </trkpt>
      <trkpt lat="60.19597" lon="17.81908">
        <ele>40.682233</ele>
        <time>2020-08-30T05:35:56.259Z</time>
      </trkpt>
      <trkpt lat="60.19568" lon="17.82106">
        <ele>39.741011</ele>
        <time>2020-08-30T05:36:12.065Z</time>
      </trkpt>
      <trkpt lat="60.19544" lon="17.82327">
        <ele>38.964681</ele>
        <time>2020-08-30T05:36:29.421Z</time>
      </trkpt>
      <trkpt lat="60.19532" lon="17.82478">
        <ele>38.597612</ele>
        <time>2020-08-30T05:36:42.822Z</time>
      </trkpt>
      <trkpt lat="60.19593" lon="17.82541">
        <ele>38.684447</ele>
        <time>2020-08-30T05:36:55.758Z</time>
      </trkpt>
      <trkpt lat="60.19623" lon="17.82577">
        <ele>38.728592</ele>
        <time>2020-08-30T05:37:02.269Z</time>
      </trkpt>
      <trkpt lat="60.19672" lon="17.8266">
        <ele>38.716564</ele>
        <time>2020-08-30T05:37:14.376Z</time>
      </trkpt>
      <trkpt lat="60.197" lon="17.8276">
        <ele>37.993324</ele>
        <time>2020-08-30T05:37:23.704Z</time>
      </trkpt>
      <trkpt lat="60.19707" lon="17.82816">
        <ele>37.629175</ele>
        <time>2020-08-30T05:37:27.927Z</time>
      </trkpt>
      <trkpt lat="60.19727" lon="17.83169">
        <ele>35.231812</ele>
        <time>2020-08-30T05:37:52.903Z</time>
      </trkpt>
      <trkpt lat="60.19722" lon="17.8346">
        <ele>33.862013</ele>
        <time>2020-08-30T05:38:15.597Z</time>
      </trkpt>
      <trkpt lat="60.19743" lon="17.83801">
        <ele>33.947608</ele>
        <time>2020-08-30T05:38:47.220Z</time>
      </trkpt>
      <trkpt lat="60.19752" lon="17.84014">
        <ele>34.501691</ele>
        <time>2020-08-30T05:39:08.149Z</time>
      </trkpt>
      <trkpt lat="60.19753" lon="17.84086">
        <ele>34.721595</ele>
        <time>2020-08-30T05:39:15.372Z</time>
      </trkpt>
      <trkpt lat="60.19727" lon="17.84431">
        <ele>36.441368</ele>
        <time>2020-08-30T05:39:51.777Z</time>
      </trkpt>
      <trkpt lat="60.19733" lon="17.84533">
        <ele>37.131992</ele>
        <time>2020-08-30T05:40:03.120Z</time>
      </trkpt>
      <trkpt lat="60.19759" lon="17.84709">
        <ele>38.365234</ele>
        <time>2020-08-30T05:40:23.483Z</time>
      </trkpt>
      <trkpt lat="60.19765" lon="17.84733">
        <ele>38.541173</ele>
        <time>2020-08-30T05:40:26.387Z</time>
      </trkpt>
      <trkpt lat="60.1977" lon="17.84757">
        <ele>38.717523</ele>
        <time>2020-08-30T05:40:29.474Z</time>
      </trkpt>
      <trkpt lat="60.19791" lon="17.84791">
        <ele>39.103558</ele>
        <time>2020-08-30T05:40:35.481Z</time>
      </trkpt>
      <trkpt lat="60.19839" lon="17.8484">
        <ele>39.906562</ele>
        <time>2020-08-30T05:40:47.750Z</time>
      </trkpt>
      <trkpt lat="60.19862" lon="17.84873">
        <ele>40.320513</ele>
        <time>2020-08-30T05:40:54.223Z</time>
      </trkpt>
      <trkpt lat="60.1992" lon="17.84985">
        <ele>41.518177</ele>
        <time>2020-08-30T05:41:12.420Z</time>
      </trkpt>
      <trkpt lat="60.19952" lon="17.85087">
        <ele>41.954931</ele>
        <time>2020-08-30T05:41:25.299Z</time>
      </trkpt>
      <trkpt lat="60.1996" lon="17.8513">
        <ele>42.119315</ele>
        <time>2020-08-30T05:41:30.147Z</time>
      </trkpt>
      <trkpt lat="60.19965" lon="17.85201">
        <ele>42.376947</ele>
        <time>2020-08-30T05:41:37.506Z</time>
      </trkpt>
      <trkpt lat="60.19961" lon="17.85469">
        <ele>42.47254</ele>
        <time>2020-08-30T05:42:01.535Z</time>
      </trkpt>
      <trkpt lat="60.19966" lon="17.85542">
        <ele>42.291655</ele>
        <time>2020-08-30T05:42:07.476Z</time>
      </trkpt>
      <trkpt lat="60.19975" lon="17.85619">
        <ele>42.094064</ele>
        <time>2020-08-30T05:42:13.784Z</time>
      </trkpt>
      <trkpt lat="60.19985" lon="17.85672">
        <ele>41.954188</ele>
        <time>2020-08-30T05:42:18.119Z</time>
      </trkpt>
      <trkpt lat="60.19994" lon="17.85725">
        <ele>41.580221</ele>
        <time>2020-08-30T05:42:22.309Z</time>
      </trkpt>
      <trkpt lat="60.19997" lon="17.85788">
        <ele>41.096416</ele>
        <time>2020-08-30T05:42:26.973Z</time>
      </trkpt>
      <trkpt lat="60.19996" lon="17.8581">
        <ele>40.930549</ele>
        <time>2020-08-30T05:42:28.536Z</time>
      </trkpt>
      <trkpt lat="60.19992" lon="17.85836">
        <ele>40.727902</ele>
        <time>2020-08-30T05:42:30.459Z</time>
      </trkpt>
      <trkpt lat="60.19983" lon="17.85876">
        <ele>40.388511</ele>
        <time>2020-08-30T05:42:33.647Z</time>
      </trkpt>
      <trkpt lat="60.1992" lon="17.86062">
        <ele>38.849116</ele>
        <time>2020-08-30T05:42:49.805Z</time>
      </trkpt>
      <trkpt lat="60.19885" lon="17.86228">
        <ele>37.947789</ele>
        <time>2020-08-30T05:43:03.151Z</time>
      </trkpt>
      <trkpt lat="60.1987" lon="17.86278">
        <ele>37.654252</ele>
        <time>2020-08-30T05:43:07.933Z</time>
      </trkpt>
      <trkpt lat="60.19815" lon="17.86401">
        <ele>38.047469</ele>
        <time>2020-08-30T05:43:23.176Z</time>
      </trkpt>
      <trkpt lat="60.19797" lon="17.86458">
        <ele>38.466228</ele>
        <time>2020-08-30T05:43:30.366Z</time>
      </trkpt>
      <trkpt lat="60.19773" lon="17.86582">
        <ele>39.311351</ele>
        <time>2020-08-30T05:43:46.233Z</time>
      </trkpt>
      <trkpt lat="60.19757" lon="17.86676">
        <ele>40.04034</ele>
        <time>2020-08-30T05:43:58.549Z</time>
      </trkpt>
      <trkpt lat="60.19753" lon="17.86705">
        <ele>40.3029</ele>
        <time>2020-08-30T05:44:02.040Z</time>
      </trkpt>
      <trkpt lat="60.1975" lon="17.86743">
        <ele>40.639857</ele>
        <time>2020-08-30T05:44:07.224Z</time>
      </trkpt>
      <trkpt lat="60.1975" lon="17.86816">
        <ele>41.269196</ele>
        <time>2020-08-30T05:44:16.158Z</time>
      </trkpt>
      <trkpt lat="60.19762" lon="17.86947">
        <ele>42.424008</ele>
        <time>2020-08-30T05:44:31.264Z</time>
      </trkpt>
      <trkpt lat="60.19763" lon="17.87068">
        <ele>42.880084</ele>
        <time>2020-08-30T05:44:44.011Z</time>
      </trkpt>
      <trkpt lat="60.19754" lon="17.87122">
        <ele>42.944441</ele>
        <time>2020-08-30T05:44:49.174Z</time>
      </trkpt>
      <trkpt lat="60.19723" lon="17.8721">
        <ele>43.067753</ele>
        <time>2020-08-30T05:44:58.833Z</time>
      </trkpt>
      <trkpt lat="60.19691" lon="17.87343">
        <ele>43.121262</ele>
        <time>2020-08-30T05:45:11.419Z</time>
      </trkpt>
      <trkpt lat="60.19686" lon="17.87387">
        <ele>42.99888</ele>
        <time>2020-08-30T05:45:15.133Z</time>
      </trkpt>
      <trkpt lat="60.19686" lon="17.87435">
        <ele>42.86816</ele>
        <time>2020-08-30T05:45:19.127Z</time>
      </trkpt>
      <trkpt lat="60.19697" lon="17.87525">
        <ele>42.617237</ele>
        <time>2020-08-30T05:45:26.479Z</time>
      </trkpt>
      <trkpt lat="60.19742" lon="17.87669">
        <ele>42.136967</ele>
        <time>2020-08-30T05:45:40.148Z</time>
      </trkpt>
      <trkpt lat="60.1975" lon="17.87714">
        <ele>41.974682</ele>
        <time>2020-08-30T05:45:44.034Z</time>
      </trkpt>
      <trkpt lat="60.19748" lon="17.87774">
        <ele>41.768475</ele>
        <time>2020-08-30T05:45:48.977Z</time>
      </trkpt>
      <trkpt lat="60.19747" lon="17.87857">
        <ele>41.486545</ele>
        <time>2020-08-30T05:45:55.834Z</time>
      </trkpt>
      <trkpt lat="60.19755" lon="17.8789">
        <ele>41.357611</ele>
        <time>2020-08-30T05:45:58.840Z</time>
      </trkpt>
      <trkpt lat="60.19789" lon="17.88098">
        <ele>40.329835</ele>
        <time>2020-08-30T05:46:15.626Z</time>
      </trkpt>
      <trkpt lat="60.19795" lon="17.88138">
        <ele>40.081812</ele>
        <time>2020-08-30T05:46:18.857Z</time>
      </trkpt>
      <trkpt lat="60.19802" lon="17.88213">
        <ele>39.624416</ele>
        <time>2020-08-30T05:46:24.790Z</time>
      </trkpt>
      <trkpt lat="60.19806" lon="17.88252">
        <ele>39.386401</ele>
        <time>2020-08-30T05:46:27.814Z</time>
      </trkpt>
      <trkpt lat="60.19811" lon="17.88295">
        <ele>39.123293</ele>
        <time>2020-08-30T05:46:31.099Z</time>
      </trkpt>
      <trkpt lat="60.19814" lon="17.88326">
        <ele>38.935645</ele>
        <time>2020-08-30T05:46:33.363Z</time>
      </trkpt>
      <trkpt lat="60.19815" lon="17.88344">
        <ele>38.829515</ele>
        <time>2020-08-30T05:46:34.654Z</time>
      </trkpt>
      <trkpt lat="60.19815" lon="17.88362">
        <ele>38.691054</ele>
        <time>2020-08-30T05:46:35.932Z</time>
      </trkpt>
      <trkpt lat="60.19812" lon="17.88388">
        <ele>38.480304</ele>
        <time>2020-08-30T05:46:37.815Z</time>
      </trkpt>
      <trkpt lat="60.19802" lon="17.88437">
        <ele>38.065227</ele>
        <time>2020-08-30T05:46:41.550Z</time>
      </trkpt>
      <trkpt lat="60.19766" lon="17.88533">
        <ele>37.122351</ele>
        <time>2020-08-30T05:46:50.129Z</time>
      </trkpt>
      <trkpt lat="60.19809" lon="17.88595">
        <ele>36.278191</ele>
        <time>2020-08-30T05:46:58.512Z</time>
      </trkpt>
      <trkpt lat="60.19776" lon="17.88719">
        <ele>35.765204</ele>
        <time>2020-08-30T05:47:09.792Z</time>
      </trkpt>
      <trkpt lat="60.19793" lon="17.88738">
        <ele>35.677309</ele>
        <time>2020-08-30T05:47:12.980Z</time>
      </trkpt>
      <trkpt lat="60.19785" lon="17.88782">
        <ele>35.575403</ele>
        <time>2020-08-30T05:47:16.633Z</time>
      </trkpt>
      <trkpt lat="60.19781" lon="17.88912">
        <ele>35.289819</ele>
        <time>2020-08-30T05:47:27.717Z</time>
      </trkpt>
      <trkpt lat="60.19777" lon="17.88924">
        <ele>35.259283</ele>
        <time>2020-08-30T05:47:29.025Z</time>
      </trkpt>
      <trkpt lat="60.19782" lon="17.88941">
        <ele>35.21837</ele>
        <time>2020-08-30T05:47:30.792Z</time>
      </trkpt>
      <trkpt lat="60.19789" lon="17.89028">
        <ele>35.840758</ele>
        <time>2020-08-30T05:47:40.271Z</time>
      </trkpt>
      <trkpt lat="60.1979" lon="17.89096">
        <ele>36.366946</ele>
        <time>2020-08-30T05:47:48.439Z</time>
      </trkpt>
      <trkpt lat="60.1979" lon="17.89143">
        <ele>36.729692</ele>
        <time>2020-08-30T05:47:54.466Z</time>
      </trkpt>
      <trkpt lat="60.19784" lon="17.89245">
        <ele>37.528684</ele>
        <time>2020-08-30T05:48:07.071Z</time>
      </trkpt>
      <trkpt lat="60.19764" lon="17.89425">
        <ele>38.956119</ele>
        <time>2020-08-30T05:48:29.954Z</time>
      </trkpt>
      <trkpt lat="60.19814" lon="17.89448">
        <ele>39.751461</ele>
        <time>2020-08-30T05:48:42.924Z</time>
      </trkpt>
      <trkpt lat="60.19867" lon="17.89475">
        <ele>40.593543</ele>
        <time>2020-08-30T05:48:55.618Z</time>
      </trkpt>
      <trkpt lat="60.19875" lon="17.89484">
        <ele>40.73674</ele>
        <time>2020-08-30T05:48:57.646Z</time>
      </trkpt>
      <trkpt lat="60.1989" lon="17.89508">
        <ele>40.78176</ele>
        <time>2020-08-30T05:49:01.054Z</time>
      </trkpt>
      <trkpt lat="60.19903" lon="17.89542">
        <ele>40.739593</ele>
        <time>2020-08-30T05:49:04.906Z</time>
      </trkpt>
      <trkpt lat="60.19945" lon="17.89636">
        <ele>40.617976</ele>
        <time>2020-08-30T05:49:15.302Z</time>
      </trkpt>
      <trkpt lat="60.19956" lon="17.89636">
        <ele>40.597249</ele>
        <time>2020-08-30T05:49:16.949Z</time>
      </trkpt>
      <trkpt lat="60.19991" lon="17.89642">
        <ele>40.529036</ele>
        <time>2020-08-30T05:49:23.020Z</time>
      </trkpt>
      <trkpt lat="60.20025" lon="17.89664">
        <ele>40.468806</ele>
        <time>2020-08-30T05:49:29.353Z</time>
      </trkpt>
      <trkpt lat="60.20041" lon="17.89675">
        <ele>40.596879</ele>
        <time>2020-08-30T05:49:32.640Z</time>
      </trkpt>
      <trkpt lat="60.20048" lon="17.89679">
        <ele>40.649423</ele>
        <time>2020-08-30T05:49:33.866Z</time>
      </trkpt>
      <trkpt lat="60.20098" lon="17.89722">
        <ele>41.059233</ele>
        <time>2020-08-30T05:49:43.838Z</time>
      </trkpt>
      <trkpt lat="60.20103" lon="17.89728">
        <ele>41.103554</ele>
        <time>2020-08-30T05:49:45.233Z</time>
      </trkpt>
      <trkpt lat="60.20148" lon="17.8977">
        <ele>41.481436</ele>
        <time>2020-08-30T05:49:55.687Z</time>
      </trkpt>
      <trkpt lat="60.20192" lon="17.89808">
        <ele>41.846539</ele>
        <time>2020-08-30T05:50:06.720Z</time>
      </trkpt>
      <trkpt lat="60.20265" lon="17.90012">
        <ele>43.031644</ele>
        <time>2020-08-30T05:50:34.871Z</time>
      </trkpt>
      <trkpt lat="60.20391" lon="17.90121">
        <ele>43.909414</ele>
        <time>2020-08-30T05:51:00.881Z</time>
      </trkpt>
      <trkpt lat="60.20436" lon="17.90157">
        <ele>44.127118</ele>
        <time>2020-08-30T05:51:09.865Z</time>
      </trkpt>
      <trkpt lat="60.20466" lon="17.90179">
        <ele>44.26718</ele>
        <time>2020-08-30T05:51:16.317Z</time>
      </trkpt>
      <trkpt lat="60.20558" lon="17.90213">
        <ele>46.701579</ele>
        <time>2020-08-30T05:51:39.725Z</time>
      </trkpt>
      <trkpt lat="60.20539" lon="17.90317">
        <ele>48.337262</ele>
        <time>2020-08-30T05:51:56.147Z</time>
      </trkpt>
      <trkpt lat="60.20523" lon="17.90382">
        <ele>49.415031</ele>
        <time>2020-08-30T05:52:07.653Z</time>
      </trkpt>
      <trkpt lat="60.20505" lon="17.90441">
        <ele>50.853445</ele>
        <time>2020-08-30T05:52:19.113Z</time>
      </trkpt>
      <trkpt lat="60.2047" lon="17.90533">
        <ele>53.517365</ele>
        <time>2020-08-30T05:52:39.298Z</time>
      </trkpt>
      <trkpt lat="60.20461" lon="17.90649">
        <ele>56.197466</ele>
        <time>2020-08-30T05:52:59.354Z</time>
      </trkpt>
      <trkpt lat="60.20495" lon="17.90767">
        <ele>58.735627</ele>
        <time>2020-08-30T05:53:21.417Z</time>
      </trkpt>
      <trkpt lat="60.20534" lon="17.90863">
        <ele>60.322413</ele>
        <time>2020-08-30T05:53:38.836Z</time>
      </trkpt>
      <trkpt lat="60.20573" lon="17.90888">
        <ele>61.368244</ele>
        <time>2020-08-30T05:53:49.123Z</time>
      </trkpt>
      <trkpt lat="60.20597" lon="17.9096">
        <ele>62.478654</ele>
        <time>2020-08-30T05:53:59.126Z</time>
      </trkpt>
      <trkpt lat="60.20644" lon="17.91039">
        <ele>62.682807</ele>
        <time>2020-08-30T05:54:11.905Z</time>
      </trkpt>
      <trkpt lat="60.20691" lon="17.91092">
        <ele>62.731454</ele>
        <time>2020-08-30T05:54:21.768Z</time>
      </trkpt>
      <trkpt lat="60.20711" lon="17.91158">
        <ele>62.765721</ele>
        <time>2020-08-30T05:54:28.363Z</time>
      </trkpt>
      <trkpt lat="60.2071" lon="17.91218">
        <ele>62.792671</ele>
        <time>2020-08-30T05:54:33.457Z</time>
      </trkpt>
      <trkpt lat="60.20695" lon="17.91291">
        <ele>62.737423</ele>
        <time>2020-08-30T05:54:40.103Z</time>
      </trkpt>
      <trkpt lat="60.20691" lon="17.91344">
        <ele>62.694882</ele>
        <time>2020-08-30T05:54:44.656Z</time>
      </trkpt>
      <trkpt lat="60.20706" lon="17.91489">
        <ele>62.579416</ele>
        <time>2020-08-30T05:54:57.952Z</time>
      </trkpt>
      <trkpt lat="60.20689" lon="17.91551">
        <ele>62.523718</ele>
        <time>2020-08-30T05:55:04.824Z</time>
      </trkpt>
      <trkpt lat="60.2068" lon="17.91606">
        <ele>62.648105</ele>
        <time>2020-08-30T05:55:10.516Z</time>
      </trkpt>
      <trkpt lat="60.20688" lon="17.91667">
        <ele>62.851121</ele>
        <time>2020-08-30T05:55:16.822Z</time>
      </trkpt>
      <trkpt lat="60.20708" lon="17.9169">
        <ele>63.002788</ele>
        <time>2020-08-30T05:55:21.954Z</time>
      </trkpt>
      <trkpt lat="60.20768" lon="17.91776">
        <ele>63.477153</ele>
        <time>2020-08-30T05:55:37.351Z</time>
      </trkpt>
      <trkpt lat="60.20799" lon="17.91844">
        <ele>63.6464</ele>
        <time>2020-08-30T05:55:46.911Z</time>
      </trkpt>
      <trkpt lat="60.2081" lon="17.91897">
        <ele>63.58589</ele>
        <time>2020-08-30T05:55:53.120Z</time>
      </trkpt>
      <trkpt lat="60.20825" lon="17.92071">
        <ele>63.397215</ele>
        <time>2020-08-30T05:56:09.145Z</time>
      </trkpt>
      <trkpt lat="60.20826" lon="17.92259">
        <ele>62.570141</ele>
        <time>2020-08-30T05:56:23.930Z</time>
      </trkpt>
      <trkpt lat="60.20822" lon="17.92326">
        <ele>62.033317</ele>
        <time>2020-08-30T05:56:29.023Z</time>
      </trkpt>
      <trkpt lat="60.20824" lon="17.92361">
        <ele>61.7549</ele>
        <time>2020-08-30T05:56:31.623Z</time>
      </trkpt>
      <trkpt lat="60.20848" lon="17.92481">
        <ele>60.720534</ele>
        <time>2020-08-30T05:56:41.257Z</time>
      </trkpt>
      <trkpt lat="60.20858" lon="17.92538">
        <ele>60.289614</ele>
        <time>2020-08-30T05:56:45.777Z</time>
      </trkpt>
      <trkpt lat="60.20869" lon="17.92565">
        <ele>60.093515</ele>
        <time>2020-08-30T05:56:48.392Z</time>
      </trkpt>
      <trkpt lat="60.20925" lon="17.92652">
        <ele>59.294691</ele>
        <time>2020-08-30T05:56:59.278Z</time>
      </trkpt>
      <trkpt lat="60.20985" lon="17.92816">
        <ele>58.337579</ele>
        <time>2020-08-30T05:57:16.445Z</time>
      </trkpt>
      <trkpt lat="60.20999" lon="17.92904">
        <ele>58.264826</ele>
        <time>2020-08-30T05:57:24.574Z</time>
      </trkpt>
      <trkpt lat="60.21001" lon="17.92984">
        <ele>58.201946</ele>
        <time>2020-08-30T05:57:31.805Z</time>
      </trkpt>
      <trkpt lat="60.21005" lon="17.93098">
        <ele>58.111998</ele>
        <time>2020-08-30T05:57:42.404Z</time>
      </trkpt>
      <trkpt lat="60.21007" lon="17.93163">
        <ele>58.150714</ele>
        <time>2020-08-30T05:57:48.553Z</time>
      </trkpt>
      <trkpt lat="60.21008" lon="17.93281">
        <ele>58.42139</ele>
        <time>2020-08-30T05:57:59.914Z</time>
      </trkpt>
      <trkpt lat="60.20961" lon="17.93416">
        <ele>58.799495</ele>
        <time>2020-08-30T05:58:17.088Z</time>
      </trkpt>
      <trkpt lat="60.20957" lon="17.93458">
        <ele>58.896625</ele>
        <time>2020-08-30T05:58:21.490Z</time>
      </trkpt>
      <trkpt lat="60.20965" lon="17.93544">
        <ele>59.018272</ele>
        <time>2020-08-30T05:58:30.211Z</time>
      </trkpt>
      <trkpt lat="60.20975" lon="17.9358">
        <ele>59.072835</ele>
        <time>2020-08-30T05:58:34.545Z</time>
      </trkpt>
      <trkpt lat="60.20978" lon="17.93589">
        <ele>59.086581</ele>
        <time>2020-08-30T05:58:35.556Z</time>
      </trkpt>
      <trkpt lat="60.21001" lon="17.93633">
        <ele>59.170962</ele>
        <time>2020-08-30T05:58:41.400Z</time>
      </trkpt>
      <trkpt lat="60.21016" lon="17.93675">
        <ele>59.238369</ele>
        <time>2020-08-30T05:58:46.222Z</time>
      </trkpt>
      <trkpt lat="60.21052" lon="17.93847">
        <ele>59.41163</ele>
        <time>2020-08-30T05:59:04.053Z</time>
      </trkpt>
      <trkpt lat="60.21066" lon="17.93891">
        <ele>59.428174</ele>
        <time>2020-08-30T05:59:08.563Z</time>
      </trkpt>
      <trkpt lat="60.21096" lon="17.93961">
        <ele>59.457496</ele>
        <time>2020-08-30T05:59:17.239Z</time>
      </trkpt>
      <trkpt lat="60.21113" lon="17.93997">
        <ele>59.473173</ele>
        <time>2020-08-30T05:59:21.672Z</time>
      </trkpt>
      <trkpt lat="60.21117" lon="17.94039">
        <ele>59.486517</ele>
        <time>2020-08-30T05:59:25.771Z</time>
      </trkpt>
      <trkpt lat="60.2111" lon="17.94131">
        <ele>59.52593</ele>
        <time>2020-08-30T05:59:34.527Z</time>
      </trkpt>
      <trkpt lat="60.2111" lon="17.94194">
        <ele>59.561461</ele>
        <time>2020-08-30T05:59:40.972Z</time>
      </trkpt>
      <trkpt lat="60.21115" lon="17.9423">
        <ele>59.582271</ele>
        <time>2020-08-30T05:59:44.765Z</time>
      </trkpt>
      <trkpt lat="60.21152" lon="17.94299">
        <ele>59.639076</ele>
        <time>2020-08-30T05:59:54.669Z</time>
      </trkpt>
      <trkpt lat="60.21188" lon="17.94423">
        <ele>59.647906</ele>
        <time>2020-08-30T06:00:07.383Z</time>
      </trkpt>
      <trkpt lat="60.21195" lon="17.94488">
        <ele>59.490169</ele>
        <time>2020-08-30T06:00:13.102Z</time>
      </trkpt>
      <trkpt lat="60.2119" lon="17.94565">
        <ele>59.307385</ele>
        <time>2020-08-30T06:00:19.698Z</time>
      </trkpt>
      <trkpt lat="60.21194" lon="17.94602">
        <ele>59.217873</ele>
        <time>2020-08-30T06:00:23.021Z</time>
      </trkpt>
      <trkpt lat="60.21201" lon="17.94626">
        <ele>59.153537</ele>
        <time>2020-08-30T06:00:25.206Z</time>
      </trkpt>
      <trkpt lat="60.21272" lon="17.94727">
        <ele>58.800722</ele>
        <time>2020-08-30T06:00:40.199Z</time>
      </trkpt>
      <trkpt lat="60.21291" lon="17.94792">
        <ele>58.720567</ele>
        <time>2020-08-30T06:00:46.675Z</time>
      </trkpt>
      <trkpt lat="60.21317" lon="17.9491">
        <ele>58.583348</ele>
        <time>2020-08-30T06:00:58.235Z</time>
      </trkpt>
      <trkpt lat="60.21346" lon="17.94953">
        <ele>58.506208</ele>
        <time>2020-08-30T06:01:04.953Z</time>
      </trkpt>
      <trkpt lat="60.21358" lon="17.94984">
        <ele>58.469344</ele>
        <time>2020-08-30T06:01:08.545Z</time>
      </trkpt>
      <trkpt lat="60.21362" lon="17.95074">
        <ele>58.6617</ele>
        <time>2020-08-30T06:01:17.172Z</time>
      </trkpt>
      <trkpt lat="60.21348" lon="17.9521">
        <ele>58.959266</ele>
        <time>2020-08-30T06:01:30.901Z</time>
      </trkpt>
      <trkpt lat="60.21351" lon="17.95253">
        <ele>59.051905</ele>
        <time>2020-08-30T06:01:35.194Z</time>
      </trkpt>
      <trkpt lat="60.21362" lon="17.95292">
        <ele>59.149251</ele>
        <time>2020-08-30T06:01:39.870Z</time>
      </trkpt>
      <trkpt lat="60.21424" lon="17.95427">
        <ele>59.718319</ele>
        <time>2020-08-30T06:01:59.074Z</time>
      </trkpt>
      <trkpt lat="60.21441" lon="17.95478">
        <ele>59.930658</ele>
        <time>2020-08-30T06:02:05.623Z</time>
      </trkpt>
      <trkpt lat="60.21449" lon="17.95514">
        <ele>60.063281</ele>
        <time>2020-08-30T06:02:09.705Z</time>
      </trkpt>
      <trkpt lat="60.21456" lon="17.95617">
        <ele>60.41499</ele>
        <time>2020-08-30T06:02:20.495Z</time>
      </trkpt>
      <trkpt lat="60.21456" lon="17.95697">
        <ele>60.52115</ele>
        <time>2020-08-30T06:02:28.522Z</time>
      </trkpt>
      <trkpt lat="60.21456" lon="17.95708">
        <ele>60.530157</ele>
        <time>2020-08-30T06:02:29.535Z</time>
      </trkpt>
      <trkpt lat="60.21448" lon="17.95753">
        <ele>60.565916</ele>
        <time>2020-08-30T06:02:34.098Z</time>
      </trkpt>
      <trkpt lat="60.21404" lon="17.95862">
        <ele>60.674998</ele>
        <time>2020-08-30T06:02:47.279Z</time>
      </trkpt>
      <trkpt lat="60.21319" lon="17.95976">
        <ele>60.816803</ele>
        <time>2020-08-30T06:03:05.804Z</time>
      </trkpt>
      <trkpt lat="60.21299" lon="17.96009">
        <ele>60.848423</ele>
        <time>2020-08-30T06:03:10.575Z</time>
      </trkpt>
      <trkpt lat="60.21287" lon="17.96045">
        <ele>60.87485</ele>
        <time>2020-08-30T06:03:14.616Z</time>
      </trkpt>
      <trkpt lat="60.21284" lon="17.96087">
        <ele>60.900761</ele>
        <time>2020-08-30T06:03:18.624Z</time>
      </trkpt>
      <trkpt lat="60.21291" lon="17.96278">
        <ele>61.17477</ele>
        <time>2020-08-30T06:03:37.572Z</time>
      </trkpt>
      <trkpt lat="60.21291" lon="17.96643">
        <ele>62.220224</ele>
        <time>2020-08-30T06:04:14.800Z</time>
      </trkpt>
      <trkpt lat="60.21286" lon="17.96678">
        <ele>62.337682</ele>
        <time>2020-08-30T06:04:18.451Z</time>
      </trkpt>
      <trkpt lat="60.21255" lon="17.9678">
        <ele>62.730507</ele>
        <time>2020-08-30T06:04:30.732Z</time>
      </trkpt>
      <trkpt lat="60.21249" lon="17.96833">
        <ele>62.90768</ele>
        <time>2020-08-30T06:04:36.336Z</time>
      </trkpt>
      <trkpt lat="60.21262" lon="17.97007">
        <ele>63.373809</ele>
        <time>2020-08-30T06:04:54.686Z</time>
      </trkpt>
      <trkpt lat="60.21262" lon="17.97062">
        <ele>63.492798</ele>
        <time>2020-08-30T06:05:00.405Z</time>
      </trkpt>
      <trkpt lat="60.21257" lon="17.971">
        <ele>63.5782</ele>
        <time>2020-08-30T06:05:04.494Z</time>
      </trkpt>
      <trkpt lat="60.21222" lon="17.972">
        <ele>63.844945</ele>
        <time>2020-08-30T06:05:16.300Z</time>
      </trkpt>
      <trkpt lat="60.21211" lon="17.97312">
        <ele>63.771674</ele>
        <time>2020-08-30T06:05:27.061Z</time>
      </trkpt>
      <trkpt lat="60.21197" lon="17.97351">
        <ele>63.65666</ele>
        <time>2020-08-30T06:05:31.274Z</time>
      </trkpt>
      <trkpt lat="60.2119" lon="17.97364">
        <ele>63.608719</ele>
        <time>2020-08-30T06:05:33.084Z</time>
      </trkpt>
      <trkpt lat="60.21181" lon="17.97382">
        <ele>63.548866</ele>
        <time>2020-08-30T06:05:35.080Z</time>
      </trkpt>
      <trkpt lat="60.21174" lon="17.97419">
        <ele>63.454095</ele>
        <time>2020-08-30T06:05:38.595Z</time>
      </trkpt>
      <trkpt lat="60.21179" lon="17.9746">
        <ele>63.351287</ele>
        <time>2020-08-30T06:05:42.083Z</time>
      </trkpt>
      <trkpt lat="60.21196" lon="17.97536">
        <ele>63.150478</ele>
        <time>2020-08-30T06:05:48.965Z</time>
      </trkpt>
      <trkpt lat="60.21263" lon="17.97739">
        <ele>61.978283</ele>
        <time>2020-08-30T06:06:08.423Z</time>
      </trkpt>
      <trkpt lat="60.21315" lon="17.97829">
        <ele>61.25359</ele>
        <time>2020-08-30T06:06:19.444Z</time>
      </trkpt>
      <trkpt lat="60.21329" lon="17.9787">
        <ele>61.056028</ele>
        <time>2020-08-30T06:06:23.371Z</time>
      </trkpt>
      <trkpt lat="60.21336" lon="17.97908">
        <ele>60.916165</ele>
        <time>2020-08-30T06:06:26.575Z</time>
      </trkpt>
      <trkpt lat="60.21338" lon="17.98018">
        <ele>60.535821</ele>
        <time>2020-08-30T06:06:35.499Z</time>
      </trkpt>
      <trkpt lat="60.21324" lon="17.98082">
        <ele>60.292842</ele>
        <time>2020-08-30T06:06:41.418Z</time>
      </trkpt>
      <trkpt lat="60.21311" lon="17.98188">
        <ele>59.929395</ele>
        <time>2020-08-30T06:06:50.960Z</time>
      </trkpt>
      <trkpt lat="60.21313" lon="17.98229">
        <ele>60.008776</ele>
        <time>2020-08-30T06:06:54.797Z</time>
      </trkpt>
      <trkpt lat="60.21317" lon="17.98254">
        <ele>60.06017</ele>
        <time>2020-08-30T06:06:57.120Z</time>
      </trkpt>
      <trkpt lat="60.21335" lon="17.98278">
        <ele>60.143722</ele>
        <time>2020-08-30T06:07:01.359Z</time>
      </trkpt>
      <trkpt lat="60.21347" lon="17.98296">
        <ele>60.203858</ele>
        <time>2020-08-30T06:07:04.206Z</time>
      </trkpt>
      <trkpt lat="60.21373" lon="17.98422">
        <ele>60.469716</ele>
        <time>2020-08-30T06:07:18.155Z</time>
      </trkpt>
      <trkpt lat="60.21397" lon="17.98483">
        <ele>60.621833</ele>
        <time>2020-08-30T06:07:26.480Z</time>
      </trkpt>
      <trkpt lat="60.21509" lon="17.98653">
        <ele>61.429358</ele>
        <time>2020-08-30T06:07:55.764Z</time>
      </trkpt>
      <trkpt lat="60.21523" lon="17.98771">
        <ele>61.621198</ele>
        <time>2020-08-30T06:08:07.519Z</time>
      </trkpt>
      <trkpt lat="60.21565" lon="17.98906">
        <ele>61.419889</ele>
        <time>2020-08-30T06:08:21.643Z</time>
      </trkpt>
      <trkpt lat="60.21615" lon="17.98987">
        <ele>61.255098</ele>
        <time>2020-08-30T06:08:32.705Z</time>
      </trkpt>
      <trkpt lat="60.21622" lon="17.99073">
        <ele>61.119793</ele>
        <time>2020-08-30T06:08:40.120Z</time>
      </trkpt>
      <trkpt lat="60.21609" lon="17.99142">
        <ele>60.990148</ele>
        <time>2020-08-30T06:08:46.450Z</time>
      </trkpt>
      <trkpt lat="60.21601" lon="17.9922">
        <ele>60.85153</ele>
        <time>2020-08-30T06:08:57.664Z</time>
      </trkpt>
      <trkpt lat="60.21593" lon="17.99266">
        <ele>60.765662</ele>
        <time>2020-08-30T06:09:04.664Z</time>
      </trkpt>
      <trkpt lat="60.21557" lon="17.99345">
        <ele>60.577995</ele>
        <time>2020-08-30T06:09:20.115Z</time>
      </trkpt>
      <trkpt lat="60.21522" lon="17.99394">
        <ele>60.623481</ele>
        <time>2020-08-30T06:09:32.844Z</time>
      </trkpt>
      <trkpt lat="60.21508" lon="17.99426">
        <ele>60.647081</ele>
        <time>2020-08-30T06:09:39.416Z</time>
      </trkpt>
      <trkpt lat="60.21496" lon="17.99486">
        <ele>60.682189</ele>
        <time>2020-08-30T06:09:49.184Z</time>
      </trkpt>
      <trkpt lat="60.21481" lon="17.99596">
        <ele>60.744353</ele>
        <time>2020-08-30T06:10:06.351Z</time>
      </trkpt>
      <trkpt lat="60.21447" lon="17.99767">
        <ele>60.542727</ele>
        <time>2020-08-30T06:10:33.877Z</time>
      </trkpt>
      <trkpt lat="60.21442" lon="17.99951">
        <ele>60.212554</ele>
        <time>2020-08-30T06:11:00.030Z</time>
      </trkpt>
      <trkpt lat="60.21429" lon="18.00144">
        <ele>59.168546</ele>
        <time>2020-08-30T06:11:26.135Z</time>
      </trkpt>
      <trkpt lat="60.21394" lon="18.00269">
        <ele>58.235588</ele>
        <time>2020-08-30T06:11:44.677Z</time>
      </trkpt>
      <trkpt lat="60.21393" lon="18.00308">
        <ele>57.978039</ele>
        <time>2020-08-30T06:11:49.747Z</time>
      </trkpt>
      <trkpt lat="60.21415" lon="18.00371">
        <ele>57.510494</ele>
        <time>2020-08-30T06:11:59.706Z</time>
      </trkpt>
      <trkpt lat="60.21469" lon="18.00469">
        <ele>56.680226</ele>
        <time>2020-08-30T06:12:18.609Z</time>
      </trkpt>
      <trkpt lat="60.21478" lon="18.00503">
        <ele>56.460449</ele>
        <time>2020-08-30T06:12:23.725Z</time>
      </trkpt>
      <trkpt lat="60.21486" lon="18.00592">
        <ele>55.940547</ele>
        <time>2020-08-30T06:12:36.017Z</time>
      </trkpt>
      <trkpt lat="60.21554" lon="18.00704">
        <ele>55.691779</ele>
        <time>2020-08-30T06:13:00.777Z</time>
      </trkpt>
      <trkpt lat="60.21575" lon="18.0075">
        <ele>55.691649</ele>
        <time>2020-08-30T06:13:10.130Z</time>
      </trkpt>
      <trkpt lat="60.216" lon="18.00843">
        <ele>55.691429</ele>
        <time>2020-08-30T06:13:26.335Z</time>
      </trkpt>
      <trkpt lat="60.21598" lon="18.00899">
        <ele>55.691311</ele>
        <time>2020-08-30T06:13:35.154Z</time>
      </trkpt>
      <trkpt lat="60.21609" lon="18.00986">
        <ele>55.921972</ele>
        <time>2020-08-30T06:13:49.299Z</time>
      </trkpt>
      <trkpt lat="60.21612" lon="18.01026">
        <ele>56.031617</ele>
        <time>2020-08-30T06:13:55.653Z</time>
      </trkpt>
      <trkpt lat="60.21613" lon="18.01047">
        <ele>56.089952</ele>
        <time>2020-08-30T06:13:59.009Z</time>
      </trkpt>
      <trkpt lat="60.21614" lon="18.0106">
        <ele>56.127536</ele>
        <time>2020-08-30T06:14:01.236Z</time>
      </trkpt>
      <trkpt lat="60.21619" lon="18.01121">
        <ele>56.294113</ele>
        <time>2020-08-30T06:14:10.842Z</time>
      </trkpt>
      <trkpt lat="60.21639" lon="18.01213">
        <ele>56.568007</ele>
        <time>2020-08-30T06:14:26.684Z</time>
      </trkpt>
      <trkpt lat="60.21675" lon="18.01424">
        <ele>56.588831</ele>
        <time>2020-08-30T06:15:00.242Z</time>
      </trkpt>
      <trkpt lat="60.21668" lon="18.01783">
        <ele>55.82697</ele>
        <time>2020-08-30T06:15:51.086Z</time>
      </trkpt>
      <trkpt lat="60.21654" lon="18.01948">
        <ele>55.20102</ele>
        <time>2020-08-30T06:16:13.696Z</time>
      </trkpt>
      <trkpt lat="60.21652" lon="18.02001">
        <ele>54.877799</ele>
        <time>2020-08-30T06:16:20.845Z</time>
      </trkpt>
      <trkpt lat="60.21658" lon="18.02046">
        <ele>54.56368</ele>
        <time>2020-08-30T06:16:26.835Z</time>
      </trkpt>
      <trkpt lat="60.21709" lon="18.02246">
        <ele>53.007521</ele>
        <time>2020-08-30T06:16:56.029Z</time>
      </trkpt>
      <trkpt lat="60.21751" lon="18.02333">
        <ele>52.292923</ele>
        <time>2020-08-30T06:17:11.801Z</time>
      </trkpt>
      <trkpt lat="60.21758" lon="18.02363">
        <ele>52.121527</ele>
        <time>2020-08-30T06:17:16.226Z</time>
      </trkpt>
      <trkpt lat="60.2177" lon="18.02492">
        <ele>51.456097</ele>
        <time>2020-08-30T06:17:33.837Z</time>
      </trkpt>
      <trkpt lat="60.21784" lon="18.02515">
        <ele>51.269523</ele>
        <time>2020-08-30T06:17:38.841Z</time>
      </trkpt>
      <trkpt lat="60.21801" lon="18.02528">
        <ele>51.080932</ele>
        <time>2020-08-30T06:17:43.927Z</time>
      </trkpt>
      <trkpt lat="60.21811" lon="18.02548">
        <ele>50.939367</ele>
        <time>2020-08-30T06:17:47.794Z</time>
      </trkpt>
      <trkpt lat="60.21822" lon="18.02602">
        <ele>50.731399</ele>
        <time>2020-08-30T06:17:55.918Z</time>
      </trkpt>
      <trkpt lat="60.21828" lon="18.02743">
        <ele>50.417694</ele>
        <time>2020-08-30T06:18:15.847Z</time>
      </trkpt>
      <trkpt lat="60.21817" lon="18.02858">
        <ele>50.156176</ele>
        <time>2020-08-30T06:18:32.693Z</time>
      </trkpt>
      <trkpt lat="60.21806" lon="18.03061">
        <ele>49.806294</ele>
        <time>2020-08-30T06:19:01.713Z</time>
      </trkpt>
      <trkpt lat="60.21789" lon="18.03216">
        <ele>49.576738</ele>
        <time>2020-08-30T06:19:24.370Z</time>
      </trkpt>
      <trkpt lat="60.2179" lon="18.03307">
        <ele>49.478412</ele>
        <time>2020-08-30T06:19:37.593Z</time>
      </trkpt>
      <trkpt lat="60.21797" lon="18.03367">
        <ele>49.490529</ele>
        <time>2020-08-30T06:19:46.601Z</time>
      </trkpt>
      <trkpt lat="60.21819" lon="18.03419">
        <ele>49.504184</ele>
        <time>2020-08-30T06:19:56.786Z</time>
      </trkpt>
      <trkpt lat="60.21849" lon="18.03461">
        <ele>49.518824</ele>
        <time>2020-08-30T06:20:07.748Z</time>
      </trkpt>
      <trkpt lat="60.21865" lon="18.03508">
        <ele>49.529939</ele>
        <time>2020-08-30T06:20:16.083Z</time>
      </trkpt>
      <trkpt lat="60.21885" lon="18.03545">
        <ele>49.540827</ele>
        <time>2020-08-30T06:20:24.287Z</time>
      </trkpt>
      <trkpt lat="60.21938" lon="18.0374">
        <ele>50.079145</ele>
        <time>2020-08-30T06:20:58.387Z</time>
      </trkpt>
      <trkpt lat="60.21942" lon="18.03783">
        <ele>50.198099</ele>
        <time>2020-08-30T06:21:05.231Z</time>
      </trkpt>
      <trkpt lat="60.21928" lon="18.03897">
        <ele>50.516197</ele>
        <time>2020-08-30T06:21:24.035Z</time>
      </trkpt>
      <trkpt lat="60.21929" lon="18.03944">
        <ele>50.796058</ele>
        <time>2020-08-30T06:21:31.888Z</time>
      </trkpt>
      <trkpt lat="60.21919" lon="18.04004">
        <ele>51.195405</ele>
        <time>2020-08-30T06:21:42.358Z</time>
      </trkpt>
      <trkpt lat="60.21904" lon="18.04064">
        <ele>51.623943</ele>
        <time>2020-08-30T06:21:53.756Z</time>
      </trkpt>
      <trkpt lat="60.21904" lon="18.04104">
        <ele>51.882692</ele>
        <time>2020-08-30T06:22:00.731Z</time>
      </trkpt>
      <trkpt lat="60.2192" lon="18.0425">
        <ele>52.832636</ele>
        <time>2020-08-30T06:22:26.142Z</time>
      </trkpt>
      <trkpt lat="60.21946" lon="18.04356">
        <ele>53.356728</ele>
        <time>2020-08-30T06:22:45.885Z</time>
      </trkpt>
      <trkpt lat="60.21949" lon="18.0439">
        <ele>53.507826</ele>
        <time>2020-08-30T06:22:51.557Z</time>
      </trkpt>
      <trkpt lat="60.21941" lon="18.04458">
        <ele>53.817397</ele>
        <time>2020-08-30T06:23:02.868Z</time>
      </trkpt>
      <trkpt lat="60.2193" lon="18.04565">
        <ele>54.303181</ele>
        <time>2020-08-30T06:23:20.129Z</time>
      </trkpt>
      <trkpt lat="60.2193" lon="18.046">
        <ele>54.449986</ele>
        <time>2020-08-30T06:23:25.571Z</time>
      </trkpt>
      <trkpt lat="60.21953" lon="18.04712">
        <ele>54.747997</ele>
        <time>2020-08-30T06:23:44.189Z</time>
      </trkpt>
      <trkpt lat="60.21967" lon="18.04829">
        <ele>55.044978</ele>
        <time>2020-08-30T06:24:02.841Z</time>
      </trkpt>
      <trkpt lat="60.21998" lon="18.04991">
        <ele>55.41297</ele>
        <time>2020-08-30T06:24:29.974Z</time>
      </trkpt>
      <trkpt lat="60.22023" lon="18.05047">
        <ele>55.517764</ele>
        <time>2020-08-30T06:24:41.787Z</time>
      </trkpt>
      <trkpt lat="60.22061" lon="18.05084">
        <ele>55.635885</ele>
        <time>2020-08-30T06:24:55.008Z</time>
      </trkpt>
      <trkpt lat="60.2214" lon="18.05236">
        <ele>55.526709</ele>
        <time>2020-08-30T06:25:27.470Z</time>
      </trkpt>
      <trkpt lat="60.22144" lon="18.05275">
        <ele>55.358964</ele>
        <time>2020-08-30T06:25:33.043Z</time>
      </trkpt>
      <trkpt lat="60.22142" lon="18.05368">
        <ele>54.967881</ele>
        <time>2020-08-30T06:25:45.680Z</time>
      </trkpt>
      <trkpt lat="60.22148" lon="18.0539">
        <ele>54.862229</ele>
        <time>2020-08-30T06:25:49.029Z</time>
      </trkpt>
      <trkpt lat="60.22186" lon="18.0544">
        <ele>54.478343</ele>
        <time>2020-08-30T06:26:01.023Z</time>
      </trkpt>
      <trkpt lat="60.22196" lon="18.05476">
        <ele>54.305799</ele>
        <time>2020-08-30T06:26:06.286Z</time>
      </trkpt>
      <trkpt lat="60.22227" lon="18.05707">
        <ele>53.055002</ele>
        <time>2020-08-30T06:26:37.721Z</time>
      </trkpt>
      <trkpt lat="60.22226" lon="18.0575">
        <ele>52.831159</ele>
        <time>2020-08-30T06:26:43.584Z</time>
      </trkpt>
      <trkpt lat="60.22217" lon="18.05803">
        <ele>52.541821</ele>
        <time>2020-08-30T06:26:51.318Z</time>
      </trkpt>
      <trkpt lat="60.22183" lon="18.05927">
        <ele>52.550508</ele>
        <time>2020-08-30T06:27:11.989Z</time>
      </trkpt>
      <trkpt lat="60.22179" lon="18.05963">
        <ele>52.586957</ele>
        <time>2020-08-30T06:27:17.544Z</time>
      </trkpt>
      <trkpt lat="60.22185" lon="18.0606">
        <ele>52.685291</ele>
        <time>2020-08-30T06:27:32.841Z</time>
      </trkpt>
      <trkpt lat="60.22191" lon="18.06094">
        <ele>52.72076</ele>
        <time>2020-08-30T06:27:38.485Z</time>
      </trkpt>
      <trkpt lat="60.22271" lon="18.06349">
        <ele>52.886755</ele>
        <time>2020-08-30T06:28:25.499Z</time>
      </trkpt>
      <trkpt lat="60.22285" lon="18.06422">
        <ele>52.919308</ele>
        <time>2020-08-30T06:28:37.188Z</time>
      </trkpt>
      <trkpt lat="60.22299" lon="18.06582">
        <ele>51.948622</ele>
        <time>2020-08-30T06:28:58.881Z</time>
      </trkpt>
      <trkpt lat="60.2233" lon="18.06766">
        <ele>50.187893</ele>
        <time>2020-08-30T06:29:23.223Z</time>
      </trkpt>
      <trkpt lat="60.22333" lon="18.0677">
        <ele>50.122629</ele>
        <time>2020-08-30T06:29:24.004Z</time>
      </trkpt>
      <trkpt lat="60.22342" lon="18.06787">
        <ele>49.888669</ele>
        <time>2020-08-30T06:29:27.019Z</time>
      </trkpt>
      <trkpt lat="60.22372" lon="18.06813">
        <ele>49.164858</ele>
        <time>2020-08-30T06:29:34.898Z</time>
      </trkpt>
      <trkpt lat="60.2239" lon="18.06846">
        <ele>48.557943</ele>
        <time>2020-08-30T06:29:40.946Z</time>
      </trkpt>
      <trkpt lat="60.2242" lon="18.06948">
        <ele>47.085094</ele>
        <time>2020-08-30T06:29:55.054Z</time>
      </trkpt>
      <trkpt lat="60.22436" lon="18.0704">
        <ele>45.877334</ele>
        <time>2020-08-30T06:30:06.842Z</time>
      </trkpt>
      <trkpt lat="60.22452" lon="18.07074">
        <ele>45.300902</ele>
        <time>2020-08-30T06:30:12.727Z</time>
      </trkpt>
      <trkpt lat="60.22485" lon="18.07105">
        <ele>44.77515</ele>
        <time>2020-08-30T06:30:21.999Z</time>
      </trkpt>
      <trkpt lat="60.22505" lon="18.07115">
        <ele>44.511898</ele>
        <time>2020-08-30T06:30:27.409Z</time>
      </trkpt>
      <trkpt lat="60.22785" lon="18.07033">
        <ele>41.566407</ele>
        <time>2020-08-30T06:31:44.062Z</time>
      </trkpt>
      <trkpt lat="60.2288" lon="18.07124">
        <ele>41.631467</ele>
        <time>2020-08-30T06:32:14.613Z</time>
      </trkpt>
      <trkpt lat="60.2289" lon="18.07143">
        <ele>41.681383</ele>
        <time>2020-08-30T06:32:19.045Z</time>
      </trkpt>
      <trkpt lat="60.22896" lon="18.07183">
        <ele>41.754625</ele>
        <time>2020-08-30T06:32:25.612Z</time>
      </trkpt>
      <trkpt lat="60.2289" lon="18.07223">
        <ele>41.826272</ele>
        <time>2020-08-30T06:32:32.202Z</time>
      </trkpt>
      <trkpt lat="60.22859" lon="18.07288">
        <ele>41.986227</ele>
        <time>2020-08-30T06:32:46.997Z</time>
      </trkpt>
      <trkpt lat="60.22821" lon="18.07452">
        <ele>43.033373</ele>
        <time>2020-08-30T06:33:17.575Z</time>
      </trkpt>
      <trkpt lat="60.22815" lon="18.07506">
        <ele>43.352552</ele>
        <time>2020-08-30T06:33:26.963Z</time>
      </trkpt>
      <trkpt lat="60.22821" lon="18.07556">
        <ele>43.649826</ele>
        <time>2020-08-30T06:33:35.610Z</time>
      </trkpt>
      <trkpt lat="60.22851" lon="18.07674">
        <ele>44.072583</ele>
        <time>2020-08-30T06:33:57.320Z</time>
      </trkpt>
      <trkpt lat="60.22875" lon="18.07734">
        <ele>44.05664</ele>
        <time>2020-08-30T06:34:09.072Z</time>
      </trkpt>
      <trkpt lat="60.22982" lon="18.07914">
        <ele>43.934029</ele>
        <time>2020-08-30T06:34:48.493Z</time>
      </trkpt>
      <trkpt lat="60.23002" lon="18.08019">
        <ele>43.774023</ele>
        <time>2020-08-30T06:35:04.036Z</time>
      </trkpt>
      <trkpt lat="60.23012" lon="18.08047">
        <ele>43.725328</ele>
        <time>2020-08-30T06:35:08.823Z</time>
      </trkpt>
      <trkpt lat="60.2312" lon="18.0831">
        <ele>44.107393</ele>
        <time>2020-08-30T06:35:59.814Z</time>
      </trkpt>
      <trkpt lat="60.232" lon="18.08431">
        <ele>44.860786</ele>
        <time>2020-08-30T06:36:33.310Z</time>
      </trkpt>
      <trkpt lat="60.23223" lon="18.08485">
        <ele>45.373397</ele>
        <time>2020-08-30T06:36:45.607Z</time>
      </trkpt>
      <trkpt lat="60.23237" lon="18.08536">
        <ele>45.776734</ele>
        <time>2020-08-30T06:36:55.353Z</time>
      </trkpt>
      <trkpt lat="60.23248" lon="18.08617">
        <ele>46.3794</ele>
        <time>2020-08-30T06:37:09.958Z</time>
      </trkpt>
      <trkpt lat="60.2326" lon="18.08644">
        <ele>46.633125</ele>
        <time>2020-08-30T06:37:16.098Z</time>
      </trkpt>
      <trkpt lat="60.23311" lon="18.08701">
        <ele>47.394044</ele>
        <time>2020-08-30T06:37:36.245Z</time>
      </trkpt>
      <trkpt lat="60.23344" lon="18.0875">
        <ele>47.7086</ele>
        <time>2020-08-30T06:37:50.276Z</time>
      </trkpt>
      <trkpt lat="60.2337" lon="18.08769">
        <ele>47.920977</ele>
        <time>2020-08-30T06:37:59.518Z</time>
      </trkpt>
      <trkpt lat="60.23391" lon="18.08772">
        <ele>48.079552</ele>
        <time>2020-08-30T06:38:06.288Z</time>
      </trkpt>
      <trkpt lat="60.23464" lon="18.0873">
        <ele>48.663548</ele>
        <time>2020-08-30T06:38:29.805Z</time>
      </trkpt>
      <trkpt lat="60.23497" lon="18.08731">
        <ele>48.454947</ele>
        <time>2020-08-30T06:38:39.318Z</time>
      </trkpt>
      <trkpt lat="60.23548" lon="18.08717">
        <ele>48.064218</ele>
        <time>2020-08-30T06:38:53.845Z</time>
      </trkpt>
      <trkpt lat="60.23593" lon="18.08721">
        <ele>47.721063</ele>
        <time>2020-08-30T06:39:06.156Z</time>
      </trkpt>
      <trkpt lat="60.23641" lon="18.08743">
        <ele>47.346946</ele>
        <time>2020-08-30T06:39:19.234Z</time>
      </trkpt>
      <trkpt lat="60.2367" lon="18.08768">
        <ele>46.75316</ele>
        <time>2020-08-30T06:39:27.562Z</time>
      </trkpt>
      <trkpt lat="60.2372" lon="18.0886">
        <ele>45.401873</ele>
        <time>2020-08-30T06:39:44.733Z</time>
      </trkpt>
      <trkpt lat="60.23737" lon="18.08865">
        <ele>45.065969</ele>
        <time>2020-08-30T06:39:48.945Z</time>
      </trkpt>
      <trkpt lat="60.23794" lon="18.0883">
        <ele>43.86425</ele>
        <time>2020-08-30T06:40:03.881Z</time>
      </trkpt>
      <trkpt lat="60.23818" lon="18.08851">
        <ele>43.1972</ele>
        <time>2020-08-30T06:40:10.154Z</time>
      </trkpt>
      <trkpt lat="60.23869" lon="18.08954">
        <ele>41.130321</ele>
        <time>2020-08-30T06:40:27.418Z</time>
      </trkpt>
      <trkpt lat="60.23905" lon="18.09002">
        <ele>39.874489</ele>
        <time>2020-08-30T06:40:37.680Z</time>
      </trkpt>
      <trkpt lat="60.23976" lon="18.09054">
        <ele>38.203166</ele>
        <time>2020-08-30T06:40:55.942Z</time>
      </trkpt>
      <trkpt lat="60.24008" lon="18.0907">
        <ele>37.795916</ele>
        <time>2020-08-30T06:41:04.213Z</time>
      </trkpt>
      <trkpt lat="60.24004" lon="18.09195">
        <ele>37.022116</ele>
        <time>2020-08-30T06:41:20.840Z</time>
      </trkpt>
      <trkpt lat="60.23994" lon="18.09292">
        <ele>36.415895</ele>
        <time>2020-08-30T06:41:34.911Z</time>
      </trkpt>
      <trkpt lat="60.23972" lon="18.09389">
        <ele>36.875264</ele>
        <time>2020-08-30T06:41:51.932Z</time>
      </trkpt>
      <trkpt lat="60.23881" lon="18.09533">
        <ele>38.171919</ele>
        <time>2020-08-30T06:42:32.032Z</time>
      </trkpt>
      <trkpt lat="60.23835" lon="18.09636">
        <ele>38.694067</ele>
        <time>2020-08-30T06:42:55.330Z</time>
      </trkpt>
      <trkpt lat="60.23811" lon="18.09756">
        <ele>39.101498</ele>
        <time>2020-08-30T06:43:16.099Z</time>
      </trkpt>
      <trkpt lat="60.23775" lon="18.09845">
        <ele>39.463339</ele>
        <time>2020-08-30T06:43:33.418Z</time>
      </trkpt>
      <trkpt lat="60.23728" lon="18.09886">
        <ele>39.072945</ele>
        <time>2020-08-30T06:43:48.065Z</time>
      </trkpt>
      <trkpt lat="60.23631" lon="18.09907">
        <ele>38.12986</ele>
        <time>2020-08-30T06:44:14.145Z</time>
      </trkpt>
      <trkpt lat="60.23594" lon="18.09929">
        <ele>37.761329</ele>
        <time>2020-08-30T06:44:24.090Z</time>
      </trkpt>
      <trkpt lat="60.23529" lon="18.1003">
        <ele>36.73064</ele>
        <time>2020-08-30T06:44:45.627Z</time>
      </trkpt>
      <trkpt lat="60.23521" lon="18.10073">
        <ele>36.441943</ele>
        <time>2020-08-30T06:44:51.714Z</time>
      </trkpt>
      <trkpt lat="60.23511" lon="18.10279">
        <ele>35.136867</ele>
        <time>2020-08-30T06:45:19.359Z</time>
      </trkpt>
      <trkpt lat="60.23514" lon="18.10323">
        <ele>34.848035</ele>
        <time>2020-08-30T06:45:25.396Z</time>
      </trkpt>
      <trkpt lat="60.23554" lon="18.10549">
        <ele>33.289862</ele>
        <time>2020-08-30T06:45:57.134Z</time>
      </trkpt>
      <trkpt lat="60.2356" lon="18.10683">
        <ele>31.991778</ele>
        <time>2020-08-30T06:46:13.960Z</time>
      </trkpt>
      <trkpt lat="60.23556" lon="18.10818">
        <ele>30.606129</ele>
        <time>2020-08-30T06:46:30.363Z</time>
      </trkpt>
      <trkpt lat="60.23545" lon="18.10952">
        <ele>29.510458</ele>
        <time>2020-08-30T06:46:47.232Z</time>
      </trkpt>
      <trkpt lat="60.23541" lon="18.11072">
        <ele>29.869608</ele>
        <time>2020-08-30T06:47:03.519Z</time>
      </trkpt>
      <trkpt lat="60.23541" lon="18.11072">
        <ele>29.869608</ele>
        <time>2020-08-30T06:47:03.528Z</time>
      </trkpt>
      <trkpt lat="60.23541" lon="18.11072">
        <ele>29.869608</ele>
        <time>2020-08-30T06:47:03.610Z</time>
      </trkpt>
      <trkpt lat="60.2354" lon="18.11156">
        <ele>30.120208</ele>
        <time>2020-08-30T06:47:11.845Z</time>
      </trkpt>
      <trkpt lat="60.23534" lon="18.11343">
        <ele>31.442406</ele>
        <time>2020-08-30T06:47:36.502Z</time>
      </trkpt>
      <trkpt lat="60.23539" lon="18.11547">
        <ele>35.096766</ele>
        <time>2020-08-30T06:48:09.761Z</time>
      </trkpt>
      <trkpt lat="60.23543" lon="18.11645">
        <ele>36.854117</ele>
        <time>2020-08-30T06:48:24.745Z</time>
      </trkpt>
      <trkpt lat="60.23549" lon="18.11748">
        <ele>37.461003</ele>
        <time>2020-08-30T06:48:44.430Z</time>
      </trkpt>
      <trkpt lat="60.2357" lon="18.11928">
        <ele>38.348274</ele>
        <time>2020-08-30T06:49:15.157Z</time>
      </trkpt>
      <trkpt lat="60.23576" lon="18.12057">
        <ele>38.284912</ele>
        <time>2020-08-30T06:49:31.833Z</time>
      </trkpt>
      <trkpt lat="60.2357" lon="18.1212">
        <ele>37.675289</ele>
        <time>2020-08-30T06:49:39.869Z</time>
      </trkpt>
      <trkpt lat="60.23548" lon="18.12245">
        <ele>36.399805</ele>
        <time>2020-08-30T06:49:56.515Z</time>
      </trkpt>
      <trkpt lat="60.23522" lon="18.1257">
        <ele>32.844684</ele>
        <time>2020-08-30T06:50:37.157Z</time>
      </trkpt>
      <trkpt lat="60.235" lon="18.12704">
        <ele>31.224601</ele>
        <time>2020-08-30T06:50:54.733Z</time>
      </trkpt>
      <trkpt lat="60.23503" lon="18.12739">
        <ele>30.719146</ele>
        <time>2020-08-30T06:50:59.069Z</time>
      </trkpt>
      <trkpt lat="60.23514" lon="18.12769">
        <ele>30.163039</ele>
        <time>2020-08-30T06:51:03.405Z</time>
      </trkpt>
      <trkpt lat="60.23576" lon="18.1283">
        <ele>28.055991</ele>
        <time>2020-08-30T06:51:19.904Z</time>
      </trkpt>
      <trkpt lat="60.23613" lon="18.12893">
        <ele>26.584635</ele>
        <time>2020-08-30T06:51:31.431Z</time>
      </trkpt>
      <trkpt lat="60.23619" lon="18.129">
        <ele>26.372684</ele>
        <time>2020-08-30T06:51:33.062Z</time>
      </trkpt>
      <trkpt lat="60.23617" lon="18.12922">
        <ele>26.028297</ele>
        <time>2020-08-30T06:51:34.539Z</time>
      </trkpt>
      <trkpt lat="60.23617" lon="18.1306">
        <ele>23.76526</ele>
        <time>2020-08-30T06:51:43.841Z</time>
      </trkpt>
      <trkpt lat="60.23626" lon="18.1328">
        <ele>20.090178</ele>
        <time>2020-08-30T06:51:58.587Z</time>
      </trkpt>
      <trkpt lat="60.23643" lon="18.13519">
        <ele>17.496479</ele>
        <time>2020-08-30T06:52:15.695Z</time>
      </trkpt>
      <trkpt lat="60.23718" lon="18.13918">
        <ele>14.817745</ele>
        <time>2020-08-30T06:52:49.784Z</time>
      </trkpt>
      <trkpt lat="60.23805" lon="18.14301">
        <ele>14.069648</ele>
        <time>2020-08-30T06:53:27.280Z</time>
      </trkpt>
      <trkpt lat="60.23867" lon="18.14508">
        <ele>14.092949</ele>
        <time>2020-08-30T06:53:49.476Z</time>
      </trkpt>
      <trkpt lat="60.23887" lon="18.14559">
        <ele>14.109648</ele>
        <time>2020-08-30T06:53:55.615Z</time>
      </trkpt>
      <trkpt lat="60.23925" lon="18.14575">
        <ele>14.129156</ele>
        <time>2020-08-30T06:54:02.835Z</time>
      </trkpt>
      <trkpt lat="60.23987" lon="18.1465">
        <ele>14.486693</ele>
        <time>2020-08-30T06:54:17.000Z</time>
      </trkpt>
      <trkpt lat="60.24054" lon="18.14774">
        <ele>14.946874</ele>
        <time>2020-08-30T06:54:35.608Z</time>
      </trkpt>
      <trkpt lat="60.24097" lon="18.1489">
        <ele>15.614241</ele>
        <time>2020-08-30T06:54:51.136Z</time>
      </trkpt>
      <trkpt lat="60.24125" lon="18.14919">
        <ele>15.9528</ele>
        <time>2020-08-30T06:54:58.125Z</time>
      </trkpt>
      <trkpt lat="60.24186" lon="18.14944">
        <ele>16.622596</ele>
        <time>2020-08-30T06:55:12.137Z</time>
      </trkpt>
      <trkpt lat="60.24235" lon="18.14943">
        <ele>17.104261</ele>
        <time>2020-08-30T06:55:23.284Z</time>
      </trkpt>
      <trkpt lat="60.24274" lon="18.14959">
        <ele>17.410015</ele>
        <time>2020-08-30T06:55:32.077Z</time>
      </trkpt>
      <trkpt lat="60.2438" lon="18.14952">
        <ele>18.220919</ele>
        <time>2020-08-30T06:55:53.915Z</time>
      </trkpt>
      <trkpt lat="60.24425" lon="18.14964">
        <ele>18.477432</ele>
        <time>2020-08-30T06:56:02.859Z</time>
      </trkpt>
      <trkpt lat="60.24468" lon="18.15018">
        <ele>18.702827</ele>
        <time>2020-08-30T06:56:12.861Z</time>
      </trkpt>
      <trkpt lat="60.24513" lon="18.15059">
        <ele>18.921167</ele>
        <time>2020-08-30T06:56:22.601Z</time>
      </trkpt>
      <trkpt lat="60.2453" lon="18.15173">
        <ele>19.190317</ele>
        <time>2020-08-30T06:56:34.400Z</time>
      </trkpt>
      <trkpt lat="60.24541" lon="18.1518">
        <ele>19.25458</ele>
        <time>2020-08-30T06:56:36.811Z</time>
      </trkpt>
      <trkpt lat="60.24582" lon="18.15161">
        <ele>19.486908</ele>
        <time>2020-08-30T06:56:45.637Z</time>
      </trkpt>
      <trkpt lat="60.24657" lon="18.15101">
        <ele>19.92823</ele>
        <time>2020-08-30T06:57:02.558Z</time>
      </trkpt>
      <trkpt lat="60.24687" lon="18.15095">
        <ele>20.093287</ele>
        <time>2020-08-30T06:57:08.372Z</time>
      </trkpt>
      <trkpt lat="60.24696" lon="18.15097">
        <ele>20.138451</ele>
        <time>2020-08-30T06:57:10.604Z</time>
      </trkpt>
      <trkpt lat="60.24692" lon="18.15119">
        <ele>20.123488</ele>
        <time>2020-08-30T06:57:12.481Z</time>
      </trkpt>
      <trkpt lat="60.24676" lon="18.15435">
        <ele>19.920961</ele>
        <time>2020-08-30T06:57:40.053Z</time>
      </trkpt>
      <trkpt lat="60.24677" lon="18.15643">
        <ele>19.217294</ele>
        <time>2020-08-30T06:57:56.607Z</time>
      </trkpt>
      <trkpt lat="60.24668" lon="18.15956">
        <ele>18.351462</ele>
        <time>2020-08-30T06:58:21.032Z</time>
      </trkpt>
      <trkpt lat="60.24661" lon="18.16017">
        <ele>18.249079</ele>
        <time>2020-08-30T06:58:26.179Z</time>
      </trkpt>
      <trkpt lat="60.24645" lon="18.16108">
        <ele>18.089958</ele>
        <time>2020-08-30T06:58:34.606Z</time>
      </trkpt>
      <trkpt lat="60.24631" lon="18.1615">
        <ele>18.007013</ele>
        <time>2020-08-30T06:58:39.266Z</time>
      </trkpt>
      <trkpt lat="60.24566" lon="18.16302">
        <ele>18.75953</ele>
        <time>2020-08-30T06:58:59.224Z</time>
      </trkpt>
      <trkpt lat="60.24537" lon="18.16388">
        <ele>19.189421</ele>
        <time>2020-08-30T06:59:10.240Z</time>
      </trkpt>
      <trkpt lat="60.24507" lon="18.16536">
        <ele>19.869065</ele>
        <time>2020-08-30T06:59:27.265Z</time>
      </trkpt>
      <trkpt lat="60.245" lon="18.16598">
        <ele>20.141791</ele>
        <time>2020-08-30T06:59:33.829Z</time>
      </trkpt>
      <trkpt lat="60.24503" lon="18.16632">
        <ele>20.289263</ele>
        <time>2020-08-30T06:59:37.327Z</time>
      </trkpt>
      <trkpt lat="60.2452" lon="18.16691">
        <ele>20.583552</ele>
        <time>2020-08-30T06:59:44.207Z</time>
      </trkpt>
      <trkpt lat="60.24526" lon="18.16757">
        <ele>20.871228</ele>
        <time>2020-08-30T06:59:50.985Z</time>
      </trkpt>
      <trkpt lat="60.24522" lon="18.16816">
        <ele>21.107613</ele>
        <time>2020-08-30T06:59:56.972Z</time>
      </trkpt>
      <trkpt lat="60.24496" lon="18.16942">
        <ele>21.553504</ele>
        <time>2020-08-30T07:00:10.461Z</time>
      </trkpt>
      <trkpt lat="60.24483" lon="18.1697">
        <ele>21.67825</ele>
        <time>2020-08-30T07:00:14.194Z</time>
      </trkpt>
      <trkpt lat="60.24472" lon="18.16991">
        <ele>21.779423</ele>
        <time>2020-08-30T07:00:17.184Z</time>
      </trkpt>
      <trkpt lat="60.24442" lon="18.17069">
        <ele>22.097577</ele>
        <time>2020-08-30T07:00:26.750Z</time>
      </trkpt>
      <trkpt lat="60.24436" lon="18.17126">
        <ele>22.33894</ele>
        <time>2020-08-30T07:00:32.475Z</time>
      </trkpt>
      <trkpt lat="60.24437" lon="18.17147">
        <ele>22.4728</ele>
        <time>2020-08-30T07:00:34.760Z</time>
      </trkpt>
      <trkpt lat="60.24439" lon="18.17189">
        <ele>22.730759</ele>
        <time>2020-08-30T07:00:38.957Z</time>
      </trkpt>
      <trkpt lat="60.24436" lon="18.17232">
        <ele>23.002005</ele>
        <time>2020-08-30T07:00:43.572Z</time>
      </trkpt>
      <trkpt lat="60.24428" lon="18.1725">
        <ele>23.146538</ele>
        <time>2020-08-30T07:00:46.037Z</time>
      </trkpt>
      <trkpt lat="60.24415" lon="18.17262">
        <ele>23.333943</ele>
        <time>2020-08-30T07:00:49.312Z</time>
      </trkpt>
      <trkpt lat="60.24392" lon="18.17271">
        <ele>23.626053</ele>
        <time>2020-08-30T07:00:54.271Z</time>
      </trkpt>
      <trkpt lat="60.24319" lon="18.17274">
        <ele>24.581345</ele>
        <time>2020-08-30T07:01:10.873Z</time>
      </trkpt>
      <trkpt lat="60.2428" lon="18.17376">
        <ele>26.048238</ele>
        <time>2020-08-30T07:01:26.784Z</time>
      </trkpt>
      <trkpt lat="60.24186" lon="18.17519">
        <ele>28.697097</ele>
        <time>2020-08-30T07:01:57.568Z</time>
      </trkpt>
      <trkpt lat="60.24047" lon="18.17599">
        <ele>31.056563</ele>
        <time>2020-08-30T07:02:32.233Z</time>
      </trkpt>
      <trkpt lat="60.24001" lon="18.17639">
        <ele>31.251611</ele>
        <time>2020-08-30T07:02:41.831Z</time>
      </trkpt>
      <trkpt lat="60.23981" lon="18.17684">
        <ele>30.88467</ele>
        <time>2020-08-30T07:02:46.934Z</time>
      </trkpt>
      <trkpt lat="60.23948" lon="18.17797">
        <ele>30.082775</ele>
        <time>2020-08-30T07:02:56.821Z</time>
      </trkpt>
      <trkpt lat="60.23924" lon="18.17841">
        <ele>29.683093</ele>
        <time>2020-08-30T07:03:01.330Z</time>
      </trkpt>
      <trkpt lat="60.23859" lon="18.17924">
        <ele>27.921007</ele>
        <time>2020-08-30T07:03:11.559Z</time>
      </trkpt>
      <trkpt lat="60.23837" lon="18.17963">
        <ele>27.044138</ele>
        <time>2020-08-30T07:03:15.369Z</time>
      </trkpt>
      <trkpt lat="60.23779" lon="18.18119">
        <ele>24.141504</ele>
        <time>2020-08-30T07:03:28.025Z</time>
      </trkpt>
      <trkpt lat="60.23769" lon="18.18177">
        <ele>23.418535</ele>
        <time>2020-08-30T07:03:32.153Z</time>
      </trkpt>
      <trkpt lat="60.23766" lon="18.18221">
        <ele>22.960511</ele>
        <time>2020-08-30T07:03:35.084Z</time>
      </trkpt>
      <trkpt lat="60.23763" lon="18.18339">
        <ele>21.721644</ele>
        <time>2020-08-30T07:03:43.248Z</time>
      </trkpt>
      <trkpt lat="60.23767" lon="18.18425">
        <ele>20.81221</ele>
        <time>2020-08-30T07:03:49.457Z</time>
      </trkpt>
      <trkpt lat="60.23764" lon="18.18452">
        <ele>20.517046</ele>
        <time>2020-08-30T07:03:51.512Z</time>
      </trkpt>
      <trkpt lat="60.23749" lon="18.18492">
        <ele>20.047511</ele>
        <time>2020-08-30T07:03:55.181Z</time>
      </trkpt>
      <trkpt lat="60.23694" lon="18.18532">
        <ele>19.400977</ele>
        <time>2020-08-30T07:04:03.906Z</time>
      </trkpt>
      <trkpt lat="60.23657" lon="18.186">
        <ele>18.840718</ele>
        <time>2020-08-30T07:04:11.609Z</time>
      </trkpt>
      <trkpt lat="60.23643" lon="18.18609">
        <ele>18.680812</ele>
        <time>2020-08-30T07:04:13.834Z</time>
      </trkpt>
      <trkpt lat="60.23572" lon="18.18612">
        <ele>18.205759</ele>
        <time>2020-08-30T07:04:25.041Z</time>
      </trkpt>
      <trkpt lat="60.2353" lon="18.18641">
        <ele>18.425401</ele>
        <time>2020-08-30T07:04:32.306Z</time>
      </trkpt>
      <trkpt lat="60.23477" lon="18.18657">
        <ele>18.684584</ele>
        <time>2020-08-30T07:04:42.340Z</time>
      </trkpt>
      <trkpt lat="60.23453" lon="18.18697">
        <ele>18.838473</ele>
        <time>2020-08-30T07:04:49.297Z</time>
      </trkpt>
      <trkpt lat="60.23401" lon="18.18844">
        <ele>20.453712</ele>
        <time>2020-08-30T07:05:10.752Z</time>
      </trkpt>
      <trkpt lat="60.23394" lon="18.18851">
        <ele>20.656658</ele>
        <time>2020-08-30T07:05:13.019Z</time>
      </trkpt>
      <trkpt lat="60.23387" lon="18.18851">
        <ele>20.842604</ele>
        <time>2020-08-30T07:05:15.385Z</time>
      </trkpt>
      <trkpt lat="60.23304" lon="18.18766">
        <ele>23.17256</ele>
        <time>2020-08-30T07:05:40.412Z</time>
      </trkpt>
      <trkpt lat="60.23203" lon="18.18707">
        <ele>25.063458</ele>
        <time>2020-08-30T07:06:07.890Z</time>
      </trkpt>
      <trkpt lat="60.2313" lon="18.18648">
        <ele>26.410068</ele>
        <time>2020-08-30T07:06:24.494Z</time>
      </trkpt>
      <trkpt lat="60.23114" lon="18.18629">
        <ele>26.519368</ele>
        <time>2020-08-30T07:06:28.282Z</time>
      </trkpt>
      <trkpt lat="60.23101" lon="18.18615">
        <ele>26.445738</ele>
        <time>2020-08-30T07:06:30.637Z</time>
      </trkpt>
      <trkpt lat="60.23057" lon="18.18586">
        <ele>26.19701</ele>
        <time>2020-08-30T07:06:38.866Z</time>
      </trkpt>
      <trkpt lat="60.23023" lon="18.18594">
        <ele>26.016022</ele>
        <time>2020-08-30T07:06:44.395Z</time>
      </trkpt>
      <trkpt lat="60.22956" lon="18.18664">
        <ele>25.612736</ele>
        <time>2020-08-30T07:06:56.091Z</time>
      </trkpt>
      <trkpt lat="60.22816" lon="18.18757">
        <ele>22.298688</ele>
        <time>2020-08-30T07:07:16.687Z</time>
      </trkpt>
      <trkpt lat="60.22755" lon="18.18797">
        <ele>20.67248</ele>
        <time>2020-08-30T07:07:25.176Z</time>
      </trkpt>
      <trkpt lat="60.22741" lon="18.18805">
        <ele>20.287882</ele>
        <time>2020-08-30T07:07:26.910Z</time>
      </trkpt>
      <trkpt lat="60.22634" lon="18.18881">
        <ele>17.118153</ele>
        <time>2020-08-30T07:07:41.973Z</time>
      </trkpt>
      <trkpt lat="60.22604" lon="18.18902">
        <ele>16.44832</ele>
        <time>2020-08-30T07:07:46.254Z</time>
      </trkpt>
      <trkpt lat="60.22427" lon="18.19063">
        <ele>14.752036</ele>
        <time>2020-08-30T07:08:17.348Z</time>
      </trkpt>
      <trkpt lat="60.22347" lon="18.19137">
        <ele>14.701273</ele>
        <time>2020-08-30T07:08:33.070Z</time>
      </trkpt>
      <trkpt lat="60.22282" lon="18.19197">
        <ele>14.687998</ele>
        <time>2020-08-30T07:08:46.070Z</time>
      </trkpt>
      <trkpt lat="60.2202" lon="18.19435">
        <ele>16.755969</ele>
        <time>2020-08-30T07:09:41.854Z</time>
      </trkpt>
      <trkpt lat="60.2181" lon="18.1963">
        <ele>20.619591</ele>
        <time>2020-08-30T07:10:39.861Z</time>
      </trkpt>
      <trkpt lat="60.21612" lon="18.19807">
        <ele>20.909862</ele>
        <time>2020-08-30T07:11:19.712Z</time>
      </trkpt>
      <trkpt lat="60.21586" lon="18.19828">
        <ele>20.363025</ele>
        <time>2020-08-30T07:11:24.013Z</time>
      </trkpt>
      <trkpt lat="60.2159" lon="18.19849">
        <ele>20.140776</ele>
        <time>2020-08-30T07:11:25.526Z</time>
      </trkpt>
      <trkpt lat="60.21642" lon="18.20119">
        <ele>17.494295</ele>
        <time>2020-08-30T07:11:44.789Z</time>
      </trkpt>
      <trkpt lat="60.21652" lon="18.20192">
        <ele>16.992064</ele>
        <time>2020-08-30T07:11:50.067Z</time>
      </trkpt>
      <trkpt lat="60.21658" lon="18.20256">
        <ele>16.565773</ele>
        <time>2020-08-30T07:11:54.794Z</time>
      </trkpt>
      <trkpt lat="60.2166" lon="18.20282">
        <ele>16.393107</ele>
        <time>2020-08-30T07:11:56.693Z</time>
      </trkpt>
      <trkpt lat="60.21664" lon="18.20338">
        <ele>16.020483</ele>
        <time>2020-08-30T07:12:01.367Z</time>
      </trkpt>
      <trkpt lat="60.21665" lon="18.20384">
        <ele>15.716073</ele>
        <time>2020-08-30T07:12:05.341Z</time>
      </trkpt>
      <trkpt lat="60.21664" lon="18.20443">
        <ele>15.502782</ele>
        <time>2020-08-30T07:12:10.220Z</time>
      </trkpt>
      <trkpt lat="60.21664" lon="18.20464">
        <ele>15.606728</ele>
        <time>2020-08-30T07:12:12.547Z</time>
      </trkpt>
      <trkpt lat="60.21662" lon="18.20516">
        <ele>15.860704</ele>
        <time>2020-08-30T07:12:17.043Z</time>
      </trkpt>
      <trkpt lat="60.2166" lon="18.20585">
        <ele>16.200434</ele>
        <time>2020-08-30T07:12:23.987Z</time>
      </trkpt>
      <trkpt lat="60.21658" lon="18.20633">
        <ele>16.432032</ele>
        <time>2020-08-30T07:12:29.142Z</time>
      </trkpt>
      <trkpt lat="60.21657" lon="18.20652">
        <ele>16.529569</ele>
        <time>2020-08-30T07:12:30.959Z</time>
      </trkpt>
      <trkpt lat="60.21657" lon="18.2066">
        <ele>16.565826</ele>
        <time>2020-08-30T07:12:31.626Z</time>
      </trkpt>
      <trkpt lat="60.21657" lon="18.20665">
        <ele>16.592806</ele>
        <time>2020-08-30T07:12:32.382Z</time>
      </trkpt>
      <trkpt lat="60.21648" lon="18.20867">
        <ele>17.518496</ele>
        <time>2020-08-30T07:12:56.785Z</time>
      </trkpt>
      <trkpt lat="60.21648" lon="18.20916">
        <ele>17.717402</ele>
        <time>2020-08-30T07:13:02.480Z</time>
      </trkpt>
      <trkpt lat="60.21651" lon="18.20962">
        <ele>17.902493</ele>
        <time>2020-08-30T07:13:06.865Z</time>
      </trkpt>
      <trkpt lat="60.2166" lon="18.21038">
        <ele>18.222456</ele>
        <time>2020-08-30T07:13:14.285Z</time>
      </trkpt>
      <trkpt lat="60.21664" lon="18.21068">
        <ele>18.350391</ele>
        <time>2020-08-30T07:13:17.514Z</time>
      </trkpt>
      <trkpt lat="60.21673" lon="18.21112">
        <ele>18.539233</ele>
        <time>2020-08-30T07:13:21.513Z</time>
      </trkpt>
      <trkpt lat="60.21685" lon="18.21158">
        <ele>18.552767</ele>
        <time>2020-08-30T07:13:26.222Z</time>
      </trkpt>
      <trkpt lat="60.21698" lon="18.21197">
        <ele>18.297633</ele>
        <time>2020-08-30T07:13:30.598Z</time>
      </trkpt>
      <trkpt lat="60.21713" lon="18.21241">
        <ele>17.99933</ele>
        <time>2020-08-30T07:13:35.051Z</time>
      </trkpt>
      <trkpt lat="60.21785" lon="18.21395">
        <ele>16.83926</ele>
        <time>2020-08-30T07:13:50.419Z</time>
      </trkpt>
      <trkpt lat="60.21829" lon="18.21495">
        <ele>15.962852</ele>
        <time>2020-08-30T07:13:59.660Z</time>
      </trkpt>
      <trkpt lat="60.2186" lon="18.21569">
        <ele>15.299537</ele>
        <time>2020-08-30T07:14:06.579Z</time>
      </trkpt>
      <trkpt lat="60.21901" lon="18.21704">
        <ele>14.21281</ele>
        <time>2020-08-30T07:14:18.409Z</time>
      </trkpt>
      <trkpt lat="60.22004" lon="18.22275">
        <ele>15.866658</ele>
        <time>2020-08-30T07:15:17.097Z</time>
      </trkpt>
      <trkpt lat="60.2202" lon="18.2237">
        <ele>16.34726</ele>
        <time>2020-08-30T07:15:28.487Z</time>
      </trkpt>
      <trkpt lat="60.22012" lon="18.22379">
        <ele>16.435888</ele>
        <time>2020-08-30T07:15:31.325Z</time>
      </trkpt>
      <trkpt lat="60.21958" lon="18.22482">
        <ele>17.351956</ele>
        <time>2020-08-30T07:15:48.916Z</time>
      </trkpt>
      <trkpt lat="60.21942" lon="18.22495">
        <ele>17.569641</ele>
        <time>2020-08-30T07:15:52.572Z</time>
      </trkpt>
      <trkpt lat="60.21875" lon="18.22466">
        <ele>18.413841</ele>
        <time>2020-08-30T07:16:07.786Z</time>
      </trkpt>
      <trkpt lat="60.21835" lon="18.22437">
        <ele>18.602629</ele>
        <time>2020-08-30T07:16:15.410Z</time>
      </trkpt>
      <trkpt lat="60.21808" lon="18.22443">
        <ele>18.543323</ele>
        <time>2020-08-30T07:16:20.013Z</time>
      </trkpt>
      <trkpt lat="60.2176" lon="18.22502">
        <ele>18.417655</ele>
        <time>2020-08-30T07:16:29.491Z</time>
      </trkpt>
      <trkpt lat="60.2168" lon="18.22551">
        <ele>18.213964</ele>
        <time>2020-08-30T07:16:43.142Z</time>
      </trkpt>
      <trkpt lat="60.21581" lon="18.2267">
        <ele>17.746846</ele>
        <time>2020-08-30T07:17:02.354Z</time>
      </trkpt>
      <trkpt lat="60.2156" lon="18.22681">
        <ele>17.65795</ele>
        <time>2020-08-30T07:17:06.061Z</time>
      </trkpt>
      <trkpt lat="60.21511" lon="18.22681">
        <ele>17.478402</ele>
        <time>2020-08-30T07:17:14.342Z</time>
      </trkpt>
      <trkpt lat="60.21492" lon="18.22691">
        <ele>17.421881</ele>
        <time>2020-08-30T07:17:17.737Z</time>
      </trkpt>
      <trkpt lat="60.21472" lon="18.22727">
        <ele>17.345907</ele>
        <time>2020-08-30T07:17:22.228Z</time>
      </trkpt>
      <trkpt lat="60.2144" lon="18.22821">
        <ele>17.183874</ele>
        <time>2020-08-30T07:17:31.825Z</time>
      </trkpt>
      <trkpt lat="60.21414" lon="18.23049">
        <ele>17.204018</ele>
        <time>2020-08-30T07:17:51.694Z</time>
      </trkpt>
      <trkpt lat="60.21419" lon="18.23208">
        <ele>17.47964</ele>
        <time>2020-08-30T07:18:06.672Z</time>
      </trkpt>
      <trkpt lat="60.21414" lon="18.23324">
        <ele>17.865825</ele>
        <time>2020-08-30T07:18:18.660Z</time>
      </trkpt>
      <trkpt lat="60.21373" lon="18.23439">
        <ele>19.140206</ele>
        <time>2020-08-30T07:18:34.480Z</time>
      </trkpt>
      <trkpt lat="60.21355" lon="18.23643">
        <ele>21.061198</ele>
        <time>2020-08-30T07:19:00.177Z</time>
      </trkpt>
      <trkpt lat="60.21318" lon="18.23814">
        <ele>23.482826</ele>
        <time>2020-08-30T07:19:24.810Z</time>
      </trkpt>
      <trkpt lat="60.21303" lon="18.23956">
        <ele>25.383038</ele>
        <time>2020-08-30T07:19:44.156Z</time>
      </trkpt>
      <trkpt lat="60.21269" lon="18.24066">
        <ele>26.366645</ele>
        <time>2020-08-30T07:20:00.584Z</time>
      </trkpt>
      <trkpt lat="60.21266" lon="18.24087">
        <ele>26.515402</ele>
        <time>2020-08-30T07:20:03.248Z</time>
      </trkpt>
      <trkpt lat="60.21272" lon="18.24278">
        <ele>27.789252</ele>
        <time>2020-08-30T07:20:23.405Z</time>
      </trkpt>
      <trkpt lat="60.21265" lon="18.24326">
        <ele>28.008868</ele>
        <time>2020-08-30T07:20:27.880Z</time>
      </trkpt>
      <trkpt lat="60.21243" lon="18.24388">
        <ele>27.728657</ele>
        <time>2020-08-30T07:20:34.259Z</time>
      </trkpt>
      <trkpt lat="60.21184" lon="18.24586">
        <ele>26.881144</ele>
        <time>2020-08-30T07:20:51.862Z</time>
      </trkpt>
      <trkpt lat="60.21181" lon="18.2461">
        <ele>26.791746</ele>
        <time>2020-08-30T07:20:53.668Z</time>
      </trkpt>
      <trkpt lat="60.21179" lon="18.24849">
        <ele>26.099907</ele>
        <time>2020-08-30T07:21:12.503Z</time>
      </trkpt>
      <trkpt lat="60.21168" lon="18.2494">
        <ele>25.834461</ele>
        <time>2020-08-30T07:21:20.670Z</time>
      </trkpt>
      <trkpt lat="60.21164" lon="18.2501">
        <ele>25.671678</ele>
        <time>2020-08-30T07:21:26.723Z</time>
      </trkpt>
      <trkpt lat="60.21149" lon="18.25113">
        <ele>25.532824</ele>
        <time>2020-08-30T07:21:36.086Z</time>
      </trkpt>
      <trkpt lat="60.21142" lon="18.25227">
        <ele>25.385566</ele>
        <time>2020-08-30T07:21:45.996Z</time>
      </trkpt>
      <trkpt lat="60.21114" lon="18.25395">
        <ele>25.153191</ele>
        <time>2020-08-30T07:22:00.453Z</time>
      </trkpt>
      <trkpt lat="60.2108" lon="18.25658">
        <ele>24.776567</ele>
        <time>2020-08-30T07:22:23.318Z</time>
      </trkpt>
      <trkpt lat="60.21065" lon="18.25725">
        <ele>24.77981</ele>
        <time>2020-08-30T07:22:30.082Z</time>
      </trkpt>
      <trkpt lat="60.21047" lon="18.25776">
        <ele>24.845859</ele>
        <time>2020-08-30T07:22:35.838Z</time>
      </trkpt>
      <trkpt lat="60.21035" lon="18.25822">
        <ele>24.900464</ele>
        <time>2020-08-30T07:22:40.907Z</time>
      </trkpt>
      <trkpt lat="60.21033" lon="18.25829">
        <ele>24.909783</ele>
        <time>2020-08-30T07:22:41.640Z</time>
      </trkpt>
      <trkpt lat="60.21009" lon="18.25936">
        <ele>25.034111</ele>
        <time>2020-08-30T07:22:52.955Z</time>
      </trkpt>
      <trkpt lat="60.20992" lon="18.25989">
        <ele>25.100743</ele>
        <time>2020-08-30T07:22:58.951Z</time>
      </trkpt>
      <trkpt lat="60.20903" lon="18.26161">
        <ele>24.189128</ele>
        <time>2020-08-30T07:23:19.539Z</time>
      </trkpt>
      <trkpt lat="60.20882" lon="18.26219">
        <ele>23.901241</ele>
        <time>2020-08-30T07:23:24.875Z</time>
      </trkpt>
      <trkpt lat="60.20863" lon="18.26298">
        <ele>23.418177</ele>
        <time>2020-08-30T07:23:31.098Z</time>
      </trkpt>
      <trkpt lat="60.20851" lon="18.26382">
        <ele>22.675358</ele>
        <time>2020-08-30T07:23:37.164Z</time>
      </trkpt>
      <trkpt lat="60.20843" lon="18.26484">
        <ele>21.799293</ele>
        <time>2020-08-30T07:23:44.349Z</time>
      </trkpt>
      <trkpt lat="60.20842" lon="18.26558">
        <ele>21.17307</ele>
        <time>2020-08-30T07:23:49.573Z</time>
      </trkpt>
      <trkpt lat="60.20849" lon="18.26642">
        <ele>20.600484</ele>
        <time>2020-08-30T07:23:55.716Z</time>
      </trkpt>
      <trkpt lat="60.20916" lon="18.27283">
        <ele>21.546767</ele>
        <time>2020-08-30T07:24:56.768Z</time>
      </trkpt>
      <trkpt lat="60.2092" lon="18.27366">
        <ele>22.119753</ele>
        <time>2020-08-30T07:25:06.572Z</time>
      </trkpt>
      <trkpt lat="60.20913" lon="18.27447">
        <ele>23.203862</ele>
        <time>2020-08-30T07:25:16.832Z</time>
      </trkpt>
      <trkpt lat="60.20901" lon="18.27502">
        <ele>23.982835</ele>
        <time>2020-08-30T07:25:24.650Z</time>
      </trkpt>
      <trkpt lat="60.20875" lon="18.27641">
        <ele>25.932521</ele>
        <time>2020-08-30T07:25:45.249Z</time>
      </trkpt>
      <trkpt lat="60.20823" lon="18.27979">
        <ele>31.635704</ele>
        <time>2020-08-30T07:26:36.384Z</time>
      </trkpt>
      <trkpt lat="60.20833" lon="18.28045">
        <ele>32.609939</ele>
        <time>2020-08-30T07:26:45.648Z</time>
      </trkpt>
      <trkpt lat="60.20853" lon="18.28115">
        <ele>33.339373</ele>
        <time>2020-08-30T07:26:55.947Z</time>
      </trkpt>
      <trkpt lat="60.20854" lon="18.28127">
        <ele>33.447715</ele>
        <time>2020-08-30T07:26:57.719Z</time>
      </trkpt>
      <trkpt lat="60.20856" lon="18.28145">
        <ele>33.604477</ele>
        <time>2020-08-30T07:26:59.762Z</time>
      </trkpt>
      <trkpt lat="60.20857" lon="18.28177">
        <ele>33.895887</ele>
        <time>2020-08-30T07:27:03.493Z</time>
      </trkpt>
      <trkpt lat="60.20846" lon="18.28281">
        <ele>34.847161</ele>
        <time>2020-08-30T07:27:15.696Z</time>
      </trkpt>
      <trkpt lat="60.20848" lon="18.28411">
        <ele>35.719148</ele>
        <time>2020-08-30T07:27:29.293Z</time>
      </trkpt>
      <trkpt lat="60.20873" lon="18.28557">
        <ele>35.924436</ele>
        <time>2020-08-30T07:27:43.321Z</time>
      </trkpt>
      <trkpt lat="60.20868" lon="18.28642">
        <ele>36.038964</ele>
        <time>2020-08-30T07:27:51.038Z</time>
      </trkpt>
      <trkpt lat="60.20871" lon="18.28695">
        <ele>36.109471</ele>
        <time>2020-08-30T07:27:55.758Z</time>
      </trkpt>
      <trkpt lat="60.20883" lon="18.28766">
        <ele>36.045488</ele>
        <time>2020-08-30T07:28:02.417Z</time>
      </trkpt>
      <trkpt lat="60.20916" lon="18.28895">
        <ele>35.7109</ele>
        <time>2020-08-30T07:28:14.949Z</time>
      </trkpt>
      <trkpt lat="60.20923" lon="18.28948">
        <ele>35.584892</ele>
        <time>2020-08-30T07:28:19.457Z</time>
      </trkpt>
      <trkpt lat="60.20975" lon="18.2916">
        <ele>34.329802</ele>
        <time>2020-08-30T07:28:37.687Z</time>
      </trkpt>
      <trkpt lat="60.20983" lon="18.29334">
        <ele>32.885694</ele>
        <time>2020-08-30T07:28:50.164Z</time>
      </trkpt>
      <trkpt lat="60.20998" lon="18.29389">
        <ele>32.360278</ele>
        <time>2020-08-30T07:28:54.512Z</time>
      </trkpt>
      <trkpt lat="60.21025" lon="18.29438">
        <ele>31.318775</ele>
        <time>2020-08-30T07:28:59.409Z</time>
      </trkpt>
      <trkpt lat="60.21031" lon="18.29479">
        <ele>30.693046</ele>
        <time>2020-08-30T07:29:02.249Z</time>
      </trkpt>
      <trkpt lat="60.21022" lon="18.29554">
        <ele>29.557762</ele>
        <time>2020-08-30T07:29:07.385Z</time>
      </trkpt>
      <trkpt lat="60.21006" lon="18.29635">
        <ele>28.272324</ele>
        <time>2020-08-30T07:29:12.996Z</time>
      </trkpt>
      <trkpt lat="60.20993" lon="18.2967">
        <ele>27.639286</ele>
        <time>2020-08-30T07:29:15.741Z</time>
      </trkpt>
      <trkpt lat="60.2093" lon="18.29799">
        <ele>25.356687</ele>
        <time>2020-08-30T07:29:27.631Z</time>
      </trkpt>
      <trkpt lat="60.20913" lon="18.29843">
        <ele>24.69825</ele>
        <time>2020-08-30T07:29:31.328Z</time>
      </trkpt>
      <trkpt lat="60.20908" lon="18.29877">
        <ele>24.271267</ele>
        <time>2020-08-30T07:29:33.797Z</time>
      </trkpt>
      <trkpt lat="60.20907" lon="18.30038">
        <ele>22.583511</ele>
        <time>2020-08-30T07:29:45.322Z</time>
      </trkpt>
      <trkpt lat="60.20889" lon="18.30167">
        <ele>22.07153</ele>
        <time>2020-08-30T07:29:55.708Z</time>
      </trkpt>
      <trkpt lat="60.20839" lon="18.30285">
        <ele>21.478035</ele>
        <time>2020-08-30T07:30:08.662Z</time>
      </trkpt>
      <trkpt lat="60.20795" lon="18.30345">
        <ele>21.137973</ele>
        <time>2020-08-30T07:30:17.512Z</time>
      </trkpt>
      <trkpt lat="60.20766" lon="18.30414">
        <ele>20.893849</ele>
        <time>2020-08-30T07:30:24.950Z</time>
      </trkpt>
      <trkpt lat="60.20763" lon="18.30427">
        <ele>20.852872</ele>
        <time>2020-08-30T07:30:26.055Z</time>
      </trkpt>
      <trkpt lat="60.20762" lon="18.30441">
        <ele>20.81565</ele>
        <time>2020-08-30T07:30:27.903Z</time>
      </trkpt>
      <trkpt lat="60.20768" lon="18.30475">
        <ele>20.718657</ele>
        <time>2020-08-30T07:30:33.146Z</time>
      </trkpt>
      <trkpt lat="60.20797" lon="18.30532">
        <ele>20.498549</ele>
        <time>2020-08-30T07:30:44.468Z</time>
      </trkpt>
      <trkpt lat="60.20806" lon="18.30577">
        <ele>20.365248</ele>
        <time>2020-08-30T07:30:51.213Z</time>
      </trkpt>
      <trkpt lat="60.20814" lon="18.30821">
        <ele>19.572742</ele>
        <time>2020-08-30T07:31:24.957Z</time>
      </trkpt>
      <trkpt lat="60.20806" lon="18.30882">
        <ele>19.365167</ele>
        <time>2020-08-30T07:31:33.810Z</time>
      </trkpt>
      <trkpt lat="60.20786" lon="18.30908">
        <ele>19.212389</ele>
        <time>2020-08-30T07:31:40.295Z</time>
      </trkpt>
      <trkpt lat="60.20771" lon="18.30951">
        <ele>19.125403</ele>
        <time>2020-08-30T07:31:47.742Z</time>
      </trkpt>
      <trkpt lat="60.20771" lon="18.31048">
        <ele>19.087869</ele>
        <time>2020-08-30T07:32:01.482Z</time>
      </trkpt>
      <trkpt lat="60.20798" lon="18.31244">
        <ele>19.009684</ele>
        <time>2020-08-30T07:32:31.114Z</time>
      </trkpt>
      <trkpt lat="60.20848" lon="18.31488">
        <ele>20.150876</ele>
        <time>2020-08-30T07:33:13.988Z</time>
      </trkpt>
      <trkpt lat="60.20848" lon="18.31539">
        <ele>20.403829</ele>
        <time>2020-08-30T07:33:22.723Z</time>
      </trkpt>
      <trkpt lat="60.20822" lon="18.31615">
        <ele>20.85827</ele>
        <time>2020-08-30T07:33:38.571Z</time>
      </trkpt>
      <trkpt lat="60.20802" lon="18.31657">
        <ele>21.121743</ele>
        <time>2020-08-30T07:33:48.302Z</time>
      </trkpt>
      <trkpt lat="60.20724" lon="18.31707">
        <ele>21.876911</ele>
        <time>2020-08-30T07:34:15.620Z</time>
      </trkpt>
      <trkpt lat="60.20684" lon="18.31747">
        <ele>22.28439</ele>
        <time>2020-08-30T07:34:29.772Z</time>
      </trkpt>
      <trkpt lat="60.20666" lon="18.31771">
        <ele>22.445278</ele>
        <time>2020-08-30T07:34:36.659Z</time>
      </trkpt>
      <trkpt lat="60.20593" lon="18.31914">
        <ele>22.441434</ele>
        <time>2020-08-30T07:35:06.611Z</time>
      </trkpt>
      <trkpt lat="60.20479" lon="18.32002">
        <ele>22.556332</ele>
        <time>2020-08-30T07:35:42.293Z</time>
      </trkpt>
      <trkpt lat="60.20439" lon="18.32063">
        <ele>22.677162</ele>
        <time>2020-08-30T07:35:57.329Z</time>
      </trkpt>
      <trkpt lat="60.20427" lon="18.32106">
        <ele>22.736805</ele>
        <time>2020-08-30T07:36:04.928Z</time>
      </trkpt>
      <trkpt lat="60.20436" lon="18.32214">
        <ele>22.86756</ele>
        <time>2020-08-30T07:36:22.079Z</time>
      </trkpt>
      <trkpt lat="60.20426" lon="18.32276">
        <ele>23.118883</ele>
        <time>2020-08-30T07:36:32.754Z</time>
      </trkpt>
      <trkpt lat="60.20406" lon="18.3234">
        <ele>23.41866</ele>
        <time>2020-08-30T07:36:45.050Z</time>
      </trkpt>
      <trkpt lat="60.20401" lon="18.3249">
        <ele>24.014657</ele>
        <time>2020-08-30T07:37:09.485Z</time>
      </trkpt>
      <trkpt lat="60.20386" lon="18.3262">
        <ele>24.375938</ele>
        <time>2020-08-30T07:37:30.658Z</time>
      </trkpt>
      <trkpt lat="60.20356" lon="18.32683">
        <ele>24.471589</ele>
        <time>2020-08-30T07:37:44.079Z</time>
      </trkpt>
      <trkpt lat="60.20306" lon="18.32727">
        <ele>24.592804</ele>
        <time>2020-08-30T07:38:00.550Z</time>
      </trkpt>
      <trkpt lat="60.20257" lon="18.32799">
        <ele>24.699554</ele>
        <time>2020-08-30T07:38:18.526Z</time>
      </trkpt>
      <trkpt lat="60.20237" lon="18.32858">
        <ele>24.659391</ele>
        <time>2020-08-30T07:38:28.779Z</time>
      </trkpt>
      <trkpt lat="60.20234" lon="18.32901">
        <ele>24.634251</ele>
        <time>2020-08-30T07:38:35.180Z</time>
      </trkpt>
      <trkpt lat="60.20254" lon="18.33084">
        <ele>24.52761</ele>
        <time>2020-08-30T07:39:02.529Z</time>
      </trkpt>
      <trkpt lat="60.20243" lon="18.33214">
        <ele>24.41533</ele>
        <time>2020-08-30T07:39:21.780Z</time>
      </trkpt>
      <trkpt lat="60.20266" lon="18.33313">
        <ele>24.305865</ele>
        <time>2020-08-30T07:39:37.870Z</time>
      </trkpt>
      <trkpt lat="60.20275" lon="18.33391">
        <ele>24.226664</ele>
        <time>2020-08-30T07:39:49.402Z</time>
      </trkpt>
      <trkpt lat="60.20287" lon="18.33416">
        <ele>24.191012</ele>
        <time>2020-08-30T07:39:54.545Z</time>
      </trkpt>
      <trkpt lat="60.20345" lon="18.33477">
        <ele>23.88436</ele>
        <time>2020-08-30T07:40:13.128Z</time>
      </trkpt>
      <trkpt lat="60.20361" lon="18.33505">
        <ele>23.751774</ele>
        <time>2020-08-30T07:40:19.081Z</time>
      </trkpt>
      <trkpt lat="60.20364" lon="18.33527">
        <ele>23.681896</ele>
        <time>2020-08-30T07:40:22.190Z</time>
      </trkpt>
      <trkpt lat="60.20364" lon="18.33562">
        <ele>23.572922</ele>
        <time>2020-08-30T07:40:27.031Z</time>
      </trkpt>
      <trkpt lat="60.20354" lon="18.33668">
        <ele>23.236092</ele>
        <time>2020-08-30T07:40:41.923Z</time>
      </trkpt>
      <trkpt lat="60.2032" lon="18.33778">
        <ele>22.794789</ele>
        <time>2020-08-30T07:40:59.751Z</time>
      </trkpt>
      <trkpt lat="60.20313" lon="18.33824">
        <ele>22.618929</ele>
        <time>2020-08-30T07:41:06.241Z</time>
      </trkpt>
      <trkpt lat="60.20319" lon="18.33866">
        <ele>22.456608</ele>
        <time>2020-08-30T07:41:12.214Z</time>
      </trkpt>
      <trkpt lat="60.20332" lon="18.33905">
        <ele>22.2816</ele>
        <time>2020-08-30T07:41:18.649Z</time>
      </trkpt>
      <trkpt lat="60.20357" lon="18.34017">
        <ele>21.82303</ele>
        <time>2020-08-30T07:41:35.592Z</time>
      </trkpt>
      <trkpt lat="60.20388" lon="18.34104">
        <ele>21.497876</ele>
        <time>2020-08-30T07:41:50.375Z</time>
      </trkpt>
      <trkpt lat="60.20394" lon="18.34166">
        <ele>21.328658</ele>
        <time>2020-08-30T07:41:59.336Z</time>
      </trkpt>
      <trkpt lat="60.2039" lon="18.34262">
        <ele>21.073863</ele>
        <time>2020-08-30T07:42:12.955Z</time>
      </trkpt>
      <trkpt lat="60.2038" lon="18.34326">
        <ele>20.895499</ele>
        <time>2020-08-30T07:42:22.519Z</time>
      </trkpt>
      <trkpt lat="60.20299" lon="18.34474">
        <ele>20.132942</ele>
        <time>2020-08-30T07:42:53.299Z</time>
      </trkpt>
      <trkpt lat="60.2027" lon="18.3454">
        <ele>19.79368</ele>
        <time>2020-08-30T07:43:05.399Z</time>
      </trkpt>
      <trkpt lat="60.20225" lon="18.34722">
        <ele>18.930833</ele>
        <time>2020-08-30T07:43:32.719Z</time>
      </trkpt>
      <trkpt lat="60.20209" lon="18.34765">
        <ele>18.672175</ele>
        <time>2020-08-30T07:43:39.790Z</time>
      </trkpt>
      <trkpt lat="60.2018" lon="18.34821">
        <ele>18.283809</ele>
        <time>2020-08-30T07:43:50.421Z</time>
      </trkpt>
      <trkpt lat="60.20149" lon="18.34911">
        <ele>17.751517</ele>
        <time>2020-08-30T07:44:05.112Z</time>
      </trkpt>
      <trkpt lat="60.2015" lon="18.34946">
        <ele>17.585224</ele>
        <time>2020-08-30T07:44:09.881Z</time>
      </trkpt>
      <trkpt lat="60.20164" lon="18.34996">
        <ele>17.606663</ele>
        <time>2020-08-30T07:44:17.971Z</time>
      </trkpt>
      <trkpt lat="60.20235" lon="18.35156">
        <ele>17.768286</ele>
        <time>2020-08-30T07:44:50.215Z</time>
      </trkpt>
      <trkpt lat="60.20241" lon="18.35177">
        <ele>17.786165</ele>
        <time>2020-08-30T07:44:54.087Z</time>
      </trkpt>
      <trkpt lat="60.20262" lon="18.35241">
        <ele>17.865592</ele>
        <time>2020-08-30T07:45:02.136Z</time>
      </trkpt>
      <trkpt lat="60.20332" lon="18.35336">
        <ele>18.415389</ele>
        <time>2020-08-30T07:45:20.141Z</time>
      </trkpt>
      <trkpt lat="60.20389" lon="18.35383">
        <ele>18.822858</ele>
        <time>2020-08-30T07:45:33.297Z</time>
      </trkpt>
      <trkpt lat="60.20414" lon="18.35471">
        <ele>19.036742</ele>
        <time>2020-08-30T07:45:42.865Z</time>
      </trkpt>
      <trkpt lat="60.20436" lon="18.35497">
        <ele>19.059162</ele>
        <time>2020-08-30T07:45:47.748Z</time>
      </trkpt>
      <trkpt lat="60.20455" lon="18.35546">
        <ele>19.085269</ele>
        <time>2020-08-30T07:45:53.346Z</time>
      </trkpt>
      <trkpt lat="60.20471" lon="18.356">
        <ele>19.111964</ele>
        <time>2020-08-30T07:45:59.096Z</time>
      </trkpt>
      <trkpt lat="60.20487" lon="18.35757">
        <ele>19.227344</ele>
        <time>2020-08-30T07:46:13.798Z</time>
      </trkpt>
      <trkpt lat="60.20559" lon="18.36237">
        <ele>21.757292</ele>
        <time>2020-08-30T07:47:06.172Z</time>
      </trkpt>
      <trkpt lat="60.20643" lon="18.36747">
        <ele>28.277538</ele>
        <time>2020-08-30T07:48:18.823Z</time>
      </trkpt>
      <trkpt lat="60.20697" lon="18.37163">
        <ele>34.897524</ele>
        <time>2020-08-30T07:49:21.125Z</time>
      </trkpt>
      <trkpt lat="60.20704" lon="18.37195">
        <ele>35.27243</ele>
        <time>2020-08-30T07:49:26.180Z</time>
      </trkpt>
      <trkpt lat="60.20669" lon="18.37239">
        <ele>36.163306</ele>
        <time>2020-08-30T07:49:36.909Z</time>
      </trkpt>
      <trkpt lat="60.20598" lon="18.3732">
        <ele>37.917153</ele>
        <time>2020-08-30T07:49:56.353Z</time>
      </trkpt>
      <trkpt lat="60.20562" lon="18.37353">
        <ele>38.411197</ele>
        <time>2020-08-30T07:50:05.053Z</time>
      </trkpt>
      <trkpt lat="60.20533" lon="18.37376">
        <ele>38.472405</ele>
        <time>2020-08-30T07:50:10.990Z</time>
      </trkpt>
      <trkpt lat="60.20433" lon="18.37432">
        <ele>38.680732</ele>
        <time>2020-08-30T07:50:29.776Z</time>
      </trkpt>
      <trkpt lat="60.20048" lon="18.37608">
        <ele>36.076858</ele>
        <time>2020-08-30T07:51:32.953Z</time>
      </trkpt>
      <trkpt lat="60.1997" lon="18.37644">
        <ele>35.071872</ele>
        <time>2020-08-30T07:51:45.163Z</time>
      </trkpt>
      <trkpt lat="60.19899" lon="18.37676">
        <ele>34.152286</ele>
        <time>2020-08-30T07:51:56.065Z</time>
      </trkpt>
      <trkpt lat="60.19768" lon="18.37753">
        <ele>31.802102</ele>
        <time>2020-08-30T07:52:15.711Z</time>
      </trkpt>
      <trkpt lat="60.1968" lon="18.37834">
        <ele>30.27118</ele>
        <time>2020-08-30T07:52:29.184Z</time>
      </trkpt>
      <trkpt lat="60.19633" lon="18.3789">
        <ele>29.588966</ele>
        <time>2020-08-30T07:52:37.576Z</time>
      </trkpt>
      <trkpt lat="60.19621" lon="18.37904">
        <ele>29.427871</ele>
        <time>2020-08-30T07:52:39.354Z</time>
      </trkpt>
      <trkpt lat="60.19617" lon="18.37948">
        <ele>29.156502</ele>
        <time>2020-08-30T07:52:43.224Z</time>
      </trkpt>
      <trkpt lat="60.19566" lon="18.38055">
        <ele>28.472721</ele>
        <time>2020-08-30T07:52:55.520Z</time>
      </trkpt>
      <trkpt lat="60.19526" lon="18.38114">
        <ele>28.449691</ele>
        <time>2020-08-30T07:53:03.964Z</time>
      </trkpt>
      <trkpt lat="60.19467" lon="18.38225">
        <ele>28.412156</ele>
        <time>2020-08-30T07:53:19.614Z</time>
      </trkpt>
      <trkpt lat="60.19431" lon="18.38301">
        <ele>28.606143</ele>
        <time>2020-08-30T07:53:30.172Z</time>
      </trkpt>
      <trkpt lat="60.194" lon="18.3839">
        <ele>29.104792</ele>
        <time>2020-08-30T07:53:41.730Z</time>
      </trkpt>
      <trkpt lat="60.19386" lon="18.38422">
        <ele>29.299984</ele>
        <time>2020-08-30T07:53:46.295Z</time>
      </trkpt>
      <trkpt lat="60.19356" lon="18.3846">
        <ele>29.626466</ele>
        <time>2020-08-30T07:53:54.012Z</time>
      </trkpt>
      <trkpt lat="60.19298" lon="18.38521">
        <ele>30.246835</ele>
        <time>2020-08-30T07:54:08.628Z</time>
      </trkpt>
      <trkpt lat="60.19288" lon="18.38539">
        <ele>30.372005</ele>
        <time>2020-08-30T07:54:11.768Z</time>
      </trkpt>
      <trkpt lat="60.1926" lon="18.38647">
        <ele>30.955737</ele>
        <time>2020-08-30T07:54:25.370Z</time>
      </trkpt>
      <trkpt lat="60.19244" lon="18.38741">
        <ele>31.434726</ele>
        <time>2020-08-30T07:54:36.326Z</time>
      </trkpt>
      <trkpt lat="60.19209" lon="18.3887">
        <ele>31.857439</ele>
        <time>2020-08-30T07:54:50.863Z</time>
      </trkpt>
      <trkpt lat="60.19157" lon="18.38956">
        <ele>31.962244</ele>
        <time>2020-08-30T07:55:03.740Z</time>
      </trkpt>
      <trkpt lat="60.19082" lon="18.39019">
        <ele>32.047319</ele>
        <time>2020-08-30T07:55:18.984Z</time>
      </trkpt>
      <trkpt lat="60.19021" lon="18.39102">
        <ele>31.326113</ele>
        <time>2020-08-30T07:55:31.600Z</time>
      </trkpt>
      <trkpt lat="60.18985" lon="18.39127">
        <ele>30.948392</ele>
        <time>2020-08-30T07:55:37.844Z</time>
      </trkpt>
      <trkpt lat="60.18889" lon="18.39162">
        <ele>29.638014</ele>
        <time>2020-08-30T07:55:52.681Z</time>
      </trkpt>
      <trkpt lat="60.18758" lon="18.39262">
        <ele>26.742921</ele>
        <time>2020-08-30T07:56:12.764Z</time>
      </trkpt>
      <trkpt lat="60.18737" lon="18.39266">
        <ele>26.419547</ele>
        <time>2020-08-30T07:56:16.138Z</time>
      </trkpt>
      <trkpt lat="60.18716" lon="18.39258">
        <ele>26.15147</ele>
        <time>2020-08-30T07:56:19.413Z</time>
      </trkpt>
      <trkpt lat="60.18677" lon="18.39285">
        <ele>25.650749</ele>
        <time>2020-08-30T07:56:25.800Z</time>
      </trkpt>
      <trkpt lat="60.18595" lon="18.39362">
        <ele>24.531534</ele>
        <time>2020-08-30T07:56:40.524Z</time>
      </trkpt>
      <trkpt lat="60.18583" lon="18.39369">
        <ele>24.380371</ele>
        <time>2020-08-30T07:56:42.507Z</time>
      </trkpt>
      <trkpt lat="60.18558" lon="18.39418">
        <ele>24.091525</ele>
        <time>2020-08-30T07:56:48.672Z</time>
      </trkpt>
      <trkpt lat="60.18365" lon="18.39712">
        <ele>21.745467</ele>
        <time>2020-08-30T07:57:26.430Z</time>
      </trkpt>
      <trkpt lat="60.18248" lon="18.39874">
        <ele>19.882641</ele>
        <time>2020-08-30T07:57:47.372Z</time>
      </trkpt>
      <trkpt lat="60.18209" lon="18.39926">
        <ele>19.16919</ele>
        <time>2020-08-30T07:57:54.329Z</time>
      </trkpt>
      <trkpt lat="60.18217" lon="18.39942">
        <ele>19.00138</ele>
        <time>2020-08-30T07:57:55.918Z</time>
      </trkpt>
      <trkpt lat="60.18285" lon="18.39988">
        <ele>17.968621</ele>
        <time>2020-08-30T07:58:07.202Z</time>
      </trkpt>
      <trkpt lat="60.1832" lon="18.4001">
        <ele>17.622918</ele>
        <time>2020-08-30T07:58:12.885Z</time>
      </trkpt>
      <trkpt lat="60.18328" lon="18.40016">
        <ele>17.542015</ele>
        <time>2020-08-30T07:58:14.240Z</time>
      </trkpt>
      <trkpt lat="60.18335" lon="18.40028">
        <ele>17.45574</ele>
        <time>2020-08-30T07:58:15.810Z</time>
      </trkpt>
      <trkpt lat="60.18337" lon="18.40076">
        <ele>17.229915</ele>
        <time>2020-08-30T07:58:19.441Z</time>
      </trkpt>
      <trkpt lat="60.18321" lon="18.40201">
        <ele>16.621858</ele>
        <time>2020-08-30T07:58:30.348Z</time>
      </trkpt>
      <trkpt lat="60.18326" lon="18.40226">
        <ele>16.492123</ele>
        <time>2020-08-30T07:58:32.796Z</time>
      </trkpt>
      <trkpt lat="60.18333" lon="18.40233">
        <ele>16.417106</ele>
        <time>2020-08-30T07:58:34.269Z</time>
      </trkpt>
      <trkpt lat="60.18383" lon="18.40264">
        <ele>16.047656</ele>
        <time>2020-08-30T07:58:43.434Z</time>
      </trkpt>
      <trkpt lat="60.18387" lon="18.40272">
        <ele>16.009263</ele>
        <time>2020-08-30T07:58:44.474Z</time>
      </trkpt>
      <trkpt lat="60.18389" lon="18.40304">
        <ele>15.901438</ele>
        <time>2020-08-30T07:58:47.197Z</time>
      </trkpt>
      <trkpt lat="60.18367" lon="18.40463">
        <ele>15.348151</ele>
        <time>2020-08-30T07:59:00.808Z</time>
      </trkpt>
      <trkpt lat="60.18321" lon="18.4078">
        <ele>14.236759</ele>
        <time>2020-08-30T07:59:27.819Z</time>
      </trkpt>
      <trkpt lat="60.18316" lon="18.40818">
        <ele>14.103135</ele>
        <time>2020-08-30T07:59:30.981Z</time>
      </trkpt>
      <trkpt lat="60.1831" lon="18.40833">
        <ele>14.041696</ele>
        <time>2020-08-30T07:59:32.692Z</time>
      </trkpt>
      <trkpt lat="60.18151" lon="18.41248">
        <ele>14.02755</ele>
        <time>2020-08-30T08:00:21.990Z</time>
      </trkpt>
      <trkpt lat="60.18117" lon="18.41356">
        <ele>14.101459</ele>
        <time>2020-08-30T08:00:34.051Z</time>
      </trkpt>
      <trkpt lat="60.18097" lon="18.4142">
        <ele>14.145509</ele>
        <time>2020-08-30T08:00:41.130Z</time>
      </trkpt>
      <trkpt lat="60.18013" lon="18.41718">
        <ele>14.521808</ele>
        <time>2020-08-30T08:01:12.977Z</time>
      </trkpt>
      <trkpt lat="60.17994" lon="18.41771">
        <ele>14.712711</ele>
        <time>2020-08-30T08:01:19.563Z</time>
      </trkpt>
      <trkpt lat="60.17977" lon="18.41845">
        <ele>15.315174</ele>
        <time>2020-08-30T08:01:28.819Z</time>
      </trkpt>
      <trkpt lat="60.17974" lon="18.41871">
        <ele>15.511965</ele>
        <time>2020-08-30T08:01:32.097Z</time>
      </trkpt>
      <trkpt lat="60.17965" lon="18.41915">
        <ele>15.86324</ele>
        <time>2020-08-30T08:01:38.113Z</time>
      </trkpt>
      <trkpt lat="60.17958" lon="18.41976">
        <ele>16.328659</ele>
        <time>2020-08-30T08:01:45.257Z</time>
      </trkpt>
      <trkpt lat="60.17957" lon="18.41987">
        <ele>16.414007</ele>
        <time>2020-08-30T08:01:47.312Z</time>
      </trkpt>
      <trkpt lat="60.17947" lon="18.42054">
        <ele>16.930237</ele>
        <time>2020-08-30T08:01:55.512Z</time>
      </trkpt>
      <trkpt lat="60.17937" lon="18.42069">
        <ele>17.116425</ele>
        <time>2020-08-30T08:01:58.458Z</time>
      </trkpt>
      <trkpt lat="60.17913" lon="18.42079">
        <ele>17.317085</ele>
        <time>2020-08-30T08:02:04.464Z</time>
      </trkpt>
      <trkpt lat="60.17874" lon="18.42084">
        <ele>17.470863</ele>
        <time>2020-08-30T08:02:13.432Z</time>
      </trkpt>
      <trkpt lat="60.17875" lon="18.42121">
        <ele>17.543054</ele>
        <time>2020-08-30T08:02:16.958Z</time>
      </trkpt>
      <trkpt lat="60.17872" lon="18.42199">
        <ele>17.698598</ele>
        <time>2020-08-30T08:02:25.358Z</time>
      </trkpt>
      <trkpt lat="60.17858" lon="18.42332">
        <ele>17.96711</ele>
        <time>2020-08-30T08:02:37.120Z</time>
      </trkpt>
      <trkpt lat="60.17844" lon="18.42416">
        <ele>17.41558</ele>
        <time>2020-08-30T08:02:43.855Z</time>
      </trkpt>
      <trkpt lat="60.17806" lon="18.42533">
        <ele>16.520334</ele>
        <time>2020-08-30T08:02:53.987Z</time>
      </trkpt>
      <trkpt lat="60.17746" lon="18.42675">
        <ele>15.848262</ele>
        <time>2020-08-30T08:03:09.321Z</time>
      </trkpt>
      <trkpt lat="60.17741" lon="18.42688">
        <ele>15.911926</ele>
        <time>2020-08-30T08:03:10.517Z</time>
      </trkpt>
      <trkpt lat="60.17725" lon="18.42734">
        <ele>16.132109</ele>
        <time>2020-08-30T08:03:17.112Z</time>
      </trkpt>
      <trkpt lat="60.17711" lon="18.42814">
        <ele>16.457426</ele>
        <time>2020-08-30T08:03:26.321Z</time>
      </trkpt>
      <trkpt lat="60.17707" lon="18.42908">
        <ele>16.819281</ele>
        <time>2020-08-30T08:03:37.061Z</time>
      </trkpt>
      <trkpt lat="60.17707" lon="18.43076">
        <ele>17.371268</ele>
        <time>2020-08-30T08:03:56.805Z</time>
      </trkpt>
      <trkpt lat="60.17707" lon="18.43119">
        <ele>17.496843</ele>
        <time>2020-08-30T08:04:01.170Z</time>
      </trkpt>
      <trkpt lat="60.17707" lon="18.43242">
        <ele>17.861171</ele>
        <time>2020-08-30T08:04:13.672Z</time>
      </trkpt>
      <trkpt lat="60.17697" lon="18.4336">
        <ele>18.262299</ele>
        <time>2020-08-30T08:04:23.861Z</time>
      </trkpt>
      <trkpt lat="60.17684" lon="18.43426">
        <ele>18.575925</ele>
        <time>2020-08-30T08:04:29.516Z</time>
      </trkpt>
      <trkpt lat="60.176" lon="18.43643">
        <ele>19.939182</ele>
        <time>2020-08-30T08:05:00.997Z</time>
      </trkpt>
      <trkpt lat="60.17597" lon="18.43648">
        <ele>20.038111</ele>
        <time>2020-08-30T08:05:02.340Z</time>
      </trkpt>
      <trkpt lat="60.17564" lon="18.43705">
        <ele>21.198182</ele>
        <time>2020-08-30T08:05:14.271Z</time>
      </trkpt>
      <trkpt lat="60.17553" lon="18.43721">
        <ele>21.54905</ele>
        <time>2020-08-30T08:05:18.328Z</time>
      </trkpt>
      <trkpt lat="60.17519" lon="18.43762">
        <ele>22.601125</ele>
        <time>2020-08-30T08:05:29.492Z</time>
      </trkpt>
      <trkpt lat="60.17491" lon="18.43794">
        <ele>23.432764</ele>
        <time>2020-08-30T08:05:38.797Z</time>
      </trkpt>
      <trkpt lat="60.17437" lon="18.43855">
        <ele>24.644902</ele>
        <time>2020-08-30T08:05:55.949Z</time>
      </trkpt>
      <trkpt lat="60.17314" lon="18.43999">
        <ele>25.830569</ele>
        <time>2020-08-30T08:06:25.114Z</time>
      </trkpt>
      <trkpt lat="60.1709" lon="18.44284">
        <ele>24.420979</ele>
        <time>2020-08-30T08:07:09.074Z</time>
      </trkpt>
      <trkpt lat="60.17073" lon="18.44285">
        <ele>24.356251</ele>
        <time>2020-08-30T08:07:12.033Z</time>
      </trkpt>
      <trkpt lat="60.1706" lon="18.44276">
        <ele>24.303389</ele>
        <time>2020-08-30T08:07:14.323Z</time>
      </trkpt>
      <trkpt lat="60.17042" lon="18.44315">
        <ele>24.202523</ele>
        <time>2020-08-30T08:07:18.826Z</time>
      </trkpt>
      <trkpt lat="60.16751" lon="18.44947">
        <ele>24.324639</ele>
        <time>2020-08-30T08:08:37.917Z</time>
      </trkpt>
      <trkpt lat="60.16716" lon="18.45027">
        <ele>23.636154</ele>
        <time>2020-08-30T08:08:46.505Z</time>
      </trkpt>
      <trkpt lat="60.16735" lon="18.45062">
        <ele>23.300755</ele>
        <time>2020-08-30T08:08:50.414Z</time>
      </trkpt>
      <trkpt lat="60.16769" lon="18.45136">
        <ele>22.651263</ele>
        <time>2020-08-30T08:08:57.763Z</time>
      </trkpt>
      <trkpt lat="60.16796" lon="18.45221">
        <ele>21.682555</ele>
        <time>2020-08-30T08:09:04.744Z</time>
      </trkpt>
      <trkpt lat="60.1686" lon="18.45481">
        <ele>17.125666</ele>
        <time>2020-08-30T08:09:23.321Z</time>
      </trkpt>
      <trkpt lat="60.16877" lon="18.45551">
        <ele>16.068696</ele>
        <time>2020-08-30T08:09:28.425Z</time>
      </trkpt>
      <trkpt lat="60.16905" lon="18.45663">
        <ele>14.623801</ele>
        <time>2020-08-30T08:09:36.795Z</time>
      </trkpt>
      <trkpt lat="60.16971" lon="18.45746">
        <ele>12.81255</ele>
        <time>2020-08-30T08:09:47.659Z</time>
      </trkpt>
      <trkpt lat="60.17004" lon="18.45783">
        <ele>12.27413</ele>
        <time>2020-08-30T08:09:53.295Z</time>
      </trkpt>
      <trkpt lat="60.17033" lon="18.45817">
        <ele>12.098372</ele>
        <time>2020-08-30T08:09:58.594Z</time>
      </trkpt>
      <trkpt lat="60.17048" lon="18.45834">
        <ele>12.00465</ele>
        <time>2020-08-30T08:10:01.581Z</time>
      </trkpt>
      <trkpt lat="60.17065" lon="18.45871">
        <ele>11.870635</ele>
        <time>2020-08-30T08:10:05.887Z</time>
      </trkpt>
      <trkpt lat="60.17072" lon="18.45929">
        <ele>11.714757</ele>
        <time>2020-08-30T08:10:10.909Z</time>
      </trkpt>
      <trkpt lat="60.17069" lon="18.45998">
        <ele>11.530293</ele>
        <time>2020-08-30T08:10:16.897Z</time>
      </trkpt>
      <trkpt lat="60.17066" lon="18.46063">
        <ele>11.455554</ele>
        <time>2020-08-30T08:10:22.536Z</time>
      </trkpt>
      <trkpt lat="60.17058" lon="18.46224">
        <ele>11.718115</ele>
        <time>2020-08-30T08:10:37.359Z</time>
      </trkpt>
      <trkpt lat="60.17043" lon="18.46464">
        <ele>12.142471</ele>
        <time>2020-08-30T08:11:01.197Z</time>
      </trkpt>
      <trkpt lat="60.1703" lon="18.46541">
        <ele>12.315522</ele>
        <time>2020-08-30T08:11:09.160Z</time>
      </trkpt>
      <trkpt lat="60.17003" lon="18.46636">
        <ele>12.548097</ele>
        <time>2020-08-30T08:11:19.621Z</time>
      </trkpt>
      <trkpt lat="60.1696" lon="18.46799">
        <ele>12.73958</ele>
        <time>2020-08-30T08:11:36.699Z</time>
      </trkpt>
      <trkpt lat="60.16934" lon="18.469">
        <ele>12.690637</ele>
        <time>2020-08-30T08:11:46.493Z</time>
      </trkpt>
      <trkpt lat="60.16925" lon="18.46952">
        <ele>12.666902</ele>
        <time>2020-08-30T08:11:51.192Z</time>
      </trkpt>
      <trkpt lat="60.1691" lon="18.47103">
        <ele>12.649212</ele>
        <time>2020-08-30T08:12:04.478Z</time>
      </trkpt>
      <trkpt lat="60.16898" lon="18.47138">
        <ele>12.683067</ele>
        <time>2020-08-30T08:12:08.033Z</time>
      </trkpt>
      <trkpt lat="60.16876" lon="18.47145">
        <ele>12.719072</ele>
        <time>2020-08-30T08:12:11.924Z</time>
      </trkpt>
      <trkpt lat="60.16844" lon="18.47155">
        <ele>12.771766</ele>
        <time>2020-08-30T08:12:17.648Z</time>
      </trkpt>
      <trkpt lat="60.16821" lon="18.47169">
        <ele>12.810936</ele>
        <time>2020-08-30T08:12:22.015Z</time>
      </trkpt>
      <trkpt lat="60.1671" lon="18.47222">
        <ele>13.616594</ele>
        <time>2020-08-30T08:12:44.403Z</time>
      </trkpt>
      <trkpt lat="60.16662" lon="18.47245">
        <ele>14.272773</ele>
        <time>2020-08-30T08:12:55.359Z</time>
      </trkpt>
      <trkpt lat="60.16567" lon="18.47296">
        <ele>15.634829</ele>
        <time>2020-08-30T08:13:18.693Z</time>
      </trkpt>
      <trkpt lat="60.16497" lon="18.47333">
        <ele>16.805386</ele>
        <time>2020-08-30T08:13:36.256Z</time>
      </trkpt>
      <trkpt lat="60.1633" lon="18.47413">
        <ele>18.684607</ele>
        <time>2020-08-30T08:14:13.953Z</time>
      </trkpt>
      <trkpt lat="60.16023" lon="18.47565">
        <ele>18.823226</ele>
        <time>2020-08-30T08:15:09.417Z</time>
      </trkpt>
      <trkpt lat="60.15833" lon="18.47668">
        <ele>17.699997</ele>
        <time>2020-08-30T08:15:41.411Z</time>
      </trkpt>
      <trkpt lat="60.15732" lon="18.47748">
        <ele>16.747928</ele>
        <time>2020-08-30T08:15:57.991Z</time>
      </trkpt>
      <trkpt lat="60.1568" lon="18.47819">
        <ele>16.829777</ele>
        <time>2020-08-30T08:16:08.051Z</time>
      </trkpt>
      <trkpt lat="60.15627" lon="18.4789">
        <ele>17.064881</ele>
        <time>2020-08-30T08:16:19.517Z</time>
      </trkpt>
      <trkpt lat="60.15605" lon="18.47918">
        <ele>17.158985</ele>
        <time>2020-08-30T08:16:24.750Z</time>
      </trkpt>
      <trkpt lat="60.1531" lon="18.48333">
        <ele>23.213476</ele>
        <time>2020-08-30T08:17:52.409Z</time>
      </trkpt>
      <trkpt lat="60.15263" lon="18.48398">
        <ele>23.816028</ele>
        <time>2020-08-30T08:18:04.524Z</time>
      </trkpt>
      <trkpt lat="60.15178" lon="18.48515">
        <ele>23.461656</ele>
        <time>2020-08-30T08:18:22.578Z</time>
      </trkpt>
      <trkpt lat="60.15101" lon="18.48607">
        <ele>22.625041</ele>
        <time>2020-08-30T08:18:35.859Z</time>
      </trkpt>
      <trkpt lat="60.15042" lon="18.48661">
        <ele>21.309394</ele>
        <time>2020-08-30T08:18:44.979Z</time>
      </trkpt>
      <trkpt lat="60.14934" lon="18.48847">
        <ele>18.353331</ele>
        <time>2020-08-30T08:19:04.604Z</time>
      </trkpt>
      <trkpt lat="60.14827" lon="18.48997">
        <ele>15.651171</ele>
        <time>2020-08-30T08:19:22.718Z</time>
      </trkpt>
      <trkpt lat="60.14716" lon="18.49214">
        <ele>13.776421</ele>
        <time>2020-08-30T08:19:46.125Z</time>
      </trkpt>
      <trkpt lat="60.14681" lon="18.49311">
        <ele>13.472575</ele>
        <time>2020-08-30T08:19:56.240Z</time>
      </trkpt>
      <trkpt lat="60.14669" lon="18.49353">
        <ele>13.41185</ele>
        <time>2020-08-30T08:20:00.418Z</time>
      </trkpt>
      <trkpt lat="60.1465" lon="18.4942">
        <ele>13.315646</ele>
        <time>2020-08-30T08:20:07.098Z</time>
      </trkpt>
      <trkpt lat="60.14631" lon="18.49479">
        <ele>13.228206</ele>
        <time>2020-08-30T08:20:13.263Z</time>
      </trkpt>
      <trkpt lat="60.14619" lon="18.49519">
        <ele>13.169284</ele>
        <time>2020-08-30T08:20:17.474Z</time>
      </trkpt>
      <trkpt lat="60.1451" lon="18.49798">
        <ele>12.795672</ele>
        <time>2020-08-30T08:20:47.853Z</time>
      </trkpt>
      <trkpt lat="60.14491" lon="18.49869">
        <ele>12.727216</ele>
        <time>2020-08-30T08:20:54.788Z</time>
      </trkpt>
      <trkpt lat="60.14476" lon="18.49951">
        <ele>12.668703</ele>
        <time>2020-08-30T08:21:02.247Z</time>
      </trkpt>
      <trkpt lat="60.14468" lon="18.49998">
        <ele>12.634971</ele>
        <time>2020-08-30T08:21:06.754Z</time>
      </trkpt>
      <trkpt lat="60.14426" lon="18.50227">
        <ele>12.489969</ele>
        <time>2020-08-30T08:21:27.964Z</time>
      </trkpt>
      <trkpt lat="60.14389" lon="18.50393">
        <ele>12.425937</ele>
        <time>2020-08-30T08:21:43.522Z</time>
      </trkpt>
      <trkpt lat="60.14366" lon="18.50484">
        <ele>12.389407</ele>
        <time>2020-08-30T08:21:52.280Z</time>
      </trkpt>
      <trkpt lat="60.14341" lon="18.5057">
        <ele>12.842328</ele>
        <time>2020-08-30T08:22:01.957Z</time>
      </trkpt>
      <trkpt lat="60.14286" lon="18.50705">
        <ele>13.790244</ele>
        <time>2020-08-30T08:22:20.294Z</time>
      </trkpt>
      <trkpt lat="60.14256" lon="18.50782">
        <ele>14.320942</ele>
        <time>2020-08-30T08:22:32.040Z</time>
      </trkpt>
      <trkpt lat="60.14206" lon="18.50909">
        <ele>15.625446</ele>
        <time>2020-08-30T08:22:51.283Z</time>
      </trkpt>
      <trkpt lat="60.14175" lon="18.50991">
        <ele>16.466638</ele>
        <time>2020-08-30T08:23:03.520Z</time>
      </trkpt>
      <trkpt lat="60.14172" lon="18.50999">
        <ele>16.546577</ele>
        <time>2020-08-30T08:23:04.607Z</time>
      </trkpt>
      <trkpt lat="60.14112" lon="18.5109">
        <ele>17.537079</ele>
        <time>2020-08-30T08:23:20.873Z</time>
      </trkpt>
      <trkpt lat="60.14085" lon="18.51115">
        <ele>17.77706</ele>
        <time>2020-08-30T08:23:27.093Z</time>
      </trkpt>
      <trkpt lat="60.1404" lon="18.51136">
        <ele>18.145935</ele>
        <time>2020-08-30T08:23:36.211Z</time>
      </trkpt>
      <trkpt lat="60.13999" lon="18.51153">
        <ele>18.478967</ele>
        <time>2020-08-30T08:23:44.217Z</time>
      </trkpt>
      <trkpt lat="60.13966" lon="18.51177">
        <ele>18.767244</ele>
        <time>2020-08-30T08:23:50.991Z</time>
      </trkpt>
      <trkpt lat="60.13889" lon="18.51282">
        <ele>19.799145</ele>
        <time>2020-08-30T08:24:10.691Z</time>
      </trkpt>
      <trkpt lat="60.13877" lon="18.51317">
        <ele>20.033189</ele>
        <time>2020-08-30T08:24:15.450Z</time>
      </trkpt>
      <trkpt lat="60.13878" lon="18.51414">
        <ele>20.565682</ele>
        <time>2020-08-30T08:24:26.175Z</time>
      </trkpt>
      <trkpt lat="60.13878" lon="18.51424">
        <ele>20.619447</ele>
        <time>2020-08-30T08:24:27.299Z</time>
      </trkpt>
      <trkpt lat="60.13877" lon="18.51572">
        <ele>21.386346</ele>
        <time>2020-08-30T08:24:43.714Z</time>
      </trkpt>
      <trkpt lat="60.13869" lon="18.51735">
        <ele>22.228281</ele>
        <time>2020-08-30T08:25:01.119Z</time>
      </trkpt>
      <trkpt lat="60.13859" lon="18.51778">
        <ele>22.468885</ele>
        <time>2020-08-30T08:25:05.904Z</time>
      </trkpt>
      <trkpt lat="60.13841" lon="18.51804">
        <ele>22.582494</ele>
        <time>2020-08-30T08:25:10.216Z</time>
      </trkpt>
      <trkpt lat="60.13775" lon="18.51832">
        <ele>22.61659</ele>
        <time>2020-08-30T08:25:22.253Z</time>
      </trkpt>
      <trkpt lat="60.13732" lon="18.51901">
        <ele>22.644111</ele>
        <time>2020-08-30T08:25:31.533Z</time>
      </trkpt>
      <trkpt lat="60.13709" lon="18.51963">
        <ele>22.663747</ele>
        <time>2020-08-30T08:25:38.106Z</time>
      </trkpt>
      <trkpt lat="60.13699" lon="18.52015">
        <ele>22.750075</ele>
        <time>2020-08-30T08:25:43.292Z</time>
      </trkpt>
      <trkpt lat="60.13672" lon="18.52081">
        <ele>22.916704</ele>
        <time>2020-08-30T08:25:51.579Z</time>
      </trkpt>
      <trkpt lat="60.13659" lon="18.52139">
        <ele>23.043117</ele>
        <time>2020-08-30T08:25:57.978Z</time>
      </trkpt>
      <trkpt lat="60.13648" lon="18.52249">
        <ele>23.262965</ele>
        <time>2020-08-30T08:26:08.897Z</time>
      </trkpt>
      <trkpt lat="60.13648" lon="18.52256">
        <ele>23.275435</ele>
        <time>2020-08-30T08:26:09.774Z</time>
      </trkpt>
      <trkpt lat="60.13645" lon="18.52308">
        <ele>23.371849</ele>
        <time>2020-08-30T08:26:14.723Z</time>
      </trkpt>
      <trkpt lat="60.13633" lon="18.52375">
        <ele>23.08927</ele>
        <time>2020-08-30T08:26:21.367Z</time>
      </trkpt>
      <trkpt lat="60.13582" lon="18.52503">
        <ele>22.435001</ele>
        <time>2020-08-30T08:26:35.229Z</time>
      </trkpt>
      <trkpt lat="60.13524" lon="18.52557">
        <ele>21.912176</ele>
        <time>2020-08-30T08:26:44.287Z</time>
      </trkpt>
      <trkpt lat="60.13499" lon="18.52627">
        <ele>20.865493</ele>
        <time>2020-08-30T08:26:50.102Z</time>
      </trkpt>
      <trkpt lat="60.13486" lon="18.52647">
        <ele>20.477166</ele>
        <time>2020-08-30T08:26:52.184Z</time>
      </trkpt>
      <trkpt lat="60.13463" lon="18.5266">
        <ele>19.909092</ele>
        <time>2020-08-30T08:26:55.380Z</time>
      </trkpt>
      <trkpt lat="60.13449" lon="18.52692">
        <ele>19.391328</ele>
        <time>2020-08-30T08:26:58.274Z</time>
      </trkpt>
      <trkpt lat="60.13442" lon="18.52721">
        <ele>19.000621</ele>
        <time>2020-08-30T08:27:00.456Z</time>
      </trkpt>
      <trkpt lat="60.13448" lon="18.52845">
        <ele>17.577098</ele>
        <time>2020-08-30T08:27:09.049Z</time>
      </trkpt>
      <trkpt lat="60.13438" lon="18.52871">
        <ele>17.440386</ele>
        <time>2020-08-30T08:27:11.264Z</time>
      </trkpt>
      <trkpt lat="60.13409" lon="18.52872">
        <ele>17.206153</ele>
        <time>2020-08-30T08:27:15.477Z</time>
      </trkpt>
      <trkpt lat="60.13391" lon="18.529">
        <ele>17.013293</ele>
        <time>2020-08-30T08:27:19.022Z</time>
      </trkpt>
      <trkpt lat="60.13378" lon="18.52951">
        <ele>16.775325</ele>
        <time>2020-08-30T08:27:23.457Z</time>
      </trkpt>
      <trkpt lat="60.13312" lon="18.5301">
        <ele>16.181085</ele>
        <time>2020-08-30T08:27:35.893Z</time>
      </trkpt>
      <trkpt lat="60.13277" lon="18.53163">
        <ele>16.612257</ele>
        <time>2020-08-30T08:27:52.670Z</time>
      </trkpt>
      <trkpt lat="60.13258" lon="18.532">
        <ele>16.784254</ele>
        <time>2020-08-30T08:27:58.032Z</time>
      </trkpt>
      <trkpt lat="60.13238" lon="18.5322">
        <ele>16.926533</ele>
        <time>2020-08-30T08:28:02.530Z</time>
      </trkpt>
      <trkpt lat="60.13197" lon="18.53239">
        <ele>17.201014</ele>
        <time>2020-08-30T08:28:11.390Z</time>
      </trkpt>
      <trkpt lat="60.13171" lon="18.5326">
        <ele>17.368997</ele>
        <time>2020-08-30T08:28:16.988Z</time>
      </trkpt>
      <trkpt lat="60.13136" lon="18.53314">
        <ele>17.621252</ele>
        <time>2020-08-30T08:28:25.469Z</time>
      </trkpt>
      <trkpt lat="60.1311" lon="18.53411">
        <ele>17.932588</ele>
        <time>2020-08-30T08:28:35.868Z</time>
      </trkpt>
      <trkpt lat="60.13104" lon="18.53421">
        <ele>17.97687</ele>
        <time>2020-08-30T08:28:37.465Z</time>
      </trkpt>
      <trkpt lat="60.13074" lon="18.53516">
        <ele>18.296679</ele>
        <time>2020-08-30T08:28:48.405Z</time>
      </trkpt>
      <trkpt lat="60.13058" lon="18.53571">
        <ele>18.80117</ele>
        <time>2020-08-30T08:28:54.964Z</time>
      </trkpt>
      <trkpt lat="60.13025" lon="18.53621">
        <ele>19.480525</ele>
        <time>2020-08-30T08:29:03.872Z</time>
      </trkpt>
      <trkpt lat="60.13007" lon="18.53668">
        <ele>19.964946</ele>
        <time>2020-08-30T08:29:10.512Z</time>
      </trkpt>
      <trkpt lat="60.12982" lon="18.53698">
        <ele>20.437684</ele>
        <time>2020-08-30T08:29:17.321Z</time>
      </trkpt>
      <trkpt lat="60.12929" lon="18.53707">
        <ele>21.344925</ele>
        <time>2020-08-30T08:29:31.013Z</time>
      </trkpt>
      <trkpt lat="60.1291" lon="18.53728">
        <ele>21.913863</ele>
        <time>2020-08-30T08:29:36.964Z</time>
      </trkpt>
      <trkpt lat="60.12882" lon="18.53788">
        <ele>22.972234</ele>
        <time>2020-08-30T08:29:48.176Z</time>
      </trkpt>
      <trkpt lat="60.12855" lon="18.53823">
        <ele>23.789093</ele>
        <time>2020-08-30T08:29:56.836Z</time>
      </trkpt>
      <trkpt lat="60.12839" lon="18.53827">
        <ele>24.212455</ele>
        <time>2020-08-30T08:30:01.310Z</time>
      </trkpt>
      <trkpt lat="60.12813" lon="18.53799">
        <ele>24.977916</ele>
        <time>2020-08-30T08:30:09.117Z</time>
      </trkpt>
      <trkpt lat="60.12789" lon="18.53791">
        <ele>25.616311</ele>
        <time>2020-08-30T08:30:15.395Z</time>
      </trkpt>
      <trkpt lat="60.12761" lon="18.53797">
        <ele>26.012566</ele>
        <time>2020-08-30T08:30:22.071Z</time>
      </trkpt>
      <trkpt lat="60.12735" lon="18.53773">
        <ele>26.196286</ele>
        <time>2020-08-30T08:30:28.574Z</time>
      </trkpt>
      <trkpt lat="60.12695" lon="18.53722">
        <ele>26.502874</ele>
        <time>2020-08-30T08:30:38.544Z</time>
      </trkpt>
      <trkpt lat="60.12595" lon="18.53553">
        <ele>26.777407</ele>
        <time>2020-08-30T08:31:00.785Z</time>
      </trkpt>
      <trkpt lat="60.12583" lon="18.5351">
        <ele>26.614431</ele>
        <time>2020-08-30T08:31:04.734Z</time>
      </trkpt>
      <trkpt lat="60.12564" lon="18.53473">
        <ele>26.444268</ele>
        <time>2020-08-30T08:31:08.829Z</time>
      </trkpt>
      <trkpt lat="60.12531" lon="18.53443">
        <ele>26.207708</ele>
        <time>2020-08-30T08:31:14.581Z</time>
      </trkpt>
      <trkpt lat="60.12499" lon="18.53428">
        <ele>25.98922</ele>
        <time>2020-08-30T08:31:19.940Z</time>
      </trkpt>
      <trkpt lat="60.12442" lon="18.53445">
        <ele>25.447216</ele>
        <time>2020-08-30T08:31:29.080Z</time>
      </trkpt>
      <trkpt lat="60.12367" lon="18.53495">
        <ele>24.623777</ele>
        <time>2020-08-30T08:31:41.321Z</time>
      </trkpt>
      <trkpt lat="60.12318" lon="18.53529">
        <ele>24.088342</ele>
        <time>2020-08-30T08:31:49.141Z</time>
      </trkpt>
      <trkpt lat="60.12304" lon="18.53539">
        <ele>23.892659</ele>
        <time>2020-08-30T08:31:51.361Z</time>
      </trkpt>
      <trkpt lat="60.12216" lon="18.53643">
        <ele>22.355035</ele>
        <time>2020-08-30T08:32:06.500Z</time>
      </trkpt>
      <trkpt lat="60.12202" lon="18.53652">
        <ele>22.130667</ele>
        <time>2020-08-30T08:32:08.605Z</time>
      </trkpt>
      <trkpt lat="60.12196" lon="18.53656">
        <ele>22.0374</ele>
        <time>2020-08-30T08:32:09.549Z</time>
      </trkpt>
      <trkpt lat="60.12133" lon="18.53617">
        <ele>21.029467</ele>
        <time>2020-08-30T08:32:19.053Z</time>
      </trkpt>
      <trkpt lat="60.12103" lon="18.53616">
        <ele>20.543975</ele>
        <time>2020-08-30T08:32:23.432Z</time>
      </trkpt>
      <trkpt lat="60.12087" lon="18.53628">
        <ele>20.262184</ele>
        <time>2020-08-30T08:32:25.943Z</time>
      </trkpt>
      <trkpt lat="60.12037" lon="18.53712">
        <ele>19.21333</ele>
        <time>2020-08-30T08:32:35.281Z</time>
      </trkpt>
      <trkpt lat="60.11907" lon="18.53831">
        <ele>17.267643</ele>
        <time>2020-08-30T08:32:56.205Z</time>
      </trkpt>
      <trkpt lat="60.11881" lon="18.53868">
        <ele>16.886729</ele>
        <time>2020-08-30T08:33:00.991Z</time>
      </trkpt>
      <trkpt lat="60.11841" lon="18.53968">
        <ele>16.224095</ele>
        <time>2020-08-30T08:33:11.267Z</time>
      </trkpt>
      <trkpt lat="60.11808" lon="18.54017">
        <ele>16.334739</ele>
        <time>2020-08-30T08:33:18.236Z</time>
      </trkpt>
      <trkpt lat="60.11752" lon="18.5407">
        <ele>16.502175</ele>
        <time>2020-08-30T08:33:29.705Z</time>
      </trkpt>
      <trkpt lat="60.11506" lon="18.54154">
        <ele>18.197841</ele>
        <time>2020-08-30T08:34:21.230Z</time>
      </trkpt>
      <trkpt lat="60.11388" lon="18.54205">
        <ele>19.15828</ele>
        <time>2020-08-30T08:34:45.630Z</time>
      </trkpt>
      <trkpt lat="60.1132" lon="18.5423">
        <ele>19.705995</ele>
        <time>2020-08-30T08:34:59.630Z</time>
      </trkpt>
      <trkpt lat="60.1131" lon="18.54249">
        <ele>19.802811</ele>
        <time>2020-08-30T08:35:02.361Z</time>
      </trkpt>
      <trkpt lat="60.11286" lon="18.54305">
        <ele>20.071582</ele>
        <time>2020-08-30T08:35:09.912Z</time>
      </trkpt>
      <trkpt lat="60.11244" lon="18.54342">
        <ele>20.399629</ele>
        <time>2020-08-30T08:35:19.176Z</time>
      </trkpt>
      <trkpt lat="60.11209" lon="18.54395">
        <ele>20.717032</ele>
        <time>2020-08-30T08:35:28.123Z</time>
      </trkpt>
      <trkpt lat="60.11167" lon="18.54429">
        <ele>20.976171</ele>
        <time>2020-08-30T08:35:37.051Z</time>
      </trkpt>
      <trkpt lat="60.11144" lon="18.54468">
        <ele>21.06963</ele>
        <time>2020-08-30T08:35:43.027Z</time>
      </trkpt>
      <trkpt lat="60.11113" lon="18.54581">
        <ele>21.26725</ele>
        <time>2020-08-30T08:35:55.305Z</time>
      </trkpt>
      <trkpt lat="60.11083" lon="18.54722">
        <ele>21.460772</ele>
        <time>2020-08-30T08:36:09.093Z</time>
      </trkpt>
      <trkpt lat="60.11059" lon="18.54799">
        <ele>21.322551</ele>
        <time>2020-08-30T08:36:17.090Z</time>
      </trkpt>
      <trkpt lat="60.11008" lon="18.54928">
        <ele>21.077003</ele>
        <time>2020-08-30T08:36:30.846Z</time>
      </trkpt>
      <trkpt lat="60.10972" lon="18.55066">
        <ele>20.72244</ele>
        <time>2020-08-30T08:36:43.651Z</time>
      </trkpt>
      <trkpt lat="60.10951" lon="18.55105">
        <ele>20.527405</ele>
        <time>2020-08-30T08:36:48.317Z</time>
      </trkpt>
      <trkpt lat="60.10926" lon="18.55134">
        <ele>20.331012</ele>
        <time>2020-08-30T08:36:52.966Z</time>
      </trkpt>
      <trkpt lat="60.10851" lon="18.55183">
        <ele>19.795404</ele>
        <time>2020-08-30T08:37:05.485Z</time>
      </trkpt>
      <trkpt lat="60.10828" lon="18.55211">
        <ele>19.615412</ele>
        <time>2020-08-30T08:37:09.774Z</time>
      </trkpt>
      <trkpt lat="60.1077" lon="18.55358">
        <ele>19.01068</ele>
        <time>2020-08-30T08:37:24.621Z</time>
      </trkpt>
      <trkpt lat="60.10739" lon="18.55426">
        <ele>18.712537</ele>
        <time>2020-08-30T08:37:32.106Z</time>
      </trkpt>
      <trkpt lat="60.10698" lon="18.55492">
        <ele>18.482129</ele>
        <time>2020-08-30T08:37:40.845Z</time>
      </trkpt>
      <trkpt lat="60.1065" lon="18.55603">
        <ele>18.304716</ele>
        <time>2020-08-30T08:37:53.336Z</time>
      </trkpt>
      <trkpt lat="60.10631" lon="18.55631">
        <ele>18.249437</ele>
        <time>2020-08-30T08:37:57.291Z</time>
      </trkpt>
      <trkpt lat="60.10598" lon="18.55658">
        <ele>18.162049</ele>
        <time>2020-08-30T08:38:03.613Z</time>
      </trkpt>
      <trkpt lat="60.10524" lon="18.55786">
        <ele>18.099476</ele>
        <time>2020-08-30T08:38:21.013Z</time>
      </trkpt>
      <trkpt lat="60.10484" lon="18.55834">
        <ele>18.091205</ele>
        <time>2020-08-30T08:38:29.441Z</time>
      </trkpt>
      <trkpt lat="60.10436" lon="18.55873">
        <ele>18.081984</ele>
        <time>2020-08-30T08:38:38.889Z</time>
      </trkpt>
      <trkpt lat="60.10403" lon="18.55957">
        <ele>17.798972</ele>
        <time>2020-08-30T08:38:47.816Z</time>
      </trkpt>
      <trkpt lat="60.10396" lon="18.56">
        <ele>17.667864</ele>
        <time>2020-08-30T08:38:51.814Z</time>
      </trkpt>
      <trkpt lat="60.10386" lon="18.56028">
        <ele>17.569922</ele>
        <time>2020-08-30T08:38:54.467Z</time>
      </trkpt>
      <trkpt lat="60.10371" lon="18.56057">
        <ele>17.450457</ele>
        <time>2020-08-30T08:38:58.057Z</time>
      </trkpt>
      <trkpt lat="60.10368" lon="18.56062">
        <ele>17.428144</ele>
        <time>2020-08-30T08:38:58.580Z</time>
      </trkpt>
      <trkpt lat="60.10347" lon="18.56116">
        <ele>17.232913</ele>
        <time>2020-08-30T08:39:04.073Z</time>
      </trkpt>
      <trkpt lat="60.10278" lon="18.56188">
        <ele>16.576369</ele>
        <time>2020-08-30T08:39:16.103Z</time>
      </trkpt>
      <trkpt lat="60.102" lon="18.56209">
        <ele>15.766911</ele>
        <time>2020-08-30T08:39:28.024Z</time>
      </trkpt>
      <trkpt lat="60.10159" lon="18.56236">
        <ele>15.322108</ele>
        <time>2020-08-30T08:39:34.686Z</time>
      </trkpt>
      <trkpt lat="60.10145" lon="18.56262">
        <ele>15.134361</ele>
        <time>2020-08-30T08:39:37.634Z</time>
      </trkpt>
      <trkpt lat="60.1014" lon="18.56298">
        <ele>14.961763</ele>
        <time>2020-08-30T08:39:40.611Z</time>
      </trkpt>
      <trkpt lat="60.10141" lon="18.56348">
        <ele>14.734402</ele>
        <time>2020-08-30T08:39:44.551Z</time>
      </trkpt>
      <trkpt lat="60.10137" lon="18.56388">
        <ele>14.547896</ele>
        <time>2020-08-30T08:39:47.799Z</time>
      </trkpt>
      <trkpt lat="60.10121" lon="18.56426">
        <ele>14.318933</ele>
        <time>2020-08-30T08:39:51.772Z</time>
      </trkpt>
      <trkpt lat="60.10019" lon="18.56514">
        <ele>13.23586</ele>
        <time>2020-08-30T08:40:09.186Z</time>
      </trkpt>
      <trkpt lat="60.09891" lon="18.56709">
        <ele>11.445478</ele>
        <time>2020-08-30T08:40:33.432Z</time>
      </trkpt>
      <trkpt lat="60.09864" lon="18.56746">
        <ele>11.227035</ele>
        <time>2020-08-30T08:40:38.390Z</time>
      </trkpt>
      <trkpt lat="60.09851" lon="18.56763">
        <ele>11.122559</ele>
        <time>2020-08-30T08:40:40.787Z</time>
      </trkpt>
      <trkpt lat="60.09801" lon="18.5685">
        <ele>10.681035</ele>
        <time>2020-08-30T08:40:51.220Z</time>
      </trkpt>
      <trkpt lat="60.09774" lon="18.56915">
        <ele>10.394301</ele>
        <time>2020-08-30T08:40:58.233Z</time>
      </trkpt>
      <trkpt lat="60.09646" lon="18.57284">
        <ele>10.976209</ele>
        <time>2020-08-30T08:41:40.769Z</time>
      </trkpt>
      <trkpt lat="60.09639" lon="18.57298">
        <ele>11.020187</ele>
        <time>2020-08-30T08:41:43.051Z</time>
      </trkpt>
      <trkpt lat="60.09629" lon="18.5731">
        <ele>11.067507</ele>
        <time>2020-08-30T08:41:45.244Z</time>
      </trkpt>
      <trkpt lat="60.09618" lon="18.57325">
        <ele>11.124077</ele>
        <time>2020-08-30T08:41:47.741Z</time>
      </trkpt>
      <trkpt lat="60.09598" lon="18.57339">
        <ele>11.214668</ele>
        <time>2020-08-30T08:41:52.178Z</time>
      </trkpt>
      <trkpt lat="60.09465" lon="18.57415">
        <ele>11.585888</ele>
        <time>2020-08-30T08:42:18.118Z</time>
      </trkpt>
      <trkpt lat="60.09413" lon="18.57428">
        <ele>11.539794</ele>
        <time>2020-08-30T08:42:26.864Z</time>
      </trkpt>
      <trkpt lat="60.09393" lon="18.57448">
        <ele>11.520593</ele>
        <time>2020-08-30T08:42:30.583Z</time>
      </trkpt>
      <trkpt lat="60.09333" lon="18.57539">
        <ele>11.59884</ele>
        <time>2020-08-30T08:42:43.690Z</time>
      </trkpt>
      <trkpt lat="60.09316" lon="18.57541">
        <ele>11.765597</ele>
        <time>2020-08-30T08:42:46.699Z</time>
      </trkpt>
      <trkpt lat="60.09155" lon="18.57415">
        <ele>13.612886</ele>
        <time>2020-08-30T08:43:24.074Z</time>
      </trkpt>
      <trkpt lat="60.09136" lon="18.57412">
        <ele>13.920619</ele>
        <time>2020-08-30T08:43:28.733Z</time>
      </trkpt>
      <trkpt lat="60.09087" lon="18.57432">
        <ele>14.755696</ele>
        <time>2020-08-30T08:43:41.174Z</time>
      </trkpt>
      <trkpt lat="60.09" lon="18.57432">
        <ele>16.171649</ele>
        <time>2020-08-30T08:44:01.471Z</time>
      </trkpt>
      <trkpt lat="60.08989" lon="18.5744">
        <ele>16.212566</ele>
        <time>2020-08-30T08:44:04.106Z</time>
      </trkpt>
      <trkpt lat="60.08967" lon="18.57478">
        <ele>16.278524</ele>
        <time>2020-08-30T08:44:09.998Z</time>
      </trkpt>
      <trkpt lat="60.08924" lon="18.57451">
        <ele>16.380339</ele>
        <time>2020-08-30T08:44:18.500Z</time>
      </trkpt>
      <trkpt lat="60.08867" lon="18.57517">
        <ele>16.528805</ele>
        <time>2020-08-30T08:44:30.016Z</time>
      </trkpt>
      <trkpt lat="60.08846" lon="18.57594">
        <ele>16.495889</ele>
        <time>2020-08-30T08:44:37.047Z</time>
      </trkpt>
      <trkpt lat="60.08837" lon="18.57621">
        <ele>16.38315</ele>
        <time>2020-08-30T08:44:39.698Z</time>
      </trkpt>
      <trkpt lat="60.08823" lon="18.57634">
        <ele>16.275362</ele>
        <time>2020-08-30T08:44:42.100Z</time>
      </trkpt>
      <trkpt lat="60.08777" lon="18.57641">
        <ele>15.947093</ele>
        <time>2020-08-30T08:44:49.486Z</time>
      </trkpt>
      <trkpt lat="60.08756" lon="18.57653">
        <ele>15.798934</ele>
        <time>2020-08-30T08:44:52.849Z</time>
      </trkpt>
      <trkpt lat="60.08727" lon="18.57691">
        <ele>15.554642</ele>
        <time>2020-08-30T08:44:58.350Z</time>
      </trkpt>
      <trkpt lat="60.08684" lon="18.57794">
        <ele>15.133447</ele>
        <time>2020-08-30T08:45:09.317Z</time>
      </trkpt>
      <trkpt lat="60.08666" lon="18.57819">
        <ele>15.010663</ele>
        <time>2020-08-30T08:45:12.872Z</time>
      </trkpt>
      <trkpt lat="60.08628" lon="18.57848">
        <ele>14.784087</ele>
        <time>2020-08-30T08:45:19.391Z</time>
      </trkpt>
      <trkpt lat="60.08587" lon="18.5786">
        <ele>14.548221</ele>
        <time>2020-08-30T08:45:26.270Z</time>
      </trkpt>
      <trkpt lat="60.08558" lon="18.57855">
        <ele>14.383186</ele>
        <time>2020-08-30T08:45:31.131Z</time>
      </trkpt>
      <trkpt lat="60.0848" lon="18.57883">
        <ele>13.982316</ele>
        <time>2020-08-30T08:45:44.157Z</time>
      </trkpt>
      <trkpt lat="60.08456" lon="18.57884">
        <ele>13.863252</ele>
        <time>2020-08-30T08:45:48.105Z</time>
      </trkpt>
      <trkpt lat="60.08398" lon="18.57914">
        <ele>13.566656</ele>
        <time>2020-08-30T08:45:57.960Z</time>
      </trkpt>
      <trkpt lat="60.08386" lon="18.57915">
        <ele>13.505369</ele>
        <time>2020-08-30T08:45:59.995Z</time>
      </trkpt>
      <trkpt lat="60.08346" lon="18.57885">
        <ele>13.283458</ele>
        <time>2020-08-30T08:46:06.881Z</time>
      </trkpt>
      <trkpt lat="60.08325" lon="18.57894">
        <ele>13.164465</ele>
        <time>2020-08-30T08:46:10.627Z</time>
      </trkpt>
      <trkpt lat="60.08284" lon="18.57894">
        <ele>12.940138</ele>
        <time>2020-08-30T08:46:17.454Z</time>
      </trkpt>
      <trkpt lat="60.08277" lon="18.57894">
        <ele>12.900996</ele>
        <time>2020-08-30T08:46:18.534Z</time>
      </trkpt>
      <trkpt lat="60.08253" lon="18.57891">
        <ele>12.774142</ele>
        <time>2020-08-30T08:46:22.499Z</time>
      </trkpt>
      <trkpt lat="60.08186" lon="18.5789">
        <ele>12.398307</ele>
        <time>2020-08-30T08:46:33.366Z</time>
      </trkpt>
      <trkpt lat="60.08135" lon="18.57937">
        <ele>12.011074</ele>
        <time>2020-08-30T08:46:42.308Z</time>
      </trkpt>
      <trkpt lat="60.08111" lon="18.57944">
        <ele>11.84138</ele>
        <time>2020-08-30T08:46:46.334Z</time>
      </trkpt>
      <trkpt lat="60.08075" lon="18.57945">
        <ele>11.589291</ele>
        <time>2020-08-30T08:46:52.198Z</time>
      </trkpt>
      <trkpt lat="60.08022" lon="18.57917">
        <ele>11.211575</ele>
        <time>2020-08-30T08:47:00.859Z</time>
      </trkpt>
      <trkpt lat="60.07995" lon="18.57923">
        <ele>11.015261</ele>
        <time>2020-08-30T08:47:05.190Z</time>
      </trkpt>
      <trkpt lat="60.07936" lon="18.57992">
        <ele>10.530406</ele>
        <time>2020-08-30T08:47:15.798Z</time>
      </trkpt>
      <trkpt lat="60.07898" lon="18.57999">
        <ele>10.255911</ele>
        <time>2020-08-30T08:47:21.838Z</time>
      </trkpt>
      <trkpt lat="60.0774" lon="18.58096">
        <ele>9.949199</ele>
        <time>2020-08-30T08:47:49.321Z</time>
      </trkpt>
      <trkpt lat="60.07696" lon="18.58109">
        <ele>9.960562</ele>
        <time>2020-08-30T08:47:58.057Z</time>
      </trkpt>
      <trkpt lat="60.07643" lon="18.5812">
        <ele>10.534635</ele>
        <time>2020-08-30T08:48:09.347Z</time>
      </trkpt>
      <trkpt lat="60.07619" lon="18.58124">
        <ele>10.923961</ele>
        <time>2020-08-30T08:48:14.931Z</time>
      </trkpt>
      <trkpt lat="60.07564" lon="18.58122">
        <ele>11.815866</ele>
        <time>2020-08-30T08:48:27.912Z</time>
      </trkpt>
      <trkpt lat="60.07538" lon="18.58109">
        <ele>12.245692</ele>
        <time>2020-08-30T08:48:34.367Z</time>
      </trkpt>
      <trkpt lat="60.07503" lon="18.58117">
        <ele>12.808117</ele>
        <time>2020-08-30T08:48:42.944Z</time>
      </trkpt>
      <trkpt lat="60.0745" lon="18.58104">
        <ele>13.661778</ele>
        <time>2020-08-30T08:48:55.971Z</time>
      </trkpt>
      <trkpt lat="60.07363" lon="18.58127">
        <ele>15.037831</ele>
        <time>2020-08-30T08:49:15.739Z</time>
      </trkpt>
      <trkpt lat="60.0732" lon="18.58121">
        <ele>15.711887</ele>
        <time>2020-08-30T08:49:25.137Z</time>
      </trkpt>
      <trkpt lat="60.07309" lon="18.58128">
        <ele>15.830224</ele>
        <time>2020-08-30T08:49:27.686Z</time>
      </trkpt>
      <trkpt lat="60.07253" lon="18.58201">
        <ele>16.488118</ele>
        <time>2020-08-30T08:49:42.109Z</time>
      </trkpt>
      <trkpt lat="60.07231" lon="18.58208">
        <ele>16.708465</ele>
        <time>2020-08-30T08:49:46.843Z</time>
      </trkpt>
      <trkpt lat="60.07217" lon="18.58204">
        <ele>16.846578</ele>
        <time>2020-08-30T08:49:50.008Z</time>
      </trkpt>
      <trkpt lat="60.07174" lon="18.58161">
        <ele>17.323051</ele>
        <time>2020-08-30T08:49:59.795Z</time>
      </trkpt>
      <trkpt lat="60.07137" lon="18.58151">
        <ele>17.413294</ele>
        <time>2020-08-30T08:50:07.064Z</time>
      </trkpt>
      <trkpt lat="60.07112" lon="18.58127">
        <ele>17.32922</ele>
        <time>2020-08-30T08:50:12.400Z</time>
      </trkpt>
      <trkpt lat="60.07099" lon="18.58125">
        <ele>17.290691</ele>
        <time>2020-08-30T08:50:14.434Z</time>
      </trkpt>
      <trkpt lat="60.0708" lon="18.5814">
        <ele>17.228053</ele>
        <time>2020-08-30T08:50:18.245Z</time>
      </trkpt>
      <trkpt lat="60.07054" lon="18.58178">
        <ele>17.130684</ele>
        <time>2020-08-30T08:50:23.555Z</time>
      </trkpt>
      <trkpt lat="60.07013" lon="18.58227">
        <ele>16.984847</ele>
        <time>2020-08-30T08:50:31.189Z</time>
      </trkpt>
      <trkpt lat="60.06912" lon="18.58317">
        <ele>15.849489</ele>
        <time>2020-08-30T08:50:47.637Z</time>
      </trkpt>
      <trkpt lat="60.06864" lon="18.58328">
        <ele>15.291347</ele>
        <time>2020-08-30T08:50:54.965Z</time>
      </trkpt>
      <trkpt lat="60.06821" lon="18.58358">
        <ele>14.788864</ele>
        <time>2020-08-30T08:51:02.114Z</time>
      </trkpt>
      <trkpt lat="60.06783" lon="18.58371">
        <ele>14.418525</ele>
        <time>2020-08-30T08:51:08.332Z</time>
      </trkpt>
      <trkpt lat="60.06727" lon="18.58365">
        <ele>13.886194</ele>
        <time>2020-08-30T08:51:17.026Z</time>
      </trkpt>
      <trkpt lat="60.06709" lon="18.58358">
        <ele>13.708688</ele>
        <time>2020-08-30T08:51:20.034Z</time>
      </trkpt>
      <trkpt lat="60.06668" lon="18.58366">
        <ele>13.315798</ele>
        <time>2020-08-30T08:51:26.311Z</time>
      </trkpt>
      <trkpt lat="60.06633" lon="18.58372">
        <ele>13.00694</ele>
        <time>2020-08-30T08:51:31.634Z</time>
      </trkpt>
      <trkpt lat="60.06597" lon="18.58387">
        <ele>12.696428</ele>
        <time>2020-08-30T08:51:37.349Z</time>
      </trkpt>
      <trkpt lat="60.06545" lon="18.58414">
        <ele>12.247673</ele>
        <time>2020-08-30T08:51:45.558Z</time>
      </trkpt>
      <trkpt lat="60.06474" lon="18.58449">
        <ele>11.64695</ele>
        <time>2020-08-30T08:51:56.890Z</time>
      </trkpt>
      <trkpt lat="60.06297" lon="18.58489">
        <ele>12.541142</ele>
        <time>2020-08-30T08:52:31.669Z</time>
      </trkpt>
      <trkpt lat="60.06229" lon="18.58519">
        <ele>13.703811</ele>
        <time>2020-08-30T08:52:47.800Z</time>
      </trkpt>
      <trkpt lat="60.06188" lon="18.58523">
        <ele>14.379621</ele>
        <time>2020-08-30T08:52:57.810Z</time>
      </trkpt>
      <trkpt lat="60.06155" lon="18.58537">
        <ele>14.950997</ele>
        <time>2020-08-30T08:53:06.173Z</time>
      </trkpt>
      <trkpt lat="60.06095" lon="18.58521">
        <ele>15.723646</ele>
        <time>2020-08-30T08:53:20.437Z</time>
      </trkpt>
      <trkpt lat="60.06075" lon="18.58517">
        <ele>15.854007</ele>
        <time>2020-08-30T08:53:25.080Z</time>
      </trkpt>
      <trkpt lat="60.06065" lon="18.5852">
        <ele>15.920289</ele>
        <time>2020-08-30T08:53:27.113Z</time>
      </trkpt>
      <trkpt lat="60.06035" lon="18.58533">
        <ele>16.126428</ele>
        <time>2020-08-30T08:53:33.805Z</time>
      </trkpt>
      <trkpt lat="60.05917" lon="18.58591">
        <ele>16.426222</ele>
        <time>2020-08-30T08:53:55.644Z</time>
      </trkpt>
      <trkpt lat="60.05884" lon="18.58598">
        <ele>16.017092</ele>
        <time>2020-08-30T08:54:00.645Z</time>
      </trkpt>
      <trkpt lat="60.0585" lon="18.58628">
        <ele>15.548465</ele>
        <time>2020-08-30T08:54:06.196Z</time>
      </trkpt>
      <trkpt lat="60.05831" lon="18.58655">
        <ele>15.255721</ele>
        <time>2020-08-30T08:54:09.592Z</time>
      </trkpt>
      <trkpt lat="60.05791" lon="18.58662">
        <ele>14.756444</ele>
        <time>2020-08-30T08:54:15.361Z</time>
      </trkpt>
      <trkpt lat="60.05779" lon="18.5865">
        <ele>14.586722</ele>
        <time>2020-08-30T08:54:17.351Z</time>
      </trkpt>
      <trkpt lat="60.05766" lon="18.58647">
        <ele>14.390448</ele>
        <time>2020-08-30T08:54:19.074Z</time>
      </trkpt>
      <trkpt lat="60.05731" lon="18.58664">
        <ele>13.703073</ele>
        <time>2020-08-30T08:54:24.253Z</time>
      </trkpt>
      <trkpt lat="60.05646" lon="18.58739">
        <ele>11.967136</ele>
        <time>2020-08-30T08:54:37.526Z</time>
      </trkpt>
      <trkpt lat="60.05588" lon="18.58767">
        <ele>10.923331</ele>
        <time>2020-08-30T08:54:45.884Z</time>
      </trkpt>
      <trkpt lat="60.0552" lon="18.58782">
        <ele>9.941561</ele>
        <time>2020-08-30T08:54:55.838Z</time>
      </trkpt>
      <trkpt lat="60.05476" lon="18.58784">
        <ele>9.325764</ele>
        <time>2020-08-30T08:55:02.276Z</time>
      </trkpt>
      <trkpt lat="60.05418" lon="18.58777">
        <ele>8.538488</ele>
        <time>2020-08-30T08:55:11.384Z</time>
      </trkpt>
      <trkpt lat="60.05418" lon="18.58789">
        <ele>8.500764</ele>
        <time>2020-08-30T08:55:12.255Z</time>
      </trkpt>
      <trkpt lat="60.05352" lon="18.58786">
        <ele>8.08502</ele>
        <time>2020-08-30T08:55:23.321Z</time>
      </trkpt>
      <trkpt lat="60.05249" lon="18.58781">
        <ele>7.441706</ele>
        <time>2020-08-30T08:55:41.126Z</time>
      </trkpt>
      <trkpt lat="60.05193" lon="18.58775">
        <ele>7.306619</ele>
        <time>2020-08-30T08:55:51.023Z</time>
      </trkpt>
      <trkpt lat="60.05152" lon="18.58773">
        <ele>7.205079</ele>
        <time>2020-08-30T08:55:58.543Z</time>
      </trkpt>
      <trkpt lat="60.05057" lon="18.58762">
        <ele>6.996189</ele>
        <time>2020-08-30T08:56:15.484Z</time>
      </trkpt>
      <trkpt lat="60.05002" lon="18.58756">
        <ele>6.950504</ele>
        <time>2020-08-30T08:56:25.384Z</time>
      </trkpt>
      <trkpt lat="60.04988" lon="18.58757">
        <ele>6.939148</ele>
        <time>2020-08-30T08:56:27.846Z</time>
      </trkpt>
      <trkpt lat="60.04979" lon="18.58763">
        <ele>6.931417</ele>
        <time>2020-08-30T08:56:29.506Z</time>
      </trkpt>
      <trkpt lat="60.04987" lon="18.58871">
        <ele>6.886938</ele>
        <time>2020-08-30T08:56:39.326Z</time>
      </trkpt>
      <trkpt lat="60.04996" lon="18.58987">
        <ele>7.282189</ele>
        <time>2020-08-30T08:56:50.802Z</time>
      </trkpt>
      <trkpt lat="60.05" lon="18.59037">
        <ele>7.706446</ele>
        <time>2020-08-30T08:56:56.091Z</time>
      </trkpt>
      <trkpt lat="60.05003" lon="18.59093">
        <ele>8.171897</ele>
        <time>2020-08-30T08:57:02.085Z</time>
      </trkpt>
      <trkpt lat="60.05036" lon="18.5946">
        <ele>12.094137</ele>
        <time>2020-08-30T08:57:51.958Z</time>
      </trkpt>
      <trkpt lat="60.05038" lon="18.59468">
        <ele>12.214097</ele>
        <time>2020-08-30T08:57:53.450Z</time>
      </trkpt>
      <trkpt lat="60.05047" lon="18.59479">
        <ele>12.471147</ele>
        <time>2020-08-30T08:57:56.233Z</time>
      </trkpt>
      <trkpt lat="60.05049" lon="18.59506">
        <ele>12.839939</ele>
        <time>2020-08-30T08:58:00.217Z</time>
      </trkpt>
      <trkpt lat="60.05051" lon="18.59518">
        <ele>13.000131</ele>
        <time>2020-08-30T08:58:01.903Z</time>
      </trkpt>
      <trkpt lat="60.0505" lon="18.59519">
        <ele>13.040756</ele>
        <time>2020-08-30T08:58:02.392Z</time>
      </trkpt>
      <trkpt lat="60.05046" lon="18.59531">
        <ele>13.227528</ele>
        <time>2020-08-30T08:58:04.462Z</time>
      </trkpt>
      <trkpt lat="60.05044" lon="18.59534">
        <ele>13.288052</ele>
        <time>2020-08-30T08:58:05.172Z</time>
      </trkpt>
      <trkpt lat="60.05059" lon="18.59708">
        <ele>15.232813</ele>
        <time>2020-08-30T08:58:28.117Z</time>
      </trkpt>
      <trkpt lat="60.0507" lon="18.59734">
        <ele>15.523675</ele>
        <time>2020-08-30T08:58:32.495Z</time>
      </trkpt>
      <trkpt lat="60.05072" lon="18.59749">
        <ele>15.650066</ele>
        <time>2020-08-30T08:58:34.435Z</time>
      </trkpt>
      <trkpt lat="60.05073" lon="18.59756">
        <ele>15.711846</ele>
        <time>2020-08-30T08:58:35.252Z</time>
      </trkpt>
      <trkpt lat="60.05074" lon="18.59762">
        <ele>15.757893</ele>
        <time>2020-08-30T08:58:35.919Z</time>
      </trkpt>
      <trkpt lat="60.05074" lon="18.59767">
        <ele>15.806884</ele>
        <time>2020-08-30T08:58:36.625Z</time>
      </trkpt>
      <trkpt lat="60.0507" lon="18.5977">
        <ele>15.882532</ele>
        <time>2020-08-30T08:58:37.704Z</time>
      </trkpt>
      <trkpt lat="60.05068" lon="18.59776">
        <ele>15.939904</ele>
        <time>2020-08-30T08:58:38.501Z</time>
      </trkpt>
      <trkpt lat="60.05067" lon="18.59785">
        <ele>16.016814</ele>
        <time>2020-08-30T08:58:39.627Z</time>
      </trkpt>
      <trkpt lat="60.05063" lon="18.59788">
        <ele>16.085764</ele>
        <time>2020-08-30T08:58:40.489Z</time>
      </trkpt>
      <trkpt lat="60.05056" lon="18.59792">
        <ele>16.215782</ele>
        <time>2020-08-30T08:58:42.442Z</time>
      </trkpt>
      <trkpt lat="60.05052" lon="18.59793">
        <ele>16.283217</ele>
        <time>2020-08-30T08:58:43.234Z</time>
      </trkpt>
      <trkpt lat="60.05044" lon="18.5978">
        <ele>16.454003</ele>
        <time>2020-08-30T08:58:45.391Z</time>
      </trkpt>
      <trkpt lat="60.05008" lon="18.59775">
        <ele>17.05045</ele>
        <time>2020-08-30T08:58:53.496Z</time>
      </trkpt>
      <trkpt lat="60.04968" lon="18.5977">
        <ele>17.734857</ele>
        <time>2020-08-30T08:59:02.539Z</time>
      </trkpt>
      <trkpt lat="60.0493" lon="18.59764">
        <ele>18.462181</ele>
        <time>2020-08-30T08:59:11.183Z</time>
      </trkpt>
      <trkpt lat="60.04892" lon="18.59764">
        <ele>19.187271</ele>
        <time>2020-08-30T08:59:20.019Z</time>
      </trkpt>
      <trkpt lat="60.04878" lon="18.59766">
        <ele>19.461165</ele>
        <time>2020-08-30T08:59:23.335Z</time>
      </trkpt>
      <trkpt lat="60.04857" lon="18.59774">
        <ele>19.877099</ele>
        <time>2020-08-30T08:59:29.022Z</time>
      </trkpt>
      <trkpt lat="60.04773" lon="18.59839">
        <ele>21.561912</ele>
        <time>2020-08-30T08:59:53.349Z</time>
      </trkpt>
      <trkpt lat="60.04766" lon="18.59838">
        <ele>21.67657</ele>
        <time>2020-08-30T08:59:55.401Z</time>
      </trkpt>
      <trkpt lat="60.04756" lon="18.59847">
        <ele>21.878793</ele>
        <time>2020-08-30T08:59:58.390Z</time>
      </trkpt>
      <trkpt lat="60.04736" lon="18.59864">
        <ele>22.262035</ele>
        <time>2020-08-30T09:00:03.887Z</time>
      </trkpt>
      <trkpt lat="60.04689" lon="18.59909">
        <ele>23.182391</ele>
        <time>2020-08-30T09:00:16.350Z</time>
      </trkpt>
      <trkpt lat="60.04664" lon="18.5993">
        <ele>23.67764</ele>
        <time>2020-08-30T09:00:22.420Z</time>
      </trkpt>
      <trkpt lat="60.04655" lon="18.59941">
        <ele>23.870195</ele>
        <time>2020-08-30T09:00:24.618Z</time>
      </trkpt>
      <trkpt lat="60.04626" lon="18.5995">
        <ele>24.175237</ele>
        <time>2020-08-30T09:00:30.516Z</time>
      </trkpt>
      <trkpt lat="60.04606" lon="18.59949">
        <ele>24.077257</ele>
        <time>2020-08-30T09:00:34.080Z</time>
      </trkpt>
      <trkpt lat="60.04585" lon="18.59937">
        <ele>23.973265</ele>
        <time>2020-08-30T09:00:37.663Z</time>
      </trkpt>
      <trkpt lat="60.04563" lon="18.59917">
        <ele>23.855589</ele>
        <time>2020-08-30T09:00:41.543Z</time>
      </trkpt>
      <trkpt lat="60.04555" lon="18.59911">
        <ele>23.814034</ele>
        <time>2020-08-30T09:00:42.915Z</time>
      </trkpt>
      <trkpt lat="60.04524" lon="18.59883">
        <ele>23.648085</ele>
        <time>2020-08-30T09:00:48.215Z</time>
      </trkpt>
      <trkpt lat="60.04499" lon="18.59865">
        <ele>23.51374</ele>
        <time>2020-08-30T09:00:52.449Z</time>
      </trkpt>
      <trkpt lat="60.04471" lon="18.59853">
        <ele>23.373245</ele>
        <time>2020-08-30T09:00:56.889Z</time>
      </trkpt>
      <trkpt lat="60.04445" lon="18.59842">
        <ele>23.256201</ele>
        <time>2020-08-30T09:01:00.939Z</time>
      </trkpt>
      <trkpt lat="60.04429" lon="18.59835">
        <ele>23.188895</ele>
        <time>2020-08-30T09:01:03.428Z</time>
      </trkpt>
      <trkpt lat="60.0441" lon="18.59831">
        <ele>23.106615</ele>
        <time>2020-08-30T09:01:06.426Z</time>
      </trkpt>
      <trkpt lat="60.04397" lon="18.59832">
        <ele>23.051827</ele>
        <time>2020-08-30T09:01:08.486Z</time>
      </trkpt>
      <trkpt lat="60.04376" lon="18.59843">
        <ele>22.962215</ele>
        <time>2020-08-30T09:01:11.857Z</time>
      </trkpt>
      <trkpt lat="60.04352" lon="18.5986">
        <ele>22.852301</ele>
        <time>2020-08-30T09:01:16.188Z</time>
      </trkpt>
      <trkpt lat="60.04331" lon="18.59876">
        <ele>22.759204</ele>
        <time>2020-08-30T09:01:20.091Z</time>
      </trkpt>
      <trkpt lat="60.04325" lon="18.59882">
        <ele>22.727544</ele>
        <time>2020-08-30T09:01:21.453Z</time>
      </trkpt>
      <trkpt lat="60.04305" lon="18.59888">
        <ele>22.643204</ele>
        <time>2020-08-30T09:01:25.054Z</time>
      </trkpt>
      <trkpt lat="60.04236" lon="18.59892">
        <ele>22.811242</ele>
        <time>2020-08-30T09:01:38.465Z</time>
      </trkpt>
      <trkpt lat="60.04209" lon="18.59901">
        <ele>22.932722</ele>
        <time>2020-08-30T09:01:43.819Z</time>
      </trkpt>
      <trkpt lat="60.04188" lon="18.59916">
        <ele>23.028029</ele>
        <time>2020-08-30T09:01:48.062Z</time>
      </trkpt>
      <trkpt lat="60.04171" lon="18.59938">
        <ele>23.117841</ele>
        <time>2020-08-30T09:01:51.957Z</time>
      </trkpt>
      <trkpt lat="60.04134" lon="18.59989">
        <ele>23.314563</ele>
        <time>2020-08-30T09:02:00.703Z</time>
      </trkpt>
      <trkpt lat="60.04123" lon="18.60007">
        <ele>23.372159</ele>
        <time>2020-08-30T09:02:03.460Z</time>
      </trkpt>
      <trkpt lat="60.04039" lon="18.60094">
        <ele>23.654411</ele>
        <time>2020-08-30T09:02:21.840Z</time>
      </trkpt>
      <trkpt lat="60.03985" lon="18.60152">
        <ele>23.83471</ele>
        <time>2020-08-30T09:02:32.775Z</time>
      </trkpt>
      <trkpt lat="60.03938" lon="18.60191">
        <ele>23.866664</ele>
        <time>2020-08-30T09:02:42.108Z</time>
      </trkpt>
      <trkpt lat="60.03895" lon="18.60215">
        <ele>23.819042</ele>
        <time>2020-08-30T09:02:50.051Z</time>
      </trkpt>
      <trkpt lat="60.03848" lon="18.60219">
        <ele>23.767027</ele>
        <time>2020-08-30T09:02:58.671Z</time>
      </trkpt>
      <trkpt lat="60.03796" lon="18.60225">
        <ele>23.711026</ele>
        <time>2020-08-30T09:03:07.735Z</time>
      </trkpt>
      <trkpt lat="60.03737" lon="18.60254">
        <ele>23.131925</ele>
        <time>2020-08-30T09:03:17.242Z</time>
      </trkpt>
      <trkpt lat="60.03673" lon="18.60319">
        <ele>22.376623</ele>
        <time>2020-08-30T09:03:28.097Z</time>
      </trkpt>
      <trkpt lat="60.03649" lon="18.60329">
        <ele>22.114341</ele>
        <time>2020-08-30T09:03:31.746Z</time>
      </trkpt>
      <trkpt lat="60.03574" lon="18.60317">
        <ele>21.267292</ele>
        <time>2020-08-30T09:03:42.903Z</time>
      </trkpt>
      <trkpt lat="60.03406" lon="18.60285">
        <ele>19.498363</ele>
        <time>2020-08-30T09:04:08.668Z</time>
      </trkpt>
      <trkpt lat="60.0338" lon="18.60285">
        <ele>19.367619</ele>
        <time>2020-08-30T09:04:12.931Z</time>
      </trkpt>
      <trkpt lat="60.03339" lon="18.60301">
        <ele>19.152728</ele>
        <time>2020-08-30T09:04:19.869Z</time>
      </trkpt>
      <trkpt lat="60.03305" lon="18.60322">
        <ele>18.96973</ele>
        <time>2020-08-30T09:04:25.787Z</time>
      </trkpt>
      <trkpt lat="60.03172" lon="18.60472">
        <ele>19.275463</ele>
        <time>2020-08-30T09:04:52.568Z</time>
      </trkpt>
      <trkpt lat="60.03119" lon="18.60517">
        <ele>19.545754</ele>
        <time>2020-08-30T09:05:04.562Z</time>
      </trkpt>
      <trkpt lat="60.0302" lon="18.6057">
        <ele>21.87976</ele>
        <time>2020-08-30T09:05:29.966Z</time>
      </trkpt>
      <trkpt lat="60.0296" lon="18.60598">
        <ele>23.403011</ele>
        <time>2020-08-30T09:05:46.651Z</time>
      </trkpt>
      <trkpt lat="60.02934" lon="18.6061">
        <ele>24.079093</ele>
        <time>2020-08-30T09:05:54.351Z</time>
      </trkpt>
      <trkpt lat="60.0292" lon="18.60616">
        <ele>24.470568</ele>
        <time>2020-08-30T09:05:57.933Z</time>
      </trkpt>
      <trkpt lat="60.02907" lon="18.60618">
        <ele>24.815367</ele>
        <time>2020-08-30T09:06:01.733Z</time>
      </trkpt>
      <trkpt lat="60.02911" lon="18.60632">
        <ele>25.023162</ele>
        <time>2020-08-30T09:06:04.011Z</time>
      </trkpt>
      <trkpt lat="60.02941" lon="18.6076">
        <ele>26.980998</ele>
        <time>2020-08-30T09:06:23.454Z</time>
      </trkpt>
      <trkpt lat="60.0295" lon="18.60835">
        <ele>28.037279</ele>
        <time>2020-08-30T09:06:33.493Z</time>
      </trkpt>
      <trkpt lat="60.02952" lon="18.60899">
        <ele>28.915066</ele>
        <time>2020-08-30T09:06:41.757Z</time>
      </trkpt>
      <trkpt lat="60.02935" lon="18.61035">
        <ele>30.369761</ele>
        <time>2020-08-30T09:06:58.421Z</time>
      </trkpt>
      <trkpt lat="60.02929" lon="18.61096">
        <ele>30.997146</ele>
        <time>2020-08-30T09:07:05.688Z</time>
      </trkpt>
      <trkpt lat="60.02928" lon="18.61149">
        <ele>31.532197</ele>
        <time>2020-08-30T09:07:11.977Z</time>
      </trkpt>
      <trkpt lat="60.02933" lon="18.61185">
        <ele>31.911618</ele>
        <time>2020-08-30T09:07:16.645Z</time>
      </trkpt>
      <trkpt lat="60.02978" lon="18.61405">
        <ele>34.683489</ele>
        <time>2020-08-30T09:07:46.455Z</time>
      </trkpt>
      <trkpt lat="60.03037" lon="18.61673">
        <ele>38.289923</ele>
        <time>2020-08-30T09:08:25.201Z</time>
      </trkpt>
      <trkpt lat="60.03064" lon="18.61787">
        <ele>39.813043</ele>
        <time>2020-08-30T09:08:41.876Z</time>
      </trkpt>
      <trkpt lat="60.03089" lon="18.61856">
        <ele>40.843257</ele>
        <time>2020-08-30T09:08:52.637Z</time>
      </trkpt>
      <trkpt lat="60.03124" lon="18.61917">
        <ele>41.705192</ele>
        <time>2020-08-30T09:09:03.788Z</time>
      </trkpt>
      <trkpt lat="60.03166" lon="18.61963">
        <ele>42.199077</ele>
        <time>2020-08-30T09:09:14.400Z</time>
      </trkpt>
      <trkpt lat="60.03206" lon="18.6203">
        <ele>42.741738</ele>
        <time>2020-08-30T09:09:25.391Z</time>
      </trkpt>
      <trkpt lat="60.03289" lon="18.62226">
        <ele>43.433448</ele>
        <time>2020-08-30T09:09:49.718Z</time>
      </trkpt>
      <trkpt lat="60.03323" lon="18.62326">
        <ele>43.491673</ele>
        <time>2020-08-30T09:10:00.257Z</time>
      </trkpt>
      <trkpt lat="60.03354" lon="18.6245">
        <ele>43.537546</ele>
        <time>2020-08-30T09:10:12.386Z</time>
      </trkpt>
      <trkpt lat="60.03379" lon="18.62578">
        <ele>43.525215</ele>
        <time>2020-08-30T09:10:24.628Z</time>
      </trkpt>
      <trkpt lat="60.03384" lon="18.62694">
        <ele>43.514798</ele>
        <time>2020-08-30T09:10:35.052Z</time>
      </trkpt>
      <trkpt lat="60.03368" lon="18.62813">
        <ele>43.520802</ele>
        <time>2020-08-30T09:10:46.174Z</time>
      </trkpt>
      <trkpt lat="60.03301" lon="18.63044">
        <ele>43.583849</ele>
        <time>2020-08-30T09:11:10.361Z</time>
      </trkpt>
      <trkpt lat="60.03288" lon="18.63182">
        <ele>43.622684</ele>
        <time>2020-08-30T09:11:22.701Z</time>
      </trkpt>
      <trkpt lat="60.0333" lon="18.63699">
        <ele>43.815588</ele>
        <time>2020-08-30T09:12:09.985Z</time>
      </trkpt>
      <trkpt lat="60.03349" lon="18.63863">
        <ele>43.955324</ele>
        <time>2020-08-30T09:12:25.455Z</time>
      </trkpt>
      <trkpt lat="60.03357" lon="18.63905">
        <ele>44.01496</ele>
        <time>2020-08-30T09:12:29.413Z</time>
      </trkpt>
      <trkpt lat="60.03385" lon="18.64022">
        <ele>44.189638</ele>
        <time>2020-08-30T09:12:41.654Z</time>
      </trkpt>
      <trkpt lat="60.03546" lon="18.64373">
        <ele>44.963948</ele>
        <time>2020-08-30T09:13:27.049Z</time>
      </trkpt>
      <trkpt lat="60.03641" lon="18.64519">
        <ele>44.689882</ele>
        <time>2020-08-30T09:13:48.138Z</time>
      </trkpt>
      <trkpt lat="60.03727" lon="18.64785">
        <ele>44.184708</ele>
        <time>2020-08-30T09:14:13.893Z</time>
      </trkpt>
      <trkpt lat="60.03746" lon="18.64878">
        <ele>43.997296</ele>
        <time>2020-08-30T09:14:22.331Z</time>
      </trkpt>
      <trkpt lat="60.0375" lon="18.64931">
        <ele>43.898534</ele>
        <time>2020-08-30T09:14:26.949Z</time>
      </trkpt>
      <trkpt lat="60.03756" lon="18.65141">
        <ele>44.183365</ele>
        <time>2020-08-30T09:14:46.617Z</time>
      </trkpt>
      <trkpt lat="60.03764" lon="18.65276">
        <ele>44.381691</ele>
        <time>2020-08-30T09:15:00.007Z</time>
      </trkpt>
      <trkpt lat="60.03777" lon="18.65407">
        <ele>44.512234</ele>
        <time>2020-08-30T09:15:12.922Z</time>
      </trkpt>
      <trkpt lat="60.03787" lon="18.65635">
        <ele>44.715824</ele>
        <time>2020-08-30T09:15:33.335Z</time>
      </trkpt>
      <trkpt lat="60.03791" lon="18.65843">
        <ele>44.439819</ele>
        <time>2020-08-30T09:15:51.359Z</time>
      </trkpt>
      <trkpt lat="60.03796" lon="18.66133">
        <ele>43.583594</ele>
        <time>2020-08-30T09:16:15.455Z</time>
      </trkpt>
      <trkpt lat="60.03781" lon="18.6626">
        <ele>42.936958</ele>
        <time>2020-08-30T09:16:25.606Z</time>
      </trkpt>
      <trkpt lat="60.03757" lon="18.66382">
        <ele>42.228304</ele>
        <time>2020-08-30T09:16:35.232Z</time>
      </trkpt>
      <trkpt lat="60.03744" lon="18.66602">
        <ele>40.498415</ele>
        <time>2020-08-30T09:16:51.140Z</time>
      </trkpt>
      <trkpt lat="60.03743" lon="18.66674">
        <ele>39.938509</ele>
        <time>2020-08-30T09:16:56.356Z</time>
      </trkpt>
      <trkpt lat="60.03779" lon="18.66922">
        <ele>38.653443</ele>
        <time>2020-08-30T09:17:16.471Z</time>
      </trkpt>
      <trkpt lat="60.03782" lon="18.66989">
        <ele>38.358312</ele>
        <time>2020-08-30T09:17:21.973Z</time>
      </trkpt>
      <trkpt lat="60.03767" lon="18.67174">
        <ele>37.166932</ele>
        <time>2020-08-30T09:17:37.092Z</time>
      </trkpt>
      <trkpt lat="60.03792" lon="18.67387">
        <ele>35.446273</ele>
        <time>2020-08-30T09:17:53.136Z</time>
      </trkpt>
      <trkpt lat="60.03812" lon="18.67459">
        <ele>34.242427</ele>
        <time>2020-08-30T09:17:58.635Z</time>
      </trkpt>
      <trkpt lat="60.0395" lon="18.67756">
        <ele>26.58115</ele>
        <time>2020-08-30T09:18:23.863Z</time>
      </trkpt>
      <trkpt lat="60.03967" lon="18.67832">
        <ele>25.178938</ele>
        <time>2020-08-30T09:18:29.147Z</time>
      </trkpt>
      <trkpt lat="60.03976" lon="18.67886">
        <ele>24.221639</ele>
        <time>2020-08-30T09:18:32.781Z</time>
      </trkpt>
      <trkpt lat="60.03986" lon="18.67934">
        <ele>23.345735</ele>
        <time>2020-08-30T09:18:36.235Z</time>
      </trkpt>
      <trkpt lat="60.04032" lon="18.68184">
        <ele>20.928672</ele>
        <time>2020-08-30T09:18:55.184Z</time>
      </trkpt>
      <trkpt lat="60.04075" lon="18.68408">
        <ele>19.719506</ele>
        <time>2020-08-30T09:19:15.448Z</time>
      </trkpt>
      <trkpt lat="60.04103" lon="18.68641">
        <ele>19.140761</ele>
        <time>2020-08-30T09:19:34.726Z</time>
      </trkpt>
      <trkpt lat="60.04103" lon="18.6869">
        <ele>19.027463</ele>
        <time>2020-08-30T09:19:38.665Z</time>
      </trkpt>
      <trkpt lat="60.04103" lon="18.68744">
        <ele>19.110781</ele>
        <time>2020-08-30T09:19:43.364Z</time>
      </trkpt>
      <trkpt lat="60.04086" lon="18.69044">
        <ele>19.570469</ele>
        <time>2020-08-30T09:20:12.230Z</time>
      </trkpt>
      <trkpt lat="60.04073" lon="18.69184">
        <ele>20.054425</ele>
        <time>2020-08-30T09:20:27.571Z</time>
      </trkpt>
      <trkpt lat="60.04047" lon="18.69274">
        <ele>20.410435</ele>
        <time>2020-08-30T09:20:38.600Z</time>
      </trkpt>
      <trkpt lat="60.03964" lon="18.69466">
        <ele>20.813104</ele>
        <time>2020-08-30T09:21:01.704Z</time>
      </trkpt>
      <trkpt lat="60.03938" lon="18.69539">
        <ele>20.813592</ele>
        <time>2020-08-30T09:21:09.136Z</time>
      </trkpt>
      <trkpt lat="60.03929" lon="18.69606">
        <ele>20.813981</ele>
        <time>2020-08-30T09:21:15.144Z</time>
      </trkpt>
      <trkpt lat="60.03914" lon="18.69717">
        <ele>21.096808</ele>
        <time>2020-08-30T09:21:25.554Z</time>
      </trkpt>
      <trkpt lat="60.03896" lon="18.69843">
        <ele>21.819763</ele>
        <time>2020-08-30T09:21:38.711Z</time>
      </trkpt>
      <trkpt lat="60.03877" lon="18.69912">
        <ele>22.257722</ele>
        <time>2020-08-30T09:21:47.362Z</time>
      </trkpt>
      <trkpt lat="60.0385" lon="18.69987">
        <ele>22.766189</ele>
        <time>2020-08-30T09:21:58.575Z</time>
      </trkpt>
      <trkpt lat="60.03811" lon="18.70079">
        <ele>23.843931</ele>
        <time>2020-08-30T09:22:14.051Z</time>
      </trkpt>
      <trkpt lat="60.03718" lon="18.70315">
        <ele>26.066195</ele>
        <time>2020-08-30T09:22:49.258Z</time>
      </trkpt>
      <trkpt lat="60.03699" lon="18.70365">
        <ele>26.038638</ele>
        <time>2020-08-30T09:22:55.275Z</time>
      </trkpt>
      <trkpt lat="60.03695" lon="18.704">
        <ele>26.022622</ele>
        <time>2020-08-30T09:22:58.559Z</time>
      </trkpt>
      <trkpt lat="60.03695" lon="18.704">
        <ele>26.022622</ele>
        <time>2020-08-30T09:22:58.599Z</time>
      </trkpt>
      <trkpt lat="60.03692" lon="18.70417">
        <ele>26.015012</ele>
        <time>2020-08-30T09:23:00.116Z</time>
      </trkpt>
      <trkpt lat="60.03698" lon="18.70477">
        <ele>25.98789</ele>
        <time>2020-08-30T09:23:05.381Z</time>
      </trkpt>
      <trkpt lat="60.03786" lon="18.70906">
        <ele>23.776531</ele>
        <time>2020-08-30T09:23:39.679Z</time>
      </trkpt>
      <trkpt lat="60.03795" lon="18.70999">
        <ele>23.877089</ele>
        <time>2020-08-30T09:23:47.310Z</time>
      </trkpt>
      <trkpt lat="60.03792" lon="18.71089">
        <ele>24.211926</ele>
        <time>2020-08-30T09:23:55.513Z</time>
      </trkpt>
      <trkpt lat="60.03782" lon="18.71163">
        <ele>24.4967</ele>
        <time>2020-08-30T09:24:03.429Z</time>
      </trkpt>
      <trkpt lat="60.03779" lon="18.71174">
        <ele>24.5392</ele>
        <time>2020-08-30T09:24:04.734Z</time>
      </trkpt>
      <trkpt lat="60.03753" lon="18.71284">
        <ele>25.099346</ele>
        <time>2020-08-30T09:24:19.280Z</time>
      </trkpt>
      <trkpt lat="60.03751" lon="18.71344">
        <ele>25.982106</ele>
        <time>2020-08-30T09:24:27.269Z</time>
      </trkpt>
      <trkpt lat="60.03755" lon="18.71393">
        <ele>26.704899</ele>
        <time>2020-08-30T09:24:34.139Z</time>
      </trkpt>
      <trkpt lat="60.03768" lon="18.7145">
        <ele>27.627172</ele>
        <time>2020-08-30T09:24:43.200Z</time>
      </trkpt>
      <trkpt lat="60.03833" lon="18.71658">
        <ele>30.791462</ele>
        <time>2020-08-30T09:25:17.596Z</time>
      </trkpt>
      <trkpt lat="60.03855" lon="18.71752">
        <ele>31.650002</ele>
        <time>2020-08-30T09:25:30.504Z</time>
      </trkpt>
      <trkpt lat="60.03861" lon="18.71834">
        <ele>32.338141</ele>
        <time>2020-08-30T09:25:39.966Z</time>
      </trkpt>
      <trkpt lat="60.03859" lon="18.72082">
        <ele>32.730743</ele>
        <time>2020-08-30T09:26:02.794Z</time>
      </trkpt>
      <trkpt lat="60.03845" lon="18.72516">
        <ele>30.443005</ele>
        <time>2020-08-30T09:26:35.383Z</time>
      </trkpt>
      <trkpt lat="60.03842" lon="18.72626">
        <ele>29.652773</ele>
        <time>2020-08-30T09:26:43.430Z</time>
      </trkpt>
      <trkpt lat="60.0384" lon="18.7275">
        <ele>28.53082</ele>
        <time>2020-08-30T09:26:52.412Z</time>
      </trkpt>
      <trkpt lat="60.03852" lon="18.72922">
        <ele>26.842188</ele>
        <time>2020-08-30T09:27:04.791Z</time>
      </trkpt>
      <trkpt lat="60.03851" lon="18.72993">
        <ele>26.154818</ele>
        <time>2020-08-30T09:27:09.737Z</time>
      </trkpt>
      <trkpt lat="60.03843" lon="18.73049">
        <ele>25.528934</ele>
        <time>2020-08-30T09:27:13.752Z</time>
      </trkpt>
      <trkpt lat="60.03758" lon="18.73443">
        <ele>20.814653</ele>
        <time>2020-08-30T09:27:43.207Z</time>
      </trkpt>
      <trkpt lat="60.03713" lon="18.73606">
        <ele>19.133235</ele>
        <time>2020-08-30T09:27:56.420Z</time>
      </trkpt>
      <trkpt lat="60.03705" lon="18.73663">
        <ele>18.600446</ele>
        <time>2020-08-30T09:28:00.725Z</time>
      </trkpt>
      <trkpt lat="60.03676" lon="18.74025">
        <ele>18.280502</ele>
        <time>2020-08-30T09:28:32.392Z</time>
      </trkpt>
      <trkpt lat="60.03672" lon="18.7415">
        <ele>19.512447</ele>
        <time>2020-08-30T09:28:47.041Z</time>
      </trkpt>
      <trkpt lat="60.03665" lon="18.742">
        <ele>20.039963</ele>
        <time>2020-08-30T09:28:53.520Z</time>
      </trkpt>
      <trkpt lat="60.03648" lon="18.74255">
        <ele>20.705105</ele>
        <time>2020-08-30T09:29:02.035Z</time>
      </trkpt>
      <trkpt lat="60.03594" lon="18.74368">
        <ele>22.16952</ele>
        <time>2020-08-30T09:29:23.025Z</time>
      </trkpt>
      <trkpt lat="60.03563" lon="18.74449">
        <ele>22.78448</ele>
        <time>2020-08-30T09:29:35.550Z</time>
      </trkpt>
      <trkpt lat="60.03544" lon="18.74523">
        <ele>23.291798</ele>
        <time>2020-08-30T09:29:45.141Z</time>
      </trkpt>
      <trkpt lat="60.0347" lon="18.7495">
        <ele>23.501483</ele>
        <time>2020-08-30T09:30:24.170Z</time>
      </trkpt>
      <trkpt lat="60.03452" lon="18.7501">
        <ele>23.255413</ele>
        <time>2020-08-30T09:30:29.404Z</time>
      </trkpt>
      <trkpt lat="60.03397" lon="18.75098">
        <ele>22.254112</ele>
        <time>2020-08-30T09:30:39.810Z</time>
      </trkpt>
      <trkpt lat="60.03337" lon="18.75243">
        <ele>20.918897</ele>
        <time>2020-08-30T09:30:53.445Z</time>
      </trkpt>
      <trkpt lat="60.03271" lon="18.75429">
        <ele>19.243838</ele>
        <time>2020-08-30T09:31:10.310Z</time>
      </trkpt>
      <trkpt lat="60.03254" lon="18.7549">
        <ele>18.73368</ele>
        <time>2020-08-30T09:31:15.433Z</time>
      </trkpt>
      <trkpt lat="60.03224" lon="18.7564">
        <ele>17.909603</ele>
        <time>2020-08-30T09:31:27.521Z</time>
      </trkpt>
      <trkpt lat="60.03208" lon="18.75688">
        <ele>17.717331</ele>
        <time>2020-08-30T09:31:32.089Z</time>
      </trkpt>
      <trkpt lat="60.03161" lon="18.75777">
        <ele>17.296115</ele>
        <time>2020-08-30T09:31:42.575Z</time>
      </trkpt>
      <trkpt lat="60.03141" lon="18.75826">
        <ele>17.089019</ele>
        <time>2020-08-30T09:31:48.062Z</time>
      </trkpt>
      <trkpt lat="60.03106" lon="18.75923">
        <ele>17.321618</ele>
        <time>2020-08-30T09:31:59.112Z</time>
      </trkpt>
      <trkpt lat="60.02949" lon="18.76295">
        <ele>18.957475</ele>
        <time>2020-08-30T09:32:49.269Z</time>
      </trkpt>
      <trkpt lat="60.02925" lon="18.76415">
        <ele>19.434324</ele>
        <time>2020-08-30T09:33:02.094Z</time>
      </trkpt>
      <trkpt lat="60.02907" lon="18.76436">
        <ele>19.487165</ele>
        <time>2020-08-30T09:33:06.103Z</time>
      </trkpt>
      <trkpt lat="60.02854" lon="18.76523">
        <ele>19.61619</ele>
        <time>2020-08-30T09:33:18.958Z</time>
      </trkpt>
      <trkpt lat="60.02818" lon="18.76587">
        <ele>19.707579</ele>
        <time>2020-08-30T09:33:27.791Z</time>
      </trkpt>
      <trkpt lat="60.02804" lon="18.76625">
        <ele>19.752468</ele>
        <time>2020-08-30T09:33:32.024Z</time>
      </trkpt>
      <trkpt lat="60.02771" lon="18.7676">
        <ele>19.536576</ele>
        <time>2020-08-30T09:33:44.808Z</time>
      </trkpt>
      <trkpt lat="60.02749" lon="18.76793">
        <ele>19.404209</ele>
        <time>2020-08-30T09:33:49.434Z</time>
      </trkpt>
      <trkpt lat="60.02707" lon="18.76813">
        <ele>19.195997</ele>
        <time>2020-08-30T09:33:56.634Z</time>
      </trkpt>
      <trkpt lat="60.02682" lon="18.76825">
        <ele>19.074162</ele>
        <time>2020-08-30T09:34:00.761Z</time>
      </trkpt>
      <trkpt lat="60.02628" lon="18.769">
        <ele>18.68689</ele>
        <time>2020-08-30T09:34:11.212Z</time>
      </trkpt>
      <trkpt lat="60.02558" lon="18.7696">
        <ele>18.172188</ele>
        <time>2020-08-30T09:34:22.787Z</time>
      </trkpt>
      <trkpt lat="60.02516" lon="18.77046">
        <ele>17.76509</ele>
        <time>2020-08-30T09:34:32.604Z</time>
      </trkpt>
      <trkpt lat="60.02506" lon="18.77067">
        <ele>17.790914</ele>
        <time>2020-08-30T09:34:35.188Z</time>
      </trkpt>
      <trkpt lat="60.02483" lon="18.77097">
        <ele>18.089744</ele>
        <time>2020-08-30T09:34:40.318Z</time>
      </trkpt>
      <trkpt lat="60.02471" lon="18.77107">
        <ele>18.232876</ele>
        <time>2020-08-30T09:34:42.939Z</time>
      </trkpt>
      <trkpt lat="60.02458" lon="18.77113">
        <ele>18.378772</ele>
        <time>2020-08-30T09:34:45.688Z</time>
      </trkpt>
      <trkpt lat="60.02409" lon="18.77117">
        <ele>18.915801</ele>
        <time>2020-08-30T09:34:56.118Z</time>
      </trkpt>
      <trkpt lat="60.02304" lon="18.77138">
        <ele>20.42902</ele>
        <time>2020-08-30T09:35:21.162Z</time>
      </trkpt>
      <trkpt lat="60.02262" lon="18.77172">
        <ele>21.39345</ele>
        <time>2020-08-30T09:35:32.869Z</time>
      </trkpt>
      <trkpt lat="60.02157" lon="18.77311">
        <ele>23.748506</ele>
        <time>2020-08-30T09:36:04.473Z</time>
      </trkpt>
      <trkpt lat="60.02095" lon="18.77413">
        <ele>24.493496</ele>
        <time>2020-08-30T09:36:21.836Z</time>
      </trkpt>
      <trkpt lat="60.02069" lon="18.77462">
        <ele>24.828665</ele>
        <time>2020-08-30T09:36:29.056Z</time>
      </trkpt>
      <trkpt lat="60.02046" lon="18.77515">
        <ele>25.155848</ele>
        <time>2020-08-30T09:36:35.767Z</time>
      </trkpt>
      <trkpt lat="60.01974" lon="18.77848">
        <ele>22.641076</ele>
        <time>2020-08-30T09:37:02.932Z</time>
      </trkpt>
      <trkpt lat="60.01824" lon="18.78076">
        <ele>16.150012</ele>
        <time>2020-08-30T09:37:26.885Z</time>
      </trkpt>
      <trkpt lat="60.01735" lon="18.78184">
        <ele>12.865233</ele>
        <time>2020-08-30T09:37:40.138Z</time>
      </trkpt>
      <trkpt lat="60.01715" lon="18.78198">
        <ele>12.203418</ele>
        <time>2020-08-30T09:37:42.787Z</time>
      </trkpt>
      <trkpt lat="60.01692" lon="18.78211">
        <ele>11.450677</ele>
        <time>2020-08-30T09:37:46.018Z</time>
      </trkpt>
      <trkpt lat="60.01688" lon="18.78213">
        <ele>11.303428</ele>
        <time>2020-08-30T09:37:46.665Z</time>
      </trkpt>
      <trkpt lat="60.0165" lon="18.78233">
        <ele>10.70032</ele>
        <time>2020-08-30T09:37:52.158Z</time>
      </trkpt>
      <trkpt lat="60.01558" lon="18.78283">
        <ele>10.664742</ele>
        <time>2020-08-30T09:38:08.180Z</time>
      </trkpt>
      <trkpt lat="60.01535" lon="18.78288">
        <ele>10.656189</ele>
        <time>2020-08-30T09:38:13.827Z</time>
      </trkpt>
      <trkpt lat="60.01487" lon="18.78276">
        <ele>10.742967</ele>
        <time>2020-08-30T09:38:24.345Z</time>
      </trkpt>
      <trkpt lat="60.01441" lon="18.78281">
        <ele>11.423309</ele>
        <time>2020-08-30T09:38:34.552Z</time>
      </trkpt>
      <trkpt lat="60.01424" lon="18.78287">
        <ele>11.693417</ele>
        <time>2020-08-30T09:38:39.083Z</time>
      </trkpt>
      <trkpt lat="60.01381" lon="18.78323">
        <ele>12.382859</ele>
        <time>2020-08-30T09:38:49.935Z</time>
      </trkpt>
      <trkpt lat="60.01328" lon="18.78373">
        <ele>13.253014</ele>
        <time>2020-08-30T09:39:03.232Z</time>
      </trkpt>
      <trkpt lat="60.01301" lon="18.78387">
        <ele>13.561176</ele>
        <time>2020-08-30T09:39:09.110Z</time>
      </trkpt>
      <trkpt lat="60.01226" lon="18.78411">
        <ele>14.379384</ele>
        <time>2020-08-30T09:39:24.643Z</time>
      </trkpt>
      <trkpt lat="60.01152" lon="18.78453">
        <ele>15.202055</ele>
        <time>2020-08-30T09:39:40.559Z</time>
      </trkpt>
      <trkpt lat="60.01116" lon="18.78473">
        <ele>16.118155</ele>
        <time>2020-08-30T09:39:48.800Z</time>
      </trkpt>
      <trkpt lat="60.01008" lon="18.78521">
        <ele>18.970628</ele>
        <time>2020-08-30T09:40:17.389Z</time>
      </trkpt>
      <trkpt lat="60.00978" lon="18.78523">
        <ele>19.735033</ele>
        <time>2020-08-30T09:40:26.135Z</time>
      </trkpt>
      <trkpt lat="60.00876" lon="18.78449">
        <ele>24.030645</ele>
        <time>2020-08-30T09:41:01.005Z</time>
      </trkpt>
      <trkpt lat="60.0076" lon="18.78411">
        <ele>27.727184</ele>
        <time>2020-08-30T09:41:36.689Z</time>
      </trkpt>
      <trkpt lat="60.00734" lon="18.78425">
        <ele>28.156745</ele>
        <time>2020-08-30T09:41:43.854Z</time>
      </trkpt>
      <trkpt lat="60.0071" lon="18.78453">
        <ele>28.58281</ele>
        <time>2020-08-30T09:41:50.408Z</time>
      </trkpt>
      <trkpt lat="60.0066" lon="18.7855">
        <ele>29.667094</ele>
        <time>2020-08-30T09:42:04.284Z</time>
      </trkpt>
      <trkpt lat="60.00626" lon="18.78597">
        <ele>29.385024</ele>
        <time>2020-08-30T09:42:10.429Z</time>
      </trkpt>
      <trkpt lat="60.00612" lon="18.78606">
        <ele>29.103712</ele>
        <time>2020-08-30T09:42:12.489Z</time>
      </trkpt>
      <trkpt lat="60.00578" lon="18.786">
        <ele>28.45385</ele>
        <time>2020-08-30T09:42:17.272Z</time>
      </trkpt>
      <trkpt lat="60.00555" lon="18.78606">
        <ele>28.004838</ele>
        <time>2020-08-30T09:42:20.552Z</time>
      </trkpt>
      <trkpt lat="60.0053" lon="18.7863">
        <ele>27.474709</ele>
        <time>2020-08-30T09:42:24.358Z</time>
      </trkpt>
      <trkpt lat="60.00511" lon="18.78664">
        <ele>26.988645</ele>
        <time>2020-08-30T09:42:27.757Z</time>
      </trkpt>
      <trkpt lat="60.00481" lon="18.78761">
        <ele>26.078012</ele>
        <time>2020-08-30T09:42:35.590Z</time>
      </trkpt>
      <trkpt lat="60.0044" lon="18.78798">
        <ele>25.490828</ele>
        <time>2020-08-30T09:42:41.921Z</time>
      </trkpt>
      <trkpt lat="60.00396" lon="18.788">
        <ele>24.920167</ele>
        <time>2020-08-30T09:42:48.408Z</time>
      </trkpt>
      <trkpt lat="60.00341" lon="18.78793">
        <ele>24.210453</ele>
        <time>2020-08-30T09:42:57.668Z</time>
      </trkpt>
      <trkpt lat="60.00202" lon="18.78781">
        <ele>24.774392</ele>
        <time>2020-08-30T09:43:24.656Z</time>
      </trkpt>
      <trkpt lat="60.00126" lon="18.78718">
        <ele>25.283423</ele>
        <time>2020-08-30T09:43:41.788Z</time>
      </trkpt>
      <trkpt lat="60.0007" lon="18.78704">
        <ele>25.724481</ele>
        <time>2020-08-30T09:43:53.003Z</time>
      </trkpt>
      <trkpt lat="60.00052" lon="18.78689">
        <ele>25.872359</ele>
        <time>2020-08-30T09:43:56.985Z</time>
      </trkpt>
      <trkpt lat="59.99996" lon="18.78584">
        <ele>26.47774</ele>
        <time>2020-08-30T09:44:12.554Z</time>
      </trkpt>
      <trkpt lat="59.9999" lon="18.7858">
        <ele>26.532536</ele>
        <time>2020-08-30T09:44:13.808Z</time>
      </trkpt>
      <trkpt lat="59.9994" lon="18.78552">
        <ele>26.948187</ele>
        <time>2020-08-30T09:44:24.463Z</time>
      </trkpt>
      <trkpt lat="59.99893" lon="18.78486">
        <ele>27.418313</ele>
        <time>2020-08-30T09:44:36.148Z</time>
      </trkpt>
      <trkpt lat="59.99868" lon="18.7847">
        <ele>27.63269</ele>
        <time>2020-08-30T09:44:41.630Z</time>
      </trkpt>
      <trkpt lat="59.99854" lon="18.7847">
        <ele>27.744583</ele>
        <time>2020-08-30T09:44:44.539Z</time>
      </trkpt>
      <trkpt lat="59.99841" lon="18.78473">
        <ele>27.852602</ele>
        <time>2020-08-30T09:44:47.277Z</time>
      </trkpt>
      <trkpt lat="59.99828" lon="18.78478">
        <ele>27.888339</ele>
        <time>2020-08-30T09:44:50.026Z</time>
      </trkpt>
      <trkpt lat="59.99802" lon="18.78486">
        <ele>27.92502</ele>
        <time>2020-08-30T09:44:55.335Z</time>
      </trkpt>
      <trkpt lat="59.99777" lon="18.785">
        <ele>27.962535</ele>
        <time>2020-08-30T09:45:00.630Z</time>
      </trkpt>
      <trkpt lat="59.99762" lon="18.78514">
        <ele>27.986653</ele>
        <time>2020-08-30T09:45:03.594Z</time>
      </trkpt>
      <trkpt lat="59.9975" lon="18.78518">
        <ele>28.003389</ele>
        <time>2020-08-30T09:45:06.212Z</time>
      </trkpt>
      <trkpt lat="59.99684" lon="18.78493">
        <ele>28.100631</ele>
        <time>2020-08-30T09:45:18.040Z</time>
      </trkpt>
      <trkpt lat="59.99657" lon="18.78492">
        <ele>28.041827</ele>
        <time>2020-08-30T09:45:22.056Z</time>
      </trkpt>
      <trkpt lat="59.99645" lon="18.78498">
        <ele>27.835315</ele>
        <time>2020-08-30T09:45:24.432Z</time>
      </trkpt>
      <trkpt lat="59.99631" lon="18.78513">
        <ele>27.57971</ele>
        <time>2020-08-30T09:45:26.639Z</time>
      </trkpt>
      <trkpt lat="59.99606" lon="18.78561">
        <ele>27.011668</ele>
        <time>2020-08-30T09:45:31.919Z</time>
      </trkpt>
      <trkpt lat="59.99575" lon="18.78667">
        <ele>26.009903</ele>
        <time>2020-08-30T09:45:40.960Z</time>
      </trkpt>
      <trkpt lat="59.99562" lon="18.78695">
        <ele>25.699923</ele>
        <time>2020-08-30T09:45:43.488Z</time>
      </trkpt>
      <trkpt lat="59.99539" lon="18.78726">
        <ele>25.247168</ele>
        <time>2020-08-30T09:45:47.278Z</time>
      </trkpt>
      <trkpt lat="59.99524" lon="18.78744">
        <ele>24.802588</ele>
        <time>2020-08-30T09:45:49.734Z</time>
      </trkpt>
      <trkpt lat="59.99509" lon="18.78759">
        <ele>24.367146</ele>
        <time>2020-08-30T09:45:51.926Z</time>
      </trkpt>
      <trkpt lat="59.99492" lon="18.78775">
        <ele>23.845597</ele>
        <time>2020-08-30T09:45:54.518Z</time>
      </trkpt>
      <trkpt lat="59.99477" lon="18.78786">
        <ele>23.423759</ele>
        <time>2020-08-30T09:45:56.594Z</time>
      </trkpt>
      <trkpt lat="59.99404" lon="18.7882">
        <ele>21.398253</ele>
        <time>2020-08-30T09:46:06.465Z</time>
      </trkpt>
      <trkpt lat="59.99378" lon="18.78846">
        <ele>20.60268</ele>
        <time>2020-08-30T09:46:10.414Z</time>
      </trkpt>
      <trkpt lat="59.99322" lon="18.78884">
        <ele>19.574768</ele>
        <time>2020-08-30T09:46:18.476Z</time>
      </trkpt>
      <trkpt lat="59.99284" lon="18.78909">
        <ele>18.960849</ele>
        <time>2020-08-30T09:46:24.128Z</time>
      </trkpt>
      <trkpt lat="59.9924" lon="18.78921">
        <ele>18.290057</ele>
        <time>2020-08-30T09:46:30.634Z</time>
      </trkpt>
      <trkpt lat="59.99205" lon="18.78904">
        <ele>17.740536</ele>
        <time>2020-08-30T09:46:36.159Z</time>
      </trkpt>
      <trkpt lat="59.98998" lon="18.78762">
        <ele>19.217178</ele>
        <time>2020-08-30T09:47:20.034Z</time>
      </trkpt>
      <trkpt lat="59.98931" lon="18.78704">
        <ele>20.659664</ele>
        <time>2020-08-30T09:47:37.996Z</time>
      </trkpt>
      <trkpt lat="59.98914" lon="18.78693">
        <ele>21.007686</ele>
        <time>2020-08-30T09:47:42.668Z</time>
      </trkpt>
      <trkpt lat="59.98889" lon="18.78678">
        <ele>21.535846</ele>
        <time>2020-08-30T09:47:49.586Z</time>
      </trkpt>
      <trkpt lat="59.98875" lon="18.78671">
        <ele>21.823636</ele>
        <time>2020-08-30T09:47:53.465Z</time>
      </trkpt>
      <trkpt lat="59.98816" lon="18.78646">
        <ele>22.816298</ele>
        <time>2020-08-30T09:48:09.217Z</time>
      </trkpt>
      <trkpt lat="59.98794" lon="18.78633">
        <ele>23.154946</ele>
        <time>2020-08-30T09:48:14.641Z</time>
      </trkpt>
      <trkpt lat="59.98746" lon="18.78601">
        <ele>23.899775</ele>
        <time>2020-08-30T09:48:26.558Z</time>
      </trkpt>
      <trkpt lat="59.98727" lon="18.78595">
        <ele>24.184784</ele>
        <time>2020-08-30T09:48:30.403Z</time>
      </trkpt>
      <trkpt lat="59.98713" lon="18.78601">
        <ele>24.38705</ele>
        <time>2020-08-30T09:48:33.236Z</time>
      </trkpt>
      <trkpt lat="59.98711" lon="18.78604">
        <ele>24.425926</ele>
        <time>2020-08-30T09:48:34.077Z</time>
      </trkpt>
      <trkpt lat="59.98705" lon="18.78611">
        <ele>24.524956</ele>
        <time>2020-08-30T09:48:35.127Z</time>
      </trkpt>
      <trkpt lat="59.98695" lon="18.78641">
        <ele>24.796249</ele>
        <time>2020-08-30T09:48:38.749Z</time>
      </trkpt>
      <trkpt lat="59.98675" lon="18.78749">
        <ele>24.647413</ele>
        <time>2020-08-30T09:48:48.628Z</time>
      </trkpt>
      <trkpt lat="59.9866" lon="18.78789">
        <ele>24.542269</ele>
        <time>2020-08-30T09:48:52.902Z</time>
      </trkpt>
      <trkpt lat="59.98603" lon="18.78892">
        <ele>24.219173</ele>
        <time>2020-08-30T09:49:04.929Z</time>
      </trkpt>
      <trkpt lat="59.98594" lon="18.78931">
        <ele>24.127217</ele>
        <time>2020-08-30T09:49:08.388Z</time>
      </trkpt>
      <trkpt lat="59.98593" lon="18.78938">
        <ele>24.112514</ele>
        <time>2020-08-30T09:49:08.994Z</time>
      </trkpt>
      <trkpt lat="59.98586" lon="18.7899">
        <ele>24.059897</ele>
        <time>2020-08-30T09:49:13.429Z</time>
      </trkpt>
      <trkpt lat="59.98579" lon="18.79047">
        <ele>24.003271</ele>
        <time>2020-08-30T09:49:18.347Z</time>
      </trkpt>
      <trkpt lat="59.98582" lon="18.79132">
        <ele>23.919927</ele>
        <time>2020-08-30T09:49:25.728Z</time>
      </trkpt>
      <trkpt lat="59.98582" lon="18.7919">
        <ele>23.864361</ele>
        <time>2020-08-30T09:49:30.807Z</time>
      </trkpt>
      <trkpt lat="59.98551" lon="18.79484">
        <ele>23.815992</ele>
        <time>2020-08-30T09:49:58.864Z</time>
      </trkpt>
      <trkpt lat="59.98543" lon="18.79543">
        <ele>23.832598</ele>
        <time>2020-08-30T09:50:04.516Z</time>
      </trkpt>
      <trkpt lat="59.98528" lon="18.79587">
        <ele>23.847097</ele>
        <time>2020-08-30T09:50:09.385Z</time>
      </trkpt>
      <trkpt lat="59.9851" lon="18.79611">
        <ele>23.858568</ele>
        <time>2020-08-30T09:50:13.000Z</time>
      </trkpt>
      <trkpt lat="59.98488" lon="18.79638">
        <ele>23.613085</ele>
        <time>2020-08-30T09:50:17.251Z</time>
      </trkpt>
      <trkpt lat="59.9843" lon="18.79776">
        <ele>22.633531</ele>
        <time>2020-08-30T09:50:31.346Z</time>
      </trkpt>
      <trkpt lat="59.98413" lon="18.79805">
        <ele>22.393824</ele>
        <time>2020-08-30T09:50:34.816Z</time>
      </trkpt>
      <trkpt lat="59.98397" lon="18.79825">
        <ele>22.191999</ele>
        <time>2020-08-30T09:50:37.410Z</time>
      </trkpt>
      <trkpt lat="59.98316" lon="18.79901">
        <ele>20.585716</ele>
        <time>2020-08-30T09:50:50.363Z</time>
      </trkpt>
      <trkpt lat="59.98313" lon="18.79904">
        <ele>20.51407</ele>
        <time>2020-08-30T09:50:50.769Z</time>
      </trkpt>
      <trkpt lat="59.98295" lon="18.79927">
        <ele>20.083058</ele>
        <time>2020-08-30T09:50:53.609Z</time>
      </trkpt>
      <trkpt lat="59.98263" lon="18.80007">
        <ele>19.017617</ele>
        <time>2020-08-30T09:51:00.664Z</time>
      </trkpt>
      <trkpt lat="59.98251" lon="18.80034">
        <ele>18.648716</ele>
        <time>2020-08-30T09:51:03.217Z</time>
      </trkpt>
      <trkpt lat="59.9824" lon="18.80079">
        <ele>18.174427</ele>
        <time>2020-08-30T09:51:06.756Z</time>
      </trkpt>
      <trkpt lat="59.9822" lon="18.80153">
        <ele>17.859334</ele>
        <time>2020-08-30T09:51:12.792Z</time>
      </trkpt>
      <trkpt lat="59.98213" lon="18.80178">
        <ele>17.753642</ele>
        <time>2020-08-30T09:51:14.878Z</time>
      </trkpt>
      <trkpt lat="59.98195" lon="18.80232">
        <ele>17.512369</ele>
        <time>2020-08-30T09:51:19.956Z</time>
      </trkpt>
      <trkpt lat="59.9818" lon="18.80249">
        <ele>17.382289</ele>
        <time>2020-08-30T09:51:22.806Z</time>
      </trkpt>
      <trkpt lat="59.98121" lon="18.80286">
        <ele>16.918595</ele>
        <time>2020-08-30T09:51:33.548Z</time>
      </trkpt>
      <trkpt lat="59.98081" lon="18.80307">
        <ele>17.258062</ele>
        <time>2020-08-30T09:51:41.743Z</time>
      </trkpt>
      <trkpt lat="59.97991" lon="18.80368">
        <ele>18.434668</ele>
        <time>2020-08-30T09:52:03.051Z</time>
      </trkpt>
      <trkpt lat="59.97887" lon="18.8044">
        <ele>19.620078</ele>
        <time>2020-08-30T09:52:28.721Z</time>
      </trkpt>
      <trkpt lat="59.97782" lon="18.80563">
        <ele>20.752948</ele>
        <time>2020-08-30T09:52:53.025Z</time>
      </trkpt>
      <trkpt lat="59.97749" lon="18.80592">
        <ele>20.807596</ele>
        <time>2020-08-30T09:52:59.380Z</time>
      </trkpt>
      <trkpt lat="59.97711" lon="18.8061">
        <ele>20.86519</ele>
        <time>2020-08-30T09:53:06.502Z</time>
      </trkpt>
      <trkpt lat="59.97692" lon="18.80619">
        <ele>20.893961</ele>
        <time>2020-08-30T09:53:10.110Z</time>
      </trkpt>
      <trkpt lat="59.97685" lon="18.80624">
        <ele>20.904597</ele>
        <time>2020-08-30T09:53:11.645Z</time>
      </trkpt>
      <trkpt lat="59.97666" lon="18.8064">
        <ele>20.934064</ele>
        <time>2020-08-30T09:53:15.181Z</time>
      </trkpt>
      <trkpt lat="59.97644" lon="18.80665">
        <ele>20.971772</ele>
        <time>2020-08-30T09:53:20.129Z</time>
      </trkpt>
      <trkpt lat="59.97628" lon="18.80685">
        <ele>20.999658</ele>
        <time>2020-08-30T09:53:23.537Z</time>
      </trkpt>
      <trkpt lat="59.97608" lon="18.8071">
        <ele>21.046918</ele>
        <time>2020-08-30T09:53:27.358Z</time>
      </trkpt>
      <trkpt lat="59.97587" lon="18.80721">
        <ele>21.109528</ele>
        <time>2020-08-30T09:53:31.421Z</time>
      </trkpt>
      <trkpt lat="59.97565" lon="18.80729">
        <ele>21.171936</ele>
        <time>2020-08-30T09:53:34.984Z</time>
      </trkpt>
      <trkpt lat="59.97557" lon="18.80732">
        <ele>21.195756</ele>
        <time>2020-08-30T09:53:36.775Z</time>
      </trkpt>
      <trkpt lat="59.97547" lon="18.80736">
        <ele>21.223597</ele>
        <time>2020-08-30T09:53:38.372Z</time>
      </trkpt>
      <trkpt lat="59.97488" lon="18.80739">
        <ele>21.39189</ele>
        <time>2020-08-30T09:53:49.569Z</time>
      </trkpt>
      <trkpt lat="59.97481" lon="18.80741">
        <ele>21.410162</ele>
        <time>2020-08-30T09:53:50.954Z</time>
      </trkpt>
      <trkpt lat="59.97474" lon="18.80743">
        <ele>21.429593</ele>
        <time>2020-08-30T09:53:52.059Z</time>
      </trkpt>
      <trkpt lat="59.97439" lon="18.80769">
        <ele>21.551964</ele>
        <time>2020-08-30T09:54:00.013Z</time>
      </trkpt>
      <trkpt lat="59.97437" lon="18.8077">
        <ele>21.569734</ele>
        <time>2020-08-30T09:54:00.469Z</time>
      </trkpt>
      <trkpt lat="59.9742" lon="18.8078">
        <ele>21.707</ele>
        <time>2020-08-30T09:54:04.275Z</time>
      </trkpt>
      <trkpt lat="59.97382" lon="18.80797">
        <ele>22.011653</ele>
        <time>2020-08-30T09:54:12.166Z</time>
      </trkpt>
      <trkpt lat="59.97335" lon="18.808">
        <ele>22.369678</ele>
        <time>2020-08-30T09:54:21.028Z</time>
      </trkpt>
      <trkpt lat="59.97298" lon="18.80801">
        <ele>22.655505</ele>
        <time>2020-08-30T09:54:28.513Z</time>
      </trkpt>
      <trkpt lat="59.97272" lon="18.80804">
        <ele>22.863465</ele>
        <time>2020-08-30T09:54:34.211Z</time>
      </trkpt>
      <trkpt lat="59.97176" lon="18.80806">
        <ele>23.896814</ele>
        <time>2020-08-30T09:54:54.687Z</time>
      </trkpt>
      <trkpt lat="59.97144" lon="18.808">
        <ele>24.248264</ele>
        <time>2020-08-30T09:55:01.505Z</time>
      </trkpt>
      <trkpt lat="59.97103" lon="18.80797">
        <ele>24.702731</ele>
        <time>2020-08-30T09:55:10.224Z</time>
      </trkpt>
      <trkpt lat="59.97094" lon="18.80799">
        <ele>24.800783</ele>
        <time>2020-08-30T09:55:12.106Z</time>
      </trkpt>
      <trkpt lat="59.97086" lon="18.80813">
        <ele>24.92071</ele>
        <time>2020-08-30T09:55:14.382Z</time>
      </trkpt>
      <trkpt lat="59.9708" lon="18.8082">
        <ele>25.020235</ele>
        <time>2020-08-30T09:55:15.822Z</time>
      </trkpt>
      <trkpt lat="59.97027" lon="18.80784">
        <ele>25.839425</ele>
        <time>2020-08-30T09:55:28.326Z</time>
      </trkpt>
      <trkpt lat="59.96991" lon="18.80757">
        <ele>26.388786</ele>
        <time>2020-08-30T09:55:36.894Z</time>
      </trkpt>
      <trkpt lat="59.96975" lon="18.80745">
        <ele>26.633591</ele>
        <time>2020-08-30T09:55:40.774Z</time>
      </trkpt>
      <trkpt lat="59.96928" lon="18.8072">
        <ele>27.339917</ele>
        <time>2020-08-30T09:55:52.129Z</time>
      </trkpt>
      <trkpt lat="59.96881" lon="18.80697">
        <ele>27.893944</ele>
        <time>2020-08-30T09:56:03.550Z</time>
      </trkpt>
      <trkpt lat="59.96859" lon="18.80686">
        <ele>28.128482</ele>
        <time>2020-08-30T09:56:08.599Z</time>
      </trkpt>
      <trkpt lat="59.96849" lon="18.80681">
        <ele>28.238064</ele>
        <time>2020-08-30T09:56:10.882Z</time>
      </trkpt>
      <trkpt lat="59.96754" lon="18.80635">
        <ele>29.251418</ele>
        <time>2020-08-30T09:56:30.792Z</time>
      </trkpt>
      <trkpt lat="59.96725" lon="18.80621">
        <ele>29.334837</ele>
        <time>2020-08-30T09:56:36.422Z</time>
      </trkpt>
      <trkpt lat="59.96683" lon="18.80599">
        <ele>29.230076</ele>
        <time>2020-08-30T09:56:44.602Z</time>
      </trkpt>
      <trkpt lat="59.96664" lon="18.8059">
        <ele>29.182456</ele>
        <time>2020-08-30T09:56:47.890Z</time>
      </trkpt>
      <trkpt lat="59.9666" lon="18.80587">
        <ele>29.171305</ele>
        <time>2020-08-30T09:56:48.722Z</time>
      </trkpt>
      <trkpt lat="59.96619" lon="18.80564">
        <ele>29.069429</ele>
        <time>2020-08-30T09:56:55.809Z</time>
      </trkpt>
      <trkpt lat="59.96602" lon="18.8055">
        <ele>29.023946</ele>
        <time>2020-08-30T09:56:58.761Z</time>
      </trkpt>
      <trkpt lat="59.96575" lon="18.80528">
        <ele>28.954425</ele>
        <time>2020-08-30T09:57:03.320Z</time>
      </trkpt>
      <trkpt lat="59.96551" lon="18.80502">
        <ele>28.647256</ele>
        <time>2020-08-30T09:57:07.675Z</time>
      </trkpt>
      <trkpt lat="59.96539" lon="18.80526">
        <ele>28.429124</ele>
        <time>2020-08-30T09:57:10.254Z</time>
      </trkpt>
      <trkpt lat="59.96469" lon="18.80607">
        <ele>27.373518</ele>
        <time>2020-08-30T09:57:22.947Z</time>
      </trkpt>
      <trkpt lat="59.96432" lon="18.80635">
        <ele>26.867768</ele>
        <time>2020-08-30T09:57:28.897Z</time>
      </trkpt>
      <trkpt lat="59.96381" lon="18.80681">
        <ele>26.349017</ele>
        <time>2020-08-30T09:57:37.548Z</time>
      </trkpt>
      <trkpt lat="59.96351" lon="18.80718">
        <ele>26.09959</ele>
        <time>2020-08-30T09:57:43.141Z</time>
      </trkpt>
      <trkpt lat="59.96349" lon="18.80747">
        <ele>25.997579</ele>
        <time>2020-08-30T09:57:45.472Z</time>
      </trkpt>
      <trkpt lat="59.96356" lon="18.80783">
        <ele>25.860577</ele>
        <time>2020-08-30T09:57:48.632Z</time>
      </trkpt>
      <trkpt lat="59.96356" lon="18.80809">
        <ele>25.76946</ele>
        <time>2020-08-30T09:57:50.777Z</time>
      </trkpt>
      <trkpt lat="59.96324" lon="18.80905">
        <ele>25.362968</ele>
        <time>2020-08-30T09:58:00.980Z</time>
      </trkpt>
      <trkpt lat="59.96305" lon="18.81008">
        <ele>25.867724</ele>
        <time>2020-08-30T09:58:12.623Z</time>
      </trkpt>
      <trkpt lat="59.96251" lon="18.81199">
        <ele>27.050216</ele>
        <time>2020-08-30T09:58:37.859Z</time>
      </trkpt>
      <trkpt lat="59.96225" lon="18.81237">
        <ele>27.416109</ele>
        <time>2020-08-30T09:58:45.456Z</time>
      </trkpt>
      <trkpt lat="59.96215" lon="18.8124">
        <ele>27.54111</ele>
        <time>2020-08-30T09:58:47.852Z</time>
      </trkpt>
      <trkpt lat="59.96205" lon="18.81227">
        <ele>27.674232</ele>
        <time>2020-08-30T09:58:50.412Z</time>
      </trkpt>
      <trkpt lat="59.96181" lon="18.81179">
        <ele>28.083894</ele>
        <time>2020-08-30T09:58:58.245Z</time>
      </trkpt>
      <trkpt lat="59.9616" lon="18.8115">
        <ele>28.396528</ele>
        <time>2020-08-30T09:59:04.172Z</time>
      </trkpt>
      <trkpt lat="59.96128" lon="18.81153">
        <ele>28.779251</ele>
        <time>2020-08-30T09:59:11.349Z</time>
      </trkpt>
      <trkpt lat="59.96107" lon="18.81129">
        <ele>29.066022</ele>
        <time>2020-08-30T09:59:16.749Z</time>
      </trkpt>
      <trkpt lat="59.96092" lon="18.81084">
        <ele>29.390639</ele>
        <time>2020-08-30T09:59:22.380Z</time>
      </trkpt>
      <trkpt lat="59.96094" lon="18.81026">
        <ele>29.651146</ele>
        <time>2020-08-30T09:59:28.329Z</time>
      </trkpt>
      <trkpt lat="59.96086" lon="18.80991">
        <ele>29.81252</ele>
        <time>2020-08-30T09:59:32.245Z</time>
      </trkpt>
      <trkpt lat="59.96071" lon="18.80981">
        <ele>29.948212</ele>
        <time>2020-08-30T09:59:35.581Z</time>
      </trkpt>
      <trkpt lat="59.96012" lon="18.81004">
        <ele>30.461795</ele>
        <time>2020-08-30T09:59:48.446Z</time>
      </trkpt>
      <trkpt lat="59.95979" lon="18.80993">
        <ele>30.744778</ele>
        <time>2020-08-30T09:59:55.619Z</time>
      </trkpt>
      <trkpt lat="59.95962" lon="18.80998">
        <ele>30.893597</ele>
        <time>2020-08-30T09:59:59.386Z</time>
      </trkpt>
      <trkpt lat="59.95896" lon="18.81073">
        <ele>31.583782</ele>
        <time>2020-08-30T10:00:15.871Z</time>
      </trkpt>
      <trkpt lat="59.95855" lon="18.81068">
        <ele>31.962139</ele>
        <time>2020-08-30T10:00:24.801Z</time>
      </trkpt>
      <trkpt lat="59.95811" lon="18.81006">
        <ele>32.452437</ele>
        <time>2020-08-30T10:00:36.247Z</time>
      </trkpt>
      <trkpt lat="59.95782" lon="18.80999">
        <ele>32.710852</ele>
        <time>2020-08-30T10:00:42.482Z</time>
      </trkpt>
      <trkpt lat="59.95729" lon="18.81039">
        <ele>33.174722</ele>
        <time>2020-08-30T10:00:54.314Z</time>
      </trkpt>
      <trkpt lat="59.95708" lon="18.81039">
        <ele>33.349518</ele>
        <time>2020-08-30T10:00:58.761Z</time>
      </trkpt>
      <trkpt lat="59.95678" lon="18.81023">
        <ele>33.611014</ele>
        <time>2020-08-30T10:01:05.538Z</time>
      </trkpt>
      <trkpt lat="59.95654" lon="18.80994">
        <ele>33.84094</ele>
        <time>2020-08-30T10:01:11.504Z</time>
      </trkpt>
      <trkpt lat="59.95628" lon="18.80925">
        <ele>34.170552</ele>
        <time>2020-08-30T10:01:20.652Z</time>
      </trkpt>
      <trkpt lat="59.95601" lon="18.8088">
        <ele>34.377407</ele>
        <time>2020-08-30T10:01:27.963Z</time>
      </trkpt>
      <trkpt lat="59.95572" lon="18.80861">
        <ele>34.557663</ele>
        <time>2020-08-30T10:01:34.278Z</time>
      </trkpt>
      <trkpt lat="59.95555" lon="18.8085">
        <ele>34.664847</ele>
        <time>2020-08-30T10:01:38.046Z</time>
      </trkpt>
      <trkpt lat="59.95527" lon="18.80815">
        <ele>34.855931</ele>
        <time>2020-08-30T10:01:44.659Z</time>
      </trkpt>
      <trkpt lat="59.95498" lon="18.80809">
        <ele>35.029228</ele>
        <time>2020-08-30T10:01:50.547Z</time>
      </trkpt>
      <trkpt lat="59.95382" lon="18.80882">
        <ele>35.5224</ele>
        <time>2020-08-30T10:02:14.411Z</time>
      </trkpt>
      <trkpt lat="59.95345" lon="18.80888">
        <ele>35.655433</ele>
        <time>2020-08-30T10:02:21.637Z</time>
      </trkpt>
      <trkpt lat="59.95316" lon="18.80886">
        <ele>35.763088</ele>
        <time>2020-08-30T10:02:27.546Z</time>
      </trkpt>
      <trkpt lat="59.95251" lon="18.80833">
        <ele>35.500973</ele>
        <time>2020-08-30T10:02:41.627Z</time>
      </trkpt>
      <trkpt lat="59.95213" lon="18.80839">
        <ele>35.282812</ele>
        <time>2020-08-30T10:02:48.359Z</time>
      </trkpt>
      <trkpt lat="59.9517" lon="18.80905">
        <ele>34.978039</ele>
        <time>2020-08-30T10:02:57.260Z</time>
      </trkpt>
      <trkpt lat="59.95137" lon="18.80932">
        <ele>34.706304</ele>
        <time>2020-08-30T10:03:02.707Z</time>
      </trkpt>
      <trkpt lat="59.95103" lon="18.80962">
        <ele>33.812095</ele>
        <time>2020-08-30T10:03:08.291Z</time>
      </trkpt>
      <trkpt lat="59.95042" lon="18.80997">
        <ele>32.308139</ele>
        <time>2020-08-30T10:03:17.389Z</time>
      </trkpt>
      <trkpt lat="59.95001" lon="18.81042">
        <ele>31.203793</ele>
        <time>2020-08-30T10:03:23.871Z</time>
      </trkpt>
      <trkpt lat="59.94964" lon="18.81109">
        <ele>30.151903</ele>
        <time>2020-08-30T10:03:30.690Z</time>
      </trkpt>
      <trkpt lat="59.94882" lon="18.81315">
        <ele>27.76502</ele>
        <time>2020-08-30T10:03:50.682Z</time>
      </trkpt>
      <trkpt lat="59.94859" lon="18.81339">
        <ele>27.298862</ele>
        <time>2020-08-30T10:03:54.860Z</time>
      </trkpt>
      <trkpt lat="59.94815" lon="18.81366">
        <ele>26.935265</ele>
        <time>2020-08-30T10:04:02.485Z</time>
      </trkpt>
      <trkpt lat="59.94763" lon="18.81392">
        <ele>26.522063</ele>
        <time>2020-08-30T10:04:11.338Z</time>
      </trkpt>
      <trkpt lat="59.94718" lon="18.8139">
        <ele>26.16855</ele>
        <time>2020-08-30T10:04:18.974Z</time>
      </trkpt>
      <trkpt lat="59.94692" lon="18.81399">
        <ele>25.965363</ele>
        <time>2020-08-30T10:04:23.136Z</time>
      </trkpt>
      <trkpt lat="59.94647" lon="18.8144">
        <ele>25.985749</ele>
        <time>2020-08-30T10:04:31.762Z</time>
      </trkpt>
      <trkpt lat="59.94632" lon="18.81444">
        <ele>26.020581</ele>
        <time>2020-08-30T10:04:34.637Z</time>
      </trkpt>
      <trkpt lat="59.94566" lon="18.81432">
        <ele>26.16702</ele>
        <time>2020-08-30T10:04:47.416Z</time>
      </trkpt>
      <trkpt lat="59.94553" lon="18.81442">
        <ele>26.199251</ele>
        <time>2020-08-30T10:04:50.049Z</time>
      </trkpt>
      <trkpt lat="59.94492" lon="18.81487">
        <ele>26.500587</ele>
        <time>2020-08-30T10:05:04.254Z</time>
      </trkpt>
      <trkpt lat="59.94376" lon="18.81671">
        <ele>27.953984</ele>
        <time>2020-08-30T10:05:38.272Z</time>
      </trkpt>
      <trkpt lat="59.94253" lon="18.81772">
        <ele>26.713454</ele>
        <time>2020-08-30T10:06:00.802Z</time>
      </trkpt>
      <trkpt lat="59.94205" lon="18.81797">
        <ele>26.163486</ele>
        <time>2020-08-30T10:06:08.019Z</time>
      </trkpt>
      <trkpt lat="59.94194" lon="18.81799">
        <ele>25.982312</ele>
        <time>2020-08-30T10:06:09.550Z</time>
      </trkpt>
      <trkpt lat="59.94158" lon="18.81804">
        <ele>24.932102</ele>
        <time>2020-08-30T10:06:14.598Z</time>
      </trkpt>
      <trkpt lat="59.94135" lon="18.81814">
        <ele>24.247882</ele>
        <time>2020-08-30T10:06:17.933Z</time>
      </trkpt>
      <trkpt lat="59.94114" lon="18.81823">
        <ele>23.625844</ele>
        <time>2020-08-30T10:06:20.802Z</time>
      </trkpt>
      <trkpt lat="59.93991" lon="18.81794">
        <ele>20.144749</ele>
        <time>2020-08-30T10:06:37.916Z</time>
      </trkpt>
      <trkpt lat="59.9393" lon="18.81737">
        <ele>18.523524</ele>
        <time>2020-08-30T10:06:47.554Z</time>
      </trkpt>
      <trkpt lat="59.93902" lon="18.81731">
        <ele>17.8173</ele>
        <time>2020-08-30T10:06:51.823Z</time>
      </trkpt>
      <trkpt lat="59.93864" lon="18.81766">
        <ele>16.806646</ele>
        <time>2020-08-30T10:06:57.902Z</time>
      </trkpt>
      <trkpt lat="59.93812" lon="18.81796">
        <ele>15.773423</ele>
        <time>2020-08-30T10:07:05.569Z</time>
      </trkpt>
      <trkpt lat="59.93784" lon="18.8184">
        <ele>15.158834</ele>
        <time>2020-08-30T10:07:10.797Z</time>
      </trkpt>
      <trkpt lat="59.93724" lon="18.81864">
        <ele>14.11002</ele>
        <time>2020-08-30T10:07:20.034Z</time>
      </trkpt>
      <trkpt lat="59.93689" lon="18.8188">
        <ele>13.480701</ele>
        <time>2020-08-30T10:07:25.868Z</time>
      </trkpt>
      <trkpt lat="59.93676" lon="18.81831">
        <ele>13.412545</ele>
        <time>2020-08-30T10:07:30.467Z</time>
      </trkpt>
      <trkpt lat="59.93629" lon="18.81637">
        <ele>13.690494</ele>
        <time>2020-08-30T10:07:49.968Z</time>
      </trkpt>
      <trkpt lat="59.93574" lon="18.81412">
        <ele>15.227737</ele>
        <time>2020-08-30T10:08:20.432Z</time>
      </trkpt>
      <trkpt lat="59.93566" lon="18.81381">
        <ele>15.55311</ele>
        <time>2020-08-30T10:08:24.823Z</time>
      </trkpt>
      <trkpt lat="59.93531" lon="18.81239">
        <ele>17.053779</ele>
        <time>2020-08-30T10:08:44.947Z</time>
      </trkpt>
      <trkpt lat="59.93512" lon="18.81147">
        <ele>17.891384</ele>
        <time>2020-08-30T10:08:57.454Z</time>
      </trkpt>
      <trkpt lat="59.93495" lon="18.81065">
        <ele>18.610657</ele>
        <time>2020-08-30T10:09:08.030Z</time>
      </trkpt>
      <trkpt lat="59.93472" lon="18.80899">
        <ele>20.005976</ele>
        <time>2020-08-30T10:09:27.458Z</time>
      </trkpt>
      <trkpt lat="59.93466" lon="18.80811">
        <ele>21.316894</ele>
        <time>2020-08-30T10:09:37.730Z</time>
      </trkpt>
      <trkpt lat="59.9346" lon="18.80744">
        <ele>22.423141</ele>
        <time>2020-08-30T10:09:46.941Z</time>
      </trkpt>
      <trkpt lat="59.93415" lon="18.80759">
        <ele>23.909062</ele>
        <time>2020-08-30T10:10:00.744Z</time>
      </trkpt>
      <trkpt lat="59.9338" lon="18.8077">
        <ele>25.054116</ele>
        <time>2020-08-30T10:10:12.015Z</time>
      </trkpt>
      <trkpt lat="59.93357" lon="18.80777">
        <ele>25.818471</ele>
        <time>2020-08-30T10:10:19.833Z</time>
      </trkpt>
      <trkpt lat="59.9335" lon="18.80779">
        <ele>26.061224</ele>
        <time>2020-08-30T10:10:22.086Z</time>
      </trkpt>
      <trkpt lat="59.93299" lon="18.80795">
        <ele>28.275756</ele>
        <time>2020-08-30T10:10:40.053Z</time>
      </trkpt>
      <trkpt lat="59.93218" lon="18.80812">
        <ele>31.811071</ele>
        <time>2020-08-30T10:11:08.351Z</time>
      </trkpt>
      <trkpt lat="59.93137" lon="18.80851">
        <ele>34.232312</ele>
        <time>2020-08-30T10:11:32.059Z</time>
      </trkpt>
      <trkpt lat="59.9303" lon="18.80804">
        <ele>35.692548</ele>
        <time>2020-08-30T10:11:55.436Z</time>
      </trkpt>
      <trkpt lat="59.93003" lon="18.80772">
        <ele>36.113552</ele>
        <time>2020-08-30T10:12:01.528Z</time>
      </trkpt>
      <trkpt lat="59.9298" lon="18.80762">
        <ele>36.080503</ele>
        <time>2020-08-30T10:12:05.851Z</time>
      </trkpt>
      <trkpt lat="59.929" lon="18.80774">
        <ele>35.967675</ele>
        <time>2020-08-30T10:12:20.576Z</time>
      </trkpt>
      <trkpt lat="59.92847" lon="18.80772">
        <ele>35.892983</ele>
        <time>2020-08-30T10:12:30.049Z</time>
      </trkpt>
      <trkpt lat="59.92798" lon="18.80795">
        <ele>35.621174</ele>
        <time>2020-08-30T10:12:38.629Z</time>
      </trkpt>
      <trkpt lat="59.92743" lon="18.8086">
        <ele>35.050658</ele>
        <time>2020-08-30T10:12:49.280Z</time>
      </trkpt>
      <trkpt lat="59.92609" lon="18.80912">
        <ele>33.881749</ele>
        <time>2020-08-30T10:13:11.042Z</time>
      </trkpt>
      <trkpt lat="59.92578" lon="18.80904">
        <ele>33.640851</ele>
        <time>2020-08-30T10:13:15.914Z</time>
      </trkpt>
      <trkpt lat="59.92532" lon="18.8087">
        <ele>33.262088</ele>
        <time>2020-08-30T10:13:23.897Z</time>
      </trkpt>
      <trkpt lat="59.92488" lon="18.8079">
        <ele>32.891305</ele>
        <time>2020-08-30T10:13:34.604Z</time>
      </trkpt>
      <trkpt lat="59.92457" lon="18.80708">
        <ele>33.127452</ele>
        <time>2020-08-30T10:13:44.535Z</time>
      </trkpt>
      <trkpt lat="59.92433" lon="18.80661">
        <ele>33.283216</ele>
        <time>2020-08-30T10:13:51.440Z</time>
      </trkpt>
      <trkpt lat="59.92383" lon="18.80624">
        <ele>33.528525</ele>
        <time>2020-08-30T10:14:02.578Z</time>
      </trkpt>
      <trkpt lat="59.92288" lon="18.80642">
        <ele>33.966932</ele>
        <time>2020-08-30T10:14:22.853Z</time>
      </trkpt>
      <trkpt lat="59.92253" lon="18.80669">
        <ele>34.136445</ele>
        <time>2020-08-30T10:14:30.305Z</time>
      </trkpt>
      <trkpt lat="59.9221" lon="18.80685">
        <ele>34.340885</ele>
        <time>2020-08-30T10:14:38.936Z</time>
      </trkpt>
      <trkpt lat="59.92174" lon="18.80718">
        <ele>34.519881</ele>
        <time>2020-08-30T10:14:46.278Z</time>
      </trkpt>
      <trkpt lat="59.9214" lon="18.80716">
        <ele>34.680663</ele>
        <time>2020-08-30T10:14:52.743Z</time>
      </trkpt>
      <trkpt lat="59.92116" lon="18.80691">
        <ele>34.806674</ele>
        <time>2020-08-30T10:14:57.878Z</time>
      </trkpt>
      <trkpt lat="59.92073" lon="18.8059">
        <ele>35.114678</ele>
        <time>2020-08-30T10:15:10.987Z</time>
      </trkpt>
      <trkpt lat="59.92033" lon="18.80538">
        <ele>35.333351</ele>
        <time>2020-08-30T10:15:20.809Z</time>
      </trkpt>
      <trkpt lat="59.9194" lon="18.80452">
        <ele>36.70602</ele>
        <time>2020-08-30T10:15:44.189Z</time>
      </trkpt>
      <trkpt lat="59.91804" lon="18.8022">
        <ele>38.85527</ele>
        <time>2020-08-30T10:16:26.673Z</time>
      </trkpt>
      <trkpt lat="59.9174" lon="18.80084">
        <ele>39.655265</ele>
        <time>2020-08-30T10:16:45.846Z</time>
      </trkpt>
      <trkpt lat="59.91684" lon="18.80019">
        <ele>39.3814</ele>
        <time>2020-08-30T10:16:57.566Z</time>
      </trkpt>
      <trkpt lat="59.91663" lon="18.80016">
        <ele>39.290827</ele>
        <time>2020-08-30T10:17:01.237Z</time>
      </trkpt>
      <trkpt lat="59.91521" lon="18.8006">
        <ele>38.170639</ele>
        <time>2020-08-30T10:17:24.611Z</time>
      </trkpt>
      <trkpt lat="59.91489" lon="18.80053">
        <ele>37.768386</ele>
        <time>2020-08-30T10:17:29.518Z</time>
      </trkpt>
      <trkpt lat="59.91415" lon="18.79987">
        <ele>36.764273</ele>
        <time>2020-08-30T10:17:42.111Z</time>
      </trkpt>
      <trkpt lat="59.91376" lon="18.79934">
        <ele>36.494996</ele>
        <time>2020-08-30T10:17:49.631Z</time>
      </trkpt>
      <trkpt lat="59.91326" lon="18.79864">
        <ele>36.18611</ele>
        <time>2020-08-30T10:18:00.004Z</time>
      </trkpt>
      <trkpt lat="59.91263" lon="18.79771">
        <ele>35.804131</ele>
        <time>2020-08-30T10:18:13.986Z</time>
      </trkpt>
      <trkpt lat="59.9123" lon="18.79719">
        <ele>35.883754</ele>
        <time>2020-08-30T10:18:22.832Z</time>
      </trkpt>
      <trkpt lat="59.91184" lon="18.79633">
        <ele>36.000796</ele>
        <time>2020-08-30T10:18:35.436Z</time>
      </trkpt>
      <trkpt lat="59.91089" lon="18.7955">
        <ele>35.920218</ele>
        <time>2020-08-30T10:18:54.617Z</time>
      </trkpt>
      <trkpt lat="59.91073" lon="18.79526">
        <ele>35.782682</ele>
        <time>2020-08-30T10:18:58.068Z</time>
      </trkpt>
      <trkpt lat="59.91033" lon="18.79468">
        <ele>35.44438</ele>
        <time>2020-08-30T10:19:06.388Z</time>
      </trkpt>
      <trkpt lat="59.91021" lon="18.79446">
        <ele>35.332228</ele>
        <time>2020-08-30T10:19:09.066Z</time>
      </trkpt>
      <trkpt lat="59.91019" lon="18.79441">
        <ele>35.307044</ele>
        <time>2020-08-30T10:19:09.655Z</time>
      </trkpt>
      <trkpt lat="59.91014" lon="18.79435">
        <ele>35.269102</ele>
        <time>2020-08-30T10:19:10.537Z</time>
      </trkpt>
      <trkpt lat="59.90991" lon="18.79421">
        <ele>35.107027</ele>
        <time>2020-08-30T10:19:14.414Z</time>
      </trkpt>
      <trkpt lat="59.90953" lon="18.79406">
        <ele>34.794755</ele>
        <time>2020-08-30T10:19:20.580Z</time>
      </trkpt>
      <trkpt lat="59.90922" lon="18.79377">
        <ele>34.36924</ele>
        <time>2020-08-30T10:19:26.046Z</time>
      </trkpt>
      <trkpt lat="59.90894" lon="18.79356">
        <ele>34.001696</ele>
        <time>2020-08-30T10:19:30.744Z</time>
      </trkpt>
      <trkpt lat="59.90887" lon="18.79354">
        <ele>33.910194</ele>
        <time>2020-08-30T10:19:31.921Z</time>
      </trkpt>
      <trkpt lat="59.90858" lon="18.79347">
        <ele>33.559423</ele>
        <time>2020-08-30T10:19:36.412Z</time>
      </trkpt>
      <trkpt lat="59.90848" lon="18.79344">
        <ele>33.427994</ele>
        <time>2020-08-30T10:19:38.092Z</time>
      </trkpt>
      <trkpt lat="59.90807" lon="18.79306">
        <ele>32.880467</ele>
        <time>2020-08-30T10:19:45.129Z</time>
      </trkpt>
      <trkpt lat="59.90777" lon="18.79289">
        <ele>32.544492</ele>
        <time>2020-08-30T10:19:50.000Z</time>
      </trkpt>
      <trkpt lat="59.90724" lon="18.7928">
        <ele>32.05806</ele>
        <time>2020-08-30T10:19:58.575Z</time>
      </trkpt>
      <trkpt lat="59.90654" lon="18.7922">
        <ele>31.354062</ele>
        <time>2020-08-30T10:20:11.105Z</time>
      </trkpt>
      <trkpt lat="59.90639" lon="18.79225">
        <ele>31.217784</ele>
        <time>2020-08-30T10:20:13.475Z</time>
      </trkpt>
      <trkpt lat="59.90631" lon="18.79228">
        <ele>31.136561</ele>
        <time>2020-08-30T10:20:15.100Z</time>
      </trkpt>
      <trkpt lat="59.9061" lon="18.7926">
        <ele>31.023601</ele>
        <time>2020-08-30T10:20:19.509Z</time>
      </trkpt>
      <trkpt lat="59.9058" lon="18.79331">
        <ele>30.967387</ele>
        <time>2020-08-30T10:20:27.864Z</time>
      </trkpt>
      <trkpt lat="59.90542" lon="18.79434">
        <ele>30.891082</ele>
        <time>2020-08-30T10:20:39.391Z</time>
      </trkpt>
      <trkpt lat="59.90517" lon="18.79466">
        <ele>30.85499</ele>
        <time>2020-08-30T10:20:45.167Z</time>
      </trkpt>
      <trkpt lat="59.90486" lon="18.7947">
        <ele>30.878292</ele>
        <time>2020-08-30T10:20:50.979Z</time>
      </trkpt>
      <trkpt lat="59.90388" lon="18.7944">
        <ele>31.607839</ele>
        <time>2020-08-30T10:21:11.234Z</time>
      </trkpt>
      <trkpt lat="59.90355" lon="18.79358">
        <ele>31.990138</ele>
        <time>2020-08-30T10:21:22.826Z</time>
      </trkpt>
      <trkpt lat="59.90302" lon="18.79299">
        <ele>32.511747</ele>
        <time>2020-08-30T10:21:36.435Z</time>
      </trkpt>
      <trkpt lat="59.90254" lon="18.79248">
        <ele>33.022546</ele>
        <time>2020-08-30T10:21:48.527Z</time>
      </trkpt>
      <trkpt lat="59.90247" lon="18.79242">
        <ele>33.091765</ele>
        <time>2020-08-30T10:21:50.321Z</time>
      </trkpt>
      <trkpt lat="59.90224" lon="18.79197">
        <ele>33.387692</ele>
        <time>2020-08-30T10:21:57.144Z</time>
      </trkpt>
      <trkpt lat="59.90209" lon="18.79139">
        <ele>33.693457</ele>
        <time>2020-08-30T10:22:04.090Z</time>
      </trkpt>
      <trkpt lat="59.90182" lon="18.79072">
        <ele>33.782707</ele>
        <time>2020-08-30T10:22:12.925Z</time>
      </trkpt>
      <trkpt lat="59.90166" lon="18.79059">
        <ele>33.764951</ele>
        <time>2020-08-30T10:22:16.055Z</time>
      </trkpt>
      <trkpt lat="59.90079" lon="18.79029">
        <ele>33.674678</ele>
        <time>2020-08-30T10:22:31.392Z</time>
      </trkpt>
      <trkpt lat="59.90051" lon="18.79008">
        <ele>33.643966</ele>
        <time>2020-08-30T10:22:36.627Z</time>
      </trkpt>
      <trkpt lat="59.9004" lon="18.78995">
        <ele>33.630687</ele>
        <time>2020-08-30T10:22:38.749Z</time>
      </trkpt>
      <trkpt lat="59.90026" lon="18.78977">
        <ele>33.694352</ele>
        <time>2020-08-30T10:22:41.875Z</time>
      </trkpt>
      <trkpt lat="59.90024" lon="18.78975">
        <ele>33.705687</ele>
        <time>2020-08-30T10:22:42.348Z</time>
      </trkpt>
      <trkpt lat="59.89971" lon="18.78905">
        <ele>33.971104</ele>
        <time>2020-08-30T10:22:54.461Z</time>
      </trkpt>
      <trkpt lat="59.89962" lon="18.78872">
        <ele>34.049389</ele>
        <time>2020-08-30T10:22:58.147Z</time>
      </trkpt>
      <trkpt lat="59.8996" lon="18.78835">
        <ele>34.127729</ele>
        <time>2020-08-30T10:23:01.913Z</time>
      </trkpt>
      <trkpt lat="59.89956" lon="18.78744">
        <ele>34.320889</ele>
        <time>2020-08-30T10:23:11.383Z</time>
      </trkpt>
      <trkpt lat="59.89944" lon="18.78724">
        <ele>34.391554</ele>
        <time>2020-08-30T10:23:15.198Z</time>
      </trkpt>
      <trkpt lat="59.89834" lon="18.78671">
        <ele>35.477774</ele>
        <time>2020-08-30T10:23:40.482Z</time>
      </trkpt>
      <trkpt lat="59.89805" lon="18.78665">
        <ele>35.761382</ele>
        <time>2020-08-30T10:23:46.906Z</time>
      </trkpt>
      <trkpt lat="59.89777" lon="18.78677">
        <ele>36.040092</ele>
        <time>2020-08-30T10:23:52.835Z</time>
      </trkpt>
      <trkpt lat="59.89611" lon="18.78786">
        <ele>36.664643</ele>
        <time>2020-08-30T10:24:26.893Z</time>
      </trkpt>
      <trkpt lat="59.89564" lon="18.78798">
        <ele>36.723647</ele>
        <time>2020-08-30T10:24:36.073Z</time>
      </trkpt>
      <trkpt lat="59.8954" lon="18.78784">
        <ele>36.734347</ele>
        <time>2020-08-30T10:24:40.848Z</time>
      </trkpt>
      <trkpt lat="59.8952" lon="18.78762">
        <ele>36.744051</ele>
        <time>2020-08-30T10:24:45.146Z</time>
      </trkpt>
      <trkpt lat="59.89483" lon="18.78697">
        <ele>36.76538</ele>
        <time>2020-08-30T10:24:54.462Z</time>
      </trkpt>
      <trkpt lat="59.8945" lon="18.78671">
        <ele>36.781053</ele>
        <time>2020-08-30T10:25:01.078Z</time>
      </trkpt>
      <trkpt lat="59.89409" lon="18.78661">
        <ele>36.644732</ele>
        <time>2020-08-30T10:25:08.303Z</time>
      </trkpt>
      <trkpt lat="59.89361" lon="18.78664">
        <ele>36.405282</ele>
        <time>2020-08-30T10:25:16.377Z</time>
      </trkpt>
      <trkpt lat="59.89306" lon="18.78725">
        <ele>36.083271</ele>
        <time>2020-08-30T10:25:27.158Z</time>
      </trkpt>
      <trkpt lat="59.89273" lon="18.78723">
        <ele>35.920261</ele>
        <time>2020-08-30T10:25:32.634Z</time>
      </trkpt>
      <trkpt lat="59.89218" lon="18.78687">
        <ele>35.592772</ele>
        <time>2020-08-30T10:25:42.535Z</time>
      </trkpt>
      <trkpt lat="59.89124" lon="18.78601">
        <ele>35.000026</ele>
        <time>2020-08-30T10:26:00.342Z</time>
      </trkpt>
      <trkpt lat="59.89043" lon="18.78486">
        <ele>34.205765</ele>
        <time>2020-08-30T10:26:16.889Z</time>
      </trkpt>
      <trkpt lat="59.88959" lon="18.78315">
        <ele>33.304101</ele>
        <time>2020-08-30T10:26:36.173Z</time>
      </trkpt>
      <trkpt lat="59.88931" lon="18.78274">
        <ele>33.435718</ele>
        <time>2020-08-30T10:26:42.068Z</time>
      </trkpt>
      <trkpt lat="59.8886" lon="18.78245">
        <ele>33.711016</ele>
        <time>2020-08-30T10:26:55.937Z</time>
      </trkpt>
      <trkpt lat="59.88816" lon="18.78217">
        <ele>33.884791</ele>
        <time>2020-08-30T10:27:06.263Z</time>
      </trkpt>
      <trkpt lat="59.88778" lon="18.78227">
        <ele>34.495123</ele>
        <time>2020-08-30T10:27:15.552Z</time>
      </trkpt>
      <trkpt lat="59.88717" lon="18.78308">
        <ele>36.218535</ele>
        <time>2020-08-30T10:27:35.490Z</time>
      </trkpt>
      <trkpt lat="59.88623" lon="18.78387">
        <ele>38.282423</ele>
        <time>2020-08-30T10:28:02.915Z</time>
      </trkpt>
      <trkpt lat="59.88586" lon="18.78408">
        <ele>38.583627</ele>
        <time>2020-08-30T10:28:12.427Z</time>
      </trkpt>
      <trkpt lat="59.88502" lon="18.78396">
        <ele>39.229763</ele>
        <time>2020-08-30T10:28:30.078Z</time>
      </trkpt>
      <trkpt lat="59.88319" lon="18.78308">
        <ele>37.857678</ele>
        <time>2020-08-30T10:29:00.009Z</time>
      </trkpt>
      <trkpt lat="59.88221" lon="18.78193">
        <ele>37.046888</ele>
        <time>2020-08-30T10:29:17.974Z</time>
      </trkpt>
      <trkpt lat="59.88154" lon="18.78096">
        <ele>36.570429</ele>
        <time>2020-08-30T10:29:32.588Z</time>
      </trkpt>
      <trkpt lat="59.88136" lon="18.78088">
        <ele>36.54923</ele>
        <time>2020-08-30T10:29:36.298Z</time>
      </trkpt>
      <trkpt lat="59.88106" lon="18.78098">
        <ele>36.777124</ele>
        <time>2020-08-30T10:29:42.429Z</time>
      </trkpt>
      <trkpt lat="59.88077" lon="18.78096">
        <ele>37.002794</ele>
        <time>2020-08-30T10:29:48.759Z</time>
      </trkpt>
      <trkpt lat="59.8802" lon="18.78059">
        <ele>37.465878</ele>
        <time>2020-08-30T10:30:01.957Z</time>
      </trkpt>
      <trkpt lat="59.87975" lon="18.7805">
        <ele>37.815501</ele>
        <time>2020-08-30T10:30:11.801Z</time>
      </trkpt>
      <trkpt lat="59.87948" lon="18.78057">
        <ele>37.916555</ele>
        <time>2020-08-30T10:30:17.626Z</time>
      </trkpt>
      <trkpt lat="59.87902" lon="18.78082">
        <ele>38.002607</ele>
        <time>2020-08-30T10:30:27.517Z</time>
      </trkpt>
      <trkpt lat="59.87859" lon="18.78124">
        <ele>38.08939</ele>
        <time>2020-08-30T10:30:36.827Z</time>
      </trkpt>
      <trkpt lat="59.878" lon="18.78219">
        <ele>38.093499</ele>
        <time>2020-08-30T10:30:50.123Z</time>
      </trkpt>
      <trkpt lat="59.87768" lon="18.78238">
        <ele>37.675801</ele>
        <time>2020-08-30T10:30:55.766Z</time>
      </trkpt>
      <trkpt lat="59.87635" lon="18.78231">
        <ele>36.046184</ele>
        <time>2020-08-30T10:31:16.459Z</time>
      </trkpt>
      <trkpt lat="59.87603" lon="18.78209">
        <ele>35.573669</ele>
        <time>2020-08-30T10:31:21.478Z</time>
      </trkpt>
      <trkpt lat="59.87565" lon="18.78215">
        <ele>35.033452</ele>
        <time>2020-08-30T10:31:27.170Z</time>
      </trkpt>
      <trkpt lat="59.87512" lon="18.78252">
        <ele>34.235598</ele>
        <time>2020-08-30T10:31:35.681Z</time>
      </trkpt>
      <trkpt lat="59.8746" lon="18.78275">
        <ele>33.477913</ele>
        <time>2020-08-30T10:31:44.063Z</time>
      </trkpt>
      <trkpt lat="59.87422" lon="18.78281">
        <ele>33.614404</ele>
        <time>2020-08-30T10:31:50.610Z</time>
      </trkpt>
      <trkpt lat="59.87389" lon="18.78276">
        <ele>33.768017</ele>
        <time>2020-08-30T10:31:56.550Z</time>
      </trkpt>
      <trkpt lat="59.87326" lon="18.78229">
        <ele>34.084181</ele>
        <time>2020-08-30T10:32:10.609Z</time>
      </trkpt>
      <trkpt lat="59.87269" lon="18.78172">
        <ele>34.41749</ele>
        <time>2020-08-30T10:32:26.235Z</time>
      </trkpt>
      <trkpt lat="59.87202" lon="18.78088">
        <ele>34.927012</ele>
        <time>2020-08-30T10:32:44.117Z</time>
      </trkpt>
      <trkpt lat="59.87197" lon="18.78077">
        <ele>34.974233</ele>
        <time>2020-08-30T10:32:46.308Z</time>
      </trkpt>
      <trkpt lat="59.87193" lon="18.78062">
        <ele>35.029027</ele>
        <time>2020-08-30T10:32:47.885Z</time>
      </trkpt>
      <trkpt lat="59.87175" lon="18.77963">
        <ele>35.367939</ele>
        <time>2020-08-30T10:32:57.501Z</time>
      </trkpt>
      <trkpt lat="59.87144" lon="18.77877">
        <ele>34.3837</ele>
        <time>2020-08-30T10:33:06.360Z</time>
      </trkpt>
      <trkpt lat="59.87064" lon="18.77732">
        <ele>31.671545</ele>
        <time>2020-08-30T10:33:21.249Z</time>
      </trkpt>
      <trkpt lat="59.87019" lon="18.77623">
        <ele>29.564854</ele>
        <time>2020-08-30T10:33:30.784Z</time>
      </trkpt>
      <trkpt lat="59.86938" lon="18.77463">
        <ele>25.853838</ele>
        <time>2020-08-30T10:33:46.214Z</time>
      </trkpt>
      <trkpt lat="59.86898" lon="18.77359">
        <ele>24.405049</ele>
        <time>2020-08-30T10:33:55.552Z</time>
      </trkpt>
      <trkpt lat="59.86846" lon="18.77112">
        <ele>22.33664</ele>
        <time>2020-08-30T10:34:16.506Z</time>
      </trkpt>
      <trkpt lat="59.86853" lon="18.77054">
        <ele>22.369733</ele>
        <time>2020-08-30T10:34:21.867Z</time>
      </trkpt>
      <trkpt lat="59.86899" lon="18.76959">
        <ele>22.663681</ele>
        <time>2020-08-30T10:34:34.875Z</time>
      </trkpt>
      <trkpt lat="59.86907" lon="18.76932">
        <ele>22.732568</ele>
        <time>2020-08-30T10:34:38.098Z</time>
      </trkpt>
      <trkpt lat="59.86922" lon="18.76833">
        <ele>22.961742</ele>
        <time>2020-08-30T10:34:49.397Z</time>
      </trkpt>
      <trkpt lat="59.86957" lon="18.7666">
        <ele>24.308194</ele>
        <time>2020-08-30T10:35:10.995Z</time>
      </trkpt>
      <trkpt lat="59.86959" lon="18.76604">
        <ele>24.798266</ele>
        <time>2020-08-30T10:35:18.255Z</time>
      </trkpt>
      <trkpt lat="59.86935" lon="18.76453">
        <ele>26.159096</ele>
        <time>2020-08-30T10:35:38.356Z</time>
      </trkpt>
      <trkpt lat="59.86938" lon="18.7639">
        <ele>26.453147</ele>
        <time>2020-08-30T10:35:45.859Z</time>
      </trkpt>
      <trkpt lat="59.86938" lon="18.76358">
        <ele>26.603832</ele>
        <time>2020-08-30T10:35:49.813Z</time>
      </trkpt>
      <trkpt lat="59.86935" lon="18.76328">
        <ele>26.745355</ele>
        <time>2020-08-30T10:35:53.141Z</time>
      </trkpt>
      <trkpt lat="59.86925" lon="18.76266">
        <ele>27.050676</ele>
        <time>2020-08-30T10:36:00.337Z</time>
      </trkpt>
      <trkpt lat="59.86919" lon="18.76245">
        <ele>27.166146</ele>
        <time>2020-08-30T10:36:03.027Z</time>
      </trkpt>
      <trkpt lat="59.86907" lon="18.76218">
        <ele>27.333339</ele>
        <time>2020-08-30T10:36:06.788Z</time>
      </trkpt>
      <trkpt lat="59.86888" lon="18.76153">
        <ele>27.685302</ele>
        <time>2020-08-30T10:36:14.272Z</time>
      </trkpt>
      <trkpt lat="59.86876" lon="18.76066">
        <ele>27.552606</ele>
        <time>2020-08-30T10:36:22.608Z</time>
      </trkpt>
      <trkpt lat="59.86865" lon="18.76026">
        <ele>27.336121</ele>
        <time>2020-08-30T10:36:26.451Z</time>
      </trkpt>
      <trkpt lat="59.86816" lon="18.75946">
        <ele>26.747899</ele>
        <time>2020-08-30T10:36:36.457Z</time>
      </trkpt>
      <trkpt lat="59.8678" lon="18.75856">
        <ele>26.213232</ele>
        <time>2020-08-30T10:36:45.450Z</time>
      </trkpt>
      <trkpt lat="59.86728" lon="18.7578">
        <ele>25.472705</ele>
        <time>2020-08-30T10:36:55.650Z</time>
      </trkpt>
      <trkpt lat="59.86702" lon="18.75723">
        <ele>25.025695</ele>
        <time>2020-08-30T10:37:01.754Z</time>
      </trkpt>
      <trkpt lat="59.86666" lon="18.75602">
        <ele>24.193774</ele>
        <time>2020-08-30T10:37:13.165Z</time>
      </trkpt>
      <trkpt lat="59.86621" lon="18.75418">
        <ele>22.815871</ele>
        <time>2020-08-30T10:37:29.534Z</time>
      </trkpt>
      <trkpt lat="59.8661" lon="18.75396">
        <ele>22.604836</ele>
        <time>2020-08-30T10:37:31.948Z</time>
      </trkpt>
      <trkpt lat="59.86562" lon="18.75343">
        <ele>21.85455</ele>
        <time>2020-08-30T10:37:40.418Z</time>
      </trkpt>
      <trkpt lat="59.86529" lon="18.75293">
        <ele>21.234806</ele>
        <time>2020-08-30T10:37:46.669Z</time>
      </trkpt>
      <trkpt lat="59.86458" lon="18.75122">
        <ele>19.463467</ele>
        <time>2020-08-30T10:38:03.420Z</time>
      </trkpt>
      <trkpt lat="59.86442" lon="18.75084">
        <ele>19.05994</ele>
        <time>2020-08-30T10:38:07.346Z</time>
      </trkpt>
      <trkpt lat="59.8643" lon="18.75046">
        <ele>18.723505</ele>
        <time>2020-08-30T10:38:10.800Z</time>
      </trkpt>
      <trkpt lat="59.86411" lon="18.7499">
        <ele>18.51536</ele>
        <time>2020-08-30T10:38:16.232Z</time>
      </trkpt>
      <trkpt lat="59.86371" lon="18.74919">
        <ele>18.184123</ele>
        <time>2020-08-30T10:38:25.128Z</time>
      </trkpt>
      <trkpt lat="59.86353" lon="18.74873">
        <ele>18.005075</ele>
        <time>2020-08-30T10:38:30.093Z</time>
      </trkpt>
      <trkpt lat="59.86334" lon="18.7468">
        <ele>17.78321</ele>
        <time>2020-08-30T10:38:48.420Z</time>
      </trkpt>
      <trkpt lat="59.86329" lon="18.74573">
        <ele>18.004928</ele>
        <time>2020-08-30T10:38:58.938Z</time>
      </trkpt>
      <trkpt lat="59.86319" lon="18.74518">
        <ele>18.124489</ele>
        <time>2020-08-30T10:39:04.734Z</time>
      </trkpt>
      <trkpt lat="59.86308" lon="18.74494">
        <ele>18.190833</ele>
        <time>2020-08-30T10:39:08.020Z</time>
      </trkpt>
      <trkpt lat="59.86296" lon="18.74477">
        <ele>18.252395</ele>
        <time>2020-08-30T10:39:11.170Z</time>
      </trkpt>
      <trkpt lat="59.8628" lon="18.74458">
        <ele>18.328631</ele>
        <time>2020-08-30T10:39:15.114Z</time>
      </trkpt>
      <trkpt lat="59.86252" lon="18.74417">
        <ele>18.777307</ele>
        <time>2020-08-30T10:39:22.602Z</time>
      </trkpt>
      <trkpt lat="59.86209" lon="18.74329">
        <ele>19.79596</ele>
        <time>2020-08-30T10:39:36.907Z</time>
      </trkpt>
      <trkpt lat="59.86098" lon="18.742">
        <ele>22.053243</ele>
        <time>2020-08-30T10:40:09.028Z</time>
      </trkpt>
      <trkpt lat="59.86059" lon="18.74189">
        <ele>22.854999</ele>
        <time>2020-08-30T10:40:19.385Z</time>
      </trkpt>
      <trkpt lat="59.85912" lon="18.74218">
        <ele>25.44036</ele>
        <time>2020-08-30T10:40:56.296Z</time>
      </trkpt>
      <trkpt lat="59.8589" lon="18.74225">
        <ele>25.658954</ele>
        <time>2020-08-30T10:41:01.244Z</time>
      </trkpt>
      <trkpt lat="59.85867" lon="18.74237">
        <ele>25.890974</ele>
        <time>2020-08-30T10:41:06.578Z</time>
      </trkpt>
      <trkpt lat="59.85716" lon="18.74322">
        <ele>26.426101</ele>
        <time>2020-08-30T10:41:37.258Z</time>
      </trkpt>
      <trkpt lat="59.8569" lon="18.74327">
        <ele>26.284621</ele>
        <time>2020-08-30T10:41:42.008Z</time>
      </trkpt>
      <trkpt lat="59.85662" lon="18.74316">
        <ele>26.13067</ele>
        <time>2020-08-30T10:41:47.260Z</time>
      </trkpt>
      <trkpt lat="59.85651" lon="18.74307">
        <ele>26.063697</ele>
        <time>2020-08-30T10:41:48.996Z</time>
      </trkpt>
      <trkpt lat="59.85639" lon="18.7429">
        <ele>25.983558</ele>
        <time>2020-08-30T10:41:51.978Z</time>
      </trkpt>
      <trkpt lat="59.85593" lon="18.74194">
        <ele>24.840547</ele>
        <time>2020-08-30T10:42:01.848Z</time>
      </trkpt>
      <trkpt lat="59.85584" lon="18.74177">
        <ele>24.487422</ele>
        <time>2020-08-30T10:42:03.915Z</time>
      </trkpt>
      <trkpt lat="59.85571" lon="18.7416">
        <ele>24.029997</ele>
        <time>2020-08-30T10:42:05.866Z</time>
      </trkpt>
      <trkpt lat="59.8548" lon="18.74075">
        <ele>21.122815</ele>
        <time>2020-08-30T10:42:19.851Z</time>
      </trkpt>
      <trkpt lat="59.85476" lon="18.74072">
        <ele>20.99453</ele>
        <time>2020-08-30T10:42:20.351Z</time>
      </trkpt>
      <trkpt lat="59.8546" lon="18.74056">
        <ele>20.491759</ele>
        <time>2020-08-30T10:42:22.962Z</time>
      </trkpt>
      <trkpt lat="59.85447" lon="18.74043">
        <ele>20.133988</ele>
        <time>2020-08-30T10:42:24.920Z</time>
      </trkpt>
      <trkpt lat="59.85415" lon="18.74019">
        <ele>19.322153</ele>
        <time>2020-08-30T10:42:29.482Z</time>
      </trkpt>
      <trkpt lat="59.85385" lon="18.74011">
        <ele>18.590734</ele>
        <time>2020-08-30T10:42:33.576Z</time>
      </trkpt>
      <trkpt lat="59.85252" lon="18.74016">
        <ele>16.191884</ele>
        <time>2020-08-30T10:42:53.908Z</time>
      </trkpt>
      <trkpt lat="59.85219" lon="18.74025">
        <ele>16.128894</ele>
        <time>2020-08-30T10:43:00.265Z</time>
      </trkpt>
      <trkpt lat="59.85197" lon="18.74052">
        <ele>16.081549</ele>
        <time>2020-08-30T10:43:05.189Z</time>
      </trkpt>
      <trkpt lat="59.85189" lon="18.74073">
        <ele>16.057066</ele>
        <time>2020-08-30T10:43:07.684Z</time>
      </trkpt>
      <trkpt lat="59.85183" lon="18.74115">
        <ele>16.015468</ele>
        <time>2020-08-30T10:43:12.092Z</time>
      </trkpt>
      <trkpt lat="59.85182" lon="18.74216">
        <ele>15.912113</ele>
        <time>2020-08-30T10:43:22.298Z</time>
      </trkpt>
      <trkpt lat="59.85169" lon="18.74265">
        <ele>15.748163</ele>
        <time>2020-08-30T10:43:27.955Z</time>
      </trkpt>
      <trkpt lat="59.85148" lon="18.74296">
        <ele>15.595891</ele>
        <time>2020-08-30T10:43:32.570Z</time>
      </trkpt>
      <trkpt lat="59.85043" lon="18.74394">
        <ele>14.918093</ele>
        <time>2020-08-30T10:43:51.610Z</time>
      </trkpt>
      <trkpt lat="59.85017" lon="18.74417">
        <ele>14.682613</ele>
        <time>2020-08-30T10:43:56.002Z</time>
      </trkpt>
      <trkpt lat="59.85007" lon="18.74425">
        <ele>14.579557</ele>
        <time>2020-08-30T10:43:57.702Z</time>
      </trkpt>
      <trkpt lat="59.8493" lon="18.74476">
        <ele>13.81841</ele>
        <time>2020-08-30T10:44:10.334Z</time>
      </trkpt>
      <trkpt lat="59.84846" lon="18.74498">
        <ele>13.398639</ele>
        <time>2020-08-30T10:44:24.344Z</time>
      </trkpt>
      <trkpt lat="59.84707" lon="18.74627">
        <ele>15.356464</ele>
        <time>2020-08-30T10:44:59.686Z</time>
      </trkpt>
      <trkpt lat="59.84641" lon="18.74639">
        <ele>17.170596</ele>
        <time>2020-08-30T10:45:18.734Z</time>
      </trkpt>
      <trkpt lat="59.84597" lon="18.7463">
        <ele>18.474861</ele>
        <time>2020-08-30T10:45:31.676Z</time>
      </trkpt>
      <trkpt lat="59.8457" lon="18.74605">
        <ele>19.341676</ele>
        <time>2020-08-30T10:45:40.324Z</time>
      </trkpt>
      <trkpt lat="59.84557" lon="18.74574">
        <ele>19.937719</ele>
        <time>2020-08-30T10:45:46.228Z</time>
      </trkpt>
      <trkpt lat="59.84563" lon="18.74468">
        <ele>21.305343</ele>
        <time>2020-08-30T10:46:01.204Z</time>
      </trkpt>
      <trkpt lat="59.84561" lon="18.74405">
        <ele>21.969536</ele>
        <time>2020-08-30T10:46:09.616Z</time>
      </trkpt>
      <trkpt lat="59.84547" lon="18.74318">
        <ele>22.916615</ele>
        <time>2020-08-30T10:46:21.088Z</time>
      </trkpt>
      <trkpt lat="59.84532" lon="18.74262">
        <ele>23.589577</ele>
        <time>2020-08-30T10:46:28.873Z</time>
      </trkpt>
      <trkpt lat="59.8451" lon="18.74214">
        <ele>24.260469</ele>
        <time>2020-08-30T10:46:36.366Z</time>
      </trkpt>
      <trkpt lat="59.84465" lon="18.74151">
        <ele>25.002153</ele>
        <time>2020-08-30T10:46:49.318Z</time>
      </trkpt>
      <trkpt lat="59.84402" lon="18.74046">
        <ele>25.903749</ele>
        <time>2020-08-30T10:47:07.307Z</time>
      </trkpt>
      <trkpt lat="59.84378" lon="18.74026">
        <ele>26.191128</ele>
        <time>2020-08-30T10:47:12.873Z</time>
      </trkpt>
      <trkpt lat="59.84355" lon="18.74036">
        <ele>26.453903</ele>
        <time>2020-08-30T10:47:17.686Z</time>
      </trkpt>
      <trkpt lat="59.84342" lon="18.74054">
        <ele>26.570785</ele>
        <time>2020-08-30T10:47:21.525Z</time>
      </trkpt>
      <trkpt lat="59.8433" lon="18.74075">
        <ele>26.642893</ele>
        <time>2020-08-30T10:47:24.577Z</time>
      </trkpt>
      <trkpt lat="59.84303" lon="18.74102">
        <ele>26.779257</ele>
        <time>2020-08-30T10:47:31.005Z</time>
      </trkpt>
      <trkpt lat="59.84288" lon="18.7411">
        <ele>26.851841</ele>
        <time>2020-08-30T10:47:34.285Z</time>
      </trkpt>
      <trkpt lat="59.84278" lon="18.74114">
        <ele>26.90057</ele>
        <time>2020-08-30T10:47:36.623Z</time>
      </trkpt>
      <trkpt lat="59.84231" lon="18.74107">
        <ele>27.112611</ele>
        <time>2020-08-30T10:47:45.800Z</time>
      </trkpt>
      <trkpt lat="59.8417" lon="18.74049">
        <ele>27.262092</ele>
        <time>2020-08-30T10:47:58.371Z</time>
      </trkpt>
      <trkpt lat="59.84082" lon="18.74034">
        <ele>26.79854</ele>
        <time>2020-08-30T10:48:14.089Z</time>
      </trkpt>
      <trkpt lat="59.84054" lon="18.74038">
        <ele>26.647366</ele>
        <time>2020-08-30T10:48:19.100Z</time>
      </trkpt>
      <trkpt lat="59.84018" lon="18.74056">
        <ele>26.451489</ele>
        <time>2020-08-30T10:48:25.377Z</time>
      </trkpt>
      <trkpt lat="59.83895" lon="18.74151">
        <ele>23.798502</ele>
        <time>2020-08-30T10:48:45.134Z</time>
      </trkpt>
      <trkpt lat="59.83869" lon="18.74161">
        <ele>23.226097</ele>
        <time>2020-08-30T10:48:48.961Z</time>
      </trkpt>
      <trkpt lat="59.83857" lon="18.74166">
        <ele>22.97979</ele>
        <time>2020-08-30T10:48:50.560Z</time>
      </trkpt>
      <trkpt lat="59.83845" lon="18.74171">
        <ele>22.714948</ele>
        <time>2020-08-30T10:48:52.192Z</time>
      </trkpt>
      <trkpt lat="59.83828" lon="18.74174">
        <ele>22.236125</ele>
        <time>2020-08-30T10:48:54.559Z</time>
      </trkpt>
      <trkpt lat="59.8382" lon="18.74175">
        <ele>21.952714</ele>
        <time>2020-08-30T10:48:55.699Z</time>
      </trkpt>
      <trkpt lat="59.83804" lon="18.74173">
        <ele>21.428752</ele>
        <time>2020-08-30T10:48:57.732Z</time>
      </trkpt>
      <trkpt lat="59.83756" lon="18.7416">
        <ele>19.794888</ele>
        <time>2020-08-30T10:49:04.408Z</time>
      </trkpt>
      <trkpt lat="59.83721" lon="18.74136">
        <ele>18.58303</ele>
        <time>2020-08-30T10:49:09.249Z</time>
      </trkpt>
      <trkpt lat="59.83702" lon="18.7412">
        <ele>17.882447</ele>
        <time>2020-08-30T10:49:11.952Z</time>
      </trkpt>
      <trkpt lat="59.83672" lon="18.74096">
        <ele>16.810507</ele>
        <time>2020-08-30T10:49:16.395Z</time>
      </trkpt>
      <trkpt lat="59.83608" lon="18.74044">
        <ele>15.933221</ele>
        <time>2020-08-30T10:49:26.573Z</time>
      </trkpt>
      <trkpt lat="59.83565" lon="18.74009">
        <ele>15.459882</ele>
        <time>2020-08-30T10:49:33.805Z</time>
      </trkpt>
      <trkpt lat="59.83482" lon="18.73942">
        <ele>14.729888</ele>
        <time>2020-08-30T10:49:51.829Z</time>
      </trkpt>
      <trkpt lat="59.8337" lon="18.73854">
        <ele>14.802195</ele>
        <time>2020-08-30T10:50:15.586Z</time>
      </trkpt>
      <trkpt lat="59.83256" lon="18.73765">
        <ele>14.154805</ele>
        <time>2020-08-30T10:50:36.051Z</time>
      </trkpt>
      <trkpt lat="59.83158" lon="18.73686">
        <ele>13.289113</ele>
        <time>2020-08-30T10:50:52.973Z</time>
      </trkpt>
      <trkpt lat="59.83076" lon="18.73623">
        <ele>12.642365</ele>
        <time>2020-08-30T10:51:07.816Z</time>
      </trkpt>
      <trkpt lat="59.83039" lon="18.73593">
        <ele>12.344105</ele>
        <time>2020-08-30T10:51:14.603Z</time>
      </trkpt>
      <trkpt lat="59.83009" lon="18.73573">
        <ele>12.113836</ele>
        <time>2020-08-30T10:51:19.715Z</time>
      </trkpt>
      <trkpt lat="59.82959" lon="18.73557">
        <ele>12.291277</ele>
        <time>2020-08-30T10:51:28.002Z</time>
      </trkpt>
      <trkpt lat="59.82906" lon="18.73572">
        <ele>12.687395</ele>
        <time>2020-08-30T10:51:38.027Z</time>
      </trkpt>
      <trkpt lat="59.82884" lon="18.73586">
        <ele>12.858215</ele>
        <time>2020-08-30T10:51:42.853Z</time>
      </trkpt>
      <trkpt lat="59.82846" lon="18.73614">
        <ele>13.163819</ele>
        <time>2020-08-30T10:51:52.996Z</time>
      </trkpt>
      <trkpt lat="59.82839" lon="18.73626">
        <ele>13.234391</ele>
        <time>2020-08-30T10:51:55.698Z</time>
      </trkpt>
      <trkpt lat="59.82829" lon="18.73658">
        <ele>13.438093</ele>
        <time>2020-08-30T10:52:00.349Z</time>
      </trkpt>
      <trkpt lat="59.82827" lon="18.73683">
        <ele>13.789233</ele>
        <time>2020-08-30T10:52:03.713Z</time>
      </trkpt>
      <trkpt lat="59.82835" lon="18.73796">
        <ele>15.423887</ele>
        <time>2020-08-30T10:52:19.258Z</time>
      </trkpt>
      <trkpt lat="59.82837" lon="18.73861">
        <ele>16.350919</ele>
        <time>2020-08-30T10:52:29.230Z</time>
      </trkpt>
      <trkpt lat="59.82838" lon="18.73931">
        <ele>17.353302</ele>
        <time>2020-08-30T10:52:39.252Z</time>
      </trkpt>
      <trkpt lat="59.82829" lon="18.74076">
        <ele>18.683416</ele>
        <time>2020-08-30T10:52:58.292Z</time>
      </trkpt>
      <trkpt lat="59.82822" lon="18.74145">
        <ele>18.916621</ele>
        <time>2020-08-30T10:53:05.782Z</time>
      </trkpt>
      <trkpt lat="59.82814" lon="18.74212">
        <ele>19.148611</ele>
        <time>2020-08-30T10:53:12.076Z</time>
      </trkpt>
      <trkpt lat="59.82793" lon="18.74343">
        <ele>19.605559</ele>
        <time>2020-08-30T10:53:23.713Z</time>
      </trkpt>
      <trkpt lat="59.82624" lon="18.74985">
        <ele>18.477504</ele>
        <time>2020-08-30T10:54:24.537Z</time>
      </trkpt>
      <trkpt lat="59.82535" lon="18.75319">
        <ele>20.18811</ele>
        <time>2020-08-30T10:55:03.174Z</time>
      </trkpt>
      <trkpt lat="59.82515" lon="18.75396">
        <ele>21.472698</ele>
        <time>2020-08-30T10:55:14.236Z</time>
      </trkpt>
      <trkpt lat="59.82504" lon="18.75439">
        <ele>22.185164</ele>
        <time>2020-08-30T10:55:20.932Z</time>
      </trkpt>
      <trkpt lat="59.82427" lon="18.7572">
        <ele>26.952782</ele>
        <time>2020-08-30T10:56:08.878Z</time>
      </trkpt>
      <trkpt lat="59.82391" lon="18.75802">
        <ele>28.570184</ele>
        <time>2020-08-30T10:56:23.909Z</time>
      </trkpt>
      <trkpt lat="59.8237" lon="18.75834">
        <ele>29.36058</ele>
        <time>2020-08-30T10:56:30.923Z</time>
      </trkpt>
      <trkpt lat="59.82321" lon="18.75894">
        <ele>30.751366</ele>
        <time>2020-08-30T10:56:45.267Z</time>
      </trkpt>
      <trkpt lat="59.82281" lon="18.75925">
        <ele>31.172604</ele>
        <time>2020-08-30T10:56:55.101Z</time>
      </trkpt>
      <trkpt lat="59.82219" lon="18.75947">
        <ele>31.798889</ele>
        <time>2020-08-30T10:57:08.298Z</time>
      </trkpt>
      <trkpt lat="59.82169" lon="18.75943">
        <ele>32.287518</ele>
        <time>2020-08-30T10:57:17.559Z</time>
      </trkpt>
      <trkpt lat="59.82151" lon="18.75937">
        <ele>32.311401</ele>
        <time>2020-08-30T10:57:20.778Z</time>
      </trkpt>
      <trkpt lat="59.8208" lon="18.75911">
        <ele>31.915244</ele>
        <time>2020-08-30T10:57:32.952Z</time>
      </trkpt>
      <trkpt lat="59.82045" lon="18.75905">
        <ele>31.725151</ele>
        <time>2020-08-30T10:57:38.584Z</time>
      </trkpt>
      <trkpt lat="59.8182" lon="18.75907">
        <ele>29.666072</ele>
        <time>2020-08-30T10:58:13.614Z</time>
      </trkpt>
      <trkpt lat="59.81549" lon="18.75918">
        <ele>25.860275</ele>
        <time>2020-08-30T10:58:53.733Z</time>
      </trkpt>
      <trkpt lat="59.81529" lon="18.75917">
        <ele>25.56927</ele>
        <time>2020-08-30T10:58:56.540Z</time>
      </trkpt>
      <trkpt lat="59.81513" lon="18.75915">
        <ele>25.332795</ele>
        <time>2020-08-30T10:58:58.786Z</time>
      </trkpt>
      <trkpt lat="59.81477" lon="18.75908">
        <ele>24.792922</ele>
        <time>2020-08-30T10:59:04.034Z</time>
      </trkpt>
      <trkpt lat="59.81421" lon="18.75867">
        <ele>24.063355</ele>
        <time>2020-08-30T10:59:12.980Z</time>
      </trkpt>
      <trkpt lat="59.81326" lon="18.75757">
        <ele>23.146491</ele>
        <time>2020-08-30T10:59:30.171Z</time>
      </trkpt>
      <trkpt lat="59.81183" lon="18.75563">
        <ele>22.021533</ele>
        <time>2020-08-30T10:59:59.303Z</time>
      </trkpt>
      <trkpt lat="59.81112" lon="18.75498">
        <ele>21.578444</ele>
        <time>2020-08-30T11:00:11.365Z</time>
      </trkpt>
      <trkpt lat="59.81024" lon="18.75463">
        <ele>21.108657</ele>
        <time>2020-08-30T11:00:25.726Z</time>
      </trkpt>
      <trkpt lat="59.80985" lon="18.7546">
        <ele>20.907351</ele>
        <time>2020-08-30T11:00:32.224Z</time>
      </trkpt>
      <trkpt lat="59.80917" lon="18.75467">
        <ele>20.99864</ele>
        <time>2020-08-30T11:00:44.904Z</time>
      </trkpt>
      <trkpt lat="59.80829" lon="18.75473">
        <ele>21.425846</ele>
        <time>2020-08-30T11:01:03.068Z</time>
      </trkpt>
      <trkpt lat="59.80756" lon="18.75481">
        <ele>21.340245</ele>
        <time>2020-08-30T11:01:17.341Z</time>
      </trkpt>
      <trkpt lat="59.80721" lon="18.75485">
        <ele>20.92205</ele>
        <time>2020-08-30T11:01:23.044Z</time>
      </trkpt>
      <trkpt lat="59.80624" lon="18.7551">
        <ele>19.739721</ele>
        <time>2020-08-30T11:01:37.140Z</time>
      </trkpt>
      <trkpt lat="59.80519" lon="18.75571">
        <ele>18.181874</ele>
        <time>2020-08-30T11:01:52.150Z</time>
      </trkpt>
      <trkpt lat="59.80472" lon="18.75603">
        <ele>17.462213</ele>
        <time>2020-08-30T11:01:59.216Z</time>
      </trkpt>
      <trkpt lat="59.80248" lon="18.7576">
        <ele>17.315923</ele>
        <time>2020-08-30T11:02:45.125Z</time>
      </trkpt>
      <trkpt lat="59.80129" lon="18.75844">
        <ele>16.764511</ele>
        <time>2020-08-30T11:03:06.059Z</time>
      </trkpt>
      <trkpt lat="59.80072" lon="18.75884">
        <ele>16.603129</ele>
        <time>2020-08-30T11:03:15.402Z</time>
      </trkpt>
      <trkpt lat="59.80068" lon="18.75887">
        <ele>16.603506</ele>
        <time>2020-08-30T11:03:16.007Z</time>
      </trkpt>
      <trkpt lat="59.79994" lon="18.75904">
        <ele>16.609811</ele>
        <time>2020-08-30T11:03:27.977Z</time>
      </trkpt>
      <trkpt lat="59.79897" lon="18.75891">
        <ele>17.096927</ele>
        <time>2020-08-30T11:03:47.602Z</time>
      </trkpt>
      <trkpt lat="59.79829" lon="18.75888">
        <ele>18.793766</ele>
        <time>2020-08-30T11:04:05.081Z</time>
      </trkpt>
      <trkpt lat="59.79809" lon="18.75888">
        <ele>19.286672</ele>
        <time>2020-08-30T11:04:10.320Z</time>
      </trkpt>
      <trkpt lat="59.7975" lon="18.75882">
        <ele>20.769811</ele>
        <time>2020-08-30T11:04:27.109Z</time>
      </trkpt>
      <trkpt lat="59.79704" lon="18.75867">
        <ele>21.865963</ele>
        <time>2020-08-30T11:04:40.435Z</time>
      </trkpt>
      <trkpt lat="59.79671" lon="18.75842">
        <ele>22.647915</ele>
        <time>2020-08-30T11:04:49.987Z</time>
      </trkpt>
      <trkpt lat="59.79634" lon="18.75796">
        <ele>23.652048</ele>
        <time>2020-08-30T11:05:01.916Z</time>
      </trkpt>
      <trkpt lat="59.79601" lon="18.75743">
        <ele>24.614998</ele>
        <time>2020-08-30T11:05:12.265Z</time>
      </trkpt>
      <trkpt lat="59.79492" lon="18.75514">
        <ele>24.674062</ele>
        <time>2020-08-30T11:05:40.808Z</time>
      </trkpt>
      <trkpt lat="59.79405" lon="18.75348">
        <ele>22.632404</ele>
        <time>2020-08-30T11:05:57.932Z</time>
      </trkpt>
      <trkpt lat="59.79372" lon="18.75316">
        <ele>21.711065</ele>
        <time>2020-08-30T11:06:02.648Z</time>
      </trkpt>
      <trkpt lat="59.79342" lon="18.75303">
        <ele>20.909299</ele>
        <time>2020-08-30T11:06:06.740Z</time>
      </trkpt>
      <trkpt lat="59.7931" lon="18.75304">
        <ele>20.121367</ele>
        <time>2020-08-30T11:06:10.837Z</time>
      </trkpt>
      <trkpt lat="59.79259" lon="18.75336">
        <ele>19.01845</ele>
        <time>2020-08-30T11:06:18.160Z</time>
      </trkpt>
      <trkpt lat="59.79252" lon="18.75343">
        <ele>18.861293</ele>
        <time>2020-08-30T11:06:19.124Z</time>
      </trkpt>
      <trkpt lat="59.79241" lon="18.7536">
        <ele>18.566129</ele>
        <time>2020-08-30T11:06:21.240Z</time>
      </trkpt>
      <trkpt lat="59.79206" lon="18.75429">
        <ele>17.590954</ele>
        <time>2020-08-30T11:06:28.227Z</time>
      </trkpt>
      <trkpt lat="59.79189" lon="18.75481">
        <ele>16.967219</ele>
        <time>2020-08-30T11:06:32.672Z</time>
      </trkpt>
      <trkpt lat="59.7914" lon="18.75782">
        <ele>15.107206</ele>
        <time>2020-08-30T11:06:57.618Z</time>
      </trkpt>
      <trkpt lat="59.79126" lon="18.75832">
        <ele>14.82769</ele>
        <time>2020-08-30T11:07:02.226Z</time>
      </trkpt>
      <trkpt lat="59.79051" lon="18.76013">
        <ele>13.277807</ele>
        <time>2020-08-30T11:07:20.239Z</time>
      </trkpt>
      <trkpt lat="59.78991" lon="18.76131">
        <ele>12.10109</ele>
        <time>2020-08-30T11:07:32.494Z</time>
      </trkpt>
      <trkpt lat="59.78949" lon="18.762">
        <ele>11.320197</ele>
        <time>2020-08-30T11:07:40.281Z</time>
      </trkpt>
      <trkpt lat="59.78826" lon="18.76351">
        <ele>9.526919</ele>
        <time>2020-08-30T11:08:01.765Z</time>
      </trkpt>
      <trkpt lat="59.78773" lon="18.76452">
        <ele>9.556449</ele>
        <time>2020-08-30T11:08:14.354Z</time>
      </trkpt>
      <trkpt lat="59.78698" lon="18.7667">
        <ele>10.099446</ele>
        <time>2020-08-30T11:08:41.153Z</time>
      </trkpt>
      <trkpt lat="59.78643" lon="18.76878">
        <ele>11.423355</ele>
        <time>2020-08-30T11:09:07.275Z</time>
      </trkpt>
      <trkpt lat="59.78553" lon="18.77169">
        <ele>12.947108</ele>
        <time>2020-08-30T11:09:43.321Z</time>
      </trkpt>
      <trkpt lat="59.78472" lon="18.77413">
        <ele>13.535878</ele>
        <time>2020-08-30T11:10:10.687Z</time>
      </trkpt>
      <trkpt lat="59.78446" lon="18.77473">
        <ele>13.659262</ele>
        <time>2020-08-30T11:10:18.117Z</time>
      </trkpt>
      <trkpt lat="59.78427" lon="18.77498">
        <ele>13.733976</ele>
        <time>2020-08-30T11:10:22.584Z</time>
      </trkpt>
      <trkpt lat="59.78412" lon="18.77515">
        <ele>13.800158</ele>
        <time>2020-08-30T11:10:25.762Z</time>
      </trkpt>
      <trkpt lat="59.78351" lon="18.77442">
        <ele>14.073155</ele>
        <time>2020-08-30T11:10:39.544Z</time>
      </trkpt>
      <trkpt lat="59.78321" lon="18.77411">
        <ele>14.202484</ele>
        <time>2020-08-30T11:10:46.175Z</time>
      </trkpt>
      <trkpt lat="59.78312" lon="18.77401">
        <ele>14.241887</ele>
        <time>2020-08-30T11:10:48.282Z</time>
      </trkpt>
      <trkpt lat="59.78148" lon="18.77193">
        <ele>14.220324</ele>
        <time>2020-08-30T11:11:23.771Z</time>
      </trkpt>
      <trkpt lat="59.7808" lon="18.77082">
        <ele>13.452063</ele>
        <time>2020-08-30T11:11:37.319Z</time>
      </trkpt>
      <trkpt lat="59.77995" lon="18.76938">
        <ele>12.099817</ele>
        <time>2020-08-30T11:11:53.695Z</time>
      </trkpt>
      <trkpt lat="59.77963" lon="18.76882">
        <ele>11.985779</ele>
        <time>2020-08-30T11:12:00.017Z</time>
      </trkpt>
      <trkpt lat="59.77943" lon="18.7684">
        <ele>11.961075</ele>
        <time>2020-08-30T11:12:04.933Z</time>
      </trkpt>
      <trkpt lat="59.77937" lon="18.76827">
        <ele>11.953914</ele>
        <time>2020-08-30T11:12:06.346Z</time>
      </trkpt>
      <trkpt lat="59.77921" lon="18.76789">
        <ele>11.93244</ele>
        <time>2020-08-30T11:12:11.020Z</time>
      </trkpt>
      <trkpt lat="59.7791" lon="18.76759">
        <ele>11.916822</ele>
        <time>2020-08-30T11:12:14.487Z</time>
      </trkpt>
      <trkpt lat="59.77895" lon="18.76715">
        <ele>11.894408</ele>
        <time>2020-08-30T11:12:19.906Z</time>
      </trkpt>
      <trkpt lat="59.77886" lon="18.76687">
        <ele>11.880353</ele>
        <time>2020-08-30T11:12:23.402Z</time>
      </trkpt>
      <trkpt lat="59.77863" lon="18.76601">
        <ele>11.862757</ele>
        <time>2020-08-30T11:12:33.794Z</time>
      </trkpt>
      <trkpt lat="59.77804" lon="18.76369">
        <ele>11.859036</ele>
        <time>2020-08-30T11:12:57.760Z</time>
      </trkpt>
      <trkpt lat="59.77802" lon="18.7636">
        <ele>11.85889</ele>
        <time>2020-08-30T11:12:58.385Z</time>
      </trkpt>
      <trkpt lat="59.77741" lon="18.76118">
        <ele>10.649007</ele>
        <time>2020-08-30T11:13:18.904Z</time>
      </trkpt>
      <trkpt lat="59.77714" lon="18.76015">
        <ele>10.074235</ele>
        <time>2020-08-30T11:13:27.706Z</time>
      </trkpt>
      <trkpt lat="59.77693" lon="18.75933">
        <ele>10.688814</ele>
        <time>2020-08-30T11:13:36.346Z</time>
      </trkpt>
      <trkpt lat="59.77673" lon="18.75857">
        <ele>11.250066</ele>
        <time>2020-08-30T11:13:45.637Z</time>
      </trkpt>
      <trkpt lat="59.7761" lon="18.75611">
        <ele>13.440079</ele>
        <time>2020-08-30T11:14:20.947Z</time>
      </trkpt>
      <trkpt lat="59.77579" lon="18.75492">
        <ele>14.814877</ele>
        <time>2020-08-30T11:14:38.175Z</time>
      </trkpt>
      <trkpt lat="59.77541" lon="18.75353">
        <ele>16.072597</ele>
        <time>2020-08-30T11:14:56.738Z</time>
      </trkpt>
      <trkpt lat="59.77523" lon="18.75295">
        <ele>15.987773</ele>
        <time>2020-08-30T11:15:03.653Z</time>
      </trkpt>
      <trkpt lat="59.77494" lon="18.75206">
        <ele>15.855356</ele>
        <time>2020-08-30T11:15:13.287Z</time>
      </trkpt>
      <trkpt lat="59.77356" lon="18.74855">
        <ele>13.602297</ele>
        <time>2020-08-30T11:15:46.027Z</time>
      </trkpt>
      <trkpt lat="59.77335" lon="18.74799">
        <ele>13.151341</ele>
        <time>2020-08-30T11:15:51.457Z</time>
      </trkpt>
      <trkpt lat="59.77307" lon="18.74725">
        <ele>13.07946</ele>
        <time>2020-08-30T11:15:59.116Z</time>
      </trkpt>
      <trkpt lat="59.77249" lon="18.74553">
        <ele>12.91752</ele>
        <time>2020-08-30T11:16:18.264Z</time>
      </trkpt>
      <trkpt lat="59.77209" lon="18.74377">
        <ele>12.41651</ele>
        <time>2020-08-30T11:16:35.886Z</time>
      </trkpt>
      <trkpt lat="59.77199" lon="18.74366">
        <ele>12.347055</ele>
        <time>2020-08-30T11:16:37.675Z</time>
      </trkpt>
      <trkpt lat="59.77179" lon="18.74249">
        <ele>11.946212</ele>
        <time>2020-08-30T11:16:48.246Z</time>
      </trkpt>
      <trkpt lat="59.77153" lon="18.74006">
        <ele>10.550476</ele>
        <time>2020-08-30T11:17:06.954Z</time>
      </trkpt>
      <trkpt lat="59.77147" lon="18.73952">
        <ele>10.189068</ele>
        <time>2020-08-30T11:17:11.279Z</time>
      </trkpt>
      <trkpt lat="59.77138" lon="18.73873">
        <ele>9.656176</ele>
        <time>2020-08-30T11:17:17.747Z</time>
      </trkpt>
      <trkpt lat="59.77128" lon="18.73818">
        <ele>9.480524</ele>
        <time>2020-08-30T11:17:22.772Z</time>
      </trkpt>
      <trkpt lat="59.77124" lon="18.73779">
        <ele>9.739237</ele>
        <time>2020-08-30T11:17:26.307Z</time>
      </trkpt>
      <trkpt lat="59.77122" lon="18.73663">
        <ele>10.478556</ele>
        <time>2020-08-30T11:17:38.696Z</time>
      </trkpt>
      <trkpt lat="59.77117" lon="18.73584">
        <ele>10.979306</ele>
        <time>2020-08-30T11:17:48.286Z</time>
      </trkpt>
      <trkpt lat="59.77112" lon="18.73515">
        <ele>11.427408</ele>
        <time>2020-08-30T11:17:57.796Z</time>
      </trkpt>
      <trkpt lat="59.77099" lon="18.73351">
        <ele>12.360807</ele>
        <time>2020-08-30T11:18:20.926Z</time>
      </trkpt>
      <trkpt lat="59.77076" lon="18.73165">
        <ele>13.403007</ele>
        <time>2020-08-30T11:18:40.480Z</time>
      </trkpt>
      <trkpt lat="59.77073" lon="18.73142">
        <ele>13.530681</ele>
        <time>2020-08-30T11:18:43.172Z</time>
      </trkpt>
      <trkpt lat="59.7707" lon="18.73126">
        <ele>13.560214</ele>
        <time>2020-08-30T11:18:44.340Z</time>
      </trkpt>
      <trkpt lat="59.7704" lon="18.72956">
        <ele>12.40231</ele>
        <time>2020-08-30T11:18:58.954Z</time>
      </trkpt>
      <trkpt lat="59.77031" lon="18.72907">
        <ele>12.065633</ele>
        <time>2020-08-30T11:19:02.733Z</time>
      </trkpt>
      <trkpt lat="59.77014" lon="18.72825">
        <ele>11.498783</ele>
        <time>2020-08-30T11:19:09.338Z</time>
      </trkpt>
      <trkpt lat="59.77" lon="18.7279">
        <ele>11.301808</ele>
        <time>2020-08-30T11:19:12.941Z</time>
      </trkpt>
      <trkpt lat="59.76993" lon="18.72794">
        <ele>11.306531</ele>
        <time>2020-08-30T11:19:13.869Z</time>
      </trkpt>
      <trkpt lat="59.76916" lon="18.72875">
        <ele>11.368376</ele>
        <time>2020-08-30T11:19:29.082Z</time>
      </trkpt>
      <trkpt lat="59.76851" lon="18.72768">
        <ele>11.509302</ele>
        <time>2020-08-30T11:19:47.965Z</time>
      </trkpt>
      <trkpt lat="59.7684" lon="18.72739">
        <ele>11.743774</ele>
        <time>2020-08-30T11:19:52.175Z</time>
      </trkpt>
      <trkpt lat="59.76834" lon="18.72733">
        <ele>11.835964</ele>
        <time>2020-08-30T11:19:54.030Z</time>
      </trkpt>
      <trkpt lat="59.76838" lon="18.72644">
        <ele>12.429591</ele>
        <time>2020-08-30T11:20:04.032Z</time>
      </trkpt>
      <trkpt lat="59.76831" lon="18.72619">
        <ele>12.613068</ele>
        <time>2020-08-30T11:20:07.196Z</time>
      </trkpt>
      <trkpt lat="59.76831" lon="18.72584">
        <ele>12.850243</ele>
        <time>2020-08-30T11:20:11.220Z</time>
      </trkpt>
      <trkpt lat="59.76831" lon="18.72556">
        <ele>13.033606</ele>
        <time>2020-08-30T11:20:14.311Z</time>
      </trkpt>
      <trkpt lat="59.76831" lon="18.72515">
        <ele>13.30814</ele>
        <time>2020-08-30T11:20:18.991Z</time>
      </trkpt>
      <trkpt lat="59.7683" lon="18.72487">
        <ele>13.490957</ele>
        <time>2020-08-30T11:20:22.039Z</time>
      </trkpt>
      <trkpt lat="59.76837" lon="18.72429">
        <ele>13.815297</ele>
        <time>2020-08-30T11:20:28.727Z</time>
      </trkpt>
      <trkpt lat="59.76827" lon="18.72333">
        <ele>13.941348</ele>
        <time>2020-08-30T11:20:38.584Z</time>
      </trkpt>
      <trkpt lat="59.76808" lon="18.72151">
        <ele>14.182471</ele>
        <time>2020-08-30T11:20:55.018Z</time>
      </trkpt>
      <trkpt lat="59.76804" lon="18.72107">
        <ele>14.240941</ele>
        <time>2020-08-30T11:20:58.777Z</time>
      </trkpt>
      <trkpt lat="59.76801" lon="18.72085">
        <ele>14.29435</ele>
        <time>2020-08-30T11:21:00.671Z</time>
      </trkpt>
      <trkpt lat="59.768" lon="18.72073">
        <ele>14.350846</ele>
        <time>2020-08-30T11:21:01.723Z</time>
      </trkpt>
      <trkpt lat="59.76799" lon="18.72058">
        <ele>14.416278</ele>
        <time>2020-08-30T11:21:03.049Z</time>
      </trkpt>
      <trkpt lat="59.76791" lon="18.71956">
        <ele>14.882384</ele>
        <time>2020-08-30T11:21:13.021Z</time>
      </trkpt>
      <trkpt lat="59.76789" lon="18.71887">
        <ele>15.190985</ele>
        <time>2020-08-30T11:21:20.258Z</time>
      </trkpt>
      <trkpt lat="59.76787" lon="18.71841">
        <ele>15.397077</ele>
        <time>2020-08-30T11:21:25.312Z</time>
      </trkpt>
      <trkpt lat="59.76783" lon="18.71798">
        <ele>15.595029</ele>
        <time>2020-08-30T11:21:30.264Z</time>
      </trkpt>
      <trkpt lat="59.76777" lon="18.71771">
        <ele>15.725966</ele>
        <time>2020-08-30T11:21:33.644Z</time>
      </trkpt>
      <trkpt lat="59.76761" lon="18.71692">
        <ele>16.417484</ele>
        <time>2020-08-30T11:21:43.915Z</time>
      </trkpt>
      <trkpt lat="59.76755" lon="18.7166">
        <ele>16.754215</ele>
        <time>2020-08-30T11:21:48.292Z</time>
      </trkpt>
      <trkpt lat="59.76713" lon="18.71482">
        <ele>18.720736</ele>
        <time>2020-08-30T11:22:13.046Z</time>
      </trkpt>
      <trkpt lat="59.76705" lon="18.71471">
        <ele>18.912365</ele>
        <time>2020-08-30T11:22:15.790Z</time>
      </trkpt>
      <trkpt lat="59.76705" lon="18.71458">
        <ele>19.038807</ele>
        <time>2020-08-30T11:22:17.119Z</time>
      </trkpt>
      <trkpt lat="59.76696" lon="18.71419">
        <ele>19.459371</ele>
        <time>2020-08-30T11:22:22.782Z</time>
      </trkpt>
      <trkpt lat="59.76691" lon="18.71394">
        <ele>19.672035</ele>
        <time>2020-08-30T11:22:26.161Z</time>
      </trkpt>
      <trkpt lat="59.76683" lon="18.71348">
        <ele>20.055457</ele>
        <time>2020-08-30T11:22:32.507Z</time>
      </trkpt>
      <trkpt lat="59.76648" lon="18.71189">
        <ele>21.409843</ele>
        <time>2020-08-30T11:22:53.044Z</time>
      </trkpt>
      <trkpt lat="59.76644" lon="18.71173">
        <ele>21.557176</ele>
        <time>2020-08-30T11:22:55.309Z</time>
      </trkpt>
      <trkpt lat="59.76635" lon="18.71157">
        <ele>21.739487</ele>
        <time>2020-08-30T11:22:58.130Z</time>
      </trkpt>
      <trkpt lat="59.76613" lon="18.71124">
        <ele>22.161374</ele>
        <time>2020-08-30T11:23:04.309Z</time>
      </trkpt>
      <trkpt lat="59.76609" lon="18.71113">
        <ele>22.234126</ele>
        <time>2020-08-30T11:23:06.079Z</time>
      </trkpt>
      <trkpt lat="59.76603" lon="18.71096">
        <ele>22.243188</ele>
        <time>2020-08-30T11:23:08.297Z</time>
      </trkpt>
      <trkpt lat="59.76576" lon="18.7091">
        <ele>22.32542</ele>
        <time>2020-08-30T11:23:31.306Z</time>
      </trkpt>
      <trkpt lat="59.76567" lon="18.7085">
        <ele>22.35215</ele>
        <time>2020-08-30T11:23:38.142Z</time>
      </trkpt>
      <trkpt lat="59.76559" lon="18.70798">
        <ele>22.375314</ele>
        <time>2020-08-30T11:23:42.749Z</time>
      </trkpt>
      <trkpt lat="59.76545" lon="18.70711">
        <ele>22.227928</ele>
        <time>2020-08-30T11:23:50.382Z</time>
      </trkpt>
      <trkpt lat="59.7654" lon="18.70692">
        <ele>22.178636</ele>
        <time>2020-08-30T11:23:52.385Z</time>
      </trkpt>
      <trkpt lat="59.76534" lon="18.70676">
        <ele>22.13501</ele>
        <time>2020-08-30T11:23:54.280Z</time>
      </trkpt>
      <trkpt lat="59.76531" lon="18.70656">
        <ele>22.090799</ele>
        <time>2020-08-30T11:23:56.070Z</time>
      </trkpt>
      <trkpt lat="59.76482" lon="18.70658">
        <ele>21.87325</ele>
        <time>2020-08-30T11:24:04.262Z</time>
      </trkpt>
      <trkpt lat="59.76376" lon="18.70661">
        <ele>20.984223</ele>
        <time>2020-08-30T11:24:21.583Z</time>
      </trkpt>
      <trkpt lat="59.76355" lon="18.70661">
        <ele>20.692177</ele>
        <time>2020-08-30T11:24:24.844Z</time>
      </trkpt>
      <trkpt lat="59.76146" lon="18.70663">
        <ele>16.891583</ele>
        <time>2020-08-30T11:24:54.591Z</time>
      </trkpt>
      <trkpt lat="59.76141" lon="18.70663">
        <ele>16.759938</ele>
        <time>2020-08-30T11:24:55.269Z</time>
      </trkpt>
      <trkpt lat="59.76082" lon="18.70664">
        <ele>15.40884</ele>
        <time>2020-08-30T11:25:03.438Z</time>
      </trkpt>
      <trkpt lat="59.76074" lon="18.70664">
        <ele>15.22177</ele>
        <time>2020-08-30T11:25:04.545Z</time>
      </trkpt>
      <trkpt lat="59.7606" lon="18.70665">
        <ele>14.903055</ele>
        <time>2020-08-30T11:25:06.304Z</time>
      </trkpt>
      <trkpt lat="59.76019" lon="18.70665">
        <ele>13.888405</ele>
        <time>2020-08-30T11:25:11.747Z</time>
      </trkpt>
      <trkpt lat="59.76005" lon="18.70665">
        <ele>13.543592</ele>
        <time>2020-08-30T11:25:13.662Z</time>
      </trkpt>
      <trkpt lat="59.75993" lon="18.70665">
        <ele>13.245519</ele>
        <time>2020-08-30T11:25:15.137Z</time>
      </trkpt>
      <trkpt lat="59.75926" lon="18.70666">
        <ele>11.600208</ele>
        <time>2020-08-30T11:25:24.035Z</time>
      </trkpt>
      <trkpt lat="59.7591" lon="18.70673">
        <ele>11.207629</ele>
        <time>2020-08-30T11:25:26.201Z</time>
      </trkpt>
      <trkpt lat="59.75905" lon="18.70676">
        <ele>11.067727</ele>
        <time>2020-08-30T11:25:27.031Z</time>
      </trkpt>
      <trkpt lat="59.75872" lon="18.70707">
        <ele>10.654823</ele>
        <time>2020-08-30T11:25:32.300Z</time>
      </trkpt>
      <trkpt lat="59.75817" lon="18.70767">
        <ele>11.987694</ele>
        <time>2020-08-30T11:25:43.718Z</time>
      </trkpt>
      <trkpt lat="59.75815" lon="18.70769">
        <ele>12.033834</ele>
        <time>2020-08-30T11:25:44.067Z</time>
      </trkpt>
      <trkpt lat="59.75813" lon="18.70771">
        <ele>12.081614</ele>
        <time>2020-08-30T11:25:44.491Z</time>
      </trkpt>
      <trkpt lat="59.75807" lon="18.70777">
        <ele>12.239502</ele>
        <time>2020-08-30T11:25:46.685Z</time>
      </trkpt>
      <trkpt lat="59.75795" lon="18.70786">
        <ele>12.505339</ele>
        <time>2020-08-30T11:25:49.889Z</time>
      </trkpt>
      <trkpt lat="59.75793" lon="18.70788">
        <ele>12.546758</ele>
        <time>2020-08-30T11:25:50.238Z</time>
      </trkpt>
      <trkpt lat="59.75759" lon="18.70813">
        <ele>13.325119</ele>
        <time>2020-08-30T11:25:59.756Z</time>
      </trkpt>
      <trkpt lat="59.75744" lon="18.70826">
        <ele>13.674611</ele>
        <time>2020-08-30T11:26:04.624Z</time>
      </trkpt>
      <trkpt lat="59.75729" lon="18.70837">
        <ele>13.998416</ele>
        <time>2020-08-30T11:26:10.590Z</time>
      </trkpt>
      <trkpt lat="59.75726" lon="18.70838">
        <ele>14.066849</ele>
        <time>2020-08-30T11:26:11.671Z</time>
      </trkpt>
      <trkpt lat="59.75717" lon="18.7084">
        <ele>14.306733</ele>
        <time>2020-08-30T11:26:14.953Z</time>
      </trkpt>
      <trkpt lat="59.75711" lon="18.70841">
        <ele>14.685815</ele>
        <time>2020-08-30T11:26:17.046Z</time>
      </trkpt>
      <trkpt lat="59.75699" lon="18.70845">
        <ele>15.396349</ele>
        <time>2020-08-30T11:26:22.453Z</time>
      </trkpt>
      <trkpt lat="59.75679" lon="18.70841">
        <ele>16.666438</ele>
        <time>2020-08-30T11:26:29.934Z</time>
      </trkpt>
      <trkpt lat="59.7563" lon="18.70813">
        <ele>19.805148</ele>
        <time>2020-08-30T11:26:51.810Z</time>
      </trkpt>
      <trkpt lat="59.75604" lon="18.70785">
        <ele>21.666526</ele>
        <time>2020-08-30T11:27:03.635Z</time>
      </trkpt>
      <trkpt lat="59.7558" lon="18.70759">
        <ele>23.341928</ele>
        <time>2020-08-30T11:27:13.816Z</time>
      </trkpt>
      <trkpt lat="59.75561" lon="18.70739">
        <ele>24.690477</ele>
        <time>2020-08-30T11:27:22.555Z</time>
      </trkpt>
      <trkpt lat="59.75537" lon="18.70717">
        <ele>25.690918</ele>
        <time>2020-08-30T11:27:30.746Z</time>
      </trkpt>
      <trkpt lat="59.75515" lon="18.70702">
        <ele>26.129751</ele>
        <time>2020-08-30T11:27:37.409Z</time>
      </trkpt>
      <trkpt lat="59.75496" lon="18.70693">
        <ele>26.497614</ele>
        <time>2020-08-30T11:27:42.832Z</time>
      </trkpt>
      <trkpt lat="59.75466" lon="18.70679">
        <ele>27.086037</ele>
        <time>2020-08-30T11:27:50.842Z</time>
      </trkpt>
      <trkpt lat="59.75439" lon="18.70673">
        <ele>27.613156</ele>
        <time>2020-08-30T11:27:56.722Z</time>
      </trkpt>
      <trkpt lat="59.75436" lon="18.70673">
        <ele>27.662681</ele>
        <time>2020-08-30T11:27:57.186Z</time>
      </trkpt>
      <trkpt lat="59.75387" lon="18.70668">
        <ele>28.607775</ele>
        <time>2020-08-30T11:28:06.187Z</time>
      </trkpt>
      <trkpt lat="59.75377" lon="18.70667">
        <ele>28.783051</ele>
        <time>2020-08-30T11:28:07.581Z</time>
      </trkpt>
      <trkpt lat="59.75368" lon="18.70644">
        <ele>28.767663</ele>
        <time>2020-08-30T11:28:10.138Z</time>
      </trkpt>
      <trkpt lat="59.7534" lon="18.70605">
        <ele>28.585891</ele>
        <time>2020-08-30T11:28:15.798Z</time>
      </trkpt>
      <trkpt lat="59.75318" lon="18.70563">
        <ele>28.425699</ele>
        <time>2020-08-30T11:28:20.766Z</time>
      </trkpt>
      <trkpt lat="59.75277" lon="18.70453">
        <ele>28.054604</ele>
        <time>2020-08-30T11:28:32.347Z</time>
      </trkpt>
      <trkpt lat="59.75254" lon="18.70458">
        <ele>27.93115</ele>
        <time>2020-08-30T11:28:36.453Z</time>
      </trkpt>
      <trkpt lat="59.75201" lon="18.70467">
        <ele>27.747186</ele>
        <time>2020-08-30T11:28:46.405Z</time>
      </trkpt>
      <trkpt lat="59.75177" lon="18.70451">
        <ele>27.671734</ele>
        <time>2020-08-30T11:28:51.088Z</time>
      </trkpt>
      <trkpt lat="59.75149" lon="18.70419">
        <ele>27.57519</ele>
        <time>2020-08-30T11:28:57.010Z</time>
      </trkpt>
      <trkpt lat="59.75001" lon="18.70245">
        <ele>25.834467</ele>
        <time>2020-08-30T11:29:26.333Z</time>
      </trkpt>
      <trkpt lat="59.74964" lon="18.70208">
        <ele>25.168</ele>
        <time>2020-08-30T11:29:32.377Z</time>
      </trkpt>
      <trkpt lat="59.74954" lon="18.70195">
        <ele>24.965336</ele>
        <time>2020-08-30T11:29:34.160Z</time>
      </trkpt>
      <trkpt lat="59.74931" lon="18.70174">
        <ele>24.554523</ele>
        <time>2020-08-30T11:29:37.610Z</time>
      </trkpt>
      <trkpt lat="59.74906" lon="18.70166">
        <ele>24.049829</ele>
        <time>2020-08-30T11:29:40.980Z</time>
      </trkpt>
      <trkpt lat="59.74856" lon="18.70158">
        <ele>22.891751</ele>
        <time>2020-08-30T11:29:47.923Z</time>
      </trkpt>
      <trkpt lat="59.74789" lon="18.70149">
        <ele>21.364722</ele>
        <time>2020-08-30T11:29:57.099Z</time>
      </trkpt>
      <trkpt lat="59.74761" lon="18.70152">
        <ele>20.736306</ele>
        <time>2020-08-30T11:30:01.007Z</time>
      </trkpt>
      <trkpt lat="59.74617" lon="18.70268">
        <ele>23.171481</ele>
        <time>2020-08-30T11:30:37.967Z</time>
      </trkpt>
      <trkpt lat="59.74574" lon="18.70327">
        <ele>24.398016</ele>
        <time>2020-08-30T11:30:55.371Z</time>
      </trkpt>
      <trkpt lat="59.74554" lon="18.70357">
        <ele>25.31216</ele>
        <time>2020-08-30T11:31:03.704Z</time>
      </trkpt>
      <trkpt lat="59.74536" lon="18.70383">
        <ele>26.123039</ele>
        <time>2020-08-30T11:31:11.317Z</time>
      </trkpt>
      <trkpt lat="59.745" lon="18.70487">
        <ele>28.431218</ele>
        <time>2020-08-30T11:31:32.091Z</time>
      </trkpt>
      <trkpt lat="59.74476" lon="18.70634">
        <ele>30.808292</ele>
        <time>2020-08-30T11:31:53.724Z</time>
      </trkpt>
      <trkpt lat="59.74467" lon="18.70656">
        <ele>30.964988</ele>
        <time>2020-08-30T11:31:56.377Z</time>
      </trkpt>
      <trkpt lat="59.7443" lon="18.70731">
        <ele>31.562543</ele>
        <time>2020-08-30T11:32:06.182Z</time>
      </trkpt>
      <trkpt lat="59.74388" lon="18.70772">
        <ele>32.085409</ele>
        <time>2020-08-30T11:32:15.729Z</time>
      </trkpt>
      <trkpt lat="59.74382" lon="18.70777">
        <ele>32.166317</ele>
        <time>2020-08-30T11:32:17.403Z</time>
      </trkpt>
      <trkpt lat="59.74378" lon="18.7078">
        <ele>32.21231</ele>
        <time>2020-08-30T11:32:18.334Z</time>
      </trkpt>
      <trkpt lat="59.74383" lon="18.70822">
        <ele>32.454928</ele>
        <time>2020-08-30T11:32:22.861Z</time>
      </trkpt>
      <trkpt lat="59.74388" lon="18.70867">
        <ele>32.793768</ele>
        <time>2020-08-30T11:32:28.027Z</time>
      </trkpt>
      <trkpt lat="59.74411" lon="18.71114">
        <ele>35.404648</ele>
        <time>2020-08-30T11:32:59.143Z</time>
      </trkpt>
      <trkpt lat="59.74432" lon="18.71297">
        <ele>36.757295</ele>
        <time>2020-08-30T11:33:23.887Z</time>
      </trkpt>
      <trkpt lat="59.74464" lon="18.71493">
        <ele>37.642509</ele>
        <time>2020-08-30T11:33:45.233Z</time>
      </trkpt>
      <trkpt lat="59.74484" lon="18.7158">
        <ele>37.246769</ele>
        <time>2020-08-30T11:33:52.664Z</time>
      </trkpt>
      <trkpt lat="59.74495" lon="18.71631">
        <ele>36.442244</ele>
        <time>2020-08-30T11:33:56.695Z</time>
      </trkpt>
      <trkpt lat="59.74498" lon="18.71626">
        <ele>36.332502</ele>
        <time>2020-08-30T11:33:57.649Z</time>
      </trkpt>
      <trkpt lat="59.74567" lon="18.71872">
        <ele>32.097962</ele>
        <time>2020-08-30T11:34:15.703Z</time>
      </trkpt>
      <trkpt lat="59.74658" lon="18.72241">
        <ele>24.499548</ele>
        <time>2020-08-30T11:34:41.684Z</time>
      </trkpt>
      <trkpt lat="59.74674" lon="18.7232">
        <ele>23.507316</ele>
        <time>2020-08-30T11:34:47.605Z</time>
      </trkpt>
      <trkpt lat="59.74708" lon="18.72513">
        <ele>21.126004</ele>
        <time>2020-08-30T11:35:02.896Z</time>
      </trkpt>
      <trkpt lat="59.74743" lon="18.72763">
        <ele>18.543442</ele>
        <time>2020-08-30T11:35:21.919Z</time>
      </trkpt>
      <trkpt lat="59.74748" lon="18.72889">
        <ele>17.026755</ele>
        <time>2020-08-30T11:35:30.370Z</time>
      </trkpt>
      <trkpt lat="59.74746" lon="18.73074">
        <ele>14.152697</ele>
        <time>2020-08-30T11:35:42.454Z</time>
      </trkpt>
      <trkpt lat="59.74737" lon="18.73462">
        <ele>8.949439</ele>
        <time>2020-08-30T11:36:08.582Z</time>
      </trkpt>
      <trkpt lat="59.7473" lon="18.73458">
        <ele>8.785527</ele>
        <time>2020-08-30T11:36:09.866Z</time>
      </trkpt>
      <trkpt lat="59.74729" lon="18.73567">
        <ele>7.668495</ele>
        <time>2020-08-30T11:36:17.970Z</time>
      </trkpt>
      <trkpt lat="59.74729" lon="18.73595">
        <ele>7.557753</ele>
        <time>2020-08-30T11:36:20.088Z</time>
      </trkpt>
      <trkpt lat="59.74727" lon="18.73654">
        <ele>7.326713</ele>
        <time>2020-08-30T11:36:24.673Z</time>
      </trkpt>
      <trkpt lat="59.74725" lon="18.73753">
        <ele>6.936503</ele>
        <time>2020-08-30T11:36:32.722Z</time>
      </trkpt>
      <trkpt lat="59.74716" lon="18.73933">
        <ele>6.363739</ele>
        <time>2020-08-30T11:36:48.120Z</time>
      </trkpt>
      <trkpt lat="59.74714" lon="18.73971">
        <ele>6.349565</ele>
        <time>2020-08-30T11:36:51.394Z</time>
      </trkpt>
      <trkpt lat="59.747" lon="18.74213">
        <ele>6.260852</ele>
        <time>2020-08-30T11:37:13.012Z</time>
      </trkpt>
      <trkpt lat="59.74695" lon="18.7428">
        <ele>6.274757</ele>
        <time>2020-08-30T11:37:19.299Z</time>
      </trkpt>
      <trkpt lat="59.74692" lon="18.74323">
        <ele>6.313766</ele>
        <time>2020-08-30T11:37:23.385Z</time>
      </trkpt>
      <trkpt lat="59.74677" lon="18.74449">
        <ele>6.42968</ele>
        <time>2020-08-30T11:37:35.388Z</time>
      </trkpt>
      <trkpt lat="59.74662" lon="18.74531">
        <ele>6.508422</ele>
        <time>2020-08-30T11:37:43.561Z</time>
      </trkpt>
      <trkpt lat="59.74617" lon="18.74703">
        <ele>6.780579</ele>
        <time>2020-08-30T11:38:01.557Z</time>
      </trkpt>
      <trkpt lat="59.74571" lon="18.74826">
        <ele>7.037507</ele>
        <time>2020-08-30T11:38:16.180Z</time>
      </trkpt>
      <trkpt lat="59.74477" lon="18.75045">
        <ele>7.916542</ele>
        <time>2020-08-30T11:38:44.956Z</time>
      </trkpt>
      <trkpt lat="59.7441" lon="18.75176">
        <ele>8.735876</ele>
        <time>2020-08-30T11:39:04.414Z</time>
      </trkpt>
      <trkpt lat="59.74365" lon="18.75242">
        <ele>9.538371</ele>
        <time>2020-08-30T11:39:15.829Z</time>
      </trkpt>
      <trkpt lat="59.74316" lon="18.75302">
        <ele>10.372081</ele>
        <time>2020-08-30T11:39:28.581Z</time>
      </trkpt>
      <trkpt lat="59.7423" lon="18.75372">
        <ele>12.645325</ele>
        <time>2020-08-30T11:39:51.954Z</time>
      </trkpt>
      <trkpt lat="59.74195" lon="18.75396">
        <ele>13.899752</ele>
        <time>2020-08-30T11:40:02.293Z</time>
      </trkpt>
      <trkpt lat="59.74056" lon="18.7548">
        <ele>19.281628</ele>
        <time>2020-08-30T11:40:47.364Z</time>
      </trkpt>
      <trkpt lat="59.73946" lon="18.75548">
        <ele>24.194592</ele>
        <time>2020-08-30T11:41:25.048Z</time>
      </trkpt>
      <trkpt lat="59.73946" lon="18.75548">
        <ele>24.194592</ele>
        <time>2020-08-30T11:41:25.100Z</time>
      </trkpt>
      <trkpt lat="59.73946" lon="18.75548">
        <ele>24.194592</ele>
        <time>2020-08-30T11:41:25.109Z</time>
      </trkpt>
      <trkpt lat="59.73901" lon="18.75577">
        <ele>25.49262</ele>
        <time>2020-08-30T11:41:38.926Z</time>
      </trkpt>
      <trkpt lat="59.73862" lon="18.75606">
        <ele>26.372221</ele>
        <time>2020-08-30T11:41:50.511Z</time>
      </trkpt>
      <trkpt lat="59.73727" lon="18.75709">
        <ele>28.008347</ele>
        <time>2020-08-30T11:42:21.769Z</time>
      </trkpt>
      <trkpt lat="59.73691" lon="18.75737">
        <ele>27.457704</ele>
        <time>2020-08-30T11:42:27.637Z</time>
      </trkpt>
      <trkpt lat="59.73673" lon="18.75751">
        <ele>27.165821</ele>
        <time>2020-08-30T11:42:30.660Z</time>
      </trkpt>
      <trkpt lat="59.73626" lon="18.7579">
        <ele>26.435161</ele>
        <time>2020-08-30T11:42:37.587Z</time>
      </trkpt>
      <trkpt lat="59.73548" lon="18.75886">
        <ele>23.805346</ele>
        <time>2020-08-30T11:42:49.193Z</time>
      </trkpt>
      <trkpt lat="59.73522" lon="18.75929">
        <ele>22.566655</ele>
        <time>2020-08-30T11:42:53.420Z</time>
      </trkpt>
      <trkpt lat="59.73498" lon="18.75974">
        <ele>21.347793</ele>
        <time>2020-08-30T11:42:57.464Z</time>
      </trkpt>
      <trkpt lat="59.73475" lon="18.76024">
        <ele>20.092142</ele>
        <time>2020-08-30T11:43:01.887Z</time>
      </trkpt>
      <trkpt lat="59.73426" lon="18.76154">
        <ele>19.824889</ele>
        <time>2020-08-30T11:43:13.111Z</time>
      </trkpt>
      <trkpt lat="59.73422" lon="18.76165">
        <ele>19.870806</ele>
        <time>2020-08-30T11:43:14.023Z</time>
      </trkpt>
      <trkpt lat="59.73406" lon="18.76212">
        <ele>20.064812</ele>
        <time>2020-08-30T11:43:19.234Z</time>
      </trkpt>
      <trkpt lat="59.73397" lon="18.76237">
        <ele>20.168238</ele>
        <time>2020-08-30T11:43:22.577Z</time>
      </trkpt>
      <trkpt lat="59.73258" lon="18.76609">
        <ele>27.78547</ele>
        <time>2020-08-30T11:44:36.557Z</time>
      </trkpt>
      <trkpt lat="59.73249" lon="18.76629">
        <ele>28.347517</ele>
        <time>2020-08-30T11:44:41.175Z</time>
      </trkpt>
      <trkpt lat="59.73238" lon="18.76647">
        <ele>28.654196</ele>
        <time>2020-08-30T11:44:45.812Z</time>
      </trkpt>
      <trkpt lat="59.73201" lon="18.76682">
        <ele>29.56959</ele>
        <time>2020-08-30T11:44:58.133Z</time>
      </trkpt>
      <trkpt lat="59.73172" lon="18.76688">
        <ele>30.23313</ele>
        <time>2020-08-30T11:45:06.991Z</time>
      </trkpt>
      <trkpt lat="59.73027" lon="18.76634">
        <ele>31.652694</ele>
        <time>2020-08-30T11:45:36.402Z</time>
      </trkpt>
      <trkpt lat="59.72984" lon="18.76631">
        <ele>31.075145</ele>
        <time>2020-08-30T11:45:42.669Z</time>
      </trkpt>
      <trkpt lat="59.72948" lon="18.76645">
        <ele>30.601747</ele>
        <time>2020-08-30T11:45:47.671Z</time>
      </trkpt>
      <trkpt lat="59.72839" lon="18.76731">
        <ele>28.692592</ele>
        <time>2020-08-30T11:46:03.597Z</time>
      </trkpt>
      <trkpt lat="59.72789" lon="18.76794">
        <ele>27.602227</ele>
        <time>2020-08-30T11:46:11.941Z</time>
      </trkpt>
      <trkpt lat="59.72724" lon="18.76921">
        <ele>26.322214</ele>
        <time>2020-08-30T11:46:26.442Z</time>
      </trkpt>
      <trkpt lat="59.7269" lon="18.77029">
        <ele>25.763629</ele>
        <time>2020-08-30T11:46:37.010Z</time>
      </trkpt>
      <trkpt lat="59.72669" lon="18.77159">
        <ele>25.166911</ele>
        <time>2020-08-30T11:46:47.622Z</time>
      </trkpt>
      <trkpt lat="59.72669" lon="18.77162">
        <ele>25.155392</ele>
        <time>2020-08-30T11:46:48.091Z</time>
      </trkpt>
      <trkpt lat="59.72663" lon="18.77224">
        <ele>24.697467</ele>
        <time>2020-08-30T11:46:52.921Z</time>
      </trkpt>
      <trkpt lat="59.72662" lon="18.7725">
        <ele>24.500553</ele>
        <time>2020-08-30T11:46:55.076Z</time>
      </trkpt>
      <trkpt lat="59.72661" lon="18.77261">
        <ele>24.413111</ele>
        <time>2020-08-30T11:46:55.779Z</time>
      </trkpt>
      <trkpt lat="59.7266" lon="18.77343">
        <ele>23.786054</ele>
        <time>2020-08-30T11:47:01.937Z</time>
      </trkpt>
      <trkpt lat="59.72675" lon="18.77501">
        <ele>22.552127</ele>
        <time>2020-08-30T11:47:13.603Z</time>
      </trkpt>
      <trkpt lat="59.72674" lon="18.77521">
        <ele>22.400403</ele>
        <time>2020-08-30T11:47:15.030Z</time>
      </trkpt>
      <trkpt lat="59.72662" lon="18.77559">
        <ele>22.202168</ele>
        <time>2020-08-30T11:47:18.211Z</time>
      </trkpt>
      <trkpt lat="59.72658" lon="18.7757">
        <ele>22.148145</ele>
        <time>2020-08-30T11:47:19.127Z</time>
      </trkpt>
      <trkpt lat="59.72648" lon="18.77551">
        <ele>22.03175</ele>
        <time>2020-08-30T11:47:21.337Z</time>
      </trkpt>
      <trkpt lat="59.72581" lon="18.77431">
        <ele>21.287356</ele>
        <time>2020-08-30T11:47:35.625Z</time>
      </trkpt>
      <trkpt lat="59.72553" lon="18.7737">
        <ele>20.941249</ele>
        <time>2020-08-30T11:47:42.589Z</time>
      </trkpt>
      <trkpt lat="59.72436" lon="18.77073">
        <ele>21.322757</ele>
        <time>2020-08-30T11:48:18.327Z</time>
      </trkpt>
      <trkpt lat="59.72338" lon="18.7685">
        <ele>21.979957</ele>
        <time>2020-08-30T11:48:46.947Z</time>
      </trkpt>
      <trkpt lat="59.72301" lon="18.76783">
        <ele>22.32916</ele>
        <time>2020-08-30T11:48:56.762Z</time>
      </trkpt>
      <trkpt lat="59.72235" lon="18.76687">
        <ele>23.137238</ele>
        <time>2020-08-30T11:49:13.219Z</time>
      </trkpt>
      <trkpt lat="59.72214" lon="18.76666">
        <ele>23.365387</ele>
        <time>2020-08-30T11:49:17.807Z</time>
      </trkpt>
      <trkpt lat="59.72197" lon="18.76657">
        <ele>23.539801</ele>
        <time>2020-08-30T11:49:21.729Z</time>
      </trkpt>
      <trkpt lat="59.72134" lon="18.76624">
        <ele>24.394269</ele>
        <time>2020-08-30T11:49:36.842Z</time>
      </trkpt>
      <trkpt lat="59.72065" lon="18.76585">
        <ele>25.595409</ele>
        <time>2020-08-30T11:49:54.720Z</time>
      </trkpt>
      <trkpt lat="59.71996" lon="18.76546">
        <ele>26.79472</ele>
        <time>2020-08-30T11:50:11.304Z</time>
      </trkpt>
      <trkpt lat="59.71948" lon="18.76517">
        <ele>26.795349</ele>
        <time>2020-08-30T11:50:22.249Z</time>
      </trkpt>
      <trkpt lat="59.71745" lon="18.76301">
        <ele>25.554585</ele>
        <time>2020-08-30T11:50:58.628Z</time>
      </trkpt>
      <trkpt lat="59.71608" lon="18.76183">
        <ele>24.002489</ele>
        <time>2020-08-30T11:51:20.991Z</time>
      </trkpt>
      <trkpt lat="59.71389" lon="18.76033">
        <ele>21.841968</ele>
        <time>2020-08-30T11:51:57.327Z</time>
      </trkpt>
      <trkpt lat="59.7134" lon="18.76014">
        <ele>21.429474</ele>
        <time>2020-08-30T11:52:05.268Z</time>
      </trkpt>
      <trkpt lat="59.71321" lon="18.76007">
        <ele>21.29582</ele>
        <time>2020-08-30T11:52:08.356Z</time>
      </trkpt>
      <trkpt lat="59.71252" lon="18.75989">
        <ele>21.04473</ele>
        <time>2020-08-30T11:52:19.670Z</time>
      </trkpt>
      <trkpt lat="59.71173" lon="18.75968">
        <ele>20.753472</ele>
        <time>2020-08-30T11:52:33.592Z</time>
      </trkpt>
      <trkpt lat="59.71029" lon="18.75919">
        <ele>20.178828</ele>
        <time>2020-08-30T11:52:58.854Z</time>
      </trkpt>
      <trkpt lat="59.71008" lon="18.7592">
        <ele>20.096441</ele>
        <time>2020-08-30T11:53:02.095Z</time>
      </trkpt>
      <trkpt lat="59.70978" lon="18.75932">
        <ele>19.975868</ele>
        <time>2020-08-30T11:53:06.844Z</time>
      </trkpt>
      <trkpt lat="59.70952" lon="18.75959">
        <ele>19.8338</ele>
        <time>2020-08-30T11:53:11.352Z</time>
      </trkpt>
      <trkpt lat="59.70806" lon="18.7614">
        <ele>19.343618</ele>
        <time>2020-08-30T11:53:39.317Z</time>
      </trkpt>
      <trkpt lat="59.70786" lon="18.76155">
        <ele>19.762868</ele>
        <time>2020-08-30T11:53:43.839Z</time>
      </trkpt>
      <trkpt lat="59.70698" lon="18.76182">
        <ele>21.467922</ele>
        <time>2020-08-30T11:54:05.991Z</time>
      </trkpt>
      <trkpt lat="59.70629" lon="18.76202">
        <ele>22.794797</ele>
        <time>2020-08-30T11:54:25.567Z</time>
      </trkpt>
      <trkpt lat="59.70584" lon="18.76236">
        <ele>23.675757</ele>
        <time>2020-08-30T11:54:38.977Z</time>
      </trkpt>
      <trkpt lat="59.70513" lon="18.76314">
        <ele>25.164175</ele>
        <time>2020-08-30T11:54:58.121Z</time>
      </trkpt>
      <trkpt lat="59.70335" lon="18.7657">
        <ele>26.083466</ele>
        <time>2020-08-30T11:55:36.865Z</time>
      </trkpt>
      <trkpt lat="59.70294" lon="18.7664">
        <ele>27.00687</ele>
        <time>2020-08-30T11:55:47.548Z</time>
      </trkpt>
      <trkpt lat="59.70284" lon="18.76668">
        <ele>27.30771</ele>
        <time>2020-08-30T11:55:51.266Z</time>
      </trkpt>
      <trkpt lat="59.70209" lon="18.76918">
        <ele>30.642555</ele>
        <time>2020-08-30T11:56:29.364Z</time>
      </trkpt>
      <trkpt lat="59.7016" lon="18.76997">
        <ele>32.892814</ele>
        <time>2020-08-30T11:56:48.785Z</time>
      </trkpt>
      <trkpt lat="59.70112" lon="18.77048">
        <ele>34.839712</ele>
        <time>2020-08-30T11:57:05.666Z</time>
      </trkpt>
      <trkpt lat="59.70084" lon="18.77075">
        <ele>35.841175</ele>
        <time>2020-08-30T11:57:15.044Z</time>
      </trkpt>
      <trkpt lat="59.70065" lon="18.77094">
        <ele>36.446296</ele>
        <time>2020-08-30T11:57:21.462Z</time>
      </trkpt>
      <trkpt lat="59.70025" lon="18.77131">
        <ele>37.685326</ele>
        <time>2020-08-30T11:57:34.228Z</time>
      </trkpt>
      <trkpt lat="59.69984" lon="18.77153">
        <ele>38.884929</ele>
        <time>2020-08-30T11:57:45.695Z</time>
      </trkpt>
      <trkpt lat="59.69946" lon="18.77134">
        <ele>39.998486</ele>
        <time>2020-08-30T11:57:55.673Z</time>
      </trkpt>
      <trkpt lat="59.69873" lon="18.7708">
        <ele>40.323972</ele>
        <time>2020-08-30T11:58:12.447Z</time>
      </trkpt>
      <trkpt lat="59.69741" lon="18.76944">
        <ele>39.143841</ele>
        <time>2020-08-30T11:58:34.801Z</time>
      </trkpt>
      <trkpt lat="59.69717" lon="18.76929">
        <ele>38.510699</ele>
        <time>2020-08-30T11:58:38.348Z</time>
      </trkpt>
      <trkpt lat="59.69702" lon="18.76922">
        <ele>38.137101</ele>
        <time>2020-08-30T11:58:40.394Z</time>
      </trkpt>
      <trkpt lat="59.69545" lon="18.76845">
        <ele>33.748821</ele>
        <time>2020-08-30T11:59:01.875Z</time>
      </trkpt>
      <trkpt lat="59.69516" lon="18.76821">
        <ele>32.730188</ele>
        <time>2020-08-30T11:59:06.084Z</time>
      </trkpt>
      <trkpt lat="59.69456" lon="18.76736">
        <ele>30.374562</ele>
        <time>2020-08-30T11:59:15.665Z</time>
      </trkpt>
      <trkpt lat="59.69348" lon="18.76647">
        <ele>26.319108</ele>
        <time>2020-08-30T11:59:30.508Z</time>
      </trkpt>
      <trkpt lat="59.6917" lon="18.76392">
        <ele>20.454297</ele>
        <time>2020-08-30T11:59:59.084Z</time>
      </trkpt>
      <trkpt lat="59.69032" lon="18.76194">
        <ele>21.292318</ele>
        <time>2020-08-30T12:00:33.402Z</time>
      </trkpt>
      <trkpt lat="59.69001" lon="18.76134">
        <ele>21.957279</ele>
        <time>2020-08-30T12:00:45.586Z</time>
      </trkpt>
      <trkpt lat="59.6897" lon="18.7596">
        <ele>24.692842</ele>
        <time>2020-08-30T12:01:13.030Z</time>
      </trkpt>
      <trkpt lat="59.68953" lon="18.75898">
        <ele>25.856686</ele>
        <time>2020-08-30T12:01:23.867Z</time>
      </trkpt>
      <trkpt lat="59.68907" lon="18.75808">
        <ele>27.910822</ele>
        <time>2020-08-30T12:01:42.163Z</time>
      </trkpt>
      <trkpt lat="59.68833" lon="18.75689">
        <ele>27.727377</ele>
        <time>2020-08-30T12:02:03.469Z</time>
      </trkpt>
      <trkpt lat="59.68813" lon="18.75638">
        <ele>27.640662</ele>
        <time>2020-08-30T12:02:08.567Z</time>
      </trkpt>
      <trkpt lat="59.68775" lon="18.75489">
        <ele>25.665522</ele>
        <time>2020-08-30T12:02:19.752Z</time>
      </trkpt>
      <trkpt lat="59.6876" lon="18.75451">
        <ele>24.216366</ele>
        <time>2020-08-30T12:02:22.709Z</time>
      </trkpt>
      <trkpt lat="59.68741" lon="18.75417">
        <ele>22.658862</ele>
        <time>2020-08-30T12:02:25.718Z</time>
      </trkpt>
      <trkpt lat="59.68718" lon="18.75395">
        <ele>21.123094</ele>
        <time>2020-08-30T12:02:28.608Z</time>
      </trkpt>
      <trkpt lat="59.68665" lon="18.75369">
        <ele>17.882253</ele>
        <time>2020-08-30T12:02:34.809Z</time>
      </trkpt>
      <trkpt lat="59.68634" lon="18.75372">
        <ele>16.163064</ele>
        <time>2020-08-30T12:02:38.366Z</time>
      </trkpt>
      <trkpt lat="59.68606" lon="18.75378">
        <ele>14.817112</ele>
        <time>2020-08-30T12:02:41.537Z</time>
      </trkpt>
      <trkpt lat="59.68592" lon="18.75379">
        <ele>14.123603</ele>
        <time>2020-08-30T12:02:43.230Z</time>
      </trkpt>
      <trkpt lat="59.68578" lon="18.75373">
        <ele>13.453516</ele>
        <time>2020-08-30T12:02:44.823Z</time>
      </trkpt>
      <trkpt lat="59.68509" lon="18.75302">
        <ele>9.72497</ele>
        <time>2020-08-30T12:02:54.269Z</time>
      </trkpt>
      <trkpt lat="59.68486" lon="18.75275">
        <ele>8.414505</ele>
        <time>2020-08-30T12:02:57.865Z</time>
      </trkpt>
      <trkpt lat="59.68481" lon="18.75269">
        <ele>8.126086</ele>
        <time>2020-08-30T12:02:58.704Z</time>
      </trkpt>
      <trkpt lat="59.68433" lon="18.75215">
        <ele>9.185113</ele>
        <time>2020-08-30T12:03:09.011Z</time>
      </trkpt>
      <trkpt lat="59.68424" lon="18.75205">
        <ele>9.390118</ele>
        <time>2020-08-30T12:03:11.345Z</time>
      </trkpt>
      <trkpt lat="59.68285" lon="18.75051">
        <ele>12.736964</ele>
        <time>2020-08-30T12:03:58.669Z</time>
      </trkpt>
      <trkpt lat="59.68264" lon="18.75034">
        <ele>13.265782</ele>
        <time>2020-08-30T12:04:04.627Z</time>
      </trkpt>
      <trkpt lat="59.68229" lon="18.75041">
        <ele>14.072983</ele>
        <time>2020-08-30T12:04:13.668Z</time>
      </trkpt>
      <trkpt lat="59.68213" lon="18.75048">
        <ele>14.464451</ele>
        <time>2020-08-30T12:04:18.472Z</time>
      </trkpt>
      <trkpt lat="59.68193" lon="18.75061">
        <ele>14.969723</ele>
        <time>2020-08-30T12:04:23.054Z</time>
      </trkpt>
      <trkpt lat="59.68187" lon="18.75064">
        <ele>15.09941</ele>
        <time>2020-08-30T12:04:24.695Z</time>
      </trkpt>
      <trkpt lat="59.68179" lon="18.75029">
        <ele>15.555522</ele>
        <time>2020-08-30T12:04:28.738Z</time>
      </trkpt>
      <trkpt lat="59.68162" lon="18.74968">
        <ele>15.817967</ele>
        <time>2020-08-30T12:04:36.001Z</time>
      </trkpt>
      <trkpt lat="59.68147" lon="18.74938">
        <ele>15.716519</ele>
        <time>2020-08-30T12:04:40.268Z</time>
      </trkpt>
      <trkpt lat="59.68132" lon="18.74915">
        <ele>15.629743</ele>
        <time>2020-08-30T12:04:43.140Z</time>
      </trkpt>
      <trkpt lat="59.68064" lon="18.74806">
        <ele>15.215583</ele>
        <time>2020-08-30T12:04:56.353Z</time>
      </trkpt>
      <trkpt lat="59.6804" lon="18.74728">
        <ele>15.032293</ele>
        <time>2020-08-30T12:05:03.554Z</time>
      </trkpt>
      <trkpt lat="59.68022" lon="18.74672">
        <ele>14.96057</ele>
        <time>2020-08-30T12:05:09.298Z</time>
      </trkpt>
      <trkpt lat="59.68004" lon="18.74602">
        <ele>14.875211</ele>
        <time>2020-08-30T12:05:16.475Z</time>
      </trkpt>
      <trkpt lat="59.67965" lon="18.74439">
        <ele>14.6809</ele>
        <time>2020-08-30T12:05:32.847Z</time>
      </trkpt>
      <trkpt lat="59.67949" lon="18.74365">
        <ele>14.331976</ele>
        <time>2020-08-30T12:05:39.924Z</time>
      </trkpt>
      <trkpt lat="59.67946" lon="18.74312">
        <ele>14.08918</ele>
        <time>2020-08-30T12:05:44.336Z</time>
      </trkpt>
      <trkpt lat="59.67947" lon="18.74241">
        <ele>13.774527</ele>
        <time>2020-08-30T12:05:49.758Z</time>
      </trkpt>
      <trkpt lat="59.67946" lon="18.74169">
        <ele>13.448986</ele>
        <time>2020-08-30T12:05:55.304Z</time>
      </trkpt>
      <trkpt lat="59.67945" lon="18.74157">
        <ele>13.393264</ele>
        <time>2020-08-30T12:05:56.266Z</time>
      </trkpt>
      <trkpt lat="59.67942" lon="18.74086">
        <ele>13.074488</ele>
        <time>2020-08-30T12:06:01.606Z</time>
      </trkpt>
      <trkpt lat="59.67938" lon="18.73997">
        <ele>12.569752</ele>
        <time>2020-08-30T12:06:08.219Z</time>
      </trkpt>
      <trkpt lat="59.67935" lon="18.7396">
        <ele>12.361295</ele>
        <time>2020-08-30T12:06:11.001Z</time>
      </trkpt>
      <trkpt lat="59.67924" lon="18.73782">
        <ele>11.347435</ele>
        <time>2020-08-30T12:06:24.723Z</time>
      </trkpt>
      <trkpt lat="59.67919" lon="18.7372">
        <ele>11.053645</ele>
        <time>2020-08-30T12:06:29.747Z</time>
      </trkpt>
      <trkpt lat="59.67918" lon="18.73704">
        <ele>11.035108</ele>
        <time>2020-08-30T12:06:31.287Z</time>
      </trkpt>
      <trkpt lat="59.67906" lon="18.73346">
        <ele>10.643065</ele>
        <time>2020-08-30T12:07:03.008Z</time>
      </trkpt>
      <trkpt lat="59.67905" lon="18.73305">
        <ele>10.608679</ele>
        <time>2020-08-30T12:07:06.604Z</time>
      </trkpt>
      <trkpt lat="59.67894" lon="18.72935">
        <ele>10.292422</ele>
        <time>2020-08-30T12:07:39.138Z</time>
      </trkpt>
      <trkpt lat="59.67894" lon="18.7277">
        <ele>10.139531</ele>
        <time>2020-08-30T12:07:53.659Z</time>
      </trkpt>
      <trkpt lat="59.67915" lon="18.72217">
        <ele>9.322225</ele>
        <time>2020-08-30T12:08:41.238Z</time>
      </trkpt>
      <trkpt lat="59.67924" lon="18.72037">
        <ele>8.924506</ele>
        <time>2020-08-30T12:08:56.496Z</time>
      </trkpt>
      <trkpt lat="59.67935" lon="18.71912">
        <ele>8.653856</ele>
        <time>2020-08-30T12:09:06.958Z</time>
      </trkpt>
      <trkpt lat="59.67972" lon="18.71688">
        <ele>8.177087</ele>
        <time>2020-08-30T12:09:26.495Z</time>
      </trkpt>
      <trkpt lat="59.67973" lon="18.7166">
        <ele>8.12018</ele>
        <time>2020-08-30T12:09:28.809Z</time>
      </trkpt>
      <trkpt lat="59.67987" lon="18.71397">
        <ele>8.442453</ele>
        <time>2020-08-30T12:09:53.285Z</time>
      </trkpt>
      <trkpt lat="59.68002" lon="18.71099">
        <ele>9.031025</ele>
        <time>2020-08-30T12:10:24.404Z</time>
      </trkpt>
      <trkpt lat="59.68025" lon="18.70925">
        <ele>9.392607</ele>
        <time>2020-08-30T12:10:41.436Z</time>
      </trkpt>
      <trkpt lat="59.68027" lon="18.70869">
        <ele>9.292597</ele>
        <time>2020-08-30T12:10:46.181Z</time>
      </trkpt>
      <trkpt lat="59.68018" lon="18.70751">
        <ele>8.915646</ele>
        <time>2020-08-30T12:10:55.872Z</time>
      </trkpt>
      <trkpt lat="59.68015" lon="18.70725">
        <ele>8.830518</ele>
        <time>2020-08-30T12:10:57.953Z</time>
      </trkpt>
      <trkpt lat="59.6801" lon="18.70685">
        <ele>8.696965</ele>
        <time>2020-08-30T12:11:01.337Z</time>
      </trkpt>
      <trkpt lat="59.67973" lon="18.70537">
        <ele>8.226651</ele>
        <time>2020-08-30T12:11:14.377Z</time>
      </trkpt>
      <trkpt lat="59.67966" lon="18.70465">
        <ele>8.103213</ele>
        <time>2020-08-30T12:11:20.299Z</time>
      </trkpt>
      <trkpt lat="59.67965" lon="18.70287">
        <ele>7.800829</ele>
        <time>2020-08-30T12:11:36.307Z</time>
      </trkpt>
      <trkpt lat="59.67965" lon="18.7011">
        <ele>7.379966</ele>
        <time>2020-08-30T12:11:51.750Z</time>
      </trkpt>
      <trkpt lat="59.67964" lon="18.69707">
        <ele>6.836928</ele>
        <time>2020-08-30T12:12:24.260Z</time>
      </trkpt>
      <trkpt lat="59.67964" lon="18.69487">
        <ele>7.265903</ele>
        <time>2020-08-30T12:12:46.122Z</time>
      </trkpt>
      <trkpt lat="59.67965" lon="18.68695">
        <ele>16.892474</ele>
        <time>2020-08-30T12:14:32.006Z</time>
      </trkpt>
      <trkpt lat="59.67963" lon="18.68461">
        <ele>18.795946</ele>
        <time>2020-08-30T12:14:57.958Z</time>
      </trkpt>
      <trkpt lat="59.67963" lon="18.68366">
        <ele>18.967935</ele>
        <time>2020-08-30T12:15:07.858Z</time>
      </trkpt>
      <trkpt lat="59.67963" lon="18.68348">
        <ele>18.96288</ele>
        <time>2020-08-30T12:15:09.342Z</time>
      </trkpt>
      <trkpt lat="59.67925" lon="18.68354">
        <ele>18.942568</ele>
        <time>2020-08-30T12:15:16.284Z</time>
      </trkpt>
      <trkpt lat="59.67877" lon="18.68353">
        <ele>18.916282</ele>
        <time>2020-08-30T12:15:24.613Z</time>
      </trkpt>
      <trkpt lat="59.6787" lon="18.68353">
        <ele>18.912472</ele>
        <time>2020-08-30T12:15:25.698Z</time>
      </trkpt>
      <trkpt lat="59.67845" lon="18.68346">
        <ele>18.898558</ele>
        <time>2020-08-30T12:15:29.546Z</time>
      </trkpt>
      <trkpt lat="59.67809" lon="18.68332">
        <ele>18.597503</ele>
        <time>2020-08-30T12:15:35.336Z</time>
      </trkpt>
      <trkpt lat="59.67765" lon="18.68307">
        <ele>17.960925</ele>
        <time>2020-08-30T12:15:42.654Z</time>
      </trkpt>
      <trkpt lat="59.67711" lon="18.68268">
        <ele>17.14575</ele>
        <time>2020-08-30T12:15:51.173Z</time>
      </trkpt>
      <trkpt lat="59.67594" lon="18.68168">
        <ele>15.318998</ele>
        <time>2020-08-30T12:16:08.991Z</time>
      </trkpt>
      <trkpt lat="59.67526" lon="18.6812">
        <ele>14.283765</ele>
        <time>2020-08-30T12:16:19.666Z</time>
      </trkpt>
      <trkpt lat="59.67488" lon="18.68103">
        <ele>13.791541</ele>
        <time>2020-08-30T12:16:25.886Z</time>
      </trkpt>
      <trkpt lat="59.67409" lon="18.68075">
        <ele>14.730997</ele>
        <time>2020-08-30T12:16:40.591Z</time>
      </trkpt>
      <trkpt lat="59.6734" lon="18.68038">
        <ele>15.57383</ele>
        <time>2020-08-30T12:16:57.464Z</time>
      </trkpt>
      <trkpt lat="59.6725" lon="18.67963">
        <ele>18.151461</ele>
        <time>2020-08-30T12:17:24.823Z</time>
      </trkpt>
      <trkpt lat="59.67194" lon="18.67888">
        <ele>20.297506</ele>
        <time>2020-08-30T12:17:44.570Z</time>
      </trkpt>
      <trkpt lat="59.67176" lon="18.67858">
        <ele>21.036757</ele>
        <time>2020-08-30T12:17:51.450Z</time>
      </trkpt>
      <trkpt lat="59.67121" lon="18.67759">
        <ele>22.435076</ele>
        <time>2020-08-30T12:18:11.394Z</time>
      </trkpt>
      <trkpt lat="59.6708" lon="18.67687">
        <ele>23.249166</ele>
        <time>2020-08-30T12:18:24.219Z</time>
      </trkpt>
      <trkpt lat="59.67006" lon="18.67558">
        <ele>24.083519</ele>
        <time>2020-08-30T12:18:42.339Z</time>
      </trkpt>
      <trkpt lat="59.66947" lon="18.67483">
        <ele>23.710782</ele>
        <time>2020-08-30T12:18:53.247Z</time>
      </trkpt>
      <trkpt lat="59.66915" lon="18.67452">
        <ele>23.517044</ele>
        <time>2020-08-30T12:18:58.774Z</time>
      </trkpt>
      <trkpt lat="59.66877" lon="18.67422">
        <ele>23.297991</ele>
        <time>2020-08-30T12:19:05.359Z</time>
      </trkpt>
      <trkpt lat="59.66852" lon="18.67406">
        <ele>23.267067</ele>
        <time>2020-08-30T12:19:09.760Z</time>
      </trkpt>
      <trkpt lat="59.66783" lon="18.67372">
        <ele>23.213898</ele>
        <time>2020-08-30T12:19:22.033Z</time>
      </trkpt>
      <trkpt lat="59.66741" lon="18.67352">
        <ele>23.182005</ele>
        <time>2020-08-30T12:19:29.772Z</time>
      </trkpt>
      <trkpt lat="59.66633" lon="18.67279">
        <ele>23.012829</ele>
        <time>2020-08-30T12:19:51.651Z</time>
      </trkpt>
      <trkpt lat="59.66592" lon="18.67234">
        <ele>22.923883</ele>
        <time>2020-08-30T12:19:59.885Z</time>
      </trkpt>
      <trkpt lat="59.66568" lon="18.67207">
        <ele>22.872845</ele>
        <time>2020-08-30T12:20:04.246Z</time>
      </trkpt>
      <trkpt lat="59.66524" lon="18.67141">
        <ele>22.442917</ele>
        <time>2020-08-30T12:20:12.866Z</time>
      </trkpt>
      <trkpt lat="59.66506" lon="18.67114">
        <ele>22.058483</ele>
        <time>2020-08-30T12:20:16.394Z</time>
      </trkpt>
      <trkpt lat="59.6647" lon="18.67069">
        <ele>21.359008</ele>
        <time>2020-08-30T12:20:22.588Z</time>
      </trkpt>
      <trkpt lat="59.66415" lon="18.67013">
        <ele>20.336389</ele>
        <time>2020-08-30T12:20:31.396Z</time>
      </trkpt>
      <trkpt lat="59.66372" lon="18.6698">
        <ele>19.437004</ele>
        <time>2020-08-30T12:20:37.814Z</time>
      </trkpt>
      <trkpt lat="59.66293" lon="18.66947">
        <ele>17.496586</ele>
        <time>2020-08-30T12:20:48.594Z</time>
      </trkpt>
      <trkpt lat="59.66273" lon="18.66944">
        <ele>16.987869</ele>
        <time>2020-08-30T12:20:51.386Z</time>
      </trkpt>
      <trkpt lat="59.66217" lon="18.66938">
        <ele>15.64945</ele>
        <time>2020-08-30T12:20:59.055Z</time>
      </trkpt>
      <trkpt lat="59.66201" lon="18.66939">
        <ele>15.37522</ele>
        <time>2020-08-30T12:21:01.296Z</time>
      </trkpt>
      <trkpt lat="59.66162" lon="18.66948">
        <ele>14.996716</ele>
        <time>2020-08-30T12:21:06.768Z</time>
      </trkpt>
      <trkpt lat="59.66113" lon="18.66971">
        <ele>14.49995</ele>
        <time>2020-08-30T12:21:14.138Z</time>
      </trkpt>
      <trkpt lat="59.65881" lon="18.67085">
        <ele>15.340699</ele>
        <time>2020-08-30T12:21:58.583Z</time>
      </trkpt>
      <trkpt lat="59.6554" lon="18.67277">
        <ele>28.383418</ele>
        <time>2020-08-30T12:23:50.519Z</time>
      </trkpt>
      <trkpt lat="59.65302" lon="18.67484">
        <ele>31.764564</ele>
        <time>2020-08-30T12:24:49.046Z</time>
      </trkpt>
      <trkpt lat="59.65229" lon="18.67502">
        <ele>31.13847</ele>
        <time>2020-08-30T12:24:59.983Z</time>
      </trkpt>
      <trkpt lat="59.64987" lon="18.67502">
        <ele>26.189671</ele>
        <time>2020-08-30T12:25:32.719Z</time>
      </trkpt>
      <trkpt lat="59.64972" lon="18.67502">
        <ele>25.985609</ele>
        <time>2020-08-30T12:25:34.991Z</time>
      </trkpt>
      <trkpt lat="59.64886" lon="18.67466">
        <ele>24.85085</ele>
        <time>2020-08-30T12:25:47.936Z</time>
      </trkpt>
      <trkpt lat="59.64718" lon="18.67324">
        <ele>23.712607</ele>
        <time>2020-08-30T12:26:17.358Z</time>
      </trkpt>
      <trkpt lat="59.64639" lon="18.67287">
        <ele>23.886237</ele>
        <time>2020-08-30T12:26:32.430Z</time>
      </trkpt>
      <trkpt lat="59.64578" lon="18.67267">
        <ele>25.178516</ele>
        <time>2020-08-30T12:26:46.464Z</time>
      </trkpt>
      <trkpt lat="59.64462" lon="18.67253">
        <ele>27.576176</ele>
        <time>2020-08-30T12:27:18.064Z</time>
      </trkpt>
      <trkpt lat="59.64446" lon="18.67258">
        <ele>27.891819</ele>
        <time>2020-08-30T12:27:22.828Z</time>
      </trkpt>
      <trkpt lat="59.64381" lon="18.67286">
        <ele>29.201003</ele>
        <time>2020-08-30T12:27:40.311Z</time>
      </trkpt>
      <trkpt lat="59.6438" lon="18.67278">
        <ele>29.280753</ele>
        <time>2020-08-30T12:27:41.274Z</time>
      </trkpt>
      <trkpt lat="59.64373" lon="18.67229">
        <ele>29.780595</ele>
        <time>2020-08-30T12:27:47.334Z</time>
      </trkpt>
      <trkpt lat="59.64377" lon="18.67209">
        <ele>29.989408</ele>
        <time>2020-08-30T12:27:50.015Z</time>
      </trkpt>
      <trkpt lat="59.64367" lon="18.67183">
        <ele>30.31473</ele>
        <time>2020-08-30T12:27:53.611Z</time>
      </trkpt>
      <trkpt lat="59.64355" lon="18.67167">
        <ele>30.590176</ele>
        <time>2020-08-30T12:27:57.104Z</time>
      </trkpt>
      <trkpt lat="59.64327" lon="18.67149">
        <ele>30.515221</ele>
        <time>2020-08-30T12:28:03.163Z</time>
      </trkpt>
      <trkpt lat="59.64296" lon="18.67124">
        <ele>29.961515</ele>
        <time>2020-08-30T12:28:08.707Z</time>
      </trkpt>
      <trkpt lat="59.64253" lon="18.67082">
        <ele>29.162311</ele>
        <time>2020-08-30T12:28:15.856Z</time>
      </trkpt>
      <trkpt lat="59.64192" lon="18.66995">
        <ele>27.898627</ele>
        <time>2020-08-30T12:28:26.567Z</time>
      </trkpt>
      <trkpt lat="59.64143" lon="18.66901">
        <ele>25.190339</ele>
        <time>2020-08-30T12:28:35.720Z</time>
      </trkpt>
      <trkpt lat="59.64106" lon="18.66818">
        <ele>22.829213</ele>
        <time>2020-08-30T12:28:42.950Z</time>
      </trkpt>
      <trkpt lat="59.64056" lon="18.66663">
        <ele>19.07388</ele>
        <time>2020-08-30T12:28:54.829Z</time>
      </trkpt>
      <trkpt lat="59.64039" lon="18.66602">
        <ele>17.702308</ele>
        <time>2020-08-30T12:28:59.477Z</time>
      </trkpt>
      <trkpt lat="59.64035" lon="18.66589">
        <ele>17.416374</ele>
        <time>2020-08-30T12:29:00.436Z</time>
      </trkpt>
      <trkpt lat="59.64016" lon="18.66508">
        <ele>15.675232</ele>
        <time>2020-08-30T12:29:06.437Z</time>
      </trkpt>
      <trkpt lat="59.63973" lon="18.66259">
        <ele>12.275631</ele>
        <time>2020-08-30T12:29:25.146Z</time>
      </trkpt>
      <trkpt lat="59.63963" lon="18.66203">
        <ele>11.823466</ele>
        <time>2020-08-30T12:29:29.954Z</time>
      </trkpt>
      <trkpt lat="59.63949" lon="18.66122">
        <ele>11.176347</ele>
        <time>2020-08-30T12:29:37.067Z</time>
      </trkpt>
      <trkpt lat="59.63944" lon="18.66104">
        <ele>11.018728</ele>
        <time>2020-08-30T12:29:38.810Z</time>
      </trkpt>
      <trkpt lat="59.639" lon="18.65951">
        <ele>10.843892</ele>
        <time>2020-08-30T12:29:55.001Z</time>
      </trkpt>
      <trkpt lat="59.63847" lon="18.65773">
        <ele>11.125034</ele>
        <time>2020-08-30T12:30:16.022Z</time>
      </trkpt>
      <trkpt lat="59.63809" lon="18.65658">
        <ele>11.693057</ele>
        <time>2020-08-30T12:30:30.785Z</time>
      </trkpt>
      <trkpt lat="59.63801" lon="18.65633">
        <ele>11.829638</ele>
        <time>2020-08-30T12:30:33.958Z</time>
      </trkpt>
      <trkpt lat="59.63748" lon="18.65469">
        <ele>12.72154</ele>
        <time>2020-08-30T12:30:55.948Z</time>
      </trkpt>
      <trkpt lat="59.6373" lon="18.6538">
        <ele>12.756881</ele>
        <time>2020-08-30T12:31:05.850Z</time>
      </trkpt>
      <trkpt lat="59.63729" lon="18.6531">
        <ele>12.734885</ele>
        <time>2020-08-30T12:31:13.095Z</time>
      </trkpt>
      <trkpt lat="59.6373" lon="18.65259">
        <ele>12.718704</ele>
        <time>2020-08-30T12:31:18.410Z</time>
      </trkpt>
      <trkpt lat="59.63734" lon="18.65222">
        <ele>12.706872</ele>
        <time>2020-08-30T12:31:21.603Z</time>
      </trkpt>
      <trkpt lat="59.63745" lon="18.65166">
        <ele>12.688056</ele>
        <time>2020-08-30T12:31:26.943Z</time>
      </trkpt>
      <trkpt lat="59.63888" lon="18.64678">
        <ele>8.961145</ele>
        <time>2020-08-30T12:32:10.750Z</time>
      </trkpt>
      <trkpt lat="59.63904" lon="18.64627">
        <ele>8.525879</ele>
        <time>2020-08-30T12:32:15.398Z</time>
      </trkpt>
      <trkpt lat="59.63917" lon="18.64578">
        <ele>8.127169</ele>
        <time>2020-08-30T12:32:19.671Z</time>
      </trkpt>
      <trkpt lat="59.63932" lon="18.64502">
        <ele>7.536543</ele>
        <time>2020-08-30T12:32:26.268Z</time>
      </trkpt>
      <trkpt lat="59.63937" lon="18.64458">
        <ele>7.402102</ele>
        <time>2020-08-30T12:32:29.915Z</time>
      </trkpt>
      <trkpt lat="59.63939" lon="18.64439">
        <ele>7.352694</ele>
        <time>2020-08-30T12:32:31.586Z</time>
      </trkpt>
      <trkpt lat="59.63944" lon="18.64376">
        <ele>7.193872</ele>
        <time>2020-08-30T12:32:36.986Z</time>
      </trkpt>
      <trkpt lat="59.63945" lon="18.64319">
        <ele>7.05057</ele>
        <time>2020-08-30T12:32:42.012Z</time>
      </trkpt>
      <trkpt lat="59.63943" lon="18.64249">
        <ele>6.877491</ele>
        <time>2020-08-30T12:32:48.390Z</time>
      </trkpt>
      <trkpt lat="59.6393" lon="18.64143">
        <ele>6.610484</ele>
        <time>2020-08-30T12:32:58.532Z</time>
      </trkpt>
      <trkpt lat="59.639" lon="18.63946">
        <ele>6.388798</ele>
        <time>2020-08-30T12:33:17.550Z</time>
      </trkpt>
      <trkpt lat="59.63883" lon="18.63838">
        <ele>6.267475</ele>
        <time>2020-08-30T12:33:27.478Z</time>
      </trkpt>
      <trkpt lat="59.63847" lon="18.63709">
        <ele>6.33588</ele>
        <time>2020-08-30T12:33:40.415Z</time>
      </trkpt>
      <trkpt lat="59.63786" lon="18.63559">
        <ele>6.510307</ele>
        <time>2020-08-30T12:33:58.260Z</time>
      </trkpt>
      <trkpt lat="59.63632" lon="18.63226">
        <ele>10.412517</ele>
        <time>2020-08-30T12:34:53.285Z</time>
      </trkpt>
      <trkpt lat="59.63467" lon="18.62856">
        <ele>16.955453</ele>
        <time>2020-08-30T12:36:06.962Z</time>
      </trkpt>
      <trkpt lat="59.63462" lon="18.62859">
        <ele>17.042035</ele>
        <time>2020-08-30T12:36:07.939Z</time>
      </trkpt>
      <trkpt lat="59.63456" lon="18.62862">
        <ele>17.164548</ele>
        <time>2020-08-30T12:36:09.300Z</time>
      </trkpt>
      <trkpt lat="59.63444" lon="18.62829">
        <ele>17.54923</ele>
        <time>2020-08-30T12:36:13.675Z</time>
      </trkpt>
      <trkpt lat="59.63425" lon="18.62777">
        <ele>18.149557</ele>
        <time>2020-08-30T12:36:19.935Z</time>
      </trkpt>
      <trkpt lat="59.63397" lon="18.62659">
        <ele>18.333125</ele>
        <time>2020-08-30T12:36:30.978Z</time>
      </trkpt>
      <trkpt lat="59.63389" lon="18.62613">
        <ele>18.204242</ele>
        <time>2020-08-30T12:36:34.586Z</time>
      </trkpt>
      <trkpt lat="59.63351" lon="18.62255">
        <ele>18.064991</ele>
        <time>2020-08-30T12:37:04.845Z</time>
      </trkpt>
      <trkpt lat="59.63342" lon="18.62185">
        <ele>18.296982</ele>
        <time>2020-08-30T12:37:12.668Z</time>
      </trkpt>
      <trkpt lat="59.63328" lon="18.62067">
        <ele>18.682181</ele>
        <time>2020-08-30T12:37:26.602Z</time>
      </trkpt>
      <trkpt lat="59.63307" lon="18.61769">
        <ele>21.068468</ele>
        <time>2020-08-30T12:38:02.593Z</time>
      </trkpt>
      <trkpt lat="59.63284" lon="18.61676">
        <ele>21.993616</ele>
        <time>2020-08-30T12:38:14.169Z</time>
      </trkpt>
      <trkpt lat="59.63273" lon="18.6161">
        <ele>22.701456</ele>
        <time>2020-08-30T12:38:21.294Z</time>
      </trkpt>
      <trkpt lat="59.63271" lon="18.61597">
        <ele>22.842923</ele>
        <time>2020-08-30T12:38:22.501Z</time>
      </trkpt>
      <trkpt lat="59.63267" lon="18.61565">
        <ele>23.181109</ele>
        <time>2020-08-30T12:38:26.040Z</time>
      </trkpt>
      <trkpt lat="59.63267" lon="18.61527">
        <ele>23.573604</ele>
        <time>2020-08-30T12:38:30.898Z</time>
      </trkpt>
      <trkpt lat="59.63289" lon="18.61314">
        <ele>26.37673</ele>
        <time>2020-08-30T12:38:59.828Z</time>
      </trkpt>
      <trkpt lat="59.63288" lon="18.61272">
        <ele>27.301275</ele>
        <time>2020-08-30T12:39:05.643Z</time>
      </trkpt>
      <trkpt lat="59.63282" lon="18.61235">
        <ele>28.172161</ele>
        <time>2020-08-30T12:39:12.230Z</time>
      </trkpt>
      <trkpt lat="59.63234" lon="18.61075">
        <ele>32.343289</ele>
        <time>2020-08-30T12:39:44.219Z</time>
      </trkpt>
      <trkpt lat="59.63173" lon="18.60925">
        <ele>36.406229</ele>
        <time>2020-08-30T12:40:18.214Z</time>
      </trkpt>
      <trkpt lat="59.63153" lon="18.6089">
        <ele>37.519195</ele>
        <time>2020-08-30T12:40:26.747Z</time>
      </trkpt>
      <trkpt lat="59.63111" lon="18.60836">
        <ele>39.587755</ele>
        <time>2020-08-30T12:40:41.431Z</time>
      </trkpt>
      <trkpt lat="59.63101" lon="18.60814">
        <ele>40.204346</ele>
        <time>2020-08-30T12:40:45.548Z</time>
      </trkpt>
      <trkpt lat="59.63097" lon="18.60788">
        <ele>40.709068</ele>
        <time>2020-08-30T12:40:48.969Z</time>
      </trkpt>
      <trkpt lat="59.63097" lon="18.6076">
        <ele>40.802195</ele>
        <time>2020-08-30T12:40:52.871Z</time>
      </trkpt>
      <trkpt lat="59.63102" lon="18.60727">
        <ele>40.915669</ele>
        <time>2020-08-30T12:40:56.823Z</time>
      </trkpt>
      <trkpt lat="59.63128" lon="18.6061">
        <ele>41.335488</ele>
        <time>2020-08-30T12:41:10.579Z</time>
      </trkpt>
      <trkpt lat="59.63126" lon="18.60439">
        <ele>41.812971</ele>
        <time>2020-08-30T12:41:25.192Z</time>
      </trkpt>
      <trkpt lat="59.63139" lon="18.60319">
        <ele>40.890381</ele>
        <time>2020-08-30T12:41:34.219Z</time>
      </trkpt>
      <trkpt lat="59.63151" lon="18.60267">
        <ele>40.454725</ele>
        <time>2020-08-30T12:41:38.349Z</time>
      </trkpt>
      <trkpt lat="59.63224" lon="18.60065">
        <ele>38.917934</ele>
        <time>2020-08-30T12:41:56.553Z</time>
      </trkpt>
      <trkpt lat="59.63261" lon="18.59974">
        <ele>38.531421</ele>
        <time>2020-08-30T12:42:05.847Z</time>
      </trkpt>
      <trkpt lat="59.63289" lon="18.59905">
        <ele>38.235689</ele>
        <time>2020-08-30T12:42:13.535Z</time>
      </trkpt>
      <trkpt lat="59.63338" lon="18.59769">
        <ele>38.164719</ele>
        <time>2020-08-30T12:42:29.191Z</time>
      </trkpt>
      <trkpt lat="59.63351" lon="18.59721">
        <ele>38.255989</ele>
        <time>2020-08-30T12:42:34.741Z</time>
      </trkpt>
      <trkpt lat="59.63354" lon="18.59688">
        <ele>38.310943</ele>
        <time>2020-08-30T12:42:38.159Z</time>
      </trkpt>
      <trkpt lat="59.63353" lon="18.59653">
        <ele>38.369812</ele>
        <time>2020-08-30T12:42:41.731Z</time>
      </trkpt>
      <trkpt lat="59.63337" lon="18.59533">
        <ele>38.578869</ele>
        <time>2020-08-30T12:42:53.638Z</time>
      </trkpt>
      <trkpt lat="59.63332" lon="18.59432">
        <ele>38.38117</ele>
        <time>2020-08-30T12:43:02.752Z</time>
      </trkpt>
      <trkpt lat="59.63351" lon="18.59092">
        <ele>37.45751</ele>
        <time>2020-08-30T12:43:30.502Z</time>
      </trkpt>
      <trkpt lat="59.63356" lon="18.59005">
        <ele>37.12046</ele>
        <time>2020-08-30T12:43:37.447Z</time>
      </trkpt>
      <trkpt lat="59.63359" lon="18.5894">
        <ele>36.867175</ele>
        <time>2020-08-30T12:43:42.714Z</time>
      </trkpt>
      <trkpt lat="59.63355" lon="18.58822">
        <ele>36.413056</ele>
        <time>2020-08-30T12:43:52.265Z</time>
      </trkpt>
      <trkpt lat="59.63338" lon="18.58748">
        <ele>36.203918</ele>
        <time>2020-08-30T12:43:58.957Z</time>
      </trkpt>
      <trkpt lat="59.63245" lon="18.58489">
        <ele>35.750418</ele>
        <time>2020-08-30T12:44:25.388Z</time>
      </trkpt>
      <trkpt lat="59.63221" lon="18.58438">
        <ele>36.201938</ele>
        <time>2020-08-30T12:44:31.823Z</time>
      </trkpt>
      <trkpt lat="59.63167" lon="18.5837">
        <ele>37.015066</ele>
        <time>2020-08-30T12:44:45.303Z</time>
      </trkpt>
      <trkpt lat="59.63119" lon="18.58318">
        <ele>37.711926</ele>
        <time>2020-08-30T12:44:59.391Z</time>
      </trkpt>
      <trkpt lat="59.63102" lon="18.5829">
        <ele>38.135153</ele>
        <time>2020-08-30T12:45:06.267Z</time>
      </trkpt>
      <trkpt lat="59.63081" lon="18.58224">
        <ele>39.059545</ele>
        <time>2020-08-30T12:45:16.380Z</time>
      </trkpt>
      <trkpt lat="59.63059" lon="18.58102">
        <ele>40.59937</ele>
        <time>2020-08-30T12:45:34.169Z</time>
      </trkpt>
      <trkpt lat="59.63047" lon="18.58033">
        <ele>41.455804</ele>
        <time>2020-08-30T12:45:43.888Z</time>
      </trkpt>
      <trkpt lat="59.6304" lon="18.57999">
        <ele>41.890982</ele>
        <time>2020-08-30T12:45:47.551Z</time>
      </trkpt>
      <trkpt lat="59.62997" lon="18.57843">
        <ele>41.181939</ele>
        <time>2020-08-30T12:46:04.974Z</time>
      </trkpt>
      <trkpt lat="59.62986" lon="18.57816">
        <ele>41.005744</ele>
        <time>2020-08-30T12:46:07.327Z</time>
      </trkpt>
      <trkpt lat="59.62964" lon="18.57763">
        <ele>40.658307</ele>
        <time>2020-08-30T12:46:12.057Z</time>
      </trkpt>
      <trkpt lat="59.62953" lon="18.57737">
        <ele>40.488497</ele>
        <time>2020-08-30T12:46:14.393Z</time>
      </trkpt>
      <trkpt lat="59.62945" lon="18.57707">
        <ele>40.319324</ele>
        <time>2020-08-30T12:46:16.708Z</time>
      </trkpt>
      <trkpt lat="59.62939" lon="18.57684">
        <ele>40.136495</ele>
        <time>2020-08-30T12:46:18.484Z</time>
      </trkpt>
      <trkpt lat="59.62926" lon="18.57549">
        <ele>38.610308</ele>
        <time>2020-08-30T12:46:27.972Z</time>
      </trkpt>
      <trkpt lat="59.62928" lon="18.57473">
        <ele>37.758641</ele>
        <time>2020-08-30T12:46:33.430Z</time>
      </trkpt>
      <trkpt lat="59.62933" lon="18.57338">
        <ele>36.251705</ele>
        <time>2020-08-30T12:46:43.105Z</time>
      </trkpt>
      <trkpt lat="59.62937" lon="18.5726">
        <ele>35.28103</ele>
        <time>2020-08-30T12:46:48.687Z</time>
      </trkpt>
      <trkpt lat="59.62941" lon="18.57177">
        <ele>34.248336</ele>
        <time>2020-08-30T12:46:54.534Z</time>
      </trkpt>
      <trkpt lat="59.62941" lon="18.57018">
        <ele>32.286008</ele>
        <time>2020-08-30T12:47:05.470Z</time>
      </trkpt>
      <trkpt lat="59.62947" lon="18.56766">
        <ele>28.424551</ele>
        <time>2020-08-30T12:47:22.211Z</time>
      </trkpt>
      <trkpt lat="59.62954" lon="18.56678">
        <ele>27.014233</ele>
        <time>2020-08-30T12:47:28.089Z</time>
      </trkpt>
      <trkpt lat="59.62968" lon="18.56585">
        <ele>25.607702</ele>
        <time>2020-08-30T12:47:34.457Z</time>
      </trkpt>
      <trkpt lat="59.6302" lon="18.56279">
        <ele>21.369629</ele>
        <time>2020-08-30T12:47:56.595Z</time>
      </trkpt>
      <trkpt lat="59.63036" lon="18.56077">
        <ele>19.748692</ele>
        <time>2020-08-30T12:48:11.640Z</time>
      </trkpt>
      <trkpt lat="59.63035" lon="18.56022">
        <ele>19.315198</ele>
        <time>2020-08-30T12:48:15.823Z</time>
      </trkpt>
      <trkpt lat="59.63021" lon="18.55952">
        <ele>18.719809</ele>
        <time>2020-08-30T12:48:21.671Z</time>
      </trkpt>
      <trkpt lat="59.62986" lon="18.55872">
        <ele>18.213011</ele>
        <time>2020-08-30T12:48:30.008Z</time>
      </trkpt>
      <trkpt lat="59.62969" lon="18.55808">
        <ele>17.880992</ele>
        <time>2020-08-30T12:48:35.723Z</time>
      </trkpt>
      <trkpt lat="59.62936" lon="18.55623">
        <ele>16.995337</ele>
        <time>2020-08-30T12:48:51.359Z</time>
      </trkpt>
      <trkpt lat="59.6292" lon="18.55449">
        <ele>16.437072</ele>
        <time>2020-08-30T12:49:05.538Z</time>
      </trkpt>
      <trkpt lat="59.6291" lon="18.55257">
        <ele>15.948169</ele>
        <time>2020-08-30T12:49:21.550Z</time>
      </trkpt>
      <trkpt lat="59.62882" lon="18.54793">
        <ele>17.357363</ele>
        <time>2020-08-30T12:50:06.561Z</time>
      </trkpt>
      <trkpt lat="59.62876" lon="18.54691">
        <ele>18.098763</ele>
        <time>2020-08-30T12:50:18.751Z</time>
      </trkpt>
      <trkpt lat="59.62869" lon="18.54649">
        <ele>18.416322</ele>
        <time>2020-08-30T12:50:24.277Z</time>
      </trkpt>
      <trkpt lat="59.62859" lon="18.54543">
        <ele>19.432212</ele>
        <time>2020-08-30T12:50:38.332Z</time>
      </trkpt>
      <trkpt lat="59.6286" lon="18.54478">
        <ele>20.284344</ele>
        <time>2020-08-30T12:50:46.953Z</time>
      </trkpt>
      <trkpt lat="59.62886" lon="18.54276">
        <ele>23.065547</ele>
        <time>2020-08-30T12:51:15.540Z</time>
      </trkpt>
      <trkpt lat="59.6291" lon="18.54207">
        <ele>24.028026</ele>
        <time>2020-08-30T12:51:26.229Z</time>
      </trkpt>
      <trkpt lat="59.62971" lon="18.54117">
        <ele>25.463813</ele>
        <time>2020-08-30T12:51:45.084Z</time>
      </trkpt>
      <trkpt lat="59.63004" lon="18.54037">
        <ele>26.452468</ele>
        <time>2020-08-30T12:51:57.136Z</time>
      </trkpt>
      <trkpt lat="59.63015" lon="18.53993">
        <ele>26.921829</ele>
        <time>2020-08-30T12:52:02.566Z</time>
      </trkpt>
      <trkpt lat="59.6302" lon="18.53973">
        <ele>27.102053</ele>
        <time>2020-08-30T12:52:05.045Z</time>
      </trkpt>
      <trkpt lat="59.6303" lon="18.53877">
        <ele>27.645384</ele>
        <time>2020-08-30T12:52:15.638Z</time>
      </trkpt>
      <trkpt lat="59.63029" lon="18.53798">
        <ele>28.080119</ele>
        <time>2020-08-30T12:52:24.001Z</time>
      </trkpt>
      <trkpt lat="59.6301" lon="18.53687">
        <ele>28.728829</ele>
        <time>2020-08-30T12:52:36.418Z</time>
      </trkpt>
      <trkpt lat="59.62944" lon="18.53524">
        <ele>30.351156</ele>
        <time>2020-08-30T12:52:59.067Z</time>
      </trkpt>
      <trkpt lat="59.62936" lon="18.53484">
        <ele>30.723536</ele>
        <time>2020-08-30T12:53:04.314Z</time>
      </trkpt>
      <trkpt lat="59.6293" lon="18.53417">
        <ele>31.306982</ele>
        <time>2020-08-30T12:53:12.878Z</time>
      </trkpt>
      <trkpt lat="59.62936" lon="18.53361">
        <ele>31.804004</ele>
        <time>2020-08-30T12:53:20.296Z</time>
      </trkpt>
      <trkpt lat="59.62938" lon="18.533">
        <ele>32.254914</ele>
        <time>2020-08-30T12:53:27.908Z</time>
      </trkpt>
      <trkpt lat="59.62933" lon="18.53251">
        <ele>32.570797</ele>
        <time>2020-08-30T12:53:34.185Z</time>
      </trkpt>
      <trkpt lat="59.62909" lon="18.53149">
        <ele>33.272821</ele>
        <time>2020-08-30T12:53:47.605Z</time>
      </trkpt>
      <trkpt lat="59.62906" lon="18.53094">
        <ele>33.616015</ele>
        <time>2020-08-30T12:53:53.812Z</time>
      </trkpt>
      <trkpt lat="59.62926" lon="18.52954">
        <ele>33.991739</ele>
        <time>2020-08-30T12:54:08.301Z</time>
      </trkpt>
      <trkpt lat="59.62953" lon="18.52691">
        <ele>31.74977</ele>
        <time>2020-08-30T12:54:27.347Z</time>
      </trkpt>
      <trkpt lat="59.62965" lon="18.52613">
        <ele>31.125699</ele>
        <time>2020-08-30T12:54:32.970Z</time>
      </trkpt>
      <trkpt lat="59.62967" lon="18.52607">
        <ele>31.083838</ele>
        <time>2020-08-30T12:54:33.372Z</time>
      </trkpt>
      <trkpt lat="59.62985" lon="18.52534">
        <ele>30.570873</ele>
        <time>2020-08-30T12:54:39.114Z</time>
      </trkpt>
      <trkpt lat="59.62999" lon="18.52467">
        <ele>30.112249</ele>
        <time>2020-08-30T12:54:44.434Z</time>
      </trkpt>
      <trkpt lat="59.63003" lon="18.52444">
        <ele>29.955228</ele>
        <time>2020-08-30T12:54:46.377Z</time>
      </trkpt>
      <trkpt lat="59.6302" lon="18.52312">
        <ele>29.09428</ele>
        <time>2020-08-30T12:54:57.521Z</time>
      </trkpt>
      <trkpt lat="59.63034" lon="18.52202">
        <ele>29.467091</ele>
        <time>2020-08-30T12:55:09.203Z</time>
      </trkpt>
      <trkpt lat="59.63053" lon="18.52051">
        <ele>30.025546</ele>
        <time>2020-08-30T12:55:26.278Z</time>
      </trkpt>
      <trkpt lat="59.63058" lon="18.51998">
        <ele>30.221861</ele>
        <time>2020-08-30T12:55:32.350Z</time>
      </trkpt>
      <trkpt lat="59.63063" lon="18.5195">
        <ele>30.255343</ele>
        <time>2020-08-30T12:55:37.582Z</time>
      </trkpt>
      <trkpt lat="59.63067" lon="18.51927">
        <ele>30.087071</ele>
        <time>2020-08-30T12:55:39.589Z</time>
      </trkpt>
      <trkpt lat="59.6307" lon="18.51906">
        <ele>29.924737</ele>
        <time>2020-08-30T12:55:41.562Z</time>
      </trkpt>
      <trkpt lat="59.63085" lon="18.5184">
        <ele>29.406793</ele>
        <time>2020-08-30T12:55:47.575Z</time>
      </trkpt>
      <trkpt lat="59.63099" lon="18.51777">
        <ele>28.906177</ele>
        <time>2020-08-30T12:55:52.979Z</time>
      </trkpt>
      <trkpt lat="59.63108" lon="18.51739">
        <ele>28.606639</ele>
        <time>2020-08-30T12:55:55.744Z</time>
      </trkpt>
      <trkpt lat="59.6311" lon="18.51692">
        <ele>28.266938</ele>
        <time>2020-08-30T12:55:59.065Z</time>
      </trkpt>
      <trkpt lat="59.63107" lon="18.5164">
        <ele>27.886767</ele>
        <time>2020-08-30T12:56:02.495Z</time>
      </trkpt>
      <trkpt lat="59.63085" lon="18.51495">
        <ele>26.050399</ele>
        <time>2020-08-30T12:56:12.611Z</time>
      </trkpt>
      <trkpt lat="59.63081" lon="18.51463">
        <ele>25.623376</ele>
        <time>2020-08-30T12:56:14.758Z</time>
      </trkpt>
      <trkpt lat="59.63079" lon="18.51433">
        <ele>25.251331</ele>
        <time>2020-08-30T12:56:16.817Z</time>
      </trkpt>
      <trkpt lat="59.63076" lon="18.51354">
        <ele>24.246637</ele>
        <time>2020-08-30T12:56:22.220Z</time>
      </trkpt>
      <trkpt lat="59.63076" lon="18.51328">
        <ele>23.918674</ele>
        <time>2020-08-30T12:56:23.961Z</time>
      </trkpt>
      <trkpt lat="59.63087" lon="18.51091">
        <ele>23.286278</ele>
        <time>2020-08-30T12:56:43.193Z</time>
      </trkpt>
      <trkpt lat="59.63078" lon="18.50976">
        <ele>23.289424</ele>
        <time>2020-08-30T12:56:55.703Z</time>
      </trkpt>
      <trkpt lat="59.63057" lon="18.50884">
        <ele>23.512812</ele>
        <time>2020-08-30T12:57:06.736Z</time>
      </trkpt>
      <trkpt lat="59.63047" lon="18.50855">
        <ele>23.670036</ele>
        <time>2020-08-30T12:57:10.545Z</time>
      </trkpt>
      <trkpt lat="59.62985" lon="18.50692">
        <ele>24.57944</ele>
        <time>2020-08-30T12:57:31.173Z</time>
      </trkpt>
      <trkpt lat="59.62983" lon="18.50681">
        <ele>24.631277</ele>
        <time>2020-08-30T12:57:32.458Z</time>
      </trkpt>
      <trkpt lat="59.62916" lon="18.50732">
        <ele>25.943679</ele>
        <time>2020-08-30T12:57:47.307Z</time>
      </trkpt>
      <trkpt lat="59.62897" lon="18.50739">
        <ele>26.401291</ele>
        <time>2020-08-30T12:57:51.795Z</time>
      </trkpt>
      <trkpt lat="59.62887" lon="18.50744">
        <ele>26.666496</ele>
        <time>2020-08-30T12:57:54.328Z</time>
      </trkpt>
      <trkpt lat="59.62867" lon="18.50743">
        <ele>27.158888</ele>
        <time>2020-08-30T12:57:59.814Z</time>
      </trkpt>
      <trkpt lat="59.62832" lon="18.5074">
        <ele>28.013881</ele>
        <time>2020-08-30T12:58:09.293Z</time>
      </trkpt>
      <trkpt lat="59.62814" lon="18.50733">
        <ele>28.4614</ele>
        <time>2020-08-30T12:58:14.132Z</time>
      </trkpt>
      <trkpt lat="59.62717" lon="18.50697">
        <ele>31.880535</ele>
        <time>2020-08-30T12:58:43.901Z</time>
      </trkpt>
      <trkpt lat="59.62662" lon="18.50679">
        <ele>34.103205</ele>
        <time>2020-08-30T12:59:01.671Z</time>
      </trkpt>
      <trkpt lat="59.62632" lon="18.50681">
        <ele>35.313341</ele>
        <time>2020-08-30T12:59:11.439Z</time>
      </trkpt>
      <trkpt lat="59.62567" lon="18.50696">
        <ele>37.522507</ele>
        <time>2020-08-30T12:59:31.078Z</time>
      </trkpt>
      <trkpt lat="59.62566" lon="18.50668">
        <ele>37.934489</ele>
        <time>2020-08-30T12:59:35.696Z</time>
      </trkpt>
      <trkpt lat="59.62566" lon="18.50635">
        <ele>38.427031</ele>
        <time>2020-08-30T12:59:39.891Z</time>
      </trkpt>
      <trkpt lat="59.62579" lon="18.50497">
        <ele>40.489942</ele>
        <time>2020-08-30T12:59:58.146Z</time>
      </trkpt>
      <trkpt lat="59.62585" lon="18.50455">
        <ele>41.126149</ele>
        <time>2020-08-30T13:00:03.929Z</time>
      </trkpt>
      <trkpt lat="59.62583" lon="18.5038">
        <ele>42.315669</ele>
        <time>2020-08-30T13:00:14.070Z</time>
      </trkpt>
      <trkpt lat="59.62582" lon="18.50259">
        <ele>44.360289</ele>
        <time>2020-08-30T13:00:32.663Z</time>
      </trkpt>
      <trkpt lat="59.62585" lon="18.5023">
        <ele>44.848636</ele>
        <time>2020-08-30T13:00:36.698Z</time>
      </trkpt>
      <trkpt lat="59.62587" lon="18.50214">
        <ele>45.133144</ele>
        <time>2020-08-30T13:00:39.843Z</time>
      </trkpt>
      <trkpt lat="59.626" lon="18.50143">
        <ele>46.410086</ele>
        <time>2020-08-30T13:00:51.717Z</time>
      </trkpt>
      <trkpt lat="59.62595" lon="18.50101">
        <ele>47.136772</ele>
        <time>2020-08-30T13:00:57.540Z</time>
      </trkpt>
      <trkpt lat="59.62581" lon="18.49963">
        <ele>49.017968</ele>
        <time>2020-08-30T13:01:18.269Z</time>
      </trkpt>
      <trkpt lat="59.62573" lon="18.49888">
        <ele>49.953077</ele>
        <time>2020-08-30T13:01:29.676Z</time>
      </trkpt>
      <trkpt lat="59.6258" lon="18.49784">
        <ele>51.229423</ele>
        <time>2020-08-30T13:01:43.318Z</time>
      </trkpt>
      <trkpt lat="59.62599" lon="18.49721">
        <ele>52.052672</ele>
        <time>2020-08-30T13:01:51.648Z</time>
      </trkpt>
      <trkpt lat="59.62613" lon="18.49635">
        <ele>52.14705</ele>
        <time>2020-08-30T13:02:00.329Z</time>
      </trkpt>
      <trkpt lat="59.62614" lon="18.49599">
        <ele>52.1847</ele>
        <time>2020-08-30T13:02:03.584Z</time>
      </trkpt>
      <trkpt lat="59.62607" lon="18.49548">
        <ele>52.239753</ele>
        <time>2020-08-30T13:02:08.295Z</time>
      </trkpt>
      <trkpt lat="59.62573" lon="18.49421">
        <ele>52.38873</ele>
        <time>2020-08-30T13:02:21.151Z</time>
      </trkpt>
      <trkpt lat="59.6249" lon="18.49168">
        <ele>53.991792</ele>
        <time>2020-08-30T13:02:53.894Z</time>
      </trkpt>
      <trkpt lat="59.62484" lon="18.49131">
        <ele>54.210612</ele>
        <time>2020-08-30T13:02:58.794Z</time>
      </trkpt>
      <trkpt lat="59.6248" lon="18.48999">
        <ele>55.309293</ele>
        <time>2020-08-30T13:03:15.937Z</time>
      </trkpt>
      <trkpt lat="59.62449" lon="18.48509">
        <ele>58.764462</ele>
        <time>2020-08-30T13:04:16.996Z</time>
      </trkpt>
      <trkpt lat="59.62422" lon="18.48428">
        <ele>59.174551</ele>
        <time>2020-08-30T13:04:25.448Z</time>
      </trkpt>
      <trkpt lat="59.62388" lon="18.48285">
        <ele>58.283345</ele>
        <time>2020-08-30T13:04:38.114Z</time>
      </trkpt>
      <trkpt lat="59.62387" lon="18.48262">
        <ele>58.097122</ele>
        <time>2020-08-30T13:04:39.969Z</time>
      </trkpt>
      <trkpt lat="59.62388" lon="18.48243">
        <ele>57.945586</ele>
        <time>2020-08-30T13:04:41.301Z</time>
      </trkpt>
      <trkpt lat="59.6243" lon="18.48068">
        <ele>56.446429</ele>
        <time>2020-08-30T13:04:55.818Z</time>
      </trkpt>
      <trkpt lat="59.62494" lon="18.47862">
        <ele>54.955388</ele>
        <time>2020-08-30T13:05:14.865Z</time>
      </trkpt>
      <trkpt lat="59.62495" lon="18.47763">
        <ele>54.346858</ele>
        <time>2020-08-30T13:05:23.329Z</time>
      </trkpt>
      <trkpt lat="59.6245" lon="18.47482">
        <ele>53.16379</ele>
        <time>2020-08-30T13:05:48.746Z</time>
      </trkpt>
      <trkpt lat="59.62435" lon="18.47241">
        <ele>51.389368</ele>
        <time>2020-08-30T13:06:08.017Z</time>
      </trkpt>
      <trkpt lat="59.62432" lon="18.47223">
        <ele>51.228069</ele>
        <time>2020-08-30T13:06:09.420Z</time>
      </trkpt>
      <trkpt lat="59.62429" lon="18.47205">
        <ele>51.066415</ele>
        <time>2020-08-30T13:06:10.780Z</time>
      </trkpt>
      <trkpt lat="59.62409" lon="18.47145">
        <ele>50.448394</ele>
        <time>2020-08-30T13:06:16.214Z</time>
      </trkpt>
      <trkpt lat="59.62389" lon="18.47015">
        <ele>49.162803</ele>
        <time>2020-08-30T13:06:26.180Z</time>
      </trkpt>
      <trkpt lat="59.62405" lon="18.4678">
        <ele>46.679672</ele>
        <time>2020-08-30T13:06:43.534Z</time>
      </trkpt>
      <trkpt lat="59.62404" lon="18.46753">
        <ele>46.402145</ele>
        <time>2020-08-30T13:06:45.508Z</time>
      </trkpt>
      <trkpt lat="59.62397" lon="18.46699">
        <ele>45.997984</ele>
        <time>2020-08-30T13:06:49.793Z</time>
      </trkpt>
      <trkpt lat="59.6231" lon="18.4646">
        <ele>44.758287</ele>
        <time>2020-08-30T13:07:15.169Z</time>
      </trkpt>
      <trkpt lat="59.62276" lon="18.464">
        <ele>44.150005</ele>
        <time>2020-08-30T13:07:23.458Z</time>
      </trkpt>
      <trkpt lat="59.62239" lon="18.46327">
        <ele>43.308629</ele>
        <time>2020-08-30T13:07:31.692Z</time>
      </trkpt>
      <trkpt lat="59.62212" lon="18.46283">
        <ele>42.741989</ele>
        <time>2020-08-30T13:07:36.730Z</time>
      </trkpt>
      <trkpt lat="59.62211" lon="18.46278">
        <ele>42.702022</ele>
        <time>2020-08-30T13:07:37.972Z</time>
      </trkpt>
      <trkpt lat="59.6221" lon="18.46266">
        <ele>42.600703</ele>
        <time>2020-08-30T13:07:38.706Z</time>
      </trkpt>
      <trkpt lat="59.62217" lon="18.46241">
        <ele>42.365312</ele>
        <time>2020-08-30T13:07:40.894Z</time>
      </trkpt>
      <trkpt lat="59.62275" lon="18.46172">
        <ele>41.209475</ele>
        <time>2020-08-30T13:07:51.033Z</time>
      </trkpt>
      <trkpt lat="59.62281" lon="18.46161">
        <ele>41.056807</ele>
        <time>2020-08-30T13:07:52.041Z</time>
      </trkpt>
      <trkpt lat="59.62285" lon="18.46151">
        <ele>40.937849</ele>
        <time>2020-08-30T13:07:53.280Z</time>
      </trkpt>
      <trkpt lat="59.62288" lon="18.46102">
        <ele>40.477161</ele>
        <time>2020-08-30T13:07:56.794Z</time>
      </trkpt>
      <trkpt lat="59.62282" lon="18.46021">
        <ele>39.715369</ele>
        <time>2020-08-30T13:08:02.414Z</time>
      </trkpt>
      <trkpt lat="59.62281" lon="18.4599">
        <ele>39.427738</ele>
        <time>2020-08-30T13:08:05.393Z</time>
      </trkpt>
      <trkpt lat="59.62288" lon="18.45916">
        <ele>38.725142</ele>
        <time>2020-08-30T13:08:11.481Z</time>
      </trkpt>
      <trkpt lat="59.62286" lon="18.45815">
        <ele>38.696712</ele>
        <time>2020-08-30T13:08:20.756Z</time>
      </trkpt>
      <trkpt lat="59.62295" lon="18.45735">
        <ele>39.031448</ele>
        <time>2020-08-30T13:08:29.980Z</time>
      </trkpt>
      <trkpt lat="59.62299" lon="18.45715">
        <ele>39.117314</ele>
        <time>2020-08-30T13:08:32.581Z</time>
      </trkpt>
      <trkpt lat="59.62295" lon="18.45667">
        <ele>39.316461</ele>
        <time>2020-08-30T13:08:37.959Z</time>
      </trkpt>
      <trkpt lat="59.62289" lon="18.45628">
        <ele>39.480421</ele>
        <time>2020-08-30T13:08:42.664Z</time>
      </trkpt>
      <trkpt lat="59.62272" lon="18.45545">
        <ele>39.845018</ele>
        <time>2020-08-30T13:08:52.709Z</time>
      </trkpt>
      <trkpt lat="59.6225" lon="18.45465">
        <ele>40.488995</ele>
        <time>2020-08-30T13:09:03.261Z</time>
      </trkpt>
      <trkpt lat="59.62194" lon="18.45361">
        <ele>41.576833</ele>
        <time>2020-08-30T13:09:20.730Z</time>
      </trkpt>
      <trkpt lat="59.62179" lon="18.45343">
        <ele>41.834999</ele>
        <time>2020-08-30T13:09:24.930Z</time>
      </trkpt>
      <trkpt lat="59.62105" lon="18.453">
        <ele>43.08204</ele>
        <time>2020-08-30T13:09:43.230Z</time>
      </trkpt>
      <trkpt lat="59.62091" lon="18.45265">
        <ele>43.510145</ele>
        <time>2020-08-30T13:09:48.958Z</time>
      </trkpt>
      <trkpt lat="59.62077" lon="18.45202">
        <ele>44.159312</ele>
        <time>2020-08-30T13:09:57.740Z</time>
      </trkpt>
      <trkpt lat="59.62055" lon="18.45147">
        <ele>44.813019</ele>
        <time>2020-08-30T13:10:06.573Z</time>
      </trkpt>
      <trkpt lat="59.62023" lon="18.45103">
        <ele>45.542526</ele>
        <time>2020-08-30T13:10:16.334Z</time>
      </trkpt>
      <trkpt lat="59.61973" lon="18.45069">
        <ele>46.021596</ele>
        <time>2020-08-30T13:10:28.926Z</time>
      </trkpt>
      <trkpt lat="59.61957" lon="18.45042">
        <ele>46.150824</ele>
        <time>2020-08-30T13:10:34.149Z</time>
      </trkpt>
      <trkpt lat="59.6191" lon="18.45001">
        <ele>46.457888</ele>
        <time>2020-08-30T13:10:45.485Z</time>
      </trkpt>
      <trkpt lat="59.61901" lon="18.44988">
        <ele>46.525809</ele>
        <time>2020-08-30T13:10:47.470Z</time>
      </trkpt>
      <trkpt lat="59.61893" lon="18.44966">
        <ele>46.609115</ele>
        <time>2020-08-30T13:10:50.369Z</time>
      </trkpt>
      <trkpt lat="59.61886" lon="18.44928">
        <ele>46.733329</ele>
        <time>2020-08-30T13:10:53.698Z</time>
      </trkpt>
      <trkpt lat="59.61879" lon="18.449">
        <ele>46.827683</ele>
        <time>2020-08-30T13:10:56.720Z</time>
      </trkpt>
      <trkpt lat="59.61872" lon="18.44877">
        <ele>46.760794</ele>
        <time>2020-08-30T13:10:58.709Z</time>
      </trkpt>
      <trkpt lat="59.61868" lon="18.4486">
        <ele>46.622132</ele>
        <time>2020-08-30T13:11:00.295Z</time>
      </trkpt>
      <trkpt lat="59.61865" lon="18.44811">
        <ele>46.253991</ele>
        <time>2020-08-30T13:11:03.806Z</time>
      </trkpt>
      <trkpt lat="59.61868" lon="18.44752">
        <ele>45.814464</ele>
        <time>2020-08-30T13:11:08.350Z</time>
      </trkpt>
      <trkpt lat="59.61869" lon="18.4473">
        <ele>45.649906</ele>
        <time>2020-08-30T13:11:09.810Z</time>
      </trkpt>
      <trkpt lat="59.61859" lon="18.44669">
        <ele>45.181343</ele>
        <time>2020-08-30T13:11:14.425Z</time>
      </trkpt>
      <trkpt lat="59.61814" lon="18.44612">
        <ele>44.3965</ele>
        <time>2020-08-30T13:11:24.376Z</time>
      </trkpt>
      <trkpt lat="59.618" lon="18.44602">
        <ele>44.236977</ele>
        <time>2020-08-30T13:11:26.512Z</time>
      </trkpt>
      <trkpt lat="59.61795" lon="18.44599">
        <ele>44.245672</ele>
        <time>2020-08-30T13:11:27.187Z</time>
      </trkpt>
      <trkpt lat="59.61744" lon="18.44529">
        <ele>44.36009</ele>
        <time>2020-08-30T13:11:38.160Z</time>
      </trkpt>
      <trkpt lat="59.61735" lon="18.44511">
        <ele>44.382985</ele>
        <time>2020-08-30T13:11:40.388Z</time>
      </trkpt>
      <trkpt lat="59.6173" lon="18.44497">
        <ele>44.399271</ele>
        <time>2020-08-30T13:11:43.349Z</time>
      </trkpt>
      <trkpt lat="59.61724" lon="18.44406">
        <ele>44.484638</ele>
        <time>2020-08-30T13:11:52.356Z</time>
      </trkpt>
      <trkpt lat="59.61723" lon="18.44232">
        <ele>43.226053</ele>
        <time>2020-08-30T13:12:11.675Z</time>
      </trkpt>
      <trkpt lat="59.61717" lon="18.44172">
        <ele>42.339077</ele>
        <time>2020-08-30T13:12:16.356Z</time>
      </trkpt>
      <trkpt lat="59.61711" lon="18.44136">
        <ele>41.786542</ele>
        <time>2020-08-30T13:12:18.900Z</time>
      </trkpt>
      <trkpt lat="59.61663" lon="18.43993">
        <ele>39.22545</ele>
        <time>2020-08-30T13:12:29.914Z</time>
      </trkpt>
      <trkpt lat="59.61661" lon="18.43969">
        <ele>38.569844</ele>
        <time>2020-08-30T13:12:31.506Z</time>
      </trkpt>
      <trkpt lat="59.61667" lon="18.4394">
        <ele>37.72258</ele>
        <time>2020-08-30T13:12:33.401Z</time>
      </trkpt>
      <trkpt lat="59.61703" lon="18.43854">
        <ele>34.747076</ele>
        <time>2020-08-30T13:12:40.473Z</time>
      </trkpt>
      <trkpt lat="59.61707" lon="18.43811">
        <ele>33.59467</ele>
        <time>2020-08-30T13:12:43.136Z</time>
      </trkpt>
      <trkpt lat="59.61703" lon="18.43774">
        <ele>32.59134</ele>
        <time>2020-08-30T13:12:45.544Z</time>
      </trkpt>
      <trkpt lat="59.61699" lon="18.43749">
        <ele>31.903577</ele>
        <time>2020-08-30T13:12:47.101Z</time>
      </trkpt>
      <trkpt lat="59.61687" lon="18.43701">
        <ele>30.493453</ele>
        <time>2020-08-30T13:12:50.550Z</time>
      </trkpt>
      <trkpt lat="59.6168" lon="18.43678">
        <ele>29.963145</ele>
        <time>2020-08-30T13:12:52.343Z</time>
      </trkpt>
      <trkpt lat="59.61656" lon="18.43603">
        <ele>29.666605</ele>
        <time>2020-08-30T13:12:59.298Z</time>
      </trkpt>
      <trkpt lat="59.6164" lon="18.4351">
        <ele>29.343026</ele>
        <time>2020-08-30T13:13:07.261Z</time>
      </trkpt>
      <trkpt lat="59.61637" lon="18.43501">
        <ele>29.305209</ele>
        <time>2020-08-30T13:13:08.063Z</time>
      </trkpt>
      <trkpt lat="59.6163" lon="18.43488">
        <ele>29.242392</ele>
        <time>2020-08-30T13:13:10.194Z</time>
      </trkpt>
      <trkpt lat="59.61535" lon="18.43412">
        <ele>29.869484</ele>
        <time>2020-08-30T13:13:34.412Z</time>
      </trkpt>
      <trkpt lat="59.61515" lon="18.43409">
        <ele>30.442219</ele>
        <time>2020-08-30T13:13:39.178Z</time>
      </trkpt>
      <trkpt lat="59.61448" lon="18.43436">
        <ele>32.415784</ele>
        <time>2020-08-30T13:13:57.861Z</time>
      </trkpt>
      <trkpt lat="59.61442" lon="18.43432">
        <ele>32.605024</ele>
        <time>2020-08-30T13:13:59.487Z</time>
      </trkpt>
      <trkpt lat="59.6144" lon="18.43422">
        <ele>32.756032</ele>
        <time>2020-08-30T13:14:01.695Z</time>
      </trkpt>
      <trkpt lat="59.61445" lon="18.43379">
        <ele>33.414</ele>
        <time>2020-08-30T13:14:08.119Z</time>
      </trkpt>
      <trkpt lat="59.61477" lon="18.43287">
        <ele>35.872778</ele>
        <time>2020-08-30T13:14:27.459Z</time>
      </trkpt>
      <trkpt lat="59.61478" lon="18.43266">
        <ele>36.443501</ele>
        <time>2020-08-30T13:14:31.021Z</time>
      </trkpt>
      <trkpt lat="59.61472" lon="18.43227">
        <ele>37.552112</ele>
        <time>2020-08-30T13:14:39.133Z</time>
      </trkpt>
      <trkpt lat="59.61452" lon="18.43174">
        <ele>39.303447</ele>
        <time>2020-08-30T13:14:51.444Z</time>
      </trkpt>
      <trkpt lat="59.61438" lon="18.43127">
        <ele>40.733848</ele>
        <time>2020-08-30T13:15:01.313Z</time>
      </trkpt>
      <trkpt lat="59.61429" lon="18.43082">
        <ele>42.02837</ele>
        <time>2020-08-30T13:15:09.806Z</time>
      </trkpt>
      <trkpt lat="59.61429" lon="18.43062">
        <ele>42.574517</ele>
        <time>2020-08-30T13:15:14.225Z</time>
      </trkpt>
      <trkpt lat="59.61435" lon="18.43019">
        <ele>43.695091</ele>
        <time>2020-08-30T13:15:21.570Z</time>
      </trkpt>
      <trkpt lat="59.61458" lon="18.42943">
        <ele>45.535453</ele>
        <time>2020-08-30T13:15:37.768Z</time>
      </trkpt>
      <trkpt lat="59.61491" lon="18.42906">
        <ele>47.089035</ele>
        <time>2020-08-30T13:15:51.138Z</time>
      </trkpt>
      <trkpt lat="59.61505" lon="18.4288">
        <ele>47.905566</ele>
        <time>2020-08-30T13:15:56.904Z</time>
      </trkpt>
      <trkpt lat="59.61507" lon="18.42865">
        <ele>48.227128</ele>
        <time>2020-08-30T13:15:59.992Z</time>
      </trkpt>
      <trkpt lat="59.61508" lon="18.42859">
        <ele>48.343081</ele>
        <time>2020-08-30T13:16:01.175Z</time>
      </trkpt>
      <trkpt lat="59.61493" lon="18.42696">
        <ele>50.872403</ele>
        <time>2020-08-30T13:16:23.897Z</time>
      </trkpt>
      <trkpt lat="59.61492" lon="18.42677">
        <ele>50.870636</ele>
        <time>2020-08-30T13:16:25.752Z</time>
      </trkpt>
      <trkpt lat="59.61488" lon="18.42655">
        <ele>50.868485</ele>
        <time>2020-08-30T13:16:29.161Z</time>
      </trkpt>
      <trkpt lat="59.61474" lon="18.42617">
        <ele>50.864141</ele>
        <time>2020-08-30T13:16:33.688Z</time>
      </trkpt>
      <trkpt lat="59.61457" lon="18.42578">
        <ele>50.859193</ele>
        <time>2020-08-30T13:16:39.482Z</time>
      </trkpt>
      <trkpt lat="59.61449" lon="18.42558">
        <ele>50.856825</ele>
        <time>2020-08-30T13:16:41.545Z</time>
      </trkpt>
      <trkpt lat="59.61439" lon="18.42503">
        <ele>50.851377</ele>
        <time>2020-08-30T13:16:46.301Z</time>
      </trkpt>
      <trkpt lat="59.61449" lon="18.42354">
        <ele>49.6027</ele>
        <time>2020-08-30T13:16:57.631Z</time>
      </trkpt>
      <trkpt lat="59.61501" lon="18.42092">
        <ele>44.129197</ele>
        <time>2020-08-30T13:17:16.019Z</time>
      </trkpt>
      <trkpt lat="59.61523" lon="18.41988">
        <ele>42.805979</ele>
        <time>2020-08-30T13:17:23.538Z</time>
      </trkpt>
      <trkpt lat="59.61523" lon="18.41966">
        <ele>42.55534</ele>
        <time>2020-08-30T13:17:25.101Z</time>
      </trkpt>
      <trkpt lat="59.6152" lon="18.41924">
        <ele>42.090089</ele>
        <time>2020-08-30T13:17:28.086Z</time>
      </trkpt>
      <trkpt lat="59.61497" lon="18.41802">
        <ele>40.655115</ele>
        <time>2020-08-30T13:17:37.992Z</time>
      </trkpt>
      <trkpt lat="59.61482" lon="18.41646">
        <ele>40.925591</ele>
        <time>2020-08-30T13:17:54.469Z</time>
      </trkpt>
      <trkpt lat="59.61437" lon="18.41442">
        <ele>42.946315</ele>
        <time>2020-08-30T13:18:24.297Z</time>
      </trkpt>
      <trkpt lat="59.6142" lon="18.41247">
        <ele>45.019589</ele>
        <time>2020-08-30T13:18:51.328Z</time>
      </trkpt>
      <trkpt lat="59.61386" lon="18.41086">
        <ele>46.875806</ele>
        <time>2020-08-30T13:19:13.023Z</time>
      </trkpt>
      <trkpt lat="59.6138" lon="18.40996">
        <ele>47.177498</ele>
        <time>2020-08-30T13:19:23.571Z</time>
      </trkpt>
      <trkpt lat="59.61382" lon="18.40944">
        <ele>47.261126</ele>
        <time>2020-08-30T13:19:29.342Z</time>
      </trkpt>
      <trkpt lat="59.61399" lon="18.40751">
        <ele>47.574719</ele>
        <time>2020-08-30T13:19:47.563Z</time>
      </trkpt>
      <trkpt lat="59.61417" lon="18.40659">
        <ele>47.122045</ele>
        <time>2020-08-30T13:19:55.901Z</time>
      </trkpt>
      <trkpt lat="59.61418" lon="18.40652">
        <ele>47.071339</ele>
        <time>2020-08-30T13:19:56.452Z</time>
      </trkpt>
      <trkpt lat="59.61422" lon="18.4062">
        <ele>46.813069</ele>
        <time>2020-08-30T13:19:59.050Z</time>
      </trkpt>
      <trkpt lat="59.61422" lon="18.40534">
        <ele>46.149385</ele>
        <time>2020-08-30T13:20:05.594Z</time>
      </trkpt>
      <trkpt lat="59.61441" lon="18.40362">
        <ele>44.805791</ele>
        <time>2020-08-30T13:20:18.730Z</time>
      </trkpt>
      <trkpt lat="59.6144" lon="18.40326">
        <ele>44.594336</ele>
        <time>2020-08-30T13:20:21.567Z</time>
      </trkpt>
      <trkpt lat="59.61439" lon="18.40295">
        <ele>44.405515</ele>
        <time>2020-08-30T13:20:23.874Z</time>
      </trkpt>
      <trkpt lat="59.61433" lon="18.40272">
        <ele>44.252994</ele>
        <time>2020-08-30T13:20:26.065Z</time>
      </trkpt>
      <trkpt lat="59.61418" lon="18.40241">
        <ele>44.000542</ele>
        <time>2020-08-30T13:20:29.301Z</time>
      </trkpt>
      <trkpt lat="59.61314" lon="18.40099">
        <ele>42.794755</ele>
        <time>2020-08-30T13:20:50.216Z</time>
      </trkpt>
      <trkpt lat="59.61296" lon="18.40063">
        <ele>42.820752</ele>
        <time>2020-08-30T13:20:54.903Z</time>
      </trkpt>
      <trkpt lat="59.61283" lon="18.39993">
        <ele>42.860473</ele>
        <time>2020-08-30T13:21:02.060Z</time>
      </trkpt>
      <trkpt lat="59.61271" lon="18.39886">
        <ele>42.917807</ele>
        <time>2020-08-30T13:21:12.779Z</time>
      </trkpt>
      <trkpt lat="59.61265" lon="18.39829">
        <ele>42.947913</ele>
        <time>2020-08-30T13:21:18.593Z</time>
      </trkpt>
      <trkpt lat="59.61268" lon="18.39801">
        <ele>43.033282</ele>
        <time>2020-08-30T13:21:21.631Z</time>
      </trkpt>
      <trkpt lat="59.6129" lon="18.3974">
        <ele>43.773898</ele>
        <time>2020-08-30T13:21:29.679Z</time>
      </trkpt>
      <trkpt lat="59.61299" lon="18.39714">
        <ele>44.095633</ele>
        <time>2020-08-30T13:21:33.250Z</time>
      </trkpt>
      <trkpt lat="59.613" lon="18.39697">
        <ele>44.261241</ele>
        <time>2020-08-30T13:21:35.200Z</time>
      </trkpt>
      <trkpt lat="59.61295" lon="18.39664">
        <ele>44.607973</ele>
        <time>2020-08-30T13:21:39.168Z</time>
      </trkpt>
      <trkpt lat="59.61265" lon="18.39591">
        <ele>45.549802</ele>
        <time>2020-08-30T13:21:50.728Z</time>
      </trkpt>
      <trkpt lat="59.61246" lon="18.39511">
        <ele>46.427088</ele>
        <time>2020-08-30T13:22:04.093Z</time>
      </trkpt>
      <trkpt lat="59.61246" lon="18.39469">
        <ele>47.28894</ele>
        <time>2020-08-30T13:22:10.390Z</time>
      </trkpt>
      <trkpt lat="59.6125" lon="18.39449">
        <ele>47.790095</ele>
        <time>2020-08-30T13:22:14.123Z</time>
      </trkpt>
      <trkpt lat="59.61273" lon="18.39394">
        <ele>49.421932</ele>
        <time>2020-08-30T13:22:25.803Z</time>
      </trkpt>
      <trkpt lat="59.61284" lon="18.39348">
        <ele>50.596681</ele>
        <time>2020-08-30T13:22:34.178Z</time>
      </trkpt>
      <trkpt lat="59.61287" lon="18.39305">
        <ele>51.597592</ele>
        <time>2020-08-30T13:22:41.904Z</time>
      </trkpt>
      <trkpt lat="59.61274" lon="18.39249">
        <ele>53.018136</ele>
        <time>2020-08-30T13:22:52.490Z</time>
      </trkpt>
      <trkpt lat="59.61269" lon="18.39162">
        <ele>54.938452</ele>
        <time>2020-08-30T13:23:08.207Z</time>
      </trkpt>
      <trkpt lat="59.61236" lon="18.39071">
        <ele>56.835389</ele>
        <time>2020-08-30T13:23:28.253Z</time>
      </trkpt>
      <trkpt lat="59.61198" lon="18.38999">
        <ele>58.624668</ele>
        <time>2020-08-30T13:23:44.101Z</time>
      </trkpt>
      <trkpt lat="59.61195" lon="18.38964">
        <ele>59.220004</ele>
        <time>2020-08-30T13:23:49.213Z</time>
      </trkpt>
      <trkpt lat="59.61198" lon="18.3891">
        <ele>60.16408</ele>
        <time>2020-08-30T13:23:55.870Z</time>
      </trkpt>
      <trkpt lat="59.61193" lon="18.38848">
        <ele>60.672172</ele>
        <time>2020-08-30T13:24:02.747Z</time>
      </trkpt>
      <trkpt lat="59.61146" lon="18.3873">
        <ele>60.16078</ele>
        <time>2020-08-30T13:24:16.389Z</time>
      </trkpt>
      <trkpt lat="59.61092" lon="18.38653">
        <ele>59.718097</ele>
        <time>2020-08-30T13:24:26.432Z</time>
      </trkpt>
      <trkpt lat="59.61082" lon="18.38632">
        <ele>59.618558</ele>
        <time>2020-08-30T13:24:28.533Z</time>
      </trkpt>
      <trkpt lat="59.61061" lon="18.38573">
        <ele>59.078609</ele>
        <time>2020-08-30T13:24:33.816Z</time>
      </trkpt>
      <trkpt lat="59.61049" lon="18.38543">
        <ele>58.743455</ele>
        <time>2020-08-30T13:24:36.627Z</time>
      </trkpt>
      <trkpt lat="59.61039" lon="18.38516">
        <ele>58.44585</ele>
        <time>2020-08-30T13:24:39.030Z</time>
      </trkpt>
      <trkpt lat="59.61028" lon="18.38464">
        <ele>57.954816</ele>
        <time>2020-08-30T13:24:43.057Z</time>
      </trkpt>
      <trkpt lat="59.61026" lon="18.38458">
        <ele>57.882892</ele>
        <time>2020-08-30T13:24:43.633Z</time>
      </trkpt>
      <trkpt lat="59.61015" lon="18.38428">
        <ele>57.564165</ele>
        <time>2020-08-30T13:24:46.351Z</time>
      </trkpt>
      <trkpt lat="59.60981" lon="18.3838">
        <ele>56.837238</ele>
        <time>2020-08-30T13:24:52.412Z</time>
      </trkpt>
      <trkpt lat="59.6086" lon="18.38272">
        <ele>53.74727</ele>
        <time>2020-08-30T13:25:11.444Z</time>
      </trkpt>
      <trkpt lat="59.60797" lon="18.38225">
        <ele>52.127165</ele>
        <time>2020-08-30T13:25:20.109Z</time>
      </trkpt>
      <trkpt lat="59.60734" lon="18.38134">
        <ele>49.769595</ele>
        <time>2020-08-30T13:25:30.299Z</time>
      </trkpt>
      <trkpt lat="59.60705" lon="18.38076">
        <ele>48.53777</ele>
        <time>2020-08-30T13:25:35.620Z</time>
      </trkpt>
      <trkpt lat="59.60665" lon="18.37998">
        <ele>46.836793</ele>
        <time>2020-08-30T13:25:43.159Z</time>
      </trkpt>
      <trkpt lat="59.60619" lon="18.37901">
        <ele>46.3902</ele>
        <time>2020-08-30T13:25:52.648Z</time>
      </trkpt>
      <trkpt lat="59.60554" lon="18.37775">
        <ele>46.029772</ele>
        <time>2020-08-30T13:26:08.500Z</time>
      </trkpt>
      <trkpt lat="59.60537" lon="18.37733">
        <ele>45.922847</ele>
        <time>2020-08-30T13:26:14.673Z</time>
      </trkpt>
      <trkpt lat="59.60534" lon="18.37713">
        <ele>46.100883</ele>
        <time>2020-08-30T13:26:17.705Z</time>
      </trkpt>
      <trkpt lat="59.60539" lon="18.3766">
        <ele>46.658357</ele>
        <time>2020-08-30T13:26:24.151Z</time>
      </trkpt>
      <trkpt lat="59.60568" lon="18.37522">
        <ele>48.225465</ele>
        <time>2020-08-30T13:26:43.535Z</time>
      </trkpt>
      <trkpt lat="59.60571" lon="18.37474">
        <ele>48.731024</ele>
        <time>2020-08-30T13:26:49.645Z</time>
      </trkpt>
      <trkpt lat="59.60572" lon="18.37457">
        <ele>48.908175</ele>
        <time>2020-08-30T13:26:51.729Z</time>
      </trkpt>
      <trkpt lat="59.60575" lon="18.37414">
        <ele>49.355185</ele>
        <time>2020-08-30T13:26:57.255Z</time>
      </trkpt>
      <trkpt lat="59.6059" lon="18.37351">
        <ele>50.121638</ele>
        <time>2020-08-30T13:27:05.840Z</time>
      </trkpt>
      <trkpt lat="59.60591" lon="18.37345">
        <ele>50.194395</ele>
        <time>2020-08-30T13:27:06.985Z</time>
      </trkpt>
      <trkpt lat="59.606" lon="18.37294">
        <ele>50.799545</ele>
        <time>2020-08-30T13:27:13.158Z</time>
      </trkpt>
      <trkpt lat="59.60607" lon="18.37225">
        <ele>51.591969</ele>
        <time>2020-08-30T13:27:21.669Z</time>
      </trkpt>
      <trkpt lat="59.60615" lon="18.37147">
        <ele>52.480561</ele>
        <time>2020-08-30T13:27:30.966Z</time>
      </trkpt>
      <trkpt lat="59.60641" lon="18.36936">
        <ele>55.594947</ele>
        <time>2020-08-30T13:28:00.779Z</time>
      </trkpt>
      <trkpt lat="59.60641" lon="18.36907">
        <ele>56.086293</ele>
        <time>2020-08-30T13:28:05.330Z</time>
      </trkpt>
      <trkpt lat="59.60637" lon="18.36875">
        <ele>56.649345</ele>
        <time>2020-08-30T13:28:10.298Z</time>
      </trkpt>
      <trkpt lat="59.60629" lon="18.3683">
        <ele>57.443568</ele>
        <time>2020-08-30T13:28:17.550Z</time>
      </trkpt>
      <trkpt lat="59.60618" lon="18.36799">
        <ele>58.110094</ele>
        <time>2020-08-30T13:28:23.440Z</time>
      </trkpt>
      <trkpt lat="59.60603" lon="18.36768">
        <ele>58.841713</ele>
        <time>2020-08-30T13:28:30.227Z</time>
      </trkpt>
      <trkpt lat="59.60545" lon="18.36682">
        <ele>60.356214</ele>
        <time>2020-08-30T13:28:51.803Z</time>
      </trkpt>
      <trkpt lat="59.60453" lon="18.36514">
        <ele>62.166253</ele>
        <time>2020-08-30T13:29:18.775Z</time>
      </trkpt>
      <trkpt lat="59.60413" lon="18.36475">
        <ele>61.985583</ele>
        <time>2020-08-30T13:29:26.173Z</time>
      </trkpt>
      <trkpt lat="59.60397" lon="18.36442">
        <ele>61.813785</ele>
        <time>2020-08-30T13:29:29.905Z</time>
      </trkpt>
      <trkpt lat="59.60394" lon="18.36434">
        <ele>61.778161</ele>
        <time>2020-08-30T13:29:30.604Z</time>
      </trkpt>
      <trkpt lat="59.60374" lon="18.36372">
        <ele>61.496866</ele>
        <time>2020-08-30T13:29:36.533Z</time>
      </trkpt>
      <trkpt lat="59.60359" lon="18.36342">
        <ele>61.333619</ele>
        <time>2020-08-30T13:29:40.136Z</time>
      </trkpt>
      <trkpt lat="59.60356" lon="18.36337">
        <ele>61.30619</ele>
        <time>2020-08-30T13:29:40.689Z</time>
      </trkpt>
      <trkpt lat="59.60306" lon="18.36259">
        <ele>60.969581</ele>
        <time>2020-08-30T13:29:51.139Z</time>
      </trkpt>
      <trkpt lat="59.60257" lon="18.36163">
        <ele>61.235986</ele>
        <time>2020-08-30T13:30:03.363Z</time>
      </trkpt>
      <trkpt lat="59.60246" lon="18.3614">
        <ele>61.300079</ele>
        <time>2020-08-30T13:30:06.897Z</time>
      </trkpt>
      <trkpt lat="59.60214" lon="18.36079">
        <ele>61.471864</ele>
        <time>2020-08-30T13:30:16.790Z</time>
      </trkpt>
      <trkpt lat="59.60156" lon="18.35937">
        <ele>61.904329</ele>
        <time>2020-08-30T13:30:37.080Z</time>
      </trkpt>
      <trkpt lat="59.60144" lon="18.35913">
        <ele>61.996561</ele>
        <time>2020-08-30T13:30:41.283Z</time>
      </trkpt>
      <trkpt lat="59.60125" lon="18.35879">
        <ele>62.130689</ele>
        <time>2020-08-30T13:30:46.299Z</time>
      </trkpt>
      <trkpt lat="59.60026" lon="18.35714">
        <ele>62.338718</ele>
        <time>2020-08-30T13:31:10.363Z</time>
      </trkpt>
      <trkpt lat="59.60013" lon="18.35689">
        <ele>62.247245</ele>
        <time>2020-08-30T13:31:13.463Z</time>
      </trkpt>
      <trkpt lat="59.59988" lon="18.35623">
        <ele>62.042331</ele>
        <time>2020-08-30T13:31:20.576Z</time>
      </trkpt>
      <trkpt lat="59.59972" lon="18.3557">
        <ele>61.889495</ele>
        <time>2020-08-30T13:31:25.810Z</time>
      </trkpt>
      <trkpt lat="59.59962" lon="18.35537">
        <ele>61.791868</ele>
        <time>2020-08-30T13:31:29.240Z</time>
      </trkpt>
      <trkpt lat="59.59956" lon="18.35517">
        <ele>61.734808</ele>
        <time>2020-08-30T13:31:31.069Z</time>
      </trkpt>
      <trkpt lat="59.5994" lon="18.35469">
        <ele>61.401542</ele>
        <time>2020-08-30T13:31:35.843Z</time>
      </trkpt>
      <trkpt lat="59.59926" lon="18.35443">
        <ele>61.09117</ele>
        <time>2020-08-30T13:31:39.135Z</time>
      </trkpt>
      <trkpt lat="59.59913" lon="18.35426">
        <ele>60.860138</ele>
        <time>2020-08-30T13:31:41.622Z</time>
      </trkpt>
      <trkpt lat="59.59891" lon="18.354">
        <ele>60.451579</ele>
        <time>2020-08-30T13:31:45.892Z</time>
      </trkpt>
      <trkpt lat="59.59887" lon="18.35393">
        <ele>60.371459</ele>
        <time>2020-08-30T13:31:46.725Z</time>
      </trkpt>
      <trkpt lat="59.59883" lon="18.35384">
        <ele>60.279122</ele>
        <time>2020-08-30T13:31:47.545Z</time>
      </trkpt>
      <trkpt lat="59.59876" lon="18.35363">
        <ele>60.076239</ele>
        <time>2020-08-30T13:31:49.595Z</time>
      </trkpt>
      <trkpt lat="59.5985" lon="18.3533">
        <ele>59.603896</ele>
        <time>2020-08-30T13:31:54.029Z</time>
      </trkpt>
      <trkpt lat="59.59776" lon="18.35256">
        <ele>57.858754</ele>
        <time>2020-08-30T13:32:06.151Z</time>
      </trkpt>
      <trkpt lat="59.59762" lon="18.35242">
        <ele>57.438415</ele>
        <time>2020-08-30T13:32:08.223Z</time>
      </trkpt>
      <trkpt lat="59.59742" lon="18.35223">
        <ele>56.823694</ele>
        <time>2020-08-30T13:32:11.430Z</time>
      </trkpt>
      <trkpt lat="59.59728" lon="18.35209">
        <ele>56.391598</ele>
        <time>2020-08-30T13:32:13.584Z</time>
      </trkpt>
      <trkpt lat="59.59697" lon="18.35153">
        <ele>55.217228</ele>
        <time>2020-08-30T13:32:19.664Z</time>
      </trkpt>
      <trkpt lat="59.59693" lon="18.35146">
        <ele>55.078693</ele>
        <time>2020-08-30T13:32:20.335Z</time>
      </trkpt>
      <trkpt lat="59.59688" lon="18.35135">
        <ele>54.863488</ele>
        <time>2020-08-30T13:32:21.443Z</time>
      </trkpt>
      <trkpt lat="59.59677" lon="18.35112">
        <ele>54.421292</ele>
        <time>2020-08-30T13:32:23.548Z</time>
      </trkpt>
      <trkpt lat="59.5964" lon="18.35063">
        <ele>53.13936</ele>
        <time>2020-08-30T13:32:29.622Z</time>
      </trkpt>
      <trkpt lat="59.59603" lon="18.34963">
        <ele>51.261156</ele>
        <time>2020-08-30T13:32:38.194Z</time>
      </trkpt>
      <trkpt lat="59.59594" lon="18.34944">
        <ele>50.859352</ele>
        <time>2020-08-30T13:32:40.097Z</time>
      </trkpt>
      <trkpt lat="59.59575" lon="18.34915">
        <ele>50.133371</ele>
        <time>2020-08-30T13:32:43.424Z</time>
      </trkpt>
      <trkpt lat="59.59527" lon="18.34857">
        <ele>48.455314</ele>
        <time>2020-08-30T13:32:51.459Z</time>
      </trkpt>
      <trkpt lat="59.59516" lon="18.34839">
        <ele>48.050736</ele>
        <time>2020-08-30T13:32:53.354Z</time>
      </trkpt>
      <trkpt lat="59.59503" lon="18.34818">
        <ele>47.590275</ele>
        <time>2020-08-30T13:32:55.771Z</time>
      </trkpt>
      <trkpt lat="59.59482" lon="18.3477">
        <ele>46.685938</ele>
        <time>2020-08-30T13:33:00.161Z</time>
      </trkpt>
      <trkpt lat="59.59463" lon="18.34724">
        <ele>45.838973</ele>
        <time>2020-08-30T13:33:04.228Z</time>
      </trkpt>
      <trkpt lat="59.59439" lon="18.34651">
        <ele>44.60092</ele>
        <time>2020-08-30T13:33:10.549Z</time>
      </trkpt>
      <trkpt lat="59.59431" lon="18.34636">
        <ele>44.300869</ele>
        <time>2020-08-30T13:33:11.968Z</time>
      </trkpt>
      <trkpt lat="59.59421" lon="18.34621">
        <ele>43.943134</ele>
        <time>2020-08-30T13:33:13.781Z</time>
      </trkpt>
      <trkpt lat="59.59349" lon="18.34568">
        <ele>42.696101</ele>
        <time>2020-08-30T13:33:25.314Z</time>
      </trkpt>
      <trkpt lat="59.59319" lon="18.34524">
        <ele>42.222161</ele>
        <time>2020-08-30T13:33:30.915Z</time>
      </trkpt>
      <trkpt lat="59.59299" lon="18.3445">
        <ele>41.669974</ele>
        <time>2020-08-30T13:33:37.625Z</time>
      </trkpt>
      <trkpt lat="59.59273" lon="18.34278">
        <ele>41.899115</ele>
        <time>2020-08-30T13:33:54.566Z</time>
      </trkpt>
      <trkpt lat="59.59268" lon="18.34266">
        <ele>42.01384</ele>
        <time>2020-08-30T13:33:56.268Z</time>
      </trkpt>
      <trkpt lat="59.59258" lon="18.34245">
        <ele>42.216488</ele>
        <time>2020-08-30T13:33:59.342Z</time>
      </trkpt>
      <trkpt lat="59.59211" lon="18.34202">
        <ele>42.975474</ele>
        <time>2020-08-30T13:34:11.571Z</time>
      </trkpt>
      <trkpt lat="59.59169" lon="18.34138">
        <ele>43.748975</ele>
        <time>2020-08-30T13:34:26.528Z</time>
      </trkpt>
      <trkpt lat="59.5909" lon="18.3412">
        <ele>45.411707</ele>
        <time>2020-08-30T13:34:48.586Z</time>
      </trkpt>
      <trkpt lat="59.59052" lon="18.34077">
        <ele>46.337236</ele>
        <time>2020-08-30T13:34:59.182Z</time>
      </trkpt>
      <trkpt lat="59.59048" lon="18.3407">
        <ele>46.450884</ele>
        <time>2020-08-30T13:35:01.726Z</time>
      </trkpt>
      <trkpt lat="59.59024" lon="18.34022">
        <ele>47.175069</ele>
        <time>2020-08-30T13:35:09.321Z</time>
      </trkpt>
      <trkpt lat="59.58995" lon="18.33944">
        <ele>47.587044</ele>
        <time>2020-08-30T13:35:20.048Z</time>
      </trkpt>
      <trkpt lat="59.5899" lon="18.33922">
        <ele>47.589606</ele>
        <time>2020-08-30T13:35:22.045Z</time>
      </trkpt>
      <trkpt lat="59.58985" lon="18.33867">
        <ele>47.595463</ele>
        <time>2020-08-30T13:35:27.838Z</time>
      </trkpt>
      <trkpt lat="59.58978" lon="18.33672">
        <ele>47.616173</ele>
        <time>2020-08-30T13:35:44.179Z</time>
      </trkpt>
      <trkpt lat="59.58936" lon="18.33496">
        <ele>47.257748</ele>
        <time>2020-08-30T13:36:00.166Z</time>
      </trkpt>
      <trkpt lat="59.58915" lon="18.33387">
        <ele>47.015369</ele>
        <time>2020-08-30T13:36:10.323Z</time>
      </trkpt>
      <trkpt lat="59.58903" lon="18.33323">
        <ele>46.874307</ele>
        <time>2020-08-30T13:36:16.310Z</time>
      </trkpt>
      <trkpt lat="59.58896" lon="18.333">
        <ele>46.841332</ele>
        <time>2020-08-30T13:36:18.346Z</time>
      </trkpt>
      <trkpt lat="59.58881" lon="18.33245">
        <ele>46.762132</ele>
        <time>2020-08-30T13:36:23.926Z</time>
      </trkpt>
      <trkpt lat="59.58878" lon="18.33233">
        <ele>46.745148</ele>
        <time>2020-08-30T13:36:24.933Z</time>
      </trkpt>
      <trkpt lat="59.58876" lon="18.33225">
        <ele>46.733258</ele>
        <time>2020-08-30T13:36:25.735Z</time>
      </trkpt>
      <trkpt lat="59.58871" lon="18.33208">
        <ele>46.708574</ele>
        <time>2020-08-30T13:36:27.746Z</time>
      </trkpt>
      <trkpt lat="59.58854" lon="18.33179">
        <ele>46.6515</ele>
        <time>2020-08-30T13:36:31.424Z</time>
      </trkpt>
      <trkpt lat="59.58834" lon="18.33112">
        <ele>46.553843</ele>
        <time>2020-08-30T13:36:37.874Z</time>
      </trkpt>
      <trkpt lat="59.58791" lon="18.32942">
        <ele>46.467109</ele>
        <time>2020-08-30T13:36:55.028Z</time>
      </trkpt>
      <trkpt lat="59.58785" lon="18.32889">
        <ele>46.489947</ele>
        <time>2020-08-30T13:37:00.132Z</time>
      </trkpt>
      <trkpt lat="59.58784" lon="18.32867">
        <ele>46.498871</ele>
        <time>2020-08-30T13:37:02.175Z</time>
      </trkpt>
      <trkpt lat="59.58782" lon="18.3284">
        <ele>46.510366</ele>
        <time>2020-08-30T13:37:04.631Z</time>
      </trkpt>
      <trkpt lat="59.58763" lon="18.32732">
        <ele>46.558451</ele>
        <time>2020-08-30T13:37:15.379Z</time>
      </trkpt>
      <trkpt lat="59.58763" lon="18.32701">
        <ele>46.571518</ele>
        <time>2020-08-30T13:37:18.152Z</time>
      </trkpt>
      <trkpt lat="59.5877" lon="18.32666">
        <ele>46.575069</ele>
        <time>2020-08-30T13:37:21.702Z</time>
      </trkpt>
      <trkpt lat="59.58809" lon="18.32572">
        <ele>46.562812</ele>
        <time>2020-08-30T13:37:32.471Z</time>
      </trkpt>
      <trkpt lat="59.58855" lon="18.32521">
        <ele>46.552262</ele>
        <time>2020-08-30T13:37:41.598Z</time>
      </trkpt>
      <trkpt lat="59.58868" lon="18.32489">
        <ele>46.548089</ele>
        <time>2020-08-30T13:37:45.457Z</time>
      </trkpt>
      <trkpt lat="59.58876" lon="18.32449">
        <ele>46.543745</ele>
        <time>2020-08-30T13:37:49.233Z</time>
      </trkpt>
      <trkpt lat="59.58875" lon="18.32426">
        <ele>46.543376</ele>
        <time>2020-08-30T13:37:51.540Z</time>
      </trkpt>
      <trkpt lat="59.58866" lon="18.32404">
        <ele>46.593736</ele>
        <time>2020-08-30T13:37:53.929Z</time>
      </trkpt>
      <trkpt lat="59.58791" lon="18.32302">
        <ele>46.913177</ele>
        <time>2020-08-30T13:38:10.856Z</time>
      </trkpt>
      <trkpt lat="59.58759" lon="18.32234">
        <ele>47.080945</ele>
        <time>2020-08-30T13:38:19.915Z</time>
      </trkpt>
      <trkpt lat="59.58742" lon="18.32194">
        <ele>47.172219</ele>
        <time>2020-08-30T13:38:25.047Z</time>
      </trkpt>
      <trkpt lat="59.58741" lon="18.32158">
        <ele>47.391885</ele>
        <time>2020-08-30T13:38:28.777Z</time>
      </trkpt>
      <trkpt lat="59.58731" lon="18.32099">
        <ele>47.795375</ele>
        <time>2020-08-30T13:38:35.416Z</time>
      </trkpt>
      <trkpt lat="59.58695" lon="18.32049">
        <ele>48.363079</ele>
        <time>2020-08-30T13:38:45.066Z</time>
      </trkpt>
      <trkpt lat="59.58675" lon="18.3201">
        <ele>48.721548</ele>
        <time>2020-08-30T13:38:51.346Z</time>
      </trkpt>
      <trkpt lat="59.58648" lon="18.31915">
        <ele>49.426891</ele>
        <time>2020-08-30T13:39:03.984Z</time>
      </trkpt>
      <trkpt lat="59.58631" lon="18.31879">
        <ele>49.867841</ele>
        <time>2020-08-30T13:39:09.738Z</time>
      </trkpt>
      <trkpt lat="59.58609" lon="18.31843">
        <ele>50.404908</ele>
        <time>2020-08-30T13:39:16.569Z</time>
      </trkpt>
      <trkpt lat="59.58514" lon="18.31731">
        <ele>52.496943</ele>
        <time>2020-08-30T13:39:43.579Z</time>
      </trkpt>
      <trkpt lat="59.58494" lon="18.31695">
        <ele>52.928136</ele>
        <time>2020-08-30T13:39:50.243Z</time>
      </trkpt>
      <trkpt lat="59.58459" lon="18.31609">
        <ele>53.392026</ele>
        <time>2020-08-30T13:40:03.008Z</time>
      </trkpt>
      <trkpt lat="59.58411" lon="18.31446">
        <ele>54.185153</ele>
        <time>2020-08-30T13:40:21.863Z</time>
      </trkpt>
      <trkpt lat="59.58386" lon="18.3141">
        <ele>54.203776</ele>
        <time>2020-08-30T13:40:27.400Z</time>
      </trkpt>
      <trkpt lat="59.58379" lon="18.31393">
        <ele>54.034912</ele>
        <time>2020-08-30T13:40:29.099Z</time>
      </trkpt>
      <trkpt lat="59.58371" lon="18.31362">
        <ele>53.759748</ele>
        <time>2020-08-30T13:40:32.209Z</time>
      </trkpt>
      <trkpt lat="59.58359" lon="18.31311">
        <ele>53.325787</ele>
        <time>2020-08-30T13:40:36.533Z</time>
      </trkpt>
      <trkpt lat="59.58335" lon="18.31216">
        <ele>52.485849</ele>
        <time>2020-08-30T13:40:44.573Z</time>
      </trkpt>
      <trkpt lat="59.58302" lon="18.31088">
        <ele>50.810671</ele>
        <time>2020-08-30T13:40:54.331Z</time>
      </trkpt>
      <trkpt lat="59.58285" lon="18.30948">
        <ele>46.820728</ele>
        <time>2020-08-30T13:41:03.691Z</time>
      </trkpt>
      <trkpt lat="59.58274" lon="18.30876">
        <ele>44.736973</ele>
        <time>2020-08-30T13:41:08.083Z</time>
      </trkpt>
      <trkpt lat="59.58262" lon="18.30839">
        <ele>43.520889</ele>
        <time>2020-08-30T13:41:10.577Z</time>
      </trkpt>
      <trkpt lat="59.5824" lon="18.30802">
        <ele>41.94278</ele>
        <time>2020-08-30T13:41:13.817Z</time>
      </trkpt>
      <trkpt lat="59.58194" lon="18.30778">
        <ele>38.439987</ele>
        <time>2020-08-30T13:41:19.111Z</time>
      </trkpt>
      <trkpt lat="59.5818" lon="18.30763">
        <ele>37.166749</ele>
        <time>2020-08-30T13:41:21.009Z</time>
      </trkpt>
      <trkpt lat="59.58172" lon="18.30748">
        <ele>36.324506</ele>
        <time>2020-08-30T13:41:22.213Z</time>
      </trkpt>
      <trkpt lat="59.58167" lon="18.30739">
        <ele>35.875008</ele>
        <time>2020-08-30T13:41:22.893Z</time>
      </trkpt>
      <trkpt lat="59.58162" lon="18.30703">
        <ele>34.423266</ele>
        <time>2020-08-30T13:41:25.070Z</time>
      </trkpt>
      <trkpt lat="59.58161" lon="18.30679">
        <ele>33.47279</ele>
        <time>2020-08-30T13:41:26.439Z</time>
      </trkpt>
      <trkpt lat="59.58163" lon="18.30461">
        <ele>26.954047</ele>
        <time>2020-08-30T13:41:39.072Z</time>
      </trkpt>
      <trkpt lat="59.58163" lon="18.30452">
        <ele>26.823631</ele>
        <time>2020-08-30T13:41:39.645Z</time>
      </trkpt>
      <trkpt lat="59.58166" lon="18.3035">
        <ele>25.37979</ele>
        <time>2020-08-30T13:41:46.406Z</time>
      </trkpt>
      <trkpt lat="59.58172" lon="18.30279">
        <ele>24.375647</ele>
        <time>2020-08-30T13:41:51.736Z</time>
      </trkpt>
      <trkpt lat="59.58195" lon="18.30145">
        <ele>23.690751</ele>
        <time>2020-08-30T13:42:05.277Z</time>
      </trkpt>
      <trkpt lat="59.58203" lon="18.30111">
        <ele>24.253263</ele>
        <time>2020-08-30T13:42:09.238Z</time>
      </trkpt>
      <trkpt lat="59.58209" lon="18.30087">
        <ele>24.652106</ele>
        <time>2020-08-30T13:42:13.107Z</time>
      </trkpt>
      <trkpt lat="59.58227" lon="18.30035">
        <ele>25.578251</ele>
        <time>2020-08-30T13:42:21.193Z</time>
      </trkpt>
      <trkpt lat="59.58335" lon="18.29788">
        <ele>31.508235</ele>
        <time>2020-08-30T13:43:14.053Z</time>
      </trkpt>
      <trkpt lat="59.58349" lon="18.29745">
        <ele>32.648971</ele>
        <time>2020-08-30T13:43:22.893Z</time>
      </trkpt>
      <trkpt lat="59.5836" lon="18.2967">
        <ele>34.39133</ele>
        <time>2020-08-30T13:43:36.045Z</time>
      </trkpt>
      <trkpt lat="59.58374" lon="18.29471">
        <ele>37.629989</ele>
        <time>2020-08-30T13:44:07.232Z</time>
      </trkpt>
      <trkpt lat="59.58409" lon="18.29339">
        <ele>39.379012</ele>
        <time>2020-08-30T13:44:25.332Z</time>
      </trkpt>
      <trkpt lat="59.58418" lon="18.29302">
        <ele>39.867603</ele>
        <time>2020-08-30T13:44:30.080Z</time>
      </trkpt>
      <trkpt lat="59.58405" lon="18.29277">
        <ele>40.280577</ele>
        <time>2020-08-30T13:44:33.501Z</time>
      </trkpt>
      <trkpt lat="59.5839" lon="18.29245">
        <ele>40.383663</ele>
        <time>2020-08-30T13:44:37.978Z</time>
      </trkpt>
      <trkpt lat="59.58374" lon="18.29201">
        <ele>40.339627</ele>
        <time>2020-08-30T13:44:43.035Z</time>
      </trkpt>
      <trkpt lat="59.58295" lon="18.28907">
        <ele>40.105583</ele>
        <time>2020-08-30T13:45:10.734Z</time>
      </trkpt>
      <trkpt lat="59.58278" lon="18.28861">
        <ele>40.092673</ele>
        <time>2020-08-30T13:45:15.749Z</time>
      </trkpt>
      <trkpt lat="59.58231" lon="18.28774">
        <ele>40.064294</ele>
        <time>2020-08-30T13:45:26.926Z</time>
      </trkpt>
      <trkpt lat="59.58202" lon="18.28739">
        <ele>40.049342</ele>
        <time>2020-08-30T13:45:33.098Z</time>
      </trkpt>
      <trkpt lat="59.58142" lon="18.28672">
        <ele>40.647827</ele>
        <time>2020-08-30T13:45:46.610Z</time>
      </trkpt>
      <trkpt lat="59.58084" lon="18.28604">
        <ele>41.477228</ele>
        <time>2020-08-30T13:46:01.969Z</time>
      </trkpt>
      <trkpt lat="59.58057" lon="18.28563">
        <ele>41.896617</ele>
        <time>2020-08-30T13:46:09.851Z</time>
      </trkpt>
      <trkpt lat="59.58027" lon="18.28499">
        <ele>42.315115</ele>
        <time>2020-08-30T13:46:20.272Z</time>
      </trkpt>
      <trkpt lat="59.58023" lon="18.2849">
        <ele>42.339807</ele>
        <time>2020-08-30T13:46:21.820Z</time>
      </trkpt>
      <trkpt lat="59.58021" lon="18.28487">
        <ele>42.348308</ele>
        <time>2020-08-30T13:46:22.368Z</time>
      </trkpt>
      <trkpt lat="59.58013" lon="18.28467">
        <ele>42.400283</ele>
        <time>2020-08-30T13:46:25.546Z</time>
      </trkpt>
      <trkpt lat="59.57951" lon="18.28311">
        <ele>42.796031</ele>
        <time>2020-08-30T13:46:45.610Z</time>
      </trkpt>
      <trkpt lat="59.57936" lon="18.28273">
        <ele>42.890508</ele>
        <time>2020-08-30T13:46:49.346Z</time>
      </trkpt>
      <trkpt lat="59.57924" lon="18.28247">
        <ele>42.962539</ele>
        <time>2020-08-30T13:46:52.191Z</time>
      </trkpt>
      <trkpt lat="59.57911" lon="18.28218">
        <ele>42.678895</ele>
        <time>2020-08-30T13:46:54.925Z</time>
      </trkpt>
      <trkpt lat="59.57893" lon="18.28186">
        <ele>42.310731</ele>
        <time>2020-08-30T13:46:58.332Z</time>
      </trkpt>
      <trkpt lat="59.57864" lon="18.28145">
        <ele>41.760171</ele>
        <time>2020-08-30T13:47:03.498Z</time>
      </trkpt>
      <trkpt lat="59.57842" lon="18.28116">
        <ele>41.367451</ele>
        <time>2020-08-30T13:47:07.214Z</time>
      </trkpt>
      <trkpt lat="59.5781" lon="18.28077">
        <ele>40.779746</ele>
        <time>2020-08-30T13:47:12.768Z</time>
      </trkpt>
      <trkpt lat="59.5777" lon="18.28029">
        <ele>40.069508</ele>
        <time>2020-08-30T13:47:19.558Z</time>
      </trkpt>
      <trkpt lat="59.57732" lon="18.27984">
        <ele>39.389343</ele>
        <time>2020-08-30T13:47:26.267Z</time>
      </trkpt>
      <trkpt lat="59.57708" lon="18.27955">
        <ele>38.955947</ele>
        <time>2020-08-30T13:47:30.654Z</time>
      </trkpt>
      <trkpt lat="59.57693" lon="18.27934">
        <ele>38.667313</ele>
        <time>2020-08-30T13:47:33.636Z</time>
      </trkpt>
      <trkpt lat="59.57598" lon="18.27812">
        <ele>36.320266</ele>
        <time>2020-08-30T13:47:49.903Z</time>
      </trkpt>
      <trkpt lat="59.5757" lon="18.27776">
        <ele>35.185706</ele>
        <time>2020-08-30T13:47:54.169Z</time>
      </trkpt>
      <trkpt lat="59.57518" lon="18.27708">
        <ele>33.089329</ele>
        <time>2020-08-30T13:48:01.978Z</time>
      </trkpt>
      <trkpt lat="59.57498" lon="18.27683">
        <ele>32.312403</ele>
        <time>2020-08-30T13:48:04.840Z</time>
      </trkpt>
      <trkpt lat="59.57483" lon="18.27658">
        <ele>31.629545</ele>
        <time>2020-08-30T13:48:07.467Z</time>
      </trkpt>
      <trkpt lat="59.5746" lon="18.27621">
        <ele>31.187468</ele>
        <time>2020-08-30T13:48:11.264Z</time>
      </trkpt>
      <trkpt lat="59.5745" lon="18.27604">
        <ele>31.059588</ele>
        <time>2020-08-30T13:48:12.991Z</time>
      </trkpt>
      <trkpt lat="59.57421" lon="18.27549">
        <ele>30.660617</ele>
        <time>2020-08-30T13:48:18.677Z</time>
      </trkpt>
      <trkpt lat="59.57402" lon="18.27495">
        <ele>30.334919</ele>
        <time>2020-08-30T13:48:23.985Z</time>
      </trkpt>
      <trkpt lat="59.57398" lon="18.27482">
        <ele>30.260876</ele>
        <time>2020-08-30T13:48:25.140Z</time>
      </trkpt>
      <trkpt lat="59.57388" lon="18.27418">
        <ele>29.920598</ele>
        <time>2020-08-30T13:48:31.665Z</time>
      </trkpt>
      <trkpt lat="59.57379" lon="18.27323">
        <ele>29.83252</ele>
        <time>2020-08-30T13:48:42.812Z</time>
      </trkpt>
      <trkpt lat="59.57371" lon="18.27228">
        <ele>30.286423</ele>
        <time>2020-08-30T13:48:54.901Z</time>
      </trkpt>
      <trkpt lat="59.57353" lon="18.27059">
        <ele>31.105664</ele>
        <time>2020-08-30T13:49:13.744Z</time>
      </trkpt>
      <trkpt lat="59.57341" lon="18.26995">
        <ele>31.174479</ele>
        <time>2020-08-30T13:49:19.490Z</time>
      </trkpt>
      <trkpt lat="59.57324" lon="18.26946">
        <ele>30.779222</ele>
        <time>2020-08-30T13:49:23.958Z</time>
      </trkpt>
      <trkpt lat="59.57322" lon="18.26937">
        <ele>30.705601</ele>
        <time>2020-08-30T13:49:24.813Z</time>
      </trkpt>
      <trkpt lat="59.57309" lon="18.26906">
        <ele>30.434219</ele>
        <time>2020-08-30T13:49:27.634Z</time>
      </trkpt>
      <trkpt lat="59.57294" lon="18.26876">
        <ele>30.150824</ele>
        <time>2020-08-30T13:49:30.750Z</time>
      </trkpt>
      <trkpt lat="59.5725" lon="18.2681">
        <ele>29.407056</ele>
        <time>2020-08-30T13:49:38.805Z</time>
      </trkpt>
      <trkpt lat="59.572" lon="18.26736">
        <ele>28.526381</ele>
        <time>2020-08-30T13:49:47.856Z</time>
      </trkpt>
      <trkpt lat="59.57178" lon="18.26697">
        <ele>28.074777</ele>
        <time>2020-08-30T13:49:52.114Z</time>
      </trkpt>
      <trkpt lat="59.57157" lon="18.26653">
        <ele>27.601871</ele>
        <time>2020-08-30T13:49:56.624Z</time>
      </trkpt>
      <trkpt lat="59.57141" lon="18.26622">
        <ele>27.255417</ele>
        <time>2020-08-30T13:50:00.039Z</time>
      </trkpt>
      <trkpt lat="59.57108" lon="18.26521">
        <ele>26.323773</ele>
        <time>2020-08-30T13:50:09.117Z</time>
      </trkpt>
      <trkpt lat="59.57087" lon="18.26459">
        <ele>25.502524</ele>
        <time>2020-08-30T13:50:14.592Z</time>
      </trkpt>
      <trkpt lat="59.5705" lon="18.26375">
        <ele>24.16255</ele>
        <time>2020-08-30T13:50:22.429Z</time>
      </trkpt>
      <trkpt lat="59.5701" lon="18.26311">
        <ele>22.936397</ele>
        <time>2020-08-30T13:50:29.284Z</time>
      </trkpt>
      <trkpt lat="59.56976" lon="18.26258">
        <ele>21.914598</ele>
        <time>2020-08-30T13:50:34.915Z</time>
      </trkpt>
      <trkpt lat="59.56688" lon="18.25743">
        <ele>14.340329</ele>
        <time>2020-08-30T13:51:29.630Z</time>
      </trkpt>
      <trkpt lat="59.56684" lon="18.25735">
        <ele>14.29905</ele>
        <time>2020-08-30T13:51:30.516Z</time>
      </trkpt>
      <trkpt lat="59.56574" lon="18.25536">
        <ele>13.224765</ele>
        <time>2020-08-30T13:51:55.566Z</time>
      </trkpt>
      <trkpt lat="59.56531" lon="18.25448">
        <ele>13.166207</ele>
        <time>2020-08-30T13:52:06.059Z</time>
      </trkpt>
      <trkpt lat="59.56508" lon="18.25387">
        <ele>13.129235</ele>
        <time>2020-08-30T13:52:12.767Z</time>
      </trkpt>
      <trkpt lat="59.56479" lon="18.25293">
        <ele>13.076282</ele>
        <time>2020-08-30T13:52:22.743Z</time>
      </trkpt>
      <trkpt lat="59.56468" lon="18.25251">
        <ele>13.072795</ele>
        <time>2020-08-30T13:52:27.014Z</time>
      </trkpt>
      <trkpt lat="59.56293" lon="18.2524">
        <ele>14.0779</ele>
        <time>2020-08-30T13:53:01.461Z</time>
      </trkpt>
      <trkpt lat="59.56263" lon="18.25253">
        <ele>14.009715</ele>
        <time>2020-08-30T13:53:07.907Z</time>
      </trkpt>
      <trkpt lat="59.56261" lon="18.25254">
        <ele>14.001814</ele>
        <time>2020-08-30T13:53:08.635Z</time>
      </trkpt>
      <trkpt lat="59.56239" lon="18.25268">
        <ele>13.934892</ele>
        <time>2020-08-30T13:53:13.344Z</time>
      </trkpt>
      <trkpt lat="59.56214" lon="18.25299">
        <ele>13.850613</ele>
        <time>2020-08-30T13:53:19.000Z</time>
      </trkpt>
      <trkpt lat="59.56203" lon="18.25319">
        <ele>13.806186</ele>
        <time>2020-08-30T13:53:21.482Z</time>
      </trkpt>
      <trkpt lat="59.56195" lon="18.25344">
        <ele>13.763184</ele>
        <time>2020-08-30T13:53:24.058Z</time>
      </trkpt>
      <trkpt lat="59.56192" lon="18.25354">
        <ele>13.746945</ele>
        <time>2020-08-30T13:53:24.955Z</time>
      </trkpt>
      <trkpt lat="59.56155" lon="18.25465">
        <ele>13.444278</ele>
        <time>2020-08-30T13:53:34.943Z</time>
      </trkpt>
      <trkpt lat="59.56152" lon="18.2547">
        <ele>13.368477</ele>
        <time>2020-08-30T13:53:35.543Z</time>
      </trkpt>
      <trkpt lat="59.5613" lon="18.25508">
        <ele>12.806845</ele>
        <time>2020-08-30T13:53:39.701Z</time>
      </trkpt>
      <trkpt lat="59.56082" lon="18.25591">
        <ele>11.573174</ele>
        <time>2020-08-30T13:53:48.745Z</time>
      </trkpt>
      <trkpt lat="59.56074" lon="18.25605">
        <ele>11.366797</ele>
        <time>2020-08-30T13:53:50.181Z</time>
      </trkpt>
      <trkpt lat="59.56016" lon="18.25746">
        <ele>9.906204</ele>
        <time>2020-08-30T13:54:02.993Z</time>
      </trkpt>
      <trkpt lat="59.56" lon="18.25811">
        <ele>9.653389</ele>
        <time>2020-08-30T13:54:08.305Z</time>
      </trkpt>
      <trkpt lat="59.55997" lon="18.25829">
        <ele>9.584521</ele>
        <time>2020-08-30T13:54:09.736Z</time>
      </trkpt>
      <trkpt lat="59.5599" lon="18.25887">
        <ele>9.375234</ele>
        <time>2020-08-30T13:54:14.803Z</time>
      </trkpt>
      <trkpt lat="59.55975" lon="18.25953">
        <ele>9.122254</ele>
        <time>2020-08-30T13:54:21.342Z</time>
      </trkpt>
      <trkpt lat="59.5593" lon="18.2608">
        <ele>9.735336</ele>
        <time>2020-08-30T13:54:36.626Z</time>
      </trkpt>
      <trkpt lat="59.55919" lon="18.26113">
        <ele>10.209301</ele>
        <time>2020-08-30T13:54:40.754Z</time>
      </trkpt>
      <trkpt lat="59.55912" lon="18.26138">
        <ele>10.555209</ele>
        <time>2020-08-30T13:54:44.095Z</time>
      </trkpt>
      <trkpt lat="59.55898" lon="18.26327">
        <ele>12.835501</ele>
        <time>2020-08-30T13:55:11.196Z</time>
      </trkpt>
      <trkpt lat="59.55873" lon="18.26403">
        <ele>14.717644</ele>
        <time>2020-08-30T13:55:25.646Z</time>
      </trkpt>
      <trkpt lat="59.55857" lon="18.26428">
        <ele>15.668927</ele>
        <time>2020-08-30T13:55:32.183Z</time>
      </trkpt>
      <trkpt lat="59.55854" lon="18.26432">
        <ele>15.844118</ele>
        <time>2020-08-30T13:55:33.316Z</time>
      </trkpt>
      <trkpt lat="59.55846" lon="18.26445">
        <ele>16.347617</ele>
        <time>2020-08-30T13:55:36.996Z</time>
      </trkpt>
      <trkpt lat="59.55762" lon="18.26525">
        <ele>20.680142</ele>
        <time>2020-08-30T13:56:08.195Z</time>
      </trkpt>
      <trkpt lat="59.55739" lon="18.26561">
        <ele>22.117305</ele>
        <time>2020-08-30T13:56:18.412Z</time>
      </trkpt>
      <trkpt lat="59.55688" lon="18.26666">
        <ele>25.937574</ele>
        <time>2020-08-30T13:56:43.304Z</time>
      </trkpt>
      <trkpt lat="59.5563" lon="18.2681">
        <ele>30.78119</ele>
        <time>2020-08-30T13:57:16.406Z</time>
      </trkpt>
      <trkpt lat="59.55618" lon="18.26842">
        <ele>31.575336</ele>
        <time>2020-08-30T13:57:23.286Z</time>
      </trkpt>
      <trkpt lat="59.55604" lon="18.26882">
        <ele>32.568293</ele>
        <time>2020-08-30T13:57:31.670Z</time>
      </trkpt>
      <trkpt lat="59.55586" lon="18.26946">
        <ele>34.024372</ele>
        <time>2020-08-30T13:57:43.540Z</time>
      </trkpt>
      <trkpt lat="59.55573" lon="18.26988">
        <ele>35.033828</ele>
        <time>2020-08-30T13:57:51.484Z</time>
      </trkpt>
      <trkpt lat="59.5555" lon="18.27072">
        <ele>36.946295</ele>
        <time>2020-08-30T13:58:05.641Z</time>
      </trkpt>
      <trkpt lat="59.55542" lon="18.27083">
        <ele>37.320079</ele>
        <time>2020-08-30T13:58:08.421Z</time>
      </trkpt>
      <trkpt lat="59.55489" lon="18.27169">
        <ele>38.010447</ele>
        <time>2020-08-30T13:58:25.156Z</time>
      </trkpt>
      <trkpt lat="59.55213" lon="18.27523">
        <ele>35.463925</ele>
        <time>2020-08-30T13:59:16.341Z</time>
      </trkpt>
      <trkpt lat="59.55155" lon="18.27593">
        <ele>33.396506</ele>
        <time>2020-08-30T13:59:25.346Z</time>
      </trkpt>
      <trkpt lat="59.55103" lon="18.27651">
        <ele>31.596285</ele>
        <time>2020-08-30T13:59:32.927Z</time>
      </trkpt>
      <trkpt lat="59.55036" lon="18.27701">
        <ele>29.135687</ele>
        <time>2020-08-30T13:59:41.870Z</time>
      </trkpt>
      <trkpt lat="59.54973" lon="18.27704">
        <ele>26.756766</ele>
        <time>2020-08-30T13:59:49.851Z</time>
      </trkpt>
      <trkpt lat="59.54912" lon="18.27687">
        <ele>24.479507</ele>
        <time>2020-08-30T13:59:57.704Z</time>
      </trkpt>
      <trkpt lat="59.54827" lon="18.27632">
        <ele>22.527053</ele>
        <time>2020-08-30T14:00:09.508Z</time>
      </trkpt>
      <trkpt lat="59.54701" lon="18.27515">
        <ele>20.897697</ele>
        <time>2020-08-30T14:00:30.441Z</time>
      </trkpt>
      <trkpt lat="59.54585" lon="18.27433">
        <ele>22.132965</ele>
        <time>2020-08-30T14:00:58.194Z</time>
      </trkpt>
      <trkpt lat="59.54561" lon="18.27416">
        <ele>22.433134</ele>
        <time>2020-08-30T14:01:05.014Z</time>
      </trkpt>
      <trkpt lat="59.54505" lon="18.27377">
        <ele>23.514649</ele>
        <time>2020-08-30T14:01:20.543Z</time>
      </trkpt>
      <trkpt lat="59.5447" lon="18.27361">
        <ele>24.173045</ele>
        <time>2020-08-30T14:01:29.734Z</time>
      </trkpt>
      <trkpt lat="59.54386" lon="18.27351">
        <ele>25.607337</ele>
        <time>2020-08-30T14:01:48.883Z</time>
      </trkpt>
      <trkpt lat="59.54362" lon="18.27348">
        <ele>25.3273</ele>
        <time>2020-08-30T14:01:53.334Z</time>
      </trkpt>
      <trkpt lat="59.54326" lon="18.27349">
        <ele>24.926659</ele>
        <time>2020-08-30T14:01:59.150Z</time>
      </trkpt>
      <trkpt lat="59.5428" lon="18.27358">
        <ele>24.394499</ele>
        <time>2020-08-30T14:02:06.188Z</time>
      </trkpt>
      <trkpt lat="59.54229" lon="18.27371">
        <ele>23.816536</ele>
        <time>2020-08-30T14:02:13.285Z</time>
      </trkpt>
      <trkpt lat="59.54047" lon="18.27399">
        <ele>19.458119</ele>
        <time>2020-08-30T14:02:37.819Z</time>
      </trkpt>
      <trkpt lat="59.53971" lon="18.27412">
        <ele>18.434375</ele>
        <time>2020-08-30T14:02:48.662Z</time>
      </trkpt>
      <trkpt lat="59.5389" lon="18.27398">
        <ele>17.567568</ele>
        <time>2020-08-30T14:03:01.168Z</time>
      </trkpt>
      <trkpt lat="59.53725" lon="18.27326">
        <ele>18.948261</ele>
        <time>2020-08-30T14:03:33.253Z</time>
      </trkpt>
      <trkpt lat="59.53701" lon="18.27324">
        <ele>19.282364</ele>
        <time>2020-08-30T14:03:39.746Z</time>
      </trkpt>
      <trkpt lat="59.53665" lon="18.27339">
        <ele>20.465445</ele>
        <time>2020-08-30T14:03:50.693Z</time>
      </trkpt>
      <trkpt lat="59.53649" lon="18.27347">
        <ele>21.580893</ele>
        <time>2020-08-30T14:03:55.815Z</time>
      </trkpt>
      <trkpt lat="59.53624" lon="18.2736">
        <ele>23.341371</ele>
        <time>2020-08-30T14:04:05.028Z</time>
      </trkpt>
      <trkpt lat="59.53561" lon="18.27367">
        <ele>27.616761</ele>
        <time>2020-08-30T14:04:29.474Z</time>
      </trkpt>
      <trkpt lat="59.53408" lon="18.27359">
        <ele>40.644703</ele>
        <time>2020-08-30T14:05:43.863Z</time>
      </trkpt>
      <trkpt lat="59.53223" lon="18.27355">
        <ele>57.078397</ele>
        <time>2020-08-30T14:07:15.198Z</time>
      </trkpt>
      <trkpt lat="59.53053" lon="18.27354">
        <ele>67.782283</ele>
        <time>2020-08-30T14:08:19.404Z</time>
      </trkpt>
      <trkpt lat="59.53025" lon="18.27363">
        <ele>69.080529</ele>
        <time>2020-08-30T14:08:28.010Z</time>
      </trkpt>
      <trkpt lat="59.52963" lon="18.27406">
        <ele>72.000183</ele>
        <time>2020-08-30T14:08:45.899Z</time>
      </trkpt>
      <trkpt lat="59.5291" lon="18.2741">
        <ele>72.304153</ele>
        <time>2020-08-30T14:08:58.463Z</time>
      </trkpt>
      <trkpt lat="59.52858" lon="18.27393">
        <ele>72.604098</ele>
        <time>2020-08-30T14:09:08.995Z</time>
      </trkpt>
      <trkpt lat="59.52813" lon="18.27363">
        <ele>72.873283</ele>
        <time>2020-08-30T14:09:17.145Z</time>
      </trkpt>
      <trkpt lat="59.52712" lon="18.27262">
        <ele>71.816821</ele>
        <time>2020-08-30T14:09:33.960Z</time>
      </trkpt>
      <trkpt lat="59.52643" lon="18.27232">
        <ele>70.834829</ele>
        <time>2020-08-30T14:09:44.124Z</time>
      </trkpt>
      <trkpt lat="59.52577" lon="18.27228">
        <ele>70.242134</ele>
        <time>2020-08-30T14:09:54.120Z</time>
      </trkpt>
      <trkpt lat="59.52561" lon="18.2723">
        <ele>70.139341</ele>
        <time>2020-08-30T14:09:56.478Z</time>
      </trkpt>
      <trkpt lat="59.52504" lon="18.27254">
        <ele>69.763384</ele>
        <time>2020-08-30T14:10:05.986Z</time>
      </trkpt>
      <trkpt lat="59.5242" lon="18.27299">
        <ele>69.292481</ele>
        <time>2020-08-30T14:10:21.430Z</time>
      </trkpt>
      <trkpt lat="59.52301" lon="18.27338">
        <ele>68.975987</ele>
        <time>2020-08-30T14:10:42.977Z</time>
      </trkpt>
      <trkpt lat="59.52257" lon="18.27343">
        <ele>68.655411</ele>
        <time>2020-08-30T14:10:50.052Z</time>
      </trkpt>
      <trkpt lat="59.5217" lon="18.27332">
        <ele>66.77205</ele>
        <time>2020-08-30T14:11:02.795Z</time>
      </trkpt>
      <trkpt lat="59.52113" lon="18.27341">
        <ele>65.552795</ele>
        <time>2020-08-30T14:11:10.253Z</time>
      </trkpt>
      <trkpt lat="59.5201" lon="18.27341">
        <ele>62.293661</ele>
        <time>2020-08-30T14:11:23.584Z</time>
      </trkpt>
      <trkpt lat="59.51981" lon="18.27349">
        <ele>61.2861</ele>
        <time>2020-08-30T14:11:27.396Z</time>
      </trkpt>
      <trkpt lat="59.51974" lon="18.27352">
        <ele>61.040283</ele>
        <time>2020-08-30T14:11:28.247Z</time>
      </trkpt>
      <trkpt lat="59.51939" lon="18.27385">
        <ele>59.698908</ele>
        <time>2020-08-30T14:11:33.157Z</time>
      </trkpt>
      <trkpt lat="59.51861" lon="18.27524">
        <ele>56.529586</ele>
        <time>2020-08-30T14:11:46.803Z</time>
      </trkpt>
      <trkpt lat="59.51852" lon="18.27543">
        <ele>56.148553</ele>
        <time>2020-08-30T14:11:48.586Z</time>
      </trkpt>
      <trkpt lat="59.51831" lon="18.2757">
        <ele>55.418306</ele>
        <time>2020-08-30T14:11:52.182Z</time>
      </trkpt>
      <trkpt lat="59.51792" lon="18.27616">
        <ele>54.131906</ele>
        <time>2020-08-30T14:11:58.295Z</time>
      </trkpt>
      <trkpt lat="59.51757" lon="18.27638">
        <ele>53.087841</ele>
        <time>2020-08-30T14:12:03.332Z</time>
      </trkpt>
      <trkpt lat="59.51743" lon="18.27642">
        <ele>52.707385</ele>
        <time>2020-08-30T14:12:05.255Z</time>
      </trkpt>
      <trkpt lat="59.51576" lon="18.27685">
        <ele>48.011972</ele>
        <time>2020-08-30T14:12:27.820Z</time>
      </trkpt>
      <trkpt lat="59.51475" lon="18.27699">
        <ele>44.947236</ele>
        <time>2020-08-30T14:12:41.139Z</time>
      </trkpt>
      <trkpt lat="59.51435" lon="18.27711">
        <ele>43.720576</ele>
        <time>2020-08-30T14:12:46.483Z</time>
      </trkpt>
      <trkpt lat="59.514" lon="18.27739">
        <ele>42.481081</ele>
        <time>2020-08-30T14:12:51.416Z</time>
      </trkpt>
      <trkpt lat="59.51263" lon="18.27941">
        <ele>36.34932</ele>
        <time>2020-08-30T14:13:13.332Z</time>
      </trkpt>
      <trkpt lat="59.51212" lon="18.27994">
        <ele>34.243311</ele>
        <time>2020-08-30T14:13:20.562Z</time>
      </trkpt>
      <trkpt lat="59.51182" lon="18.28032">
        <ele>32.940848</ele>
        <time>2020-08-30T14:13:25.104Z</time>
      </trkpt>
      <trkpt lat="59.51165" lon="18.28049">
        <ele>32.236925</ele>
        <time>2020-08-30T14:13:27.655Z</time>
      </trkpt>
      <trkpt lat="59.51159" lon="18.28051">
        <ele>32.029967</ele>
        <time>2020-08-30T14:13:28.323Z</time>
      </trkpt>
      <trkpt lat="59.51112" lon="18.28057">
        <ele>30.306694</ele>
        <time>2020-08-30T14:13:34.291Z</time>
      </trkpt>
      <trkpt lat="59.51064" lon="18.2808">
        <ele>28.745219</ele>
        <time>2020-08-30T14:13:40.869Z</time>
      </trkpt>
      <trkpt lat="59.51018" lon="18.28111">
        <ele>27.22581</ele>
        <time>2020-08-30T14:13:47.425Z</time>
      </trkpt>
      <trkpt lat="59.50999" lon="18.2813">
        <ele>26.564845</ele>
        <time>2020-08-30T14:13:50.287Z</time>
      </trkpt>
      <trkpt lat="59.50937" lon="18.2819">
        <ele>24.363774</ele>
        <time>2020-08-30T14:13:59.377Z</time>
      </trkpt>
      <trkpt lat="59.50897" lon="18.28207">
        <ele>22.670982</ele>
        <time>2020-08-30T14:14:04.539Z</time>
      </trkpt>
      <trkpt lat="59.5083" lon="18.28209">
        <ele>19.893707</ele>
        <time>2020-08-30T14:14:12.815Z</time>
      </trkpt>
      <trkpt lat="59.50782" lon="18.28196">
        <ele>17.876367</ele>
        <time>2020-08-30T14:14:18.810Z</time>
      </trkpt>
      <trkpt lat="59.50742" lon="18.28195">
        <ele>16.612059</ele>
        <time>2020-08-30T14:14:23.754Z</time>
      </trkpt>
      <trkpt lat="59.50704" lon="18.28196">
        <ele>15.683513</ele>
        <time>2020-08-30T14:14:28.492Z</time>
      </trkpt>
      <trkpt lat="59.50696" lon="18.28195">
        <ele>15.492877</ele>
        <time>2020-08-30T14:14:29.425Z</time>
      </trkpt>
      <trkpt lat="59.50618" lon="18.2821">
        <ele>13.581247</ele>
        <time>2020-08-30T14:14:40.065Z</time>
      </trkpt>
      <trkpt lat="59.50556" lon="18.28204">
        <ele>13.570801</ele>
        <time>2020-08-30T14:14:52.482Z</time>
      </trkpt>
      <trkpt lat="59.50535" lon="18.2821">
        <ele>14.127989</ele>
        <time>2020-08-30T14:14:57.721Z</time>
      </trkpt>
      <trkpt lat="59.50507" lon="18.28225">
        <ele>14.897862</ele>
        <time>2020-08-30T14:15:05.609Z</time>
      </trkpt>
      <trkpt lat="59.50499" lon="18.28229">
        <ele>15.128475</ele>
        <time>2020-08-30T14:15:08.099Z</time>
      </trkpt>
      <trkpt lat="59.50464" lon="18.28239">
        <ele>16.043598</ele>
        <time>2020-08-30T14:15:18.210Z</time>
      </trkpt>
      <trkpt lat="59.50377" lon="18.28231">
        <ele>18.20416</ele>
        <time>2020-08-30T14:15:45.420Z</time>
      </trkpt>
      <trkpt lat="59.50313" lon="18.28277">
        <ele>19.612077</ele>
        <time>2020-08-30T14:16:04.143Z</time>
      </trkpt>
      <trkpt lat="59.5028" lon="18.28295">
        <ele>20.333219</ele>
        <time>2020-08-30T14:16:11.205Z</time>
      </trkpt>
      <trkpt lat="59.50253" lon="18.28299">
        <ele>20.907566</ele>
        <time>2020-08-30T14:16:16.710Z</time>
      </trkpt>
      <trkpt lat="59.50232" lon="18.28299">
        <ele>21.308824</ele>
        <time>2020-08-30T14:16:20.907Z</time>
      </trkpt>
      <trkpt lat="59.5023" lon="18.283">
        <ele>21.285001</ele>
        <time>2020-08-30T14:16:21.337Z</time>
      </trkpt>
      <trkpt lat="59.50231" lon="18.28299">
        <ele>21.273953</ele>
        <time>2020-08-30T14:16:21.537Z</time>
      </trkpt>
      <trkpt lat="59.50184" lon="18.28316">
        <ele>20.874653</ele>
        <time>2020-08-30T14:16:29.144Z</time>
      </trkpt>
      <trkpt lat="59.5016" lon="18.28334">
        <ele>20.657622</ele>
        <time>2020-08-30T14:16:33.282Z</time>
      </trkpt>
      <trkpt lat="59.50148" lon="18.28347">
        <ele>20.546396</ele>
        <time>2020-08-30T14:16:35.173Z</time>
      </trkpt>
      <trkpt lat="59.50157" lon="18.28364">
        <ele>20.445516</ele>
        <time>2020-08-30T14:16:37.302Z</time>
      </trkpt>
      <trkpt lat="59.50145" lon="18.28383">
        <ele>20.317573</ele>
        <time>2020-08-30T14:16:39.438Z</time>
      </trkpt>
      <trkpt lat="59.50132" lon="18.28404">
        <ele>20.174504</ele>
        <time>2020-08-30T14:16:41.991Z</time>
      </trkpt>
      <trkpt lat="59.50126" lon="18.2841">
        <ele>20.118385</ele>
        <time>2020-08-30T14:16:43.103Z</time>
      </trkpt>
      <trkpt lat="59.50123" lon="18.28392">
        <ele>20.039038</ele>
        <time>2020-08-30T14:16:44.380Z</time>
      </trkpt>
      <trkpt lat="59.50117" lon="18.2836">
        <ele>19.891267</ele>
        <time>2020-08-30T14:16:47.002Z</time>
      </trkpt>
      <trkpt lat="59.501" lon="18.28309">
        <ele>19.617753</ele>
        <time>2020-08-30T14:16:51.615Z</time>
      </trkpt>
      <trkpt lat="59.50061" lon="18.28253">
        <ele>19.171506</ele>
        <time>2020-08-30T14:16:59.717Z</time>
      </trkpt>
      <trkpt lat="59.4991" lon="18.28161">
        <ele>17.650472</ele>
        <time>2020-08-30T14:17:24.300Z</time>
      </trkpt>
      <trkpt lat="59.49892" lon="18.2816">
        <ele>17.449184</ele>
        <time>2020-08-30T14:17:27.226Z</time>
      </trkpt>
      <trkpt lat="59.49888" lon="18.28159">
        <ele>17.412293</ele>
        <time>2020-08-30T14:17:27.713Z</time>
      </trkpt>
      <trkpt lat="59.49872" lon="18.28136">
        <ele>17.195494</ele>
        <time>2020-08-30T14:17:30.899Z</time>
      </trkpt>
      <trkpt lat="59.49718" lon="18.28051">
        <ele>15.29985</ele>
        <time>2020-08-30T14:17:55.135Z</time>
      </trkpt>
      <trkpt lat="59.49699" lon="18.28052">
        <ele>15.05713</ele>
        <time>2020-08-30T14:17:58.017Z</time>
      </trkpt>
      <trkpt lat="59.49666" lon="18.28024">
        <ele>14.568629</ele>
        <time>2020-08-30T14:18:03.636Z</time>
      </trkpt>
      <trkpt lat="59.49665" lon="18.28023">
        <ele>14.555964</ele>
        <time>2020-08-30T14:18:03.748Z</time>
      </trkpt>
      <trkpt lat="59.49641" lon="18.2801">
        <ele>14.228194</ele>
        <time>2020-08-30T14:18:07.486Z</time>
      </trkpt>
      <trkpt lat="59.49554" lon="18.27958">
        <ele>12.764435</ele>
        <time>2020-08-30T14:18:20.324Z</time>
      </trkpt>
      <trkpt lat="59.49512" lon="18.27948">
        <ele>12.014914</ele>
        <time>2020-08-30T14:18:26.445Z</time>
      </trkpt>
      <trkpt lat="59.49469" lon="18.27937">
        <ele>11.251214</ele>
        <time>2020-08-30T14:18:32.740Z</time>
      </trkpt>
      <trkpt lat="59.49463" lon="18.27936">
        <ele>11.150421</ele>
        <time>2020-08-30T14:18:33.463Z</time>
      </trkpt>
      <trkpt lat="59.49467" lon="18.2792">
        <ele>10.99492</ele>
        <time>2020-08-30T14:18:34.943Z</time>
      </trkpt>
      <trkpt lat="59.49464" lon="18.27919">
        <ele>10.937805</ele>
        <time>2020-08-30T14:18:35.404Z</time>
      </trkpt>
      <trkpt lat="59.49465" lon="18.27912">
        <ele>10.878038</ele>
        <time>2020-08-30T14:18:35.903Z</time>
      </trkpt>
      <trkpt lat="59.49458" lon="18.27892">
        <ele>10.662128</ele>
        <time>2020-08-30T14:18:37.725Z</time>
      </trkpt>
      <trkpt lat="59.49455" lon="18.27891">
        <ele>10.630846</ele>
        <time>2020-08-30T14:18:38.168Z</time>
      </trkpt>
      <trkpt lat="59.49451" lon="18.27892">
        <ele>10.599246</ele>
        <time>2020-08-30T14:18:38.599Z</time>
      </trkpt>
      <trkpt lat="59.49449" lon="18.27896">
        <ele>10.567557</ele>
        <time>2020-08-30T14:18:39.077Z</time>
      </trkpt>
      <trkpt lat="59.49447" lon="18.279">
        <ele>10.538919</ele>
        <time>2020-08-30T14:18:39.577Z</time>
      </trkpt>
      <trkpt lat="59.49439" lon="18.27882">
        <ele>10.421987</ele>
        <time>2020-08-30T14:18:41.447Z</time>
      </trkpt>
      <trkpt lat="59.49401" lon="18.27817">
        <ele>9.956021</ele>
        <time>2020-08-30T14:18:48.639Z</time>
      </trkpt>
      <trkpt lat="59.4938" lon="18.27791">
        <ele>9.72068</ele>
        <time>2020-08-30T14:18:52.479Z</time>
      </trkpt>
      <trkpt lat="59.49343" lon="18.27752">
        <ele>9.323485</ele>
        <time>2020-08-30T14:18:59.299Z</time>
      </trkpt>
      <trkpt lat="59.49341" lon="18.2775">
        <ele>9.305692</ele>
        <time>2020-08-30T14:18:59.601Z</time>
      </trkpt>
      <trkpt lat="59.49331" lon="18.27784">
        <ele>9.114687</ele>
        <time>2020-08-30T14:19:03.505Z</time>
      </trkpt>
      <trkpt lat="59.49313" lon="18.27758">
        <ele>9.017323</ele>
        <time>2020-08-30T14:19:07.449Z</time>
      </trkpt>
      <trkpt lat="59.49309" lon="18.27753">
        <ele>9.051153</ele>
        <time>2020-08-30T14:19:08.565Z</time>
      </trkpt>
      <trkpt lat="59.49306" lon="18.27718">
        <ele>9.164589</ele>
        <time>2020-08-30T14:19:11.931Z</time>
      </trkpt>
      <trkpt lat="59.49156" lon="18.27533">
        <ele>10.508438</ele>
        <time>2020-08-30T14:19:49.213Z</time>
      </trkpt>
      <trkpt lat="59.49139" lon="18.27518">
        <ele>10.77273</ele>
        <time>2020-08-30T14:19:53.596Z</time>
      </trkpt>
      <trkpt lat="59.49061" lon="18.27489">
        <ele>11.928304</ele>
        <time>2020-08-30T14:20:12.045Z</time>
      </trkpt>
      <trkpt lat="59.49048" lon="18.27511">
        <ele>12.170086</ele>
        <time>2020-08-30T14:20:15.931Z</time>
      </trkpt>
      <trkpt lat="59.49043" lon="18.27512">
        <ele>12.249892</ele>
        <time>2020-08-30T14:20:17.359Z</time>
      </trkpt>
      <trkpt lat="59.49037" lon="18.27509">
        <ele>12.340014</ele>
        <time>2020-08-30T14:20:18.975Z</time>
      </trkpt>
      <trkpt lat="59.49022" lon="18.27599">
        <ele>13.063695</ele>
        <time>2020-08-30T14:20:30.519Z</time>
      </trkpt>
      <trkpt lat="59.49005" lon="18.27659">
        <ele>13.62456</ele>
        <time>2020-08-30T14:20:39.549Z</time>
      </trkpt>
      <trkpt lat="59.48977" lon="18.27695">
        <ele>14.167184</ele>
        <time>2020-08-30T14:20:48.227Z</time>
      </trkpt>
      <trkpt lat="59.48944" lon="18.27718">
        <ele>14.731525</ele>
        <time>2020-08-30T14:20:57.142Z</time>
      </trkpt>
      <trkpt lat="59.48897" lon="18.27731">
        <ele>15.483793</ele>
        <time>2020-08-30T14:21:08.128Z</time>
      </trkpt>
      <trkpt lat="59.48877" lon="18.27735">
        <ele>15.513797</ele>
        <time>2020-08-30T14:21:12.191Z</time>
      </trkpt>
      <trkpt lat="59.48868" lon="18.27738">
        <ele>15.449103</ele>
        <time>2020-08-30T14:21:13.839Z</time>
      </trkpt>
      <trkpt lat="59.48783" lon="18.27772">
        <ele>14.849347</ele>
        <time>2020-08-30T14:21:27.665Z</time>
      </trkpt>
      <trkpt lat="59.48759" lon="18.27794">
        <ele>14.670229</ele>
        <time>2020-08-30T14:21:31.943Z</time>
      </trkpt>
      <trkpt lat="59.48763" lon="18.27779">
        <ele>14.611172</ele>
        <time>2020-08-30T14:21:33.089Z</time>
      </trkpt>
      <trkpt lat="59.48763" lon="18.2776">
        <ele>14.544413</ele>
        <time>2020-08-30T14:21:34.974Z</time>
      </trkpt>
      <trkpt lat="59.48748" lon="18.27707">
        <ele>14.329111</ele>
        <time>2020-08-30T14:21:39.734Z</time>
      </trkpt>
      <trkpt lat="59.48737" lon="18.27673">
        <ele>14.16177</ele>
        <time>2020-08-30T14:21:43.473Z</time>
      </trkpt>
      <trkpt lat="59.48717" lon="18.27619">
        <ele>13.895881</ele>
        <time>2020-08-30T14:21:49.179Z</time>
      </trkpt>
      <trkpt lat="59.48686" lon="18.27596">
        <ele>13.6275</ele>
        <time>2020-08-30T14:21:54.550Z</time>
      </trkpt>
      <trkpt lat="59.48681" lon="18.2758">
        <ele>13.553235</ele>
        <time>2020-08-30T14:21:55.996Z</time>
      </trkpt>
      <trkpt lat="59.48676" lon="18.27556">
        <ele>13.446901</ele>
        <time>2020-08-30T14:21:57.972Z</time>
      </trkpt>
      <trkpt lat="59.4867" lon="18.27537">
        <ele>13.358719</ele>
        <time>2020-08-30T14:21:59.785Z</time>
      </trkpt>
      <trkpt lat="59.48654" lon="18.27523">
        <ele>13.215007</ele>
        <time>2020-08-30T14:22:02.876Z</time>
      </trkpt>
      <trkpt lat="59.48619" lon="18.27437">
        <ele>12.707553</ele>
        <time>2020-08-30T14:22:12.983Z</time>
      </trkpt>
      <trkpt lat="59.48592" lon="18.2739">
        <ele>12.299718</ele>
        <time>2020-08-30T14:22:19.493Z</time>
      </trkpt>
      <trkpt lat="59.48553" lon="18.27345">
        <ele>11.789729</ele>
        <time>2020-08-30T14:22:27.276Z</time>
      </trkpt>
      <trkpt lat="59.48449" lon="18.27278">
        <ele>10.958851</ele>
        <time>2020-08-30T14:22:43.045Z</time>
      </trkpt>
      <trkpt lat="59.48398" lon="18.27229">
        <ele>11.065626</ele>
        <time>2020-08-30T14:22:52.577Z</time>
      </trkpt>
      <trkpt lat="59.48391" lon="18.2722">
        <ele>11.081495</ele>
        <time>2020-08-30T14:22:53.947Z</time>
      </trkpt>
      <trkpt lat="59.4838" lon="18.27211">
        <ele>11.103414</ele>
        <time>2020-08-30T14:22:56.975Z</time>
      </trkpt>
      <trkpt lat="59.48368" lon="18.27205">
        <ele>11.12766</ele>
        <time>2020-08-30T14:23:00.212Z</time>
      </trkpt>
      <trkpt lat="59.48358" lon="18.27193">
        <ele>11.14913</ele>
        <time>2020-08-30T14:23:02.221Z</time>
      </trkpt>
      <trkpt lat="59.48275" lon="18.27075">
        <ele>12.537057</ele>
        <time>2020-08-30T14:23:28.235Z</time>
      </trkpt>
      <trkpt lat="59.48258" lon="18.27045">
        <ele>13.101268</ele>
        <time>2020-08-30T14:23:34.871Z</time>
      </trkpt>
      <trkpt lat="59.48252" lon="18.2704">
        <ele>13.247523</ele>
        <time>2020-08-30T14:23:36.612Z</time>
      </trkpt>
      <trkpt lat="59.48229" lon="18.26997">
        <ele>14.024625</ele>
        <time>2020-08-30T14:23:45.662Z</time>
      </trkpt>
      <trkpt lat="59.48212" lon="18.2693">
        <ele>14.939531</ele>
        <time>2020-08-30T14:23:55.839Z</time>
      </trkpt>
      <trkpt lat="59.48206" lon="18.26871">
        <ele>15.622066</ele>
        <time>2020-08-30T14:24:03.417Z</time>
      </trkpt>
      <trkpt lat="59.48209" lon="18.26736">
        <ele>16.114833</ele>
        <time>2020-08-30T14:24:18.027Z</time>
      </trkpt>
      <trkpt lat="59.48189" lon="18.26599">
        <ele>16.636628</ele>
        <time>2020-08-30T14:24:31.046Z</time>
      </trkpt>
      <trkpt lat="59.4816" lon="18.26492">
        <ele>17.267119</ele>
        <time>2020-08-30T14:24:42.566Z</time>
      </trkpt>
      <trkpt lat="59.48125" lon="18.26422">
        <ele>17.972356</ele>
        <time>2020-08-30T14:24:51.935Z</time>
      </trkpt>
      <trkpt lat="59.48094" lon="18.26362">
        <ele>18.5881</ele>
        <time>2020-08-30T14:25:01.747Z</time>
      </trkpt>
      <trkpt lat="59.48075" lon="18.26322">
        <ele>18.9864</ele>
        <time>2020-08-30T14:25:08.790Z</time>
      </trkpt>
      <trkpt lat="59.48014" lon="18.26233">
        <ele>20.845907</ele>
        <time>2020-08-30T14:25:29.422Z</time>
      </trkpt>
      <trkpt lat="59.48004" lon="18.2621">
        <ele>21.356498</ele>
        <time>2020-08-30T14:25:33.286Z</time>
      </trkpt>
      <trkpt lat="59.47989" lon="18.26194">
        <ele>21.923383</ele>
        <time>2020-08-30T14:25:39.546Z</time>
      </trkpt>
      <trkpt lat="59.47961" lon="18.26161">
        <ele>22.970756</ele>
        <time>2020-08-30T14:25:49.352Z</time>
      </trkpt>
      <trkpt lat="59.47916" lon="18.26087">
        <ele>24.889889</ele>
        <time>2020-08-30T14:26:05.600Z</time>
      </trkpt>
      <trkpt lat="59.47909" lon="18.26072">
        <ele>25.216336</ele>
        <time>2020-08-30T14:26:09.695Z</time>
      </trkpt>
      <trkpt lat="59.47848" lon="18.25953">
        <ele>26.273279</ele>
        <time>2020-08-30T14:26:30.292Z</time>
      </trkpt>
      <trkpt lat="59.47826" lon="18.25886">
        <ele>26.741887</ele>
        <time>2020-08-30T14:26:38.346Z</time>
      </trkpt>
      <trkpt lat="59.47822" lon="18.25855">
        <ele>26.929588</ele>
        <time>2020-08-30T14:26:42.245Z</time>
      </trkpt>
      <trkpt lat="59.47814" lon="18.25833">
        <ele>27.08308</ele>
        <time>2020-08-30T14:26:44.357Z</time>
      </trkpt>
      <trkpt lat="59.47811" lon="18.25824">
        <ele>27.148262</ele>
        <time>2020-08-30T14:26:45.224Z</time>
      </trkpt>
      <trkpt lat="59.47787" lon="18.25729">
        <ele>27.212138</ele>
        <time>2020-08-30T14:26:53.660Z</time>
      </trkpt>
      <trkpt lat="59.47769" lon="18.25635">
        <ele>26.940995</ele>
        <time>2020-08-30T14:27:01.775Z</time>
      </trkpt>
      <trkpt lat="59.47764" lon="18.25468">
        <ele>26.485491</ele>
        <time>2020-08-30T14:27:15.498Z</time>
      </trkpt>
      <trkpt lat="59.47767" lon="18.25447">
        <ele>26.429403</ele>
        <time>2020-08-30T14:27:17.393Z</time>
      </trkpt>
      <trkpt lat="59.47765" lon="18.25425">
        <ele>26.424223</ele>
        <time>2020-08-30T14:27:19.528Z</time>
      </trkpt>
      <trkpt lat="59.47762" lon="18.25405">
        <ele>26.419399</ele>
        <time>2020-08-30T14:27:21.362Z</time>
      </trkpt>
      <trkpt lat="59.47757" lon="18.25391">
        <ele>26.415256</ele>
        <time>2020-08-30T14:27:22.924Z</time>
      </trkpt>
      <trkpt lat="59.47749" lon="18.25391">
        <ele>26.411814</ele>
        <time>2020-08-30T14:27:24.337Z</time>
      </trkpt>
      <trkpt lat="59.47742" lon="18.25387">
        <ele>26.408343</ele>
        <time>2020-08-30T14:27:25.948Z</time>
      </trkpt>
      <trkpt lat="59.47737" lon="18.25398">
        <ele>26.40496</ele>
        <time>2020-08-30T14:27:27.505Z</time>
      </trkpt>
      <trkpt lat="59.47726" lon="18.25403">
        <ele>26.399439</ele>
        <time>2020-08-30T14:27:29.791Z</time>
      </trkpt>
      <trkpt lat="59.47629" lon="18.25375">
        <ele>26.354502</ele>
        <time>2020-08-30T14:27:48.155Z</time>
      </trkpt>
      <trkpt lat="59.47609" lon="18.25361">
        <ele>26.277946</ele>
        <time>2020-08-30T14:27:51.355Z</time>
      </trkpt>
      <trkpt lat="59.47599" lon="18.25355">
        <ele>26.143138</ele>
        <time>2020-08-30T14:27:53.108Z</time>
      </trkpt>
      <trkpt lat="59.47569" lon="18.25327">
        <ele>25.682698</ele>
        <time>2020-08-30T14:27:58.328Z</time>
      </trkpt>
      <trkpt lat="59.47481" lon="18.25245">
        <ele>24.371741</ele>
        <time>2020-08-30T14:28:12.536Z</time>
      </trkpt>
      <trkpt lat="59.47424" lon="18.25229">
        <ele>23.530026</ele>
        <time>2020-08-30T14:28:20.746Z</time>
      </trkpt>
      <trkpt lat="59.47385" lon="18.25237">
        <ele>22.891296</ele>
        <time>2020-08-30T14:28:26.183Z</time>
      </trkpt>
      <trkpt lat="59.47338" lon="18.25273">
        <ele>22.074567</ele>
        <time>2020-08-30T14:28:33.455Z</time>
      </trkpt>
      <trkpt lat="59.47147" lon="18.2554">
        <ele>18.720286</ele>
        <time>2020-08-30T14:29:09.407Z</time>
      </trkpt>
      <trkpt lat="59.47025" lon="18.25757">
        <ele>14.339258</ele>
        <time>2020-08-30T14:29:31.283Z</time>
      </trkpt>
      <trkpt lat="59.47021" lon="18.25794">
        <ele>13.807828</ele>
        <time>2020-08-30T14:29:33.685Z</time>
      </trkpt>
      <trkpt lat="59.47001" lon="18.25818">
        <ele>13.281872</ele>
        <time>2020-08-30T14:29:36.793Z</time>
      </trkpt>
      <trkpt lat="59.47" lon="18.25813">
        <ele>13.217578</ele>
        <time>2020-08-30T14:29:37.184Z</time>
      </trkpt>
      <trkpt lat="59.46989" lon="18.25807">
        <ele>12.99697</ele>
        <time>2020-08-30T14:29:38.622Z</time>
      </trkpt>
      <trkpt lat="59.46982" lon="18.25823">
        <ele>12.775085</ele>
        <time>2020-08-30T14:29:40.217Z</time>
      </trkpt>
      <trkpt lat="59.46982" lon="18.2583">
        <ele>12.709137</ele>
        <time>2020-08-30T14:29:40.660Z</time>
      </trkpt>
      <trkpt lat="59.46965" lon="18.25829">
        <ele>12.366973</ele>
        <time>2020-08-30T14:29:42.837Z</time>
      </trkpt>
      <trkpt lat="59.46944" lon="18.25841">
        <ele>11.921485</ele>
        <time>2020-08-30T14:29:45.970Z</time>
      </trkpt>
      <trkpt lat="59.46911" lon="18.25864">
        <ele>11.200021</ele>
        <time>2020-08-30T14:29:50.934Z</time>
      </trkpt>
      <trkpt lat="59.46894" lon="18.25884">
        <ele>10.799296</ele>
        <time>2020-08-30T14:29:53.640Z</time>
      </trkpt>
      <trkpt lat="59.46873" lon="18.25907">
        <ele>10.312468</ele>
        <time>2020-08-30T14:29:57.352Z</time>
      </trkpt>
      <trkpt lat="59.46855" lon="18.25914">
        <ele>9.94916</ele>
        <time>2020-08-30T14:30:00.454Z</time>
      </trkpt>
      <trkpt lat="59.46848" lon="18.2593">
        <ele>9.940184</ele>
        <time>2020-08-30T14:30:02.082Z</time>
      </trkpt>
      <trkpt lat="59.46832" lon="18.25933">
        <ele>9.925947</ele>
        <time>2020-08-30T14:30:04.824Z</time>
      </trkpt>
      <trkpt lat="59.46687" lon="18.26055">
        <ele>9.821913</ele>
        <time>2020-08-30T14:30:33.444Z</time>
      </trkpt>
      <trkpt lat="59.46612" lon="18.26127">
        <ele>10.354931</ele>
        <time>2020-08-30T14:30:48.887Z</time>
      </trkpt>
      <trkpt lat="59.46602" lon="18.26134">
        <ele>10.422418</ele>
        <time>2020-08-30T14:30:50.607Z</time>
      </trkpt>
      <trkpt lat="59.46584" lon="18.26145">
        <ele>10.541887</ele>
        <time>2020-08-30T14:30:54.639Z</time>
      </trkpt>
      <trkpt lat="59.46464" lon="18.26203">
        <ele>12.022152</ele>
        <time>2020-08-30T14:31:21.796Z</time>
      </trkpt>
      <trkpt lat="59.46377" lon="18.26241">
        <ele>13.617028</ele>
        <time>2020-08-30T14:31:44.096Z</time>
      </trkpt>
      <trkpt lat="59.46288" lon="18.26281">
        <ele>14.686259</ele>
        <time>2020-08-30T14:32:05.412Z</time>
      </trkpt>
      <trkpt lat="59.46216" lon="18.26356">
        <ele>15.403435</ele>
        <time>2020-08-30T14:32:21.796Z</time>
      </trkpt>
      <trkpt lat="59.462" lon="18.26396">
        <ele>15.630935</ele>
        <time>2020-08-30T14:32:26.478Z</time>
      </trkpt>
      <trkpt lat="59.46176" lon="18.26508">
        <ele>15.679136</ele>
        <time>2020-08-30T14:32:37.065Z</time>
      </trkpt>
      <trkpt lat="59.46153" lon="18.26539">
        <ele>15.656186</ele>
        <time>2020-08-30T14:32:41.657Z</time>
      </trkpt>
      <trkpt lat="59.46089" lon="18.26569">
        <ele>15.599919</ele>
        <time>2020-08-30T14:32:53.327Z</time>
      </trkpt>
      <trkpt lat="59.46072" lon="18.2659">
        <ele>15.582359</ele>
        <time>2020-08-30T14:32:57.060Z</time>
      </trkpt>
      <trkpt lat="59.45921" lon="18.26855">
        <ele>15.165371</ele>
        <time>2020-08-30T14:33:32.655Z</time>
      </trkpt>
      <trkpt lat="59.45798" lon="18.27025">
        <ele>13.977977</ele>
        <time>2020-08-30T14:33:55.729Z</time>
      </trkpt>
      <trkpt lat="59.45771" lon="18.27051">
        <ele>13.860468</ele>
        <time>2020-08-30T14:34:00.491Z</time>
      </trkpt>
      <trkpt lat="59.45762" lon="18.27055">
        <ele>13.925863</ele>
        <time>2020-08-30T14:34:01.796Z</time>
      </trkpt>
      <trkpt lat="59.45736" lon="18.27081">
        <ele>14.131384</ele>
        <time>2020-08-30T14:34:06.849Z</time>
      </trkpt>
      <trkpt lat="59.45569" lon="18.27236">
        <ele>16.932365</ele>
        <time>2020-08-30T14:34:46.994Z</time>
      </trkpt>
      <trkpt lat="59.45545" lon="18.27272">
        <ele>18.016648</ele>
        <time>2020-08-30T14:34:55.292Z</time>
      </trkpt>
      <trkpt lat="59.45522" lon="18.27293">
        <ele>18.960674</ele>
        <time>2020-08-30T14:35:03.407Z</time>
      </trkpt>
      <trkpt lat="59.45442" lon="18.27352">
        <ele>22.283871</ele>
        <time>2020-08-30T14:35:33.167Z</time>
      </trkpt>
      <trkpt lat="59.45392" lon="18.27376">
        <ele>24.999207</ele>
        <time>2020-08-30T14:35:51.566Z</time>
      </trkpt>
      <trkpt lat="59.45379" lon="18.27379">
        <ele>25.714653</ele>
        <time>2020-08-30T14:35:57.330Z</time>
      </trkpt>
      <trkpt lat="59.45328" lon="18.27373">
        <ele>28.446438</ele>
        <time>2020-08-30T14:36:15.144Z</time>
      </trkpt>
      <trkpt lat="59.4532" lon="18.27368">
        <ele>28.908761</ele>
        <time>2020-08-30T14:36:18.168Z</time>
      </trkpt>
      <trkpt lat="59.45297" lon="18.27353">
        <ele>30.199192</ele>
        <time>2020-08-30T14:36:26.582Z</time>
      </trkpt>
      <trkpt lat="59.45208" lon="18.27278">
        <ele>33.453149</ele>
        <time>2020-08-30T14:36:56.739Z</time>
      </trkpt>
      <trkpt lat="59.45147" lon="18.27198">
        <ele>35.57004</ele>
        <time>2020-08-30T14:37:15.157Z</time>
      </trkpt>
      <trkpt lat="59.45082" lon="18.27062">
        <ele>36.124811</ele>
        <time>2020-08-30T14:37:34.790Z</time>
      </trkpt>
      <trkpt lat="59.45001" lon="18.26918">
        <ele>35.664519</ele>
        <time>2020-08-30T14:37:51.523Z</time>
      </trkpt>
      <trkpt lat="59.44989" lon="18.26907">
        <ele>35.410018</ele>
        <time>2020-08-30T14:37:53.451Z</time>
      </trkpt>
      <trkpt lat="59.4498" lon="18.26898">
        <ele>35.122192</ele>
        <time>2020-08-30T14:37:54.984Z</time>
      </trkpt>
      <trkpt lat="59.44977" lon="18.26891">
        <ele>34.988907</ele>
        <time>2020-08-30T14:37:55.648Z</time>
      </trkpt>
      <trkpt lat="59.44974" lon="18.26884">
        <ele>34.853384</ele>
        <time>2020-08-30T14:37:56.181Z</time>
      </trkpt>
      <trkpt lat="59.44957" lon="18.26833">
        <ele>33.966798</ele>
        <time>2020-08-30T14:38:00.558Z</time>
      </trkpt>
      <trkpt lat="59.44785" lon="18.26558">
        <ele>27.803868</ele>
        <time>2020-08-30T14:38:29.296Z</time>
      </trkpt>
      <trkpt lat="59.44705" lon="18.26434">
        <ele>25.160184</ele>
        <time>2020-08-30T14:38:43.911Z</time>
      </trkpt>
      <trkpt lat="59.44624" lon="18.26309">
        <ele>22.850591</ele>
        <time>2020-08-30T14:38:58.407Z</time>
      </trkpt>
      <trkpt lat="59.44606" lon="18.2629">
        <ele>22.381475</ele>
        <time>2020-08-30T14:39:01.287Z</time>
      </trkpt>
      <trkpt lat="59.44601" lon="18.26284">
        <ele>22.249382</ele>
        <time>2020-08-30T14:39:01.975Z</time>
      </trkpt>
      <trkpt lat="59.44597" lon="18.26293">
        <ele>22.109975</ele>
        <time>2020-08-30T14:39:02.944Z</time>
      </trkpt>
      <trkpt lat="59.44588" lon="18.26314">
        <ele>21.8058</ele>
        <time>2020-08-30T14:39:05.029Z</time>
      </trkpt>
      <trkpt lat="59.44588" lon="18.26314">
        <ele>21.8058</ele>
        <time>2020-08-30T14:39:05.223Z</time>
      </trkpt>
      <trkpt lat="59.44588" lon="18.26314">
        <ele>21.8058</ele>
        <time>2020-08-30T14:39:05.257Z</time>
      </trkpt>
      <trkpt lat="59.44597" lon="18.26293">
        <ele>21.497544</ele>
        <time>2020-08-30T14:39:07.021Z</time>
      </trkpt>
      <trkpt lat="59.44601" lon="18.26284">
        <ele>21.353586</ele>
        <time>2020-08-30T14:39:07.829Z</time>
      </trkpt>
      <trkpt lat="59.44607" lon="18.26265">
        <ele>21.096862</ele>
        <time>2020-08-30T14:39:09.569Z</time>
      </trkpt>
      <trkpt lat="59.44545" lon="18.26168">
        <ele>19.26645</ele>
        <time>2020-08-30T14:39:20.092Z</time>
      </trkpt>
      <trkpt lat="59.44493" lon="18.26079">
        <ele>17.652893</ele>
        <time>2020-08-30T14:39:29.650Z</time>
      </trkpt>
      <trkpt lat="59.44462" lon="18.26005">
        <ele>18.085192</ele>
        <time>2020-08-30T14:39:36.956Z</time>
      </trkpt>
      <trkpt lat="59.44396" lon="18.25788">
        <ele>20.113713</ele>
        <time>2020-08-30T14:40:08.919Z</time>
      </trkpt>
      <trkpt lat="59.44377" lon="18.25711">
        <ele>21.339051</ele>
        <time>2020-08-30T14:40:23.335Z</time>
      </trkpt>
      <trkpt lat="59.44377" lon="18.2567">
        <ele>22.025978</ele>
        <time>2020-08-30T14:40:29.807Z</time>
      </trkpt>
      <trkpt lat="59.44382" lon="18.25651">
        <ele>22.380384</ele>
        <time>2020-08-30T14:40:34.112Z</time>
      </trkpt>
      <trkpt lat="59.44414" lon="18.2555">
        <ele>24.361561</ele>
        <time>2020-08-30T14:40:52.181Z</time>
      </trkpt>
      <trkpt lat="59.44429" lon="18.25491">
        <ele>25.475392</ele>
        <time>2020-08-30T14:41:01.399Z</time>
      </trkpt>
      <trkpt lat="59.44431" lon="18.25484">
        <ele>25.609521</ele>
        <time>2020-08-30T14:41:02.427Z</time>
      </trkpt>
      <trkpt lat="59.44445" lon="18.25393">
        <ele>25.94261</ele>
        <time>2020-08-30T14:41:13.781Z</time>
      </trkpt>
      <trkpt lat="59.44451" lon="18.2532">
        <ele>25.621007</ele>
        <time>2020-08-30T14:41:19.491Z</time>
      </trkpt>
      <trkpt lat="59.44469" lon="18.25119">
        <ele>24.732376</ele>
        <time>2020-08-30T14:41:33.492Z</time>
      </trkpt>
      <trkpt lat="59.44492" lon="18.24854">
        <ele>26.280583</ele>
        <time>2020-08-30T14:41:59.363Z</time>
      </trkpt>
      <trkpt lat="59.44497" lon="18.24792">
        <ele>26.680792</ele>
        <time>2020-08-30T14:42:09.046Z</time>
      </trkpt>
      <trkpt lat="59.44509" lon="18.24723">
        <ele>27.641812</ele>
        <time>2020-08-30T14:42:20.809Z</time>
      </trkpt>
      <trkpt lat="59.44534" lon="18.24632">
        <ele>29.783276</ele>
        <time>2020-08-30T14:42:38.499Z</time>
      </trkpt>
      <trkpt lat="59.44538" lon="18.24598">
        <ele>30.514461</ele>
        <time>2020-08-30T14:42:44.726Z</time>
      </trkpt>
      <trkpt lat="59.44537" lon="18.24533">
        <ele>31.873007</ele>
        <time>2020-08-30T14:42:56.479Z</time>
      </trkpt>
      <trkpt lat="59.44529" lon="18.24492">
        <ele>32.766209</ele>
        <time>2020-08-30T14:43:02.940Z</time>
      </trkpt>
      <trkpt lat="59.44504" lon="18.24434">
        <ele>34.304604</ele>
        <time>2020-08-30T14:43:13.268Z</time>
      </trkpt>
      <trkpt lat="59.44426" lon="18.24323">
        <ele>36.284858</ele>
        <time>2020-08-30T14:43:37.032Z</time>
      </trkpt>
      <trkpt lat="59.44405" lon="18.24278">
        <ele>36.921296</ele>
        <time>2020-08-30T14:43:44.283Z</time>
      </trkpt>
      <trkpt lat="59.444" lon="18.24244">
        <ele>37.291257</ele>
        <time>2020-08-30T14:43:48.467Z</time>
      </trkpt>
      <trkpt lat="59.44402" lon="18.24219">
        <ele>37.551361</ele>
        <time>2020-08-30T14:43:51.302Z</time>
      </trkpt>
      <trkpt lat="59.44423" lon="18.24173">
        <ele>38.12561</ele>
        <time>2020-08-30T14:43:58.431Z</time>
      </trkpt>
      <trkpt lat="59.44471" lon="18.24111">
        <ele>38.978573</ele>
        <time>2020-08-30T14:44:11.819Z</time>
      </trkpt>
      <trkpt lat="59.44706" lon="18.23797">
        <ele>42.589164</ele>
        <time>2020-08-30T14:45:15.199Z</time>
      </trkpt>
      <trkpt lat="59.44787" lon="18.23684">
        <ele>41.755023</ele>
        <time>2020-08-30T14:45:31.867Z</time>
      </trkpt>
      <trkpt lat="59.44815" lon="18.23629">
        <ele>41.374123</ele>
        <time>2020-08-30T14:45:37.919Z</time>
      </trkpt>
      <trkpt lat="59.45034" lon="18.23145">
        <ele>33.732236</ele>
        <time>2020-08-30T14:46:22.524Z</time>
      </trkpt>
      <trkpt lat="59.4505" lon="18.23087">
        <ele>32.878181</ele>
        <time>2020-08-30T14:46:26.852Z</time>
      </trkpt>
      <trkpt lat="59.45056" lon="18.2305">
        <ele>32.375701</ele>
        <time>2020-08-30T14:46:29.604Z</time>
      </trkpt>
      <trkpt lat="59.4506" lon="18.2302">
        <ele>31.978686</ele>
        <time>2020-08-30T14:46:31.522Z</time>
      </trkpt>
      <trkpt lat="59.4507" lon="18.21921">
        <ele>26.826904</ele>
        <time>2020-08-30T14:47:58.697Z</time>
      </trkpt>
      <trkpt lat="59.45065" lon="18.21795">
        <ele>27.73468</ele>
        <time>2020-08-30T14:48:13.669Z</time>
      </trkpt>
      <trkpt lat="59.45056" lon="18.21722">
        <ele>28.280665</ele>
        <time>2020-08-30T14:48:23.128Z</time>
      </trkpt>
      <trkpt lat="59.45052" lon="18.21703">
        <ele>28.42472</ele>
        <time>2020-08-30T14:48:25.760Z</time>
      </trkpt>
      <trkpt lat="59.45046" lon="18.21674">
        <ele>28.648696</ele>
        <time>2020-08-30T14:48:29.393Z</time>
      </trkpt>
      <trkpt lat="59.45044" lon="18.21664">
        <ele>28.724152</ele>
        <time>2020-08-30T14:48:30.681Z</time>
      </trkpt>
      <trkpt lat="59.45038" lon="18.21636">
        <ele>28.948543</ele>
        <time>2020-08-30T14:48:34.783Z</time>
      </trkpt>
      <trkpt lat="59.45028" lon="18.21608">
        <ele>29.194199</ele>
        <time>2020-08-30T14:48:38.731Z</time>
      </trkpt>
      <trkpt lat="59.45015" lon="18.21581">
        <ele>29.252387</ele>
        <time>2020-08-30T14:48:43.520Z</time>
      </trkpt>
      <trkpt lat="59.45026" lon="18.21554">
        <ele>29.28732</ele>
        <time>2020-08-30T14:48:47.356Z</time>
      </trkpt>
      <trkpt lat="59.45049" lon="18.21491">
        <ele>29.365462</ele>
        <time>2020-08-30T14:48:55.982Z</time>
      </trkpt>
      <trkpt lat="59.45105" lon="18.21306">
        <ele>29.521257</ele>
        <time>2020-08-30T14:49:13.806Z</time>
      </trkpt>
      <trkpt lat="59.45145" lon="18.2116">
        <ele>28.547287</ele>
        <time>2020-08-30T14:49:25.965Z</time>
      </trkpt>
      <trkpt lat="59.45164" lon="18.21091">
        <ele>28.086826</ele>
        <time>2020-08-30T14:49:31.734Z</time>
      </trkpt>
      <trkpt lat="59.45236" lon="18.20761">
        <ele>27.140763</ele>
        <time>2020-08-30T14:50:01.882Z</time>
      </trkpt>
      <trkpt lat="59.45283" lon="18.20497">
        <ele>26.602553</ele>
        <time>2020-08-30T14:50:28.839Z</time>
      </trkpt>
      <trkpt lat="59.45323" lon="18.20202">
        <ele>24.844494</ele>
        <time>2020-08-30T14:50:52.356Z</time>
      </trkpt>
      <trkpt lat="59.45339" lon="18.20053">
        <ele>23.288651</ele>
        <time>2020-08-30T14:51:02.915Z</time>
      </trkpt>
      <trkpt lat="59.4535" lon="18.19901">
        <ele>21.721621</ele>
        <time>2020-08-30T14:51:13.564Z</time>
      </trkpt>
      <trkpt lat="59.45355" lon="18.19711">
        <ele>19.779015</ele>
        <time>2020-08-30T14:51:27.194Z</time>
      </trkpt>
      <trkpt lat="59.45351" lon="18.19562">
        <ele>18.654842</ele>
        <time>2020-08-30T14:51:38.359Z</time>
      </trkpt>
      <trkpt lat="59.45349" lon="18.19485">
        <ele>18.299105</ele>
        <time>2020-08-30T14:51:44.251Z</time>
      </trkpt>
      <trkpt lat="59.45345" lon="18.19437">
        <ele>18.073149</ele>
        <time>2020-08-30T14:51:48.058Z</time>
      </trkpt>
      <trkpt lat="59.45337" lon="18.19321">
        <ele>17.530582</ele>
        <time>2020-08-30T14:51:57.553Z</time>
      </trkpt>
      <trkpt lat="59.45333" lon="18.19271">
        <ele>17.458429</ele>
        <time>2020-08-30T14:52:01.784Z</time>
      </trkpt>
      <trkpt lat="59.45318" lon="18.19163">
        <ele>18.491097</ele>
        <time>2020-08-30T14:52:12.861Z</time>
      </trkpt>
      <trkpt lat="59.45294" lon="18.18984">
        <ele>20.193687</ele>
        <time>2020-08-30T14:52:36.592Z</time>
      </trkpt>
      <trkpt lat="59.4528" lon="18.18853">
        <ele>22.451448</ele>
        <time>2020-08-30T14:52:57.168Z</time>
      </trkpt>
      <trkpt lat="59.45271" lon="18.18678">
        <ele>26.105766</ele>
        <time>2020-08-30T14:53:26.434Z</time>
      </trkpt>
      <trkpt lat="59.45271" lon="18.18512">
        <ele>28.810234</ele>
        <time>2020-08-30T14:53:52.391Z</time>
      </trkpt>
      <trkpt lat="59.45284" lon="18.18301">
        <ele>31.188466</ele>
        <time>2020-08-30T14:54:19.172Z</time>
      </trkpt>
      <trkpt lat="59.45315" lon="18.18075">
        <ele>31.625507</ele>
        <time>2020-08-30T14:54:41.383Z</time>
      </trkpt>
      <trkpt lat="59.45359" lon="18.17877">
        <ele>31.145632</ele>
        <time>2020-08-30T14:54:58.385Z</time>
      </trkpt>
      <trkpt lat="59.45393" lon="18.17761">
        <ele>30.4384</ele>
        <time>2020-08-30T14:55:08.540Z</time>
      </trkpt>
      <trkpt lat="59.45468" lon="18.17547">
        <ele>29.529968</ele>
        <time>2020-08-30T14:55:29.013Z</time>
      </trkpt>
      <trkpt lat="59.45533" lon="18.17339">
        <ele>29.822185</ele>
        <time>2020-08-30T14:55:51.549Z</time>
      </trkpt>
      <trkpt lat="59.45576" lon="18.17156">
        <ele>32.360552</ele>
        <time>2020-08-30T14:56:17.410Z</time>
      </trkpt>
      <trkpt lat="59.45595" lon="18.17052">
        <ele>34.040931</ele>
        <time>2020-08-30T14:56:34.055Z</time>
      </trkpt>
      <trkpt lat="59.45604" lon="18.16993">
        <ele>34.972754</ele>
        <time>2020-08-30T14:56:43.718Z</time>
      </trkpt>
      <trkpt lat="59.45613" lon="18.16925">
        <ele>36.250335</ele>
        <time>2020-08-30T14:56:54.993Z</time>
      </trkpt>
      <trkpt lat="59.45633" lon="18.1673">
        <ele>40.040831</ele>
        <time>2020-08-30T14:57:26.979Z</time>
      </trkpt>
      <trkpt lat="59.4564" lon="18.16553">
        <ele>42.462951</ele>
        <time>2020-08-30T14:57:51.371Z</time>
      </trkpt>
      <trkpt lat="59.45634" lon="18.16318">
        <ele>43.888551</ele>
        <time>2020-08-30T14:58:16.625Z</time>
      </trkpt>
      <trkpt lat="59.45626" lon="18.16202">
        <ele>43.501728</ele>
        <time>2020-08-30T14:58:26.736Z</time>
      </trkpt>
      <trkpt lat="59.456" lon="18.15996">
        <ele>41.580265</ele>
        <time>2020-08-30T14:58:42.455Z</time>
      </trkpt>
      <trkpt lat="59.45539" lon="18.15666">
        <ele>35.052929</ele>
        <time>2020-08-30T14:59:04.884Z</time>
      </trkpt>
      <trkpt lat="59.45516" lon="18.15537">
        <ele>32.059848</ele>
        <time>2020-08-30T14:59:13.385Z</time>
      </trkpt>
      <trkpt lat="59.45507" lon="18.15482">
        <ele>30.722978</ele>
        <time>2020-08-30T14:59:16.975Z</time>
      </trkpt>
      <trkpt lat="59.4549" lon="18.15351">
        <ele>27.567813</ele>
        <time>2020-08-30T14:59:25.398Z</time>
      </trkpt>
      <trkpt lat="59.45481" lon="18.15278">
        <ele>25.829886</ele>
        <time>2020-08-30T14:59:30.068Z</time>
      </trkpt>
      <trkpt lat="59.45474" lon="18.15211">
        <ele>24.56221</ele>
        <time>2020-08-30T14:59:34.478Z</time>
      </trkpt>
      <trkpt lat="59.45468" lon="18.1512">
        <ele>23.051321</ele>
        <time>2020-08-30T14:59:40.557Z</time>
      </trkpt>
      <trkpt lat="59.4546" lon="18.14999">
        <ele>21.033841</ele>
        <time>2020-08-30T14:59:48.675Z</time>
      </trkpt>
      <trkpt lat="59.45455" lon="18.14848">
        <ele>18.813642</ele>
        <time>2020-08-30T14:59:58.945Z</time>
      </trkpt>
      <trkpt lat="59.45457" lon="18.14578">
        <ele>15.642876</ele>
        <time>2020-08-30T15:00:18.193Z</time>
      </trkpt>
      <trkpt lat="59.45477" lon="18.14251">
        <ele>11.78423</ele>
        <time>2020-08-30T15:00:41.182Z</time>
      </trkpt>
      <trkpt lat="59.45505" lon="18.13996">
        <ele>9.784193</ele>
        <time>2020-08-30T15:00:59.888Z</time>
      </trkpt>
      <trkpt lat="59.45519" lon="18.13908">
        <ele>9.170807</ele>
        <time>2020-08-30T15:01:07.257Z</time>
      </trkpt>
      <trkpt lat="59.45534" lon="18.13846">
        <ele>9.045696</ele>
        <time>2020-08-30T15:01:13.527Z</time>
      </trkpt>
      <trkpt lat="59.45541" lon="18.13819">
        <ele>9.388931</ele>
        <time>2020-08-30T15:01:16.656Z</time>
      </trkpt>
      <trkpt lat="59.45551" lon="18.13778">
        <ele>9.922537</ele>
        <time>2020-08-30T15:01:21.385Z</time>
      </trkpt>
      <trkpt lat="59.45562" lon="18.13733">
        <ele>10.492119</ele>
        <time>2020-08-30T15:01:27.359Z</time>
      </trkpt>
      <trkpt lat="59.45566" lon="18.13723">
        <ele>10.651359</ele>
        <time>2020-08-30T15:01:28.969Z</time>
      </trkpt>
      <trkpt lat="59.45569" lon="18.13722">
        <ele>10.710955</ele>
        <time>2020-08-30T15:01:29.613Z</time>
      </trkpt>
      <trkpt lat="59.45573" lon="18.1372">
        <ele>10.807808</ele>
        <time>2020-08-30T15:01:30.678Z</time>
      </trkpt>
      <trkpt lat="59.45578" lon="18.13709">
        <ele>10.975361</ele>
        <time>2020-08-30T15:01:32.761Z</time>
      </trkpt>
      <trkpt lat="59.45581" lon="18.13673">
        <ele>11.399065</ele>
        <time>2020-08-30T15:01:37.643Z</time>
      </trkpt>
      <trkpt lat="59.45588" lon="18.13645">
        <ele>11.75924</ele>
        <time>2020-08-30T15:01:42.563Z</time>
      </trkpt>
      <trkpt lat="59.45617" lon="18.13556">
        <ele>13.023573</ele>
        <time>2020-08-30T15:01:58.222Z</time>
      </trkpt>
      <trkpt lat="59.45636" lon="18.13502">
        <ele>14.25739</ele>
        <time>2020-08-30T15:02:08.534Z</time>
      </trkpt>
      <trkpt lat="59.4566" lon="18.13448">
        <ele>15.623388</ele>
        <time>2020-08-30T15:02:20.111Z</time>
      </trkpt>
      <trkpt lat="59.45665" lon="18.13437">
        <ele>15.888977</ele>
        <time>2020-08-30T15:02:22.973Z</time>
      </trkpt>
      <trkpt lat="59.45676" lon="18.13413">
        <ele>16.507822</ele>
        <time>2020-08-30T15:02:27.941Z</time>
      </trkpt>
      <trkpt lat="59.45767" lon="18.13265">
        <ele>20.072912</ele>
        <time>2020-08-30T15:03:01.633Z</time>
      </trkpt>
      <trkpt lat="59.4582" lon="18.13211">
        <ele>20.854198</ele>
        <time>2020-08-30T15:03:16.211Z</time>
      </trkpt>
      <trkpt lat="59.45976" lon="18.13129">
        <ele>22.170443</ele>
        <time>2020-08-30T15:03:44.455Z</time>
      </trkpt>
      <trkpt lat="59.46" lon="18.13114">
        <ele>22.229559</ele>
        <time>2020-08-30T15:03:49.156Z</time>
      </trkpt>
      <trkpt lat="59.46003" lon="18.13122">
        <ele>22.241116</ele>
        <time>2020-08-30T15:03:49.817Z</time>
      </trkpt>
      <trkpt lat="59.46022" lon="18.13109">
        <ele>22.286716</ele>
        <time>2020-08-30T15:03:54.335Z</time>
      </trkpt>
      <trkpt lat="59.46031" lon="18.13115">
        <ele>22.309338</ele>
        <time>2020-08-30T15:03:56.365Z</time>
      </trkpt>
      <trkpt lat="59.46053" lon="18.13109">
        <ele>22.360665</ele>
        <time>2020-08-30T15:04:01.200Z</time>
      </trkpt>
      <trkpt lat="59.46065" lon="18.13101">
        <ele>22.389838</ele>
        <time>2020-08-30T15:04:04.247Z</time>
      </trkpt>
      <trkpt lat="59.46069" lon="18.13082">
        <ele>22.41509</ele>
        <time>2020-08-30T15:04:05.795Z</time>
      </trkpt>
      <trkpt lat="59.46061" lon="18.13061">
        <ele>22.466989</ele>
        <time>2020-08-30T15:04:09.140Z</time>
      </trkpt>
      <trkpt lat="59.46051" lon="18.13014">
        <ele>22.567482</ele>
        <time>2020-08-30T15:04:13.845Z</time>
      </trkpt>
      <trkpt lat="59.46041" lon="18.12969">
        <ele>22.662447</ele>
        <time>2020-08-30T15:04:19.604Z</time>
      </trkpt>
      <trkpt lat="59.4603" lon="18.12947">
        <ele>22.724546</ele>
        <time>2020-08-30T15:04:22.100Z</time>
      </trkpt>
      <trkpt lat="59.4602" lon="18.1294">
        <ele>22.764651</ele>
        <time>2020-08-30T15:04:24.827Z</time>
      </trkpt>
      <trkpt lat="59.45999" lon="18.12942">
        <ele>22.847573</ele>
        <time>2020-08-30T15:04:28.714Z</time>
      </trkpt>
      <trkpt lat="59.45974" lon="18.12949">
        <ele>22.941825</ele>
        <time>2020-08-30T15:04:33.968Z</time>
      </trkpt>
      <trkpt lat="59.45965" lon="18.12953">
        <ele>22.977012</ele>
        <time>2020-08-30T15:04:35.228Z</time>
      </trkpt>
      <trkpt lat="59.45953" lon="18.12955">
        <ele>23.02395</ele>
        <time>2020-08-30T15:04:38.157Z</time>
      </trkpt>
      <trkpt lat="59.45925" lon="18.12938">
        <ele>23.082029</ele>
        <time>2020-08-30T15:04:43.806Z</time>
      </trkpt>
      <trkpt lat="59.4588" lon="18.12939">
        <ele>22.966217</ele>
        <time>2020-08-30T15:04:52.694Z</time>
      </trkpt>
      <trkpt lat="59.45865" lon="18.1294">
        <ele>22.925565</ele>
        <time>2020-08-30T15:04:55.248Z</time>
      </trkpt>
      <trkpt lat="59.4584" lon="18.12961">
        <ele>22.856574</ele>
        <time>2020-08-30T15:04:59.730Z</time>
      </trkpt>
      <trkpt lat="59.45833" lon="18.12975">
        <ele>22.829101</ele>
        <time>2020-08-30T15:05:01.147Z</time>
      </trkpt>
      <trkpt lat="59.45829" lon="18.12962">
        <ele>22.809816</ele>
        <time>2020-08-30T15:05:02.228Z</time>
      </trkpt>
      <trkpt lat="59.45821" lon="18.12955">
        <ele>22.787574</ele>
        <time>2020-08-30T15:05:03.554Z</time>
      </trkpt>
      <trkpt lat="59.45792" lon="18.1296">
        <ele>22.71283</ele>
        <time>2020-08-30T15:05:08.228Z</time>
      </trkpt>
      <trkpt lat="59.45658" lon="18.12972">
        <ele>24.795892</ele>
        <time>2020-08-30T15:05:38.682Z</time>
      </trkpt>
      <trkpt lat="59.45651" lon="18.12972">
        <ele>24.924705</ele>
        <time>2020-08-30T15:05:41.054Z</time>
      </trkpt>
      <trkpt lat="59.45649" lon="18.12967">
        <ele>24.994013</ele>
        <time>2020-08-30T15:05:42.652Z</time>
      </trkpt>
      <trkpt lat="59.45623" lon="18.12911">
        <ele>25.780341</ele>
        <time>2020-08-30T15:05:53.038Z</time>
      </trkpt>
      <trkpt lat="59.45612" lon="18.12892">
        <ele>26.080225</ele>
        <time>2020-08-30T15:05:56.385Z</time>
      </trkpt>
      <trkpt lat="59.45603" lon="18.12879">
        <ele>26.311372</ele>
        <time>2020-08-30T15:06:00.076Z</time>
      </trkpt>
      <trkpt lat="59.45592" lon="18.12861">
        <ele>26.663386</ele>
        <time>2020-08-30T15:06:04.458Z</time>
      </trkpt>
      <trkpt lat="59.45573" lon="18.12859">
        <ele>27.153421</ele>
        <time>2020-08-30T15:06:10.172Z</time>
      </trkpt>
      <trkpt lat="59.45562" lon="18.1287">
        <ele>27.454934</ele>
        <time>2020-08-30T15:06:14.631Z</time>
      </trkpt>
      <trkpt lat="59.45556" lon="18.12876">
        <ele>27.632119</ele>
        <time>2020-08-30T15:06:16.112Z</time>
      </trkpt>
      <trkpt lat="59.45522" lon="18.12948">
        <ele>28.882175</ele>
        <time>2020-08-30T15:06:31.700Z</time>
      </trkpt>
      <trkpt lat="59.45511" lon="18.12965">
        <ele>29.235277</ele>
        <time>2020-08-30T15:06:35.758Z</time>
      </trkpt>
      <trkpt lat="59.45454" lon="18.12962">
        <ele>30.659946</ele>
        <time>2020-08-30T15:06:49.980Z</time>
      </trkpt>
      <trkpt lat="59.4538" lon="18.12975">
        <ele>29.069655</ele>
        <time>2020-08-30T15:07:01.497Z</time>
      </trkpt>
      <trkpt lat="59.45358" lon="18.12927">
        <ele>28.222146</ele>
        <time>2020-08-30T15:07:06.058Z</time>
      </trkpt>
      <trkpt lat="59.45345" lon="18.12884">
        <ele>27.565348</ele>
        <time>2020-08-30T15:07:09.559Z</time>
      </trkpt>
      <trkpt lat="59.45336" lon="18.12859">
        <ele>27.150082</ele>
        <time>2020-08-30T15:07:11.566Z</time>
      </trkpt>
      <trkpt lat="59.45326" lon="18.12854">
        <ele>26.899117</ele>
        <time>2020-08-30T15:07:12.763Z</time>
      </trkpt>
      <trkpt lat="59.45312" lon="18.12848">
        <ele>26.516232</ele>
        <time>2020-08-30T15:07:15.024Z</time>
      </trkpt>
      <trkpt lat="59.45306" lon="18.12837">
        <ele>26.294773</ele>
        <time>2020-08-30T15:07:16.040Z</time>
      </trkpt>
      <trkpt lat="59.453" lon="18.12825">
        <ele>26.073306</ele>
        <time>2020-08-30T15:07:17.021Z</time>
      </trkpt>
      <trkpt lat="59.45285" lon="18.12805">
        <ele>25.579783</ele>
        <time>2020-08-30T15:07:19.643Z</time>
      </trkpt>
      <trkpt lat="59.4528" lon="18.12802">
        <ele>25.430979</ele>
        <time>2020-08-30T15:07:20.283Z</time>
      </trkpt>
      <trkpt lat="59.45283" lon="18.12777">
        <ele>25.071169</ele>
        <time>2020-08-30T15:07:21.807Z</time>
      </trkpt>
      <trkpt lat="59.45287" lon="18.12727">
        <ele>24.356066</ele>
        <time>2020-08-30T15:07:25.182Z</time>
      </trkpt>
      <trkpt lat="59.45218" lon="18.12523">
        <ele>21.639301</ele>
        <time>2020-08-30T15:07:42.871Z</time>
      </trkpt>
      <trkpt lat="59.45205" lon="18.12491">
        <ele>22.586681</ele>
        <time>2020-08-30T15:07:49.305Z</time>
      </trkpt>
      <trkpt lat="59.45196" lon="18.12477">
        <ele>23.110572</ele>
        <time>2020-08-30T15:07:53.550Z</time>
      </trkpt>
      <trkpt lat="59.45187" lon="18.12469">
        <ele>23.575268</ele>
        <time>2020-08-30T15:07:56.773Z</time>
      </trkpt>
      <trkpt lat="59.45159" lon="18.12468">
        <ele>24.874758</ele>
        <time>2020-08-30T15:08:06.768Z</time>
      </trkpt>
      <trkpt lat="59.45142" lon="18.12458">
        <ele>25.694498</ele>
        <time>2020-08-30T15:08:12.912Z</time>
      </trkpt>
      <trkpt lat="59.45104" lon="18.12437">
        <ele>27.479062</ele>
        <time>2020-08-30T15:08:27.473Z</time>
      </trkpt>
      <trkpt lat="59.45075" lon="18.1242">
        <ele>28.870829</ele>
        <time>2020-08-30T15:08:40.215Z</time>
      </trkpt>
      <trkpt lat="59.45078" lon="18.124">
        <ele>29.349459</ele>
        <time>2020-08-30T15:08:44.587Z</time>
      </trkpt>
      <trkpt lat="59.45089" lon="18.12322">
        <ele>31.444216</ele>
        <time>2020-08-30T15:09:02.499Z</time>
      </trkpt>
      <trkpt lat="59.45092" lon="18.12191">
        <ele>34.849801</ele>
        <time>2020-08-30T15:09:28.665Z</time>
      </trkpt>
      <trkpt lat="59.45089" lon="18.12184">
        <ele>35.08417</ele>
        <time>2020-08-30T15:09:30.778Z</time>
      </trkpt>
      <trkpt lat="59.45092" lon="18.1217">
        <ele>35.460244</ele>
        <time>2020-08-30T15:09:33.529Z</time>
      </trkpt>
      <trkpt lat="59.45091" lon="18.11977">
        <ele>38.426453</ele>
        <time>2020-08-30T15:10:04.145Z</time>
      </trkpt>
      <trkpt lat="59.45085" lon="18.11961">
        <ele>38.365585</ele>
        <time>2020-08-30T15:10:06.891Z</time>
      </trkpt>
      <trkpt lat="59.45069" lon="18.11946">
        <ele>38.25981</ele>
        <time>2020-08-30T15:10:11.102Z</time>
      </trkpt>
      <trkpt lat="59.45063" lon="18.11946">
        <ele>38.223219</ele>
        <time>2020-08-30T15:10:12.658Z</time>
      </trkpt>
      <trkpt lat="59.45033" lon="18.11946">
        <ele>38.047463</ele>
        <time>2020-08-30T15:10:19.484Z</time>
      </trkpt>
      <trkpt lat="59.44996" lon="18.11942">
        <ele>37.824532</ele>
        <time>2020-08-30T15:10:26.991Z</time>
      </trkpt>
      <trkpt lat="59.44989" lon="18.11938">
        <ele>37.780839</ele>
        <time>2020-08-30T15:10:28.412Z</time>
      </trkpt>
      <trkpt lat="59.44978" lon="18.11931">
        <ele>37.708636</ele>
        <time>2020-08-30T15:10:30.545Z</time>
      </trkpt>
      <trkpt lat="59.44965" lon="18.11932">
        <ele>37.631102</ele>
        <time>2020-08-30T15:10:32.260Z</time>
      </trkpt>
      <trkpt lat="59.44927" lon="18.11947">
        <ele>36.17161</ele>
        <time>2020-08-30T15:10:37.139Z</time>
      </trkpt>
      <trkpt lat="59.44846" lon="18.11977">
        <ele>31.906203</ele>
        <time>2020-08-30T15:10:46.977Z</time>
      </trkpt>
      <trkpt lat="59.44828" lon="18.11982">
        <ele>30.988301</ele>
        <time>2020-08-30T15:10:49.036Z</time>
      </trkpt>
      <trkpt lat="59.44795" lon="18.12003">
        <ele>29.197621</ele>
        <time>2020-08-30T15:10:53.134Z</time>
      </trkpt>
      <trkpt lat="59.44786" lon="18.12008">
        <ele>28.740311</ele>
        <time>2020-08-30T15:10:54.161Z</time>
      </trkpt>
      <trkpt lat="59.44738" lon="18.12016">
        <ele>27.106561</ele>
        <time>2020-08-30T15:11:00.116Z</time>
      </trkpt>
      <trkpt lat="59.44718" lon="18.12015">
        <ele>26.527808</ele>
        <time>2020-08-30T15:11:02.490Z</time>
      </trkpt>
      <trkpt lat="59.44717" lon="18.12001">
        <ele>26.314623</ele>
        <time>2020-08-30T15:11:03.421Z</time>
      </trkpt>
      <trkpt lat="59.44706" lon="18.11986">
        <ele>25.929271</ele>
        <time>2020-08-30T15:11:05.107Z</time>
      </trkpt>
      <trkpt lat="59.44698" lon="18.11959">
        <ele>25.457443</ele>
        <time>2020-08-30T15:11:07.089Z</time>
      </trkpt>
      <trkpt lat="59.44666" lon="18.11891">
        <ele>24.063006</ele>
        <time>2020-08-30T15:11:13.738Z</time>
      </trkpt>
      <trkpt lat="59.44621" lon="18.11821">
        <ele>23.127576</ele>
        <time>2020-08-30T15:11:23.267Z</time>
      </trkpt>
      <trkpt lat="59.44608" lon="18.11769">
        <ele>23.35017</ele>
        <time>2020-08-30T15:11:29.291Z</time>
      </trkpt>
      <trkpt lat="59.44607" lon="18.11732">
        <ele>23.493444</ele>
        <time>2020-08-30T15:11:33.143Z</time>
      </trkpt>
      <trkpt lat="59.44607" lon="18.11723">
        <ele>23.528091</ele>
        <time>2020-08-30T15:11:34.361Z</time>
      </trkpt>
      <trkpt lat="59.44606" lon="18.11715">
        <ele>23.559799</ele>
        <time>2020-08-30T15:11:35.176Z</time>
      </trkpt>
      <trkpt lat="59.44602" lon="18.11671">
        <ele>23.731871</ele>
        <time>2020-08-30T15:11:40.140Z</time>
      </trkpt>
      <trkpt lat="59.44598" lon="18.11629">
        <ele>23.898148</ele>
        <time>2020-08-30T15:11:45.009Z</time>
      </trkpt>
      <trkpt lat="59.44594" lon="18.11614">
        <ele>23.960443</ele>
        <time>2020-08-30T15:11:46.909Z</time>
      </trkpt>
      <trkpt lat="59.4459" lon="18.115">
        <ele>24.37888</ele>
        <time>2020-08-30T15:11:59.421Z</time>
      </trkpt>
      <trkpt lat="59.44592" lon="18.11445">
        <ele>24.518065</ele>
        <time>2020-08-30T15:12:05.523Z</time>
      </trkpt>
      <trkpt lat="59.44596" lon="18.11439">
        <ele>24.541098</ele>
        <time>2020-08-30T15:12:06.392Z</time>
      </trkpt>
      <trkpt lat="59.44597" lon="18.11426">
        <ele>24.572395</ele>
        <time>2020-08-30T15:12:07.739Z</time>
      </trkpt>
      <trkpt lat="59.44597" lon="18.11413">
        <ele>24.605936</ele>
        <time>2020-08-30T15:12:09.286Z</time>
      </trkpt>
      <trkpt lat="59.44593" lon="18.11389">
        <ele>24.66866</ele>
        <time>2020-08-30T15:12:11.728Z</time>
      </trkpt>
      <trkpt lat="59.44579" lon="18.11269">
        <ele>24.976745</ele>
        <time>2020-08-30T15:12:23.948Z</time>
      </trkpt>
      <trkpt lat="59.44574" lon="18.11248">
        <ele>25.033272</ele>
        <time>2020-08-30T15:12:25.985Z</time>
      </trkpt>
      <trkpt lat="59.44554" lon="18.112">
        <ele>25.189737</ele>
        <time>2020-08-30T15:12:31.849Z</time>
      </trkpt>
      <trkpt lat="59.44551" lon="18.1118">
        <ele>25.150673</ele>
        <time>2020-08-30T15:12:33.667Z</time>
      </trkpt>
      <trkpt lat="59.44552" lon="18.11161">
        <ele>25.006751</ele>
        <time>2020-08-30T15:12:35.560Z</time>
      </trkpt>
      <trkpt lat="59.44558" lon="18.11132">
        <ele>24.774023</ele>
        <time>2020-08-30T15:12:38.469Z</time>
      </trkpt>
      <trkpt lat="59.44586" lon="18.10883">
        <ele>22.879144</ele>
        <time>2020-08-30T15:12:57.413Z</time>
      </trkpt>
      <trkpt lat="59.44587" lon="18.10847">
        <ele>22.613282</ele>
        <time>2020-08-30T15:13:00.112Z</time>
      </trkpt>
      <trkpt lat="59.44586" lon="18.1084">
        <ele>22.526076</ele>
        <time>2020-08-30T15:13:00.504Z</time>
      </trkpt>
      <trkpt lat="59.44547" lon="18.10573">
        <ele>18.209795</ele>
        <time>2020-08-30T15:13:19.131Z</time>
      </trkpt>
      <trkpt lat="59.44547" lon="18.10563">
        <ele>18.055058</ele>
        <time>2020-08-30T15:13:19.680Z</time>
      </trkpt>
      <trkpt lat="59.44538" lon="18.10495">
        <ele>16.980949</ele>
        <time>2020-08-30T15:13:24.375Z</time>
      </trkpt>
      <trkpt lat="59.44531" lon="18.10499">
        <ele>16.768393</ele>
        <time>2020-08-30T15:13:25.561Z</time>
      </trkpt>
      <trkpt lat="59.44523" lon="18.10506">
        <ele>16.547572</ele>
        <time>2020-08-30T15:13:26.898Z</time>
      </trkpt>
      <trkpt lat="59.44514" lon="18.10548">
        <ele>15.93439</ele>
        <time>2020-08-30T15:13:29.945Z</time>
      </trkpt>
      <trkpt lat="59.44506" lon="18.10561">
        <ele>15.659582</ele>
        <time>2020-08-30T15:13:31.533Z</time>
      </trkpt>
      <trkpt lat="59.44498" lon="18.10566">
        <ele>15.433532</ele>
        <time>2020-08-30T15:13:32.698Z</time>
      </trkpt>
      <trkpt lat="59.44474" lon="18.10573">
        <ele>14.791438</ele>
        <time>2020-08-30T15:13:36.034Z</time>
      </trkpt>
      <trkpt lat="59.44464" lon="18.10573">
        <ele>14.523264</ele>
        <time>2020-08-30T15:13:37.440Z</time>
      </trkpt>
      <trkpt lat="59.44434" lon="18.10547">
        <ele>13.64244</ele>
        <time>2020-08-30T15:13:42.072Z</time>
      </trkpt>
      <trkpt lat="59.44431" lon="18.10539">
        <ele>13.503016</ele>
        <time>2020-08-30T15:13:42.726Z</time>
      </trkpt>
      <trkpt lat="59.44308" lon="18.10559">
        <ele>11.993871</ele>
        <time>2020-08-30T15:14:01.655Z</time>
      </trkpt>
      <trkpt lat="59.44262" lon="18.10575">
        <ele>11.802418</ele>
        <time>2020-08-30T15:14:09.526Z</time>
      </trkpt>
      <trkpt lat="59.44114" lon="18.10627">
        <ele>12.605057</ele>
        <time>2020-08-30T15:14:44.471Z</time>
      </trkpt>
      <trkpt lat="59.44085" lon="18.10633">
        <ele>12.918302</ele>
        <time>2020-08-30T15:14:51.897Z</time>
      </trkpt>
      <trkpt lat="59.44067" lon="18.10637">
        <ele>13.116274</ele>
        <time>2020-08-30T15:14:55.600Z</time>
      </trkpt>
      <trkpt lat="59.43985" lon="18.10612">
        <ele>13.03087</ele>
        <time>2020-08-30T15:15:11.294Z</time>
      </trkpt>
      <trkpt lat="59.43934" lon="18.10611">
        <ele>12.492358</ele>
        <time>2020-08-30T15:15:19.652Z</time>
      </trkpt>
      <trkpt lat="59.43927" lon="18.1062">
        <ele>12.405081</ele>
        <time>2020-08-30T15:15:20.716Z</time>
      </trkpt>
      <trkpt lat="59.43925" lon="18.10624">
        <ele>12.373913</ele>
        <time>2020-08-30T15:15:21.199Z</time>
      </trkpt>
      <trkpt lat="59.43917" lon="18.10642">
        <ele>12.240222</ele>
        <time>2020-08-30T15:15:23.313Z</time>
      </trkpt>
      <trkpt lat="59.43907" lon="18.1063">
        <ele>12.119781</ele>
        <time>2020-08-30T15:15:25.035Z</time>
      </trkpt>
      <trkpt lat="59.43905" lon="18.10618">
        <ele>12.053464</ele>
        <time>2020-08-30T15:15:25.835Z</time>
      </trkpt>
      <trkpt lat="59.43899" lon="18.10578">
        <ele>11.830018</ele>
        <time>2020-08-30T15:15:29.228Z</time>
      </trkpt>
      <trkpt lat="59.43876" lon="18.10531">
        <ele>11.600338</ele>
        <time>2020-08-30T15:15:34.247Z</time>
      </trkpt>
      <trkpt lat="59.43824" lon="18.10479">
        <ele>11.533083</ele>
        <time>2020-08-30T15:15:42.771Z</time>
      </trkpt>
      <trkpt lat="59.43815" lon="18.10462">
        <ele>11.518337</ele>
        <time>2020-08-30T15:15:44.963Z</time>
      </trkpt>
      <trkpt lat="59.43787" lon="18.10427">
        <ele>11.479927</ele>
        <time>2020-08-30T15:15:50.240Z</time>
      </trkpt>
      <trkpt lat="59.4377" lon="18.10393">
        <ele>11.451551</ele>
        <time>2020-08-30T15:15:55.268Z</time>
      </trkpt>
      <trkpt lat="59.43711" lon="18.10216">
        <ele>14.967106</ele>
        <time>2020-08-30T15:16:26.522Z</time>
      </trkpt>
      <trkpt lat="59.43715" lon="18.1021">
        <ele>15.240831</ele>
        <time>2020-08-30T15:16:28.315Z</time>
      </trkpt>
      <trkpt lat="59.43719" lon="18.10203">
        <ele>15.499221</ele>
        <time>2020-08-30T15:16:30.113Z</time>
      </trkpt>
      <trkpt lat="59.43714" lon="18.10187">
        <ele>15.983409</ele>
        <time>2020-08-30T15:16:33.208Z</time>
      </trkpt>
      <trkpt lat="59.43678" lon="18.10077">
        <ele>19.412922</ele>
        <time>2020-08-30T15:16:59.785Z</time>
      </trkpt>
      <trkpt lat="59.43655" lon="18.10019">
        <ele>21.412134</ele>
        <time>2020-08-30T15:17:15.522Z</time>
      </trkpt>
      <trkpt lat="59.43639" lon="18.09996">
        <ele>22.522885</ele>
        <time>2020-08-30T15:17:23.791Z</time>
      </trkpt>
      <trkpt lat="59.43621" lon="18.09977">
        <ele>23.717569</ele>
        <time>2020-08-30T15:17:32.646Z</time>
      </trkpt>
      <trkpt lat="59.43598" lon="18.09968">
        <ele>25.058994</ele>
        <time>2020-08-30T15:17:42.501Z</time>
      </trkpt>
      <trkpt lat="59.43577" lon="18.09964">
        <ele>26.271892</ele>
        <time>2020-08-30T15:17:51.288Z</time>
      </trkpt>
      <trkpt lat="59.43559" lon="18.09958">
        <ele>27.288599</ele>
        <time>2020-08-30T15:17:57.700Z</time>
      </trkpt>
      <trkpt lat="59.43541" lon="18.09951">
        <ele>28.355503</ele>
        <time>2020-08-30T15:18:04.358Z</time>
      </trkpt>
      <trkpt lat="59.43489" lon="18.09857">
        <ele>31.017612</ele>
        <time>2020-08-30T15:18:25.045Z</time>
      </trkpt>
      <trkpt lat="59.4347" lon="18.0984">
        <ele>31.085121</ele>
        <time>2020-08-30T15:18:30.403Z</time>
      </trkpt>
      <trkpt lat="59.43448" lon="18.09829">
        <ele>31.157013</ele>
        <time>2020-08-30T15:18:35.704Z</time>
      </trkpt>
      <trkpt lat="59.43407" lon="18.09841">
        <ele>31.290902</ele>
        <time>2020-08-30T15:18:43.079Z</time>
      </trkpt>
      <trkpt lat="59.43397" lon="18.09849">
        <ele>31.32741</ele>
        <time>2020-08-30T15:18:45.019Z</time>
      </trkpt>
      <trkpt lat="59.43384" lon="18.09854">
        <ele>31.369268</ele>
        <time>2020-08-30T15:18:47.067Z</time>
      </trkpt>
      <trkpt lat="59.43341" lon="18.09856">
        <ele>31.507055</ele>
        <time>2020-08-30T15:18:53.454Z</time>
      </trkpt>
      <trkpt lat="59.43314" lon="18.09847">
        <ele>30.756718</ele>
        <time>2020-08-30T15:18:57.525Z</time>
      </trkpt>
      <trkpt lat="59.43284" lon="18.0983">
        <ele>29.849549</ele>
        <time>2020-08-30T15:19:01.808Z</time>
      </trkpt>
      <trkpt lat="59.43241" lon="18.09801">
        <ele>28.478263</ele>
        <time>2020-08-30T15:19:08.206Z</time>
      </trkpt>
      <trkpt lat="59.43232" lon="18.09799">
        <ele>28.219149</ele>
        <time>2020-08-30T15:19:09.298Z</time>
      </trkpt>
      <trkpt lat="59.43127" lon="18.09795">
        <ele>25.314858</ele>
        <time>2020-08-30T15:19:23.447Z</time>
      </trkpt>
      <trkpt lat="59.43095" lon="18.09763">
        <ele>24.490328</ele>
        <time>2020-08-30T15:19:28.375Z</time>
      </trkpt>
      <trkpt lat="59.43085" lon="18.09741">
        <ele>24.136441</ele>
        <time>2020-08-30T15:19:30.576Z</time>
      </trkpt>
      <trkpt lat="59.43083" lon="18.09708">
        <ele>23.745644</ele>
        <time>2020-08-30T15:19:33.251Z</time>
      </trkpt>
      <trkpt lat="59.43086" lon="18.097">
        <ele>23.637369</ele>
        <time>2020-08-30T15:19:33.826Z</time>
      </trkpt>
      <trkpt lat="59.43082" lon="18.09696">
        <ele>23.538978</ele>
        <time>2020-08-30T15:19:34.510Z</time>
      </trkpt>
      <trkpt lat="59.43077" lon="18.09689">
        <ele>23.402385</ele>
        <time>2020-08-30T15:19:35.465Z</time>
      </trkpt>
      <trkpt lat="59.43074" lon="18.09684">
        <ele>23.302848</ele>
        <time>2020-08-30T15:19:36.158Z</time>
      </trkpt>
      <trkpt lat="59.43072" lon="18.09687">
        <ele>23.238744</ele>
        <time>2020-08-30T15:19:36.623Z</time>
      </trkpt>
      <trkpt lat="59.43056" lon="18.09696">
        <ele>22.855989</ele>
        <time>2020-08-30T15:19:39.207Z</time>
      </trkpt>
      <trkpt lat="59.43037" lon="18.09671">
        <ele>22.343673</ele>
        <time>2020-08-30T15:19:42.713Z</time>
      </trkpt>
      <trkpt lat="59.43003" lon="18.09615">
        <ele>21.548188</ele>
        <time>2020-08-30T15:19:49.749Z</time>
      </trkpt>
      <trkpt lat="59.42937" lon="18.09508">
        <ele>20.262001</ele>
        <time>2020-08-30T15:20:03.208Z</time>
      </trkpt>
      <trkpt lat="59.42826" lon="18.0932">
        <ele>17.535315</ele>
        <time>2020-08-30T15:20:25.157Z</time>
      </trkpt>
      <trkpt lat="59.42808" lon="18.09283">
        <ele>16.980992</ele>
        <time>2020-08-30T15:20:28.737Z</time>
      </trkpt>
      <trkpt lat="59.42781" lon="18.09199">
        <ele>15.883161</ele>
        <time>2020-08-30T15:20:35.973Z</time>
      </trkpt>
      <trkpt lat="59.42767" lon="18.09128">
        <ele>15.136834</ele>
        <time>2020-08-30T15:20:41.642Z</time>
      </trkpt>
      <trkpt lat="59.42717" lon="18.08898">
        <ele>13.108308</ele>
        <time>2020-08-30T15:21:01.139Z</time>
      </trkpt>
      <trkpt lat="59.42705" lon="18.08806">
        <ele>12.338264</ele>
        <time>2020-08-30T15:21:09.039Z</time>
      </trkpt>
      <trkpt lat="59.42691" lon="18.08573">
        <ele>10.417483</ele>
        <time>2020-08-30T15:21:27.419Z</time>
      </trkpt>
      <trkpt lat="59.4269" lon="18.08514">
        <ele>9.938195</ele>
        <time>2020-08-30T15:21:31.861Z</time>
      </trkpt>
      <trkpt lat="59.42694" lon="18.0849">
        <ele>9.72598</ele>
        <time>2020-08-30T15:21:33.985Z</time>
      </trkpt>
      <trkpt lat="59.42693" lon="18.08479">
        <ele>9.63154</ele>
        <time>2020-08-30T15:21:34.833Z</time>
      </trkpt>
      <trkpt lat="59.42691" lon="18.08471">
        <ele>9.571048</ele>
        <time>2020-08-30T15:21:35.377Z</time>
      </trkpt>
      <trkpt lat="59.42685" lon="18.08468">
        <ele>9.479843</ele>
        <time>2020-08-30T15:21:36.394Z</time>
      </trkpt>
      <trkpt lat="59.42656" lon="18.08278">
        <ele>8.051384</ele>
        <time>2020-08-30T15:21:51.442Z</time>
      </trkpt>
      <trkpt lat="59.42654" lon="18.08234">
        <ele>7.732768</ele>
        <time>2020-08-30T15:21:55.071Z</time>
      </trkpt>
      <trkpt lat="59.4263" lon="18.0807">
        <ele>7.737917</ele>
        <time>2020-08-30T15:22:09.493Z</time>
      </trkpt>
      <trkpt lat="59.42623" lon="18.08023">
        <ele>8.122817</ele>
        <time>2020-08-30T15:22:15.025Z</time>
      </trkpt>
      <trkpt lat="59.42596" lon="18.07872">
        <ele>9.368055</ele>
        <time>2020-08-30T15:22:35.461Z</time>
      </trkpt>
      <trkpt lat="59.42589" lon="18.0788">
        <ele>9.500233</ele>
        <time>2020-08-30T15:22:37.806Z</time>
      </trkpt>
      <trkpt lat="59.42585" lon="18.07873">
        <ele>9.576282</ele>
        <time>2020-08-30T15:22:39.161Z</time>
      </trkpt>
      <trkpt lat="59.42554" lon="18.07811">
        <ele>11.059284</ele>
        <time>2020-08-30T15:22:52.287Z</time>
      </trkpt>
      <trkpt lat="59.42533" lon="18.07785">
        <ele>12.221628</ele>
        <time>2020-08-30T15:23:00.022Z</time>
      </trkpt>
      <trkpt lat="59.42511" lon="18.0778">
        <ele>13.207636</ele>
        <time>2020-08-30T15:23:07.731Z</time>
      </trkpt>
      <trkpt lat="59.42466" lon="18.07791">
        <ele>15.292648</ele>
        <time>2020-08-30T15:23:23.384Z</time>
      </trkpt>
      <trkpt lat="59.4244" lon="18.07783">
        <ele>16.503948</ele>
        <time>2020-08-30T15:23:32.582Z</time>
      </trkpt>
      <trkpt lat="59.42427" lon="18.07767">
        <ele>17.186272</ele>
        <time>2020-08-30T15:23:37.820Z</time>
      </trkpt>
      <trkpt lat="59.42399" lon="18.07708">
        <ele>18.796889</ele>
        <time>2020-08-30T15:23:51.130Z</time>
      </trkpt>
      <trkpt lat="59.42385" lon="18.07677">
        <ele>19.478966</ele>
        <time>2020-08-30T15:23:58.137Z</time>
      </trkpt>
      <trkpt lat="59.42363" lon="18.07629">
        <ele>20.588043</ele>
        <time>2020-08-30T15:24:08.422Z</time>
      </trkpt>
      <trkpt lat="59.42358" lon="18.07635">
        <ele>20.790555</ele>
        <time>2020-08-30T15:24:10.548Z</time>
      </trkpt>
      <trkpt lat="59.42306" lon="18.07622">
        <ele>22.504779</ele>
        <time>2020-08-30T15:24:25.571Z</time>
      </trkpt>
      <trkpt lat="59.42283" lon="18.07618">
        <ele>23.257528</ele>
        <time>2020-08-30T15:24:32.108Z</time>
      </trkpt>
      <trkpt lat="59.42272" lon="18.07623">
        <ele>23.642789</ele>
        <time>2020-08-30T15:24:34.814Z</time>
      </trkpt>
      <trkpt lat="59.42251" lon="18.07674">
        <ele>23.925178</ele>
        <time>2020-08-30T15:24:46.200Z</time>
      </trkpt>
      <trkpt lat="59.42226" lon="18.07762">
        <ele>23.71027</ele>
        <time>2020-08-30T15:25:00.069Z</time>
      </trkpt>
      <trkpt lat="59.4221" lon="18.07799">
        <ele>23.607049</ele>
        <time>2020-08-30T15:25:07.062Z</time>
      </trkpt>
      <trkpt lat="59.42195" lon="18.07846">
        <ele>23.490148</ele>
        <time>2020-08-30T15:25:14.486Z</time>
      </trkpt>
      <trkpt lat="59.42176" lon="18.0789">
        <ele>23.366704</ele>
        <time>2020-08-30T15:25:22.297Z</time>
      </trkpt>
      <trkpt lat="59.42161" lon="18.07912">
        <ele>23.287662</ele>
        <time>2020-08-30T15:25:27.708Z</time>
      </trkpt>
      <trkpt lat="59.42154" lon="18.0792">
        <ele>23.238545</ele>
        <time>2020-08-30T15:25:29.515Z</time>
      </trkpt>
      <trkpt lat="59.42127" lon="18.0795">
        <ele>22.888498</ele>
        <time>2020-08-30T15:25:38.161Z</time>
      </trkpt>
      <trkpt lat="59.42099" lon="18.07979">
        <ele>22.5284</ele>
        <time>2020-08-30T15:25:46.751Z</time>
      </trkpt>
      <trkpt lat="59.42069" lon="18.08">
        <ele>22.173001</ele>
        <time>2020-08-30T15:25:54.885Z</time>
      </trkpt>
      <trkpt lat="59.42059" lon="18.0801">
        <ele>22.04543</ele>
        <time>2020-08-30T15:25:57.665Z</time>
      </trkpt>
      <trkpt lat="59.41993" lon="18.08067">
        <ele>21.23325</ele>
        <time>2020-08-30T15:26:17.071Z</time>
      </trkpt>
      <trkpt lat="59.41827" lon="18.08206">
        <ele>20.301358</ele>
        <time>2020-08-30T15:27:08.531Z</time>
      </trkpt>
      <trkpt lat="59.4181" lon="18.08218">
        <ele>20.207908</ele>
        <time>2020-08-30T15:27:13.706Z</time>
      </trkpt>
      <trkpt lat="59.41798" lon="18.08232">
        <ele>20.136878</ele>
        <time>2020-08-30T15:27:17.775Z</time>
      </trkpt>
      <trkpt lat="59.4175" lon="18.08273">
        <ele>19.871575</ele>
        <time>2020-08-30T15:27:26.327Z</time>
      </trkpt>
      <trkpt lat="59.41735" lon="18.08302">
        <ele>19.762712</ele>
        <time>2020-08-30T15:27:29.840Z</time>
      </trkpt>
      <trkpt lat="59.41682" lon="18.0837">
        <ele>19.440741</ele>
        <time>2020-08-30T15:27:40.153Z</time>
      </trkpt>
      <trkpt lat="59.41676" lon="18.08376">
        <ele>19.405146</ele>
        <time>2020-08-30T15:27:41.532Z</time>
      </trkpt>
      <trkpt lat="59.41656" lon="18.08393">
        <ele>19.202307</ele>
        <time>2020-08-30T15:27:44.963Z</time>
      </trkpt>
      <trkpt lat="59.41636" lon="18.0841">
        <ele>18.980431</ele>
        <time>2020-08-30T15:27:48.607Z</time>
      </trkpt>
      <trkpt lat="59.41618" lon="18.08421">
        <ele>18.793168</ele>
        <time>2020-08-30T15:27:51.408Z</time>
      </trkpt>
      <trkpt lat="59.41579" lon="18.08439">
        <ele>18.391909</ele>
        <time>2020-08-30T15:27:57.675Z</time>
      </trkpt>
      <trkpt lat="59.41538" lon="18.08435">
        <ele>17.984321</ele>
        <time>2020-08-30T15:28:03.908Z</time>
      </trkpt>
      <trkpt lat="59.41497" lon="18.08422">
        <ele>17.55772</ele>
        <time>2020-08-30T15:28:10.122Z</time>
      </trkpt>
      <trkpt lat="59.41474" lon="18.08422">
        <ele>17.260051</ele>
        <time>2020-08-30T15:28:13.375Z</time>
      </trkpt>
      <trkpt lat="59.41469" lon="18.08422">
        <ele>17.189784</ele>
        <time>2020-08-30T15:28:14.202Z</time>
      </trkpt>
      <trkpt lat="59.41467" lon="18.08446">
        <ele>17.029535</ele>
        <time>2020-08-30T15:28:16.086Z</time>
      </trkpt>
      <trkpt lat="59.41474" lon="18.08622">
        <ele>15.841906</ele>
        <time>2020-08-30T15:28:29.519Z</time>
      </trkpt>
      <trkpt lat="59.41464" lon="18.08671">
        <ele>15.492425</ele>
        <time>2020-08-30T15:28:33.459Z</time>
      </trkpt>
      <trkpt lat="59.41376" lon="18.08838">
        <ele>14.226562</ele>
        <time>2020-08-30T15:28:51.909Z</time>
      </trkpt>
      <trkpt lat="59.41349" lon="18.08888">
        <ele>13.872247</ele>
        <time>2020-08-30T15:28:57.617Z</time>
      </trkpt>
      <trkpt lat="59.41313" lon="18.08929">
        <ele>13.465652</ele>
        <time>2020-08-30T15:29:04.643Z</time>
      </trkpt>
      <trkpt lat="59.41249" lon="18.0897">
        <ele>14.084587</ele>
        <time>2020-08-30T15:29:16.606Z</time>
      </trkpt>
      <trkpt lat="59.41192" lon="18.08992">
        <ele>14.614433</ele>
        <time>2020-08-30T15:29:29.157Z</time>
      </trkpt>
      <trkpt lat="59.41168" lon="18.09016">
        <ele>14.859692</ele>
        <time>2020-08-30T15:29:35.509Z</time>
      </trkpt>
      <trkpt lat="59.41122" lon="18.09069">
        <ele>15.46113</ele>
        <time>2020-08-30T15:29:48.390Z</time>
      </trkpt>
      <trkpt lat="59.41075" lon="18.09104">
        <ele>16.114118</ele>
        <time>2020-08-30T15:30:01.091Z</time>
      </trkpt>
      <trkpt lat="59.40994" lon="18.09156">
        <ele>17.244886</ele>
        <time>2020-08-30T15:30:19.788Z</time>
      </trkpt>
      <trkpt lat="59.40938" lon="18.09208">
        <ele>16.704977</ele>
        <time>2020-08-30T15:30:30.752Z</time>
      </trkpt>
      <trkpt lat="59.40819" lon="18.0932">
        <ele>14.303856</ele>
        <time>2020-08-30T15:30:48.834Z</time>
      </trkpt>
      <trkpt lat="59.40779" lon="18.0936">
        <ele>13.231973</ele>
        <time>2020-08-30T15:30:54.592Z</time>
      </trkpt>
      <trkpt lat="59.40763" lon="18.09363">
        <ele>12.856518</ele>
        <time>2020-08-30T15:30:56.624Z</time>
      </trkpt>
      <trkpt lat="59.40747" lon="18.09365">
        <ele>12.464416</ele>
        <time>2020-08-30T15:30:58.638Z</time>
      </trkpt>
      <trkpt lat="59.40737" lon="18.09352">
        <ele>12.175824</ele>
        <time>2020-08-30T15:31:00.285Z</time>
      </trkpt>
      <trkpt lat="59.40727" lon="18.09339">
        <ele>11.861963</ele>
        <time>2020-08-30T15:31:01.874Z</time>
      </trkpt>
      <trkpt lat="59.40713" lon="18.09313">
        <ele>11.387303</ele>
        <time>2020-08-30T15:31:04.503Z</time>
      </trkpt>
      <trkpt lat="59.40701" lon="18.0927">
        <ele>10.784835</ele>
        <time>2020-08-30T15:31:07.788Z</time>
      </trkpt>
      <trkpt lat="59.40637" lon="18.09133">
        <ele>10.71205</ele>
        <time>2020-08-30T15:31:23.368Z</time>
      </trkpt>
      <trkpt lat="59.40632" lon="18.09126">
        <ele>10.810218</ele>
        <time>2020-08-30T15:31:24.372Z</time>
      </trkpt>
      <trkpt lat="59.40618" lon="18.09107">
        <ele>11.087717</ele>
        <time>2020-08-30T15:31:28.538Z</time>
      </trkpt>
      <trkpt lat="59.40612" lon="18.09105">
        <ele>11.187414</ele>
        <time>2020-08-30T15:31:30.098Z</time>
      </trkpt>
      <trkpt lat="59.40596" lon="18.09107">
        <ele>11.438891</ele>
        <time>2020-08-30T15:31:34.113Z</time>
      </trkpt>
      <trkpt lat="59.40572" lon="18.09116">
        <ele>11.839407</ele>
        <time>2020-08-30T15:31:40.881Z</time>
      </trkpt>
      <trkpt lat="59.40549" lon="18.09143">
        <ele>12.27328</ele>
        <time>2020-08-30T15:31:48.571Z</time>
      </trkpt>
      <trkpt lat="59.40524" lon="18.09202">
        <ele>12.96932</ele>
        <time>2020-08-30T15:32:00.167Z</time>
      </trkpt>
      <trkpt lat="59.40513" lon="18.09229">
        <ele>13.373885</ele>
        <time>2020-08-30T15:32:05.617Z</time>
      </trkpt>
      <trkpt lat="59.40473" lon="18.09372">
        <ele>15.23505</ele>
        <time>2020-08-30T15:32:28.883Z</time>
      </trkpt>
      <trkpt lat="59.40459" lon="18.09398">
        <ele>15.672958</ele>
        <time>2020-08-30T15:32:34.181Z</time>
      </trkpt>
      <trkpt lat="59.40437" lon="18.09448">
        <ele>16.43481</ele>
        <time>2020-08-30T15:32:42.146Z</time>
      </trkpt>
      <trkpt lat="59.40388" lon="18.09525">
        <ele>15.900645</ele>
        <time>2020-08-30T15:32:52.849Z</time>
      </trkpt>
      <trkpt lat="59.40342" lon="18.09569">
        <ele>14.97521</ele>
        <time>2020-08-30T15:33:00.346Z</time>
      </trkpt>
      <trkpt lat="59.40297" lon="18.09591">
        <ele>14.126219</ele>
        <time>2020-08-30T15:33:06.822Z</time>
      </trkpt>
      <trkpt lat="59.40241" lon="18.0958">
        <ele>13.008249</ele>
        <time>2020-08-30T15:33:14.537Z</time>
      </trkpt>
      <trkpt lat="59.40208" lon="18.0957">
        <ele>12.220347</ele>
        <time>2020-08-30T15:33:19.333Z</time>
      </trkpt>
      <trkpt lat="59.40196" lon="18.09574">
        <ele>11.939948</ele>
        <time>2020-08-30T15:33:21.055Z</time>
      </trkpt>
      <trkpt lat="59.40114" lon="18.097">
        <ele>9.530084</ele>
        <time>2020-08-30T15:33:35.995Z</time>
      </trkpt>
      <trkpt lat="59.40054" lon="18.09778">
        <ele>8.937701</ele>
        <time>2020-08-30T15:33:47.645Z</time>
      </trkpt>
      <trkpt lat="59.40048" lon="18.09784">
        <ele>8.894264</ele>
        <time>2020-08-30T15:33:48.618Z</time>
      </trkpt>
      <trkpt lat="59.40026" lon="18.09791">
        <ele>8.76131</ele>
        <time>2020-08-30T15:33:53.071Z</time>
      </trkpt>
      <trkpt lat="59.39932" lon="18.09733">
        <ele>8.209192</ele>
        <time>2020-08-30T15:34:10.926Z</time>
      </trkpt>
      <trkpt lat="59.39896" lon="18.0973">
        <ele>8.143696</ele>
        <time>2020-08-30T15:34:17.959Z</time>
      </trkpt>
      <trkpt lat="59.39813" lon="18.09749">
        <ele>7.995166</ele>
        <time>2020-08-30T15:34:33.351Z</time>
      </trkpt>
      <trkpt lat="59.39769" lon="18.09792">
        <ele>7.906944</ele>
        <time>2020-08-30T15:34:41.768Z</time>
      </trkpt>
      <trkpt lat="59.39749" lon="18.09794">
        <ele>7.853248</ele>
        <time>2020-08-30T15:34:45.085Z</time>
      </trkpt>
      <trkpt lat="59.39695" lon="18.09784">
        <ele>7.703501</ele>
        <time>2020-08-30T15:34:54.503Z</time>
      </trkpt>
      <trkpt lat="59.39681" lon="18.09781">
        <ele>7.666436</ele>
        <time>2020-08-30T15:34:56.735Z</time>
      </trkpt>
      <trkpt lat="59.39672" lon="18.09774">
        <ele>7.639785</ele>
        <time>2020-08-30T15:34:58.544Z</time>
      </trkpt>
      <trkpt lat="59.39649" lon="18.09724">
        <ele>7.546008</ele>
        <time>2020-08-30T15:35:04.593Z</time>
      </trkpt>
      <trkpt lat="59.39641" lon="18.09683">
        <ele>7.485044</ele>
        <time>2020-08-30T15:35:08.620Z</time>
      </trkpt>
      <trkpt lat="59.39641" lon="18.09672">
        <ele>7.469896</ele>
        <time>2020-08-30T15:35:09.751Z</time>
      </trkpt>
      <trkpt lat="59.39639" lon="18.09619">
        <ele>7.476663</ele>
        <time>2020-08-30T15:35:14.793Z</time>
      </trkpt>
      <trkpt lat="59.39639" lon="18.09553">
        <ele>7.74327</ele>
        <time>2020-08-30T15:35:21.381Z</time>
      </trkpt>
      <trkpt lat="59.39626" lon="18.09412">
        <ele>8.327751</ele>
        <time>2020-08-30T15:35:37.573Z</time>
      </trkpt>
      <trkpt lat="59.39623" lon="18.0939">
        <ele>8.419199</ele>
        <time>2020-08-30T15:35:40.289Z</time>
      </trkpt>
      <trkpt lat="59.39618" lon="18.09381">
        <ele>8.471753</ele>
        <time>2020-08-30T15:35:41.691Z</time>
      </trkpt>
      <trkpt lat="59.39605" lon="18.09362">
        <ele>8.598935</ele>
        <time>2020-08-30T15:35:45.283Z</time>
      </trkpt>
      <trkpt lat="59.3959" lon="18.09346">
        <ele>8.737523</ele>
        <time>2020-08-30T15:35:49.025Z</time>
      </trkpt>
      <trkpt lat="59.39582" lon="18.09338">
        <ele>8.809962</ele>
        <time>2020-08-30T15:35:50.958Z</time>
      </trkpt>
      <trkpt lat="59.39559" lon="18.09319">
        <ele>8.89283</ele>
        <time>2020-08-30T15:35:56.269Z</time>
      </trkpt>
      <trkpt lat="59.3954" lon="18.09308">
        <ele>8.931503</ele>
        <time>2020-08-30T15:36:00.380Z</time>
      </trkpt>
      <trkpt lat="59.39517" lon="18.09306">
        <ele>8.976873</ele>
        <time>2020-08-30T15:36:05.253Z</time>
      </trkpt>
      <trkpt lat="59.39501" lon="18.09315">
        <ele>9.008635</ele>
        <time>2020-08-30T15:36:08.550Z</time>
      </trkpt>
      <trkpt lat="59.39418" lon="18.09409">
        <ele>9.193308</ele>
        <time>2020-08-30T15:36:26.142Z</time>
      </trkpt>
      <trkpt lat="59.3941" lon="18.09416">
        <ele>9.183109</ele>
        <time>2020-08-30T15:36:27.396Z</time>
      </trkpt>
      <trkpt lat="59.39398" lon="18.0942">
        <ele>9.103777</ele>
        <time>2020-08-30T15:36:29.590Z</time>
      </trkpt>
      <trkpt lat="59.39389" lon="18.09413">
        <ele>9.045825</ele>
        <time>2020-08-30T15:36:31.164Z</time>
      </trkpt>
      <trkpt lat="59.39363" lon="18.09349">
        <ele>8.789924</ele>
        <time>2020-08-30T15:36:38.017Z</time>
      </trkpt>
      <trkpt lat="59.39349" lon="18.09308">
        <ele>8.634545</ele>
        <time>2020-08-30T15:36:42.206Z</time>
      </trkpt>
      <trkpt lat="59.39334" lon="18.09308">
        <ele>8.542072</ele>
        <time>2020-08-30T15:36:44.601Z</time>
      </trkpt>
      <trkpt lat="59.39306" lon="18.09298">
        <ele>8.364114</ele>
        <time>2020-08-30T15:36:49.536Z</time>
      </trkpt>
      <trkpt lat="59.39293" lon="18.09281">
        <ele>8.270218</ele>
        <time>2020-08-30T15:36:51.961Z</time>
      </trkpt>
      <trkpt lat="59.39278" lon="18.09256">
        <ele>8.148168</ele>
        <time>2020-08-30T15:36:55.584Z</time>
      </trkpt>
      <trkpt lat="59.39274" lon="18.09251">
        <ele>8.122766</ele>
        <time>2020-08-30T15:36:56.359Z</time>
      </trkpt>
      <trkpt lat="59.39236" lon="18.09177">
        <ele>7.901217</ele>
        <time>2020-08-30T15:37:05.849Z</time>
      </trkpt>
      <trkpt lat="59.39189" lon="18.09156">
        <ele>7.711728</ele>
        <time>2020-08-30T15:37:14.388Z</time>
      </trkpt>
      <trkpt lat="59.39172" lon="18.0913">
        <ele>7.628556</ele>
        <time>2020-08-30T15:37:18.182Z</time>
      </trkpt>
      <trkpt lat="59.3916" lon="18.0906">
        <ele>7.480167</ele>
        <time>2020-08-30T15:37:25.039Z</time>
      </trkpt>
      <trkpt lat="59.39153" lon="18.09058">
        <ele>7.452874</ele>
        <time>2020-08-30T15:37:26.173Z</time>
      </trkpt>
      <trkpt lat="59.39111" lon="18.09039">
        <ele>7.091501</ele>
        <time>2020-08-30T15:37:33.597Z</time>
      </trkpt>
      <trkpt lat="59.39075" lon="18.08998">
        <ele>6.630079</ele>
        <time>2020-08-30T15:37:40.549Z</time>
      </trkpt>
      <trkpt lat="59.39067" lon="18.08981">
        <ele>6.504267</ele>
        <time>2020-08-30T15:37:42.413Z</time>
      </trkpt>
      <trkpt lat="59.39063" lon="18.08972">
        <ele>6.441353</ele>
        <time>2020-08-30T15:37:43.340Z</time>
      </trkpt>
      <trkpt lat="59.3906" lon="18.0896">
        <ele>6.362315</ele>
        <time>2020-08-30T15:37:44.430Z</time>
      </trkpt>
      <trkpt lat="59.39057" lon="18.0894">
        <ele>6.245198</ele>
        <time>2020-08-30T15:37:46.107Z</time>
      </trkpt>
      <trkpt lat="59.39057" lon="18.0892">
        <ele>6.1317</ele>
        <time>2020-08-30T15:37:47.722Z</time>
      </trkpt>
      <trkpt lat="59.3907" lon="18.08868">
        <ele>5.810001</ele>
        <time>2020-08-30T15:37:52.092Z</time>
      </trkpt>
      <trkpt lat="59.39071" lon="18.08828">
        <ele>5.584827</ele>
        <time>2020-08-30T15:37:55.220Z</time>
      </trkpt>
      <trkpt lat="59.39056" lon="18.0872">
        <ele>5.247798</ele>
        <time>2020-08-30T15:38:04.081Z</time>
      </trkpt>
      <trkpt lat="59.39039" lon="18.08612">
        <ele>5.025408</ele>
        <time>2020-08-30T15:38:13.767Z</time>
      </trkpt>
      <trkpt lat="59.39021" lon="18.08538">
        <ele>4.864969</ele>
        <time>2020-08-30T15:38:21.510Z</time>
      </trkpt>
      <trkpt lat="59.39004" lon="18.08479">
        <ele>4.732239</ele>
        <time>2020-08-30T15:38:28.138Z</time>
      </trkpt>
      <trkpt lat="59.38993" lon="18.08444">
        <ele>4.989156</ele>
        <time>2020-08-30T15:38:32.625Z</time>
      </trkpt>
      <trkpt lat="59.3897" lon="18.08402">
        <ele>5.536343</ele>
        <time>2020-08-30T15:38:39.776Z</time>
      </trkpt>
      <trkpt lat="59.38932" lon="18.08356">
        <ele>6.31762</ele>
        <time>2020-08-30T15:38:51.002Z</time>
      </trkpt>
      <trkpt lat="59.38901" lon="18.08338">
        <ele>6.885883</ele>
        <time>2020-08-30T15:38:59.420Z</time>
      </trkpt>
      <trkpt lat="59.38875" lon="18.08339">
        <ele>7.340541</ele>
        <time>2020-08-30T15:39:06.125Z</time>
      </trkpt>
      <trkpt lat="59.38859" lon="18.08342">
        <ele>7.62834</ele>
        <time>2020-08-30T15:39:10.395Z</time>
      </trkpt>
      <trkpt lat="59.38849" lon="18.08349">
        <ele>7.808641</ele>
        <time>2020-08-30T15:39:13.055Z</time>
      </trkpt>
      <trkpt lat="59.38817" lon="18.08378">
        <ele>8.317819</ele>
        <time>2020-08-30T15:39:22.005Z</time>
      </trkpt>
      <trkpt lat="59.38805" lon="18.08387">
        <ele>8.487561</ele>
        <time>2020-08-30T15:39:24.971Z</time>
      </trkpt>
      <trkpt lat="59.38775" lon="18.0841">
        <ele>8.948279</ele>
        <time>2020-08-30T15:39:32.941Z</time>
      </trkpt>
      <trkpt lat="59.3869" lon="18.0849">
        <ele>10.263979</ele>
        <time>2020-08-30T15:39:54.339Z</time>
      </trkpt>
      <trkpt lat="59.38673" lon="18.08495">
        <ele>10.355277</ele>
        <time>2020-08-30T15:39:57.693Z</time>
      </trkpt>
      <trkpt lat="59.38662" lon="18.08489">
        <ele>10.333937</ele>
        <time>2020-08-30T15:39:59.859Z</time>
      </trkpt>
      <trkpt lat="59.38649" lon="18.08471">
        <ele>10.30654</ele>
        <time>2020-08-30T15:40:02.639Z</time>
      </trkpt>
      <trkpt lat="59.3861" lon="18.08378">
        <ele>10.197961</ele>
        <time>2020-08-30T15:40:13.354Z</time>
      </trkpt>
      <trkpt lat="59.38602" lon="18.08354">
        <ele>10.171748</ele>
        <time>2020-08-30T15:40:15.950Z</time>
      </trkpt>
      <trkpt lat="59.38596" lon="18.08322">
        <ele>10.141958</ele>
        <time>2020-08-30T15:40:18.809Z</time>
      </trkpt>
      <trkpt lat="59.38593" lon="18.08292">
        <ele>10.114482</ele>
        <time>2020-08-30T15:40:21.502Z</time>
      </trkpt>
      <trkpt lat="59.38594" lon="18.08268">
        <ele>10.09288</ele>
        <time>2020-08-30T15:40:23.682Z</time>
      </trkpt>
      <trkpt lat="59.38599" lon="18.08238">
        <ele>10.063933</ele>
        <time>2020-08-30T15:40:26.475Z</time>
      </trkpt>
      <trkpt lat="59.38532" lon="18.08084">
        <ele>10.176218</ele>
        <time>2020-08-30T15:40:44.268Z</time>
      </trkpt>
      <trkpt lat="59.38462" lon="18.08112">
        <ele>10.267696</ele>
        <time>2020-08-30T15:40:58.286Z</time>
      </trkpt>
      <trkpt lat="59.38421" lon="18.08138">
        <ele>10.240576</ele>
        <time>2020-08-30T15:41:07.249Z</time>
      </trkpt>
      <trkpt lat="59.3842" lon="18.08138">
        <ele>10.238346</ele>
        <time>2020-08-30T15:41:07.585Z</time>
      </trkpt>
      <trkpt lat="59.38416" lon="18.08136">
        <ele>10.23362</ele>
        <time>2020-08-30T15:41:08.184Z</time>
      </trkpt>
      <trkpt lat="59.38399" lon="18.08158">
        <ele>10.207622</ele>
        <time>2020-08-30T15:41:11.933Z</time>
      </trkpt>
      <trkpt lat="59.38346" lon="18.08183">
        <ele>10.137475</ele>
        <time>2020-08-30T15:41:21.912Z</time>
      </trkpt>
      <trkpt lat="59.38311" lon="18.08232">
        <ele>10.082</ele>
        <time>2020-08-30T15:41:29.092Z</time>
      </trkpt>
      <trkpt lat="59.38294" lon="18.08253">
        <ele>10.055818</ele>
        <time>2020-08-30T15:41:33.006Z</time>
      </trkpt>
      <trkpt lat="59.38282" lon="18.08272">
        <ele>9.94689</ele>
        <time>2020-08-30T15:41:35.226Z</time>
      </trkpt>
      <trkpt lat="59.38241" lon="18.08303">
        <ele>9.490094</ele>
        <time>2020-08-30T15:41:42.495Z</time>
      </trkpt>
      <trkpt lat="59.38186" lon="18.08373">
        <ele>8.818608</ele>
        <time>2020-08-30T15:41:52.683Z</time>
      </trkpt>
      <trkpt lat="59.38166" lon="18.08385">
        <ele>8.599096</ele>
        <time>2020-08-30T15:41:56.375Z</time>
      </trkpt>
      <trkpt lat="59.38148" lon="18.08382">
        <ele>8.41727</ele>
        <time>2020-08-30T15:41:59.173Z</time>
      </trkpt>
      <trkpt lat="59.38081" lon="18.08279">
        <ele>7.715182</ele>
        <time>2020-08-30T15:42:13.014Z</time>
      </trkpt>
      <trkpt lat="59.38056" lon="18.08216">
        <ele>7.405081</ele>
        <time>2020-08-30T15:42:19.746Z</time>
      </trkpt>
      <trkpt lat="59.3805" lon="18.08195">
        <ele>7.313937</ele>
        <time>2020-08-30T15:42:22.204Z</time>
      </trkpt>
      <trkpt lat="59.38039" lon="18.08127">
        <ele>7.038955</ele>
        <time>2020-08-30T15:42:28.338Z</time>
      </trkpt>
      <trkpt lat="59.37985" lon="18.08033">
        <ele>6.449964</ele>
        <time>2020-08-30T15:42:48.565Z</time>
      </trkpt>
      <trkpt lat="59.37975" lon="18.08013">
        <ele>6.333653</ele>
        <time>2020-08-30T15:42:52.229Z</time>
      </trkpt>
      <trkpt lat="59.37974" lon="18.08001">
        <ele>6.27999</ele>
        <time>2020-08-30T15:42:53.876Z</time>
      </trkpt>
      <trkpt lat="59.37969" lon="18.07982">
        <ele>6.186545</ele>
        <time>2020-08-30T15:42:57.249Z</time>
      </trkpt>
      <trkpt lat="59.37946" lon="18.07934">
        <ele>5.900574</ele>
        <time>2020-08-30T15:43:06.226Z</time>
      </trkpt>
      <trkpt lat="59.37889" lon="18.07882">
        <ele>5.368992</ele>
        <time>2020-08-30T15:43:23.154Z</time>
      </trkpt>
      <trkpt lat="59.37872" lon="18.07857">
        <ele>5.229132</ele>
        <time>2020-08-30T15:43:29.096Z</time>
      </trkpt>
      <trkpt lat="59.37854" lon="18.07809">
        <ele>5.056726</ele>
        <time>2020-08-30T15:43:37.738Z</time>
      </trkpt>
      <trkpt lat="59.37841" lon="18.07775">
        <ele>4.934262</ele>
        <time>2020-08-30T15:43:43.645Z</time>
      </trkpt>
      <trkpt lat="59.37837" lon="18.07723">
        <ele>4.781193</ele>
        <time>2020-08-30T15:43:50.996Z</time>
      </trkpt>
      <trkpt lat="59.37872" lon="18.07616">
        <ele>4.415873</ele>
        <time>2020-08-30T15:44:08.855Z</time>
      </trkpt>
      <trkpt lat="59.37881" lon="18.07538">
        <ele>4.362929</ele>
        <time>2020-08-30T15:44:21.072Z</time>
      </trkpt>
      <trkpt lat="59.37885" lon="18.07399">
        <ele>4.641553</ele>
        <time>2020-08-30T15:44:42.953Z</time>
      </trkpt>
      <trkpt lat="59.37898" lon="18.0735">
        <ele>4.752971</ele>
        <time>2020-08-30T15:44:51.889Z</time>
      </trkpt>
      <trkpt lat="59.37901" lon="18.07343">
        <ele>4.771058</ele>
        <time>2020-08-30T15:44:53.631Z</time>
      </trkpt>
      <trkpt lat="59.379" lon="18.07333">
        <ele>4.791827</ele>
        <time>2020-08-30T15:44:54.948Z</time>
      </trkpt>
      <trkpt lat="59.37909" lon="18.07209">
        <ele>5.040352</ele>
        <time>2020-08-30T15:45:08.032Z</time>
      </trkpt>
      <trkpt lat="59.37928" lon="18.07151">
        <ele>5.173674</ele>
        <time>2020-08-30T15:45:14.838Z</time>
      </trkpt>
      <trkpt lat="59.37963" lon="18.07077">
        <ele>5.369417</ele>
        <time>2020-08-30T15:45:25.112Z</time>
      </trkpt>
      <trkpt lat="59.37979" lon="18.07043">
        <ele>5.458833</ele>
        <time>2020-08-30T15:45:29.234Z</time>
      </trkpt>
      <trkpt lat="59.37983" lon="18.07033">
        <ele>5.484619</ele>
        <time>2020-08-30T15:45:30.665Z</time>
      </trkpt>
      <trkpt lat="59.37982" lon="18.07018">
        <ele>5.513823</ele>
        <time>2020-08-30T15:45:32.029Z</time>
      </trkpt>
      <trkpt lat="59.37975" lon="18.07">
        <ele>5.557136</ele>
        <time>2020-08-30T15:45:33.988Z</time>
      </trkpt>
      <trkpt lat="59.37959" lon="18.06947">
        <ele>5.675512</ele>
        <time>2020-08-30T15:45:40.158Z</time>
      </trkpt>
      <trkpt lat="59.37942" lon="18.06905">
        <ele>5.913047</ele>
        <time>2020-08-30T15:45:46.322Z</time>
      </trkpt>
      <trkpt lat="59.37936" lon="18.06874">
        <ele>6.065466</ele>
        <time>2020-08-30T15:45:49.435Z</time>
      </trkpt>
      <trkpt lat="59.37932" lon="18.06853">
        <ele>6.169921</ele>
        <time>2020-08-30T15:45:52.494Z</time>
      </trkpt>
      <trkpt lat="59.37924" lon="18.06837">
        <ele>6.268115</ele>
        <time>2020-08-30T15:45:54.601Z</time>
      </trkpt>
      <trkpt lat="59.37873" lon="18.06704">
        <ele>7.028653</ele>
        <time>2020-08-30T15:46:12.490Z</time>
      </trkpt>
      <trkpt lat="59.3787" lon="18.06691">
        <ele>7.095186</ele>
        <time>2020-08-30T15:46:14.616Z</time>
      </trkpt>
      <trkpt lat="59.37871" lon="18.06596">
        <ele>7.595079</ele>
        <time>2020-08-30T15:46:25.284Z</time>
      </trkpt>
      <trkpt lat="59.37873" lon="18.06555">
        <ele>7.8406</ele>
        <time>2020-08-30T15:46:30.759Z</time>
      </trkpt>
      <trkpt lat="59.37862" lon="18.06533">
        <ele>8.023486</ele>
        <time>2020-08-30T15:46:33.969Z</time>
      </trkpt>
      <trkpt lat="59.37858" lon="18.06514">
        <ele>8.144332</ele>
        <time>2020-08-30T15:46:36.532Z</time>
      </trkpt>
      <trkpt lat="59.37851" lon="18.06497">
        <ele>8.271802</ele>
        <time>2020-08-30T15:46:39.246Z</time>
      </trkpt>
      <trkpt lat="59.37847" lon="18.06483">
        <ele>8.368727</ele>
        <time>2020-08-30T15:46:40.822Z</time>
      </trkpt>
      <trkpt lat="59.37847" lon="18.06483">
        <ele>8.368727</ele>
        <time>2020-08-30T15:46:40.826Z</time>
      </trkpt>
      <trkpt lat="59.37844" lon="18.0647">
        <ele>8.45177</ele>
        <time>2020-08-30T15:46:43.028Z</time>
      </trkpt>
      <trkpt lat="59.37845" lon="18.06334">
        <ele>9.251576</ele>
        <time>2020-08-30T15:47:05.599Z</time>
      </trkpt>
      <trkpt lat="59.37839" lon="18.06294">
        <ele>9.646252</ele>
        <time>2020-08-30T15:47:13.085Z</time>
      </trkpt>
      <trkpt lat="59.37841" lon="18.06156">
        <ele>11.43502</ele>
        <time>2020-08-30T15:47:36.543Z</time>
      </trkpt>
      <trkpt lat="59.37856" lon="18.06107">
        <ele>12.176813</ele>
        <time>2020-08-30T15:47:47.013Z</time>
      </trkpt>
      <trkpt lat="59.3786" lon="18.06087">
        <ele>12.45072</ele>
        <time>2020-08-30T15:47:50.318Z</time>
      </trkpt>
      <trkpt lat="59.37873" lon="18.06026">
        <ele>13.305298</ele>
        <time>2020-08-30T15:48:00.399Z</time>
      </trkpt>
      <trkpt lat="59.37881" lon="18.059">
        <ele>16.515487</ele>
        <time>2020-08-30T15:48:22.716Z</time>
      </trkpt>
      <trkpt lat="59.3789" lon="18.05874">
        <ele>17.535242</ele>
        <time>2020-08-30T15:48:28.774Z</time>
      </trkpt>
      <trkpt lat="59.37928" lon="18.05839">
        <ele>20.267366</ele>
        <time>2020-08-30T15:48:46.587Z</time>
      </trkpt>
      <trkpt lat="59.37968" lon="18.05813">
        <ele>22.998065</ele>
        <time>2020-08-30T15:49:04.785Z</time>
      </trkpt>
      <trkpt lat="59.38018" lon="18.05765">
        <ele>26.114555</ele>
        <time>2020-08-30T15:49:27.629Z</time>
      </trkpt>
      <trkpt lat="59.38059" lon="18.05744">
        <ele>27.608364</ele>
        <time>2020-08-30T15:49:44.324Z</time>
      </trkpt>
      <trkpt lat="59.38077" lon="18.05721">
        <ele>28.367222</ele>
        <time>2020-08-30T15:49:52.071Z</time>
      </trkpt>
      <trkpt lat="59.38101" lon="18.0569">
        <ele>29.405183</ele>
        <time>2020-08-30T15:50:01.902Z</time>
      </trkpt>
      <trkpt lat="59.38119" lon="18.05666">
        <ele>30.192062</ele>
        <time>2020-08-30T15:50:07.392Z</time>
      </trkpt>
      <trkpt lat="59.38153" lon="18.05622">
        <ele>31.617515</ele>
        <time>2020-08-30T15:50:16.243Z</time>
      </trkpt>
      <trkpt lat="59.38197" lon="18.05564">
        <ele>29.980122</ele>
        <time>2020-08-30T15:50:23.718Z</time>
      </trkpt>
      <trkpt lat="59.38217" lon="18.05535">
        <ele>28.884191</ele>
        <time>2020-08-30T15:50:27.186Z</time>
      </trkpt>
      <trkpt lat="59.38225" lon="18.05521">
        <ele>28.428253</ele>
        <time>2020-08-30T15:50:28.409Z</time>
      </trkpt>
      <trkpt lat="59.38234" lon="18.05505">
        <ele>27.900244</ele>
        <time>2020-08-30T15:50:30.042Z</time>
      </trkpt>
      <trkpt lat="59.38245" lon="18.05483">
        <ele>27.190654</ele>
        <time>2020-08-30T15:50:32.049Z</time>
      </trkpt>
      <trkpt lat="59.38245" lon="18.0547">
        <ele>26.917331</ele>
        <time>2020-08-30T15:50:32.771Z</time>
      </trkpt>
      <trkpt lat="59.38244" lon="18.05442">
        <ele>26.276093</ele>
        <time>2020-08-30T15:50:34.704Z</time>
      </trkpt>
      <trkpt lat="59.38246" lon="18.05435">
        <ele>26.091128</ele>
        <time>2020-08-30T15:50:35.233Z</time>
      </trkpt>
      <trkpt lat="59.3825" lon="18.05423">
        <ele>25.772927</ele>
        <time>2020-08-30T15:50:36.159Z</time>
      </trkpt>
      <trkpt lat="59.38245" lon="18.05412">
        <ele>25.41425</ele>
        <time>2020-08-30T15:50:37.087Z</time>
      </trkpt>
      <trkpt lat="59.38248" lon="18.05337">
        <ele>23.718365</ele>
        <time>2020-08-30T15:50:41.751Z</time>
      </trkpt>
      <trkpt lat="59.38282" lon="18.05154">
        <ele>19.155733</ele>
        <time>2020-08-30T15:50:54.085Z</time>
      </trkpt>
      <trkpt lat="59.38291" lon="18.05044">
        <ele>16.553987</ele>
        <time>2020-08-30T15:51:01.771Z</time>
      </trkpt>
      <trkpt lat="59.38288" lon="18.0504">
        <ele>16.377436</ele>
        <time>2020-08-30T15:51:02.360Z</time>
      </trkpt>
      <trkpt lat="59.38299" lon="18.04988">
        <ele>15.881126</ele>
        <time>2020-08-30T15:51:06.579Z</time>
      </trkpt>
      <trkpt lat="59.38295" lon="18.04958">
        <ele>15.963738</ele>
        <time>2020-08-30T15:51:09.183Z</time>
      </trkpt>
      <trkpt lat="59.38295" lon="18.04933">
        <ele>16.034974</ele>
        <time>2020-08-30T15:51:11.819Z</time>
      </trkpt>
      <trkpt lat="59.38292" lon="18.04925">
        <ele>16.062397</ele>
        <time>2020-08-30T15:51:12.551Z</time>
      </trkpt>
      <trkpt lat="59.38296" lon="18.04897">
        <ele>16.140097</ele>
        <time>2020-08-30T15:51:15.213Z</time>
      </trkpt>
      <trkpt lat="59.38316" lon="18.04821">
        <ele>16.375325</ele>
        <time>2020-08-30T15:51:24.777Z</time>
      </trkpt>
      <trkpt lat="59.38328" lon="18.048">
        <ele>16.465092</ele>
        <time>2020-08-30T15:51:28.629Z</time>
      </trkpt>
      <trkpt lat="59.38371" lon="18.04758">
        <ele>16.722347</ele>
        <time>2020-08-30T15:51:40.868Z</time>
      </trkpt>
      <trkpt lat="59.38377" lon="18.04742">
        <ele>16.79639</ele>
        <time>2020-08-30T15:51:43.934Z</time>
      </trkpt>
      <trkpt lat="59.3838" lon="18.04738">
        <ele>16.83794</ele>
        <time>2020-08-30T15:51:44.872Z</time>
      </trkpt>
      <trkpt lat="59.38393" lon="18.04687">
        <ele>17.209484</ele>
        <time>2020-08-30T15:51:52.289Z</time>
      </trkpt>
      <trkpt lat="59.38395" lon="18.04674">
        <ele>17.298609</ele>
        <time>2020-08-30T15:51:54.320Z</time>
      </trkpt>
      <trkpt lat="59.38399" lon="18.04654">
        <ele>17.438512</ele>
        <time>2020-08-30T15:51:56.806Z</time>
      </trkpt>
      <trkpt lat="59.3842" lon="18.04592">
        <ele>17.930327</ele>
        <time>2020-08-30T15:52:05.194Z</time>
      </trkpt>
      <trkpt lat="59.3845" lon="18.04554">
        <ele>18.396747</ele>
        <time>2020-08-30T15:52:13.327Z</time>
      </trkpt>
      <trkpt lat="59.38462" lon="18.04547">
        <ele>18.558333</ele>
        <time>2020-08-30T15:52:16.116Z</time>
      </trkpt>
      <trkpt lat="59.38469" lon="18.04543">
        <ele>18.64435</ele>
        <time>2020-08-30T15:52:17.682Z</time>
      </trkpt>
      <trkpt lat="59.38477" lon="18.04536">
        <ele>18.762258</ele>
        <time>2020-08-30T15:52:19.683Z</time>
      </trkpt>
      <trkpt lat="59.38515" lon="18.04507">
        <ele>19.201865</ele>
        <time>2020-08-30T15:52:27.114Z</time>
      </trkpt>
      <trkpt lat="59.38524" lon="18.0449">
        <ele>19.298011</ele>
        <time>2020-08-30T15:52:29.280Z</time>
      </trkpt>
      <trkpt lat="59.38534" lon="18.04474">
        <ele>19.394458</ele>
        <time>2020-08-30T15:52:31.809Z</time>
      </trkpt>
      <trkpt lat="59.38543" lon="18.04468">
        <ele>19.462202</ele>
        <time>2020-08-30T15:52:33.894Z</time>
      </trkpt>
      <trkpt lat="59.38544" lon="18.0446">
        <ele>19.495259</ele>
        <time>2020-08-30T15:52:34.602Z</time>
      </trkpt>
      <trkpt lat="59.38544" lon="18.0445">
        <ele>19.533897</ele>
        <time>2020-08-30T15:52:35.796Z</time>
      </trkpt>
      <trkpt lat="59.38545" lon="18.04442">
        <ele>19.564567</ele>
        <time>2020-08-30T15:52:36.558Z</time>
      </trkpt>
      <trkpt lat="59.38548" lon="18.04424">
        <ele>19.633753</ele>
        <time>2020-08-30T15:52:38.497Z</time>
      </trkpt>
      <trkpt lat="59.38554" lon="18.04393">
        <ele>19.760488</ele>
        <time>2020-08-30T15:52:42.763Z</time>
      </trkpt>
      <trkpt lat="59.3856" lon="18.04387">
        <ele>19.814028</ele>
        <time>2020-08-30T15:52:44.649Z</time>
      </trkpt>
      <trkpt lat="59.38565" lon="18.04384">
        <ele>19.852032</ele>
        <time>2020-08-30T15:52:45.931Z</time>
      </trkpt>
      <trkpt lat="59.38574" lon="18.04387">
        <ele>19.921514</ele>
        <time>2020-08-30T15:52:48.158Z</time>
      </trkpt>
      <trkpt lat="59.38593" lon="18.04395">
        <ele>20.068842</ele>
        <time>2020-08-30T15:52:52.059Z</time>
      </trkpt>
      <trkpt lat="59.38598" lon="18.04402">
        <ele>20.112222</ele>
        <time>2020-08-30T15:52:53.306Z</time>
      </trkpt>
      <trkpt lat="59.38585" lon="18.04403">
        <ele>20.20817</ele>
        <time>2020-08-30T15:52:56.321Z</time>
      </trkpt>
      <trkpt lat="59.38564" lon="18.044">
        <ele>20.368016</ele>
        <time>2020-08-30T15:53:00.498Z</time>
      </trkpt>
      <trkpt lat="59.38533" lon="18.04388">
        <ele>20.20619</ele>
        <time>2020-08-30T15:53:05.937Z</time>
      </trkpt>
      <trkpt lat="59.38518" lon="18.04378">
        <ele>20.057615</ele>
        <time>2020-08-30T15:53:08.848Z</time>
      </trkpt>
      <trkpt lat="59.38493" lon="18.04366">
        <ele>19.81834</ele>
        <time>2020-08-30T15:53:12.740Z</time>
      </trkpt>
      <trkpt lat="59.38482" lon="18.0436">
        <ele>19.701465</ele>
        <time>2020-08-30T15:53:14.806Z</time>
      </trkpt>
      <trkpt lat="59.38476" lon="18.04357">
        <ele>19.647822</ele>
        <time>2020-08-30T15:53:15.481Z</time>
      </trkpt>
      <trkpt lat="59.38453" lon="18.04322">
        <ele>19.369812</ele>
        <time>2020-08-30T15:53:20.535Z</time>
      </trkpt>
      <trkpt lat="59.38428" lon="18.043">
        <ele>19.112116</ele>
        <time>2020-08-30T15:53:24.668Z</time>
      </trkpt>
      <trkpt lat="59.38394" lon="18.04267">
        <ele>18.755369</ele>
        <time>2020-08-30T15:53:30.293Z</time>
      </trkpt>
      <trkpt lat="59.38349" lon="18.0423">
        <ele>18.068266</ele>
        <time>2020-08-30T15:53:37.048Z</time>
      </trkpt>
      <trkpt lat="59.382" lon="18.04136">
        <ele>16.353363</ele>
        <time>2020-08-30T15:54:01.561Z</time>
      </trkpt>
      <trkpt lat="59.38191" lon="18.04135">
        <ele>16.429146</ele>
        <time>2020-08-30T15:54:04.021Z</time>
      </trkpt>
      <trkpt lat="59.38179" lon="18.04134">
        <ele>16.536397</ele>
        <time>2020-08-30T15:54:06.566Z</time>
      </trkpt>
      <trkpt lat="59.38146" lon="18.04158">
        <ele>16.833535</ele>
        <time>2020-08-30T15:54:14.133Z</time>
      </trkpt>
      <trkpt lat="59.38103" lon="18.04259">
        <ele>17.414293</ele>
        <time>2020-08-30T15:54:29.149Z</time>
      </trkpt>
      <trkpt lat="59.3808" lon="18.04294">
        <ele>17.659364</ele>
        <time>2020-08-30T15:54:36.715Z</time>
      </trkpt>
      <trkpt lat="59.38021" lon="18.04323">
        <ele>18.564182</ele>
        <time>2020-08-30T15:54:50.893Z</time>
      </trkpt>
      <trkpt lat="59.37954" lon="18.04326">
        <ele>19.605201</ele>
        <time>2020-08-30T15:55:07.230Z</time>
      </trkpt>
      <trkpt lat="59.37951" lon="18.04332">
        <ele>19.667344</ele>
        <time>2020-08-30T15:55:08.381Z</time>
      </trkpt>
      <trkpt lat="59.37949" lon="18.0434">
        <ele>19.743541</ele>
        <time>2020-08-30T15:55:10.230Z</time>
      </trkpt>
      <trkpt lat="59.37934" lon="18.04334">
        <ele>19.983509</ele>
        <time>2020-08-30T15:55:14.063Z</time>
      </trkpt>
      <trkpt lat="59.37885" lon="18.04361">
        <ele>20.294864</ele>
        <time>2020-08-30T15:55:24.411Z</time>
      </trkpt>
      <trkpt lat="59.37854" lon="18.04409">
        <ele>19.874016</ele>
        <time>2020-08-30T15:55:32.256Z</time>
      </trkpt>
      <trkpt lat="59.37844" lon="18.04425">
        <ele>19.739379</ele>
        <time>2020-08-30T15:55:35.114Z</time>
      </trkpt>
      <trkpt lat="59.3784" lon="18.0443">
        <ele>19.68929</ele>
        <time>2020-08-30T15:55:35.848Z</time>
      </trkpt>
      <trkpt lat="59.37832" lon="18.04439">
        <ele>19.590308</ele>
        <time>2020-08-30T15:55:37.082Z</time>
      </trkpt>
      <trkpt lat="59.37769" lon="18.04504">
        <ele>18.832507</ele>
        <time>2020-08-30T15:55:47.654Z</time>
      </trkpt>
      <trkpt lat="59.37682" lon="18.04587">
        <ele>17.367226</ele>
        <time>2020-08-30T15:56:01.147Z</time>
      </trkpt>
      <trkpt lat="59.37646" lon="18.04623">
        <ele>16.69097</ele>
        <time>2020-08-30T15:56:07.340Z</time>
      </trkpt>
      <trkpt lat="59.37596" lon="18.04673">
        <ele>15.744267</ele>
        <time>2020-08-30T15:56:16.557Z</time>
      </trkpt>
      <trkpt lat="59.37596" lon="18.04681">
        <ele>15.672683</ele>
        <time>2020-08-30T15:56:17.304Z</time>
      </trkpt>
      <trkpt lat="59.37597" lon="18.0469">
        <ele>15.595956</ele>
        <time>2020-08-30T15:56:17.997Z</time>
      </trkpt>
      <trkpt lat="59.37583" lon="18.04698">
        <ele>15.61438</ele>
        <time>2020-08-30T15:56:20.573Z</time>
      </trkpt>
      <trkpt lat="59.37573" lon="18.04705">
        <ele>15.660859</ele>
        <time>2020-08-30T15:56:22.674Z</time>
      </trkpt>
      <trkpt lat="59.3756" lon="18.04715">
        <ele>15.720477</ele>
        <time>2020-08-30T15:56:25.204Z</time>
      </trkpt>
      <trkpt lat="59.37544" lon="18.04731">
        <ele>15.795192</ele>
        <time>2020-08-30T15:56:29.018Z</time>
      </trkpt>
      <trkpt lat="59.37538" lon="18.04736">
        <ele>15.82042</ele>
        <time>2020-08-30T15:56:30.217Z</time>
      </trkpt>
      <trkpt lat="59.37535" lon="18.0474">
        <ele>15.838106</ele>
        <time>2020-08-30T15:56:31.138Z</time>
      </trkpt>
      <trkpt lat="59.37524" lon="18.0475">
        <ele>15.88693</ele>
        <time>2020-08-30T15:56:33.386Z</time>
      </trkpt>
      <trkpt lat="59.37509" lon="18.04761">
        <ele>15.952946</ele>
        <time>2020-08-30T15:56:37.045Z</time>
      </trkpt>
      <trkpt lat="59.37498" lon="18.0477">
        <ele>16.003702</ele>
        <time>2020-08-30T15:56:39.552Z</time>
      </trkpt>
      <trkpt lat="59.3744" lon="18.04839">
        <ele>16.290044</ele>
        <time>2020-08-30T15:56:54.643Z</time>
      </trkpt>
      <trkpt lat="59.37339" lon="18.04977">
        <ele>15.52331</ele>
        <time>2020-08-30T15:57:16.672Z</time>
      </trkpt>
      <trkpt lat="59.37332" lon="18.04998">
        <ele>15.440517</ele>
        <time>2020-08-30T15:57:18.379Z</time>
      </trkpt>
      <trkpt lat="59.37311" lon="18.05023">
        <ele>15.269718</ele>
        <time>2020-08-30T15:57:22.722Z</time>
      </trkpt>
      <trkpt lat="59.37287" lon="18.05049">
        <ele>15.061399</ele>
        <time>2020-08-30T15:57:26.454Z</time>
      </trkpt>
      <trkpt lat="59.37279" lon="18.05055">
        <ele>14.892202</ele>
        <time>2020-08-30T15:57:27.960Z</time>
      </trkpt>
      <trkpt lat="59.37278" lon="18.05056">
        <ele>14.861746</ele>
        <time>2020-08-30T15:57:28.115Z</time>
      </trkpt>
      <trkpt lat="59.37237" lon="18.05065">
        <ele>14.028641</ele>
        <time>2020-08-30T15:57:33.837Z</time>
      </trkpt>
      <trkpt lat="59.37172" lon="18.05095">
        <ele>12.695472</ele>
        <time>2020-08-30T15:57:43.191Z</time>
      </trkpt>
      <trkpt lat="59.37155" lon="18.051">
        <ele>12.344993</ele>
        <time>2020-08-30T15:57:45.450Z</time>
      </trkpt>
      <trkpt lat="59.37137" lon="18.05098">
        <ele>11.980815</ele>
        <time>2020-08-30T15:57:48.317Z</time>
      </trkpt>
      <trkpt lat="59.37128" lon="18.05101">
        <ele>11.797512</ele>
        <time>2020-08-30T15:57:49.475Z</time>
      </trkpt>
      <trkpt lat="59.37093" lon="18.0511">
        <ele>11.438479</ele>
        <time>2020-08-30T15:57:54.952Z</time>
      </trkpt>
      <trkpt lat="59.37092" lon="18.05099">
        <ele>11.432794</ele>
        <time>2020-08-30T15:57:55.771Z</time>
      </trkpt>
      <trkpt lat="59.37088" lon="18.05036">
        <ele>11.398464</ele>
        <time>2020-08-30T15:58:00.948Z</time>
      </trkpt>
      <trkpt lat="59.37086" lon="18.05028">
        <ele>11.393392</ele>
        <time>2020-08-30T15:58:01.731Z</time>
      </trkpt>
      <trkpt lat="59.37077" lon="18.0503">
        <ele>11.383731</ele>
        <time>2020-08-30T15:58:03.351Z</time>
      </trkpt>
      <trkpt lat="59.37072" lon="18.05023">
        <ele>11.376413</ele>
        <time>2020-08-30T15:58:04.598Z</time>
      </trkpt>
      <trkpt lat="59.3707" lon="18.05018">
        <ele>11.373664</ele>
        <time>2020-08-30T15:58:05.030Z</time>
      </trkpt>
      <trkpt lat="59.37066" lon="18.05019">
        <ele>11.368518</ele>
        <time>2020-08-30T15:58:05.773Z</time>
      </trkpt>
      <trkpt lat="59.37059" lon="18.05019">
        <ele>11.361395</ele>
        <time>2020-08-30T15:58:06.744Z</time>
      </trkpt>
      <trkpt lat="59.37054" lon="18.05017">
        <ele>11.356452</ele>
        <time>2020-08-30T15:58:07.499Z</time>
      </trkpt>
      <trkpt lat="59.37052" lon="18.05024">
        <ele>11.351887</ele>
        <time>2020-08-30T15:58:08.301Z</time>
      </trkpt>
      <trkpt lat="59.37043" lon="18.05031">
        <ele>11.341664</ele>
        <time>2020-08-30T15:58:10.221Z</time>
      </trkpt>
      <trkpt lat="59.37029" lon="18.05035">
        <ele>11.326961</ele>
        <time>2020-08-30T15:58:12.753Z</time>
      </trkpt>
      <trkpt lat="59.37007" lon="18.05037">
        <ele>11.303139</ele>
        <time>2020-08-30T15:58:17.768Z</time>
      </trkpt>
      <trkpt lat="59.36982" lon="18.05041">
        <ele>11.27716</ele>
        <time>2020-08-30T15:58:23.248Z</time>
      </trkpt>
      <trkpt lat="59.36942" lon="18.05063">
        <ele>11.941202</ele>
        <time>2020-08-30T15:58:33.122Z</time>
      </trkpt>
      <trkpt lat="59.3667" lon="18.05259">
        <ele>17.232458</ele>
        <time>2020-08-30T15:59:45.119Z</time>
      </trkpt>
      <trkpt lat="59.36587" lon="18.05294">
        <ele>17.392348</ele>
        <time>2020-08-30T15:59:59.875Z</time>
      </trkpt>
      <trkpt lat="59.36573" lon="18.05299">
        <ele>17.258157</ele>
        <time>2020-08-30T16:00:02.117Z</time>
      </trkpt>
      <trkpt lat="59.3656" lon="18.05302">
        <ele>17.144079</ele>
        <time>2020-08-30T16:00:04.146Z</time>
      </trkpt>
      <trkpt lat="59.36515" lon="18.05313">
        <ele>16.731459</ele>
        <time>2020-08-30T16:00:11.088Z</time>
      </trkpt>
      <trkpt lat="59.36491" lon="18.05321">
        <ele>16.510377</ele>
        <time>2020-08-30T16:00:14.597Z</time>
      </trkpt>
      <trkpt lat="59.36414" lon="18.05365">
        <ele>15.617848</ele>
        <time>2020-08-30T16:00:26.145Z</time>
      </trkpt>
      <trkpt lat="59.36332" lon="18.05428">
        <ele>14.497295</ele>
        <time>2020-08-30T16:00:39.454Z</time>
      </trkpt>
      <trkpt lat="59.36284" lon="18.0545">
        <ele>13.883806</ele>
        <time>2020-08-30T16:00:47.071Z</time>
      </trkpt>
      <trkpt lat="59.36259" lon="18.05472">
        <ele>13.685051</ele>
        <time>2020-08-30T16:00:51.289Z</time>
      </trkpt>
      <trkpt lat="59.36129" lon="18.05596">
        <ele>12.630393</ele>
        <time>2020-08-30T16:01:14.537Z</time>
      </trkpt>
      <trkpt lat="59.36118" lon="18.05605">
        <ele>12.584555</ele>
        <time>2020-08-30T16:01:16.435Z</time>
      </trkpt>
      <trkpt lat="59.36094" lon="18.0561">
        <ele>12.557595</ele>
        <time>2020-08-30T16:01:20.314Z</time>
      </trkpt>
      <trkpt lat="59.36077" lon="18.05602">
        <ele>12.537774</ele>
        <time>2020-08-30T16:01:23.235Z</time>
      </trkpt>
      <trkpt lat="59.36054" lon="18.05584">
        <ele>12.50947</ele>
        <time>2020-08-30T16:01:27.646Z</time>
      </trkpt>
      <trkpt lat="59.36027" lon="18.05572">
        <ele>12.478438</ele>
        <time>2020-08-30T16:01:32.378Z</time>
      </trkpt>
      <trkpt lat="59.35999" lon="18.05568">
        <ele>12.446995</ele>
        <time>2020-08-30T16:01:37.408Z</time>
      </trkpt>
      <trkpt lat="59.35976" lon="18.05574">
        <ele>12.421039</ele>
        <time>2020-08-30T16:01:41.836Z</time>
      </trkpt>
      <trkpt lat="59.35962" lon="18.0558">
        <ele>12.40512</ele>
        <time>2020-08-30T16:01:44.377Z</time>
      </trkpt>
      <trkpt lat="59.35953" lon="18.05585">
        <ele>12.394582</ele>
        <time>2020-08-30T16:01:46.327Z</time>
      </trkpt>
      <trkpt lat="59.35877" lon="18.05641">
        <ele>12.607248</ele>
        <time>2020-08-30T16:02:01.398Z</time>
      </trkpt>
      <trkpt lat="59.35828" lon="18.05651">
        <ele>12.749776</ele>
        <time>2020-08-30T16:02:10.964Z</time>
      </trkpt>
      <trkpt lat="59.35772" lon="18.05641">
        <ele>12.893083</ele>
        <time>2020-08-30T16:02:21.712Z</time>
      </trkpt>
      <trkpt lat="59.35714" lon="18.05608">
        <ele>12.674026</ele>
        <time>2020-08-30T16:02:32.218Z</time>
      </trkpt>
      <trkpt lat="59.35699" lon="18.05592">
        <ele>12.609668</ele>
        <time>2020-08-30T16:02:35.157Z</time>
      </trkpt>
      <trkpt lat="59.35686" lon="18.05575">
        <ele>12.553847</ele>
        <time>2020-08-30T16:02:37.620Z</time>
      </trkpt>
      <trkpt lat="59.35672" lon="18.05558">
        <ele>12.493959</ele>
        <time>2020-08-30T16:02:40.295Z</time>
      </trkpt>
      <trkpt lat="59.35659" lon="18.05543">
        <ele>12.439191</ele>
        <time>2020-08-30T16:02:42.639Z</time>
      </trkpt>
      <trkpt lat="59.35607" lon="18.05499">
        <ele>12.269236</ele>
        <time>2020-08-30T16:02:51.846Z</time>
      </trkpt>
      <trkpt lat="59.35537" lon="18.05427">
        <ele>12.719268</ele>
        <time>2020-08-30T16:03:04.976Z</time>
      </trkpt>
      <trkpt lat="59.35495" lon="18.05385">
        <ele>12.986901</ele>
        <time>2020-08-30T16:03:14.528Z</time>
      </trkpt>
      <trkpt lat="59.35389" lon="18.05279">
        <ele>15.187755</ele>
        <time>2020-08-30T16:03:43.236Z</time>
      </trkpt>
      <trkpt lat="59.35381" lon="18.05279">
        <ele>15.430561</ele>
        <time>2020-08-30T16:03:45.675Z</time>
      </trkpt>
      <trkpt lat="59.35362" lon="18.0529">
        <ele>15.972179</ele>
        <time>2020-08-30T16:03:51.150Z</time>
      </trkpt>
      <trkpt lat="59.35309" lon="18.05336">
        <ele>17.588884</ele>
        <time>2020-08-30T16:04:06.991Z</time>
      </trkpt>
      <trkpt lat="59.35234" lon="18.05438">
        <ele>20.24445</ele>
        <time>2020-08-30T16:04:34.798Z</time>
      </trkpt>
      <trkpt lat="59.35208" lon="18.05443">
        <ele>21.034373</ele>
        <time>2020-08-30T16:04:41.707Z</time>
      </trkpt>
      <trkpt lat="59.35171" lon="18.05475">
        <ele>22.215776</ele>
        <time>2020-08-30T16:04:52.299Z</time>
      </trkpt>
      <trkpt lat="59.35143" lon="18.05499">
        <ele>23.146246</ele>
        <time>2020-08-30T16:05:00.490Z</time>
      </trkpt>
      <trkpt lat="59.35133" lon="18.05501">
        <ele>23.428821</ele>
        <time>2020-08-30T16:05:03.266Z</time>
      </trkpt>
      <trkpt lat="59.35129" lon="18.05497">
        <ele>23.550841</ele>
        <time>2020-08-30T16:05:04.370Z</time>
      </trkpt>
      <trkpt lat="59.35126" lon="18.05494">
        <ele>23.634803</ele>
        <time>2020-08-30T16:05:05.124Z</time>
      </trkpt>
      <trkpt lat="59.35124" lon="18.0549">
        <ele>23.680667</ele>
        <time>2020-08-30T16:05:05.983Z</time>
      </trkpt>
      <trkpt lat="59.35118" lon="18.05493">
        <ele>23.77128</ele>
        <time>2020-08-30T16:05:07.478Z</time>
      </trkpt>
      <trkpt lat="59.35112" lon="18.05496">
        <ele>23.856372</ele>
        <time>2020-08-30T16:05:08.964Z</time>
      </trkpt>
      <trkpt lat="59.35104" lon="18.055">
        <ele>23.976497</ele>
        <time>2020-08-30T16:05:11.183Z</time>
      </trkpt>
      <trkpt lat="59.35097" lon="18.05503">
        <ele>24.06556</ele>
        <time>2020-08-30T16:05:12.926Z</time>
      </trkpt>
      <trkpt lat="59.35101" lon="18.05534">
        <ele>24.298037</ele>
        <time>2020-08-30T16:05:16.747Z</time>
      </trkpt>
      <trkpt lat="59.35102" lon="18.05552">
        <ele>24.425872</ele>
        <time>2020-08-30T16:05:18.888Z</time>
      </trkpt>
      <trkpt lat="59.35101" lon="18.05574">
        <ele>24.58909</ele>
        <time>2020-08-30T16:05:21.937Z</time>
      </trkpt>
      <trkpt lat="59.35098" lon="18.05634">
        <ele>25.024854</ele>
        <time>2020-08-30T16:05:29.114Z</time>
      </trkpt>
      <trkpt lat="59.35093" lon="18.05668">
        <ele>25.280867</ele>
        <time>2020-08-30T16:05:33.111Z</time>
      </trkpt>
      <trkpt lat="59.35089" lon="18.05681">
        <ele>25.386115</ele>
        <time>2020-08-30T16:05:34.703Z</time>
      </trkpt>
      <trkpt lat="59.35083" lon="18.05706">
        <ele>25.590827</ele>
        <time>2020-08-30T16:05:38.055Z</time>
      </trkpt>
      <trkpt lat="59.3507" lon="18.05746">
        <ele>25.93295</ele>
        <time>2020-08-30T16:05:42.816Z</time>
      </trkpt>
      <trkpt lat="59.35061" lon="18.05766">
        <ele>26.127233</ele>
        <time>2020-08-30T16:05:45.453Z</time>
      </trkpt>
      <trkpt lat="59.34973" lon="18.05857">
        <ele>27.005862</ele>
        <time>2020-08-30T16:06:05.392Z</time>
      </trkpt>
      <trkpt lat="59.34962" lon="18.05867">
        <ele>27.106577</ele>
        <time>2020-08-30T16:06:07.832Z</time>
      </trkpt>
      <trkpt lat="59.34964" lon="18.05872">
        <ele>27.132449</ele>
        <time>2020-08-30T16:06:08.386Z</time>
      </trkpt>
      <trkpt lat="59.34959" lon="18.05877">
        <ele>27.173898</ele>
        <time>2020-08-30T16:06:09.425Z</time>
      </trkpt>
      <trkpt lat="59.34957" lon="18.05879">
        <ele>27.194041</ele>
        <time>2020-08-30T16:06:09.943Z</time>
      </trkpt>
      <trkpt lat="59.34911" lon="18.05924">
        <ele>27.644352</ele>
        <time>2020-08-30T16:06:21.626Z</time>
      </trkpt>
      <trkpt lat="59.3489" lon="18.05943">
        <ele>27.917277</ele>
        <time>2020-08-30T16:06:26.584Z</time>
      </trkpt>
      <trkpt lat="59.34828" lon="18.06004">
        <ele>28.953331</ele>
        <time>2020-08-30T16:06:42.470Z</time>
      </trkpt>
      <trkpt lat="59.34823" lon="18.06009">
        <ele>29.042226</ele>
        <time>2020-08-30T16:06:44.138Z</time>
      </trkpt>
      <trkpt lat="59.34815" lon="18.06017">
        <ele>29.172199</ele>
        <time>2020-08-30T16:06:46.128Z</time>
      </trkpt>
      <trkpt lat="59.34808" lon="18.06024">
        <ele>29.292162</ele>
        <time>2020-08-30T16:06:48.010Z</time>
      </trkpt>
      <trkpt lat="59.34661" lon="18.06164">
        <ele>30.41328</ele>
        <time>2020-08-30T16:07:24.228Z</time>
      </trkpt>
      <trkpt lat="59.34656" lon="18.06169">
        <ele>30.413698</ele>
        <time>2020-08-30T16:07:25.338Z</time>
      </trkpt>
      <trkpt lat="59.3465" lon="18.06175">
        <ele>30.414239</ele>
        <time>2020-08-30T16:07:26.452Z</time>
      </trkpt>
      <trkpt lat="59.34642" lon="18.06182">
        <ele>30.414884</ele>
        <time>2020-08-30T16:07:27.703Z</time>
      </trkpt>
      <trkpt lat="59.34586" lon="18.06235">
        <ele>30.41971</ele>
        <time>2020-08-30T16:07:37.129Z</time>
      </trkpt>
      <trkpt lat="59.34583" lon="18.06238">
        <ele>30.419992</ele>
        <time>2020-08-30T16:07:37.598Z</time>
      </trkpt>
      <trkpt lat="59.34576" lon="18.06244">
        <ele>30.376777</ele>
        <time>2020-08-30T16:07:38.655Z</time>
      </trkpt>
      <trkpt lat="59.34574" lon="18.06237">
        <ele>30.306841</ele>
        <time>2020-08-30T16:07:39.256Z</time>
      </trkpt>
      <trkpt lat="59.34571" lon="18.0624">
        <ele>30.24198</ele>
        <time>2020-08-30T16:07:39.823Z</time>
      </trkpt>
      <trkpt lat="59.34567" lon="18.06244">
        <ele>30.170088</ele>
        <time>2020-08-30T16:07:40.435Z</time>
      </trkpt>
      <trkpt lat="59.34565" lon="18.06246">
        <ele>30.120748</ele>
        <time>2020-08-30T16:07:40.873Z</time>
      </trkpt>
      <trkpt lat="59.34562" lon="18.06249">
        <ele>30.061708</ele>
        <time>2020-08-30T16:07:41.430Z</time>
      </trkpt>
      <trkpt lat="59.34552" lon="18.06256">
        <ele>29.889017</ele>
        <time>2020-08-30T16:07:42.839Z</time>
      </trkpt>
      <trkpt lat="59.34548" lon="18.06255">
        <ele>29.819367</ele>
        <time>2020-08-30T16:07:43.406Z</time>
      </trkpt>
      <trkpt lat="59.34522" lon="18.06281">
        <ele>29.315305</ele>
        <time>2020-08-30T16:07:47.710Z</time>
      </trkpt>
      <trkpt lat="59.34513" lon="18.0629">
        <ele>29.130423</ele>
        <time>2020-08-30T16:07:49.230Z</time>
      </trkpt>
      <trkpt lat="59.34509" lon="18.06291">
        <ele>29.074814</ele>
        <time>2020-08-30T16:07:49.732Z</time>
      </trkpt>
      <trkpt lat="59.34488" lon="18.06291">
        <ele>28.701152</ele>
        <time>2020-08-30T16:07:52.918Z</time>
      </trkpt>
      <trkpt lat="59.34446" lon="18.06293">
        <ele>27.981176</ele>
        <time>2020-08-30T16:07:59.108Z</time>
      </trkpt>
      <trkpt lat="59.34411" lon="18.06293">
        <ele>27.368783</ele>
        <time>2020-08-30T16:08:04.550Z</time>
      </trkpt>
      <trkpt lat="59.34396" lon="18.06288">
        <ele>27.360675</ele>
        <time>2020-08-30T16:08:07.093Z</time>
      </trkpt>
      <trkpt lat="59.34394" lon="18.06286">
        <ele>27.371294</ele>
        <time>2020-08-30T16:08:07.417Z</time>
      </trkpt>
      <trkpt lat="59.34387" lon="18.06277">
        <ele>27.406916</ele>
        <time>2020-08-30T16:08:08.739Z</time>
      </trkpt>
      <trkpt lat="59.34374" lon="18.06264">
        <ele>27.468389</ele>
        <time>2020-08-30T16:08:10.964Z</time>
      </trkpt>
      <trkpt lat="59.34369" lon="18.06259">
        <ele>27.49428</ele>
        <time>2020-08-30T16:08:11.988Z</time>
      </trkpt>
      <trkpt lat="59.34366" lon="18.06257">
        <ele>27.508953</ele>
        <time>2020-08-30T16:08:12.789Z</time>
      </trkpt>
      <trkpt lat="59.34362" lon="18.06263">
        <ele>27.530747</ele>
        <time>2020-08-30T16:08:13.482Z</time>
      </trkpt>
      <trkpt lat="59.34358" lon="18.06266">
        <ele>27.54905</ele>
        <time>2020-08-30T16:08:14.178Z</time>
      </trkpt>
      <trkpt lat="59.34342" lon="18.06281">
        <ele>27.624665</ele>
        <time>2020-08-30T16:08:17.153Z</time>
      </trkpt>
      <trkpt lat="59.34298" lon="18.06323">
        <ele>27.840819</ele>
        <time>2020-08-30T16:08:27.477Z</time>
      </trkpt>
      <trkpt lat="59.34284" lon="18.06335">
        <ele>27.906331</ele>
        <time>2020-08-30T16:08:30.998Z</time>
      </trkpt>
      <trkpt lat="59.34276" lon="18.06344">
        <ele>27.948207</ele>
        <time>2020-08-30T16:08:33.226Z</time>
      </trkpt>
      <trkpt lat="59.34204" lon="18.06414">
        <ele>28.659838</ele>
        <time>2020-08-30T16:08:52.394Z</time>
      </trkpt>
      <trkpt lat="59.34196" lon="18.06421">
        <ele>28.75461</ele>
        <time>2020-08-30T16:08:54.327Z</time>
      </trkpt>
      <trkpt lat="59.34191" lon="18.06427">
        <ele>28.830804</ele>
        <time>2020-08-30T16:08:55.839Z</time>
      </trkpt>
      <trkpt lat="59.34181" lon="18.06437">
        <ele>28.969076</ele>
        <time>2020-08-30T16:08:58.449Z</time>
      </trkpt>
      <trkpt lat="59.34109" lon="18.06508">
        <ele>29.932994</ele>
        <time>2020-08-30T16:09:15.852Z</time>
      </trkpt>
      <trkpt lat="59.34105" lon="18.06512">
        <ele>29.981188</ele>
        <time>2020-08-30T16:09:16.739Z</time>
      </trkpt>
      <trkpt lat="59.34094" lon="18.06524">
        <ele>30.135028</ele>
        <time>2020-08-30T16:09:19.566Z</time>
      </trkpt>
      <trkpt lat="59.34086" lon="18.06534">
        <ele>30.249838</ele>
        <time>2020-08-30T16:09:21.616Z</time>
      </trkpt>
      <trkpt lat="59.34079" lon="18.06551">
        <ele>30.19465</ele>
        <time>2020-08-30T16:09:23.871Z</time>
      </trkpt>
      <trkpt lat="59.34066" lon="18.0658">
        <ele>30.09775</ele>
        <time>2020-08-30T16:09:27.856Z</time>
      </trkpt>
      <trkpt lat="59.34047" lon="18.06627">
        <ele>29.9392</ele>
        <time>2020-08-30T16:09:33.628Z</time>
      </trkpt>
      <trkpt lat="59.34037" lon="18.06649">
        <ele>29.860975</ele>
        <time>2020-08-30T16:09:36.310Z</time>
      </trkpt>
      <trkpt lat="59.34025" lon="18.06668">
        <ele>29.784845</ele>
        <time>2020-08-30T16:09:38.914Z</time>
      </trkpt>
      <trkpt lat="59.34017" lon="18.06682">
        <ele>29.729674</ele>
        <time>2020-08-30T16:09:40.736Z</time>
      </trkpt>
      <trkpt lat="59.34004" lon="18.06696">
        <ele>29.655325</ele>
        <time>2020-08-30T16:09:43.163Z</time>
      </trkpt>
      <trkpt lat="59.3397" lon="18.06731">
        <ele>29.460228</ele>
        <time>2020-08-30T16:09:49.328Z</time>
      </trkpt>
      <trkpt lat="59.33938" lon="18.06763">
        <ele>29.135421</ele>
        <time>2020-08-30T16:09:54.814Z</time>
      </trkpt>
      <trkpt lat="59.33928" lon="18.06776">
        <ele>28.939396</ele>
        <time>2020-08-30T16:09:56.514Z</time>
      </trkpt>
      <trkpt lat="59.33893" lon="18.06814">
        <ele>28.250165</ele>
        <time>2020-08-30T16:10:02.538Z</time>
      </trkpt>
      <trkpt lat="59.33883" lon="18.06825">
        <ele>28.06679</ele>
        <time>2020-08-30T16:10:04.144Z</time>
      </trkpt>
      <trkpt lat="59.33834" lon="18.06875">
        <ele>27.123351</ele>
        <time>2020-08-30T16:10:12.532Z</time>
      </trkpt>
      <trkpt lat="59.3381" lon="18.06901">
        <ele>26.661677</ele>
        <time>2020-08-30T16:10:16.663Z</time>
      </trkpt>
      <trkpt lat="59.338" lon="18.0692">
        <ele>26.420982</ele>
        <time>2020-08-30T16:10:18.833Z</time>
      </trkpt>
      <trkpt lat="59.33788" lon="18.06941">
        <ele>26.219619</ele>
        <time>2020-08-30T16:10:21.200Z</time>
      </trkpt>
      <trkpt lat="59.33779" lon="18.06958">
        <ele>26.11561</ele>
        <time>2020-08-30T16:10:23.196Z</time>
      </trkpt>
      <trkpt lat="59.33761" lon="18.06999">
        <ele>25.885718</ele>
        <time>2020-08-30T16:10:27.490Z</time>
      </trkpt>
      <trkpt lat="59.33753" lon="18.07014">
        <ele>25.795929</ele>
        <time>2020-08-30T16:10:29.247Z</time>
      </trkpt>
      <trkpt lat="59.33744" lon="18.07028">
        <ele>25.700802</ele>
        <time>2020-08-30T16:10:31.040Z</time>
      </trkpt>
      <trkpt lat="59.33701" lon="18.07098">
        <ele>25.236593</ele>
        <time>2020-08-30T16:10:40.367Z</time>
      </trkpt>
      <trkpt lat="59.33691" lon="18.07116">
        <ele>25.118754</ele>
        <time>2020-08-30T16:10:42.826Z</time>
      </trkpt>
      <trkpt lat="59.33633" lon="18.07202">
        <ele>24.640669</ele>
        <time>2020-08-30T16:10:56.069Z</time>
      </trkpt>
      <trkpt lat="59.33629" lon="18.07208">
        <ele>24.616464</ele>
        <time>2020-08-30T16:10:56.998Z</time>
      </trkpt>
      <trkpt lat="59.33622" lon="18.07217">
        <ele>24.578789</ele>
        <time>2020-08-30T16:10:58.604Z</time>
      </trkpt>
      <trkpt lat="59.33616" lon="18.07224">
        <ele>24.54698</ele>
        <time>2020-08-30T16:10:59.785Z</time>
      </trkpt>
      <trkpt lat="59.3361" lon="18.07232">
        <ele>24.512879</ele>
        <time>2020-08-30T16:11:01.011Z</time>
      </trkpt>
      <trkpt lat="59.33586" lon="18.07262">
        <ele>24.38259</ele>
        <time>2020-08-30T16:11:05.813Z</time>
      </trkpt>
      <trkpt lat="59.33569" lon="18.07278">
        <ele>24.297705</ele>
        <time>2020-08-30T16:11:08.799Z</time>
      </trkpt>
      <trkpt lat="59.33566" lon="18.07281">
        <ele>24.282697</ele>
        <time>2020-08-30T16:11:09.353Z</time>
      </trkpt>
      <trkpt lat="59.33561" lon="18.07287">
        <ele>24.253515</ele>
        <time>2020-08-30T16:11:10.493Z</time>
      </trkpt>
      <trkpt lat="59.33535" lon="18.07317">
        <ele>24.117482</ele>
        <time>2020-08-30T16:11:15.434Z</time>
      </trkpt>
      <trkpt lat="59.33517" lon="18.07341">
        <ele>24.018205</ele>
        <time>2020-08-30T16:11:19.139Z</time>
      </trkpt>
      <trkpt lat="59.33494" lon="18.07367">
        <ele>23.647771</ele>
        <time>2020-08-30T16:11:23.591Z</time>
      </trkpt>
      <trkpt lat="59.3349" lon="18.07372">
        <ele>23.556122</ele>
        <time>2020-08-30T16:11:24.262Z</time>
      </trkpt>
      <trkpt lat="59.33448" lon="18.07418">
        <ele>22.58826</ele>
        <time>2020-08-30T16:11:31.035Z</time>
      </trkpt>
      <trkpt lat="59.33442" lon="18.07426">
        <ele>22.441089</ele>
        <time>2020-08-30T16:11:32.023Z</time>
      </trkpt>
      <trkpt lat="59.33408" lon="18.07464">
        <ele>21.64919</ele>
        <time>2020-08-30T16:11:37.024Z</time>
      </trkpt>
      <trkpt lat="59.33394" lon="18.0748">
        <ele>21.319756</ele>
        <time>2020-08-30T16:11:39.106Z</time>
      </trkpt>
      <trkpt lat="59.3339" lon="18.07485">
        <ele>21.216756</ele>
        <time>2020-08-30T16:11:39.796Z</time>
      </trkpt>
      <trkpt lat="59.33374" lon="18.07505">
        <ele>20.839236</ele>
        <time>2020-08-30T16:11:42.506Z</time>
      </trkpt>
      <trkpt lat="59.33364" lon="18.07516">
        <ele>20.607744</ele>
        <time>2020-08-30T16:11:43.997Z</time>
      </trkpt>
      <trkpt lat="59.33333" lon="18.07551">
        <ele>20.288884</ele>
        <time>2020-08-30T16:11:49.472Z</time>
      </trkpt>
      <trkpt lat="59.3331" lon="18.07575">
        <ele>20.249088</ele>
        <time>2020-08-30T16:11:54.113Z</time>
      </trkpt>
      <trkpt lat="59.33307" lon="18.07577">
        <ele>20.244355</ele>
        <time>2020-08-30T16:11:54.483Z</time>
      </trkpt>
      <trkpt lat="59.33299" lon="18.07579">
        <ele>20.230785</ele>
        <time>2020-08-30T16:11:55.946Z</time>
      </trkpt>
      <trkpt lat="59.33296" lon="18.0758">
        <ele>20.226737</ele>
        <time>2020-08-30T16:11:56.415Z</time>
      </trkpt>
      <trkpt lat="59.3329" lon="18.07581">
        <ele>20.216598</ele>
        <time>2020-08-30T16:11:57.606Z</time>
      </trkpt>
      <trkpt lat="59.33281" lon="18.07583">
        <ele>20.203814</ele>
        <time>2020-08-30T16:11:59.337Z</time>
      </trkpt>
      <trkpt lat="59.33278" lon="18.07584">
        <ele>20.198663</ele>
        <time>2020-08-30T16:12:00.026Z</time>
      </trkpt>
      <trkpt lat="59.33277" lon="18.07583">
        <ele>20.196274</ele>
        <time>2020-08-30T16:12:00.370Z</time>
      </trkpt>
      <trkpt lat="59.33187" lon="18.07518">
        <ele>20.048071</ele>
        <time>2020-08-30T16:12:18.839Z</time>
      </trkpt>
      <trkpt lat="59.33107" lon="18.07455">
        <ele>19.010761</ele>
        <time>2020-08-30T16:12:36.357Z</time>
      </trkpt>
      <trkpt lat="59.331" lon="18.07448">
        <ele>18.913184</ele>
        <time>2020-08-30T16:12:37.478Z</time>
      </trkpt>
      <trkpt lat="59.33093" lon="18.07436">
        <ele>18.79751</ele>
        <time>2020-08-30T16:12:39.340Z</time>
      </trkpt>
      <trkpt lat="59.33069" lon="18.07346">
        <ele>18.153073</ele>
        <time>2020-08-30T16:12:46.788Z</time>
      </trkpt>
      <trkpt lat="59.33059" lon="18.07303">
        <ele>17.858428</ele>
        <time>2020-08-30T16:12:49.834Z</time>
      </trkpt>
      <trkpt lat="59.33056" lon="18.07291">
        <ele>17.717249</ele>
        <time>2020-08-30T16:12:50.928Z</time>
      </trkpt>
      <trkpt lat="59.33041" lon="18.07297">
        <ele>17.28905</ele>
        <time>2020-08-30T16:12:52.799Z</time>
      </trkpt>
      <trkpt lat="59.32982" lon="18.07333">
        <ele>15.664963</ele>
        <time>2020-08-30T16:13:00.729Z</time>
      </trkpt>
      <trkpt lat="59.32976" lon="18.07333">
        <ele>15.497174</ele>
        <time>2020-08-30T16:13:01.415Z</time>
      </trkpt>
      <trkpt lat="59.32963" lon="18.07332">
        <ele>15.14268</ele>
        <time>2020-08-30T16:13:03.186Z</time>
      </trkpt>
      <trkpt lat="59.32949" lon="18.07328">
        <ele>14.783395</ele>
        <time>2020-08-30T16:13:05.482Z</time>
      </trkpt>
      <trkpt lat="59.32944" lon="18.07326">
        <ele>14.640592</ele>
        <time>2020-08-30T16:13:06.178Z</time>
      </trkpt>
      <trkpt lat="59.32942" lon="18.07326">
        <ele>14.594882</ele>
        <time>2020-08-30T16:13:06.381Z</time>
      </trkpt>
      <trkpt lat="59.32819" lon="18.07297">
        <ele>14.333551</ele>
        <time>2020-08-30T16:13:26.923Z</time>
      </trkpt>
      <trkpt lat="59.32816" lon="18.07296">
        <ele>14.391764</ele>
        <time>2020-08-30T16:13:27.615Z</time>
      </trkpt>
      <trkpt lat="59.32814" lon="18.07296">
        <ele>14.441737</ele>
        <time>2020-08-30T16:13:28.113Z</time>
      </trkpt>
      <trkpt lat="59.32811" lon="18.07296">
        <ele>14.501541</ele>
        <time>2020-08-30T16:13:28.843Z</time>
      </trkpt>
      <trkpt lat="59.32805" lon="18.07289">
        <ele>14.641169</ele>
        <time>2020-08-30T16:13:30.690Z</time>
      </trkpt>
      <trkpt lat="59.32793" lon="18.07287">
        <ele>14.869111</ele>
        <time>2020-08-30T16:13:33.762Z</time>
      </trkpt>
      <trkpt lat="59.32789" lon="18.07288">
        <ele>14.964519</ele>
        <time>2020-08-30T16:13:35.091Z</time>
      </trkpt>
      <trkpt lat="59.32781" lon="18.07295">
        <ele>15.136665</ele>
        <time>2020-08-30T16:13:37.262Z</time>
      </trkpt>
      <trkpt lat="59.32713" lon="18.07378">
        <ele>16.867171</ele>
        <time>2020-08-30T16:14:01.682Z</time>
      </trkpt>
      <trkpt lat="59.32672" lon="18.07424">
        <ele>19.009212</ele>
        <time>2020-08-30T16:14:18.654Z</time>
      </trkpt>
      <trkpt lat="59.32666" lon="18.07432">
        <ele>19.320059</ele>
        <time>2020-08-30T16:14:20.724Z</time>
      </trkpt>
      <trkpt lat="59.32656" lon="18.07446">
        <ele>19.897516</ele>
        <time>2020-08-30T16:14:23.940Z</time>
      </trkpt>
      <trkpt lat="59.32652" lon="18.07434">
        <ele>20.212078</ele>
        <time>2020-08-30T16:14:26.179Z</time>
      </trkpt>
      <trkpt lat="59.32649" lon="18.07424">
        <ele>20.497406</ele>
        <time>2020-08-30T16:14:28.766Z</time>
      </trkpt>
      <trkpt lat="59.32641" lon="18.0742">
        <ele>20.86367</ele>
        <time>2020-08-30T16:14:31.665Z</time>
      </trkpt>
      <trkpt lat="59.32621" lon="18.07304">
        <ele>23.671762</ele>
        <time>2020-08-30T16:14:51.563Z</time>
      </trkpt>
      <trkpt lat="59.32619" lon="18.07306">
        <ele>23.777231</ele>
        <time>2020-08-30T16:14:53.248Z</time>
      </trkpt>
      <trkpt lat="59.32617" lon="18.07307">
        <ele>23.879249</ele>
        <time>2020-08-30T16:14:54.115Z</time>
      </trkpt>
      <trkpt lat="59.32609" lon="18.07295">
        <ele>24.356783</ele>
        <time>2020-08-30T16:14:57.225Z</time>
      </trkpt>
      <trkpt lat="59.32593" lon="18.073">
        <ele>24.76213</ele>
        <time>2020-08-30T16:15:01.637Z</time>
      </trkpt>
      <trkpt lat="59.32593" lon="18.07299">
        <ele>24.76213</ele>
        <time>2020-08-30T16:15:01.980Z</time>
      </trkpt>
      <trkpt lat="59.32588" lon="18.07261">
        <ele>24.76213</ele>
        <time>2020-08-30T16:15:08.909Z</time>
      </trkpt>
      <trkpt lat="59.32578" lon="18.072">
        <ele>24.76213</ele>
        <time>2020-08-30T16:15:19.407Z</time>
      </trkpt>
      <trkpt lat="59.32577" lon="18.072">
        <ele>24.76213</ele>
        <time>2020-08-30T16:15:19.753Z</time>
      </trkpt>
      <trkpt lat="59.32565" lon="18.07114">
        <ele>24.76213</ele>
        <time>2020-08-30T16:15:31.827Z</time>
      </trkpt>
      <trkpt lat="59.32541" lon="18.07123">
        <ele>24.76213</ele>
        <time>2020-08-30T16:15:38.443Z</time>
      </trkpt>
      <trkpt lat="59.32522" lon="18.07125">
        <ele>24.76213</ele>
        <time>2020-08-30T16:15:42.256Z</time>
      </trkpt>
      <trkpt lat="59.32519" lon="18.07105">
        <ele>24.76213</ele>
        <time>2020-08-30T16:15:44.937Z</time>
      </trkpt>
    </trkseg>
  </trk>
</gpx>